Date	Time	Direct	Global	Diffuse	WindSpeed	WindDirection	AmbientTemperature	Humidity	Rain	Pressure	PT100Direct	PT100Global	PT100Diffuse	TriggerBarometer	Fuse1	Fuse2	Fuse3	Fuse4	Fuse5	Fuse6	Fuse7	Fuse9	UPS	OvervoltageProtection	Lnet	Tb	Ld
[dd.mm.yyyy]	[hh:mm:ss]	[W/m2]	[W/m2]	[W/m2]	[m/s]	[Grad]	[GradCelsius]	[%]	[mm/d]	[hPa]	[GradCelsius]	[GradCelsius]	[GradCelsius]	[0/1]	[0=Error,1=OK]	[0=Error,1=OK]	[0=Error,1=OK]	[0=Error,1=OK]	[0=Error,1=OK]	[0=Error,1=OK]	[0=Error,1=OK]	[0=Error,1=OK]	[0=Error,1=OK]	[0=Error,1=OK]	 [W/m2]	[K]]	 [W/m2]
14.01.2021	17:25:17	0	0	0	0	0	0	0	0	0	0	0	0	1	0	0	0	0	0	0	0	0	0	0	0	0	0	0
14.01.2021	17:25:20	0	0	0	0	0	-30	0	0	600	8	10	9,8	1	0	0	0	0	0	0	0	0	0	0	-0	-0	0	0
14.01.2021	17:25:21	0	0	0	0	0	-30	0	0	600	8	10	9,8	1	1	1	1	1	1	1	1	1	0	1	-0	-0	0	0
14.01.2021	17:25:22	0	0	4,631925	2,87925	105,5088	1,365	75,966	3,5	1005,66	8	10	9,7	1	1	1	1	1	1	1	1	1	0	1	-28,893587	275,407215	297,30668	0
14.01.2021	17:25:23	0	0	3,050292	2,59875	114,8796	1,367	75,98	3,5	1005,6	8	10	9,7	1	1	1	1	1	1	1	1	1	0	1	-30,443975	275,283072	295,168535	0
14.01.2021	17:25:24	0	0	2,824345	2,658	85,1652	1,367	75,981	3,5	1005,72	7,9	9,8	9,7	1	1	1	1	1	1	1	1	1	0	1	-31,994362	275,402425	294,183214	0
14.01.2021	17:25:25	0	0	4,292978	2,51775	113,7384	1,359	75,985	3,5	1005,66	7,9	10	9,8	1	1	1	1	1	1	1	1	1	0	1	-32,064834	275,368932	293,954098	0
14.01.2021	17:25:26	0	0	3,163247	2,72625	111,798	1,363	75,982	3,5	1005,72	8	10	9,8	1	1	1	1	1	1	1	1	1	0	1	-30,93728	275,284658	294,682736	0
14.01.2021	17:25:27	0	0	2,259462	2,922	95,5116	1,361	75,985	3,5	1005,66	8	10	9,8	1	1	1	1	1	1	1	1	1	0	1	-36,15222	275,226042	289,190547	0
14.01.2021	17:25:28	0	0	4,518924	3,078	94,3704	1,36	75,989	3,5	1005,58	7,9	10	9,8	1	1	1	1	1	1	1	1	1	0	1	-33,967583	275,268798	291,577401	0
14.01.2021	17:25:29	0	0	2,146489	3,26625	88,1208	1,362	75,994	3,5	1005,76	8	10	9,8	1	1	1	1	1	1	1	1	1	0	1	-36,363636	275,400829	289,806378	0
14.01.2021	17:25:30	0	0	4,292978	3,345	94,7412	1,359	75,973	3,5	1005,44	8	10	9,8	1	1	1	1	1	1	1	1	1	0	1	-35,729387	275,359373	290,24428	0
14.01.2021	17:25:31	0	0	3,954059	3,32775	99,5472	1,36	75,995	3,5	1005,72	8	10	9,8	1	1	1	1	1	1	1	1	1	0	1	-30,232558	275,276727	295,349932	0
14.01.2021	17:25:32	0	0	3,615161	3,2895	90,774	1,357	75,992	3,5	1005,82	8	9,8	9,7	1	1	1	1	1	1	1	1	1	0	1	-32,487667	275,408812	293,720164	0
14.01.2021	17:25:33	0	0	3,954059	3,26775	91,8972	1,354	75,992	3,5	1005,58	7,9	9,8	9,8	1	1	1	1	1	1	1	1	1	0	1	-35,024665	275,286245	290,602858	0
14.01.2021	17:25:34	0	0	3,163247	3,23325	87,4476	1,358	76,003	3,5	1005,48	8	10	9,8	1	1	1	1	1	1	1	1	1	0	1	-30,232558	275,396041	295,914775	0
14.01.2021	17:25:35	0	0	4,744899	3,3255	87,3648	1,354	75,997	3,5	1005,68	7,9	10	9,7	1	1	1	1	1	1	1	1	1	0	1	-30,021142	275,345044	295,884677	0
14.01.2021	17:25:36	0	0	2,937318	3,39525	81,234	1,361	76,01	3,5	1005,7	8	10	9,7	1	1	1	1	1	1	1	1	1	0	1	-28,752643	275,39285	297,379573	0
14.01.2021	17:25:37	0	0	3,954082	3,23925	79,0416	1,362	76,017	3,5	1005,66	7,9	10	9,7	1	1	1	1	1	1	1	1	1	0	1	-32,417195	275,405618	293,775507	0
14.01.2021	17:25:38	0	0	2,485408	3,19425	93,3264	1,356	76,016	3,5	1005,68	7,9	10	9,8	1	1	1	1	1	1	1	1	1	0	1	-30,373502	275,345044	295,532316	0
14.01.2021	17:25:39	0	0	3,502166	3,153	101,4912	1,359	76,016	3,5	1005,74	8	10	9,8	1	1	1	1	1	1	1	1	1	0	1	-31,430585	275,381685	294,648744	0
14.01.2021	17:25:40	0	0	4,405978	3,11025	104,4108	1,358	76,026	3,5	1005,66	7,9	10	9,7	1	1	1	1	1	1	1	1	1	0	1	-30,443975	275,39285	295,688241	0
14.01.2021	17:25:41	0	0	3,163266	3,1335	90,0504	1,358	76,05	3,5	1005,74	7,9	9,8	9,7	1	1	1	1	1	1	1	1	1	0	1	-31,430585	275,338679	294,445098	0
14.01.2021	17:25:42	0	0	3,502166	3,2325	101,106	1,358	76,051	3,5	1005,7	7,9	10	9,8	1	1	1	1	1	1	1	1	1	0	1	-32,840028	275,389659	293,277073	0
14.01.2021	17:25:43	0	0	3,954082	3,2805	94,1076	1,356	76,07	3,5	1005,7	8	10	9,7	1	1	1	1	1	1	1	1	1	0	1	-31,92389	275,362559	294,064862	0
14.01.2021	17:25:44	0	0	4,857844	3,43725	87,7212	1,356	76,07	3,5	1005,58	7,9	9,8	9,8	1	1	1	1	1	1	1	1	1	0	1	-30,655391	275,316417	295,114913	0
14.01.2021	17:25:45	0	0	3,163266	3,38775	96,588	1,359	76,073	3,5	1005,76	7,9	10	9,7	1	1	1	1	1	1	1	1	1	0	1	-31,007752	275,222878	294,320057	0
14.01.2021	17:25:46	0	0	4,970847	3,2685	97,6824	1,354	76,081	3,5	1005,58	8	10	9,7	1	1	1	1	1	1	1	1	1	0	1	-35,658915	275,364152	290,337382	0
14.01.2021	17:25:47	0	0	3,615161	3,2355	91,152	1,352	76,082	3,5	1005,7	7,9	10	9,7	1	1	1	1	1	1	1	1	1	0	1	-28,541226	275,31165	297,206516	0
14.01.2021	17:25:48	0	0	3,163266	3,42675	101,8008	1,357	76,092	3,5	1005,54	7,9	10	9,7	1	1	1	1	1	1	1	1	1	0	1	-33,262861	275,400829	292,907153	0
14.01.2021	17:25:49	0	0	3,954082	3,5895	95,5512	1,353	76,094	3,5	1005,6	8	10	9,7	1	1	1	1	1	1	1	1	1	0	1	-31,92389	275,29418	293,741181	0
14.01.2021	17:25:50	0	0	2,937301	3,5655	95,5296	1,351	76,098	3,5	1005,64	8	9,8	9,8	1	1	1	1	1	1	1	1	1	0	1	-35,16561	275,332316	290,67995	0
14.01.2021	17:25:51	0	0	2,937301	3,558	102,564	1,351	76,107	3,5	1005,64	7,9	10	9,8	1	1	1	1	1	1	1	1	1	0	1	-29,950669	275,396041	296,196663	0
14.01.2021	17:25:52	0	0	3,502166	3,62025	97,6896	1,353	76,104	3,5	1005,74	7,9	10	9,8	1	1	1	1	1	1	1	1	1	0	1	-32,346723	275,259289	293,153277	0
14.01.2021	17:25:53	0	0	3,841086	3,66825	99,1404	1,35	76,106	3,5	1005,54	7,9	10	9,8	1	1	1	1	1	1	1	1	1	0	1	-32,9105	275,268798	292,634483	0
14.01.2021	17:25:54	0	0	2,711355	3,61575	98,4564	1,351	76,116	3,5	1005,58	8	10	9,8	1	1	1	1	1	1	1	1	1	0	1	-28,823115	275,222878	296,504694	0
14.01.2021	17:25:55	0	0	3,163266	3,624	105,5376	1,348	76,117	3,5	1005,56	7,9	10	9,7	1	1	1	1	1	1	1	1	1	0	1	-30,443975	275,252952	295,026051	0
14.01.2021	17:25:56	0	0	3,841086	3,57075	103,0428	1,345	76,129	3,5	1005,64	7,9	10	9,8	1	1	1	1	1	1	1	1	1	0	1	-32,769556	275,345044	293,136263	0
14.01.2021	17:25:57	0	0	4,631897	3,34425	111,0528	1,35	76,121	3,5	1005,44	8	10	9,8	1	1	1	1	1	1	1	1	1	0	1	-32,276251	275,391255	293,848407	0
14.01.2021	17:25:58	0	0	3,163247	3,024	104,04	1,353	76,13	3,5	1005,62	7,9	9,8	9,8	1	1	1	1	1	1	1	1	1	0	1	-29,950669	275,25612	295,534342	0
14.01.2021	17:25:59	0	0	2,824328	2,81475	105,8544	1,346	76,128	3,5	1005,62	7,9	10	9,8	1	1	1	1	1	1	1	1	1	0	1	-30,866808	275,245033	294,565767	0
14.01.2021	17:26:00	0	0	3,728113	2,44425	108,4896	1,342	76,133	3,5	1005,64	7,9	10	9,8	1	1	1	1	1	1	1	1	1	0	1	-32,346723	275,227624	293,003524	0
14.01.2021	17:26:01	0	0	3,502187	2,26575	111,8088	1,34	76,121	3,5	1005,58	7,9	10	9,7	1	1	1	1	1	1	1	1	1	0	1	-32,346723	275,227624	293,003524	0
14.01.2021	17:26:02	0	0	3,502187	2,26575	111,8088	1,34	76,121	3,5	1005,58	7,9	10	9,7	1	1	1	1	1	1	1	1	1	0	1	-31,92389	275,319595	293,861459	0
14.01.2021	17:26:03	0	0	3,841086	2,1135	109,98	1,345	76,118	3,5	1005,62	7,9	10	9,8	1	1	1	1	1	1	1	1	1	0	1	-34,178999	275,194431	291,014325	0
14.01.2021	17:26:04	0	0	4,744871	2,04	103,6728	1,352	76,119	3,5	1005,58	7,9	9,8	9,8	1	1	1	1	1	1	1	1	1	0	1	-37,279774	275,332316	288,565786	0
14.01.2021	17:26:05	0	0	3,841109	2,18925	95,5152	1,344	76,122	3,5	1005,6	7,9	10	9,7	1	1	1	1	1	1	1	1	1	0	1	-31,642001	275,383279	294,444881	0
14.01.2021	17:26:06	0	0	4,631897	2,57625	93,3336	1,35	76,123	3,5	1005,46	8	10	9,8	1	1	1	1	1	1	1	1	1	0	1	-32,417195	275,245033	293,015379	0
14.01.2021	17:26:07	0	0	3,502166	2,5995	105,1992	1,348	76,127	3,5	1005,6	7,9	9,8	9,8	1	1	1	1	1	1	1	1	1	0	1	-36,715997	275,276727	288,866493	0
14.01.2021	17:26:08	0	0	3,050292	2,58825	91,1448	1,353	76,127	3,5	1005,68	7,9	10	9,7	1	1	1	1	1	1	1	1	1	0	1	-30,30303	275,360966	295,678179	0
14.01.2021	17:26:09	0	0	4,631897	2,5485	103,6692	1,349	76,124	3,5	1005,54	8	10	9,8	1	1	1	1	1	1	1	1	1	0	1	-34,954193	275,327545	290,868782	0
14.01.2021	17:26:10	0	0	3,163247	2,562	101,8188	1,347	76,13	3,5	1005,54	8	9,8	9,8	1	1	1	1	1	1	1	1	1	0	1	-33,262861	275,21023	292,005147	0
14.01.2021	17:26:11	0	0	4,518951	2,70525	106,3044	1,339	76,123	3,5	1005,52	8	10	9,7	1	1	1	1	1	1	1	1	1	0	1	-33,121917	275,313239	292,633345	0
14.01.2021	17:26:12	0	0	4,067056	2,95275	109,9476	1,341	76,124	3,5	1005,38	7,9	9,8	9,7	1	1	1	1	1	1	1	1	1	0	1	-35,095137	275,348227	290,825753	0
14.01.2021	17:26:13	0	0	4,067056	2,8335	108,8676	1,345	76,136	3,5	1005,6	7,9	10	9,7	1	1	1	1	1	1	1	1	1	0	1	-34,249471	275,386469	291,852519	0
14.01.2021	17:26:14	0	0	4,744871	2,958	107,7372	1,348	76,134	3,5	1005,54	8	10	9,8	1	1	1	1	1	1	1	1	1	0	1	-32,135307	275,19601	293,065483	0
14.01.2021	17:26:15	0	0	3,728135	3,2055	99,5292	1,346	76,147	3,5	1005,62	7,9	10	9,7	1	1	1	1	1	1	1	1	1	0	1	-28,047921	275,281485	297,557083	0
14.01.2021	17:26:16	0	0	4,518951	3,384	88,5888	1,347	76,129	3,5	1005,52	7,9	10	9,7	1	1	1	1	1	1	1	1	1	0	1	-31,289641	275,213391	293,993314	0
14.01.2021	17:26:17	0	0	4,067032	3,3975	80,1252	1,341	76,124	3,5	1005,5	7,9	10	9,8	1	1	1	1	1	1	1	1	1	0	1	-31,289641	275,391255	294,835018	0
14.01.2021	17:26:18	0	0	3,050292	3,5445	92,9556	1,343	76,133	3,5	1005,58	7,9	10	9,7	1	1	1	1	1	1	1	1	1	0	1	-29,386892	275,321185	296,405981	0
14.01.2021	17:26:19	0	0	4,405951	3,441	91,1412	1,349	76,146	3,5	1005,62	7,9	10	9,8	1	1	1	1	1	1	1	1	1	0	1	-26,0747	275,194431	299,118624	0
14.01.2021	17:26:20	0	0	3,728113	3,21975	90,7848	1,343	76,138	3,5	1005,56	7,9	10	9,8	1	1	1	1	1	1	1	1	1	0	1	-26,215645	275,292593	299,441915	0
14.01.2021	17:26:21	0	0	4,631897	3,12	100,4688	1,346	76,152	3,5	1005,54	7,9	10	9,8	1	1	1	1	1	1	1	1	1	0	1	-29,105004	275,202329	296,125654	0
14.01.2021	17:26:22	0	0	4,631897	3,1575	94,3884	1,35	76,148	3,5	1005,6	7,9	9,8	9,8	1	1	1	1	1	1	1	1	1	0	1	-32,9105	275,356188	293,048084	0
14.01.2021	17:26:23	0	0	4,970817	3,1005	94,0896	1,348	76,151	3,5	1005,68	8	9,8	9,8	1	1	1	1	1	1	1	1	1	0	1	-33,685694	275,264043	291,836794	0
14.01.2021	17:26:24	0	0	3,841086	2,93625	80,1396	1,342	76,152	3,5	1005,56	7,9	10	9,8	1	1	1	1	1	1	1	1	1	0	1	-30,443975	275,370526	295,582505	0
14.01.2021	17:26:25	0	0	4,405978	2,84625	81,198	1,345	76,158	3,5	1005,64	8	9,8	9,7	1	1	1	1	1	1	1	1	1	0	1	-29,950669	275,38009	296,121107	0
14.01.2021	17:26:26	0	0	3,954082	2,69625	85,536	1,368	76,166	3,5	1005,74	7,9	10	9,7	1	1	1	1	1	1	1	1	1	0	1	-28,259338	275,314828	297,503445	0
14.01.2021	17:26:27	0	0	4,293004	2,57925	90,036	1,347	76,179	3,5	1005,66	7,9	10	9,7	1	1	1	1	1	1	1	1	1	0	1	-35,870331	275,365745	290,13351	0
14.01.2021	17:26:28	0	0	3,615139	2,604	87,7464	1,343	76,168	3,5	1005,52	7,9	10	9,8	1	1	1	1	1	1	1	1	1	0	1	-34,813249	275,329135	291,017254	0
14.01.2021	17:26:29	0	0	4,405978	2,5485	86,2992	1,343	76,168	3,5	1005,62	7,9	9,8	9,7	1	1	1	1	1	1	1	1	1	0	1	-31,994362	275,381685	294,084967	0
14.01.2021	17:26:30	0	0	3,27624	2,38575	62,3988	1,347	76,173	3,5	1005,74	8	9,8	9,7	1	1	1	1	1	1	1	1	1	0	1	-32,628612	275,240284	292,781501	0
14.01.2021	17:26:31	0	0	4,292978	2,28825	72,6948	1,34	76,183	3,5	1005,6	7,9	10	9,8	1	1	1	1	1	1	1	1	1	0	1	-31,078224	275,306884	294,646962	0
14.01.2021	17:26:32	0	0	4,292978	2,25675	78,6564	1,349	76,183	3,5	1005,66	8	10	9,8	1	1	1	1	1	1	1	1	1	0	1	-30,162086	275,353003	295,781419	0
14.01.2021	17:26:33	0	0	3,389193	2,328	91,8828	1,341	76,189	3,5	1005,7	8	10	9,8	1	1	1	1	1	1	1	1	1	0	1	-31,148696	275,295768	294,523887	0
14.01.2021	17:26:34	0	0	2,259462	2,39775	81,1944	1,347	76,183	3,5	1005,62	7,9	9,8	9,8	1	1	1	1	1	1	1	1	1	0	1	-33,192389	275,37212	292,841638	0
14.01.2021	17:26:35	0	0	2,485408	2,442	76,0716	1,341	76,191	3,5	1005,6	8	10	9,8	1	1	1	1	1	1	1	1	1	0	1	-32,487667	275,226042	292,855099	0
14.01.2021	17:26:36	0	0	2,937301	2,5095	91,4904	1,341	76,186	3,5	1005,62	7,9	9,8	9,8	1	1	1	1	1	1	1	1	1	0	1	-30,655391	275,24345	294,769695	0
14.01.2021	17:26:37	0	0	3,050274	2,403	111,438	1,342	76,2	3,5	1005,58	8	10	9,8	1	1	1	1	1	1	1	1	1	0	1	-31,712474	275,199169	293,503248	0
14.01.2021	17:26:38	0	0	2,485408	2,37525	121,2372	1,344	76,195	3,5	1005,56	8	10	9,8	1	1	1	1	1	1	1	1	1	0	1	-32,840028	275,213391	292,442926	0
14.01.2021	17:26:39	0	0	2,598381	2,37075	103,6728	1,336	76,197	3,5	1005,54	8	9,9	9,8	1	1	1	1	1	1	1	1	1	0	1	-31,642001	275,21023	293,626007	0
14.01.2021	17:26:40	0	0	3,050274	2,23575	107,7264	1,345	76,202	3,5	1005,54	8	10	9,8	1	1	1	1	1	1	1	1	1	0	1	-28,470754	275,21023	296,797254	0
14.01.2021	17:26:41	0	0	4,518951	2,2125	105,0912	1,34	76,203	3,5	1005,66	7,9	9,8	9,7	1	1	1	1	1	1	1	1	1	0	1	-31,712474	275,305295	294,005196	0
14.01.2021	17:26:42	0	0	3,27624	2,31825	111,0672	1,341	76,205	3,5	1005,78	8	10	9,7	1	1	1	1	1	1	1	1	1	0	1	-35,024665	275,373713	291,01691	0
14.01.2021	17:26:43	0	0	2,033528	2,2905	105,1452	1,336	76,192	3,5	1005,44	8	10	9,7	1	1	1	1	1	1	1	1	1	0	1	-32,205779	275,254536	293,271739	0
14.01.2021	17:26:44	0	0	3,27624	2,22825	102,5892	1,343	76,208	3,5	1005,7	8	10	9,7	1	1	1	1	1	1	1	1	1	0	1	-33,967583	275,183379	291,173506	0
14.01.2021	17:26:45	0	0	2,485408	2,15925	105,1092	1,337	76,175	3,5	1005,58	8	10	9,8	1	1	1	1	1	1	1	1	1	0	1	-28,259338	275,202329	296,97132	0
14.01.2021	17:26:46	0	0	3,615139	2,15025	96,5844	1,345	76,199	3,5	1005,64	8	10	9,8	1	1	1	1	1	1	1	1	1	0	1	-31,501057	275,313239	294,254205	0
14.01.2021	17:26:47	0	0	4,631897	2,12475	107,7624	1,339	76,209	3,5	1005,68	8	10	9,8	1	1	1	1	1	1	1	1	1	0	1	-28,259338	275,178645	296,859376	0
14.01.2021	17:26:48	0	0	3,954059	1,98075	84,06	1,343	76,203	3,5	1005,72	8	9,8	9,8	1	1	1	1	1	1	1	1	1	0	1	-31,501057	275,264043	294,021431	0
14.01.2021	17:26:49	0	0	3,615139	1,986	99,9108	1,341	76,205	3,5	1005,54	8	9,8	9,8	1	1	1	1	1	1	1	1	1	0	1	-33,474278	275,188115	291,689193	0
14.01.2021	17:26:50	0	0	2,711371	2,0025	85,1796	1,341	76,185	3,5	1005,66	8	10	9,7	1	1	1	1	1	1	1	1	1	0	1	-31,148696	275,222878	294,179113	0
14.01.2021	17:26:51	0	0	3,615139	2,1255	86,6448	1,345	76,205	3,5	1005,72	8	10	9,8	1	1	1	1	1	1	1	1	1	0	1	-33,403805	275,208649	291,856731	0
14.01.2021	17:26:52	0	0	2,711371	2,1255	85,9068	1,338	76,202	3,5	1005,6	8	10	9,7	1	1	1	1	1	1	1	1	1	0	1	-37,350247	275,178645	287,768467	0
14.01.2021	17:26:53	0	0	3,841086	2,11575	96,5844	1,344	76,209	3,5	1005,76	8	10	9,8	1	1	1	1	1	1	1	1	1	0	1	-31,360113	275,202329	293,870544	0
14.01.2021	17:26:54	0	0	2,824345	2,226	95,5332	1,345	76,2	3,5	1005,58	7,9	10	9,7	1	1	1	1	1	1	1	1	1	0	1	-30,443975	275,183379	294,697114	0
14.01.2021	17:26:55	0	0	5,08379	2,2635	108,504	1,34	76,203	3,5	1005,6	8	9,8	9,8	1	1	1	1	1	1	1	1	1	0	1	-37,702607	275,265628	287,827379	0
14.01.2021	17:26:56	0	0	2,598381	2,16975	78,6672	1,336	76,18	3,5	1005,64	8	9,8	9,8	1	1	1	1	1	1	1	1	1	0	1	-32,417195	275,213391	292,865759	0
14.01.2021	17:26:57	0	0	4,180005	2,298	92,052	1,343	76,21	3,5	1005,62	8	9,8	9,8	1	1	1	1	1	1	1	1	1	0	1	-31,994362	275,173911	293,101982	0
14.01.2021	17:26:58	0	0	3,050274	2,60925	92,9484	1,34	76,196	3,5	1005,58	8	9,9	9,8	1	1	1	1	1	1	1	1	1	0	1	-29,809725	275,325954	296,005724	0
14.01.2021	17:26:59	0	0	4,631925	3,231	107,0244	1,345	76,201	3,5	1005,56	8	9,8	9,7	1	1	1	1	1	1	1	1	1	0	1	-31,501057	275,357781	294,465068	0
14.01.2021	17:27:00	0	0	2,824328	3,498	90,036	1,344	76,215	3,5	1005,56	8	9,8	9,8	1	1	1	1	1	1	1	1	1	0	1	-33,54475	275,298943	292,142859	0
14.01.2021	17:27:01	0	0	2,824328	3,498	90,036	1,344	76,215	3,5	1005,56	8	9,8	9,8	1	1	1	1	1	1	1	1	1	0	1	-33,54475	275,298943	292,142859	0
14.01.2021	17:27:02	0	0	2,259462	3,37125	96,9336	1,339	76,216	3,5	1005,62	8	10	9,8	1	1	1	1	1	1	1	1	1	0	1	-34,601832	275,359373	291,371834	0
14.01.2021	17:27:03	0	0	2,372435	3,216	100,7496	1,335	76,231	3,5	1005,44	8	9,8	9,8	1	1	1	1	1	1	1	1	1	0	1	-30,866808	275,191272	294,311588	0
14.01.2021	17:27:04	0	0	4,631897	3,43275	107,7408	1,339	76,239	3,5	1005,58	8	9,8	9,8	1	1	1	1	1	1	1	1	1	0	1	-36,856942	275,286245	288,770582	0
14.01.2021	17:27:05	0	0	2,711371	3,369	112,6584	1,336	76,239	3,5	1005,76	8	9,9	9,7	1	1	1	1	1	1	1	1	1	0	1	-33,051445	275,349819	292,876983	0
14.01.2021	17:27:06	0	0	4,067056	3,21225	111,4236	1,335	76,234	3,5	1005,52	8	9,8	9,7	1	1	1	1	1	1	1	1	1	0	1	-32,346723	275,22446	292,988565	0
14.01.2021	17:27:07	0	0	4,067032	3,09	101,484	1,339	76,247	3,5	1005,56	8	10	9,8	1	1	1	1	1	1	1	1	1	0	1	-31,92389	275,34027	293,959326	0
14.01.2021	17:27:08	0	0	2,485408	3,2025	84,042	1,34	76,258	3,5	1005,58	8	10	9,8	1	1	1	1	1	1	1	1	1	0	1	-34,178999	275,359373	291,794667	0
14.01.2021	17:27:09	0	0	2,711355	3,31575	103,4136	1,337	76,247	3,5	1005,62	8	9,8	9,8	1	1	1	1	1	1	1	1	1	0	1	-31,712474	275,279899	293,885025	0
14.01.2021	17:27:10	0	0	3,615139	3,0945	88,1064	1,331	76,26	3,5	1005,46	8	9,9	9,8	1	1	1	1	1	1	1	1	1	0	1	-34,178999	275,341861	291,71175	0
14.01.2021	17:27:11	0	0	4,067056	2,934	88,9488	1,329	76,261	3,5	1005,44	8	9,8	9,7	1	1	1	1	1	1	1	1	1	0	1	-33,967583	275,31165	291,780159	0
14.01.2021	17:27:12	0	0	2,711355	2,87925	97,668	1,329	76,254	3,5	1005,5	8	9,8	9,8	1	1	1	1	1	1	1	1	1	0	1	-29,739253	275,22446	295,596035	0
14.01.2021	17:27:13	0	0	2,598381	2,727	90,7956	1,338	76,268	3,5	1005,7	7,9	9,9	9,8	1	1	1	1	1	1	1	1	1	0	1	-30,866808	275,164448	294,184819	0
14.01.2021	17:27:14	0	0	4,518951	2,63325	97,3368	1,335	76,275	3,5	1005,66	8	9,9	9,7	1	1	1	1	1	1	1	1	1	0	1	-32,55814	275,278313	293,031855	0
14.01.2021	17:27:15	0	0	4,18003	2,76225	100,7424	1,333	76,28	3,5	1005,6	8	9,9	9,7	1	1	1	1	1	1	1	1	1	0	1	-32,699084	275,289419	292,943456	0
14.01.2021	17:27:16	0	0	3,389214	3,1515	94,0572	1,336	76,281	3,5	1005,7	8	10	9,7	1	1	1	1	1	1	1	1	1	0	1	-29,457364	275,177067	295,653892	0
14.01.2021	17:27:17	0	0	4,518924	3,55575	88,5564	1,334	76,27	3,5	1005,62	8	9,8	9,8	1	1	1	1	1	1	1	1	1	0	1	-33,121917	275,229206	292,23581	0
14.01.2021	17:27:18	0	0	2,485423	3,66	86,976	1,338	76,285	3,5	1005,62	8	9,8	9,7	1	1	1	1	1	1	1	1	1	0	1	-33,262861	275,167602	291,803668	0
14.01.2021	17:27:19	0	0	3,27624	3,63375	94,0932	1,331	76,268	3,5	1005,6	8	9,8	9,7	1	1	1	1	1	1	1	1	1	0	1	-33,826638	275,207069	291,426427	0
14.01.2021	17:27:20	0	0	2,824345	3,765	88,1136	1,325	76,277	3,5	1005,6	8	10	9,7	1	1	1	1	1	1	1	1	1	0	1	-33,615222	275,283072	291,997287	0
14.01.2021	17:27:21	0	0	4,18003	3,885	92,9484	1,33	76,274	3,5	1005,54	8	10	9,7	1	1	1	1	1	1	1	1	1	0	1	-34,108527	275,332316	291,737033	0
14.01.2021	17:27:22	0	0	2,937318	3,77475	96,5664	1,331	76,282	3,5	1005,7	8	9,8	9,7	1	1	1	1	1	1	1	1	1	0	1	-33,051445	275,203909	292,186681	0
14.01.2021	17:27:23	0	0	2,824328	3,63975	95,094	1,33	76,286	3,5	1005,66	8	9,8	9,8	1	1	1	1	1	1	1	1	1	0	1	-35,377026	275,214972	289,913402	0
14.01.2021	17:27:24	0	0	3,841109	3,6705	78,2928	1,329	76,28	3,5	1005,64	8	9,8	9,7	1	1	1	1	1	1	1	1	1	0	1	-31,289641	275,318006	294,488186	0
14.01.2021	17:27:25	0	0	3,050274	3,84975	81,2052	1,334	76,295	3,5	1005,54	8	9,8	9,8	1	1	1	1	1	1	1	1	1	0	1	-36,222692	275,270384	289,329792	0
14.01.2021	17:27:26	0	0	4,293004	3,8565	74,52	1,334	76,295	3,5	1005,58	8	9,9	9,7	1	1	1	1	1	1	1	1	1	0	1	-30,584919	275,341861	295,30583	0
14.01.2021	17:27:27	0	0	3,502187	3,71025	84,42	1,334	76,301	3,5	1005,72	8	9,8	9,7	1	1	1	1	1	1	1	1	1	0	1	-32,276251	275,213391	293,006703	0
14.01.2021	17:27:28	0	0	3,502187	3,939	100,3536	1,334	76,297	3,5	1005,6	8	9,8	9,7	1	1	1	1	1	1	1	1	1	0	1	-31,92389	275,343452	293,974394	0
14.01.2021	17:27:29	0	0	4,744899	4,29225	92,9592	1,332	76,286	3,5	1005,66	8	9,9	9,7	1	1	1	1	1	1	1	1	1	0	1	-31,360113	275,216553	293,93779	0
14.01.2021	17:27:30	0	0	2,598397	4,51425	88,5744	1,334	76,282	3,5	1005,78	8	9,9	9,7	1	1	1	1	1	1	1	1	1	0	1	-28,682171	275,346636	297,231184	0
14.01.2021	17:27:31	0	0	3,728135	4,60425	80,4816	1,334	76,282	3,5	1005,66	8	9,9	9,7	1	1	1	1	1	1	1	1	1	0	1	-33,897111	275,332316	291,948449	0
14.01.2021	17:27:32	0	0	2,485408	4,72875	78,6564	1,335	76,265	3,5	1005,6	8	9,8	9,8	1	1	1	1	1	1	1	1	1	0	1	-29,175476	275,276727	296,407015	0
14.01.2021	17:27:33	0	0	2,824345	4,72725	87,7356	1,338	76,291	3,5	1005,72	8	10	9,7	1	1	1	1	1	1	1	1	1	0	1	-34,319944	275,161295	290,716783	0
14.01.2021	17:27:34	0	0	2,372435	4,35075	88,1244	1,332	76,269	3,5	1005,74	8	10	9,8	1	1	1	1	1	1	1	1	1	0	1	-33,474278	275,254536	292,00324	0
14.01.2021	17:27:35	0	0	3,27624	4,356	88,9308	1,332	76,274	3,5	1005,6	8	9,9	9,7	1	1	1	1	1	1	1	1	1	0	1	-36,293164	275,166025	288,765913	0
14.01.2021	17:27:36	0	0	4,067056	4,06575	109,2456	1,332	76,285	3,5	1005,72	8	9,9	9,7	1	1	1	1	1	1	1	1	1	0	1	-32,628612	275,166025	292,430466	0
14.01.2021	17:27:37	0	0	3,728135	3,96675	86,6592	1,333	76,29	3,5	1005,58	8	10	9,7	1	1	1	1	1	1	1	1	1	0	1	-33,403805	275,264043	292,118683	0
14.01.2021	17:27:38	0	0	3,163266	4,19475	88,65	1,331	76,289	3,5	1005,76	8	9,9	9,7	1	1	1	1	1	1	1	1	1	0	1	-38,266385	275,278313	287,323609	0
14.01.2021	17:27:39	0	0	4,744871	4,0485	84,4164	1,332	76,302	3,5	1005,74	8	9,9	9,8	1	1	1	1	1	1	1	1	1	0	1	-32,487667	275,167602	292,578862	0
14.01.2021	17:27:40	0	0	3,27624	4,02075	89,352	1,335	76,321	3,5	1005,76	8	10	9,7	1	1	1	1	1	1	1	1	1	0	1	-31,782946	275,318006	293,994881	0
14.01.2021	17:27:41	0	0	3,954082	3,89925	94,086	1,33	76,309	3,5	1005,68	8	9,9	9,7	1	1	1	1	1	1	1	1	1	0	1	-40,803383	275,219715	284,509472	0
14.01.2021	17:27:42	0	0	4,744899	3,5175	94,0932	1,334	76,317	3,5	1005,64	8	9,9	9,7	1	1	1	1	1	1	1	1	1	0	1	-29,527837	275,325954	296,287612	0
14.01.2021	17:27:43	0	0	4,405978	3,234	101,5128	1,334	76,329	3,5	1005,64	8	9,8	9,7	1	1	1	1	1	1	1	1	1	0	1	-34,883721	275,202329	290,346936	0
14.01.2021	17:27:44	0	0	4,744899	3,04875	93,7404	1,334	76,323	3,5	1005,66	8	9,8	9,7	1	1	1	1	1	1	1	1	1	0	1	-39,534884	275,249784	285,920159	0
14.01.2021	17:27:45	0	0	4,518951	2,9745	102,9672	1,335	76,323	3,5	1005,48	8	9,8	9,7	1	1	1	1	1	1	1	1	1	0	1	-33,54475	275,333906	292,30834	0
14.01.2021	17:27:46	0	0	2,485423	3,4425	84,8916	1,333	76,328	3,5	1005,64	8	9,8	9,7	1	1	1	1	1	1	1	1	1	0	1	-34,178999	275,175489	290,924801	0
14.01.2021	17:27:47	0	0	4,067056	3,7095	85,878	1,328	76,324	3,5	1005,56	8	10	9,7	1	1	1	1	1	1	1	1	1	0	1	-31,92389	275,308472	293,808814	0
14.01.2021	17:27:48	0	0	3,728135	3,597	94,1004	1,332	76,311	3,5	1005,62	8	9,9	9,7	1	1	1	1	1	1	1	1	1	0	1	-33,897111	275,291006	291,752939	0
14.01.2021	17:27:49	0	0	2,937318	3,594	104,076	1,339	76,319	3,5	1005,66	8	9,9	9,7	1	1	1	1	1	1	1	1	1	0	1	-34,742777	275,156565	290,271605	0
14.01.2021	17:27:50	0	0	3,615161	3,7125	100,3608	1,333	76,308	3,5	1005,6	8	9,9	9,7	1	1	1	1	1	1	1	1	1	0	1	-31,078224	275,237118	294,316917	0
14.01.2021	17:27:51	0	0	4,293004	3,7185	101,124	1,327	76,294	3,5	1005,52	8	9,8	9,7	1	1	1	1	1	1	1	1	1	0	1	-34,954193	275,351411	290,981773	0
14.01.2021	17:27:52	0	0	2,937318	3,7425	97,6608	1,33	76,311	3,5	1005,82	8	9,8	9,7	1	1	1	1	1	1	1	1	1	0	1	-32,628612	275,21181	292,646869	0
14.01.2021	17:27:53	0	0	3,502187	3,65175	94,482	1,326	76,296	3,5	1005,38	8	9,9	9,7	1	1	1	1	1	1	1	1	1	0	1	-31,782946	275,230788	293,582263	0
14.01.2021	17:27:54	0	0	2,937318	3,54825	106,2972	1,334	76,311	3,5	1005,64	8	9,9	9,7	1	1	1	1	1	1	1	1	1	0	1	-32,205779	275,330725	293,632252	0
14.01.2021	17:27:55	0	0	4,067056	3,447	110,682	1,335	76,309	3,5	1005,66	8	9,9	9,7	1	1	1	1	1	1	1	1	1	0	1	-35,870331	275,297355	289,809764	0
14.01.2021	17:27:56	0	0	4,518951	3,34125	117,792	1,328	76,3	3,5	1005,6	8	9,9	9,7	1	1	1	1	1	1	1	1	1	0	1	-30,93728	275,230788	294,427929	0
14.01.2021	17:27:57	0	0	2,824345	3,27675	111,8268	1,332	76,313	3,5	1005,62	8	9,8	9,7	1	1	1	1	1	1	1	1	1	0	1	-31,219168	275,332316	294,626392	0
14.01.2021	17:27:58	0	0	4,631925	3,56175	113,7276	1,33	76,321	3,5	1005,58	8	9,9	9,7	1	1	1	1	1	1	1	1	1	0	1	-33,54475	275,284658	292,075266	0
14.01.2021	17:27:59	0	0	4,518951	4,02225	110,6928	1,334	76,322	3,5	1005,62	8	9,8	9,7	1	1	1	1	1	1	1	1	1	0	1	-36,434109	275,199169	288,781613	0
14.01.2021	17:28:00	0	0	2,598397	4,60575	115,2144	1,33	76,34	3,5	1005,5	8	9,9	9,7	1	1	1	1	1	1	1	1	1	0	1	-30,162086	275,262458	295,352906	0
14.01.2021	17:28:01	0	0	4,293004	4,3395	120,1644	1,331	76,334	3,5	1005,62	8	9,8	9,7	1	1	1	1	1	1	1	1	1	0	1	-31,853418	275,148686	293,123737	0
14.01.2021	17:28:02	0	0	4,293004	4,3395	120,1644	1,331	76,334	3,5	1005,62	8	9,8	9,7	1	1	1	1	1	1	1	1	1	0	1	-31,853418	275,148686	293,123737	0
14.01.2021	17:28:03	0	0	4,970847	4,407	112,2696	1,323	76,318	3,5	1005,56	8	9,9	9,7	1	1	1	1	1	1	1	1	1	0	1	-33,685694	275,287832	291,949337	0
14.01.2021	17:28:04	0	0	2,485423	4,45875	109,9908	1,328	76,34	3,5	1005,72	8	9,9	9,7	1	1	1	1	1	1	1	1	1	0	1	-32,487667	275,245033	292,944907	0
14.01.2021	17:28:05	0	0	3,615161	4,56225	107,4348	1,328	76,347	3,5	1005,48	8	9,8	9,7	1	1	1	1	1	1	1	1	1	0	1	-30,866808	275,305295	294,850862	0
14.01.2021	17:28:06	0	0	2,937318	4,93275	103,2984	1,33	76,353	3,5	1005,54	8	9,9	9,7	1	1	1	1	1	1	1	1	1	0	1	-30,655391	275,14081	294,284556	0
14.01.2021	17:28:07	0	0	2,146502	4,995	105,1236	1,326	76,347	3,5	1005,64	8	9,8	9,7	1	1	1	1	1	1	1	1	1	0	1	-32,9105	275,286245	292,717023	0
14.01.2021	17:28:08	0	0	2,711371	5,55075	102,9348	1,324	76,346	3,5	1005,52	8	9,9	9,7	1	1	1	1	1	1	1	1	1	0	1	-32,487667	275,319595	293,297682	0
14.01.2021	17:28:09	0	0	3,615161	5,67975	101,4768	1,323	76,342	3,5	1005,66	8	9,9	9,7	1	1	1	1	1	1	1	1	1	0	1	-32,840028	275,159718	292,189249	0
14.01.2021	17:28:10	0	0	2,372449	6,15225	95,1372	1,327	76,342	3,5	1005,42	8	9,9	9,7	1	1	1	1	1	1	1	1	1	0	1	-32,487667	275,245033	292,944907	0
14.01.2021	17:28:11	0	0	2,711371	6,33375	101,1636	1,325	76,345	3,5	1005,52	8	9,9	9,7	1	1	1	1	1	1	1	1	1	0	1	-35,799859	275,161295	289,236867	0
14.01.2021	17:28:12	0	0	3,954082	6,57	105,8796	1,325	76,338	3,5	1005,62	8	9,9	9,7	1	1	1	1	1	1	1	1	1	0	1	-32,417195	275,180223	292,708976	0
14.01.2021	17:28:13	0	0	3,728135	6,423	105,5016	1,319	76,342	3,5	1005,68	8	9,9	9,7	1	1	1	1	1	1	1	1	1	0	1	-34,249471	275,257704	291,243034	0
14.01.2021	17:28:14	0	0	2,372449	6,28125	107,442	1,324	76,345	3,5	1005,62	8	9,9	9,7	1	1	1	1	1	1	1	1	1	0	1	-32,064834	275,14081	292,875113	0
14.01.2021	17:28:15	0	0	2,485423	6,1065	97,7112	1,328	76,341	3,5	1005,7	7,8	10	9,7	1	1	1	1	1	1	1	1	1	0	1	-29,457364	275,19601	295,743425	0
14.01.2021	17:28:16	0	0	2,937318	5,52975	92,2572	1,326	76,342	3,5	1005,56	8	9,9	9,7	1	1	1	1	1	1	1	1	1	0	1	-38,195913	275,275141	287,379075	0
14.01.2021	17:28:17	0	0	4,744899	5,1075	92,2644	1,323	76,357	3,5	1005,68	8	9,9	9,7	1	1	1	1	1	1	1	1	1	0	1	-30,655391	275,319595	295,129958	0
14.01.2021	17:28:18	0	0	3,389214	5,223	90,4248	1,326	76,359	3,5	1005,56	7,8	9,9	9,7	1	1	1	1	1	1	1	1	1	0	1	-29,31642	275,189694	295,854513	0
14.01.2021	17:28:19	0	0	4,405978	5,07	90,0324	1,321	76,36	3,5	1005,5	8	9,9	9,7	1	1	1	1	1	1	1	1	1	0	1	-33,967583	275,318006	291,810244	0
14.01.2021	17:28:20	0	0	2,937318	5,39775	99,9	1,32	76,351	3,5	1005,76	8	9,9	9,7	1	1	1	1	1	1	1	1	1	0	1	-33,615222	275,164448	291,436404	0
14.01.2021	17:28:21	0	0	4,18003	5,55675	94,3956	1,323	76,349	3,5	1005,66	8	9,9	9,7	1	1	1	1	1	1	1	1	1	0	1	-31,007752	275,207069	294,245314	0
14.01.2021	17:28:22	0	0	3,389214	5,65425	98,7588	1,322	76,353	3,5	1005,64	8	9,9	9,7	1	1	1	1	1	1	1	1	1	0	1	-31,501057	275,148686	293,476098	0
14.01.2021	17:28:23	0	0	3,615161	5,97225	100,3608	1,325	76,371	3,5	1005,62	8	9,9	9,7	1	1	1	1	1	1	1	1	1	0	1	-30,796335	275,189694	294,374598	0
14.01.2021	17:28:24	0	0	2,485423	5,9085	108,1332	1,317	76,379	3,5	1005,6	8	9,9	9,7	1	1	1	1	1	1	1	1	1	0	1	-27,061311	275,265628	298,468675	0
14.01.2021	17:28:25	0	0	4,631925	5,499	102,5676	1,328	76,378	3,5	1005,64	8	9,9	9,7	1	1	1	1	1	1	1	1	1	0	1	-31,289641	275,316417	294,480663	0
14.01.2021	17:28:26	0	0	4,067056	5,3715	111,4092	1,325	76,382	3,5	1005,58	7,8	9,9	9,7	1	1	1	1	1	1	1	1	1	0	1	-30,021142	275,233953	295,359032	0
14.01.2021	17:28:27	0	0	4,518951	5,13525	97,3224	1,326	76,386	3,5	1005,56	7,8	9,9	9,7	1	1	1	1	1	1	1	1	1	0	1	-31,501057	275,156565	293,513325	0
14.01.2021	17:28:28	0	0	4,518951	5,03475	95,8248	1,325	76,406	3,5	1005,56	8	9,9	9,7	1	1	1	1	1	1	1	1	1	0	1	-30,655391	275,300531	295,039732	0
14.01.2021	17:28:29	0	0	2,485423	5,1705	98,0928	1,323	76,422	3,5	1005,5	8	9,9	9,7	1	1	1	1	1	1	1	1	1	0	1	-32,135307	275,270384	293,417177	0
14.01.2021	17:28:30	0	0	4,067056	5,59725	95,8464	1,311	76,433	3,5	1005,54	8	9,9	9,7	1	1	1	1	1	1	1	1	1	0	1	-29,739253	275,322775	296,061144	0
14.01.2021	17:28:31	0	0	3,389214	5,63325	101,1168	1,319	76,45	3,5	1005,66	8,1	9,9	9,7	1	1	1	1	1	1	1	1	1	0	1	-35,799859	275,333906	290,053231	0
14.01.2021	17:28:32	0	0	2,824345	5,4975	94,392	1,32	76,445	3,5	1005,42	8	9,9	9,7	1	1	1	1	1	1	1	1	1	0	1	-33,897111	275,252952	291,572915	0
14.01.2021	17:28:33	0	0	2,372449	5,319	101,8008	1,322	76,467	3,5	1005,62	8	9,9	9,7	1	1	1	1	1	1	1	1	1	0	1	-34,038055	275,142385	290,909332	0
14.01.2021	17:28:34	0	0	3,389214	5,28825	110,3544	1,32	76,47	3,5	1005,46	8	9,9	9,7	1	1	1	1	1	1	1	1	1	0	1	-33,615222	275,319595	292,170127	0
14.01.2021	17:28:35	0	0	4,405978	5,2755	122,7024	1,323	76,474	3,5	1005,62	8	9,9	9,7	1	1	1	1	1	1	1	1	1	0	1	-36,222692	275,246617	289,217371	0
14.01.2021	17:28:36	0	0	2,033528	5,38875	116,3556	1,318	76,471	3,5	1005,7	7,8	9,9	9,7	1	1	1	1	1	1	1	1	1	0	1	-33,403805	275,319595	292,381544	0
14.01.2021	17:28:37	0	0	4,405978	5,66925	122,0796	1,324	76,463	3,5	1005,7	8	9,9	9,7	1	1	1	1	1	1	1	1	1	0	1	-36,222692	275,200749	289,000497	0
14.01.2021	17:28:38	0	0	3,615161	5,8095	96,6024	1,32	76,459	3,5	1005,58	8	9,9	9,7	1	1	1	1	1	1	1	1	1	0	1	-35,870331	275,306884	289,854855	0
14.01.2021	17:28:39	0	0	3,050292	5,412	111,7908	1,318	76,46	3,5	1005,54	8	9,9	9,7	1	1	1	1	1	1	1	1	1	0	1	-31,007752	275,31165	294,73999	0
14.01.2021	17:28:40	0	0	3,954082	5,415	119,0808	1,324	76,48	3,5	1005,78	7,8	9,9	9,7	1	1	1	1	1	1	1	1	1	0	1	-30,866808	275,218134	294,438571	0
14.01.2021	17:28:41	0	0	2,711371	4,97175	102,1932	1,325	76,473	3,5	1005,58	7,8	9,9	9,7	1	1	1	1	1	1	1	1	1	0	1	-33,262861	275,271969	292,297123	0
14.01.2021	17:28:42	0	0	3,163266	5,148	110,6928	1,317	76,459	3,5	1005,6	8	9,9	9,7	1	1	1	1	1	1	1	1	1	0	1	-33,403805	275,164448	291,647821	0
14.01.2021	17:28:43	0	0	3,728135	5,20425	114,4656	1,326	76,466	3,5	1005,38	8	9,9	9,7	1	1	1	1	1	1	1	1	1	0	1	-31,994362	275,2482	293,45319	0
14.01.2021	17:28:44	0	0	2,259476	4,82325	115,6716	1,319	76,482	3,5	1005,58	8	9,9	9,7	1	1	1	1	1	1	1	1	1	0	1	-36,504581	275,154989	288,502354	0
14.01.2021	17:28:45	0	0	4,518951	4,5675	120,1536	1,324	76,477	3,5	1005,56	7,8	9,9	9,7	1	1	1	1	1	1	1	1	1	0	1	-36,011276	275,298943	289,676333	0
14.01.2021	17:28:46	0	0	2,372449	5,0595	121,248	1,32	76,48	3,5	1005,56	8	9,9	9,7	1	1	1	1	1	1	1	1	1	0	1	-34,601832	275,265628	290,928154	0
14.01.2021	17:28:47	0	0	2,711371	5,679	122,4036	1,325	76,484	3,5	1005,72	7,8	9,9	9,7	1	1	1	1	1	1	1	1	1	0	1	-33,685694	275,153413	291,313795	0
14.01.2021	17:28:48	0	0	2,372449	6,207	125,7876	1,324	76,484	3,5	1005,6	8	9,9	9,7	1	1	1	1	1	1	1	1	1	0	1	-34,178999	275,279899	291,418499	0
14.01.2021	17:28:49	0	0	2,937318	6,21	126,1332	1,322	76,478	3,5	1005,58	7,8	9,9	9,7	1	1	1	1	1	1	1	1	1	0	1	-26,990839	275,270384	298,561645	0
14.01.2021	17:28:50	0	0	2,598397	6,2475	133,0992	1,321	76,475	3,5	1005,62	8	9,9	9,7	1	1	1	1	1	1	1	1	1	0	1	-32,205779	275,319595	293,579571	0
14.01.2021	17:28:51	0	0	2,598397	6,318	133,4808	1,324	76,476	3,5	1005,64	8	9,9	9,7	1	1	1	1	1	1	1	1	1	0	1	-31,571529	275,21181	293,703952	0
14.01.2021	17:28:52	0	0	4,293004	6,3795	110,6712	1,328	76,482	3,5	1005,44	8	9,9	9,7	1	1	1	1	1	1	1	1	1	0	1	-32,628612	275,322775	293,171786	0
14.01.2021	17:28:53	0	0	2,598397	6,31575	118,3248	1,321	76,472	3,5	1005,64	7,8	9,9	9,7	1	1	1	1	1	1	1	1	1	0	1	-28,400282	275,158142	296,621547	0
14.01.2021	17:28:54	0	0	4,857873	6,43725	111,8196	1,321	76,469	3,5	1005,42	8	9,9	9,7	1	1	1	1	1	1	1	1	1	0	1	-33,262861	275,202329	291,967796	0
14.01.2021	17:28:55	0	0	4,518951	6,069	128,0124	1,318	76,455	3,5	1005,52	7,8	9,9	9,7	1	1	1	1	1	1	1	1	1	0	1	-32,55814	275,169179	292,515843	0
14.01.2021	17:28:56	0	0	4,631925	5,51325	116,6544	1,322	76,458	3,5	1005,6	7,8	9,9	9,7	1	1	1	1	1	1	1	1	1	0	1	-28,611698	275,2482	296,835854	0
14.01.2021	17:28:57	0	0	3,27624	5,493	125,0388	1,326	76,464	3,5	1005,52	8	9,9	9,7	1	1	1	1	1	1	1	1	1	0	1	-31,501057	275,178645	293,617656	0
14.01.2021	17:28:58	0	0	3,954082	6,01125	139,824	1,326	76,475	3,5	1005,52	8	9,9	9,7	1	1	1	1	1	1	1	1	1	0	1	-30,30303	275,341861	295,587719	0
14.01.2021	17:28:59	0	0	4,405978	6,105	147,1176	1,325	76,464	3,5	1005,54	8,1	9,9	9,7	1	1	1	1	1	1	1	1	1	0	1	-35,095137	275,226042	290,247629	0
14.01.2021	17:29:00	0	0	2,711371	4,8825	125,3952	1,326	76,468	3,5	1005,5	8	9,9	9,7	1	1	1	1	1	1	1	1	1	0	1	-34,178999	275,189694	290,991934	0
14.01.2021	17:29:01	0	0	2,711371	4,8825	125,3952	1,326	76,468	3,5	1005,5	8	9,9	9,7	1	1	1	1	1	1	1	1	1	0	1	-34,178999	275,189694	290,991934	0
14.01.2021	17:29:02	0	0	3,841109	5,3355	117,0468	1,315	76,459	3,5	1005,44	8	9,9	9,7	1	1	1	1	1	1	1	1	1	0	1	-27,906977	275,271969	297,653007	0
14.01.2021	17:29:03	0	0	3,728135	5,589	110,7108	1,318	76,46	3,5	1005,48	8,1	9,9	9,7	1	1	1	1	1	1	1	1	1	0	1	-30,725863	275,332316	295,119697	0
14.01.2021	17:29:04	0	0	3,841109	5,69025	102,942	1,319	76,456	3,5	1005,62	8	9,9	9,7	1	1	1	1	1	1	1	1	1	0	1	-31,712474	275,158142	293,309356	0
14.01.2021	17:29:05	0	0	4,067056	5,6535	104,0544	1,317	76,452	3,5	1005,58	7,8	9,9	9,7	1	1	1	1	1	1	1	1	1	0	1	-34,742777	275,327545	291,080199	0
14.01.2021	17:29:06	0	0	4,518951	5,811	104,4612	1,322	76,446	3,5	1005,44	8	9,9	9,7	1	1	1	1	1	1	1	1	1	0	1	-33,685694	275,156565	291,328687	0
14.01.2021	17:29:07	0	0	3,728135	5,754	107,7552	1,322	76,449	3,5	1005,48	8	9,9	9,7	1	1	1	1	1	1	1	1	1	0	1	-31,501057	275,240284	293,909055	0
14.01.2021	17:29:08	0	0	2,824345	5,64375	96,2136	1,323	76,427	3,5	1005,66	7,8	9,9	9,7	1	1	1	1	1	1	1	1	1	0	1	-28,823115	275,322775	296,977283	0
14.01.2021	17:29:09	0	0	2,598397	5,55225	86,274	1,32	76,414	3,5	1005,52	7,8	9,9	9,7	1	1	1	1	1	1	1	1	1	0	1	-33,615222	275,167602	291,451307	0
14.01.2021	17:29:10	0	0	4,067056	5,27475	69,8436	1,322	76,43	3,5	1005,6	7,8	9,9	9,7	1	1	1	1	1	1	1	1	1	0	1	-30,373502	275,218134	294,931876	0
14.01.2021	17:29:11	0	0	2,824345	5,067	86,9688	1,324	76,421	3,5	1005,62	8	9,9	9,7	1	1	1	1	1	1	1	1	1	0	1	-35,024665	275,172334	290,064224	0
14.01.2021	17:29:12	0	0	3,954082	5,1285	90,4176	1,32	76,389	3,5	1005,56	7,8	9,9	9,7	1	1	1	1	1	1	1	1	1	0	1	-37,702607	275,279899	287,894891	0
14.01.2021	17:29:13	0	0	4,518951	5,06325	85,5108	1,321	76,385	3,5	1005,7	7,8	9,9	9,7	1	1	1	1	1	1	1	1	1	0	1	-32,417195	275,343452	293,481088	0
14.01.2021	17:29:14	0	0	3,954082	4,8105	84,402	1,318	76,397	3,5	1005,78	8	9,9	9,7	1	1	1	1	1	1	1	1	1	0	1	-34,038055	275,161295	290,998671	0
14.01.2021	17:29:15	0	0	3,954082	4,69875	81,5724	1,323	76,394	3,5	1005,66	8	9,9	9,7	1	1	1	1	1	1	1	1	1	0	1	-29,386892	275,279899	296,210606	0
14.01.2021	17:29:16	0	0	3,502187	4,35975	95,5224	1,327	76,385	3,5	1005,62	8	9,9	9,7	1	1	1	1	1	1	1	1	1	0	1	-35,16561	275,345044	290,740209	0
14.01.2021	17:29:17	0	0	3,050292	4,4235	99,4968	1,323	76,368	3,5	1005,42	8	9,9	9,7	1	1	1	1	1	1	1	1	1	0	1	-37,279774	275,295768	288,392808	0
14.01.2021	17:29:18	0	0	4,18003	4,266	98,7624	1,322	76,358	3,5	1005,66	8	9,9	9,7	1	1	1	1	1	1	1	1	1	0	1	-39,252995	275,191272	285,925401	0
14.01.2021	17:29:19	0	0	2,598397	4,56975	87,3576	1,33	76,373	3,5	1005,6	8	9,9	9,7	1	1	1	1	1	1	1	1	1	0	1	-31,571529	275,191272	293,606867	0
14.01.2021	17:29:20	0	0	3,728135	4,548	85,1544	1,323	76,368	3,5	1005,5	7,8	9,9	9,7	1	1	1	1	1	1	1	1	1	0	1	-36,434109	275,281485	289,170895	0
14.01.2021	17:29:21	0	0	2,146502	4,173	105,9084	1,324	76,372	3,5	1005,5	8	9,9	9,7	1	1	1	1	1	1	1	1	1	0	1	-34,601832	275,181801	290,531797	0
14.01.2021	17:29:22	0	0	4,518951	3,867	102,9744	1,322	76,357	3,5	1005,7	8	9,9	9,7	1	1	1	1	1	1	1	1	1	0	1	-32,487667	275,318006	293,290159	0
14.01.2021	17:29:23	0	0	3,050292	3,77625	102,2112	1,331	76,376	3,5	1005,76	8	9,9	9,7	1	1	1	1	1	1	1	1	1	0	1	-34,460888	275,233953	290,919286	0
14.01.2021	17:29:24	0	0	2,711371	3,9945	89,7012	1,323	76,361	3,5	1005,64	8	9,9	9,7	1	1	1	1	1	1	1	1	1	0	1	-35,870331	275,353003	290,073173	0
14.01.2021	17:29:25	0	0	3,502187	3,99525	94,7736	1,323	76,371	3,5	1005,5	8	9,9	9,7	1	1	1	1	1	1	1	1	1	0	1	-31,078224	275,213391	294,20473	0
14.01.2021	17:29:26	0	0	3,27624	3,9855	98,7912	1,331	76,361	3,5	1005,58	8,1	9,9	9,7	1	1	1	1	1	1	1	1	1	0	1	-31,289641	275,308472	294,443064	0
14.01.2021	17:29:27	0	0	4,405978	3,80925	90,7596	1,328	76,374	3,5	1005,46	8	9,9	9,7	1	1	1	1	1	1	1	1	1	0	1	-35,588443	275,335497	290,272178	0
14.01.2021	17:29:28	0	0	3,163266	3,6735	94,104	1,326	76,369	3,5	1005,54	8	9,9	9,7	1	1	1	1	1	1	1	1	1	0	1	-36,856942	275,268798	288,688042	0
14.01.2021	17:29:29	0	0	2,033528	3,95025	98,4636	1,321	76,353	3,5	1005,56	8	9,9	9,7	1	1	1	1	1	1	1	1	1	0	1	-35,447498	275,349819	290,48093	0
14.01.2021	17:29:30	0	0	4,405978	4,08375	111,8124	1,327	76,332	3,5	1005,42	7,8	9,9	9,7	1	1	1	1	1	1	1	1	1	0	1	-35,658915	275,321185	290,133958	0
14.01.2021	17:29:31	0	0	3,502187	4,23225	100,7748	1,328	76,346	3,5	1005,62	8	9,9	9,7	1	1	1	1	1	1	1	1	1	0	1	-35,306554	275,31165	290,441188	0
14.01.2021	17:29:32	0	0	4,18003	4,4025	92,34	1,327	76,338	3,5	1005,48	8	9,9	9,7	1	1	1	1	1	1	1	1	1	0	1	-35,306554	275,327545	290,516421	0
14.01.2021	17:29:33	0	0	4,518951	4,323	90,0216	1,328	76,318	3,5	1005,48	7,8	9,9	9,7	1	1	1	1	1	1	1	1	1	0	1	-33,403805	275,270384	292,148678	0
14.01.2021	17:29:34	0	0	3,502187	4,3065	91,17	1,321	76,329	3,5	1005,64	8	9,9	9,7	1	1	1	1	1	1	1	1	1	0	1	-30,866808	275,181801	294,266822	0
14.01.2021	17:29:35	0	0	3,728135	5,38875	93,3372	1,333	76,31	3,5	1005,42	8	9,9	9,7	1	1	1	1	1	1	1	1	1	0	1	-29,386892	275,353003	296,556612	0
14.01.2021	17:29:36	0	0	2,485423	5,95575	99,9864	1,33	76,303	3,5	1005,82	8	9,9	9,7	1	1	1	1	1	1	1	1	1	0	1	-33,474278	275,308472	292,258426	0
14.01.2021	17:29:37	0	0	3,050292	6,0015	98,7984	1,326	76,302	3,5	1005,54	8	9,9	9,7	1	1	1	1	1	1	1	1	1	0	1	-36,927414	275,345044	288,978405	0
14.01.2021	17:29:38	0	0	3,27624	5,655	101,1312	1,324	76,295	3,5	1005,54	8	9,9	9,7	1	1	1	1	1	1	1	1	1	0	1	-32,205779	275,252952	293,264247	0
14.01.2021	17:29:39	0	0	3,389214	5,406	97,3152	1,327	76,272	3,5	1005,44	8	9,9	9,7	1	1	1	1	1	1	1	1	1	0	1	-40,028189	275,353003	285,915316	0
14.01.2021	17:29:40	0	0	2,937318	5,37825	117,414	1,329	76,284	3,5	1005,62	8	9,9	9,7	1	1	1	1	1	1	1	1	1	0	1	-32,699084	275,245033	292,73349	0
14.01.2021	17:29:41	0	0	2,937318	5,23425	117,8172	1,328	76,265	3,5	1005,64	8	9,9	9,7	1	1	1	1	1	1	1	1	1	0	1	-35,024665	275,360966	290,956544	0
14.01.2021	17:29:42	0	0	4,631925	4,97925	108,8892	1,328	76,284	3,5	1005,52	8	9,9	9,7	1	1	1	1	1	1	1	1	1	0	1	-33,685694	275,368932	292,333238	0
14.01.2021	17:29:43	0	0	4,405978	5,0745	115,596	1,321	76,266	3,5	1005,5	8	9,9	9,7	1	1	1	1	1	1	1	1	1	0	1	-32,276251	275,226042	293,066516	0
14.01.2021	17:29:44	0	0	4,405978	5,14125	98,0676	1,326	76,268	3,5	1005,3	8	9,9	9,7	1	1	1	1	1	1	1	1	1	0	1	-33,121917	275,154989	291,885018	0
14.01.2021	17:29:45	0	0	3,728135	5,259	100,7352	1,334	76,266	3,5	1005,62	8	9,9	9,7	1	1	1	1	1	1	1	1	1	0	1	-36,434109	275,273555	289,133377	0
14.01.2021	17:29:46	0	0	2,711371	5,32275	87,3684	1,334	76,297	3,5	1005,62	8,1	9,9	9,7	1	1	1	1	1	1	1	1	1	0	1	-33,403805	275,360966	292,577404	0
14.01.2021	17:29:47	0	0	3,389214	5,19225	98,0568	1,328	76,274	3,5	1005,6	8	9,9	9,7	1	1	1	1	1	1	1	1	1	0	1	-35,447498	275,22446	289,887789	0
14.01.2021	17:29:48	0	0	2,711371	5,277	104,7492	1,331	76,257	3,5	1005,44	8	9,9	9,7	1	1	1	1	1	1	1	1	1	0	1	-38,618746	275,29418	287,046326	0
14.01.2021	17:29:49	0	0	4,631925	5,36925	94,3992	1,338	76,261	3,5	1005,5	8	9,9	9,7	1	1	1	1	1	1	1	1	1	0	1	-33,54475	275,180223	291,581421	0
14.01.2021	17:29:50	0	0	3,841109	5,751	90,072	1,335	76,25	3,5	1005,6	8	9,9	9,7	1	1	1	1	1	1	1	1	1	0	1	-34,390416	275,284658	291,2296	0
14.01.2021	17:29:51	0	0	2,711371	5,60325	99,126	1,329	76,237	3,5	1005,52	8,1	9,9	9,7	1	1	1	1	1	1	1	1	1	0	1	-37,209302	275,170756	287,872133	0
14.01.2021	17:29:52	0	0	4,18003	5,3415	98,748	1,332	76,244	3,5	1005,56	7,8	9,9	9,7	1	1	1	1	1	1	1	1	1	0	1	-36,715997	275,322775	289,0844	0
14.01.2021	17:29:53	0	0	4,067056	5,082	93,7116	1,335	76,244	3,5	1005,52	8	9,9	9,7	1	1	1	1	1	1	1	1	1	0	1	-38,336857	275,175489	286,766943	0
14.01.2021	17:29:54	0	0	3,27624	5,33325	97,7004	1,333	76,223	3,5	1005,68	8	9,9	9,7	1	1	1	1	1	1	1	1	1	0	1	-34,601832	275,180223	290,524339	0
14.01.2021	17:29:55	0	0	3,389214	5,511	98,4492	1,337	76,211	3,5	1005,62	8	9,9	9,7	1	1	1	1	1	1	1	1	1	0	1	-40,38055	275,276727	285,201941	0
14.01.2021	17:29:56	0	0	2,711371	5,16375	103,68	1,33	76,209	3,5	1005,62	8	9,9	9,7	1	1	1	1	1	1	1	1	1	0	1	-32,135307	275,203909	293,102819	0
14.01.2021	17:29:57	0	0	2,937318	5,1795	103,014	1,335	76,207	3,5	1005,7	8	9,9	9,7	1	1	1	1	1	1	1	1	1	0	1	-37,068358	275,362559	288,920394	0
14.01.2021	17:29:58	0	0	2,937318	5,6025	92,9376	1,331	76,189	3,5	1005,48	7,8	9,9	9,7	1	1	1	1	1	1	1	1	1	0	1	-31,994362	275,319595	293,790987	0
14.01.2021	17:29:59	0	0	3,954082	5,4525	85,8996	1,34	76,219	3,5	1005,72	8	9,9	9,7	1	1	1	1	1	1	1	1	1	0	1	-33,685694	275,348227	292,235197	0
14.01.2021	17:30:00	0	0	4,293004	5,33175	98,4672	1,334	76,212	3,5	1005,54	8	9,9	9,7	1	1	1	1	1	1	1	1	1	0	1	-36,434109	275,245033	288,998466	0
14.01.2021	17:30:01	0	0	3,502187	5,22525	102,5676	1,333	76,195	3,5	1005,56	8	9,9	9,7	1	1	1	1	1	1	1	1	1	0	1	-36,434109	275,245033	288,998466	0
14.01.2021	17:30:02	0	0	3,502187	5,22525	102,5676	1,333	76,195	3,5	1005,56	8	9,9	9,7	1	1	1	1	1	1	1	1	1	0	1	-36,856942	275,367339	289,154445	0
14.01.2021	17:30:03	0	0	4,405978	5,11275	92,9484	1,334	76,197	3,5	1005,56	8	9,9	9,7	1	1	1	1	1	1	1	1	1	0	1	-31,289641	275,341861	294,601109	0
14.01.2021	17:30:04	0	0	2,824345	5,08575	100,3536	1,337	76,193	3,5	1005,56	7,8	9,9	9,7	1	1	1	1	1	1	1	1	1	0	1	-34,390416	275,22446	290,944872	0
14.01.2021	17:30:05	0	0	4,067056	5,1405	97,3152	1,337	76,204	3,5	1005,46	8	9,9	9,7	1	1	1	1	1	1	1	1	1	0	1	-32,346723	275,183379	292,794366	0
14.01.2021	17:30:06	0	0	3,954082	5,16375	98,0568	1,339	76,195	3,5	1005,46	8,1	9,9	9,7	1	1	1	1	1	1	1	1	1	0	1	-35,306554	275,194431	289,88677	0
14.01.2021	17:30:07	0	0	2,372449	5,1255	98,0712	1,335	76,178	3,5	1005,5	8	9,9	9,7	1	1	1	1	1	1	1	1	1	0	1	-34,883721	275,184957	290,264828	0
14.01.2021	17:30:08	0	0	4,293004	5,18925	99,5004	1,336	76,197	3,5	1005,66	8	9,9	9,7	1	1	1	1	1	1	1	1	1	0	1	-31,642001	275,270384	293,910482	0
14.01.2021	17:30:09	0	0	3,841109	5,253	103,6908	1,339	76,188	3,5	1005,52	8	9,9	9,7	1	1	1	1	1	1	1	1	1	0	1	-34,53136	275,188115	290,632111	0
14.01.2021	17:30:10	0	0	3,841109	5,094	98,0424	1,338	76,19	3,5	1005,4	7,8	9,9	9,7	1	1	1	1	1	1	1	1	1	0	1	-39,112051	275,173911	285,984294	0
14.01.2021	17:30:11	0	0	2,937318	4,89	93,3336	1,339	76,188	3,5	1005,54	8	9,9	9,7	1	1	1	1	1	1	1	1	1	0	1	-30,93728	275,276727	294,645211	0
14.01.2021	17:30:12	0	0	3,502187	4,7325	91,89	1,341	76,183	3,5	1005,48	8	9,9	9,7	1	1	1	1	1	1	1	1	1	0	1	-36,715997	275,386469	289,385993	0
14.01.2021	17:30:13	0	0	4,744927	4,57725	92,2752	1,334	76,161	3,5	1005,5	7,8	9,9	9,6	1	1	1	1	1	1	1	1	1	0	1	-30,866808	275,365745	295,137033	0
14.01.2021	17:30:14	0	0	2,937318	4,43325	102,1716	1,343	76,177	3,5	1005,62	8,1	9,9	9,7	1	1	1	1	1	1	1	1	1	0	1	-31,994362	275,199169	293,221359	0
14.01.2021	17:30:15	0	0	2,824345	4,3035	105,498	1,339	76,165	3,5	1005,52	8	9,9	9,7	1	1	1	1	1	1	1	1	1	0	1	-37,068358	275,181801	288,065272	0
14.01.2021	17:30:16	0	0	3,389214	4,431	107,766	1,342	76,148	3,5	1005,64	8	9,9	9,7	1	1	1	1	1	1	1	1	1	0	1	-34,601832	275,335497	291,258788	0
14.01.2021	17:30:17	0	0	2,711371	4,488	112,6692	1,343	76,156	3,5	1005,52	8	9,9	9,7	1	1	1	1	1	1	1	1	1	0	1	-35,588443	275,241867	289,829156	0
14.01.2021	17:30:18	0	0	3,27624	4,32825	109,242	1,346	76,142	3,5	1005,54	8	9,9	9,7	1	1	1	1	1	1	1	1	1	0	1	-37,702607	275,362559	288,286145	0
14.01.2021	17:30:19	0	0	2,711371	4,45425	102,6504	1,344	76,149	3,5	1005,58	8	9,9	9,7	1	1	1	1	1	1	1	1	1	0	1	-37,491191	275,249784	287,963852	0
14.01.2021	17:30:20	0	0	3,615161	4,6245	101,4876	1,348	76,151	3,5	1005,64	8	9,9	9,7	1	1	1	1	1	1	1	1	1	0	1	-35,306554	275,39285	290,825662	0
14.01.2021	17:30:21	0	0	2,711371	4,95075	100,3824	1,342	76,152	3,5	1005,5	7,8	9,9	9,7	1	1	1	1	1	1	1	1	1	0	1	-33,967583	275,316417	291,802721	0
14.01.2021	17:30:22	0	0	4,18003	5,02725	99,5292	1,343	76,142	3,5	1005,66	7,8	9,9	9,7	1	1	1	1	1	1	1	1	1	0	1	-33,826638	275,241867	291,59096	0
14.01.2021	17:30:23	0	0	4,293004	4,944	99,5004	1,349	76,131	3,5	1005,34	8	9,9	9,7	1	1	1	1	1	1	1	1	1	0	1	-35,377026	275,384874	290,71741	0
14.01.2021	17:30:24	0	0	2,485423	4,9095	102,2004	1,339	76,118	3,5	1005,6	8	9,9	9,7	1	1	1	1	1	1	1	1	1	0	1	-32,628612	275,292593	293,028948	0
14.01.2021	17:30:25	0	0	3,27624	5,013	98,0892	1,345	76,119	3,5	1005,64	8	9,9	9,7	1	1	1	1	1	1	1	1	1	0	1	-39,182523	275,208649	286,078014	0
14.01.2021	17:30:26	0	0	4,518951	5,03925	98,7948	1,349	76,108	3,5	1005,6	8	9,9	9,7	1	1	1	1	1	1	1	1	1	0	1	-31,501057	275,348227	294,419834	0
14.01.2021	17:30:27	0	0	4,293004	4,88475	101,7972	1,353	76,095	3,5	1005,52	8	9,9	9,7	1	1	1	1	1	1	1	1	1	0	1	-34,742777	275,325954	291,072672	0
14.01.2021	17:30:28	0	0	3,841109	4,8165	98,4528	1,352	76,098	3,5	1005,38	8	9,9	9,7	1	1	1	1	1	1	1	1	1	0	1	-35,799859	275,227624	289,550388	0
14.01.2021	17:30:29	0	0	3,502187	4,719	101,4804	1,345	76,055	3,5	1005,58	8	9,9	9,7	1	1	1	1	1	1	1	1	1	0	1	-31,642001	275,276727	293,940489	0
14.01.2021	17:30:30	0	0	4,631925	4,58925	103,2804	1,354	76,052	3,5	1005,5	8	9,9	9,7	1	1	1	1	1	1	1	1	1	0	1	-36,575053	275,21181	288,700428	0
14.01.2021	17:30:31	0	0	2,824345	4,3695	105,8976	1,355	76,049	3,5	1005,66	8	9,9	9,7	1	1	1	1	1	1	1	1	1	0	1	-32,487667	275,267213	293,049817	0
14.01.2021	17:30:32	0	0	2,824345	4,07625	101,1312	1,349	76,038	3,5	1005,56	8	9,9	9,7	1	1	1	1	1	1	1	1	1	0	1	-32,135307	275,310061	293,604916	0
14.01.2021	17:30:33	0	0	2,146502	3,93825	109,2276	1,356	76,03	3,5	1005,6	7,8	9,9	9,7	1	1	1	1	1	1	1	1	1	0	1	-38,75969	275,213391	286,523264	0
14.01.2021	17:30:34	0	0	2,485423	3,8055	116,0388	1,351	76,026	3,5	1005,5	8	9,9	9,7	1	1	1	1	1	1	1	1	1	0	1	-32,980973	275,219715	292,331882	0
14.01.2021	17:30:35	0	0	4,293004	3,744	111,078	1,349	76,005	3,5	1005,48	8	9,9	9,7	1	1	1	1	1	1	1	1	1	0	1	-35,729387	275,306884	289,995799	0
14.01.2021	17:30:36	0	0	2,372464	3,77775	96,5916	1,354	75,979	3,5	1005,6	8	9,9	9,6	1	1	1	1	1	1	1	1	1	0	1	-37,279774	275,21181	287,995707	0
14.01.2021	17:30:37	0	0	3,502187	3,522	106,2828	1,352	75,967	3,5	1005,56	8	9,9	9,7	1	1	1	1	1	1	1	1	1	0	1	-33,756166	275,241867	291,661433	0
14.01.2021	17:30:38	0	0	4,744899	3,189	110,3472	1,347	75,971	3,5	1005,58	8	9,9	9,7	1	1	1	1	1	1	1	1	1	0	1	-36,011276	275,314828	289,751507	0
14.01.2021	17:30:39	0	0	4,631925	3,08925	115,9596	1,354	75,949	3,5	1005,68	8	9,9	9,7	1	1	1	1	1	1	1	1	1	0	1	-31,642001	275,389659	294,4751	0
14.01.2021	17:30:40	0	0	4,631925	2,973	119,7576	1,35	75,935	3,5	1005,56	8	9,9	9,7	1	1	1	1	1	1	1	1	1	0	1	-35,729387	275,362559	290,259365	0
14.01.2021	17:30:41	0	0	4,744899	2,94525	117,1368	1,356	75,938	3,5	1005,42	8	9,9	9,7	1	1	1	1	1	1	1	1	1	0	1	-29,809725	275,31165	295,938017	0
14.01.2021	17:30:42	0	0	4,405978	2,84325	132,3576	1,351	75,925	3,5	1005,56	8	9,9	9,7	1	1	1	1	1	1	1	1	1	0	1	-35,799859	275,376902	290,256816	0
14.01.2021	17:30:43	0	0	2,824345	2,697	101,1276	1,356	75,91	3,5	1005,54	8	9,9	9,7	1	1	1	1	1	1	1	1	1	0	1	-27,977449	275,276727	297,605042	0
14.01.2021	17:30:44	0	0	3,728135	2,523	119,088	1,352	75,907	3,5	1005,5	8	9,9	9,7	1	1	1	1	1	1	1	1	1	0	1	-37,491191	275,38009	288,580586	0
14.01.2021	17:30:45	0	0	4,405978	2,415	114,8976	1,354	75,895	3,5	1005,48	8	9,9	9,7	1	1	1	1	1	1	1	1	1	0	1	-33,333333	275,343452	292,56495	0
14.01.2021	17:30:46	0	0	4,293004	2,4225	100,3644	1,355	75,891	3,5	1005,56	8	9,9	9,7	1	1	1	1	1	1	1	1	1	0	1	-33,826638	275,262458	291,688353	0
14.01.2021	17:30:47	0	0	4,518951	2,40525	125,0748	1,359	75,881	3,5	1005,54	8	9,9	9,7	1	1	1	1	1	1	1	1	1	0	1	-33,54475	275,359373	292,428917	0
14.01.2021	17:30:48	0	0	4,857873	2,7945	120,5424	1,354	75,879	3,5	1005,62	8	9,9	9,7	1	1	1	1	1	1	1	1	1	0	1	-32,840028	275,367339	293,171358	0
14.01.2021	17:30:49	0	0	2,598397	3,09675	105,0948	1,362	75,878	3,5	1005,64	8	9,9	9,7	1	1	1	1	1	1	1	1	1	0	1	-26,920366	275,259289	298,579633	0
14.01.2021	17:30:50	0	0	2,485423	3,1995	105,1416	1,361	75,869	3,5	1005,54	8	9,9	9,7	1	1	1	1	1	1	1	1	1	0	1	-33,756166	275,207069	291,496899	0
14.01.2021	17:30:51	0	0	4,18003	3,03675	97,6932	1,355	75,855	3,5	1005,58	8	9,9	9,7	1	1	1	1	1	1	1	1	1	0	1	-31,430585	275,362559	294,558167	0
14.01.2021	17:30:52	0	0	3,615161	2,994	134,5392	1,356	75,858	3,5	1005,56	7,8	9,9	9,7	1	1	1	1	1	1	1	1	1	0	1	-33,333333	275,284658	292,286683	0
14.01.2021	17:30:53	0	0	3,389214	3,09675	104,4036	1,362	75,853	3,5	1005,72	8	9,9	9,7	1	1	1	1	1	1	1	1	1	0	1	-35,024665	275,325954	290,790783	0
14.01.2021	17:30:54	0	0	2,711371	3,069	113,3604	1,357	75,85	3,5	1005,62	8	9,9	9,7	1	1	1	1	1	1	1	1	1	0	1	-35,095137	275,203909	290,142988	0
14.01.2021	17:30:55	0	0	3,163266	3,12	122,7204	1,355	75,839	3,5	1005,52	8	9,9	9,7	1	1	1	1	1	1	1	1	1	0	1	-36,081748	275,237118	289,313394	0
14.01.2021	17:30:56	0	0	2,485423	3,40425	107,748	1,351	75,836	3,5	1005,54	8	9,9	9,7	1	1	1	1	1	1	1	1	1	0	1	-31,289641	275,208649	293,970896	0
14.01.2021	17:30:57	0	0	4,744899	3,5205	119,0772	1,358	75,84	3,5	1005,4	8	9,9	9,7	1	1	1	1	1	1	1	1	1	0	1	-33,967583	275,365745	292,036258	0
14.01.2021	17:30:58	0	0	3,615161	3,2895	110,6856	1,357	75,831	3,5	1005,46	8	9,9	9,7	1	1	1	1	1	1	1	1	1	0	1	-31,148696	275,287832	294,486335	0
14.01.2021	17:30:59	0	0	3,841109	3,2445	114,0876	1,362	75,823	3,5	1005,62	8	9,9	9,7	1	1	1	1	1	1	1	1	1	0	1	-36,434109	275,37212	289,599919	0
14.01.2021	17:31:00	0	0	2,485423	3,7095	125,0316	1,356	75,808	3,5	1005,64	8	9,9	9,7	1	1	1	1	1	1	1	1	1	0	1	-31,430585	275,365745	294,573256	0
14.01.2021	17:31:01	0	0	2,824345	4,36575	123,8472	1,357	75,788	3,5	1005,6	8	9,9	9,7	1	1	1	1	1	1	1	1	1	0	1	-35,095137	275,364152	290,901159	0
14.01.2021	17:31:02	0	0	2,824345	4,36575	123,8472	1,357	75,788	3,5	1005,6	8	9,9	9,7	1	1	1	1	1	1	1	1	1	0	1	-35,095137	275,364152	290,901159	0
14.01.2021	17:31:03	0	0	3,502187	4,5495	117,0432	1,362	75,796	3,5	1005,6	8	9,9	9,7	1	1	1	1	1	1	1	1	1	0	1	-35,236082	275,313239	290,51918	0
14.01.2021	17:31:04	0	0	2,711371	4,56675	119,4408	1,358	75,8	3,5	1005,54	8	9,9	9,7	1	1	1	1	1	1	1	1	1	0	1	-31,994362	275,221297	293,325969	0
14.01.2021	17:31:05	0	0	4,067056	4,3245	96,1992	1,355	75,782	3,5	1005,56	7,8	9,9	9,7	1	1	1	1	1	1	1	1	1	0	1	-30,30303	275,359373	295,670636	0
14.01.2021	17:31:06	0	0	2,598397	3,89925	102,204	1,355	75,79	3,5	1005,64	8	9,9	9,7	1	1	1	1	1	1	1	1	1	0	1	-36,575053	275,373713	289,466523	0
14.01.2021	17:31:07	0	0	2,937318	3,5115	110,7576	1,356	75,778	3,5	1005,58	7,8	10	9,7	1	1	1	1	1	1	1	1	1	0	1	-31,007752	275,188115	294,155719	0
14.01.2021	17:31:08	0	0	3,050292	3,63	109,242	1,352	75,781	3,5	1005,62	8	9,9	9,7	1	1	1	1	1	1	1	1	1	0	1	-36,504581	275,267213	289,032904	0
14.01.2021	17:31:09	0	0	2,711371	3,4515	106,686	1,359	75,789	3,5	1005,62	8,1	9,9	9,7	1	1	1	1	1	1	1	1	1	0	1	-35,447498	275,200749	289,775691	0
14.01.2021	17:31:10	0	0	2,711371	3,49575	113,0328	1,36	75,781	3,5	1005,4	8	9,9	9,7	1	1	1	1	1	1	1	1	1	0	1	-31,148696	275,24345	294,27639	0
14.01.2021	17:31:11	0	0	4,518951	3,81825	112,356	1,361	75,779	3,5	1005,6	8,1	9,9	9,7	1	1	1	1	1	1	1	1	1	0	1	-29,457364	275,207069	295,795701	0
14.01.2021	17:31:12	0	0	2,824345	3,7935	105,1272	1,361	75,779	3,5	1005,54	8	9,9	9,7	1	1	1	1	1	1	1	1	1	0	1	-34,319944	275,354596	291,6311	0
14.01.2021	17:31:13	0	0	4,18003	3,68025	111,7728	1,358	75,787	3,5	1005,58	8	9,9	9,7	1	1	1	1	1	1	1	1	1	0	1	-35,51797	275,314828	290,244812	0
14.01.2021	17:31:14	0	0	2,824345	3,49425	107,7624	1,365	75,778	3,5	1005,52	8	10	9,7	1	1	1	1	1	1	1	1	1	0	1	-35,729387	275,357781	290,236738	0
14.01.2021	17:31:15	0	0	3,615161	3,126	83,7216	1,354	75,778	3,5	1005,5	8	9,9	9,7	1	1	1	1	1	1	1	1	1	0	1	-27,766032	275,238701	297,636594	0
14.01.2021	17:31:16	0	0	3,389214	2,835	95,814	1,356	75,777	3,5	1005,64	8	9,9	9,7	1	1	1	1	1	1	1	1	1	0	1	-29,034531	275,345044	296,871287	0
14.01.2021	17:31:17	0	0	2,937318	3,027	95,5224	1,359	75,772	3,5	1005,58	8	10	9,7	1	1	1	1	1	1	1	1	1	0	1	-29,668781	275,219715	295,644074	0
14.01.2021	17:31:18	0	0	5,08382	3,05025	102,1896	1,354	75,777	3,5	1005,58	8,1	9,9	9,7	1	1	1	1	1	1	1	1	1	0	1	-33,403805	275,260873	292,10369	0
14.01.2021	17:31:19	0	0	3,954082	3,01125	89,7228	1,355	75,782	3,5	1005,56	8,1	9,9	9,7	1	1	1	1	1	1	1	1	1	0	1	-31,148696	275,345044	294,757122	0
14.01.2021	17:31:20	0	0	3,728135	3,093	90,4032	1,36	75,794	3,5	1005,6	8,1	9,9	9,7	1	1	1	1	1	1	1	1	1	0	1	-31,078224	275,354596	294,87282	0
14.01.2021	17:31:21	0	0	2,824345	2,9685	97,6896	1,358	75,762	3,5	1005,62	7,8	9,9	9,7	1	1	1	1	1	1	1	1	1	0	1	-32,205779	275,241867	293,21182	0
14.01.2021	17:31:22	0	0	4,631925	2,95725	115,1928	1,361	75,783	3,5	1005,58	7,8	9,9	9,7	1	1	1	1	1	1	1	1	1	0	1	-31,078224	275,348227	294,842667	0
14.01.2021	17:31:23	0	0	3,163266	3,35325	111,8304	1,357	75,786	3,5	1005,58	8	9,9	9,7	1	1	1	1	1	1	1	1	1	0	1	-33,403805	275,305295	292,313864	0
14.01.2021	17:31:24	0	0	4,518951	3,7365	112,284	1,352	75,792	3,5	1005,54	8	9,9	9,7	1	1	1	1	1	1	1	1	1	0	1	-37,279774	275,306884	288,445412	0
14.01.2021	17:31:25	0	0	2,485423	3,8565	98,7624	1,355	75,8	3,5	1005,7	8	9,9	9,7	1	1	1	1	1	1	1	1	1	0	1	-33,262861	275,172334	291,826028	0
14.01.2021	17:31:26	0	0	4,405978	3,73275	119,736	1,352	75,792	3,5	1005,54	8,1	9,9	9,7	1	1	1	1	1	1	1	1	1	0	1	-35,729387	275,279899	289,868112	0
14.01.2021	17:31:27	0	0	3,502187	3,765	115,5744	1,35	75,805	3,5	1005,6	8	9,9	9,7	1	1	1	1	1	1	1	1	1	0	1	-33,967583	275,330725	291,870448	0
14.01.2021	17:31:28	0	0	3,615161	3,3765	95,5008	1,349	75,816	3,5	1005,54	7,8	9,9	9,7	1	1	1	1	1	1	1	1	1	0	1	-33,403805	275,330725	292,434226	0
14.01.2021	17:31:29	0	0	2,372449	2,88375	98,73	1,347	75,815	3,5	1005,5	8,1	9,9	9,7	1	1	1	1	1	1	1	1	1	0	1	-32,769556	275,278313	292,820438	0
14.01.2021	17:31:30	0	0	2,485423	2,50575	60,5448	1,356	75,831	3,5	1005,36	8	9,9	9,7	1	1	1	1	1	1	1	1	1	0	1	-33,54475	275,184957	291,603799	0
14.01.2021	17:31:31	0	0	4,744899	2,523	84,0348	1,35	75,83	3,5	1005,44	7,8	9,9	9,7	1	1	1	1	1	1	1	1	1	0	1	-36,222692	275,316417	289,547612	0
14.01.2021	17:31:32	0	0	2,824345	2,6355	90,018	1,354	75,851	3,5	1005,64	7,8	9,9	9,7	1	1	1	1	1	1	1	1	1	0	1	-30,443975	275,31165	295,303767	0
14.01.2021	17:31:33	0	0	2,485423	2,658	85,1328	1,353	75,86	3,5	1005,72	7,8	9,9	9,7	1	1	1	1	1	1	1	1	1	0	1	-36,434109	275,194431	288,759216	0
14.01.2021	17:31:34	0	0	4,18003	2,7015	95,1156	1,346	75,866	3,5	1005,42	8,1	9,9	9,7	1	1	1	1	1	1	1	1	1	0	1	-35,236082	275,265628	290,293904	0
14.01.2021	17:31:35	0	0	4,067056	2,841	100,3716	1,35	75,875	3,5	1005,58	7,8	9,9	9,7	1	1	1	1	1	1	1	1	1	0	1	-34,53136	275,343452	291,366924	0
14.01.2021	17:31:36	0	0	3,050292	3,11175	96,606	1,346	75,884	3,5	1005,48	7,8	9,9	9,7	1	1	1	1	1	1	1	1	1	0	1	-32,9105	275,208649	292,350036	0
14.01.2021	17:31:37	0	0	3,728135	3,324	84,0384	1,356	75,896	3,5	1005,52	8	9,9	9,7	1	1	1	1	1	1	1	1	1	0	1	-33,967583	275,233953	291,412591	0
14.01.2021	17:31:38	0	0	2,937318	3,27525	82,3536	1,378	75,905	3,5	1005,72	8,1	9,9	9,7	1	1	1	1	1	1	1	1	1	0	1	-30,866808	275,173911	294,229537	0
14.01.2021	17:31:39	0	0	4,970847	3,14925	85,5288	1,35	75,886	3,5	1005,72	8	9,9	9,7	1	1	1	1	1	1	1	1	1	0	1	-31,219168	275,245033	294,213406	0
14.01.2021	17:31:40	0	0	3,841109	3,054	90,3924	1,352	75,909	3,5	1005,6	8	9,9	9,7	1	1	1	1	1	1	1	1	1	0	1	-33,333333	275,178645	291,78538	0
14.01.2021	17:31:41	0	0	2,598397	2,95875	90,7416	1,35	75,901	3,5	1005,66	8	9,9	9,7	1	1	1	1	1	1	1	1	1	0	1	-33,54475	275,170756	291,536686	0
14.01.2021	17:31:42	0	0	2,711371	3,036	91,8612	1,348	75,902	3,5	1005,56	8,1	9,9	9,7	1	1	1	1	1	1	1	1	1	0	1	-32,205779	275,192852	292,980081	0
14.01.2021	17:31:43	0	0	3,954082	3,12225	105,876	1,352	75,915	3,5	1005,66	8,1	9,9	9,7	1	1	1	1	1	1	1	1	1	0	1	-34,038055	275,245033	291,394519	0
14.01.2021	17:31:44	0	0	2,937318	3,1275	109,5768	1,353	75,923	3,5	1005,54	8	9,9	9,7	1	1	1	1	1	1	1	1	1	0	1	-34,53136	275,332316	291,3142	0
14.01.2021	17:31:45	0	0	3,050292	3,15675	108,864	1,35	75,945	3,5	1005,66	8	9,9	9,7	1	1	1	1	1	1	1	1	1	0	1	-33,615222	275,24345	291,809864	0
14.01.2021	17:31:46	0	0	2,824362	3,10875	105,1452	1,35	75,931	3,5	1005,62	8	9,9	9,6	1	1	1	1	1	1	1	1	1	0	1	-33,333333	275,199169	291,882388	0
14.01.2021	17:31:47	0	0	2,937318	3,26475	110,0088	1,348	75,941	3,5	1005,6	7,8	9,9	9,7	1	1	1	1	1	1	1	1	1	0	1	-36,715997	275,345044	289,189821	0
14.01.2021	17:31:48	0	0	4,405978	3,366	104,418	1,351	75,943	3,5	1005,58	7,8	9,9	9,7	1	1	1	1	1	1	1	1	1	0	1	-36,786469	275,330725	289,051562	0
14.01.2021	17:31:49	0	0	3,728135	3,372	96,5736	1,351	75,949	3,5	1005,68	8,1	9,9	9,7	1	1	1	1	1	1	1	1	1	0	1	-33,262861	275,208649	291,997676	0
14.01.2021	17:31:50	0	0	4,518951	3,4125	104,076	1,348	75,961	3,5	1005,64	7,8	9,9	9,7	1	1	1	1	1	1	1	1	1	0	1	-35,236082	275,162871	289,808094	0
14.01.2021	17:31:51	0	0	2,598397	3,43725	102,3048	1,352	75,961	3,5	1005,62	8	9,9	9,7	1	1	1	1	1	1	1	1	1	0	1	-31,360113	275,150262	293,624486	0
14.01.2021	17:31:52	0	0	2,598397	3,3495	94,0896	1,347	75,96	3,5	1005,64	8	9,9	9,7	1	1	1	1	1	1	1	1	1	0	1	-39,252995	275,292593	286,404565	0
14.01.2021	17:31:53	0	0	2,146502	3,34125	97,7148	1,347	75,975	3,5	1005,68	7,8	9,9	9,7	1	1	1	1	1	1	1	1	1	0	1	-30,796335	275,170756	294,2851	0
14.01.2021	17:31:54	0	0	4,18003	3,39225	96,5808	1,348	75,981	3,5	1005,54	8,1	9,9	9,7	1	1	1	1	1	1	1	1	1	0	1	-31,712474	275,354596	294,23857	0
14.01.2021	17:31:55	0	0	2,259476	3,3735	92,9484	1,348	75,965	3,5	1005,62	8	9,9	9,7	1	1	1	1	1	1	1	1	1	0	1	-34,319944	275,281485	291,28506	0
14.01.2021	17:31:56	0	0	4,067056	3,28275	101,7972	1,35	75,972	3,5	1005,44	8	9,9	9,7	1	1	1	1	1	1	1	1	1	0	1	-35,729387	275,34027	290,153829	0
14.01.2021	17:31:57	0	0	4,18003	3,42375	91,8972	1,346	75,972	3,5	1005,4	8	9,9	9,7	1	1	1	1	1	1	1	1	1	0	1	-33,333333	275,208649	291,927203	0
14.01.2021	17:31:58	0	0	4,631925	3,567	99,1476	1,346	75,977	3,5	1005,52	7,8	9,9	9,7	1	1	1	1	1	1	1	1	1	0	1	-34,390416	275,216553	290,907487	0
14.01.2021	17:31:59	0	0	4,631925	3,60225	86,3064	1,351	75,997	3,5	1005,46	7,8	9,9	9,7	1	1	1	1	1	1	1	1	1	0	1	-33,826638	275,332316	292,018922	0
14.01.2021	17:32:00	0	0	4,631925	3,45	106,6572	1,335	75,993	3,5	1005,56	8	9,9	9,7	1	1	1	1	1	1	1	1	1	0	1	-32,205779	275,227624	293,144468	0
14.01.2021	17:32:01	0	0	3,954082	3,35025	106,6824	1,34	75,994	3,5	1005,4	7,8	9,9	9,7	1	1	1	1	1	1	1	1	1	0	1	-32,205779	275,227624	293,144468	0
14.01.2021	17:32:02	0	0	3,954082	3,35025	106,6824	1,34	75,994	3,5	1005,4	7,8	9,9	9,7	1	1	1	1	1	1	1	1	1	0	1	-37,984496	275,327545	287,838479	0
14.01.2021	17:32:03	0	0	2,485423	3,30525	106,2648	1,344	75,997	3,5	1005,58	8	9,9	9,7	1	1	1	1	1	1	1	1	1	0	1	-33,474278	275,300531	292,220845	0
14.01.2021	17:32:04	0	0	2,937318	3,168	112,2768	1,338	76,012	3,5	1005,68	8	9,9	9,7	1	1	1	1	1	1	1	1	1	0	1	-31,501057	275,192852	293,684803	0
14.01.2021	17:32:05	0	0	2,146502	3,006	88,11	1,343	76,014	3,5	1005,54	7,8	9,9	9,7	1	1	1	1	1	1	1	1	1	0	1	-35,447498	275,343452	290,450785	0
14.01.2021	17:32:06	0	0	3,615161	2,94	112,3452	1,334	76,016	3,5	1005,76	8	9,9	9,7	1	1	1	1	1	1	1	1	1	0	1	-36,011276	275,348227	289,909615	0
14.01.2021	17:32:07	0	0	3,502187	2,98725	104,4432	1,341	76,013	3,5	1005,56	8	9,9	9,7	1	1	1	1	1	1	1	1	1	0	1	-33,685694	275,271969	291,87429	0
14.01.2021	17:32:08	0	0	2,259476	2,9775	95,8464	1,344	76,022	3,5	1005,66	8	9,9	9,7	1	1	1	1	1	1	1	1	1	0	1	-37,209302	275,170756	287,872133	0
14.01.2021	17:32:09	0	0	4,631925	2,96625	101,502	1,339	76,035	3,5	1005,7	8	9,9	9,7	1	1	1	1	1	1	1	1	1	0	1	-34,319944	275,29418	291,345128	0
14.01.2021	17:32:10	0	0	4,631925	3,0465	119,0808	1,342	76,03	3,5	1005,48	8	9,9	9,7	1	1	1	1	1	1	1	1	1	0	1	-33,051445	275,219715	292,26141	0
14.01.2021	17:32:11	0	0	2,711371	2,9535	108,4932	1,346	76,033	3,5	1005,62	8	9,9	9,7	1	1	1	1	1	1	1	1	1	0	1	-32,55814	275,145535	292,40413	0
14.01.2021	17:32:12	0	0	4,518951	2,87325	109,6416	1,344	76,036	3,5	1005,7	8	9,9	9,7	1	1	1	1	1	1	1	1	1	0	1	-31,782946	275,306884	293,942241	0
14.01.2021	17:32:13	0	0	2,711387	3,027	108,972	1,338	76,039	3,5	1005,6	8	9,9	9,6	1	1	1	1	1	1	1	1	1	0	1	-36,715997	275,24345	288,709089	0
14.01.2021	17:32:14	0	0	2,824345	3,1545	111,7836	1,346	76,034	3,5	1005,56	8	9,9	9,7	1	1	1	1	1	1	1	1	1	0	1	-33,685694	275,324365	292,122229	0
14.01.2021	17:32:15	0	0	4,293004	3,3555	107,4024	1,341	76,037	3,5	1005,6	8	9,9	9,7	1	1	1	1	1	1	1	1	1	0	1	-30,725863	275,262458	294,789128	0
14.01.2021	17:32:16	0	0	4,518951	3,624	113,0184	1,338	76,033	3,5	1005,46	8	9,9	9,7	1	1	1	1	1	1	1	1	1	0	1	-32,55814	275,319595	293,22721	0
14.01.2021	17:32:17	0	0	2,485423	3,747	119,106	1,333	76,033	3,5	1005,6	8	9,9	9,7	1	1	1	1	1	1	1	1	1	0	1	-35,236082	275,341861	290,654668	0
14.01.2021	17:32:18	0	0	4,518951	4,0665	107,4132	1,335	76,039	3,5	1005,64	8	9,9	9,7	1	1	1	1	1	1	1	1	1	0	1	-32,205779	275,238701	293,196848	0
14.01.2021	17:32:19	0	0	4,405978	4,92225	116,658	1,338	76,048	3,5	1005,68	8	9,9	9,7	1	1	1	1	1	1	1	1	1	0	1	-31,007752	275,148686	293,969403	0
14.01.2021	17:32:20	0	0	3,050292	5,3355	108,8856	1,336	76,048	3,5	1005,48	8	9,8	9,7	1	1	1	1	1	1	1	1	1	0	1	-34,53136	275,23237	290,841331	0
14.01.2021	17:32:21	0	0	4,293004	5,439	125,4672	1,34	76,058	3,5	1005,78	8	9,9	9,7	1	1	1	1	1	1	1	1	1	0	1	-33,333333	275,330725	292,504698	0
14.01.2021	17:32:22	0	0	4,631925	4,98675	122,7024	1,334	76,036	3,5	1005,76	8	9,9	9,7	1	1	1	1	1	1	1	1	1	0	1	-37,561663	275,281485	288,04334	0
14.01.2021	17:32:23	0	0	3,163285	4,839	108,8964	1,34	76,036	3,5	1005,66	8,1	10	9,6	1	1	1	1	1	1	1	1	1	0	1	-32,276251	275,162871	292,767925	0
14.01.2021	17:32:24	0	0	3,163266	4,46475	119,466	1,339	76,05	3,5	1005,62	8	9,9	9,7	1	1	1	1	1	1	1	1	1	0	1	-33,333333	275,321185	292,45954	0
14.01.2021	17:32:25	0	0	2,824345	4,03275	117,7848	1,335	76,026	3,5	1005,42	8	9,9	9,7	1	1	1	1	1	1	1	1	1	0	1	-30,021142	275,265628	295,508844	0
14.01.2021	17:32:26	0	0	2,711371	3,9555	115,218	1,338	76,049	3,5	1005,6	8	9,9	9,7	1	1	1	1	1	1	1	1	1	0	1	-35,095137	275,148686	289,882018	0
14.01.2021	17:32:27	0	0	2,372449	4,30275	129,8016	1,345	76,052	3,5	1005,64	8	9,8	9,7	1	1	1	1	1	1	1	1	1	0	1	-30,725863	275,172334	294,363026	0
14.01.2021	17:32:28	0	0	3,728135	4,27425	107,4528	1,34	76,077	3,5	1005,54	8	9,9	9,7	1	1	1	1	1	1	1	1	1	0	1	-32,9105	275,268798	292,634483	0
14.01.2021	17:32:29	0	0	2,711371	4,059	120,5172	1,334	76,075	3,5	1005,54	8	10	9,7	1	1	1	1	1	1	1	1	1	0	1	-35,377026	275,329135	290,453477	0
14.01.2021	17:32:30	0	0	4,518951	3,768	111,0528	1,335	76,09	3,5	1005,58	8	9,9	9,7	1	1	1	1	1	1	1	1	1	0	1	-32,346723	275,335497	293,513897	0
14.01.2021	17:32:31	0	0	3,615161	3,414	121,6296	1,332	76,09	3,5	1005,48	8	9,9	9,7	1	1	1	1	1	1	1	1	1	0	1	-32,135307	275,203909	293,102819	0
14.01.2021	17:32:32	0	0	5,083851	3,16125	94,7592	1,34	76,114	3,5	1005,54	8	9,9	9,6	1	1	1	1	1	1	1	1	1	0	1	-32,628612	275,324365	293,179311	0
14.01.2021	17:32:33	0	0	4,18003	3,10275	117,3888	1,331	76,108	3,5	1005,66	8	9,9	9,7	1	1	1	1	1	1	1	1	1	0	1	-35,447498	275,21023	289,82051	0
14.01.2021	17:32:34	0	0	4,405978	3,35925	105,8796	1,337	76,1	3,5	1005,7	8	9,9	9,7	1	1	1	1	1	1	1	1	1	0	1	-27,836505	275,329135	297,993998	0
14.01.2021	17:32:35	0	0	4,18003	3,747	122,8032	1,339	76,132	3,5	1005,58	8	9,9	9,7	1	1	1	1	1	1	1	1	1	0	1	-31,501057	275,254536	293,976461	0
14.01.2021	17:32:36	0	0	2,485438	4,19775	116,6328	1,338	76,128	3,5	1005,54	8	10	9,6	1	1	1	1	1	1	1	1	1	0	1	-36,575053	275,333906	289,278037	0
14.01.2021	17:32:37	0	0	3,728135	4,2705	117,8136	1,332	76,132	3,5	1005,56	8	9,9	9,7	1	1	1	1	1	1	1	1	1	0	1	-32,699084	275,324365	293,108839	0
14.01.2021	17:32:38	0	0	4,631925	4,28925	113,004	1,334	76,137	3,5	1005,66	8	9,9	9,7	1	1	1	1	1	1	1	1	1	0	1	-37,914024	275,286245	287,713499	0
14.01.2021	17:32:39	0	0	4,293004	4,15875	116,3916	1,337	76,141	3,5	1005,62	8	9,9	9,7	1	1	1	1	1	1	1	1	1	0	1	-33,403805	275,208649	291,856731	0
14.01.2021	17:32:40	0	0	3,389234	4,029	123,84	1,34	76,146	3,5	1005,64	8	9,9	9,6	1	1	1	1	1	1	1	1	1	0	1	-31,360113	275,324365	294,44781	0
14.01.2021	17:32:41	0	0	4,293004	4,134	114,066	1,331	76,138	3,5	1005,42	8	9,9	9,7	1	1	1	1	1	1	1	1	1	0	1	-31,078224	275,303707	294,631929	0
14.01.2021	17:32:42	0	0	2,598397	4,01025	125,4276	1,333	76,147	3,5	1005,64	8	9,9	9,7	1	1	1	1	1	1	1	1	1	0	1	-31,92389	275,147111	293,045822	0
14.01.2021	17:32:43	0	0	3,050311	3,993	104,7636	1,339	76,156	3,5	1005,52	8	10	9,6	1	1	1	1	1	1	1	1	1	0	1	-32,9105	275,167602	292,156029	0
14.01.2021	17:32:44	0	0	3,27624	3,80475	112,6332	1,334	76,147	3,5	1005,3	8	10	9,7	1	1	1	1	1	1	1	1	1	0	1	-33,262861	275,21023	292,005147	0
14.01.2021	17:32:45	0	0	2,372464	3,5835	112,3164	1,333	76,145	3,5	1005,58	8	9,9	9,6	1	1	1	1	1	1	1	1	1	0	1	-33,967583	275,153413	291,031906	0
14.01.2021	17:32:46	0	0	4,518951	3,276	97,398	1,329	76,143	3,5	1005,58	8	9,9	9,7	1	1	1	1	1	1	1	1	1	0	1	-35,447498	275,297355	290,232597	0
14.01.2021	17:32:47	0	0	4,744899	3,1635	96,9696	1,33	76,14	3,5	1005,44	8	9,9	9,7	1	1	1	1	1	1	1	1	1	0	1	-33,54475	275,24345	291,880336	0
14.01.2021	17:32:48	0	0	2,146502	3,30675	126,1404	1,336	76,132	3,5	1005,6	8	10	9,7	1	1	1	1	1	1	1	1	1	0	1	-35,588443	275,162871	289,455733	0
14.01.2021	17:32:49	0	0	3,841132	3,82875	118,3284	1,338	76,12	3,5	1005,74	8	9,8	9,6	1	1	1	1	1	1	1	1	1	0	1	-33,685694	275,137661	291,239375	0
14.01.2021	17:32:50	0	0	3,163266	4,33275	97,362	1,332	76,116	3,5	1005,6	8	9,9	9,7	1	1	1	1	1	1	1	1	1	0	1	-33,897111	275,221297	291,423221	0
14.01.2021	17:32:51	0	0	4,405978	4,362	118,3356	1,336	76,113	3,5	1005,76	8	10	9,7	1	1	1	1	1	1	1	1	1	0	1	-33,333333	275,283072	292,279176	0
14.01.2021	17:32:52	0	0	2,598397	4,17	106,6716	1,336	76,106	3,5	1005,54	8	9,9	9,7	1	1	1	1	1	1	1	1	1	0	1	-32,487667	275,189694	292,683266	0
14.01.2021	17:32:53	0	0	3,841132	4,22925	97,2828	1,334	76,1	3,5	1005,5	8	9,9	9,6	1	1	1	1	1	1	1	1	1	0	1	-34,390416	275,219715	290,922439	0
14.01.2021	17:32:54	0	0	2,372449	4,1055	107,7444	1,332	76,1	3,5	1005,5	8	9,9	9,7	1	1	1	1	1	1	1	1	1	0	1	-35,729387	275,319595	290,055962	0
14.01.2021	17:32:55	0	0	3,163285	4,14825	97,7292	1,334	76,079	3,5	1005,6	8	9,9	9,6	1	1	1	1	1	1	1	1	1	0	1	-35,940803	275,19759	289,267452	0
14.01.2021	17:32:56	0	0	4,518951	4,3215	107,7768	1,342	76,092	3,5	1005,58	8	9,9	9,7	1	1	1	1	1	1	1	1	1	0	1	-33,967583	275,278313	291,622411	0
14.01.2021	17:32:57	0	0	2,598397	3,9585	101,8152	1,33	76,065	3,5	1005,44	8	9,8	9,7	1	1	1	1	1	1	1	1	1	0	1	-29,175476	275,325954	296,639973	0
14.01.2021	17:32:58	0	0	2,485423	3,64575	81,6048	1,337	76,056	3,5	1005,56	8	9,9	9,7	1	1	1	1	1	1	1	1	1	0	1	-29,386892	275,249784	296,068151	0
14.01.2021	17:32:59	0	0	3,27624	3,15675	92,934	1,333	76,068	3,5	1005,48	8	9,8	9,7	1	1	1	1	1	1	1	1	1	0	1	-32,628612	275,316417	293,141692	0
14.01.2021	17:33:00	0	0	4,18003	2,95875	97,7148	1,34	76,062	3,5	1005,56	8	9,9	9,7	1	1	1	1	1	1	1	1	1	0	1	-31,782946	275,139235	293,149562	0
14.01.2021	17:33:01	0	0	4,18003	2,95875	97,7148	1,34	76,062	3,5	1005,56	8	9,9	9,7	1	1	1	1	1	1	1	1	1	0	1	-31,782946	275,139235	293,149562	0
14.01.2021	17:33:02	0	0	2,711371	3,02025	90,0252	1,339	76,051	3,5	1005,64	8	10	9,7	1	1	1	1	1	1	1	1	1	0	1	-32,628612	275,314828	293,134171	0
14.01.2021	17:33:03	0	0	3,841132	3,066	88,9488	1,332	76,032	3,5	1005,6	8	9,8	9,6	1	1	1	1	1	1	1	1	1	0	1	-31,078224	275,235535	294,309433	0
14.01.2021	17:33:04	0	0	3,389234	2,96325	95,5116	1,34	76,048	3,5	1005,58	8	10	9,6	1	1	1	1	1	1	1	1	1	0	1	-35,377026	275,271969	290,182958	0
14.01.2021	17:33:05	0	0	4,406004	2,78175	95,8428	1,336	76,049	3,5	1005,64	8	10	9,6	1	1	1	1	1	1	1	1	1	0	1	-30,93728	275,302119	294,765358	0
14.01.2021	17:33:06	0	0	4,18003	2,59875	92,2752	1,338	76,032	3,5	1005,62	8	9,9	9,7	1	1	1	1	1	1	1	1	1	0	1	-29,668781	275,184957	295,479768	0
14.01.2021	17:33:07	0	0	4,857873	2,655	99,5292	1,336	76,042	3,5	1005,64	8	9,8	9,7	1	1	1	1	1	1	1	1	1	0	1	-34,319944	275,337088	291,548208	0
14.01.2021	17:33:08	0	0	4,631925	2,94225	79,8912	1,332	76,028	3,5	1005,5	8	9,9	9,7	1	1	1	1	1	1	1	1	1	0	1	-35,447498	275,257704	290,045007	0
14.01.2021	17:33:09	0	0	2,259476	3,1365	113,7204	1,333	76,024	3,5	1005,54	8	10	9,7	1	1	1	1	1	1	1	1	1	0	1	-32,699084	275,156565	292,315298	0
14.01.2021	17:33:10	0	0	3,163266	2,976	92,6316	1,335	76,026	3,5	1005,62	8	9,9	9,7	1	1	1	1	1	1	1	1	1	0	1	-34,178999	275,262458	291,335992	0
14.01.2021	17:33:11	0	0	4,518979	2,6925	98,46	1,334	76,017	3,5	1005,62	8	9,9	9,6	1	1	1	1	1	1	1	1	1	0	1	-33,403805	275,154989	291,603129	0
14.01.2021	17:33:12	0	0	4,631953	2,76075	88,6464	1,337	76,02	3,5	1005,68	8	9,9	9,6	1	1	1	1	1	1	1	1	1	0	1	-35,729387	275,180223	289,396784	0
14.01.2021	17:33:13	0	0	4,857902	3,06225	79,7652	1,337	76,019	3,5	1005,72	8	10	9,6	1	1	1	1	1	1	1	1	1	0	1	-32,699084	275,31165	293,048658	0
14.01.2021	17:33:14	0	0	2,485423	3,6465	81,5868	1,329	76,022	3,5	1005,5	8	9,9	9,7	1	1	1	1	1	1	1	1	1	0	1	-31,501057	275,164448	293,550569	0
14.01.2021	17:33:15	0	0	2,372464	3,753	88,9668	1,331	76,025	3,5	1005,64	8	10	9,6	1	1	1	1	1	1	1	1	1	0	1	-34,954193	275,189694	290,21674	0
14.01.2021	17:33:16	0	0	3,728135	3,906	104,4108	1,332	76,021	3,5	1005,8	8	9,9	9,7	1	1	1	1	1	1	1	1	1	0	1	-32,276251	275,283072	293,336259	0
14.01.2021	17:33:17	0	0	4,405978	4,1205	110,6964	1,331	76,02	3,5	1005,6	8	9,9	9,7	1	1	1	1	1	1	1	1	1	0	1	-35,799859	275,154989	289,207076	0
14.01.2021	17:33:18	0	0	4,405978	4,16925	104,7384	1,332	76,014	3,5	1005,6	8	9,8	9,7	1	1	1	1	1	1	1	1	1	0	1	-31,219168	275,316417	294,551136	0
14.01.2021	17:33:19	0	0	2,372449	4,632	103,3704	1,329	76,011	3,5	1005,66	8	9,9	9,7	1	1	1	1	1	1	1	1	1	0	1	-33,756166	275,286245	291,871357	0
14.01.2021	17:33:20	0	0	4,180055	5,03625	107,7336	1,336	75,997	3,5	1005,42	8	9,8	9,6	1	1	1	1	1	1	1	1	1	0	1	-29,034531	275,298943	296,653077	0
14.01.2021	17:33:21	0	0	2,485423	5,07975	105,0984	1,334	75,999	3,5	1005,62	8	9,8	9,7	1	1	1	1	1	1	1	1	1	0	1	-35,024665	275,177067	290,086591	0
14.01.2021	17:33:22	0	0	3,163266	4,8945	107,7228	1,326	75,993	3,5	1005,52	8	10	9,7	1	1	1	1	1	1	1	1	1	0	1	-34,178999	275,260873	291,328496	0
14.01.2021	17:33:23	0	0	4,518979	4,977	112,2984	1,331	75,99	3,5	1005,54	8	9,9	9,6	1	1	1	1	1	1	1	1	1	0	1	-31,219168	275,29418	294,445903	0
14.01.2021	17:33:24	0	0	2,711371	5,10675	103,6944	1,327	75,995	3,5	1005,52	8	9,8	9,7	1	1	1	1	1	1	1	1	1	0	1	-33,192389	275,337088	292,675762	0
14.01.2021	17:33:25	0	0	2,937336	5,04975	96,5628	1,33	76,004	3,5	1005,62	8	9,9	9,6	1	1	1	1	1	1	1	1	1	0	1	-37,984496	275,213391	287,298458	0
14.01.2021	17:33:26	0	0	3,502208	4,83525	95,2164	1,325	76,002	3,5	1005,66	8	10	9,6	1	1	1	1	1	1	1	1	1	0	1	-33,967583	275,314828	291,7952	0
14.01.2021	17:33:27	0	0	3,050292	4,66575	96,9732	1,335	76,016	3,5	1005,58	8	9,8	9,7	1	1	1	1	1	1	1	1	1	0	1	-33,262861	275,181801	291,870768	0
14.01.2021	17:33:28	0	0	4,405978	4,71675	102,96	1,334	76,018	3,5	1005,68	8	10	9,7	1	1	1	1	1	1	1	1	1	0	1	-30,373502	275,275141	295,201485	0
14.01.2021	17:33:29	0	0	2,937336	4,39575	91,8792	1,332	76,015	3,5	1005,64	8	9,8	9,6	1	1	1	1	1	1	1	1	1	0	1	-32,135307	275,156565	292,879075	0
14.01.2021	17:33:30	0	0	2,711371	3,9255	91,8864	1,331	76,012	3,5	1005,58	8	9,8	9,7	1	1	1	1	1	1	1	1	1	0	1	-35,306554	275,194431	289,88677	0
14.01.2021	17:33:31	0	0	4,405978	4,0965	100,7316	1,333	76,032	3,5	1005,7	8	9,9	9,7	1	1	1	1	1	1	1	1	1	0	1	-30,796335	275,251368	294,666198	0
14.01.2021	17:33:32	0	0	3,050292	4,14075	96,5988	1,335	76,051	3,5	1005,62	8	9,8	9,7	1	1	1	1	1	1	1	1	1	0	1	-32,346723	275,150262	292,637876	0
14.01.2021	17:33:33	0	0	3,615161	4,3905	98,7912	1,327	76,048	3,5	1005,52	8	9,8	9,7	1	1	1	1	1	1	1	1	1	0	1	-33,826638	275,289419	291,815902	0
14.01.2021	17:33:34	0	0	3,389234	4,6815	96,966	1,333	76,046	3,5	1005,52	8	9,8	9,6	1	1	1	1	1	1	1	1	1	0	1	-35,940803	275,205489	289,304792	0
14.01.2021	17:33:35	0	0	4,067081	4,87125	96,9768	1,331	76,05	3,5	1005,62	8	10	9,6	1	1	1	1	1	1	1	1	1	0	1	-36,856942	275,332316	288,988618	0
14.01.2021	17:33:36	0	0	2,937336	4,854	104,4288	1,33	76,064	3,5	1005,48	8	9,8	9,6	1	1	1	1	1	1	1	1	1	0	1	-37,068358	275,2482	288,379195	0
14.01.2021	17:33:37	0	0	3,27624	4,5975	105,192	1,328	76,057	3,5	1005,42	8	9,8	9,7	1	1	1	1	1	1	1	1	1	0	1	-34,178999	275,207069	291,074066	0
14.01.2021	17:33:38	0	0	3,615161	4,43475	111,8304	1,325	76,042	3,5	1005,42	8	10	9,7	1	1	1	1	1	1	1	1	1	0	1	-31,148696	275,313239	294,606566	0
14.01.2021	17:33:39	0	0	4,406004	4,17375	105,8652	1,329	76,07	3,5	1005,68	8	10	9,6	1	1	1	1	1	1	1	1	1	0	1	-30,514447	275,273555	295,053039	0
14.01.2021	17:33:40	0	0	4,29303	3,74925	107,4204	1,328	76,073	3,5	1005,7	8	9,9	9,6	1	1	1	1	1	1	1	1	1	0	1	-34,460888	275,308472	291,271816	0
14.01.2021	17:33:41	0	0	2,485423	3,41925	97,7868	1,336	76,056	3,5	1005,5	8	10	9,7	1	1	1	1	1	1	1	1	1	0	1	-28,752643	275,329135	297,07786	0
14.01.2021	17:33:42	0	0	4,857873	3,282	101,8008	1,333	76,07	3,5	1005,6	8	9,9	9,7	1	1	1	1	1	1	1	1	1	0	1	-35,658915	275,322775	290,141483	0
14.01.2021	17:33:43	0	0	2,598413	3,16575	78,66	1,329	76,057	3,5	1005,44	8	9,8	9,6	1	1	1	1	1	1	1	1	1	0	1	-35,588443	275,267213	289,949042	0
14.01.2021	17:33:44	0	0	4,405978	2,9685	103,3812	1,328	76,054	3,5	1005,48	8	10	9,7	1	1	1	1	1	1	1	1	1	0	1	-34,954193	275,335497	290,906427	0
14.01.2021	17:33:45	0	0	2,937336	2,892	104,0472	1,33	76,062	3,5	1005,64	8	9,9	9,6	1	1	1	1	1	1	1	1	1	0	1	-31,853418	275,188115	293,310053	0
14.01.2021	17:33:46	0	0	3,389234	3,26925	87,7248	1,327	76,061	3,5	1005,58	8	9,8	9,6	1	1	1	1	1	1	1	1	1	0	1	-32,487667	275,276727	293,094823	0
14.01.2021	17:33:47	0	0	4,067081	3,57975	95,1372	1,328	76,064	3,5	1005,4	8	9,9	9,6	1	1	1	1	1	1	1	1	1	0	1	-32,55814	275,153413	292,441349	0
14.01.2021	17:33:48	0	0	4,744927	3,83625	90,0108	1,332	76,047	3,5	1005,44	8	10	9,6	1	1	1	1	1	1	1	1	1	0	1	-32,064834	275,284658	293,555182	0
14.01.2021	17:33:49	0	0	3,615183	3,885	112,2516	1,325	76,068	3,5	1005,4	8	9,8	9,6	1	1	1	1	1	1	1	1	1	0	1	-36,081748	275,203909	289,156378	0
14.01.2021	17:33:50	0	0	2,711371	3,91575	109,2384	1,33	76,065	3,5	1005,6	8	9,8	9,7	1	1	1	1	1	1	1	1	1	0	1	-31,571529	275,19601	293,62926	0
14.01.2021	17:33:51	0	0	2,711387	3,726	91,53	1,334	76,05	3,5	1005,66	8	9,8	9,6	1	1	1	1	1	1	1	1	1	0	1	-32,417195	275,281485	293,187808	0
14.01.2021	17:33:52	0	0	5,196794	3,5205	85,1724	1,334	76,05	3,5	1005,46	8	10	9,7	1	1	1	1	1	1	1	1	1	0	1	-32,628612	275,313239	293,12665	0
14.01.2021	17:33:53	0	0	4,744899	3,6225	96,5916	1,336	76,052	3,5	1005,58	8	9,8	9,7	1	1	1	1	1	1	1	1	1	0	1	-36,15222	275,191272	289,026176	0
14.01.2021	17:33:54	0	0	2,146515	3,684	79,4232	1,33	76,055	3,5	1005,72	8	9,9	9,6	1	1	1	1	1	1	1	1	1	0	1	-31,289641	275,189694	293,881293	0
14.01.2021	17:33:55	0	0	4,18003	3,51675	69,4764	1,332	76,056	3,5	1005,7	8	10	9,7	1	1	1	1	1	1	1	1	1	0	1	-33,403805	275,333906	292,449284	0
14.01.2021	17:33:56	0	0	4,518979	3,41175	78,2748	1,331	76,033	3,5	1005,62	8	9,8	9,6	1	1	1	1	1	1	1	1	1	0	1	-32,276251	275,278313	293,313743	0
14.01.2021	17:33:57	0	0	4,29303	3,48375	79,4268	1,332	76,047	3,5	1005,54	8	9,8	9,6	1	1	1	1	1	1	1	1	1	0	1	-33,262861	275,31165	292,484881	0
14.01.2021	17:33:58	0	0	4,293004	3,52725	80,1468	1,33	76,038	3,5	1005,54	8	9,8	9,7	1	1	1	1	1	1	1	1	1	0	1	-35,447498	275,278313	290,142496	0
14.01.2021	17:33:59	0	0	4,067056	3,49875	77,9832	1,331	76,038	3,5	1005,7	8	10	9,7	1	1	1	1	1	1	1	1	1	0	1	-32,417195	275,241867	293,000404	0
14.01.2021	17:34:00	0	0	4,970876	4,00875	75,2112	1,322	76,028	3,5	1005,44	8	9,8	9,6	1	1	1	1	1	1	1	1	1	0	1	-34,390416	275,31165	291,357326	0
14.01.2021	17:34:01	0	0	4,970876	4,00875	75,2112	1,322	76,028	3,5	1005,44	8	9,8	9,6	1	1	1	1	1	1	1	1	1	0	1	-34,390416	275,31165	291,357326	0
14.01.2021	17:34:02	0	0	4,857902	4,03275	91,4976	1,335	76,027	3,5	1005,56	8	9,8	9,6	1	1	1	1	1	1	1	1	1	0	1	-31,853418	275,213391	293,429536	0
14.01.2021	17:34:03	0	0	2,711371	3,804	108,5508	1,329	76,026	3,5	1005,54	8	9,8	9,7	1	1	1	1	1	1	1	1	1	0	1	-33,051445	275,19601	292,149345	0
14.01.2021	17:34:04	0	0	4,29303	3,37125	102,2112	1,33	76,028	3,5	1005,64	8	9,8	9,6	1	1	1	1	1	1	1	1	1	0	1	-32,55814	275,139235	292,374368	0
14.01.2021	17:34:05	0	0	3,502208	3,3495	99,5148	1,326	76,014	3,5	1005,5	8	9,9	9,6	1	1	1	1	1	1	1	1	1	0	1	-31,642001	275,284658	293,978015	0
14.01.2021	17:34:06	0	0	3,502187	3,447	95,1264	1,329	76,015	3,5	1005,66	8	10	9,7	1	1	1	1	1	1	1	1	1	0	1	-35,799859	275,219715	289,512996	0
14.01.2021	17:34:07	0	0	3,841109	4,095	91,4976	1,33	76,029	3,5	1005,66	8	10	9,7	1	1	1	1	1	1	1	1	1	0	1	-34,390416	275,335497	291,470204	0
14.01.2021	17:34:08	0	0	4,857902	4,48425	96,5736	1,323	76,014	3,5	1005,78	8	10	9,6	1	1	1	1	1	1	1	1	1	0	1	-35,306554	275,289419	290,335986	0
14.01.2021	17:34:09	0	0	2,259476	5,46	99,9216	1,33	76,031	3,5	1005,66	8	9,8	9,7	1	1	1	1	1	1	1	1	1	0	1	-30,443975	275,262458	295,071017	0
14.01.2021	17:34:10	0	0	4,29303	5,88675	110,358	1,327	76,025	3,5	1005,8	8	9,8	9,6	1	1	1	1	1	1	1	1	1	0	1	-29,31642	275,305295	296,401249	0
14.01.2021	17:34:11	0	0	3,389234	6,3585	89,7048	1,327	76,036	3,5	1005,6	8	9,8	9,6	1	1	1	1	1	1	1	1	1	0	1	-31,642001	275,310061	294,098221	0
14.01.2021	17:34:12	0	0	3,389234	6,0075	89,7012	1,326	76,041	3,5	1005,62	8	10	9,6	1	1	1	1	1	1	1	1	1	0	1	-35,799859	275,260873	289,707636	0
14.01.2021	17:34:13	0	0	3,050311	5,6325	92,9628	1,329	76,016	3,5	1005,46	8	9,8	9,6	1	1	1	1	1	1	1	1	1	0	1	-31,642001	275,142385	293,305386	0
14.01.2021	17:34:14	0	0	4,518979	5,47125	89,3232	1,331	76,043	3,5	1005,66	8	9,8	9,6	1	1	1	1	1	1	1	1	1	0	1	-36,222692	275,330725	289,615339	0
14.01.2021	17:34:15	0	0	4,406004	5,59425	98,0568	1,325	76,029	3,5	1005,6	8	10	9,6	1	1	1	1	1	1	1	1	1	0	1	-33,121917	275,199169	292,093805	0
14.01.2021	17:34:16	0	0	3,502187	5,487	88,1172	1,329	76,046	3,5	1005,64	8	9,8	9,7	1	1	1	1	1	1	1	1	1	0	1	-32,980973	275,332316	292,864587	0
14.01.2021	17:34:17	0	0	3,163285	5,6805	101,1384	1,328	76,059	3,5	1005,52	8	9,8	9,6	1	1	1	1	1	1	1	1	1	0	1	-32,769556	275,306884	292,95563	0
14.01.2021	17:34:18	0	0	3,954106	5,59425	84,8556	1,326	76,073	3,5	1005,74	8	9,8	9,6	1	1	1	1	1	1	1	1	1	0	1	-35,447498	275,235535	289,940159	0
14.01.2021	17:34:19	0	0	4,180055	5,83875	78,66	1,329	76,095	3,5	1005,7	8	10	9,6	1	1	1	1	1	1	1	1	1	0	1	-33,826638	275,145535	291,135631	0
14.01.2021	17:34:20	0	0	3,276259	5,59275	78,282	1,329	76,103	3,5	1005,48	8	9,9	9,6	1	1	1	1	1	1	1	1	1	0	1	-27,484144	275,199169	297,731578	0
14.01.2021	17:34:21	0	0	3,728135	5,68725	86,6232	1,329	76,106	3,5	1005,62	8	10	9,7	1	1	1	1	1	1	1	1	1	0	1	-32,417195	275,322775	293,383202	0
14.01.2021	17:34:22	0	0	4,29303	5,547	98,4744	1,331	76,111	3,5	1005,5	8	9,8	9,6	1	1	1	1	1	1	1	1	1	0	1	-28,893587	275,154989	296,113348	0
14.01.2021	17:34:23	0	0	3,050311	5,169	94,068	1,319	76,124	3,5	1005,38	8	9,8	9,6	1	1	1	1	1	1	1	1	1	0	1	-33,262861	275,278313	292,327133	0
14.01.2021	17:34:24	0	0	3,841132	4,809	99,5328	1,327	76,133	3,5	1005,36	8	9,8	9,6	1	1	1	1	1	1	1	1	1	0	1	-33,121917	275,327545	292,701059	0
14.01.2021	17:34:25	0	0	3,050311	4,4055	94,7376	1,326	76,136	3,5	1005,58	8	9,8	9,6	1	1	1	1	1	1	1	1	1	0	1	-36,363636	275,164448	288,68799	0
14.01.2021	17:34:26	0	0	3,954106	4,3965	91,1592	1,326	76,126	3,5	1005,58	8	9,9	9,6	1	1	1	1	1	1	1	1	1	0	1	-34,178999	275,200749	291,04419	0
14.01.2021	17:34:27	0	0	4,29303	4,3455	100,3428	1,322	76,125	3,5	1005,6	8	9,8	9,6	1	1	1	1	1	1	1	1	1	0	1	-30,091614	275,203909	295,146512	0
14.01.2021	17:34:28	0	0	4,406004	4,42575	127,2276	1,325	76,119	3,5	1005,62	8	9,8	9,6	1	1	1	1	1	1	1	1	1	0	1	-31,712474	275,169179	293,361509	0
14.01.2021	17:34:29	0	0	4,29303	4,73775	118,3032	1,325	76,124	3,5	1005,38	8	9,8	9,6	1	1	1	1	1	1	1	1	1	0	1	-29,245948	275,19601	295,954841	0
14.01.2021	17:34:30	0	0	3,954082	4,64175	106,6896	1,329	76,144	3,5	1005,72	8	9,8	9,7	1	1	1	1	1	1	1	1	1	0	1	-34,672304	275,29418	290,992767	0
14.01.2021	17:34:31	0	0	2,711371	4,521	112,2732	1,325	76,141	3,5	1005,6	8	9,9	9,7	1	1	1	1	1	1	1	1	1	0	1	-35,236082	275,335497	290,624538	0
14.01.2021	17:34:32	0	0	4,744899	4,263	120,5352	1,327	76,136	3,5	1005,64	8	10	9,7	1	1	1	1	1	1	1	1	1	0	1	-34,390416	275,287832	291,244616	0
14.01.2021	17:34:33	0	0	1,920554	4,11075	104,7564	1,325	76,13	3,5	1005,64	8	9,8	9,7	1	1	1	1	1	1	1	1	1	0	1	-29,034531	275,218134	296,270847	0
14.01.2021	17:34:34	0	0	3,050311	4,242	92,952	1,321	76,128	3,5	1005,46	8	9,8	9,6	1	1	1	1	1	1	1	1	1	0	1	-33,826638	275,327545	291,996337	0
14.01.2021	17:34:35	0	0	4,970876	4,5435	90,7632	1,324	76,145	3,5	1005,62	8	9,8	9,6	1	1	1	1	1	1	1	1	1	0	1	-36,715997	275,192852	288,469863	0
14.01.2021	17:34:36	0	0	4,406004	4,59225	84,7908	1,324	76,144	3,5	1005,58	8	10	9,6	1	1	1	1	1	1	1	1	1	0	1	-29,598309	275,156565	295,416073	0
14.01.2021	17:34:37	0	0	3,502187	4,296	95,1372	1,328	76,14	3,5	1005,56	8	9,8	9,7	1	1	1	1	1	1	1	1	1	0	1	-29,457364	275,321185	296,335509	0
14.01.2021	17:34:38	0	0	3,502208	3,903	96,1776	1,327	76,139	3,5	1005,5	8	9,8	9,6	1	1	1	1	1	1	1	1	1	0	1	-31,571529	275,286245	294,055994	0
14.01.2021	17:34:39	0	0	1,920566	3,576	103,7088	1,324	76,144	3,5	1005,58	8	10	9,6	1	1	1	1	1	1	1	1	1	0	1	-28,611698	275,167602	296,454831	0
14.01.2021	17:34:40	0	0	4,518979	3,354	106,6896	1,328	76,144	3,5	1005,5	8	10	9,6	1	1	1	1	1	1	1	1	1	0	1	-33,967583	275,180223	291,158588	0
14.01.2021	17:34:41	0	0	4,744927	3,35175	100,746	1,325	76,13	3,5	1005,48	8	9,9	9,6	1	1	1	1	1	1	1	1	1	0	1	-36,575053	275,200749	288,648136	0
14.01.2021	17:34:42	0	0	4,744899	3,25125	99,1332	1,324	76,144	3,5	1005,58	8	9,8	9,7	1	1	1	1	1	1	1	1	1	0	1	-37,914024	275,161295	287,122702	0
14.01.2021	17:34:43	0	0	3,050311	3,1515	97,308	1,33	76,139	3,5	1005,52	8	9,8	9,6	1	1	1	1	1	1	1	1	1	0	1	-38,971106	275,191272	286,20729	0
14.01.2021	17:34:44	0	0	2,598413	3,0465	107,0424	1,328	76,144	3,5	1005,52	8	10	9,6	1	1	1	1	1	1	1	1	1	0	1	-32,55814	275,158142	292,46369	0
14.01.2021	17:34:45	0	0	4,631953	3,17775	113,0328	1,329	76,143	3,5	1005,64	8	9,8	9,6	1	1	1	1	1	1	1	1	1	0	1	-31,782946	275,147111	293,186766	0
14.01.2021	17:34:46	0	0	2,598413	3,2595	92,2572	1,329	76,151	3,5	1005,5	8	9,8	9,6	1	1	1	1	1	1	1	1	1	0	1	-34,460888	275,213391	290,822066	0
14.01.2021	17:34:47	0	0	3,050311	3,354	106,9812	1,332	76,15	3,5	1005,6	8	9,8	9,6	1	1	1	1	1	1	1	1	1	0	1	-32,135307	275,29418	293,529765	0
14.01.2021	17:34:48	0	0	3,050292	3,18525	86,9328	1,328	76,151	3,5	1005,62	8	9,8	9,7	1	1	1	1	1	1	1	1	1	0	1	-29,739253	275,199169	295,476469	0
14.01.2021	17:34:49	0	0	2,598413	2,874	97,326	1,331	76,147	3,5	1005,6	8	9,8	9,6	1	1	1	1	1	1	1	1	1	0	1	-34,178999	275,200749	291,04419	0
14.01.2021	17:34:50	0	0	2,485438	2,718	96,2172	1,331	76,139	3,5	1005,54	8	9,8	9,6	1	1	1	1	1	1	1	1	1	0	1	-30,091614	275,151838	294,90043	0
14.01.2021	17:34:51	0	0	2,598413	2,69025	98,1612	1,329	76,152	3,5	1005,5	8	9,8	9,6	1	1	1	1	1	1	1	1	1	0	1	-32,276251	275,189694	292,894682	0
14.01.2021	17:34:52	0	0	4,180055	2,724	105,1596	1,323	76,151	3,5	1005,54	8	10	9,6	1	1	1	1	1	1	1	1	1	0	1	-33,121917	275,325954	292,693532	0
14.01.2021	17:34:53	0	0	4,744927	2,82075	100,3644	1,328	76,137	3,5	1005,6	8	10	9,6	1	1	1	1	1	1	1	1	1	0	1	-30,725863	275,153413	294,273626	0
14.01.2021	17:34:54	0	0	3,841132	2,8335	88,9596	1,325	76,141	3,5	1005,42	8	9,8	9,6	1	1	1	1	1	1	1	1	1	0	1	-31,078224	275,216553	294,219679	0
14.01.2021	17:34:55	0	0	2,711387	2,9655	91,9008	1,33	76,158	3,5	1005,52	8	9,8	9,6	1	1	1	1	1	1	1	1	1	0	1	-35,658915	275,308472	290,073789	0
14.01.2021	17:34:56	0	0	4,067081	3,05175	90,0432	1,331	76,15	3,5	1005,7	8	9,8	9,6	1	1	1	1	1	1	1	1	1	0	1	-31,712474	275,335497	294,148147	0
14.01.2021	17:34:57	0	0	3,389214	3,25575	92,628	1,324	76,141	3,5	1005,6	8	9,8	9,7	1	1	1	1	1	1	1	1	1	0	1	-32,699084	275,181801	292,434546	0
14.01.2021	17:34:58	0	0	4,29303	3,315	102,978	1,33	76,138	3,5	1005,52	8	9,8	9,6	1	1	1	1	1	1	1	1	1	0	1	-33,967583	275,154989	291,039352	0
14.01.2021	17:34:59	0	0	3,276259	3,3435	87,7068	1,323	76,136	3,5	1005,58	8	9,8	9,6	1	1	1	1	1	1	1	1	1	0	1	-32,769556	275,145535	292,192714	0
14.01.2021	17:35:00	0	0	2,146515	3,558	89,7012	1,324	76,145	3,5	1005,58	8	10	9,6	1	1	1	1	1	1	1	1	1	0	1	-29,034531	275,154989	295,972404	0
14.01.2021	17:35:01	0	0	3,954106	3,84675	95,724	1,33	76,137	3,5	1005,52	8	9,8	9,6	1	1	1	1	1	1	1	1	1	0	1	-34,108527	275,203909	291,129599	0
14.01.2021	17:35:02	0	0	3,954106	3,84675	95,724	1,33	76,137	3,5	1005,52	8	9,8	9,6	1	1	1	1	1	1	1	1	1	0	1	-34,108527	275,203909	291,129599	0
14.01.2021	17:35:03	0	0	3,050292	3,88275	100,3104	1,326	76,133	3,5	1005,62	8	10	9,7	1	1	1	1	1	1	1	1	1	0	1	-30,232558	275,156565	294,781823	0
14.01.2021	17:35:04	0	0	2,711387	3,80625	84,8016	1,327	76,144	3,5	1005,62	8	10	9,6	1	1	1	1	1	1	1	1	1	0	1	-30,091614	275,147111	294,878098	0
14.01.2021	17:35:05	0	0	4,518979	3,864	88,1964	1,327	76,133	3,5	1005,62	8	9,8	9,6	1	1	1	1	1	1	1	1	1	0	1	-32,346723	275,219715	292,966132	0
14.01.2021	17:35:06	0	0	2,711371	3,77925	88,128	1,325	76,135	3,5	1005,4	8	9,8	9,7	1	1	1	1	1	1	1	1	1	0	1	-33,826638	275,318006	291,951188	0
14.01.2021	17:35:07	0	0	2,598413	3,64725	95,5368	1,328	76,127	3,5	1005,74	8	10	9,6	1	1	1	1	1	1	1	1	1	0	1	-33,967583	275,2482	291,47997	0
14.01.2021	17:35:08	0	0	3,276259	3,429	97,7148	1,323	76,128	3,5	1005,42	8	9,8	9,6	1	1	1	1	1	1	1	1	1	0	1	-29,175476	275,252952	296,29455	0
14.01.2021	17:35:09	0	0	3,163285	3,13725	85,1544	1,32	76,123	3,5	1005,56	8	9,8	9,6	1	1	1	1	1	1	1	1	1	0	1	-28,682171	275,158142	296,339659	0
14.01.2021	17:35:10	0	0	4,631953	2,694	88,56	1,327	76,105	3,5	1005,5	8	9,9	9,6	1	1	1	1	1	1	1	1	1	0	1	-32,205779	275,2482	293,241774	0
14.01.2021	17:35:11	0	0	3,276259	2,43	82,5948	1,328	76,111	3,5	1005,54	8	9,8	9,6	1	1	1	1	1	1	1	1	1	0	1	-33,756166	275,153413	291,243323	0
14.01.2021	17:35:12	0	0	5,196825	2,59425	87,336	1,32	76,115	3,5	1005,38	8	10	9,6	1	1	1	1	1	1	1	1	1	0	1	-37,209302	275,300531	288,48582	0
14.01.2021	17:35:13	0	0	2,824362	2,79225	86,9724	1,33	76,125	3,5	1005,66	8	9,8	9,6	1	1	1	1	1	1	1	1	1	0	1	-32,346723	275,22446	292,988565	0
14.01.2021	17:35:14	0	0	4,857902	2,79225	89,3232	1,331	76,114	3,5	1005,58	8	9,8	9,6	1	1	1	1	1	1	1	1	1	0	1	-33,474278	275,322775	292,32612	0
14.01.2021	17:35:15	0	0	3,050311	2,63775	95,112	1,325	76,125	3,5	1005,64	8	9,8	9,6	1	1	1	1	1	1	1	1	1	0	1	-32,135307	275,19759	293,072949	0
14.01.2021	17:35:16	0	0	4,29303	2,43525	90,4032	1,328	76,106	3,5	1005,5	8	9,8	9,6	1	1	1	1	1	1	1	1	1	0	1	-34,954193	275,267213	290,583291	0
14.01.2021	17:35:17	0	0	3,841132	2,424	88,6824	1,33	76,115	3,5	1005,56	8	10	9,6	1	1	1	1	1	1	1	1	1	0	1	-37,702607	275,314828	288,060175	0
14.01.2021	17:35:18	0	0	2,937336	2,43375	77,1912	1,325	76,101	3,5	1005,52	8	9,8	9,6	1	1	1	1	1	1	1	1	1	0	1	-30,866808	275,183379	294,274281	0
14.01.2021	17:35:19	0	0	2,937318	2,42025	107,082	1,327	76,103	3,5	1005,44	8	10	9,7	1	1	1	1	1	1	1	1	1	0	1	-29,809725	275,251368	295,652809	0
14.01.2021	17:35:20	0	0	2,711387	2,382	109,5912	1,33	76,116	3,5	1005,48	8	9,8	9,6	1	1	1	1	1	1	1	1	1	0	1	-33,333333	275,31165	292,414409	0
14.01.2021	17:35:21	0	0	3,841132	2,508	115,5744	1,327	76,112	3,5	1005,62	8	10	9,6	1	1	1	1	1	1	1	1	1	0	1	-36,222692	275,283072	289,389817	0
14.01.2021	17:35:22	0	0	5,08382	2,7315	109,998	1,331	76,109	3,5	1005,6	8	9,8	9,7	1	1	1	1	1	1	1	1	1	0	1	-30,443975	275,313239	295,311287	0
14.01.2021	17:35:23	0	0	3,954106	2,988	110,34	1,327	76,108	3,5	1005,5	8	9,8	9,6	1	1	1	1	1	1	1	1	1	0	1	-30,655391	275,31165	295,092351	0
14.01.2021	17:35:24	0	0	4,067081	3,21975	108,8568	1,33	76,111	3,5	1005,66	8	9,8	9,6	1	1	1	1	1	1	1	1	1	0	1	-35,870331	275,226042	289,472436	0
14.01.2021	17:35:25	0	0	3,163285	3,53625	113,0148	1,331	76,104	3,5	1005,66	8	9,8	9,6	1	1	1	1	1	1	1	1	1	0	1	-33,403805	275,153413	291,595683	0
14.01.2021	17:35:26	0	0	2,824362	3,582	115,5492	1,317	76,111	3,5	1005,46	8	9,8	9,6	1	1	1	1	1	1	1	1	1	0	1	-31,712474	275,186536	293,443536	0
14.01.2021	17:35:27	0	0	3,954106	3,56775	106,3836	1,329	76,11	3,5	1005,64	8	9,8	9,6	1	1	1	1	1	1	1	1	1	0	1	-33,897111	275,268798	291,647873	0
14.01.2021	17:35:28	0	0	3,276259	3,62475	111,0636	1,33	76,116	3,5	1005,62	8	9,8	9,6	1	1	1	1	1	1	1	1	1	0	1	-28,964059	275,316417	296,806245	0
14.01.2021	17:35:29	0	0	3,389214	3,54525	109,6236	1,321	76,17	3,5	1005,48	8	9,8	9,7	1	1	1	1	1	1	1	1	1	0	1	-34,813249	275,194431	290,380075	0
14.01.2021	17:35:30	0	0	4,29303	3,474	113,0148	1,328	76,114	3,5	1005,52	8	9,8	9,6	1	1	1	1	1	1	1	1	1	0	1	-35,377026	275,313239	290,378236	0
14.01.2021	17:35:31	0	0	4,29303	3,525	112,6512	1,326	76,117	3,5	1005,54	8	9,8	9,6	1	1	1	1	1	1	1	1	1	0	1	-35,024665	275,178645	290,094048	0
14.01.2021	17:35:32	0	0	3,389214	3,59625	114,48	1,327	76,114	3,5	1005,62	8	9,8	9,7	1	1	1	1	1	1	1	1	1	0	1	-32,487667	275,208649	292,772869	0
14.01.2021	17:35:33	0	0	4,631925	3,552	116,6544	1,326	76,108	3,5	1005,44	8	9,8	9,7	1	1	1	1	1	1	1	1	1	0	1	-32,205779	275,136086	292,711852	0
14.01.2021	17:35:34	0	0	3,389234	3,435	113,6916	1,322	76,09	3,5	1005,54	8	9,8	9,6	1	1	1	1	1	1	1	1	1	0	1	-33,262861	275,207069	291,990205	0
14.01.2021	17:35:35	0	0	2,937336	3,3	108,9612	1,326	76,124	3,5	1005,64	8	9,8	9,6	1	1	1	1	1	1	1	1	1	0	1	-32,840028	275,161295	292,196698	0
14.01.2021	17:35:36	0	0	2,372464	3,27825	110,6568	1,327	76,113	3,5	1005,52	8	9,8	9,6	1	1	1	1	1	1	1	1	1	0	1	-29,880197	275,123494	294,977956	0
14.01.2021	17:35:37	0	0	3,27624	3,14025	108,108	1,321	76,105	3,5	1005,64	8	9,8	9,7	1	1	1	1	1	1	1	1	1	0	1	-33,967583	275,271969	291,592401	0
14.01.2021	17:35:38	0	0	4,180055	3,02625	104,0688	1,326	76,106	3,5	1005,64	8	9,8	9,6	1	1	1	1	1	1	1	1	1	0	1	-30,93728	275,21023	294,330729	0
14.01.2021	17:35:39	0	0	4,29303	3,04575	104,0508	1,33	76,105	3,5	1005,56	8	9,8	9,6	1	1	1	1	1	1	1	1	1	0	1	-35,447498	275,319595	290,337851	0
14.01.2021	17:35:40	0	0	4,518979	3,07875	109,5876	1,321	76,098	3,5	1005,36	8	9,8	9,6	1	1	1	1	1	1	1	1	1	0	1	-33,051445	275,199169	292,164277	0
14.01.2021	17:35:41	0	0	4,518979	3,0735	113,418	1,331	76,118	3,5	1005,58	8	9,8	9,6	1	1	1	1	1	1	1	1	1	0	1	-31,289641	275,313239	294,465621	0
14.01.2021	17:35:42	0	0	4,067081	3,0555	112,644	1,328	76,099	3,5	1005,44	8	9,8	9,6	1	1	1	1	1	1	1	1	1	0	1	-32,487667	275,170756	292,593768	0
14.01.2021	17:35:43	0	0	2,824362	3,051	111,0456	1,33	76,101	3,5	1005,56	8	9,8	9,6	1	1	1	1	1	1	1	1	1	0	1	-29,386892	275,172334	295,701997	0
14.01.2021	17:35:44	0	0	3,728157	3,2205	107,4312	1,322	76,115	3,5	1005,58	8	9,8	9,6	1	1	1	1	1	1	1	1	1	0	1	-32,276251	275,139235	292,656257	0
14.01.2021	17:35:45	0	0	3,389234	3,3885	119,79	1,327	76,1	3,5	1005,56	8	9,8	9,6	1	1	1	1	1	1	1	1	1	0	1	-29,880197	275,237118	295,514944	0
14.01.2021	17:35:46	0	0	3,954106	3,4995	111,402	1,32	76,101	3,5	1005,62	8	9,8	9,6	1	1	1	1	1	1	1	1	1	0	1	-33,192389	275,156565	291,821993	0
14.01.2021	17:35:47	0	0	4,744927	3,498	114,084	1,318	76,092	3,5	1005,5	8	9,8	9,6	1	1	1	1	1	1	1	1	1	0	1	-36,293164	275,273555	289,274321	0
14.01.2021	17:35:48	0	0	2,824345	3,621	104,4612	1,321	76,098	3,5	1005,58	8	9,8	9,7	1	1	1	1	1	1	1	1	1	0	1	-29,175476	275,199169	296,040246	0
14.01.2021	17:35:49	0	0	2,485438	3,46125	100,3284	1,325	76,104	3,5	1005,6	8	9,8	9,6	1	1	1	1	1	1	1	1	1	0	1	-30,655391	275,170756	294,426044	0
14.01.2021	17:35:50	0	0	4,180055	3,219	105,5052	1,316	76,1	3,5	1005,68	8	9,8	9,6	1	1	1	1	1	1	1	1	1	0	1	-34,390416	275,284658	291,2296	0
14.01.2021	17:35:51	0	0	2,824362	2,96025	106,2792	1,325	76,118	3,5	1005,62	8	9,8	9,6	1	1	1	1	1	1	1	1	1	0	1	-31,782946	275,226042	293,559821	0
14.01.2021	17:35:52	0	0	4,406004	2,7105	121,2624	1,322	76,107	3,5	1005,56	8	9,8	9,6	1	1	1	1	1	1	1	1	1	0	1	-29,31642	275,305295	296,401249	0
14.01.2021	17:35:53	0	0	3,841132	2,616	110,6676	1,322	76,107	3,5	1005,54	8	9,8	9,6	1	1	1	1	1	1	1	1	1	0	1	-32,205779	275,264043	293,31671	0
14.01.2021	17:35:54	0	0	2,598413	2,52225	122,4	1,324	76,118	3,5	1005,3	8	9,8	9,6	1	1	1	1	1	1	1	1	1	0	1	-29,880197	275,203909	295,357929	0
14.01.2021	17:35:55	0	0	2,03354	2,4345	110,3472	1,324	76,126	3,5	1005,62	8	9,8	9,6	1	1	1	1	1	1	1	1	1	0	1	-29,31642	275,139235	295,616088	0
14.01.2021	17:35:56	0	0	2,937336	2,31375	112,6368	1,325	76,122	3,5	1005,6	8	9,8	9,6	1	1	1	1	1	1	1	1	1	0	1	-34,319944	275,19601	290,880846	0
14.01.2021	17:35:57	0	0	3,276259	2,66025	112,2804	1,322	76,13	3,5	1005,66	8	9,8	9,6	1	1	1	1	1	1	1	1	1	0	1	-30,232558	275,303707	295,477595	0
14.01.2021	17:35:58	0	0	3,841132	3,102	102,9384	1,323	76,14	3,5	1005,56	8	9,8	9,6	1	1	1	1	1	1	1	1	1	0	1	-28,611698	275,139235	296,320809	0
14.01.2021	17:35:59	0	0	4,180055	3,61575	117,7884	1,319	76,143	3,5	1005,52	8	9,8	9,6	1	1	1	1	1	1	1	1	1	0	1	-30,373502	275,246617	295,066561	0
14.01.2021	17:36:00	0	0	4,293004	4,67325	105,8832	1,324	76,136	3,5	1005,48	8	9,8	9,7	1	1	1	1	1	1	1	1	1	0	1	-32,135307	275,175489	292,968493	0
14.01.2021	17:36:01	0	0	4,293004	4,67325	105,8832	1,324	76,136	3,5	1005,48	8	9,8	9,7	1	1	1	1	1	1	1	1	1	0	1	-32,135307	275,175489	292,968493	0
14.01.2021	17:36:02	0	0	4,067081	4,44525	88,074	1,319	76,12	3,5	1005,46	8	9,8	9,6	1	1	1	1	1	1	1	1	1	0	1	-31,712474	275,181801	293,421156	0
14.01.2021	17:36:03	0	0	4,293004	4,374	95,8176	1,316	76,114	3,5	1005,42	8	9,8	9,7	1	1	1	1	1	1	1	1	1	0	1	-34,038055	275,306884	291,687131	0
14.01.2021	17:36:04	0	0	3,954082	4,21125	114,8508	1,32	76,132	3,5	1005,48	8	9,8	9,7	1	1	1	1	1	1	1	1	1	0	1	-31,712474	275,175489	293,391326	0
14.01.2021	17:36:05	0	0	2,824362	4,5315	108,864	1,319	76,137	3,5	1005,5	8	9,8	9,6	1	1	1	1	1	1	1	1	1	0	1	-28,964059	275,19601	296,23673	0
14.01.2021	17:36:06	0	0	4,29303	4,86	113,7096	1,323	76,161	3,5	1005,54	8	9,8	9,6	1	1	1	1	1	1	1	1	1	0	1	-36,363636	275,118774	288,472225	0
14.01.2021	17:36:07	0	0	2,824345	5,6985	90,0108	1,314	76,156	3,5	1005,5	8	9,8	9,7	1	1	1	1	1	1	1	1	1	0	1	-29,034531	275,164448	296,017095	0
14.01.2021	17:36:08	0	0	3,615161	5,841	107,7408	1,32	76,173	3,5	1005,66	8	9,8	9,7	1	1	1	1	1	1	1	1	1	0	1	-28,823115	275,249784	296,631928	0
14.01.2021	17:36:09	0	0	3,502208	6,33375	114,498	1,317	76,15	3,5	1005,38	8	9,8	9,6	1	1	1	1	1	1	1	1	1	0	1	-33,403805	275,316417	292,366499	0
14.01.2021	17:36:10	0	0	3,728157	6,6525	113,7024	1,317	76,174	3,5	1005,4	8	9,8	9,6	1	1	1	1	1	1	1	1	1	0	1	-33,967583	275,278313	291,622411	0
14.01.2021	17:36:11	0	0	4,405978	6,6405	109,9512	1,325	76,181	3,5	1005,5	8	9,8	9,7	1	1	1	1	1	1	1	1	1	0	1	-29,598309	275,287832	296,036723	0
14.01.2021	17:36:12	0	0	3,276259	6,5175	99,504	1,321	76,17	3,5	1005,48	8	9,8	9,6	1	1	1	1	1	1	1	1	1	0	1	-28,893587	275,154989	296,113348	0
14.01.2021	17:36:13	0	0	3,502187	6,2205	115,2072	1,318	76,177	3,5	1005,52	8	9,8	9,7	1	1	1	1	1	1	1	1	1	0	1	-28,188865	275,298943	297,498743	0
14.01.2021	17:36:14	0	0	2,711371	6,19425	104,76	1,324	76,164	3,5	1005,54	8	9,8	9,7	1	1	1	1	1	1	1	1	1	0	1	-28,400282	275,142385	296,547105	0
14.01.2021	17:36:15	0	0	2,485423	6,006	104,7168	1,319	76,155	3,5	1005,52	8	9,8	9,7	1	1	1	1	1	1	1	1	1	0	1	-35,236082	275,22446	290,099206	0
14.01.2021	17:36:16	0	0	3,502208	6,00075	101,8152	1,321	76,159	3,5	1005,5	8	9,8	9,6	1	1	1	1	1	1	1	1	1	0	1	-30,514447	275,14396	294,440381	0
14.01.2021	17:36:17	0	0	2,711371	5,8665	94,392	1,319	76,149	3,5	1005,4	8	9,8	9,7	1	1	1	1	1	1	1	1	1	0	1	-31,078224	275,162871	293,965952	0
14.01.2021	17:36:18	0	0	2,937318	5,7135	99,1476	1,317	76,147	3,5	1005,58	8	9,8	9,7	1	1	1	1	1	1	1	1	1	0	1	-32,980973	275,238701	292,421654	0
14.01.2021	17:36:19	0	0	3,502208	6,07725	100,746	1,316	76,156	3,5	1005,54	8	9,8	9,6	1	1	1	1	1	1	1	1	1	0	1	-30,725863	275,132937	294,176894	0
14.01.2021	17:36:20	0	0	4,631953	6,4065	93,6972	1,317	76,165	3,5	1005,46	8	9,8	9,6	1	1	1	1	1	1	1	1	1	0	1	-37,984496	275,267213	287,552988	0
14.01.2021	17:36:21	0	0	4,293004	6,399	98,766	1,314	76,152	3,5	1005,52	8	9,8	9,7	1	1	1	1	1	1	1	1	1	0	1	-34,954193	275,186536	290,201816	0
14.01.2021	17:36:22	0	0	4,180055	6,47175	90,8676	1,319	76,167	3,5	1005,48	8	9,8	9,6	1	1	1	1	1	1	1	1	1	0	1	-30,796335	275,314828	294,966447	0
14.01.2021	17:36:23	0	0	3,389214	6,29625	93,69	1,316	76,157	3,5	1005,62	8	9,8	9,7	1	1	1	1	1	1	1	1	1	0	1	-31,007752	275,276727	294,574739	0
14.01.2021	17:36:24	0	0	4,180055	6,03375	102,5316	1,32	76,152	3,5	1005,54	8	9,8	9,6	1	1	1	1	1	1	1	1	1	0	1	-34,108527	275,164448	290,943099	0
14.01.2021	17:36:25	0	0	4,518951	5,65725	98,082	1,318	76,147	3,5	1005,58	8	9,8	9,7	1	1	1	1	1	1	1	1	1	0	1	-31,712474	275,132937	293,190284	0
14.01.2021	17:36:26	0	0	2,485423	5,145	105,462	1,315	76,126	3,5	1005,46	8	9,8	9,7	1	1	1	1	1	1	1	1	1	0	1	-34,672304	275,291006	290,977745	0
14.01.2021	17:36:27	0	0	4,293004	4,85475	108,4824	1,318	76,126	3,5	1005,64	8	9,8	9,7	1	1	1	1	1	1	1	1	1	0	1	-33,756166	275,246617	291,683897	0
14.01.2021	17:36:28	0	0	1,920554	4,77525	98,784	1,316	76,143	3,5	1005,66	8	9,8	9,7	1	1	1	1	1	1	1	1	1	0	1	-28,964059	275,164448	296,087567	0
14.01.2021	17:36:29	0	0	4,631953	4,46325	98,7696	1,318	76,109	3,5	1005,54	8	9,8	9,6	1	1	1	1	1	1	1	1	1	0	1	-34,178999	275,14396	290,775829	0
14.01.2021	17:36:30	0	0	4,067056	4,2525	100,7568	1,319	76,127	3,5	1005,56	8	9,8	9,7	1	1	1	1	1	1	1	1	1	0	1	-32,699084	275,203909	292,539042	0
14.01.2021	17:36:31	0	0	3,163266	3,9405	101,4948	1,315	76,125	3,5	1005,62	8	9,8	9,7	1	1	1	1	1	1	1	1	1	0	1	-31,219168	275,150262	293,765431	0
14.01.2021	17:36:32	0	0	4,857902	3,9465	118,6776	1,311	76,114	3,5	1005,48	8	9,8	9,6	1	1	1	1	1	1	1	1	1	0	1	-35,16561	275,273555	290,401876	0
14.01.2021	17:36:33	0	0	4,405978	4,2615	107,4456	1,322	76,115	3,5	1005,58	8	9,8	9,7	1	1	1	1	1	1	1	1	1	0	1	-32,980973	275,202329	292,249685	0
14.01.2021	17:36:34	0	0	5,083851	4,43175	109,9764	1,316	76,108	3,5	1005,66	8	9,8	9,6	1	1	1	1	1	1	1	1	1	0	1	-31,219168	275,321185	294,573705	0
14.01.2021	17:36:35	0	0	2,937336	4,221	103,6728	1,319	76,133	3,5	1005,58	8	9,8	9,6	1	1	1	1	1	1	1	1	1	0	1	-31,712474	275,148686	293,264682	0
14.01.2021	17:36:36	0	0	2,598413	4,0245	105,1344	1,314	76,126	3,5	1005,52	8	9,8	9,6	1	1	1	1	1	1	1	1	1	0	1	-33,262861	275,316417	292,507443	0
14.01.2021	17:36:37	0	0	4,180055	4,06125	99,1296	1,316	76,117	3,5	1005,7	8	9,8	9,6	1	1	1	1	1	1	1	1	1	0	1	-30,232558	275,325954	295,582891	0
14.01.2021	17:36:38	0	0	2,711387	4,06425	104,472	1,314	76,143	3,5	1005,34	8	9,8	9,6	1	1	1	1	1	1	1	1	1	0	1	-31,782946	275,186536	293,373064	0
14.01.2021	17:36:39	0	0	2,598413	3,9465	105,5088	1,314	76,133	3,5	1005,54	8	9,8	9,6	1	1	1	1	1	1	1	1	1	0	1	-29,31642	275,142385	295,630967	0
14.01.2021	17:36:40	0	0	2,824345	3,987	93,6936	1,32	76,134	3,5	1005,42	8	9,8	9,7	1	1	1	1	1	1	1	1	1	0	1	-29,950669	275,207069	295,302396	0
14.01.2021	17:36:41	0	0	2,598397	4,0905	92,268	1,322	76,13	3,5	1005,52	8	9,8	9,7	1	1	1	1	1	1	1	1	1	0	1	-33,826638	275,169179	291,247344	0
14.01.2021	17:36:42	0	0	2,824345	4,20675	106,6608	1,321	76,119	3,5	1005,5	8	9,8	9,7	1	1	1	1	1	1	1	1	1	0	1	-30,373502	275,151838	294,618541	0
14.01.2021	17:36:43	0	0	4,857873	4,449	103,6548	1,324	76,103	3,5	1005,64	8	9,8	9,7	1	1	1	1	1	1	1	1	1	0	1	-32,135307	275,19601	293,065483	0
14.01.2021	17:36:44	0	0	4,405978	4,5945	114,1236	1,321	76,099	3,5	1005,52	8	9,8	9,7	1	1	1	1	1	1	1	1	1	0	1	-29,527837	275,161295	295,50889	0
14.01.2021	17:36:45	0	0	4,067056	4,61775	117,396	1,321	76,099	3,5	1005,46	8	9,8	9,7	1	1	1	1	1	1	1	1	1	0	1	-34,249471	275,202329	290,981186	0
14.01.2021	17:36:46	0	0	4,631953	4,48725	119,7792	1,318	76,081	3,5	1005,54	8	9,8	9,6	1	1	1	1	1	1	1	1	1	0	1	-39,464412	275,199169	285,75131	0
14.01.2021	17:36:47	0	0	3,728135	4,50825	107,0532	1,317	76,059	3,5	1005,56	8	9,8	9,7	1	1	1	1	1	1	1	1	1	0	1	-26,427061	275,173911	298,669283	0
14.01.2021	17:36:48	0	0	2,598413	4,767	118,2996	1,318	76,083	3,5	1005,76	8	9,8	9,6	1	1	1	1	1	1	1	1	1	0	1	-29,245948	275,189694	295,924985	0
14.01.2021	17:36:49	0	0	4,631925	4,61025	117,7632	1,323	76,078	3,5	1005,68	8	9,8	9,7	1	1	1	1	1	1	1	1	1	0	1	-37,13883	275,291006	288,51122	0
14.01.2021	17:36:50	0	0	2,598397	4,452	121,9968	1,325	76,078	3,5	1005,52	8	9,8	9,7	1	1	1	1	1	1	1	1	1	0	1	-30,373502	275,34027	295,509714	0
14.01.2021	17:36:51	0	0	3,954082	4,06125	114,876	1,323	76,067	3,5	1005,52	8	9,8	9,7	1	1	1	1	1	1	1	1	1	0	1	-31,853418	275,254536	293,6241	0
14.01.2021	17:36:52	0	0	4,406004	3,71025	121,2516	1,323	76,049	3,5	1005,52	8	9,8	9,6	1	1	1	1	1	1	1	1	1	0	1	-28,611698	275,154989	296,395237	0
14.01.2021	17:36:53	0	0	2,937318	3,339	82,5732	1,315	76,061	3,5	1005,34	8	9,8	9,7	1	1	1	1	1	1	1	1	1	0	1	-32,064834	275,229206	293,292893	0
14.01.2021	17:36:54	0	0	2,711387	3,28725	108,864	1,327	76,039	3,5	1005,52	8	9,8	9,6	1	1	1	1	1	1	1	1	1	0	1	-32,9105	275,159718	292,118777	0
14.01.2021	17:36:55	0	0	3,050311	3,3645	110,3292	1,322	76,019	3,5	1005,4	8	9,8	9,6	1	1	1	1	1	1	1	1	1	0	1	-32,699084	275,19601	292,501705	0
14.01.2021	17:36:56	0	0	2,598413	3,4125	119,0916	1,324	76,037	3,5	1005,48	8	9,8	9,6	1	1	1	1	1	1	1	1	1	0	1	-29,31642	275,289419	296,32612	0
14.01.2021	17:36:57	0	0	4,631925	3,11775	105,1164	1,326	76,029	3,5	1005,56	8	9,8	9,7	1	1	1	1	1	1	1	1	1	0	1	-31,430585	275,153413	293,568904	0
14.01.2021	17:36:58	0	0	4,631953	3,387	113,4072	1,321	76,019	3,5	1005,54	8	9,8	9,6	1	1	1	1	1	1	1	1	1	0	1	-31,712474	275,218134	293,592905	0
14.01.2021	17:36:59	0	0	4,18003	4,10775	111,5064	1,316	76,013	3,5	1005,5	8	9,8	9,7	1	1	1	1	1	1	1	1	1	0	1	-27,413672	275,319595	298,371678	0
14.01.2021	17:37:00	0	0	3,954106	4,92225	116,6688	1,323	76,007	3,5	1005,6	8	9,8	9,6	1	1	1	1	1	1	1	1	1	0	1	-34,178999	275,199169	291,036722	0
14.01.2021	17:37:01	0	0	3,728157	5,148	115,1712	1,321	75,995	3,5	1005,36	8	9,8	9,6	1	1	1	1	1	1	1	1	1	0	1	-33,262861	275,313239	292,492401	0
14.01.2021	17:37:02	0	0	3,728157	5,148	115,1712	1,321	75,995	3,5	1005,36	8	9,8	9,6	1	1	1	1	1	1	1	1	1	0	1	-33,262861	275,313239	292,492401	0
14.01.2021	17:37:03	0	0	2,146515	4,86225	111,1356	1,32	75,99	3,5	1005,58	8	9,8	9,6	1	1	1	1	1	1	1	1	1	0	1	-31,007752	275,216553	294,290151	0
14.01.2021	17:37:04	0	0	4,293004	4,392	109,9908	1,327	75,999	3,5	1005,52	8	9,8	9,7	1	1	1	1	1	1	1	1	1	0	1	-31,007752	275,161295	294,028974	0
14.01.2021	17:37:05	0	0	4,29303	4,509	99,8964	1,326	75,983	3,5	1005,56	8	9,8	9,6	1	1	1	1	1	1	1	1	1	0	1	-33,121917	275,147111	291,847795	0
14.01.2021	17:37:06	0	0	2,711371	4,491	104,418	1,324	75,991	3,5	1005,54	8	9,8	9,7	1	1	1	1	1	1	1	1	1	0	1	-27,343199	275,252952	298,126826	0
14.01.2021	17:37:07	0	0	2,598397	4,57575	89,7336	1,327	75,978	3,5	1005,44	8	9,8	9,7	1	1	1	1	1	1	1	1	1	0	1	-29,31642	275,148686	295,660735	0
14.01.2021	17:37:08	0	0	2,485423	4,83825	97,704	1,329	75,986	3,5	1005,54	8	9,8	9,7	1	1	1	1	1	1	1	1	1	0	1	-32,769556	275,325954	293,045893	0
14.01.2021	17:37:09	0	0	2,711387	4,7715	105,1416	1,323	75,972	3,5	1005,42	8	9,8	9,6	1	1	1	1	1	1	1	1	1	0	1	-29,527837	275,275141	296,047151	0
14.01.2021	17:37:10	0	0	3,615183	4,611	97,6896	1,32	75,989	3,5	1005,46	8	9,8	9,6	1	1	1	1	1	1	1	1	1	0	1	-33,615222	275,324365	292,192701	0
14.01.2021	17:37:11	0	0	4,631953	4,611	93,7296	1,327	75,983	3,5	1005,44	8	9,8	9,6	1	1	1	1	1	1	1	1	1	0	1	-33,192389	275,25612	292,292622	0
14.01.2021	17:37:12	0	0	2,937318	4,38225	97,3044	1,328	75,994	3,5	1005,5	8	9,8	9,7	1	1	1	1	1	1	1	1	1	0	1	-36,081748	275,318006	289,696079	0
14.01.2021	17:37:13	0	0	3,050292	4,30875	101,8188	1,324	75,98	3,5	1005,54	8	9,8	9,7	1	1	1	1	1	1	1	1	1	0	1	-32,276251	275,173911	292,820093	0
14.01.2021	17:37:14	0	0	4,631925	4,50075	96,2892	1,328	75,978	3,5	1005,48	8	9,8	9,7	1	1	1	1	1	1	1	1	1	0	1	-30,655391	275,271969	294,904593	0
14.01.2021	17:37:15	0	0	2,485438	4,83525	109,2204	1,318	75,996	3,5	1005,54	8	9,8	9,6	1	1	1	1	1	1	1	1	1	0	1	-30,655391	275,310061	295,084831	0
14.01.2021	17:37:16	0	0	4,293004	4,41675	107,4456	1,325	75,98	3,5	1005,44	8	9,8	9,7	1	1	1	1	1	1	1	1	1	0	1	-30,655391	275,14396	294,299437	0
14.01.2021	17:37:17	0	0	2,146502	4,386	98,46	1,329	75,977	3,5	1005,52	8	9,8	9,7	1	1	1	1	1	1	1	1	1	0	1	-35,729387	275,254536	289,748131	0
14.01.2021	17:37:18	0	0	4,518951	4,64175	91,1628	1,329	75,972	3,5	1005,46	8	9,8	9,7	1	1	1	1	1	1	1	1	1	0	1	-28,752643	275,154989	296,254292	0
14.01.2021	17:37:19	0	0	3,841109	4,725	89,3412	1,323	75,956	3,5	1005,5	8	9,8	9,7	1	1	1	1	1	1	1	1	1	0	1	-31,289641	275,327545	294,533335	0
14.01.2021	17:37:20	0	0	3,276259	4,6005	95,4972	1,321	75,959	3,5	1005,5	8	9,8	9,6	1	1	1	1	1	1	1	1	1	0	1	-29,386892	275,284658	296,233124	0
14.01.2021	17:37:21	0	0	3,841132	4,17375	91,89	1,321	75,958	3,5	1005,34	8	9,8	9,6	1	1	1	1	1	1	1	1	1	0	1	-34,319944	275,14396	290,634885	0
14.01.2021	17:37:22	0	0	3,615161	3,92625	103,6476	1,321	76,003	3,5	1005,52	8	9,8	9,7	1	1	1	1	1	1	1	1	1	0	1	-31,782946	275,226042	293,559821	0
14.01.2021	17:37:23	0	0	4,405978	3,89025	95,8356	1,326	75,948	3,5	1005,28	8	9,8	9,7	1	1	1	1	1	1	1	1	1	0	1	-33,192389	275,325954	292,62306	0
14.01.2021	17:37:24	0	0	4,518979	4,02075	102,1644	1,324	75,93	3,5	1005,48	8	9,8	9,6	1	1	1	1	1	1	1	1	1	0	1	-34,601832	275,308472	291,130872	0
14.01.2021	17:37:25	0	0	3,841109	4,2765	98,7408	1,328	75,949	3,5	1005,64	8	9,8	9,7	1	1	1	1	1	1	1	1	1	0	1	-33,756166	275,226042	291,5866	0
14.01.2021	17:37:26	0	0	4,406004	4,22775	105,1632	1,324	75,936	3,5	1005,62	7,8	9,8	9,6	1	1	1	1	1	1	1	1	1	0	1	-33,262861	275,330725	292,57517	0
14.01.2021	17:37:27	0	0	3,163266	4,07475	100,35	1,33	75,923	3,5	1005,38	8	9,8	9,7	1	1	1	1	1	1	1	1	1	0	1	-34,390416	275,221297	290,929916	0
14.01.2021	17:37:28	0	0	2,937336	3,87	89,7804	1,332	75,931	3,5	1005,5	8	9,8	9,6	1	1	1	1	1	1	1	1	1	0	1	-30,655391	275,154989	294,351544	0
14.01.2021	17:37:29	0	0	4,518951	3,74475	98,7552	1,329	75,916	3,5	1005,52	8	9,8	9,7	1	1	1	1	1	1	1	1	1	0	1	-34,178999	275,308472	291,553705	0
14.01.2021	17:37:30	0	0	4,18003	3,762	117,0396	1,323	75,921	3,5	1005,48	8	9,8	9,7	1	1	1	1	1	1	1	1	1	0	1	-28,611698	275,321185	297,181175	0
14.01.2021	17:37:31	0	0	3,163285	3,72	115,9668	1,331	75,919	3,5	1005,56	7,8	9,8	9,6	1	1	1	1	1	1	1	1	1	0	1	-32,064834	275,156565	292,949547	0
14.01.2021	17:37:32	0	0	3,050311	3,6465	113,3928	1,326	75,912	3,5	1005,46	8	9,8	9,6	1	1	1	1	1	1	1	1	1	0	1	-34,390416	275,205489	290,85518	0
14.01.2021	17:37:33	0	0	2,485438	3,483	107,0424	1,334	75,917	3,5	1005,64	8	9,8	9,6	1	1	1	1	1	1	1	1	1	0	1	-28,682171	275,142385	296,265217	0
14.01.2021	17:37:34	0	0	2,937318	3,30825	83,7252	1,329	75,924	3,5	1005,54	8	9,8	9,7	1	1	1	1	1	1	1	1	1	0	1	-29,386892	275,21181	295,888589	0
14.01.2021	17:37:35	0	0	2,372449	3,27975	91,1448	1,331	75,93	3,5	1005,6	8	9,8	9,7	1	1	1	1	1	1	1	1	1	0	1	-31,501057	275,327545	294,321918	0
14.01.2021	17:37:36	0	0	3,954106	3,2265	88,1784	1,331	75,92	3,5	1005,42	8	9,8	9,6	1	1	1	1	1	1	1	1	1	0	1	-34,742777	275,214972	290,547652	0
14.01.2021	17:37:37	0	0	4,18003	3,294	101,0952	1,33	75,901	3,5	1005,6	8	9,8	9,7	1	1	1	1	1	1	1	1	1	0	1	-33,474278	275,154989	291,532657	0
14.01.2021	17:37:38	0	0	3,615161	3,408	96,5952	1,33	75,915	3,5	1005,58	8	9,8	9,7	1	1	1	1	1	1	1	1	1	0	1	-30,796335	275,178645	294,322378	0
14.01.2021	17:37:39	0	0	4,067081	3,68175	86,9544	1,333	75,904	3,5	1005,44	8	9,8	9,6	1	1	1	1	1	1	1	1	1	0	1	-31,360113	275,161295	293,676614	0
14.01.2021	17:37:40	0	0	3,163285	4,22625	79,7688	1,332	75,903	3,5	1005,48	8	9,8	9,6	1	1	1	1	1	1	1	1	1	0	1	-39,323467	275,180223	285,802704	0
14.01.2021	17:37:41	0	0	3,841109	4,36575	84,7764	1,328	75,891	3,5	1005,62	8	9,8	9,7	1	1	1	1	1	1	1	1	1	0	1	-29,386892	275,283072	296,225617	0
14.01.2021	17:37:42	0	0	4,857902	4,7535	83,7288	1,335	75,891	3,5	1005,6	8	9,8	9,6	1	1	1	1	1	1	1	1	1	0	1	-33,756166	275,147111	291,213546	0
14.01.2021	17:37:43	0	0	2,824362	4,65675	85,8996	1,33	75,885	3,5	1005,66	8	9,8	9,6	1	1	1	1	1	1	1	1	1	0	1	-28,32981	275,216553	296,968093	0
14.01.2021	17:37:44	0	0	4,18003	4,4295	93,708	1,327	75,901	3,5	1005,56	8	9,8	9,7	1	1	1	1	1	1	1	1	1	0	1	-32,55814	275,329135	293,272363	0
14.01.2021	17:37:45	0	0	3,27624	4,2135	81,1944	1,332	75,884	3,5	1005,54	8	9,8	9,7	1	1	1	1	1	1	1	1	1	0	1	-37,13883	275,189694	288,032103	0
14.01.2021	17:37:46	0	0	4,18003	4,0005	90	1,334	75,892	3,5	1005,52	8	9,8	9,7	1	1	1	1	1	1	1	1	1	0	1	-33,051445	275,249784	292,403598	0
14.01.2021	17:37:47	0	0	3,502208	3,906	97,7076	1,331	75,888	3,5	1005,54	8	9,8	9,6	1	1	1	1	1	1	1	1	1	0	1	-34,460888	275,329135	291,369615	0
14.01.2021	17:37:48	0	0	3,27624	3,93525	97,3044	1,332	75,887	3,5	1005,64	8	9,8	9,7	1	1	1	1	1	1	1	1	1	0	1	-34,038055	275,200749	291,185134	0
14.01.2021	17:37:49	0	0	3,615183	3,92775	91,5048	1,33	75,887	3,5	1005,58	8	9,8	9,6	1	1	1	1	1	1	1	1	1	0	1	-33,615222	275,150262	291,369377	0
14.01.2021	17:37:50	0	0	3,954106	3,85875	91,1484	1,333	75,884	3,5	1005,64	8	9,8	9,6	1	1	1	1	1	1	1	1	1	0	1	-29,457364	275,283072	296,155145	0
14.01.2021	17:37:51	0	0	4,067081	3,684	95,8428	1,332	75,89	3,5	1005,6	8	9,8	9,6	1	1	1	1	1	1	1	1	1	0	1	-37,77308	275,14396	287,181749	0
14.01.2021	17:37:52	0	0	4,857902	3,72	104,0724	1,335	75,868	3,5	1005,52	8	9,8	9,6	1	1	1	1	1	1	1	1	1	0	1	-33,54475	275,276727	292,037741	0
14.01.2021	17:37:53	0	0	4,180055	4,28625	106,6896	1,329	75,866	3,5	1005,52	8	9,8	9,6	1	1	1	1	1	1	1	1	1	0	1	-29,527837	275,161295	295,50889	0
14.01.2021	17:37:54	0	0	4,857873	4,90575	109,5948	1,342	75,882	3,5	1005,62	8	9,8	9,7	1	1	1	1	1	1	1	1	1	0	1	-32,417195	275,324365	293,390727	0
14.01.2021	17:37:55	0	0	3,27624	5,148	113,7312	1,334	75,881	3,5	1005,7	8	9,8	9,7	1	1	1	1	1	1	1	1	1	0	1	-30,232558	275,194431	294,960766	0
14.01.2021	17:37:56	0	0	3,27624	5,55225	101,7936	1,334	75,896	3,5	1005,6	8	9,8	9,7	1	1	1	1	1	1	1	1	1	0	1	-34,249471	275,29418	291,4156	0
14.01.2021	17:37:57	0	0	2,824345	5,6715	105,1128	1,336	75,927	3,5	1005,52	8	9,8	9,7	1	1	1	1	1	1	1	1	1	0	1	-31,360113	275,268798	294,184871	0
14.01.2021	17:37:58	0	0	4,744899	5,83275	91,1448	1,334	75,9	3,5	1005,52	8	9,8	9,7	1	1	1	1	1	1	1	1	1	0	1	-34,249471	275,142385	290,697916	0
14.01.2021	17:37:59	0	0	3,163266	5,72025	96,5916	1,33	75,888	3,5	1005,5	8	9,8	9,7	1	1	1	1	1	1	1	1	1	0	1	-33,474278	275,281485	292,130726	0
14.01.2021	17:38:00	0	0	3,954082	4,98675	97,29	1,326	75,895	3,5	1005,56	8	9,8	9,7	1	1	1	1	1	1	1	1	1	0	1	-32,417195	275,208649	292,843342	0
14.01.2021	17:38:01	0	0	3,728135	4,64175	86,9508	1,332	75,911	3,5	1005,46	8	9,8	9,7	1	1	1	1	1	1	1	1	1	0	1	-32,417195	275,208649	292,843342	0
14.01.2021	17:38:02	0	0	3,728135	4,64175	86,9508	1,332	75,911	3,5	1005,46	8	9,8	9,7	1	1	1	1	1	1	1	1	1	0	1	-35,940803	275,159718	289,088474	0
14.01.2021	17:38:03	0	0	2,937318	4,33725	80,5032	1,331	75,905	3,5	1005,48	8	9,8	9,7	1	1	1	1	1	1	1	1	1	0	1	-28,047921	275,25612	297,43709	0
14.01.2021	17:38:04	0	0	4,293004	4,2555	89,7048	1,33	75,934	3,5	1005,64	8	9,8	9,7	1	1	1	1	1	1	1	1	1	0	1	-33,121917	275,151838	291,870127	0
14.01.2021	17:38:05	0	0	4,293004	4,104	80,7048	1,33	75,918	3,5	1005,54	8	9,8	9,7	1	1	1	1	1	1	1	1	1	0	1	-36,715997	275,142385	288,23139	0
14.01.2021	17:38:06	0	0	3,841109	4,002	73,7784	1,334	75,929	3,5	1005,7	8	9,8	9,7	1	1	1	1	1	1	1	1	1	0	1	-32,417195	275,246617	293,022868	0
14.01.2021	17:38:07	0	0	2,485423	4,02675	74,142	1,335	75,946	3,5	1005,58	8	9,8	9,7	1	1	1	1	1	1	1	1	1	0	1	-31,853418	275,333906	293,999672	0
14.01.2021	17:38:08	0	0	2,824345	4,04625	91,8828	1,327	75,944	3,5	1005,52	7,9	9,8	9,7	1	1	1	1	1	1	1	1	1	0	1	-31,642001	275,203909	293,596125	0
14.01.2021	17:38:09	0	0	4,293004	3,89925	75,6	1,333	75,947	3,5	1005,6	8	9,8	9,7	1	1	1	1	1	1	1	1	1	0	1	-34,601832	275,259289	290,898168	0
14.01.2021	17:38:10	0	0	3,841132	3,672	83,7036	1,329	75,952	3,5	1005,66	8	9,8	9,6	1	1	1	1	1	1	1	1	1	0	1	-35,095137	275,335497	290,765483	0
14.01.2021	17:38:11	0	0	2,937318	3,441	83,718	1,332	75,944	3,5	1005,62	8	9,8	9,7	1	1	1	1	1	1	1	1	1	0	1	-30,162086	275,202329	295,068571	0
14.01.2021	17:38:12	0	0	3,050292	3,28125	89,3052	1,332	75,943	3,5	1005,48	8	9,8	9,7	1	1	1	1	1	1	1	1	1	0	1	-34,813249	275,297355	290,866847	0
14.01.2021	17:38:13	0	0	2,711371	3,10725	82,3428	1,334	75,949	3,5	1005,58	8	9,8	9,7	1	1	1	1	1	1	1	1	1	0	1	-35,236082	275,330725	290,601949	0
14.01.2021	17:38:14	0	0	3,389214	3,18375	90,7812	1,33	75,957	3,5	1005,52	8	9,8	9,7	1	1	1	1	1	1	1	1	1	0	1	-34,601832	275,310061	291,13839	0
14.01.2021	17:38:15	0	0	4,293004	3,1035	102,1824	1,333	75,963	3,5	1005,56	8	9,8	9,7	1	1	1	1	1	1	1	1	1	0	1	-33,403805	275,203909	291,83432	0
14.01.2021	17:38:16	0	0	2,824345	3,02475	85,2768	1,332	75,958	3,5	1005,52	8	9,8	9,7	1	1	1	1	1	1	1	1	1	0	1	-32,205779	275,332316	293,639781	0
14.01.2021	17:38:17	0	0	3,954082	2,9505	108,9108	1,328	75,954	3,5	1005,62	8	9,8	9,7	1	1	1	1	1	1	1	1	1	0	1	-29,739253	275,24345	295,685833	0
14.01.2021	17:38:18	0	0	4,18003	3,1245	91,5228	1,333	75,949	3,5	1005,42	8	9,8	9,7	1	1	1	1	1	1	1	1	1	0	1	-33,967583	275,346636	291,945771	0
14.01.2021	17:38:19	0	0	4,293004	3,3495	96,9516	1,332	75,941	3,5	1005,64	8	9,8	9,7	1	1	1	1	1	1	1	1	1	0	1	-34,601832	275,305295	291,115837	0
14.01.2021	17:38:20	0	0	3,841109	3,48075	95,8536	1,33	75,953	3,5	1005,52	8	9,8	9,7	1	1	1	1	1	1	1	1	1	0	1	-29,739253	275,264043	295,783235	0
14.01.2021	17:38:21	0	0	3,841109	3,6825	100,7316	1,33	75,947	3,5	1005,54	7,8	9,8	9,7	1	1	1	1	1	1	1	1	1	0	1	-31,430585	275,162871	293,613591	0
14.01.2021	17:38:22	0	0	4,293004	3,7485	99,1476	1,33	75,94	3,5	1005,52	8	9,8	9,7	1	1	1	1	1	1	1	1	1	0	1	-28,541226	275,153413	296,458263	0
14.01.2021	17:38:23	0	0	3,389214	3,75375	101,1708	1,333	75,948	3,5	1005,54	8	9,8	9,7	1	1	1	1	1	1	1	1	1	0	1	-32,417195	275,24345	293,007891	0
14.01.2021	17:38:24	0	0	4,405978	3,732	98,7876	1,334	75,928	3,5	1005,64	8	9,8	9,7	1	1	1	1	1	1	1	1	1	0	1	-33,826638	275,170756	291,254797	0
14.01.2021	17:38:25	0	0	2,711371	3,804	97,3188	1,33	75,943	3,5	1005,54	8	9,8	9,7	1	1	1	1	1	1	1	1	1	0	1	-31,078224	275,335497	294,782396	0
14.01.2021	17:38:26	0	0	4,518951	3,7755	98,0784	1,327	75,947	3,5	1005,58	8	9,8	9,7	1	1	1	1	1	1	1	1	1	0	1	-33,54475	275,205489	291,700846	0
14.01.2021	17:38:27	0	0	2,598397	3,804	103,68	1,328	75,935	3,5	1005,56	8	9,8	9,7	1	1	1	1	1	1	1	1	1	0	1	-41,36716	275,316417	284,403144	0
14.01.2021	17:38:28	0	0	4,067056	4,731	109,2168	1,331	76,003	3,5	1005,62	8	9,8	9,7	1	1	1	1	1	1	1	1	1	0	1	-31,219168	275,156565	293,795213	0
14.01.2021	17:38:29	0	0	3,163266	5,57925	109,9872	1,329	75,959	3,5	1005,54	8	9,8	9,7	1	1	1	1	1	1	1	1	1	0	1	-33,192389	275,166025	291,866689	0
14.01.2021	17:38:30	0	0	4,631953	6,33675	102,942	1,337	75,949	3,5	1005,62	8	9,8	9,6	1	1	1	1	1	1	1	1	1	0	1	-31,712474	275,170756	293,368962	0
14.01.2021	17:38:31	0	0	4,18003	6,36675	113,0004	1,33	75,925	3,5	1005,66	8	9,8	9,7	1	1	1	1	1	1	1	1	1	0	1	-37,632135	275,318006	288,145691	0
14.01.2021	17:38:32	0	0	3,27624	6,2025	104,436	1,332	75,946	3,5	1005,56	8	9,8	9,7	1	1	1	1	1	1	1	1	1	0	1	-33,474278	275,267213	292,063207	0
14.01.2021	17:38:33	0	0	2,485423	6,4215	116,3448	1,334	75,951	3,5	1005,58	8	9,8	9,7	1	1	1	1	1	1	1	1	1	0	1	-26,990839	275,177067	298,120418	0
14.01.2021	17:38:34	0	0	3,728135	6,30075	110,0052	1,332	75,957	3,5	1005,52	8	9,8	9,7	1	1	1	1	1	1	1	1	1	0	1	-37,561663	275,180223	287,564508	0
14.01.2021	17:38:35	0	0	3,27624	6,15525	110,664	1,331	75,946	3,5	1005,56	8	9,8	9,7	1	1	1	1	1	1	1	1	1	0	1	-34,813249	275,207069	290,439817	0
14.01.2021	17:38:36	0	0	3,502187	6,88575	115,2252	1,327	75,965	3,5	1005,64	8	9,8	9,7	1	1	1	1	1	1	1	1	1	0	1	-33,615222	275,337088	292,252929	0
14.01.2021	17:38:37	0	0	2,259476	7,0095	108,9	1,327	75,97	3,5	1005,56	8	9,8	9,7	1	1	1	1	1	1	1	1	1	0	1	-27,766032	275,21181	297,509449	0
14.01.2021	17:38:38	0	0	3,502187	6,98325	107,748	1,333	75,96	3,5	1005,5	8	9,8	9,7	1	1	1	1	1	1	1	1	1	0	1	-38,054968	275,325954	287,76048	0
14.01.2021	17:38:39	0	0	2,598397	6,79725	113,7528	1,337	75,972	3,5	1005,64	8	9,8	9,7	1	1	1	1	1	1	1	1	1	0	1	-33,685694	275,319595	292,099655	0
14.01.2021	17:38:40	0	0	2,824345	6,837	108,5292	1,33	75,962	3,5	1005,48	8	9,8	9,7	1	1	1	1	1	1	1	1	1	0	1	-30,021142	275,188115	295,142329	0
14.01.2021	17:38:41	0	0	2,259476	6,86625	114,1056	1,333	75,979	3,5	1005,5	8	9,8	9,7	1	1	1	1	1	1	1	1	1	0	1	-32,769556	275,192852	292,416304	0
14.01.2021	17:38:42	0	0	2,824345	6,45825	109,3068	1,331	75,958	3,5	1005,44	8	9,8	9,7	1	1	1	1	1	1	1	1	1	0	1	-31,994362	275,202329	293,236295	0
14.01.2021	17:38:43	0	0	3,163266	6,2655	124,2864	1,329	75,94	3,5	1005,58	8	9,8	9,7	1	1	1	1	1	1	1	1	1	0	1	-28,32981	275,276727	297,252681	0
14.01.2021	17:38:44	0	0	5,08382	6,366	108,108	1,332	75,951	3,5	1005,54	8	9,8	9,7	1	1	1	1	1	1	1	1	1	0	1	-34,53136	275,335497	291,32926	0
14.01.2021	17:38:45	0	0	4,067056	7,008	107,712	1,327	75,942	3,5	1005,48	8	9,8	9,7	1	1	1	1	1	1	1	1	1	0	1	-33,615222	275,298943	292,072387	0
14.01.2021	17:38:46	0	0	3,27624	7,39125	113,4468	1,323	75,953	3,5	1005,44	8	9,8	9,7	1	1	1	1	1	1	1	1	1	0	1	-29,105004	275,178645	296,01371	0
14.01.2021	17:38:47	0	0	3,27624	7,31025	112,6404	1,327	75,944	3,5	1005,56	8	9,8	9,7	1	1	1	1	1	1	1	1	1	0	1	-30,232558	275,173911	294,863786	0
14.01.2021	17:38:48	0	0	3,050292	7,19175	107,424	1,326	75,953	3,5	1005,62	8	9,8	9,7	1	1	1	1	1	1	1	1	1	0	1	-31,853418	275,22446	293,48187	0
14.01.2021	17:38:49	0	0	3,389214	6,77925	103,6476	1,33	75,931	3,5	1005,54	8	9,8	9,7	1	1	1	1	1	1	1	1	1	0	1	-32,276251	275,178645	292,842462	0
14.01.2021	17:38:50	0	0	2,711371	6,588	99,1332	1,331	75,956	3,5	1005,48	8	9,8	9,7	1	1	1	1	1	1	1	1	1	0	1	-39,112051	275,175489	285,991749	0
14.01.2021	17:38:51	0	0	2,824345	5,97825	98,4492	1,335	75,949	3,5	1005,56	8	9,8	9,7	1	1	1	1	1	1	1	1	1	0	1	-29,386892	275,262458	296,128099	0
14.01.2021	17:38:52	0	0	3,954082	5,466	99,1656	1,334	75,942	3,5	1005,56	8	9,8	9,7	1	1	1	1	1	1	1	1	1	0	1	-30,091614	275,192852	295,094246	0
14.01.2021	17:38:53	0	0	4,405978	5,41725	112,3344	1,333	75,953	3,5	1005,68	8	9,8	9,7	1	1	1	1	1	1	1	1	1	0	1	-29,739253	275,327545	296,083722	0
14.01.2021	17:38:54	0	0	3,841109	5,40825	110,6532	1,338	75,939	3,5	1005,48	8	9,8	9,7	1	1	1	1	1	1	1	1	1	0	1	-31,712474	275,241867	293,705125	0
14.01.2021	17:38:55	0	0	4,067056	5,337	111,0384	1,327	75,934	3,5	1005,62	8	9,8	9,7	1	1	1	1	1	1	1	1	1	0	1	-29,809725	275,338679	296,065958	0
14.01.2021	17:38:56	0	0	3,502187	5,58375	113,0256	1,331	75,933	3,5	1005,52	8	9,8	9,7	1	1	1	1	1	1	1	1	1	0	1	-31,360113	275,164448	293,691514	0
14.01.2021	17:38:57	0	0	2,824345	5,8515	108,1404	1,331	75,922	3,5	1005,52	8	9,8	9,7	1	1	1	1	1	1	1	1	1	0	1	-35,658915	275,22446	289,676373	0
14.01.2021	17:38:58	0	0	3,050292	5,868	105,5088	1,33	75,914	3,5	1005,46	8	9,8	9,7	1	1	1	1	1	1	1	1	1	0	1	-31,007752	275,353003	294,935753	0
14.01.2021	17:38:59	0	0	4,518951	6,06675	113,022	1,335	75,918	3,5	1005,52	8	9,8	9,7	1	1	1	1	1	1	1	1	1	0	1	-35,447498	275,221297	289,872833	0
14.01.2021	17:39:00	0	0	4,067081	6,936	101,8188	1,333	75,918	3,5	1005,48	8	9,8	9,6	1	1	1	1	1	1	1	1	1	0	1	-33,192389	275,318006	292,585437	0
14.01.2021	17:39:01	0	0	4,744899	6,891	110,376	1,334	75,913	3,5	1005,64	8	9,8	9,7	1	1	1	1	1	1	1	1	1	0	1	-33,192389	275,318006	292,585437	0
14.01.2021	17:39:02	0	0	4,744899	6,891	110,376	1,334	75,913	3,5	1005,64	8	9,8	9,7	1	1	1	1	1	1	1	1	1	0	1	-31,994362	275,229206	293,363365	0
14.01.2021	17:39:03	0	0	3,728135	6,9435	106,3152	1,329	75,924	3,5	1005,64	8	9,8	9,7	1	1	1	1	1	1	1	1	1	0	1	-34,319944	275,364152	291,676353	0
14.01.2021	17:39:04	0	0	3,841109	6,408	111,06	1,338	75,916	3,5	1005,7	8	9,8	9,7	1	1	1	1	1	1	1	1	1	0	1	-30,162086	275,308472	295,570618	0
14.01.2021	17:39:05	0	0	4,405978	6,1245	115,2468	1,325	75,908	3,5	1005,5	8	9,8	9,7	1	1	1	1	1	1	1	1	1	0	1	-30,514447	275,29418	295,150624	0
14.01.2021	17:39:06	0	0	3,728135	5,931	96,6096	1,328	75,918	3,5	1005,46	8	9,8	9,7	1	1	1	1	1	1	1	1	1	0	1	-32,487667	275,348227	293,433223	0
14.01.2021	17:39:07	0	0	2,937318	5,64375	97,3404	1,325	75,917	3,5	1005,54	7,8	9,8	9,7	1	1	1	1	1	1	1	1	1	0	1	-35,236082	275,333906	290,617008	0
14.01.2021	17:39:08	0	0	4,518951	6,222	89,7336	1,329	75,915	3,5	1005,54	8	9,8	9,7	1	1	1	1	1	1	1	1	1	0	1	-34,742777	275,229206	290,614951	0
14.01.2021	17:39:09	0	0	2,711371	6,477	91,1844	1,326	75,913	3,5	1005,62	8	9,9	9,7	1	1	1	1	1	1	1	1	1	0	1	-36,081748	275,188115	289,081723	0
14.01.2021	17:39:10	0	0	4,970847	6,3525	92,268	1,329	75,927	3,5	1005,52	8	9,8	9,7	1	1	1	1	1	1	1	1	1	0	1	-34,954193	275,303707	290,75596	0
14.01.2021	17:39:11	0	0	2,824345	6,03075	104,0796	1,322	75,924	3,5	1005,62	8	9,8	9,7	1	1	1	1	1	1	1	1	1	0	1	-33,897111	275,233953	291,483063	0
14.01.2021	17:39:12	0	0	4,631925	5,60775	100,3644	1,323	75,934	3,5	1005,5	8	9,8	9,7	1	1	1	1	1	1	1	1	1	0	1	-31,712474	275,362559	294,276279	0
14.01.2021	17:39:13	0	0	3,502187	5,14725	111,0384	1,327	75,95	3,5	1005,56	8	9,9	9,7	1	1	1	1	1	1	1	1	1	0	1	-29,809725	275,373713	296,231851	0
14.01.2021	17:39:14	0	0	3,389214	5,3565	127,602	1,328	75,937	3,5	1005,38	8	9,8	9,7	1	1	1	1	1	1	1	1	1	0	1	-32,487667	275,262458	293,027324	0
14.01.2021	17:39:15	0	0	3,27624	5,5485	136,5588	1,328	75,973	3,5	1005,52	8	9,8	9,7	1	1	1	1	1	1	1	1	1	0	1	-33,121917	275,192852	292,063943	0
14.01.2021	17:39:16	0	0	2,711371	4,872	128,6892	1,327	75,973	3,5	1005,56	8	9,8	9,7	1	1	1	1	1	1	1	1	1	0	1	-32,417195	275,327545	293,40578	0
14.01.2021	17:39:17	0	0	3,502187	4,32975	101,5092	1,33	75,968	3,5	1005,42	8	9,8	9,7	1	1	1	1	1	1	1	1	1	0	1	-33,403805	275,316417	292,366499	0
14.01.2021	17:39:18	0	0	3,502187	4,53075	119,448	1,331	75,997	3,5	1005,56	8	9,8	9,7	1	1	1	1	1	1	1	1	1	0	1	-32,699084	275,368932	293,319849	0
14.01.2021	17:39:19	0	0	3,728135	4,878	115,956	1,329	76,001	3,5	1005,54	8	9,8	9,7	1	1	1	1	1	1	1	1	1	0	1	-33,051445	275,322775	292,748953	0
14.01.2021	17:39:20	0	0	4,293004	5,6355	117,792	1,33	76,016	3,5	1005,66	8	9,8	9,7	1	1	1	1	1	1	1	1	1	0	1	-36,15222	275,306884	289,572966	0
14.01.2021	17:39:21	0	0	4,631925	6,05175	121,2876	1,331	76,026	3,5	1005,6	8	9,8	9,7	1	1	1	1	1	1	1	1	1	0	1	-31,289641	275,325954	294,525808	0
14.01.2021	17:39:22	0	0	4,18003	5,69625	119,4732	1,331	76,031	3,5	1005,64	8	9,8	9,7	1	1	1	1	1	1	1	1	1	0	1	-33,54475	275,364152	292,451546	0
14.01.2021	17:39:23	0	0	4,405978	5,5965	102,5568	1,333	76,022	3,5	1005,58	8	9,8	9,7	1	1	1	1	1	1	1	1	1	0	1	-31,360113	275,229206	293,997615	0
14.01.2021	17:39:24	0	0	2,824345	5,6205	115,1784	1,327	76,021	3,5	1005,56	8	9,8	9,7	1	1	1	1	1	1	1	1	1	0	1	-31,148696	275,302119	294,553941	0
14.01.2021	17:39:25	0	0	3,728135	5,655	112,2552	1,326	76,039	3,5	1005,5	8	9,8	9,7	1	1	1	1	1	1	1	1	1	0	1	-35,236082	275,191272	289,942314	0
14.01.2021	17:39:26	0	0	3,050292	5,75775	115,5564	1,331	76,03	3,5	1005,52	8	10	9,7	1	1	1	1	1	1	1	1	1	0	1	-32,55814	275,325954	293,257309	0
14.01.2021	17:39:27	0	0	3,954082	5,724	112,2912	1,337	76,04	3,5	1005,66	8	9,8	9,7	1	1	1	1	1	1	1	1	1	0	1	-31,360113	275,360966	294,621096	0
14.01.2021	17:39:28	0	0	3,728135	5,54325	111,096	1,329	76,044	3,5	1005,54	8	9,8	9,7	1	1	1	1	1	1	1	1	1	0	1	-38,195913	275,368932	287,82302	0
14.01.2021	17:39:29	0	0	4,405978	5,208	116,046	1,331	76,021	3,5	1005,48	8	9,8	9,7	1	1	1	1	1	1	1	1	1	0	1	-38,12544	275,306884	287,599746	0
14.01.2021	17:39:30	0	0	2,937318	4,8495	111,4164	1,334	76,025	3,5	1005,42	8	9,8	9,7	1	1	1	1	1	1	1	1	1	0	1	-29,880197	275,200749	295,342992	0
14.01.2021	17:39:31	0	0	2,824345	4,725	109,2204	1,326	76,024	3,5	1005,56	8	9,8	9,7	1	1	1	1	1	1	1	1	1	0	1	-33,051445	275,362559	292,937308	0
14.01.2021	17:39:32	0	0	2,824345	4,9335	134,244	1,323	76,016	3,5	1005,5	8	9,8	9,7	1	1	1	1	1	1	1	1	1	0	1	-31,289641	275,324365	294,518282	0
14.01.2021	17:39:33	0	0	4,405978	5,6475	118,3608	1,335	76,029	3,5	1005,64	8	9,8	9,7	1	1	1	1	1	1	1	1	1	0	1	-34,249471	275,37212	291,784556	0
14.01.2021	17:39:34	0	0	3,502187	6,35325	118,7244	1,326	76,023	3,5	1005,66	8	9,8	9,7	1	1	1	1	1	1	1	1	1	0	1	-33,403805	275,357781	292,56232	0
14.01.2021	17:39:35	0	0	4,18003	6,24375	124,722	1,333	76,025	3,5	1005,5	8	9,8	9,7	1	1	1	1	1	1	1	1	1	0	1	-29,457364	275,302119	296,245273	0
14.01.2021	17:39:36	0	0	2,372449	5,8005	117,81	1,335	76	3,5	1005,46	8	9,8	9,7	1	1	1	1	1	1	1	1	1	0	1	-33,474278	275,205489	291,771318	0
14.01.2021	17:39:37	0	0	3,050292	5,7825	123,0948	1,334	76,011	3,5	1005,46	8	9,8	9,7	1	1	1	1	1	1	1	1	1	0	1	-37,420719	275,186536	287,735291	0
14.01.2021	17:39:38	0	0	3,728135	5,15475	104,0436	1,334	75,986	3,5	1005,54	8	9,8	9,7	1	1	1	1	1	1	1	1	1	0	1	-31,501057	275,313239	294,254205	0
14.01.2021	17:39:39	0	0	3,27624	4,677	99,162	1,337	76,001	3,5	1005,6	8	9,8	9,7	1	1	1	1	1	1	1	1	1	0	1	-32,276251	275,199169	292,939471	0
14.01.2021	17:39:40	0	0	4,18003	4,722	90,8424	1,333	75,987	3,5	1005,5	8	9,8	9,7	1	1	1	1	1	1	1	1	1	0	1	-29,386892	275,356188	296,571692	0
14.01.2021	17:39:41	0	0	4,518951	4,7115	90,7848	1,338	75,989	3,5	1005,56	8	9,8	9,7	1	1	1	1	1	1	1	1	1	0	1	-37,843552	275,275141	287,731436	0
14.01.2021	17:39:42	0	0	4,293004	4,38825	84,06	1,339	75,988	3,5	1005,68	8	9,8	9,7	1	1	1	1	1	1	1	1	1	0	1	-34,038055	275,375307	292,01107	0
14.01.2021	17:39:43	0	0	4,293004	4,16475	86,994	1,337	75,971	3,5	1005,6	8	9,9	9,7	1	1	1	1	1	1	1	1	1	0	1	-36,856942	275,314828	288,905841	0
14.01.2021	17:39:44	0	0	4,518979	3,84375	92,9448	1,339	75,974	3,5	1005,62	8	9,8	9,6	1	1	1	1	1	1	1	1	1	0	1	-34,319944	275,19759	290,888311	0
14.01.2021	17:39:45	0	0	3,163266	3,57675	99,126	1,337	75,965	3,5	1005,44	8	9,8	9,7	1	1	1	1	1	1	1	1	1	0	1	-31,853418	275,375307	294,195707	0
14.01.2021	17:39:46	0	0	4,631925	3,2985	106,6536	1,335	75,957	3,5	1005,46	8	9,8	9,7	1	1	1	1	1	1	1	1	1	0	1	-31,782946	275,306884	293,942241	0
14.01.2021	17:39:47	0	0	3,502187	3,48375	95,5368	1,333	75,952	3,5	1005,62	8	9,8	9,7	1	1	1	1	1	1	1	1	1	0	1	-36,15222	275,368932	289,866713	0
14.01.2021	17:39:48	0	0	3,050292	3,4395	124,704	1,338	75,946	3,5	1005,6	8	9,8	9,7	1	1	1	1	1	1	1	1	1	0	1	-33,967583	275,226042	291,375184	0
14.01.2021	17:39:49	0	0	4,744899	3,447	86,9688	1,345	75,953	3,5	1005,64	8	9,8	9,7	1	1	1	1	1	1	1	1	1	0	1	-33,121917	275,322775	292,678481	0
14.01.2021	17:39:50	0	0	3,502187	3,405	95,508	1,335	75,941	3,5	1005,62	8	9,9	9,7	1	1	1	1	1	1	1	1	1	0	1	-33,685694	275,205489	291,559901	0
14.01.2021	17:39:51	0	0	4,631925	3,66	71,6076	1,338	75,943	3,5	1005,64	8	9,8	9,7	1	1	1	1	1	1	1	1	1	0	1	-34,53136	275,29418	291,133711	0
14.01.2021	17:39:52	0	0	4,518951	4,03875	95,8176	1,335	75,927	3,5	1005,54	8	9,8	9,7	1	1	1	1	1	1	1	1	1	0	1	-33,333333	275,183379	291,807755	0
14.01.2021	17:39:53	0	0	4,518951	4,6395	103,662	1,328	75,932	3,5	1005,54	8	9,8	9,7	1	1	1	1	1	1	1	1	1	0	1	-34,108527	275,216553	291,189376	0
14.01.2021	17:39:54	0	0	4,970847	5,26875	96,5952	1,34	75,932	3,5	1005,76	8	9,8	9,7	1	1	1	1	1	1	1	1	1	0	1	-33,333333	275,308472	292,399371	0
14.01.2021	17:39:55	0	0	4,518951	5,46375	98,0928	1,334	75,926	3,5	1005,56	8	9,8	9,7	1	1	1	1	1	1	1	1	1	0	1	-30,514447	275,200749	294,708742	0
14.01.2021	17:39:56	0	0	4,293004	5,5275	93,3192	1,336	75,921	3,5	1005,52	8	9,8	9,7	1	1	1	1	1	1	1	1	1	0	1	-30,93728	275,237118	294,457862	0
14.01.2021	17:39:57	0	0	2,372449	5,2905	88,902	1,339	75,915	3,5	1005,62	8	9,8	9,7	1	1	1	1	1	1	1	1	1	0	1	-33,262861	275,246617	292,177202	0
14.01.2021	17:39:58	0	0	2,937318	5,67375	88,9668	1,328	75,914	3,5	1005,58	8	9,8	9,7	1	1	1	1	1	1	1	1	1	0	1	-34,390416	275,37212	291,643611	0
14.01.2021	17:39:59	0	0	3,163266	5,77125	80,1324	1,331	75,91	3,5	1005,42	8	9,8	9,7	1	1	1	1	1	1	1	1	1	0	1	-32,205779	275,245033	293,226796	0
14.01.2021	17:40:00	0	0	1,807581	6,27525	79,4412	1,332	75,892	3,5	1005,56	8	9,8	9,7	1	1	1	1	1	1	1	1	1	0	1	-37,068358	275,251368	288,394176	0
14.01.2021	17:40:01	0	0	2,598397	6,38025	89,7084	1,343	75,909	3,5	1005,66	8	9,8	9,7	1	1	1	1	1	1	1	1	1	0	1	-35,658915	275,177067	289,452342	0
14.01.2021	17:40:02	0	0	2,598397	6,38025	89,7084	1,343	75,909	3,5	1005,66	8	9,8	9,7	1	1	1	1	1	1	1	1	1	0	1	-35,658915	275,177067	289,452342	0
14.01.2021	17:40:03	0	0	4,405978	6,13875	93,2976	1,333	75,888	3,5	1005,46	8	9,8	9,7	1	1	1	1	1	1	1	1	1	0	1	-29,034531	275,306884	296,690655	0
14.01.2021	17:40:04	0	0	2,598397	5,62425	80,1396	1,342	75,898	3,5	1005,54	8	9,8	9,7	1	1	1	1	1	1	1	1	1	0	1	-33,54475	275,192852	291,64111	0
14.01.2021	17:40:05	0	0	2,711371	5,3145	82,3608	1,341	75,897	3,5	1005,56	8	9,8	9,7	1	1	1	1	1	1	1	1	1	0	1	-36,645525	275,186536	288,510484	0
14.01.2021	17:40:06	0	0	4,293004	4,88475	88,9596	1,337	75,886	3,5	1005,6	8	9,8	9,7	1	1	1	1	1	1	1	1	1	0	1	-32,9105	275,338679	292,965183	0
14.01.2021	17:40:07	0	0	2,937318	5,07825	81,6048	1,341	75,897	3,5	1005,48	8	9,8	9,7	1	1	1	1	1	1	1	1	1	0	1	-34,53136	275,194431	290,661964	0
14.01.2021	17:40:08	0	0	3,050292	5,70075	88,5816	1,336	75,888	3,5	1005,62	8	9,8	9,7	1	1	1	1	1	1	1	1	1	0	1	-34,390416	275,218134	290,914963	0
14.01.2021	17:40:09	0	0	4,067056	5,9265	77,1228	1,338	75,89	3,5	1005,52	8	9,8	9,7	1	1	1	1	1	1	1	1	1	0	1	-32,346723	275,308472	293,385981	0
14.01.2021	17:40:10	0	0	4,18003	5,9415	84,4416	1,342	75,896	3,5	1005,52	8	9,8	9,7	1	1	1	1	1	1	1	1	1	0	1	-36,293164	275,207069	288,959902	0
14.01.2021	17:40:11	0	0	3,841132	6,15675	80,1432	1,338	75,882	3,5	1005,44	8	9,8	9,6	1	1	1	1	1	1	1	1	1	0	1	-32,699084	275,230788	292,666125	0
14.01.2021	17:40:12	0	0	4,518951	6,09225	72,3096	1,334	75,893	3,5	1005,6	8	9,8	9,7	1	1	1	1	1	1	1	1	1	0	1	-39,323467	275,226042	286,0193	0
14.01.2021	17:40:13	0	0	4,18003	6,282	77,238	1,342	75,879	3,5	1005,64	8	9,8	9,7	1	1	1	1	1	1	1	1	1	0	1	-39,957717	275,356188	286,000867	0
14.01.2021	17:40:14	0	0	3,163266	6,00525	86,9832	1,335	75,871	3,5	1005,58	8	9,8	9,7	1	1	1	1	1	1	1	1	1	0	1	-34,390416	275,306884	291,334771	0
14.01.2021	17:40:15	0	0	2,259476	5,3115	86,688	1,333	75,874	3,5	1005,36	8	9,8	9,7	1	1	1	1	1	1	1	1	1	0	1	-32,346723	275,183379	292,794366	0
14.01.2021	17:40:16	0	0	3,27624	4,86825	94,7628	1,339	75,884	3,5	1005,48	8	9,8	9,7	1	1	1	1	1	1	1	1	1	0	1	-30,584919	275,279899	295,01258	0
14.01.2021	17:40:17	0	0	2,824345	4,56225	106,6788	1,329	75,865	3,5	1005,46	8	9,8	9,7	1	1	1	1	1	1	1	1	1	0	1	-31,289641	275,2482	294,157912	0
14.01.2021	17:40:18	0	0	4,067056	4,197	117	1,339	75,888	3,5	1005,62	8	9,8	9,7	1	1	1	1	1	1	1	1	1	0	1	-34,249471	275,381685	291,829858	0
14.01.2021	17:40:19	0	0	3,163266	3,753	102,564	1,336	75,891	3,5	1005,54	8	9,8	9,7	1	1	1	1	1	1	1	1	1	0	1	-33,333333	275,335497	292,527287	0
14.01.2021	17:40:20	0	0	3,050292	3,24675	86,292	1,338	75,891	3,5	1005,58	8	9,8	9,7	1	1	1	1	1	1	1	1	1	0	1	-30,866808	275,275141	294,70818	0
14.01.2021	17:40:21	0	0	4,518951	3,0585	97,7256	1,338	75,884	3,5	1005,26	8	9,8	9,7	1	1	1	1	1	1	1	1	1	0	1	-36,856942	275,245033	288,575633	0
14.01.2021	17:40:22	0	0	4,744899	2,99325	85,1724	1,339	75,904	3,5	1005,58	8	9,8	9,7	1	1	1	1	1	1	1	1	1	0	1	-31,219168	275,207069	294,033897	0
14.01.2021	17:40:23	0	0	4,067056	3,5145	86,2884	1,338	75,918	3,5	1005,62	8	9,8	9,7	1	1	1	1	1	1	1	1	1	0	1	-31,289641	275,251368	294,172893	0
14.01.2021	17:40:24	0	0	4,857873	3,77175	91,1628	1,341	75,923	3,5	1005,58	8	9,8	9,7	1	1	1	1	1	1	1	1	1	0	1	-34,038055	275,322775	291,762343	0
14.01.2021	17:40:25	0	0	3,389214	3,8385	105,8724	1,337	75,934	3,5	1005,58	8	9,8	9,7	1	1	1	1	1	1	1	1	1	0	1	-34,460888	275,21023	290,807121	0
14.01.2021	17:40:26	0	0	4,18003	3,7095	100,7748	1,335	75,931	3,5	1005,48	8	9,8	9,7	1	1	1	1	1	1	1	1	1	0	1	-37,350247	275,324365	288,457676	0
14.01.2021	17:40:27	0	0	4,293004	3,96675	112,2912	1,343	75,949	3,5	1005,6	8	9,8	9,7	1	1	1	1	1	1	1	1	1	0	1	-33,051445	275,357781	292,91468	0
14.01.2021	17:40:28	0	0	4,857873	4,06575	115,5744	1,332	75,936	3,5	1005,56	8	9,8	9,7	1	1	1	1	1	1	1	1	1	0	1	-35,51797	275,22446	289,817317	0
14.01.2021	17:40:29	0	0	4,744871	4,35675	105,8724	1,338	75,937	3,5	1005,58	8	9,8	9,8	1	1	1	1	1	1	1	1	1	0	1	-37,350247	275,332316	288,495313	0
14.01.2021	17:40:30	0	0	4,631925	4,28175	100,746	1,335	75,928	3,5	1005,58	8	9,8	9,7	1	1	1	1	1	1	1	1	1	0	1	-38,054968	275,38009	288,016809	0
14.01.2021	17:40:31	0	0	2,711387	4,59675	99,9612	1,337	75,932	3,5	1005,68	8	9,8	9,6	1	1	1	1	1	1	1	1	1	0	1	-35,024665	275,21181	290,250816	0
14.01.2021	17:40:32	0	0	4,293004	4,82325	108,1404	1,34	75,949	3,5	1005,58	8	9,8	9,7	1	1	1	1	1	1	1	1	1	0	1	-37,279774	275,31165	288,467967	0
14.01.2021	17:40:33	0	0	2,937318	5,01675	110,0088	1,34	75,938	3,5	1005,68	8	9,8	9,7	1	1	1	1	1	1	1	1	1	0	1	-32,487667	275,219715	292,825187	0
14.01.2021	17:40:34	0	0	4,631953	4,9125	113,6916	1,344	75,929	3,5	1005,4	8	9,8	9,6	1	1	1	1	1	1	1	1	1	0	1	-35,870331	275,381685	290,208998	0
14.01.2021	17:40:35	0	0	4,18003	4,7985	108,4932	1,342	75,93	3,5	1005,6	8	9,8	9,7	1	1	1	1	1	1	1	1	1	0	1	-29,245948	275,25612	296,239063	0
14.01.2021	17:40:36	0	0	4,857873	4,80075	109,9764	1,34	75,935	3,5	1005,48	8	9,8	9,7	1	1	1	1	1	1	1	1	1	0	1	-30,443975	275,21023	294,824034	0
14.01.2021	17:40:37	0	0	3,163266	4,866	116,6472	1,337	75,914	3,5	1005,68	8	9,8	9,7	1	1	1	1	1	1	1	1	1	0	1	-29,598309	275,300531	296,096814	0
14.01.2021	17:40:38	0	0	4,293004	4,74825	115,614	1,34	75,917	3,5	1005,5	8	9,8	9,7	1	1	1	1	1	1	1	1	1	0	1	-31,430585	275,368932	294,588348	0
14.01.2021	17:40:39	0	0	4,405978	4,6665	114,8616	1,345	75,92	3,5	1005,38	8	9,8	9,7	1	1	1	1	1	1	1	1	1	0	1	-38,900634	275,391255	287,224024	0
14.01.2021	17:40:40	0	0	3,728135	4,6215	115,9308	1,351	75,91	3,5	1005,68	8	9,8	9,7	1	1	1	1	1	1	1	1	1	0	1	-33,54475	275,303707	292,165403	0
14.01.2021	17:40:41	0	0	2,485423	4,6035	101,1024	1,348	75,895	3,5	1005,5	8	9,8	9,7	1	1	1	1	1	1	1	1	1	0	1	-36,434109	275,396041	289,713224	0
14.01.2021	17:40:42	0	0	2,598397	4,6935	107,7588	1,344	75,89	3,5	1005,62	8	9,8	9,7	1	1	1	1	1	1	1	1	1	0	1	-34,390416	275,240284	291,019697	0
14.01.2021	17:40:43	0	0	4,857873	4,5945	102,9528	1,339	75,862	3,5	1005,44	8	9,8	9,7	1	1	1	1	1	1	1	1	1	0	1	-32,346723	275,284658	293,273293	0
14.01.2021	17:40:44	0	0	4,067056	4,341	95,8428	1,348	75,869	3,5	1005,64	8	9,8	9,7	1	1	1	1	1	1	1	1	1	0	1	-30,162086	275,214972	295,128342	0
14.01.2021	17:40:45	0	0	2,824345	4,06875	87,372	1,347	75,857	3,5	1005,36	8	9,8	9,7	1	1	1	1	1	1	1	1	1	0	1	-32,9105	275,402425	293,267076	0
14.01.2021	17:40:46	0	0	4,744899	3,9015	92,7432	1,339	75,841	3,5	1005,42	8	9,8	9,7	1	1	1	1	1	1	1	1	1	0	1	-36,927414	275,300531	288,767709	0
14.01.2021	17:40:47	0	0	3,163266	4,0335	94,4064	1,35	75,889	3,5	1005,62	8	9,8	9,7	1	1	1	1	1	1	1	1	1	0	1	-36,222692	275,219715	289,090163	0
14.01.2021	17:40:48	0	0	3,841109	4,02225	98,4636	1,349	75,8	3,5	1005,3	8	9,8	9,7	1	1	1	1	1	1	1	1	1	0	1	-34,883721	275,292593	290,773839	0
14.01.2021	17:40:49	0	0	3,615183	3,69675	108,1296	1,346	75,797	3,5	1005,56	8	9,8	9,6	1	1	1	1	1	1	1	1	1	0	1	-36,222692	275,23237	289,149999	0
14.01.2021	17:40:50	0	0	4,18003	3,6285	91,1628	1,343	75,793	3,5	1005,44	8	9,8	9,7	1	1	1	1	1	1	1	1	1	0	1	-32,135307	275,396041	294,012026	0
14.01.2021	17:40:51	0	0	2,824362	3,753	102,9348	1,345	75,788	3,5	1005,54	8	9,8	9,6	1	1	1	1	1	1	1	1	1	0	1	-30,796335	275,337088	295,071816	0
14.01.2021	17:40:52	0	0	2,372449	3,726	105,5052	1,353	75,772	3,5	1005,7	8	9,8	9,7	1	1	1	1	1	1	1	1	1	0	1	-34,178999	275,22446	291,156288	0
14.01.2021	17:40:53	0	0	4,067056	3,6945	107,0316	1,347	75,748	3,5	1005,7	8	9,8	9,7	1	1	1	1	1	1	1	1	1	0	1	-36,786469	275,251368	288,676064	0
14.01.2021	17:40:54	0	0	3,502187	3,68925	94,464	1,349	75,748	3,5	1005,44	8	9,8	9,7	1	1	1	1	1	1	1	1	1	0	1	-36,434109	275,367339	289,577278	0
14.01.2021	17:40:55	0	0	3,389214	3,47025	106,2864	1,34	75,739	3,5	1005,58	8	9,8	9,7	1	1	1	1	1	1	1	1	1	0	1	-35,658915	275,384874	290,435521	0
14.01.2021	17:40:56	0	0	4,18003	3,53625	109,1988	1,355	75,735	3,5	1005,54	8	9,8	9,7	1	1	1	1	1	1	1	1	1	0	1	-34,460888	275,332316	291,384672	0
14.01.2021	17:40:57	0	0	4,293004	3,7005	102,9888	1,349	75,728	3,5	1005,58	8	9,8	9,7	1	1	1	1	1	1	1	1	1	0	1	-32,769556	275,384874	293,32488	0
14.01.2021	17:40:58	0	0	3,050292	3,82575	104,0688	1,351	75,698	3,5	1005,64	8	9,8	9,7	1	1	1	1	1	1	1	1	1	0	1	-40,521494	275,218134	284,783884	0
14.01.2021	17:40:59	0	0	3,389214	3,7275	99,5328	1,346	75,706	3,5	1005,64	8	9,8	9,7	1	1	1	1	1	1	1	1	1	0	1	-31,853418	275,394446	294,286356	0
14.01.2021	17:41:00	0	0	4,518951	3,58125	93,7188	1,359	75,698	3,5	1005,68	8	9,8	9,7	1	1	1	1	1	1	1	1	1	0	1	-36,011276	275,252952	289,45875	0
14.01.2021	17:41:01	0	0	4,518951	3,58125	93,7188	1,359	75,698	3,5	1005,68	8	9,8	9,7	1	1	1	1	1	1	1	1	1	0	1	-36,011276	275,252952	289,45875	0
14.01.2021	17:41:02	0	0	4,405978	3,81075	101,8224	1,346	75,691	3,5	1005,5	8	9,8	9,7	1	1	1	1	1	1	1	1	1	0	1	-33,54475	275,375307	292,504375	0
14.01.2021	17:41:03	0	0	4,405978	3,978	83,718	1,355	75,685	3,5	1005,68	8	9,8	9,7	1	1	1	1	1	1	1	1	1	0	1	-34,742777	275,216553	290,555126	0
14.01.2021	17:41:04	0	0	4,631925	3,981	83,7324	1,354	75,679	3,5	1005,68	8	9,8	9,7	1	1	1	1	1	1	1	1	1	0	1	-33,262861	275,291006	292,387189	0
14.01.2021	17:41:05	0	0	4,518951	3,84825	84,4056	1,352	75,676	3,5	1005,72	8	9,8	9,7	1	1	1	1	1	1	1	1	1	0	1	-35,095137	275,245033	290,337437	0
14.01.2021	17:41:06	0	0	4,518979	3,90375	80,1288	1,355	75,665	3,5	1005,52	8	9,8	9,6	1	1	1	1	1	1	1	1	1	0	1	-32,205779	275,370526	293,820701	0
14.01.2021	17:41:07	0	0	3,389214	4,04325	90,792	1,354	75,671	3,5	1005,58	8	9,8	9,7	1	1	1	1	1	1	1	1	1	0	1	-36,997886	275,310061	288,742337	0
14.01.2021	17:41:08	0	0	4,631925	4,23225	93,7044	1,359	75,665	3,5	1005,66	8	9,8	9,7	1	1	1	1	1	1	1	1	1	0	1	-32,9105	275,238701	292,492126	0
14.01.2021	17:41:09	0	0	4,405978	4,12725	85,5324	1,354	75,649	3,5	1005,68	8	9,8	9,7	1	1	1	1	1	1	1	1	1	0	1	-33,474278	275,394446	292,665496	0
14.01.2021	17:41:10	0	0	4,406004	4,12125	91,1376	1,353	75,655	3,5	1005,3	8	10	9,6	1	1	1	1	1	1	1	1	1	0	1	-31,92389	275,34027	293,959326	0
14.01.2021	17:41:11	0	0	2,372449	4,107	94,086	1,355	75,66	3,5	1005,44	8	9,8	9,7	1	1	1	1	1	1	1	1	1	0	1	-31,289641	275,205489	293,955955	0
14.01.2021	17:41:12	0	0	3,502187	4,16475	89,694	1,354	75,651	3,5	1005,6	8	9,8	9,7	1	1	1	1	1	1	1	1	1	0	1	-38,75969	275,259289	286,74031	0
14.01.2021	17:41:13	0	0	2,485423	4,233	81,2268	1,356	75,644	3,5	1005,52	8	9,8	9,7	1	1	1	1	1	1	1	1	1	0	1	-31,501057	275,381685	294,578272	0
14.01.2021	17:41:14	0	0	3,615183	4,38825	90,0036	1,357	75,643	3,5	1005,64	8	9,8	9,6	1	1	1	1	1	1	1	1	1	0	1	-33,262861	275,404022	292,922278	0
14.01.2021	17:41:15	0	0	3,502187	4,4085	100,7352	1,345	75,641	3,5	1005,72	8	9,8	9,7	1	1	1	1	1	1	1	1	1	0	1	-37,279774	275,338679	288,595909	0
14.01.2021	17:41:16	0	0	4,067056	4,5105	96,2964	1,349	75,637	3,5	1005,54	8	9,8	9,7	1	1	1	1	1	1	1	1	1	0	1	-35,940803	275,402425	290,236773	0
14.01.2021	17:41:17	0	0	4,857902	4,58775	92,25	1,355	75,629	3,5	1005,46	8	9,8	9,6	1	1	1	1	1	1	1	1	1	0	1	-34,813249	275,39285	291,318967	0
14.01.2021	17:41:18	0	0	3,502187	4,104	93,3084	1,355	75,615	3,5	1005,64	8	9,8	9,7	1	1	1	1	1	1	1	1	1	0	1	-32,417195	275,313239	293,338067	0
14.01.2021	17:41:19	0	0	3,502187	3,77925	78,0336	1,356	75,637	3,5	1005,62	8	9,8	9,7	1	1	1	1	1	1	1	1	1	0	1	-34,672304	275,400829	291,49771	0
14.01.2021	17:41:20	0	0	4,631925	3,7185	81,9828	1,353	75,63	3,5	1005,68	8	9,8	9,7	1	1	1	1	1	1	1	1	1	0	1	-33,54475	275,376902	292,511925	0
14.01.2021	17:41:21	0	0	4,293004	3,6825	76,8276	1,354	75,626	3,5	1005,6	8	10	9,7	1	1	1	1	1	1	1	1	1	0	1	-34,672304	275,221297	290,648027	0
14.01.2021	17:41:22	0	0	4,744899	3,61575	90,4032	1,357	75,623	3,5	1005,44	8	9,8	9,7	1	1	1	1	1	1	1	1	1	0	1	-32,276251	275,368932	293,742682	0
14.01.2021	17:41:23	0	0	2,598397	3,5805	118,6776	1,354	75,628	3,5	1005,66	8	9,8	9,7	1	1	1	1	1	1	1	1	1	0	1	-34,390416	275,341861	291,500334	0
14.01.2021	17:41:24	0	0	4,631953	3,6735	120,9312	1,354	75,619	3,5	1005,66	8	9,8	9,6	1	1	1	1	1	1	1	1	1	0	1	-30,93728	275,404022	295,247859	0
14.01.2021	17:41:25	0	0	3,27624	3,74625	101,4984	1,356	75,623	3,5	1005,66	8	9,8	9,7	1	1	1	1	1	1	1	1	1	0	1	-35,236082	275,346636	290,677273	0
14.01.2021	17:41:26	0	0	2,937318	3,93525	96,9876	1,355	75,637	3,5	1005,64	8	9,8	9,7	1	1	1	1	1	1	1	1	1	0	1	-31,782946	275,341861	294,107804	0
14.01.2021	17:41:27	0	0	4,067081	3,9105	115,5924	1,375	75,646	3,5	1005,5	8	9,8	9,6	1	1	1	1	1	1	1	1	1	0	1	-37,13883	275,410408	289,076567	0
14.01.2021	17:41:28	0	0	3,954082	3,513	103,6728	1,353	75,629	3,5	1005,62	8	9,8	9,7	1	1	1	1	1	1	1	1	1	0	1	-31,219168	275,270384	294,333315	0
14.01.2021	17:41:29	0	0	2,711371	3,19425	114,4656	1,353	75,63	3,5	1005,5	8	10	9,7	1	1	1	1	1	1	1	1	1	0	1	-34,53136	275,214972	290,759068	0
14.01.2021	17:41:30	0	0	3,163266	2,9025	91,2564	1,353	75,624	3,5	1005,48	8	9,8	9,7	1	1	1	1	1	1	1	1	1	0	1	-31,994362	275,257704	293,498143	0
14.01.2021	17:41:31	0	0	4,293004	2,8455	74,898	1,35	75,634	3,5	1005,52	8	9,8	9,7	1	1	1	1	1	1	1	1	1	0	1	-32,487667	275,357781	293,478458	0
14.01.2021	17:41:32	0	0	3,615161	2,87475	102,1968	1,35	75,607	3,5	1005,54	8	9,8	9,7	1	1	1	1	1	1	1	1	1	0	1	-32,064834	275,22446	293,270453	0
14.01.2021	17:41:33	0	0	2,937318	2,85975	94,3668	1,353	75,608	3,5	1005,66	8	9,8	9,7	1	1	1	1	1	1	1	1	1	0	1	-31,712474	275,281485	293,89253	0
14.01.2021	17:41:34	0	0	4,406004	3,0645	81,5976	1,355	75,63	3,5	1005,7	8	9,8	9,6	1	1	1	1	1	1	1	1	1	0	1	-33,121917	275,405618	293,070786	0
14.01.2021	17:41:35	0	0	3,163266	3,324	87,3288	1,348	75,62	3,5	1005,58	8	9,8	9,7	1	1	1	1	1	1	1	1	1	0	1	-31,571529	275,254536	293,905989	0
14.01.2021	17:41:36	0	0	4,405978	3,456	102,5568	1,357	75,62	3,5	1005,62	8	9,8	9,7	1	1	1	1	1	1	1	1	1	0	1	-34,954193	275,360966	291,027016	0
14.01.2021	17:41:37	0	0	3,954082	3,18975	90,4212	1,352	75,609	3,5	1005,56	8	9,8	9,7	1	1	1	1	1	1	1	1	1	0	1	-36,222692	275,213391	289,060262	0
14.01.2021	17:41:38	0	0	2,711371	3,2415	92,6496	1,358	75,616	3,5	1005,58	8	9,8	9,7	1	1	1	1	1	1	1	1	1	0	1	-35,447498	275,330725	290,390533	0
14.01.2021	17:41:39	0	0	3,954082	3,42975	87,3576	1,356	75,629	3,5	1005,78	8	9,8	9,7	1	1	1	1	1	1	1	1	1	0	1	-31,078224	275,39285	295,053991	0
14.01.2021	17:41:40	0	0	3,050292	3,50175	80,1288	1,356	75,617	3,5	1005,52	8	9,8	9,7	1	1	1	1	1	1	1	1	1	0	1	-29,668781	275,252952	295,801245	0
14.01.2021	17:41:41	0	0	4,067056	3,366	83,3436	1,351	75,628	3,5	1005,52	8	9,8	9,7	1	1	1	1	1	1	1	1	1	0	1	-34,390416	275,367339	291,620971	0
14.01.2021	17:41:42	0	0	4,857873	3,11925	88,5744	1,351	75,617	3,5	1005,68	8	9,8	9,7	1	1	1	1	1	1	1	1	1	0	1	-32,487667	275,388064	293,621878	0
14.01.2021	17:41:43	0	0	4,180055	3,1485	92,2644	1,353	75,627	3,5	1005,58	8	9,8	9,6	1	1	1	1	1	1	1	1	1	0	1	-35,799859	275,368932	290,219074	0
14.01.2021	17:41:44	0	0	2,711371	3,2385	76,842	1,35	75,624	3,5	1005,52	8	9,8	9,7	1	1	1	1	1	1	1	1	1	0	1	-39,534884	275,399233	286,627569	0
14.01.2021	17:41:45	0	0	4,405951	3,7755	90,7956	1,353	75,637	3,5	1005,62	8	9,8	9,8	1	1	1	1	1	1	1	1	1	0	1	-35,16561	275,376902	290,891065	0
14.01.2021	17:41:46	0	0	2,485423	3,975	94,0932	1,353	75,634	3,5	1005,44	8	9,8	9,7	1	1	1	1	1	1	1	1	1	0	1	-33,262861	275,264043	292,259627	0
14.01.2021	17:41:47	0	0	4,293004	3,98625	91,5012	1,351	75,637	3,5	1005,58	8	9,8	9,7	1	1	1	1	1	1	1	1	1	0	1	-32,064834	275,216553	293,233069	0
14.01.2021	17:41:48	0	0	4,406004	3,77475	83,736	1,349	75,635	3,5	1005,56	8	9,8	9,6	1	1	1	1	1	1	1	1	1	0	1	-38,689218	275,333906	287,163872	0
14.01.2021	17:41:49	0	0	4,970847	3,65325	89,3124	1,356	75,634	3,5	1005,64	8	9,8	9,7	1	1	1	1	1	1	1	1	1	0	1	-35,658915	275,38009	290,412862	0
14.01.2021	17:41:50	0	0	4,631925	3,5985	86,9832	1,349	75,644	3,5	1005,64	8	9,8	9,7	1	1	1	1	1	1	1	1	1	0	1	-36,15222	275,349819	289,776208	0
14.01.2021	17:41:51	0	0	2,598397	3,47025	79,0524	1,349	75,639	3,5	1005,6	8	9,8	9,7	1	1	1	1	1	1	1	1	1	0	1	-34,319944	275,404022	291,865195	0
14.01.2021	17:41:52	0	0	4,18003	3,5205	78,2496	1,352	75,651	3,5	1005,62	8	9,8	9,7	1	1	1	1	1	1	1	1	1	0	1	-33,051445	275,391255	293,073213	0
14.01.2021	17:41:53	0	0	4,405978	3,474	71,2188	1,354	75,633	3,5	1005,48	8	9,8	9,7	1	1	1	1	1	1	1	1	1	0	1	-32,487667	275,305295	293,230002	0
14.01.2021	17:41:54	0	0	3,954082	3,558	69,1488	1,346	75,646	3,5	1005,54	8	9,8	9,7	1	1	1	1	1	1	1	1	1	0	1	-31,289641	275,399233	294,872812	0
14.01.2021	17:41:55	0	0	4,631953	3,603	65,0952	1,35	75,639	3,5	1005,64	8	9,8	9,6	1	1	1	1	1	1	1	1	1	0	1	-38,407329	275,273555	287,160156	0
14.01.2021	17:41:56	0	0	4,631925	3,45975	81,2016	1,352	75,641	3,5	1005,5	8	9,8	9,7	1	1	1	1	1	1	1	1	1	0	1	-33,474278	275,348227	292,446613	0
14.01.2021	17:41:57	0	0	2,372435	3,63975	73,4256	1,355	75,652	3,5	1005,66	8	9,8	9,8	1	1	1	1	1	1	1	1	1	0	1	-31,92389	275,214972	293,366538	0
14.01.2021	17:41:58	0	0	4,744927	4,25025	73,7856	1,348	75,633	3,5	1005,5	8	9,8	9,6	1	1	1	1	1	1	1	1	1	0	1	-33,897111	275,289419	291,74543	0
14.01.2021	17:41:59	0	0	4,405978	4,43475	82,5876	1,345	75,645	3,5	1005,5	8	9,8	9,7	1	1	1	1	1	1	1	1	1	0	1	-34,460888	275,246617	290,979175	0
14.01.2021	17:42:00	0	0	3,163266	4,527	87,3612	1,348	75,654	3,5	1005,58	8	9,8	9,7	1	1	1	1	1	1	1	1	1	0	1	-31,219168	275,283072	294,393341	0
14.01.2021	17:42:01	0	0	3,163266	4,527	87,3612	1,348	75,654	3,5	1005,58	8	9,8	9,7	1	1	1	1	1	1	1	1	1	0	1	-31,219168	275,283072	294,393341	0
14.01.2021	17:42:02	0	0	4,293004	4,5975	95,1336	1,345	75,659	3,5	1005,56	8	9,8	9,7	1	1	1	1	1	1	1	1	1	0	1	-35,236082	275,21023	290,031927	0
14.01.2021	17:42:03	0	0	4,405978	4,2165	79,7652	1,346	75,645	3,5	1005,54	8	9,8	9,7	1	1	1	1	1	1	1	1	1	0	1	-36,363636	275,349819	289,564792	0
14.01.2021	17:42:04	0	0	3,728135	3,95625	84,8016	1,352	75,655	3,5	1005,56	8	9,8	9,7	1	1	1	1	1	1	1	1	1	0	1	-34,672304	275,407215	291,527962	0
14.01.2021	17:42:05	0	0	3,502187	4,04325	89,694	1,344	75,642	3,5	1005,62	8	9,9	9,7	1	1	1	1	1	1	1	1	1	0	1	-34,460888	275,349819	291,46754	0
14.01.2021	17:42:06	0	0	3,841109	4,16325	100,7244	1,345	75,647	3,5	1005,74	8	9,8	9,7	1	1	1	1	1	1	1	1	1	0	1	-28,964059	275,397637	297,190833	0
14.01.2021	17:42:07	0	0	4,518951	4,089	101,5092	1,351	75,654	3,5	1005,7	8	9,8	9,7	1	1	1	1	1	1	1	1	1	0	1	-36,504581	275,404022	289,680558	0
14.01.2021	17:42:08	0	0	3,954082	3,95775	96,5592	1,337	75,647	3,5	1005,28	8	9,8	9,7	1	1	1	1	1	1	1	1	1	0	1	-33,333333	275,279899	292,264165	0
14.01.2021	17:42:09	0	0	3,050292	3,65175	102,186	1,344	75,65	3,5	1005,62	8	9,8	9,7	1	1	1	1	1	1	1	1	1	0	1	-33,756166	275,226042	291,5866	0
14.01.2021	17:42:10	0	0	3,841109	3,30675	108,4824	1,348	75,653	3,5	1005,52	8	9,8	9,7	1	1	1	1	1	1	1	1	1	0	1	-28,611698	275,249784	296,843344	0
14.01.2021	17:42:11	0	0	4,180055	3,0675	103,3056	1,344	75,655	3,5	1005,6	8	9,8	9,6	1	1	1	1	1	1	1	1	1	0	1	-36,222692	275,213391	289,060262	0
14.01.2021	17:42:12	0	0	2,824345	2,9745	93,6936	1,346	75,661	3,5	1005,66	8	10	9,7	1	1	1	1	1	1	1	1	1	0	1	-30,796335	275,260873	294,71116	0
14.01.2021	17:42:13	0	0	3,954082	3,08475	94,3848	1,352	75,678	3,5	1005,92	8	9,8	9,7	1	1	1	1	1	1	1	1	1	0	1	-31,853418	275,354596	294,097626	0
14.01.2021	17:42:14	0	0	3,050292	3,252	87,8436	1,348	75,64	3,5	1005,64	8,1	9,8	9,7	1	1	1	1	1	1	1	1	1	0	1	-32,9105	275,218134	292,394878	0
14.01.2021	17:42:15	0	0	4,744899	3,2595	109,5876	1,35	75,665	3,5	1005,76	8	9,8	9,7	1	1	1	1	1	1	1	1	1	0	1	-36,011276	275,297355	289,66882	0
14.01.2021	17:42:16	0	0	2,937318	3,15075	113,6952	1,345	75,668	3,5	1005,52	8,1	9,8	9,7	1	1	1	1	1	1	1	1	1	0	1	-35,447498	275,219715	289,865356	0
14.01.2021	17:42:17	0	0	3,389214	3,033	116,6472	1,342	75,669	3,5	1005,52	8	9,8	9,7	1	1	1	1	1	1	1	1	1	0	1	-36,15222	275,356188	289,806364	0
14.01.2021	17:42:18	0	0	3,954106	2,99925	108,5076	1,345	75,68	3,5	1005,72	8	9,8	9,6	1	1	1	1	1	1	1	1	1	0	1	-32,135307	275,384874	293,959129	0
14.01.2021	17:42:19	0	0	2,372464	2,92725	90	1,344	75,68	3,5	1005,56	8	9,8	9,6	1	1	1	1	1	1	1	1	1	0	1	-33,615222	275,252952	291,854804	0
14.01.2021	17:42:20	0	0	3,389214	2,712	91,1412	1,346	75,692	3,5	1005,6	8	9,8	9,7	1	1	1	1	1	1	1	1	1	0	1	-35,236082	275,384874	290,858354	0
14.01.2021	17:42:21	0	0	3,615161	2,562	95,148	1,346	75,693	3,5	1005,56	8	9,8	9,7	1	1	1	1	1	1	1	1	1	0	1	-34,038055	275,314828	291,724728	0
14.01.2021	17:42:22	0	0	3,502187	2,511	98,082	1,343	75,708	3,5	1005,56	8	9,8	9,7	1	1	1	1	1	1	1	1	1	0	1	-30,232558	275,257704	295,259947	0
14.01.2021	17:42:23	0	0	4,067056	2,6895	97,3044	1,342	75,723	3,5	1005,56	8,1	10	9,7	1	1	1	1	1	1	1	1	1	0	1	-33,826638	275,359373	292,147028	0
14.01.2021	17:42:24	0	0	2,485408	2,75625	102,5352	1,342	75,725	3,5	1005,5	8	9,8	9,8	1	1	1	1	1	1	1	1	1	0	1	-34,742777	275,259289	290,757223	0
14.01.2021	17:42:25	0	0	2,485438	2,8065	103,68	1,342	75,728	3,5	1005,58	8	9,8	9,6	1	1	1	1	1	1	1	1	1	0	1	-35,306554	275,39285	290,825662	0
14.01.2021	17:42:26	0	0	3,276259	2,91525	105,5052	1,343	75,728	3,5	1005,68	8	9,8	9,6	1	1	1	1	1	1	1	1	1	0	1	-36,786469	275,208649	288,474067	0
14.01.2021	17:42:27	0	0	1,807581	3,06075	116,3124	1,339	75,734	3,5	1005,64	8	10	9,7	1	1	1	1	1	1	1	1	1	0	1	-36,222692	275,283072	289,389817	0
14.01.2021	17:42:28	0	0	4,405978	3,43725	114,4584	1,345	75,743	3,5	1005,64	8	9,8	9,7	1	1	1	1	1	1	1	1	1	0	1	-32,840028	275,229206	292,517699	0
14.01.2021	17:42:29	0	0	3,163266	3,4575	113,8428	1,34	75,749	3,5	1005,5	8	9,8	9,7	1	1	1	1	1	1	1	1	1	0	1	-33,967583	275,384874	292,126853	0
14.01.2021	17:42:30	0	0	3,954106	3,41175	102,9636	1,339	75,749	3,5	1005,5	8	9,8	9,6	1	1	1	1	1	1	1	1	1	0	1	-32,346723	275,286245	293,2808	0
14.01.2021	17:42:31	0	0	2,485423	3,16425	96,1776	1,34	75,761	3,5	1005,5	8	9,8	9,7	1	1	1	1	1	1	1	1	1	0	1	-30,93728	275,349819	294,991148	0
14.01.2021	17:42:32	0	0	2,598397	2,9115	105,2064	1,338	75,769	3,5	1005,6	8	9,8	9,7	1	1	1	1	1	1	1	1	1	0	1	-32,205779	275,218134	293,0996	0
14.01.2021	17:42:33	0	0	4,406004	2,95275	105,5664	1,339	75,77	3,5	1005,68	8	9,8	9,6	1	1	1	1	1	1	1	1	1	0	1	-32,9105	275,302119	292,792137	0
14.01.2021	17:42:34	0	0	2,824345	3,105	105,8724	1,333	75,767	3,5	1005,64	8	9,8	9,7	1	1	1	1	1	1	1	1	1	0	1	-34,178999	275,214972	291,111429	0
14.01.2021	17:42:35	0	0	5,196794	3,6225	107,0532	1,341	75,783	3,5	1005,66	8	9,8	9,7	1	1	1	1	1	1	1	1	1	0	1	-31,782946	275,325954	294,032503	0
14.01.2021	17:42:36	0	0	2,598397	4,302	115,2144	1,335	75,788	3,5	1005,56	8	9,8	9,7	1	1	1	1	1	1	1	1	1	0	1	-32,135307	275,233953	293,244867	0
14.01.2021	17:42:37	0	0	2,711371	4,707	112,6512	1,339	75,804	3,5	1005,58	8	9,8	9,7	1	1	1	1	1	1	1	1	1	0	1	-35,588443	275,381685	290,490887	0
14.01.2021	17:42:38	0	0	2,598397	4,896	113,7204	1,336	75,802	3,5	1005,68	8	9,8	9,7	1	1	1	1	1	1	1	1	1	0	1	-35,870331	275,287832	289,7647	0
14.01.2021	17:42:39	0	0	3,728135	4,74225	89,6976	1,338	75,797	3,5	1005,56	8	9,8	9,7	1	1	1	1	1	1	1	1	1	0	1	-37,13883	275,332316	288,70673	0
14.01.2021	17:42:40	0	0	4,405978	4,581	107,7228	1,337	75,817	3,5	1005,56	8	9,8	9,7	1	1	1	1	1	1	1	1	1	0	1	-34,601832	275,391255	291,522826	0
14.01.2021	17:42:41	0	0	2,824345	4,641	114,1056	1,338	75,824	3,5	1005,64	8	9,8	9,7	1	1	1	1	1	1	1	1	1	0	1	-33,192389	275,324365	292,615534	0
14.01.2021	17:42:42	0	0	4,518951	4,73625	103,302	1,331	75,828	3,5	1005,42	8	9,8	9,7	1	1	1	1	1	1	1	1	1	0	1	-34,178999	275,39285	291,953216	0
14.01.2021	17:42:43	0	0	3,163266	4,71225	98,7732	1,336	75,826	3,5	1005,6	8	9,8	9,7	1	1	1	1	1	1	1	1	1	0	1	-37,420719	275,333906	288,432371	0
14.01.2021	17:42:44	0	0	3,050292	4,65675	108,1476	1,337	75,85	3,5	1005,44	8	9,8	9,7	1	1	1	1	1	1	1	1	1	0	1	-32,346723	275,214972	292,943705	0
14.01.2021	17:42:45	0	0	3,615161	4,467	104,418	1,329	75,843	3,5	1005,48	8	10	9,7	1	1	1	1	1	1	1	1	1	0	1	-34,460888	275,373713	291,580688	0
14.01.2021	17:42:46	0	0	4,29303	4,40475	95,8428	1,33	75,862	3,5	1005,62	8	9,8	9,6	1	1	1	1	1	1	1	1	1	0	1	-32,840028	275,226042	292,502739	0
14.01.2021	17:42:47	0	0	2,485423	4,764	95,8464	1,329	75,857	3,5	1005,52	8	9,8	9,7	1	1	1	1	1	1	1	1	1	0	1	-35,940803	275,397637	290,214089	0
14.01.2021	17:42:48	0	0	4,18003	5,07375	102,186	1,34	75,871	3,5	1005,66	8	9,8	9,7	1	1	1	1	1	1	1	1	1	0	1	-34,178999	275,310061	291,561223	0
14.01.2021	17:42:49	0	0	3,163266	4,8915	97,3296	1,335	75,879	3,5	1005,66	8	9,8	9,7	1	1	1	1	1	1	1	1	1	0	1	-33,54475	275,378496	292,519476	0
14.01.2021	17:42:50	0	0	4,518951	4,86375	100,3608	1,331	75,863	3,5	1005,46	8	9,8	9,7	1	1	1	1	1	1	1	1	1	0	1	-32,769556	275,351411	293,16641	0
14.01.2021	17:42:51	0	0	4,744871	5,0385	100,764	1,331	75,891	3,5	1005,58	8	9,8	9,8	1	1	1	1	1	1	1	1	1	0	1	-34,813249	275,322775	290,987149	0
14.01.2021	17:42:52	0	0	2,711371	5,283	101,5056	1,334	75,906	3,5	1005,66	8	9,8	9,7	1	1	1	1	1	1	1	1	1	0	1	-31,92389	275,233953	293,456284	0
14.01.2021	17:42:53	0	0	3,615161	5,27325	94,7592	1,332	75,913	3,5	1005,6	8	9,8	9,7	1	1	1	1	1	1	1	1	1	0	1	-29,457364	275,229206	295,900363	0
14.01.2021	17:42:54	0	0	4,406004	5,32575	108,9468	1,329	75,924	3,5	1005,58	8	9,8	9,6	1	1	1	1	1	1	1	1	1	0	1	-33,262861	275,203909	291,975265	0
14.01.2021	17:42:55	0	0	4,518924	5,196	106,6428	1,331	75,916	3,5	1005,68	8	9,8	9,8	1	1	1	1	1	1	1	1	1	0	1	-35,024665	275,310061	290,715557	0
14.01.2021	17:42:56	0	0	4,067056	5,4855	94,392	1,332	75,929	3,5	1005,62	8	9,8	9,7	1	1	1	1	1	1	1	1	1	0	1	-33,051445	275,214972	292,238984	0
14.01.2021	17:42:57	0	0	4,518924	6,4095	95,1264	1,33	75,966	3,5	1005,72	8	10	9,8	1	1	1	1	1	1	1	1	1	0	1	-34,53136	275,276727	291,05113	0
14.01.2021	17:42:58	0	0	3,502187	6,53475	105,5016	1,334	75,953	3,5	1005,54	8	9,8	9,7	1	1	1	1	1	1	1	1	1	0	1	-34,038055	275,208649	291,222482	0
14.01.2021	17:42:59	0	0	4,857873	6,372	95,832	1,331	75,963	3,5	1005,56	8	9,8	9,7	1	1	1	1	1	1	1	1	1	0	1	-31,148696	275,346636	294,764658	0
14.01.2021	17:43:00	0	0	4,18003	6,003	102,9528	1,328	75,991	3,5	1005,52	8	9,8	9,7	1	1	1	1	1	1	1	1	1	0	1	-33,403805	275,221297	291,916526	0
14.01.2021	17:43:01	0	0	3,502187	5,5215	108,1152	1,327	75,994	3,5	1005,56	8	9,8	9,7	1	1	1	1	1	1	1	1	1	0	1	-33,826638	275,19759	291,381617	0
14.01.2021	17:43:02	0	0	3,502187	5,5215	108,1152	1,327	75,994	3,5	1005,56	8	9,8	9,7	1	1	1	1	1	1	1	1	1	0	1	-33,826638	275,19759	291,381617	0
14.01.2021	17:43:03	0	0	4,067056	5,18475	109,6092	1,322	76,003	3,5	1005,68	8	9,8	9,7	1	1	1	1	1	1	1	1	1	0	1	-32,699084	275,327545	293,123892	0
14.01.2021	17:43:04	0	0	3,615183	5,0025	107,748	1,332	76,004	3,5	1005,56	8	9,8	9,6	1	1	1	1	1	1	1	1	1	0	1	-34,954193	275,219715	290,358662	0
14.01.2021	17:43:05	0	0	3,615161	4,99575	102,942	1,322	76,001	3,5	1005,58	8	9,8	9,7	1	1	1	1	1	1	1	1	1	0	1	-31,994362	275,245033	293,438212	0
14.01.2021	17:43:06	0	0	3,954106	4,8405	99,1332	1,326	76,002	3,5	1005,52	8	9,8	9,6	1	1	1	1	1	1	1	1	1	0	1	-34,249471	275,373713	291,792104	0
14.01.2021	17:43:07	0	0	4,067056	5,02575	109,9584	1,327	76,011	3,5	1005,7	8	9,8	9,7	1	1	1	1	1	1	1	1	1	0	1	-37,209302	275,38009	288,862475	0
14.01.2021	17:43:08	0	0	4,744927	5,92275	108,8748	1,329	76,013	3,5	1005,52	8	9,8	9,6	1	1	1	1	1	1	1	1	1	0	1	-33,333333	275,313239	292,421929	0
14.01.2021	17:43:09	0	0	4,518979	6,15375	94,7664	1,327	75,995	3,5	1005,6	8	9,8	9,6	1	1	1	1	1	1	1	1	1	0	1	-40,803383	275,22446	284,531905	0
14.01.2021	17:43:10	0	0	3,615183	5,89725	92,9736	1,33	76,016	3,5	1005,54	8	9,8	9,6	1	1	1	1	1	1	1	1	1	0	1	-36,434109	275,23237	288,938582	0
14.01.2021	17:43:11	0	0	2,372449	5,547	97,7292	1,327	76,003	3,5	1005,7	8	9,8	9,7	1	1	1	1	1	1	1	1	1	0	1	-33,685694	275,230788	291,679515	0
14.01.2021	17:43:12	0	0	3,163285	5,4135	90,0072	1,331	76,011	3,5	1005,7	8	10	9,6	1	1	1	1	1	1	1	1	1	0	1	-36,222692	275,21023	289,045317	0
14.01.2021	17:43:13	0	0	3,615161	5,38725	94,8492	1,329	76,012	3,5	1005,56	8	9,8	9,7	1	1	1	1	1	1	1	1	1	0	1	-29,668781	275,246617	295,771282	0
14.01.2021	17:43:14	0	0	3,27624	5,58	94,0896	1,329	76,03	3,5	1005,54	8	9,8	9,7	1	1	1	1	1	1	1	1	1	0	1	-33,333333	275,257704	292,159172	0
14.01.2021	17:43:15	0	0	3,163266	5,94375	109,2132	1,333	76,024	3,5	1005,58	8	9,8	9,7	1	1	1	1	1	1	1	1	1	0	1	-33,333333	275,202329	291,897324	0
14.01.2021	17:43:16	0	0	4,405978	6,00075	107,7588	1,332	76,028	3,5	1005,58	8	9,8	9,7	1	1	1	1	1	1	1	1	1	0	1	-37,420719	275,276727	288,161772	0
14.01.2021	17:43:17	0	0	4,293004	6,0465	107,1432	1,338	76,012	3,5	1005,7	8	9,8	9,7	1	1	1	1	1	1	1	1	1	0	1	-29,668781	275,216553	295,629122	0
14.01.2021	17:43:18	0	0	4,406004	6,06975	104,7528	1,336	76,008	3,5	1005,56	8	9,8	9,6	1	1	1	1	1	1	1	1	1	0	1	-39,112051	275,373713	286,929525	0
14.01.2021	17:43:19	0	0	2,824362	5,7375	102,5856	1,329	76,004	3,5	1005,4	8	9,8	9,6	1	1	1	1	1	1	1	1	1	0	1	-28,470754	275,324365	297,337169	0
14.01.2021	17:43:20	0	0	2,485423	5,5725	99,1404	1,339	76,021	3,5	1005,62	8	10	9,7	1	1	1	1	1	1	1	1	1	0	1	-34,108527	275,216553	291,189376	0
14.01.2021	17:43:21	0	0	2,259476	5,93325	98,442	1,332	76,006	3,5	1005,62	8	9,8	9,7	1	1	1	1	1	1	1	1	1	0	1	-31,642001	275,327545	294,180974	0
14.01.2021	17:43:22	0	0	4,18003	6,04275	98,0784	1,329	76,007	3,5	1005,7	8	9,8	9,7	1	1	1	1	1	1	1	1	1	0	1	-34,672304	275,221297	290,648027	0
14.01.2021	17:43:23	0	0	4,067056	5,99625	102,5568	1,331	76,007	3,5	1005,62	8	9,8	9,7	1	1	1	1	1	1	1	1	1	0	1	-31,289641	275,267213	294,247844	0
14.01.2021	17:43:24	0	0	4,18003	6,19425	101,5236	1,329	76,012	3,5	1005,52	8	9,8	9,7	1	1	1	1	1	1	1	1	1	0	1	-36,222692	275,222878	289,105117	0
14.01.2021	17:43:25	0	0	4,744899	6,678	101,844	1,337	76,01	3,5	1005,68	8	9,8	9,7	1	1	1	1	1	1	1	1	1	0	1	-31,219168	275,39285	294,913047	0
14.01.2021	17:43:26	0	0	3,615161	7,161	111,0636	1,336	76,016	3,5	1005,74	8	9,8	9,7	1	1	1	1	1	1	1	1	1	0	1	-31,853418	275,264043	293,669071	0
14.01.2021	17:43:27	0	0	3,615161	7,035	105,1056	1,334	76,011	3,5	1005,78	8	9,8	9,7	1	1	1	1	1	1	1	1	1	0	1	-29,880197	275,391255	296,244461	0
14.01.2021	17:43:28	0	0	3,841109	6,46875	107,0136	1,331	75,994	3,5	1005,62	8	9,8	9,7	1	1	1	1	1	1	1	1	1	0	1	-30,021142	275,354596	295,929902	0
14.01.2021	17:43:29	0	0	4,631925	6,37725	101,8296	1,333	76,001	3,5	1005,66	8	9,8	9,7	1	1	1	1	1	1	1	1	1	0	1	-35,729387	275,38009	290,34239	0
14.01.2021	17:43:30	0	0	2,937301	6,5055	109,9656	1,34	75,997	3,5	1005,62	8	9,8	9,8	1	1	1	1	1	1	1	1	1	0	1	-32,9105	275,237118	292,484641	0
14.01.2021	17:43:31	0	0	3,615161	6,65775	111,456	1,335	75,986	3,5	1005,48	8	9,8	9,7	1	1	1	1	1	1	1	1	1	0	1	-36,222692	275,346636	289,690662	0
14.01.2021	17:43:32	0	0	3,050292	6,50925	105,8652	1,334	75,988	3,5	1005,48	8	9,8	9,7	1	1	1	1	1	1	1	1	1	0	1	-35,095137	275,207069	290,157928	0
14.01.2021	17:43:33	0	0	3,050292	6,68625	99,1116	1,337	75,987	3,5	1005,72	8	10	9,7	1	1	1	1	1	1	1	1	1	0	1	-33,826638	275,240284	291,583474	0
14.01.2021	17:43:34	0	0	3,389214	6,61275	101,5416	1,337	75,975	3,5	1005,6	8	9,8	9,7	1	1	1	1	1	1	1	1	1	0	1	-37,491191	275,252952	287,978835	0
14.01.2021	17:43:35	0	0	3,050292	6,46875	103,3056	1,342	75,98	3,5	1005,54	8	9,8	9,7	1	1	1	1	1	1	1	1	1	0	1	-30,725863	275,238701	294,676763	0
14.01.2021	17:43:36	0	0	4,067056	6,4875	104,4432	1,338	75,981	3,5	1005,58	8	9,8	9,7	1	1	1	1	1	1	1	1	1	0	1	-32,628612	275,325954	293,186837	0
14.01.2021	17:43:37	0	0	2,033528	6,25425	99,5328	1,339	75,977	3,5	1005,6	8	9,8	9,7	1	1	1	1	1	1	1	1	1	0	1	-30,725863	275,388064	295,383682	0
14.01.2021	17:43:38	0	0	3,615161	6,57075	107,7588	1,336	75,97	3,5	1005,54	8	9,8	9,7	1	1	1	1	1	1	1	1	1	0	1	-32,064834	275,353003	293,87867	0
14.01.2021	17:43:39	0	0	4,293004	6,534	98,7804	1,336	75,962	3,5	1005,3	8	9,8	9,7	1	1	1	1	1	1	1	1	1	0	1	-37,420719	275,257704	288,071786	0
14.01.2021	17:43:40	0	0	2,711371	6,849	108,8568	1,334	75,973	3,5	1005,68	8	9,8	9,7	1	1	1	1	1	1	1	1	1	0	1	-34,601832	275,221297	290,718499	0
14.01.2021	17:43:41	0	0	4,970847	6,948	104,418	1,342	75,97	3,5	1005,7	8	9,8	9,7	1	1	1	1	1	1	1	1	1	0	1	-37,843552	275,313239	287,91171	0
14.01.2021	17:43:42	0	0	3,050292	6,7395	107,0352	1,339	75,979	3,5	1005,58	8	9,8	9,7	1	1	1	1	1	1	1	1	1	0	1	-31,289641	275,39285	294,842575	0
14.01.2021	17:43:43	0	0	2,937318	6,61275	108,1512	1,335	75,956	3,5	1005,54	8	9,8	9,7	1	1	1	1	1	1	1	1	1	0	1	-32,135307	275,332316	293,710253	0
14.01.2021	17:43:44	0	0	4,067056	6,44925	104,7636	1,335	75,964	3,5	1005,68	8	10	9,7	1	1	1	1	1	1	1	1	1	0	1	-36,575053	275,23237	288,797638	0
14.01.2021	17:43:45	0	0	4,970847	6,387	87,7464	1,336	75,956	3,5	1005,6	8	9,8	9,7	1	1	1	1	1	1	1	1	1	0	1	-34,178999	275,324365	291,628923	0
14.01.2021	17:43:46	0	0	3,502187	5,871	90,8712	1,345	75,96	3,5	1005,64	8	9,8	9,7	1	1	1	1	1	1	1	1	1	0	1	-34,390416	275,237118	291,004726	0
14.01.2021	17:43:47	0	0	4,970876	5,7015	94,1256	1,342	75,944	3,5	1005,54	8	9,8	9,6	1	1	1	1	1	1	1	1	1	0	1	-34,390416	275,349819	291,538012	0
14.01.2021	17:43:48	0	0	3,615161	5,6715	81,2268	1,349	75,941	3,5	1005,58	8	9,8	9,7	1	1	1	1	1	1	1	1	1	0	1	-34,53136	275,400829	291,638654	0
14.01.2021	17:43:49	0	0	3,502187	4,869	91,494	1,342	75,939	3,5	1005,7	8	9,8	9,7	1	1	1	1	1	1	1	1	1	0	1	-33,121917	275,359373	292,85175	0
14.01.2021	17:43:50	0	0	2,824345	4,5525	90,7884	1,337	75,936	3,5	1005,6	8	9,8	9,7	1	1	1	1	1	1	1	1	1	0	1	-37,068358	275,24345	288,356728	0
14.01.2021	17:43:51	0	0	3,841086	4,83	100,7676	1,345	75,927	3,5	1005,56	8	9,8	9,8	1	1	1	1	1	1	1	1	1	0	1	-35,870331	275,264043	289,652157	0
14.01.2021	17:43:52	0	0	2,937318	5,046	100,368	1,347	75,904	3,5	1005,6	8	9,8	9,7	1	1	1	1	1	1	1	1	1	0	1	-30,655391	275,394446	295,484383	0
14.01.2021	17:43:53	0	0	3,615161	5,433	96,21	1,342	75,906	3,5	1005,64	8,1	9,8	9,7	1	1	1	1	1	1	1	1	1	0	1	-32,487667	275,238701	292,914959	0
14.01.2021	17:43:54	0	0	3,050292	6,02925	105,1632	1,344	75,893	3,5	1005,66	8	9,8	9,7	1	1	1	1	1	1	1	1	1	0	1	-35,588443	275,360966	290,392767	0
14.01.2021	17:43:55	0	0	4,18003	6,7185	96,9804	1,345	75,889	3,5	1005,54	8	9,8	9,7	1	1	1	1	1	1	1	1	1	0	1	-31,360113	275,404022	294,825026	0
14.01.2021	17:43:56	0	0	3,502187	7,04475	97,3188	1,352	75,877	3,5	1005,52	8,1	9,8	9,7	1	1	1	1	1	1	1	1	1	0	1	-30,443975	275,424786	295,839548	0
14.01.2021	17:43:57	0	0	3,389214	6,95925	99,5364	1,349	75,855	3,5	1005,54	8	9,8	9,7	1	1	1	1	1	1	1	1	1	0	1	-33,474278	275,351411	292,461688	0
14.01.2021	17:43:58	0	0	4,744899	6,7425	98,4636	1,35	75,85	3,5	1005,74	8	9,8	9,7	1	1	1	1	1	1	1	1	1	0	1	-33,756166	275,284658	291,86385	0
14.01.2021	17:43:59	0	0	2,824362	6,669	101,1168	1,351	75,842	3,5	1005,64	8,1	10	9,6	1	1	1	1	1	1	1	1	1	0	1	-30,162086	275,24345	295,263	0
14.01.2021	17:44:00	0	0	3,502187	6,66675	102,3084	1,355	75,816	3,5	1005,6	8	9,8	9,7	1	1	1	1	1	1	1	1	1	0	1	-32,487667	275,229206	292,87006	0
14.01.2021	17:44:01	0	0	2,372435	6,855	101,8116	1,356	75,818	3,5	1005,54	8,1	10	9,8	1	1	1	1	1	1	1	1	1	0	1	-32,487667	275,229206	292,87006	0
14.01.2021	17:44:02	0	0	2,372435	6,855	101,8116	1,356	75,818	3,5	1005,54	8,1	10	9,8	1	1	1	1	1	1	1	1	1	0	1	-29,457364	275,359373	296,516302	0
14.01.2021	17:44:03	0	0	2,485438	6,73875	99,1404	1,354	75,807	3,5	1005,7	8	10	9,6	1	1	1	1	1	1	1	1	1	0	1	-31,642001	275,412005	294,580962	0
14.01.2021	17:44:04	0	0	2,824345	6,54825	96,2964	1,351	75,789	3,5	1005,56	8	10	9,7	1	1	1	1	1	1	1	1	1	0	1	-33,685694	275,233953	291,694479	0
14.01.2021	17:44:05	0	0	3,728157	6,246	96,9444	1,355	75,786	3,5	1005,76	8,1	9,8	9,6	1	1	1	1	1	1	1	1	1	0	1	-31,712474	275,370526	294,314006	0
14.01.2021	17:44:06	0	0	4,29303	5,5605	100,3716	1,355	75,825	3,5	1005,54	8	9,8	9,6	1	1	1	1	1	1	1	1	1	0	1	-33,685694	275,419992	292,575114	0
14.01.2021	17:44:07	0	0	2,372449	5,4945	100,728	1,354	75,77	3,5	1005,7	8,1	9,8	9,7	1	1	1	1	1	1	1	1	1	0	1	-36,15222	275,216553	289,145683	0
14.01.2021	17:44:08	0	0	4,744927	5,5935	110,0664	1,354	75,758	3,5	1005,6	8,1	9,8	9,6	1	1	1	1	1	1	1	1	1	0	1	-36,081748	275,362559	289,907005	0
14.01.2021	17:44:09	0	0	3,841132	5,95425	107,424	1,35	75,742	3,5	1005,66	8	9,8	9,6	1	1	1	1	1	1	1	1	1	0	1	-30,796335	275,360966	295,184874	0
14.01.2021	17:44:10	0	0	4,18003	6,3105	117,0432	1,356	75,746	3,5	1005,66	8,1	9,8	9,7	1	1	1	1	1	1	1	1	1	0	1	-33,897111	275,412005	292,325853	0
14.01.2021	17:44:11	0	0	4,29303	6,24675	113,5188	1,354	75,738	3,5	1005,52	8,1	9,8	9,6	1	1	1	1	1	1	1	1	1	0	1	-29,598309	275,378496	296,465917	0
14.01.2021	17:44:12	0	0	3,27624	6,01575	117,4248	1,356	75,735	3,5	1005,68	8	9,8	9,7	1	1	1	1	1	1	1	1	1	0	1	-34,390416	275,418395	291,862822	0
14.01.2021	17:44:13	0	0	2,598381	5,83725	108,8964	1,356	75,733	3,5	1005,62	8,1	9,8	9,8	1	1	1	1	1	1	1	1	1	0	1	-33,121917	275,292593	292,535643	0
14.01.2021	17:44:14	0	0	3,841132	5,48025	130,5252	1,359	75,728	3,5	1005,64	8,1	9,8	9,6	1	1	1	1	1	1	1	1	1	0	1	-31,430585	275,396041	294,716748	0
14.01.2021	17:44:15	0	0	2,485423	5,3085	120,1392	1,363	75,722	3,5	1005,78	8	10	9,7	1	1	1	1	1	1	1	1	1	0	1	-33,192389	275,427983	293,106281	0
14.01.2021	17:44:16	0	0	4,631925	4,74675	96,2028	1,364	75,706	3,5	1005,44	8	9,8	9,7	1	1	1	1	1	1	1	1	1	0	1	-31,712474	275,376902	294,344201	0
14.01.2021	17:44:17	0	0	2,824345	4,52925	119,7864	1,356	75,7	3,5	1005,46	8,1	10	9,7	1	1	1	1	1	1	1	1	1	0	1	-32,487667	275,373713	293,553908	0
14.01.2021	17:44:18	0	0	2,372464	4,79175	125,4492	1,363	75,698	3,5	1005,66	8,1	9,8	9,6	1	1	1	1	1	1	1	1	1	0	1	-37,420719	275,419992	288,840089	0
14.01.2021	17:44:19	0	0	3,841109	4,71225	110,7396	1,36	75,686	3,5	1005,68	8,1	9,8	9,7	1	1	1	1	1	1	1	1	1	0	1	-27,625088	275,308472	298,107616	0
14.01.2021	17:44:20	0	0	3,389214	4,56825	115,5852	1,36	75,667	3,5	1005,56	8,1	9,8	9,7	1	1	1	1	1	1	1	1	1	0	1	-33,051445	275,383279	293,035437	0
14.01.2021	17:44:21	0	0	3,389214	4,185	116,334	1,358	75,676	3,5	1005,48	8	9,8	9,7	1	1	1	1	1	1	1	1	1	0	1	-29,245948	275,432778	297,075449	0
14.01.2021	17:44:22	0	0	2,711371	4,29075	113,0004	1,365	75,65	3,5	1005,62	8,1	9,8	9,7	1	1	1	1	1	1	1	1	1	0	1	-31,994362	275,370526	294,032117	0
14.01.2021	17:44:23	0	0	2,937318	4,605	123,5196	1,368	75,657	3,5	1005,7	8,1	9,8	9,7	1	1	1	1	1	1	1	1	1	0	1	-31,571529	275,437575	294,772601	0
14.01.2021	17:44:24	0	0	3,615183	4,53375	124,2936	1,36	75,626	3,5	1005,54	8,1	9,8	9,6	1	1	1	1	1	1	1	1	1	0	1	-28,611698	275,29418	297,053373	0
14.01.2021	17:44:25	0	0	2,372464	4,632	115,5888	1,368	75,627	3,5	1005,74	8	9,8	9,6	1	1	1	1	1	1	1	1	1	0	1	-29,809725	275,4152	296,428374	0
14.01.2021	17:44:26	0	0	2,598397	4,61925	123,4584	1,365	75,627	3,5	1005,68	8,1	9,8	9,7	1	1	1	1	1	1	1	1	1	0	1	-30,655391	275,257704	294,837114	0
14.01.2021	17:44:27	0	0	4,292978	4,7085	123,8508	1,37	75,611	3,5	1005,62	8,1	9,8	9,8	1	1	1	1	1	1	1	1	1	0	1	-32,699084	275,376902	293,357591	0
14.01.2021	17:44:28	0	0	2,824362	4,8465	119,0952	1,365	75,575	3,5	1005,46	8,1	9,8	9,6	1	1	1	1	1	1	1	1	1	0	1	-30,655391	275,4152	295,582708	0
14.01.2021	17:44:29	0	0	4,180055	4,66575	104,4432	1,367	75,594	3,5	1005,58	8,1	9,8	9,6	1	1	1	1	1	1	1	1	1	0	1	-36,927414	275,396041	289,219919	0
14.01.2021	17:44:30	0	0	5,083851	4,89075	101,8116	1,366	75,585	3,5	1005,56	8,1	10	9,6	1	1	1	1	1	1	1	1	1	0	1	-30,232558	275,381685	295,846771	0
14.01.2021	17:44:31	0	0	2,598397	5,09475	106,29	1,364	75,563	3,5	1005,54	8,1	9,8	9,7	1	1	1	1	1	1	1	1	1	0	1	-33,826638	275,445573	292,555396	0
14.01.2021	17:44:32	0	0	4,067032	5,02425	102,9744	1,371	75,549	3,5	1005,64	8,1	10	9,8	1	1	1	1	1	1	1	1	1	0	1	-32,417195	275,42159	293,851184	0
14.01.2021	17:44:33	0	0	2,259462	4,7205	92,9556	1,362	75,535	3,5	1005,5	8,1	10	9,8	1	1	1	1	1	1	1	1	1	0	1	-32,487667	275,384874	293,606768	0
14.01.2021	17:44:34	0	0	3,502187	4,6575	103,3164	1,371	75,526	3,5	1005,54	8,1	10	9,7	1	1	1	1	1	1	1	1	1	0	1	-34,672304	275,2482	290,775248	0
14.01.2021	17:44:35	0	0	4,631897	4,764	96,2136	1,366	75,523	3,5	1005,62	8,1	10	9,8	1	1	1	1	1	1	1	1	1	0	1	-31,289641	275,297355	294,390455	0
14.01.2021	17:44:36	0	0	4,970817	4,59675	101,1492	1,365	75,508	3,5	1005,48	8,1	9,8	9,8	1	1	1	1	1	1	1	1	1	0	1	-35,51797	275,373713	290,523605	0
14.01.2021	17:44:37	0	0	3,276259	4,3935	104,0688	1,369	75,52	3,5	1005,66	8,1	9,8	9,6	1	1	1	1	1	1	1	1	1	0	1	-32,276251	275,38009	293,795526	0
14.01.2021	17:44:38	0	0	3,276259	4,0305	105,516	1,37	75,494	3,5	1005,54	8	10	9,6	1	1	1	1	1	1	1	1	1	0	1	-33,685694	275,450373	292,719092	0
14.01.2021	17:44:39	0	0	4,405951	3,59475	108,1188	1,365	75,491	3,5	1005,52	8,1	10	9,8	1	1	1	1	1	1	1	1	1	0	1	-31,782946	275,348227	294,137945	0
14.01.2021	17:44:40	0	0	4,518979	3,33975	113,7168	1,367	75,492	3,5	1005,54	8,1	9,8	9,6	1	1	1	1	1	1	1	1	1	0	1	-30,655391	275,440774	295,703899	0
14.01.2021	17:44:41	0	0	3,163266	3,37275	104,724	1,367	75,482	3,5	1005,5	8,1	9,8	9,7	1	1	1	1	1	1	1	1	1	0	1	-30,443975	275,289419	295,198566	0
14.01.2021	17:44:42	0	0	4,631925	3,7755	98,46	1,371	75,464	3,5	1005,46	8,1	9,8	9,7	1	1	1	1	1	1	1	1	1	0	1	-30,584919	275,37212	295,449108	0
14.01.2021	17:44:43	0	0	3,389214	4,0335	95,9112	1,372	75,472	3,5	1005,62	8,1	9,8	9,7	1	1	1	1	1	1	1	1	1	0	1	-29,175476	275,394446	296,964298	0
14.01.2021	17:44:44	0	0	3,954082	4,16175	96,6024	1,372	75,461	3,5	1005,58	8,1	9,8	9,7	1	1	1	1	1	1	1	1	1	0	1	-35,095137	275,440774	291,264153	0
14.01.2021	17:44:45	0	0	3,954082	4,51875	99,5004	1,375	75,455	3,5	1005,76	8,1	9,8	9,7	1	1	1	1	1	1	1	1	1	0	1	-32,205779	275,381685	293,87355	0
14.01.2021	17:44:46	0	0	3,502166	4,83525	95,8608	1,374	75,444	3,5	1005,58	8,1	9,8	9,8	1	1	1	1	1	1	1	1	1	0	1	-35,799859	275,283072	289,81265	0
14.01.2021	17:44:47	0	0	3,389214	4,48725	79,7544	1,375	75,442	3,5	1005,56	8,1	9,8	9,7	1	1	1	1	1	1	1	1	1	0	1	-31,994362	275,271969	293,565622	0
14.01.2021	17:44:48	0	0	4,406004	4,0425	90,414	1,371	75,439	3,5	1005,56	8	9,8	9,6	1	1	1	1	1	1	1	1	1	0	1	-34,390416	275,400829	291,779598	0
14.01.2021	17:44:49	0	0	3,502187	3,5205	89,3484	1,372	75,44	3,5	1005,58	8,1	9,8	9,7	1	1	1	1	1	1	1	1	1	0	1	-33,333333	275,39285	292,798882	0
14.01.2021	17:44:50	0	0	2,598397	3,147	115,1964	1,377	75,446	3,5	1005,76	8,1	10	9,7	1	1	1	1	1	1	1	1	1	0	1	-33,897111	275,440774	292,462179	0
14.01.2021	17:44:51	0	0	3,841109	3,0555	105,8904	1,377	75,443	3,5	1005,38	8,1	9,8	9,7	1	1	1	1	1	1	1	1	1	0	1	-30,443975	275,356188	295,51461	0
14.01.2021	17:44:52	0	0	4,180055	3,3285	117,0468	1,373	75,43	3,5	1005,66	8,1	9,8	9,6	1	1	1	1	1	1	1	1	1	0	1	-30,93728	275,442374	295,429591	0
14.01.2021	17:44:53	0	0	3,954082	3,20025	114,408	1,367	75,435	3,5	1005,5	8,1	9,8	9,7	1	1	1	1	1	1	1	1	1	0	1	-32,9105	275,343452	292,987783	0
14.01.2021	17:44:54	0	0	2,824345	3,147	92,2608	1,372	75,449	3,5	1005,62	8,1	9,8	9,7	1	1	1	1	1	1	1	1	1	0	1	-30,655391	275,42159	295,612988	0
14.01.2021	17:44:55	0	0	4,405978	3,972	98,4564	1,377	75,445	3,5	1005,54	8,1	10	9,7	1	1	1	1	1	1	1	1	1	0	1	-33,615222	275,405618	292,57748	0
14.01.2021	17:44:56	0	0	2,485438	4,359	102,5532	1,371	75,443	3,5	1005,68	8,1	9,8	9,6	1	1	1	1	1	1	1	1	1	0	1	-31,92389	275,356188	294,034694	0
14.01.2021	17:44:57	0	0	4,18003	4,27425	98,0748	1,38	75,44	3,5	1005,6	8,1	10	9,7	1	1	1	1	1	1	1	1	1	0	1	-31,782946	275,245033	293,649629	0
14.01.2021	17:44:58	0	0	3,163266	4,20525	99,1404	1,381	75,442	3,5	1005,68	8,1	9,8	9,7	1	1	1	1	1	1	1	1	1	0	1	-32,487667	275,298943	293,199941	0
14.01.2021	17:44:59	0	0	3,163285	4,1535	104,4684	1,376	75,449	3,5	1005,62	8,1	10	9,6	1	1	1	1	1	1	1	1	1	0	1	-35,658915	275,303707	290,051238	0
14.01.2021	17:45:00	0	0	4,744899	3,621	116,352	1,375	75,452	3,5	1005,66	8,1	9,8	9,7	1	1	1	1	1	1	1	1	1	0	1	-31,92389	275,237118	293,471251	0
14.01.2021	17:45:01	0	0	4,744899	3,621	116,352	1,375	75,452	3,5	1005,66	8,1	9,8	9,7	1	1	1	1	1	1	1	1	1	0	1	-31,92389	275,237118	293,471251	0
14.01.2021	17:45:02	0	0	4,518951	3,381	114,8256	1,373	75,449	3,5	1005,6	8,1	9,8	9,7	1	1	1	1	1	1	1	1	1	0	1	-34,742777	275,314828	291,020006	0
14.01.2021	17:45:03	0	0	4,067056	3,46275	138,4524	1,379	75,451	3,5	1005,56	8,1	10	9,7	1	1	1	1	1	1	1	1	1	0	1	-31,853418	275,418395	294,39982	0
14.01.2021	17:45:04	0	0	4,857873	3,51825	129,06	1,376	75,459	3,5	1005,7	8,1	9,8	9,7	1	1	1	1	1	1	1	1	1	0	1	-29,386892	275,434377	296,942082	0
14.01.2021	17:45:05	0	0	1,920543	4,14	116,3304	1,373	75,45	3,5	1005,64	8,1	9,8	9,8	1	1	1	1	1	1	1	1	1	0	1	-29,245948	275,370526	296,780532	0
14.01.2021	17:45:06	0	0	4,29303	4,7085	113,7312	1,374	75,465	3,5	1005,6	8,1	9,8	9,6	1	1	1	1	1	1	1	1	1	0	1	-32,276251	275,262458	293,238741	0
14.01.2021	17:45:07	0	0	2,259476	4,74075	99,5328	1,375	75,463	3,5	1005,68	8,1	9,8	9,7	1	1	1	1	1	1	1	1	1	0	1	-34,883721	275,43118	291,4301	0
14.01.2021	17:45:08	0	0	2,372464	4,6005	107,7084	1,378	75,464	3,5	1005,6	8,1	9,8	9,6	1	1	1	1	1	1	1	1	1	0	1	-27,977449	275,365745	298,026392	0
14.01.2021	17:45:09	0	0	4,631925	4,55325	111,4236	1,376	75,466	3,5	1005,48	8,1	9,8	9,7	1	1	1	1	1	1	1	1	1	0	1	-31,712474	275,423188	294,563477	0
14.01.2021	17:45:10	0	0	3,615161	4,7955	91,9548	1,377	75,473	3,5	1005,52	8,1	9,8	9,7	1	1	1	1	1	1	1	1	1	0	1	-32,276251	275,31165	293,471491	0
14.01.2021	17:45:11	0	0	4,631925	4,6515	94,3848	1,373	75,472	3,5	1005,72	8,1	10	9,7	1	1	1	1	1	1	1	1	1	0	1	-30,514447	275,407215	295,68582	0
14.01.2021	17:45:12	0	0	2,485408	4,836	111,0528	1,376	75,476	3,5	1005,58	8,1	10	9,8	1	1	1	1	1	1	1	1	1	0	1	-33,192389	275,426384	293,098707	0
14.01.2021	17:45:13	0	0	4,18003	4,932	118,3356	1,373	75,474	3,5	1005,52	8,1	10	9,7	1	1	1	1	1	1	1	1	1	0	1	-29,105004	275,257704	296,387502	0
14.01.2021	17:45:14	0	0	3,954082	4,7205	116,694	1,377	75,479	3,5	1005,64	8,1	9,8	9,7	1	1	1	1	1	1	1	1	1	0	1	-38,477801	275,359373	287,495865	0
14.01.2021	17:45:15	0	0	2,598381	4,62525	112,2624	1,371	75,465	3,5	1005,58	8,1	9,8	9,8	1	1	1	1	1	1	1	1	1	0	1	-36,293164	275,245033	289,13941	0
14.01.2021	17:45:16	0	0	2,485423	5,09625	113,7276	1,376	75,486	3,5	1005,66	8,1	9,8	9,7	1	1	1	1	1	1	1	1	1	0	1	-28,259338	275,281485	297,345666	0
14.01.2021	17:45:17	0	0	2,937318	5,4255	103,284	1,37	75,532	3,5	1005,6	8,1	9,8	9,7	1	1	1	1	1	1	1	1	1	0	1	-25,933756	275,356188	300,024828	0
14.01.2021	17:45:18	0	0	4,518951	5,38275	101,4912	1,373	75,475	3,5	1005,62	8	9,8	9,7	1	1	1	1	1	1	1	1	1	0	1	-27,69556	275,388064	298,413985	0
14.01.2021	17:45:19	0	0	3,728135	4,992	108,5112	1,372	75,481	3,5	1005,66	8,1	10	9,7	1	1	1	1	1	1	1	1	1	0	1	-32,487667	275,249784	292,967375	0
14.01.2021	17:45:20	0	0	4,067081	4,62975	105,9552	1,366	75,492	3,5	1005,54	8,1	9,8	9,6	1	1	1	1	1	1	1	1	1	0	1	-33,967583	275,2482	291,47997	0
14.01.2021	17:45:21	0	0	2,711387	4,40625	105,1308	1,368	75,47	3,5	1005,56	8,1	9,8	9,6	1	1	1	1	1	1	1	1	1	0	1	-33,262861	275,300531	292,432262	0
14.01.2021	17:45:22	0	0	3,728157	4,28925	108,1044	1,368	75,487	3,5	1005,58	8,1	10	9,6	1	1	1	1	1	1	1	1	1	0	1	-32,487667	275,408812	293,720164	0
14.01.2021	17:45:23	0	0	3,050311	3,86775	105,498	1,377	75,481	3,5	1005,74	8,1	9,8	9,6	1	1	1	1	1	1	1	1	1	0	1	-32,840028	275,2482	292,607524	0
14.01.2021	17:45:24	0	0	4,292978	3,7515	101,5092	1,373	75,493	3,5	1005,56	8,1	10	9,8	1	1	1	1	1	1	1	1	1	0	1	-32,840028	275,283072	292,772481	0
14.01.2021	17:45:25	0	0	4,29303	3,80925	105,4944	1,375	75,506	3,5	1005,64	8,1	9,8	9,6	1	1	1	1	1	1	1	1	1	0	1	-34,038055	275,335497	291,822565	0
14.01.2021	17:45:26	0	0	2,824328	3,594	105,5016	1,374	75,506	3,5	1005,6	8,1	10	9,8	1	1	1	1	1	1	1	1	1	0	1	-34,460888	275,375307	291,588237	0
14.01.2021	17:45:27	0	0	2,937318	3,32025	109,9728	1,37	75,502	3,5	1005,5	8,1	9,8	9,7	1	1	1	1	1	1	1	1	1	0	1	-30,091614	275,240284	295,318499	0
14.01.2021	17:45:28	0	0	3,27624	3,0225	105,516	1,368	75,489	3,5	1005,54	8,1	9,8	9,7	1	1	1	1	1	1	1	1	1	0	1	-32,135307	275,354596	293,815737	0
14.01.2021	17:45:29	0	0	3,728157	3,0195	105,1488	1,374	75,513	3,5	1005,5	8,1	10	9,6	1	1	1	1	1	1	1	1	1	0	1	-34,390416	275,412005	291,832548	0
14.01.2021	17:45:30	0	0	3,163285	3,027	103,3056	1,368	75,49	3,5	1005,52	8,1	9,8	9,6	1	1	1	1	1	1	1	1	1	0	1	-36,434109	275,384874	289,660327	0
14.01.2021	17:45:31	0	0	4,18003	2,961	101,502	1,373	75,509	3,5	1005,58	8,1	9,8	9,7	1	1	1	1	1	1	1	1	1	0	1	-31,219168	275,310061	294,521054	0
14.01.2021	17:45:32	0	0	3,841132	3,0165	105,4764	1,375	75,502	3,5	1005,58	8	9,9	9,6	1	1	1	1	1	1	1	1	1	0	1	-31,994362	275,292593	293,663198	0
14.01.2021	17:45:33	0	0	2,598413	3,2385	97,3152	1,374	75,507	3,5	1005,58	8	10	9,6	1	1	1	1	1	1	1	1	1	0	1	-33,615222	275,251368	291,847312	0
14.01.2021	17:45:34	0	0	2,485423	3,62025	101,484	1,372	75,498	3,5	1005,66	8,1	10	9,7	1	1	1	1	1	1	1	1	1	0	1	-29,950669	275,2482	295,496883	0
14.01.2021	17:45:35	0	0	2,598413	3,87825	93,366	1,375	75,51	3,5	1005,56	8	10	9,6	1	1	1	1	1	1	1	1	1	0	1	-31,078224	275,351411	294,857742	0
14.01.2021	17:45:36	0	0	4,744899	4,05	100,3788	1,374	75,526	3,5	1005,62	8,1	9,8	9,7	1	1	1	1	1	1	1	1	1	0	1	-32,980973	275,400829	293,189042	0
14.01.2021	17:45:37	0	0	2,711387	4,3155	104,7528	1,371	75,526	3,5	1005,44	8,1	9,8	9,6	1	1	1	1	1	1	1	1	1	0	1	-33,54475	275,341861	292,346	0
14.01.2021	17:45:38	0	0	3,050292	4,263	97,326	1,366	75,529	3,5	1005,5	8,1	10	9,7	1	1	1	1	1	1	1	1	1	0	1	-37,068358	275,383279	289,018524	0
14.01.2021	17:45:39	0	0	2,372449	4,21725	97,326	1,363	75,534	3,5	1005,48	8,1	9,8	9,7	1	1	1	1	1	1	1	1	1	0	1	-30,655391	275,251368	294,807143	0
14.01.2021	17:45:40	0	0	2,598413	4,13175	101,8188	1,371	75,525	3,5	1005,6	8,1	9,8	9,6	1	1	1	1	1	1	1	1	1	0	1	-33,262861	275,346636	292,650493	0
14.01.2021	17:45:41	0	0	3,615139	3,98175	99,522	1,373	75,541	3,5	1005,72	8,1	9,8	9,8	1	1	1	1	1	1	1	1	1	0	1	-31,994362	275,399233	294,168091	0
14.01.2021	17:45:42	0	0	3,276259	4,16475	97,3224	1,371	75,524	3,5	1005,4	8,1	9,8	9,6	1	1	1	1	1	1	1	1	1	0	1	-34,813249	275,229206	290,544479	0
14.01.2021	17:45:43	0	0	4,631925	4,3515	108,5508	1,372	75,545	3,5	1005,6	8	9,8	9,7	1	1	1	1	1	1	1	1	1	0	1	-35,51797	275,303707	290,192183	0
14.01.2021	17:45:44	0	0	4,518951	4,248	123,0876	1,372	75,542	3,5	1005,64	8	10	9,7	1	1	1	1	1	1	1	1	1	0	1	-29,105004	275,346636	296,808351	0
14.01.2021	17:45:45	0	0	4,18003	4,32825	118,7244	1,364	75,543	3,5	1005,56	8,1	9,8	9,7	1	1	1	1	1	1	1	1	1	0	1	-29,245948	275,416797	296,99972	0
14.01.2021	17:45:46	0	0	2,485438	4,3005	107,046	1,369	75,54	3,5	1005,7	8,1	10	9,6	1	1	1	1	1	1	1	1	1	0	1	-29,668781	275,332316	296,176779	0
14.01.2021	17:45:47	0	0	2,485423	4,371	119,0988	1,361	75,545	3,5	1005,48	8,1	9,8	9,7	1	1	1	1	1	1	1	1	1	0	1	-28,32981	275,24345	297,095277	0
14.01.2021	17:45:48	0	0	4,857902	4,44	125,4204	1,372	75,553	3,5	1005,58	8	9,8	9,6	1	1	1	1	1	1	1	1	1	0	1	-32,205779	275,38009	293,865998	0
14.01.2021	17:45:49	0	0	4,405978	4,3185	122,6772	1,361	75,55	3,5	1005,56	8,1	10	9,7	1	1	1	1	1	1	1	1	1	0	1	-26,990839	275,357781	298,975286	0
14.01.2021	17:45:50	0	0	3,841086	4,01475	130,5864	1,364	75,546	3,5	1005,54	8	10	9,8	1	1	1	1	1	1	1	1	1	0	1	-32,487667	275,245033	292,944907	0
14.01.2021	17:45:51	0	0	4,857902	3,69	114,8724	1,362	75,543	3,5	1005,6	8,1	9,8	9,6	1	1	1	1	1	1	1	1	1	0	1	-31,782946	275,365745	294,220895	0
14.01.2021	17:45:52	0	0	4,067056	3,41625	112,644	1,361	75,552	3,5	1005,56	8,1	9,8	9,7	1	1	1	1	1	1	1	1	1	0	1	-34,53136	275,298943	291,156249	0
14.01.2021	17:45:53	0	0	3,050292	3,12075	104,4504	1,37	75,532	3,5	1005,58	8,1	9,8	9,7	1	1	1	1	1	1	1	1	1	0	1	-33,826638	275,227624	291,523608	0
14.01.2021	17:45:54	0	0	3,276259	3,048	109,602	1,374	75,552	3,5	1005,58	8,1	9,8	9,6	1	1	1	1	1	1	1	1	1	0	1	-31,078224	275,297355	294,601871	0
14.01.2021	17:45:55	0	0	2,824345	3,5145	108,504	1,367	75,548	3,5	1005,74	8	10	9,7	1	1	1	1	1	1	1	1	1	0	1	-30,93728	275,222878	294,390529	0
14.01.2021	17:45:56	0	0	2,937301	4,056	107,442	1,365	75,531	3,5	1005,62	8,1	9,8	9,8	1	1	1	1	1	1	1	1	1	0	1	-28,611698	275,283072	297,000811	0
14.01.2021	17:45:57	0	0	2,824362	4,61325	112,6692	1,361	75,551	3,5	1005,62	8	9,8	9,6	1	1	1	1	1	1	1	1	1	0	1	-29,809725	275,265628	295,720261	0
14.01.2021	17:45:58	0	0	3,050292	4,32375	125,4168	1,367	75,544	3,5	1005,64	8,1	9,8	9,7	1	1	1	1	1	1	1	1	1	0	1	-27,977449	275,275141	297,597539	0
14.01.2021	17:45:59	0	0	4,518979	4,93875	106,3152	1,367	75,538	3,5	1005,52	8,1	9,8	9,6	1	1	1	1	1	1	1	1	1	0	1	-27,131783	275,318006	298,646043	0
14.01.2021	17:46:00	0	0	4,067056	5,766	114,858	1,369	75,551	3,5	1005,46	8	10	9,7	1	1	1	1	1	1	1	1	1	0	1	-31,360113	275,252952	294,109913	0
14.01.2021	17:46:01	0	0	4,067056	5,766	114,858	1,369	75,551	3,5	1005,46	8	10	9,7	1	1	1	1	1	1	1	1	1	0	1	-31,360113	275,252952	294,109913	0
14.01.2021	17:46:02	0	0	4,518951	6,26475	110,0052	1,366	75,528	3,5	1005,5	8	10	9,7	1	1	1	1	1	1	1	1	1	0	1	-26,920366	275,287832	298,714665	0
14.01.2021	17:46:03	0	0	4,293004	6,252	112,2696	1,365	75,532	3,5	1005,5	8	10	9,7	1	1	1	1	1	1	1	1	1	0	1	-35,940803	275,362559	290,047949	0
14.01.2021	17:46:04	0	0	4,518951	6,159	108,4824	1,368	75,528	3,5	1005,58	8,1	9,8	9,7	1	1	1	1	1	1	1	1	1	0	1	-33,897111	275,424786	292,386412	0
14.01.2021	17:46:05	0	0	3,389214	6,09675	119,0736	1,362	75,522	3,5	1005,58	8	10	9,7	1	1	1	1	1	1	1	1	1	0	1	-36,15222	275,356188	289,806364	0
14.01.2021	17:46:06	0	0	3,841132	6,04425	110,4372	1,37	75,519	3,5	1005,52	8	9,8	9,6	1	1	1	1	1	1	1	1	1	0	1	-28,541226	275,419992	297,719581	0
14.01.2021	17:46:07	0	0	3,728113	5,9895	111,42	1,369	75,518	3,5	1005,64	8	9,8	9,8	1	1	1	1	1	1	1	1	1	0	1	-29,31642	275,23237	296,056271	0
14.01.2021	17:46:08	0	0	3,050292	5,568	114,4872	1,37	75,512	3,5	1005,64	8,1	9,8	9,7	1	1	1	1	1	1	1	1	1	0	1	-29,386892	275,287832	296,248139	0
14.01.2021	17:46:09	0	0	3,954082	5,229	112,6404	1,363	75,506	3,5	1005,6	8	9,8	9,7	1	1	1	1	1	1	1	1	1	0	1	-31,853418	275,367339	294,157969	0
14.01.2021	17:46:10	0	0	3,615183	5,15325	111,4164	1,358	75,503	3,5	1005,44	8,1	10	9,6	1	1	1	1	1	1	1	1	1	0	1	-30,30303	275,235535	295,084627	0
14.01.2021	17:46:11	0	0	3,050311	5,40075	111,0672	1,363	75,494	3,5	1005,44	8	9,8	9,6	1	1	1	1	1	1	1	1	1	0	1	-32,55814	275,327545	293,264836	0
14.01.2021	17:46:12	0	0	3,728113	5,48775	109,9836	1,366	75,508	3,5	1005,52	8,1	9,8	9,8	1	1	1	1	1	1	1	1	1	0	1	-30,232558	275,410408	295,982839	0
14.01.2021	17:46:13	0	0	3,615161	5,5965	111,0996	1,366	75,498	3,5	1005,66	8,1	9,8	9,7	1	1	1	1	1	1	1	1	1	0	1	-31,289641	275,39285	294,842575	0
14.01.2021	17:46:14	0	0	4,405978	5,70225	111,0456	1,367	75,503	3,5	1005,58	8	10	9,7	1	1	1	1	1	1	1	1	1	0	1	-33,897111	275,38009	292,174666	0
14.01.2021	17:46:15	0	0	4,406004	5,46225	105,8904	1,362	75,511	3,5	1005,68	8	10	9,6	1	1	1	1	1	1	1	1	1	0	1	-29,739253	275,404022	296,445886	0
14.01.2021	17:46:16	0	0	4,405978	5,2755	104,49	1,366	75,499	3,5	1005,5	8	9,8	9,7	1	1	1	1	1	1	1	1	1	0	1	-33,403805	275,376902	292,652869	0
14.01.2021	17:46:17	0	0	2,711355	5,4285	109,2348	1,366	75,499	3,5	1005,58	8,1	9,8	9,8	1	1	1	1	1	1	1	1	1	0	1	-30,725863	275,399233	295,43659	0
14.01.2021	17:46:18	0	0	3,050292	5,439	105,1488	1,366	75,507	3,5	1005,58	8,1	9,8	9,7	1	1	1	1	1	1	1	1	1	0	1	-32,064834	275,24345	293,360252	0
14.01.2021	17:46:19	0	0	4,631925	5,38575	96,21	1,364	75,51	3,5	1005,58	8	9,8	9,7	1	1	1	1	1	1	1	1	1	0	1	-31,712474	275,351411	294,223492	0
14.01.2021	17:46:20	0	0	4,293004	5,4615	100,3572	1,363	75,516	3,5	1005,52	8,1	10	9,7	1	1	1	1	1	1	1	1	1	0	1	-35,095137	275,396041	291,052195	0
14.01.2021	17:46:21	0	0	4,18003	5,79075	105,1308	1,363	75,516	3,5	1005,54	8,1	10	9,7	1	1	1	1	1	1	1	1	1	0	1	-31,078224	275,349819	294,850204	0
14.01.2021	17:46:22	0	0	3,389214	5,8395	105,8796	1,366	75,522	3,5	1005,6	8,1	10	9,7	1	1	1	1	1	1	1	1	1	0	1	-31,712474	275,399233	294,449979	0
14.01.2021	17:46:23	0	0	4,29303	5,64	106,6824	1,364	75,516	3,5	1005,56	8	9,8	9,6	1	1	1	1	1	1	1	1	1	0	1	-35,940803	275,259289	289,559197	0
14.01.2021	17:46:24	0	0	4,067081	5,5485	105,5232	1,358	75,513	3,5	1005,68	8,1	10	9,6	1	1	1	1	1	1	1	1	1	0	1	-33,051445	275,400829	293,118569	0
14.01.2021	17:46:25	0	0	4,180005	5,24625	104,742	1,367	75,519	3,5	1005,64	8,1	10	9,8	1	1	1	1	1	1	1	1	1	0	1	-32,9105	275,257704	292,582005	0
14.01.2021	17:46:26	0	0	2,937318	5,40525	111,438	1,366	75,503	3,5	1005,62	8	10	9,7	1	1	1	1	1	1	1	1	1	0	1	-28,893587	275,310061	296,846636	0
14.01.2021	17:46:27	0	0	2,485423	5,511	103,6836	1,365	75,499	3,5	1005,64	8,1	9,8	9,7	1	1	1	1	1	1	1	1	1	0	1	-27,977449	275,251368	297,485085	0
14.01.2021	17:46:28	0	0	2,485423	5,62125	94,374	1,36	75,508	3,5	1005,7	8	9,8	9,7	1	1	1	1	1	1	1	1	1	0	1	-34,460888	275,410408	291,754509	0
14.01.2021	17:46:29	0	0	4,518951	5,691	94,068	1,362	75,509	3,5	1005,68	8	9,8	9,7	1	1	1	1	1	1	1	1	1	0	1	-30,30303	275,34027	295,580186	0
14.01.2021	17:46:30	0	0	4,518979	5,55	91,1664	1,363	75,496	3,5	1005,52	8	10	9,6	1	1	1	1	1	1	1	1	1	0	1	-28,611698	275,249784	296,843344	0
14.01.2021	17:46:31	0	0	4,518979	5,229	88,9236	1,361	75,488	3,5	1005,6	8	9,8	9,6	1	1	1	1	1	1	1	1	1	0	1	-30,021142	275,245033	295,411433	0
14.01.2021	17:46:32	0	0	4,518924	5,04675	84,3804	1,362	75,519	3,5	1005,58	8,1	9,8	9,8	1	1	1	1	1	1	1	1	1	0	1	-31,712474	275,291006	293,937576	0
14.01.2021	17:46:33	0	0	4,405978	5,055	84,4344	1,365	75,518	3,5	1005,6	8,1	9,8	9,7	1	1	1	1	1	1	1	1	1	0	1	-33,192389	275,404022	292,99275	0
14.01.2021	17:46:34	0	0	4,744871	4,812	96,2928	1,369	75,512	3,5	1005,46	8,1	9,8	9,8	1	1	1	1	1	1	1	1	1	0	1	-29,950669	275,376902	296,106005	0
14.01.2021	17:46:35	0	0	4,067081	4,56	99,162	1,361	75,513	3,5	1005,58	8	10	9,6	1	1	1	1	1	1	1	1	1	0	1	-31,289641	275,353003	294,653864	0
14.01.2021	17:46:36	0	0	2,711371	4,63125	100,3608	1,359	75,5	3,5	1005,5	8,1	10	9,7	1	1	1	1	1	1	1	1	1	0	1	-33,54475	275,404022	292,640389	0
14.01.2021	17:46:37	0	0	3,163266	4,79475	105,8724	1,365	75,526	3,5	1005,58	8,1	9,8	9,7	1	1	1	1	1	1	1	1	1	0	1	-30,866808	275,310061	294,873415	0
14.01.2021	17:46:38	0	0	3,954082	4,73025	95,8356	1,361	75,52	3,5	1005,56	8,1	9,8	9,7	1	1	1	1	1	1	1	1	1	0	1	-27,977449	275,37212	298,056578	0
14.01.2021	17:46:39	0	0	2,711387	4,47225	77,976	1,357	75,538	3,5	1005,48	8	9,8	9,6	1	1	1	1	1	1	1	1	1	0	1	-27,484144	275,251368	297,97839	0
14.01.2021	17:46:40	0	0	2,711371	4,39575	84,7764	1,363	75,538	3,5	1005,5	8,1	9,8	9,7	1	1	1	1	1	1	1	1	1	0	1	-30,021142	275,370526	296,005338	0
14.01.2021	17:46:41	0	0	4,744899	4,374	74,16	1,364	75,545	3,5	1005,62	8,1	10	9,7	1	1	1	1	1	1	1	1	1	0	1	-28,752643	275,270384	296,799841	0
14.01.2021	17:46:42	0	0	2,937318	4,59075	76,4676	1,37	75,559	3,5	1005,5	8	10	9,7	1	1	1	1	1	1	1	1	1	0	1	-27,484144	275,413603	298,746387	0
14.01.2021	17:46:43	0	0	4,631953	5,085	88,9416	1,363	75,531	3,5	1005,52	8,1	9,8	9,6	1	1	1	1	1	1	1	1	1	0	1	-28,682171	275,298943	297,005438	0
14.01.2021	17:46:44	0	0	3,615161	5,22225	95,5368	1,361	75,553	3,5	1005,54	8,1	10	9,7	1	1	1	1	1	1	1	1	1	0	1	-29,809725	275,271969	295,750259	0
14.01.2021	17:46:45	0	0	3,728157	5,2155	91,9044	1,36	75,535	3,5	1005,58	8	10	9,6	1	1	1	1	1	1	1	1	1	0	1	-32,417195	275,413603	293,813336	0
14.01.2021	17:46:46	0	0	3,615183	5,5005	103,6944	1,362	75,562	3,5	1005,64	8,1	9,8	9,6	1	1	1	1	1	1	1	1	1	0	1	-29,386892	275,292593	296,270668	0
14.01.2021	17:46:47	0	0	4,293004	5,418	105,138	1,363	75,56	3,5	1005,52	8,1	9,8	9,7	1	1	1	1	1	1	1	1	1	0	1	-29,739253	275,416797	296,506415	0
14.01.2021	17:46:48	0	0	3,050292	5,1435	105,8724	1,363	75,572	3,5	1005,64	8,1	9,8	9,7	1	1	1	1	1	1	1	1	1	0	1	-30,584919	275,233953	294,795255	0
14.01.2021	17:46:49	0	0	3,954082	4,72875	97,6752	1,361	75,577	3,5	1005,56	8,1	9,8	9,7	1	1	1	1	1	1	1	1	1	0	1	-32,9105	275,354596	293,040544	0
14.01.2021	17:46:50	0	0	3,954106	4,782	101,8116	1,362	75,579	3,5	1005,5	8	9,8	9,6	1	1	1	1	1	1	1	1	1	0	1	-27,343199	275,259289	298,1568	0
14.01.2021	17:46:51	0	0	3,615139	4,75875	100,7496	1,36	75,579	3,5	1005,58	8	9,8	9,8	1	1	1	1	1	1	1	1	1	0	1	-31,501057	275,38009	294,57072	0
14.01.2021	17:46:52	0	0	3,728113	4,53825	86,9724	1,363	75,597	3,5	1005,54	8	10	9,8	1	1	1	1	1	1	1	1	1	0	1	-29,527837	275,298943	296,159772	0
14.01.2021	17:46:53	0	0	3,502187	4,02675	82,9692	1,364	75,602	3,5	1005,56	8,1	9,8	9,7	1	1	1	1	1	1	1	1	1	0	1	-33,615222	275,237118	291,77992	0
14.01.2021	17:46:54	0	0	3,954082	4,545	94,3704	1,367	75,594	3,5	1005,66	8,1	10	9,7	1	1	1	1	1	1	1	1	1	0	1	-34,883721	275,362559	291,105031	0
14.01.2021	17:46:55	0	0	2,824362	4,54725	105,9048	1,368	75,612	3,5	1005,48	8,1	9,8	9,6	1	1	1	1	1	1	1	1	1	0	1	-31,642001	275,383279	294,444881	0
14.01.2021	17:46:56	0	0	2,03354	4,69425	98,0964	1,36	75,604	3,5	1005,48	8,1	10	9,6	1	1	1	1	1	1	1	1	1	0	1	-32,346723	275,235535	293,040934	0
14.01.2021	17:46:57	0	0	4,631953	4,33275	87,3468	1,363	75,61	3,5	1005,56	8,1	10	9,6	1	1	1	1	1	1	1	1	1	0	1	-32,55814	275,364152	293,438157	0
14.01.2021	17:46:58	0	0	2,259476	4,31175	87,0048	1,363	75,6	3,5	1005,66	8	10	9,7	1	1	1	1	1	1	1	1	1	0	1	-29,598309	275,356188	296,360275	0
14.01.2021	17:46:59	0	0	2,485423	4,65675	101,1276	1,359	75,61	3,5	1005,62	8,1	9,8	9,7	1	1	1	1	1	1	1	1	1	0	1	-32,276251	275,418395	293,976987	0
14.01.2021	17:47:00	0	0	3,389214	4,93125	94,1004	1,366	75,607	3,5	1005,44	8,1	10	9,7	1	1	1	1	1	1	1	1	1	0	1	-32,769556	275,310061	292,970667	0
14.01.2021	17:47:01	0	0	3,389214	4,93125	94,1004	1,366	75,607	3,5	1005,44	8,1	10	9,7	1	1	1	1	1	1	1	1	1	0	1	-32,769556	275,310061	292,970667	0
14.01.2021	17:47:02	0	0	3,389214	4,96575	98,0496	1,362	75,604	3,5	1005,38	8,1	10	9,7	1	1	1	1	1	1	1	1	1	0	1	-32,417195	275,245033	293,015379	0
14.01.2021	17:47:03	0	0	3,389214	5,15925	113,0292	1,366	75,599	3,5	1005,56	8,1	9,8	9,7	1	1	1	1	1	1	1	1	1	0	1	-31,007752	275,276727	294,574739	0
14.01.2021	17:47:04	0	0	4,631925	5,22675	95,8464	1,361	75,6	3,5	1005,34	8	9,8	9,7	1	1	1	1	1	1	1	1	1	0	1	-30,232558	275,386469	295,869432	0
14.01.2021	17:47:05	0	0	4,29303	5,35575	107,7408	1,364	75,603	3,5	1005,52	8,1	9,8	9,6	1	1	1	1	1	1	1	1	1	0	1	-25,369979	275,241867	300,04762	0
14.01.2021	17:47:06	0	0	2,824345	6,12075	89,7192	1,363	75,576	3,5	1005,56	8,1	10	9,7	1	1	1	1	1	1	1	1	1	0	1	-28,752643	275,257704	296,739862	0
14.01.2021	17:47:07	0	0	4,180055	6,024	93,3192	1,365	75,587	3,5	1005,34	8	10	9,6	1	1	1	1	1	1	1	1	1	0	1	-26,215645	275,238701	299,186982	0
14.01.2021	17:47:08	0	0	4,631953	6,291	104,0256	1,364	75,595	3,5	1005,52	8,1	9,8	9,6	1	1	1	1	1	1	1	1	1	0	1	-31,92389	275,407215	294,276377	0
14.01.2021	17:47:09	0	0	4,405978	6,20625	95,1444	1,367	75,588	3,5	1005,52	8	10	9,7	1	1	1	1	1	1	1	1	1	0	1	-34,249471	275,319595	291,535878	0
14.01.2021	17:47:10	0	0	2,711371	6,01125	95,1192	1,365	75,581	3,5	1005,56	8,1	9,8	9,7	1	1	1	1	1	1	1	1	1	0	1	-32,135307	275,292593	293,522254	0
14.01.2021	17:47:11	0	0	3,954106	5,92875	101,1276	1,367	75,569	3,5	1005,6	8,1	9,8	9,6	1	1	1	1	1	1	1	1	1	0	1	-29,668781	275,413603	296,56175	0
14.01.2021	17:47:12	0	0	3,615139	5,47275	99,1512	1,364	75,564	3,5	1005,52	8,1	9,8	9,8	1	1	1	1	1	1	1	1	1	0	1	-30,655391	275,319595	295,129958	0
14.01.2021	17:47:13	0	0	4,29303	5,37525	107,4276	1,364	75,559	3,5	1005,72	8	10	9,6	1	1	1	1	1	1	1	1	1	0	1	-27,625088	275,418395	298,628149	0
14.01.2021	17:47:14	0	0	2,598397	5,34075	111,06	1,36	75,548	3,5	1005,48	8,1	9,8	9,7	1	1	1	1	1	1	1	1	1	0	1	-27,906977	275,29418	297,758094	0
14.01.2021	17:47:15	0	0	2,598397	5,30775	111,8052	1,363	75,551	3,5	1005,58	8	9,8	9,7	1	1	1	1	1	1	1	1	1	0	1	-30,443975	275,327545	295,379001	0
14.01.2021	17:47:16	0	0	4,067081	5,01225	105,1308	1,365	75,546	3,5	1005,52	8,1	9,8	9,6	1	1	1	1	1	1	1	1	1	0	1	-32,699084	275,276727	292,883407	0
14.01.2021	17:47:17	0	0	2,824328	5,2305	99,1512	1,372	75,543	3,5	1005,5	8	9,8	9,8	1	1	1	1	1	1	1	1	1	0	1	-29,105004	275,412005	297,11796	0
14.01.2021	17:47:18	0	0	3,389214	5,4165	101,8332	1,365	75,553	3,5	1005,64	8,1	10	9,7	1	1	1	1	1	1	1	1	1	0	1	-29,034531	275,292593	296,623029	0
14.01.2021	17:47:19	0	0	4,857902	5,19	98,7444	1,369	75,538	3,5	1005,54	8,1	9,8	9,6	1	1	1	1	1	1	1	1	1	0	1	-31,289641	275,316417	294,480663	0
14.01.2021	17:47:20	0	0	4,180055	5,22825	90,792	1,367	75,562	3,5	1005,64	8	9,8	9,6	1	1	1	1	1	1	1	1	1	0	1	-29,809725	275,249784	295,645318	0
14.01.2021	17:47:21	0	0	4,18003	5,241	95,832	1,369	75,565	3,5	1005,4	8,1	9,8	9,7	1	1	1	1	1	1	1	1	1	0	1	-29,31642	275,2482	296,131133	0
14.01.2021	17:47:22	0	0	3,389193	5,04	97,308	1,371	75,552	3,5	1005,64	8,1	9,8	9,8	1	1	1	1	1	1	1	1	1	0	1	-35,095137	275,356188	290,863447	0
14.01.2021	17:47:23	0	0	3,276259	4,9005	94,068	1,364	75,548	3,5	1005,58	8,1	10	9,6	1	1	1	1	1	1	1	1	1	0	1	-34,53136	275,42159	291,737019	0
14.01.2021	17:47:24	0	0	2,824328	4,896	98,082	1,368	75,547	3,5	1005,54	8	9,8	9,8	1	1	1	1	1	1	1	1	1	0	1	-31,219168	275,260873	294,288327	0
14.01.2021	17:47:25	0	0	4,518951	4,8915	102,5928	1,367	75,526	3,5	1005,44	8	9,8	9,7	1	1	1	1	1	1	1	1	1	0	1	-28,611698	275,305295	297,105971	0
14.01.2021	17:47:26	0	0	3,615161	4,91025	101,4912	1,375	75,551	3,5	1005,52	8	9,8	9,7	1	1	1	1	1	1	1	1	1	0	1	-30,866808	275,251368	294,595726	0
14.01.2021	17:47:27	0	0	4,405978	4,81725	101,0916	1,374	75,536	3,5	1005,42	8	9,8	9,7	1	1	1	1	1	1	1	1	1	0	1	-28,470754	275,416797	297,774914	0
14.01.2021	17:47:28	0	0	4,744927	4,57275	109,638	1,369	75,52	3,5	1005,66	8,1	9,8	9,6	1	1	1	1	1	1	1	1	1	0	1	-30,655391	275,305295	295,062278	0
14.01.2021	17:47:29	0	0	2,711371	4,51875	118,3032	1,365	75,518	3,5	1005,54	8,1	9,8	9,7	1	1	1	1	1	1	1	1	1	0	1	-30,725863	275,240284	294,684249	0
14.01.2021	17:47:30	0	0	2,937318	4,30725	108,4788	1,374	75,505	3,5	1005,44	8,1	9,8	9,7	1	1	1	1	1	1	1	1	1	0	1	-30,162086	275,370526	295,864394	0
14.01.2021	17:47:31	0	0	3,841132	4,206	115,5816	1,374	75,51	3,5	1005,54	8,1	9,8	9,6	1	1	1	1	1	1	1	1	1	0	1	-34,390416	275,257704	291,102089	0
14.01.2021	17:47:32	0	0	4,857902	4,15575	116,3268	1,375	75,491	3,5	1005,44	8,1	9,8	9,6	1	1	1	1	1	1	1	1	1	0	1	-26,638478	275,429581	299,667767	0
14.01.2021	17:47:33	0	0	4,744899	4,11825	105,12	1,369	75,475	3,5	1005,52	8,1	10	9,7	1	1	1	1	1	1	1	1	1	0	1	-31,92389	275,356188	294,034694	0
14.01.2021	17:47:34	0	0	2,937318	4,2195	108,1332	1,375	75,481	3,5	1005,66	8,1	9,8	9,7	1	1	1	1	1	1	1	1	1	0	1	-30,655391	275,251368	294,807143	0
14.01.2021	17:47:35	0	0	3,502187	4,5165	108,468	1,367	75,467	3,5	1005,5	8,1	10	9,7	1	1	1	1	1	1	1	1	1	0	1	-30,232558	275,384874	295,861878	0
14.01.2021	17:47:36	0	0	2,937336	4,60425	100,386	1,373	75,443	3,5	1005,58	8,1	10	9,6	1	1	1	1	1	1	1	1	1	0	1	-31,430585	275,4152	294,807514	0
14.01.2021	17:47:37	0	0	2,372449	4,6575	113,3892	1,374	75,453	3,5	1005,66	8,1	10	9,7	1	1	1	1	1	1	1	1	1	0	1	-29,880197	275,435976	296,456355	0
14.01.2021	17:47:38	0	0	2,824328	4,51725	95,1156	1,384	75,443	3,5	1005,48	8,1	10	9,8	1	1	1	1	1	1	1	1	1	0	1	-28,823115	275,322775	296,977283	0
14.01.2021	17:47:39	0	0	2,824345	4,3545	104,0328	1,376	75,43	3,5	1005,56	8,1	9,8	9,7	1	1	1	1	1	1	1	1	1	0	1	-31,92389	275,254536	293,553628	0
14.01.2021	17:47:40	0	0	3,389193	4,005	101,1168	1,375	75,436	3,5	1005,56	8	9,8	9,8	1	1	1	1	1	1	1	1	1	0	1	-33,756166	275,443973	292,618286	0
14.01.2021	17:47:41	0	0	3,163266	3,99525	87,3576	1,378	75,414	3,5	1005,58	8,1	9,8	9,7	1	1	1	1	1	1	1	1	1	0	1	-31,148696	275,394446	294,991078	0
14.01.2021	17:47:42	0	0	2,598397	4,002	96,1956	1,38	75,404	3,5	1005,7	8,1	9,8	9,7	1	1	1	1	1	1	1	1	1	0	1	-30,514447	275,440774	295,844843	0
14.01.2021	17:47:43	0	0	2,937318	4,113	91,9692	1,38	75,405	3,5	1005,56	8,1	9,8	9,7	1	1	1	1	1	1	1	1	1	0	1	-27,906977	275,341861	297,983773	0
14.01.2021	17:47:44	0	0	3,841109	4,4475	94,3956	1,377	75,394	3,5	1005,56	8	10	9,7	1	1	1	1	1	1	1	1	1	0	1	-29,668781	275,402425	296,508795	0
14.01.2021	17:47:45	0	0	5,196825	4,48875	96,2208	1,377	75,377	3,5	1005,52	8	9,8	9,6	1	1	1	1	1	1	1	1	1	0	1	-28,259338	275,424786	298,024185	0
14.01.2021	17:47:46	0	0	3,502166	4,284	89,7012	1,371	75,358	3,5	1005,3	8,1	9,8	9,8	1	1	1	1	1	1	1	1	1	0	1	-30,30303	275,286245	295,324493	0
14.01.2021	17:47:47	0	0	4,518951	4,38	88,2	1,38	75,37	3,5	1005,52	8,1	10	9,7	1	1	1	1	1	1	1	1	1	0	1	-30,232558	275,259289	295,267442	0
14.01.2021	17:47:48	0	0	3,728113	4,56	84,4164	1,381	75,356	3,5	1005,48	8,1	9,8	9,8	1	1	1	1	1	1	1	1	1	0	1	-32,9105	275,456775	293,524632	0
14.01.2021	17:47:49	0	0	3,502187	4,90725	88,9416	1,377	75,358	3,5	1005,64	8,1	9,8	9,7	1	1	1	1	1	1	1	1	1	0	1	-30,725863	275,346636	295,187491	0
14.01.2021	17:47:50	0	0	3,389214	5,03175	86,6448	1,379	75,339	3,5	1005,52	8,1	9,8	9,7	1	1	1	1	1	1	1	1	1	0	1	-29,245948	275,303707	296,464205	0
14.01.2021	17:47:51	0	0	4,518951	5,109	89,7048	1,379	75,334	3,5	1005,54	8,1	9,8	9,7	1	1	1	1	1	1	1	1	1	0	1	-31,501057	275,265628	294,028929	0
14.01.2021	17:47:52	0	0	2,711371	4,91925	91,512	1,385	75,334	3,5	1005,48	8,1	9,8	9,7	1	1	1	1	1	1	1	1	1	0	1	-29,880197	275,289419	295,762343	0
14.01.2021	17:47:53	0	0	4,406004	4,599	96,1848	1,379	75,325	3,5	1005,74	8,1	10	9,6	1	1	1	1	1	1	1	1	1	0	1	-27,906977	275,302119	297,795661	0
14.01.2021	17:47:54	0	0	4,744899	4,43475	96,5916	1,393	75,316	3,5	1005,6	8,1	9,8	9,7	1	1	1	1	1	1	1	1	1	0	1	-29,31642	275,271969	296,243564	0
14.01.2021	17:47:55	0	0	3,841132	4,38675	92,6424	1,376	75,311	3,5	1005,58	8,1	9,8	9,6	1	1	1	1	1	1	1	1	1	0	1	-30,162086	275,427983	296,136584	0
14.01.2021	17:47:56	0	0	3,841132	4,30425	98,7444	1,381	75,306	3,5	1005,52	8,1	9,8	9,6	1	1	1	1	1	1	1	1	1	0	1	-36,293164	275,325954	289,522284	0
14.01.2021	17:47:57	0	0	3,728135	4,104	95,4972	1,377	75,303	3,5	1005,54	8,1	9,8	9,7	1	1	1	1	1	1	1	1	1	0	1	-29,598309	275,429581	296,707937	0
14.01.2021	17:47:58	0	0	4,744927	4,10625	94,392	1,378	75,281	3,5	1005,6	8,1	9,8	9,6	1	1	1	1	1	1	1	1	1	0	1	-33,121917	275,394446	293,017857	0
14.01.2021	17:47:59	0	0	3,841109	4,047	91,8792	1,382	75,297	3,5	1005,54	8,1	10	9,7	1	1	1	1	1	1	1	1	1	0	1	-31,007752	275,292593	294,649808	0
14.01.2021	17:48:00	0	0	2,937318	4,77075	81,1584	1,384	75,294	3,5	1005,56	8,1	10	9,7	1	1	1	1	1	1	1	1	1	0	1	-30,443975	275,29418	295,221097	0
14.01.2021	17:48:01	0	0	2,485423	4,8645	97,3188	1,381	75,287	3,5	1005,44	8,1	10	9,7	1	1	1	1	1	1	1	1	1	0	1	-29,527837	275,287832	296,107195	0
14.01.2021	17:48:02	0	0	2,485423	4,8645	97,3188	1,381	75,287	3,5	1005,44	8,1	10	9,7	1	1	1	1	1	1	1	1	1	0	1	-29,527837	275,287832	296,107195	0
14.01.2021	17:48:03	0	0	4,518951	4,653	94,3704	1,386	75,291	3,5	1005,62	8	10	9,7	1	1	1	1	1	1	1	1	1	0	1	-26,70895	275,257704	298,783555	0
14.01.2021	17:48:04	0	0	4,406004	4,04025	97,7112	1,379	75,266	3,5	1005,42	8,1	9,8	9,6	1	1	1	1	1	1	1	1	1	0	1	-27,413672	275,359373	298,559995	0
14.01.2021	17:48:05	0	0	3,615183	3,9135	88,5852	1,381	75,277	3,5	1005,5	8,1	10	9,6	1	1	1	1	1	1	1	1	1	0	1	-31,148696	275,270384	294,403787	0
14.01.2021	17:48:06	0	0	3,841109	3,91725	90,72	1,387	75,275	3,5	1005,56	8,1	9,8	9,7	1	1	1	1	1	1	1	1	1	0	1	-26,849894	275,279899	298,747604	0
14.01.2021	17:48:07	0	0	4,067032	4,13025	84,0312	1,384	75,275	3,5	1005,54	8	9,8	9,8	1	1	1	1	1	1	1	1	1	0	1	-30,584919	275,316417	295,185385	0
14.01.2021	17:48:08	0	0	3,27624	4,82325	84,402	1,381	75,251	3,5	1005,32	8,1	10	9,7	1	1	1	1	1	1	1	1	1	0	1	-33,121917	275,273555	292,445569	0
14.01.2021	17:48:09	0	0	3,841086	5,0025	81,1872	1,385	75,265	3,5	1005,56	8,1	9,8	9,8	1	1	1	1	1	1	1	1	1	0	1	-27,413672	275,260873	298,093824	0
14.01.2021	17:48:10	0	0	3,841086	4,9485	95,1012	1,384	75,25	3,5	1005,5	8,1	9,8	9,8	1	1	1	1	1	1	1	1	1	0	1	-31,430585	275,365745	294,573256	0
14.01.2021	17:48:11	0	0	2,598397	5,01375	88,092	1,379	75,25	3,5	1005,58	8,1	9,8	9,7	1	1	1	1	1	1	1	1	1	0	1	-27,484144	275,2482	297,963409	0
14.01.2021	17:48:12	0	0	4,29303	5,02125	82,3356	1,381	75,252	3,5	1005,5	8,1	10	9,6	1	1	1	1	1	1	1	1	1	0	1	-28,893587	275,295768	296,778996	0
14.01.2021	17:48:13	0	0	3,841109	5,25075	88,0668	1,386	75,25	3,5	1005,52	8,1	9,8	9,7	1	1	1	1	1	1	1	1	1	0	1	-30,021142	275,364152	295,975155	0
14.01.2021	17:48:14	0	0	2,259489	5,39475	85,5108	1,386	75,23	3,5	1005,56	8	9,8	9,6	1	1	1	1	1	1	1	1	1	0	1	-28,752643	275,251368	296,709891	0
14.01.2021	17:48:15	0	0	2,711371	5,409	67,9968	1,385	75,246	3,5	1005,54	8,1	10	9,7	1	1	1	1	1	1	1	1	1	0	1	-26,497533	275,267213	299,039951	0
14.01.2021	17:48:16	0	0	3,841132	5,25975	75,2328	1,376	75,238	3,5	1005,48	8	9,8	9,6	1	1	1	1	1	1	1	1	1	0	1	-30,091614	275,316417	295,67869	0
14.01.2021	17:48:17	0	0	3,389234	4,83225	87,7104	1,384	75,245	3,5	1005,44	8,1	10	9,6	1	1	1	1	1	1	1	1	1	0	1	-28,682171	275,25612	296,802841	0
14.01.2021	17:48:18	0	0	4,518979	4,4745	95,5116	1,378	75,245	3,5	1005,52	8	10	9,6	1	1	1	1	1	1	1	1	1	0	1	-29,880197	275,368932	296,138735	0
14.01.2021	17:48:19	0	0	3,954059	4,14	90,3492	1,379	75,25	3,5	1005,38	8,1	9,8	9,8	1	1	1	1	1	1	1	1	1	0	1	-27,343199	275,399233	298,819254	0
14.01.2021	17:48:20	0	0	4,631953	4,2525	93,0744	1,382	75,247	3,5	1005,44	8,1	10	9,6	1	1	1	1	1	1	1	1	1	0	1	-30,091614	275,416797	296,154054	0
14.01.2021	17:48:21	0	0	3,163247	4,07775	90,7812	1,389	75,243	3,5	1005,64	8,1	9,8	9,8	1	1	1	1	1	1	1	1	1	0	1	-30,796335	275,246617	294,643728	0
14.01.2021	17:48:22	0	0	4,857873	4,31025	83,7144	1,389	75,239	3,5	1005,54	8,1	9,8	9,7	1	1	1	1	1	1	1	1	1	0	1	-34,813249	275,412005	291,409715	0
14.01.2021	17:48:23	0	0	4,405951	4,5825	86,9652	1,382	75,245	3,5	1005,56	8,1	10	9,8	1	1	1	1	1	1	1	1	1	0	1	-27,061311	275,325954	298,754138	0
14.01.2021	17:48:24	0	0	4,292978	4,5225	87,7176	1,387	75,236	3,5	1005,42	8,1	10	9,8	1	1	1	1	1	1	1	1	1	0	1	-31,219168	275,251368	294,243365	0
14.01.2021	17:48:25	0	0	2,259476	4,62375	89,9928	1,382	75,235	3,5	1005,5	8,1	9,8	9,7	1	1	1	1	1	1	1	1	1	0	1	-34,249471	275,345044	291,656347	0
14.01.2021	17:48:26	0	0	4,518951	4,4835	90,7668	1,381	75,241	3,5	1005,5	8,1	9,8	9,7	1	1	1	1	1	1	1	1	1	0	1	-28,893587	275,240284	296,516525	0
14.01.2021	17:48:27	0	0	2,598381	4,04775	73,7784	1,38	75,229	3,5	1005,48	8	10	9,8	1	1	1	1	1	1	1	1	1	0	1	-28,611698	275,268798	296,933285	0
14.01.2021	17:48:28	0	0	2,598397	3,75375	96,6312	1,387	75,249	3,5	1005,44	8,1	10	9,7	1	1	1	1	1	1	1	1	1	0	1	-30,30303	275,360966	295,678179	0
14.01.2021	17:48:29	0	0	2,937301	3,693	95,1156	1,388	75,239	3,5	1005,5	8,1	9,8	9,8	1	1	1	1	1	1	1	1	1	0	1	-29,527837	275,404022	296,657302	0
14.01.2021	17:48:30	0	0	3,954106	3,54825	80,5212	1,39	75,239	3,5	1005,52	8	10	9,6	1	1	1	1	1	1	1	1	1	0	1	-30,162086	275,22446	295,173202	0
14.01.2021	17:48:31	0	0	3,502166	3,51075	102,5316	1,383	75,242	3,5	1005,46	8,1	9,8	9,8	1	1	1	1	1	1	1	1	1	0	1	-31,782946	275,333906	294,070144	0
14.01.2021	17:48:32	0	0	4,744927	3,522	95,8356	1,387	75,255	3,5	1005,52	8,1	9,8	9,6	1	1	1	1	1	1	1	1	1	0	1	-29,598309	275,251368	295,864225	0
14.01.2021	17:48:33	0	0	3,954082	3,471	75,6144	1,385	75,24	3,5	1005,56	8,1	10	9,7	1	1	1	1	1	1	1	1	1	0	1	-27,554616	275,386469	298,547374	0
14.01.2021	17:48:34	0	0	4,405978	3,5265	101,8044	1,384	75,231	3,5	1005,5	8,1	10	9,7	1	1	1	1	1	1	1	1	1	0	1	-30,93728	275,230788	294,427929	0
14.01.2021	17:48:35	0	0	3,163247	3,7245	82,3428	1,384	75,261	3,5	1005,58	8,1	10	9,8	1	1	1	1	1	1	1	1	1	0	1	-26,990839	275,292593	298,666721	0
14.01.2021	17:48:36	0	0	2,711355	3,8055	95,8104	1,387	75,252	3,5	1005,52	8,1	10	9,8	1	1	1	1	1	1	1	1	1	0	1	-26,920366	275,235535	298,467291	0
14.01.2021	17:48:37	0	0	4,518951	4,032	97,6932	1,383	75,243	3,5	1005,56	8,1	10	9,7	1	1	1	1	1	1	1	1	1	0	1	-27,625088	275,238701	297,777539	0
14.01.2021	17:48:38	0	0	3,389193	4,092	105,984	1,385	75,256	3,5	1005,54	8	10	9,8	1	1	1	1	1	1	1	1	1	0	1	-29,105004	275,402425	297,072573	0
14.01.2021	17:48:39	0	0	3,050311	4,3005	95,5152	1,384	75,242	3,5	1005,42	8,1	10	9,6	1	1	1	1	1	1	1	1	1	0	1	-29,034531	275,268798	296,510452	0
14.01.2021	17:48:40	0	0	3,163285	4,67925	92,2536	1,381	75,256	3,5	1005,64	8	10	9,6	1	1	1	1	1	1	1	1	1	0	1	-31,92389	275,276727	293,6586	0
14.01.2021	17:48:41	0	0	4,29303	4,482	98,748	1,383	75,247	3,5	1005,52	8	9,8	9,6	1	1	1	1	1	1	1	1	1	0	1	-30,514447	275,238701	294,88818	0
14.01.2021	17:48:42	0	0	3,728113	4,434	99,9252	1,388	75,244	3,5	1005,5	8,1	9,8	9,8	1	1	1	1	1	1	1	1	1	0	1	-30,373502	275,341861	295,517247	0
14.01.2021	17:48:43	0	0	2,937336	4,7085	106,2612	1,389	75,257	3,5	1005,6	8,1	10	9,6	1	1	1	1	1	1	1	1	1	0	1	-33,474278	275,237118	291,920864	0
14.01.2021	17:48:44	0	0	3,389214	4,7445	99,9072	1,382	75,232	3,5	1005,38	8,1	9,8	9,7	1	1	1	1	1	1	1	1	1	0	1	-30,021142	275,297355	295,658954	0
14.01.2021	17:48:45	0	0	2,598397	4,94325	100,7604	1,385	75,245	3,5	1005,68	8	10	9,7	1	1	1	1	1	1	1	1	1	0	1	-27,554616	275,241867	297,862983	0
14.01.2021	17:48:46	0	0	3,615183	4,99125	98,7732	1,38	75,235	3,5	1005,66	8,1	10	9,6	1	1	1	1	1	1	1	1	1	0	1	-31,148696	275,318006	294,62913	0
14.01.2021	17:48:47	0	0	4,406004	4,875	94,77	1,38	75,225	3,5	1005,32	8,1	10	9,6	1	1	1	1	1	1	1	1	1	0	1	-28,541226	275,222878	296,786583	0
14.01.2021	17:48:48	0	0	4,18003	4,746	109,9692	1,376	75,228	3,5	1005,44	8,1	9,8	9,7	1	1	1	1	1	1	1	1	1	0	1	-28,118393	275,345044	297,787425	0
14.01.2021	17:48:49	0	0	2,372449	4,93275	108,4896	1,379	75,227	3,5	1005,7	8	10	9,7	1	1	1	1	1	1	1	1	1	0	1	-30,514447	275,402425	295,663129	0
14.01.2021	17:48:50	0	0	2,824345	5,1315	113,418	1,382	75,25	3,5	1005,54	8,1	10	9,7	1	1	1	1	1	1	1	1	1	0	1	-26,215645	275,289419	299,426895	0
14.01.2021	17:48:51	0	0	3,163285	5,12625	105,5052	1,381	75,256	3,5	1005,62	8	9,8	9,6	1	1	1	1	1	1	1	1	1	0	1	-31,219168	275,351411	294,716797	0
14.01.2021	17:48:52	0	0	2,485423	5,334	102,1752	1,387	75,297	3,5	1005,68	8,1	9,8	9,7	1	1	1	1	1	1	1	1	1	0	1	-30,30303	275,413603	295,927501	0
14.01.2021	17:48:53	0	0	3,728135	5,09025	109,242	1,382	75,271	3,5	1005,5	8,1	10	9,7	1	1	1	1	1	1	1	1	1	0	1	-24,806202	275,31165	300,94154	0
14.01.2021	17:48:54	0	0	3,615161	4,67175	112,6584	1,384	75,278	3,5	1005,5	8,1	10	9,7	1	1	1	1	1	1	1	1	1	0	1	-29,386892	275,391255	296,737766	0
14.01.2021	17:48:55	0	0	2,711355	4,6605	101,484	1,383	75,289	3,5	1005,38	8,1	9,8	9,8	1	1	1	1	1	1	1	1	1	0	1	-31,782946	275,257704	293,709559	0
14.01.2021	17:48:56	0	0	3,615161	4,98225	118,3392	1,384	75,302	3,5	1005,38	8,1	10	9,7	1	1	1	1	1	1	1	1	1	0	1	-24,312896	275,346636	301,600458	0
14.01.2021	17:48:57	0	0	4,631925	5,076	118,3176	1,38	75,301	3,5	1005,38	8,1	10	9,7	1	1	1	1	1	1	1	1	1	0	1	-31,007752	275,402425	295,169824	0
14.01.2021	17:48:58	0	0	3,276259	5,115	105,1164	1,385	75,311	3,5	1005,7	8,1	10	9,6	1	1	1	1	1	1	1	1	1	0	1	-27,413672	275,360966	298,567538	0
14.01.2021	17:48:59	0	0	4,744899	4,99575	105,876	1,385	75,311	3,5	1005,46	8,1	10	9,7	1	1	1	1	1	1	1	1	1	0	1	-27,69556	275,264043	297,826928	0
14.01.2021	17:49:00	0	0	3,841109	4,602	115,9704	1,384	75,29	3,5	1005,48	8,1	9,8	9,7	1	1	1	1	1	1	1	1	1	0	1	-25,651868	275,283072	299,960642	0
14.01.2021	17:49:01	0	0	2,598381	4,6365	109,2132	1,402	75,319	3,5	1005,66	8,1	10	9,8	1	1	1	1	1	1	1	1	1	0	1	-27,977449	275,405618	298,215253	0
14.01.2021	17:49:02	0	0	2,598381	4,6365	109,2132	1,402	75,319	3,5	1005,66	8,1	10	9,8	1	1	1	1	1	1	1	1	1	0	1	-27,977449	275,405618	298,215253	0
14.01.2021	17:49:03	0	0	2,598397	4,38075	105,894	1,381	75,3	3,5	1005,52	8,1	9,8	9,7	1	1	1	1	1	1	1	1	1	0	1	-29,598309	275,365745	296,405532	0
14.01.2021	17:49:04	0	0	4,744871	4,39875	106,2864	1,383	75,31	3,5	1005,52	8,1	10	9,8	1	1	1	1	1	1	1	1	1	0	1	-31,219168	275,356188	294,739416	0
14.01.2021	17:49:05	0	0	4,067056	4,398	109,2096	1,386	75,289	3,5	1005,48	8,1	10	9,7	1	1	1	1	1	1	1	1	1	0	1	-28,400282	275,412005	297,822682	0
14.01.2021	17:49:06	0	0	4,405951	4,3335	77,1984	1,384	75,313	3,5	1005,46	8,1	10	9,8	1	1	1	1	1	1	1	1	1	0	1	-31,853418	275,313239	293,901844	0
14.01.2021	17:49:07	0	0	3,728135	4,326	91,1736	1,384	75,309	3,5	1005,58	8,1	10	9,7	1	1	1	1	1	1	1	1	1	0	1	-25,08809	275,400829	301,081924	0
14.01.2021	17:49:08	0	0	2,937318	4,05	82,4292	1,384	75,306	3,5	1005,68	8,1	10	9,7	1	1	1	1	1	1	1	1	1	0	1	-25,792812	275,262458	299,72218	0
14.01.2021	17:49:09	0	0	3,728135	3,849	89,7048	1,384	75,322	3,5	1005,5	8,1	10	9,7	1	1	1	1	1	1	1	1	1	0	1	-32,55814	275,286245	293,069384	0
14.01.2021	17:49:10	0	0	4,405978	3,66975	90,3888	1,381	75,332	3,5	1005,52	8	9,8	9,7	1	1	1	1	1	1	1	1	1	0	1	-29,527837	275,233953	295,852337	0
14.01.2021	17:49:11	0	0	3,27622	3,402	90,0396	1,381	75,331	3,5	1005,3	8,1	10	9,8	1	1	1	1	1	1	1	1	1	0	1	-31,289641	275,338679	294,586043	0
14.01.2021	17:49:12	0	0	3,954059	3,30825	98,7696	1,374	75,319	3,5	1005,56	8,1	10	9,8	1	1	1	1	1	1	1	1	1	0	1	-30,373502	275,404022	295,811636	0
14.01.2021	17:49:13	0	0	3,389234	3,47475	104,4324	1,378	75,319	3,5	1005,5	8	9,8	9,6	1	1	1	1	1	1	1	1	1	0	1	-27,836505	275,333906	298,016585	0
14.01.2021	17:49:14	0	0	4,067032	3,5835	95,1372	1,387	75,328	3,5	1005,64	8,1	9,8	9,8	1	1	1	1	1	1	1	1	1	0	1	-30,584919	275,4152	295,65318	0
14.01.2021	17:49:15	0	0	3,502187	3,45525	99,1224	1,38	75,324	3,5	1005,56	8,1	9,8	9,7	1	1	1	1	1	1	1	1	1	0	1	-29,950669	275,357781	296,015456	0
14.01.2021	17:49:16	0	0	4,067032	3,4635	119,7864	1,379	75,319	3,5	1005,6	8,1	9,8	9,8	1	1	1	1	1	1	1	1	1	0	1	-31,078224	275,357781	294,887901	0
14.01.2021	17:49:17	0	0	2,259476	3,41175	99,54	1,385	75,32	3,5	1005,58	8,1	9,8	9,7	1	1	1	1	1	1	1	1	1	0	1	-28,118393	275,238701	297,284233	0
14.01.2021	17:49:18	0	0	4,518951	3,315	102,204	1,376	75,313	3,5	1005,46	8,1	9,8	9,7	1	1	1	1	1	1	1	1	1	0	1	-29,739253	275,354596	296,211791	0
14.01.2021	17:49:19	0	0	3,502187	3,402	113,0472	1,387	75,304	3,5	1005,58	8,1	9,8	9,7	1	1	1	1	1	1	1	1	1	0	1	-27,202255	275,364152	298,794041	0
14.01.2021	17:49:20	0	0	2,485408	3,27675	115,9596	1,378	75,301	3,5	1005,4	8	9,8	9,8	1	1	1	1	1	1	1	1	1	0	1	-27,413672	275,410408	298,801726	0
14.01.2021	17:49:21	0	0	2,598397	3,222	112,6548	1,385	75,298	3,5	1005,6	8	10	9,7	1	1	1	1	1	1	1	1	1	0	1	-29,105004	275,276727	296,477487	0
14.01.2021	17:49:22	0	0	3,728113	3,339	104,058	1,384	75,293	3,5	1005,58	8,1	9,8	9,8	1	1	1	1	1	1	1	1	1	0	1	-31,360113	275,306884	294,365074	0
14.01.2021	17:49:23	0	0	3,276259	3,31875	106,6968	1,384	75,28	3,5	1005,5	8,1	10	9,6	1	1	1	1	1	1	1	1	1	0	1	-28,541226	275,230788	296,823982	0
14.01.2021	17:49:24	0	0	4,744899	3,19875	104,7096	1,379	75,286	3,5	1005,22	8	10	9,7	1	1	1	1	1	1	1	1	1	0	1	-32,628612	275,359373	293,345055	0
14.01.2021	17:49:25	0	0	2,485423	3,42075	109,62	1,384	75,283	3,5	1005,42	8,1	9,8	9,7	1	1	1	1	1	1	1	1	1	0	1	-31,501057	275,284658	294,118959	0
14.01.2021	17:49:26	0	0	4,518951	3,4545	94,7808	1,386	75,278	3,5	1005,54	8,1	9,8	9,7	1	1	1	1	1	1	1	1	1	0	1	-29,527837	275,412005	296,695127	0
14.01.2021	17:49:27	0	0	4,857873	3,3705	113,0544	1,388	75,265	3,5	1005,6	8,1	9,8	9,7	1	1	1	1	1	1	1	1	1	0	1	-32,205779	275,346636	293,707576	0
14.01.2021	17:49:28	0	0	3,954082	3,3615	107,0532	1,387	75,266	3,5	1005,2	8	10	9,7	1	1	1	1	1	1	1	1	1	0	1	-30,373502	275,23237	294,999188	0
14.01.2021	17:49:29	0	0	4,180005	3,78225	101,1132	1,386	75,266	3,5	1005,42	8,1	9,8	9,8	1	1	1	1	1	1	1	1	1	0	1	-27,343199	275,292593	298,314361	0
14.01.2021	17:49:30	0	0	4,405978	3,78675	107,4276	1,38	75,24	3,5	1005,54	8	10	9,7	1	1	1	1	1	1	1	1	1	0	1	-29,880197	275,383279	296,206685	0
14.01.2021	17:49:31	0	0	3,050292	3,852	99,5364	1,384	75,258	3,5	1005,66	8,1	9,8	9,7	1	1	1	1	1	1	1	1	1	0	1	-28,32981	275,404022	297,855329	0
14.01.2021	17:49:32	0	0	2,598397	4,032	102,9816	1,377	75,25	3,5	1005,48	8	9,8	9,7	1	1	1	1	1	1	1	1	1	0	1	-31,994362	275,25612	293,490649	0
14.01.2021	17:49:33	0	0	2,485438	4,1295	101,1204	1,381	75,235	3,5	1005,56	8,1	10	9,6	1	1	1	1	1	1	1	1	1	0	1	-30,443975	275,241867	294,973624	0
14.01.2021	17:49:34	0	0	3,389214	4,017	101,826	1,387	75,259	3,5	1005,52	8	10	9,7	1	1	1	1	1	1	1	1	1	0	1	-29,457364	275,4152	296,780735	0
14.01.2021	17:49:35	0	0	2,824345	3,67125	101,4912	1,389	75,263	3,5	1005,44	8,1	10	9,7	1	1	1	1	1	1	1	1	1	0	1	-24,242424	275,335497	301,618196	0
14.01.2021	17:49:36	0	0	4,405978	3,23025	97,7292	1,386	75,251	3,5	1005,48	8	10	9,7	1	1	1	1	1	1	1	1	1	0	1	-31,994362	275,407215	294,205904	0
14.01.2021	17:49:37	0	0	3,728113	3,09375	91,17	1,383	75,267	3,5	1005,54	8	9,8	9,8	1	1	1	1	1	1	1	1	1	0	1	-27,272727	275,254536	298,204791	0
14.01.2021	17:49:38	0	0	4,518951	3,20775	90,0216	1,387	75,268	3,5	1005,54	8	9,8	9,7	1	1	1	1	1	1	1	1	1	0	1	-31,430585	275,292593	294,226975	0
14.01.2021	17:49:39	0	0	2,598381	3,28725	86,6448	1,38	75,273	3,5	1005,44	8	10	9,8	1	1	1	1	1	1	1	1	1	0	1	-30,655391	275,21181	294,62009	0
14.01.2021	17:49:40	0	0	3,27624	3,35325	98,46	1,384	75,274	3,5	1005,6	8,1	10	9,7	1	1	1	1	1	1	1	1	1	0	1	-31,219168	275,337088	294,648983	0
14.01.2021	17:49:41	0	0	2,485408	3,49575	99,126	1,386	75,271	3,5	1005,52	8,1	9,8	9,8	1	1	1	1	1	1	1	1	1	0	1	-30,866808	275,402425	295,310769	0
14.01.2021	17:49:42	0	0	4,067081	3,9075	96,2316	1,379	75,252	3,5	1005,48	8	10	9,6	1	1	1	1	1	1	1	1	1	0	1	-31,360113	275,229206	293,997615	0
14.01.2021	17:49:43	0	0	4,292978	3,91725	98,478	1,382	75,252	3,5	1005,54	8,1	10	9,8	1	1	1	1	1	1	1	1	1	0	1	-31,078224	275,276727	294,504266	0
14.01.2021	17:49:44	0	0	2,033528	3,588	102,672	1,381	75,241	3,5	1005,64	8,1	9,8	9,7	1	1	1	1	1	1	1	1	1	0	1	-31,078224	275,389659	295,038877	0
14.01.2021	17:49:45	0	0	4,744899	3,22125	81,9612	1,385	75,254	3,5	1005,4	8	10	9,7	1	1	1	1	1	1	1	1	1	0	1	-32,628612	275,357781	293,337513	0
14.01.2021	17:49:46	0	0	2,937318	3,21825	87,7356	1,378	75,229	3,5	1005,6	8,1	9,8	9,7	1	1	1	1	1	1	1	1	1	0	1	-27,413672	275,345044	298,492147	0
14.01.2021	17:49:47	0	0	3,389214	3,3465	96,2028	1,379	75,233	3,5	1005,52	8,1	9,8	9,7	1	1	1	1	1	1	1	1	1	0	1	-30,866808	275,262458	294,648184	0
14.01.2021	17:49:48	0	0	4,18003	3,198	101,502	1,383	75,247	3,5	1005,5	8,1	10	9,7	1	1	1	1	1	1	1	1	1	0	1	-30,584919	275,397637	295,569974	0
14.01.2021	17:49:49	0	0	3,954082	3,135	115,2216	1,376	75,242	3,5	1005,48	8	9,8	9,7	1	1	1	1	1	1	1	1	1	0	1	-29,245948	275,25612	296,239063	0
14.01.2021	17:49:50	0	0	3,27624	3,15675	99,54	1,383	75,254	3,5	1005,52	8,1	9,8	9,7	1	1	1	1	1	1	1	1	1	0	1	-26,356589	275,259289	299,143411	0
14.01.2021	17:49:51	0	0	2,937336	3,3735	110,4408	1,384	75,258	3,5	1005,46	8,1	9,8	9,6	1	1	1	1	1	1	1	1	1	0	1	-31,712474	275,378496	294,351752	0
14.01.2021	17:49:52	0	0	3,728135	3,39825	101,826	1,377	75,248	3,5	1005,48	8,1	9,8	9,7	1	1	1	1	1	1	1	1	1	0	1	-28,611698	275,229206	296,746029	0
14.01.2021	17:49:53	0	0	4,180005	3,237	93,312	1,386	75,256	3,5	1005,58	8	10	9,8	1	1	1	1	1	1	1	1	1	0	1	-25,581395	275,22446	299,753892	0
14.01.2021	17:49:54	0	0	4,293004	3,1275	106,308	1,383	75,265	3,5	1005,38	8,1	9,8	9,7	1	1	1	1	1	1	1	1	1	0	1	-32,980973	275,281485	292,624031	0
14.01.2021	17:49:55	0	0	4,405978	2,9775	111,4056	1,377	75,242	3,5	1005,56	8,1	10	9,7	1	1	1	1	1	1	1	1	1	0	1	-29,598309	275,238701	295,804318	0
14.01.2021	17:49:56	0	0	3,728113	3,0495	102,5676	1,381	75,272	3,5	1005,54	8,1	9,8	9,8	1	1	1	1	1	1	1	1	1	0	1	-33,333333	275,262458	292,181658	0
14.01.2021	17:49:57	0	0	2,824345	3,3375	105,1272	1,383	75,274	3,5	1005,64	8	10	9,7	1	1	1	1	1	1	1	1	1	0	1	-27,061311	275,402425	299,116265	0
14.01.2021	17:49:58	0	0	3,163266	3,354	125,7732	1,378	75,262	3,5	1005,58	8	10	9,7	1	1	1	1	1	1	1	1	1	0	1	-27,131783	275,295768	298,5408	0
14.01.2021	17:49:59	0	0	2,598381	3,47925	117,7812	1,379	75,286	3,5	1005,62	8	9,8	9,8	1	1	1	1	1	1	1	1	1	0	1	-30,232558	275,407215	295,967708	0
14.01.2021	17:50:00	0	0	4,292978	4,371	98,0748	1,379	75,284	3,5	1005,44	8,1	9,8	9,8	1	1	1	1	1	1	1	1	1	0	1	-29,386892	275,357781	296,579233	0
14.01.2021	17:50:01	0	0	4,405978	4,719	105,8796	1,381	75,27	3,5	1005,56	8,1	10	9,7	1	1	1	1	1	1	1	1	1	0	1	-28,611698	275,391255	297,51296	0
14.01.2021	17:50:02	0	0	4,405978	4,719	105,8796	1,381	75,27	3,5	1005,56	8,1	10	9,7	1	1	1	1	1	1	1	1	1	0	1	-28,611698	275,391255	297,51296	0
14.01.2021	17:50:03	0	0	3,502166	4,449	98,46	1,377	75,281	3,5	1005,52	8,1	9,8	9,8	1	1	1	1	1	1	1	1	1	0	1	-24,524313	275,341861	301,366437	0
14.01.2021	17:50:04	0	0	4,631925	3,8835	97,7076	1,38	75,282	3,5	1005,52	8	9,8	9,7	1	1	1	1	1	1	1	1	1	0	1	-25,299507	275,219715	300,013348	0
14.01.2021	17:50:05	0	0	4,18003	3,43875	123,4584	1,381	75,276	3,5	1005,38	8,1	10	9,7	1	1	1	1	1	1	1	1	1	0	1	-32,487667	275,281485	293,117336	0
14.01.2021	17:50:06	0	0	2,711371	3,288	107,1432	1,378	75,264	3,5	1005,38	8,1	10	9,7	1	1	1	1	1	1	1	1	1	0	1	-26,990839	275,235535	298,396819	0
14.01.2021	17:50:07	0	0	3,954059	3,3795	108,5004	1,38	75,278	3,5	1005,48	8	10	9,8	1	1	1	1	1	1	1	1	1	0	1	-26,497533	275,383279	299,589349	0
14.01.2021	17:50:08	0	0	3,615161	3,27225	60,9768	1,379	75,282	3,5	1005,42	8	9,8	9,7	1	1	1	1	1	1	1	1	1	0	1	-29,105004	275,281485	296,5	0
14.01.2021	17:50:09	0	0	4,293004	3,21675	113,0112	1,378	75,268	3,5	1005,48	8	9,8	9,7	1	1	1	1	1	1	1	1	1	0	1	-26,427061	275,408812	299,78077	0
14.01.2021	17:50:10	0	0	3,728135	3,2085	107,1576	1,378	75,267	3,5	1005,48	8	10	9,7	1	1	1	1	1	1	1	1	1	0	1	-28,682171	275,310061	297,058052	0
14.01.2021	17:50:11	0	0	2,824328	3,37125	108,8748	1,379	75,257	3,5	1005,64	8,1	10	9,8	1	1	1	1	1	1	1	1	1	0	1	-26,427061	275,397637	299,727831	0
14.01.2021	17:50:12	0	0	4,631897	3,72525	112,2588	1,381	75,27	3,5	1005,54	8	10	9,8	1	1	1	1	1	1	1	1	1	0	1	-27,554616	275,367339	298,456771	0
14.01.2021	17:50:13	0	0	3,389193	4,011	111,0384	1,374	75,284	3,5	1005,46	8,1	10	9,8	1	1	1	1	1	1	1	1	1	0	1	-29,880197	275,332316	295,965363	0
14.01.2021	17:50:14	0	0	3,050274	4,10925	114,48	1,374	75,274	3,5	1005,58	8,1	9,8	9,8	1	1	1	1	1	1	1	1	1	0	1	-29,245948	275,381685	296,833381	0
14.01.2021	17:50:15	0	0	2,485438	4,71525	113,724	1,374	75,291	3,5	1005,5	8	10	9,6	1	1	1	1	1	1	1	1	1	0	1	-33,54475	275,376902	292,511925	0
14.01.2021	17:50:16	0	0	4,067032	5,715	109,9512	1,374	75,277	3,5	1005,56	8	9,8	9,8	1	1	1	1	1	1	1	1	1	0	1	-26,215645	275,276727	299,366846	0
14.01.2021	17:50:17	0	0	4,631925	6,26325	119,7648	1,372	75,261	3,5	1005,56	8	9,8	9,7	1	1	1	1	1	1	1	1	1	0	1	-32,135307	275,375307	293,913818	0
14.01.2021	17:50:18	0	0	4,744899	5,958	117,774	1,377	75,269	3,5	1005,66	8	10	9,7	1	1	1	1	1	1	1	1	1	0	1	-26,145173	275,362559	299,84358	0
14.01.2021	17:50:19	0	0	4,293004	5,733	115,1424	1,372	75,275	3,5	1005,58	8	9,8	9,7	1	1	1	1	1	1	1	1	1	0	1	-25,510923	275,273555	300,056562	0
14.01.2021	17:50:20	0	0	3,27622	5,4375	95,8284	1,377	75,268	3,5	1005,5	8	9,8	9,8	1	1	1	1	1	1	1	1	1	0	1	-29,245948	275,37212	296,788079	0
14.01.2021	17:50:21	0	0	2,485408	5,30925	107,856	1,377	75,277	3,5	1005,54	8	10	9,8	1	1	1	1	1	1	1	1	1	0	1	-27,836505	275,237118	297,558637	0
14.01.2021	17:50:22	0	0	4,857873	5,1855	121,9608	1,376	75,278	3,5	1005,5	8	9,8	9,7	1	1	1	1	1	1	1	1	1	0	1	-29,386892	275,295768	296,285691	0
14.01.2021	17:50:23	0	0	3,502208	5,736	122,3928	1,38	75,3	3,5	1005,68	8	9,8	9,6	1	1	1	1	1	1	1	1	1	0	1	-32,487667	275,381685	293,591662	0
14.01.2021	17:50:24	0	0	2,711387	6,078	124,2972	1,374	75,3	3,5	1005,72	8	9,8	9,6	1	1	1	1	1	1	1	1	1	0	1	-32,205779	275,273555	293,361707	0
14.01.2021	17:50:25	0	0	4,18003	6,11325	126,5292	1,374	75,306	3,5	1005,6	8	9,8	9,7	1	1	1	1	1	1	1	1	1	0	1	-29,739253	275,21181	295,536228	0
14.01.2021	17:50:26	0	0	4,631953	6,00075	122,706	1,376	75,312	3,5	1005,36	8	9,8	9,6	1	1	1	1	1	1	1	1	1	0	1	-31,078224	275,34027	294,804992	0
14.01.2021	17:50:27	0	0	2,598397	6,0045	113,436	1,37	75,327	3,5	1005,6	8	9,8	9,7	1	1	1	1	1	1	1	1	1	0	1	-34,178999	275,373713	291,862576	0
14.01.2021	17:50:28	0	0	4,405978	5,8785	111,438	1,373	75,334	3,5	1005,62	8	9,8	9,7	1	1	1	1	1	1	1	1	1	0	1	-31,92389	275,389659	294,193211	0
14.01.2021	17:50:29	0	0	3,276259	5,415	105,84	1,372	75,339	3,5	1005,56	8	9,8	9,6	1	1	1	1	1	1	1	1	1	0	1	-25,72234	275,316417	300,047964	0
14.01.2021	17:50:30	0	0	3,615183	5,62275	106,7076	1,368	75,349	3,5	1005,44	8	10	9,6	1	1	1	1	1	1	1	1	1	0	1	-31,360113	275,19601	293,840676	0
14.01.2021	17:50:31	0	0	4,406004	5,5305	104,7636	1,374	75,354	3,5	1005,34	8	9,8	9,6	1	1	1	1	1	1	1	1	1	0	1	-30,443975	275,233953	294,936199	0
14.01.2021	17:50:32	0	0	4,405978	5,085	111,0456	1,372	75,365	3,5	1005,32	8	10	9,7	1	1	1	1	1	1	1	1	1	0	1	-27,061311	275,357781	298,904814	0
14.01.2021	17:50:33	0	0	2,485408	4,8705	109,5948	1,371	75,373	3,5	1005,68	8	9,8	9,8	1	1	1	1	1	1	1	1	1	0	1	-32,346723	275,381685	293,732606	0
14.01.2021	17:50:34	0	0	4,180005	4,88775	113,4252	1,374	75,365	3,5	1005,48	8	9,8	9,8	1	1	1	1	1	1	1	1	1	0	1	-24,806202	275,227624	300,544045	0
14.01.2021	17:50:35	0	0	2,824345	4,941	118,7064	1,369	75,381	3,5	1005,48	8	9,8	9,7	1	1	1	1	1	1	1	1	1	0	1	-26,286117	275,2482	299,161436	0
14.01.2021	17:50:36	0	0	4,518951	4,73325	117,774	1,376	75,387	3,5	1005,54	8	10	9,7	1	1	1	1	1	1	1	1	1	0	1	-27,272727	275,356188	298,685857	0
14.01.2021	17:50:37	0	0	3,728135	4,653	112,6476	1,372	75,386	3,5	1005,54	8	10	9,7	1	1	1	1	1	1	1	1	1	0	1	-32,346723	275,349819	293,581705	0
14.01.2021	17:50:38	0	0	2,937318	4,4385	110,664	1,373	75,395	3,5	1005,44	8	9,8	9,7	1	1	1	1	1	1	1	1	1	0	1	-26,356589	275,286245	299,270934	0
14.01.2021	17:50:39	0	0	4,518924	4,39425	110,6856	1,369	75,394	3,5	1005,64	8	10	9,8	1	1	1	1	1	1	1	1	1	0	1	-25,510923	275,353003	300,432581	0
14.01.2021	17:50:40	0	0	3,728135	4,3845	87,7464	1,372	75,412	3,5	1005,68	8	10	9,7	1	1	1	1	1	1	1	1	1	0	1	-25,158562	275,229206	300,199165	0
14.01.2021	17:50:41	0	0	4,631925	3,95325	125,0604	1,368	75,411	3,5	1005,56	8	9,8	9,7	1	1	1	1	1	1	1	1	1	0	1	-26,286117	275,237118	299,109025	0
14.01.2021	17:50:42	0	0	4,518924	3,894	113,04	1,36	75,397	3,5	1005,48	8	9,8	9,8	1	1	1	1	1	1	1	1	1	0	1	-23,537703	275,19601	301,663087	0
14.01.2021	17:50:43	0	0	3,27624	3,9465	115,5672	1,372	75,419	3,5	1005,44	8	10	9,7	1	1	1	1	1	1	1	1	1	0	1	-31,642001	275,31165	294,10574	0
14.01.2021	17:50:44	0	0	4,18003	3,7965	106,2864	1,364	75,415	3,5	1005,54	8	9,8	9,7	1	1	1	1	1	1	1	1	1	0	1	-26,990839	275,367339	299,020548	0
14.01.2021	17:50:45	0	0	2,824345	3,669	103,6908	1,363	75,428	3,5	1005,56	8	10	9,7	1	1	1	1	1	1	1	1	1	0	1	-27,202255	275,370526	298,824224	0
14.01.2021	17:50:46	0	0	4,631925	3,55725	101,1348	1,363	75,435	3,5	1005,5	8	9,8	9,7	1	1	1	1	1	1	1	1	1	0	1	-27,906977	275,313239	297,848285	0
14.01.2021	17:50:47	0	0	2,937318	3,48	107,4312	1,367	75,446	3,5	1005,54	8	10	9,7	1	1	1	1	1	1	1	1	1	0	1	-30,93728	275,191272	294,241116	0
14.01.2021	17:50:48	0	0	2,372435	3,393	92,2572	1,371	75,438	3,5	1005,54	8,1	9,8	9,8	1	1	1	1	1	1	1	1	1	0	1	-31,148696	275,226042	294,194071	0
14.01.2021	17:50:49	0	0	4,293004	3,33525	102,2112	1,367	75,438	3,5	1005,38	8	9,8	9,7	1	1	1	1	1	1	1	1	1	0	1	-31,078224	275,367339	294,933162	0
14.01.2021	17:50:50	0	0	4,631925	3,582	106,3044	1,368	75,451	3,5	1005,5	8	10	9,7	1	1	1	1	1	1	1	1	1	0	1	-29,31642	275,240284	296,093692	0
14.01.2021	17:50:51	0	0	4,518951	3,60525	107,0172	1,363	75,462	3,5	1005,5	8	9,8	9,7	1	1	1	1	1	1	1	1	1	0	1	-29,598309	275,329135	296,232194	0
14.01.2021	17:50:52	0	0	3,502187	3,4905	89,9784	1,374	75,452	3,5	1005,44	8	10	9,7	1	1	1	1	1	1	1	1	1	0	1	-29,175476	275,208649	296,085061	0
14.01.2021	17:50:53	0	0	2,598397	3,52425	89,7156	1,371	75,438	3,5	1005,38	8	9,8	9,7	1	1	1	1	1	1	1	1	1	0	1	-24,453841	275,305295	301,263829	0
14.01.2021	17:50:54	0	0	4,631925	3,35775	100,3536	1,373	75,463	3,5	1005,58	8	10	9,7	1	1	1	1	1	1	1	1	1	0	1	-29,105004	275,365745	296,898837	0
14.01.2021	17:50:55	0	0	3,615161	3,4035	114,8472	1,371	75,468	3,5	1005,62	8	9,8	9,7	1	1	1	1	1	1	1	1	1	0	1	-26,70895	275,291006	298,9411	0
14.01.2021	17:50:56	0	0	2,711387	3,471	104,0688	1,372	75,457	3,5	1005,6	8	9,8	9,6	1	1	1	1	1	1	1	1	1	0	1	-29,175476	275,175489	295,928324	0
14.01.2021	17:50:57	0	0	2,485438	3,567	110,6676	1,367	75,458	3,5	1005,48	8	9,8	9,6	1	1	1	1	1	1	1	1	1	0	1	-27,061311	275,310061	298,678912	0
14.01.2021	17:50:58	0	0	5,196794	3,56625	96,9516	1,369	75,473	3,5	1005,52	8	9,8	9,7	1	1	1	1	1	1	1	1	1	0	1	-27,906977	275,170756	297,174459	0
14.01.2021	17:50:59	0	0	4,067056	3,5235	102,5676	1,368	75,474	3,5	1005,32	8	9,8	9,7	1	1	1	1	1	1	1	1	1	0	1	-31,92389	275,229206	293,433837	0
14.01.2021	17:51:00	0	0	3,954082	3,4905	103,2768	1,362	75,479	3,5	1005,44	8	10	9,7	1	1	1	1	1	1	1	1	1	0	1	-29,668781	275,310061	296,071442	0
14.01.2021	17:51:01	0	0	4,970847	3,6435	111,4164	1,363	75,481	3,5	1005,38	8	9,8	9,7	1	1	1	1	1	1	1	1	1	0	1	-26,004228	275,329135	299,826275	0
14.01.2021	17:51:02	0	0	4,970847	3,6435	111,4164	1,363	75,481	3,5	1005,38	8	9,8	9,7	1	1	1	1	1	1	1	1	1	0	1	-26,004228	275,329135	299,826275	0
14.01.2021	17:51:03	0	0	2,711371	3,465	113,7348	1,37	75,484	3,5	1005,54	8	9,8	9,7	1	1	1	1	1	1	1	1	1	0	1	-28,541226	275,343452	297,357057	0
14.01.2021	17:51:04	0	0	3,841109	3,492	133,0884	1,368	75,493	3,5	1005,32	8	9,8	9,7	1	1	1	1	1	1	1	1	1	0	1	-27,69556	275,226042	297,647207	0
14.01.2021	17:51:05	0	0	2,937318	3,7335	99,918	1,369	75,503	3,5	1005,56	8	9,8	9,7	1	1	1	1	1	1	1	1	1	0	1	-26,849894	275,172334	298,238995	0
14.01.2021	17:51:06	0	0	2,711371	3,921	111,06	1,363	75,496	3,5	1005,62	8	10	9,7	1	1	1	1	1	1	1	1	1	0	1	-26,920366	275,291006	298,729683	0
14.01.2021	17:51:07	0	0	3,27624	4,4085	103,7088	1,361	75,499	3,5	1005,54	8	9,8	9,7	1	1	1	1	1	1	1	1	1	0	1	-28,611698	275,346636	297,301656	0
14.01.2021	17:51:08	0	0	4,518951	4,49025	118,3392	1,36	75,495	3,5	1005,48	8	9,8	9,7	1	1	1	1	1	1	1	1	1	0	1	-25,933756	275,308472	299,798948	0
14.01.2021	17:51:09	0	0	4,744899	4,167	108,8748	1,362	75,488	3,5	1005,54	8	9,8	9,7	1	1	1	1	1	1	1	1	1	0	1	-28,400282	275,300531	297,294841	0
14.01.2021	17:51:10	0	0	4,18003	3,95925	104,7456	1,363	75,5	3,5	1005,36	8	9,8	9,7	1	1	1	1	1	1	1	1	1	0	1	-26,70895	275,365745	299,294891	0
14.01.2021	17:51:11	0	0	4,857873	3,618	113,4288	1,359	75,507	3,5	1005,34	8	9,8	9,7	1	1	1	1	1	1	1	1	1	0	1	-31,360113	275,275141	294,214875	0
14.01.2021	17:51:12	0	0	3,954082	3,4695	122,3892	1,365	75,521	3,5	1005,56	8	9,8	9,7	1	1	1	1	1	1	1	1	1	0	1	-26,779422	275,343452	299,118862	0
14.01.2021	17:51:13	0	0	2,485423	3,61125	117,4068	1,36	75,506	3,5	1005,52	8	9,8	9,7	1	1	1	1	1	1	1	1	1	0	1	-25,229035	275,306884	300,496152	0
14.01.2021	17:51:14	0	0	4,18003	3,846	118,7316	1,36	75,522	3,5	1005,5	8	9,8	9,7	1	1	1	1	1	1	1	1	1	0	1	-29,809725	275,349819	296,118703	0
14.01.2021	17:51:15	0	0	4,067056	3,90975	120,9168	1,362	75,521	3,5	1005,46	8	9,8	9,7	1	1	1	1	1	1	1	1	1	0	1	-26,427061	275,313239	299,328201	0
14.01.2021	17:51:16	0	0	4,067056	3,94275	107,4204	1,36	75,529	3,5	1005,44	8	9,8	9,7	1	1	1	1	1	1	1	1	1	0	1	-28,964059	275,278313	296,625935	0
14.01.2021	17:51:17	0	0	2,824328	3,8745	104,0508	1,363	75,531	3,5	1005,48	8	9,8	9,8	1	1	1	1	1	1	1	1	1	0	1	-28,893587	275,310061	296,846636	0
14.01.2021	17:51:18	0	0	4,067056	3,8535	103,6908	1,362	75,527	3,5	1005,4	8	10	9,7	1	1	1	1	1	1	1	1	1	0	1	-26,990839	275,322775	298,809559	0
14.01.2021	17:51:19	0	0	4,631925	3,87825	110,6748	1,355	75,531	3,5	1005,42	8	9,8	9,7	1	1	1	1	1	1	1	1	1	0	1	-25,933756	275,314828	299,829026	0
14.01.2021	17:51:20	0	0	3,954082	3,7065	102,9528	1,36	75,538	3,5	1005,52	8	9,8	9,7	1	1	1	1	1	1	1	1	1	0	1	-27,131783	275,34027	298,751433	0
14.01.2021	17:51:21	0	0	3,728135	3,38925	101,7972	1,363	75,542	3,5	1005,56	8	9,9	9,7	1	1	1	1	1	1	1	1	1	0	1	-29,809725	275,333906	296,043365	0
14.01.2021	17:51:22	0	0	4,18003	3,13875	83,3148	1,364	75,548	3,5	1005,56	8	9,8	9,7	1	1	1	1	1	1	1	1	1	0	1	-28,188865	275,226042	297,153901	0
14.01.2021	17:51:23	0	0	4,293004	2,8965	92,3184	1,361	75,547	3,5	1005,38	8	9,8	9,7	1	1	1	1	1	1	1	1	1	0	1	-31,642001	275,21023	293,626007	0
14.01.2021	17:51:24	0	0	2,824345	2,94075	106,29	1,36	75,548	3,5	1005,52	8	9,8	9,7	1	1	1	1	1	1	1	1	1	0	1	-31,289641	275,226042	294,053126	0
14.01.2021	17:51:25	0	0	2,485423	3,26775	108,1368	1,354	75,55	3,5	1005,44	8	9,8	9,7	1	1	1	1	1	1	1	1	1	0	1	-27,272727	275,325954	298,542721	0
14.01.2021	17:51:26	0	0	2,824345	3,40275	98,4204	1,358	75,561	3,5	1005,5	8	9,9	9,7	1	1	1	1	1	1	1	1	1	0	1	-27,625088	275,275141	297,9499	0
14.01.2021	17:51:27	0	0	3,954082	3,47175	100,3572	1,35	75,568	3,5	1005,42	8	9,8	9,7	1	1	1	1	1	1	1	1	1	0	1	-27,484144	275,154989	297,522791	0
14.01.2021	17:51:28	0	0	2,598397	3,44475	112,2912	1,359	75,576	3,5	1005,58	8	9,8	9,7	1	1	1	1	1	1	1	1	1	0	1	-27,484144	275,227624	297,866103	0
14.01.2021	17:51:29	0	0	3,27624	3,24525	105,1092	1,359	75,576	3,5	1005,48	8	9,8	9,7	1	1	1	1	1	1	1	1	1	0	1	-26,70895	275,332316	299,13661	0
14.01.2021	17:51:30	0	0	3,389214	3,552	105,8616	1,357	75,582	3,5	1005,46	8	9,8	9,7	1	1	1	1	1	1	1	1	1	0	1	-28,400282	275,287832	297,23475	0
14.01.2021	17:51:31	0	0	4,518951	3,72525	107,4276	1,365	75,593	3,5	1005,66	8	9,8	9,7	1	1	1	1	1	1	1	1	1	0	1	-28,964059	275,173911	296,132285	0
14.01.2021	17:51:32	0	0	3,728135	3,657	112,662	1,357	75,599	3,5	1005,46	8	9,8	9,7	1	1	1	1	1	1	1	1	1	0	1	-26,990839	275,139235	297,941669	0
14.01.2021	17:51:33	0	0	4,631925	3,53475	108,1224	1,358	75,593	3,5	1005,5	8	9,8	9,7	1	1	1	1	1	1	1	1	1	0	1	-29,245948	275,203909	295,992178	0
14.01.2021	17:51:34	0	0	2,824345	3,2625	89,9712	1,357	75,599	3,5	1005,58	8	9,8	9,7	1	1	1	1	1	1	1	1	1	0	1	-34,108527	275,164448	290,943099	0
14.01.2021	17:51:35	0	0	2,598397	3,27375	93,6864	1,358	75,611	3,5	1005,6	8	9,8	9,7	1	1	1	1	1	1	1	1	1	0	1	-28,32981	275,219715	296,983045	0
14.01.2021	17:51:36	0	0	4,067056	3,22275	91,1484	1,357	75,594	3,5	1005,42	8	9,8	9,7	1	1	1	1	1	1	1	1	1	0	1	-26,286117	275,166025	298,772961	0
14.01.2021	17:51:37	0	0	4,631925	3,429	102,9492	1,358	75,612	3,5	1005,5	8	9,8	9,7	1	1	1	1	1	1	1	1	1	0	1	-31,360113	275,291006	294,289937	0
14.01.2021	17:51:38	0	0	3,050292	3,55125	105,516	1,355	75,613	3,5	1005,56	8	9,8	9,7	1	1	1	1	1	1	1	1	1	0	1	-27,554616	275,278313	298,035378	0
14.01.2021	17:51:39	0	0	4,857873	3,7185	96,9732	1,354	75,618	3,5	1005,54	8	9,9	9,7	1	1	1	1	1	1	1	1	1	0	1	-26,568006	275,338679	299,307678	0
14.01.2021	17:51:40	0	0	2,937318	3,80775	95,5152	1,357	75,62	3,5	1005,66	8	9,8	9,7	1	1	1	1	1	1	1	1	1	0	1	-29,105004	275,291006	296,545046	0
14.01.2021	17:51:41	0	0	4,744899	3,65625	107,8668	1,348	75,615	3,5	1005,44	8	9,8	9,7	1	1	1	1	1	1	1	1	1	0	1	-27,061311	275,341861	298,829439	0
14.01.2021	17:51:42	0	0	2,372449	3,708	115,5924	1,358	75,623	3,5	1005,44	8	9,8	9,7	1	1	1	1	1	1	1	1	1	0	1	-26,920366	275,283072	298,692143	0
14.01.2021	17:51:43	0	0	2,711371	3,66825	115,2216	1,356	75,633	3,5	1005,48	8	9,8	9,7	1	1	1	1	1	1	1	1	1	0	1	-30,232558	275,153413	294,766931	0
14.01.2021	17:51:44	0	0	4,631925	3,7965	64,26	1,35	75,63	3,5	1005,4	8	9,8	9,7	1	1	1	1	1	1	1	1	1	0	1	-29,31642	275,183379	295,824669	0
14.01.2021	17:51:45	0	0	2,824345	4,03125	98,4276	1,358	75,641	3,5	1005,46	8	9,9	9,7	1	1	1	1	1	1	1	1	1	0	1	-29,31642	275,162871	295,727756	0
14.01.2021	17:51:46	0	0	3,050292	4,29375	90,774	1,349	75,647	3,5	1005,52	8	9,8	9,7	1	1	1	1	1	1	1	1	1	0	1	-25,792812	275,172334	299,296078	0
14.01.2021	17:51:47	0	0	4,518951	4,4895	88,596	1,344	75,63	3,5	1005,46	8	9,8	9,7	1	1	1	1	1	1	1	1	1	0	1	-27,061311	275,203909	298,176815	0
14.01.2021	17:51:48	0	0	4,293004	4,97925	83,7252	1,347	75,645	3,5	1005,44	8	9,9	9,7	1	1	1	1	1	1	1	1	1	0	1	-27,906977	275,145535	297,055293	0
14.01.2021	17:51:49	0	0	3,502187	5,19075	65,9448	1,347	75,656	3,5	1005,5	8	9,8	9,7	1	1	1	1	1	1	1	1	1	0	1	-25,863284	275,178645	299,255429	0
14.01.2021	17:51:50	0	0	2,711371	5,90175	96,2208	1,351	75,674	3,5	1005,64	8	9,8	9,7	1	1	1	1	1	1	1	1	1	0	1	-27,272727	275,151838	297,719316	0
14.01.2021	17:51:51	0	0	2,824345	6,255	101,5056	1,352	75,678	3,5	1005,54	8	9,8	9,7	1	1	1	1	1	1	1	1	1	0	1	-31,360113	275,308472	294,372591	0
14.01.2021	17:51:52	0	0	4,293004	5,99175	110,7216	1,349	75,697	3,5	1005,44	8	9,8	9,7	1	1	1	1	1	1	1	1	1	0	1	-25,510923	275,279899	300,086575	0
14.01.2021	17:51:53	0	0	3,728135	5,72625	111,6504	1,356	75,697	3,5	1005,5	8	9,8	9,7	1	1	1	1	1	1	1	1	1	0	1	-28,752643	275,318006	297,025184	0
14.01.2021	17:51:54	0	0	4,293004	5,4555	105,516	1,349	75,701	3,5	1005,46	8	9,8	9,7	1	1	1	1	1	1	1	1	1	0	1	-27,343199	275,275141	298,231788	0
14.01.2021	17:51:55	0	0	3,615161	5,4465	115,218	1,352	75,714	3,5	1005,44	8	9,9	9,7	1	1	1	1	1	1	1	1	1	0	1	-30,584919	275,31165	295,162823	0
14.01.2021	17:51:56	0	0	3,502187	5,25975	112,698	1,35	75,727	3,5	1005,54	8	9,8	9,7	1	1	1	1	1	1	1	1	1	0	1	-27,836505	275,183379	297,304584	0
14.01.2021	17:51:57	0	0	3,841109	5,472	104,0616	1,351	75,732	3,5	1005,44	8	9,8	9,7	1	1	1	1	1	1	1	1	1	0	1	-26,356589	275,166025	298,702488	0
14.01.2021	17:51:58	0	0	3,954082	5,304	104,742	1,351	75,753	3,5	1005,52	8	9,9	9,7	1	1	1	1	1	1	1	1	1	0	1	-26,356589	275,177067	298,754667	0
14.01.2021	17:51:59	0	0	2,598397	5,32725	102,5712	1,352	75,761	3,5	1005,48	8	9,9	9,7	1	1	1	1	1	1	1	1	1	0	1	-28,188865	275,308472	297,543839	0
14.01.2021	17:52:00	0	0	4,405978	5,034	107,5356	1,35	75,761	3,5	1005,56	8	9,8	9,7	1	1	1	1	1	1	1	1	1	0	1	-26,779422	275,147111	298,19029	0
14.01.2021	17:52:01	0	0	2,711371	5,40975	102,5316	1,351	75,762	3,5	1005,54	8	9,9	9,7	1	1	1	1	1	1	1	1	1	0	1	-26,145173	275,164448	298,906454	0
14.01.2021	17:52:02	0	0	2,711371	5,40975	102,5316	1,351	75,762	3,5	1005,54	8	9,9	9,7	1	1	1	1	1	1	1	1	1	0	1	-26,145173	275,164448	298,906454	0
14.01.2021	17:52:03	0	0	4,518951	6,12	109,6344	1,346	75,769	3,5	1005,44	8	9,8	9,7	1	1	1	1	1	1	1	1	1	0	1	-32,55814	275,208649	292,702397	0
14.01.2021	17:52:04	0	0	3,389214	6,933	107,7264	1,344	75,781	3,5	1005,52	8	9,9	9,7	1	1	1	1	1	1	1	1	1	0	1	-25,651868	275,319595	300,133482	0
14.01.2021	17:52:05	0	0	2,824345	7,57575	103,2768	1,348	75,787	3,5	1005,62	8	9,9	9,7	1	1	1	1	1	1	1	1	1	0	1	-31,853418	275,270384	293,699066	0
14.01.2021	17:52:06	0	0	2,824345	7,11525	109,5732	1,346	75,792	3,5	1005,48	8	9,8	9,7	1	1	1	1	1	1	1	1	1	0	1	-26,004228	275,161295	299,032498	0
14.01.2021	17:52:07	0	0	2,937318	6,82275	111,8268	1,348	75,791	3,5	1005,38	8	9,9	9,7	1	1	1	1	1	1	1	1	1	0	1	-25,792812	275,19601	299,407977	0
14.01.2021	17:52:08	0	0	2,485423	6,69675	113,4396	1,349	75,804	3,5	1005,58	8	9,8	9,7	1	1	1	1	1	1	1	1	1	0	1	-28,470754	275,303707	297,239399	0
14.01.2021	17:52:09	0	0	2,824345	6,9165	105,102	1,351	75,813	3,5	1005,42	8	9,9	9,7	1	1	1	1	1	1	1	1	1	0	1	-29,034531	275,203909	296,203595	0
14.01.2021	17:52:10	0	0	3,502187	6,9405	109,2348	1,342	75,82	3,5	1005,44	8	9,8	9,7	1	1	1	1	1	1	1	1	1	0	1	-26,004228	275,153413	298,995261	0
14.01.2021	17:52:11	0	0	4,18003	6,9075	105,1236	1,347	75,852	3,5	1005,52	8	9,8	9,7	1	1	1	1	1	1	1	1	1	0	1	-24,242424	275,281485	301,362579	0
14.01.2021	17:52:12	0	0	2,372449	6,8835	112,7304	1,347	75,864	3,5	1005,44	8	9,8	9,7	1	1	1	1	1	1	1	1	1	0	1	-25,440451	275,332316	300,405109	0
14.01.2021	17:52:13	0	0	3,615161	6,9585	105,4836	1,348	75,867	3,5	1005,42	8	9,8	9,7	1	1	1	1	1	1	1	1	1	0	1	-24,242424	275,222878	301,085385	0
14.01.2021	17:52:14	0	0	2,259476	6,7905	109,3104	1,344	75,85	3,5	1005,44	8	9,8	9,7	1	1	1	1	1	1	1	1	1	0	1	-28,118393	275,327545	297,704582	0
14.01.2021	17:52:15	0	0	2,485423	6,69	109,2276	1,347	75,859	3,5	1005,44	8	9,8	9,7	1	1	1	1	1	1	1	1	1	0	1	-27,625088	275,268798	297,919896	0
14.01.2021	17:52:16	0	0	2,485423	6,387	120,4956	1,347	75,848	3,5	1005,38	8	9,9	9,7	1	1	1	1	1	1	1	1	1	0	1	-32,699084	275,329135	293,131419	0
14.01.2021	17:52:17	0	0	4,293004	5,901	88,1028	1,348	75,865	3,5	1005,44	8	9,9	9,7	1	1	1	1	1	1	1	1	1	0	1	-28,541226	275,188115	296,622245	0
14.01.2021	17:52:18	0	0	4,631925	6,0135	85,518	1,345	75,848	3,5	1005,46	8	9,9	9,7	1	1	1	1	1	1	1	1	1	0	1	-30,655391	275,313239	295,099871	0
14.01.2021	17:52:19	0	0	3,27624	6,47475	83,7036	1,345	75,843	3,5	1005,52	8	9,8	9,7	1	1	1	1	1	1	1	1	1	0	1	-30,091614	275,154989	294,915321	0
14.01.2021	17:52:20	0	0	3,728135	6,879	88,5564	1,341	75,848	3,5	1005,4	8	9,9	9,7	1	1	1	1	1	1	1	1	1	0	1	-23,46723	275,264043	302,055258	0
14.01.2021	17:52:21	0	0	2,711371	6,77925	98,1	1,344	75,821	3,5	1005,5	8	9,9	9,7	1	1	1	1	1	1	1	1	1	0	1	-31,92389	275,151838	293,068154	0
14.01.2021	17:52:22	0	0	2,824345	6,1665	95,4936	1,348	75,831	3,5	1005,56	8	9,8	9,7	1	1	1	1	1	1	1	1	1	0	1	-25,651868	275,278313	299,938127	0
14.01.2021	17:52:23	0	0	3,954082	6,15075	97,7076	1,349	75,821	3,5	1005,44	8	9,8	9,7	1	1	1	1	1	1	1	1	1	0	1	-29,809725	275,161295	295,227001	0
14.01.2021	17:52:24	0	0	4,067056	6,43725	100,3572	1,35	75,82	3,5	1005,52	8	9,9	9,7	1	1	1	1	1	1	1	1	1	0	1	-36,363636	275,300531	289,331486	0
14.01.2021	17:52:25	0	0	3,163266	7,1625	102,1536	1,343	75,823	3,5	1005,34	8	9,9	9,7	1	1	1	1	1	1	1	1	1	0	1	-30,584919	275,337088	295,283232	0
14.01.2021	17:52:26	0	0	4,18003	7,4115	99,8856	1,348	75,826	3,5	1005,4	8	9,8	9,7	1	1	1	1	1	1	1	1	1	0	1	-30,93728	275,305295	294,78039	0
14.01.2021	17:52:27	0	0	4,067056	7,57125	105,1452	1,348	75,83	3,5	1005,5	8	9,9	9,7	1	1	1	1	1	1	1	1	1	0	1	-28,682171	275,337088	297,185981	0
14.01.2021	17:52:28	0	0	3,615161	7,26825	94,3632	1,346	75,83	3,5	1005,44	8	9,9	9,7	1	1	1	1	1	1	1	1	1	0	1	-24,524313	275,205489	300,721283	0
14.01.2021	17:52:29	0	0	2,824345	7,32	103,2876	1,35	75,833	3,5	1005,5	8	9,9	9,7	1	1	1	1	1	1	1	1	1	0	1	-29,31642	275,222878	296,011389	0
14.01.2021	17:52:30	0	0	4,18003	7,08975	91,4832	1,348	75,844	3,5	1005,46	8	9,9	9,7	1	1	1	1	1	1	1	1	1	0	1	-28,541226	275,154989	296,465709	0
14.01.2021	17:52:31	0	0	4,405978	6,72375	90,0072	1,339	75,835	3,5	1005,4	8	9,9	9,7	1	1	1	1	1	1	1	1	1	0	1	-30,443975	275,327545	295,379001	0
14.01.2021	17:52:32	0	0	2,598397	6,37725	91,5264	1,341	75,842	3,5	1005,56	8	9,9	9,7	1	1	1	1	1	1	1	1	1	0	1	-27,554616	275,318006	298,22321	0
14.01.2021	17:52:33	0	0	2,937318	6,1005	92,6208	1,342	75,84	3,5	1005,48	8	9,9	9,7	1	1	1	1	1	1	1	1	1	0	1	-29,739253	275,218134	295,566125	0
14.01.2021	17:52:34	0	0	2,372449	5,8065	93,3228	1,346	75,823	3,5	1005,54	8	9,9	9,7	1	1	1	1	1	1	1	1	1	0	1	-26,920366	275,322775	298,880031	0
14.01.2021	17:52:35	0	0	4,18003	5,52525	95,1336	1,351	75,84	3,5	1005,58	8	9,9	9,7	1	1	1	1	1	1	1	1	1	0	1	-30,725863	275,346636	295,187491	0
14.01.2021	17:52:36	0	0	3,050292	5,289	99,5076	1,343	75,849	3,5	1005,48	8	9,8	9,7	1	1	1	1	1	1	1	1	1	0	1	-28,893587	275,22446	296,441701	0
14.01.2021	17:52:37	0	0	2,485423	5,37375	103,6584	1,351	75,859	3,5	1005,52	8	9,8	9,7	1	1	1	1	1	1	1	1	1	0	1	-23,537703	275,164448	301,513924	0
14.01.2021	17:52:38	0	0	3,050292	5,3655	102,5964	1,349	75,86	3,5	1005,42	8	9,8	9,7	1	1	1	1	1	1	1	1	1	0	1	-28,047921	275,306884	297,677265	0
14.01.2021	17:52:39	0	0	2,598397	5,208	92,25	1,35	75,838	3,5	1005,38	8	9,9	9,7	1	1	1	1	1	1	1	1	1	0	1	-27,766032	275,172334	297,322857	0
14.01.2021	17:52:40	0	0	4,518951	5,10675	95,5224	1,347	75,841	3,5	1005,24	8	9,8	9,7	1	1	1	1	1	1	1	1	1	0	1	-31,148696	275,316417	294,621608	0
14.01.2021	17:52:41	0	0	4,293004	5,166	94,0932	1,348	75,86	3,5	1005,4	8	9,8	9,7	1	1	1	1	1	1	1	1	1	0	1	-29,457364	275,183379	295,683724	0
14.01.2021	17:52:42	0	0	2,824345	5,5485	93,3264	1,346	75,836	3,5	1005,44	8	9,8	9,7	1	1	1	1	1	1	1	1	1	0	1	-29,105004	275,159718	295,924274	0
14.01.2021	17:52:43	0	0	2,598397	5,73375	105,8508	1,352	75,842	3,5	1005,3	8	9,8	9,7	1	1	1	1	1	1	1	1	1	0	1	-28,32981	275,284658	297,290206	0
14.01.2021	17:52:44	0	0	4,18003	5,553	112,2516	1,35	75,827	3,5	1005,58	8	9,8	9,7	1	1	1	1	1	1	1	1	1	0	1	-25,440451	275,341861	300,450298	0
14.01.2021	17:52:45	0	0	2,824345	6,1155	107,046	1,355	75,814	3,5	1005,58	8	9,9	9,7	1	1	1	1	1	1	1	1	1	0	1	-26,920366	275,306884	298,80482	0
14.01.2021	17:52:46	0	0	3,050292	5,979	108,108	1,353	75,809	3,5	1005,42	8	9,8	9,7	1	1	1	1	1	1	1	1	1	0	1	-26,568006	275,188115	298,595465	0
14.01.2021	17:52:47	0	0	2,485423	5,649	113,7528	1,356	75,794	3,5	1005,48	8	9,8	9,7	1	1	1	1	1	1	1	1	1	0	1	-24,806202	275,24345	300,618885	0
14.01.2021	17:52:48	0	0	4,405978	5,32575	109,9908	1,357	75,773	3,5	1005,44	8	9,8	9,7	1	1	1	1	1	1	1	1	1	0	1	-29,880197	275,327545	295,942778	0
14.01.2021	17:52:49	0	0	2,372449	4,8525	104,0436	1,359	75,766	3,5	1005,3	8	9,8	9,7	1	1	1	1	1	1	1	1	1	0	1	-29,31642	275,378496	296,747805	0
14.01.2021	17:52:50	0	0	2,485423	4,75575	84,0456	1,356	75,75	3,5	1005,62	8	9,9	9,7	1	1	1	1	1	1	1	1	1	0	1	-30,93728	275,364152	295,059017	0
14.01.2021	17:52:51	0	0	2,937318	4,5645	92,6316	1,356	75,736	3,5	1005,5	8	9,8	9,7	1	1	1	1	1	1	1	1	1	0	1	-23,819591	275,202329	301,411066	0
14.01.2021	17:52:52	0	0	2,372449	4,7685	104,0256	1,356	75,734	3,5	1005,46	8	9,9	9,7	1	1	1	1	1	1	1	1	1	0	1	-28,118393	275,305295	297,599276	0
14.01.2021	17:52:53	0	0	3,389214	4,57425	108,4932	1,359	75,711	3,5	1005,6	8	9,9	9,7	1	1	1	1	1	1	1	1	1	0	1	-28,823115	275,368932	297,195818	0
14.01.2021	17:52:54	0	0	2,146502	4,332	105,8796	1,359	75,704	3,5	1005,38	8	9,9	9,7	1	1	1	1	1	1	1	1	1	0	1	-31,148696	275,314828	294,614086	0
14.01.2021	17:52:55	0	0	4,744899	4,08225	115,5924	1,362	75,678	3,5	1005,48	8	9,9	9,7	1	1	1	1	1	1	1	1	1	0	1	-26,990839	275,38009	299,080938	0
14.01.2021	17:52:56	0	0	3,050292	3,948	109,602	1,361	75,659	3,5	1005,52	8	9,8	9,7	1	1	1	1	1	1	1	1	1	0	1	-25,510923	275,260873	299,996572	0
14.01.2021	17:52:57	0	0	4,518951	4,161	101,8188	1,363	75,659	3,5	1005,52	8	9,9	9,7	1	1	1	1	1	1	1	1	1	0	1	-25,792812	275,364152	300,203484	0
14.01.2021	17:52:58	0	0	2,711371	4,41375	100,7496	1,362	75,632	3,5	1005,54	8	9,9	9,7	1	1	1	1	1	1	1	1	1	0	1	-28,047921	275,192852	297,137939	0
14.01.2021	17:52:59	0	0	4,405978	4,84875	98,4528	1,361	75,616	3,5	1005,42	8	9,9	9,7	1	1	1	1	1	1	1	1	1	0	1	-28,259338	275,283072	297,353172	0
14.01.2021	17:53:00	0	0	4,631925	5,0475	94,3704	1,36	75,59	3,5	1005,44	8	9,9	9,7	1	1	1	1	1	1	1	1	1	0	1	-25,651868	275,330725	300,186164	0
14.01.2021	17:53:01	0	0	4,518951	5,0175	96,9336	1,364	75,574	3,5	1005,42	8	9,9	9,7	1	1	1	1	1	1	1	1	1	0	1	-28,611698	275,370526	297,414781	0
14.01.2021	17:53:02	0	0	4,518951	5,0175	96,9336	1,364	75,574	3,5	1005,42	8	9,9	9,7	1	1	1	1	1	1	1	1	1	0	1	-28,611698	275,370526	297,414781	0
14.01.2021	17:53:03	0	0	4,18003	4,9665	101,9016	1,366	75,557	3,5	1005,48	8	9,9	9,7	1	1	1	1	1	1	1	1	1	0	1	-30,725863	275,227624	294,624383	0
14.01.2021	17:53:04	0	0	3,389214	4,84425	105,8616	1,384	75,543	3,5	1005,66	8	9,9	9,7	1	1	1	1	1	1	1	1	1	0	1	-23,46723	275,34027	302,415986	0
14.01.2021	17:53:05	0	0	2,485423	4,75275	100,3932	1,367	75,534	3,5	1005,52	8	9,9	9,7	1	1	1	1	1	1	1	1	1	0	1	-23,678647	275,194431	301,514677	0
14.01.2021	17:53:06	0	0	2,937318	4,779	100,7424	1,364	75,525	3,5	1005,56	8	9,9	9,7	1	1	1	1	1	1	1	1	1	0	1	-27,977449	275,314828	297,785334	0
14.01.2021	17:53:07	0	0	4,857873	4,941	101,79	1,367	75,511	3,5	1005,46	8	9,8	9,7	1	1	1	1	1	1	1	1	1	0	1	-29,809725	275,203909	295,428401	0
14.01.2021	17:53:08	0	0	3,389214	4,78875	95,5044	1,367	75,483	3,5	1005,52	8	9,9	9,7	1	1	1	1	1	1	1	1	1	0	1	-31,92389	275,351411	294,012076	0
14.01.2021	17:53:09	0	0	2,937318	4,93425	87,3324	1,367	75,496	3,5	1005,56	8	9,9	9,7	1	1	1	1	1	1	1	1	1	0	1	-25,792812	275,332316	300,052748	0
14.01.2021	17:53:10	0	0	4,518951	5,4615	104,0328	1,365	75,467	3,5	1005,58	8	9,8	9,7	1	1	1	1	1	1	1	1	1	0	1	-28,118393	275,375307	297,930732	0
14.01.2021	17:53:11	0	0	3,27624	5,619	102,9168	1,374	75,458	3,5	1005,58	8	9,8	9,7	1	1	1	1	1	1	1	1	1	0	1	-28,047921	275,287832	297,58711	0
14.01.2021	17:53:12	0	0	4,293004	5,6235	95,1588	1,369	75,456	3,5	1005,52	8	9,8	9,7	1	1	1	1	1	1	1	1	1	0	1	-28,823115	275,378496	297,241111	0
14.01.2021	17:53:13	0	0	3,615161	5,349	97,326	1,367	75,445	3,5	1005,46	8	9,9	9,7	1	1	1	1	1	1	1	1	1	0	1	-22,762509	275,23237	302,610182	0
14.01.2021	17:53:14	0	0	2,824345	4,311	107,01	1,371	75,435	3,5	1005,52	8	9,9	9,7	1	1	1	1	1	1	1	1	1	0	1	-24,10148	275,237118	301,293662	0
14.01.2021	17:53:15	0	0	3,389214	3,864	91,5228	1,369	75,401	3,5	1005,44	8	9,9	9,7	1	1	1	1	1	1	1	1	1	0	1	-27,766032	275,396041	298,3813	0
14.01.2021	17:53:16	0	0	3,728135	3,99975	88,9884	1,373	75,408	3,5	1005,44	8	9,9	9,7	1	1	1	1	1	1	1	1	1	0	1	-30,091614	275,306884	295,633573	0
14.01.2021	17:53:17	0	0	2,711371	4,137	88,9596	1,376	75,407	3,5	1005,48	8	9,9	9,7	1	1	1	1	1	1	1	1	1	0	1	-28,118393	275,386469	297,983597	0
14.01.2021	17:53:18	0	0	2,937318	4,1595	104,7672	1,369	75,386	3,5	1005,58	8	9,8	9,7	1	1	1	1	1	1	1	1	1	0	1	-27,625088	275,324365	298,182835	0
14.01.2021	17:53:19	0	0	4,067056	4,68	95,8392	1,372	75,387	3,5	1005,32	8	9,9	9,7	1	1	1	1	1	1	1	1	1	0	1	-26,215645	275,38009	299,856132	0
14.01.2021	17:53:20	0	0	4,405978	5,3355	87,7104	1,375	75,383	3,5	1005,42	8	9,9	9,7	1	1	1	1	1	1	1	1	1	0	1	-33,474278	275,34027	292,408938	0
14.01.2021	17:53:21	0	0	3,728135	5,91	85,1652	1,377	75,375	3,5	1005,54	8	9,8	9,7	1	1	1	1	1	1	1	1	1	0	1	-28,32981	275,375307	297,719315	0
14.01.2021	17:53:22	0	0	2,711371	5,84625	90,3888	1,378	75,367	3,5	1005,48	8	9,9	9,7	1	1	1	1	1	1	1	1	1	0	1	-29,31642	275,218134	295,988958	0
14.01.2021	17:53:23	0	0	4,405978	5,5515	92,952	1,373	75,36	3,5	1005,32	8	9,9	9,7	1	1	1	1	1	1	1	1	1	0	1	-23,890063	275,327545	301,932912	0
14.01.2021	17:53:24	0	0	2,485423	4,84275	95,8248	1,379	75,356	3,5	1005,6	8	9,8	9,7	1	1	1	1	1	1	1	1	1	0	1	-30,443975	275,219715	294,86888	0
14.01.2021	17:53:25	0	0	2,598397	4,932	115,5996	1,377	75,348	3,5	1005,44	8	9,8	9,7	1	1	1	1	1	1	1	1	1	0	1	-23,749119	275,314828	302,013663	0
14.01.2021	17:53:26	0	0	4,293004	5,493	111,8052	1,375	75,348	3,5	1005,44	8	9,9	9,7	1	1	1	1	1	1	1	1	1	0	1	-30,232558	275,205489	295,013037	0
14.01.2021	17:53:27	0	0	3,841109	5,7135	100,3788	1,377	75,34	3,5	1005,44	8	9,9	9,7	1	1	1	1	1	1	1	1	1	0	1	-32,487667	275,360966	293,493542	0
14.01.2021	17:53:28	0	0	3,27624	5,75475	113,4216	1,372	75,332	3,5	1005,38	8	9,8	9,7	1	1	1	1	1	1	1	1	1	0	1	-29,105004	275,330725	296,733028	0
14.01.2021	17:53:29	0	0	3,502187	5,74875	120,8952	1,374	75,327	3,5	1005,38	8	9,8	9,7	1	1	1	1	1	1	1	1	1	0	1	-27,413672	275,221297	297,90666	0
14.01.2021	17:53:30	0	0	2,711371	4,98225	121,6584	1,37	75,322	3,5	1005,36	8	9,9	9,7	1	1	1	1	1	1	1	1	1	0	1	-27,977449	275,226042	297,365318	0
14.01.2021	17:53:31	0	0	3,502187	4,48875	125,064	1,368	75,319	3,5	1005,4	8	9,9	9,7	1	1	1	1	1	1	1	1	1	0	1	-29,880197	275,400829	296,289817	0
14.01.2021	17:53:32	0	0	2,598397	4,23975	118,3176	1,378	75,303	3,5	1005,54	8	9,9	9,7	1	1	1	1	1	1	1	1	1	0	1	-30,232558	275,327545	295,590417	0
14.01.2021	17:53:33	0	0	2,485423	4,251	119,466	1,38	75,3	3,5	1005,58	8	9,9	9,7	1	1	1	1	1	1	1	1	1	0	1	-32,276251	275,389659	293,840851	0
14.01.2021	17:53:34	0	0	4,293004	3,96675	126,5292	1,378	75,295	3,5	1005,48	8	9,8	9,7	1	1	1	1	1	1	1	1	1	0	1	-24,594785	275,308472	301,137919	0
14.01.2021	17:53:35	0	0	2,485423	3,6225	116,6904	1,383	75,299	3,5	1005,42	8	9,9	9,7	1	1	1	1	1	1	1	1	1	0	1	-26,427061	275,221297	298,89327	0
14.01.2021	17:53:36	0	0	3,502187	3,47475	110,6784	1,379	75,279	3,5	1005,48	8	9,8	9,7	1	1	1	1	1	1	1	1	1	0	1	-25,440451	275,359373	300,533216	0
14.01.2021	17:53:37	0	0	3,728135	3,15675	129,4488	1,373	75,283	3,5	1005,52	8	9,8	9,7	1	1	1	1	1	1	1	1	1	0	1	-29,950669	275,386469	296,151321	0
14.01.2021	17:53:38	0	0	2,372449	3,0555	121,9644	1,382	75,283	3,5	1005,44	8	9,9	9,7	1	1	1	1	1	1	1	1	1	0	1	-35,306554	275,289419	290,335986	0
14.01.2021	17:53:39	0	0	4,405978	2,9445	113,022	1,378	75,274	3,5	1005,48	8	9,9	9,7	1	1	1	1	1	1	1	1	1	0	1	-28,611698	275,362559	297,377054	0
14.01.2021	17:53:40	0	0	3,954082	2,85375	116,6652	1,379	75,27	3,5	1005,5	8	9,9	9,7	1	1	1	1	1	1	1	1	1	0	1	-27,272727	275,218134	298,032651	0
14.01.2021	17:53:41	0	0	2,598397	3,10275	109,9512	1,382	75,264	3,5	1005,46	8	9,9	9,7	1	1	1	1	1	1	1	1	1	0	1	-25,299507	275,270384	300,252977	0
14.01.2021	17:53:42	0	0	2,485423	3,0495	117,036	1,38	75,26	3,5	1005,6	8	9,8	9,7	1	1	1	1	1	1	1	1	1	0	1	-28,400282	275,346636	297,513072	0
14.01.2021	17:53:43	0	0	3,163266	3,09975	107,0532	1,388	75,266	3,5	1005,34	8	9,9	9,7	1	1	1	1	1	1	1	1	1	0	1	-27,484144	275,203909	297,753982	0
14.01.2021	17:53:44	0	0	4,067056	3,3765	108,1152	1,378	75,25	3,5	1005,46	8	9,8	9,7	1	1	1	1	1	1	1	1	1	0	1	-28,32981	275,283072	297,2827	0
14.01.2021	17:53:45	0	0	4,631925	3,4275	88,0956	1,385	75,256	3,5	1005,5	8	9,8	9,7	1	1	1	1	1	1	1	1	1	0	1	-27,202255	275,388064	298,90729	0
14.01.2021	17:53:46	0	0	3,954082	3,76425	92,934	1,38	75,244	3,5	1005,62	8	9,9	9,7	1	1	1	1	1	1	1	1	1	0	1	-32,840028	275,375307	293,209097	0
14.01.2021	17:53:47	0	0	4,631925	4,25625	96,2136	1,38	75,248	3,5	1005,5	8	9,9	9,7	1	1	1	1	1	1	1	1	1	0	1	-32,135307	275,343452	293,762977	0
14.01.2021	17:53:48	0	0	2,711371	4,35825	88,956	1,382	75,23	3,5	1005,38	8	9,9	9,7	1	1	1	1	1	1	1	1	1	0	1	-26,638478	275,389659	299,478624	0
14.01.2021	17:53:49	0	0	4,518951	4,1775	99,1512	1,385	75,241	3,5	1005,44	8	9,9	9,7	1	1	1	1	1	1	1	1	1	0	1	-30,373502	275,354596	295,577541	0
14.01.2021	17:53:50	0	0	2,711371	3,8115	105,2532	1,38	75,232	3,5	1005,46	8	9,9	9,7	1	1	1	1	1	1	1	1	1	0	1	-22,832981	275,337088	303,03517	0
14.01.2021	17:53:51	0	0	3,728135	3,564	102,564	1,382	75,248	3,5	1005,54	8	9,8	9,7	1	1	1	1	1	1	1	1	1	0	1	-26,497533	275,226042	298,845233	0
14.01.2021	17:53:52	0	0	3,050292	3,74775	98,4456	1,383	75,25	3,5	1005,44	8	9,9	9,7	1	1	1	1	1	1	1	1	1	0	1	-28,047921	275,246617	297,392142	0
14.01.2021	17:53:53	0	0	2,372449	3,88425	99,9216	1,385	75,253	3,5	1005,46	8	9,9	9,7	1	1	1	1	1	1	1	1	1	0	1	-27,202255	275,254536	298,275263	0
14.01.2021	17:53:54	0	0	2,937318	4,0605	96,588	1,388	75,248	3,5	1005,5	8	9,9	9,7	1	1	1	1	1	1	1	1	1	0	1	-32,628612	275,251368	292,833922	0
14.01.2021	17:53:55	0	0	2,711371	4,038	105,1308	1,384	75,232	3,5	1005,4	8	9,8	9,7	1	1	1	1	1	1	1	1	1	0	1	-25,581395	275,368932	300,437537	0
14.01.2021	17:53:56	0	0	2,598397	3,72675	112,6908	1,38	75,237	3,5	1005,54	8	9,9	9,7	1	1	1	1	1	1	1	1	1	0	1	-27,202255	275,383279	298,884627	0
14.01.2021	17:53:57	0	0	3,163266	3,82275	125,0532	1,388	75,244	3,5	1005,5	8	9,9	9,7	1	1	1	1	1	1	1	1	1	0	1	-26,145173	275,34027	299,738043	0
14.01.2021	17:53:58	0	0	3,163266	3,8835	115,1892	1,389	75,285	3,5	1005,48	8	9,8	9,7	1	1	1	1	1	1	1	1	1	0	1	-27,272727	275,346636	298,640627	0
14.01.2021	17:53:59	0	0	3,050292	4,203	109,998	1,381	75,225	3,5	1005,46	8	9,9	9,7	1	1	1	1	1	1	1	1	1	0	1	-31,078224	275,394446	295,06155	0
14.01.2021	17:54:00	0	0	4,293004	4,716	112,2804	1,384	75,202	3,5	1005,5	8	9,9	9,7	1	1	1	1	1	1	1	1	1	0	1	-28,188865	275,214972	297,101563	0
14.01.2021	17:54:01	0	0	4,293004	4,959	107,4096	1,382	75,208	3,5	1005,46	8	10	9,7	1	1	1	1	1	1	1	1	1	0	1	-32,55814	275,37212	293,475888	0
14.01.2021	17:54:02	0	0	4,293004	4,959	107,4096	1,382	75,208	3,5	1005,46	8	10	9,7	1	1	1	1	1	1	1	1	1	0	1	-32,55814	275,37212	293,475888	0
14.01.2021	17:54:03	0	0	2,372449	4,95075	103,302	1,389	75,207	3,5	1005,58	8	9,8	9,7	1	1	1	1	1	1	1	1	1	0	1	-24,453841	275,329135	301,376662	0
14.01.2021	17:54:04	0	0	2,824345	5,08125	91,494	1,383	75,211	3,5	1005,58	8	9,8	9,7	1	1	1	1	1	1	1	1	1	0	1	-24,10148	275,219715	301,211375	0
14.01.2021	17:54:05	0	0	3,163266	4,944	104,1228	1,379	75,202	3,5	1005,46	8	9,9	9,7	1	1	1	1	1	1	1	1	1	0	1	-26,0747	275,229206	299,283027	0
14.01.2021	17:54:06	0	0	3,050292	4,88325	115,9704	1,381	75,219	3,5	1005,6	8	9,9	9,7	1	1	1	1	1	1	1	1	1	0	1	-27,69556	275,333906	298,157529	0
14.01.2021	17:54:07	0	0	2,485423	4,68	108,4752	1,381	75,199	3,5	1005,52	8	9,8	9,7	1	1	1	1	1	1	1	1	1	0	1	-25,863284	275,389659	300,253817	0
14.01.2021	17:54:08	0	0	2,598397	4,37925	96,606	1,379	75,193	3,5	1005,34	8,1	9,9	9,7	1	1	1	1	1	1	1	1	1	0	1	-26,849894	275,205489	298,395701	0
14.01.2021	17:54:09	0	0	4,744899	4,03425	108,4716	1,382	75,184	3,5	1005,44	8	9,8	9,7	1	1	1	1	1	1	1	1	1	0	1	-27,554616	275,341861	298,336134	0
14.01.2021	17:54:10	0	0	2,711371	3,80475	104,0724	1,385	75,2	3,5	1005,4	8	9,8	9,7	1	1	1	1	1	1	1	1	1	0	1	-26,638478	275,386469	299,463512	0
14.01.2021	17:54:11	0	0	4,631925	4,0095	104,0544	1,388	75,202	3,5	1005,48	8	9,8	9,7	1	1	1	1	1	1	1	1	1	0	1	-24,031008	275,31165	301,716734	0
14.01.2021	17:54:12	0	0	4,18003	4,4145	105,2424	1,393	75,212	3,5	1005,58	8	9,8	9,7	1	1	1	1	1	1	1	1	1	0	1	-26,427061	275,376902	299,629614	0
14.01.2021	17:54:13	0	0	2,372449	4,569	107,0352	1,389	75,207	3,5	1005,52	8	9,8	9,7	1	1	1	1	1	1	1	1	1	0	1	-28,964059	275,268798	296,580924	0
14.01.2021	17:54:14	0	0	3,954082	4,7655	109,2204	1,386	75,19	3,5	1005,66	8	9,9	9,7	1	1	1	1	1	1	1	1	1	0	1	-28,752643	275,207069	296,500423	0
14.01.2021	17:54:15	0	0	4,067056	5,2845	127,9944	1,386	75,197	3,5	1005,48	8	9,9	9,7	1	1	1	1	1	1	1	1	1	0	1	-27,554616	275,214972	297,735812	0
14.01.2021	17:54:16	0	0	3,050292	5,97525	120,1464	1,385	75,2	3,5	1005,46	8	9,8	9,7	1	1	1	1	1	1	1	1	1	0	1	-27,272727	275,341861	298,618022	0
14.01.2021	17:54:17	0	0	2,598397	6,2985	119,4732	1,387	75,194	3,5	1005,5	8	9,9	9,7	1	1	1	1	1	1	1	1	1	0	1	-31,994362	275,230788	293,370846	0
14.01.2021	17:54:18	0	0	2,598397	6,363	111,0492	1,386	75,202	3,5	1005,52	8	9,8	9,7	1	1	1	1	1	1	1	1	1	0	1	-25,440451	275,207069	299,812615	0
14.01.2021	17:54:19	0	0	2,598397	6,41475	98,4384	1,383	75,188	3,5	1005,58	8	9,8	9,7	1	1	1	1	1	1	1	1	1	0	1	-29,034531	275,237118	296,36061	0
14.01.2021	17:54:20	0	0	3,389214	6,276	128,6496	1,385	75,193	3,5	1005,38	8	9,9	9,7	1	1	1	1	1	1	1	1	1	0	1	-25,792812	275,38009	300,278965	0
14.01.2021	17:54:21	0	0	4,857873	6,006	119,07	1,386	75,211	3,5	1005,42	8	9,9	9,7	1	1	1	1	1	1	1	1	1	0	1	-26,286117	275,259289	299,213883	0
14.01.2021	17:54:22	0	0	4,18003	6,1305	123,462	1,376	75,21	3,5	1005,42	8	9,8	9,7	1	1	1	1	1	1	1	1	1	0	1	-29,31642	275,367339	296,694966	0
14.01.2021	17:54:23	0	0	3,841109	5,90625	115,9488	1,385	75,216	3,5	1005,34	8	9,9	9,7	1	1	1	1	1	1	1	1	1	0	1	-25,510923	275,297355	300,169172	0
14.01.2021	17:54:24	0	0	4,744899	5,499	121,9716	1,379	75,216	3,5	1005,42	8	9,8	9,7	1	1	1	1	1	1	1	1	1	0	1	-28,32981	275,375307	297,719315	0
14.01.2021	17:54:25	0	0	4,518951	5,32425	109,5984	1,385	75,211	3,5	1005,52	8	9,9	9,7	1	1	1	1	1	1	1	1	1	0	1	-28,611698	275,349819	297,31673	0
14.01.2021	17:54:26	0	0	4,518951	5,529	102,222	1,382	75,234	3,5	1005,42	8	9,9	9,7	1	1	1	1	1	1	1	1	1	0	1	-31,360113	275,283072	294,252397	0
14.01.2021	17:54:27	0	0	2,711371	5,427	97,6824	1,377	75,242	3,5	1005,56	8	9,8	9,7	1	1	1	1	1	1	1	1	1	0	1	-24,876674	275,24345	300,548413	0
14.01.2021	17:54:28	0	0	4,744899	5,39775	96,9732	1,378	75,26	3,5	1005,4	8	9,8	9,7	1	1	1	1	1	1	1	1	1	0	1	-27,625088	275,24345	297,799998	0
14.01.2021	17:54:29	0	0	3,841109	5,50425	94,3884	1,38	75,262	3,5	1005,52	8	9,9	9,7	1	1	1	1	1	1	1	1	1	0	1	-29,809725	275,368932	296,209207	0
14.01.2021	17:54:30	0	0	4,18003	5,41575	101,1096	1,374	75,27	3,5	1005,5	8	9,8	9,7	1	1	1	1	1	1	1	1	1	0	1	-21,705426	275,335497	304,155194	0
14.01.2021	17:54:31	0	0	3,954082	5,26575	102,5856	1,375	75,276	3,5	1005,32	8	9,9	9,7	1	1	1	1	1	1	1	1	1	0	1	-31,148696	275,365745	294,855145	0
14.01.2021	17:54:32	0	0	4,067056	4,9845	106,6824	1,385	75,304	3,5	1005,56	8	9,9	9,7	1	1	1	1	1	1	1	1	1	0	1	-26,920366	275,254536	298,557152	0
14.01.2021	17:54:33	0	0	3,27624	4,7865	99,5076	1,383	75,311	3,5	1005,52	8	9,8	9,7	1	1	1	1	1	1	1	1	1	0	1	-26,568006	275,202329	298,662651	0
14.01.2021	17:54:34	0	0	4,405978	4,8435	98,4564	1,381	75,317	3,5	1005,52	8	9,8	9,7	1	1	1	1	1	1	1	1	1	0	1	-27,766032	275,240284	297,64408	0
14.01.2021	17:54:35	0	0	3,954082	4,74675	109,6128	1,379	75,33	3,5	1005,44	8	9,8	9,7	1	1	1	1	1	1	1	1	1	0	1	-29,31642	275,267213	296,221064	0
14.01.2021	17:54:36	0	0	2,598397	4,66425	101,5092	1,381	75,335	3,5	1005,32	8	9,8	9,7	1	1	1	1	1	1	1	1	1	0	1	-27,977449	275,21181	297,298032	0
14.01.2021	17:54:37	0	0	3,163266	4,434	105,4692	1,38	75,34	3,5	1005,56	8	9,9	9,7	1	1	1	1	1	1	1	1	1	0	1	-26,70895	275,313239	299,046312	0
14.01.2021	17:54:38	0	0	2,598397	4,641	93,852	1,379	75,333	3,5	1005,46	8	9,8	9,7	1	1	1	1	1	1	1	1	1	0	1	-25,863284	275,388064	300,246261	0
14.01.2021	17:54:39	0	0	4,405978	4,70925	97,7112	1,381	75,34	3,5	1005,4	8	9,8	9,7	1	1	1	1	1	1	1	1	1	0	1	-26,990839	275,357781	298,975286	0
14.01.2021	17:54:40	0	0	4,18003	4,57125	110,3652	1,371	75,354	3,5	1005,44	8	9,9	9,7	1	1	1	1	1	1	1	1	1	0	1	-27,343199	275,208649	297,917337	0
14.01.2021	17:54:41	0	0	4,744899	4,44225	108,1224	1,379	75,359	3,5	1005,48	8	9,9	9,7	1	1	1	1	1	1	1	1	1	0	1	-31,219168	275,367339	294,792218	0
14.01.2021	17:54:42	0	0	2,937318	4,4775	103,0356	1,373	75,368	3,5	1005,42	8	9,9	9,7	1	1	1	1	1	1	1	1	1	0	1	-28,752643	275,31165	296,995099	0
14.01.2021	17:54:43	0	0	2,937318	4,6515	109,6056	1,381	75,361	3,5	1005,38	8	9,9	9,7	1	1	1	1	1	1	1	1	1	0	1	-25,581395	275,202329	299,649262	0
14.01.2021	17:54:44	0	0	4,18003	4,53975	95,8392	1,377	75,382	3,5	1005,48	8	9,9	9,7	1	1	1	1	1	1	1	1	1	0	1	-30,021142	275,357781	295,944983	0
14.01.2021	17:54:45	0	0	4,518951	4,575	104,7276	1,38	75,375	3,5	1005,54	8	9,8	9,7	1	1	1	1	1	1	1	1	1	0	1	-24,876674	275,226042	300,466093	0
14.01.2021	17:54:46	0	0	3,050292	4,5345	107,082	1,381	75,384	3,5	1005,5	8	9,9	9,7	1	1	1	1	1	1	1	1	1	0	1	-27,766032	275,310061	297,97419	0
14.01.2021	17:54:47	0	0	2,485423	4,88325	120,1464	1,381	75,404	3,5	1005,48	8	9,9	9,7	1	1	1	1	1	1	1	1	1	0	1	-25,08809	275,376902	300,968585	0
14.01.2021	17:54:48	0	0	4,744899	5,21025	117,3924	1,381	75,393	3,5	1005,34	8	9,8	9,7	1	1	1	1	1	1	1	1	1	0	1	-26,638478	275,295768	299,034105	0
14.01.2021	17:54:49	0	0	4,293004	5,03775	106,2828	1,377	75,408	3,5	1005,44	8	9,9	9,7	1	1	1	1	1	1	1	1	1	0	1	-27,343199	275,383279	298,743683	0
14.01.2021	17:54:50	0	0	2,598397	4,614	119,43	1,371	75,409	3,5	1005,48	8	9,9	9,7	1	1	1	1	1	1	1	1	1	0	1	-24,383369	275,287832	301,251663	0
14.01.2021	17:54:51	0	0	2,937318	4,524	119,7936	1,376	75,419	3,5	1005,48	8	9,9	9,7	1	1	1	1	1	1	1	1	1	0	1	-29,527837	275,38009	296,54394	0
14.01.2021	17:54:52	0	0	5,08382	4,602	119,8512	1,375	75,41	3,5	1005,38	8	9,8	9,7	1	1	1	1	1	1	1	1	1	0	1	-27,69556	275,402425	298,482016	0
14.01.2021	17:54:53	0	0	4,518951	4,29075	100,7496	1,376	75,427	3,5	1005,44	8	9,9	9,7	1	1	1	1	1	1	1	1	1	0	1	-27,272727	275,265628	298,257259	0
14.01.2021	17:54:54	0	0	4,405978	3,97425	113,6988	1,379	75,438	3,5	1005,46	8	9,9	9,7	1	1	1	1	1	1	1	1	1	0	1	-25,863284	275,381685	300,216045	0
14.01.2021	17:54:55	0	0	2,937318	3,831	93,3372	1,381	75,444	3,5	1005,5	8	9,9	9,7	1	1	1	1	1	1	1	1	1	0	1	-30,373502	275,313239	295,381759	0
14.01.2021	17:54:56	0	0	4,744899	3,78525	114,2136	1,377	75,434	3,5	1005,44	8	9,9	9,7	1	1	1	1	1	1	1	1	1	0	1	-25,510923	275,386469	300,591067	0
14.01.2021	17:54:57	0	0	4,293004	3,8805	117,45	1,378	75,443	3,5	1005,34	8	9,9	9,7	1	1	1	1	1	1	1	1	1	0	1	-29,809725	275,278313	295,780269	0
14.01.2021	17:54:58	0	0	3,954082	3,9075	98,748	1,379	75,447	3,5	1005,6	8	9,9	9,7	1	1	1	1	1	1	1	1	1	0	1	-31,782946	275,203909	293,45518	0
14.01.2021	17:54:59	0	0	2,824345	3,98475	120,5136	1,374	75,448	3,5	1005,34	8	9,9	9,7	1	1	1	1	1	1	1	1	1	0	1	-23,960536	275,259289	301,539464	0
14.01.2021	17:55:00	0	0	4,18003	3,94275	114,48	1,374	75,438	3,5	1005,38	8	9,9	9,7	1	1	1	1	1	1	1	1	1	0	1	-29,105004	275,329135	296,725499	0
14.01.2021	17:55:01	0	0	4,067056	3,8625	107,7192	1,382	75,451	3,5	1005,5	8	9,9	9,7	1	1	1	1	1	1	1	1	1	0	1	-25,651868	275,240284	299,758245	0
14.01.2021	17:55:02	0	0	4,067056	3,8625	107,7192	1,382	75,451	3,5	1005,5	8	9,9	9,7	1	1	1	1	1	1	1	1	1	0	1	-25,651868	275,240284	299,758245	0
14.01.2021	17:55:03	0	0	2,372449	3,624	117,8532	1,377	75,457	3,5	1005,5	8	9,8	9,7	1	1	1	1	1	1	1	1	1	0	1	-30,30303	275,186536	294,852979	0
14.01.2021	17:55:04	0	0	2,937318	3,71775	102,9492	1,382	75,452	3,5	1005,48	8	9,8	9,7	1	1	1	1	1	1	1	1	1	0	1	-30,091614	275,302119	295,611024	0
14.01.2021	17:55:05	0	0	3,502187	3,774	105,8868	1,38	75,449	3,5	1005,4	8	9,9	9,7	1	1	1	1	1	1	1	1	1	0	1	-29,31642	275,221297	296,003912	0
14.01.2021	17:55:06	0	0	4,631925	3,93675	107,388	1,379	75,447	3,5	1005,54	8	9,8	9,7	1	1	1	1	1	1	1	1	1	0	1	-27,977449	275,345044	297,92837	0
14.01.2021	17:55:07	0	0	3,163266	4,95075	94,0968	1,392	75,439	3,5	1005,48	8	9,8	9,7	1	1	1	1	1	1	1	1	1	0	1	-26,356589	275,388064	299,752956	0
14.01.2021	17:55:08	0	0	4,293004	5,90025	83,7216	1,379	75,448	3,5	1005,52	8	9,9	9,7	1	1	1	1	1	1	1	1	1	0	1	-27,836505	275,308472	297,8962	0
14.01.2021	17:55:09	0	0	2,372449	6,42525	95,5044	1,38	75,46	3,5	1005,44	8	9,8	9,7	1	1	1	1	1	1	1	1	1	0	1	-28,047921	275,203909	297,190205	0
14.01.2021	17:55:10	0	0	4,631925	6,3945	90,4428	1,375	75,454	3,5	1005,46	8	9,9	9,7	1	1	1	1	1	1	1	1	1	0	1	-29,034531	275,316417	296,735773	0
14.01.2021	17:55:11	0	0	4,18003	6,99675	93,0348	1,379	75,448	3,5	1005,54	8	9,9	9,7	1	1	1	1	1	1	1	1	1	0	1	-30,725863	275,386469	295,376127	0
14.01.2021	17:55:12	0	0	3,841109	6,894	92,9628	1,378	75,451	3,5	1005,72	8	9,8	9,7	1	1	1	1	1	1	1	1	1	0	1	-28,118393	275,313239	297,636869	0
14.01.2021	17:55:13	0	0	2,824345	6,30525	94,752	1,377	75,465	3,5	1005,62	8	9,9	9,7	1	1	1	1	1	1	1	1	1	0	1	-26,0747	275,375307	299,974424	0
14.01.2021	17:55:14	0	0	3,728135	6,32475	80,8884	1,373	75,459	3,5	1005,44	8	9,9	9,7	1	1	1	1	1	1	1	1	1	0	1	-29,809725	275,333906	296,043365	0
14.01.2021	17:55:15	0	0	2,485423	5,628	102,9708	1,378	75,472	3,5	1005,4	8	9,9	9,7	1	1	1	1	1	1	1	1	1	0	1	-26,70895	275,200749	298,514239	0
14.01.2021	17:55:16	0	0	4,293004	5,5455	110,6424	1,372	75,465	3,5	1005,56	8	9,8	9,7	1	1	1	1	1	1	1	1	1	0	1	-27,202255	275,221297	298,118076	0
14.01.2021	17:55:17	0	0	3,502187	5,619	102,5352	1,374	75,474	3,5	1005,52	8	9,9	9,7	1	1	1	1	1	1	1	1	1	0	1	-23,185342	275,343452	302,712942	0
14.01.2021	17:55:18	0	0	2,598397	5,532	97,326	1,375	75,47	3,5	1005,58	8	9,9	9,7	1	1	1	1	1	1	1	1	1	0	1	-28,541226	275,208649	296,719311	0
14.01.2021	17:55:19	0	0	3,050292	5,1765	91,6308	1,377	75,478	3,5	1005,4	8	9,9	9,7	1	1	1	1	1	1	1	1	1	0	1	-26,990839	275,321185	298,802034	0
14.01.2021	17:55:20	0	0	4,18003	5,1855	92,2356	1,371	75,49	3,5	1005,44	8	9,9	9,7	1	1	1	1	1	1	1	1	1	0	1	-24,806202	275,367339	301,205185	0
14.01.2021	17:55:21	0	0	4,518951	5,412	95,8248	1,377	75,485	3,5	1005,46	8	9,9	9,7	1	1	1	1	1	1	1	1	1	0	1	-27,766032	275,202329	297,464625	0
14.01.2021	17:55:22	0	0	3,27624	5,73825	98,4528	1,371	75,49	3,5	1005,52	8	9,9	9,7	1	1	1	1	1	1	1	1	1	0	1	-31,078224	275,287832	294,556807	0
14.01.2021	17:55:23	0	0	3,502187	5,74725	96,5772	1,373	75,488	3,5	1005,42	8	9,9	9,7	1	1	1	1	1	1	1	1	1	0	1	-31,360113	275,208649	293,900424	0
14.01.2021	17:55:24	0	0	2,598397	5,55	99,144	1,372	75,503	3,5	1005,48	8	9,9	9,7	1	1	1	1	1	1	1	1	1	0	1	-27,061311	275,389659	299,055791	0
14.01.2021	17:55:25	0	0	3,954082	5,571	107,7264	1,375	75,514	3,5	1005,82	8	9,9	9,7	1	1	1	1	1	1	1	1	1	0	1	-27,202255	275,37212	298,831772	0
14.01.2021	17:55:26	0	0	3,389214	5,49825	104,4108	1,374	75,498	3,5	1005,4	8	9,9	9,7	1	1	1	1	1	1	1	1	1	0	1	-27,272727	275,218134	298,032651	0
14.01.2021	17:55:27	0	0	4,405978	5,244	108,1116	1,389	75,522	3,5	1005,52	8	9,9	9,7	1	1	1	1	1	1	1	1	1	0	1	-30,655391	275,300531	295,039732	0
14.01.2021	17:55:28	0	0	3,841109	5,1015	110,34	1,374	75,511	3,5	1005,52	8	9,9	9,7	1	1	1	1	1	1	1	1	1	0	1	-29,457364	275,376902	296,59931	0
14.01.2021	17:55:29	0	0	2,937318	4,94625	104,0256	1,371	75,506	3,5	1005,44	8	9,8	9,7	1	1	1	1	1	1	1	1	1	0	1	-31,430585	275,341861	294,460165	0
14.01.2021	17:55:30	0	0	4,067056	4,81275	90,7668	1,374	75,512	3,5	1005,56	8	9,9	9,7	1	1	1	1	1	1	1	1	1	0	1	-25,863284	275,384874	300,231152	0
14.01.2021	17:55:31	0	0	3,502187	4,374	108,486	1,374	75,504	3,5	1005,44	8	9,9	9,7	1	1	1	1	1	1	1	1	1	0	1	-28,400282	275,245033	297,032292	0
14.01.2021	17:55:32	0	0	2,711371	4,275	98,0712	1,372	75,515	3,5	1005,56	8	9,9	9,7	1	1	1	1	1	1	1	1	1	0	1	-26,004228	275,324365	299,803694	0
14.01.2021	17:55:33	0	0	4,970847	4,44825	102,546	1,376	75,507	3,5	1005,56	8	9,8	9,7	1	1	1	1	1	1	1	1	1	0	1	-31,289641	275,388064	294,819905	0
14.01.2021	17:55:34	0	0	3,050292	4,7415	93,8052	1,365	75,501	3,5	1005,46	8	9,8	9,7	1	1	1	1	1	1	1	1	1	0	1	-24,594785	275,268798	300,950199	0
14.01.2021	17:55:35	0	0	3,728135	4,929	101,808	1,38	75,502	3,5	1005,46	8	9,9	9,7	1	1	1	1	1	1	1	1	1	0	1	-26,70895	275,396041	299,438383	0
14.01.2021	17:55:36	0	0	4,631925	5,0595	98,7696	1,371	75,502	3,5	1005,58	8	9,8	9,7	1	1	1	1	1	1	1	1	1	0	1	-29,175476	275,330725	296,662555	0
14.01.2021	17:55:37	0	0	4,518951	4,94475	80,5248	1,374	75,502	3,5	1005,4	8	9,9	9,7	1	1	1	1	1	1	1	1	1	0	1	-28,32981	275,365745	297,674031	0
14.01.2021	17:55:38	0	0	3,27624	4,40625	99,108	1,372	75,505	3,5	1005,52	8	9,9	9,7	1	1	1	1	1	1	1	1	1	0	1	-26,920366	275,297355	298,759729	0
14.01.2021	17:55:39	0	0	2,824345	3,804	116,73	1,38	75,503	3,5	1005,42	8	9,9	9,7	1	1	1	1	1	1	1	1	1	0	1	-26,427061	275,375307	299,622064	0
14.01.2021	17:55:40	0	0	3,050292	3,71625	106,2792	1,379	75,489	3,5	1005,44	8	9,9	9,7	1	1	1	1	1	1	1	1	1	0	1	-28,259338	275,251368	297,203196	0
14.01.2021	17:55:41	0	0	4,518951	4,0035	100,368	1,383	75,505	3,5	1005,48	8	9,9	9,7	1	1	1	1	1	1	1	1	1	0	1	-29,598309	275,368932	296,420624	0
14.01.2021	17:55:42	0	0	3,502187	4,1775	91,1376	1,37	75,506	3,5	1005,38	8	9,9	9,7	1	1	1	1	1	1	1	1	1	0	1	-25,72234	275,399233	300,440113	0
14.01.2021	17:55:43	0	0	3,389214	4,338	106,2828	1,382	75,504	3,5	1005,4	8	9,8	9,7	1	1	1	1	1	1	1	1	1	0	1	-27,766032	275,31165	297,981709	0
14.01.2021	17:55:44	0	0	3,615161	3,89175	123,462	1,374	75,506	3,5	1005,56	8	9,9	9,7	1	1	1	1	1	1	1	1	1	0	1	-28,682171	275,378496	297,382055	0
14.01.2021	17:55:45	0	0	4,293004	3,543	137,2536	1,384	75,498	3,5	1005,5	8	9,8	9,7	1	1	1	1	1	1	1	1	1	0	1	-27,906977	275,330725	297,931054	0
14.01.2021	17:55:46	0	0	2,485423	3,24825	129,4452	1,38	75,507	3,5	1005,58	8	9,8	9,7	1	1	1	1	1	1	1	1	1	0	1	-25,158562	275,208649	300,101974	0
14.01.2021	17:55:47	0	0	3,615161	3,06	125,7192	1,378	75,51	3,5	1005,4	8	9,9	9,7	1	1	1	1	1	1	1	1	1	0	1	-24,806202	275,286245	300,821322	0
14.01.2021	17:55:48	0	0	2,824345	3,23175	121,626	1,371	75,506	3,5	1005,4	8	9,9	9,7	1	1	1	1	1	1	1	1	1	0	1	-27,977449	275,221297	297,342883	0
14.01.2021	17:55:49	0	0	4,631925	3,26775	129,0204	1,378	75,51	3,5	1005,4	8	9,9	9,7	1	1	1	1	1	1	1	1	1	0	1	-25,017618	275,337088	300,850533	0
14.01.2021	17:55:50	0	0	3,163266	3,315	122,0328	1,379	75,5	3,5	1005,38	8	9,8	9,7	1	1	1	1	1	1	1	1	1	0	1	-23,185342	275,333906	302,667748	0
14.01.2021	17:55:51	0	0	3,728135	3,501	122,7096	1,375	75,495	3,5	1005,46	8	9,9	9,7	1	1	1	1	1	1	1	1	1	0	1	-25,581395	275,24345	299,843691	0
14.01.2021	17:55:52	0	0	4,518951	3,4215	109,1844	1,376	75,499	3,5	1005,66	8	9,8	9,7	1	1	1	1	1	1	1	1	1	0	1	-27,343199	275,213391	297,939755	0
14.01.2021	17:55:53	0	0	4,18003	3,20325	135,666	1,381	75,5	3,5	1005,42	8	9,9	9,7	1	1	1	1	1	1	1	1	1	0	1	-25,229035	275,271969	300,33095	0
14.01.2021	17:55:54	0	0	4,067056	3,19425	114,4908	1,376	75,5	3,5	1005,36	8	9,9	9,7	1	1	1	1	1	1	1	1	1	0	1	-28,047921	275,376902	298,008754	0
14.01.2021	17:55:55	0	0	3,050292	3,69	125,4204	1,374	75,492	3,5	1005,46	8	9,9	9,7	1	1	1	1	1	1	1	1	1	0	1	-23,819591	275,241867	301,598008	0
14.01.2021	17:55:56	0	0	2,937318	4,1205	118,35	1,376	75,498	3,5	1005,56	8	9,9	9,7	1	1	1	1	1	1	1	1	1	0	1	-24,594785	275,356188	301,363799	0
14.01.2021	17:55:57	0	0	4,293004	4,1745	119,0592	1,374	75,467	3,5	1005,42	8	9,9	9,7	1	1	1	1	1	1	1	1	1	0	1	-26,920366	275,219715	298,392488	0
14.01.2021	17:55:58	0	0	2,485423	4,467	123,8364	1,38	75,467	3,5	1005,44	8	9,9	9,7	1	1	1	1	1	1	1	1	1	0	1	-29,457364	275,384874	296,637071	0
14.01.2021	17:55:59	0	0	3,27624	4,8345	134,334	1,38	75,48	3,5	1005,5	8	9,9	9,7	1	1	1	1	1	1	1	1	1	0	1	-28,541226	275,356188	297,417358	0
14.01.2021	17:56:00	0	0	3,954082	5,07225	104,4324	1,379	75,463	3,5	1005,52	8	9,8	9,7	1	1	1	1	1	1	1	1	1	0	1	-23,749119	275,241867	301,66848	0
14.01.2021	17:56:01	0	0	3,954082	5,07225	104,4324	1,379	75,463	3,5	1005,52	8	9,8	9,7	1	1	1	1	1	1	1	1	1	0	1	-23,749119	275,241867	301,66848	0
14.01.2021	17:56:02	0	0	2,824345	4,6305	100,3428	1,38	75,46	3,5	1005,44	8	9,9	9,7	1	1	1	1	1	1	1	1	1	0	1	-26,638478	275,262458	298,876514	0
14.01.2021	17:56:03	0	0	3,954082	4,1925	105,156	1,375	75,45	3,5	1005,38	8	9,9	9,7	1	1	1	1	1	1	1	1	1	0	1	-29,034531	275,37212	296,999496	0
14.01.2021	17:56:04	0	0	2,372449	4,1175	110,358	1,381	75,455	3,5	1005,42	8	9,9	9,7	1	1	1	1	1	1	1	1	1	0	1	-25,933756	275,305295	299,783913	0
14.01.2021	17:56:05	0	0	2,824345	4,77	99,9108	1,373	75,446	3,5	1005,44	8	9,9	9,7	1	1	1	1	1	1	1	1	1	0	1	-29,175476	275,200749	296,047713	0
14.01.2021	17:56:06	0	0	2,598397	5,29575	104,0436	1,377	75,442	3,5	1005,46	8	9,9	9,7	1	1	1	1	1	1	1	1	1	0	1	-26,849894	275,264043	298,672594	0
14.01.2021	17:56:07	0	0	4,18003	5,10975	112,2984	1,376	75,44	3,5	1005,48	8	9,9	9,7	1	1	1	1	1	1	1	1	1	0	1	-30,232558	275,375307	295,816567	0
14.01.2021	17:56:08	0	0	3,728135	5,16975	104,4504	1,382	75,438	3,5	1005,48	8	9,9	9,7	1	1	1	1	1	1	1	1	1	0	1	-28,259338	275,262458	297,255654	0
14.01.2021	17:56:09	0	0	3,954082	5,36925	107,7408	1,379	75,425	3,5	1005,48	8	9,9	9,7	1	1	1	1	1	1	1	1	1	0	1	-26,427061	275,219715	298,885793	0
14.01.2021	17:56:10	0	0	4,970847	5,5335	110,3724	1,372	75,425	3,5	1005,44	8	9,9	9,7	1	1	1	1	1	1	1	1	1	0	1	-28,259338	275,208649	297,001199	0
14.01.2021	17:56:11	0	0	2,824345	5,4705	113,0508	1,379	75,416	3,5	1005,32	8	9,9	9,7	1	1	1	1	1	1	1	1	1	0	1	-33,826638	275,25612	291,658373	0
14.01.2021	17:56:12	0	0	4,293004	5,63025	119,0664	1,377	75,416	3,5	1005,5	8	9,9	9,7	1	1	1	1	1	1	1	1	1	0	1	-28,470754	275,345044	297,435065	0
14.01.2021	17:56:13	0	0	3,389214	5,445	123,8148	1,378	75,408	3,5	1005,44	8	9,9	9,7	1	1	1	1	1	1	1	1	1	0	1	-24,524313	275,271969	301,035671	0
14.01.2021	17:56:14	0	0	4,18003	5,30025	114,0948	1,373	75,401	3,5	1005,36	8	9,8	9,7	1	1	1	1	1	1	1	1	1	0	1	-27,625088	275,249784	297,829955	0
14.01.2021	17:56:15	0	0	4,405978	5,25675	118,7352	1,376	75,382	3,5	1005,34	8	9,9	9,7	1	1	1	1	1	1	1	1	1	0	1	-30,866808	275,384874	295,227628	0
14.01.2021	17:56:16	0	0	4,405978	5,8935	116,3448	1,379	75,404	3,5	1005,46	8	9,8	9,7	1	1	1	1	1	1	1	1	1	0	1	-26,497533	275,388064	299,612012	0
14.01.2021	17:56:17	0	0	4,405978	6,6015	120,9024	1,38	75,409	3,5	1005,46	8	9,8	9,7	1	1	1	1	1	1	1	1	1	0	1	-26,004228	275,283072	299,608281	0
14.01.2021	17:56:18	0	0	3,728135	7,2015	104,7276	1,377	75,384	3,5	1005,48	8	9,9	9,7	1	1	1	1	1	1	1	1	1	0	1	-30,021142	275,384874	296,073294	0
14.01.2021	17:56:19	0	0	2,598397	7,248	104,436	1,372	75,395	3,5	1005,32	8	9,9	9,7	1	1	1	1	1	1	1	1	1	0	1	-28,752643	275,313239	297,002619	0
14.01.2021	17:56:20	0	0	2,259476	7,2645	102,582	1,374	75,408	3,5	1005,44	8	9,9	9,7	1	1	1	1	1	1	1	1	1	0	1	-27,343199	275,384874	298,751236	0
14.01.2021	17:56:21	0	0	2,485423	7,18875	93,7152	1,371	75,395	3,5	1005,5	8	9,9	9,7	1	1	1	1	1	1	1	1	1	0	1	-28,752643	275,295768	296,91994	0
14.01.2021	17:56:22	0	0	3,728135	6,9015	98,1576	1,377	75,414	3,5	1005,48	8	9,9	9,7	1	1	1	1	1	1	1	1	1	0	1	-28,611698	275,226042	296,731068	0
14.01.2021	17:56:23	0	0	3,502187	7,1835	104,0328	1,384	75,41	3,5	1005,54	8	9,9	9,7	1	1	1	1	1	1	1	1	1	0	1	-28,470754	275,314828	297,292029	0
14.01.2021	17:56:24	0	0	4,18003	7,04625	108,4752	1,378	75,391	3,5	1005,56	8	9,9	9,7	1	1	1	1	1	1	1	1	1	0	1	-30,655391	275,397637	295,499501	0
14.01.2021	17:56:25	0	0	3,728135	7,161	102,1716	1,375	75,433	3,5	1005,66	8	9,9	9,7	1	1	1	1	1	1	1	1	1	0	1	-26,145173	275,268798	299,399811	0
14.01.2021	17:56:26	0	0	2,824345	6,82275	101,8116	1,378	75,405	3,5	1005,56	8	9,9	9,7	1	1	1	1	1	1	1	1	1	0	1	-29,034531	275,265628	296,495455	0
14.01.2021	17:56:27	0	0	2,711371	6,8355	96,6024	1,376	75,409	3,5	1005,52	8	9,9	9,7	1	1	1	1	1	1	1	1	1	0	1	-28,964059	275,397637	297,190833	0
14.01.2021	17:56:28	0	0	2,372449	6,48375	104,7276	1,38	75,406	3,5	1005,6	8	9,9	9,7	1	1	1	1	1	1	1	1	1	0	1	-29,880197	275,341861	296,010552	0
14.01.2021	17:56:29	0	0	4,293004	6,57225	114,8544	1,376	75,397	3,5	1005,46	8	9,8	9,7	1	1	1	1	1	1	1	1	1	0	1	-26,568006	275,397637	299,586887	0
14.01.2021	17:56:30	0	0	3,954082	6,18525	113,7024	1,371	75,403	3,5	1005,5	8	9,9	9,7	1	1	1	1	1	1	1	1	1	0	1	-31,148696	275,34027	294,73452	0
14.01.2021	17:56:31	0	0	2,485423	5,9985	106,668	1,379	75,42	3,5	1005,54	8	9,8	9,7	1	1	1	1	1	1	1	1	1	0	1	-27,484144	275,383279	298,602738	0
14.01.2021	17:56:32	0	0	4,518951	5,757	111,4164	1,369	75,414	3,5	1005,38	8	9,9	9,7	1	1	1	1	1	1	1	1	1	0	1	-27,977449	275,29418	297,687622	0
14.01.2021	17:56:33	0	0	3,728135	5,748	109,584	1,37	75,414	3,5	1005,42	8	9,8	9,7	1	1	1	1	1	1	1	1	1	0	1	-27,554616	275,22446	297,780672	0
14.01.2021	17:56:34	0	0	3,389214	5,60175	114,9696	1,372	75,416	3,5	1005,5	8	9,9	9,7	1	1	1	1	1	1	1	1	1	0	1	-24,665257	275,259289	300,834743	0
14.01.2021	17:56:35	0	0	4,518951	5,3235	102,1932	1,372	75,435	3,5	1005,54	8	9,9	9,7	1	1	1	1	1	1	1	1	1	0	1	-30,725863	275,221297	294,594468	0
14.01.2021	17:56:36	0	0	2,937318	5,00025	115,9416	1,379	75,437	3,5	1005,44	8	9,9	9,7	1	1	1	1	1	1	1	1	1	0	1	-29,668781	275,362559	296,319972	0
14.01.2021	17:56:37	0	0	2,372449	5,04	113,6952	1,374	75,434	3,5	1005,42	8	9,9	9,7	1	1	1	1	1	1	1	1	1	0	1	-28,823115	275,408812	297,384717	0
14.01.2021	17:56:38	0	0	4,744899	4,92825	105,516	1,371	75,437	3,5	1005,54	8	9,9	9,7	1	1	1	1	1	1	1	1	1	0	1	-29,245948	275,348227	296,674943	0
14.01.2021	17:56:39	0	0	2,485423	4,8915	92,6532	1,373	75,445	3,5	1005,38	8	9,9	9,7	1	1	1	1	1	1	1	1	1	0	1	-25,510923	275,345044	300,394895	0
14.01.2021	17:56:40	0	0	2,824345	4,79175	103,284	1,377	75,455	3,5	1005,5	8	9,8	9,7	1	1	1	1	1	1	1	1	1	0	1	-30,655391	275,233953	294,724783	0
14.01.2021	17:56:41	0	0	3,615161	4,87875	99,1512	1,378	75,454	3,5	1005,52	8	9,9	9,7	1	1	1	1	1	1	1	1	1	0	1	-28,400282	275,349819	297,528146	0
14.01.2021	17:56:42	0	0	4,518951	5,25975	107,8344	1,379	75,446	3,5	1005,46	8	9,9	9,7	1	1	1	1	1	1	1	1	1	0	1	-25,017618	275,216553	300,280285	0
14.01.2021	17:56:43	0	0	4,405978	5,364	114,4548	1,376	75,451	3,5	1005,46	8	9,9	9,7	1	1	1	1	1	1	1	1	1	0	1	-27,554616	275,289419	298,087924	0
14.01.2021	17:56:44	0	0	4,18003	5,124	109,9836	1,383	75,449	3,5	1005,54	8	9,8	9,7	1	1	1	1	1	1	1	1	1	0	1	-29,386892	275,404022	296,798247	0
14.01.2021	17:56:45	0	0	2,598397	5,29875	120,15	1,379	75,452	3,5	1005,52	8	9,9	9,7	1	1	1	1	1	1	1	1	1	0	1	-28,188865	275,25612	297,296146	0
14.01.2021	17:56:46	0	0	3,163266	5,0325	106,6212	1,376	75,438	3,5	1005,44	8	9,9	9,7	1	1	1	1	1	1	1	1	1	0	1	-27,061311	275,345044	298,844508	0
14.01.2021	17:56:47	0	0	4,631925	4,95225	102,9348	1,38	75,417	3,5	1005,3	8	9,9	9,7	1	1	1	1	1	1	1	1	1	0	1	-29,950669	275,233953	295,429504	0
14.01.2021	17:56:48	0	0	4,293004	5,26875	97,344	1,38	75,422	3,5	1005,32	8	9,9	9,7	1	1	1	1	1	1	1	1	1	0	1	-30,866808	275,278313	294,723187	0
14.01.2021	17:56:49	0	0	2,711371	5,58375	99,1584	1,378	75,426	3,5	1005,62	8	9,9	9,7	1	1	1	1	1	1	1	1	1	0	1	-26,849894	275,221297	298,470437	0
14.01.2021	17:56:50	0	0	4,857873	5,6685	95,1408	1,378	75,41	3,5	1005,36	8	9,8	9,7	1	1	1	1	1	1	1	1	1	0	1	-32,276251	275,353003	293,667254	0
14.01.2021	17:56:51	0	0	2,033528	5,36175	97,6788	1,379	75,412	3,5	1005,44	8	9,8	9,7	1	1	1	1	1	1	1	1	1	0	1	-31,642001	275,408812	294,56583	0
14.01.2021	17:56:52	0	0	4,631925	4,9365	101,1168	1,379	75,401	3,5	1005,38	8	9,9	9,7	1	1	1	1	1	1	1	1	1	0	1	-25,017618	275,300531	300,677505	0
14.01.2021	17:56:53	0	0	3,615161	4,917	98,4528	1,378	75,394	3,5	1005,42	8	9,9	9,7	1	1	1	1	1	1	1	1	1	0	1	-31,853418	275,410408	294,361979	0
14.01.2021	17:56:54	0	0	2,824345	4,926	95,1696	1,379	75,382	3,5	1005,44	8	9,9	9,7	1	1	1	1	1	1	1	1	1	0	1	-28,964059	275,284658	296,655957	0
14.01.2021	17:56:55	0	0	4,518951	4,755	101,79	1,382	75,371	3,5	1005,48	8	9,9	9,7	1	1	1	1	1	1	1	1	1	0	1	-28,470754	275,397637	297,684138	0
14.01.2021	17:56:56	0	0	2,711371	4,87125	97,7004	1,38	75,365	3,5	1005,42	8	9,9	9,7	1	1	1	1	1	1	1	1	1	0	1	-27,836505	275,365745	298,167336	0
14.01.2021	17:56:57	0	0	2,372449	5,124	97,3224	1,378	75,369	3,5	1005,52	8	9,8	9,7	1	1	1	1	1	1	1	1	1	0	1	-28,047921	275,221297	297,272411	0
14.01.2021	17:56:58	0	0	4,18003	4,983	90,756	1,381	75,373	3,5	1005,5	8,1	9,9	9,7	1	1	1	1	1	1	1	1	1	0	1	-29,527837	275,375307	296,521288	0
14.01.2021	17:56:59	0	0	2,598397	4,5555	92,25	1,38	75,361	3,5	1005,56	8	9,9	9,7	1	1	1	1	1	1	1	1	1	0	1	-26,568006	275,2482	298,879547	0
14.01.2021	17:57:00	0	0	3,615161	4,26975	84,3984	1,382	75,347	3,5	1005,48	8	9,8	9,7	1	1	1	1	1	1	1	1	1	0	1	-27,272727	275,237118	298,122414	0
14.01.2021	17:57:01	0	0	3,728135	4,28775	96,2424	1,381	75,341	3,5	1005,54	8	9,9	9,7	1	1	1	1	1	1	1	1	1	0	1	-30,162086	275,370526	295,864394	0
14.01.2021	17:57:02	0	0	3,728135	4,28775	96,2424	1,381	75,341	3,5	1005,54	8	9,9	9,7	1	1	1	1	1	1	1	1	1	0	1	-30,162086	275,370526	295,864394	0
14.01.2021	17:57:03	0	0	2,937318	4,311	78,282	1,378	75,318	3,5	1005,5	8	9,9	9,7	1	1	1	1	1	1	1	1	1	0	1	-27,272727	275,39285	298,859488	0
14.01.2021	17:57:04	0	0	4,631925	4,35225	80,5212	1,377	75,334	3,5	1005,66	8	9,9	9,7	1	1	1	1	1	1	1	1	1	0	1	-26,004228	275,364152	299,992068	0
14.01.2021	17:57:05	0	0	2,711371	4,46325	85,9176	1,382	75,329	3,5	1005,56	8	9,8	9,7	1	1	1	1	1	1	1	1	1	0	1	-26,427061	275,397637	299,727831	0
14.01.2021	17:57:06	0	0	3,389214	4,7505	111,762	1,384	75,319	3,5	1005,52	8	9,9	9,7	1	1	1	1	1	1	1	1	1	0	1	-33,685694	275,404022	292,499445	0
14.01.2021	17:57:07	0	0	4,518951	4,39725	104,4216	1,383	75,321	3,5	1005,62	8	9,9	9,7	1	1	1	1	1	1	1	1	1	0	1	-25,229035	275,357781	300,737091	0
14.01.2021	17:57:08	0	0	2,824345	4,35075	105,858	1,386	75,315	3,5	1005,52	8	9,9	9,7	1	1	1	1	1	1	1	1	1	0	1	-27,202255	275,275141	298,372733	0
14.01.2021	17:57:09	0	0	2,824345	4,80225	106,686	1,38	75,309	3,5	1005,32	8	9,9	9,7	1	1	1	1	1	1	1	1	1	0	1	-26,990839	275,318006	298,786988	0
14.01.2021	17:57:10	0	0	2,711371	4,93275	91,8792	1,387	75,308	3,5	1005,62	8	9,9	9,7	1	1	1	1	1	1	1	1	1	0	1	-22,973925	275,23237	302,398765	0
14.01.2021	17:57:11	0	0	3,050292	4,737	94,7844	1,384	75,3	3,5	1005,54	8	9,9	9,7	1	1	1	1	1	1	1	1	1	0	1	-27,131783	275,322775	298,668615	0
14.01.2021	17:57:12	0	0	3,502187	4,59075	79,4124	1,383	75,305	3,5	1005,46	8	9,9	9,7	1	1	1	1	1	1	1	1	1	0	1	-26,497533	275,241867	298,920066	0
14.01.2021	17:57:13	0	0	3,728135	4,3785	97,3224	1,381	75,291	3,5	1005,38	8	9,9	9,7	1	1	1	1	1	1	1	1	1	0	1	-30,725863	275,289419	294,916677	0
14.01.2021	17:57:14	0	0	4,405978	4,8885	92,2104	1,386	75,295	3,5	1005,36	8	9,8	9,7	1	1	1	1	1	1	1	1	1	0	1	-25,933756	275,405618	300,258946	0
14.01.2021	17:57:15	0	0	2,937318	4,73025	96,1992	1,387	75,299	3,5	1005,56	8	9,9	9,7	1	1	1	1	1	1	1	1	1	0	1	-27,977449	275,279899	297,62005	0
14.01.2021	17:57:16	0	0	3,502187	4,76475	103,0284	1,388	75,268	3,5	1005,42	8	9,9	9,7	1	1	1	1	1	1	1	1	1	0	1	-23,749119	275,410408	302,466278	0
14.01.2021	17:57:17	0	0	4,970847	5,1855	113,5044	1,39	75,284	3,5	1005,5	8	9,9	9,7	1	1	1	1	1	1	1	1	1	0	1	-27,413672	275,351411	298,522294	0
14.01.2021	17:57:18	0	0	3,728135	5,6985	107,028	1,388	75,288	3,5	1005,52	8	9,9	9,7	1	1	1	1	1	1	1	1	1	0	1	-28,823115	275,397637	297,331778	0
14.01.2021	17:57:19	0	0	2,598397	6,04425	103,698	1,388	75,286	3,5	1005,46	8	9,9	9,7	1	1	1	1	1	1	1	1	1	0	1	-25,72234	275,275141	299,852648	0
14.01.2021	17:57:20	0	0	2,824345	5,9445	106,272	1,382	75,289	3,5	1005,48	8	9,9	9,7	1	1	1	1	1	1	1	1	1	0	1	-30,162086	275,418395	296,091151	0
14.01.2021	17:57:21	0	0	3,050292	5,5695	103,6908	1,384	75,278	3,5	1005,52	8	9,8	9,7	1	1	1	1	1	1	1	1	1	0	1	-28,752643	275,322775	297,047755	0
14.01.2021	17:57:22	0	0	2,598397	5,802	102,582	1,389	75,287	3,5	1005,62	8	9,8	9,7	1	1	1	1	1	1	1	1	1	0	1	-30,93728	275,418395	295,315958	0
14.01.2021	17:57:23	0	0	3,163266	6,03825	97,2972	1,384	75,271	3,5	1005,48	8	9,8	9,7	1	1	1	1	1	1	1	1	1	0	1	-24,453841	275,271969	301,106143	0
14.01.2021	17:57:24	0	0	4,970847	5,71875	107,7408	1,387	75,286	3,5	1005,52	8	9,8	9,7	1	1	1	1	1	1	1	1	1	0	1	-29,739253	275,267213	295,798232	0
14.01.2021	17:57:25	0	0	3,163266	5,457	104,0148	1,383	75,27	3,5	1005,48	8	9,9	9,7	1	1	1	1	1	1	1	1	1	0	1	-32,699084	275,354596	293,25196	0
14.01.2021	17:57:26	0	0	4,18003	5,5095	110,6532	1,385	75,279	3,5	1005,42	8	9,8	9,7	1	1	1	1	1	1	1	1	1	0	1	-26,215645	275,329135	299,614858	0
14.01.2021	17:57:27	0	0	3,27624	5,28975	104,436	1,385	75,269	3,5	1005,46	8	9,9	9,7	1	1	1	1	1	1	1	1	1	0	1	-26,497533	275,254536	298,979985	0
14.01.2021	17:57:28	0	0	3,728135	5,50275	110,6928	1,384	75,269	3,5	1005,48	8	9,9	9,7	1	1	1	1	1	1	1	1	1	0	1	-31,782946	275,297355	293,89715	0
14.01.2021	17:57:29	0	0	4,18003	5,25825	96,1884	1,378	75,27	3,5	1005,46	8	9,9	9,7	1	1	1	1	1	1	1	1	1	0	1	-29,034531	275,4152	297,203568	0
14.01.2021	17:57:30	0	0	4,631925	5,13525	115,5672	1,388	75,269	3,5	1005,54	8	9,9	9,7	1	1	1	1	1	1	1	1	1	0	1	-29,386892	275,300531	296,308231	0
14.01.2021	17:57:31	0	0	3,954082	5,2845	120,528	1,387	75,261	3,5	1005,52	8	9,8	9,7	1	1	1	1	1	1	1	1	1	0	1	-25,863284	275,418395	300,389953	0
14.01.2021	17:57:32	0	0	2,937318	5,595	104,4504	1,382	75,265	3,5	1005,58	8	9,8	9,7	1	1	1	1	1	1	1	1	1	0	1	-27,202255	275,383279	298,884627	0
14.01.2021	17:57:33	0	0	2,372449	5,5605	94,8528	1,389	75,271	3,5	1005,54	8	9,8	9,7	1	1	1	1	1	1	1	1	1	0	1	-33,051445	275,238701	292,351182	0
14.01.2021	17:57:34	0	0	4,970847	5,16825	96,1956	1,38	75,246	3,5	1005,42	8,1	9,9	9,7	1	1	1	1	1	1	1	1	1	0	1	-28,611698	275,384874	297,482737	0
14.01.2021	17:57:35	0	0	3,954082	4,96725	95,5152	1,393	75,276	3,5	1005,48	8,1	9,8	9,7	1	1	1	1	1	1	1	1	1	0	1	-29,175476	275,330725	296,662555	0
14.01.2021	17:57:36	0	0	4,631925	4,94325	103,6908	1,385	75,257	3,5	1005,58	8	9,9	9,7	1	1	1	1	1	1	1	1	1	0	1	-30,443975	275,416797	295,801693	0
14.01.2021	17:57:37	0	0	3,050292	4,70625	108,1224	1,384	75,252	3,5	1005,24	8	9,9	9,7	1	1	1	1	1	1	1	1	1	0	1	-27,484144	275,270384	298,06834	0
14.01.2021	17:57:38	0	0	2,711371	4,374	101,1132	1,386	75,268	3,5	1005,48	8,1	9,9	9,7	1	1	1	1	1	1	1	1	1	0	1	-30,655391	275,386469	295,446599	0
14.01.2021	17:57:39	0	0	3,27624	4,3875	99,9	1,389	75,26	3,5	1005,48	8	9,8	9,7	1	1	1	1	1	1	1	1	1	0	1	-28,32981	275,402425	297,847766	0
14.01.2021	17:57:40	0	0	4,067056	4,0995	92,9304	1,387	75,246	3,5	1005,46	8,1	9,8	9,7	1	1	1	1	1	1	1	1	1	0	1	-28,188865	275,329135	297,641637	0
14.01.2021	17:57:41	0	0	5,08382	3,8325	97,3188	1,389	75,25	3,5	1005,56	8	9,9	9,7	1	1	1	1	1	1	1	1	1	0	1	-27,906977	275,412005	298,315987	0
14.01.2021	17:57:42	0	0	3,27624	4,2735	91,926	1,385	75,232	3,5	1005,32	8	9,8	9,7	1	1	1	1	1	1	1	1	1	0	1	-28,611698	275,327545	297,211277	0
14.01.2021	17:57:43	0	0	4,405978	4,47975	84,7728	1,389	75,239	3,5	1005,46	8	9,9	9,7	1	1	1	1	1	1	1	1	1	0	1	-25,510923	275,246617	299,92914	0
14.01.2021	17:57:44	0	0	3,27624	4,37925	80,8632	1,391	75,228	3,5	1005,58	8	10	9,7	1	1	1	1	1	1	1	1	1	0	1	-26,990839	275,292593	298,666721	0
14.01.2021	17:57:45	0	0	4,631925	4,3545	83,7252	1,384	75,218	3,5	1005,4	8	9,8	9,7	1	1	1	1	1	1	1	1	1	0	1	-28,400282	275,394446	297,739492	0
14.01.2021	17:57:46	0	0	3,954082	4,6005	97,668	1,387	75,211	3,5	1005,5	8	9,8	9,7	1	1	1	1	1	1	1	1	1	0	1	-25,510923	275,29418	300,154148	0
14.01.2021	17:57:47	0	0	3,728135	4,512	93,6972	1,389	75,228	3,5	1005,54	8	9,8	9,7	1	1	1	1	1	1	1	1	1	0	1	-24,947146	275,254536	300,530372	0
14.01.2021	17:57:48	0	0	4,067056	4,479	97,2936	1,38	75,208	3,5	1005,52	8,1	9,8	9,7	1	1	1	1	1	1	1	1	1	0	1	-29,598309	275,327545	296,224667	0
14.01.2021	17:57:49	0	0	3,27624	4,6365	107,4384	1,39	75,219	3,5	1005,54	8	9,8	9,7	1	1	1	1	1	1	1	1	1	0	1	-25,229035	275,424786	301,054489	0
14.01.2021	17:57:50	0	0	2,824345	4,8585	98,082	1,388	75,228	3,5	1005,58	8	9,8	9,7	1	1	1	1	1	1	1	1	1	0	1	-26,215645	275,337088	299,652507	0
14.01.2021	17:57:51	0	0	4,518951	4,72125	117,018	1,39	75,216	3,5	1005,48	8,1	9,8	9,7	1	1	1	1	1	1	1	1	1	0	1	-23,960536	275,251368	301,501998	0
14.01.2021	17:57:52	0	0	4,405978	4,5375	107,028	1,39	75,22	3,5	1005,58	8	9,8	9,7	1	1	1	1	1	1	1	1	1	0	1	-28,259338	275,399233	297,903115	0
14.01.2021	17:57:53	0	0	3,050292	4,32	109,9836	1,384	75,212	3,5	1005,48	8,1	9,8	9,7	1	1	1	1	1	1	1	1	1	0	1	-25,581395	275,302119	300,121242	0
14.01.2021	17:57:54	0	0	4,518951	4,53225	93,4164	1,387	75,211	3,5	1005,52	8	9,8	9,7	1	1	1	1	1	1	1	1	1	0	1	-24,806202	275,412005	301,416762	0
14.01.2021	17:57:55	0	0	3,615161	4,5615	95,5368	1,387	75,206	3,5	1005,48	8	9,9	9,7	1	1	1	1	1	1	1	1	1	0	1	-28,047921	275,284658	297,572095	0
14.01.2021	17:57:56	0	0	4,405978	5,1165	101,5056	1,382	75,223	3,5	1005,26	8	9,8	9,7	1	1	1	1	1	1	1	1	1	0	1	-26,568006	275,237118	298,827136	0
14.01.2021	17:57:57	0	0	4,067056	5,3955	87,7428	1,391	75,245	3,5	1005,68	8	9,8	9,7	1	1	1	1	1	1	1	1	1	0	1	-32,276251	275,31165	293,471491	0
14.01.2021	17:57:58	0	0	3,163266	5,4	86,67	1,389	75,241	3,5	1005,56	8	9,8	9,7	1	1	1	1	1	1	1	1	1	0	1	-28,964059	275,405618	297,228643	0
14.01.2021	17:57:59	0	0	2,711371	5,6865	96,552	1,384	75,237	3,5	1005,38	8	9,8	9,7	1	1	1	1	1	1	1	1	1	0	1	-25,792812	275,283072	299,819698	0
14.01.2021	17:58:00	0	0	3,050292	6,32625	90,3888	1,391	75,255	3,5	1005,54	8	9,8	9,7	1	1	1	1	1	1	1	1	1	0	1	-31,289641	275,281485	294,315363	0
14.01.2021	17:58:01	0	0	3,050292	6,32625	90,3888	1,391	75,255	3,5	1005,54	8	9,8	9,7	1	1	1	1	1	1	1	1	1	0	1	-31,289641	275,281485	294,315363	0
14.01.2021	17:58:02	0	0	2,598397	6,0015	76,8384	1,395	75,257	3,5	1005,64	8,1	9,8	9,7	1	1	1	1	1	1	1	1	1	0	1	-30,373502	275,397637	295,78139	0
14.01.2021	17:58:03	0	0	3,050292	5,71725	83,754	1,388	75,245	3,5	1005,52	8,1	9,8	9,7	1	1	1	1	1	1	1	1	1	0	1	-29,245948	275,396041	296,901385	0
14.01.2021	17:58:04	0	0	4,405978	5,79975	92,9556	1,391	75,252	3,5	1005,52	8	9,8	9,7	1	1	1	1	1	1	1	1	1	0	1	-31,782946	275,249784	293,672097	0
14.01.2021	17:58:05	0	0	4,405978	5,74875	88,5816	1,393	75,262	3,5	1005,44	8,1	9,9	9,7	1	1	1	1	1	1	1	1	1	0	1	-30,93728	275,402425	295,240296	0
14.01.2021	17:58:06	0	0	3,502187	5,87175	80,892	1,414	75,244	3,5	1005,5	8,1	9,9	9,7	1	1	1	1	1	1	1	1	1	0	1	-31,571529	275,424786	294,711994	0
14.01.2021	17:58:07	0	0	3,050292	5,46525	82,3428	1,389	75,251	3,5	1005,46	8,1	9,9	9,7	1	1	1	1	1	1	1	1	1	0	1	-26,920366	275,373713	299,121209	0
14.01.2021	17:58:08	0	0	4,405978	5,2725	91,5228	1,395	75,226	3,5	1005,44	8	9,9	9,7	1	1	1	1	1	1	1	1	1	0	1	-25,72234	275,252952	299,747686	0
14.01.2021	17:58:09	0	0	2,824345	5,31075	77,9256	1,397	75,222	3,5	1005,44	8	9,8	9,7	1	1	1	1	1	1	1	1	1	0	1	-30,232558	275,278313	295,357436	0
14.01.2021	17:58:10	0	0	2,824345	5,4525	84,7944	1,393	75,228	3,5	1005,4	8,1	9,9	9,7	1	1	1	1	1	1	1	1	1	0	1	-27,906977	275,322775	297,893421	0
14.01.2021	17:58:11	0	0	3,615161	5,214	84,798	1,39	75,204	3,5	1005,52	8,1	9,8	9,7	1	1	1	1	1	1	1	1	1	0	1	-29,880197	275,443973	296,494255	0
14.01.2021	17:58:12	0	0	3,502187	4,97925	90,0396	1,393	75,212	3,5	1005,46	8	10	9,7	1	1	1	1	1	1	1	1	1	0	1	-27,906977	275,260873	297,600519	0
14.01.2021	17:58:13	0	0	2,937318	4,9035	100,7388	1,392	75,208	3,5	1005,28	8,1	9,9	9,7	1	1	1	1	1	1	1	1	1	0	1	-27,906977	275,427983	298,391694	0
14.01.2021	17:58:14	0	0	3,841109	4,61175	103,6692	1,395	75,191	3,5	1005,52	8,1	9,8	9,7	1	1	1	1	1	1	1	1	1	0	1	-24,242424	275,368932	301,776508	0
14.01.2021	17:58:15	0	0	4,067056	4,2555	100,7712	1,396	75,192	3,5	1005,46	8,1	9,8	9,7	1	1	1	1	1	1	1	1	1	0	1	-25,792812	275,426384	300,498284	0
14.01.2021	17:58:16	0	0	4,405978	4,33125	97,29	1,39	75,183	3,5	1005,5	8,1	10	9,7	1	1	1	1	1	1	1	1	1	0	1	-28,611698	275,407215	297,588568	0
14.01.2021	17:58:17	0	0	3,389214	4,97025	100,7604	1,387	75,171	3,5	1005,4	8,1	9,8	9,7	1	1	1	1	1	1	1	1	1	0	1	-25,792812	275,427983	300,505859	0
14.01.2021	17:58:18	0	0	2,711371	5,60775	98,7588	1,389	75,167	3,5	1005,46	8,1	9,8	9,7	1	1	1	1	1	1	1	1	1	0	1	-29,31642	275,399233	296,846033	0
14.01.2021	17:58:19	0	0	2,598397	5,7375	103,698	1,396	75,16	3,5	1005,48	8,1	9,9	9,7	1	1	1	1	1	1	1	1	1	0	1	-24,524313	275,325954	301,291136	0
14.01.2021	17:58:20	0	0	4,293004	5,8125	95,8248	1,395	75,162	3,5	1005,54	8,1	9,8	9,7	1	1	1	1	1	1	1	1	1	0	1	-26,849894	275,440774	299,509396	0
14.01.2021	17:58:21	0	0	4,857873	5,967	94,1256	1,393	75,148	3,5	1005,6	8,1	9,8	9,7	1	1	1	1	1	1	1	1	1	0	1	-27,625088	275,314828	298,137695	0
14.01.2021	17:58:22	0	0	4,631925	6,0735	92,6244	1,399	75,152	3,5	1005,6	8	9,8	9,7	1	1	1	1	1	1	1	1	1	0	1	-29,739253	275,439175	296,612457	0
14.01.2021	17:58:23	0	0	3,163266	6,2805	92,952	1,39	75,141	3,5	1005,42	8	10	9,7	1	1	1	1	1	1	1	1	1	0	1	-31,360113	275,381685	294,719216	0
14.01.2021	17:58:24	0	0	2,711371	5,91975	102,5496	1,397	75,138	3,5	1005,54	8,1	9,8	9,7	1	1	1	1	1	1	1	1	1	0	1	-29,668781	275,453574	296,751177	0
14.01.2021	17:58:25	0	0	3,728135	5,6655	128,4012	1,394	75,12	3,5	1005,44	8,1	9,8	9,7	1	1	1	1	1	1	1	1	1	0	1	-28,047921	275,399233	298,114532	0
14.01.2021	17:58:26	0	0	3,050292	5,31075	108,1296	1,394	75,131	3,5	1005,52	8,1	9,8	9,7	1	1	1	1	1	1	1	1	1	0	1	-24,876674	275,2482	300,570879	0
14.01.2021	17:58:27	0	0	3,050292	4,86075	116,442	1,395	75,118	3,5	1005,46	8,1	9,9	9,7	1	1	1	1	1	1	1	1	1	0	1	-27,343199	275,367339	298,668187	0
14.01.2021	17:58:28	0	0	3,050292	4,71525	120,5496	1,39	75,106	3,5	1005,44	8,1	9,8	9,7	1	1	1	1	1	1	1	1	1	0	1	-27,131783	275,445573	299,250252	0
14.01.2021	17:58:29	0	0	4,293004	4,9485	99,9	1,404	75,107	3,5	1005,46	8,1	9,8	9,7	1	1	1	1	1	1	1	1	1	0	1	-27,343199	275,327545	298,479776	0
14.01.2021	17:58:30	0	0	2,372449	5,4105	109,9764	1,403	75,094	3,5	1005,56	8	9,8	9,7	1	1	1	1	1	1	1	1	1	0	1	-31,078224	275,435976	295,258328	0
14.01.2021	17:58:31	0	0	4,18003	5,2635	107,838	1,398	75,095	3,5	1005,36	8	9,8	9,7	1	1	1	1	1	1	1	1	1	0	1	-30,232558	275,354596	295,718486	0
14.01.2021	17:58:32	0	0	3,27624	5,32125	106,6824	1,403	75,124	3,5	1005,48	8,1	9,8	9,7	1	1	1	1	1	1	1	1	1	0	1	-32,628612	275,265628	292,901374	0
14.01.2021	17:58:33	0	0	4,067056	5,2725	119,0628	1,401	75,111	3,5	1005,52	8,1	9,9	9,7	1	1	1	1	1	1	1	1	1	0	1	-25,72234	275,316417	300,047964	0
14.01.2021	17:58:34	0	0	2,937318	5,48475	125,0964	1,396	75,104	3,5	1005,54	8,1	10	9,7	1	1	1	1	1	1	1	1	1	0	1	-25,017618	275,388064	301,091927	0
14.01.2021	17:58:35	0	0	4,18003	5,8275	109,9944	1,4	75,092	3,5	1005,52	8,1	9,8	9,7	1	1	1	1	1	1	1	1	1	0	1	-25,017618	275,279899	300,57988	0
14.01.2021	17:58:36	0	0	2,598397	6,255	112,302	1,405	75,084	3,5	1005,38	8,1	9,9	9,7	1	1	1	1	1	1	1	1	1	0	1	-25,510923	275,31165	300,236819	0
14.01.2021	17:58:37	0	0	3,841109	6,0795	108,1332	1,403	75,09	3,5	1005,54	8,1	9,8	9,7	1	1	1	1	1	1	1	1	1	0	1	-27,766032	275,275141	297,808955	0
14.01.2021	17:58:38	0	0	3,27624	6,04275	106,2648	1,405	75,07	3,5	1005,54	8,1	9,8	9,7	1	1	1	1	1	1	1	1	1	0	1	-26,215645	275,348227	299,705246	0
14.01.2021	17:58:39	0	0	3,728135	5,75175	105,1488	1,406	75,062	3,5	1005,58	8,1	9,8	9,7	1	1	1	1	1	1	1	1	1	0	1	-29,739253	275,271969	295,820731	0
14.01.2021	17:58:40	0	0	2,372449	5,41275	106,2936	1,402	75,067	3,5	1005,42	8,1	10	9,7	1	1	1	1	1	1	1	1	1	0	1	-32,487667	275,39285	293,644548	0
14.01.2021	17:58:41	0	0	4,518951	5,01675	117,0144	1,403	75,048	3,5	1005,4	8,1	9,8	9,7	1	1	1	1	1	1	1	1	1	0	1	-27,061311	275,407215	299,138956	0
14.01.2021	17:58:42	0	0	4,518951	4,81875	100,35	1,406	75,057	3,5	1005,38	8,1	9,8	9,7	1	1	1	1	1	1	1	1	1	0	1	-27,202255	275,333906	298,650835	0
14.01.2021	17:58:43	0	0	3,389214	5,33475	103,2876	1,407	75,049	3,5	1005,54	8	9,8	9,7	1	1	1	1	1	1	1	1	1	0	1	-28,752643	275,270384	296,799841	0
14.01.2021	17:58:44	0	0	2,259476	5,56425	124,2648	1,408	75,041	3,5	1005,54	8,1	10	9,7	1	1	1	1	1	1	1	1	1	0	1	-27,061311	275,381685	299,018018	0
14.01.2021	17:58:45	0	0	3,27624	5,637	115,0128	1,404	75,043	3,5	1005,58	8,1	9,8	9,7	1	1	1	1	1	1	1	1	1	0	1	-31,219168	275,268798	294,325815	0
14.01.2021	17:58:46	0	0	2,372449	5,775	106,6464	1,399	75,032	3,5	1005,38	8,1	9,8	9,7	1	1	1	1	1	1	1	1	1	0	1	-28,964059	275,319595	296,82129	0
14.01.2021	17:58:47	0	0	4,067056	5,331	109,5912	1,404	75,036	3,5	1005,4	8,1	9,8	9,7	1	1	1	1	1	1	1	1	1	0	1	-30,373502	275,440774	295,985788	0
14.01.2021	17:58:48	0	0	4,857873	5,15475	96,2136	1,407	75,038	3,5	1005,4	8,1	9,8	9,7	1	1	1	1	1	1	1	1	1	0	1	-31,148696	275,423188	295,127254	0
14.01.2021	17:58:49	0	0	4,744899	5,316	80,8848	1,406	75,035	3,5	1005,4	8,1	9,9	9,7	1	1	1	1	1	1	1	1	1	0	1	-30,866808	275,330725	294,971223	0
14.01.2021	17:58:50	0	0	2,372449	5,0415	91,8972	1,411	75,035	3,5	1005,44	8,1	9,8	9,7	1	1	1	1	1	1	1	1	1	0	1	-26,70895	275,284658	298,911066	0
14.01.2021	17:58:51	0	0	2,824345	5,133	125,4096	1,402	75,016	3,5	1005,42	8,1	9,8	9,7	1	1	1	1	1	1	1	1	1	0	1	-27,484144	275,351411	298,451822	0
14.01.2021	17:58:52	0	0	2,711371	5,05275	108,8856	1,406	75,041	3,5	1005,48	8,1	9,8	9,7	1	1	1	1	1	1	1	1	1	0	1	-27,343199	275,439175	299,00851	0
14.01.2021	17:58:53	0	0	4,293004	5,247	107,424	1,408	75,026	3,5	1005,5	8,1	9,9	9,7	1	1	1	1	1	1	1	1	1	0	1	-27,061311	275,400829	299,108703	0
14.01.2021	17:58:54	0	0	3,050292	5,388	86,2776	1,406	75,018	3,5	1005,42	8,1	10	9,7	1	1	1	1	1	1	1	1	1	0	1	-27,343199	275,439175	299,00851	0
14.01.2021	17:58:55	0	0	4,518951	5,45625	74,5308	1,404	75,01	3,5	1005,4	8,1	9,8	9,7	1	1	1	1	1	1	1	1	1	0	1	-24,383369	275,302119	301,319269	0
14.01.2021	17:58:56	0	0	4,405978	5,45325	77,9688	1,399	75,005	3,5	1005,46	8,1	10	9,7	1	1	1	1	1	1	1	1	1	0	1	-32,417195	275,458376	294,025526	0
14.01.2021	17:58:57	0	0	4,18003	5,55975	71,9928	1,406	75,001	3,5	1005,5	8,1	9,8	9,7	1	1	1	1	1	1	1	1	1	0	1	-31,007752	275,291006	294,642298	0
14.01.2021	17:58:58	0	0	3,389214	5,4795	89,3232	1,405	74,984	3,5	1005,48	8,1	9,8	9,7	1	1	1	1	1	1	1	1	1	0	1	-27,836505	275,386469	298,265486	0
14.01.2021	17:58:59	0	0	4,631925	4,80975	80,2152	1,4	74,983	3,5	1005,44	8,1	10	9,7	1	1	1	1	1	1	1	1	1	0	1	-27,061311	275,435976	299,275241	0
14.01.2021	17:59:00	0	0	4,067056	3,8985	83,7288	1,409	74,972	3,5	1005,2	8,1	9,8	9,7	1	1	1	1	1	1	1	1	1	0	1	-27,625088	275,383279	298,461794	0
14.01.2021	17:59:01	0	0	4,293004	3,7365	93,42	1,406	74,976	3,5	1005,5	8,1	9,8	9,7	1	1	1	1	1	1	1	1	1	0	1	-29,105004	275,445573	297,277031	0
14.01.2021	17:59:02	0	0	4,293004	3,7365	93,42	1,406	74,976	3,5	1005,5	8,1	9,8	9,7	1	1	1	1	1	1	1	1	1	0	1	-29,105004	275,445573	297,277031	0
14.01.2021	17:59:03	0	0	4,405978	4,02375	110,6892	1,408	74,976	3,5	1005,46	8,1	9,8	9,7	1	1	1	1	1	1	1	1	1	0	1	-26,70895	275,341861	299,181799	0
14.01.2021	17:59:04	0	0	3,954082	4,32675	108,108	1,413	74,973	3,5	1005,42	8,1	10	9,7	1	1	1	1	1	1	1	1	1	0	1	-29,175476	275,273555	296,39201	0
14.01.2021	17:59:05	0	0	2,937318	4,30425	109,602	1,402	74,973	3,5	1005,38	8,1	10	9,7	1	1	1	1	1	1	1	1	1	0	1	-26,779422	275,345044	299,126396	0
14.01.2021	17:59:06	0	0	3,050292	4,25625	115,5672	1,409	74,963	3,5	1005,38	8,1	9,8	9,7	1	1	1	1	1	1	1	1	1	0	1	-23,749119	275,279899	301,848379	0
14.01.2021	17:59:07	0	0	2,711371	4,32975	109,6128	1,4	74,958	3,5	1005,38	8,1	9,8	9,7	1	1	1	1	1	1	1	1	1	0	1	-26,145173	275,367339	299,866214	0
14.01.2021	17:59:08	0	0	2,711371	4,062	102,9528	1,405	74,947	3,5	1005,38	8,1	10	9,7	1	1	1	1	1	1	1	1	1	0	1	-26,920366	275,308472	298,812338	0
14.01.2021	17:59:09	0	0	3,389193	4,02375	125,7588	1,41	74,948	3,5	1005,5	8,1	9,8	9,8	1	1	1	1	1	1	1	1	1	0	1	-30,655391	275,412005	295,567573	0
14.01.2021	17:59:10	0	0	3,050292	4,21275	106,6644	1,407	74,935	3,5	1005,38	8,1	9,8	9,7	1	1	1	1	1	1	1	1	1	0	1	-28,470754	275,273555	297,096732	0
14.01.2021	17:59:11	0	0	4,518951	4,7025	103,284	1,408	74,939	3,5	1005,5	8,1	9,8	9,7	1	1	1	1	1	1	1	1	1	0	1	-27,625088	275,413603	298,605443	0
14.01.2021	17:59:12	0	0	3,954082	4,9635	106,272	1,412	74,933	3,5	1005,44	8,1	10	9,7	1	1	1	1	1	1	1	1	1	0	1	-29,950669	275,418395	296,302568	0
14.01.2021	17:59:13	0	0	4,293004	4,971	95,526	1,408	74,929	3,5	1005,48	8,1	9,8	9,7	1	1	1	1	1	1	1	1	1	0	1	-30,091614	275,39285	296,040602	0
14.01.2021	17:59:14	0	0	4,405978	4,98975	96,9696	1,411	74,924	3,5	1005,54	8,1	10	9,7	1	1	1	1	1	1	1	1	1	0	1	-30,30303	275,305295	295,414639	0
14.01.2021	17:59:15	0	0	3,841109	5,23725	95,184	1,408	74,925	3,5	1005,48	8	9,8	9,7	1	1	1	1	1	1	1	1	1	0	1	-31,007752	275,394446	295,132022	0
14.01.2021	17:59:16	0	0	4,18003	5,53125	97,2828	1,411	74,927	3,5	1005,62	8,1	10	9,7	1	1	1	1	1	1	1	1	1	0	1	-28,823115	275,443973	297,551338	0
14.01.2021	17:59:17	0	0	4,518951	5,121	95,5188	1,409	74,922	3,5	1005,5	8,1	10	9,7	1	1	1	1	1	1	1	1	1	0	1	-28,118393	275,314828	297,644389	0
14.01.2021	17:59:18	0	0	3,728135	4,82775	105,4728	1,408	74,93	3,5	1005,38	8,1	10	9,7	1	1	1	1	1	1	1	1	1	0	1	-26,286117	275,332316	299,559443	0
14.01.2021	17:59:19	0	0	2,485423	5,07375	105,5088	1,416	74,938	3,5	1005,4	8,1	9,8	9,7	1	1	1	1	1	1	1	1	1	0	1	-26,568006	275,267213	298,969479	0
14.01.2021	17:59:20	0	0	2,598397	5,05275	106,6284	1,408	74,928	3,5	1005,4	8,1	10	9,7	1	1	1	1	1	1	1	1	1	0	1	-25,440451	275,410408	300,774946	0
14.01.2021	17:59:21	0	0	2,598397	5,037	98,4456	1,412	74,939	3,5	1005,48	8,1	9,8	9,7	1	1	1	1	1	1	1	1	1	0	1	-25,440451	275,289419	300,202089	0
14.01.2021	17:59:22	0	0	3,163266	5,2935	101,4984	1,412	74,939	3,5	1005,48	8,1	9,8	9,7	1	1	1	1	1	1	1	1	1	0	1	-27,69556	275,313239	298,059702	0
14.01.2021	17:59:23	0	0	3,389214	5,61975	111,0744	1,41	74,942	3,5	1005,38	8,1	10	9,7	1	1	1	1	1	1	1	1	1	0	1	-26,849894	275,279899	298,747604	0
14.01.2021	17:59:24	0	0	3,27624	5,802	108,468	1,414	74,929	3,5	1005,58	8,1	10	9,7	1	1	1	1	1	1	1	1	1	0	1	-29,950669	275,453574	296,469289	0
14.01.2021	17:59:25	0	0	3,841109	6,00825	105,9012	1,414	74,925	3,5	1005,46	8,1	10	9,7	1	1	1	1	1	1	1	1	1	0	1	-29,105004	275,346636	296,808351	0
14.01.2021	17:59:26	0	0	3,728135	6,12225	100,8252	1,407	74,91	3,5	1005,4	8,1	9,8	9,7	1	1	1	1	1	1	1	1	1	0	1	-28,32981	275,265628	297,200176	0
14.01.2021	17:59:27	0	0	2,824345	5,7345	101,4696	1,408	74,903	3,5	1005,5	8,1	10	9,7	1	1	1	1	1	1	1	1	1	0	1	-26,568006	275,298943	299,119603	0
14.01.2021	17:59:28	0	0	4,293004	5,34825	94,7844	1,413	74,914	3,5	1005,44	8,1	9,8	9,7	1	1	1	1	1	1	1	1	1	0	1	-26,638478	275,440774	299,720812	0
14.01.2021	17:59:29	0	0	4,744871	5,47575	104,7564	1,411	74,919	3,5	1005,58	8,1	9,8	9,8	1	1	1	1	1	1	1	1	1	0	1	-27,625088	275,423188	298,650862	0
14.01.2021	17:59:30	0	0	4,067056	5,6655	102,5532	1,409	74,906	3,5	1005,46	8,1	10	9,7	1	1	1	1	1	1	1	1	1	0	1	-24,665257	275,381685	301,414072	0
14.01.2021	17:59:31	0	0	3,389214	5,6265	110,6712	1,412	74,902	3,5	1005,42	8,1	9,8	9,7	1	1	1	1	1	1	1	1	1	0	1	-28,752643	275,260873	296,754853	0
14.01.2021	17:59:32	0	0	4,293004	5,4135	110,6892	1,404	74,891	3,5	1005,32	8,1	9,8	9,7	1	1	1	1	1	1	1	1	1	0	1	-27,625088	275,337088	298,243063	0
14.01.2021	17:59:33	0	0	2,033528	5,12325	105,138	1,406	74,878	3,5	1005,4	8,1	9,8	9,7	1	1	1	1	1	1	1	1	1	0	1	-27,625088	275,267213	297,912396	0
14.01.2021	17:59:34	0	0	4,518951	4,8195	114,084	1,412	74,894	3,5	1005,38	8,1	10	9,7	1	1	1	1	1	1	1	1	1	0	1	-29,31642	275,38009	296,755357	0
14.01.2021	17:59:35	0	0	4,293004	4,77525	107,4384	1,405	74,883	3,5	1005,54	8,1	9,8	9,7	1	1	1	1	1	1	1	1	1	0	1	-26,990839	275,443973	299,383614	0
14.01.2021	17:59:36	0	0	3,050292	4,7355	101,4984	1,404	74,899	3,5	1005,44	8,1	9,8	9,7	1	1	1	1	1	1	1	1	1	0	1	-32,55814	275,341861	293,33261	0
14.01.2021	17:59:37	0	0	4,405978	4,68	80,5392	1,409	74,893	3,5	1005,4	8,1	10	9,7	1	1	1	1	1	1	1	1	1	0	1	-24,10148	275,279899	301,496019	0
14.01.2021	17:59:38	0	0	3,615161	4,39425	92,2176	1,41	74,903	3,5	1005,44	8,1	9,8	9,7	1	1	1	1	1	1	1	1	1	0	1	-26,638478	275,251368	298,824056	0
14.01.2021	17:59:39	0	0	3,615161	4,22775	104,1228	1,409	74,893	3,5	1005,54	8,1	10	9,7	1	1	1	1	1	1	1	1	1	0	1	-31,853418	275,322775	293,94698	0
14.01.2021	17:59:40	0	0	3,728135	4,24425	95,8284	1,404	74,891	3,5	1005,38	8,1	9,8	9,7	1	1	1	1	1	1	1	1	1	0	1	-27,131783	275,437575	299,212348	0
14.01.2021	17:59:41	0	0	3,954082	4,5105	105,1164	1,41	74,883	3,5	1005,42	8,1	10	9,7	1	1	1	1	1	1	1	1	1	0	1	-30,021142	275,39285	296,111074	0
14.01.2021	17:59:42	0	0	3,615161	4,6485	84,4164	1,407	74,872	3,5	1005,46	8,1	10	9,7	1	1	1	1	1	1	1	1	1	0	1	-29,809725	275,305295	295,907944	0
14.01.2021	17:59:43	0	0	2,711371	4,66575	82,44	1,404	74,88	3,5	1005,48	8,1	9,8	9,7	1	1	1	1	1	1	1	1	1	0	1	-26,215645	275,394446	299,924129	0
14.01.2021	17:59:44	0	0	3,389214	4,46175	89,7192	1,403	74,884	3,5	1005,46	8,1	10	9,7	1	1	1	1	1	1	1	1	1	0	1	-28,400282	275,445573	297,981753	0
14.01.2021	17:59:45	0	0	3,502166	4,9785	96,2244	1,406	74,875	3,5	1005,42	8,1	9,8	9,8	1	1	1	1	1	1	1	1	1	0	1	-24,031008	275,356188	301,927576	0
14.01.2021	17:59:46	0	0	2,372449	5,1465	106,2936	1,402	74,886	3,5	1005,38	8	9,8	9,7	1	1	1	1	1	1	1	1	1	0	1	-27,625088	275,432778	298,696309	0
14.01.2021	17:59:47	0	0	4,518951	5,337	93,3012	1,407	74,858	3,5	1005,26	8,1	10	9,7	1	1	1	1	1	1	1	1	1	0	1	-25,440451	275,346636	300,472903	0
14.01.2021	17:59:48	0	0	2,598397	5,20725	95,5296	1,409	74,858	3,5	1005,36	8,1	9,8	9,7	1	1	1	1	1	1	1	1	1	0	1	-28,047921	275,435976	298,288631	0
14.01.2021	17:59:49	0	0	4,405951	5,01525	107,442	1,403	74,868	3,5	1005,44	8,1	10	9,8	1	1	1	1	1	1	1	1	1	0	1	-27,343199	275,394446	298,796574	0
14.01.2021	17:59:50	0	0	4,067056	4,9305	108,5004	1,412	74,87	3,5	1005,4	8,1	9,8	9,7	1	1	1	1	1	1	1	1	1	0	1	-29,598309	275,279899	295,99919	0
14.01.2021	17:59:51	0	0	3,615139	4,71225	110,016	1,415	74,881	3,5	1005,4	8	10	9,8	1	1	1	1	1	1	1	1	1	0	1	-28,259338	275,42159	298,009041	0
14.01.2021	17:59:52	0	0	3,728135	4,917	109,9656	1,406	74,88	3,5	1005,44	8,1	9,8	9,7	1	1	1	1	1	1	1	1	1	0	1	-29,809725	275,384874	296,284711	0
14.01.2021	17:59:53	0	0	2,937318	5,03025	115,9668	1,415	74,879	3,5	1005,5	8,1	9,8	9,7	1	1	1	1	1	1	1	1	1	0	1	-24,947146	275,440774	301,412144	0
14.01.2021	17:59:54	0	0	3,389214	5,151	117,864	1,401	74,867	3,5	1005,36	8,1	9,8	9,7	1	1	1	1	1	1	1	1	1	0	1	-25,581395	275,306884	300,143791	0
14.01.2021	17:59:55	0	0	2,485423	4,6005	134,5572	1,41	74,879	3,5	1005,54	8,1	10	9,7	1	1	1	1	1	1	1	1	1	0	1	-24,735729	275,359373	301,237937	0
14.01.2021	17:59:56	0	0	2,937301	4,42725	127,2456	1,411	74,884	3,5	1005,52	8,1	10	9,8	1	1	1	1	1	1	1	1	1	0	1	-27,766032	275,442374	298,600838	0
14.01.2021	17:59:57	0	0	4,067056	4,08375	120,5604	1,401	74,884	3,5	1005,28	8,1	10	9,7	1	1	1	1	1	1	1	1	1	0	1	-30,725863	275,332316	295,119697	0
14.01.2021	17:59:58	0	0	3,728113	4,21125	101,8188	1,412	74,896	3,5	1005,56	8,1	10	9,8	1	1	1	1	1	1	1	1	1	0	1	-23,044397	275,264043	302,478091	0
14.01.2021	17:59:59	0	0	3,954059	4,77	136,9152	1,407	74,89	3,5	1005,48	8,1	10	9,8	1	1	1	1	1	1	1	1	1	0	1	-24,665257	275,359373	301,30841	0
14.01.2021	18:00:00	0	0	2,824345	4,81575	108,8856	1,41	74,893	3,5	1005,42	8	10	9,7	1	1	1	1	1	1	1	1	1	0	1	-24,453841	275,437575	301,89029	0
14.01.2021	18:00:01	0	0	2,824345	4,81575	108,8856	1,41	74,893	3,5	1005,42	8	10	9,7	1	1	1	1	1	1	1	1	1	0	1	-24,453841	275,437575	301,89029	0
14.01.2021	18:00:02	0	0	4,180055	4,731	134,946	1,402	74,884	3,5	1005,46	8,1	10	9,6	1	1	1	1	1	1	1	1	1	0	1	-31,219168	275,376902	294,837506	0
14.01.2021	18:00:03	0	0	4,518951	4,5525	102,96	1,402	74,894	3,5	1005,46	8,1	10	9,7	1	1	1	1	1	1	1	1	1	0	1	-25,229035	275,271969	300,33095	0
14.01.2021	18:00:04	0	0	4,857873	5,02425	114,0984	1,407	74,893	3,5	1005,5	8,1	9,8	9,7	1	1	1	1	1	1	1	1	1	0	1	-30,443975	275,287832	295,191057	0
14.01.2021	18:00:05	0	0	4,293004	5,496	109,6128	1,409	74,895	3,5	1005,36	8,1	9,8	9,7	1	1	1	1	1	1	1	1	1	0	1	-27,131783	275,252952	298,338243	0
14.01.2021	18:00:06	0	0	4,857873	5,70225	118,7136	1,401	74,888	3,5	1005,42	8,1	9,8	9,7	1	1	1	1	1	1	1	1	1	0	1	-29,527837	275,432778	296,793561	0
14.01.2021	18:00:07	0	0	4,292978	6,1155	115,992	1,408	74,9	3,5	1005,34	8,1	10	9,8	1	1	1	1	1	1	1	1	1	0	1	-25,08809	275,345044	300,817728	0
14.01.2021	18:00:08	0	0	4,857844	6,29325	110,7756	1,407	74,896	3,5	1005,46	8,1	9,8	9,8	1	1	1	1	1	1	1	1	1	0	1	-25,229035	275,273555	300,338451	0
14.01.2021	18:00:09	0	0	3,615161	5,907	115,6176	1,405	74,901	3,5	1005,64	8,1	10	9,7	1	1	1	1	1	1	1	1	1	0	1	-24,594785	275,419992	301,666023	0
14.01.2021	18:00:10	0	0	4,744927	5,679	126,846	1,397	74,9	3,5	1005,36	8,1	10	9,6	1	1	1	1	1	1	1	1	1	0	1	-25,299507	275,437575	301,044624	0
14.01.2021	18:00:11	0	0	4,292978	5,64	121,2768	1,401	74,902	3,5	1005,46	8,1	10	9,8	1	1	1	1	1	1	1	1	1	0	1	-28,682171	275,318006	297,095656	0
14.01.2021	18:00:12	0	0	2,372449	5,4285	109,3104	1,411	74,936	3,5	1005,56	8,1	10	9,7	1	1	1	1	1	1	1	1	1	0	1	-28,470754	275,412005	297,75221	0
14.01.2021	18:00:13	0	0	2,711371	5,34	115,992	1,408	74,924	3,5	1005,52	8,1	10	9,7	1	1	1	1	1	1	1	1	1	0	1	-30,373502	275,42159	295,894876	0
14.01.2021	18:00:14	0	0	3,27624	5,2545	110,664	1,411	74,935	3,5	1005,58	8,1	10	9,7	1	1	1	1	1	1	1	1	1	0	1	-26,920366	275,303707	298,789787	0
14.01.2021	18:00:15	0	0	2,598413	5,29425	111,06	1,405	74,957	3,5	1005,52	8,1	10	9,6	1	1	1	1	1	1	1	1	1	0	1	-27,131783	275,251368	298,330751	0
14.01.2021	18:00:16	0	0	2,485408	5,39625	107,046	1,405	74,969	3,5	1005,38	8,1	9,8	9,8	1	1	1	1	1	1	1	1	1	0	1	-28,611698	275,364152	297,384598	0
14.01.2021	18:00:17	0	0	3,728135	5,5245	111,816	1,402	74,988	3,5	1005,42	8,1	9,8	9,7	1	1	1	1	1	1	1	1	1	0	1	-29,386892	275,259289	296,113108	0
14.01.2021	18:00:18	0	0	3,27622	5,39925	99,1296	1,403	74,98	3,5	1005,5	8,1	10	9,8	1	1	1	1	1	1	1	1	1	0	1	-28,964059	275,298943	296,72355	0
14.01.2021	18:00:19	0	0	3,954082	5,37975	105,5268	1,404	74,989	3,5	1005,5	8,1	10	9,7	1	1	1	1	1	1	1	1	1	0	1	-26,356589	275,286245	299,270934	0
14.01.2021	18:00:20	0	0	4,631925	5,5035	102,5388	1,403	74,999	3,5	1005,4	8,1	9,8	9,7	1	1	1	1	1	1	1	1	1	0	1	-26,568006	275,435976	299,768546	0
14.01.2021	18:00:21	0	0	4,744899	5,67825	108,1296	1,404	75,001	3,5	1005,38	8,1	10	9,7	1	1	1	1	1	1	1	1	1	0	1	-26,497533	275,384874	299,596902	0
14.01.2021	18:00:22	0	0	3,502208	5,6895	110,7468	1,404	75,001	3,5	1005,2	8,1	10	9,6	1	1	1	1	1	1	1	1	1	0	1	-27,69556	275,432778	298,625837	0
14.01.2021	18:00:23	0	0	2,711355	5,54175	113,3496	1,4	75,005	3,5	1005,34	8,1	10	9,8	1	1	1	1	1	1	1	1	1	0	1	-28,400282	275,305295	297,317387	0
14.01.2021	18:00:24	0	0	3,841109	5,469	114,8616	1,402	75,013	3,5	1005,54	8,1	10	9,7	1	1	1	1	1	1	1	1	1	0	1	-28,964059	275,440774	297,395231	0
14.01.2021	18:00:25	0	0	2,824345	5,43525	114,8904	1,4	75,021	3,5	1005,44	8,1	10	9,7	1	1	1	1	1	1	1	1	1	0	1	-26,779422	275,42159	299,488957	0
14.01.2021	18:00:26	0	0	3,841109	5,74275	100,3464	1,402	75,024	3,5	1005,42	8,1	10	9,7	1	1	1	1	1	1	1	1	1	0	1	-27,131783	275,432778	299,189614	0
14.01.2021	18:00:27	0	0	3,27622	5,4765	103,2948	1,397	75,033	3,5	1005,52	8,1	9,8	9,8	1	1	1	1	1	1	1	1	1	0	1	-26,990839	275,439175	299,360871	0
14.01.2021	18:00:28	0	0	4,293004	5,4315	98,4564	1,396	75,017	3,5	1005,46	8,1	10	9,7	1	1	1	1	1	1	1	1	1	0	1	-29,175476	275,351411	296,76049	0
14.01.2021	18:00:29	0	0	4,18003	5,42325	96,2352	1,402	75,035	3,5	1005,48	8,1	9,8	9,7	1	1	1	1	1	1	1	1	1	0	1	-32,417195	275,257704	293,07531	0
14.01.2021	18:00:30	0	0	2,598397	5,448	94,104	1,401	75,034	3,5	1005,36	8,1	10	9,7	1	1	1	1	1	1	1	1	1	0	1	-27,413672	275,370526	298,612808	0
14.01.2021	18:00:31	0	0	4,067056	5,34975	90,4032	1,411	75,043	3,5	1005,6	8,1	10	9,7	1	1	1	1	1	1	1	1	1	0	1	-24,876674	275,402425	301,300902	0
14.01.2021	18:00:32	0	0	4,857873	5,3565	91,1628	1,398	75,026	3,5	1005,46	8,1	10	9,7	1	1	1	1	1	1	1	1	1	0	1	-25,299507	275,408812	300,908325	0
14.01.2021	18:00:33	0	0	3,163285	5,19525	84,042	1,397	75,048	3,5	1005,42	8,1	9,8	9,6	1	1	1	1	1	1	1	1	1	0	1	-29,739253	275,353003	296,204252	0
14.01.2021	18:00:34	0	0	3,502187	5,1	91,1484	1,401	75,046	3,5	1005,42	8,1	10	9,7	1	1	1	1	1	1	1	1	1	0	1	-27,836505	275,265628	297,693482	0
14.01.2021	18:00:35	0	0	2,937301	4,95975	105,516	1,399	75,039	3,5	1005,5	8,1	10	9,8	1	1	1	1	1	1	1	1	1	0	1	-29,31642	275,271969	296,243564	0
14.01.2021	18:00:36	0	0	2,598397	4,86075	98,4492	1,4	75,046	3,5	1005,4	8,1	9,8	9,7	1	1	1	1	1	1	1	1	1	0	1	-31,007752	275,39285	295,124464	0
14.01.2021	18:00:37	0	0	2,937318	4,83675	105,8616	1,401	75,049	3,5	1005,26	8,1	9,8	9,7	1	1	1	1	1	1	1	1	1	0	1	-32,487667	275,443973	293,886785	0
14.01.2021	18:00:38	0	0	4,405951	4,31925	94,3848	1,399	75,056	3,5	1005,52	8,1	9,8	9,8	1	1	1	1	1	1	1	1	1	0	1	-28,752643	275,364152	297,243654	0
14.01.2021	18:00:39	0	0	2,711371	3,96975	84,0204	1,397	75,045	3,5	1005,48	8,1	9,8	9,7	1	1	1	1	1	1	1	1	1	0	1	-27,413672	275,399233	298,748781	0
14.01.2021	18:00:40	0	0	2,598381	4,0275	102,5352	1,395	75,062	3,5	1005,34	8,1	9,8	9,8	1	1	1	1	1	1	1	1	1	0	1	-27,906977	275,432778	298,41442	0
14.01.2021	18:00:41	0	0	4,405978	4,329	95,5152	1,395	75,072	3,5	1005,4	8,1	9,8	9,7	1	1	1	1	1	1	1	1	1	0	1	-24,242424	275,367339	301,768962	0
14.01.2021	18:00:42	0	0	3,163247	4,10925	85,1904	1,4	75,083	3,5	1005,54	8,1	9,8	9,8	1	1	1	1	1	1	1	1	1	0	1	-31,571529	275,435976	294,765023	0
14.01.2021	18:00:43	0	0	3,502187	4,173	101,1024	1,394	75,074	3,5	1005,36	8,1	10	9,7	1	1	1	1	1	1	1	1	1	0	1	-24,10148	275,305295	301,616189	0
14.01.2021	18:00:44	0	0	3,841132	4,10475	97,2756	1,398	75,09	3,5	1005,32	8,1	10	9,6	1	1	1	1	1	1	1	1	1	0	1	-25,510923	275,367339	300,500463	0
14.01.2021	18:00:45	0	0	2,824345	3,84975	107,7228	1,4	75,093	3,5	1005,52	8,1	10	9,7	1	1	1	1	1	1	1	1	1	0	1	-27,061311	275,267213	298,476174	0
14.01.2021	18:00:46	0	0	3,954082	3,8025	105,1308	1,39	75,1	3,5	1005,42	8,1	10	9,7	1	1	1	1	1	1	1	1	1	0	1	-28,682171	275,249784	296,772872	0
14.01.2021	18:00:47	0	0	4,857873	4,42275	70,6032	1,397	75,082	3,5	1005,4	8,1	10	9,7	1	1	1	1	1	1	1	1	1	0	1	-25,229035	275,418395	301,024203	0
14.01.2021	18:00:48	0	0	4,293004	4,9755	80,1432	1,398	75,106	3,5	1005,44	8,1	10	9,7	1	1	1	1	1	1	1	1	1	0	1	-29,105004	275,388064	297,004542	0
14.01.2021	18:00:49	0	0	2,711371	5,19375	78,6636	1,393	75,118	3,5	1005,42	8,1	10	9,7	1	1	1	1	1	1	1	1	1	0	1	-29,809725	275,298943	295,877884	0
14.01.2021	18:00:50	0	0	4,293004	5,79675	92,2608	1,399	75,126	3,5	1005,44	8,1	9,9	9,7	1	1	1	1	1	1	1	1	1	0	1	-29,105004	275,399233	297,057449	0
14.01.2021	18:00:51	0	0	2,485423	5,679	96,9408	1,396	75,135	3,5	1005,6	8,1	10	9,7	1	1	1	1	1	1	1	1	1	0	1	-30,232558	275,376902	295,824117	0
14.01.2021	18:00:52	0	0	4,18003	5,4195	90,3996	1,399	75,137	3,5	1005,5	8,1	10	9,7	1	1	1	1	1	1	1	1	1	0	1	-28,682171	275,437575	297,66196	0
14.01.2021	18:00:53	0	0	2,146515	5,0175	129,8304	1,396	75,147	3,5	1005,42	8,1	10	9,6	1	1	1	1	1	1	1	1	1	0	1	-24,242424	275,365745	301,761417	0
14.01.2021	18:00:54	0	0	2,711371	4,5195	129,0708	1,394	75,155	3,5	1005,46	8,1	9,8	9,7	1	1	1	1	1	1	1	1	1	0	1	-28,118393	275,273555	297,449092	0
14.01.2021	18:00:55	0	0	2,937318	4,09575	119,0556	1,392	75,147	3,5	1005,5	8,1	10	9,7	1	1	1	1	1	1	1	1	1	0	1	-27,766032	275,397637	298,38886	0
14.01.2021	18:00:56	0	0	4,18003	4,002	117,3924	1,399	75,158	3,5	1005,4	8,1	10	9,7	1	1	1	1	1	1	1	1	1	0	1	-27,272727	275,386469	298,829263	0
14.01.2021	18:00:57	0	0	3,615161	3,99825	121,6296	1,392	75,156	3,5	1005,44	8	9,8	9,7	1	1	1	1	1	1	1	1	1	0	1	-26,70895	275,240284	298,701162	0
14.01.2021	18:00:58	0	0	4,631897	3,9855	127,1988	1,394	75,169	3,5	1005,5	8,1	9,8	9,8	1	1	1	1	1	1	1	1	1	0	1	-32,205779	275,349819	293,722649	0
14.01.2021	18:00:59	0	0	3,050311	4,12575	118,7064	1,393	75,159	3,5	1005,56	8,1	10	9,6	1	1	1	1	1	1	1	1	1	0	1	-29,105004	275,440774	297,254286	0
14.01.2021	18:01:00	0	0	2,485438	4,16325	105,1128	1,398	75,16	3,5	1005,52	8,1	9,8	9,6	1	1	1	1	1	1	1	1	1	0	1	-29,668781	275,427983	296,62989	0
14.01.2021	18:01:01	0	0	2,485438	4,16325	105,1128	1,398	75,16	3,5	1005,52	8,1	9,8	9,6	1	1	1	1	1	1	1	1	1	0	1	-29,668781	275,427983	296,62989	0
14.01.2021	18:01:02	0	0	4,180005	4,0455	102,5712	1,389	75,147	3,5	1005,3	8,1	10	9,8	1	1	1	1	1	1	1	1	1	0	1	-24,594785	275,402425	301,582791	0
14.01.2021	18:01:03	0	0	4,18003	3,885	106,668	1,392	75,162	3,5	1005,36	8	10	9,7	1	1	1	1	1	1	1	1	1	0	1	-26,779422	275,264043	298,743066	0
14.01.2021	18:01:04	0	0	3,27622	3,3915	129,0384	1,394	75,173	3,5	1005,3	8,1	10	9,8	1	1	1	1	1	1	1	1	1	0	1	-28,188865	275,291006	297,461184	0
14.01.2021	18:01:05	0	0	2,372449	3,312	101,142	1,397	75,175	3,5	1005,6	8,1	9,8	9,7	1	1	1	1	1	1	1	1	1	0	1	-29,034531	275,259289	296,465469	0
14.01.2021	18:01:06	0	0	4,744899	3,34575	114,0876	1,392	75,167	3,5	1005,44	8,1	10	9,7	1	1	1	1	1	1	1	1	1	0	1	-29,950669	275,383279	296,136213	0
14.01.2021	18:01:07	0	0	2,937301	3,1605	111,8988	1,392	75,189	3,5	1005,38	8,1	10	9,8	1	1	1	1	1	1	1	1	1	0	1	-30,021142	275,271969	295,538843	0
14.01.2021	18:01:08	0	0	4,405978	3,12075	116,316	1,385	75,176	3,5	1005,4	8,1	10	9,7	1	1	1	1	1	1	1	1	1	0	1	-33,615222	275,24345	291,809864	0
14.01.2021	18:01:09	0	0	4,970817	3,20025	112,2696	1,388	75,173	3,5	1005,36	8,1	10	9,8	1	1	1	1	1	1	1	1	1	0	1	-34,319944	275,364152	291,676353	0
14.01.2021	18:01:10	0	0	2,598397	3,285	107,4204	1,397	75,189	3,5	1005,54	8,1	10	9,7	1	1	1	1	1	1	1	1	1	0	1	-29,880197	275,270384	295,672286	0
14.01.2021	18:01:11	0	0	4,631897	3,22875	127,9584	1,387	75,205	3,5	1005,34	8,1	9,8	9,8	1	1	1	1	1	1	1	1	1	0	1	-28,541226	275,373713	297,500349	0
14.01.2021	18:01:12	0	0	2,824345	3,13875	120,9132	1,39	75,193	3,5	1005,52	8,1	9,8	9,7	1	1	1	1	1	1	1	1	1	0	1	-29,31642	275,419992	296,944388	0
14.01.2021	18:01:13	0	0	4,744899	2,97975	113,0256	1,381	75,187	3,5	1005,44	8,1	10	9,7	1	1	1	1	1	1	1	1	1	0	1	-27,202255	275,29418	298,462816	0
14.01.2021	18:01:14	0	0	2,824328	2,883	113,3964	1,388	75,208	3,5	1005,4	8,1	9,8	9,8	1	1	1	1	1	1	1	1	1	0	1	-28,611698	275,260873	296,895797	0
14.01.2021	18:01:15	0	0	2,372449	2,92875	112,2624	1,388	75,211	3,5	1005,34	8,1	10	9,7	1	1	1	1	1	1	1	1	1	0	1	-28,611698	275,251368	296,850835	0
14.01.2021	18:01:16	0	0	2,598381	3,06525	112,2912	1,391	75,2	3,5	1005,4	8,1	10	9,8	1	1	1	1	1	1	1	1	1	0	1	-27,625088	275,353003	298,318416	0
14.01.2021	18:01:17	0	0	4,18003	3,492	117,4752	1,389	75,231	3,5	1005,3	8,1	10	9,7	1	1	1	1	1	1	1	1	1	0	1	-27,69556	275,240284	297,714552	0
14.01.2021	18:01:18	0	0	2,485408	3,5655	119,7756	1,389	75,221	3,5	1005,42	8,1	9,8	9,8	1	1	1	1	1	1	1	1	1	0	1	-24,453841	275,349819	301,474587	0
14.01.2021	18:01:19	0	0	3,502187	3,522	106,6716	1,387	75,235	3,5	1005,56	8,1	9,8	9,7	1	1	1	1	1	1	1	1	1	0	1	-29,598309	275,251368	295,864225	0
14.01.2021	18:01:20	0	0	4,744871	3,70575	102,924	1,389	75,25	3,5	1005,54	8,1	9,8	9,8	1	1	1	1	1	1	1	1	1	0	1	-31,501057	275,38009	294,57072	0
14.01.2021	18:01:21	0	0	3,615139	3,89925	106,6896	1,387	75,252	3,5	1005,4	8,1	9,8	9,8	1	1	1	1	1	1	1	1	1	0	1	-23,819591	275,394446	302,320183	0
14.01.2021	18:01:22	0	0	4,293004	4,308	110,6856	1,387	75,252	3,5	1005,44	8,1	10	9,7	1	1	1	1	1	1	1	1	1	0	1	-32,55814	275,238701	292,844487	0
14.01.2021	18:01:23	0	0	4,518951	4,569	109,7208	1,386	75,271	3,5	1005,54	8,1	9,8	9,7	1	1	1	1	1	1	1	1	1	0	1	-34,319944	275,360966	291,661266	0
14.01.2021	18:01:24	0	0	4,18003	4,50675	104,4144	1,386	75,279	3,5	1005,48	8,1	9,8	9,7	1	1	1	1	1	1	1	1	1	0	1	-29,598309	275,4152	296,63979	0
14.01.2021	18:01:25	0	0	3,389214	4,23375	107,748	1,379	75,271	3,5	1005,54	8,1	9,8	9,7	1	1	1	1	1	1	1	1	1	0	1	-26,145173	275,394446	299,994601	0
14.01.2021	18:01:26	0	0	2,146502	3,86325	125,1	1,387	75,291	3,5	1005,36	8,1	10	9,7	1	1	1	1	1	1	1	1	1	0	1	-29,739253	275,39285	296,392963	0
14.01.2021	18:01:27	0	0	2,372449	3,46575	126,6012	1,384	75,271	3,5	1005,52	8,1	10	9,7	1	1	1	1	1	1	1	1	1	0	1	-25,863284	275,429581	300,442961	0
14.01.2021	18:01:28	0	0	2,937318	3,29325	129,4632	1,381	75,281	3,5	1005,48	8,1	10	9,7	1	1	1	1	1	1	1	1	1	0	1	-29,245948	275,332316	296,599612	0
14.01.2021	18:01:29	0	0	3,841109	3,01575	120,1752	1,388	75,279	3,5	1005,52	8,1	9,8	9,7	1	1	1	1	1	1	1	1	1	0	1	-27,202255	275,227624	298,147992	0
14.01.2021	18:01:30	0	0	2,146502	2,9865	108,4824	1,385	75,293	3,5	1005,54	8,1	10	9,7	1	1	1	1	1	1	1	1	1	0	1	-25,792812	275,360966	300,188397	0
14.01.2021	18:01:31	0	0	2,485423	3,34425	107,3988	1,386	75,312	3,5	1005,48	8	9,8	9,7	1	1	1	1	1	1	1	1	1	0	1	-30,021142	275,4152	296,216957	0
14.01.2021	18:01:32	0	0	4,744899	3,924	117,774	1,388	75,307	3,5	1005,26	8,1	10	9,7	1	1	1	1	1	1	1	1	1	0	1	-29,527837	275,38009	296,54394	0
14.01.2021	18:01:33	0	0	2,598381	4,278	113,7276	1,388	75,322	3,5	1005,5	8,1	10	9,8	1	1	1	1	1	1	1	1	1	0	1	-24,806202	275,251368	300,656332	0
14.01.2021	18:01:34	0	0	4,744899	4,128	104,436	1,38	75,308	3,5	1005,42	8,1	9,8	9,7	1	1	1	1	1	1	1	1	1	0	1	-28,611698	275,367339	297,399688	0
14.01.2021	18:01:35	0	0	3,502187	3,74025	122,4684	1,385	75,316	3,5	1005,42	8,1	10	9,7	1	1	1	1	1	1	1	1	1	0	1	-25,017618	275,240284	300,392494	0
14.01.2021	18:01:36	0	0	4,180055	4,119	117,7848	1,379	75,316	3,5	1005,42	8	10	9,6	1	1	1	1	1	1	1	1	1	0	1	-28,611698	275,364152	297,384598	0
14.01.2021	18:01:37	0	0	3,728135	4,7295	117,4356	1,38	75,336	3,5	1005,44	8	9,8	9,7	1	1	1	1	1	1	1	1	1	0	1	-24,806202	275,241867	300,611397	0
14.01.2021	18:01:38	0	0	4,405978	5,2485	117,7524	1,378	75,331	3,5	1005,48	8,1	10	9,7	1	1	1	1	1	1	1	1	1	0	1	-27,69556	275,383279	298,391322	0
14.01.2021	18:01:39	0	0	4,857873	5,19375	109,7532	1,38	75,324	3,5	1005,24	8	10	9,7	1	1	1	1	1	1	1	1	1	0	1	-30,796335	275,289419	294,846205	0
14.01.2021	18:01:40	0	0	2,598381	4,76325	115,9776	1,386	75,35	3,5	1005,58	8	9,8	9,8	1	1	1	1	1	1	1	1	1	0	1	-31,92389	275,238701	293,478737	0
14.01.2021	18:01:41	0	0	3,050274	4,281	115,56	1,384	75,346	3,5	1005,54	8,1	10	9,8	1	1	1	1	1	1	1	1	1	0	1	-26,356589	275,233953	299,023584	0
14.01.2021	18:01:42	0	0	2,146502	4,3455	125,4744	1,379	75,362	3,5	1005,48	8,1	9,8	9,7	1	1	1	1	1	1	1	1	1	0	1	-29,809725	275,348227	296,111166	0
14.01.2021	18:01:43	0	0	3,841086	4,42275	132,7716	1,379	75,363	3,5	1005,44	8,1	10	9,8	1	1	1	1	1	1	1	1	1	0	1	-28,541226	275,235535	296,846431	0
14.01.2021	18:01:44	0	0	4,180005	4,212	126,9972	1,371	75,352	3,5	1005,44	8,1	9,8	9,8	1	1	1	1	1	1	1	1	1	0	1	-24,171952	275,279899	301,425546	0
14.01.2021	18:01:45	0	0	2,937301	4,12725	124,6572	1,379	75,364	3,5	1005,42	8,1	10	9,8	1	1	1	1	1	1	1	1	1	0	1	-26,568006	275,397637	299,586887	0
14.01.2021	18:01:46	0	0	2,824345	4,08675	123,8436	1,38	75,357	3,5	1005,48	8	10	9,7	1	1	1	1	1	1	1	1	1	0	1	-28,188865	275,394446	297,950908	0
14.01.2021	18:01:47	0	0	4,293004	4,074	129,4452	1,375	75,374	3,5	1005,54	8,1	10	9,7	1	1	1	1	1	1	1	1	1	0	1	-27,69556	275,405618	298,497142	0
14.01.2021	18:01:48	0	0	3,389214	4,0485	135,6696	1,372	75,379	3,5	1005,46	8,1	9,8	9,7	1	1	1	1	1	1	1	1	1	0	1	-30,796335	275,279899	294,801163	0
14.01.2021	18:01:49	0	0	2,711371	3,84675	116,3304	1,378	75,396	3,5	1005,36	8,1	9,8	9,7	1	1	1	1	1	1	1	1	1	0	1	-27,413672	275,22446	297,921616	0
14.01.2021	18:01:50	0	0	4,631925	3,6045	97,6968	1,371	75,366	3,5	1005,42	8	10	9,7	1	1	1	1	1	1	1	1	1	0	1	-34,601832	275,300531	291,093291	0
14.01.2021	18:01:51	0	0	3,954082	3,43725	115,6068	1,376	75,379	3,5	1005,44	8,1	9,8	9,7	1	1	1	1	1	1	1	1	1	0	1	-25,017618	275,219715	300,295237	0
14.01.2021	18:01:52	0	0	4,744899	3,2025	108,8964	1,383	75,383	3,5	1005,52	8,1	9,8	9,7	1	1	1	1	1	1	1	1	1	0	1	-26,004228	275,353003	299,939276	0
14.01.2021	18:01:53	0	0	2,711371	3,15075	109,2564	1,381	75,389	3,5	1005,34	8,1	10	9,7	1	1	1	1	1	1	1	1	1	0	1	-27,69556	275,407215	298,504706	0
14.01.2021	18:01:54	0	0	4,518979	3,09525	107,4204	1,371	75,38	3,5	1005,28	8	10	9,6	1	1	1	1	1	1	1	1	1	0	1	-28,752643	275,241867	296,664956	0
14.01.2021	18:01:55	0	0	3,954082	3,50625	125,4312	1,371	75,389	3,5	1005,38	8	9,8	9,7	1	1	1	1	1	1	1	1	1	0	1	-29,034531	275,271969	296,525453	0
14.01.2021	18:01:56	0	0	3,163247	3,867	138,3732	1,371	75,41	3,5	1005,48	8	10	9,8	1	1	1	1	1	1	1	1	1	0	1	-25,792812	275,219715	299,520043	0
14.01.2021	18:01:57	0	0	2,033528	4,27725	129,4308	1,382	75,411	3,5	1005,42	8	9,8	9,7	1	1	1	1	1	1	1	1	1	0	1	-27,977449	275,251368	297,485085	0
14.01.2021	18:01:58	0	0	4,857844	4,6905	121,6512	1,373	75,406	3,5	1005,34	8,1	10	9,8	1	1	1	1	1	1	1	1	1	0	1	-27,906977	275,354596	298,044067	0
14.01.2021	18:01:59	0	0	3,389214	5,08575	126,5112	1,375	75,439	3,5	1005,46	8	10	9,7	1	1	1	1	1	1	1	1	1	0	1	-31,853418	275,399233	294,309035	0
14.01.2021	18:02:00	0	0	2,824345	5,51475	132,3864	1,367	75,402	3,5	1005,38	8	10	9,7	1	1	1	1	1	1	1	1	1	0	1	-24,242424	275,291006	301,407626	0
14.01.2021	18:02:01	0	0	3,615139	5,46225	121,3416	1,365	75,401	3,5	1005,36	8	10	9,8	1	1	1	1	1	1	1	1	1	0	1	-29,457364	275,394446	296,682409	0
14.01.2021	18:02:02	0	0	3,615139	5,46225	121,3416	1,365	75,401	3,5	1005,36	8	10	9,8	1	1	1	1	1	1	1	1	1	0	1	-29,457364	275,394446	296,682409	0
14.01.2021	18:02:03	0	0	3,27624	5,10375	121,626	1,37	75,409	3,5	1005,46	8	10	9,7	1	1	1	1	1	1	1	1	1	0	1	-28,400282	275,302119	297,302356	0
14.01.2021	18:02:04	0	0	4,180005	4,7835	122,0004	1,376	75,421	3,5	1005,46	8	10	9,8	1	1	1	1	1	1	1	1	1	0	1	-27,836505	275,381685	298,242825	0
14.01.2021	18:02:05	0	0	5,309736	4,7985	124,3116	1,376	75,405	3,5	1005,36	8,1	10	9,8	1	1	1	1	1	1	1	1	1	0	1	-24,524313	275,396041	301,62302	0
14.01.2021	18:02:06	0	0	4,518951	4,78575	113,0148	1,373	75,402	3,5	1005,42	8,1	10	9,7	1	1	1	1	1	1	1	1	1	0	1	-27,554616	275,273555	298,01287	0
14.01.2021	18:02:07	0	0	3,841109	4,83075	121,644	1,375	75,408	3,5	1005,3	8	10	9,7	1	1	1	1	1	1	1	1	1	0	1	-26,356589	275,404022	299,82855	0
14.01.2021	18:02:08	0	0	3,163266	4,44375	122,004	1,366	75,428	3,5	1005,42	8,1	9,8	9,7	1	1	1	1	1	1	1	1	1	0	1	-27,202255	275,351411	298,733711	0
14.01.2021	18:02:09	0	0	3,841109	4,7235	122,6988	1,371	75,421	3,5	1005,36	8,1	9,8	9,7	1	1	1	1	1	1	1	1	1	0	1	-26,990839	275,283072	298,621671	0
14.01.2021	18:02:10	0	0	3,163266	4,6485	108,8604	1,37	75,414	3,5	1005,42	8	10	9,7	1	1	1	1	1	1	1	1	1	0	1	-27,343199	275,214972	297,947229	0
14.01.2021	18:02:11	0	0	2,711371	4,59675	113,4288	1,367	75,428	3,5	1005,4	8	9,8	9,7	1	1	1	1	1	1	1	1	1	0	1	-29,175476	275,314828	296,587307	0
14.01.2021	18:02:12	0	0	4,405951	4,659	104,0688	1,363	75,425	3,5	1005,44	8	9,8	9,8	1	1	1	1	1	1	1	1	1	0	1	-28,188865	275,384874	297,90557	0
14.01.2021	18:02:13	0	0	3,050292	4,815	106,6752	1,37	75,432	3,5	1005,5	8,1	10	9,7	1	1	1	1	1	1	1	1	1	0	1	-28,752643	275,351411	297,183323	0
14.01.2021	18:02:14	0	0	2,824345	4,93875	106,6608	1,366	75,436	3,5	1005,28	8,1	10	9,7	1	1	1	1	1	1	1	1	1	0	1	-26,286117	275,341861	299,604632	0
14.01.2021	18:02:15	0	0	2,372449	4,9395	109,9764	1,364	75,434	3,5	1005,42	8	10	9,7	1	1	1	1	1	1	1	1	1	0	1	-26,356589	275,384874	299,737847	0
14.01.2021	18:02:16	0	0	4,293004	4,8855	104,4108	1,366	75,442	3,5	1005,48	8,1	10	9,7	1	1	1	1	1	1	1	1	1	0	1	-30,443975	275,394446	295,695799	0
14.01.2021	18:02:17	0	0	3,728157	4,7265	108,8604	1,361	75,444	3,5	1005,28	8,1	9,8	9,6	1	1	1	1	1	1	1	1	1	0	1	-27,061311	275,338679	298,814373	0
14.01.2021	18:02:18	0	0	4,405978	4,40925	105,8508	1,359	75,457	3,5	1005,38	8	10	9,7	1	1	1	1	1	1	1	1	1	0	1	-29,950669	275,407215	296,249597	0
14.01.2021	18:02:19	0	0	4,518924	4,01775	96,9768	1,361	75,492	3,5	1005,62	8	10	9,8	1	1	1	1	1	1	1	1	1	0	1	-27,766032	275,291006	297,884017	0
14.01.2021	18:02:20	0	0	2,711371	3,9645	102,9564	1,368	75,478	3,5	1005,42	8	9,8	9,7	1	1	1	1	1	1	1	1	1	0	1	-26,990839	275,2482	298,456714	0
14.01.2021	18:02:21	0	0	3,502187	3,83475	105,9012	1,358	75,472	3,5	1005,52	8	9,8	9,7	1	1	1	1	1	1	1	1	1	0	1	-26,638478	275,229206	298,71925	0
14.01.2021	18:02:22	0	0	2,485423	3,933	96,2244	1,359	75,497	3,5	1005,46	8	10	9,7	1	1	1	1	1	1	1	1	1	0	1	-28,188865	275,289419	297,453675	0
14.01.2021	18:02:23	0	0	3,615161	3,68775	108,5112	1,364	75,488	3,5	1005,38	8,1	9,8	9,7	1	1	1	1	1	1	1	1	1	0	1	-32,135307	275,396041	294,012026	0
14.01.2021	18:02:24	0	0	4,067056	3,555	105,8796	1,36	75,522	3,5	1005,44	8,1	9,8	9,7	1	1	1	1	1	1	1	1	1	0	1	-28,682171	275,360966	297,299039	0
14.01.2021	18:02:25	0	0	4,18003	3,48825	101,502	1,362	75,508	3,5	1005,54	8,1	10	9,7	1	1	1	1	1	1	1	1	1	0	1	-31,360113	275,367339	294,651274	0
14.01.2021	18:02:26	0	0	4,293004	3,4335	99,8856	1,357	75,54	3,5	1005,4	8	10	9,7	1	1	1	1	1	1	1	1	1	0	1	-28,047921	275,400829	298,122093	0
14.01.2021	18:02:27	0	0	3,163266	3,52875	82,9656	1,36	75,539	3,5	1005,42	8	10	9,7	1	1	1	1	1	1	1	1	1	0	1	-31,712474	275,262458	293,802518	0
14.01.2021	18:02:28	0	0	4,293004	3,59025	86,2776	1,363	75,555	3,5	1005,46	8,1	10	9,7	1	1	1	1	1	1	1	1	1	0	1	-28,823115	275,297355	296,856981	0
14.01.2021	18:02:29	0	0	4,405951	3,92475	98,0856	1,355	75,575	3,5	1005,44	8,1	10	9,8	1	1	1	1	1	1	1	1	1	0	1	-28,047921	275,214972	297,242507	0
14.01.2021	18:02:30	0	0	3,27624	4,24875	94,0968	1,363	75,577	3,5	1005,52	8	9,8	9,7	1	1	1	1	1	1	1	1	1	0	1	-26,568006	275,278313	299,021989	0
14.01.2021	18:02:31	0	0	2,711371	4,368	94,7736	1,364	75,589	3,5	1005,42	8,1	9,8	9,7	1	1	1	1	1	1	1	1	1	0	1	-27,766032	275,286245	297,861491	0
14.01.2021	18:02:32	0	0	4,970817	4,6125	101,484	1,357	75,595	3,5	1005,46	8	9,8	9,8	1	1	1	1	1	1	1	1	1	0	1	-30,514447	275,279899	295,083052	0
14.01.2021	18:02:33	0	0	2,598397	4,44075	94,7592	1,362	75,589	3,5	1005,48	8	9,8	9,7	1	1	1	1	1	1	1	1	1	0	1	-25,651868	275,402425	300,525709	0
14.01.2021	18:02:34	0	0	3,27624	4,07325	86,9796	1,358	75,616	3,5	1005,36	8,1	9,8	9,7	1	1	1	1	1	1	1	1	1	0	1	-27,69556	275,264043	297,826928	0
14.01.2021	18:02:35	0	0	2,259476	3,693	86,9976	1,351	75,608	3,5	1005,28	8	9,8	9,7	1	1	1	1	1	1	1	1	1	0	1	-29,457364	275,219715	295,85549	0
14.01.2021	18:02:36	0	0	4,18003	3,4275	79,0524	1,361	75,624	3,5	1005,5	8,1	10	9,7	1	1	1	1	1	1	1	1	1	0	1	-30,021142	275,394446	296,118632	0
14.01.2021	18:02:37	0	0	3,163266	3,633	82,9692	1,362	75,62	3,5	1005,46	8	9,8	9,7	1	1	1	1	1	1	1	1	1	0	1	-27,836505	275,318006	297,941322	0
14.01.2021	18:02:38	0	0	3,728135	3,498	64,2528	1,359	75,641	3,5	1005,48	8,1	9,8	9,7	1	1	1	1	1	1	1	1	1	0	1	-26,849894	275,226042	298,492873	0
14.01.2021	18:02:39	0	0	3,389214	3,33825	99,144	1,358	75,639	3,5	1005,4	8	9,9	9,7	1	1	1	1	1	1	1	1	1	0	1	-25,72234	275,260873	299,785156	0
14.01.2021	18:02:40	0	0	3,389214	3,53925	101,9088	1,356	75,651	3,5	1005,4	8	9,8	9,7	1	1	1	1	1	1	1	1	1	0	1	-30,443975	275,283072	295,168535	0
14.01.2021	18:02:41	0	0	3,615161	3,5715	95,5224	1,358	75,659	3,5	1005,36	8	9,8	9,7	1	1	1	1	1	1	1	1	1	0	1	-28,188865	275,396041	297,958467	0
14.01.2021	18:02:42	0	0	2,937318	3,15	85,878	1,359	75,674	3,5	1005,46	8	10	9,7	1	1	1	1	1	1	1	1	1	0	1	-30,796335	275,345044	295,109483	0
14.01.2021	18:02:43	0	0	2,937318	2,64225	109,6344	1,362	75,67	3,5	1005,42	8	9,8	9,7	1	1	1	1	1	1	1	1	1	0	1	-27,69556	275,343452	298,202723	0
14.01.2021	18:02:44	0	0	3,389214	2,5335	101,4732	1,356	75,697	3,5	1005,32	8	10	9,7	1	1	1	1	1	1	1	1	1	0	1	-31,289641	275,388064	294,819905	0
14.01.2021	18:02:45	0	0	2,485408	2,961	105,1416	1,353	75,677	3,5	1005,44	8	10	9,8	1	1	1	1	1	1	1	1	1	0	1	-29,527837	275,238701	295,87479	0
14.01.2021	18:02:46	0	0	3,502187	3,432	102,1968	1,349	75,682	3,5	1005,34	8,1	9,9	9,7	1	1	1	1	1	1	1	1	1	0	1	-26,70895	275,213391	298,574004	0
14.01.2021	18:02:47	0	0	2,711371	3,78225	104,0436	1,354	75,709	3,5	1005,4	8,1	10	9,7	1	1	1	1	1	1	1	1	1	0	1	-27,413672	275,252952	298,056354	0
14.01.2021	18:02:48	0	0	3,050274	4,13625	103,2804	1,355	75,708	3,5	1005,54	8	10	9,8	1	1	1	1	1	1	1	1	1	0	1	-27,766032	275,226042	297,576734	0
14.01.2021	18:02:49	0	0	2,485423	4,02675	94,0824	1,352	75,702	3,5	1005,48	8	9,8	9,7	1	1	1	1	1	1	1	1	1	0	1	-27,625088	275,376902	298,431587	0
14.01.2021	18:02:50	0	0	3,728135	4,047	92,9448	1,352	75,7	3,5	1005,44	8	10	9,7	1	1	1	1	1	1	1	1	1	0	1	-30,30303	275,306884	295,422156	0
14.01.2021	18:02:51	0	0	4,405978	3,9435	98,1036	1,348	75,71	3,5	1005,42	8,1	9,8	9,7	1	1	1	1	1	1	1	1	1	0	1	-25,017618	275,332316	300,827942	0
14.01.2021	18:02:52	0	0	2,711371	3,5205	113,0148	1,347	75,717	3,5	1005,44	8,1	10	9,7	1	1	1	1	1	1	1	1	1	0	1	-24,453841	275,237118	300,941301	0
14.01.2021	18:02:53	0	0	3,841086	3,20925	107,4672	1,351	75,724	3,5	1005,44	8	9,8	9,8	1	1	1	1	1	1	1	1	1	0	1	-27,061311	275,348227	298,85958	0
14.01.2021	18:02:54	0	0	2,598397	2,8725	100,7568	1,355	75,741	3,5	1005,34	8	9,8	9,7	1	1	1	1	1	1	1	1	1	0	1	-33,051445	275,37212	292,982583	0
14.01.2021	18:02:55	0	0	2,937318	2,84775	114,498	1,351	75,73	3,5	1005,52	8,1	9,8	9,7	1	1	1	1	1	1	1	1	1	0	1	-30,091614	275,319595	295,693735	0
14.01.2021	18:02:56	0	0	3,615139	2,913	97,3152	1,352	75,724	3,5	1005,28	8	10	9,8	1	1	1	1	1	1	1	1	1	0	1	-30,232558	275,37212	295,801469	0
14.01.2021	18:02:57	0	0	2,937318	3,02925	108,8532	1,355	75,739	3,5	1005,42	8	10	9,7	1	1	1	1	1	1	1	1	1	0	1	-27,977449	275,24345	297,447637	0
14.01.2021	18:02:58	0	0	4,18003	3,1275	90,0144	1,351	75,739	3,5	1005,5	8	10	9,7	1	1	1	1	1	1	1	1	1	0	1	-31,078224	275,388064	295,031321	0
14.01.2021	18:02:59	0	0	4,293004	3,1485	85,1508	1,34	75,731	3,5	1005,34	8	9,8	9,7	1	1	1	1	1	1	1	1	1	0	1	-31,148696	275,21181	294,126785	0
14.01.2021	18:03:00	0	0	3,502187	3,28725	88,0884	1,35	75,745	3,5	1005,62	8,1	9,8	9,7	1	1	1	1	1	1	1	1	1	0	1	-30,655391	275,337088	295,21276	0
14.01.2021	18:03:01	0	0	4,405978	3,80175	102,9492	1,346	75,736	3,5	1005,48	8	10	9,7	1	1	1	1	1	1	1	1	1	0	1	-27,977449	275,365745	298,026392	0
14.01.2021	18:03:02	0	0	4,405978	3,80175	102,9492	1,346	75,736	3,5	1005,48	8	10	9,7	1	1	1	1	1	1	1	1	1	0	1	-27,977449	275,365745	298,026392	0
14.01.2021	18:03:03	0	0	3,954082	4,17075	106,6752	1,348	75,736	3,5	1005,44	8	9,8	9,7	1	1	1	1	1	1	1	1	1	0	1	-27,413672	275,368932	298,605261	0
14.01.2021	18:03:04	0	0	2,711371	4,71225	106,326	1,346	75,734	3,5	1005,54	8	9,8	9,7	1	1	1	1	1	1	1	1	1	0	1	-27,836505	275,314828	297,926278	0
14.01.2021	18:03:05	0	0	2,937318	5,4525	104,4468	1,35	75,73	3,5	1005,5	8	9,8	9,7	1	1	1	1	1	1	1	1	1	0	1	-27,977449	275,378496	298,086777	0
14.01.2021	18:03:06	0	0	3,050274	5,9715	109,2096	1,346	75,715	3,5	1005,46	8,1	9,8	9,8	1	1	1	1	1	1	1	1	1	0	1	-28,893587	275,246617	296,546476	0
14.01.2021	18:03:07	0	0	2,824345	6,1095	107,8452	1,348	75,72	3,5	1005,54	8	9,8	9,7	1	1	1	1	1	1	1	1	1	0	1	-29,880197	275,233953	295,499976	0
14.01.2021	18:03:08	0	0	2,824345	6,1995	105,138	1,349	75,739	3,5	1005,54	8	9,8	9,7	1	1	1	1	1	1	1	1	1	0	1	-29,739253	275,245033	295,693321	0
14.01.2021	18:03:09	0	0	2,824345	6,15975	101,2104	1,351	75,722	3,5	1005,58	8	9,8	9,7	1	1	1	1	1	1	1	1	1	0	1	-25,792812	275,319595	299,992537	0
14.01.2021	18:03:10	0	0	2,711371	6,2985	111,0852	1,349	75,745	3,5	1005,54	8	9,8	9,7	1	1	1	1	1	1	1	1	1	0	1	-33,051445	275,189694	292,119488	0
14.01.2021	18:03:11	0	0	3,163266	6,20475	111,4344	1,345	75,749	3,5	1005,56	8	10	9,7	1	1	1	1	1	1	1	1	1	0	1	-30,655391	275,34027	295,227825	0
14.01.2021	18:03:12	0	0	3,841109	5,9475	111,7872	1,343	75,765	3,5	1005,46	8	10	9,7	1	1	1	1	1	1	1	1	1	0	1	-30,091614	275,359373	295,882053	0
14.01.2021	18:03:13	0	0	4,518951	5,79525	100,3644	1,341	75,746	3,5	1005,3	8	9,8	9,7	1	1	1	1	1	1	1	1	1	0	1	-31,642001	275,289419	294,000539	0
14.01.2021	18:03:14	0	0	3,502187	5,52375	95,4936	1,347	75,775	3,5	1005,56	8	9,8	9,7	1	1	1	1	1	1	1	1	1	0	1	-26,920366	275,383279	299,166516	0
14.01.2021	18:03:15	0	0	4,518951	5,508	104,4252	1,34	75,746	3,5	1005,38	8	10	9,7	1	1	1	1	1	1	1	1	1	0	1	-31,430585	275,335497	294,430035	0
14.01.2021	18:03:16	0	0	2,937318	5,34075	102,2076	1,348	75,764	3,5	1005,48	8	9,8	9,7	1	1	1	1	1	1	1	1	1	0	1	-28,823115	275,208649	296,437422	0
14.01.2021	18:03:17	0	0	3,841109	4,998	99,1368	1,339	75,754	3,5	1005,3	8	10	9,7	1	1	1	1	1	1	1	1	1	0	1	-27,202255	275,337088	298,665896	0
14.01.2021	18:03:18	0	0	4,18003	4,5255	108,9684	1,342	75,758	3,5	1005,5	8	9,8	9,7	1	1	1	1	1	1	1	1	1	0	1	-29,950669	275,22446	295,384618	0
14.01.2021	18:03:19	0	0	3,27624	4,49025	99,1728	1,34	75,756	3,5	1005,4	8	9,8	9,7	1	1	1	1	1	1	1	1	1	0	1	-27,766032	275,38009	298,305745	0
14.01.2021	18:03:20	0	0	2,711371	4,446	102,1824	1,345	75,771	3,5	1005,28	8	10	9,7	1	1	1	1	1	1	1	1	1	0	1	-24,665257	275,303707	301,044896	0
14.01.2021	18:03:21	0	0	3,502187	4,452	102,186	1,342	75,792	3,5	1005,44	8	9,8	9,7	1	1	1	1	1	1	1	1	1	0	1	-27,766032	275,191272	297,412364	0
14.01.2021	18:03:22	0	0	4,631925	4,43625	99,9144	1,345	75,79	3,5	1005,48	8	10	9,7	1	1	1	1	1	1	1	1	1	0	1	-29,950669	275,259289	295,54933	0
14.01.2021	18:03:23	0	0	2,711371	4,4715	110,3724	1,34	75,794	3,5	1005,32	8	10	9,7	1	1	1	1	1	1	1	1	1	0	1	-31,219168	275,357781	294,746957	0
14.01.2021	18:03:24	0	0	2,824345	4,33875	103,6548	1,344	75,795	3,5	1005,46	8	9,8	9,7	1	1	1	1	1	1	1	1	1	0	1	-26,497533	275,370526	299,528946	0
14.01.2021	18:03:25	0	0	5,08382	4,18575	104,742	1,342	75,797	3,5	1005,3	8	9,8	9,7	1	1	1	1	1	1	1	1	1	0	1	-31,92389	275,353003	294,019614	0
14.01.2021	18:03:26	0	0	3,389214	4,6185	103,2948	1,34	75,807	3,5	1005,5	8	9,8	9,7	1	1	1	1	1	1	1	1	1	0	1	-29,598309	275,249784	295,856734	0
14.01.2021	18:03:27	0	0	2,824345	5,1195	106,7004	1,343	75,803	3,5	1005,48	8	9,8	9,7	1	1	1	1	1	1	1	1	1	0	1	-26,920366	275,364152	299,07593	0
14.01.2021	18:03:28	0	0	2,598397	5,33175	103,6944	1,348	75,801	3,5	1005,34	8	10	9,7	1	1	1	1	1	1	1	1	1	0	1	-32,9105	275,254536	292,567018	0
14.01.2021	18:03:29	0	0	3,27624	5,49675	100,3932	1,342	75,797	3,5	1005,52	8	10	9,7	1	1	1	1	1	1	1	1	1	0	1	-25,440451	275,368932	300,578482	0
14.01.2021	18:03:30	0	0	4,293004	5,57625	101,4948	1,337	75,792	3,5	1005,46	8	9,8	9,7	1	1	1	1	1	1	1	1	1	0	1	-30,232558	275,338679	295,643125	0
14.01.2021	18:03:31	0	0	4,744899	5,337	106,6752	1,347	75,795	3,5	1005,38	8	9,8	9,7	1	1	1	1	1	1	1	1	1	0	1	-25,299507	275,183379	299,841582	0
14.01.2021	18:03:32	0	0	4,293004	5,2845	109,9908	1,345	75,807	3,5	1005,5	8	9,8	9,7	1	1	1	1	1	1	1	1	1	0	1	-28,611698	275,275141	296,963289	0
14.01.2021	18:03:33	0	0	2,937318	5,22375	107,0388	1,348	75,811	3,5	1005,58	8	10	9,7	1	1	1	1	1	1	1	1	1	0	1	-31,782946	275,364152	294,213351	0
14.01.2021	18:03:34	0	0	3,615161	5,139	98,7804	1,344	75,804	3,5	1005,3	8	9,8	9,7	1	1	1	1	1	1	1	1	1	0	1	-28,893587	275,24345	296,531499	0
14.01.2021	18:03:35	0	0	2,824345	5,02875	96,2136	1,345	75,803	3,5	1005,48	8	9,8	9,7	1	1	1	1	1	1	1	1	1	0	1	-32,417195	275,375307	293,63193	0
14.01.2021	18:03:36	0	0	2,485423	5,10225	89,3448	1,343	75,789	3,5	1005,46	8	9,8	9,7	1	1	1	1	1	1	1	1	1	0	1	-28,188865	275,276727	297,393625	0
14.01.2021	18:03:37	0	0	4,18003	5,19225	91,2852	1,347	75,802	3,5	1005,46	8	9,9	9,7	1	1	1	1	1	1	1	1	1	0	1	-29,175476	275,373713	296,8661	0
14.01.2021	18:03:38	0	0	3,389214	5,08725	95,1192	1,346	75,796	3,5	1005,46	8	9,8	9,7	1	1	1	1	1	1	1	1	1	0	1	-28,611698	275,332316	297,233862	0
14.01.2021	18:03:39	0	0	4,18003	4,9575	103,68	1,344	75,776	3,5	1005,52	8	10	9,7	1	1	1	1	1	1	1	1	1	0	1	-30,584919	275,357781	295,381206	0
14.01.2021	18:03:40	0	0	4,18003	5,085	100,7424	1,348	75,777	3,5	1005,38	8	9,8	9,7	1	1	1	1	1	1	1	1	1	0	1	-27,343199	275,275141	298,231788	0
14.01.2021	18:03:41	0	0	3,502187	5,2125	82,3572	1,346	75,768	3,5	1005,46	8	9,8	9,7	1	1	1	1	1	1	1	1	1	0	1	-29,527837	275,192852	295,658023	0
14.01.2021	18:03:42	0	0	4,405978	5,2935	107,7984	1,341	75,776	3,5	1005,5	8	9,8	9,7	1	1	1	1	1	1	1	1	1	0	1	-30,655391	275,348227	295,2655	0
14.01.2021	18:03:43	0	0	2,824345	5,20275	99,5328	1,344	75,765	3,5	1005,42	8	9,8	9,7	1	1	1	1	1	1	1	1	1	0	1	-29,175476	275,368932	296,843457	0
14.01.2021	18:03:44	0	0	3,050292	5,4825	99,162	1,335	75,769	3,5	1005,38	8	9,8	9,7	1	1	1	1	1	1	1	1	1	0	1	-26,779422	275,23237	298,593269	0
14.01.2021	18:03:45	0	0	3,27624	5,7465	115,5888	1,346	75,786	3,5	1005,46	8	9,8	9,7	1	1	1	1	1	1	1	1	1	0	1	-28,118393	275,2482	297,329159	0
14.01.2021	18:03:46	0	0	2,598397	6,24675	106,3044	1,342	75,786	3,5	1005,5	8	9,9	9,7	1	1	1	1	1	1	1	1	1	0	1	-30,514447	275,362559	295,474306	0
14.01.2021	18:03:47	0	0	3,615161	6,24225	96,9624	1,346	75,783	3,5	1005,26	8	9,8	9,7	1	1	1	1	1	1	1	1	1	0	1	-26,568006	275,332316	299,277554	0
14.01.2021	18:03:48	0	0	3,27624	6,4755	99,918	1,342	75,786	3,5	1005,58	8	9,8	9,7	1	1	1	1	1	1	1	1	1	0	1	-31,92389	275,177067	293,187366	0
14.01.2021	18:03:49	0	0	3,389214	6,21225	102,186	1,341	75,789	3,5	1005,54	8	9,8	9,7	1	1	1	1	1	1	1	1	1	0	1	-26,286117	275,305295	299,431552	0
14.01.2021	18:03:50	0	0	4,293004	6,01875	88,1136	1,34	75,794	3,5	1005,56	8	9,9	9,7	1	1	1	1	1	1	1	1	1	0	1	-32,980973	275,364152	293,015324	0
14.01.2021	18:03:51	0	0	3,502187	6,31725	89,7048	1,339	75,783	3,5	1005,48	8	9,8	9,7	1	1	1	1	1	1	1	1	1	0	1	-29,31642	275,2482	296,131133	0
14.01.2021	18:03:52	0	0	4,18003	6,06225	90,0288	1,344	75,797	3,5	1005,46	8	9,8	9,7	1	1	1	1	1	1	1	1	1	0	1	-26,849894	275,203909	298,388232	0
14.01.2021	18:03:53	0	0	3,27624	5,68725	88,9236	1,344	75,778	3,5	1005,5	8	9,8	9,7	1	1	1	1	1	1	1	1	1	0	1	-29,386892	275,367339	296,624494	0
14.01.2021	18:03:54	0	0	4,067056	5,79075	92,2464	1,339	75,767	3,5	1005,5	8	9,8	9,7	1	1	1	1	1	1	1	1	1	0	1	-28,752643	275,324365	297,05528	0
14.01.2021	18:03:55	0	0	3,728135	5,84025	110,6892	1,339	75,763	3,5	1005,54	8	9,8	9,7	1	1	1	1	1	1	1	1	1	0	1	-26,0747	275,333906	299,778389	0
14.01.2021	18:03:56	0	0	2,485423	5,4525	120,924	1,342	75,777	3,5	1005,54	8	9,8	9,7	1	1	1	1	1	1	1	1	1	0	1	-33,615222	275,381685	292,464107	0
14.01.2021	18:03:57	0	0	3,27624	5,121	118,7028	1,343	75,755	3,5	1005,48	8	9,8	9,7	1	1	1	1	1	1	1	1	1	0	1	-32,135307	275,329135	293,695196	0
14.01.2021	18:03:58	0	0	3,27624	4,89825	119,4552	1,341	75,759	3,5	1005,46	8	9,8	9,7	1	1	1	1	1	1	1	1	1	0	1	-29,457364	275,375307	296,591761	0
14.01.2021	18:03:59	0	0	4,518951	4,81575	123,462	1,344	75,752	3,5	1005,48	8	9,9	9,7	1	1	1	1	1	1	1	1	1	0	1	-26,779422	275,354596	299,171622	0
14.01.2021	18:04:00	0	0	4,067056	3,94125	127,5948	1,346	75,742	3,5	1005,3	8	9,8	9,7	1	1	1	1	1	1	1	1	1	0	1	-26,568006	275,365745	299,435835	0
14.01.2021	18:04:01	0	0	4,067056	3,94125	127,5948	1,346	75,742	3,5	1005,3	8	9,8	9,7	1	1	1	1	1	1	1	1	1	0	1	-26,568006	275,365745	299,435835	0
14.01.2021	18:04:02	0	0	4,067056	3,8895	112,6476	1,337	75,738	3,5	1005,4	8	9,8	9,7	1	1	1	1	1	1	1	1	1	0	1	-30,443975	275,257704	295,048531	0
14.01.2021	18:04:03	0	0	3,27624	4,617	119,7468	1,341	75,751	3,5	1005,58	8	9,8	9,7	1	1	1	1	1	1	1	1	1	0	1	-28,400282	275,214972	296,890146	0
14.01.2021	18:04:04	0	0	3,728135	5,07975	124,6752	1,345	75,75	3,5	1005,54	8	9,8	9,7	1	1	1	1	1	1	1	1	1	0	1	-29,386892	275,271969	296,173092	0
14.01.2021	18:04:05	0	0	4,293004	5,51625	122,4	1,346	75,762	3,5	1005,38	8	9,8	9,7	1	1	1	1	1	1	1	1	1	0	1	-30,373502	275,376902	295,683172	0
14.01.2021	18:04:06	0	0	4,631925	5,769	112,284	1,345	75,752	3,5	1005,48	8	10	9,7	1	1	1	1	1	1	1	1	1	0	1	-33,474278	275,316417	292,296026	0
14.01.2021	18:04:07	0	0	4,18003	6,13125	113,3964	1,344	75,743	3,5	1005,46	8	9,8	9,7	1	1	1	1	1	1	1	1	1	0	1	-31,430585	275,388064	294,678961	0
14.01.2021	18:04:08	0	0	3,050292	6,86925	119,0916	1,343	75,74	3,5	1005,44	8	9,9	9,7	1	1	1	1	1	1	1	1	1	0	1	-29,739253	275,264043	295,783235	0
14.01.2021	18:04:09	0	0	4,18003	7,527	107,4348	1,342	75,717	3,5	1005,32	8	9,8	9,7	1	1	1	1	1	1	1	1	1	0	1	-28,682171	275,202329	296,548487	0
14.01.2021	18:04:10	0	0	4,067056	7,0215	101,826	1,348	75,726	3,5	1005,44	8	9,8	9,7	1	1	1	1	1	1	1	1	1	0	1	-30,232558	275,39285	295,899657	0
14.01.2021	18:04:11	0	0	4,18003	6,1065	108,4644	1,343	75,721	3,5	1005,52	8	9,9	9,7	1	1	1	1	1	1	1	1	1	0	1	-28,752643	275,278313	296,837351	0
14.01.2021	18:04:12	0	0	2,937318	5,62425	122,3892	1,346	75,712	3,5	1005,56	8	9,8	9,7	1	1	1	1	1	1	1	1	1	0	1	-33,826638	275,203909	291,411487	0
14.01.2021	18:04:13	0	0	2,485423	5,69325	117,4176	1,343	75,7	3,5	1005,52	8	9,8	9,7	1	1	1	1	1	1	1	1	1	0	1	-28,188865	275,279899	297,408633	0
14.01.2021	18:04:14	0	0	2,485423	5,6355	127,6092	1,347	75,703	3,5	1005,38	8	9,8	9,7	1	1	1	1	1	1	1	1	1	0	1	-28,047921	275,370526	297,978558	0
14.01.2021	18:04:15	0	0	4,518951	5,3025	109,7172	1,342	75,71	3,5	1005,48	8	9,8	9,7	1	1	1	1	1	1	1	1	1	0	1	-31,148696	275,351411	294,78727	0
14.01.2021	18:04:16	0	0	3,163266	4,545	106,6608	1,341	75,711	3,5	1005,36	8	9,8	9,7	1	1	1	1	1	1	1	1	1	0	1	-30,021142	275,279899	295,576357	0
14.01.2021	18:04:17	0	0	4,744899	3,89925	131,6196	1,343	75,716	3,5	1005,44	8	9,8	9,7	1	1	1	1	1	1	1	1	1	0	1	-27,625088	275,343452	298,273196	0
14.01.2021	18:04:18	0	0	2,824345	4,07475	119,79	1,353	75,709	3,5	1005,56	8	9,8	9,7	1	1	1	1	1	1	1	1	1	0	1	-30,162086	275,376902	295,894589	0
14.01.2021	18:04:19	0	0	4,405978	4,79925	129,1284	1,349	75,7	3,5	1005,5	8	9,9	9,7	1	1	1	1	1	1	1	1	1	0	1	-30,866808	275,38009	295,204969	0
14.01.2021	18:04:20	0	0	2,711371	5,70225	123,0552	1,347	75,684	3,5	1005,4	8	9,8	9,7	1	1	1	1	1	1	1	1	1	0	1	-26,70895	275,329135	299,121553	0
14.01.2021	18:04:21	0	0	3,954082	6,43875	128,6964	1,347	75,687	3,5	1005,3	8	9,9	9,7	1	1	1	1	1	1	1	1	1	0	1	-24,876674	275,400829	301,29334	0
14.01.2021	18:04:22	0	0	4,067032	5,7705	126,8892	1,346	75,684	3,5	1005,32	8,1	9,8	9,8	1	1	1	1	1	1	1	1	1	0	1	-26,568006	275,349819	299,360422	0
14.01.2021	18:04:23	0	0	2,598397	5,2455	117,7848	1,347	75,678	3,5	1005,32	8	9,8	9,7	1	1	1	1	1	1	1	1	1	0	1	-28,188865	275,404022	297,996273	0
14.01.2021	18:04:24	0	0	3,389214	5,25	121,2552	1,352	75,661	3,5	1005,3	8	9,8	9,7	1	1	1	1	1	1	1	1	1	0	1	-30,232558	275,359373	295,741109	0
14.01.2021	18:04:25	0	0	3,954082	5,52525	109,332	1,352	75,663	3,5	1005,38	8	9,8	9,7	1	1	1	1	1	1	1	1	1	0	1	-25,651868	275,229206	299,70586	0
14.01.2021	18:04:26	0	0	3,954082	5,889	106,3836	1,351	75,648	3,5	1005,38	8	9,8	9,7	1	1	1	1	1	1	1	1	1	0	1	-31,853418	275,291006	293,796632	0
14.01.2021	18:04:27	0	0	3,27624	5,51175	105,1164	1,356	75,632	3,5	1005,36	8	10	9,7	1	1	1	1	1	1	1	1	1	0	1	-30,162086	275,233953	295,218088	0
14.01.2021	18:04:28	0	0	4,970847	4,746	105,8688	1,354	75,61	3,5	1005,32	8,1	9,9	9,7	1	1	1	1	1	1	1	1	1	0	1	-30,232558	275,386469	295,869432	0
14.01.2021	18:04:29	0	0	4,18003	4,37925	103,2948	1,356	75,614	3,5	1005,34	8	9,9	9,7	1	1	1	1	1	1	1	1	1	0	1	-32,55814	275,388064	293,551406	0
14.01.2021	18:04:30	0	0	4,405978	4,60875	95,832	1,351	75,596	3,5	1005,54	8	9,8	9,7	1	1	1	1	1	1	1	1	1	0	1	-25,017618	275,341861	300,873131	0
14.01.2021	18:04:31	0	0	4,631925	4,638	89,7192	1,355	75,587	3,5	1005,46	8	9,8	9,7	1	1	1	1	1	1	1	1	1	0	1	-32,276251	275,408812	293,931581	0
14.01.2021	18:04:32	0	0	3,163266	4,59225	85,1652	1,359	75,565	3,5	1005,36	8	9,9	9,7	1	1	1	1	1	1	1	1	1	0	1	-27,977449	275,271969	297,582535	0
14.01.2021	18:04:33	0	0	4,405978	4,41975	85,9032	1,357	75,559	3,5	1005,48	8	9,9	9,7	1	1	1	1	1	1	1	1	1	0	1	-32,769556	275,241867	292,648043	0
14.01.2021	18:04:34	0	0	2,824345	4,0695	89,7156	1,356	75,53	3,5	1005,3	8,1	9,8	9,7	1	1	1	1	1	1	1	1	1	0	1	-28,752643	275,270384	296,799841	0
14.01.2021	18:04:35	0	0	3,389214	4,086	102,9492	1,359	75,521	3,5	1005,4	8	10	9,7	1	1	1	1	1	1	1	1	1	0	1	-29,245948	275,235535	296,141709	0
14.01.2021	18:04:36	0	0	4,18003	4,13625	92,952	1,36	75,508	3,5	1005,5	8	9,8	9,7	1	1	1	1	1	1	1	1	1	0	1	-25,933756	275,345044	299,972062	0
14.01.2021	18:04:37	0	0	4,293004	4,2135	102,9312	1,36	75,489	3,5	1005,58	8,1	9,8	9,7	1	1	1	1	1	1	1	1	1	0	1	-34,601832	275,413603	291,628699	0
14.01.2021	18:04:38	0	0	3,615161	4,33125	96,9804	1,362	75,48	3,5	1005,44	8,1	9,8	9,7	1	1	1	1	1	1	1	1	1	0	1	-32,699084	275,276727	292,883407	0
14.01.2021	18:04:39	0	0	2,485423	4,7895	80,8956	1,363	75,454	3,5	1005,4	8	9,8	9,7	1	1	1	1	1	1	1	1	1	0	1	-31,219168	275,284658	294,400848	0
14.01.2021	18:04:40	0	0	4,857873	5,04375	107,0532	1,361	75,448	3,5	1005,54	8,1	9,8	9,7	1	1	1	1	1	1	1	1	1	0	1	-36,363636	275,391255	289,761022	0
14.01.2021	18:04:41	0	0	2,598397	5,69775	109,9944	1,363	75,426	3,5	1005,38	8	9,8	9,7	1	1	1	1	1	1	1	1	1	0	1	-32,417195	275,370526	293,609284	0
14.01.2021	18:04:42	0	0	3,050292	5,91975	110,6712	1,365	75,412	3,5	1005,58	8	9,8	9,7	1	1	1	1	1	1	1	1	1	0	1	-27,554616	275,264043	297,967873	0
14.01.2021	18:04:43	0	0	4,18003	5,8635	120,1608	1,363	75,399	3,5	1005,42	8,1	9,8	9,7	1	1	1	1	1	1	1	1	1	0	1	-29,950669	275,230788	295,414539	0
14.01.2021	18:04:44	0	0	4,744899	5,6715	117,0288	1,365	75,404	3,5	1005,34	8,1	9,8	9,7	1	1	1	1	1	1	1	1	1	0	1	-26,145173	275,388064	299,964373	0
14.01.2021	18:04:45	0	0	4,970847	5,73	116,3592	1,367	75,389	3,5	1005,48	8	10	9,7	1	1	1	1	1	1	1	1	1	0	1	-25,229035	275,354596	300,722009	0
14.01.2021	18:04:46	0	0	3,954082	6,21	102,5712	1,366	75,366	3,5	1005,52	8,1	9,9	9,7	1	1	1	1	1	1	1	1	1	0	1	-30,655391	275,396041	295,491942	0
14.01.2021	18:04:47	0	0	2,937318	6,62175	109,602	1,365	75,37	3,5	1005,6	8,1	9,8	9,7	1	1	1	1	1	1	1	1	1	0	1	-30,021142	275,303707	295,689011	0
14.01.2021	18:04:48	0	0	2,485423	6,75975	110,682	1,371	75,366	3,5	1005,38	8	9,9	9,7	1	1	1	1	1	1	1	1	1	0	1	-31,430585	275,408812	294,777247	0
14.01.2021	18:04:49	0	0	3,163266	6,54825	118,35	1,369	75,363	3,5	1005,44	8	9,8	9,7	1	1	1	1	1	1	1	1	1	0	1	-29,31642	275,34027	296,566796	0
14.01.2021	18:04:50	0	0	2,372449	6,50775	122,0328	1,369	75,366	3,5	1005,44	8	9,9	9,7	1	1	1	1	1	1	1	1	1	0	1	-28,188865	275,405618	298,003837	0
14.01.2021	18:04:51	0	0	4,067056	5,98875	118,3392	1,367	75,358	3,5	1005,26	8	9,8	9,7	1	1	1	1	1	1	1	1	1	0	1	-28,611698	275,262458	296,903293	0
14.01.2021	18:04:52	0	0	2,372449	6,183	115,9668	1,358	75,339	3,5	1005,4	8	9,8	9,7	1	1	1	1	1	1	1	1	1	0	1	-27,69556	275,283072	297,916949	0
14.01.2021	18:04:53	0	0	3,841109	6,58275	112,266	1,372	75,364	3,5	1005,36	8	9,9	9,7	1	1	1	1	1	1	1	1	1	0	1	-30,866808	275,42159	295,401571	0
14.01.2021	18:04:54	0	0	2,937318	6,6885	119,4408	1,368	75,345	3,5	1005,56	8	9,8	9,7	1	1	1	1	1	1	1	1	1	0	1	-30,162086	275,356188	295,796498	0
14.01.2021	18:04:55	0	0	3,954082	6,65775	115,596	1,367	75,343	3,5	1005,34	8	9,9	9,7	1	1	1	1	1	1	1	1	1	0	1	-31,501057	275,22446	293,834231	0
14.01.2021	18:04:56	0	0	2,146502	6,72525	111,8088	1,362	75,334	3,5	1005,52	8	9,9	9,7	1	1	1	1	1	1	1	1	1	0	1	-30,091614	275,357781	295,874511	0
14.01.2021	18:04:57	0	0	2,711371	6,46275	114,9624	1,37	75,342	3,5	1005,5	8,1	9,9	9,7	1	1	1	1	1	1	1	1	1	0	1	-32,699084	275,240284	292,711029	0
14.01.2021	18:04:58	0	0	3,389214	6,081	111,0312	1,371	75,329	3,5	1005,56	8	9,8	9,7	1	1	1	1	1	1	1	1	1	0	1	-28,682171	275,298943	297,005438	0
14.01.2021	18:04:59	0	0	3,389214	5,80725	112,2516	1,373	75,327	3,5	1005,48	8	9,8	9,7	1	1	1	1	1	1	1	1	1	0	1	-27,977449	275,410408	298,237948	0
14.01.2021	18:05:00	0	0	2,598397	5,42475	113,4036	1,367	75,315	3,5	1005,46	8	9,8	9,7	1	1	1	1	1	1	1	1	1	0	1	-31,782946	275,262458	293,732046	0
14.01.2021	18:05:01	0	0	3,050292	5,34975	115,146	1,362	75,294	3,5	1005,36	8,1	9,8	9,7	1	1	1	1	1	1	1	1	1	0	1	-31,007752	275,275141	294,567236	0
14.01.2021	18:05:02	0	0	3,050292	5,34975	115,146	1,362	75,294	3,5	1005,36	8,1	9,8	9,7	1	1	1	1	1	1	1	1	1	0	1	-31,007752	275,275141	294,567236	0
14.01.2021	18:05:03	0	0	4,518951	5,3655	115,6608	1,367	75,284	3,5	1005,4	8,1	9,8	9,7	1	1	1	1	1	1	1	1	1	0	1	-30,232558	275,302119	295,470079	0
14.01.2021	18:05:04	0	0	3,728135	5,33025	113,7852	1,371	75,295	3,5	1005,42	8,1	9,8	9,7	1	1	1	1	1	1	1	1	1	0	1	-29,527837	275,410408	296,687561	0
14.01.2021	18:05:05	0	0	4,631925	5,3415	116,6796	1,364	75,273	3,5	1005,36	8,1	10	9,7	1	1	1	1	1	1	1	1	1	0	1	-28,823115	275,298943	296,864494	0
14.01.2021	18:05:06	0	0	3,050292	5,36775	114,0984	1,371	75,293	3,5	1005,42	8	9,8	9,7	1	1	1	1	1	1	1	1	1	0	1	-31,148696	275,43118	295,165124	0
14.01.2021	18:05:07	0	0	4,405978	4,99875	106,6644	1,371	75,28	3,5	1005,26	8	9,8	9,7	1	1	1	1	1	1	1	1	1	0	1	-30,443975	275,273555	295,123511	0
14.01.2021	18:05:08	0	0	4,18003	4,59	119,7612	1,365	75,276	3,5	1005,42	8,1	9,8	9,7	1	1	1	1	1	1	1	1	1	0	1	-26,497533	275,265628	299,032453	0
14.01.2021	18:05:09	0	0	3,954082	4,44975	110,3688	1,37	75,26	3,5	1005,58	8,1	9,8	9,7	1	1	1	1	1	1	1	1	1	0	1	-28,752643	275,297355	296,927453	0
14.01.2021	18:05:10	0	0	4,518951	4,44225	110,4372	1,377	75,286	3,5	1005,38	8	9,8	9,7	1	1	1	1	1	1	1	1	1	0	1	-32,487667	275,407215	293,712599	0
14.01.2021	18:05:11	0	0	3,728135	4,665	110,6532	1,372	75,275	3,5	1005,36	8,1	9,8	9,7	1	1	1	1	1	1	1	1	1	0	1	-29,739253	275,318006	296,038573	0
14.01.2021	18:05:12	0	0	4,067056	4,842	109,5948	1,372	75,273	3,5	1005,46	8,1	9,8	9,7	1	1	1	1	1	1	1	1	1	0	1	-33,051445	275,429581	293,254801	0
14.01.2021	18:05:13	0	0	4,631925	5,14425	105,1632	1,372	75,268	3,5	1005,48	8,1	9,8	9,7	1	1	1	1	1	1	1	1	1	0	1	-26,286117	275,349819	299,642311	0
14.01.2021	18:05:14	0	0	4,405978	4,944	110,6712	1,376	75,26	3,5	1005,4	8,1	9,9	9,7	1	1	1	1	1	1	1	1	1	0	1	-28,682171	275,432778	297,639227	0
14.01.2021	18:05:15	0	0	2,259476	4,82925	106,6824	1,372	75,277	3,5	1005,5	8,1	9,8	9,7	1	1	1	1	1	1	1	1	1	0	1	-32,840028	275,305295	292,877641	0
14.01.2021	18:05:16	0	0	3,954082	4,6845	109,242	1,376	75,271	3,5	1005,3	8	9,8	9,7	1	1	1	1	1	1	1	1	1	0	1	-30,796335	275,381685	295,282994	0
14.01.2021	18:05:17	0	0	2,372449	4,63275	92,2824	1,372	75,282	3,5	1005,46	8,1	9,8	9,7	1	1	1	1	1	1	1	1	1	0	1	-31,430585	275,418395	294,822652	0
14.01.2021	18:05:18	0	0	3,615161	4,77225	108,8748	1,367	75,28	3,5	1005,52	8,1	9,9	9,7	1	1	1	1	1	1	1	1	1	0	1	-31,219168	275,287832	294,415863	0
14.01.2021	18:05:19	0	0	2,824345	4,7685	93,348	1,375	75,281	3,5	1005,42	8,1	9,8	9,7	1	1	1	1	1	1	1	1	1	0	1	-25,440451	275,249784	300,014592	0
14.01.2021	18:05:20	0	0	2,485423	4,2495	105,8832	1,372	75,285	3,5	1005,4	8	9,9	9,7	1	1	1	1	1	1	1	1	1	0	1	-29,31642	275,300531	296,378703	0
14.01.2021	18:05:21	0	0	3,27624	4,2615	109,2492	1,371	75,281	3,5	1005,42	8,1	10	9,7	1	1	1	1	1	1	1	1	1	0	1	-33,262861	275,310061	292,477361	0
14.01.2021	18:05:22	0	0	3,954082	4,26675	104,4432	1,365	75,287	3,5	1005,38	8,1	9,8	9,7	1	1	1	1	1	1	1	1	1	0	1	-31,782946	275,43118	294,530875	0
14.01.2021	18:05:23	0	0	2,598397	4,269	98,7732	1,366	75,265	3,5	1005,26	8,1	9,9	9,7	1	1	1	1	1	1	1	1	1	0	1	-32,135307	275,39285	293,996909	0
14.01.2021	18:05:24	0	0	2,372449	4,26825	114,8544	1,369	75,28	3,5	1005,52	8,1	9,8	9,7	1	1	1	1	1	1	1	1	1	0	1	-29,527837	275,254536	295,949682	0
14.01.2021	18:05:25	0	0	2,372449	4,63125	106,6824	1,37	75,271	3,5	1005,4	8,1	9,8	9,7	1	1	1	1	1	1	1	1	1	0	1	-28,611698	275,284658	297,008318	0
14.01.2021	18:05:26	0	0	4,631925	4,90725	77,5728	1,367	75,274	3,5	1005,6	8,1	9,8	9,7	1	1	1	1	1	1	1	1	1	0	1	-28,752643	275,38009	297,319134	0
14.01.2021	18:05:27	0	0	2,711371	4,90425	88,1172	1,367	75,279	3,5	1005,42	8,1	9,8	9,7	1	1	1	1	1	1	1	1	1	0	1	-26,356589	275,2482	299,090963	0
14.01.2021	18:05:28	0	0	3,954082	4,86375	94,7808	1,374	75,276	3,5	1005,54	8,1	9,8	9,7	1	1	1	1	1	1	1	1	1	0	1	-32,628612	275,322775	293,171786	0
14.01.2021	18:05:29	0	0	2,937318	4,38	89,3304	1,373	75,284	3,5	1005,48	8,1	9,8	9,7	1	1	1	1	1	1	1	1	1	0	1	-26,568006	275,305295	299,149664	0
14.01.2021	18:05:30	0	0	2,598397	4,0035	84,42	1,377	75,286	3,5	1005,54	8,1	10	9,7	1	1	1	1	1	1	1	1	1	0	1	-29,598309	275,448773	296,798893	0
14.01.2021	18:05:31	0	0	4,631925	3,59925	93,3228	1,373	75,288	3,5	1005,44	8	9,8	9,7	1	1	1	1	1	1	1	1	1	0	1	-30,443975	275,397637	295,710918	0
14.01.2021	18:05:32	0	0	3,841109	3,70125	106,3944	1,376	75,301	3,5	1005,56	8,1	9,8	9,7	1	1	1	1	1	1	1	1	1	0	1	-29,386892	275,257704	296,105613	0
14.01.2021	18:05:33	0	0	3,502187	3,95325	91,1736	1,373	75,294	3,5	1005,58	8,1	9,8	9,7	1	1	1	1	1	1	1	1	1	0	1	-33,333333	275,373713	292,708242	0
14.01.2021	18:05:34	0	0	3,728113	4,5945	95,5404	1,374	75,296	3,5	1005,54	8,1	9,8	9,8	1	1	1	1	1	1	1	1	1	0	1	-30,232558	275,437575	296,111572	0
14.01.2021	18:05:35	0	0	3,502187	5,18925	93,7224	1,373	75,298	3,5	1005,52	8,1	9,8	9,7	1	1	1	1	1	1	1	1	1	0	1	-30,232558	275,348227	295,688333	0
14.01.2021	18:05:36	0	0	2,824345	5,29875	114,1092	1,37	75,304	3,5	1005,44	8,1	9,8	9,7	1	1	1	1	1	1	1	1	1	0	1	-29,175476	275,427983	297,123195	0
14.01.2021	18:05:37	0	0	4,18003	5,295	109,206	1,37	75,308	3,5	1005,38	8,1	9,8	9,7	1	1	1	1	1	1	1	1	1	0	1	-28,32981	275,429581	297,976435	0
14.01.2021	18:05:38	0	0	4,405978	5,4585	107,7624	1,369	75,315	3,5	1005,34	8,1	9,8	9,7	1	1	1	1	1	1	1	1	1	0	1	-33,121917	275,330725	292,716114	0
14.01.2021	18:05:39	0	0	4,744899	5,541	112,284	1,371	75,324	3,5	1005,5	8,1	9,8	9,7	1	1	1	1	1	1	1	1	1	0	1	-28,188865	275,260873	297,31863	0
14.01.2021	18:05:40	0	0	4,293004	6,0675	97,3296	1,369	75,324	3,5	1005,58	8,1	9,8	9,7	1	1	1	1	1	1	1	1	1	0	1	-30,655391	275,295768	295,017192	0
14.01.2021	18:05:41	0	0	3,27624	5,6745	101,1312	1,365	75,308	3,5	1005,42	8	9,8	9,7	1	1	1	1	1	1	1	1	1	0	1	-31,853418	275,259289	293,646582	0
14.01.2021	18:05:42	0	0	4,518951	5,4045	112,6584	1,37	75,326	3,5	1005,42	8,1	9,8	9,7	1	1	1	1	1	1	1	1	1	0	1	-31,712474	275,322775	294,087924	0
14.01.2021	18:05:43	0	0	3,728135	5,6955	115,9812	1,372	75,332	3,5	1005,54	8,1	9,8	9,7	1	1	1	1	1	1	1	1	1	0	1	-28,118393	275,270384	297,43409	0
14.01.2021	18:05:44	0	0	2,824345	5,2155	117,7812	1,369	75,35	3,5	1005,52	8,1	9,8	9,7	1	1	1	1	1	1	1	1	1	0	1	-30,514447	275,391255	295,610211	0
14.01.2021	18:05:45	0	0	4,631925	4,95825	114,5052	1,367	75,332	3,5	1005,26	8,1	9,8	9,7	1	1	1	1	1	1	1	1	1	0	1	-30,373502	275,316417	295,396802	0
14.01.2021	18:05:46	0	0	3,389214	5,13525	107,0532	1,361	75,36	3,5	1005,3	8	9,8	9,7	1	1	1	1	1	1	1	1	1	0	1	-30,866808	275,435976	295,469744	0
14.01.2021	18:05:47	0	0	4,631925	5,32425	111,0744	1,372	75,369	3,5	1005,4	8,1	9,8	9,7	1	1	1	1	1	1	1	1	1	0	1	-29,034531	275,354596	296,916513	0
14.01.2021	18:05:48	0	0	3,502187	5,62725	104,4396	1,369	75,384	3,5	1005,46	8,1	9,8	9,7	1	1	1	1	1	1	1	1	1	0	1	-28,964059	275,275141	296,610928	0
14.01.2021	18:05:49	0	0	3,163266	5,6415	106,6536	1,369	75,394	3,5	1005,5	8	9,8	9,7	1	1	1	1	1	1	1	1	1	0	1	-29,105004	275,383279	296,981879	0
14.01.2021	18:05:50	0	0	2,372449	5,301	96,2172	1,372	75,404	3,5	1005,46	8,1	9,8	9,7	1	1	1	1	1	1	1	1	1	0	1	-27,766032	275,278313	297,823962	0
14.01.2021	18:05:51	0	0	4,518951	5,058	98,0676	1,371	75,408	3,5	1005,46	8,1	9,8	9,7	1	1	1	1	1	1	1	1	1	0	1	-32,487667	275,404022	293,697472	0
14.01.2021	18:05:52	0	0	4,857873	5,1285	94,0932	1,37	75,418	3,5	1005,46	8,1	9,8	9,7	1	1	1	1	1	1	1	1	1	0	1	-32,55814	275,298943	293,129469	0
14.01.2021	18:05:53	0	0	3,954082	5,151	102,9492	1,368	75,425	3,5	1005,4	8,1	9,8	9,7	1	1	1	1	1	1	1	1	1	0	1	-30,655391	275,297355	295,024704	0
14.01.2021	18:05:54	0	0	2,485423	4,89525	95,1516	1,367	75,406	3,5	1005,5	8,1	9,8	9,7	1	1	1	1	1	1	1	1	1	0	1	-27,69556	275,31165	298,052182	0
14.01.2021	18:05:55	0	0	4,857873	4,76025	95,5296	1,374	75,413	3,5	1005,5	8	10	9,7	1	1	1	1	1	1	1	1	1	0	1	-31,148696	275,394446	294,991078	0
14.01.2021	18:05:56	0	0	3,728135	4,83525	91,5084	1,375	75,419	3,5	1005,32	8,1	9,8	9,7	1	1	1	1	1	1	1	1	1	0	1	-31,92389	275,443973	294,450562	0
14.01.2021	18:05:57	0	0	2,937318	5,046	98,0532	1,367	75,417	3,5	1005,34	8,1	9,8	9,7	1	1	1	1	1	1	1	1	1	0	1	-28,047921	275,286245	297,579602	0
14.01.2021	18:05:58	0	0	4,18003	5,06175	86,7636	1,371	75,417	3,5	1005,56	8,1	9,8	9,7	1	1	1	1	1	1	1	1	1	0	1	-31,571529	275,306884	294,153657	0
14.01.2021	18:05:59	0	0	2,259476	4,79925	108,8928	1,369	75,42	3,5	1005,46	8,1	9,8	9,7	1	1	1	1	1	1	1	1	1	0	1	-30,655391	275,442374	295,71148	0
14.01.2021	18:06:00	0	0	4,970847	5,39925	95,5332	1,372	75,411	3,5	1005,4	8,1	9,8	9,7	1	1	1	1	1	1	1	1	1	0	1	-31,782946	275,270384	293,769538	0
14.01.2021	18:06:01	0	0	4,970847	5,39925	95,5332	1,372	75,411	3,5	1005,4	8,1	9,8	9,7	1	1	1	1	1	1	1	1	1	0	1	-31,782946	275,270384	293,769538	0
14.01.2021	18:06:02	0	0	4,18003	6,15	102,9708	1,368	75,403	3,5	1005,5	8	9,8	9,7	1	1	1	1	1	1	1	1	1	0	1	-27,625088	275,37212	298,408939	0
14.01.2021	18:06:03	0	0	2,372449	6,3585	100,3752	1,37	75,386	3,5	1005,38	8,1	9,8	9,7	1	1	1	1	1	1	1	1	1	0	1	-30,796335	275,439175	295,555374	0
14.01.2021	18:06:04	0	0	4,631925	6,33	92,2608	1,372	75,412	3,5	1005,64	8,1	10	9,7	1	1	1	1	1	1	1	1	1	0	1	-27,906977	275,292593	297,750583	0
14.01.2021	18:06:05	0	0	3,615161	6,435	103,68	1,369	75,394	3,5	1005,34	8,1	9,8	9,7	1	1	1	1	1	1	1	1	1	0	1	-30,373502	275,303707	295,336651	0
14.01.2021	18:06:06	0	0	4,518951	6,372	95,832	1,372	75,416	3,5	1005,66	8,1	9,8	9,7	1	1	1	1	1	1	1	1	1	0	1	-33,826638	275,42159	292,44174	0
14.01.2021	18:06:07	0	0	5,196794	6,29025	99,1512	1,375	75,406	3,5	1005,52	8,1	9,9	9,7	1	1	1	1	1	1	1	1	1	0	1	-32,487667	275,375307	293,561458	0
14.01.2021	18:06:08	0	0	3,954059	6,32625	90,036	1,373	75,387	3,5	1005,48	8,1	9,8	9,8	1	1	1	1	1	1	1	1	1	0	1	-32,9105	275,440774	293,44879	0
14.01.2021	18:06:09	0	0	4,293004	6,33225	102,9744	1,372	75,381	3,5	1005,36	8,1	10	9,7	1	1	1	1	1	1	1	1	1	0	1	-30,514447	275,349819	295,413981	0
14.01.2021	18:06:10	0	0	4,067056	6,5745	96,9804	1,374	75,385	3,5	1005,28	8	9,8	9,7	1	1	1	1	1	1	1	1	1	0	1	-29,809725	275,447173	296,579893	0
14.01.2021	18:06:11	0	0	3,615183	6,63	106,3044	1,375	75,386	3,5	1005,4	8,1	10	9,6	1	1	1	1	1	1	1	1	1	0	1	-29,105004	275,313239	296,650258	0
14.01.2021	18:06:12	0	0	3,27622	6,39225	109,584	1,375	75,381	3,5	1005,46	8,1	10	9,8	1	1	1	1	1	1	1	1	1	0	1	-31,642001	275,434377	294,686973	0
14.01.2021	18:06:13	0	0	3,841086	6,36075	107,7336	1,373	75,365	3,5	1005,38	8	9,8	9,8	1	1	1	1	1	1	1	1	1	0	1	-28,823115	275,402425	297,354461	0
14.01.2021	18:06:14	0	0	3,728135	6,2295	105,1308	1,376	75,369	3,5	1005,46	8,1	9,8	9,7	1	1	1	1	1	1	1	1	1	0	1	-33,685694	275,310061	292,054528	0
14.01.2021	18:06:15	0	0	3,954082	5,862	106,2828	1,369	75,345	3,5	1005,34	8,1	9,8	9,7	1	1	1	1	1	1	1	1	1	0	1	-28,259338	275,297355	297,420758	0
14.01.2021	18:06:16	0	0	4,293004	5,90175	108,1008	1,366	75,346	3,5	1005,46	8,1	9,8	9,7	1	1	1	1	1	1	1	1	1	0	1	-28,611698	275,327545	297,211277	0
14.01.2021	18:06:17	0	0	2,711371	5,862	107,046	1,376	75,349	3,5	1005,5	8,1	10	9,7	1	1	1	1	1	1	1	1	1	0	1	-31,219168	275,302119	294,483469	0
14.01.2021	18:06:18	0	0	3,050292	5,7435	121,2696	1,372	75,314	3,5	1005,28	8,1	10	9,7	1	1	1	1	1	1	1	1	1	0	1	-26,990839	275,400829	299,179176	0
14.01.2021	18:06:19	0	0	3,389193	6,13725	120,9024	1,372	75,312	3,5	1005,44	8,1	9,8	9,8	1	1	1	1	1	1	1	1	1	0	1	-27,625088	275,284658	297,994928	0
14.01.2021	18:06:20	0	0	3,615161	6,2745	119,4624	1,377	75,315	3,5	1005,38	8,1	9,8	9,7	1	1	1	1	1	1	1	1	1	0	1	-36,856942	275,424786	289,426582	0
14.01.2021	18:06:21	0	0	2,598397	5,9655	119,07	1,375	75,305	3,5	1005,36	8,1	9,8	9,7	1	1	1	1	1	1	1	1	1	0	1	-30,232558	275,276727	295,349932	0
14.01.2021	18:06:22	0	0	3,27624	5,3835	122,4	1,378	75,297	3,5	1005,5	8,1	9,8	9,7	1	1	1	1	1	1	1	1	1	0	1	-33,685694	275,343452	292,212589	0
14.01.2021	18:06:23	0	0	2,824345	5,0625	117,054	1,378	75,301	3,5	1005,46	8,1	9,8	9,7	1	1	1	1	1	1	1	1	1	0	1	-30,725863	275,281485	294,87914	0
14.01.2021	18:06:24	0	0	2,824345	4,90725	123,8544	1,38	75,299	3,5	1005,38	8,1	10	9,7	1	1	1	1	1	1	1	1	1	0	1	-33,615222	275,407215	292,585045	0
14.01.2021	18:06:25	0	0	2,824345	4,593	111,1608	1,374	75,274	3,5	1005,28	8,1	9,8	9,7	1	1	1	1	1	1	1	1	1	0	1	-37,491191	275,283072	288,121318	0
14.01.2021	18:06:26	0	0	3,163266	4,41225	124,6896	1,379	75,269	3,5	1005,28	8,1	9,8	9,7	1	1	1	1	1	1	1	1	1	0	1	-33,685694	275,423188	292,590256	0
14.01.2021	18:06:27	0	0	2,824345	4,11075	130,5936	1,381	75,274	3,5	1005,32	8,1	10	9,7	1	1	1	1	1	1	1	1	1	0	1	-29,668781	275,262458	295,846211	0
14.01.2021	18:06:28	0	0	3,728135	3,9675	119,7756	1,379	75,268	3,5	1005,38	8,1	9,8	9,7	1	1	1	1	1	1	1	1	1	0	1	-30,584919	275,321185	295,207954	0
14.01.2021	18:06:29	0	0	3,27624	4,3455	102,942	1,383	75,262	3,5	1005,4	8,1	9,8	9,7	1	1	1	1	1	1	1	1	1	0	1	-30,866808	275,447173	295,52281	0
14.01.2021	18:06:30	0	0	4,518951	4,7685	120,9456	1,378	75,253	3,5	1005,38	8,1	9,8	9,7	1	1	1	1	1	1	1	1	1	0	1	-28,259338	275,325954	297,556111	0
14.01.2021	18:06:31	0	0	3,954059	5,37375	114,8292	1,378	75,25	3,5	1005,4	8,1	9,8	9,8	1	1	1	1	1	1	1	1	1	0	1	-27,906977	275,447173	298,482641	0
14.01.2021	18:06:32	0	0	3,389214	5,9535	103,7088	1,388	75,259	3,5	1005,36	8,1	9,8	9,7	1	1	1	1	1	1	1	1	1	0	1	-33,756166	275,367339	292,25522	0
14.01.2021	18:06:33	0	0	4,292978	5,79525	105,1596	1,382	75,261	3,5	1005,44	8,1	10	9,8	1	1	1	1	1	1	1	1	1	0	1	-31,853418	275,429581	294,452827	0
14.01.2021	18:06:34	0	0	2,711371	5,337	99,9252	1,381	75,245	3,5	1005,3	8,1	10	9,7	1	1	1	1	1	1	1	1	1	0	1	-30,443975	275,297355	295,236121	0
14.01.2021	18:06:35	0	0	4,067056	4,7715	114,1236	1,382	75,229	3,5	1005,32	8,1	10	9,7	1	1	1	1	1	1	1	1	1	0	1	-31,078224	275,423188	295,197726	0
14.01.2021	18:06:36	0	0	2,598397	5,055	111,834	1,376	75,244	3,5	1005,36	8,1	10	9,7	1	1	1	1	1	1	1	1	1	0	1	-30,655391	275,267213	294,882093	0
14.01.2021	18:06:37	0	0	4,067056	5,5125	111,4056	1,378	75,243	3,5	1005,42	8,1	9,8	9,7	1	1	1	1	1	1	1	1	1	0	1	-28,964059	275,394446	297,175715	0
14.01.2021	18:06:38	0	0	2,598381	5,235	123,0624	1,385	75,22	3,5	1005,36	8,1	9,8	9,8	1	1	1	1	1	1	1	1	1	0	1	-30,866808	275,259289	294,633192	0
14.01.2021	18:06:39	0	0	3,615161	4,88475	134,5212	1,388	75,226	3,5	1005,24	8	10	9,7	1	1	1	1	1	1	1	1	1	0	1	-33,403805	275,373713	292,63777	0
14.01.2021	18:06:40	0	0	4,744871	4,6245	132,0012	1,384	75,218	3,5	1005,42	8,1	9,8	9,8	1	1	1	1	1	1	1	1	1	0	1	-33,756166	275,264043	291,766322	0
14.01.2021	18:06:41	0	0	2,824328	4,494	126,4896	1,385	75,218	3,5	1005,38	8,1	10	9,8	1	1	1	1	1	1	1	1	1	0	1	-33,897111	275,292593	291,760449	0
14.01.2021	18:06:42	0	0	3,389214	4,50225	104,7276	1,387	75,224	3,5	1005,34	8,1	10	9,7	1	1	1	1	1	1	1	1	1	0	1	-32,135307	275,4152	294,102793	0
14.01.2021	18:06:43	0	0	2,824362	4,36125	97,326	1,381	75,212	3,5	1005,44	8,1	9,8	9,6	1	1	1	1	1	1	1	1	1	0	1	-26,356589	275,407215	299,843677	0
14.01.2021	18:06:44	0	0	2,259476	4,47825	101,8872	1,384	75,202	3,5	1005,32	8,1	9,8	9,7	1	1	1	1	1	1	1	1	1	0	1	-30,866808	275,453574	295,55315	0
14.01.2021	18:06:45	0	0	2,937301	4,29075	144,216	1,385	75,206	3,5	1005,5	8,1	10	9,8	1	1	1	1	1	1	1	1	1	0	1	-32,699084	275,314828	293,063699	0
14.01.2021	18:06:46	0	0	4,518951	4,01925	117,0648	1,382	75,191	3,5	1005,42	8,1	9,8	9,7	1	1	1	1	1	1	1	1	1	0	1	-28,893587	275,257704	296,598918	0
14.01.2021	18:06:47	0	0	3,163266	4,00425	126,882	1,381	75,187	3,5	1005,42	8,1	10	9,7	1	1	1	1	1	1	1	1	1	0	1	-30,30303	275,388064	295,806515	0
14.01.2021	18:06:48	0	0	2,824328	4,30875	119,4048	1,385	75,182	3,5	1005,52	8,1	9,8	9,8	1	1	1	1	1	1	1	1	1	0	1	-27,906977	275,268798	297,638007	0
14.01.2021	18:06:49	0	0	4,631925	4,68	134,5284	1,38	75,178	3,5	1005,42	8,1	10	9,7	1	1	1	1	1	1	1	1	1	0	1	-30,725863	275,353003	295,217641	0
14.01.2021	18:06:50	0	0	4,18003	4,48125	127,5984	1,381	75,176	3,5	1005,48	8,1	10	9,7	1	1	1	1	1	1	1	1	1	0	1	-26,568006	275,437575	299,776125	0
14.01.2021	18:06:51	0	0	4,293004	4,059	120,186	1,386	75,165	3,5	1005,3	8,1	9,8	9,7	1	1	1	1	1	1	1	1	1	0	1	-27,484144	275,322775	298,316254	0
14.01.2021	18:06:52	0	0	4,518924	3,933	115,974	1,383	75,157	3,5	1005,38	8,1	9,8	9,8	1	1	1	1	1	1	1	1	1	0	1	-33,121917	275,437575	293,222214	0
14.01.2021	18:06:53	0	0	4,067056	3,915	120,5856	1,382	75,152	3,5	1005,4	8,1	9,8	9,7	1	1	1	1	1	1	1	1	1	0	1	-28,893587	275,297355	296,786508	0
14.01.2021	18:06:54	0	0	3,841109	4,03575	114,4728	1,39	75,155	3,5	1005,52	8,1	9,8	9,7	1	1	1	1	1	1	1	1	1	0	1	-30,232558	275,292593	295,425002	0
14.01.2021	18:06:55	0	0	3,728135	4,04625	111,7872	1,384	75,139	3,5	1005,38	8,1	9,8	9,7	1	1	1	1	1	1	1	1	1	0	1	-29,105004	275,43118	297,208817	0
14.01.2021	18:06:56	0	0	4,631925	3,90075	107,7804	1,388	75,142	3,5	1005,46	8,1	10	9,7	1	1	1	1	1	1	1	1	1	0	1	-29,598309	275,43118	296,715512	0
14.01.2021	18:06:57	0	0	3,615161	3,9225	114,1056	1,382	75,136	3,5	1005,38	8,1	9,8	9,7	1	1	1	1	1	1	1	1	1	0	1	-28,964059	275,442374	297,402812	0
14.01.2021	18:06:58	0	0	3,841109	3,74625	112,2948	1,391	75,119	3,5	1005,42	8,1	9,8	9,7	1	1	1	1	1	1	1	1	1	0	1	-29,175476	275,38009	296,896301	0
14.01.2021	18:06:59	0	0	4,293004	3,32475	115,956	1,384	75,12	3,5	1005,34	8,1	10	9,7	1	1	1	1	1	1	1	1	1	0	1	-28,400282	275,264043	297,122207	0
14.01.2021	18:07:00	0	0	2,824345	3,02925	129,4416	1,39	75,119	3,5	1005,38	8,1	9,8	9,7	1	1	1	1	1	1	1	1	1	0	1	-28,752643	275,402425	297,424933	0
14.01.2021	18:07:01	0	0	2,824345	3,02925	129,4416	1,39	75,119	3,5	1005,38	8,1	9,8	9,7	1	1	1	1	1	1	1	1	1	0	1	-28,752643	275,402425	297,424933	0
14.01.2021	18:07:02	0	0	2,937301	3,1215	124,3044	1,388	75,128	3,5	1005,5	8,1	9,8	9,8	1	1	1	1	1	1	1	1	1	0	1	-33,756166	275,435976	292,580386	0
14.01.2021	18:07:03	0	0	2,711355	3,21675	106,7004	1,389	75,123	3,5	1005,44	8,1	9,8	9,8	1	1	1	1	1	1	1	1	1	0	1	-29,175476	275,313239	296,579786	0
14.01.2021	18:07:04	0	0	3,615161	3,26325	120,8988	1,384	75,129	3,5	1005,36	8,1	9,9	9,7	1	1	1	1	1	1	1	1	1	0	1	-31,782946	275,310061	293,957277	0
14.01.2021	18:07:05	0	0	4,293004	3,30975	113,4396	1,388	75,107	3,5	1005,26	8,1	10	9,7	1	1	1	1	1	1	1	1	1	0	1	-29,739253	275,267213	295,798232	0
14.01.2021	18:07:06	0	0	4,18003	3,31125	95,2488	1,388	75,128	3,5	1005,36	8,1	9,8	9,7	1	1	1	1	1	1	1	1	1	0	1	-32,064834	275,300531	293,630288	0
14.01.2021	18:07:07	0	0	3,050274	3,15675	101,5128	1,392	75,129	3,5	1005,14	8,1	9,8	9,8	1	1	1	1	1	1	1	1	1	0	1	-29,034531	275,273555	296,532954	0
14.01.2021	18:07:08	0	0	3,615161	3,12	108,8604	1,387	75,12	3,5	1005,38	8,1	9,8	9,7	1	1	1	1	1	1	1	1	1	0	1	-28,964059	275,338679	296,911624	0
14.01.2021	18:07:09	0	0	3,389214	3,0645	125,7336	1,386	75,134	3,5	1005,58	8,1	10	9,7	1	1	1	1	1	1	1	1	1	0	1	-31,219168	275,265628	294,310818	0
14.01.2021	18:07:10	0	0	2,259476	3,26925	122,4	1,392	75,128	3,5	1005,48	8,1	9,8	9,7	1	1	1	1	1	1	1	1	1	0	1	-32,55814	275,439175	293,79357	0
14.01.2021	18:07:11	0	0	4,631925	3,4065	128,7	1,389	75,143	3,5	1005,42	8,1	10	9,7	1	1	1	1	1	1	1	1	1	0	1	-30,091614	275,364152	295,904683	0
14.01.2021	18:07:12	0	0	4,067032	3,40575	113,04	1,393	75,122	3,5	1005,5	8,1	9,8	9,8	1	1	1	1	1	1	1	1	1	0	1	-28,964059	275,443973	297,410393	0
14.01.2021	18:07:13	0	0	2,711371	3,39525	111,42	1,387	75,113	3,5	1005,48	8,1	9,8	9,7	1	1	1	1	1	1	1	1	1	0	1	-30,655391	275,367339	295,355995	0
14.01.2021	18:07:14	0	0	2,485408	3,4095	117,4356	1,383	75,126	3,5	1005,4	8,1	9,8	9,8	1	1	1	1	1	1	1	1	1	0	1	-29,175476	275,43118	297,138345	0
14.01.2021	18:07:15	0	0	3,389214	3,40575	111,8484	1,389	75,117	3,5	1005,42	8,1	10	9,7	1	1	1	1	1	1	1	1	1	0	1	-29,245948	275,260873	296,261547	0
14.01.2021	18:07:16	0	0	3,502187	3,53325	110,376	1,384	75,111	3,5	1005,46	8,1	10	9,7	1	1	1	1	1	1	1	1	1	0	1	-28,823115	275,287832	296,811917	0
14.01.2021	18:07:17	0	0	4,067056	3,72375	111,4056	1,387	75,121	3,5	1005,42	8,1	9,8	9,7	1	1	1	1	1	1	1	1	1	0	1	-32,135307	275,310061	293,604916	0
14.01.2021	18:07:18	0	0	2,598381	3,627	107,064	1,38	75,113	3,5	1005,3	8,1	10	9,8	1	1	1	1	1	1	1	1	1	0	1	-29,739253	275,246617	295,70081	0
14.01.2021	18:07:19	0	0	4,857873	3,44925	101,1096	1,384	75,125	3,5	1005,34	8,1	10	9,7	1	1	1	1	1	1	1	1	1	0	1	-29,457364	275,386469	296,644626	0
14.01.2021	18:07:20	0	0	3,728135	3,43575	105,1416	1,385	75,114	3,5	1005,48	8,1	9,8	9,7	1	1	1	1	1	1	1	1	1	0	1	-32,205779	275,245033	293,226796	0
14.01.2021	18:07:21	0	0	2,146502	3,6555	104,4252	1,386	75,109	3,5	1005,62	8,1	9,8	9,7	1	1	1	1	1	1	1	1	1	0	1	-30,162086	275,29418	295,502985	0
14.01.2021	18:07:22	0	0	2,937318	3,83925	107,4096	1,384	75,106	3,5	1005,42	8,1	9,8	9,7	1	1	1	1	1	1	1	1	1	0	1	-32,346723	275,310061	293,3935	0
14.01.2021	18:07:23	0	0	2,824345	4,04925	99,162	1,392	75,107	3,5	1005,38	8,1	9,8	9,7	1	1	1	1	1	1	1	1	1	0	1	-29,809725	275,246617	295,630338	0
14.01.2021	18:07:24	0	0	3,389193	4,15425	112,6656	1,385	75,096	3,5	1005,34	8,1	9,8	9,8	1	1	1	1	1	1	1	1	1	0	1	-28,400282	275,338679	297,475401	0
14.01.2021	18:07:25	0	0	3,728113	3,8415	89,406	1,385	75,109	3,5	1005,58	8,1	9,8	9,8	1	1	1	1	1	1	1	1	1	0	1	-38,689218	275,418395	287,56402	0
14.01.2021	18:07:26	0	0	2,824328	3,92775	111,078	1,387	75,102	3,5	1005,48	8,1	10	9,8	1	1	1	1	1	1	1	1	1	0	1	-27,343199	275,235535	298,044458	0
14.01.2021	18:07:27	0	0	4,857873	3,76125	92,664	1,39	75,103	3,5	1005,58	8,1	10	9,7	1	1	1	1	1	1	1	1	1	0	1	-31,501057	275,354596	294,449987	0
14.01.2021	18:07:28	0	0	4,744899	3,61875	127,9836	1,379	75,107	3,5	1005,3	8,1	10	9,7	1	1	1	1	1	1	1	1	1	0	1	-32,205779	275,265628	293,324207	0
14.01.2021	18:07:29	0	0	2,824328	3,60225	118,7136	1,38	75,103	3,5	1005,32	8,1	9,8	9,8	1	1	1	1	1	1	1	1	1	0	1	-29,739253	275,370526	296,287227	0
14.01.2021	18:07:30	0	0	2,711371	3,3645	118,3428	1,384	75,11	3,5	1005,42	8,1	9,8	9,7	1	1	1	1	1	1	1	1	1	0	1	-27,906977	275,251368	297,555557	0
14.01.2021	18:07:31	0	0	2,937318	3,138	106,6392	1,386	75,107	3,5	1005,46	8,1	10	9,7	1	1	1	1	1	1	1	1	1	0	1	-30,232558	275,38009	295,839219	0
14.01.2021	18:07:32	0	0	4,067032	3,1215	107,7372	1,382	75,111	3,5	1005,56	8,1	9,8	9,8	1	1	1	1	1	1	1	1	1	0	1	-31,007752	275,384874	295,086684	0
14.01.2021	18:07:33	0	0	4,518924	3,03525	101,7648	1,383	75,117	3,5	1005,46	8,1	9,8	9,8	1	1	1	1	1	1	1	1	1	0	1	-32,417195	275,4152	293,820904	0
14.01.2021	18:07:34	0	0	3,163266	2,71125	127,206	1,386	75,112	3,5	1005,48	8	9,8	9,7	1	1	1	1	1	1	1	1	1	0	1	-32,276251	275,251368	293,186283	0
14.01.2021	18:07:35	0	0	3,841109	2,637	97,7076	1,383	75,132	3,5	1005,34	8,1	10	9,7	1	1	1	1	1	1	1	1	1	0	1	-33,192389	275,235535	292,195268	0
14.01.2021	18:07:36	0	0	3,27624	2,535	94,3884	1,377	75,131	3,5	1005,38	8,1	10	9,7	1	1	1	1	1	1	1	1	1	0	1	-31,782946	275,316417	293,987358	0
14.01.2021	18:07:37	0	0	4,067056	2,64825	101,5848	1,384	75,14	3,5	1005,34	8,1	10	9,7	1	1	1	1	1	1	1	1	1	0	1	-31,078224	275,429581	295,228021	0
14.01.2021	18:07:38	0	0	4,18003	2,646	114,8544	1,381	75,137	3,5	1005,32	8	10	9,7	1	1	1	1	1	1	1	1	1	0	1	-32,9105	275,291006	292,739549	0
14.01.2021	18:07:39	0	0	2,937318	2,784	98,7624	1,38	75,153	3,5	1005,5	8,1	9,8	9,7	1	1	1	1	1	1	1	1	1	0	1	-31,501057	275,37212	294,53297	0
14.01.2021	18:07:40	0	0	4,067056	3,27225	91,8576	1,388	75,166	3,5	1005,46	8	10	9,7	1	1	1	1	1	1	1	1	1	0	1	-29,245948	275,423188	297,030003	0
14.01.2021	18:07:41	0	0	3,27622	4,017	85,23	1,383	75,164	3,5	1005,38	8,1	9,8	9,8	1	1	1	1	1	1	1	1	1	0	1	-33,826638	275,305295	291,891031	0
14.01.2021	18:07:42	0	0	3,615161	4,94625	86,9904	1,385	75,181	3,5	1005,46	8,1	10	9,7	1	1	1	1	1	1	1	1	1	0	1	-33,54475	275,241867	291,872849	0
14.01.2021	18:07:43	0	0	2,824328	5,69775	88,0992	1,382	75,181	3,5	1005,44	8,1	9,8	9,8	1	1	1	1	1	1	1	1	1	0	1	-29,245948	275,38009	296,825829	0
14.01.2021	18:07:44	0	0	3,163266	5,93025	90,0036	1,385	75,181	3,5	1005,36	8,1	9,8	9,7	1	1	1	1	1	1	1	1	1	0	1	-33,967583	275,423188	292,308368	0
14.01.2021	18:07:45	0	0	4,744899	6,18225	99,5148	1,38	75,196	3,5	1005,38	8,1	10	9,7	1	1	1	1	1	1	1	1	1	0	1	-31,007752	275,381685	295,071577	0
14.01.2021	18:07:46	0	0	4,405978	6,85725	91,5084	1,379	75,193	3,5	1005,46	8,1	9,8	9,7	1	1	1	1	1	1	1	1	1	0	1	-33,051445	275,31165	292,696297	0
14.01.2021	18:07:47	0	0	2,598397	7,16925	90,756	1,382	75,214	3,5	1005,4	8,1	10	9,7	1	1	1	1	1	1	1	1	1	0	1	-30,584919	275,426384	295,706177	0
14.01.2021	18:07:48	0	0	3,502166	7,16325	92,268	1,381	75,22	3,5	1005,36	8,1	10	9,8	1	1	1	1	1	1	1	1	1	0	1	-30,725863	275,346636	295,187491	0
14.01.2021	18:07:49	0	0	3,27624	6,87	100,4976	1,38	75,224	3,5	1005,48	8,1	9,8	9,7	1	1	1	1	1	1	1	1	1	0	1	-32,064834	275,252952	293,405191	0
14.01.2021	18:07:50	0	0	3,615161	6,75075	93,3084	1,378	75,235	3,5	1005,38	8,1	9,8	9,7	1	1	1	1	1	1	1	1	1	0	1	-29,739253	275,333906	296,113837	0
14.01.2021	18:07:51	0	0	2,711371	6,702	105,1452	1,385	75,248	3,5	1005,32	8,1	10	9,7	1	1	1	1	1	1	1	1	1	0	1	-30,373502	275,24345	295,051584	0
14.01.2021	18:07:52	0	0	4,744871	6,67725	100,3356	1,378	75,255	3,5	1005,5	8,1	9,8	9,8	1	1	1	1	1	1	1	1	1	0	1	-29,386892	275,386469	296,715098	0
14.01.2021	18:07:53	0	0	3,389214	6,369	105,12	1,379	75,27	3,5	1005,48	8,1	9,8	9,7	1	1	1	1	1	1	1	1	1	0	1	-28,541226	275,286245	297,086297	0
14.01.2021	18:07:54	0	0	3,502187	5,823	99,1656	1,376	75,276	3,5	1005,48	8,1	9,8	9,7	1	1	1	1	1	1	1	1	1	0	1	-29,175476	275,278313	296,414518	0
14.01.2021	18:07:55	0	0	3,615161	5,85075	105,1128	1,379	75,285	3,5	1005,4	8,1	9,8	9,7	1	1	1	1	1	1	1	1	1	0	1	-28,611698	275,321185	297,181175	0
14.01.2021	18:07:56	0	0	2,937318	5,72175	101,8188	1,376	75,309	3,5	1005,42	8,1	9,8	9,7	1	1	1	1	1	1	1	1	1	0	1	-30,30303	275,241867	295,114569	0
14.01.2021	18:07:57	0	0	3,841109	5,9685	107,7408	1,378	75,297	3,5	1005,42	8,1	10	9,7	1	1	1	1	1	1	1	1	1	0	1	-30,232558	275,343452	295,665726	0
14.01.2021	18:07:58	0	0	4,631897	6,03375	104,4432	1,371	75,306	3,5	1005,42	8,1	9,8	9,8	1	1	1	1	1	1	1	1	1	0	1	-30,373502	275,351411	295,562463	0
14.01.2021	18:07:59	0	0	2,711355	6,05175	103,3056	1,379	75,338	3,5	1005,4	8,1	9,8	9,8	1	1	1	1	1	1	1	1	1	0	1	-30,866808	275,412005	295,356156	0
14.01.2021	18:08:00	0	0	2,937318	5,85525	99,5148	1,373	75,341	3,5	1005,34	8	9,8	9,7	1	1	1	1	1	1	1	1	1	0	1	-33,756166	275,378496	292,308059	0
14.01.2021	18:08:01	0	0	2,937318	5,85525	99,5148	1,373	75,341	3,5	1005,34	8	9,8	9,7	1	1	1	1	1	1	1	1	1	0	1	-33,756166	275,378496	292,308059	0
14.01.2021	18:08:02	0	0	4,067056	5,97375	105,5232	1,373	75,346	3,5	1005,34	8,1	9,8	9,7	1	1	1	1	1	1	1	1	1	0	1	-38,75969	275,278313	286,830304	0
14.01.2021	18:08:03	0	0	2,711371	5,8875	104,4468	1,382	75,365	3,5	1005,38	8,1	10	9,7	1	1	1	1	1	1	1	1	1	0	1	-32,769556	275,383279	293,317326	0
14.01.2021	18:08:04	0	0	2,372449	5,71575	102,5748	1,378	75,371	3,5	1005,4	8,1	9,8	9,7	1	1	1	1	1	1	1	1	1	0	1	-28,893587	275,402425	297,283989	0
14.01.2021	18:08:05	0	0	4,631925	5,7465	105,138	1,382	75,392	3,5	1005,48	8,1	10	9,7	1	1	1	1	1	1	1	1	1	0	1	-30,373502	275,2482	295,07405	0
14.01.2021	18:08:06	0	0	2,598413	5,709	108,5112	1,381	75,39	3,5	1005,44	8,1	10	9,6	1	1	1	1	1	1	1	1	1	0	1	-30,373502	275,426384	295,917594	0
14.01.2021	18:08:07	0	0	4,857873	5,757	106,704	1,376	75,393	3,5	1005,3	8,1	9,8	9,7	1	1	1	1	1	1	1	1	1	0	1	-33,615222	275,308472	292,117482	0
14.01.2021	18:08:08	0	0	3,502187	5,6415	102,9312	1,374	75,397	3,5	1005,32	8	9,8	9,7	1	1	1	1	1	1	1	1	1	0	1	-34,390416	275,424786	291,893107	0
14.01.2021	18:08:09	0	0	4,970847	5,47875	101,0232	1,378	75,391	3,5	1005,3	8,1	9,8	9,7	1	1	1	1	1	1	1	1	1	0	1	-31,994362	275,332316	293,851198	0
14.01.2021	18:08:10	0	0	2,937301	5,67075	108,8928	1,378	75,41	3,5	1005,5	8,1	9,8	9,8	1	1	1	1	1	1	1	1	1	0	1	-32,135307	275,435976	294,201245	0
14.01.2021	18:08:11	0	0	3,502187	5,8725	104,0616	1,371	75,392	3,5	1005,56	8,1	10	9,7	1	1	1	1	1	1	1	1	1	0	1	-31,782946	275,305295	293,934724	0
14.01.2021	18:08:12	0	0	3,615139	5,72475	101,826	1,379	75,404	3,5	1005,58	8	9,8	9,8	1	1	1	1	1	1	1	1	1	0	1	-32,135307	275,2482	293,312246	0
14.01.2021	18:08:13	0	0	4,292978	5,6205	102,6	1,378	75,399	3,5	1005,48	8,1	10	9,8	1	1	1	1	1	1	1	1	1	0	1	-32,135307	275,346636	293,778048	0
14.01.2021	18:08:14	0	0	3,389214	5,4645	116,6508	1,373	75,402	3,5	1005,4	8,1	9,8	9,7	1	1	1	1	1	1	1	1	1	0	1	-28,823115	275,249784	296,631928	0
14.01.2021	18:08:15	0	0	4,293004	5,30175	101,1312	1,378	75,388	3,5	1005,36	8,1	9,8	9,7	1	1	1	1	1	1	1	1	1	0	1	-31,712474	275,38009	294,359303	0
14.01.2021	18:08:16	0	0	3,841109	5,08125	104,7456	1,378	75,369	3,5	1005,44	8,1	9,8	9,7	1	1	1	1	1	1	1	1	1	0	1	-33,051445	275,267213	292,48604	0
14.01.2021	18:08:17	0	0	3,163266	4,89675	115,218	1,377	75,367	3,5	1005,46	8,1	10	9,7	1	1	1	1	1	1	1	1	1	0	1	-31,501057	275,235535	293,8866	0
14.01.2021	18:08:18	0	0	4,405978	4,77675	116,6508	1,377	75,377	3,5	1005,42	8,1	10	9,7	1	1	1	1	1	1	1	1	1	0	1	-30,443975	275,39285	295,688241	0
14.01.2021	18:08:19	0	0	4,744899	5,11725	114,624	1,381	75,363	3,5	1005,42	8,1	9,8	9,7	1	1	1	1	1	1	1	1	1	0	1	-29,950669	275,237118	295,444472	0
14.01.2021	18:08:20	0	0	2,937301	5,26725	107,7732	1,378	75,369	3,5	1005,32	8,1	9,8	9,8	1	1	1	1	1	1	1	1	1	0	1	-29,880197	275,351411	296,055769	0
14.01.2021	18:08:21	0	0	2,485408	5,39925	109,5912	1,379	75,357	3,5	1005,44	8,1	10	9,8	1	1	1	1	1	1	1	1	1	0	1	-34,178999	275,273555	291,388486	0
14.01.2021	18:08:22	0	0	3,841109	5,7225	122,0292	1,383	75,345	3,5	1005,56	8,1	9,8	9,7	1	1	1	1	1	1	1	1	1	0	1	-31,078224	275,303707	294,631929	0
14.01.2021	18:08:23	0	0	4,518951	5,53275	120,5172	1,377	75,333	3,5	1005,26	8,1	10	9,7	1	1	1	1	1	1	1	1	1	0	1	-34,813249	275,37212	291,220778	0
14.01.2021	18:08:24	0	0	3,954082	5,27625	116,6796	1,381	75,333	3,5	1005,48	8,1	10	9,7	1	1	1	1	1	1	1	1	1	0	1	-33,403805	275,259289	292,096194	0
14.01.2021	18:08:25	0	0	2,824328	5,1315	121,356	1,383	75,33	3,5	1005,5	8	9,8	9,8	1	1	1	1	1	1	1	1	1	0	1	-31,92389	275,396041	294,223443	0
14.01.2021	18:08:26	0	0	3,615161	5,601	93,3588	1,377	75,322	3,5	1005,42	8,1	9,8	9,7	1	1	1	1	1	1	1	1	1	0	1	-29,175476	275,418395	297,077762	0
14.01.2021	18:08:27	0	0	2,485423	5,706	112,6728	1,382	75,307	3,5	1005,42	8,1	9,8	9,7	1	1	1	1	1	1	1	1	1	0	1	-27,554616	275,318006	298,22321	0
14.01.2021	18:08:28	0	0	2,711371	4,968	110,3544	1,38	75,291	3,5	1005,18	8,1	9,8	9,7	1	1	1	1	1	1	1	1	1	0	1	-31,219168	275,252952	294,250857	0
14.01.2021	18:08:29	0	0	2,259476	4,79025	109,7244	1,384	75,295	3,5	1005,38	8,1	9,9	9,7	1	1	1	1	1	1	1	1	1	0	1	-31,430585	275,437575	294,913546	0
14.01.2021	18:08:30	0	0	2,824345	4,96725	108,1368	1,378	75,277	3,5	1005,22	8,1	9,8	9,7	1	1	1	1	1	1	1	1	1	0	1	-30,93728	275,38009	295,134497	0
14.01.2021	18:08:31	0	0	2,033528	5,301	111,8124	1,378	75,275	3,5	1005,46	8,1	10	9,7	1	1	1	1	1	1	1	1	1	0	1	-32,55814	275,434377	293,770835	0
14.01.2021	18:08:32	0	0	4,518951	5,54925	106,3188	1,385	75,275	3,5	1005,22	8,1	10	9,7	1	1	1	1	1	1	1	1	1	0	1	-26,145173	275,413603	300,085358	0
14.01.2021	18:08:33	0	0	4,970847	5,46675	106,7652	1,381	75,256	3,5	1005,38	8,1	10	9,7	1	1	1	1	1	1	1	1	1	0	1	-27,977449	275,37212	298,056578	0
14.01.2021	18:08:34	0	0	2,259476	5,68875	115,9596	1,38	75,256	3,5	1005,32	8,1	10	9,7	1	1	1	1	1	1	1	1	1	0	1	-29,739253	275,264043	295,783235	0
14.01.2021	18:08:35	0	0	2,259476	5,655	123,8148	1,378	75,264	3,5	1005,34	8,1	10	9,7	1	1	1	1	1	1	1	1	1	0	1	-32,346723	275,368932	293,67221	0
14.01.2021	18:08:36	0	0	3,728135	5,39175	104,7456	1,38	75,257	3,5	1005,4	8,1	10	9,7	1	1	1	1	1	1	1	1	1	0	1	-31,430585	275,260873	294,07691	0
14.01.2021	18:08:37	0	0	2,485438	5,50275	105,1272	1,387	75,255	3,5	1005,52	8,1	9,8	9,6	1	1	1	1	1	1	1	1	1	0	1	-28,188865	275,268798	297,356118	0
14.01.2021	18:08:38	0	0	2,372449	5,73375	101,9088	1,383	75,236	3,5	1005,5	8,1	10	9,7	1	1	1	1	1	1	1	1	1	0	1	-30,162086	275,305295	295,555583	0
14.01.2021	18:08:39	0	0	3,615161	5,64525	102,186	1,383	75,243	3,5	1005,48	8,1	10	9,7	1	1	1	1	1	1	1	1	1	0	1	-33,756166	275,429581	292,550079	0
14.01.2021	18:08:40	0	0	2,711371	5,67525	99,8928	1,38	75,225	3,5	1005,56	8,1	9,8	9,7	1	1	1	1	1	1	1	1	1	0	1	-28,470754	275,305295	297,246915	0
14.01.2021	18:08:41	0	0	4,744899	5,3655	95,1408	1,386	75,22	3,5	1005,38	8,1	10	9,7	1	1	1	1	1	1	1	1	1	0	1	-27,343199	275,254536	298,134319	0
14.01.2021	18:08:42	0	0	4,18003	5,18325	99,1332	1,377	75,208	3,5	1005,54	8,1	9,8	9,7	1	1	1	1	1	1	1	1	1	0	1	-30,584919	275,357781	295,381206	0
14.01.2021	18:08:43	0	0	2,711371	5,343	109,2276	1,374	75,223	3,5	1005,4	8,1	9,8	9,7	1	1	1	1	1	1	1	1	1	0	1	-34,108527	275,432778	292,21287	0
14.01.2021	18:08:44	0	0	4,857873	5,3265	104,0832	1,38	75,226	3,5	1005,4	8,1	9,8	9,7	1	1	1	1	1	1	1	1	1	0	1	-33,54475	275,329135	292,285753	0
14.01.2021	18:08:45	0	0	4,857873	5,394	97,326	1,387	75,222	3,5	1005,48	8,1	10	9,7	1	1	1	1	1	1	1	1	1	0	1	-28,893587	275,260873	296,613908	0
14.01.2021	18:08:46	0	0	4,744871	5,4345	98,7804	1,389	75,207	3,5	1005,48	8,1	9,8	9,8	1	1	1	1	1	1	1	1	1	0	1	-28,541226	275,432778	297,780171	0
14.01.2021	18:08:47	0	0	4,631925	5,4645	110,3508	1,385	75,198	3,5	1005,46	8,1	9,8	9,7	1	1	1	1	1	1	1	1	1	0	1	-30,232558	275,329135	295,597945	0
14.01.2021	18:08:48	0	0	2,372449	5,38575	112,3776	1,389	75,215	3,5	1005,46	8,1	10	9,7	1	1	1	1	1	1	1	1	1	0	1	-33,403805	275,435976	292,932746	0
14.01.2021	18:08:49	0	0	3,050274	5,27475	110,3688	1,376	75,203	3,5	1005,34	8,1	9,8	9,8	1	1	1	1	1	1	1	1	1	0	1	-28,752643	275,318006	297,025184	0
14.01.2021	18:08:50	0	0	2,485408	5,10675	109,2312	1,381	75,208	3,5	1005,48	8,1	9,8	9,8	1	1	1	1	1	1	1	1	1	0	1	-29,950669	275,435976	296,385882	0
14.01.2021	18:08:51	0	0	2,824345	4,78125	106,3116	1,381	75,21	3,5	1005,34	8	10	9,7	1	1	1	1	1	1	1	1	1	0	1	-27,766032	275,268798	297,778951	0
14.01.2021	18:08:52	0	0	4,292978	4,818	106,3656	1,378	75,199	3,5	1005,34	8,1	9,8	9,8	1	1	1	1	1	1	1	1	1	0	1	-31,92389	275,423188	294,35206	0
14.01.2021	18:08:53	0	0	3,27624	4,75875	113,7348	1,385	75,192	3,5	1005,36	8,1	9,8	9,7	1	1	1	1	1	1	1	1	1	0	1	-32,064834	275,264043	293,457654	0
14.01.2021	18:08:54	0	0	2,598397	5,064	109,602	1,386	75,187	3,5	1005,46	8,1	9,8	9,7	1	1	1	1	1	1	1	1	1	0	1	-33,051445	275,276727	292,531046	0
14.01.2021	18:08:55	0	0	4,970847	5,26875	108,8784	1,389	75,177	3,5	1005,44	8,1	9,8	9,7	1	1	1	1	1	1	1	1	1	0	1	-28,611698	275,427983	297,686972	0
14.01.2021	18:08:56	0	0	2,372449	5,52	109,998	1,386	75,175	3,5	1005,4	8,1	10	9,7	1	1	1	1	1	1	1	1	1	0	1	-32,205779	275,389659	293,911323	0
14.01.2021	18:08:57	0	0	2,259476	5,823	108,594	1,378	75,145	3,5	1005,34	8,1	10	9,7	1	1	1	1	1	1	1	1	1	0	1	-29,034531	275,291006	296,615518	0
14.01.2021	18:08:58	0	0	2,711371	5,97675	108,4896	1,387	75,145	3,5	1005,42	8,1	9,8	9,7	1	1	1	1	1	1	1	1	1	0	1	-31,148696	275,386469	294,953294	0
14.01.2021	18:08:59	0	0	3,050274	5,94975	105,8652	1,392	75,156	3,5	1005,54	8,1	9,8	9,8	1	1	1	1	1	1	1	1	1	0	1	-30,021142	275,245033	295,411433	0
14.01.2021	18:09:00	0	0	4,293004	5,466	111,078	1,386	75,132	3,5	1005,46	8,1	9,8	9,7	1	1	1	1	1	1	1	1	1	0	1	-28,752643	275,410408	297,462755	0
14.01.2021	18:09:01	0	0	2,485423	5,01225	121,302	1,38	75,118	3,5	1005,42	8,1	10	9,7	1	1	1	1	1	1	1	1	1	0	1	-33,615222	275,373713	292,426354	0
14.01.2021	18:09:02	0	0	2,485423	5,01225	121,302	1,38	75,118	3,5	1005,42	8,1	10	9,7	1	1	1	1	1	1	1	1	1	0	1	-33,615222	275,373713	292,426354	0
14.01.2021	18:09:03	0	0	4,744871	4,8225	121,2372	1,382	75,124	3,5	1005,48	8,1	10	9,8	1	1	1	1	1	1	1	1	1	0	1	-29,668781	275,451973	296,743591	0
14.01.2021	18:09:04	0	0	4,405978	4,65975	123,0912	1,383	75,115	3,5	1005,4	8,1	10	9,7	1	1	1	1	1	1	1	1	1	0	1	-33,262861	275,383279	292,824021	0
14.01.2021	18:09:05	0	0	4,631897	4,41375	122,004	1,391	75,103	3,5	1005,46	8,1	9,8	9,8	1	1	1	1	1	1	1	1	1	0	1	-33,333333	275,426384	292,957763	0
14.01.2021	18:09:06	0	0	3,389214	4,32675	121,2372	1,39	75,115	3,5	1005,46	8,1	10	9,7	1	1	1	1	1	1	1	1	1	0	1	-30,725863	275,365745	295,277978	0
14.01.2021	18:09:07	0	0	3,27624	4,4535	120,924	1,386	75,102	3,5	1005,36	8,1	10	9,7	1	1	1	1	1	1	1	1	1	0	1	-31,360113	275,254536	294,117405	0
14.01.2021	18:09:08	0	0	2,824328	4,833	128,664	1,391	75,098	3,5	1005,44	8,1	9,8	9,8	1	1	1	1	1	1	1	1	1	0	1	-28,118393	275,396041	298,02894	0
14.01.2021	18:09:09	0	0	2,598397	4,75725	121,2804	1,391	75,098	3,5	1005,56	8,1	9,8	9,7	1	1	1	1	1	1	1	1	1	0	1	-27,766032	275,396041	298,3813	0
14.01.2021	18:09:10	0	0	4,067032	4,704	120,5532	1,388	75,081	3,5	1005,3	8,1	10	9,8	1	1	1	1	1	1	1	1	1	0	1	-28,823115	275,267213	296,71437	0
14.01.2021	18:09:11	0	0	4,293004	4,75725	122,7276	1,391	75,091	3,5	1005,36	8,1	9,8	9,7	1	1	1	1	1	1	1	1	1	0	1	-31,994362	275,314828	293,76842	0
14.01.2021	18:09:12	0	0	2,711355	4,671	119,4408	1,388	75,084	3,5	1005,56	8,1	10	9,8	1	1	1	1	1	1	1	1	1	0	1	-31,501057	275,262458	294,013934	0
14.01.2021	18:09:13	0	0	3,050292	4,61925	112,2732	1,386	75,077	3,5	1005,48	8,1	10	9,7	1	1	1	1	1	1	1	1	1	0	1	-28,964059	275,300531	296,731064	0
14.01.2021	18:09:14	0	0	2,711371	4,51575	122,7384	1,391	75,068	3,5	1005,48	8,1	10	9,7	1	1	1	1	1	1	1	1	1	0	1	-31,148696	275,254536	294,328822	0
14.01.2021	18:09:15	0	0	4,180005	4,59225	118,7136	1,387	75,082	3,5	1005,52	8,1	9,8	9,8	1	1	1	1	1	1	1	1	1	0	1	-30,021142	275,29418	295,64393	0
14.01.2021	18:09:16	0	0	5,08379	4,95975	101,7972	1,393	75,074	3,5	1005,48	8,1	9,8	9,8	1	1	1	1	1	1	1	1	1	0	1	-32,487667	275,370526	293,538812	0
14.01.2021	18:09:17	0	0	2,937318	4,998	103,302	1,394	75,063	3,5	1005,44	8,1	10	9,7	1	1	1	1	1	1	1	1	1	0	1	-36,081748	275,240284	289,328365	0
14.01.2021	18:09:18	0	0	4,857873	5,0925	104,7096	1,389	75,063	3,5	1005,46	8,1	9,8	9,7	1	1	1	1	1	1	1	1	1	0	1	-31,148696	275,357781	294,817429	0
14.01.2021	18:09:19	0	0	4,067056	5,148	103,2984	1,39	75,061	3,5	1005,48	8,1	10	9,7	1	1	1	1	1	1	1	1	1	0	1	-30,725863	275,427983	295,572807	0
14.01.2021	18:09:20	0	0	3,502166	5,211	107,4132	1,387	75,052	3,5	1005,48	8,1	10	9,8	1	1	1	1	1	1	1	1	1	0	1	-32,9105	275,378496	293,153725	0
14.01.2021	18:09:21	0	0	3,954082	5,073	106,6968	1,377	75,047	3,5	1005,36	8,1	10	9,7	1	1	1	1	1	1	1	1	1	0	1	-32,9105	275,25612	292,574511	0
14.01.2021	18:09:22	0	0	2,372449	4,989	104,058	1,391	75,048	3,5	1005,52	8,1	9,8	9,7	1	1	1	1	1	1	1	1	1	0	1	-31,712474	275,388064	294,397072	0
14.01.2021	18:09:23	0	0	3,502166	5,00175	110,3652	1,393	75,049	3,5	1005,5	8,1	10	9,8	1	1	1	1	1	1	1	1	1	0	1	-31,430585	275,262458	294,084407	0
14.01.2021	18:09:24	0	0	2,937318	4,78575	108,1368	1,396	75,061	3,5	1005,32	8,1	9,8	9,7	1	1	1	1	1	1	1	1	1	0	1	-34,319944	275,43118	291,993877	0
14.01.2021	18:09:25	0	0	3,954082	4,53525	112,2804	1,384	75,056	3,5	1005,44	8,1	10	9,7	1	1	1	1	1	1	1	1	1	0	1	-31,642001	275,327545	294,180974	0
14.01.2021	18:09:26	0	0	4,405951	4,533	114,4656	1,39	75,038	3,5	1005,5	8,1	10	9,8	1	1	1	1	1	1	1	1	1	0	1	-29,950669	275,42159	296,317709	0
14.01.2021	18:09:27	0	0	3,389214	4,7385	102,9348	1,39	75,055	3,5	1005,34	8,1	10	9,7	1	1	1	1	1	1	1	1	1	0	1	-34,883721	275,351411	291,052245	0
14.01.2021	18:09:28	0	0	4,405951	4,869	105,1524	1,387	75,056	3,5	1005,5	8,1	9,8	9,8	1	1	1	1	1	1	1	1	1	0	1	-30,443975	275,249784	295,011068	0
14.01.2021	18:09:29	0	0	3,841086	4,95525	100,3788	1,385	75,057	3,5	1005,5	8,1	10	9,8	1	1	1	1	1	1	1	1	1	0	1	-35,095137	275,394446	291,044636	0
14.01.2021	18:09:30	0	0	2,937301	4,76775	92,2572	1,389	75,053	3,5	1005,6	8,1	9,8	9,8	1	1	1	1	1	1	1	1	1	0	1	-30,162086	275,321185	295,630787	0
14.01.2021	18:09:31	0	0	3,050274	4,63125	100,8468	1,388	75,072	3,5	1005,52	8,1	9,8	9,8	1	1	1	1	1	1	1	1	1	0	1	-33,897111	275,252952	291,572915	0
14.01.2021	18:09:32	0	0	3,502187	4,3515	102,1644	1,389	75,066	3,5	1005,52	8,1	9,8	9,7	1	1	1	1	1	1	1	1	1	0	1	-29,739253	275,332316	296,106307	0
14.01.2021	18:09:33	0	0	2,937318	3,7965	92,9592	1,386	75,062	3,5	1005,46	8,1	9,8	9,7	1	1	1	1	1	1	1	1	1	0	1	-32,205779	275,427983	294,092892	0
14.01.2021	18:09:34	0	0	3,050292	3,60375	93,3372	1,389	75,07	3,5	1005,42	8,1	10	9,7	1	1	1	1	1	1	1	1	1	0	1	-33,333333	275,332316	292,512227	0
14.01.2021	18:09:35	0	0	2,824345	3,41175	100,7568	1,388	75,081	3,5	1005,34	8,1	10	9,7	1	1	1	1	1	1	1	1	1	0	1	-34,460888	275,435976	291,875664	0
14.01.2021	18:09:36	0	0	3,728135	3,11175	75,24	1,387	75,074	3,5	1005,36	8,1	10	9,7	1	1	1	1	1	1	1	1	1	0	1	-32,840028	275,42159	293,428351	0
14.01.2021	18:09:37	0	0	3,389214	3,00525	109,9512	1,386	75,066	3,5	1005,32	8,1	9,8	9,7	1	1	1	1	1	1	1	1	1	0	1	-31,007752	275,356188	294,950832	0
14.01.2021	18:09:38	0	0	4,857844	3,25575	79,0452	1,39	75,098	3,5	1005,4	8,1	9,8	9,8	1	1	1	1	1	1	1	1	1	0	1	-34,460888	275,426384	291,830208	0
14.01.2021	18:09:39	0	0	3,050274	3,55725	86,292	1,386	75,08	3,5	1005,5	8,1	9,8	9,8	1	1	1	1	1	1	1	1	1	0	1	-29,739253	275,262458	295,775739	0
14.01.2021	18:09:40	0	0	2,937301	3,4005	87,7464	1,386	75,077	3,5	1005,24	8,1	9,8	9,8	1	1	1	1	1	1	1	1	1	0	1	-31,219168	275,37212	294,814859	0
14.01.2021	18:09:41	0	0	3,163266	3,20625	110,7036	1,386	75,092	3,5	1005,4	8,1	9,8	9,7	1	1	1	1	1	1	1	1	1	0	1	-28,893587	275,240284	296,516525	0
14.01.2021	18:09:42	0	0	3,954059	3,36675	111,4344	1,379	75,087	3,5	1005,22	8,1	9,8	9,8	1	1	1	1	1	1	1	1	1	0	1	-29,31642	275,297355	296,363675	0
14.01.2021	18:09:43	0	0	3,615161	3,15675	75,222	1,386	75,104	3,5	1005,28	8,1	10	9,7	1	1	1	1	1	1	1	1	1	0	1	-31,501057	275,267213	294,036427	0
14.01.2021	18:09:44	0	0	2,824345	3,13275	83,718	1,382	75,092	3,5	1005,44	8,1	10	9,7	1	1	1	1	1	1	1	1	1	0	1	-30,30303	275,368932	295,715902	0
14.01.2021	18:09:45	0	0	3,163266	3,32625	81,6084	1,384	75,089	3,5	1005,42	8,1	9,8	9,7	1	1	1	1	1	1	1	1	1	0	1	-37,561663	275,259289	287,938337	0
14.01.2021	18:09:46	0	0	4,970847	3,789	101,5308	1,389	75,106	3,5	1005,36	8,1	10	9,7	1	1	1	1	1	1	1	1	1	0	1	-32,135307	275,316417	293,634998	0
14.01.2021	18:09:47	0	0	2,711371	4,13475	104,0616	1,389	75,118	3,5	1005,5	8,1	9,8	9,7	1	1	1	1	1	1	1	1	1	0	1	-33,54475	275,238701	291,857877	0
14.01.2021	18:09:48	0	0	3,163266	4,54875	98,766	1,38	75,106	3,5	1005,24	8,1	9,8	9,7	1	1	1	1	1	1	1	1	1	0	1	-31,148696	275,357781	294,817429	0
14.01.2021	18:09:49	0	0	3,050292	4,66125	95,8464	1,387	75,115	3,5	1005,16	8,1	9,9	9,7	1	1	1	1	1	1	1	1	1	0	1	-29,739253	275,262458	295,775739	0
14.01.2021	18:09:50	0	0	2,598381	4,53375	108,8856	1,385	75,119	3,5	1005,4	8,1	10	9,8	1	1	1	1	1	1	1	1	1	0	1	-31,007752	275,270384	294,544732	0
14.01.2021	18:09:51	0	0	4,631925	4,53075	111,4236	1,379	75,115	3,5	1005,46	8,1	10	9,7	1	1	1	1	1	1	1	1	1	0	1	-32,205779	275,303707	293,504374	0
14.01.2021	18:09:52	0	0	3,389193	4,5105	104,4072	1,378	75,119	3,5	1005,34	8,1	10	9,8	1	1	1	1	1	1	1	1	1	0	1	-31,994362	275,424786	294,289161	0
14.01.2021	18:09:53	0	0	1,80757	4,6575	99,5904	1,378	75,13	3,5	1005,32	8,1	10	9,8	1	1	1	1	1	1	1	1	1	0	1	-29,175476	275,333906	296,677614	0
14.01.2021	18:09:54	0	0	2,598397	4,56825	107,4384	1,383	75,153	3,5	1005,42	8,1	9,8	9,7	1	1	1	1	1	1	1	1	1	0	1	-27,69556	275,23237	297,677131	0
14.01.2021	18:09:55	0	0	5,08379	4,50825	102,9348	1,379	75,157	3,5	1005,32	8,1	9,8	9,8	1	1	1	1	1	1	1	1	1	0	1	-31,007752	275,330725	294,830279	0
14.01.2021	18:09:56	0	0	3,27622	4,377	97,3224	1,38	75,163	3,5	1005,34	8,1	10	9,8	1	1	1	1	1	1	1	1	1	0	1	-33,121917	275,410408	293,093481	0
14.01.2021	18:09:57	0	0	4,067056	4,25625	93,7152	1,379	75,193	3,5	1005,3	8,1	9,8	9,7	1	1	1	1	1	1	1	1	1	0	1	-29,527837	275,386469	296,574154	0
14.01.2021	18:09:58	0	0	3,050274	4,13625	103,7052	1,385	75,197	3,5	1005,4	8,1	10	9,8	1	1	1	1	1	1	1	1	1	0	1	-32,205779	275,389659	293,911323	0
14.01.2021	18:09:59	0	0	4,970817	4,23225	106,6716	1,38	75,221	3,5	1005,64	8,1	9,8	9,8	1	1	1	1	1	1	1	1	1	0	1	-27,906977	275,245033	297,525598	0
14.01.2021	18:10:00	0	0	4,292978	4,449	97,7112	1,381	75,227	3,5	1005,36	8,1	9,9	9,8	1	1	1	1	1	1	1	1	1	0	1	-32,769556	275,260873	292,737939	0
14.01.2021	18:10:01	0	0	4,292978	4,449	97,7112	1,381	75,227	3,5	1005,36	8,1	9,9	9,8	1	1	1	1	1	1	1	1	1	0	1	-32,769556	275,260873	292,737939	0
14.01.2021	18:10:02	0	0	4,293004	4,485	99,9216	1,378	75,238	3,5	1005,4	8,1	10	9,7	1	1	1	1	1	1	1	1	1	0	1	-35,799859	275,384874	290,294577	0
14.01.2021	18:10:03	0	0	4,293004	4,68	104,0364	1,377	75,234	3,5	1005,3	8	9,8	9,7	1	1	1	1	1	1	1	1	1	0	1	-30,373502	275,324365	295,43442	0
14.01.2021	18:10:04	0	0	3,050274	4,74525	104,7816	1,382	75,242	3,5	1005,18	8,1	9,8	9,8	1	1	1	1	1	1	1	1	1	0	1	-28,541226	275,24345	296,88386	0
14.01.2021	18:10:05	0	0	3,615161	4,842	100,3464	1,375	75,242	3,5	1005,4	8,1	10	9,7	1	1	1	1	1	1	1	1	1	0	1	-32,276251	275,373713	293,765325	0
14.01.2021	18:10:06	0	0	2,824345	5,00175	119,0952	1,38	75,255	3,5	1005,46	8,1	9,8	9,7	1	1	1	1	1	1	1	1	1	0	1	-31,571529	275,410408	294,643868	0
14.01.2021	18:10:07	0	0	4,631925	5,39025	113,1012	1,374	75,249	3,5	1005,48	8,1	9,8	9,7	1	1	1	1	1	1	1	1	1	0	1	-32,699084	275,345044	293,206735	0
14.01.2021	18:10:08	0	0	2,485423	5,57325	110,0016	1,374	75,254	3,5	1005,56	8,1	9,8	9,7	1	1	1	1	1	1	1	1	1	0	1	-30,021142	275,264043	295,501347	0
14.01.2021	18:10:09	0	0	2,937318	5,325	113,3892	1,372	75,249	3,5	1005,42	8,1	9,8	9,7	1	1	1	1	1	1	1	1	1	0	1	-30,373502	275,2482	295,07405	0
14.01.2021	18:10:10	0	0	4,293004	5,01675	119,1204	1,376	75,262	3,5	1005,44	8,1	9,8	9,7	1	1	1	1	1	1	1	1	1	0	1	-30,021142	275,364152	295,975155	0
14.01.2021	18:10:11	0	0	4,067056	4,67325	102,5568	1,376	75,254	3,5	1005,48	8,1	10	9,7	1	1	1	1	1	1	1	1	1	0	1	-27,484144	275,233953	297,89603	0
14.01.2021	18:10:12	0	0	2,824345	4,53225	111,4236	1,37	75,228	3,5	1005,36	8,1	9,8	9,7	1	1	1	1	1	1	1	1	1	0	1	-26,568006	275,310061	299,172217	0
14.01.2021	18:10:13	0	0	3,728135	4,46625	95,634	1,38	75,241	3,5	1005,5	8,1	9,8	9,7	1	1	1	1	1	1	1	1	1	0	1	-32,840028	275,229206	292,517699	0
14.01.2021	18:10:14	0	0	3,841086	4,29075	96,1992	1,371	75,23	3,5	1005,26	8,1	10	9,8	1	1	1	1	1	1	1	1	1	0	1	-36,222692	275,370526	289,803788	0
14.01.2021	18:10:15	0	0	3,389214	4,22925	113,4468	1,378	75,252	3,5	1005,28	8,1	9,9	9,7	1	1	1	1	1	1	1	1	1	0	1	-33,051445	275,407215	293,148822	0
14.01.2021	18:10:16	0	0	4,518951	4,4865	110,61	1,378	75,264	3,5	1005,54	8,1	9,8	9,7	1	1	1	1	1	1	1	1	1	0	1	-29,386892	275,412005	296,836072	0
14.01.2021	18:10:17	0	0	3,389214	4,47	97,3188	1,373	75,249	3,5	1005,48	8,1	9,8	9,7	1	1	1	1	1	1	1	1	1	0	1	-26,990839	275,357781	298,975286	0
14.01.2021	18:10:18	0	0	4,293004	4,50675	85,5288	1,384	75,266	3,5	1005,46	8,1	9,8	9,7	1	1	1	1	1	1	1	1	1	0	1	-33,403805	275,429581	292,90244	0
14.01.2021	18:10:19	0	0	3,163266	5,58825	100,3608	1,376	75,272	3,5	1005,38	8,1	9,8	9,7	1	1	1	1	1	1	1	1	1	0	1	-31,92389	275,337088	293,944261	0
14.01.2021	18:10:20	0	0	4,293004	6,2805	89,7084	1,382	75,272	3,5	1005,4	8,1	9,8	9,7	1	1	1	1	1	1	1	1	1	0	1	-33,333333	275,427983	292,965337	0
14.01.2021	18:10:21	0	0	4,857873	6,102	86,9796	1,378	75,254	3,5	1005,38	8,1	9,8	9,7	1	1	1	1	1	1	1	1	1	0	1	-33,54475	275,289419	292,09779	0
14.01.2021	18:10:22	0	0	3,728135	5,9685	78,3072	1,377	75,271	3,5	1005,4	8,1	9,8	9,7	1	1	1	1	1	1	1	1	1	0	1	-30,584919	275,416797	295,660749	0
14.01.2021	18:10:23	0	0	4,857873	5,9595	85,8996	1,375	75,268	3,5	1005,3	8,1	9,8	9,7	1	1	1	1	1	1	1	1	1	0	1	-32,980973	275,276727	292,601518	0
14.01.2021	18:10:24	0	0	2,711371	5,994	95,4936	1,376	75,253	3,5	1005,5	8,1	9,8	9,7	1	1	1	1	1	1	1	1	1	0	1	-31,219168	275,268798	294,325815	0
14.01.2021	18:10:25	0	0	4,405951	5,64825	102,9528	1,38	75,266	3,5	1005,52	8,1	9,8	9,8	1	1	1	1	1	1	1	1	1	0	1	-29,527837	275,412005	296,695127	0
14.01.2021	18:10:26	0	0	3,615161	5,322	104,7348	1,381	75,269	3,5	1005,34	8,1	9,8	9,7	1	1	1	1	1	1	1	1	1	0	1	-35,51797	275,368932	290,500962	0
14.01.2021	18:10:27	0	0	4,518951	5,2635	101,5128	1,379	75,255	3,5	1005,44	8,1	9,8	9,7	1	1	1	1	1	1	1	1	1	0	1	-32,276251	275,412005	293,946713	0
14.01.2021	18:10:28	0	0	2,485423	5,07675	99,9	1,375	75,267	3,5	1005,48	8,1	10	9,7	1	1	1	1	1	1	1	1	1	0	1	-29,527837	275,246617	295,912227	0
14.01.2021	18:10:29	0	0	4,292978	5,12025	114,4764	1,379	75,253	3,5	1005,46	8,1	9,8	9,8	1	1	1	1	1	1	1	1	1	0	1	-30,866808	275,333906	294,986282	0
14.01.2021	18:10:30	0	0	4,857873	5,20575	96,606	1,38	75,245	3,5	1005,4	8,1	9,8	9,7	1	1	1	1	1	1	1	1	1	0	1	-33,474278	275,42159	292,794101	0
14.01.2021	18:10:31	0	0	2,937318	5,1525	121,986	1,373	75,244	3,5	1005,4	8,1	9,8	9,7	1	1	1	1	1	1	1	1	1	0	1	-31,360113	275,310061	294,38011	0
14.01.2021	18:10:32	0	0	3,954082	5,0235	126,5976	1,373	75,248	3,5	1005,5	8,1	9,8	9,7	1	1	1	1	1	1	1	1	1	0	1	-29,386892	275,442374	296,979979	0
14.01.2021	18:10:33	0	0	2,259476	4,89825	126,144	1,38	75,256	3,5	1005,42	8,1	9,8	9,7	1	1	1	1	1	1	1	1	1	0	1	-31,712474	275,308472	294,020231	0
14.01.2021	18:10:34	0	0	2,372449	4,98075	105,138	1,378	75,26	3,5	1005,4	8,1	9,8	9,7	1	1	1	1	1	1	1	1	1	0	1	-29,105004	275,273555	296,462482	0
14.01.2021	18:10:35	0	0	4,518951	4,533	100,7676	1,378	75,257	3,5	1005,54	8,1	10	9,7	1	1	1	1	1	1	1	1	1	0	1	-29,245948	275,437575	297,098183	0
14.01.2021	18:10:36	0	0	4,857873	4,11075	102,5604	1,375	75,265	3,5	1005,42	8,1	9,8	9,7	1	1	1	1	1	1	1	1	1	0	1	-29,245948	275,394446	296,893826	0
14.01.2021	18:10:37	0	0	3,163266	3,8925	118,6776	1,375	75,262	3,5	1005,36	8,1	9,8	9,7	1	1	1	1	1	1	1	1	1	0	1	-31,994362	275,308472	293,738342	0
14.01.2021	18:10:38	0	0	3,389214	3,678	113,4324	1,381	75,278	3,5	1005,42	8,1	9,8	9,7	1	1	1	1	1	1	1	1	1	0	1	-34,460888	275,458376	291,981833	0
14.01.2021	18:10:39	0	0	2,937318	3,582	107,4348	1,376	75,281	3,5	1005,48	8,1	9,8	9,7	1	1	1	1	1	1	1	1	1	0	1	-30,93728	275,332316	294,90828	0
14.01.2021	18:10:40	0	0	2,259476	3,492	107,7408	1,383	75,281	3,5	1005,44	8,1	9,8	9,7	1	1	1	1	1	1	1	1	1	0	1	-36,645525	275,262458	288,869466	0
14.01.2021	18:10:41	0	0	3,728113	3,62025	106,2828	1,379	75,255	3,5	1005,32	8,1	10	9,8	1	1	1	1	1	1	1	1	1	0	1	-33,262861	275,424786	293,020662	0
14.01.2021	18:10:42	0	0	3,615161	4,09875	108,576	1,383	75,267	3,5	1005,42	8,1	10	9,7	1	1	1	1	1	1	1	1	1	0	1	-29,739253	275,440774	296,620037	0
14.01.2021	18:10:43	0	0	3,615161	4,77075	95,8356	1,383	75,267	3,5	1005,38	8,1	9,8	9,7	1	1	1	1	1	1	1	1	1	0	1	-32,135307	275,407215	294,06496	0
14.01.2021	18:10:44	0	0	3,615161	5,15925	95,8284	1,403	75,259	3,5	1005,58	8,1	9,8	9,7	1	1	1	1	1	1	1	1	1	0	1	-33,192389	275,448773	293,204813	0
14.01.2021	18:10:45	0	0	2,824345	5,1345	119,0844	1,376	75,245	3,5	1005,4	8,1	9,8	9,7	1	1	1	1	1	1	1	1	1	0	1	-29,739253	275,337088	296,128898	0
14.01.2021	18:10:46	0	0	3,27624	4,896	112,3812	1,386	75,251	3,5	1005,44	8,1	10	9,7	1	1	1	1	1	1	1	1	1	0	1	-34,319944	275,273555	291,247542	0
14.01.2021	18:10:47	0	0	2,824345	4,4985	101,8008	1,376	75,237	3,5	1005,36	8,1	9,8	9,7	1	1	1	1	1	1	1	1	1	0	1	-31,92389	275,313239	293,831372	0
14.01.2021	18:10:48	0	0	4,405951	4,44075	121,266	1,378	75,231	3,5	1005,38	8,1	9,8	9,8	1	1	1	1	1	1	1	1	1	0	1	-33,333333	275,4152	292,904766	0
14.01.2021	18:10:49	0	0	3,27624	4,47	104,7204	1,377	75,216	3,5	1005,36	8	10	9,7	1	1	1	1	1	1	1	1	1	0	1	-29,598309	275,464781	296,874774	0
14.01.2021	18:10:50	0	0	4,518924	4,04175	104,0508	1,382	75,215	3,5	1005,48	8,1	9,8	9,8	1	1	1	1	1	1	1	1	1	0	1	-35,377026	275,329135	290,453477	0
14.01.2021	18:10:51	0	0	3,27624	3,76575	129,4056	1,378	75,203	3,5	1005,38	8,1	9,8	9,7	1	1	1	1	1	1	1	1	1	0	1	-29,245948	275,29418	296,419123	0
14.01.2021	18:10:52	0	0	4,744871	3,51675	108,4608	1,388	75,192	3,5	1005,48	8,1	9,8	9,8	1	1	1	1	1	1	1	1	1	0	1	-33,897111	275,416797	292,348557	0
14.01.2021	18:10:53	0	0	4,293004	3,70275	113,418	1,384	75,183	3,5	1005,58	8,1	9,8	9,7	1	1	1	1	1	1	1	1	1	0	1	-37,914024	275,297355	287,766072	0
14.01.2021	18:10:54	0	0	4,631925	3,80775	111,8124	1,388	75,164	3,5	1005,24	8,1	9,8	9,7	1	1	1	1	1	1	1	1	1	0	1	-32,769556	275,289419	292,872984	0
14.01.2021	18:10:55	0	0	3,389193	4,23375	117,3816	1,386	75,151	3,5	1005,38	8,1	10	9,8	1	1	1	1	1	1	1	1	1	0	1	-32,417195	275,337088	293,450956	0
14.01.2021	18:10:56	0	0	4,518951	4,908	118,6992	1,386	75,148	3,5	1005,52	8,1	9,8	9,7	1	1	1	1	1	1	1	1	1	0	1	-33,474278	275,273555	292,093208	0
14.01.2021	18:10:57	0	0	4,518951	5,31375	110,3508	1,38	75,129	3,5	1005,36	8,1	9,8	9,7	1	1	1	1	1	1	1	1	1	0	1	-29,809725	275,348227	296,111166	0
14.01.2021	18:10:58	0	0	3,615161	5,6445	108,8748	1,386	75,112	3,5	1005,42	8,1	10	9,7	1	1	1	1	1	1	1	1	1	0	1	-32,628612	275,279899	292,968887	0
14.01.2021	18:10:59	0	0	4,518924	5,8875	116,6508	1,389	75,084	3,5	1005,42	8,1	9,8	9,8	1	1	1	1	1	1	1	1	1	0	1	-28,541226	275,405618	297,651476	0
14.01.2021	18:11:00	0	0	3,163247	5,75175	119,4408	1,389	75,073	3,5	1005,56	8,1	9,8	9,8	1	1	1	1	1	1	1	1	1	0	1	-34,742777	275,453574	291,677181	0
14.01.2021	18:11:01	0	0	3,728135	5,484	122,7024	1,386	75,06	3,5	1005,5	8,1	10	9,7	1	1	1	1	1	1	1	1	1	0	1	-34,038055	275,397637	292,116838	0
14.01.2021	18:11:02	0	0	3,728135	5,484	122,7024	1,386	75,06	3,5	1005,5	8,1	10	9,7	1	1	1	1	1	1	1	1	1	0	1	-34,038055	275,397637	292,116838	0
14.01.2021	18:11:03	0	0	4,857873	5,349	125,388	1,389	75,056	3,5	1005,46	8,1	9,8	9,7	1	1	1	1	1	1	1	1	1	0	1	-33,262861	275,466382	293,217813	0
14.01.2021	18:11:04	0	0	3,163266	5,1375	126,918	1,397	75,043	3,5	1005,52	8,1	9,8	9,7	1	1	1	1	1	1	1	1	1	0	1	-27,131783	275,427983	299,166887	0
14.01.2021	18:11:05	0	0	2,259462	4,683	127,2276	1,393	75,04	3,5	1005,5	8,1	10	9,8	1	1	1	1	1	1	1	1	1	0	1	-30,373502	275,451973	296,038869	0
14.01.2021	18:11:06	0	0	4,518951	4,3995	91,8936	1,391	75,036	3,5	1005,54	8,1	9,8	9,7	1	1	1	1	1	1	1	1	1	0	1	-32,276251	275,412005	293,946713	0
14.01.2021	18:11:07	0	0	3,27622	4,54575	108,1476	1,385	75,036	3,5	1005,48	8,1	9,9	9,8	1	1	1	1	1	1	1	1	1	0	1	-32,628612	275,273555	292,938874	0
14.01.2021	18:11:08	0	0	4,18003	4,8675	118,332	1,391	75,028	3,5	1005,38	8,1	9,8	9,7	1	1	1	1	1	1	1	1	1	0	1	-31,007752	275,353003	294,935753	0
14.01.2021	18:11:09	0	0	3,389214	5,17725	119,4552	1,39	75,026	3,5	1005,48	8,1	10	9,7	1	1	1	1	1	1	1	1	1	0	1	-32,840028	275,440774	293,519262	0
14.01.2021	18:11:10	0	0	4,518924	5,55375	95,5296	1,388	75,024	3,5	1005,32	8,1	9,8	9,8	1	1	1	1	1	1	1	1	1	0	1	-30,373502	275,404022	295,811636	0
14.01.2021	18:11:11	0	0	2,146502	5,62275	78,6636	1,395	75,007	3,5	1005,36	8,1	9,8	9,7	1	1	1	1	1	1	1	1	1	0	1	-33,333333	275,443973	293,041119	0
14.01.2021	18:11:12	0	0	3,841109	5,58825	96,9696	1,39	74,995	3,5	1005,44	8,1	10	9,7	1	1	1	1	1	1	1	1	1	0	1	-32,9105	275,404022	293,274639	0
14.01.2021	18:11:13	0	0	3,728113	5,157	75,6	1,393	74,99	3,5	1005,46	8,1	10	9,8	1	1	1	1	1	1	1	1	1	0	1	-27,131783	275,281485	298,473221	0
14.01.2021	18:11:14	0	0	4,067056	4,854	82,3608	1,392	74,99	3,5	1005,32	8,1	10	9,7	1	1	1	1	1	1	1	1	1	0	1	-30,796335	275,443973	295,578117	0
14.01.2021	18:11:15	0	0	4,405978	4,49625	80,9028	1,392	74,983	3,5	1005,4	8,1	10	9,7	1	1	1	1	1	1	1	1	1	0	1	-34,53136	275,376902	291,525315	0
14.01.2021	18:11:16	0	0	2,598381	4,9485	95,1192	1,394	74,983	3,5	1005,52	8,1	10	9,8	1	1	1	1	1	1	1	1	1	0	1	-31,148696	275,278313	294,441298	0
14.01.2021	18:11:17	0	0	2,485423	5,1735	96,9912	1,392	74,964	3,5	1005,38	8,1	10	9,7	1	1	1	1	1	1	1	1	1	0	1	-32,135307	275,370526	293,891173	0
14.01.2021	18:11:18	0	0	2,485423	5,31375	98,4384	1,394	74,958	3,5	1005,48	8,1	10	9,7	1	1	1	1	1	1	1	1	1	0	1	-33,051445	275,286245	292,576079	0
14.01.2021	18:11:19	0	0	2,937318	5,106	106,6464	1,39	74,959	3,5	1005,36	8,1	10	9,7	1	1	1	1	1	1	1	1	1	0	1	-31,501057	275,313239	294,254205	0
14.01.2021	18:11:20	0	0	3,27622	4,71	101,502	1,397	74,961	3,5	1005,46	8,1	9,8	9,8	1	1	1	1	1	1	1	1	1	0	1	-29,598309	275,416797	296,647359	0
14.01.2021	18:11:21	0	0	3,841109	4,93875	104,04	1,398	74,974	3,5	1005,44	8,1	10	9,7	1	1	1	1	1	1	1	1	1	0	1	-28,118393	275,313239	297,636869	0
14.01.2021	18:11:22	0	0	4,18003	4,7205	95,8392	1,396	74,972	3,5	1005,42	8,1	10	9,7	1	1	1	1	1	1	1	1	1	0	1	-28,047921	275,298943	297,639688	0
14.01.2021	18:11:23	0	0	2,824328	4,485	105,1344	1,391	74,976	3,5	1005,36	8,1	10	9,8	1	1	1	1	1	1	1	1	1	0	1	-31,148696	275,260873	294,358799	0
14.01.2021	18:11:24	0	0	3,050292	4,44975	92,2644	1,394	74,992	3,5	1005,68	8,1	9,8	9,7	1	1	1	1	1	1	1	1	1	0	1	-32,064834	275,389659	294,052267	0
14.01.2021	18:11:25	0	0	2,598397	4,236	104,4288	1,395	74,965	3,5	1005,52	8,1	10	9,7	1	1	1	1	1	1	1	1	1	0	1	-33,262861	275,453574	293,157097	0
14.01.2021	18:11:26	0	0	3,615161	4,227	95,8608	1,399	74,962	3,5	1005,46	8,1	10	9,7	1	1	1	1	1	1	1	1	1	0	1	-33,333333	275,394446	292,80644	0
14.01.2021	18:11:27	0	0	2,824345	4,15275	93,0744	1,393	74,949	3,5	1005,36	8,1	10	9,7	1	1	1	1	1	1	1	1	1	0	1	-30,091614	275,267213	295,445871	0
14.01.2021	18:11:28	0	0	2,485423	4,0335	107,4168	1,389	74,937	3,5	1005,52	8,1	9,8	9,7	1	1	1	1	1	1	1	1	1	0	1	-31,994362	275,324365	293,81356	0
14.01.2021	18:11:29	0	0	3,27622	3,78525	113,3892	1,398	74,935	3,5	1005,32	8,1	9,8	9,8	1	1	1	1	1	1	1	1	1	0	1	-33,615222	275,275141	291,959766	0
14.01.2021	18:11:30	0	0	3,615161	3,89025	123,4584	1,4	74,942	3,5	1005,36	8,1	9,8	9,7	1	1	1	1	1	1	1	1	1	0	1	-36,293164	275,322775	289,507233	0
14.01.2021	18:11:31	0	0	2,937318	3,95475	113,4	1,396	74,956	3,5	1005,64	8,1	10	9,7	1	1	1	1	1	1	1	1	1	0	1	-33,897111	275,405618	292,295592	0
14.01.2021	18:11:32	0	0	3,954059	3,774	113,022	1,393	74,936	3,5	1005,38	8,1	9,8	9,8	1	1	1	1	1	1	1	1	1	0	1	-35,799859	275,455174	290,627686	0
14.01.2021	18:11:33	0	0	3,502187	3,465	99,9216	1,396	74,929	3,5	1005,42	8,1	9,8	9,7	1	1	1	1	1	1	1	1	1	0	1	-29,31642	275,359373	296,657247	0
14.01.2021	18:11:34	0	0	2,711371	3,45675	105,1272	1,395	74,935	3,5	1005,64	8,1	9,8	9,7	1	1	1	1	1	1	1	1	1	0	1	-35,236082	275,268798	290,308902	0
14.01.2021	18:11:35	0	0	3,841109	3,81225	113,3784	1,397	74,924	3,5	1005,4	8,1	10	9,7	1	1	1	1	1	1	1	1	1	0	1	-29,880197	275,321185	295,912676	0
14.01.2021	18:11:36	0	0	3,954082	4,28625	122,0256	1,394	74,923	3,5	1005,34	8,1	10	9,7	1	1	1	1	1	1	1	1	1	0	1	-29,31642	275,456775	297,118713	0
14.01.2021	18:11:37	0	0	3,050292	4,212	113,4108	1,397	74,906	3,5	1005,46	8,1	10	9,7	1	1	1	1	1	1	1	1	1	0	1	-26,990839	275,381685	299,088491	0
14.01.2021	18:11:38	0	0	3,502187	4,3725	106,6932	1,398	74,919	3,5	1005,42	8,1	9,8	9,7	1	1	1	1	1	1	1	1	1	0	1	-35,236082	275,268798	290,308902	0
14.01.2021	18:11:39	0	0	3,728135	4,5	111,8196	1,394	74,904	3,5	1005,52	8,1	9,8	9,7	1	1	1	1	1	1	1	1	1	0	1	-27,131783	275,408812	299,076049	0
14.01.2021	18:11:40	0	0	3,954082	4,8135	107,7444	1,396	74,915	3,5	1005,36	8,1	9,8	9,7	1	1	1	1	1	1	1	1	1	0	1	-34,954193	275,407215	291,246074	0
14.01.2021	18:11:41	0	0	4,405978	4,914	97,6752	1,397	74,908	3,5	1005,5	8,1	10	9,7	1	1	1	1	1	1	1	1	1	0	1	-31,148696	275,260873	294,358799	0
14.01.2021	18:11:42	0	0	2,598397	4,6485	105,1524	1,402	74,909	3,5	1005,5	8,1	10	9,7	1	1	1	1	1	1	1	1	1	0	1	-31,92389	275,292593	293,73367	0
14.01.2021	18:11:43	0	0	4,631925	4,64625	101,8044	1,396	74,89	3,5	1005,52	8,1	9,8	9,7	1	1	1	1	1	1	1	1	1	0	1	-32,769556	275,42159	293,498823	0
14.01.2021	18:11:44	0	0	2,485408	4,911	107,5356	1,394	74,882	3,5	1005,38	8,1	10	9,8	1	1	1	1	1	1	1	1	1	0	1	-30,866808	275,458376	295,575913	0
14.01.2021	18:11:45	0	0	4,744899	4,8675	110,6928	1,399	74,879	3,5	1005,58	8,1	10	9,7	1	1	1	1	1	1	1	1	1	0	1	-34,178999	275,419992	292,081808	0
14.01.2021	18:11:46	0	0	3,050292	4,6545	95,5296	1,398	74,863	3,5	1005,34	8,1	9,8	9,7	1	1	1	1	1	1	1	1	1	0	1	-35,306554	275,419992	290,954254	0
14.01.2021	18:11:47	0	0	3,954059	4,88775	106,2864	1,4	74,876	3,5	1005,44	8,1	9,8	9,8	1	1	1	1	1	1	1	1	1	0	1	-32,487667	275,435976	293,848885	0
14.01.2021	18:11:48	0	0	2,485423	4,821	108,8964	1,401	74,877	3,5	1005,42	8,1	9,8	9,7	1	1	1	1	1	1	1	1	1	0	1	-29,034531	275,373713	297,007044	0
14.01.2021	18:11:49	0	0	3,389214	4,7085	103,6188	1,403	74,871	3,5	1005,44	8,1	9,8	9,7	1	1	1	1	1	1	1	1	1	0	1	-27,554616	275,264043	297,967873	0
14.01.2021	18:11:50	0	0	4,857844	4,49775	104,7384	1,399	74,861	3,5	1005,32	8,1	9,8	9,8	1	1	1	1	1	1	1	1	1	0	1	-31,712474	275,34027	294,170742	0
14.01.2021	18:11:51	0	0	2,937301	4,2645	101,142	1,398	74,871	3,5	1005,7	8,1	10	9,8	1	1	1	1	1	1	1	1	1	0	1	-33,121917	275,245033	292,310657	0
14.01.2021	18:11:52	0	0	4,067056	4,0515	114,1164	1,393	74,872	3,5	1005,42	8,1	9,8	9,7	1	1	1	1	1	1	1	1	1	0	1	-28,611698	275,383279	297,475184	0
14.01.2021	18:11:53	0	0	3,728135	4,12575	109,5984	1,398	74,874	3,5	1005,44	8,1	9,8	9,7	1	1	1	1	1	1	1	1	1	0	1	-27,202255	275,432778	299,119142	0
14.01.2021	18:11:54	0	0	4,067081	4,158	108,4896	1,394	74,881	3,5	1005,46	8,1	9,8	9,6	1	1	1	1	1	1	1	1	1	0	1	-33,121917	275,337088	292,746235	0
14.01.2021	18:11:55	0	0	4,180005	4,11825	103,2876	1,399	74,877	3,5	1005,46	8,1	10	9,8	1	1	1	1	1	1	1	1	1	0	1	-31,501057	275,439175	294,850653	0
14.01.2021	18:11:56	0	0	4,857844	4,02525	99,9072	1,398	74,877	3,5	1005,46	8,1	10	9,8	1	1	1	1	1	1	1	1	1	0	1	-32,064834	275,396041	294,082498	0
14.01.2021	18:11:57	0	0	2,711371	4,00725	109,62	1,398	74,874	3,5	1005,52	8,1	10	9,7	1	1	1	1	1	1	1	1	1	0	1	-30,725863	275,423188	295,550087	0
14.01.2021	18:11:58	0	0	2,711355	3,93075	109,6164	1,397	74,884	3,5	1005,44	8,1	10	9,8	1	1	1	1	1	1	1	1	1	0	1	-33,685694	275,389659	292,431407	0
14.01.2021	18:11:59	0	0	4,293004	3,774	105,1272	1,392	74,894	3,5	1005,48	8,1	10	9,7	1	1	1	1	1	1	1	1	1	0	1	-31,007752	275,440774	295,351538	0
14.01.2021	18:12:00	0	0	2,937318	3,3795	95,5008	1,395	74,901	3,5	1005,44	8,1	10	9,7	1	1	1	1	1	1	1	1	1	0	1	-32,628612	275,427983	293,670059	0
14.01.2021	18:12:01	0	0	3,615161	3,456	92,2536	1,391	74,897	3,5	1005,4	8,1	10	9,7	1	1	1	1	1	1	1	1	1	0	1	-29,668781	275,319595	296,116568	0
14.01.2021	18:12:02	0	0	3,615161	3,456	92,2536	1,391	74,897	3,5	1005,4	8,1	10	9,7	1	1	1	1	1	1	1	1	1	0	1	-29,668781	275,319595	296,116568	0
14.01.2021	18:12:03	0	0	3,615139	3,444	94,3704	1,396	74,892	3,5	1005,42	8,1	10	9,8	1	1	1	1	1	1	1	1	1	0	1	-31,92389	275,424786	294,359633	0
14.01.2021	18:12:04	0	0	4,067056	3,7575	94,0572	1,393	74,894	3,5	1005,42	8,1	9,8	9,7	1	1	1	1	1	1	1	1	1	0	1	-29,527837	275,330725	296,310195	0
14.01.2021	18:12:05	0	0	3,389214	4,1055	100,3644	1,398	74,895	3,5	1005,62	8,1	9,8	9,7	1	1	1	1	1	1	1	1	1	0	1	-32,417195	275,246617	293,022868	0
14.01.2021	18:12:06	0	0	3,728135	4,08	94,0824	1,39	74,889	3,5	1005,2	8,1	10	9,7	1	1	1	1	1	1	1	1	1	0	1	-37,068358	275,389659	289,048743	0
14.01.2021	18:12:07	0	0	4,293004	4,1655	112,644	1,388	74,879	3,5	1005,38	8,1	9,8	9,7	1	1	1	1	1	1	1	1	1	0	1	-27,343199	275,384874	298,751236	0
14.01.2021	18:12:08	0	0	3,954082	3,9945	98,064	1,39	74,901	3,5	1005,46	8,1	9,8	9,7	1	1	1	1	1	1	1	1	1	0	1	-28,259338	275,281485	297,345666	0
14.01.2021	18:12:09	0	0	4,405978	4,173	105,1452	1,391	74,893	3,5	1005,48	8,1	9,8	9,7	1	1	1	1	1	1	1	1	1	0	1	-32,064834	275,286245	293,562689	0
14.01.2021	18:12:10	0	0	3,27624	4,3695	104,058	1,385	74,895	3,5	1005,44	8,1	9,8	9,7	1	1	1	1	1	1	1	1	1	0	1	-33,756166	275,279899	291,841332	0
14.01.2021	18:12:11	0	0	3,615161	4,659	100,7784	1,389	74,891	3,5	1005,4	8,1	10	9,7	1	1	1	1	1	1	1	1	1	0	1	-29,386892	275,316417	296,383412	0
14.01.2021	18:12:12	0	0	3,27624	4,4715	99,882	1,389	74,885	3,5	1005,4	8,1	10	9,7	1	1	1	1	1	1	1	1	1	0	1	-30,232558	275,302119	295,470079	0
14.01.2021	18:12:13	0	0	4,405978	4,5675	100,3752	1,39	74,905	3,5	1005,52	8,1	9,8	9,7	1	1	1	1	1	1	1	1	1	0	1	-33,121917	275,259289	292,378083	0
14.01.2021	18:12:14	0	0	4,518951	4,9005	104,7564	1,394	74,904	3,5	1005,46	8,1	10	9,7	1	1	1	1	1	1	1	1	1	0	1	-29,386892	275,435976	296,94966	0
14.01.2021	18:12:15	0	0	2,372449	5,0295	98,0748	1,391	74,91	3,5	1005,52	8,1	9,8	9,7	1	1	1	1	1	1	1	1	1	0	1	-31,92389	275,25612	293,561121	0
14.01.2021	18:12:16	0	0	2,598381	5,3385	112,23	1,389	74,91	3,5	1005,52	8,1	9,8	9,8	1	1	1	1	1	1	1	1	1	0	1	-31,571529	275,257704	293,920976	0
14.01.2021	18:12:17	0	0	2,711355	5,35275	114,4656	1,394	74,912	3,5	1005,48	8,1	9,8	9,8	1	1	1	1	1	1	1	1	1	0	1	-31,712474	275,308472	294,020231	0
14.01.2021	18:12:18	0	0	3,954082	5,553	99,5184	1,39	74,918	3,5	1005,36	8,1	9,8	9,7	1	1	1	1	1	1	1	1	1	0	1	-31,289641	275,271969	294,270344	0
14.01.2021	18:12:19	0	0	4,518951	5,79225	109,9692	1,389	74,923	3,5	1005,44	8,1	9,8	9,7	1	1	1	1	1	1	1	1	1	0	1	-28,400282	275,427983	297,898388	0
14.01.2021	18:12:20	0	0	5,08379	5,36175	116,6976	1,389	74,937	3,5	1005,52	8	9,8	9,8	1	1	1	1	1	1	1	1	1	0	1	-32,9105	275,348227	293,01039	0
14.01.2021	18:12:21	0	0	4,293004	4,9275	104,4612	1,386	74,951	3,5	1005,5	8,1	9,8	9,7	1	1	1	1	1	1	1	1	1	0	1	-31,642001	275,427983	294,656669	0
14.01.2021	18:12:22	0	0	4,518951	4,4385	97,3368	1,39	74,961	3,5	1005,36	8,1	10	9,7	1	1	1	1	1	1	1	1	1	0	1	-35,588443	275,37212	290,445585	0
14.01.2021	18:12:23	0	0	3,728135	4,30725	96,1956	1,394	74,957	3,5	1005,4	8,1	10	9,7	1	1	1	1	1	1	1	1	1	0	1	-30,30303	275,381685	295,776299	0
14.01.2021	18:12:24	0	0	2,711371	4,281	92,2608	1,387	74,979	3,5	1005,52	8,1	10	9,7	1	1	1	1	1	1	1	1	1	0	1	-31,92389	275,241867	293,493709	0
14.01.2021	18:12:25	0	0	3,615139	4,27125	90,774	1,386	74,979	3,5	1005,38	8,1	9,8	9,8	1	1	1	1	1	1	1	1	1	0	1	-31,219168	275,322775	294,581229	0
14.01.2021	18:12:26	0	0	3,163247	4,20075	96,2064	1,388	74,984	3,5	1005,42	8	10	9,8	1	1	1	1	1	1	1	1	1	0	1	-33,121917	275,426384	293,169179	0
14.01.2021	18:12:27	0	0	5,08382	4,23975	86,9976	1,385	74,996	3,5	1005,28	8,1	9,8	9,7	1	1	1	1	1	1	1	1	1	0	1	-29,809725	275,396041	296,337608	0
14.01.2021	18:12:28	0	0	2,711371	4,25325	92,2536	1,386	74,977	3,5	1005,34	8,1	10	9,7	1	1	1	1	1	1	1	1	1	0	1	-32,699084	275,241867	292,718515	0
14.01.2021	18:12:29	0	0	2,146489	4,40175	96,5808	1,386	74,999	3,5	1005,44	8,1	9,8	9,8	1	1	1	1	1	1	1	1	1	0	1	-31,782946	275,345044	294,122873	0
14.01.2021	18:12:30	0	0	4,067056	4,3095	115,2936	1,385	75,001	3,5	1005,52	8,1	10	9,7	1	1	1	1	1	1	1	1	1	0	1	-30,373502	275,413603	295,857029	0
14.01.2021	18:12:31	0	0	3,163247	4,152	102,9708	1,388	75,003	3,5	1005,5	8,1	9,8	9,8	1	1	1	1	1	1	1	1	1	0	1	-29,457364	275,437575	296,886766	0
14.01.2021	18:12:32	0	0	3,954059	4,0695	107,4312	1,385	75,002	3,5	1005,46	8,1	9,8	9,8	1	1	1	1	1	1	1	1	1	0	1	-33,54475	275,310061	292,195473	0
14.01.2021	18:12:33	0	0	4,631925	3,95925	120,5568	1,389	75,01	3,5	1005,44	8,1	10	9,7	1	1	1	1	1	1	1	1	1	0	1	-30,584919	275,416797	295,660749	0
14.01.2021	18:12:34	0	0	2,937318	3,8595	115,2072	1,394	75,012	3,5	1005,46	8,1	10	9,7	1	1	1	1	1	1	1	1	1	0	1	-32,628612	275,367339	293,382775	0
14.01.2021	18:12:35	0	0	2,937318	3,66	99,5148	1,389	75,012	3,5	1005,48	8,1	9,9	9,7	1	1	1	1	1	1	1	1	1	0	1	-34,178999	275,273555	291,388486	0
14.01.2021	18:12:36	0	0	4,518924	4,11675	102,5532	1,381	74,997	3,5	1005,54	8,1	10	9,8	1	1	1	1	1	1	1	1	1	0	1	-29,31642	275,25612	296,168591	0
14.01.2021	18:12:37	0	0	2,259462	4,45875	102,9672	1,385	75,012	3,5	1005,32	8,1	9,8	9,8	1	1	1	1	1	1	1	1	1	0	1	-32,417195	275,313239	293,338067	0
14.01.2021	18:12:38	0	0	3,615161	4,362	103,3056	1,384	75,008	3,5	1005,42	8,1	10	9,7	1	1	1	1	1	1	1	1	1	0	1	-32,346723	275,249784	293,10832	0
14.01.2021	18:12:39	0	0	2,485408	4,428	119,1024	1,382	75,011	3,5	1005,44	8,1	10	9,8	1	1	1	1	1	1	1	1	1	0	1	-30,30303	275,267213	295,234454	0
14.01.2021	18:12:40	0	0	4,518924	4,404	115,1964	1,388	75,031	3,5	1005,46	8,1	9,8	9,8	1	1	1	1	1	1	1	1	1	0	1	-27,69556	275,4152	298,542539	0
14.01.2021	18:12:41	0	0	4,744871	4,7235	105,9768	1,386	75,031	3,5	1005,34	8,1	10	9,8	1	1	1	1	1	1	1	1	1	0	1	-31,92389	275,389659	294,193211	0
14.01.2021	18:12:42	0	0	2,485408	5,34825	98,0856	1,38	75,054	3,5	1005,42	8,1	10	9,8	1	1	1	1	1	1	1	1	1	0	1	-32,487667	275,275141	293,08732	0
14.01.2021	18:12:43	0	0	3,27622	5,47575	98,7552	1,384	75,051	3,5	1005,38	8,1	10	9,8	1	1	1	1	1	1	1	1	1	0	1	-29,034531	275,276727	296,547959	0
14.01.2021	18:12:44	0	0	2,824328	5,50875	107,4276	1,385	75,057	3,5	1005,44	8,1	9,8	9,8	1	1	1	1	1	1	1	1	1	0	1	-28,752643	275,297355	296,927453	0
14.01.2021	18:12:45	0	0	3,050292	5,4375	112,2372	1,389	75,068	3,5	1005,5	8,1	10	9,7	1	1	1	1	1	1	1	1	1	0	1	-26,356589	275,279899	299,240909	0
14.01.2021	18:12:46	0	0	3,615139	5,097	95,2092	1,387	75,076	3,5	1005,4	8,1	9,8	9,8	1	1	1	1	1	1	1	1	1	0	1	-29,034531	275,381685	297,044798	0
14.01.2021	18:12:47	0	0	4,518951	4,61775	99,5436	1,382	75,073	3,5	1005,44	8,1	9,8	9,7	1	1	1	1	1	1	1	1	1	0	1	-32,417195	275,249784	293,037848	0
14.01.2021	18:12:48	0	0	2,598397	4,34925	104,4324	1,38	75,085	3,5	1005,52	8,1	9,8	9,7	1	1	1	1	1	1	1	1	1	0	1	-34,108527	275,360966	291,872682	0
14.01.2021	18:12:49	0	0	3,050274	4,374	105,8688	1,381	75,069	3,5	1005,38	8,1	9,8	9,8	1	1	1	1	1	1	1	1	1	0	1	-30,866808	275,245033	294,565767	0
14.01.2021	18:12:50	0	0	2,824345	4,578	105,5124	1,377	75,085	3,5	1005,3	8,1	9,8	9,7	1	1	1	1	1	1	1	1	1	0	1	-31,92389	275,365745	294,079951	0
14.01.2021	18:12:51	0	0	3,163266	4,3965	111,0708	1,384	75,098	3,5	1005,42	8,1	9,8	9,7	1	1	1	1	1	1	1	1	1	0	1	-32,769556	275,407215	293,430711	0
14.01.2021	18:12:52	0	0	2,824328	4,23675	105,1092	1,381	75,094	3,5	1005,24	8,1	9,8	9,8	1	1	1	1	1	1	1	1	1	0	1	-29,457364	275,338679	296,418319	0
14.01.2021	18:12:53	0	0	3,389214	4,38675	105,4908	1,378	75,081	3,5	1005,32	8	10	9,7	1	1	1	1	1	1	1	1	1	0	1	-30,021142	275,24345	295,403945	0
14.01.2021	18:12:54	0	0	3,502187	5,02125	113,022	1,38	75,092	3,5	1005,4	8,1	9,8	9,7	1	1	1	1	1	1	1	1	1	0	1	-31,289641	275,337088	294,578511	0
14.01.2021	18:12:55	0	0	2,598397	5,56875	109,5984	1,379	75,077	3,5	1005,46	8,1	10	9,7	1	1	1	1	1	1	1	1	1	0	1	-28,32981	275,23237	297,042881	0
14.01.2021	18:12:56	0	0	3,954082	5,48325	111,0492	1,384	75,084	3,5	1005,58	8,1	10	9,7	1	1	1	1	1	1	1	1	1	0	1	-28,893587	275,349819	297,034841	0
14.01.2021	18:12:57	0	0	4,631925	5,217	105,8688	1,384	75,096	3,5	1005,38	8,1	9,8	9,7	1	1	1	1	1	1	1	1	1	0	1	-30,866808	275,418395	295,38643	0
14.01.2021	18:12:58	0	0	4,970847	5,13225	108,8676	1,381	75,096	3,5	1005,3	8,1	9,8	9,7	1	1	1	1	1	1	1	1	1	0	1	-36,504581	275,353003	289,438924	0
14.01.2021	18:12:59	0	0	4,405951	5,193	111,4164	1,374	75,09	3,5	1005,4	8,1	9,8	9,8	1	1	1	1	1	1	1	1	1	0	1	-33,333333	275,416797	292,912335	0
14.01.2021	18:13:00	0	0	2,711355	5,037	102,2004	1,378	75,108	3,5	1005,22	8,1	10	9,8	1	1	1	1	1	1	1	1	1	0	1	-29,105004	275,246617	296,33506	0
14.01.2021	18:13:01	0	0	2,711355	5,037	102,2004	1,378	75,108	3,5	1005,22	8,1	10	9,8	1	1	1	1	1	1	1	1	1	0	1	-29,105004	275,246617	296,33506	0
14.01.2021	18:13:02	0	0	3,954082	5,01075	105,858	1,379	75,11	3,5	1005,34	8,1	9,9	9,7	1	1	1	1	1	1	1	1	1	0	1	-34,883721	275,375307	291,165404	0
14.01.2021	18:13:03	0	0	2,711371	4,926	98,4492	1,38	75,122	3,5	1005,44	8,1	10	9,7	1	1	1	1	1	1	1	1	1	0	1	-29,809725	275,408812	296,398106	0
14.01.2021	18:13:04	0	0	2,937301	4,80225	101,8224	1,382	75,126	3,5	1005,46	8,1	10	9,8	1	1	1	1	1	1	1	1	1	0	1	-33,54475	275,275141	292,030238	0
14.01.2021	18:13:05	0	0	3,389193	4,563	99,1296	1,378	75,116	3,5	1005,48	8,1	9,8	9,8	1	1	1	1	1	1	1	1	1	0	1	-30,30303	275,235535	295,084627	0
14.01.2021	18:13:06	0	0	2,146489	4,42275	106,2864	1,372	75,116	3,5	1005,46	8,1	9,9	9,8	1	1	1	1	1	1	1	1	1	0	1	-26,849894	275,424786	299,433629	0
14.01.2021	18:13:07	0	0	4,293004	4,24275	102,5964	1,381	75,129	3,5	1005,5	8	9,8	9,7	1	1	1	1	1	1	1	1	1	0	1	-28,752643	275,310061	296,98758	0
14.01.2021	18:13:08	0	0	3,389193	4,16175	106,2864	1,383	75,114	3,5	1005,42	8,1	9,9	9,8	1	1	1	1	1	1	1	1	1	0	1	-32,699084	275,375307	293,350041	0
14.01.2021	18:13:09	0	0	2,711355	4,19625	99,144	1,377	75,119	3,5	1005,48	8,1	9,8	9,8	1	1	1	1	1	1	1	1	1	0	1	-30,866808	275,267213	294,670677	0
14.01.2021	18:13:10	0	0	2,711355	4,536	92,9556	1,378	75,121	3,5	1005,56	8,1	10	9,8	1	1	1	1	1	1	1	1	1	0	1	-30,162086	275,349819	295,766342	0
14.01.2021	18:13:11	0	0	4,180005	5,12475	104,9256	1,38	75,119	3,5	1005,48	8,1	9,8	9,8	1	1	1	1	1	1	1	1	1	0	1	-28,400282	275,407215	297,799985	0
14.01.2021	18:13:12	0	0	2,146502	5,06175	92,7252	1,373	75,12	3,5	1005,52	8,1	9,8	9,7	1	1	1	1	1	1	1	1	1	0	1	-28,188865	275,37212	297,845162	0
14.01.2021	18:13:13	0	0	4,744871	5,03925	99,5148	1,375	75,137	3,5	1005,46	8,1	9,8	9,8	1	1	1	1	1	1	1	1	1	0	1	-34,108527	275,357781	291,857598	0
14.01.2021	18:13:14	0	0	4,405951	5,3715	96,5808	1,373	75,139	3,5	1005,3	8,1	10	9,8	1	1	1	1	1	1	1	1	1	0	1	-33,121917	275,227624	292,22833	0
14.01.2021	18:13:15	0	0	2,937318	5,96475	98,4492	1,375	75,125	3,5	1005,34	8,1	9,8	9,7	1	1	1	1	1	1	1	1	1	0	1	-33,826638	275,275141	291,748349	0
14.01.2021	18:13:16	0	0	3,615139	6,58575	95,49	1,381	75,141	3,5	1005,54	8,1	9,8	9,8	1	1	1	1	1	1	1	1	1	0	1	-31,148696	275,408812	295,059135	0
14.01.2021	18:13:17	0	0	3,502187	6,71025	97,6788	1,374	75,116	3,5	1005,5	8,1	9,8	9,7	1	1	1	1	1	1	1	1	1	0	1	-30,655391	275,287832	294,97964	0
14.01.2021	18:13:18	0	0	3,502187	6,4965	92,646	1,38	75,142	3,5	1005,38	8	9,9	9,7	1	1	1	1	1	1	1	1	1	0	1	-31,078224	275,257704	294,414281	0
14.01.2021	18:13:19	0	0	4,405951	6,54525	94,752	1,375	75,132	3,5	1005,36	8,1	9,8	9,8	1	1	1	1	1	1	1	1	1	0	1	-32,628612	275,362559	293,360141	0
14.01.2021	18:13:20	0	0	4,857844	6,5955	98,4672	1,379	75,141	3,5	1005,26	8	9,8	9,8	1	1	1	1	1	1	1	1	1	0	1	-30,866808	275,341861	295,023942	0
14.01.2021	18:13:21	0	0	3,615139	6,6135	96,5916	1,384	75,138	3,5	1005,56	8	10	9,8	1	1	1	1	1	1	1	1	1	0	1	-30,232558	275,394446	295,907216	0
14.01.2021	18:13:22	0	0	4,067032	6,33825	102,186	1,378	75,136	3,5	1005,48	8	9,8	9,8	1	1	1	1	1	1	1	1	1	0	1	-36,434109	275,345044	289,47171	0
14.01.2021	18:13:23	0	0	4,405978	6,25575	92,9772	1,378	75,157	3,5	1005,46	8,1	9,9	9,7	1	1	1	1	1	1	1	1	1	0	1	-31,994362	275,241867	293,423237	0
14.01.2021	18:13:24	0	0	3,389214	5,81025	102,1932	1,377	75,147	3,5	1005,36	8,1	9,8	9,7	1	1	1	1	1	1	1	1	1	0	1	-31,501057	275,240284	293,909055	0
14.01.2021	18:13:25	0	0	4,744871	6,00225	98,7588	1,378	75,162	3,5	1005,4	8,1	9,8	9,8	1	1	1	1	1	1	1	1	1	0	1	-34,390416	275,351411	291,54555	0
14.01.2021	18:13:26	0	0	3,27622	6,13575	86,6448	1,378	75,165	3,5	1005,42	8,1	10	9,8	1	1	1	1	1	1	1	1	1	0	1	-31,007752	275,408812	295,20008	0
14.01.2021	18:13:27	0	0	4,631925	6,32475	82,3248	1,378	75,165	3,5	1005,36	8	10	9,7	1	1	1	1	1	1	1	1	1	0	1	-31,007752	275,362559	294,981	0
14.01.2021	18:13:28	0	0	3,163266	6,60975	80,4996	1,373	75,161	3,5	1005,5	8,1	9,9	9,7	1	1	1	1	1	1	1	1	1	0	1	-31,642001	275,365745	294,36184	0
14.01.2021	18:13:29	0	0	3,954082	6,42825	82,3464	1,378	75,154	3,5	1005,4	8,1	10	9,7	1	1	1	1	1	1	1	1	1	0	1	-31,92389	275,221297	293,396442	0
14.01.2021	18:13:30	0	0	4,518951	6,57375	81,5868	1,381	75,163	3,5	1005,58	8,1	9,8	9,7	1	1	1	1	1	1	1	1	1	0	1	-30,373502	275,338679	295,502181	0
14.01.2021	18:13:31	0	0	2,824345	6,729	77,1984	1,381	75,17	3,5	1005,42	8,1	9,8	9,7	1	1	1	1	1	1	1	1	1	0	1	-28,400282	275,227624	296,949965	0
14.01.2021	18:13:32	0	0	4,18003	6,39225	95,1696	1,38	75,158	3,5	1005,44	8,1	10	9,7	1	1	1	1	1	1	1	1	1	0	1	-34,601832	275,37212	291,432195	0
14.01.2021	18:13:33	0	0	4,067056	6,4365	96,5808	1,375	75,167	3,5	1005,36	8	9,8	9,7	1	1	1	1	1	1	1	1	1	0	1	-35,940803	275,245033	289,491771	0
14.01.2021	18:13:34	0	0	4,857873	6,04125	102,96	1,376	75,17	3,5	1005,42	8	9,8	9,7	1	1	1	1	1	1	1	1	1	0	1	-32,064834	275,404022	294,120304	0
14.01.2021	18:13:35	0	0	3,163266	5,8035	103,698	1,377	75,153	3,5	1005,46	8	10	9,7	1	1	1	1	1	1	1	1	1	0	1	-29,668781	275,357781	296,297344	0
14.01.2021	18:13:36	0	0	2,937318	5,64975	103,2984	1,383	75,165	3,5	1005,6	8,1	10	9,7	1	1	1	1	1	1	1	1	1	0	1	-33,54475	275,221297	291,775582	0
14.01.2021	18:13:37	0	0	3,389214	5,466	110,0052	1,38	75,169	3,5	1005,28	8,1	9,8	9,7	1	1	1	1	1	1	1	1	1	0	1	-32,135307	275,343452	293,762977	0
14.01.2021	18:13:38	0	0	4,292978	5,04675	94,8024	1,38	75,161	3,5	1005,44	8,1	9,8	9,8	1	1	1	1	1	1	1	1	1	0	1	-32,346723	275,23237	293,025968	0
14.01.2021	18:13:39	0	0	3,27624	4,82775	101,1384	1,383	75,157	3,5	1005,44	8	9,8	9,7	1	1	1	1	1	1	1	1	1	0	1	-28,752643	275,306884	296,972544	0
14.01.2021	18:13:40	0	0	4,631925	4,4865	82,6128	1,376	75,148	3,5	1005,36	8	9,8	9,7	1	1	1	1	1	1	1	1	1	0	1	-31,712474	275,4152	294,525626	0
14.01.2021	18:13:41	0	0	2,824345	4,09125	94,788	1,387	75,146	3,5	1005,38	8,1	9,8	9,7	1	1	1	1	1	1	1	1	1	0	1	-28,541226	275,324365	297,266696	0
14.01.2021	18:13:42	0	0	3,27624	4,07475	105,1308	1,374	75,142	3,5	1005,42	8	9,8	9,7	1	1	1	1	1	1	1	1	1	0	1	-31,430585	275,42159	294,837794	0
14.01.2021	18:13:43	0	0	2,711371	5,21775	101,8296	1,378	75,132	3,5	1005,5	8,1	9,8	9,7	1	1	1	1	1	1	1	1	1	0	1	-29,598309	275,267213	295,939176	0
14.01.2021	18:13:44	0	0	3,615139	6,23025	98,0928	1,385	75,141	3,5	1005,52	8,1	9,8	9,8	1	1	1	1	1	1	1	1	1	0	1	-33,333333	275,383279	292,753549	0
14.01.2021	18:13:45	0	0	2,372449	6,303	91,1772	1,385	75,133	3,5	1005,38	8	9,8	9,7	1	1	1	1	1	1	1	1	1	0	1	-31,430585	275,238701	293,972042	0
14.01.2021	18:13:46	0	0	4,18003	5,94825	83,7288	1,38	75,134	3,5	1005,42	8,1	9,9	9,7	1	1	1	1	1	1	1	1	1	0	1	-31,712474	275,359373	294,261193	0
14.01.2021	18:13:47	0	0	4,18003	5,87475	99,1512	1,38	75,124	3,5	1005,46	8,1	9,8	9,7	1	1	1	1	1	1	1	1	1	0	1	-33,685694	275,2482	291,761858	0
14.01.2021	18:13:48	0	0	3,615161	5,78475	94,1076	1,383	75,118	3,5	1005,3	8,1	9,8	9,7	1	1	1	1	1	1	1	1	1	0	1	-35,306554	275,262458	290,208438	0
14.01.2021	18:13:49	0	0	2,711371	6,04275	104,0436	1,387	75,125	3,5	1005,26	8,1	9,8	9,7	1	1	1	1	1	1	1	1	1	0	1	-28,752643	275,402425	297,424933	0
14.01.2021	18:13:50	0	0	3,163266	5,66325	96,2316	1,379	75,111	3,5	1005,52	8,1	9,8	9,7	1	1	1	1	1	1	1	1	1	0	1	-31,712474	275,383279	294,374409	0
14.01.2021	18:13:51	0	0	3,841086	5,463	104,0328	1,387	75,119	3,5	1005,46	8,1	10	9,8	1	1	1	1	1	1	1	1	1	0	1	-30,162086	275,367339	295,8493	0
14.01.2021	18:13:52	0	0	4,631925	5,4975	107,0496	1,389	75,126	3,5	1005,5	8,1	9,9	9,7	1	1	1	1	1	1	1	1	1	0	1	-29,880197	275,400829	296,289817	0
14.01.2021	18:13:53	0	0	2,485408	5,25	98,7444	1,384	75,122	3,5	1005,56	8,1	9,9	9,8	1	1	1	1	1	1	1	1	1	0	1	-31,571529	275,281485	294,033474	0
14.01.2021	18:13:54	0	0	3,050292	4,98525	106,668	1,381	75,122	3,5	1005,46	8,1	9,9	9,7	1	1	1	1	1	1	1	1	1	0	1	-30,373502	275,42159	295,894876	0
14.01.2021	18:13:55	0	0	2,937318	4,60875	131,382	1,382	75,126	3,5	1005,44	8	9,8	9,7	1	1	1	1	1	1	1	1	1	0	1	-30,373502	275,259289	295,126497	0
14.01.2021	18:13:56	0	0	3,728135	4,1925	98,7768	1,382	75,13	3,5	1005,4	8,1	10	9,7	1	1	1	1	1	1	1	1	1	0	1	-29,31642	275,335497	296,5442	0
14.01.2021	18:13:57	0	0	4,067056	4,21875	101,8188	1,383	75,114	3,5	1005,52	8,1	9,8	9,7	1	1	1	1	1	1	1	1	1	0	1	-30,725863	275,408812	295,481968	0
14.01.2021	18:13:58	0	0	3,841109	4,23075	97,7112	1,387	75,116	3,5	1005,4	8,1	9,8	9,7	1	1	1	1	1	1	1	1	1	0	1	-27,061311	275,267213	298,476174	0
14.01.2021	18:13:59	0	0	4,18003	4,0635	94,4064	1,383	75,131	3,5	1005,52	8,1	9,8	9,7	1	1	1	1	1	1	1	1	1	0	1	-33,051445	275,378496	293,012781	0
14.01.2021	18:14:00	0	0	2,598397	3,6105	117,018	1,378	75,121	3,5	1005,34	8	9,9	9,7	1	1	1	1	1	1	1	1	1	0	1	-31,360113	275,260873	294,147383	0
14.01.2021	18:14:01	0	0	4,744899	3,57075	115,2216	1,383	75,134	3,5	1005,46	8,1	10	9,7	1	1	1	1	1	1	1	1	1	0	1	-31,92389	275,38009	294,147887	0
14.01.2021	18:14:02	0	0	4,744899	3,57075	115,2216	1,383	75,134	3,5	1005,46	8,1	10	9,7	1	1	1	1	1	1	1	1	1	0	1	-31,92389	275,38009	294,147887	0
14.01.2021	18:14:03	0	0	3,728135	3,94425	107,442	1,386	75,133	3,5	1005,44	8,1	9,9	9,7	1	1	1	1	1	1	1	1	1	0	1	-32,628612	275,252952	292,841414	0
14.01.2021	18:14:04	0	0	2,937318	4,5315	110,3616	1,381	75,133	3,5	1005,48	8,1	9,8	9,7	1	1	1	1	1	1	1	1	1	0	1	-29,105004	275,405618	297,087699	0
14.01.2021	18:14:05	0	0	3,163266	5,06625	96,2424	1,382	75,139	3,5	1005,48	8,1	9,9	9,7	1	1	1	1	1	1	1	1	1	0	1	-35,306554	275,364152	290,689742	0
14.01.2021	18:14:06	0	0	2,824345	4,9755	96,9732	1,394	75,131	3,5	1005,3	8,1	9,8	9,7	1	1	1	1	1	1	1	1	1	0	1	-28,188865	275,273555	297,37862	0
14.01.2021	18:14:07	0	0	4,631925	5,0655	87,7356	1,379	75,133	3,5	1005,4	8,1	9,9	9,7	1	1	1	1	1	1	1	1	1	0	1	-32,346723	275,233953	293,033451	0
14.01.2021	18:14:08	0	0	3,050292	4,8945	100,3572	1,392	75,134	3,5	1005,44	8,1	9,9	9,7	1	1	1	1	1	1	1	1	1	0	1	-31,078224	275,34027	294,804992	0
14.01.2021	18:14:09	0	0	3,728135	5,0775	96,5988	1,38	75,129	3,5	1005,28	8,1	9,9	9,7	1	1	1	1	1	1	1	1	1	0	1	-32,628612	275,405618	293,564091	0
14.01.2021	18:14:10	0	0	4,744899	5,2755	93,708	1,375	75,127	3,5	1005,4	8	9,9	9,7	1	1	1	1	1	1	1	1	1	0	1	-32,346723	275,373713	293,694853	0
14.01.2021	18:14:11	0	0	4,518924	5,2365	92,9448	1,382	75,129	3,5	1005,34	8,1	9,8	9,8	1	1	1	1	1	1	1	1	1	0	1	-30,30303	275,337088	295,565121	0
14.01.2021	18:14:12	0	0	4,405978	5,08125	102,5856	1,379	75,131	3,5	1005,34	8	10	9,7	1	1	1	1	1	1	1	1	1	0	1	-31,360113	275,229206	293,997615	0
14.01.2021	18:14:13	0	0	4,292978	4,86225	111,1428	1,378	75,14	3,5	1005,52	8,1	10	9,8	1	1	1	1	1	1	1	1	1	0	1	-31,92389	275,356188	294,034694	0
14.01.2021	18:14:14	0	0	4,293004	4,875	95,526	1,38	75,124	3,5	1005,5	8,1	9,8	9,7	1	1	1	1	1	1	1	1	1	0	1	-33,756166	275,396041	292,391166	0
14.01.2021	18:14:15	0	0	4,405978	5,02875	90,7848	1,381	75,146	3,5	1005,32	8	9,8	9,7	1	1	1	1	1	1	1	1	1	0	1	-33,615222	275,360966	292,365987	0
14.01.2021	18:14:16	0	0	3,954082	5,1105	92,2716	1,386	75,14	3,5	1005,42	8	10	9,7	1	1	1	1	1	1	1	1	1	0	1	-28,047921	275,391255	298,076737	0
14.01.2021	18:14:17	0	0	3,163266	5,11725	88,2252	1,383	75,162	3,5	1005,44	8,1	9,8	9,7	1	1	1	1	1	1	1	1	1	0	1	-32,205779	275,34027	293,677437	0
14.01.2021	18:14:18	0	0	2,598397	4,98375	91,1592	1,387	75,159	3,5	1005,46	8,1	9,8	9,7	1	1	1	1	1	1	1	1	1	0	1	-31,289641	275,357781	294,676484	0
14.01.2021	18:14:19	0	0	3,389214	5,05275	97,3044	1,379	75,165	3,5	1005,44	8	10	9,7	1	1	1	1	1	1	1	1	1	0	1	-31,148696	275,219715	294,164158	0
14.01.2021	18:14:20	0	0	2,711371	4,90875	90,414	1,385	75,168	3,5	1005,56	8	9,8	9,7	1	1	1	1	1	1	1	1	1	0	1	-28,893587	275,324365	296,914336	0
14.01.2021	18:14:21	0	0	2,937318	4,698	90,4248	1,38	75,172	3,5	1005,5	8,1	9,9	9,7	1	1	1	1	1	1	1	1	1	0	1	-32,628612	275,245033	292,803963	0
14.01.2021	18:14:22	0	0	4,293004	4,48125	105,12	1,378	75,184	3,5	1005,52	8,1	9,9	9,7	1	1	1	1	1	1	1	1	1	0	1	-28,400282	275,424786	297,883241	0
14.01.2021	18:14:23	0	0	3,163266	4,122	90,7848	1,38	75,175	3,5	1005,52	8	9,8	9,7	1	1	1	1	1	1	1	1	1	0	1	-33,826638	275,335497	292,033982	0
14.01.2021	18:14:24	0	0	4,518951	3,91725	106,812	1,381	75,182	3,5	1005,42	8,1	9,8	9,7	1	1	1	1	1	1	1	1	1	0	1	-32,205779	275,226042	293,136988	0
14.01.2021	18:14:25	0	0	4,857873	3,8355	100,3572	1,378	75,188	3,5	1005,6	8,1	10	9,7	1	1	1	1	1	1	1	1	1	0	1	-32,135307	275,322775	293,665091	0
14.01.2021	18:14:26	0	0	2,485423	3,65925	94,3884	1,384	75,192	3,5	1005,52	8,1	9,9	9,7	1	1	1	1	1	1	1	1	1	0	1	-32,135307	275,240284	293,274806	0
14.01.2021	18:14:27	0	0	2,485423	3,63375	90,0036	1,382	75,19	3,5	1005,52	8	9,8	9,7	1	1	1	1	1	1	1	1	1	0	1	-31,782946	275,287832	293,852086	0
14.01.2021	18:14:28	0	0	4,067032	3,699	99,1656	1,383	75,203	3,5	1005,5	8,1	9,8	9,8	1	1	1	1	1	1	1	1	1	0	1	-29,527837	275,218134	295,777542	0
14.01.2021	18:14:29	0	0	3,389214	3,801	94,3956	1,382	75,191	3,5	1005,26	8	9,8	9,7	1	1	1	1	1	1	1	1	1	0	1	-29,950669	275,238701	295,451957	0
14.01.2021	18:14:30	0	0	4,067056	3,8295	93,3228	1,382	75,202	3,5	1005,54	8,1	9,8	9,7	1	1	1	1	1	1	1	1	1	0	1	-30,443975	275,329135	295,386528	0
14.01.2021	18:14:31	0	0	4,293004	3,9645	111,816	1,384	75,2	3,5	1005,54	8	9,8	9,7	1	1	1	1	1	1	1	1	1	0	1	-30,93728	275,230788	294,427929	0
14.01.2021	18:14:32	0	0	3,728135	4,1295	99,5472	1,38	75,18	3,5	1005,44	8,1	9,9	9,7	1	1	1	1	1	1	1	1	1	0	1	-35,799859	275,332316	290,045701	0
14.01.2021	18:14:33	0	0	4,18003	4,221	101,5236	1,381	75,174	3,5	1005,48	8,1	9,8	9,7	1	1	1	1	1	1	1	1	1	0	1	-30,091614	275,233953	295,28856	0
14.01.2021	18:14:34	0	0	5,08382	3,96375	104,0724	1,378	75,191	3,5	1005,54	8,1	9,9	9,7	1	1	1	1	1	1	1	1	1	0	1	-35,306554	275,291006	290,343496	0
14.01.2021	18:14:35	0	0	3,050292	3,63	114,8724	1,383	75,193	3,5	1005,36	8	9,8	9,7	1	1	1	1	1	1	1	1	1	0	1	-30,584919	275,413603	295,645612	0
14.01.2021	18:14:36	0	0	2,824345	3,31125	104,0508	1,382	75,19	3,5	1005,44	8	10	9,7	1	1	1	1	1	1	1	1	1	0	1	-27,131783	275,267213	298,405702	0
14.01.2021	18:14:37	0	0	4,067056	3,2295	96,966	1,38	75,194	3,5	1005,36	8	9,9	9,7	1	1	1	1	1	1	1	1	1	0	1	-31,782946	275,240284	293,627167	0
14.01.2021	18:14:38	0	0	4,631925	3,26475	107,4384	1,381	75,183	3,5	1005,5	8,1	9,8	9,7	1	1	1	1	1	1	1	1	1	0	1	-30,021142	275,257704	295,471364	0
14.01.2021	18:14:39	0	0	3,954082	3,1995	106,6788	1,383	75,184	3,5	1005,38	8,1	9,8	9,7	1	1	1	1	1	1	1	1	1	0	1	-30,514447	275,353003	295,429058	0
14.01.2021	18:14:40	0	0	3,502187	3,123	95,5116	1,383	75,192	3,5	1005,54	8	9,9	9,7	1	1	1	1	1	1	1	1	1	0	1	-32,699084	275,397637	293,455809	0
14.01.2021	18:14:41	0	0	2,824345	3,03525	95,5188	1,381	75,173	3,5	1005,44	8	9,9	9,7	1	1	1	1	1	1	1	1	1	0	1	-29,31642	275,314828	296,446363	0
14.01.2021	18:14:42	0	0	4,518924	2,913	91,89	1,384	75,195	3,5	1005,4	8	9,8	9,8	1	1	1	1	1	1	1	1	1	0	1	-32,9105	275,208649	292,350036	0
14.01.2021	18:14:43	0	0	4,18003	3,1245	104,0508	1,383	75,177	3,5	1005,44	8,1	9,9	9,7	1	1	1	1	1	1	1	1	1	0	1	-35,095137	275,289419	290,547403	0
14.01.2021	18:14:44	0	0	3,050292	3,04425	102,5712	1,378	75,178	3,5	1005,46	8	9,8	9,7	1	1	1	1	1	1	1	1	1	0	1	-32,135307	275,227624	293,21494	0
14.01.2021	18:14:45	0	0	4,067032	2,979	101,7756	1,377	75,161	3,5	1005,4	8	9,8	9,8	1	1	1	1	1	1	1	1	1	0	1	-31,430585	275,316417	294,339719	0
14.01.2021	18:14:46	0	0	2,937318	3,22125	104,4504	1,386	75,177	3,5	1005,56	8,1	9,9	9,7	1	1	1	1	1	1	1	1	1	0	1	-32,55814	275,233953	292,822034	0
14.01.2021	18:14:47	0	0	3,050292	3,30525	95,8392	1,381	75,167	3,5	1005,44	8	9,8	9,7	1	1	1	1	1	1	1	1	1	0	1	-28,400282	275,325954	297,415167	0
14.01.2021	18:14:48	0	0	2,711371	3,5625	91,2528	1,376	75,165	3,5	1005,44	8,1	9,9	9,7	1	1	1	1	1	1	1	1	1	0	1	-28,752643	275,402425	297,424933	0
14.01.2021	18:14:49	0	0	2,598397	3,76725	107,0928	1,382	75,159	3,5	1005,42	8	9,8	9,7	1	1	1	1	1	1	1	1	1	0	1	-29,880197	275,289419	295,762343	0
14.01.2021	18:14:50	0	0	2,598397	3,67125	106,6968	1,379	75,16	3,5	1005,44	8	9,8	9,7	1	1	1	1	1	1	1	1	1	0	1	-31,219168	275,397637	294,935724	0
14.01.2021	18:14:51	0	0	4,744899	3,762	108,5112	1,377	75,147	3,5	1005,62	8	9,8	9,7	1	1	1	1	1	1	1	1	1	0	1	-30,725863	275,356188	295,232721	0
14.01.2021	18:14:52	0	0	2,824345	3,88725	107,0712	1,381	75,154	3,5	1005,46	8	9,9	9,7	1	1	1	1	1	1	1	1	1	0	1	-29,245948	275,240284	296,164165	0
14.01.2021	18:14:53	0	0	3,050292	3,6615	96,2064	1,375	75,151	3,5	1005,42	8,1	9,9	9,7	1	1	1	1	1	1	1	1	1	0	1	-30,091614	275,416797	296,154054	0
14.01.2021	18:14:54	0	0	3,615161	3,8355	121,9932	1,382	75,146	3,5	1005,36	8,1	9,8	9,7	1	1	1	1	1	1	1	1	1	0	1	-27,554616	275,306884	298,17057	0
14.01.2021	18:14:55	0	0	3,841109	3,918	115,9596	1,381	75,142	3,5	1005,42	8	9,9	9,7	1	1	1	1	1	1	1	1	1	0	1	-31,782946	275,205489	293,46265	0
14.01.2021	18:14:56	0	0	3,954082	3,85875	116,6328	1,379	75,136	3,5	1005,46	8	9,8	9,7	1	1	1	1	1	1	1	1	1	0	1	-32,628612	275,226042	292,714155	0
14.01.2021	18:14:57	0	0	4,631925	4,0095	119,772	1,375	75,146	3,5	1005,48	8	9,9	9,7	1	1	1	1	1	1	1	1	1	0	1	-31,219168	275,324365	294,588754	0
14.01.2021	18:14:58	0	0	4,293004	4,176	109,6092	1,377	75,162	3,5	1005,54	8	10	9,7	1	1	1	1	1	1	1	1	1	0	1	-27,766032	275,391255	298,358626	0
14.01.2021	18:14:59	0	0	3,050292	4,05525	127,242	1,38	75,167	3,5	1005,14	8,1	9,9	9,7	1	1	1	1	1	1	1	1	1	0	1	-28,893587	275,325954	296,921862	0
14.01.2021	18:15:00	0	0	2,372449	5,17725	117,8208	1,382	75,176	3,5	1005,46	8	9,8	9,7	1	1	1	1	1	1	1	1	1	0	1	-28,541226	275,360966	297,439983	0
14.01.2021	18:15:01	0	0	3,502187	6,2625	119,0844	1,38	75,165	3,5	1005,48	8	9,9	9,7	1	1	1	1	1	1	1	1	1	0	1	-33,685694	275,252952	291,784331	0
14.01.2021	18:15:02	0	0	3,502187	6,2625	119,0844	1,38	75,165	3,5	1005,48	8	9,9	9,7	1	1	1	1	1	1	1	1	1	0	1	-33,685694	275,252952	291,784331	0
14.01.2021	18:15:03	0	0	2,824345	6,822	107,4168	1,381	75,157	3,5	1005,42	8	9,9	9,7	1	1	1	1	1	1	1	1	1	0	1	-28,400282	275,219715	296,912573	0
14.01.2021	18:15:04	0	0	3,050292	6,59625	100,3464	1,379	75,16	3,5	1005,58	8	9,8	9,7	1	1	1	1	1	1	1	1	1	0	1	-34,390416	275,298943	291,297193	0
14.01.2021	18:15:05	0	0	2,485423	6,29775	116,3628	1,379	75,155	3,5	1005,38	8	9,9	9,7	1	1	1	1	1	1	1	1	1	0	1	-29,880197	275,383279	296,206685	0
14.01.2021	18:15:06	0	0	4,292978	5,8845	111,7836	1,378	75,163	3,5	1005,34	8	9,9	9,8	1	1	1	1	1	1	1	1	1	0	1	-28,823115	275,384874	297,271321	0
14.01.2021	18:15:07	0	0	2,937318	5,7375	102,942	1,37	75,156	3,5	1005,4	8	9,9	9,7	1	1	1	1	1	1	1	1	1	0	1	-32,064834	275,310061	293,675388	0
14.01.2021	18:15:08	0	0	4,293004	6,01875	102,9708	1,376	75,178	3,5	1005,38	8	9,9	9,7	1	1	1	1	1	1	1	1	1	0	1	-32,980973	275,214972	292,309456	0
14.01.2021	18:15:09	0	0	2,598397	6,05175	107,8236	1,383	75,188	3,5	1005,46	8	9,9	9,7	1	1	1	1	1	1	1	1	1	0	1	-34,601832	275,235535	290,785825	0
14.01.2021	18:15:10	0	0	2,824345	6,2535	109,998	1,384	75,202	3,5	1005,32	8	9,9	9,7	1	1	1	1	1	1	1	1	1	0	1	-31,853418	275,346636	294,059936	0
14.01.2021	18:15:11	0	0	3,163266	6,5865	108,144	1,384	75,208	3,5	1005,46	8,1	9,9	9,7	1	1	1	1	1	1	1	1	1	0	1	-29,668781	275,391255	296,455877	0
14.01.2021	18:15:12	0	0	3,27624	6,99225	108,4608	1,378	75,202	3,5	1005,28	8	9,9	9,7	1	1	1	1	1	1	1	1	1	0	1	-32,346723	275,308472	293,385981	0
14.01.2021	18:15:13	0	0	2,485423	6,8925	107,7192	1,376	75,179	3,5	1005,4	8,1	9,9	9,7	1	1	1	1	1	1	1	1	1	0	1	-36,363636	275,383279	289,723246	0
14.01.2021	18:15:14	0	0	4,067056	6,63975	114,174	1,381	75,181	3,5	1005,38	8	9,9	9,7	1	1	1	1	1	1	1	1	1	0	1	-30,091614	275,246617	295,348449	0
14.01.2021	18:15:15	0	0	3,841109	6,51375	120,9204	1,381	75,185	3,5	1005,5	8,1	10	9,7	1	1	1	1	1	1	1	1	1	0	1	-30,373502	275,325954	295,441946	0
14.01.2021	18:15:16	0	0	2,598397	6,339	114,1056	1,384	75,163	3,5	1005,3	8	9,8	9,7	1	1	1	1	1	1	1	1	1	0	1	-32,9105	275,397637	293,244392	0
14.01.2021	18:15:17	0	0	4,970847	6,06225	112,2768	1,38	75,151	3,5	1005,46	8	9,8	9,7	1	1	1	1	1	1	1	1	1	0	1	-30,443975	275,321185	295,348898	0
14.01.2021	18:15:18	0	0	2,937318	5,96775	107,4312	1,379	75,164	3,5	1005,5	8	9,9	9,7	1	1	1	1	1	1	1	1	1	0	1	-29,668781	275,205489	295,576815	0
14.01.2021	18:15:19	0	0	3,615161	6,297	113,4288	1,375	75,152	3,5	1005,32	8	9,9	9,7	1	1	1	1	1	1	1	1	1	0	1	-28,611698	275,265628	296,918288	0
14.01.2021	18:15:20	0	0	4,405978	6,486	109,638	1,377	75,126	3,5	1005,44	8	9,9	9,7	1	1	1	1	1	1	1	1	1	0	1	-28,893587	275,353003	297,049917	0
14.01.2021	18:15:21	0	0	4,18003	6,3285	113,13	1,378	75,157	3,5	1005,44	8	9,9	9,7	1	1	1	1	1	1	1	1	1	0	1	-31,712474	275,391255	294,412185	0
14.01.2021	18:15:22	0	0	4,857844	5,97075	105,8796	1,374	75,143	3,5	1005,22	8	9,9	9,8	1	1	1	1	1	1	1	1	1	0	1	-36,011276	275,276727	289,571215	0
14.01.2021	18:15:23	0	0	3,389214	5,802	117,0612	1,382	75,136	3,5	1005,3	8	9,8	9,7	1	1	1	1	1	1	1	1	1	0	1	-30,655391	275,205489	294,590204	0
14.01.2021	18:15:24	0	0	2,937318	5,65725	114,1092	1,379	75,141	3,5	1005,52	8	9,9	9,7	1	1	1	1	1	1	1	1	1	0	1	-32,135307	275,333906	293,717783	0
14.01.2021	18:15:25	0	0	4,857873	5,27325	118,3284	1,377	75,126	3,5	1005,34	8	9,9	9,7	1	1	1	1	1	1	1	1	1	0	1	-32,628612	275,400829	293,541402	0
14.01.2021	18:15:26	0	0	4,067056	4,80825	101,9052	1,379	75,135	3,5	1005,24	8	9,8	9,7	1	1	1	1	1	1	1	1	1	0	1	-29,105004	275,335497	296,755617	0
14.01.2021	18:15:27	0	0	2,824345	4,8	95,8392	1,378	75,117	3,5	1005,46	8	9,9	9,7	1	1	1	1	1	1	1	1	1	0	1	-31,782946	275,222878	293,544864	0
14.01.2021	18:15:28	0	0	4,067056	4,73625	86,652	1,376	75,127	3,5	1005,36	8,1	9,9	9,7	1	1	1	1	1	1	1	1	1	0	1	-33,192389	275,384874	292,902047	0
14.01.2021	18:15:29	0	0	3,502187	4,6515	73,1376	1,375	75,131	3,5	1005,44	8	9,8	9,7	1	1	1	1	1	1	1	1	1	0	1	-30,162086	275,386469	295,939904	0
14.01.2021	18:15:30	0	0	4,857873	4,06575	74,9124	1,375	75,11	3,5	1005,44	8	9,9	9,7	1	1	1	1	1	1	1	1	1	0	1	-30,162086	275,384874	295,93235	0
14.01.2021	18:15:31	0	0	2,598397	3,9495	72,702	1,378	75,124	3,5	1005,44	8	9,9	9,7	1	1	1	1	1	1	1	1	1	0	1	-28,682171	275,346636	297,231184	0
14.01.2021	18:15:32	0	0	4,518951	4,0845	77,22	1,372	75,124	3,5	1005,4	8	9,9	9,7	1	1	1	1	1	1	1	1	1	0	1	-32,840028	275,216553	292,457875	0
14.01.2021	18:15:33	0	0	3,163266	4,17825	92,2716	1,373	75,106	3,5	1005,38	8	9,8	9,7	1	1	1	1	1	1	1	1	1	0	1	-31,007752	275,273555	294,559734	0
14.01.2021	18:15:34	0	0	2,937318	5,1855	57,4272	1,376	75,117	3,5	1005,42	8	9,9	9,7	1	1	1	1	1	1	1	1	1	0	1	-32,205779	275,214972	293,08465	0
14.01.2021	18:15:35	0	0	4,631897	5,3835	77,94	1,377	75,105	3,5	1005,4	8,1	9,9	9,8	1	1	1	1	1	1	1	1	1	0	1	-35,447498	275,322775	290,352899	0
14.01.2021	18:15:36	0	0	2,937318	5,53875	95,5332	1,38	75,11	3,5	1005,54	8	9,9	9,7	1	1	1	1	1	1	1	1	1	0	1	-31,501057	275,2482	293,946495	0
14.01.2021	18:15:37	0	0	2,711371	5,94675	84,0384	1,364	75,104	3,5	1005,4	8	9,9	9,7	1	1	1	1	1	1	1	1	1	0	1	-28,188865	275,208649	297,071671	0
14.01.2021	18:15:38	0	0	3,615161	6,453	77,2272	1,368	75,089	3,5	1005,36	8,1	9,9	9,7	1	1	1	1	1	1	1	1	1	0	1	-33,615222	275,31165	292,13252	0
14.01.2021	18:15:39	0	0	3,163266	6,015	84,456	1,375	75,095	3,5	1005,5	8	9,9	9,7	1	1	1	1	1	1	1	1	1	0	1	-32,064834	275,391255	294,059824	0
14.01.2021	18:15:40	0	0	3,050292	5,826	79,254	1,38	75,094	3,5	1005,42	8	9,9	9,7	1	1	1	1	1	1	1	1	1	0	1	-27,625088	275,319595	298,160261	0
14.01.2021	18:15:41	0	0	3,389214	5,5935	105,8976	1,376	75,096	3,5	1005,48	8	9,9	9,7	1	1	1	1	1	1	1	1	1	0	1	-30,162086	275,251368	295,300448	0
14.01.2021	18:15:42	0	0	4,293004	5,373	79,4052	1,376	75,11	3,5	1005,54	8	9,9	9,7	1	1	1	1	1	1	1	1	1	0	1	-30,93728	275,384874	295,157156	0
14.01.2021	18:15:43	0	0	4,405978	5,15775	69,1488	1,38	75,109	3,5	1005,42	8	9,9	9,7	1	1	1	1	1	1	1	1	1	0	1	-27,272727	275,289419	298,369813	0
14.01.2021	18:15:44	0	0	3,841109	4,971	91,152	1,38	75,111	3,5	1005,54	8	9,8	9,7	1	1	1	1	1	1	1	1	1	0	1	-30,443975	275,384874	295,650461	0
14.01.2021	18:15:45	0	0	2,711371	4,90725	86,7384	1,375	75,124	3,5	1005,4	8	9,9	9,7	1	1	1	1	1	1	1	1	1	0	1	-28,400282	275,254536	297,077236	0
14.01.2021	18:15:46	0	0	4,631925	4,2945	91,512	1,376	75,11	3,5	1005,5	8	9,9	9,7	1	1	1	1	1	1	1	1	1	0	1	-33,685694	275,354596	292,26535	0
14.01.2021	18:15:47	0	0	4,631925	3,9015	95,526	1,378	75,131	3,5	1005,34	8	9,9	9,7	1	1	1	1	1	1	1	1	1	0	1	-29,245948	275,205489	295,999648	0
14.01.2021	18:15:48	0	0	3,389214	3,7485	91,512	1,379	75,125	3,5	1005,54	8	9,9	9,7	1	1	1	1	1	1	1	1	1	0	1	-34,108527	275,333906	291,744563	0
14.01.2021	18:15:49	0	0	3,954082	3,633	84,9024	1,378	75,132	3,5	1005,4	8	9,9	9,7	1	1	1	1	1	1	1	1	1	0	1	-34,390416	275,213391	290,892539	0
14.01.2021	18:15:50	0	0	3,050292	3,64575	81,576	1,377	75,13	3,5	1005,38	8	9,9	9,7	1	1	1	1	1	1	1	1	1	0	1	-29,386892	275,227624	295,963355	0
14.01.2021	18:15:51	0	0	4,518951	3,768	82,3248	1,378	75,131	3,5	1005,4	8	9,9	9,7	1	1	1	1	1	1	1	1	1	0	1	-35,377026	275,349819	290,551402	0
14.01.2021	18:15:52	0	0	5,08382	3,76725	103,3056	1,373	75,134	3,5	1005,36	8	9,9	9,7	1	1	1	1	1	1	1	1	1	0	1	-32,276251	275,37212	293,757776	0
14.01.2021	18:15:53	0	0	3,27624	3,61575	100,7388	1,375	75,116	3,5	1005,28	8	9,9	9,7	1	1	1	1	1	1	1	1	1	0	1	-32,840028	275,278313	292,749966	0
14.01.2021	18:15:54	0	0	4,631925	3,6285	98,7732	1,38	75,139	3,5	1005,32	8	9,9	9,7	1	1	1	1	1	1	1	1	1	0	1	-32,980973	275,396041	293,16636	0
14.01.2021	18:15:55	0	0	2,824345	3,9795	94,3884	1,376	75,137	3,5	1005,46	8	9,9	9,7	1	1	1	1	1	1	1	1	1	0	1	-33,615222	275,302119	292,087416	0
14.01.2021	18:15:56	0	0	3,728135	4,1925	91,1772	1,371	75,125	3,5	1005,4	8	9,9	9,7	1	1	1	1	1	1	1	1	1	0	1	-30,373502	275,229206	294,984225	0
14.01.2021	18:15:57	0	0	2,598397	4,068	102,5712	1,382	75,118	3,5	1005,54	8	9,9	9,7	1	1	1	1	1	1	1	1	1	0	1	-33,333333	275,38009	292,738444	0
14.01.2021	18:15:58	0	0	2,372449	4,0365	114,1272	1,373	75,125	3,5	1005,44	8	9,9	9,7	1	1	1	1	1	1	1	1	1	0	1	-31,712474	275,353003	294,231031	0
14.01.2021	18:15:59	0	0	2,824345	3,879	116,6472	1,367	75,137	3,5	1005,48	8	9,9	9,7	1	1	1	1	1	1	1	1	1	0	1	-36,434109	275,400829	289,735906	0
14.01.2021	18:16:00	0	0	4,293004	5,16675	111,8196	1,371	75,113	3,5	1005,48	8,1	9,9	9,7	1	1	1	1	1	1	1	1	1	0	1	-27,131783	275,221297	298,188549	0
14.01.2021	18:16:01	0	0	4,518951	5,343	110,6604	1,37	75,135	3,5	1005,48	8	9,9	9,7	1	1	1	1	1	1	1	1	1	0	1	-32,205779	275,270384	293,346705	0
14.01.2021	18:16:02	0	0	4,518951	5,343	110,6604	1,37	75,135	3,5	1005,48	8	9,9	9,7	1	1	1	1	1	1	1	1	1	0	1	-32,205779	275,270384	293,346705	0
14.01.2021	18:16:03	0	0	3,27624	5,19075	114,5088	1,368	75,133	3,5	1005,4	8	9,9	9,7	1	1	1	1	1	1	1	1	1	0	1	-32,135307	275,391255	293,989352	0
14.01.2021	18:16:04	0	0	4,067056	5,0175	94,4028	1,375	75,122	3,5	1005,44	8,1	9,9	9,7	1	1	1	1	1	1	1	1	1	0	1	-27,906977	275,308472	297,825727	0
14.01.2021	18:16:05	0	0	2,824345	4,61475	92,3544	1,371	75,125	3,5	1005,34	8	9,9	9,7	1	1	1	1	1	1	1	1	1	0	1	-41,296688	275,391255	284,82797	0
14.01.2021	18:16:06	0	0	3,954082	4,12575	83,3472	1,374	75,127	3,5	1005,5	8	9,9	9,7	1	1	1	1	1	1	1	1	1	0	1	-31,078224	275,370526	294,948255	0
14.01.2021	18:16:07	0	0	3,954082	3,56475	102,9672	1,371	75,13	3,5	1005,44	8	9,9	9,7	1	1	1	1	1	1	1	1	1	0	1	-33,121917	275,330725	292,716114	0
14.01.2021	18:16:08	0	0	3,163266	3,20925	88,5708	1,376	75,137	3,5	1005,42	8	9,9	9,7	1	1	1	1	1	1	1	1	1	0	1	-27,413672	275,389659	298,70343	0
14.01.2021	18:16:09	0	0	3,050292	2,9955	106,2864	1,369	75,175	3,5	1005,26	8	9,9	9,7	1	1	1	1	1	1	1	1	1	0	1	-29,950669	275,238701	295,451957	0
14.01.2021	18:16:10	0	0	4,067056	3,3945	111,8376	1,373	75,123	3,5	1005,4	8	9,9	9,7	1	1	1	1	1	1	1	1	1	0	1	-30,443975	275,34027	295,439241	0
14.01.2021	18:16:11	0	0	3,050292	3,7545	111,798	1,376	75,137	3,5	1005,36	8	9,9	9,7	1	1	1	1	1	1	1	1	1	0	1	-29,034531	275,214972	296,255897	0
14.01.2021	18:16:12	0	0	2,937318	4,08	115,5924	1,374	75,134	3,5	1005,16	8,1	9,9	9,7	1	1	1	1	1	1	1	1	1	0	1	-33,967583	275,287832	291,667449	0
14.01.2021	18:16:13	0	0	4,293004	4,15125	105,984	1,371	75,136	3,5	1005,48	8	9,9	9,7	1	1	1	1	1	1	1	1	1	0	1	-31,712474	275,21023	293,555535	0
14.01.2021	18:16:14	0	0	3,728135	4,3155	112,2984	1,37	75,125	3,5	1005,44	8,1	9,9	9,7	1	1	1	1	1	1	1	1	1	0	1	-28,682171	275,251368	296,780363	0
14.01.2021	18:16:15	0	0	2,372449	4,73775	111,1752	1,37	75,133	3,5	1005,44	8,1	9,9	9,7	1	1	1	1	1	1	1	1	1	0	1	-32,628612	275,19759	292,579643	0
14.01.2021	18:16:16	0	0	4,067056	4,64775	106,6968	1,369	75,122	3,5	1005,46	8	9,9	9,7	1	1	1	1	1	1	1	1	1	0	1	-30,091614	275,353003	295,851891	0
14.01.2021	18:16:17	0	0	4,518951	4,11375	99,5364	1,371	75,129	3,5	1005,52	8	9,9	9,7	1	1	1	1	1	1	1	1	1	0	1	-28,188865	275,276727	297,393625	0
14.01.2021	18:16:18	0	0	3,728135	3,96975	111,0744	1,375	75,147	3,5	1005,72	8	9,9	9,7	1	1	1	1	1	1	1	1	1	0	1	-28,893587	275,221297	296,426745	0
14.01.2021	18:16:19	0	0	4,518951	4,356	102,2868	1,373	75,132	3,5	1005,44	8	9,9	9,7	1	1	1	1	1	1	1	1	1	0	1	-30,584919	275,260873	294,922576	0
14.01.2021	18:16:20	0	0	4,631925	4,443	93,3552	1,371	75,138	3,5	1005,42	8	9,9	9,7	1	1	1	1	1	1	1	1	1	0	1	-29,880197	275,240284	295,529915	0
14.01.2021	18:16:21	0	0	4,857873	4,5075	113,4144	1,375	75,16	3,5	1005,38	8	9,9	9,7	1	1	1	1	1	1	1	1	1	0	1	-29,386892	275,397637	296,768	0
14.01.2021	18:16:22	0	0	3,163266	4,5735	108,504	1,366	75,147	3,5	1005,34	8	9,9	9,7	1	1	1	1	1	1	1	1	1	0	1	-32,699084	275,302119	293,003554	0
14.01.2021	18:16:23	0	0	3,502187	4,5525	108,9	1,364	75,158	3,5	1005,26	8	9,9	9,7	1	1	1	1	1	1	1	1	1	0	1	-30,232558	275,383279	295,854324	0
14.01.2021	18:16:24	0	0	3,163266	4,485	113,022	1,374	75,172	3,5	1005,34	8	9,9	9,7	1	1	1	1	1	1	1	1	1	0	1	-34,672304	275,252952	290,797721	0
14.01.2021	18:16:25	0	0	4,970847	4,7835	108,504	1,37	75,17	3,5	1005,36	8	9,9	9,7	1	1	1	1	1	1	1	1	1	0	1	-31,289641	275,346636	294,623714	0
14.01.2021	18:16:26	0	0	2,937318	5,06925	112,3416	1,37	75,171	3,5	1005,42	8	9,9	9,7	1	1	1	1	1	1	1	1	1	0	1	-27,766032	275,188115	297,397439	0
14.01.2021	18:16:27	0	0	3,389214	5,121	117,4356	1,373	75,173	3,5	1005,36	8	9,9	9,7	1	1	1	1	1	1	1	1	1	0	1	-32,699084	275,279899	292,898415	0
14.01.2021	18:16:28	0	0	2,937318	5,19675	115,2144	1,371	75,186	3,5	1005,44	8	9,9	9,7	1	1	1	1	1	1	1	1	1	0	1	-31,994362	275,194431	293,198962	0
14.01.2021	18:16:29	0	0	4,970847	5,2335	112,2552	1,368	75,178	3,5	1005,42	8	9,9	9,7	1	1	1	1	1	1	1	1	1	0	1	-28,047921	275,388064	298,061624	0
14.01.2021	18:16:30	0	0	3,163266	5,29575	105,9012	1,371	75,177	3,5	1005,34	8	9,9	9,7	1	1	1	1	1	1	1	1	1	0	1	-28,611698	275,229206	296,746029	0
14.01.2021	18:16:31	0	0	2,937318	5,286	103,3092	1,371	75,187	3,5	1005,46	8	9,9	9,7	1	1	1	1	1	1	1	1	1	0	1	-32,55814	275,218134	292,747239	0
14.01.2021	18:16:32	0	0	4,293004	5,238	105,9732	1,37	75,192	3,5	1005,46	8	9,9	9,7	1	1	1	1	1	1	1	1	1	0	1	-28,611698	275,208649	296,648838	0
14.01.2021	18:16:33	0	0	4,067056	5,067	111,4236	1,367	75,179	3,5	1005,36	8	9,9	9,7	1	1	1	1	1	1	1	1	1	0	1	-31,712474	275,348227	294,208417	0
14.01.2021	18:16:34	0	0	4,067056	4,863	105,8868	1,363	75,181	3,5	1005,42	8	9,9	9,7	1	1	1	1	1	1	1	1	1	0	1	-29,809725	275,214972	295,480703	0
14.01.2021	18:16:35	0	0	2,711371	4,7505	105,5268	1,373	75,175	3,5	1005,52	8	9,9	9,7	1	1	1	1	1	1	1	1	1	0	1	-33,615222	275,262458	291,89977	0
14.01.2021	18:16:36	0	0	3,841109	4,56525	114,8868	1,369	75,184	3,5	1005,46	8	9,9	9,7	1	1	1	1	1	1	1	1	1	0	1	-30,93728	275,200749	294,285909	0
14.01.2021	18:16:37	0	0	4,293004	4,59075	114,0804	1,374	75,185	3,5	1005,48	8	9,9	9,7	1	1	1	1	1	1	1	1	1	0	1	-33,051445	275,375307	292,99768	0
14.01.2021	18:16:38	0	0	2,598397	4,6605	111,042	1,366	75,183	3,5	1005,42	8	9,9	9,7	1	1	1	1	1	1	1	1	1	0	1	-29,668781	275,281485	295,936223	0
14.01.2021	18:16:39	0	0	3,615161	4,48275	107,442	1,371	75,185	3,5	1005,42	8	9,9	9,7	1	1	1	1	1	1	1	1	1	0	1	-32,628612	275,19601	292,572178	0
14.01.2021	18:16:40	0	0	3,502187	4,53375	99,5076	1,366	75,191	3,5	1005,46	8	9,9	9,7	1	1	1	1	1	1	1	1	1	0	1	-35,588443	275,226042	289,754324	0
14.01.2021	18:16:41	0	0	2,711371	4,76625	98,1036	1,365	75,18	3,5	1005,54	8	9,9	9,7	1	1	1	1	1	1	1	1	1	0	1	-30,30303	275,367339	295,708356	0
14.01.2021	18:16:42	0	0	2,711371	4,93125	102,5748	1,359	75,174	3,5	1005,36	8	9,9	9,7	1	1	1	1	1	1	1	1	1	0	1	-32,276251	275,240284	293,133862	0
14.01.2021	18:16:43	0	0	4,067056	5,175	111,834	1,36	75,2	3,5	1005,44	8	9,9	9,7	1	1	1	1	1	1	1	1	1	0	1	-31,289641	275,192852	293,896219	0
14.01.2021	18:16:44	0	0	2,485423	5,3145	112,7592	1,368	75,198	3,5	1005,48	8	9,9	9,7	1	1	1	1	1	1	1	1	1	0	1	-31,501057	275,370526	294,525422	0
14.01.2021	18:16:45	0	0	2,937318	5,29725	108,9036	1,369	75,204	3,5	1005,38	8	9,9	9,7	1	1	1	1	1	1	1	1	1	0	1	-32,205779	275,289419	293,436762	0
14.01.2021	18:16:46	0	0	3,502187	5,1675	111,8016	1,368	75,204	3,5	1005,44	8	9,9	9,7	1	1	1	1	1	1	1	1	1	0	1	-32,699084	275,353003	293,244421	0
14.01.2021	18:16:47	0	0	4,744899	5,1615	111,3876	1,363	75,199	3,5	1005,36	8	9,9	9,7	1	1	1	1	1	1	1	1	1	0	1	-29,527837	275,270384	296,024647	0
14.01.2021	18:16:48	0	0	4,18003	5,094	116,7588	1,367	75,207	3,5	1005,42	8	9,9	9,7	1	1	1	1	1	1	1	1	1	0	1	-32,840028	275,218134	292,46535	0
14.01.2021	18:16:49	0	0	2,711371	5,41875	105,1452	1,363	75,207	3,5	1005,22	8	9,9	9,7	1	1	1	1	1	1	1	1	1	0	1	-29,245948	275,238701	296,156679	0
14.01.2021	18:16:50	0	0	2,711371	5,70975	113,0508	1,363	75,203	3,5	1005,16	8	9,9	9,7	1	1	1	1	1	1	1	1	1	0	1	-30,162086	275,252952	295,30794	0
14.01.2021	18:16:51	0	0	3,728135	5,9685	111,4236	1,366	75,223	3,5	1005,4	8	9,9	9,7	1	1	1	1	1	1	1	1	1	0	1	-32,840028	275,229206	292,517699	0
14.01.2021	18:16:52	0	0	2,598397	5,9235	112,7052	1,367	75,221	3,5	1005,4	8	9,9	9,7	1	1	1	1	1	1	1	1	1	0	1	-34,883721	275,21023	290,384288	0
14.01.2021	18:16:53	0	0	2,937318	5,75775	113,0544	1,367	75,222	3,5	1005,26	8	9,9	9,7	1	1	1	1	1	1	1	1	1	0	1	-30,725863	275,199169	294,489858	0
14.01.2021	18:16:54	0	0	3,615161	5,547	111,8052	1,362	75,218	3,5	1005,36	8	9,9	9,7	1	1	1	1	1	1	1	1	1	0	1	-33,685694	275,321185	292,107179	0
14.01.2021	18:16:55	0	0	3,389214	5,38275	104,0796	1,368	75,225	3,5	1005,58	8	9,9	9,7	1	1	1	1	1	1	1	1	1	0	1	-31,430585	275,335497	294,430035	0
14.01.2021	18:16:56	0	0	4,518951	5,32875	98,0928	1,37	75,226	3,5	1005,44	8	9,9	9,7	1	1	1	1	1	1	1	1	1	0	1	-31,92389	275,238701	293,478737	0
14.01.2021	18:16:57	0	0	2,485423	4,98375	103,3236	1,369	75,204	3,5	1005,5	8	9,9	9,7	1	1	1	1	1	1	1	1	1	0	1	-32,417195	275,203909	292,820931	0
14.01.2021	18:16:58	0	0	2,711371	4,7955	101,8404	1,372	75,22	3,5	1005,36	8	9,9	9,7	1	1	1	1	1	1	1	1	1	0	1	-33,615222	275,31165	292,13252	0
14.01.2021	18:16:59	0	0	3,163266	4,78725	100,7712	1,373	75,201	3,5	1005,3	8	9,9	9,7	1	1	1	1	1	1	1	1	1	0	1	-33,262861	275,362559	292,725891	0
14.01.2021	18:17:00	0	0	2,824345	4,76925	103,248	1,371	75,221	3,5	1005,62	8	9,9	9,7	1	1	1	1	1	1	1	1	1	0	1	-31,571529	275,202329	293,659128	0
14.01.2021	18:17:01	0	0	2,824345	4,76925	103,248	1,371	75,221	3,5	1005,62	8	9,9	9,7	1	1	1	1	1	1	1	1	1	0	1	-31,571529	275,202329	293,659128	0
14.01.2021	18:17:02	0	0	4,067056	4,734	99,5436	1,362	75,217	3,5	1005,42	8	9,9	9,7	1	1	1	1	1	1	1	1	1	0	1	-27,272727	275,292593	298,384833	0
14.01.2021	18:17:03	0	0	3,954082	4,491	94,3956	1,369	75,217	3,5	1005,34	8	9,9	9,7	1	1	1	1	1	1	1	1	1	0	1	-28,893587	275,19759	296,314668	0
14.01.2021	18:17:04	0	0	4,744899	4,095	88,9668	1,365	75,217	3,5	1005,38	8	9,9	9,7	1	1	1	1	1	1	1	1	1	0	1	-36,222692	275,221297	289,09764	0
14.01.2021	18:17:05	0	0	2,485423	3,84075	92,9664	1,365	75,212	3,5	1005,56	8	9,9	9,7	1	1	1	1	1	1	1	1	1	0	1	-30,655391	275,335497	295,205229	0
14.01.2021	18:17:06	0	0	2,598397	3,7605	91,5012	1,357	75,216	3,5	1005,42	8	9,9	9,7	1	1	1	1	1	1	1	1	1	0	1	-30,30303	275,308472	295,429674	0
14.01.2021	18:17:07	0	0	4,405978	3,68025	95,1516	1,366	75,249	3,5	1005,84	8	9,9	9,7	1	1	1	1	1	1	1	1	1	0	1	-24,453841	275,181801	300,679789	0
14.01.2021	18:17:08	0	0	2,711371	3,55125	95,6304	1,359	75,207	3,5	1005,36	8	9,9	9,7	1	1	1	1	1	1	1	1	1	0	1	-30,514447	275,22446	294,820841	0
14.01.2021	18:17:09	0	0	2,937318	3,54	84,4056	1,362	75,195	3,5	1005,5	8	9,9	9,7	1	1	1	1	1	1	1	1	1	0	1	-30,373502	275,362559	295,61525	0
14.01.2021	18:17:10	0	0	2,711371	3,53025	90,0252	1,365	75,206	3,5	1005,44	8	9,9	9,7	1	1	1	1	1	1	1	1	1	0	1	-33,333333	275,34027	292,549883	0
14.01.2021	18:17:11	0	0	3,050292	3,4815	101,1132	1,362	75,207	3,5	1005,4	8	9,9	9,7	1	1	1	1	1	1	1	1	1	0	1	-32,628612	275,329135	293,201891	0
14.01.2021	18:17:12	0	0	3,050292	3,48675	106,686	1,364	75,207	3,5	1005,46	8	9,9	9,7	1	1	1	1	1	1	1	1	1	0	1	-33,051445	275,216553	292,246458	0
14.01.2021	18:17:13	0	0	4,518951	3,537	105,5088	1,367	75,21	3,5	1005,46	8	9,9	9,7	1	1	1	1	1	1	1	1	1	0	1	-27,906977	275,346636	298,006378	0
14.01.2021	18:17:14	0	0	3,728135	3,57525	106,6824	1,362	75,19	3,5	1005,4	8	9,9	9,7	1	1	1	1	1	1	1	1	1	0	1	-27,977449	275,305295	297,74022	0
14.01.2021	18:17:15	0	0	2,259476	3,64275	98,082	1,362	75,207	3,5	1005,36	8	9,9	9,7	1	1	1	1	1	1	1	1	1	0	1	-35,447498	275,184957	289,701051	0
14.01.2021	18:17:16	0	0	3,27624	3,831	94,7844	1,364	75,202	3,5	1005,46	8	9,9	9,7	1	1	1	1	1	1	1	1	1	0	1	-32,276251	275,169179	292,797731	0
14.01.2021	18:17:17	0	0	3,050292	3,873	105,1452	1,363	75,215	3,5	1005,52	8	9,9	9,7	1	1	1	1	1	1	1	1	1	0	1	-28,752643	275,259289	296,747357	0
14.01.2021	18:17:18	0	0	4,067056	4,18275	106,6788	1,36	75,224	3,5	1005,36	8	9,9	9,7	1	1	1	1	1	1	1	1	1	0	1	-31,571529	275,21181	293,703952	0
14.01.2021	18:17:19	0	0	4,405978	4,98675	94,3704	1,364	75,228	3,5	1005,38	8	9,9	9,7	1	1	1	1	1	1	1	1	1	0	1	-30,93728	275,368932	295,081653	0
14.01.2021	18:17:20	0	0	3,615161	5,088	105,5052	1,36	75,206	3,5	1005,52	8	9,9	9,7	1	1	1	1	1	1	1	1	1	0	1	-27,131783	275,305295	298,585886	0
14.01.2021	18:17:21	0	0	3,615161	4,98525	114,84	1,36	75,207	3,5	1005,22	8	9,9	9,7	1	1	1	1	1	1	1	1	1	0	1	-29,880197	275,181801	295,253432	0
14.01.2021	18:17:22	0	0	3,841109	4,86	109,9368	1,363	75,222	3,5	1005,44	8	9,9	9,7	1	1	1	1	1	1	1	1	1	0	1	-28,400282	275,254536	297,077236	0
14.01.2021	18:17:23	0	0	3,954082	4,91775	112,6584	1,359	75,231	3,5	1005,48	8	9,9	9,7	1	1	1	1	1	1	1	1	1	0	1	-31,078224	275,362559	294,910528	0
14.01.2021	18:17:24	0	0	2,598397	5,02575	108,7056	1,358	75,24	3,5	1005,54	8	9,9	9,7	1	1	1	1	1	1	1	1	1	0	1	-25,299507	275,276727	300,282984	0
14.01.2021	18:17:25	0	0	4,405978	5,28225	104,04	1,36	75,24	3,5	1005,48	8	9,9	9,7	1	1	1	1	1	1	1	1	1	0	1	-30,584919	275,202329	294,645738	0
14.01.2021	18:17:26	0	0	2,711371	5,499	96,948	1,353	75,26	3,5	1005,48	8	9,9	9,7	1	1	1	1	1	1	1	1	1	0	1	-34,813249	275,357781	291,152876	0
14.01.2021	18:17:27	0	0	3,841109	5,05125	95,166	1,353	75,26	3,5	1005,46	8	9,9	9,7	1	1	1	1	1	1	1	1	1	0	1	-29,668781	275,308472	296,063923	0
14.01.2021	18:17:28	0	0	2,824345	5,064	104,436	1,355	75,287	3,5	1005,46	8	9,9	9,7	1	1	1	1	1	1	1	1	1	0	1	-32,699084	275,362559	293,289669	0
14.01.2021	18:17:29	0	0	4,18003	5,01975	106,308	1,354	75,281	3,5	1005,52	8	9,9	9,7	1	1	1	1	1	1	1	1	1	0	1	-32,9105	275,29418	292,754571	0
14.01.2021	18:17:30	0	0	2,598397	5,6145	105,5196	1,357	75,305	3,5	1005,36	8	9,9	9,7	1	1	1	1	1	1	1	1	1	0	1	-29,31642	275,343452	296,581864	0
14.01.2021	18:17:31	0	0	4,293004	6,0975	105,5052	1,355	75,306	3,5	1005,58	8	9,9	9,7	1	1	1	1	1	1	1	1	1	0	1	-29,950669	275,349819	295,977758	0
14.01.2021	18:17:32	0	0	4,631925	6,504	112,626	1,354	75,309	3,5	1005,46	8	9,9	9,7	1	1	1	1	1	1	1	1	1	0	1	-30,866808	275,303707	294,843345	0
14.01.2021	18:17:33	0	0	4,18003	6,0435	117,7848	1,354	75,322	3,5	1005,36	8	9,9	9,7	1	1	1	1	1	1	1	1	1	0	1	-32,346723	275,348227	293,574168	0
14.01.2021	18:17:34	0	0	3,841109	6,10425	110,3652	1,36	75,329	3,5	1005,52	8	9,9	9,7	1	1	1	1	1	1	1	1	1	0	1	-32,487667	275,308472	293,245037	0
14.01.2021	18:17:35	0	0	3,163266	6,03975	112,3524	1,357	75,329	3,5	1005,28	8	9,9	9,7	1	1	1	1	1	1	1	1	1	0	1	-29,175476	275,189694	295,995457	0
14.01.2021	18:17:36	0	0	4,293004	5,898	102,2076	1,357	75,34	3,5	1005,46	8	9,9	9,7	1	1	1	1	1	1	1	1	1	0	1	-35,588443	275,227624	289,761804	0
14.01.2021	18:17:37	0	0	2,485423	6,28725	105,1344	1,355	75,348	3,5	1005,44	8	9,9	9,7	1	1	1	1	1	1	1	1	1	0	1	-30,655391	275,19759	294,552864	0
14.01.2021	18:17:38	0	0	3,954082	6,04725	99,4896	1,353	75,358	3,5	1005,4	8	9,9	9,7	1	1	1	1	1	1	1	1	1	0	1	-28,823115	275,337088	297,045036	0
14.01.2021	18:17:39	0	0	3,502187	5,838	104,7528	1,357	75,363	3,5	1005,3	8	9,9	9,7	1	1	1	1	1	1	1	1	1	0	1	-29,598309	275,310061	296,141914	0
14.01.2021	18:17:40	0	0	2,259476	5,8515	107,0244	1,352	75,365	3,5	1005,42	8	9,9	9,7	1	1	1	1	1	1	1	1	1	0	1	-30,091614	275,184957	295,056935	0
14.01.2021	18:17:41	0	0	4,744899	5,823	104,0508	1,354	75,369	3,5	1005,42	8	9,9	9,7	1	1	1	1	1	1	1	1	1	0	1	-29,457364	275,348227	296,463526	0
14.01.2021	18:17:42	0	0	2,937318	5,80125	106,6644	1,353	75,358	3,5	1005,3	8	9,9	9,7	1	1	1	1	1	1	1	1	1	0	1	-30,091614	275,292593	295,565946	0
14.01.2021	18:17:43	0	0	2,485423	5,661	101,8152	1,351	75,382	3,5	1005,32	8	9,9	9,7	1	1	1	1	1	1	1	1	1	0	1	-34,601832	275,188115	290,561639	0
14.01.2021	18:17:44	0	0	4,631925	5,154	96,5916	1,354	75,372	3,5	1005,46	8	9,9	9,7	1	1	1	1	1	1	1	1	1	0	1	-31,007752	275,319595	294,777597	0
14.01.2021	18:17:45	0	0	2,372449	5,09025	107,7336	1,355	75,39	3,5	1005,42	8	9,9	9,7	1	1	1	1	1	1	1	1	1	0	1	-33,897111	275,194431	291,296213	0
14.01.2021	18:17:46	0	0	3,841109	5,17125	104,0184	1,351	75,386	3,5	1005,48	8	9,9	9,7	1	1	1	1	1	1	1	1	1	0	1	-28,893587	275,235535	296,49407	0
14.01.2021	18:17:47	0	0	3,502187	5,61075	115,9704	1,355	75,381	3,5	1005,32	8	9,9	9,7	1	1	1	1	1	1	1	1	1	0	1	-28,259338	275,183379	296,881751	0
14.01.2021	18:17:48	0	0	4,293004	5,83125	110,7504	1,352	75,386	3,5	1005,56	8	9,9	9,7	1	1	1	1	1	1	1	1	1	0	1	-33,54475	275,19601	291,656039	0
14.01.2021	18:17:49	0	0	4,744899	5,7135	125,7444	1,351	75,388	3,5	1005,46	8	9,9	9,7	1	1	1	1	1	1	1	1	1	0	1	-34,742777	275,275141	290,832211	0
14.01.2021	18:17:50	0	0	2,598397	5,2635	121,9968	1,356	75,401	3,5	1005,48	8	9,9	9,7	1	1	1	1	1	1	1	1	1	0	1	-31,642001	275,181801	293,491628	0
14.01.2021	18:17:51	0	0	3,27624	5,03925	130,5036	1,348	75,402	3,5	1005,44	8	9,9	9,7	1	1	1	1	1	1	1	1	1	0	1	-31,642001	275,208649	293,618535	0
14.01.2021	18:17:52	0	0	4,293004	4,7985	125,748	1,346	75,402	3,5	1005,42	8	9,9	9,7	1	1	1	1	1	1	1	1	1	0	1	-30,796335	275,194431	294,396989	0
14.01.2021	18:17:53	0	0	2,259476	4,47975	115,5816	1,347	75,414	3,5	1005,54	8	9,9	9,7	1	1	1	1	1	1	1	1	1	0	1	-28,118393	275,298943	297,569216	0
14.01.2021	18:17:54	0	0	2,485423	4,503	113,4144	1,35	75,429	3,5	1005,48	8	9,9	9,7	1	1	1	1	1	1	1	1	1	0	1	-34,390416	275,370526	291,636064	0
14.01.2021	18:17:55	0	0	2,146502	4,7775	117,3816	1,344	75,416	3,5	1005,32	8	9,9	9,7	1	1	1	1	1	1	1	1	1	0	1	-29,950669	275,303707	295,759484	0
14.01.2021	18:17:56	0	0	2,711371	4,58475	105,4836	1,35	75,437	3,5	1005,4	8	9,9	9,7	1	1	1	1	1	1	1	1	1	0	1	-32,699084	275,21181	292,576397	0
14.01.2021	18:17:57	0	0	2,485423	4,281	125,4816	1,344	75,435	3,5	1005,44	8	9,9	9,7	1	1	1	1	1	1	1	1	1	0	1	-30,162086	275,367339	295,8493	0
14.01.2021	18:17:58	0	0	3,163266	4,23075	111,4632	1,352	75,44	3,5	1005,52	8	9,9	9,7	1	1	1	1	1	1	1	1	1	0	1	-32,346723	275,283072	293,265786	0
14.01.2021	18:17:59	0	0	4,067056	4,22475	115,5744	1,351	75,436	3,5	1005,38	8	9,9	9,7	1	1	1	1	1	1	1	1	1	0	1	-31,289641	275,170756	293,791795	0
14.01.2021	18:18:00	0	0	3,615161	4,155	116,3664	1,345	75,44	3,5	1005,46	8	9,9	9,7	1	1	1	1	1	1	1	1	1	0	1	-30,091614	275,177067	295,019642	0
14.01.2021	18:18:01	0	0	4,518951	4,00875	118,7028	1,348	75,428	3,5	1005,46	8	9,9	9,7	1	1	1	1	1	1	1	1	1	0	1	-30,655391	275,29418	295,00968	0
14.01.2021	18:18:02	0	0	4,518951	4,00875	118,7028	1,348	75,428	3,5	1005,46	8	9,9	9,7	1	1	1	1	1	1	1	1	1	0	1	-30,655391	275,29418	295,00968	0
14.01.2021	18:18:03	0	0	4,744899	4,0005	119,4912	1,349	75,445	3,5	1005,62	8	9,9	9,7	1	1	1	1	1	1	1	1	1	0	1	-33,403805	275,175489	291,699994	0
14.01.2021	18:18:04	0	0	3,728135	4,401	117,414	1,343	75,435	3,5	1005,48	8	9,9	9,7	1	1	1	1	1	1	1	1	1	0	1	-30,021142	275,259289	295,478858	0
14.01.2021	18:18:05	0	0	4,857873	4,70925	117,0396	1,337	75,45	3,5	1005,42	8	9,9	9,7	1	1	1	1	1	1	1	1	1	0	1	-32,135307	275,181801	292,998323	0
14.01.2021	18:18:06	0	0	3,728135	4,71375	117,432	1,348	75,447	3,5	1005,54	8	9,9	9,7	1	1	1	1	1	1	1	1	1	0	1	-29,739253	275,291006	295,910797	0
14.01.2021	18:18:07	0	0	3,502187	4,65	99,5436	1,343	75,45	3,5	1005,34	8	9,9	9,7	1	1	1	1	1	1	1	1	1	0	1	-28,611698	275,34027	297,271518	0
14.01.2021	18:18:08	0	0	2,824345	4,4895	104,7204	1,346	75,457	3,5	1005,38	8	9,9	9,7	1	1	1	1	1	1	1	1	1	0	1	-35,658915	275,264043	289,863574	0
14.01.2021	18:18:09	0	0	2,711371	4,2345	108,972	1,34	75,462	3,5	1005,34	8	9,9	9,7	1	1	1	1	1	1	1	1	1	0	1	-32,628612	275,343452	293,269672	0
14.01.2021	18:18:10	0	0	4,631925	4,008	105,894	1,341	75,448	3,5	1005,56	8	9,9	9,7	1	1	1	1	1	1	1	1	1	0	1	-29,175476	275,235535	296,212182	0
14.01.2021	18:18:11	0	0	3,728135	3,81375	116,3268	1,341	75,453	3,5	1005,44	8	9,9	9,7	1	1	1	1	1	1	1	1	1	0	1	-31,007752	275,159718	294,021525	0
14.01.2021	18:18:12	0	0	4,293004	3,8565	112,266	1,342	75,471	3,5	1005,62	8	9,9	9,7	1	1	1	1	1	1	1	1	1	0	1	-27,202255	275,281485	298,402749	0
14.01.2021	18:18:13	0	0	4,293004	4,03125	117,0792	1,343	75,466	3,5	1005,52	8	9,9	9,7	1	1	1	1	1	1	1	1	1	0	1	-29,739253	275,356188	296,219331	0
14.01.2021	18:18:14	0	0	2,485423	4,4805	115,9632	1,346	75,468	3,5	1005,4	8	9,9	9,7	1	1	1	1	1	1	1	1	1	0	1	-31,994362	275,175489	293,109438	0
14.01.2021	18:18:15	0	0	4,293004	4,6935	112,2876	1,342	75,472	3,5	1005,54	8	9,9	9,7	1	1	1	1	1	1	1	1	1	0	1	-33,756166	275,175489	291,347634	0
14.01.2021	18:18:16	0	0	4,405978	4,43925	106,704	1,345	75,486	3,5	1005,36	8	9,9	9,7	1	1	1	1	1	1	1	1	1	0	1	-32,487667	275,356188	293,470917	0
14.01.2021	18:18:17	0	0	4,744899	4,065	114,102	1,339	75,48	3,5	1005,38	8	9,9	9,7	1	1	1	1	1	1	1	1	1	0	1	-29,105004	275,222878	296,222806	0
14.01.2021	18:18:18	0	0	2,372449	4,098	107,0712	1,34	75,48	3,5	1005,32	8	9,9	9,7	1	1	1	1	1	1	1	1	1	0	1	-27,766032	275,207069	297,487033	0
14.01.2021	18:18:19	0	0	3,954106	4,2405	109,2276	1,345	75,471	3,5	1005,4	8	9,8	9,6	1	1	1	1	1	1	1	1	1	0	1	-26,638478	275,314828	299,124305	0
14.01.2021	18:18:20	0	0	3,27624	4,38525	100,7604	1,342	75,493	3,5	1005,52	8	9,9	9,7	1	1	1	1	1	1	1	1	1	0	1	-32,276251	275,167602	292,790279	0
14.01.2021	18:18:21	0	0	4,857873	4,46775	105,4908	1,338	75,474	3,5	1005,4	8	9,9	9,7	1	1	1	1	1	1	1	1	1	0	1	-33,121917	275,21181	292,153564	0
14.01.2021	18:18:22	0	0	2,598397	4,4445	116,6724	1,341	75,46	3,5	1005,48	8	9,9	9,7	1	1	1	1	1	1	1	1	1	0	1	-27,554616	275,167602	297,511914	0
14.01.2021	18:18:23	0	0	3,050292	4,266	106,686	1,339	75,471	3,5	1005,24	8	9,9	9,7	1	1	1	1	1	1	1	1	1	0	1	-26,427061	275,192852	298,758798	0
14.01.2021	18:18:24	0	0	2,033528	3,873	102,2076	1,345	75,473	3,5	1005,46	8	9,9	9,7	1	1	1	1	1	1	1	1	1	0	1	-35,236082	275,227624	290,114165	0
14.01.2021	18:18:25	0	0	4,970847	3,5655	102,1932	1,332	75,461	3,5	1005,36	8	9,9	9,7	1	1	1	1	1	1	1	1	1	0	1	-34,672304	275,308472	291,0604	0
14.01.2021	18:18:26	0	0	3,841109	3,27225	103,6836	1,341	75,464	3,5	1005,44	8	9,9	9,7	1	1	1	1	1	1	1	1	1	0	1	-31,219168	275,207069	294,033897	0
14.01.2021	18:18:27	0	0	4,744899	3,09375	108,9	1,345	75,469	3,5	1005,4	8	9,9	9,7	1	1	1	1	1	1	1	1	1	0	1	-30,443975	275,166025	294,615103	0
14.01.2021	18:18:28	0	0	3,841109	3,288	115,2288	1,342	75,474	3,5	1005,42	8	9,9	9,7	1	1	1	1	1	1	1	1	1	0	1	-30,373502	275,219715	294,939352	0
14.01.2021	18:18:29	0	0	4,405978	3,8175	110,3508	1,34	75,459	3,5	1005,4	8	9,9	9,7	1	1	1	1	1	1	1	1	1	0	1	-26,638478	275,214972	298,65195	0
14.01.2021	18:18:30	0	0	4,067056	4,482	95,1552	1,345	75,452	3,5	1005,22	8	9,9	9,7	1	1	1	1	1	1	1	1	1	0	1	-28,964059	275,333906	296,889031	0
14.01.2021	18:18:31	0	0	4,518951	4,76175	95,8356	1,339	75,458	3,5	1005,26	8	9,9	9,7	1	1	1	1	1	1	1	1	1	0	1	-30,091614	275,314828	295,671169	0
14.01.2021	18:18:32	0	0	5,08382	4,37625	92,9628	1,342	75,455	3,5	1005,44	8	9,9	9,7	1	1	1	1	1	1	1	1	1	0	1	-34,390416	275,306884	291,334771	0
14.01.2021	18:18:33	0	0	3,27624	4,61775	91,8864	1,338	75,439	3,5	1005,44	8	9,9	9,7	1	1	1	1	1	1	1	1	1	0	1	-32,9105	275,265628	292,619486	0
14.01.2021	18:18:34	0	0	3,389214	4,71	86,3064	1,34	75,47	3,5	1005,46	8	9,9	9,7	1	1	1	1	1	1	1	1	1	0	1	-27,69556	275,333906	298,157529	0
14.01.2021	18:18:35	0	0	4,18003	4,81275	98,0532	1,336	75,47	3,5	1005,42	8	9,9	9,7	1	1	1	1	1	1	1	1	1	0	1	-31,994362	275,172334	293,094527	0
14.01.2021	18:18:36	0	0	2,598397	4,758	95,8464	1,342	75,493	3,5	1005,4	8	9,9	9,7	1	1	1	1	1	1	1	1	1	0	1	-29,386892	275,21023	295,881116	0
14.01.2021	18:18:37	0	0	3,389214	4,58925	101,1204	1,344	75,49	3,5	1005,46	8	9,8	9,7	1	1	1	1	1	1	1	1	1	0	1	-29,105004	275,158142	295,916826	0
14.01.2021	18:18:38	0	0	2,711371	4,218	81,216	1,337	75,491	3,5	1005,44	8	9,9	9,7	1	1	1	1	1	1	1	1	1	0	1	-30,021142	275,202329	295,209515	0
14.01.2021	18:18:39	0	0	4,631925	4,329	94,7736	1,332	75,507	3,5	1005,42	8	9,9	9,7	1	1	1	1	1	1	1	1	1	0	1	-36,363636	275,34027	289,51958	0
14.01.2021	18:18:40	0	0	4,405978	4,3665	88,9416	1,338	75,513	3,5	1005,44	8	9,8	9,7	1	1	1	1	1	1	1	1	1	0	1	-29,739253	275,264043	295,783235	0
14.01.2021	18:18:41	0	0	4,067056	4,15125	126,8964	1,34	75,514	3,5	1005,5	8	9,9	9,7	1	1	1	1	1	1	1	1	1	0	1	-33,192389	275,351411	292,743577	0
14.01.2021	18:18:42	0	0	2,711371	3,72825	104,7096	1,338	75,537	3,5	1005,36	8	9,9	9,7	1	1	1	1	1	1	1	1	1	0	1	-27,766032	275,207069	297,487033	0
14.01.2021	18:18:43	0	0	3,954082	3,5805	96,6636	1,338	75,528	3,5	1005,52	8	9,9	9,7	1	1	1	1	1	1	1	1	1	0	1	-29,598309	275,172334	295,490581	0
14.01.2021	18:18:44	0	0	2,711371	3,909	95,8428	1,339	75,537	3,5	1005,4	8	9,9	9,7	1	1	1	1	1	1	1	1	1	0	1	-32,276251	275,178645	292,842462	0
14.01.2021	18:18:45	0	0	4,18003	4,392	90,7704	1,336	75,529	3,5	1005,42	8	9,9	9,7	1	1	1	1	1	1	1	1	1	0	1	-30,232558	275,273555	295,334927	0
14.01.2021	18:18:46	0	0	3,615161	4,61175	85,2948	1,338	75,551	3,5	1005,38	8	9,9	9,7	1	1	1	1	1	1	1	1	1	0	1	-29,668781	275,338679	296,206902	0
14.01.2021	18:18:47	0	0	4,067056	4,6065	103,3272	1,335	75,552	3,5	1005,44	8	9,9	9,7	1	1	1	1	1	1	1	1	1	0	1	-31,712474	275,297355	293,967622	0
14.01.2021	18:18:48	0	0	2,711371	4,40025	111,438	1,333	75,556	3,5	1005,36	8	9,9	9,7	1	1	1	1	1	1	1	1	1	0	1	-29,175476	275,321185	296,617397	0
14.01.2021	18:18:49	0	0	4,067056	4,4295	113,04	1,336	75,572	3,5	1005,44	8	9,9	9,7	1	1	1	1	1	1	1	1	1	0	1	-32,417195	275,279899	293,180303	0
14.01.2021	18:18:50	0	0	3,050292	4,767	120,5316	1,338	75,59	3,5	1005,26	8	9,9	9,7	1	1	1	1	1	1	1	1	1	0	1	-29,175476	275,303707	296,534677	0
14.01.2021	18:18:51	0	0	4,067081	5,29275	127,2276	1,328	75,597	3,5	1005,32	7,9	9,9	9,6	1	1	1	1	1	1	1	1	1	0	1	-29,668781	275,327545	296,154195	0
14.01.2021	18:18:52	0	0	2,598397	4,85025	121,734	1,334	75,616	3,5	1005,36	8	9,9	9,7	1	1	1	1	1	1	1	1	1	0	1	-32,276251	275,252952	293,193775	0
14.01.2021	18:18:53	0	0	2,372449	4,72875	124,3368	1,334	75,62	3,5	1005,38	8	9,9	9,7	1	1	1	1	1	1	1	1	1	0	1	-29,950669	275,194431	295,242655	0
14.01.2021	18:18:54	0	0	4,744899	4,5045	108,5184	1,33	75,636	3,5	1005,32	8	9,9	9,7	1	1	1	1	1	1	1	1	1	0	1	-31,007752	275,332316	294,837808	0
14.01.2021	18:18:55	0	0	4,293004	4,26375	102,9348	1,334	75,649	3,5	1005,32	8,1	9,8	9,7	1	1	1	1	1	1	1	1	1	0	1	-27,836505	275,245033	297,59607	0
14.01.2021	18:18:56	0	0	4,18003	4,16175	118,71	1,33	75,653	3,5	1005,54	8	9,9	9,7	1	1	1	1	1	1	1	1	1	0	1	-32,628612	275,189694	292,542321	0
14.01.2021	18:18:57	0	0	4,067056	4,158	123,1092	1,332	75,659	3,5	1005,54	8	9,9	9,7	1	1	1	1	1	1	1	1	1	0	1	-33,403805	275,275141	292,171182	0
14.01.2021	18:18:58	0	0	3,728135	3,9405	91,8828	1,33	75,675	3,5	1005,24	8	9,9	9,7	1	1	1	1	1	1	1	1	1	0	1	-29,739253	275,316417	296,031051	0
14.01.2021	18:18:59	0	0	4,518951	3,61725	84,042	1,329	75,68	3,5	1005,38	8	9,9	9,7	1	1	1	1	1	1	1	1	1	0	1	-28,893587	275,322775	296,90681	0
14.01.2021	18:19:00	0	0	2,259476	3,53025	90,774	1,324	75,655	3,5	1005,32	8	9,9	9,7	1	1	1	1	1	1	1	1	1	0	1	-27,69556	275,254536	297,781958	0
14.01.2021	18:19:01	0	0	2,259476	3,53025	90,774	1,324	75,655	3,5	1005,32	8	9,9	9,7	1	1	1	1	1	1	1	1	1	0	1	-27,69556	275,254536	297,781958	0
14.01.2021	18:19:02	0	0	3,27624	3,849	94,1004	1,329	75,657	3,5	1005,5	8	9,9	9,7	1	1	1	1	1	1	1	1	1	0	1	-33,262861	275,329135	292,567642	0
14.01.2021	18:19:03	0	0	3,502187	4,27125	84,0564	1,331	75,655	3,5	1005,48	8	9,9	9,7	1	1	1	1	1	1	1	1	1	0	1	-30,866808	275,289419	294,775733	0
14.01.2021	18:19:04	0	0	3,954082	4,82625	84,5352	1,327	75,669	3,5	1005,48	8	9,9	9,7	1	1	1	1	1	1	1	1	1	0	1	-25,08809	275,271969	300,471894	0
14.01.2021	18:19:05	0	0	1,920554	5,6685	93,7188	1,329	75,628	3,5	1005,42	8	9,9	9,7	1	1	1	1	1	1	1	1	1	0	1	-28,188865	275,349819	297,739562	0
14.01.2021	18:19:06	0	0	2,824362	6,21	90,4068	1,331	75,644	3,5	1005,44	8	9,9	9,6	1	1	1	1	1	1	1	1	1	0	1	-29,739253	275,218134	295,566125	0
14.01.2021	18:19:07	0	0	3,163266	5,85825	93,348	1,336	75,642	3,5	1005,48	8	9,9	9,7	1	1	1	1	1	1	1	1	1	0	1	-30,93728	275,158142	294,084549	0
14.01.2021	18:19:08	0	0	4,518979	5,7615	99,1404	1,325	75,629	3,5	1005,46	7,9	9,9	9,6	1	1	1	1	1	1	1	1	1	0	1	-28,893587	275,287832	296,741444	0
14.01.2021	18:19:09	0	0	4,631925	6,01725	98,4924	1,326	75,632	3,5	1005,38	8	9,9	9,7	1	1	1	1	1	1	1	1	1	0	1	-28,259338	275,150262	296,725261	0
14.01.2021	18:19:10	0	0	4,744899	6,13425	102,978	1,329	75,642	3,5	1005,44	8	9,9	9,7	1	1	1	1	1	1	1	1	1	0	1	-31,994362	275,254536	293,483156	0
14.01.2021	18:19:11	0	0	2,033528	5,79525	103,6836	1,322	75,648	3,5	1005,4	8	9,9	9,7	1	1	1	1	1	1	1	1	1	0	1	-31,219168	275,34027	294,664048	0
14.01.2021	18:19:12	0	0	3,502187	5,7795	99,1584	1,325	75,646	3,5	1005,5	8,1	9,9	9,7	1	1	1	1	1	1	1	1	1	0	1	-35,16561	275,251368	290,296924	0
14.01.2021	18:19:13	0	0	2,937318	5,679	102,2076	1,33	75,657	3,5	1005,46	8	9,9	9,7	1	1	1	1	1	1	1	1	1	0	1	-35,588443	275,164448	289,463184	0
14.01.2021	18:19:14	0	0	4,293004	5,3415	95,1516	1,327	75,659	3,5	1005,46	8	9,9	9,7	1	1	1	1	1	1	1	1	1	0	1	-32,487667	275,31165	293,260074	0
14.01.2021	18:19:15	0	0	2,372449	5,3835	101,5128	1,332	75,654	3,5	1005,38	8	10	9,7	1	1	1	1	1	1	1	1	1	0	1	-30,232558	275,169179	294,841424	0
14.01.2021	18:19:16	0	0	2,598397	5,48625	110,3508	1,326	75,657	3,5	1005,38	8	9,9	9,7	1	1	1	1	1	1	1	1	1	0	1	-30,655391	275,194431	294,537933	0
14.01.2021	18:19:17	0	0	2,937318	5,6175	109,62	1,325	75,671	3,5	1005,5	8	9,9	9,7	1	1	1	1	1	1	1	1	1	0	1	-33,192389	275,273555	292,375097	0
14.01.2021	18:19:18	0	0	4,18003	5,688	107,4312	1,329	75,665	3,5	1005,46	8	9,8	9,7	1	1	1	1	1	1	1	1	1	0	1	-32,980973	275,345044	292,924846	0
14.01.2021	18:19:19	0	0	3,27624	5,7465	108,504	1,33	75,669	3,5	1005,36	8	9,9	9,7	1	1	1	1	1	1	1	1	1	0	1	-27,343199	275,200749	297,87999	0
14.01.2021	18:19:20	0	0	3,841109	5,664	100,3896	1,329	75,67	3,5	1005,48	8	9,9	9,7	1	1	1	1	1	1	1	1	1	0	1	-32,417195	275,177067	292,694061	0
14.01.2021	18:19:21	0	0	3,163266	5,61675	102,9384	1,331	75,691	3,5	1005,3	8	9,9	9,7	1	1	1	1	1	1	1	1	1	0	1	-33,121917	275,281485	292,483087	0
14.01.2021	18:19:22	0	0	4,518951	5,514	105,6132	1,326	75,694	3,5	1005,48	8,1	9,9	9,7	1	1	1	1	1	1	1	1	1	0	1	-29,386892	275,153413	295,612597	0
14.01.2021	18:19:23	0	0	4,518979	5,36325	117,432	1,328	75,703	3,5	1005,22	7,9	9,9	9,6	1	1	1	1	1	1	1	1	1	0	1	-32,276251	275,291006	293,373799	0
14.01.2021	18:19:24	0	0	4,180055	5,7375	118,3392	1,332	75,712	3,5	1005,44	8	10	9,6	1	1	1	1	1	1	1	1	1	0	1	-31,007752	275,337088	294,860399	0
14.01.2021	18:19:25	0	0	3,050292	5,71275	116,352	1,325	75,709	3,5	1005,38	8	9,9	9,7	1	1	1	1	1	1	1	1	1	0	1	-31,853418	275,21023	293,414591	0
14.01.2021	18:19:26	0	0	2,824345	5,5215	120,5352	1,331	75,719	3,5	1005,5	8	9,9	9,7	1	1	1	1	1	1	1	1	1	0	1	-31,289641	275,167602	293,776889	0
14.01.2021	18:19:27	0	0	3,163266	5,04525	109,2924	1,326	75,71	3,5	1005,48	7,9	9,9	9,7	1	1	1	1	1	1	1	1	1	0	1	-31,148696	275,310061	294,591526	0
14.01.2021	18:19:28	0	0	3,389214	4,92375	111,7944	1,317	75,716	3,5	1005,42	8,1	9,9	9,7	1	1	1	1	1	1	1	1	1	0	1	-31,853418	275,351411	294,082548	0
14.01.2021	18:19:29	0	0	2,598413	4,581	115,5672	1,325	75,717	3,5	1005,1	8	9,9	9,6	1	1	1	1	1	1	1	1	1	0	1	-32,487667	275,207069	292,765398	0
14.01.2021	18:19:30	0	0	3,502187	4,40025	110,664	1,32	75,717	3,5	1005,28	8,1	9,9	9,7	1	1	1	1	1	1	1	1	1	0	1	-30,021142	275,348227	295,899749	0
14.01.2021	18:19:31	0	0	4,405978	4,3335	106,686	1,328	75,713	3,5	1005,4	8	9,9	9,7	1	1	1	1	1	1	1	1	1	0	1	-32,980973	275,316417	292,789332	0
14.01.2021	18:19:32	0	0	2,711371	4,578	105,5268	1,33	75,736	3,5	1005,5	8	9,9	9,7	1	1	1	1	1	1	1	1	1	0	1	-32,840028	275,332316	293,005532	0
14.01.2021	18:19:33	0	0	3,728135	4,99425	106,2936	1,326	75,719	3,5	1005,3	8	9,9	9,7	1	1	1	1	1	1	1	1	1	0	1	-30,866808	275,295768	294,805775	0
14.01.2021	18:19:34	0	0	4,857902	5,04	105,4872	1,327	75,73	3,5	1005,56	8	9,9	9,6	1	1	1	1	1	1	1	1	1	0	1	-33,826638	275,29418	291,838433	0
14.01.2021	18:19:35	0	0	4,29303	5,067	103,7772	1,32	75,729	3,5	1005,52	7,9	9,8	9,6	1	1	1	1	1	1	1	1	1	0	1	-32,205779	275,162871	292,838397	0
14.01.2021	18:19:36	0	0	3,954082	5,037	109,6308	1,325	75,731	3,5	1005,48	8,1	9,9	9,7	1	1	1	1	1	1	1	1	1	0	1	-33,967583	275,313239	291,787679	0
14.01.2021	18:19:37	0	0	3,389214	5,118	109,9836	1,331	75,723	3,5	1005,34	7,9	9,9	9,7	1	1	1	1	1	1	1	1	1	0	1	-32,064834	275,216553	293,233069	0
14.01.2021	18:19:38	0	0	3,954106	4,88475	96,2028	1,324	75,723	3,5	1005,48	7,9	9,9	9,6	1	1	1	1	1	1	1	1	1	0	1	-30,796335	275,349819	295,132092	0
14.01.2021	18:19:39	0	0	2,259476	4,9335	99,8856	1,322	75,718	3,5	1005,36	8	9,9	9,7	1	1	1	1	1	1	1	1	1	0	1	-29,598309	275,262458	295,916683	0
14.01.2021	18:19:40	0	0	4,405978	5,09475	101,1276	1,327	75,717	3,5	1005,44	8	9,9	9,7	1	1	1	1	1	1	1	1	1	0	1	-26,356589	275,343452	299,541694	0
14.01.2021	18:19:41	0	0	3,502208	5,1975	102,96	1,333	75,726	3,5	1005,56	8	9,9	9,6	1	1	1	1	1	1	1	1	1	0	1	-34,038055	275,166025	291,021023	0
14.01.2021	18:19:42	0	0	2,03354	5,301	92,25	1,335	75,708	3,5	1005,4	8	9,9	9,6	1	1	1	1	1	1	1	1	1	0	1	-30,866808	275,219715	294,446047	0
14.01.2021	18:19:43	0	0	2,937318	5,55225	99,5112	1,326	75,693	3,5	1005,28	8	9,8	9,7	1	1	1	1	1	1	1	1	1	0	1	-32,769556	275,192852	292,416304	0
14.01.2021	18:19:44	0	0	2,372464	5,607	92,736	1,335	75,703	3,5	1005,4	8	10	9,6	1	1	1	1	1	1	1	1	1	0	1	-31,853418	275,278313	293,736576	0
14.01.2021	18:19:45	0	0	2,824345	5,16975	104,4324	1,33	75,699	3,5	1005,42	7,9	9,8	9,7	1	1	1	1	1	1	1	1	1	0	1	-31,712474	275,345044	294,193345	0
14.01.2021	18:19:46	0	0	2,711371	4,773	88,1136	1,326	75,698	3,5	1005,32	8	9,9	9,7	1	1	1	1	1	1	1	1	1	0	1	-29,386892	275,214972	295,903536	0
14.01.2021	18:19:47	0	0	3,954106	4,689	98,4348	1,331	75,697	3,5	1005,38	8,1	9,9	9,6	1	1	1	1	1	1	1	1	1	0	1	-31,782946	275,354596	294,168098	0
14.01.2021	18:19:48	0	0	2,598397	4,42575	97,6968	1,333	75,702	3,5	1005,26	8	9,9	9,7	1	1	1	1	1	1	1	1	1	0	1	-32,980973	275,283072	292,631537	0
14.01.2021	18:19:49	0	0	3,615161	4,52025	98,7552	1,335	75,69	3,5	1005,48	8	9,8	9,7	1	1	1	1	1	1	1	1	1	0	1	-32,980973	275,341861	292,909777	0
14.01.2021	18:19:50	0	0	3,389214	4,878	104,0364	1,332	75,682	3,5	1005,48	8	10	9,7	1	1	1	1	1	1	1	1	1	0	1	-30,30303	275,314828	295,459752	0
14.01.2021	18:19:51	0	0	3,615161	5,208	106,29	1,336	75,675	3,5	1005,38	7,9	9,9	9,7	1	1	1	1	1	1	1	1	1	0	1	-32,135307	275,154989	292,871628	0
14.01.2021	18:19:52	0	0	3,954082	5,20275	112,3812	1,328	75,662	3,5	1005,48	8	9,8	9,7	1	1	1	1	1	1	1	1	1	0	1	-32,276251	275,166025	292,782827	0
14.01.2021	18:19:53	0	0	2,711371	4,806	94,1004	1,328	75,661	3,5	1005,56	8	9,9	9,7	1	1	1	1	1	1	1	1	1	0	1	-33,897111	275,237118	291,498031	0
14.01.2021	18:19:54	0	0	2,711387	4,5345	99,1656	1,332	75,64	3,5	1005,44	8	9,9	9,6	1	1	1	1	1	1	1	1	1	0	1	-30,373502	275,177067	294,737754	0
14.01.2021	18:19:55	0	0	3,615183	4,614	93,7188	1,327	75,652	3,5	1005,22	7,9	9,9	9,6	1	1	1	1	1	1	1	1	1	0	1	-33,051445	275,333906	292,801645	0
14.01.2021	18:19:56	0	0	3,163285	4,5105	96,9768	1,331	75,633	3,5	1005,38	8	10	9,6	1	1	1	1	1	1	1	1	1	0	1	-29,880197	275,240284	295,529915	0
14.01.2021	18:19:57	0	0	4,067056	3,94425	101,1168	1,331	75,635	3,5	1005,32	8	9,9	9,7	1	1	1	1	1	1	1	1	1	0	1	-32,487667	275,353003	293,455837	0
14.01.2021	18:19:58	0	0	3,841109	3,66825	107,442	1,329	75,637	3,5	1005,42	8	9,9	9,7	1	1	1	1	1	1	1	1	1	0	1	-29,245948	275,283072	296,366562	0
14.01.2021	18:19:59	0	0	4,406004	3,627	108,8568	1,331	75,649	3,5	1005,52	8	9,9	9,6	1	1	1	1	1	1	1	1	1	0	1	-29,668781	275,170756	295,412655	0
14.01.2021	18:20:00	0	0	3,954082	4,52625	84,0636	1,33	75,636	3,5	1005,4	8	10	9,7	1	1	1	1	1	1	1	1	1	0	1	-29,739253	275,318006	296,038573	0
14.01.2021	18:20:01	0	0	4,631953	4,6965	90,7668	1,329	75,642	3,5	1005,46	8,1	10	9,6	1	1	1	1	1	1	1	1	1	0	1	-34,742777	275,345044	291,163042	0
14.01.2021	18:20:02	0	0	4,631953	4,6965	90,7668	1,329	75,642	3,5	1005,46	8,1	10	9,6	1	1	1	1	1	1	1	1	1	0	1	-34,742777	275,345044	291,163042	0
14.01.2021	18:20:03	0	0	2,824345	4,7625	90,7488	1,327	75,626	3,5	1005,32	7,9	9,9	9,7	1	1	1	1	1	1	1	1	1	0	1	-34,672304	275,21023	290,595704	0
14.01.2021	18:20:04	0	0	3,050311	4,494	81,2088	1,33	75,607	3,5	1005,36	8	9,9	9,6	1	1	1	1	1	1	1	1	1	0	1	-32,346723	275,338679	293,52896	0
14.01.2021	18:20:05	0	0	3,050292	4,54275	74,9268	1,331	75,632	3,5	1005,32	8,1	9,9	9,7	1	1	1	1	1	1	1	1	1	0	1	-30,584919	275,180223	294,541252	0
14.01.2021	18:20:06	0	0	3,954082	4,3065	80,5104	1,326	75,617	3,5	1005,34	8	9,9	9,7	1	1	1	1	1	1	1	1	1	0	1	-27,625088	275,306884	298,100098	0
14.01.2021	18:20:07	0	0	3,841109	4,221	113,7528	1,328	75,616	3,5	1005,32	8	9,9	9,7	1	1	1	1	1	1	1	1	1	0	1	-32,276251	275,349819	293,652177	0
14.01.2021	18:20:08	0	0	3,841132	4,182	96,6204	1,33	75,613	3,5	1005,46	8	9,9	9,6	1	1	1	1	1	1	1	1	1	0	1	-32,980973	275,241867	292,436626	0
14.01.2021	18:20:09	0	0	4,518979	4,125	65,0772	1,331	75,608	3,5	1005,44	8	9,8	9,6	1	1	1	1	1	1	1	1	1	0	1	-28,118393	275,154989	296,888542	0
14.01.2021	18:20:10	0	0	3,050311	4,245	85,5216	1,329	75,62	3,5	1005,44	8,1	10	9,6	1	1	1	1	1	1	1	1	1	0	1	-30,232558	275,289419	295,409982	0
14.01.2021	18:20:11	0	0	4,18003	3,96825	93,3444	1,336	75,616	3,5	1005,46	8,1	9,9	9,7	1	1	1	1	1	1	1	1	1	0	1	-29,386892	275,162871	295,657284	0
14.01.2021	18:20:12	0	0	3,728135	3,7905	92,2788	1,332	75,605	3,5	1005,38	8	9,8	9,7	1	1	1	1	1	1	1	1	1	0	1	-31,712474	275,303707	293,99768	0
14.01.2021	18:20:13	0	0	2,711371	4,047	87,354	1,322	75,612	3,5	1005,38	8	9,9	9,7	1	1	1	1	1	1	1	1	1	0	1	-32,276251	275,278313	293,313743	0
14.01.2021	18:20:14	0	0	2,598413	3,86475	97,3224	1,33	75,589	3,5	1005,52	8	9,8	9,6	1	1	1	1	1	1	1	1	1	0	1	-27,836505	275,332316	298,009055	0
14.01.2021	18:20:15	0	0	2,598397	3,753	87,372	1,335	75,601	3,5	1005,38	8	10	9,7	1	1	1	1	1	1	1	1	1	0	1	-31,501057	275,265628	294,028929	0
14.01.2021	18:20:16	0	0	3,954082	3,4125	107,424	1,333	75,598	3,5	1005,44	8	9,8	9,7	1	1	1	1	1	1	1	1	1	0	1	-26,849894	275,332316	298,995666	0
14.01.2021	18:20:17	0	0	4,18003	3,177	114,8436	1,331	75,608	3,5	1005,44	7,9	9,8	9,7	1	1	1	1	1	1	1	1	1	0	1	-27,343199	275,194431	297,850125	0
14.01.2021	18:20:18	0	0	2,711387	3,1155	99,882	1,33	75,608	3,5	1005,5	8	9,8	9,6	1	1	1	1	1	1	1	1	1	0	1	-31,642001	275,151838	293,350042	0
14.01.2021	18:20:19	0	0	2,824362	3,14325	93,3336	1,335	75,604	3,5	1005,46	8	9,8	9,6	1	1	1	1	1	1	1	1	1	0	1	-29,386892	275,19759	295,821363	0
14.01.2021	18:20:20	0	0	4,744927	3,43125	90,0072	1,326	75,597	3,5	1005,44	7,9	9,8	9,6	1	1	1	1	1	1	1	1	1	0	1	-30,514447	275,327545	295,308529	0
14.01.2021	18:20:21	0	0	2,711371	3,6645	96,9588	1,33	75,586	3,5	1005,48	8,1	10	9,7	1	1	1	1	1	1	1	1	1	0	1	-30,866808	275,281485	294,738196	0
14.01.2021	18:20:22	0	0	2,711387	3,70875	100,3572	1,327	75,622	3,5	1005,52	8	9,8	9,6	1	1	1	1	1	1	1	1	1	0	1	-33,756166	275,202329	291,474491	0
14.01.2021	18:20:23	0	0	2,372464	3,66375	94,086	1,33	75,622	3,5	1005,3	8	10	9,6	1	1	1	1	1	1	1	1	1	0	1	-32,980973	275,327545	292,842003	0
14.01.2021	18:20:24	0	0	4,29303	3,9255	107,0532	1,332	75,61	3,5	1005,36	8	9,8	9,6	1	1	1	1	1	1	1	1	1	0	1	-29,386892	275,279899	296,210606	0
14.01.2021	18:20:25	0	0	3,163266	3,942	96,6204	1,331	75,611	3,5	1005,56	7,9	9,9	9,7	1	1	1	1	1	1	1	1	1	0	1	-31,289641	275,325954	294,525808	0
14.01.2021	18:20:26	0	0	2,824345	3,5685	110,3868	1,329	75,608	3,5	1005,42	8	9,8	9,7	1	1	1	1	1	1	1	1	1	0	1	-30,93728	275,286245	294,690244	0
14.01.2021	18:20:27	0	0	2,937318	3,53175	113,7204	1,324	75,628	3,5	1005,42	7,9	9,9	9,7	1	1	1	1	1	1	1	1	1	0	1	-30,866808	275,321185	294,926065	0
14.01.2021	18:20:28	0	0	4,744927	3,9045	109,3032	1,327	75,628	3,5	1005,52	7,9	9,8	9,6	1	1	1	1	1	1	1	1	1	0	1	-28,400282	275,321185	297,392591	0
14.01.2021	18:20:29	0	0	3,954082	4,2675	112,6512	1,328	75,635	3,5	1005,54	8,1	10	9,7	1	1	1	1	1	1	1	1	1	0	1	-31,007752	275,265628	294,522234	0
14.01.2021	18:20:30	0	0	3,954106	4,3815	95,5044	1,332	75,633	3,5	1005,52	8	9,8	9,6	1	1	1	1	1	1	1	1	1	0	1	-32,135307	275,324365	293,672616	0
14.01.2021	18:20:31	0	0	4,405978	4,94175	91,5372	1,328	75,632	3,5	1005,58	8	9,8	9,7	1	1	1	1	1	1	1	1	1	0	1	-33,403805	275,260873	292,10369	0
14.01.2021	18:20:32	0	0	3,841132	5,07675	93,6972	1,326	75,648	3,5	1005,52	8	10	9,6	1	1	1	1	1	1	1	1	1	0	1	-32,769556	275,153413	292,229933	0
14.01.2021	18:20:33	0	0	2,598413	5,0355	92,988	1,331	75,643	3,5	1005,44	8	9,9	9,6	1	1	1	1	1	1	1	1	1	0	1	-29,245948	275,230788	296,119261	0
14.01.2021	18:20:34	0	0	4,631925	4,97925	85,6512	1,328	75,654	3,5	1005,5	8	9,8	9,7	1	1	1	1	1	1	1	1	1	0	1	-30,232558	275,159718	294,796719	0
14.01.2021	18:20:35	0	0	3,163285	5,0565	95,8536	1,322	75,627	3,5	1005,66	8	9,9	9,6	1	1	1	1	1	1	1	1	1	0	1	-31,853418	275,203909	293,384708	0
14.01.2021	18:20:36	0	0	4,631953	4,689	95,526	1,331	75,637	3,5	1005,48	7,9	9,9	9,6	1	1	1	1	1	1	1	1	1	0	1	-27,836505	275,333906	298,016585	0
14.01.2021	18:20:37	0	0	2,824362	4,40025	98,478	1,326	75,641	3,5	1005,36	7,9	9,8	9,6	1	1	1	1	1	1	1	1	1	0	1	-31,92389	275,216553	293,374013	0
14.01.2021	18:20:38	0	0	2,598413	4,35975	111,0456	1,325	75,638	3,5	1005,46	7,9	10	9,6	1	1	1	1	1	1	1	1	1	0	1	-27,977449	275,147111	296,992263	0
14.01.2021	18:20:39	0	0	3,502208	4,278	106,29	1,329	75,642	3,5	1005,42	8	9,8	9,6	1	1	1	1	1	1	1	1	1	0	1	-31,430585	275,276727	294,151906	0
14.01.2021	18:20:40	0	0	3,841109	4,2915	91,1772	1,325	75,632	3,5	1005,48	8	9,9	9,7	1	1	1	1	1	1	1	1	1	0	1	-27,69556	275,327545	298,127415	0
14.01.2021	18:20:41	0	0	4,293004	4,926	96,6852	1,33	75,649	3,5	1005,22	7,9	9,9	9,7	1	1	1	1	1	1	1	1	1	0	1	-30,866808	275,23237	294,505883	0
14.01.2021	18:20:42	0	0	2,824345	5,04	94,122	1,326	75,642	3,5	1005,44	7,9	9,9	9,7	1	1	1	1	1	1	1	1	1	0	1	-31,501057	275,327545	294,321918	0
14.01.2021	18:20:43	0	0	3,954082	4,992	84,0564	1,331	75,659	3,5	1005,42	8	10	9,7	1	1	1	1	1	1	1	1	1	0	1	-29,386892	275,21023	295,881116	0
14.01.2021	18:20:44	0	0	2,485423	5,35275	99,9864	1,322	75,669	3,5	1005,42	8	9,9	9,7	1	1	1	1	1	1	1	1	1	0	1	-33,403805	275,145535	291,558464	0
14.01.2021	18:20:45	0	0	4,180055	5,2875	94,3884	1,328	75,671	3,5	1005,46	8	9,9	9,6	1	1	1	1	1	1	1	1	1	0	1	-29,950669	275,262458	295,564322	0
14.01.2021	18:20:46	0	0	4,180055	4,91025	98,1072	1,328	75,677	3,5	1005,32	8	10	9,6	1	1	1	1	1	1	1	1	1	0	1	-29,175476	275,170756	295,90596	0
14.01.2021	18:20:47	0	0	3,728135	4,45875	83,7576	1,331	75,682	3,5	1005,32	7,9	9,8	9,7	1	1	1	1	1	1	1	1	1	0	1	-29,668781	275,180223	295,45739	0
14.01.2021	18:20:48	0	0	4,406004	4,37025	94,4208	1,332	75,692	3,5	1005,58	8	9,8	9,6	1	1	1	1	1	1	1	1	1	0	1	-32,840028	275,333906	293,013062	0
14.01.2021	18:20:49	0	0	2,937336	4,48425	84,3948	1,324	75,688	3,5	1005,44	8	9,8	9,6	1	1	1	1	1	1	1	1	1	0	1	-33,54475	275,186536	291,61126	0
14.01.2021	18:20:50	0	0	2,598397	4,491	93,3516	1,329	75,699	3,5	1005,44	7,9	9,8	9,7	1	1	1	1	1	1	1	1	1	0	1	-30,655391	275,327545	295,167584	0
14.01.2021	18:20:51	0	0	4,067056	4,452	86,2632	1,327	75,695	3,5	1005,34	7,9	9,9	9,7	1	1	1	1	1	1	1	1	1	0	1	-32,346723	275,295768	293,32586	0
14.01.2021	18:20:52	0	0	3,163285	4,47375	94,7952	1,325	75,71	3,5	1005,46	8	9,9	9,6	1	1	1	1	1	1	1	1	1	0	1	-26,145173	275,305295	299,572497	0
14.01.2021	18:20:53	0	0	3,954106	4,26825	84,42	1,329	75,707	3,5	1005,48	8	9,8	9,6	1	1	1	1	1	1	1	1	1	0	1	-33,54475	275,166025	291,514328	0
14.01.2021	18:20:54	0	0	3,276259	4,08	88,1172	1,326	75,697	3,5	1005,36	8	9,8	9,6	1	1	1	1	1	1	1	1	1	0	1	-30,373502	275,268798	295,171481	0
14.01.2021	18:20:55	0	0	2,711387	3,8205	84,798	1,331	75,708	3,5	1005,5	8	10	9,6	1	1	1	1	1	1	1	1	1	0	1	-29,175476	275,162871	295,8687	0
14.01.2021	18:20:56	0	0	3,389234	3,81225	81,594	1,332	75,705	3,5	1005,5	8	9,8	9,6	1	1	1	1	1	1	1	1	1	0	1	-32,840028	275,24345	292,585058	0
14.01.2021	18:20:57	0	0	3,615161	4,119	79,5348	1,33	75,7	3,5	1005,42	8	9,8	9,7	1	1	1	1	1	1	1	1	1	0	1	-32,276251	275,324365	293,531672	0
14.01.2021	18:20:58	0	0	4,631953	4,33125	83,3472	1,328	75,705	3,5	1005,4	8	9,8	9,6	1	1	1	1	1	1	1	1	1	0	1	-31,642001	275,216553	293,655902	0
14.01.2021	18:20:59	0	0	3,163285	4,25325	79,0632	1,329	75,683	3,5	1005,4	7,9	10	9,6	1	1	1	1	1	1	1	1	1	0	1	-38,195913	275,330725	287,642118	0
14.01.2021	18:21:00	0	0	2,711387	4,48875	84,8196	1,324	75,682	3,5	1005,44	8	9,8	9,6	1	1	1	1	1	1	1	1	1	0	1	-32,628612	275,150262	292,355987	0
14.01.2021	18:21:01	0	0	2,485438	4,23075	92,6604	1,331	75,679	3,5	1005,7	8	9,8	9,6	1	1	1	1	1	1	1	1	1	0	1	-38,12544	275,151838	286,866603	0
14.01.2021	18:21:02	0	0	2,485438	4,23075	92,6604	1,331	75,679	3,5	1005,7	8	9,8	9,6	1	1	1	1	1	1	1	1	1	0	1	-38,12544	275,151838	286,866603	0
14.01.2021	18:21:03	0	0	4,744899	4,2015	88,5672	1,327	75,675	3,5	1005,42	8,1	9,8	9,7	1	1	1	1	1	1	1	1	1	0	1	-31,219168	275,22446	294,116119	0
14.01.2021	18:21:04	0	0	4,631953	4,3635	95,166	1,323	75,685	3,5	1005,42	7,9	10	9,6	1	1	1	1	1	1	1	1	1	0	1	-29,598309	275,161295	295,438418	0
14.01.2021	18:21:05	0	0	2,711387	4,404	88,1136	1,331	75,677	3,5	1005,42	8,1	10	9,6	1	1	1	1	1	1	1	1	1	0	1	-33,403805	275,321185	292,389068	0
14.01.2021	18:21:06	0	0	2,711387	4,3905	98,7552	1,326	75,672	3,5	1005,48	8	9,8	9,6	1	1	1	1	1	1	1	1	1	0	1	-35,16561	275,191272	290,012786	0
14.01.2021	18:21:07	0	0	4,18003	4,4175	99,9072	1,334	75,669	3,5	1005,46	8	10	9,7	1	1	1	1	1	1	1	1	1	0	1	-35,588443	275,297355	290,091653	0
14.01.2021	18:21:08	0	0	3,954106	4,26075	99,1548	1,329	75,664	3,5	1005,46	7,9	9,8	9,6	1	1	1	1	1	1	1	1	1	0	1	-33,403805	275,316417	292,366499	0
14.01.2021	18:21:09	0	0	2,598413	4,1685	102,5892	1,331	75,655	3,5	1005,26	8,1	9,9	9,6	1	1	1	1	1	1	1	1	1	0	1	-29,950669	275,161295	295,086057	0
14.01.2021	18:21:10	0	0	4,744927	4,02225	103,3092	1,334	75,658	3,5	1005,4	8	9,8	9,6	1	1	1	1	1	1	1	1	1	0	1	-31,782946	275,319595	294,002404	0
14.01.2021	18:21:11	0	0	2,711387	3,801	98,46	1,332	75,668	3,5	1005,46	7,9	10	9,6	1	1	1	1	1	1	1	1	1	0	1	-32,205779	275,173911	292,890566	0
14.01.2021	18:21:12	0	0	3,954082	3,68775	111,4092	1,327	75,656	3,5	1005,42	8	10	9,7	1	1	1	1	1	1	1	1	1	0	1	-30,162086	275,181801	294,971544	0
14.01.2021	18:21:13	0	0	2,485438	3,567	107,7516	1,325	75,643	3,5	1005,46	8	9,8	9,6	1	1	1	1	1	1	1	1	1	0	1	-26,145173	275,21181	299,130308	0
14.01.2021	18:21:14	0	0	3,841132	3,2985	94,3956	1,334	75,639	3,5	1005,42	7,9	9,9	9,6	1	1	1	1	1	1	1	1	1	0	1	-29,668781	275,158142	295,353048	0
14.01.2021	18:21:15	0	0	3,841132	3,0795	98,5572	1,333	75,649	3,5	1005,6	8,1	10	9,6	1	1	1	1	1	1	1	1	1	0	1	-30,584919	275,175489	294,518881	0
14.01.2021	18:21:16	0	0	4,067081	3,096	83,0088	1,329	75,649	3,5	1005,58	8	9,8	9,6	1	1	1	1	1	1	1	1	1	0	1	-36,15222	275,270384	289,400264	0
14.01.2021	18:21:17	0	0	3,841132	3,3	96,9948	1,333	75,649	3,5	1005,52	7,9	9,8	9,6	1	1	1	1	1	1	1	1	1	0	1	-29,598309	275,325954	296,21714	0
14.01.2021	18:21:18	0	0	4,180055	3,42975	96,6132	1,331	75,619	3,5	1005,44	7,9	10	9,6	1	1	1	1	1	1	1	1	1	0	1	-31,712474	275,327545	294,110502	0
14.01.2021	18:21:19	0	0	3,615183	3,46875	93,348	1,327	75,628	3,5	1005,54	7,9	9,8	9,6	1	1	1	1	1	1	1	1	1	0	1	-34,883721	275,237118	290,511421	0
14.01.2021	18:21:20	0	0	3,728157	3,11775	97,3476	1,323	75,631	3,5	1005,5	8	9,8	9,6	1	1	1	1	1	1	1	1	1	0	1	-31,92389	275,150262	293,060709	0
14.01.2021	18:21:21	0	0	2,824362	3,096	80,8884	1,33	75,619	3,5	1005,42	8	9,8	9,6	1	1	1	1	1	1	1	1	1	0	1	-34,178999	275,265628	291,350987	0
14.01.2021	18:21:22	0	0	4,067081	3,21525	97,6968	1,33	75,619	3,5	1005,5	8	9,8	9,6	1	1	1	1	1	1	1	1	1	0	1	-28,823115	275,335497	297,037505	0
14.01.2021	18:21:23	0	0	4,180055	3,4065	88,9704	1,322	75,614	3,5	1005,38	8	9,8	9,6	1	1	1	1	1	1	1	1	1	0	1	-29,527837	275,289419	296,114704	0
14.01.2021	18:21:24	0	0	3,954106	3,4725	90,036	1,325	75,626	3,5	1005,5	8	10	9,6	1	1	1	1	1	1	1	1	1	0	1	-34,038055	275,322775	291,762343	0
14.01.2021	18:21:25	0	0	4,857873	3,59025	98,0748	1,332	75,635	3,5	1005,5	8	9,9	9,7	1	1	1	1	1	1	1	1	1	0	1	-32,628612	275,297355	293,051484	0
14.01.2021	18:21:26	0	0	3,276259	3,6795	84,7836	1,329	75,632	3,5	1005,4	8	10	9,6	1	1	1	1	1	1	1	1	1	0	1	-33,403805	275,205489	291,84179	0
14.01.2021	18:21:27	0	0	3,502187	3,88575	104,7312	1,327	75,631	3,5	1005,42	8	9,8	9,7	1	1	1	1	1	1	1	1	1	0	1	-30,796335	275,161295	294,240391	0
14.01.2021	18:21:28	0	0	4,29303	3,681	106,6608	1,325	75,619	3,5	1005,46	8	9,8	9,6	1	1	1	1	1	1	1	1	1	0	1	-30,021142	275,233953	295,359032	0
14.01.2021	18:21:29	0	0	4,406004	3,71025	97,704	1,328	75,617	3,5	1005,52	8	9,8	9,6	1	1	1	1	1	1	1	1	1	0	1	-31,571529	275,322775	294,228868	0
14.01.2021	18:21:30	0	0	3,163285	3,942	96,21	1,323	75,606	3,5	1005,4	8,1	10	9,6	1	1	1	1	1	1	1	1	1	0	1	-27,625088	275,202329	297,605569	0
14.01.2021	18:21:31	0	0	2,598397	4,8315	102,2004	1,328	75,605	3,5	1005,42	8	9,8	9,7	1	1	1	1	1	1	1	1	1	0	1	-34,601832	275,151838	290,390211	0
14.01.2021	18:21:32	0	0	3,841132	4,905	96,2352	1,33	75,612	3,5	1005,42	8	9,8	9,6	1	1	1	1	1	1	1	1	1	0	1	-32,840028	275,241867	292,577571	0
14.01.2021	18:21:33	0	0	4,631953	4,791	90,0576	1,331	75,59	3,5	1005,46	8	9,8	9,6	1	1	1	1	1	1	1	1	1	0	1	-28,32981	275,148686	296,647345	0
14.01.2021	18:21:34	0	0	3,163285	4,83975	81,1908	1,33	75,591	3,5	1005,42	8	10	9,6	1	1	1	1	1	1	1	1	1	0	1	-30,655391	275,186536	294,500618	0
14.01.2021	18:21:35	0	0	2,485423	5,1165	91,5192	1,326	75,596	3,5	1005,5	8	9,8	9,7	1	1	1	1	1	1	1	1	1	0	1	-35,16561	275,222878	290,1622	0
14.01.2021	18:21:36	0	0	3,954082	5,5275	95,13	1,324	75,602	3,5	1005,42	8	9,9	9,7	1	1	1	1	1	1	1	1	1	0	1	-31,571529	275,162871	293,472647	0
14.01.2021	18:21:37	0	0	2,485423	5,322	102,9492	1,334	75,604	3,5	1005,28	8	10	9,7	1	1	1	1	1	1	1	1	1	0	1	-32,417195	275,183379	292,723894	0
14.01.2021	18:21:38	0	0	3,841132	5,253	78,6672	1,327	75,62	3,5	1005,46	8,1	9,8	9,6	1	1	1	1	1	1	1	1	1	0	1	-30,232558	275,154989	294,774377	0
14.01.2021	18:21:39	0	0	4,857902	5,63925	84,1104	1,326	75,629	3,5	1005,5	8	9,8	9,6	1	1	1	1	1	1	1	1	1	0	1	-35,16561	275,281485	290,439394	0
14.01.2021	18:21:40	0	0	4,631953	5,6445	84,0168	1,331	75,658	3,5	1005,44	8	9,8	9,6	1	1	1	1	1	1	1	1	1	0	1	-29,598309	275,286245	296,029215	0
14.01.2021	18:21:41	0	0	4,970876	5,403	78,6708	1,332	75,663	3,5	1005,38	8,1	10	9,6	1	1	1	1	1	1	1	1	1	0	1	-31,007752	275,278313	294,582242	0
14.01.2021	18:21:42	0	0	3,841132	5,20875	83,3436	1,321	75,677	3,5	1005,38	8	9,8	9,6	1	1	1	1	1	1	1	1	1	0	1	-31,642001	275,221297	293,67833	0
14.01.2021	18:21:43	0	0	3,502208	5,0445	89,7156	1,331	75,675	3,5	1005,44	8,1	9,8	9,6	1	1	1	1	1	1	1	1	1	0	1	-30,584919	275,153413	294,41457	0
14.01.2021	18:21:44	0	0	4,744927	4,93875	82,5876	1,33	75,695	3,5	1005,32	8	9,8	9,6	1	1	1	1	1	1	1	1	1	0	1	-32,276251	275,321185	293,516622	0
14.01.2021	18:21:45	0	0	3,615183	5,17575	70,218	1,331	75,689	3,5	1005,4	8,1	9,8	9,6	1	1	1	1	1	1	1	1	1	0	1	-29,034531	275,207069	296,218534	0
14.01.2021	18:21:46	0	0	4,518979	5,21775	86,6736	1,324	75,68	3,5	1005,48	8,1	10	9,6	1	1	1	1	1	1	1	1	1	0	1	-31,078224	275,153413	293,921265	0
14.01.2021	18:21:47	0	0	4,857902	5,1285	91,5156	1,324	75,685	3,5	1005,48	8	9,8	9,6	1	1	1	1	1	1	1	1	1	0	1	-35,51797	275,286245	290,109553	0
14.01.2021	18:21:48	0	0	2,937336	4,84125	91,1592	1,329	75,699	3,5	1005,52	8	9,8	9,6	1	1	1	1	1	1	1	1	1	0	1	-32,55814	275,337088	293,310012	0
14.01.2021	18:21:49	0	0	2,937336	4,8	79,5456	1,328	75,692	3,5	1005,34	7,9	9,8	9,6	1	1	1	1	1	1	1	1	1	0	1	-29,950669	275,175489	295,15313	0
14.01.2021	18:21:50	0	0	4,631953	4,8825	84,8052	1,32	75,723	3,5	1005,38	8,1	9,8	9,6	1	1	1	1	1	1	1	1	1	0	1	-27,69556	275,145535	297,26671	0
14.01.2021	18:21:51	0	0	4,067081	5,073	97,704	1,327	75,727	3,5	1005,32	8	9,8	9,6	1	1	1	1	1	1	1	1	1	0	1	-32,628612	275,189694	292,542321	0
14.01.2021	18:21:52	0	0	4,857902	5,23725	88,956	1,33	75,737	3,5	1005,5	8	9,8	9,6	1	1	1	1	1	1	1	1	1	0	1	-33,685694	275,287832	291,949337	0
14.01.2021	18:21:53	0	0	3,163285	5,259	95,5296	1,325	75,708	3,5	1005,3	8	9,8	9,6	1	1	1	1	1	1	1	1	1	0	1	-28,964059	275,150262	296,02054	0
14.01.2021	18:21:54	0	0	3,502208	5,04075	107,4312	1,329	75,717	3,5	1005,42	8	9,8	9,6	1	1	1	1	1	1	1	1	1	0	1	-31,078224	275,286245	294,549299	0
14.01.2021	18:21:55	0	0	3,954106	5,1555	96,6132	1,334	75,736	3,5	1005,42	7,9	9,8	9,6	1	1	1	1	1	1	1	1	1	0	1	-29,668781	275,186536	295,487229	0
14.01.2021	18:21:56	0	0	2,485438	5,26575	105,12	1,33	75,734	3,5	1005,46	8	9,8	9,6	1	1	1	1	1	1	1	1	1	0	1	-34,108527	275,286245	291,518996	0
14.01.2021	18:21:57	0	0	4,631953	5,15175	111,456	1,329	75,728	3,5	1005,44	8	9,8	9,6	1	1	1	1	1	1	1	1	1	0	1	-29,739253	275,319595	296,046096	0
14.01.2021	18:21:58	0	0	4,067081	4,99125	100,3644	1,33	75,742	3,5	1005,4	8	9,8	9,6	1	1	1	1	1	1	1	1	1	0	1	-30,93728	275,19601	294,263509	0
14.01.2021	18:21:59	0	0	4,293004	5,0445	104,7672	1,329	75,739	3,5	1005,56	8	9,8	9,7	1	1	1	1	1	1	1	1	1	0	1	-30,866808	275,325954	294,948641	0
14.01.2021	18:22:00	0	0	4,067081	4,95225	84,0456	1,326	75,719	3,5	1005,38	8,1	10	9,6	1	1	1	1	1	1	1	1	1	0	1	-31,92389	275,289419	293,71865	0
14.01.2021	18:22:01	0	0	3,389234	4,3545	120,1752	1,323	75,728	3,5	1005,36	8	9,8	9,6	1	1	1	1	1	1	1	1	1	0	1	-33,121917	275,337088	292,746235	0
14.01.2021	18:22:02	0	0	3,389234	4,3545	120,1752	1,323	75,728	3,5	1005,36	8	9,8	9,6	1	1	1	1	1	1	1	1	1	0	1	-33,121917	275,337088	292,746235	0
14.01.2021	18:22:03	0	0	3,163285	3,807	105,5268	1,329	75,726	3,5	1005,38	7,9	9,8	9,6	1	1	1	1	1	1	1	1	1	0	1	-28,752643	275,251368	296,709891	0
14.01.2021	18:22:04	0	0	3,502208	3,855	83,3616	1,329	75,726	3,5	1005,32	8	9,8	9,6	1	1	1	1	1	1	1	1	1	0	1	-29,598309	275,353003	296,345196	0
14.01.2021	18:22:05	0	0	3,050311	4,33725	96,6204	1,327	75,701	3,5	1005,38	8,1	9,8	9,6	1	1	1	1	1	1	1	1	1	0	1	-31,782946	275,23237	293,589745	0
14.01.2021	18:22:06	0	0	2,598413	4,52175	92,9664	1,332	75,71	3,5	1005,48	8,1	10	9,6	1	1	1	1	1	1	1	1	1	0	1	-33,756166	275,319595	292,029183	0
14.01.2021	18:22:07	0	0	2,598413	4,99275	82,458	1,332	75,696	3,5	1005,46	8,1	9,8	9,6	1	1	1	1	1	1	1	1	1	0	1	-32,276251	275,281485	293,328753	0
14.01.2021	18:22:08	0	0	2,937336	5,2515	79,0524	1,333	75,682	3,5	1005,46	8	9,8	9,6	1	1	1	1	1	1	1	1	1	0	1	-31,007752	275,173911	294,088592	0
14.01.2021	18:22:09	0	0	3,502208	5,292	83,7108	1,331	75,687	3,5	1005,36	7,9	9,8	9,6	1	1	1	1	1	1	1	1	1	0	1	-29,598309	275,19759	295,609946	0
14.01.2021	18:22:10	0	0	2,259489	5,319	79,056	1,325	75,693	3,5	1005,22	8	9,8	9,6	1	1	1	1	1	1	1	1	1	0	1	-28,188865	275,338679	297,686818	0
14.01.2021	18:22:11	0	0	3,163285	5,6295	82,3536	1,324	75,686	3,5	1005,24	8	9,8	9,6	1	1	1	1	1	1	1	1	1	0	1	-30,514447	275,213391	294,768507	0
14.01.2021	18:22:12	0	0	2,598397	5,709	85,1976	1,329	75,677	3,5	1005,38	8	9,8	9,7	1	1	1	1	1	1	1	1	1	0	1	-31,007752	275,172334	294,081138	0
14.01.2021	18:22:13	0	0	4,631953	5,31225	91,1556	1,33	75,666	3,5	1005,38	8	9,8	9,6	1	1	1	1	1	1	1	1	1	0	1	-32,205779	275,192852	292,980081	0
14.01.2021	18:22:14	0	0	4,180055	5,07	80,91	1,331	75,675	3,5	1005,4	8	9,8	9,6	1	1	1	1	1	1	1	1	1	0	1	-29,175476	275,287832	296,459556	0
14.01.2021	18:22:15	0	0	2,711371	4,8855	80,5212	1,328	75,661	3,5	1005,38	8	9,8	9,7	1	1	1	1	1	1	1	1	1	0	1	-27,625088	275,180223	297,501083	0
14.01.2021	18:22:16	0	0	4,744927	4,69425	92,97	1,332	75,667	3,5	1005,42	8	9,8	9,6	1	1	1	1	1	1	1	1	1	0	1	-29,527837	275,286245	296,099687	0
14.01.2021	18:22:17	0	0	4,180055	4,71975	97,0704	1,327	75,668	3,5	1005,38	8,1	9,8	9,6	1	1	1	1	1	1	1	1	1	0	1	-26,849894	275,324365	298,958028	0
14.01.2021	18:22:18	0	0	2,146515	4,76475	95,8608	1,333	75,676	3,5	1005,46	8	9,8	9,6	1	1	1	1	1	1	1	1	1	0	1	-32,487667	275,218134	292,817711	0
14.01.2021	18:22:19	0	0	4,631953	4,9185	95,1696	1,326	75,674	3,5	1005,4	8	9,8	9,6	1	1	1	1	1	1	1	1	1	0	1	-31,92389	275,327545	293,899085	0
14.01.2021	18:22:20	0	0	3,276259	4,92525	96,5916	1,331	75,681	3,5	1005,46	8	9,8	9,6	1	1	1	1	1	1	1	1	1	0	1	-32,205779	275,151838	292,786265	0
14.01.2021	18:22:21	0	0	4,067056	4,91325	98,0784	1,325	75,678	3,5	1005,36	8	9,8	9,7	1	1	1	1	1	1	1	1	1	0	1	-30,443975	275,327545	295,379001	0
14.01.2021	18:22:22	0	0	2,598413	4,9905	97,7112	1,33	75,671	3,5	1005,34	7,9	9,8	9,6	1	1	1	1	1	1	1	1	1	0	1	-33,403805	275,218134	291,901573	0
14.01.2021	18:22:23	0	0	4,29303	5,286	88,1172	1,336	75,689	3,5	1005,58	8,1	9,8	9,6	1	1	1	1	1	1	1	1	1	0	1	-34,390416	275,162871	290,65376	0
14.01.2021	18:22:24	0	0	3,615161	5,289	104,04	1,334	75,678	3,5	1005,44	8	9,8	9,7	1	1	1	1	1	1	1	1	1	0	1	-32,346723	275,270384	293,205761	0
14.01.2021	18:22:25	0	0	2,711387	5,03925	107,4312	1,325	75,678	3,5	1005,38	8	9,8	9,6	1	1	1	1	1	1	1	1	1	0	1	-31,007752	275,192852	294,178108	0
14.01.2021	18:22:26	0	0	3,615161	4,80225	111,0708	1,332	75,681	3,5	1005,5	8,1	9,8	9,7	1	1	1	1	1	1	1	1	1	0	1	-32,064834	275,19759	293,143421	0
14.01.2021	18:22:27	0	0	3,615183	4,599	108,4896	1,329	75,686	3,5	1005,48	8	9,8	9,6	1	1	1	1	1	1	1	1	1	0	1	-28,259338	275,325954	297,556111	0
14.01.2021	18:22:28	0	0	2,598397	4,7355	108,4896	1,335	75,689	3,5	1005,46	8	9,8	9,7	1	1	1	1	1	1	1	1	1	0	1	-29,668781	275,229206	295,688946	0
14.01.2021	18:22:29	0	0	4,180055	4,95	105,8904	1,332	75,696	3,5	1005,54	8	9,8	9,6	1	1	1	1	1	1	1	1	1	0	1	-36,856942	275,338679	289,018742	0
14.01.2021	18:22:30	0	0	2,598413	5,193	101,8116	1,332	75,68	3,5	1005,58	8	9,8	9,6	1	1	1	1	1	1	1	1	1	0	1	-33,192389	275,241867	292,22521	0
14.01.2021	18:22:31	0	0	3,841132	5,40075	105,336	1,33	75,676	3,5	1005,4	8	9,8	9,6	1	1	1	1	1	1	1	1	1	0	1	-30,725863	275,166025	294,333214	0
14.01.2021	18:22:32	0	0	2,146515	5,44125	99,5256	1,334	75,697	3,5	1005,5	8	9,8	9,6	1	1	1	1	1	1	1	1	1	0	1	-27,131783	275,214972	298,158645	0
14.01.2021	18:22:33	0	0	2,598413	5,35125	102,2256	1,335	75,694	3,5	1005,46	8	9,8	9,6	1	1	1	1	1	1	1	1	1	0	1	-30,021142	275,154989	294,985793	0
14.01.2021	18:22:34	0	0	3,163266	5,29425	105,5196	1,333	75,694	3,5	1005,46	8	9,8	9,7	1	1	1	1	1	1	1	1	1	0	1	-33,615222	275,289419	292,027318	0
14.01.2021	18:22:35	0	0	2,937318	4,923	97,7112	1,327	75,683	3,5	1005,4	8	9,8	9,7	1	1	1	1	1	1	1	1	1	0	1	-31,360113	275,337088	294,508039	0
14.01.2021	18:22:36	0	0	4,631953	4,7355	101,4984	1,33	75,693	3,5	1005,52	8	9,8	9,6	1	1	1	1	1	1	1	1	1	0	1	-28,682171	275,298943	297,005438	0
14.01.2021	18:22:37	0	0	2,485438	4,905	96,228	1,335	75,7	3,5	1005,46	8	9,8	9,6	1	1	1	1	1	1	1	1	1	0	1	-29,739253	275,300531	295,95587	0
14.01.2021	18:22:38	0	0	2,824362	5,02725	90,792	1,336	75,695	3,5	1005,44	8	9,8	9,6	1	1	1	1	1	1	1	1	1	0	1	-31,219168	275,200749	294,004021	0
14.01.2021	18:22:39	0	0	4,293004	4,989	87,8472	1,326	75,693	3,5	1005,42	8	9,8	9,7	1	1	1	1	1	1	1	1	1	0	1	-29,950669	275,330725	295,887362	0
14.01.2021	18:22:40	0	0	4,406004	4,932	85,2156	1,334	75,693	3,5	1005,48	8	9,8	9,6	1	1	1	1	1	1	1	1	1	0	1	-31,148696	275,302119	294,553941	0
14.01.2021	18:22:41	0	0	4,631953	5,0055	96,2424	1,322	75,686	3,5	1005,38	8	10	9,6	1	1	1	1	1	1	1	1	1	0	1	-28,611698	275,229206	296,746029	0
14.01.2021	18:22:42	0	0	2,372449	4,758	89,3268	1,334	75,69	3,5	1005,46	8	9,8	9,7	1	1	1	1	1	1	1	1	1	0	1	-33,403805	275,345044	292,502013	0
14.01.2021	18:22:43	0	0	2,824362	4,56675	92,6568	1,334	75,678	3,5	1005,44	8	9,8	9,6	1	1	1	1	1	1	1	1	1	0	1	-29,809725	275,335497	296,050895	0
14.01.2021	18:22:44	0	0	2,598413	4,64925	78,3504	1,333	75,677	3,5	1005,4	8	9,8	9,6	1	1	1	1	1	1	1	1	1	0	1	-34,672304	275,332316	291,173256	0
14.01.2021	18:22:45	0	0	4,744899	4,5705	87,7284	1,331	75,683	3,5	1005,48	8	9,8	9,7	1	1	1	1	1	1	1	1	1	0	1	-29,809725	275,246617	295,630338	0
14.01.2021	18:22:46	0	0	3,050292	4,64025	86,6772	1,336	75,701	3,5	1005,62	8	9,8	9,7	1	1	1	1	1	1	1	1	1	0	1	-30,232558	275,345044	295,67326	0
14.01.2021	18:22:47	0	0	3,841132	4,65525	90,036	1,331	75,667	3,5	1005,4	8	9,8	9,6	1	1	1	1	1	1	1	1	1	0	1	-32,135307	275,235535	293,252351	0
14.01.2021	18:22:48	0	0	3,163266	4,3545	91,9188	1,337	75,681	3,5	1005,38	7,9	10	9,7	1	1	1	1	1	1	1	1	1	0	1	-28,541226	275,164448	296,5104	0
14.01.2021	18:22:49	0	0	3,841132	3,9645	95,8356	1,338	75,668	3,5	1005,52	8,1	9,8	9,6	1	1	1	1	1	1	1	1	1	0	1	-31,289641	275,230788	294,075568	0
14.01.2021	18:22:50	0	0	2,259489	3,837	85,9464	1,332	75,662	3,5	1005,44	8	9,8	9,6	1	1	1	1	1	1	1	1	1	0	1	-33,192389	275,360966	292,78882	0
14.01.2021	18:22:51	0	0	4,970847	4,44075	89,7192	1,336	75,663	3,5	1005,6	8	9,8	9,7	1	1	1	1	1	1	1	1	1	0	1	-31,360113	275,289419	294,282427	0
14.01.2021	18:22:52	0	0	2,485438	4,773	96,6132	1,33	75,662	3,5	1005,32	8	9,8	9,6	1	1	1	1	1	1	1	1	1	0	1	-29,457364	275,34027	296,425852	0
14.01.2021	18:22:53	0	0	4,518951	5,0745	94,104	1,335	75,658	3,5	1005,48	8	9,8	9,7	1	1	1	1	1	1	1	1	1	0	1	-27,977449	275,208649	297,283088	0
14.01.2021	18:22:54	0	0	2,937336	4,8645	99,1512	1,329	75,659	3,5	1005,42	8	9,8	9,6	1	1	1	1	1	1	1	1	1	0	1	-30,162086	275,170756	294,919349	0
14.01.2021	18:22:55	0	0	3,502208	5,00625	91,1484	1,338	75,65	3,5	1005,48	8	9,8	9,6	1	1	1	1	1	1	1	1	1	0	1	-29,527837	275,325954	296,287612	0
14.01.2021	18:22:56	0	0	3,163285	5,10975	97,6896	1,331	75,638	3,5	1005,44	8	9,8	9,6	1	1	1	1	1	1	1	1	1	0	1	-27,977449	275,337088	297,890702	0
14.01.2021	18:22:57	0	0	4,180055	5,1495	94,0644	1,334	75,637	3,5	1005,56	8	9,8	9,6	1	1	1	1	1	1	1	1	1	0	1	-29,175476	275,177067	295,935781	0
14.01.2021	18:22:58	0	0	2,485438	5,34375	93,7296	1,33	75,625	3,5	1005,46	8	9,8	9,6	1	1	1	1	1	1	1	1	1	0	1	-27,413672	275,264043	298,108817	0
14.01.2021	18:22:59	0	0	3,389214	5,28	90,414	1,337	75,618	3,5	1005,52	8	9,8	9,7	1	1	1	1	1	1	1	1	1	0	1	-33,192389	275,158142	291,82944	0
14.01.2021	18:23:00	0	0	2,711387	4,725	99,1548	1,331	75,608	3,5	1005,48	8	9,8	9,6	1	1	1	1	1	1	1	1	1	0	1	-31,219168	275,343452	294,679115	0
14.01.2021	18:23:01	0	0	2,711387	4,725	99,1548	1,331	75,608	3,5	1005,48	8	9,8	9,6	1	1	1	1	1	1	1	1	1	0	1	-31,219168	275,343452	294,679115	0
14.01.2021	18:23:02	0	0	3,050311	4,4715	103,6656	1,335	75,619	3,5	1005,46	8	9,8	9,6	1	1	1	1	1	1	1	1	1	0	1	-28,964059	275,200749	296,25913	0
14.01.2021	18:23:03	0	0	4,970876	4,4775	109,6344	1,336	75,623	3,5	1005,38	8	9,8	9,6	1	1	1	1	1	1	1	1	1	0	1	-33,685694	275,345044	292,220124	0
14.01.2021	18:23:04	0	0	5,083851	4,30275	108,8748	1,332	75,623	3,5	1005,46	8	9,8	9,6	1	1	1	1	1	1	1	1	1	0	1	-29,175476	275,226042	296,167291	0
14.01.2021	18:23:05	0	0	2,598413	4,16475	113,4144	1,335	75,639	3,5	1005,5	8	9,8	9,6	1	1	1	1	1	1	1	1	1	0	1	-32,346723	275,172334	292,742166	0
14.01.2021	18:23:06	0	0	2,824362	3,9735	109,2312	1,331	75,638	3,5	1005,54	8,1	9,8	9,6	1	1	1	1	1	1	1	1	1	0	1	-29,809725	275,200749	295,413464	0
14.01.2021	18:23:07	0	0	4,180055	3,81975	108,1404	1,329	75,636	3,5	1005,52	8	9,8	9,6	1	1	1	1	1	1	1	1	1	0	1	-29,668781	275,21023	295,599228	0
14.01.2021	18:23:08	0	0	2,711387	3,56175	114,1164	1,334	75,639	3,5	1005,4	8	9,8	9,6	1	1	1	1	1	1	1	1	1	0	1	-33,615222	275,172334	291,473668	0
14.01.2021	18:23:09	0	0	2,824362	3,37425	97,7004	1,336	75,658	3,5	1005,36	8	9,8	9,6	1	1	1	1	1	1	1	1	1	0	1	-29,175476	275,283072	296,437034	0
14.01.2021	18:23:10	0	0	3,163266	3,4965	105,9012	1,327	75,666	3,5	1005,48	8	9,8	9,7	1	1	1	1	1	1	1	1	1	0	1	-30,232558	275,153413	294,766931	0
14.01.2021	18:23:11	0	0	2,598397	3,693	107,4564	1,33	75,673	3,5	1005,4	8	9,8	9,7	1	1	1	1	1	1	1	1	1	0	1	-34,601832	275,218134	290,703546	0
14.01.2021	18:23:12	0	0	4,518979	3,81	106,7112	1,332	75,678	3,5	1005,4	8	9,8	9,6	1	1	1	1	1	1	1	1	1	0	1	-29,457364	275,329135	296,373139	0
14.01.2021	18:23:13	0	0	4,518951	3,87975	107,0424	1,331	75,672	3,5	1005,46	8	9,8	9,7	1	1	1	1	1	1	1	1	1	0	1	-29,880197	275,207069	295,372868	0
14.01.2021	18:23:14	0	0	4,067081	3,9615	99,162	1,332	75,672	3,5	1005,38	8	9,8	9,6	1	1	1	1	1	1	1	1	1	0	1	-30,514447	275,216553	294,783456	0
14.01.2021	18:23:15	0	0	2,824362	4,05225	98,0676	1,335	75,69	3,5	1005,5	8	9,8	9,6	1	1	1	1	1	1	1	1	1	0	1	-31,007752	275,186536	294,148258	0
14.01.2021	18:23:16	0	0	2,711371	4,0095	99,9036	1,339	75,694	3,5	1005,56	8	9,8	9,7	1	1	1	1	1	1	1	1	1	0	1	-34,954193	275,199169	290,261529	0
14.01.2021	18:23:17	0	0	4,744899	4,125	104,0508	1,328	75,682	3,5	1005,34	8,1	9,8	9,7	1	1	1	1	1	1	1	1	1	0	1	-32,276251	275,300531	293,418872	0
14.01.2021	18:23:18	0	0	3,841132	3,98625	95,1768	1,329	75,688	3,5	1005,32	8	9,8	9,6	1	1	1	1	1	1	1	1	1	0	1	-32,9105	275,181801	292,223129	0
14.01.2021	18:23:19	0	0	3,27624	3,91875	104,7492	1,334	75,68	3,5	1005,56	8,1	9,8	9,7	1	1	1	1	1	1	1	1	1	0	1	-30,091614	275,192852	295,094246	0
14.01.2021	18:23:20	0	0	3,163285	3,8505	113,4216	1,33	75,687	3,5	1005,54	8	9,8	9,6	1	1	1	1	1	1	1	1	1	0	1	-33,826638	275,233953	291,553535	0
14.01.2021	18:23:21	0	0	2,937336	3,933	115,5996	1,335	75,67	3,5	1005,54	8	9,8	9,6	1	1	1	1	1	1	1	1	1	0	1	-32,628612	275,188115	292,534859	0
14.01.2021	18:23:22	0	0	2,824345	3,97725	107,406	1,334	75,672	3,5	1005,52	8	9,8	9,7	1	1	1	1	1	1	1	1	1	0	1	-27,836505	275,213391	297,44645	0
14.01.2021	18:23:23	0	0	3,841109	4,03425	115,9416	1,334	75,668	3,5	1005,44	8	9,8	9,7	1	1	1	1	1	1	1	1	1	0	1	-30,655391	275,348227	295,2655	0
14.01.2021	18:23:24	0	0	3,841132	3,969	94,0788	1,335	75,662	3,5	1005,46	8	9,8	9,6	1	1	1	1	1	1	1	1	1	0	1	-29,809725	275,227624	295,540522	0
14.01.2021	18:23:25	0	0	2,711387	4,03875	98,766	1,331	75,662	3,5	1005,5	8,1	9,8	9,6	1	1	1	1	1	1	1	1	1	0	1	-30,162086	275,202329	295,068571	0
14.01.2021	18:23:26	0	0	3,615161	4,11975	96,5916	1,33	75,655	3,5	1005,34	8	9,8	9,7	1	1	1	1	1	1	1	1	1	0	1	-28,752643	275,335497	297,107977	0
14.01.2021	18:23:27	0	0	4,405978	4,02975	109,2492	1,334	75,652	3,5	1005,62	8,1	9,8	9,7	1	1	1	1	1	1	1	1	1	0	1	-31,007752	275,332316	294,837808	0
14.01.2021	18:23:28	0	0	3,389214	4,053	106,3296	1,337	75,644	3,5	1005,48	8	9,8	9,7	1	1	1	1	1	1	1	1	1	0	1	-29,950669	275,192852	295,23519	0
14.01.2021	18:23:29	0	0	3,050311	4,34025	113,0292	1,33	75,64	3,5	1005,58	8	9,8	9,6	1	1	1	1	1	1	1	1	1	0	1	-30,796335	275,175489	294,307464	0
14.01.2021	18:23:30	0	0	3,728157	4,5195	113,3964	1,335	75,628	3,5	1005,44	8	9,8	9,6	1	1	1	1	1	1	1	1	1	0	1	-30,584919	275,219715	294,727936	0
14.01.2021	18:23:31	0	0	4,405978	4,7385	116,37	1,332	75,633	3,5	1005,48	8	9,8	9,7	1	1	1	1	1	1	1	1	1	0	1	-30,655391	275,164448	294,396235	0
14.01.2021	18:23:32	0	0	4,18003	4,70625	116,3268	1,338	75,63	3,5	1005,4	8	9,8	9,7	1	1	1	1	1	1	1	1	1	0	1	-33,051445	275,327545	292,771531	0
14.01.2021	18:23:33	0	0	2,711371	4,59675	106,6824	1,348	75,619	3,5	1005,5	8	9,8	9,7	1	1	1	1	1	1	1	1	1	0	1	-29,386892	275,150262	295,597707	0
14.01.2021	18:23:34	0	0	2,598397	4,4775	105,498	1,333	75,606	3,5	1005,42	8	9,8	9,7	1	1	1	1	1	1	1	1	1	0	1	-28,964059	275,181801	296,16957	0
14.01.2021	18:23:35	0	0	3,954082	4,46775	106,2792	1,33	75,631	3,5	1005,44	8	9,8	9,7	1	1	1	1	1	1	1	1	1	0	1	-30,655391	275,332316	295,190169	0
14.01.2021	18:23:36	0	0	3,728135	4,4685	103,3236	1,328	75,615	3,5	1005,38	8	9,8	9,7	1	1	1	1	1	1	1	1	1	0	1	-35,870331	275,270384	289,682152	0
14.01.2021	18:23:37	0	0	4,067056	4,46625	99,4968	1,333	75,617	3,5	1005,58	8	9,8	9,7	1	1	1	1	1	1	1	1	1	0	1	-28,611698	275,318006	297,166128	0
14.01.2021	18:23:38	0	0	5,083851	4,5285	99,1404	1,327	75,614	3,5	1005,5	8	9,8	9,6	1	1	1	1	1	1	1	1	1	0	1	-30,443975	275,24345	294,981112	0
14.01.2021	18:23:39	0	0	3,728135	4,51425	98,4672	1,329	75,597	3,5	1005,48	8	9,8	9,7	1	1	1	1	1	1	1	1	1	0	1	-28,752643	275,164448	296,298984	0
14.01.2021	18:23:40	0	0	2,146515	4,4955	102,9492	1,322	75,613	3,5	1005,3	8	9,8	9,6	1	1	1	1	1	1	1	1	1	0	1	-29,386892	275,194431	295,806432	0
14.01.2021	18:23:41	0	0	2,598397	4,617	99,1656	1,332	75,609	3,5	1005,48	8	9,8	9,7	1	1	1	1	1	1	1	1	1	0	1	-32,135307	275,159718	292,893971	0
14.01.2021	18:23:42	0	0	2,03354	4,56675	100,7568	1,326	75,603	3,5	1005,44	8	9,8	9,6	1	1	1	1	1	1	1	1	1	0	1	-30,021142	275,23237	295,351549	0
14.01.2021	18:23:43	0	0	4,067056	4,5645	101,4732	1,335	75,605	3,5	1005,36	8,1	9,8	9,7	1	1	1	1	1	1	1	1	1	0	1	-28,823115	275,333906	297,029975	0
14.01.2021	18:23:44	0	0	2,937318	4,57275	105,1056	1,325	75,599	3,5	1005,52	8	9,8	9,7	1	1	1	1	1	1	1	1	1	0	1	-34,742777	275,164448	290,30885	0
14.01.2021	18:23:45	0	0	3,954106	4,6725	103,302	1,333	75,594	3,5	1005,42	8	9,8	9,6	1	1	1	1	1	1	1	1	1	0	1	-30,232558	275,273555	295,334927	0
14.01.2021	18:23:46	0	0	2,824345	4,68375	101,5848	1,332	75,598	3,5	1005,78	8	9,8	9,7	1	1	1	1	1	1	1	1	1	0	1	-31,501057	275,154989	293,505878	0
14.01.2021	18:23:47	0	0	4,518951	4,4355	105,498	1,324	75,595	3,5	1005,24	8	9,8	9,7	1	1	1	1	1	1	1	1	1	0	1	-30,725863	275,273555	294,841622	0
14.01.2021	18:23:48	0	0	2,372449	4,28175	103,698	1,332	75,586	3,5	1005,42	8	9,8	9,7	1	1	1	1	1	1	1	1	1	0	1	-28,893587	275,34027	296,989629	0
14.01.2021	18:23:49	0	0	2,937318	4,26	111,8268	1,324	75,596	3,5	1005,46	8	9,8	9,7	1	1	1	1	1	1	1	1	1	0	1	-29,598309	275,260873	295,909187	0
14.01.2021	18:23:50	0	0	4,180055	4,341	111,0348	1,331	75,614	3,5	1005,48	8	9,8	9,6	1	1	1	1	1	1	1	1	1	0	1	-31,853418	275,322775	293,94698	0
14.01.2021	18:23:51	0	0	4,631953	4,1415	108,4824	1,33	75,595	3,5	1005,42	8	9,8	9,6	1	1	1	1	1	1	1	1	1	0	1	-30,373502	275,159718	294,655775	0
14.01.2021	18:23:52	0	0	4,405978	3,999	112,2912	1,318	75,596	3,5	1005,22	8	9,8	9,7	1	1	1	1	1	1	1	1	1	0	1	-31,994362	275,286245	293,633161	0
14.01.2021	18:23:53	0	0	3,050311	3,807	101,916	1,329	75,583	3,5	1005,48	8	9,8	9,6	1	1	1	1	1	1	1	1	1	0	1	-27,906977	275,329135	297,923526	0
14.01.2021	18:23:54	0	0	4,744899	3,7365	95,472	1,323	75,591	3,5	1005,24	8	9,8	9,7	1	1	1	1	1	1	1	1	1	0	1	-29,245948	275,22446	296,08934	0
14.01.2021	18:23:55	0	0	3,615183	3,765	83,7288	1,318	75,59	3,5	1005,44	8	9,8	9,6	1	1	1	1	1	1	1	1	1	0	1	-31,712474	275,162871	293,331702	0
14.01.2021	18:23:56	0	0	3,050292	3,66975	100,728	1,324	75,596	3,5	1005,3	8	9,8	9,7	1	1	1	1	1	1	1	1	1	0	1	-30,232558	275,286245	295,394965	0
14.01.2021	18:23:57	0	0	2,937318	3,67725	105,8868	1,325	75,58	3,5	1005,5	8	9,8	9,7	1	1	1	1	1	1	1	1	1	0	1	-29,527837	275,158142	295,493993	0
14.01.2021	18:23:58	0	0	4,518951	3,9195	104,7348	1,332	75,579	3,5	1005,34	8	9,8	9,7	1	1	1	1	1	1	1	1	1	0	1	-31,360113	275,175489	293,743687	0
14.01.2021	18:23:59	0	0	2,824345	4,07625	106,3152	1,329	75,577	3,5	1005,48	8	9,8	9,7	1	1	1	1	1	1	1	1	1	0	1	-31,712474	275,156565	293,301908	0
14.01.2021	18:24:00	0	0	2,937318	4,34775	108,8676	1,329	75,582	3,5	1005,48	8	9,8	9,7	1	1	1	1	1	1	1	1	1	0	1	-26,497533	275,208649	298,763003	0
14.01.2021	18:24:01	0	0	2,937318	4,34775	108,8676	1,329	75,582	3,5	1005,48	8	9,8	9,7	1	1	1	1	1	1	1	1	1	0	1	-26,497533	275,208649	298,763003	0
14.01.2021	18:24:02	0	0	3,27624	4,08675	106,6788	1,327	75,594	3,5	1005,44	8	9,8	9,7	1	1	1	1	1	1	1	1	1	0	1	-32,769556	275,175489	292,334244	0
14.01.2021	18:24:03	0	0	2,711371	3,987	103,6836	1,32	75,583	3,5	1005,44	8	9,8	9,7	1	1	1	1	1	1	1	1	1	0	1	-28,752643	275,213391	296,530312	0
14.01.2021	18:24:04	0	0	4,18003	3,7095	102,7044	1,328	75,611	3,5	1005,56	8	9,8	9,7	1	1	1	1	1	1	1	1	1	0	1	-30,655391	275,333906	295,197699	0
14.01.2021	18:24:05	0	0	3,163266	3,67425	101,4984	1,323	75,609	3,5	1005,28	8	9,8	9,7	1	1	1	1	1	1	1	1	1	0	1	-30,162086	275,267213	295,375399	0
14.01.2021	18:24:06	0	0	2,824345	3,95625	99,8964	1,326	75,606	3,5	1005,36	8	9,8	9,7	1	1	1	1	1	1	1	1	1	0	1	-34,390416	275,153413	290,609073	0
14.01.2021	18:24:07	0	0	3,954082	3,86925	90,7848	1,319	75,611	3,5	1005,32	8	9,8	9,7	1	1	1	1	1	1	1	1	1	0	1	-29,457364	275,205489	295,788231	0
14.01.2021	18:24:08	0	0	3,27624	3,7005	98,0748	1,32	75,61	3,5	1005,56	8	9,8	9,7	1	1	1	1	1	1	1	1	1	0	1	-31,712474	275,172334	293,376416	0
14.01.2021	18:24:09	0	0	3,389214	3,6795	96,2388	1,324	75,62	3,5	1005,44	8	9,8	9,7	1	1	1	1	1	1	1	1	1	0	1	-34,813249	275,166025	290,245829	0
14.01.2021	18:24:10	0	0	4,405978	3,84	98,4528	1,324	75,621	3,5	1005,44	8	9,8	9,7	1	1	1	1	1	1	1	1	1	0	1	-28,964059	275,300531	296,731064	0
14.01.2021	18:24:11	0	0	4,631925	3,903	96,2316	1,325	75,633	3,5	1005,44	8	9,8	9,7	1	1	1	1	1	1	1	1	1	0	1	-30,232558	275,318006	295,545268	0
14.01.2021	18:24:12	0	0	2,485423	3,88125	93,3804	1,321	75,64	3,5	1005,48	8	9,8	9,7	1	1	1	1	1	1	1	1	1	0	1	-35,024665	275,180223	290,101506	0
14.01.2021	18:24:13	0	0	4,067056	3,9585	98,7696	1,32	75,631	3,5	1005,38	8	9,8	9,7	1	1	1	1	1	1	1	1	1	0	1	-28,541226	275,145535	296,421044	0
14.01.2021	18:24:14	0	0	4,18003	4,05375	98,0712	1,32	75,653	3,5	1005,48	8	9,8	9,7	1	1	1	1	1	1	1	1	1	0	1	-35,729387	275,268798	289,815597	0
14.01.2021	18:24:15	0	0	4,406004	3,849	94,4064	1,323	75,65	3,5	1005,46	8	9,8	9,6	1	1	1	1	1	1	1	1	1	0	1	-31,360113	275,153413	293,639376	0
14.01.2021	18:24:16	0	0	3,841109	3,74175	100,7568	1,314	75,639	3,5	1005,5	8	9,8	9,7	1	1	1	1	1	1	1	1	1	0	1	-27,413672	275,286245	298,213852	0
14.01.2021	18:24:17	0	0	3,27624	3,86025	89,7048	1,32	75,658	3,5	1005,48	8	9,8	9,7	1	1	1	1	1	1	1	1	1	0	1	-27,906977	275,316417	297,863327	0
14.01.2021	18:24:18	0	0	2,711371	4,19325	93,3084	1,314	75,648	3,5	1005,5	8	9,8	9,7	1	1	1	1	1	1	1	1	1	0	1	-28,047921	275,19601	297,152868	0
14.01.2021	18:24:19	0	0	2,485423	4,22325	84,0636	1,316	75,652	3,5	1005,32	8	9,8	9,7	1	1	1	1	1	1	1	1	1	0	1	-32,55814	275,156565	292,456242	0
14.01.2021	18:24:20	0	0	3,27624	3,94425	96,606	1,317	75,664	3,5	1005,56	8	9,8	9,7	1	1	1	1	1	1	1	1	1	0	1	-31,853418	275,262458	293,661574	0
14.01.2021	18:24:21	0	0	3,728135	3,56625	121,6548	1,319	75,676	3,5	1005,44	8	9,8	9,7	1	1	1	1	1	1	1	1	1	0	1	-26,990839	275,139235	297,941669	0
14.01.2021	18:24:22	0	0	3,502187	3,21975	120,564	1,316	75,657	3,5	1005,34	8	9,8	9,7	1	1	1	1	1	1	1	1	1	0	1	-31,219168	275,265628	294,310818	0
14.01.2021	18:24:23	0	0	3,841109	3,1755	114,8832	1,316	75,678	3,5	1005,48	8	9,8	9,7	1	1	1	1	1	1	1	1	1	0	1	-35,024665	275,305295	290,693004	0
14.01.2021	18:24:24	0	0	3,050292	3,61425	109,2168	1,312	75,684	3,5	1005,32	8	9,8	9,7	1	1	1	1	1	1	1	1	1	0	1	-32,699084	275,233953	292,68109	0
14.01.2021	18:24:25	0	0	4,518951	4,05225	99,2196	1,316	75,673	3,5	1005,5	8	9,8	9,7	1	1	1	1	1	1	1	1	1	0	1	-29,457364	275,287832	296,177667	0
14.01.2021	18:24:26	0	0	3,276259	4,035	101,4804	1,317	75,69	3,5	1005,42	8	9,8	9,6	1	1	1	1	1	1	1	1	1	0	1	-31,712474	275,276727	293,870017	0
14.01.2021	18:24:27	0	0	4,518951	3,9165	100,3644	1,316	75,68	3,5	1005,22	8	9,8	9,7	1	1	1	1	1	1	1	1	1	0	1	-29,739253	275,131363	295,156069	0
14.01.2021	18:24:28	0	0	2,937318	3,76125	106,686	1,317	75,68	3,5	1005,44	8	9,8	9,7	1	1	1	1	1	1	1	1	1	0	1	-27,554616	275,214972	297,735812	0
14.01.2021	18:24:29	0	0	2,937318	3,91425	99,9756	1,316	75,689	3,5	1005,46	8	9,8	9,7	1	1	1	1	1	1	1	1	1	0	1	-34,108527	275,310061	291,631695	0
14.01.2021	18:24:30	0	0	3,502187	3,86475	117,4068	1,317	75,7	3,5	1005,32	8	9,8	9,7	1	1	1	1	1	1	1	1	1	0	1	-32,840028	275,284658	292,779988	0
14.01.2021	18:24:31	0	0	4,744899	4,0425	109,9872	1,314	75,709	3,5	1005,4	8	9,8	9,7	1	1	1	1	1	1	1	1	1	0	1	-33,54475	275,159718	291,484528	0
14.01.2021	18:24:32	0	0	3,728135	3,861	113,4288	1,315	75,72	3,5	1005,38	8	9,8	9,7	1	1	1	1	1	1	1	1	1	0	1	-31,430585	275,131363	293,464737	0
14.01.2021	18:24:33	0	0	4,518951	3,759	122,0364	1,315	75,725	3,5	1005,48	8	9,8	9,7	1	1	1	1	1	1	1	1	1	0	1	-29,739253	275,284658	295,880763	0
14.01.2021	18:24:34	0	0	2,485423	3,71475	128,3868	1,316	75,739	3,5	1005,5	8	9,8	9,7	1	1	1	1	1	1	1	1	1	0	1	-33,615222	275,14081	291,324725	0
14.01.2021	18:24:35	0	0	4,405978	3,60225	133,11	1,312	75,746	3,5	1005,38	8	9,8	9,7	1	1	1	1	1	1	1	1	1	0	1	-30,866808	275,254536	294,61071	0
14.01.2021	18:24:36	0	0	2,824362	3,43875	99,5184	1,334	75,746	3,5	1005,52	8	9,8	9,6	1	1	1	1	1	1	1	1	1	0	1	-30,162086	275,14081	294,777861	0
14.01.2021	18:24:37	0	0	3,615161	3,62775	111,0672	1,309	75,741	3,5	1005,44	8	9,8	9,7	1	1	1	1	1	1	1	1	1	0	1	-28,682171	275,161295	296,354556	0
14.01.2021	18:24:38	0	0	4,518951	3,7785	114,4908	1,314	75,759	3,5	1005,42	8	9,8	9,7	1	1	1	1	1	1	1	1	1	0	1	-31,360113	275,270384	294,192371	0
14.01.2021	18:24:39	0	0	2,824345	3,4965	100,728	1,315	75,765	3,5	1005,44	8	9,8	9,7	1	1	1	1	1	1	1	1	1	0	1	-29,598309	275,120347	295,244983	0
14.01.2021	18:24:40	0	0	3,954082	3,17175	109,5948	1,313	75,76	3,5	1005,52	8	9,8	9,7	1	1	1	1	1	1	1	1	1	0	1	-26,70895	275,268798	298,836034	0
14.01.2021	18:24:41	0	0	4,29303	2,95125	80,1864	1,314	75,74	3,5	1005,34	8	9,8	9,6	1	1	1	1	1	1	1	1	1	0	1	-28,752643	275,300531	296,94248	0
14.01.2021	18:24:42	0	0	3,050311	2,75175	86,2704	1,31	75,758	3,5	1005,38	8	9,8	9,6	1	1	1	1	1	1	1	1	1	0	1	-25,863284	275,147111	299,106428	0
14.01.2021	18:24:43	0	0	4,18003	2,8365	81,612	1,306	75,752	3,5	1005,34	8	9,8	9,7	1	1	1	1	1	1	1	1	1	0	1	-29,175476	275,184957	295,973073	0
14.01.2021	18:24:44	0	0	4,518951	3,04275	75,6	1,313	75,767	3,5	1005,48	8	9,8	9,7	1	1	1	1	1	1	1	1	1	0	1	-30,584919	275,148686	294,392236	0
14.01.2021	18:24:45	0	0	2,711371	3,10425	101,8296	1,307	75,768	3,5	1005,24	8	9,8	9,7	1	1	1	1	1	1	1	1	1	0	1	-27,836505	275,240284	297,573608	0
14.01.2021	18:24:46	0	0	3,841109	3,0435	98,4492	1,311	75,744	3,5	1005,56	8	9,8	9,7	1	1	1	1	1	1	1	1	1	0	1	-27,554616	275,302119	298,148022	0
14.01.2021	18:24:47	0	0	3,728135	2,8845	104,4432	1,309	75,75	3,5	1005,44	8	9,8	9,7	1	1	1	1	1	1	1	1	1	0	1	-31,007752	275,192852	294,178108	0
14.01.2021	18:24:48	0	0	2,937318	2,8545	98,7732	1,312	75,758	3,5	1005,3	8	9,8	9,7	1	1	1	1	1	1	1	1	1	0	1	-30,796335	275,153413	294,203153	0
14.01.2021	18:24:49	0	0	3,389214	2,79375	101,5272	1,31	75,76	3,5	1005,42	8	9,8	9,7	1	1	1	1	1	1	1	1	1	0	1	-27,272727	275,117201	297,555705	0
14.01.2021	18:24:50	0	0	3,27624	2,80125	85,9104	1,309	75,764	3,5	1005,58	8	9,8	9,7	1	1	1	1	1	1	1	1	1	0	1	-27,977449	275,259289	297,522551	0
14.01.2021	18:24:51	0	0	3,841132	2,904	104,8824	1,311	75,77	3,5	1005,38	8	9,8	9,6	1	1	1	1	1	1	1	1	1	0	1	-28,964059	275,117201	295,864373	0
14.01.2021	18:24:52	0	0	4,518951	2,94525	96,2244	1,31	75,784	3,5	1005,4	8	9,8	9,7	1	1	1	1	1	1	1	1	1	0	1	-32,769556	275,245033	292,663018	0
14.01.2021	18:24:53	0	0	2,824362	2,93475	101,5164	1,313	75,787	3,5	1005,36	8	9,8	9,6	1	1	1	1	1	1	1	1	1	0	1	-25,158562	275,131363	299,736759	0
14.01.2021	18:24:54	0	0	2,372449	2,9985	117,7776	1,308	75,775	3,5	1005,46	8	9,8	9,7	1	1	1	1	1	1	1	1	1	0	1	-32,135307	275,136086	292,782324	0
14.01.2021	18:24:55	0	0	3,728135	3,078	114,8724	1,307	75,789	3,5	1005,34	8	9,8	9,7	1	1	1	1	1	1	1	1	1	0	1	-27,272727	275,286245	298,354796	0
14.01.2021	18:24:56	0	0	3,502187	3,0945	103,6908	1,306	75,797	3,5	1005,52	8	9,8	9,7	1	1	1	1	1	1	1	1	1	0	1	-30,373502	275,259289	295,126497	0
14.01.2021	18:24:57	0	0	2,711371	3,03525	90,414	1,304	75,792	3,5	1005,42	8	9,8	9,7	1	1	1	1	1	1	1	1	1	0	1	-28,964059	275,117201	295,864373	0
14.01.2021	18:24:58	0	0	3,841109	3,02025	96,2064	1,306	75,796	3,5	1005,46	8	9,8	9,7	1	1	1	1	1	1	1	1	1	0	1	-30,30303	275,268798	295,241953	0
14.01.2021	18:24:59	0	0	2,937318	3,0675	106,3188	1,309	75,798	3,5	1005,34	8	9,8	9,7	1	1	1	1	1	1	1	1	1	0	1	-29,668781	275,295768	296,003802	0
14.01.2021	18:25:00	0	0	3,728135	3,327	99,5256	1,303	75,811	3,5	1005,44	8	9,8	9,7	1	1	1	1	1	1	1	1	1	0	1	-33,192389	275,287832	292,442642	0
14.01.2021	18:25:01	0	0	3,728135	3,327	99,5256	1,303	75,811	3,5	1005,44	8	9,8	9,7	1	1	1	1	1	1	1	1	1	0	1	-33,192389	275,287832	292,442642	0
14.01.2021	18:25:02	0	0	2,485423	3,47625	104,4468	1,304	75,814	3,5	1005,42	8	9,8	9,7	1	1	1	1	1	1	1	1	1	0	1	-29,245948	275,186536	295,910062	0
14.01.2021	18:25:03	0	0	2,824345	3,71775	102,5856	1,304	75,815	3,5	1005,46	8	9,8	9,7	1	1	1	1	1	1	1	1	1	0	1	-29,245948	275,305295	296,471722	0
14.01.2021	18:25:04	0	0	4,631925	3,76125	98,7552	1,305	75,824	3,5	1005,4	8	9,8	9,7	1	1	1	1	1	1	1	1	1	0	1	-28,118393	275,254536	297,359125	0
14.01.2021	18:25:05	0	0	4,631925	3,912	93,7044	1,3	75,802	3,5	1005,36	8	9,8	9,7	1	1	1	1	1	1	1	1	1	0	1	-29,880197	275,121921	294,970525	0
14.01.2021	18:25:06	0	0	2,711371	3,7125	99,252	1,296	75,821	3,5	1005,44	8	9,8	9,7	1	1	1	1	1	1	1	1	1	0	1	-29,739253	275,229206	295,618474	0
14.01.2021	18:25:07	0	0	4,744899	3,6645	103,698	1,304	75,837	3,5	1005,42	8	9,8	9,7	1	1	1	1	1	1	1	1	1	0	1	-29,739253	275,125068	295,126333	0
14.01.2021	18:25:08	0	0	5,08382	3,79875	105,8832	1,304	75,825	3,5	1005,52	8	9,8	9,7	1	1	1	1	1	1	1	1	1	0	1	-31,219168	275,24345	294,205918	0
14.01.2021	18:25:09	0	0	2,824345	3,73425	110,0844	1,304	75,839	3,5	1005,54	8	9,8	9,7	1	1	1	1	1	1	1	1	1	0	1	-29,950669	275,289419	295,691871	0
14.01.2021	18:25:10	0	0	4,518951	3,78375	98,7408	1,305	75,842	3,5	1005,58	8	9,8	9,7	1	1	1	1	1	1	1	1	1	0	1	-31,642001	275,279899	293,955497	0
14.01.2021	18:25:11	0	0	3,27624	3,64425	101,826	1,308	75,843	3,5	1005,56	8	9,8	9,7	1	1	1	1	1	1	1	1	1	0	1	-27,413672	275,137661	297,511397	0
14.01.2021	18:25:12	0	0	4,744899	3,489	90,4068	1,304	75,856	3,5	1005,48	8	9,8	9,7	1	1	1	1	1	1	1	1	1	0	1	-32,840028	275,172334	292,248861	0
14.01.2021	18:25:13	0	0	3,728135	3,58575	109,9836	1,297	75,85	3,5	1005,44	8	9,8	9,7	1	1	1	1	1	1	1	1	1	0	1	-30,866808	275,120347	293,976484	0
14.01.2021	18:25:14	0	0	2,937318	3,831	114,4656	1,298	75,848	3,5	1005,26	8	9,8	9,7	1	1	1	1	1	1	1	1	1	0	1	-29,034531	275,151838	295,957512	0
14.01.2021	18:25:15	0	0	3,502187	3,79125	111,8196	1,3	75,864	3,5	1005,44	8	9,8	9,7	1	1	1	1	1	1	1	1	1	0	1	-26,568006	275,295768	299,104577	0
14.01.2021	18:25:16	0	0	3,163266	3,675	122,0004	1,297	75,865	3,5	1005,34	8	9,8	9,7	1	1	1	1	1	1	1	1	1	0	1	-28,400282	275,156565	296,6141	0
14.01.2021	18:25:17	0	0	2,937318	3,54525	90,0504	1,296	75,873	3,5	1005,34	8	9,8	9,7	1	1	1	1	1	1	1	1	1	0	1	-33,051445	275,145535	291,910825	0
14.01.2021	18:25:18	0	0	4,518951	3,43725	91,8684	1,3	75,866	3,5	1005,42	8	9,9	9,7	1	1	1	1	1	1	1	1	1	0	1	-27,69556	275,292593	297,962	0
14.01.2021	18:25:19	0	0	3,954082	3,468	102,9564	1,298	75,886	3,5	1005,22	8	9,8	9,7	1	1	1	1	1	1	1	1	1	0	1	-33,121917	275,189694	292,049016	0
14.01.2021	18:25:20	0	0	3,728135	3,654	107,4204	1,297	75,883	3,5	1005,5	8	9,8	9,7	1	1	1	1	1	1	1	1	1	0	1	-27,977449	275,115628	296,843555	0
14.01.2021	18:25:21	0	0	3,841109	3,663	99,8964	1,306	75,889	3,5	1005,26	8	9,8	9,7	1	1	1	1	1	1	1	1	1	0	1	-31,501057	275,227624	293,84919	0
14.01.2021	18:25:22	0	0	2,485423	3,492	112,2588	1,307	75,903	3,5	1005,44	8	9,8	9,7	1	1	1	1	1	1	1	1	1	0	1	-31,501057	275,305295	294,216612	0
14.01.2021	18:25:23	0	0	4,744899	3,51825	116,3376	1,302	75,9	3,5	1005,28	8	9,8	9,7	1	1	1	1	1	1	1	1	1	0	1	-30,162086	275,283072	295,450423	0
14.01.2021	18:25:24	0	0	3,841109	3,43125	98,0712	1,307	75,895	3,5	1005,4	8	9,8	9,7	1	1	1	1	1	1	1	1	1	0	1	-31,360113	275,238701	294,042514	0
14.01.2021	18:25:25	0	0	4,631925	3,306	110,3832	1,301	75,9	3,5	1005,44	8	9,8	9,7	1	1	1	1	1	1	1	1	1	0	1	-29,598309	275,302119	296,104329	0
14.01.2021	18:25:26	0	0	3,163266	3,0045	117,144	1,303	75,896	3,5	1005,56	8	9,8	9,7	1	1	1	1	1	1	1	1	1	0	1	-31,078224	275,216553	294,219679	0
14.01.2021	18:25:27	0	0	3,615161	2,979	114,4368	1,304	75,897	3,5	1005,54	8	9,8	9,7	1	1	1	1	1	1	1	1	1	0	1	-31,360113	275,117201	293,46832	0
14.01.2021	18:25:28	0	0	4,293004	2,97675	112,2588	1,299	75,878	3,5	1005,3	8	9,9	9,7	1	1	1	1	1	1	1	1	1	0	1	-26,356589	275,235535	299,031068	0
14.01.2021	18:25:29	0	0	4,067056	2,9325	123,462	1,309	75,895	3,5	1005,36	8	9,8	9,7	1	1	1	1	1	1	1	1	1	0	1	-30,091614	275,281485	295,51339	0
14.01.2021	18:25:30	0	0	2,485423	2,99925	132,7536	1,303	75,893	3,5	1005,42	8	9,8	9,7	1	1	1	1	1	1	1	1	1	0	1	-27,766032	275,287832	297,868999	0
14.01.2021	18:25:31	0	0	2,937318	3,08775	99,5256	1,303	75,882	3,5	1005,38	8	9,8	9,7	1	1	1	1	1	1	1	1	1	0	1	-27,836505	275,156565	297,177877	0
14.01.2021	18:25:32	0	0	3,27624	2,94	104,4252	1,305	75,882	3,5	1005,42	8	9,8	9,7	1	1	1	1	1	1	1	1	1	0	1	-31,853418	275,251368	293,609116	0
14.01.2021	18:25:33	0	0	4,744899	3,06225	93,7116	1,301	75,854	3,5	1005,36	8	9,8	9,7	1	1	1	1	1	1	1	1	1	0	1	-29,175476	275,120347	295,667816	0
14.01.2021	18:25:34	0	0	4,18003	3,3435	92,9808	1,304	75,871	3,5	1005,46	8	9,8	9,7	1	1	1	1	1	1	1	1	1	0	1	-29,668781	275,118774	295,167081	0
14.01.2021	18:25:35	0	0	2,146502	3,5715	119,7936	1,306	75,864	3,5	1005,56	8	9,8	9,7	1	1	1	1	1	1	1	1	1	0	1	-28,118393	275,303707	297,59176	0
14.01.2021	18:25:36	0	0	4,518951	3,60975	97,7148	1,299	75,834	3,5	1005,4	8	9,8	9,7	1	1	1	1	1	1	1	1	1	0	1	-32,55814	275,218134	292,747239	0
14.01.2021	18:25:37	0	0	5,08382	3,33975	113,76	1,303	75,825	3,5	1005,42	8	9,8	9,7	1	1	1	1	1	1	1	1	1	0	1	-32,769556	275,297355	292,910539	0
14.01.2021	18:25:38	0	0	4,518951	3,285	96,6888	1,302	75,818	3,5	1005,42	8	9,8	9,7	1	1	1	1	1	1	1	1	1	0	1	-30,584919	275,2482	294,862634	0
14.01.2021	18:25:39	0	0	3,27624	3,4785	97,7076	1,299	75,812	3,5	1005,46	8	9,8	9,7	1	1	1	1	1	1	1	1	1	0	1	-29,598309	275,136086	295,319322	0
14.01.2021	18:25:40	0	0	3,502187	3,71175	99,8856	1,302	75,813	3,5	1005,38	8	9,8	9,7	1	1	1	1	1	1	1	1	1	0	1	-32,205779	275,173911	292,890566	0
14.01.2021	18:25:41	0	0	3,841109	3,81	102,6792	1,302	75,816	3,5	1005,46	8	9,8	9,7	1	1	1	1	1	1	1	1	1	0	1	-29,598309	275,287832	296,036723	0
14.01.2021	18:25:42	0	0	3,502187	3,8355	102,5712	1,291	75,798	3,5	1005,34	8	9,9	9,7	1	1	1	1	1	1	1	1	1	0	1	-30,866808	275,14081	294,073139	0
14.01.2021	18:25:43	0	0	2,824345	3,969	99,126	1,3	75,796	3,5	1005,4	8	9,8	9,7	1	1	1	1	1	1	1	1	1	0	1	-31,360113	275,221297	293,960219	0
14.01.2021	18:25:44	0	0	3,389214	3,95775	96,9768	1,299	75,804	3,5	1005,44	8	9,9	9,7	1	1	1	1	1	1	1	1	1	0	1	-31,853418	275,265628	293,676568	0
14.01.2021	18:25:45	0	0	4,405978	3,822	103,9176	1,291	75,781	3,5	1005,32	8	9,8	9,7	1	1	1	1	1	1	1	1	1	0	1	-29,034531	275,257704	296,457974	0
14.01.2021	18:25:46	0	0	3,954082	3,7065	107,4384	1,301	75,773	3,5	1005,48	8	9,8	9,7	1	1	1	1	1	1	1	1	1	0	1	-27,906977	275,136086	297,010654	0
14.01.2021	18:25:47	0	0	4,744899	3,38475	100,7748	1,299	75,765	3,5	1005,32	8	9,8	9,7	1	1	1	1	1	1	1	1	1	0	1	-28,047921	275,169179	297,026061	0
14.01.2021	18:25:48	0	0	4,405978	3,10575	83,3472	1,304	75,789	3,5	1005,46	8	9,8	9,7	1	1	1	1	1	1	1	1	1	0	1	-29,809725	275,279899	295,787773	0
14.01.2021	18:25:49	0	0	2,598397	3,14325	105,8688	1,303	75,788	3,5	1005,48	8	9,8	9,7	1	1	1	1	1	1	1	1	1	0	1	-29,739253	275,158142	295,282576	0
14.01.2021	18:25:50	0	0	2,711371	3,4815	89,4168	1,3	75,802	3,5	1005,48	8	9,8	9,7	1	1	1	1	1	1	1	1	1	0	1	-32,487667	275,273555	293,079818	0
14.01.2021	18:25:51	0	0	2,937318	4,01025	83,3616	1,304	75,809	3,5	1005,42	8	9,8	9,7	1	1	1	1	1	1	1	1	1	0	1	-28,32981	275,265628	297,200176	0
14.01.2021	18:25:52	0	0	2,824345	4,4415	90,7992	1,302	75,819	3,5	1005,56	8	9,9	9,7	1	1	1	1	1	1	1	1	1	0	1	-33,333333	275,136086	291,584298	0
14.01.2021	18:25:53	0	0	4,518951	4,9695	99,1404	1,297	75,816	3,5	1005,5	8	9,8	9,7	1	1	1	1	1	1	1	1	1	0	1	-33,333333	275,260873	292,174162	0
14.01.2021	18:25:54	0	0	2,824345	4,99125	96,9768	1,296	75,827	3,5	1005,48	8	9,8	9,7	1	1	1	1	1	1	1	1	1	0	1	-25,369979	275,173911	299,726366	0
14.01.2021	18:25:55	0	0	3,050292	5,05275	95,922	1,292	75,818	3,5	1005,5	8	9,8	9,7	1	1	1	1	1	1	1	1	1	0	1	-30,725863	275,297355	294,954232	0
14.01.2021	18:25:56	0	0	3,841109	4,95225	99,5328	1,297	75,82	3,5	1005,54	8	9,8	9,7	1	1	1	1	1	1	1	1	1	0	1	-26,849894	275,181801	298,283735	0
14.01.2021	18:25:57	0	0	2,598397	5,05875	95,5368	1,299	75,817	3,5	1005,34	8	9,8	9,7	1	1	1	1	1	1	1	1	1	0	1	-31,289641	275,29418	294,375431	0
14.01.2021	18:25:58	0	0	4,405978	5,121	100,7388	1,296	75,82	3,5	1005,44	8	9,8	9,7	1	1	1	1	1	1	1	1	1	0	1	-31,078224	275,275141	294,496764	0
14.01.2021	18:25:59	0	0	3,615161	5,14875	94,3884	1,3	75,825	3,5	1005,58	8	9,8	9,7	1	1	1	1	1	1	1	1	1	0	1	-28,823115	275,245033	296,609459	0
14.01.2021	18:26:00	0	0	3,841109	4,59225	93,3228	1,302	75,813	3,5	1005,4	8	9,8	9,7	1	1	1	1	1	1	1	1	1	0	1	-29,809725	275,275141	295,765263	0
14.01.2021	18:26:01	0	0	2,937318	4,3215	85,536	1,297	75,802	3,5	1005,5	8	9,8	9,7	1	1	1	1	1	1	1	1	1	0	1	-32,346723	275,283072	293,265786	0
14.01.2021	18:26:02	0	0	2,937318	4,3215	85,536	1,297	75,802	3,5	1005,5	8	9,8	9,7	1	1	1	1	1	1	1	1	1	0	1	-32,346723	275,283072	293,265786	0
14.01.2021	18:26:03	0	0	3,502187	4,45425	95,85	1,293	75,861	3,5	1005,42	8	9,8	9,7	1	1	1	1	1	1	1	1	1	0	1	-27,625088	275,257704	297,867417	0
14.01.2021	18:26:04	0	0	4,067056	4,785	87,7248	1,296	75,816	3,5	1005,44	8	9,8	9,7	1	1	1	1	1	1	1	1	1	0	1	-28,32981	275,137661	296,595259	0
14.01.2021	18:26:05	0	0	4,18003	5,08725	87,7392	1,299	75,821	3,5	1005,3	8	9,9	9,7	1	1	1	1	1	1	1	1	1	0	1	-30,30303	275,123494	294,555123	0
14.01.2021	18:26:06	0	0	4,744899	5,40525	98,4708	1,291	75,822	3,5	1005,22	8	9,8	9,7	1	1	1	1	1	1	1	1	1	0	1	-31,078224	275,251368	294,38431	0
14.01.2021	18:26:07	0	0	3,389214	5,54475	109,9836	1,298	75,832	3,5	1005,42	8	9,8	9,7	1	1	1	1	1	1	1	1	1	0	1	-29,739253	275,136086	295,178378	0
14.01.2021	18:26:08	0	0	2,937318	5,41875	105,1236	1,304	75,841	3,5	1005,44	8	9,8	9,7	1	1	1	1	1	1	1	1	1	0	1	-32,9105	275,279899	292,686998	0
14.01.2021	18:26:09	0	0	4,857873	5,1705	95,8392	1,296	75,841	3,5	1005,42	8	9,8	9,7	1	1	1	1	1	1	1	1	1	0	1	-34,954193	275,260873	290,553302	0
14.01.2021	18:26:10	0	0	3,163266	4,9755	85,5756	1,293	75,842	3,5	1005,46	8	9,8	9,7	1	1	1	1	1	1	1	1	1	0	1	-30,655391	275,245033	294,777183	0
14.01.2021	18:26:11	0	0	2,937318	4,7745	90,7776	1,311	75,852	3,5	1005,42	8	9,9	9,7	1	1	1	1	1	1	1	1	1	0	1	-30,655391	275,118774	294,180471	0
14.01.2021	18:26:12	0	0	3,389214	5,004	96,9516	1,296	75,828	3,5	1005,4	8	9,8	9,7	1	1	1	1	1	1	1	1	1	0	1	-30,021142	275,142385	294,926246	0
14.01.2021	18:26:13	0	0	4,067056	4,85175	106,308	1,298	75,837	3,5	1005,42	8	9,8	9,7	1	1	1	1	1	1	1	1	1	0	1	-31,007752	275,252952	294,462274	0
14.01.2021	18:26:14	0	0	3,502187	4,69425	117,4248	1,298	75,864	3,5	1005,4	8	9,8	9,7	1	1	1	1	1	1	1	1	1	0	1	-25,72234	275,25612	299,762672	0
14.01.2021	18:26:15	0	0	4,744899	4,5135	118,692	1,298	75,854	3,5	1005,36	8	9,8	9,7	1	1	1	1	1	1	1	1	1	0	1	-29,245948	275,11091	295,552775	0
14.01.2021	18:26:16	0	0	3,841109	4,23975	117,4212	1,299	75,857	3,5	1005,36	8	9,8	9,7	1	1	1	1	1	1	1	1	1	0	1	-30,443975	275,117201	294,384458	0
14.01.2021	18:26:17	0	0	2,824345	3,74775	131,6268	1,296	75,855	3,5	1005,4	7,7	9,9	9,7	1	1	1	1	1	1	1	1	1	0	1	-28,259338	275,154989	296,747597	0
14.01.2021	18:26:18	0	0	4,518951	3,47175	119,1204	1,294	75,847	3,5	1005,42	8	9,8	9,7	1	1	1	1	1	1	1	1	1	0	1	-29,527837	275,264043	295,994652	0
14.01.2021	18:26:19	0	0	3,163266	3,23175	126,1224	1,297	75,844	3,5	1005,56	8	9,8	9,7	1	1	1	1	1	1	1	1	1	0	1	-31,712474	275,128215	293,167979	0
14.01.2021	18:26:20	0	0	2,598397	3,0975	110,7	1,295	75,857	3,5	1005,44	8	9,9	9,7	1	1	1	1	1	1	1	1	1	0	1	-28,611698	275,177067	296,499558	0
14.01.2021	18:26:21	0	0	4,293004	3,02925	95,8356	1,297	75,851	3,5	1005,38	8	9,8	9,7	1	1	1	1	1	1	1	1	1	0	1	-28,964059	275,295768	296,708524	0
14.01.2021	18:26:22	0	0	4,744899	2,832	108,9036	1,292	75,865	3,5	1005,4	8	9,8	9,7	1	1	1	1	1	1	1	1	1	0	1	-32,980973	275,183379	292,160116	0
14.01.2021	18:26:23	0	0	4,293004	2,82225	108,1404	1,299	75,874	3,5	1005,6	8	9,9	9,7	1	1	1	1	1	1	1	1	1	0	1	-33,756166	275,131363	291,139155	0
14.01.2021	18:26:24	0	0	4,518951	3,00375	126,54	1,298	75,864	3,5	1005,34	8	9,8	9,7	1	1	1	1	1	1	1	1	1	0	1	-33,474278	275,147111	291,495434	0
14.01.2021	18:26:25	0	0	2,937318	3,53025	97,7112	1,295	75,871	3,5	1005,36	8	9,9	9,7	1	1	1	1	1	1	1	1	1	0	1	-33,262861	275,134512	291,647333	0
14.01.2021	18:26:26	0	0	3,163266	4,26225	118,3104	1,296	75,884	3,5	1005,38	8	9,8	9,7	1	1	1	1	1	1	1	1	1	0	1	-29,245948	275,151838	295,746096	0
14.01.2021	18:26:27	0	0	2,937318	4,6605	112,2876	1,294	75,878	3,5	1005,42	8	9,8	9,7	1	1	1	1	1	1	1	1	1	0	1	-30,93728	275,132937	293,965478	0
14.01.2021	18:26:28	0	0	3,954082	5,085	114,4728	1,299	75,881	3,5	1005,58	8	9,8	9,7	1	1	1	1	1	1	1	1	1	0	1	-29,598309	275,246617	295,841754	0
14.01.2021	18:26:29	0	0	4,518951	5,223	108,8748	1,292	75,89	3,5	1005,4	8	9,8	9,7	1	1	1	1	1	1	1	1	1	0	1	-31,92389	275,275141	293,651098	0
14.01.2021	18:26:30	0	0	3,502187	5,031	113,04	1,295	75,872	3,5	1005,46	8	9,8	9,7	1	1	1	1	1	1	1	1	1	0	1	-32,064834	275,181801	293,068795	0
14.01.2021	18:26:31	0	0	3,954082	5,01075	116,3304	1,304	75,889	3,5	1005,44	8	9,8	9,7	1	1	1	1	1	1	1	1	1	0	1	-30,021142	275,298943	295,666467	0
14.01.2021	18:26:32	0	0	2,711371	5,24475	110,6748	1,304	75,866	3,5	1005,48	8	9,8	9,7	1	1	1	1	1	1	1	1	1	0	1	-27,061311	275,216553	298,236592	0
14.01.2021	18:26:33	0	0	2,711371	5,4105	101,8188	1,301	75,87	3,5	1005,4	8	9,8	9,7	1	1	1	1	1	1	1	1	1	0	1	-28,470754	275,279899	297,126744	0
14.01.2021	18:26:34	0	0	2,937318	5,286	122,4144	1,291	75,859	3,5	1005,54	8	9,8	9,7	1	1	1	1	1	1	1	1	1	0	1	-28,752643	275,237118	296,642499	0
14.01.2021	18:26:35	0	0	4,067056	4,947	115,9344	1,303	75,865	3,5	1005,48	8	9,8	9,7	1	1	1	1	1	1	1	1	1	0	1	-26,849894	275,118774	297,985967	0
14.01.2021	18:26:36	0	0	4,293004	5,0475	119,4804	1,3	75,861	3,5	1005,4	8	9,9	9,7	1	1	1	1	1	1	1	1	1	0	1	-33,685694	275,222878	291,642115	0
14.01.2021	18:26:37	0	0	3,050311	5,25	120,9276	1,3	75,846	3,5	1005,54	8	9,8	9,6	1	1	1	1	1	1	1	1	1	0	1	-29,598309	275,283072	296,014201	0
14.01.2021	18:26:38	0	0	3,163266	5,2305	118,314	1,301	75,86	3,5	1005,46	8	9,8	9,7	1	1	1	1	1	1	1	1	1	0	1	-32,064834	275,153413	292,934654	0
14.01.2021	18:26:39	0	0	3,728135	5,13675	120,5424	1,297	75,847	3,5	1005,44	8	9,8	9,7	1	1	1	1	1	1	1	1	1	0	1	-29,457364	275,145535	295,504905	0
14.01.2021	18:26:40	0	0	4,293004	5,22225	121,6332	1,294	75,837	3,5	1005,32	8	9,8	9,7	1	1	1	1	1	1	1	1	1	0	1	-34,53136	275,218134	290,774018	0
14.01.2021	18:26:41	0	0	4,518951	5,55	118,3572	1,297	75,84	3,5	1005,44	8	9,8	9,7	1	1	1	1	1	1	1	1	1	0	1	-30,514447	275,284658	295,105569	0
14.01.2021	18:26:42	0	0	4,18003	5,649	122,508	1,296	75,829	3,5	1005,36	8	9,8	9,7	1	1	1	1	1	1	1	1	1	0	1	-26,356589	275,132937	298,546168	0
14.01.2021	18:26:43	0	0	3,163266	5,44875	119,4552	1,296	75,836	3,5	1005,34	8	9,8	9,7	1	1	1	1	1	1	1	1	1	0	1	-33,756166	275,154989	291,250769	0
14.01.2021	18:26:44	0	0	2,598397	5,38875	118,7604	1,297	75,83	3,5	1005,32	8	9,8	9,7	1	1	1	1	1	1	1	1	1	0	1	-32,417195	275,098334	292,322144	0
14.01.2021	18:26:45	0	0	2,711371	5,03325	115,9812	1,297	75,835	3,5	1005,42	8	9,8	9,7	1	1	1	1	1	1	1	1	1	0	1	-29,668781	275,229206	295,688946	0
14.01.2021	18:26:46	0	0	3,841109	4,8345	117,414	1,293	75,833	3,5	1005,46	8	9,8	9,7	1	1	1	1	1	1	1	1	1	0	1	-27,554616	275,090479	297,147632	0
14.01.2021	18:26:47	0	0	4,405978	4,56975	92,2716	1,3	75,817	3,5	1005,46	7,8	9,8	9,7	1	1	1	1	1	1	1	1	1	0	1	-30,443975	275,230788	294,921234	0
14.01.2021	18:26:48	0	0	3,389214	4,35	98,0892	1,298	75,821	3,5	1005,34	8	9,9	9,7	1	1	1	1	1	1	1	1	1	0	1	-29,527837	275,291006	296,122213	0
14.01.2021	18:26:49	0	0	4,857873	4,242	107,424	1,3	75,816	3,5	1005,38	8	9,8	9,7	1	1	1	1	1	1	1	1	1	0	1	-24,947146	275,226042	300,395621	0
14.01.2021	18:26:50	0	0	2,824345	4,11225	107,0712	1,293	75,823	3,5	1005,34	8	9,8	9,7	1	1	1	1	1	1	1	1	1	0	1	-30,30303	275,289419	295,33951	0
14.01.2021	18:26:51	0	0	2,824345	3,9885	101,4948	1,296	75,817	3,5	1005,52	8	9,8	9,7	1	1	1	1	1	1	1	1	1	0	1	-30,232558	275,226042	295,110209	0
14.01.2021	18:26:52	0	0	4,293004	3,72	99,9108	1,294	75,815	3,5	1005,34	8	9,8	9,7	1	1	1	1	1	1	1	1	1	0	1	-28,541226	275,286245	297,086297	0
14.01.2021	18:26:53	0	0	4,067056	3,69675	101,5092	1,303	75,805	3,5	1005,5	7,8	9,9	9,7	1	1	1	1	1	1	1	1	1	0	1	-31,289641	275,25612	294,195371	0
14.01.2021	18:26:54	0	0	4,293004	3,60375	105,1236	1,29	75,789	3,5	1005,36	8	9,8	9,7	1	1	1	1	1	1	1	1	1	0	1	-30,162086	275,289419	295,480454	0
14.01.2021	18:26:55	0	0	2,485438	3,50625	104,5224	1,295	75,792	3,5	1005,36	8	9,8	9,6	1	1	1	1	1	1	1	1	1	0	1	-30,021142	275,230788	295,344067	0
14.01.2021	18:26:56	0	0	4,405978	3,41325	104,0724	1,299	75,797	3,5	1005,44	8	9,9	9,7	1	1	1	1	1	1	1	1	1	0	1	-34,601832	275,283072	291,010677	0
14.01.2021	18:26:57	0	0	3,163266	3,40425	96,6096	1,296	75,797	3,5	1005,56	8	9,9	9,7	1	1	1	1	1	1	1	1	1	0	1	-28,682171	275,24345	296,742916	0
14.01.2021	18:26:58	0	0	3,163266	3,693	98,4816	1,3	75,788	3,5	1005,48	8	9,9	9,7	1	1	1	1	1	1	1	1	1	0	1	-27,906977	275,278313	297,683017	0
14.01.2021	18:26:59	0	0	4,744899	3,9645	101,8368	1,293	75,793	3,5	1005,42	8	9,9	9,7	1	1	1	1	1	1	1	1	1	0	1	-29,31642	275,286245	296,311103	0
14.01.2021	18:27:00	0	0	4,744899	4,27125	91,512	1,3	75,788	3,5	1005,52	8	9,9	9,7	1	1	1	1	1	1	1	1	1	0	1	-28,541226	275,292593	297,116334	0
14.01.2021	18:27:01	0	0	2,824345	4,062	91,9008	1,296	75,779	3,5	1005,44	7,8	9,9	9,7	1	1	1	1	1	1	1	1	1	0	1	-33,54475	275,166025	291,514328	0
14.01.2021	18:27:02	0	0	2,824345	4,062	91,9008	1,296	75,779	3,5	1005,44	7,8	9,9	9,7	1	1	1	1	1	1	1	1	1	0	1	-33,54475	275,166025	291,514328	0
14.01.2021	18:27:03	0	0	3,276259	4,1085	100,3896	1,296	75,78	3,5	1005,66	8	9,8	9,6	1	1	1	1	1	1	1	1	1	0	1	-30,584919	275,287832	295,050112	0
14.01.2021	18:27:04	0	0	4,857873	4,20225	94,392	1,299	75,773	3,5	1005,4	8	9,9	9,7	1	1	1	1	1	1	1	1	1	0	1	-27,413672	275,21023	297,854337	0
14.01.2021	18:27:05	0	0	2,711371	4,4715	105,12	1,294	75,778	3,5	1005,5	7,8	9,8	9,7	1	1	1	1	1	1	1	1	1	0	1	-33,333333	275,147111	291,636379	0
14.01.2021	18:27:06	0	0	3,841109	4,84125	101,5092	1,294	75,773	3,5	1005,46	7,7	9,9	9,7	1	1	1	1	1	1	1	1	1	0	1	-30,232558	275,279899	295,36494	0
14.01.2021	18:27:07	0	0	3,050292	4,8285	108,8604	1,295	75,776	3,5	1005,46	7,8	9,8	9,7	1	1	1	1	1	1	1	1	1	0	1	-32,699084	275,120347	292,144208	0
14.01.2021	18:27:08	0	0	4,293004	4,71075	114,4836	1,299	75,782	3,5	1005,46	7,8	9,9	9,7	1	1	1	1	1	1	1	1	1	0	1	-27,69556	275,238701	297,707066	0
14.01.2021	18:27:09	0	0	3,502187	4,494	113,4216	1,297	75,783	3,5	1005,48	7,7	9,9	9,7	1	1	1	1	1	1	1	1	1	0	1	-32,417195	275,278313	293,172799	0
14.01.2021	18:27:10	0	0	3,728135	4,3215	106,6572	1,296	75,789	3,5	1005,4	8	9,9	9,7	1	1	1	1	1	1	1	1	1	0	1	-30,514447	275,156565	294,499935	0
14.01.2021	18:27:11	0	0	4,29303	4,4475	122,7384	1,297	75,799	3,5	1005,56	7,8	9,9	9,6	1	1	1	1	1	1	1	1	1	0	1	-32,346723	275,125068	292,518863	0
14.01.2021	18:27:12	0	0	4,970847	4,52175	113,4144	1,296	75,801	3,5	1005,42	8	9,9	9,7	1	1	1	1	1	1	1	1	1	0	1	-30,514447	275,235535	294,87321	0
14.01.2021	18:27:13	0	0	2,937318	4,46325	121,6476	1,297	75,813	3,5	1005,38	8	9,9	9,7	1	1	1	1	1	1	1	1	1	0	1	-26,215645	275,117201	298,612788	0
14.01.2021	18:27:14	0	0	2,824345	4,4145	117,4248	1,294	75,805	3,5	1005,5	8	9,9	9,7	1	1	1	1	1	1	1	1	1	0	1	-31,92389	275,233953	293,456284	0
14.01.2021	18:27:15	0	0	4,857873	4,305	118,728	1,3	75,814	3,5	1005,46	7,8	9,9	9,7	1	1	1	1	1	1	1	1	1	0	1	-32,205779	275,101478	292,548402	0
14.01.2021	18:27:16	0	0	4,518951	4,11	110,3616	1,295	75,811	3,5	1005,38	7,8	9,9	9,7	1	1	1	1	1	1	1	1	1	0	1	-30,373502	275,265628	295,156484	0
14.01.2021	18:27:17	0	0	4,518951	3,9435	113,4396	1,295	75,813	3,5	1005,52	8	9,9	9,7	1	1	1	1	1	1	1	1	1	0	1	-30,796335	275,172334	294,292554	0
14.01.2021	18:27:18	0	0	2,937318	3,96075	102,7404	1,297	75,818	3,5	1005,48	7,8	9,9	9,7	1	1	1	1	1	1	1	1	1	0	1	-32,276251	275,093621	292,440831	0
14.01.2021	18:27:19	0	0	4,18003	3,96525	105,1272	1,292	75,823	3,5	1005,34	8	9,9	9,7	1	1	1	1	1	1	1	1	1	0	1	-28,893587	275,227624	296,45666	0
14.01.2021	18:27:20	0	0	4,857873	3,74475	107,0316	1,298	75,832	3,5	1005,46	8	9,9	9,7	1	1	1	1	1	1	1	1	1	0	1	-30,091614	275,271969	295,46837	0
14.01.2021	18:27:21	0	0	3,954082	3,75075	111,0708	1,293	75,825	3,5	1005,3	7,8	9,9	9,7	1	1	1	1	1	1	1	1	1	0	1	-33,54475	275,241867	291,872849	0
14.01.2021	18:27:22	0	0	3,954082	3,66675	113,0112	1,293	75,834	3,5	1005,46	8	9,9	9,7	1	1	1	1	1	1	1	1	1	0	1	-29,809725	275,213391	295,473229	0
14.01.2021	18:27:23	0	0	2,598397	3,732	110,304	1,292	75,829	3,5	1005,4	7,8	9,9	9,7	1	1	1	1	1	1	1	1	1	0	1	-30,443975	275,115628	294,377029	0
14.01.2021	18:27:24	0	0	4,067081	3,6555	105,1308	1,29	75,82	3,5	1005,36	7,8	9,9	9,6	1	1	1	1	1	1	1	1	1	0	1	-32,064834	275,147111	292,904878	0
14.01.2021	18:27:25	0	0	2,937318	3,45825	107,7552	1,292	75,811	3,5	1005,54	7,8	9,9	9,7	1	1	1	1	1	1	1	1	1	0	1	-27,977449	275,150262	297,00715	0
14.01.2021	18:27:26	0	0	4,857902	3,2055	113,4216	1,293	75,822	3,5	1005,4	7,8	9,9	9,6	1	1	1	1	1	1	1	1	1	0	1	-30,443975	275,29418	295,221097	0
14.01.2021	18:27:27	0	0	4,631925	3,1245	111,4416	1,295	75,847	3,5	1005,46	8	9,9	9,7	1	1	1	1	1	1	1	1	1	0	1	-33,262861	275,205489	291,982734	0
14.01.2021	18:27:28	0	0	4,857902	3,38025	111,8448	1,294	75,837	3,5	1005,4	7,8	9,9	9,6	1	1	1	1	1	1	1	1	1	0	1	-28,400282	275,273555	297,167204	0
14.01.2021	18:27:29	0	0	2,711371	3,47925	112,7556	1,289	75,845	3,5	1005,38	8	9,9	9,7	1	1	1	1	1	1	1	1	1	0	1	-30,866808	275,226042	294,475959	0
14.01.2021	18:27:30	0	0	3,615183	3,43875	110,3508	1,292	75,871	3,5	1005,46	7,8	9,9	9,6	1	1	1	1	1	1	1	1	1	0	1	-28,964059	275,107765	295,819814	0
14.01.2021	18:27:31	0	0	4,405978	3,3735	117,7956	1,291	75,88	3,5	1005,56	7,8	9,9	9,7	1	1	1	1	1	1	1	1	1	0	1	-30,162086	275,221297	295,158246	0
14.01.2021	18:27:32	0	0	4,631953	3,2175	86,2668	1,294	75,893	3,5	1005,46	8	9,9	9,6	1	1	1	1	1	1	1	1	1	0	1	-32,628612	275,286245	292,998912	0
14.01.2021	18:27:33	0	0	4,518951	3,465	101,8152	1,295	75,888	3,5	1005,42	8	9,9	9,7	1	1	1	1	1	1	1	1	1	0	1	-29,034531	275,230788	296,330677	0
14.01.2021	18:27:34	0	0	2,711371	3,54675	97,3116	1,291	75,878	3,5	1005,38	7,8	9,8	9,7	1	1	1	1	1	1	1	1	1	0	1	-28,893587	275,156565	296,120795	0
14.01.2021	18:27:35	0	0	3,27624	3,40575	94,3812	1,295	75,898	3,5	1005,52	7,8	9,9	9,7	1	1	1	1	1	1	1	1	1	0	1	-27,766032	275,268798	297,778951	0
14.01.2021	18:27:36	0	0	4,518951	3,5595	85,2012	1,29	75,909	3,5	1005,34	7,8	9,9	9,7	1	1	1	1	1	1	1	1	1	0	1	-30,655391	275,21023	294,612617	0
14.01.2021	18:27:37	0	0	3,954106	3,72975	80,514	1,295	75,896	3,5	1005,36	7,8	9,8	9,6	1	1	1	1	1	1	1	1	1	0	1	-28,470754	275,096763	296,261166	0
14.01.2021	18:27:38	0	0	3,502187	3,7665	75,2328	1,29	75,915	3,5	1005,42	7,8	9,9	9,7	1	1	1	1	1	1	1	1	1	0	1	-32,487667	275,172334	292,601222	0
14.01.2021	18:27:39	0	0	3,050292	3,68025	79,0308	1,288	75,927	3,5	1005,46	7,8	9,9	9,7	1	1	1	1	1	1	1	1	1	0	1	-30,93728	275,09205	293,772385	0
14.01.2021	18:27:40	0	0	4,970876	3,65925	86,2812	1,292	75,923	3,5	1005,42	7,8	9,8	9,6	1	1	1	1	1	1	1	1	1	0	1	-26,849894	275,221297	298,470437	0
14.01.2021	18:27:41	0	0	4,405978	3,9225	54,81	1,291	75,914	3,5	1005,44	7,8	9,8	9,7	1	1	1	1	1	1	1	1	1	0	1	-31,712474	275,25612	293,772538	0
14.01.2021	18:27:42	0	0	3,163266	3,87375	49,9536	1,288	75,914	3,5	1005,38	7,8	9,9	9,7	1	1	1	1	1	1	1	1	1	0	1	-34,53136	275,121921	290,319362	0
14.01.2021	18:27:43	0	0	2,485438	3,927	63,8676	1,289	75,927	3,5	1005,42	7,8	9,9	9,6	1	1	1	1	1	1	1	1	1	0	1	-27,131783	275,21023	298,136226	0
14.01.2021	18:27:44	0	0	3,615161	4,06125	57,726	1,285	75,923	3,5	1005,36	7,8	9,8	9,7	1	1	1	1	1	1	1	1	1	0	1	-31,289641	275,084197	293,382948	0
14.01.2021	18:27:45	0	0	3,276259	4,57575	87,3756	1,29	75,92	3,5	1005,4	8	9,9	9,6	1	1	1	1	1	1	1	1	1	0	1	-34,178999	275,14396	290,775829	0
14.01.2021	18:27:46	0	0	2,824362	4,43625	87,3648	1,292	75,921	3,5	1005,4	7,8	9,9	9,6	1	1	1	1	1	1	1	1	1	0	1	-32,699084	275,259289	292,800916	0
14.01.2021	18:27:47	0	0	3,050311	4,3905	83,3472	1,296	75,916	3,5	1005,42	7,8	9,9	9,6	1	1	1	1	1	1	1	1	1	0	1	-28,752643	275,19601	296,448147	0
14.01.2021	18:27:48	0	0	4,293004	4,20375	92,9628	1,292	75,898	3,5	1005,4	7,8	9,8	9,7	1	1	1	1	1	1	1	1	1	0	1	-28,188865	275,254536	297,288653	0
14.01.2021	18:27:49	0	0	4,406004	4,22175	105,8904	1,289	75,909	3,5	1005,44	7,8	9,9	9,6	1	1	1	1	1	1	1	1	1	0	1	-26,70895	275,126641	298,164069	0
14.01.2021	18:27:50	0	0	4,067056	3,9465	90,0324	1,29	75,921	3,5	1005,38	8	9,8	9,7	1	1	1	1	1	1	1	1	1	0	1	-33,474278	275,246617	291,965785	0
14.01.2021	18:27:51	0	0	4,406004	4,10325	78,7284	1,284	75,915	3,5	1005,4	8	9,9	9,6	1	1	1	1	1	1	1	1	1	0	1	-27,131783	275,112483	297,674366	0
14.01.2021	18:27:52	0	0	2,598413	4,1655	99,1188	1,29	75,917	3,5	1005,4	7,8	9,9	9,6	1	1	1	1	1	1	1	1	1	0	1	-30,514447	275,252952	294,955579	0
14.01.2021	18:27:53	0	0	4,744899	4,90575	108,4968	1,289	75,922	3,5	1005,3	7,8	9,9	9,7	1	1	1	1	1	1	1	1	1	0	1	-31,360113	275,23237	294,012578	0
14.01.2021	18:27:54	0	0	3,841109	4,73475	91,1592	1,285	75,925	3,5	1005,24	7,8	9,9	9,7	1	1	1	1	1	1	1	1	1	0	1	-30,514447	275,226042	294,82832	0
14.01.2021	18:27:55	0	0	3,954106	4,43025	89,4132	1,294	75,948	3,5	1005,4	7,8	9,9	9,6	1	1	1	1	1	1	1	1	1	0	1	-27,836505	275,074777	296,791616	0
14.01.2021	18:27:56	0	0	2,824362	4,2015	78,2532	1,28	75,947	3,5	1005,34	7,8	9,8	9,6	1	1	1	1	1	1	1	1	1	0	1	-28,047921	275,123494	296,810233	0
14.01.2021	18:27:57	0	0	2,711371	4,22175	88,1028	1,286	75,964	3,5	1005,48	7,8	9,9	9,7	1	1	1	1	1	1	1	1	1	0	1	-32,487667	275,125068	292,377918	0
14.01.2021	18:27:58	0	0	2,485423	4,38675	88,5564	1,296	75,964	3,5	1005,54	7,8	9,9	9,7	1	1	1	1	1	1	1	1	1	0	1	-29,457364	275,09205	295,2523	0
14.01.2021	18:27:59	0	0	2,937336	4,47525	85,5396	1,285	75,959	3,5	1005,3	7,8	9,9	9,6	1	1	1	1	1	1	1	1	1	0	1	-31,360113	275,126641	293,512906	0
14.01.2021	18:28:00	0	0	4,405978	4,5855	80,154	1,292	75,958	3,5	1005,3	7,8	9,9	9,7	1	1	1	1	1	1	1	1	1	0	1	-28,470754	275,084197	296,201834	0
14.01.2021	18:28:01	0	0	2,485438	4,38225	82,584	1,29	75,971	3,5	1005,46	7,8	9,9	9,6	1	1	1	1	1	1	1	1	1	0	1	-32,980973	275,117201	291,84746	0
14.01.2021	18:28:02	0	0	2,485438	4,38225	82,584	1,29	75,971	3,5	1005,46	7,8	9,9	9,6	1	1	1	1	1	1	1	1	1	0	1	-32,980973	275,117201	291,84746	0
14.01.2021	18:28:03	0	0	4,29303	4,31325	76,896	1,293	75,985	3,5	1005,44	7,8	9,9	9,6	1	1	1	1	1	1	1	1	1	0	1	-28,611698	275,267213	296,925786	0
14.01.2021	18:28:04	0	0	4,180055	4,3425	94,356	1,294	75,961	3,5	1005,46	7,8	9,9	9,6	1	1	1	1	1	1	1	1	1	0	1	-29,31642	275,237118	296,078722	0
14.01.2021	18:28:05	0	0	4,631925	4,37025	85,5108	1,292	75,961	3,5	1005,28	7,8	9,9	9,7	1	1	1	1	1	1	1	1	1	0	1	-31,148696	275,227624	294,20155	0
14.01.2021	18:28:06	0	0	2,711387	4,54875	82,35	1,287	75,966	3,5	1005,54	7,8	9,9	9,6	1	1	1	1	1	1	1	1	1	0	1	-31,148696	275,125068	293,71689	0
14.01.2021	18:28:07	0	0	3,954106	4,49175	79,398	1,294	75,957	3,5	1005,42	7,8	9,9	9,6	1	1	1	1	1	1	1	1	1	0	1	-29,175476	275,101478	295,578705	0
14.01.2021	18:28:08	0	0	2,485438	4,1715	99,5004	1,291	75,956	3,5	1005,36	7,8	9,9	9,6	1	1	1	1	1	1	1	1	1	0	1	-29,739253	275,137661	295,185816	0
14.01.2021	18:28:09	0	0	4,857902	4,01775	97,3188	1,292	75,973	3,5	1005,5	7,8	9,9	9,6	1	1	1	1	1	1	1	1	1	0	1	-31,642001	275,221297	293,67833	0
14.01.2021	18:28:10	0	0	3,841132	4,03875	90,7596	1,286	75,96	3,5	1005,42	7,8	9,9	9,6	1	1	1	1	1	1	1	1	1	0	1	-32,980973	275,275141	292,594015	0
14.01.2021	18:28:11	0	0	2,03354	3,98175	87,732	1,295	75,944	3,5	1005,3	7,8	9,8	9,6	1	1	1	1	1	1	1	1	1	0	1	-29,386892	275,115628	295,434112	0
14.01.2021	18:28:12	0	0	4,067081	3,765	96,6096	1,292	75,94	3,5	1005,48	7,8	9,8	9,6	1	1	1	1	1	1	1	1	1	0	1	-36,363636	275,2482	289,083916	0
14.01.2021	18:28:13	0	0	4,518979	3,501	89,6832	1,292	75,956	3,5	1005,5	7,8	9,8	9,6	1	1	1	1	1	1	1	1	1	0	1	-32,487667	275,14396	292,467161	0
14.01.2021	18:28:14	0	0	2,259489	3,44025	97,2972	1,29	75,965	3,5	1005,4	7,8	9,9	9,6	1	1	1	1	1	1	1	1	1	0	1	-28,823115	275,237118	296,572027	0
14.01.2021	18:28:15	0	0	4,518951	3,5265	101,7864	1,294	75,945	3,5	1005,4	7,8	9,9	9,7	1	1	1	1	1	1	1	1	1	0	1	-28,188865	275,085767	296,491137	0
14.01.2021	18:28:16	0	0	4,406004	3,429	83,7216	1,289	75,954	3,5	1005,42	7,8	9,9	9,6	1	1	1	1	1	1	1	1	1	0	1	-28,188865	275,213391	297,094089	0
14.01.2021	18:28:17	0	0	3,502208	3,603	91,8864	1,293	75,952	3,5	1005,42	7,8	9,8	9,6	1	1	1	1	1	1	1	1	1	0	1	-28,32981	275,265628	297,200176	0
14.01.2021	18:28:18	0	0	3,954106	3,6825	90,7704	1,29	75,949	3,5	1005,22	7,8	9,8	9,6	1	1	1	1	1	1	1	1	1	0	1	-28,259338	275,14081	296,68061	0
14.01.2021	18:28:19	0	0	4,631953	3,747	91,1592	1,295	75,95	3,5	1005,54	7,8	9,8	9,6	1	1	1	1	1	1	1	1	1	0	1	-30,30303	275,081056	294,354732	0
14.01.2021	18:28:20	0	0	2,711387	3,72375	89,6724	1,288	75,929	3,5	1005,38	7,8	9,8	9,6	1	1	1	1	1	1	1	1	1	0	1	-28,893587	275,156565	296,120795	0
14.01.2021	18:28:21	0	0	1,920566	3,8565	92,6568	1,29	75,933	3,5	1005,38	7,8	9,9	9,6	1	1	1	1	1	1	1	1	1	0	1	-30,655391	275,088908	294,039441	0
14.01.2021	18:28:22	0	0	4,29303	3,97425	94,752	1,29	75,938	3,5	1005,4	7,8	9,9	9,6	1	1	1	1	1	1	1	1	1	0	1	-30,021142	275,150262	294,963457	0
14.01.2021	18:28:23	0	0	2,372464	4,152	93,3444	1,293	75,949	3,5	1005,64	7,8	9,9	9,6	1	1	1	1	1	1	1	1	1	0	1	-27,484144	275,082626	297,181031	0
14.01.2021	18:28:24	0	0	2,824345	4,3605	88,5744	1,29	75,932	3,5	1005,46	7,8	9,8	9,7	1	1	1	1	1	1	1	1	1	0	1	-29,034531	275,128215	295,845921	0
14.01.2021	18:28:25	0	0	2,711387	4,245	91,1412	1,295	75,943	3,5	1005,38	7,8	9,9	9,6	1	1	1	1	1	1	1	1	1	0	1	-31,712474	275,098334	293,026866	0
14.01.2021	18:28:26	0	0	3,389234	3,939	98,4384	1,291	75,941	3,5	1005,36	7,8	9,8	9,6	1	1	1	1	1	1	1	1	1	0	1	-30,866808	275,088908	293,828024	0
14.01.2021	18:28:27	0	0	3,841132	3,9135	94,086	1,291	75,939	3,5	1005,38	7,8	9,8	9,6	1	1	1	1	1	1	1	1	1	0	1	-30,091614	275,21023	295,176395	0
14.01.2021	18:28:28	0	0	4,631953	3,843	94,0932	1,285	75,929	3,5	1005,5	8	9,8	9,6	1	1	1	1	1	1	1	1	1	0	1	-29,668781	275,257704	295,823724	0
14.01.2021	18:28:29	0	0	4,406004	3,8865	96,2424	1,292	75,925	3,5	1005,4	7,8	9,9	9,6	1	1	1	1	1	1	1	1	1	0	1	-29,457364	275,21181	295,818117	0
14.01.2021	18:28:30	0	0	3,163285	3,945	83,7576	1,294	75,917	3,5	1005,38	7,8	9,8	9,6	1	1	1	1	1	1	1	1	1	0	1	-32,699084	275,268798	292,8459	0
14.01.2021	18:28:31	0	0	3,389234	3,639	87,354	1,293	75,916	3,5	1005,3	7,8	9,9	9,6	1	1	1	1	1	1	1	1	1	0	1	-34,460888	275,173911	290,635456	0
14.01.2021	18:28:32	0	0	3,050311	3,5745	77,1984	1,286	75,92	3,5	1005,4	7,8	9,8	9,6	1	1	1	1	1	1	1	1	1	0	1	-32,699084	275,270384	292,8534	0
14.01.2021	18:28:33	0	0	4,857902	3,4365	88,1388	1,288	75,924	3,5	1005,46	7,8	9,8	9,6	1	1	1	1	1	1	1	1	1	0	1	-35,447498	275,14081	289,492449	0
14.01.2021	18:28:34	0	0	4,518979	3,33	91,17	1,29	75,926	3,5	1005,34	7,8	9,9	9,6	1	1	1	1	1	1	1	1	1	0	1	-27,625088	275,096763	297,106831	0
14.01.2021	18:28:35	0	0	3,163285	3,26475	92,646	1,294	75,94	3,5	1005,52	7,8	9,9	9,6	1	1	1	1	1	1	1	1	1	0	1	-30,443975	275,268798	295,101009	0
14.01.2021	18:28:36	0	0	3,050311	3,315	92,2608	1,289	75,938	3,5	1005,6	7,8	9,8	9,6	1	1	1	1	1	1	1	1	1	0	1	-31,219168	275,154989	293,787766	0
14.01.2021	18:28:37	0	0	4,631925	3,4125	91,5192	1,29	75,933	3,5	1005,46	7,8	9,8	9,7	1	1	1	1	1	1	1	1	1	0	1	-32,064834	275,096763	292,667085	0
14.01.2021	18:28:38	0	0	4,518979	3,255	82,3644	1,295	75,944	3,5	1005,56	7,8	9,8	9,6	1	1	1	1	1	1	1	1	1	0	1	-26,638478	275,170756	298,442958	0
14.01.2021	18:28:39	0	0	3,276259	3,18825	82,602	1,291	75,934	3,5	1005,44	7,8	9,8	9,6	1	1	1	1	1	1	1	1	1	0	1	-26,920366	275,264043	298,602122	0
14.01.2021	18:28:40	0	0	4,067081	2,88075	75,6072	1,291	75,932	3,5	1005,3	7,8	9,8	9,6	1	1	1	1	1	1	1	1	1	0	1	-30,162086	275,175489	294,941714	0
14.01.2021	18:28:41	0	0	4,180055	2,73825	89,3088	1,285	75,924	3,5	1005,46	7,8	9,9	9,6	1	1	1	1	1	1	1	1	1	0	1	-27,484144	275,259289	298,015856	0
14.01.2021	18:28:42	0	0	3,728135	2,68875	73,7892	1,29	75,934	3,5	1005,4	7,8	9,9	9,7	1	1	1	1	1	1	1	1	1	0	1	-26,638478	275,233953	298,741696	0
14.01.2021	18:28:43	0	0	4,067081	2,66175	82,3572	1,292	75,918	3,5	1005,44	7,8	9,8	9,6	1	1	1	1	1	1	1	1	1	0	1	-32,417195	275,09205	292,29247	0
14.01.2021	18:28:44	0	0	2,937336	2,793	94,3848	1,29	75,91	3,5	1005,32	7,8	9,8	9,6	1	1	1	1	1	1	1	1	1	0	1	-28,32981	275,118774	296,506052	0
14.01.2021	18:28:45	0	0	2,485438	2,76375	93,3624	1,288	75,902	3,5	1005,34	7,8	9,8	9,6	1	1	1	1	1	1	1	1	1	0	1	-30,162086	275,09205	294,547579	0
14.01.2021	18:28:46	0	0	5,083851	2,63625	96,5952	1,284	75,9	3,5	1005,4	7,8	9,8	9,6	1	1	1	1	1	1	1	1	1	0	1	-26,70895	275,257704	298,783555	0
14.01.2021	18:28:47	0	0	2,711387	2,67675	94,4064	1,291	75,902	3,5	1005,46	7,8	9,8	9,6	1	1	1	1	1	1	1	1	1	0	1	-29,739253	275,096763	294,992667	0
14.01.2021	18:28:48	0	0	4,180055	2,95725	95,5404	1,291	75,877	3,5	1005,46	7,8	9,8	9,6	1	1	1	1	1	1	1	1	1	0	1	-29,598309	275,252952	295,871717	0
14.01.2021	18:28:49	0	0	2,598413	2,898	78,2748	1,291	75,896	3,5	1005,48	7,8	9,9	9,6	1	1	1	1	1	1	1	1	1	0	1	-31,289641	275,200749	293,933548	0
14.01.2021	18:28:50	0	0	4,744927	3,3375	90,7992	1,283	75,884	3,5	1005,46	7,8	9,8	9,6	1	1	1	1	1	1	1	1	1	0	1	-29,598309	275,066931	294,992775	0
14.01.2021	18:28:51	0	0	3,389234	3,48975	73,4652	1,29	75,885	3,5	1005,52	7,8	9,8	9,6	1	1	1	1	1	1	1	1	1	0	1	-30,514447	275,199169	294,701275	0
14.01.2021	18:28:52	0	0	2,485438	3,558	74,5416	1,294	75,883	3,5	1005,4	7,8	9,8	9,6	1	1	1	1	1	1	1	1	1	0	1	-33,121917	275,270384	292,430567	0
14.01.2021	18:28:53	0	0	2,824362	3,56925	86,2956	1,284	75,88	3,5	1005,58	7,8	9,8	9,6	1	1	1	1	1	1	1	1	1	0	1	-31,219168	275,123494	293,638985	0
14.01.2021	18:28:54	0	0	2,485438	3,363	77,58	1,29	75,899	3,5	1005,46	7,8	9,8	9,6	1	1	1	1	1	1	1	1	1	0	1	-31,148696	275,071638	293,464607	0
14.01.2021	18:28:55	0	0	4,180055	3,12225	73,0584	1,292	75,898	3,5	1005,44	7,8	9,8	9,6	1	1	1	1	1	1	1	1	1	0	1	-33,685694	275,233953	291,694479	0
14.01.2021	18:28:56	0	0	4,631953	3,16425	87,7356	1,294	75,891	3,5	1005,32	7,8	9,8	9,6	1	1	1	1	1	1	1	1	1	0	1	-31,92389	275,218134	293,381488	0
14.01.2021	18:28:57	0	0	3,050292	3,13425	86,6628	1,295	75,907	3,5	1005,4	7,8	9,9	9,7	1	1	1	1	1	1	1	1	1	0	1	-31,782946	275,129789	293,104941	0
14.01.2021	18:28:58	0	0	5,083851	3,0525	74,556	1,291	75,892	3,5	1005,46	7,8	9,8	9,6	1	1	1	1	1	1	1	1	1	0	1	-28,682171	275,19759	296,526085	0
14.01.2021	18:28:59	0	0	2,711387	2,9805	77,9832	1,286	75,906	3,5	1005,5	7,8	9,8	9,6	1	1	1	1	1	1	1	1	1	0	1	-33,333333	275,238701	292,069293	0
14.01.2021	18:29:00	0	0	4,631953	3,0675	83,3652	1,291	75,905	3,5	1005,5	7,8	9,8	9,6	1	1	1	1	1	1	1	1	1	0	1	-31,994362	275,085767	292,68564	0
14.01.2021	18:29:01	0	0	5,3098	3,0405	82,3212	1,29	75,918	3,5	1005,48	7,8	9,8	9,6	1	1	1	1	1	1	1	1	1	0	1	-30,373502	275,233953	295,006671	0
14.01.2021	18:29:02	0	0	5,3098	3,0405	82,3212	1,29	75,918	3,5	1005,48	7,8	9,8	9,6	1	1	1	1	1	1	1	1	1	0	1	-30,373502	275,233953	295,006671	0
14.01.2021	18:29:03	0	0	4,406004	3,168	94,0932	1,287	75,894	3,5	1005,24	7,8	9,8	9,6	1	1	1	1	1	1	1	1	1	0	1	-31,078224	275,099906	293,668536	0
14.01.2021	18:29:04	0	0	4,518979	3,34425	85,176	1,29	75,9	3,5	1005,38	7,8	9,8	9,6	1	1	1	1	1	1	1	1	1	0	1	-36,504581	275,245033	288,927994	0
14.01.2021	18:29:05	0	0	3,050311	3,30525	89,7264	1,279	75,897	3,5	1005,44	7,8	9,9	9,6	1	1	1	1	1	1	1	1	1	0	1	-30,373502	275,126641	294,499516	0
14.01.2021	18:29:06	0	0	2,598413	3,05775	94,0932	1,282	75,89	3,5	1005,54	7,8	9,8	9,6	1	1	1	1	1	1	1	1	1	0	1	-33,474278	275,24345	291,950809	0
14.01.2021	18:29:07	0	0	3,389234	3,096	75,2292	1,283	75,894	3,5	1005,5	7,8	9,8	9,6	1	1	1	1	1	1	1	1	1	0	1	-27,554616	275,115628	297,266388	0
14.01.2021	18:29:08	0	0	3,389214	3,273	95,1372	1,283	75,884	3,5	1005,22	7,8	9,8	9,7	1	1	1	1	1	1	1	1	1	0	1	-30,30303	275,065362	294,280648	0
14.01.2021	18:29:09	0	0	4,180055	3,29925	92,9556	1,282	75,911	3,5	1005,46	7,8	9,8	9,6	1	1	1	1	1	1	1	1	1	0	1	-26,849894	275,077916	297,793046	0
14.01.2021	18:29:10	0	0	3,841132	3,3105	92,9556	1,286	75,905	3,5	1005,36	7,8	9,8	9,6	1	1	1	1	1	1	1	1	1	0	1	-28,752643	275,167602	296,313887	0
14.01.2021	18:29:11	0	0	4,406004	3,41775	96,966	1,282	75,913	3,5	1005,56	7,8	9,9	9,6	1	1	1	1	1	1	1	1	1	0	1	-29,31642	275,048113	295,18585	0
14.01.2021	18:29:12	0	0	2,937336	3,4755	85,5288	1,282	75,908	3,5	1005,42	7,8	9,8	9,6	1	1	1	1	1	1	1	1	1	0	1	-31,007752	275,181801	294,125878	0
14.01.2021	18:29:13	0	0	2,372464	3,59025	85,1868	1,282	75,915	3,5	1005,32	7,8	9,8	9,6	1	1	1	1	1	1	1	1	1	0	1	-31,148696	275,240284	294,261416	0
14.01.2021	18:29:14	0	0	2,824362	3,45375	84,042	1,282	75,928	3,5	1005,32	7,8	9,9	9,6	1	1	1	1	1	1	1	1	1	0	1	-26,70895	275,164448	298,342676	0
14.01.2021	18:29:15	0	0	3,954106	3,51675	90,756	1,282	75,927	3,5	1005,42	7,8	9,8	9,6	1	1	1	1	1	1	1	1	1	0	1	-25,017618	275,2482	300,429935	0
14.01.2021	18:29:16	0	0	3,502208	3,57525	90,7704	1,281	75,924	3,5	1005,4	7,8	9,8	9,6	1	1	1	1	1	1	1	1	1	0	1	-29,386892	275,150262	295,597707	0
14.01.2021	18:29:17	0	0	4,631953	3,48375	82,98	1,287	75,925	3,5	1005,46	7,8	9,9	9,6	1	1	1	1	1	1	1	1	1	0	1	-27,484144	275,235535	297,903513	0
14.01.2021	18:29:18	0	0	2,711387	3,67425	91,8792	1,272	75,908	3,5	1005,44	7,8	9,8	9,6	1	1	1	1	1	1	1	1	1	0	1	-29,175476	275,073207	295,445236	0
14.01.2021	18:29:19	0	0	4,180055	3,693	85,9392	1,277	75,919	3,5	1005,32	7,8	9,8	9,6	1	1	1	1	1	1	1	1	1	0	1	-26,0747	275,121921	298,776022	0
14.01.2021	18:29:20	0	0	4,406004	3,59925	87,336	1,283	75,926	3,5	1005,48	7,8	9,9	9,6	1	1	1	1	1	1	1	1	1	0	1	-27,202255	275,090479	297,499993	0
14.01.2021	18:29:21	0	0	3,389234	3,5505	93,3624	1,286	75,928	3,5	1005,36	7,8	9,8	9,6	1	1	1	1	1	1	1	1	1	0	1	-29,809725	275,207069	295,443341	0
14.01.2021	18:29:22	0	0	2,372464	3,504	93,33	1,281	75,94	3,5	1005,38	7,8	9,8	9,6	1	1	1	1	1	1	1	1	1	0	1	-28,964059	275,071638	295,649244	0
14.01.2021	18:29:23	0	0	4,970876	3,50175	97,3332	1,275	75,936	3,5	1005,38	7,8	9,8	9,6	1	1	1	1	1	1	1	1	1	0	1	-27,272727	275,183379	297,868362	0
14.01.2021	18:29:24	0	0	2,485438	3,65175	102,6756	1,282	75,929	3,5	1005,4	7,8	9,8	9,6	1	1	1	1	1	1	1	1	1	0	1	-27,413672	275,241867	298,003927	0
14.01.2021	18:29:25	0	0	3,276259	3,56325	97,7184	1,276	75,934	3,5	1005,38	7,8	9,8	9,6	1	1	1	1	1	1	1	1	1	0	1	-28,470754	275,096763	296,261166	0
14.01.2021	18:29:26	0	0	3,163285	3,43875	84,7764	1,272	75,916	3,5	1005,48	7,8	9,8	9,6	1	1	1	1	1	1	1	1	1	0	1	-29,739253	275,051248	294,777812	0
14.01.2021	18:29:27	0	0	3,276259	3,48825	84,4128	1,276	75,927	3,5	1005,46	7,8	9,8	9,6	1	1	1	1	1	1	1	1	1	0	1	-29,598309	275,189694	295,572624	0
14.01.2021	18:29:28	0	0	2,485438	3,534	90,0972	1,277	75,95	3,5	1005,54	7,8	9,8	9,6	1	1	1	1	1	1	1	1	1	0	1	-27,625088	275,076347	297,010442	0
14.01.2021	18:29:29	0	0	2,598413	3,411	80,8992	1,278	75,932	3,5	1005,46	7,8	9,8	9,6	1	1	1	1	1	1	1	1	1	0	1	-27,906977	275,120347	296,936315	0
14.01.2021	18:29:30	0	0	4,29303	3,3165	79,7688	1,269	75,94	3,5	1005,24	7,8	9,8	9,6	1	1	1	1	1	1	1	1	1	0	1	-29,457364	275,063793	295,11891	0
14.01.2021	18:29:31	0	0	4,970876	3,453	87,3972	1,274	75,948	3,5	1005,44	7,8	9,8	9,6	1	1	1	1	1	1	1	1	1	0	1	-33,262861	275,177067	291,848395	0
14.01.2021	18:29:32	0	0	2,598413	3,54675	89,4132	1,274	75,954	3,5	1005,44	7,8	9,8	9,6	1	1	1	1	1	1	1	1	1	0	1	-28,047921	275,077916	296,595019	0
14.01.2021	18:29:33	0	0	5,083851	3,36525	95,5152	1,275	75,957	3,5	1005,38	7,8	9,8	9,6	1	1	1	1	1	1	1	1	1	0	1	-30,584919	275,21181	294,690562	0
14.01.2021	18:29:34	0	0	2,598413	3,0285	94,0716	1,275	75,955	3,5	1005,26	7,8	9,8	9,6	1	1	1	1	1	1	1	1	1	0	1	-29,527837	275,203909	295,710289	0
14.01.2021	18:29:35	0	0	2,372464	2,898	80,5104	1,272	75,968	3,5	1005,44	7,8	9,8	9,6	1	1	1	1	1	1	1	1	1	0	1	-28,611698	275,238701	296,790928	0
14.01.2021	18:29:36	0	0	4,180055	2,64525	77,1984	1,271	75,96	3,5	1005,1	7,8	9,8	9,6	1	1	1	1	1	1	1	1	1	0	1	-30,866808	275,129789	294,021079	0
14.01.2021	18:29:37	0	0	4,518979	2,41725	90,3996	1,273	75,971	3,5	1005,44	7,8	9,8	9,6	1	1	1	1	1	1	1	1	1	0	1	-30,93728	275,238701	294,465347	0
14.01.2021	18:29:38	0	0	4,857902	2,35275	83,7072	1,269	75,99	3,5	1005,52	7,8	9,8	9,6	1	1	1	1	1	1	1	1	1	0	1	-29,598309	275,136086	295,319322	0
14.01.2021	18:29:39	0	0	2,03354	2,54925	98,7696	1,272	75,995	3,5	1005,44	7,8	9,8	9,6	1	1	1	1	1	1	1	1	1	0	1	-26,286117	275,070069	298,319779	0
14.01.2021	18:29:40	0	0	4,518979	2,6595	76,824	1,267	75,985	3,5	1005,32	7,8	9,8	9,6	1	1	1	1	1	1	1	1	1	0	1	-29,034531	275,14396	295,920297	0
14.01.2021	18:29:41	0	0	3,841132	2,66475	95,1516	1,266	76,012	3,5	1005,44	7,8	9,8	9,6	1	1	1	1	1	1	1	1	1	0	1	-29,598309	275,0685	295,000181	0
14.01.2021	18:29:42	0	0	4,067081	2,56425	101,2032	1,266	76,021	3,5	1005,42	7,8	9,8	9,6	1	1	1	1	1	1	1	1	1	0	1	-28,32981	275,200749	296,893379	0
14.01.2021	18:29:43	0	0	3,502208	2,48325	97,0056	1,269	76,021	3,5	1005,42	7,8	9,8	9,6	1	1	1	1	1	1	1	1	1	0	1	-32,487667	275,238701	292,914959	0
14.01.2021	18:29:44	0	0	3,502208	2,4495	88,5564	1,268	76,032	3,5	1005,44	7,8	9,8	9,6	1	1	1	1	1	1	1	1	1	0	1	-29,668781	275,062225	294,900089	0
14.01.2021	18:29:45	0	0	3,615183	2,4255	86,6592	1,259	76,019	3,5	1005,4	7,8	9,8	9,6	1	1	1	1	1	1	1	1	1	0	1	-27,202255	275,14081	297,737692	0
14.01.2021	18:29:46	0	0	3,163285	2,45775	91,8648	1,267	76,04	3,5	1005,52	7,8	9,8	9,6	1	1	1	1	1	1	1	1	1	0	1	-27,836505	275,062225	296,732366	0
14.01.2021	18:29:47	0	0	4,180055	2,5155	107,0388	1,267	76,037	3,5	1005,42	7,8	9,8	9,6	1	1	1	1	1	1	1	1	1	0	1	-30,796335	275,169179	294,277647	0
14.01.2021	18:29:48	0	0	4,406004	2,57475	95,1336	1,259	76,036	3,5	1005,34	7,8	9,8	9,6	1	1	1	1	1	1	1	1	1	0	1	-32,205779	275,046546	292,289095	0
14.01.2021	18:29:49	0	0	3,954106	2,53125	96,6024	1,262	76,042	3,5	1005,32	7,8	9,8	9,6	1	1	1	1	1	1	1	1	1	0	1	-28,400282	275,131363	296,49504	0
14.01.2021	18:29:50	0	0	4,518979	2,3625	93,348	1,26	76,064	3,5	1005,38	7,8	9,8	9,6	1	1	1	1	1	1	1	1	1	0	1	-28,611698	275,05752	295,934965	0
14.01.2021	18:29:51	0	0	4,29303	2,262	99,5112	1,268	76,071	3,5	1005,38	7,8	9,8	9,6	1	1	1	1	1	1	1	1	1	0	1	-30,93728	275,159718	294,091998	0
14.01.2021	18:29:52	0	0	2,937336	2,4555	91,152	1,262	76,077	3,5	1005,34	7,8	9,8	9,6	1	1	1	1	1	1	1	1	1	0	1	-27,554616	275,05752	296,992048	0
14.01.2021	18:29:53	0	0	2,937336	2,7165	97,3152	1,265	76,087	3,5	1005,48	7,8	9,8	9,6	1	1	1	1	1	1	1	1	1	0	1	-30,021142	275,107765	294,762731	0
14.01.2021	18:29:54	0	0	3,389234	2,85975	93,348	1,263	76,094	3,5	1005,44	7,8	9,8	9,6	1	1	1	1	1	1	1	1	1	0	1	-32,417195	275,226042	292,925572	0
14.01.2021	18:29:55	0	0	4,518979	2,96625	101,79	1,259	76,098	3,5	1005,46	7,8	9,8	9,6	1	1	1	1	1	1	1	1	1	0	1	-30,232558	275,054384	294,299305	0
14.01.2021	18:29:56	0	0	4,29303	3,2535	99,1548	1,259	76,105	3,5	1005,36	7,8	9,8	9,6	1	1	1	1	1	1	1	1	1	0	1	-25,299507	275,055952	299,239756	0
14.01.2021	18:29:57	0	0	3,163285	3,303	100,7316	1,266	76,11	3,5	1005,44	7,8	9,8	9,6	1	1	1	1	1	1	1	1	1	0	1	-30,021142	275,063793	294,555132	0
14.01.2021	18:29:58	0	0	4,29303	3,27075	97,3044	1,265	76,138	3,5	1005,42	7,8	9,8	9,6	1	1	1	1	1	1	1	1	1	0	1	-30,725863	275,120347	294,117428	0
14.01.2021	18:29:59	0	0	3,615183	3,2775	108,8928	1,256	76,138	3,5	1005,28	7,8	9,8	9,6	1	1	1	1	1	1	1	1	1	0	1	-31,501057	275,238701	293,90157	0
14.01.2021	18:30:00	0	0	2,711387	3,096	97,3044	1,259	76,147	3,5	1005,44	7,8	9,8	9,6	1	1	1	1	1	1	1	1	1	0	1	-31,501057	275,230788	293,864152	0
14.01.2021	18:30:01	0	0	2,937336	3,06825	111,798	1,255	76,147	3,5	1005,34	7,8	9,8	9,6	1	1	1	1	1	1	1	1	1	0	1	-28,964059	275,177067	296,147197	0
14.01.2021	18:30:02	0	0	2,937336	3,06825	111,798	1,255	76,147	3,5	1005,34	7,8	9,8	9,6	1	1	1	1	1	1	1	1	1	0	1	-28,964059	275,177067	296,147197	0
14.01.2021	18:30:03	0	0	4,29303	3,32925	108,4428	1,261	76,156	3,5	1005,52	7,8	9,8	9,6	1	1	1	1	1	1	1	1	1	0	1	-29,034531	275,05752	295,512132	0
14.01.2021	18:30:04	0	0	3,276259	3,3585	122,6916	1,26	76,152	3,5	1005,44	7,8	9,8	9,6	1	1	1	1	1	1	1	1	1	0	1	-27,906977	275,142385	297,040411	0
14.01.2021	18:30:05	0	0	4,180055	3,3765	101,106	1,253	76,163	3,5	1005,4	7,8	9,8	9,6	1	1	1	1	1	1	1	1	1	0	1	-28,188865	275,240284	297,221247	0
14.01.2021	18:30:06	0	0	4,744927	3,447	96,5952	1,26	76,143	3,5	1005,34	7,8	9,8	9,6	1	1	1	1	1	1	1	1	1	0	1	-25,863284	275,049681	298,646383	0
14.01.2021	18:30:07	0	0	4,406004	3,24075	106,6896	1,26	76,144	3,5	1005,38	7,8	9,8	9,6	1	1	1	1	1	1	1	1	1	0	1	-29,386892	275,183379	295,754197	0
14.01.2021	18:30:08	0	0	4,744927	3,08775	102,204	1,259	76,148	3,5	1005,44	7,8	9,8	9,6	1	1	1	1	1	1	1	1	1	0	1	-32,769556	275,203909	292,46857	0
14.01.2021	18:30:09	0	0	3,050311	3,13275	92,9448	1,258	76,146	3,5	1005,5	7,8	9,8	9,6	1	1	1	1	1	1	1	1	1	0	1	-27,69556	275,167602	297,370969	0
14.01.2021	18:30:10	0	0	4,857902	3,03525	97,6968	1,26	76,16	3,5	1005,44	7,8	9,8	9,6	1	1	1	1	1	1	1	1	1	0	1	-29,950669	275,052816	294,573794	0
14.01.2021	18:30:11	0	0	4,406004	2,80875	88,956	1,254	76,147	3,5	1005,56	7,8	9,8	9,6	1	1	1	1	1	1	1	1	1	0	1	-31,360113	275,169179	293,713869	0
14.01.2021	18:30:12	0	0	4,29303	2,7795	93,7008	1,255	76,143	3,5	1005,36	7,8	9,8	9,6	1	1	1	1	1	1	1	1	1	0	1	-29,809725	275,240284	295,600387	0
14.01.2021	18:30:13	0	0	3,276259	2,9295	119,772	1,251	76,146	3,5	1005,36	7,8	9,8	9,6	1	1	1	1	1	1	1	1	1	0	1	-32,9105	275,043412	291,569582	0
14.01.2021	18:30:14	0	0	2,824362	2,979	105,1128	1,253	76,136	3,5	1005,44	7,8	9,8	9,6	1	1	1	1	1	1	1	1	1	0	1	-33,051445	275,040278	291,41385	0
14.01.2021	18:30:15	0	0	3,050311	3,162	88,5636	1,253	76,153	3,5	1005,48	7,8	9,8	9,6	1	1	1	1	1	1	1	1	1	0	1	-28,541226	275,14396	296,413602	0
14.01.2021	18:30:16	0	0	2,824362	3,23475	103,6944	1,257	76,161	3,5	1005,52	7,8	9,8	9,6	1	1	1	1	1	1	1	1	1	0	1	-31,430585	275,230788	293,934624	0
14.01.2021	18:30:17	0	0	2,711387	3,1635	108,4608	1,251	76,172	3,5	1005,46	7,8	9,8	9,6	1	1	1	1	1	1	1	1	1	0	1	-28,611698	275,148686	296,365457	0
14.01.2021	18:30:18	0	0	2,824362	3,24525	105,1452	1,252	76,186	3,5	1005,36	7,8	9,8	9,6	1	1	1	1	1	1	1	1	1	0	1	-30,584919	275,052816	293,939544	0
14.01.2021	18:30:19	0	0	4,518979	3,46275	98,7372	1,251	76,185	3,5	1005,24	7,8	9,8	9,6	1	1	1	1	1	1	1	1	1	0	1	-26,0747	275,188115	299,08877	0
14.01.2021	18:30:20	0	0	2,824362	3,639	102,1968	1,251	76,194	3,5	1005,5	7,8	9,8	9,6	1	1	1	1	1	1	1	1	1	0	1	-31,219168	275,063793	293,357106	0
14.01.2021	18:30:21	0	0	3,954106	3,40125	99,5508	1,255	76,204	3,5	1005,34	7,8	9,8	9,6	1	1	1	1	1	1	1	1	1	0	1	-35,447498	275,183379	289,693591	0
14.01.2021	18:30:22	0	0	2,485438	3,28575	73,4184	1,255	76,21	3,5	1005,48	7,8	9,8	9,6	1	1	1	1	1	1	1	1	1	0	1	-32,417195	275,043412	292,062887	0
14.01.2021	18:30:23	0	0	2,598413	3,006	91,8648	1,253	76,207	3,5	1005,38	7,8	9,8	9,6	1	1	1	1	1	1	1	1	1	0	1	-26,849894	275,164448	298,201732	0
14.01.2021	18:30:24	0	0	4,29303	2,80425	84,0276	1,253	76,201	3,5	1005,36	7,8	9,8	9,6	1	1	1	1	1	1	1	1	1	0	1	-27,69556	275,226042	297,647207	0
14.01.2021	18:30:25	0	0	3,276259	2,4045	103,6764	1,252	76,225	3,5	1005,36	7,8	9,8	9,6	1	1	1	1	1	1	1	1	1	0	1	-28,32981	275,153413	296,669679	0
14.01.2021	18:30:26	0	0	2,598413	2,0655	86,2704	1,259	76,222	3,5	1005,38	7,8	9,8	9,6	1	1	1	1	1	1	1	1	1	0	1	-29,457364	275,218134	295,848014	0
14.01.2021	18:30:27	0	0	4,406004	2,01975	89,712	1,247	76,225	3,5	1005,34	7,8	9,8	9,6	1	1	1	1	1	1	1	1	1	0	1	-28,400282	275,180223	296,725889	0
14.01.2021	18:30:28	0	0	4,631953	2,01825	73,4436	1,25	76,239	3,5	1005,38	7,8	9,8	9,6	1	1	1	1	1	1	1	1	1	0	1	-30,725863	275,11091	294,07286	0
14.01.2021	18:30:29	0	0	2,937336	1,98675	102,9276	1,253	76,252	3,5	1005,34	7,8	9,8	9,6	1	1	1	1	1	1	1	1	1	0	1	-26,920366	275,054384	297,611496	0
14.01.2021	18:30:30	0	0	4,180055	1,99125	99,522	1,251	76,25	3,5	1005,48	7,8	9,8	9,6	1	1	1	1	1	1	1	1	1	0	1	-27,484144	275,178645	297,63457	0
14.01.2021	18:30:31	0	0	3,728157	2,0265	113,0004	1,244	76,262	3,5	1005,3	7,8	9,8	9,6	1	1	1	1	1	1	1	1	1	0	1	-32,064834	275,213391	293,21812	0
14.01.2021	18:30:32	0	0	2,711387	2,16	114,9444	1,247	76,267	3,5	1005,3	7,8	9,8	9,6	1	1	1	1	1	1	1	1	1	0	1	-27,413672	275,139235	297,518836	0
14.01.2021	18:30:33	0	0	3,615183	2,199	109,2132	1,245	76,267	3,5	1005,32	7,8	9,8	9,6	1	1	1	1	1	1	1	1	1	0	1	-28,964059	275,044979	295,523418	0
14.01.2021	18:30:34	0	0	3,276259	2,2875	114,0984	1,245	76,266	3,5	1005,36	7,8	9,8	9,6	1	1	1	1	1	1	1	1	1	0	1	-28,611698	275,114055	296,201878	0
14.01.2021	18:30:35	0	0	4,631953	2,27625	102,1968	1,242	76,277	3,5	1005,46	7,8	9,8	9,6	1	1	1	1	1	1	1	1	1	0	1	-30,514447	275,040278	293,950848	0
14.01.2021	18:30:36	0	0	4,857902	2,424	92,6604	1,247	76,279	3,5	1005,46	7,8	9,8	9,6	1	1	1	1	1	1	1	1	1	0	1	-32,205779	275,202329	293,024878	0
14.01.2021	18:30:37	0	0	3,615183	2,71725	105,4836	1,24	76,28	3,5	1005,38	7,8	9,8	9,6	1	1	1	1	1	1	1	1	1	0	1	-31,148696	275,150262	293,835903	0
14.01.2021	18:30:38	0	0	2,824362	3,0315	103,2948	1,246	76,285	3,5	1005,52	7,8	9,8	9,6	1	1	1	1	1	1	1	1	1	0	1	-26,638478	275,076347	297,997052	0
14.01.2021	18:30:39	0	0	4,180055	3,22575	91,1736	1,241	76,281	3,5	1005,22	7,8	9,8	9,6	1	1	1	1	1	1	1	1	1	0	1	-30,30303	275,188115	294,860441	0
14.01.2021	18:30:40	0	0	3,728157	3,5475	92,2644	1,241	76,29	3,5	1005,5	7,8	9,8	9,6	1	1	1	1	1	1	1	1	1	0	1	-28,541226	275,192852	296,644633	0
14.01.2021	18:30:41	0	0	2,598413	3,7635	90,396	1,248	76,289	3,5	1005,38	7,8	9,8	9,6	1	1	1	1	1	1	1	1	1	0	1	-31,642001	275,153413	293,357487	0
14.01.2021	18:30:42	0	0	2,824362	3,71925	91,5156	1,24	76,296	3,5	1005,38	7,8	9,8	9,6	1	1	1	1	1	1	1	1	1	0	1	-26,215645	275,207069	299,037421	0
14.01.2021	18:30:43	0	0	4,518979	3,83625	87,4008	1,241	76,282	3,5	1005,52	7,8	9,8	9,6	1	1	1	1	1	1	1	1	1	0	1	-30,584919	275,158142	294,43691	0
14.01.2021	18:30:44	0	0	3,615183	4,10475	96,2064	1,242	76,29	3,5	1005,48	7,8	9,8	9,6	1	1	1	1	1	1	1	1	1	0	1	-30,30303	275,194431	294,890294	0
14.01.2021	18:30:45	0	0	4,406004	4,2405	97,29	1,236	76,293	3,5	1005,46	7,8	9,8	9,6	1	1	1	1	1	1	1	1	1	0	1	-29,457364	275,162871	295,586812	0
14.01.2021	18:30:46	0	0	3,728157	4,46475	102,222	1,237	76,272	3,5	1005,5	7,7	9,8	9,6	1	1	1	1	1	1	1	1	1	0	1	-31,078224	275,136086	293,839407	0
14.01.2021	18:30:47	0	0	3,728157	4,377	104,7384	1,24	76,308	3,5	1005,58	7,7	9,8	9,6	1	1	1	1	1	1	1	1	1	0	1	-29,527837	275,205489	295,717759	0
14.01.2021	18:30:48	0	0	3,615183	4,22175	91,9008	1,24	76,305	3,5	1005,46	7,8	9,8	9,6	1	1	1	1	1	1	1	1	1	0	1	-26,779422	275,095192	297,945078	0
14.01.2021	18:30:49	0	0	4,067081	4,092	91,1592	1,235	76,326	3,5	1005,44	7,8	9,8	9,6	1	1	1	1	1	1	1	1	1	0	1	-26,356589	275,027748	298,049583	0
14.01.2021	18:30:50	0	0	3,276259	3,951	86,2704	1,231	76,348	3,5	1005,46	7,7	9,8	9,6	1	1	1	1	1	1	1	1	1	0	1	-30,232558	275,071638	294,380745	0
14.01.2021	18:30:51	0	0	2,485438	3,906	82,3284	1,237	76,374	3,5	1005,58	7,7	9,8	9,6	1	1	1	1	1	1	1	1	1	0	1	-31,007752	275,221297	294,31258	0
14.01.2021	18:30:52	0	0	2,824362	3,7395	76,8348	1,234	76,371	3,5	1005,4	7,7	9,8	9,6	1	1	1	1	1	1	1	1	1	0	1	-25,440451	275,062225	299,128419	0
14.01.2021	18:30:53	0	0	4,744927	3,774	84,7764	1,234	76,375	3,5	1005,48	7,8	9,8	9,6	1	1	1	1	1	1	1	1	1	0	1	-25,792812	275,161295	299,243914	0
14.01.2021	18:30:54	0	0	4,857902	3,74625	79,4088	1,232	76,399	3,5	1005,58	7,7	9,8	9,6	1	1	1	1	1	1	1	1	1	0	1	-28,047921	275,027748	296,358251	0
14.01.2021	18:30:55	0	0	4,744927	3,55575	81,18	1,234	76,413	3,5	1005,34	7,7	9,8	9,6	1	1	1	1	1	1	1	1	1	0	1	-29,034531	275,099906	295,712228	0
14.01.2021	18:30:56	0	0	2,824362	3,47925	79,74	1,236	76,424	3,5	1005,48	7,8	9,8	9,6	1	1	1	1	1	1	1	1	1	0	1	-31,642001	275,200749	293,581188	0
14.01.2021	18:30:57	0	0	3,841132	3,3915	78,6528	1,236	76,421	3,5	1005,44	7,8	9,8	9,6	1	1	1	1	1	1	1	1	1	0	1	-31,360113	275,123494	293,498041	0
14.01.2021	18:30:58	0	0	4,744927	3,29775	74,5272	1,234	76,421	3,5	1005,24	7,7	9,8	9,6	1	1	1	1	1	1	1	1	1	0	1	-30,866808	275,200749	294,356381	0
14.01.2021	18:30:59	0	0	4,518979	3,2715	82,5804	1,232	76,451	3,5	1005,42	7,7	9,8	9,6	1	1	1	1	1	1	1	1	1	0	1	-29,880197	275,175489	295,223603	0
14.01.2021	18:31:00	0	0	4,518979	2,7795	84,4164	1,235	76,452	3,5	1005,4	7,8	9,8	9,6	1	1	1	1	1	1	1	1	1	0	1	-31,148696	275,188115	294,014775	0
14.01.2021	18:31:01	0	0	4,518979	2,7795	84,4164	1,235	76,452	3,5	1005,4	7,8	9,8	9,6	1	1	1	1	1	1	1	1	1	0	1	-31,148696	275,188115	294,014775	0
14.01.2021	18:31:02	0	0	2,824362	2,6175	88,1172	1,235	76,455	3,5	1005,42	7,8	9,8	9,6	1	1	1	1	1	1	1	1	1	0	1	-31,853418	275,151838	293,138626	0
14.01.2021	18:31:03	0	0	2,259489	2,463	98,0784	1,234	76,45	3,5	1005,6	7,7	9,8	9,6	1	1	1	1	1	1	1	1	1	0	1	-33,333333	275,046546	291,16154	0
14.01.2021	18:31:04	0	0	2,937336	2,38125	110,6784	1,232	76,475	3,5	1005,42	7,8	9,8	9,6	1	1	1	1	1	1	1	1	1	0	1	-29,034531	275,027748	295,371641	0
14.01.2021	18:31:05	0	0	3,615183	2,487	105,894	1,235	76,456	3,5	1005,58	7,7	9,8	9,6	1	1	1	1	1	1	1	1	1	0	1	-26,427061	275,023051	297,956952	0
14.01.2021	18:31:06	0	0	2,598413	2,62425	89,3412	1,234	76,486	3,5	1005,44	7,7	9,8	9,6	1	1	1	1	1	1	1	1	1	0	1	-31,148696	275,136086	293,768935	0
14.01.2021	18:31:07	0	0	4,180055	2,5275	95,1408	1,233	76,482	3,5	1005,48	7,7	9,8	9,6	1	1	1	1	1	1	1	1	1	0	1	-28,823115	275,023051	295,560899	0
14.01.2021	18:31:08	0	0	4,29303	2,451	96,2028	1,228	76,471	3,5	1005,28	7,7	9,8	9,6	1	1	1	1	1	1	1	1	1	0	1	-30,021142	275,0685	294,577348	0
14.01.2021	18:31:09	0	0	4,406004	2,45475	91,17	1,232	76,484	3,5	1005,52	7,7	9,8	9,6	1	1	1	1	1	1	1	1	1	0	1	-26,215645	275,192852	298,970215	0
14.01.2021	18:31:10	0	0	4,744927	2,523	90	1,232	76,489	3,5	1005,44	7,7	9,8	9,6	1	1	1	1	1	1	1	1	1	0	1	-33,192389	275,192852	291,993471	0
14.01.2021	18:31:11	0	0	2,598413	2,56875	86,256	1,238	76,478	3,5	1005,22	7,7	9,8	9,6	1	1	1	1	1	1	1	1	1	0	1	-30,725863	275,132937	294,176894	0
14.01.2021	18:31:12	0	0	3,276259	2,59575	85,1472	1,23	76,467	3,5	1005,46	7,7	9,8	9,6	1	1	1	1	1	1	1	1	1	0	1	-24,665257	275,026182	299,733528	0
14.01.2021	18:31:13	0	0	2,824362	2,56875	82,3356	1,229	76,469	3,5	1005,48	7,7	9,8	9,6	1	1	1	1	1	1	1	1	1	0	1	-29,739253	275,041845	294,733435	0
14.01.2021	18:31:14	0	0	2,711387	2,46	96,282	1,232	76,483	3,5	1005,46	7,7	9,8	9,6	1	1	1	1	1	1	1	1	1	0	1	-30,443975	275,192852	294,741885	0
14.01.2021	18:31:15	0	0	3,276259	2,42325	96,5556	1,229	76,46	3,5	1005,48	7,7	9,8	9,6	1	1	1	1	1	1	1	1	1	0	1	-29,31642	275,11091	295,482303	0
14.01.2021	18:31:16	0	0	2,824362	2,38725	89,3088	1,226	76,457	3,5	1005,46	7,8	9,8	9,6	1	1	1	1	1	1	1	1	1	0	1	-28,118393	275,192852	297,067466	0
14.01.2021	18:31:17	0	0	3,502208	2,481	85,5216	1,225	76,469	3,5	1005,5	7,7	9,8	9,6	1	1	1	1	1	1	1	1	1	0	1	-28,893587	275,093621	295,823495	0
14.01.2021	18:31:18	0	0	3,615183	2,45775	78,6708	1,231	76,467	3,5	1005,52	7,7	9,8	9,6	1	1	1	1	1	1	1	1	1	0	1	-28,400282	275,19759	296,807973	0
14.01.2021	18:31:19	0	0	4,518979	2,42175	83,7288	1,226	76,464	3,5	1005,32	7,8	9,8	9,6	1	1	1	1	1	1	1	1	1	0	1	-27,272727	275,107765	297,511145	0
14.01.2021	18:31:20	0	0	3,389254	2,47725	76,8168	1,227	76,487	3,5	1005,5	7,7	9,8	9,5	1	1	1	1	1	1	1	1	1	0	1	-27,131783	275,023051	297,252231	0
14.01.2021	18:31:21	0	0	2,937336	2,4675	98,46	1,229	76,496	3,5	1005,42	7,8	9,8	9,6	1	1	1	1	1	1	1	1	1	0	1	-31,92389	275,090479	292,778358	0
14.01.2021	18:31:22	0	0	2,824362	2,35425	91,5264	1,227	76,498	3,5	1005,32	7,7	9,8	9,6	1	1	1	1	1	1	1	1	1	0	1	-29,527837	275,186536	295,628173	0
14.01.2021	18:31:23	0	0	2,598413	2,28375	84,7584	1,223	76,517	3,5	1005,44	7,7	9,8	9,6	1	1	1	1	1	1	1	1	1	0	1	-26,568006	275,054384	297,963857	0
14.01.2021	18:31:24	0	0	2,711387	2,30175	77,58	1,225	76,532	3,5	1005,42	7,7	9,8	9,6	1	1	1	1	1	1	1	1	1	0	1	-26,004228	275,073207	298,616483	0
14.01.2021	18:31:25	0	0	4,180055	2,28525	77,5728	1,226	76,545	3,5	1005,46	7,7	9,8	9,6	1	1	1	1	1	1	1	1	1	0	1	-30,443975	275,026182	293,954811	0
14.01.2021	18:31:26	0	0	3,841132	2,337	83,7072	1,222	76,552	3,5	1005,46	7,7	9,8	9,6	1	1	1	1	1	1	1	1	1	0	1	-31,642001	275,059088	292,912064	0
14.01.2021	18:31:27	0	0	2,711387	2,3625	86,6556	1,227	76,56	3,5	1005,48	7,7	9,8	9,6	1	1	1	1	1	1	1	1	1	0	1	-29,950669	275,183379	295,190419	0
14.01.2021	18:31:28	0	0	4,744927	2,36775	101,1384	1,224	76,556	3,5	1005,32	7,7	9,8	9,6	1	1	1	1	1	1	1	1	1	0	1	-33,54475	275,139235	291,387758	0
14.01.2021	18:31:29	0	0	2,485438	2,343	86,9832	1,223	76,557	3,5	1005,4	7,7	9,8	9,6	1	1	1	1	1	1	1	1	1	0	1	-28,188865	275,177067	296,922391	0
14.01.2021	18:31:30	0	0	2,372478	2,21625	101,1924	1,218	76,555	3,5	1005,36	7,7	9,8	9,5	1	1	1	1	1	1	1	1	1	0	1	-31,360113	275,043412	293,11997	0
14.01.2021	18:31:31	0	0	2,485453	2,15925	92,9664	1,226	76,555	3,5	1005,28	7,7	9,8	9,5	1	1	1	1	1	1	1	1	1	0	1	-32,9105	275,161295	292,126226	0
14.01.2021	18:31:32	0	0	4,406004	2,05875	100,746	1,221	76,563	3,5	1005,22	7,7	9,8	9,6	1	1	1	1	1	1	1	1	1	0	1	-31,219168	275,019921	293,150076	0
14.01.2021	18:31:33	0	0	3,728157	2,14425	101,8944	1,223	76,579	3,5	1005,4	7,7	9,8	9,6	1	1	1	1	1	1	1	1	1	0	1	-33,615222	275,077916	291,027718	0
14.01.2021	18:31:34	0	0	2,259503	2,12325	92,9484	1,228	76,577	3,5	1005,44	7,7	9,8	9,5	1	1	1	1	1	1	1	1	1	0	1	-25,792812	275,194431	299,400512	0
14.01.2021	18:31:35	0	0	4,518979	2,50725	99,8964	1,231	76,572	3,5	1005,46	7,7	9,8	9,6	1	1	1	1	1	1	1	1	1	0	1	-31,501057	275,118774	293,334805	0
14.01.2021	18:31:36	0	0	2,598413	2,934	97,7076	1,227	76,565	3,5	1005,4	7,7	9,8	9,6	1	1	1	1	1	1	1	1	1	0	1	-27,766032	275,019921	296,603212	0
14.01.2021	18:31:37	0	0	3,954106	3,2025	94,3596	1,227	76,568	3,5	1005,44	7,7	9,8	9,6	1	1	1	1	1	1	1	1	1	0	1	-31,642001	275,087337	293,045415	0
14.01.2021	18:31:38	0	0	2,146515	3,37125	90,7812	1,223	76,56	3,5	1005,42	7,7	9,8	9,6	1	1	1	1	1	1	1	1	1	0	1	-29,105004	275,192852	296,080856	0
14.01.2021	18:31:39	0	0	2,937336	3,495	94,0932	1,219	76,555	3,5	1005,4	7,7	9,7	9,6	1	1	1	1	1	1	1	1	1	0	1	-33,756166	275,046546	290,738707	0
14.01.2021	18:31:40	0	0	3,389234	3,7335	95,1516	1,221	76,548	3,5	1005,58	7,7	9,8	9,6	1	1	1	1	1	1	1	1	1	0	1	-26,849894	275,139235	298,082613	0
14.01.2021	18:31:41	0	0	4,180055	3,972	95,5044	1,23	76,57	3,5	1005,48	7,7	9,8	9,6	1	1	1	1	1	1	1	1	1	0	1	-32,769556	275,186536	292,386453	0
14.01.2021	18:31:42	0	0	2,598428	4,26525	97,3116	1,221	76,559	3,5	1005,38	7,7	9,8	9,5	1	1	1	1	1	1	1	1	1	0	1	-30,514447	275,071638	294,098857	0
14.01.2021	18:31:43	0	0	3,502187	4,3965	90,0144	1,221	76,57	3,5	1005,44	7,7	9,8	9,7	1	1	1	1	1	1	1	1	1	0	1	-26,004228	275,188115	299,159243	0
14.01.2021	18:31:44	0	0	2,598413	4,39125	87,354	1,229	76,573	3,5	1005,42	7,7	9,8	9,6	1	1	1	1	1	1	1	1	1	0	1	-31,782946	275,041845	292,689743	0
14.01.2021	18:31:45	0	0	3,615183	4,353	94,4172	1,225	76,571	3,5	1005,42	7,7	9,8	9,6	1	1	1	1	1	1	1	1	1	0	1	-28,047921	275,065362	296,535757	0
14.01.2021	18:31:46	0	0	3,276259	4,689	95,8356	1,229	76,576	3,5	1005,4	7,7	9,8	9,6	1	1	1	1	1	1	1	1	1	0	1	-27,625088	275,00584	296,677732	0
14.01.2021	18:31:47	0	0	3,502208	4,98375	94,3668	1,223	76,588	3,5	1005,5	7,8	9,8	9,6	1	1	1	1	1	1	1	1	1	0	1	-28,823115	275,098334	295,916224	0
14.01.2021	18:31:48	0	0	4,180055	5,17875	98,064	1,219	76,597	3,5	1005,44	7,7	9,8	9,6	1	1	1	1	1	1	1	1	1	0	1	-32,135307	275,194431	293,058018	0
14.01.2021	18:31:49	0	0	4,180055	5,319	102,5676	1,219	76,588	3,5	1005,38	7,7	9,8	9,6	1	1	1	1	1	1	1	1	1	0	1	-25,510923	275,037145	298,939587	0
14.01.2021	18:31:50	0	0	4,29303	5,22075	94,3848	1,224	76,606	3,5	1005,44	7,7	9,8	9,6	1	1	1	1	1	1	1	1	1	0	1	-28,541226	275,038711	295,916676	0
14.01.2021	18:31:51	0	0	2,485438	5,175	97,7112	1,226	76,616	3,5	1005,52	7,7	9,8	9,6	1	1	1	1	1	1	1	1	1	0	1	-30,091614	275,001149	294,189077	0
14.01.2021	18:31:52	0	0	3,163304	5,09625	101,484	1,222	76,601	3,5	1005,38	7,7	9,8	9,5	1	1	1	1	1	1	1	1	1	0	1	-29,598309	275,063793	294,977965	0
14.01.2021	18:31:53	0	0	4,857902	4,89675	94,7844	1,221	76,619	3,5	1005,44	7,7	9,8	9,6	1	1	1	1	1	1	1	1	1	0	1	-28,752643	275,178645	296,366071	0
14.01.2021	18:31:54	0	0	2,485438	4,749	96,9804	1,212	76,652	3,5	1005,4	7,7	9,8	9,6	1	1	1	1	1	1	1	1	1	0	1	-30,373502	275,129789	294,514384	0
14.01.2021	18:31:55	0	0	4,631953	4,64325	78,6708	1,221	76,654	3,5	1005,54	7,8	9,8	9,6	1	1	1	1	1	1	1	1	1	0	1	-31,571529	275,027748	292,834643	0
14.01.2021	18:31:56	0	0	4,518951	4,4385	76,8204	1,22	76,67	3,5	1005,4	7,7	9,7	9,7	1	1	1	1	1	1	1	1	1	0	1	-27,272727	275,189694	297,898206	0
14.01.2021	18:31:57	0	0	3,050292	4,16625	76,8168	1,214	76,676	3,5	1005,36	7,7	9,8	9,7	1	1	1	1	1	1	1	1	1	0	1	-29,809725	275,088908	294,885107	0
14.01.2021	18:31:58	0	0	2,598397	4,1175	80,8812	1,224	76,684	3,5	1005,4	7,7	9,8	9,7	1	1	1	1	1	1	1	1	1	0	1	-31,360113	275,189694	293,81082	0
14.01.2021	18:31:59	0	0	2,598413	3,768	79,3908	1,214	76,694	3,5	1005,4	7,7	9,8	9,6	1	1	1	1	1	1	1	1	1	0	1	-31,289641	275,194431	293,903683	0
14.01.2021	18:32:00	0	0	3,615183	3,2985	82,9512	1,216	76,71	3,5	1005,48	7,7	9,8	9,6	1	1	1	1	1	1	1	1	1	0	1	-26,215645	275,021486	298,160984	0
14.01.2021	18:32:01	0	0	3,615183	3,2985	82,9512	1,216	76,71	3,5	1005,48	7,7	9,8	9,6	1	1	1	1	1	1	1	1	1	0	1	-26,215645	275,021486	298,160984	0
14.01.2021	18:32:02	0	0	3,841109	3,354	103,302	1,217	76,713	3,5	1005,32	7,7	9,8	9,7	1	1	1	1	1	1	1	1	1	0	1	-30,514447	275,046546	293,980426	0
14.01.2021	18:32:03	0	0	3,841155	3,31125	91,8864	1,221	76,733	3,5	1005,44	7,8	9,8	9,5	1	1	1	1	1	1	1	1	1	0	1	-25,933756	275,164448	299,11787	0
14.01.2021	18:32:04	0	0	3,050311	3,1605	81,5904	1,221	76,712	3,5	1005,34	7,8	9,8	9,6	1	1	1	1	1	1	1	1	1	0	1	-29,457364	275,191272	295,721032	0
14.01.2021	18:32:05	0	0	4,518979	3,09825	84,0528	1,222	76,717	3,5	1005,46	7,7	9,8	9,6	1	1	1	1	1	1	1	1	1	0	1	-31,782946	275,087337	292,904471	0
14.01.2021	18:32:06	0	0	3,163266	3,2985	82,0548	1,221	76,711	3,5	1005,54	7,7	9,8	9,7	1	1	1	1	1	1	1	1	1	0	1	-28,893587	275,19601	296,307202	0
14.01.2021	18:32:07	0	0	3,954106	3,40575	79,0344	1,226	76,699	3,5	1005,5	7,8	9,8	9,6	1	1	1	1	1	1	1	1	1	0	1	-31,712474	275,153413	293,287015	0
14.01.2021	18:32:08	0	0	3,050311	3,45225	89,3268	1,222	76,698	3,5	1005,4	7,7	9,8	9,6	1	1	1	1	1	1	1	1	1	0	1	-31,148696	275,178645	293,970017	0
14.01.2021	18:32:09	0	0	2,711387	3,417	92,9376	1,224	76,688	3,5	1005,36	7,7	9,7	9,6	1	1	1	1	1	1	1	1	1	0	1	-29,809725	275,035578	294,633393	0
14.01.2021	18:32:10	0	0	3,502208	3,54	85,9896	1,226	76,695	3,5	1005,44	7,7	9,8	9,6	1	1	1	1	1	1	1	1	1	0	1	-31,148696	275,104621	293,620329	0
14.01.2021	18:32:11	0	0	2,146515	3,59325	79,7652	1,225	76,688	3,5	1005,5	7,7	9,7	9,6	1	1	1	1	1	1	1	1	1	0	1	-27,766032	275,013661	296,573683	0
14.01.2021	18:32:12	0	0	2,598428	3,57375	90,7632	1,225	76,671	3,5	1005,14	7,7	9,8	9,5	1	1	1	1	1	1	1	1	1	0	1	-28,400282	275,079486	296,250069	0
14.01.2021	18:32:13	0	0	4,293055	3,6435	105,858	1,225	76,678	3,5	1005,36	7,7	9,8	9,5	1	1	1	1	1	1	1	1	1	0	1	-28,400282	275,063793	296,175992	0
14.01.2021	18:32:14	0	0	3,276259	4,0545	104,418	1,222	76,676	3,5	1005,6	7,8	9,7	9,6	1	1	1	1	1	1	1	1	1	0	1	-29,950669	275,03088	294,470279	0
14.01.2021	18:32:15	0	0	3,389234	4,45425	101,844	1,225	76,671	3,5	1005,3	7,7	9,8	9,6	1	1	1	1	1	1	1	1	1	0	1	-28,400282	275,134512	296,509912	0
14.01.2021	18:32:16	0	0	4,29303	4,42875	107,0532	1,225	76,659	3,5	1005,24	7,7	9,8	9,6	1	1	1	1	1	1	1	1	1	0	1	-31,430585	275,184957	293,717964	0
14.01.2021	18:32:17	0	0	5,083851	4,28475	104,0184	1,217	76,654	3,5	1005,38	7,7	9,7	9,6	1	1	1	1	1	1	1	1	1	0	1	-31,430585	275,156565	293,583797	0
14.01.2021	18:32:18	0	0	4,518979	4,0095	111,4128	1,217	76,643	3,5	1005,26	7,7	9,7	9,6	1	1	1	1	1	1	1	1	1	0	1	-28,964059	275,065362	295,619619	0
14.01.2021	18:32:19	0	0	3,050311	3,675	95,4756	1,215	76,636	3,5	1005,42	7,8	9,8	9,6	1	1	1	1	1	1	1	1	1	0	1	-25,863284	275,023051	298,52073	0
14.01.2021	18:32:20	0	0	3,163285	3,666	97,29	1,215	76,628	3,5	1005,48	7,7	9,8	9,6	1	1	1	1	1	1	1	1	1	0	1	-28,400282	275,151838	296,591762	0
14.01.2021	18:32:21	0	0	4,631981	3,7365	97,704	1,22	76,639	3,5	1005,42	7,7	9,7	9,5	1	1	1	1	1	1	1	1	1	0	1	-26,427061	275,199169	298,78866	0
14.01.2021	18:32:22	0	0	3,389234	3,89475	101,7972	1,219	76,638	3,5	1005,56	7,7	9,8	9,6	1	1	1	1	1	1	1	1	1	0	1	-30,373502	275,109338	294,417795	0
14.01.2021	18:32:23	0	0	2,824362	4,09125	89,712	1,22	76,646	3,5	1005,42	7,7	9,8	9,6	1	1	1	1	1	1	1	1	1	0	1	-25,229035	275,018356	299,132827	0
14.01.2021	18:32:24	0	0	2,598413	4,14975	94,0788	1,223	76,644	3,5	1005,4	7,7	9,8	9,6	1	1	1	1	1	1	1	1	1	0	1	-26,920366	275,062225	297,648504	0
14.01.2021	18:32:25	0	0	3,841132	3,96075	93,7008	1,224	76,651	3,5	1005,42	7,7	9,8	9,6	1	1	1	1	1	1	1	1	1	0	1	-28,400282	275,055952	296,138981	0
14.01.2021	18:32:26	0	0	3,502208	3,82425	97,2972	1,218	76,655	3,5	1005,36	7,7	9,7	9,6	1	1	1	1	1	1	1	1	1	0	1	-32,628612	275,188115	292,534859	0
14.01.2021	18:32:27	0	0	4,405978	3,7515	91,512	1,234	76,642	3,5	1005,32	7,7	9,7	9,7	1	1	1	1	1	1	1	1	1	0	1	-28,893587	275,11091	295,905136	0
14.01.2021	18:32:28	0	0	2,824362	4,008	96,1848	1,22	76,66	3,5	1005,3	7,7	9,7	9,6	1	1	1	1	1	1	1	1	1	0	1	-30,866808	275,199169	294,348914	0
14.01.2021	18:32:29	0	0	4,29303	4,305	91,2852	1,224	76,64	3,5	1005,3	7,7	9,7	9,6	1	1	1	1	1	1	1	1	1	0	1	-32,205779	275,194431	292,987545	0
14.01.2021	18:32:30	0	0	4,857902	4,26075	93,7224	1,225	76,644	3,5	1005,36	7,8	9,7	9,6	1	1	1	1	1	1	1	1	1	0	1	-29,245948	275,093621	295,471134	0
14.01.2021	18:32:31	0	0	4,067056	4,203	96,6168	1,222	76,653	3,5	1005,46	7,7	9,8	9,7	1	1	1	1	1	1	1	1	1	0	1	-27,131783	275,194431	298,061541	0
14.01.2021	18:32:32	0	0	3,502229	4,07925	96,9372	1,218	76,641	3,5	1005,32	7,7	9,8	9,5	1	1	1	1	1	1	1	1	1	0	1	-29,880197	275,129789	295,007689	0
14.01.2021	18:32:33	0	0	4,180055	4,0605	106,6824	1,224	76,65	3,5	1005,38	7,7	9,8	9,6	1	1	1	1	1	1	1	1	1	0	1	-31,430585	275,19601	293,770204	0
14.01.2021	18:32:34	0	0	4,518979	3,9795	105,1812	1,221	76,648	3,5	1005,48	7,7	9,7	9,6	1	1	1	1	1	1	1	1	1	0	1	-30,021142	275,081056	294,636621	0
14.01.2021	18:32:35	0	0	2,711387	3,76875	115,596	1,224	76,663	3,5	1005,66	7,8	9,8	9,6	1	1	1	1	1	1	1	1	1	0	1	-30,866808	275,023051	293,517206	0
14.01.2021	18:32:36	0	0	3,615183	3,66375	107,7372	1,22	76,669	3,5	1005,34	7,7	9,8	9,6	1	1	1	1	1	1	1	1	1	0	1	-26,70895	275,145535	298,25332	0
14.01.2021	18:32:37	0	0	4,857902	3,44325	111,9024	1,226	76,668	3,5	1005,48	7,7	9,7	9,6	1	1	1	1	1	1	1	1	1	0	1	-24,876674	275,183379	300,264415	0
14.01.2021	18:32:38	0	0	2,937336	3,44625	108,0972	1,222	76,686	3,5	1005,32	7,7	9,7	9,6	1	1	1	1	1	1	1	1	1	0	1	-28,682171	275,054384	295,849692	0
14.01.2021	18:32:39	0	0	4,631953	3,567	105,2208	1,222	76,69	3,5	1005,48	7,8	9,7	9,6	1	1	1	1	1	1	1	1	1	0	1	-26,286117	275,183379	298,854972	0
14.01.2021	18:32:40	0	0	4,29303	3,51675	101,1204	1,222	76,703	3,5	1005,44	7,8	9,8	9,6	1	1	1	1	1	1	1	1	1	0	1	-29,034531	275,161295	296,002195	0
14.01.2021	18:32:41	0	0	3,163285	3,40125	93,7332	1,22	76,695	3,5	1005,4	7,7	9,7	9,6	1	1	1	1	1	1	1	1	1	0	1	-31,712474	275,188115	293,450997	0
14.01.2021	18:32:42	0	0	2,937318	3,28125	77,562	1,224	76,685	3,5	1005,36	7,8	9,8	9,7	1	1	1	1	1	1	1	1	1	0	1	-29,034531	275,184957	296,114017	0
14.01.2021	18:32:43	0	0	4,631953	3,1785	83,3508	1,223	76,713	3,5	1005,4	7,7	9,8	9,6	1	1	1	1	1	1	1	1	1	0	1	-27,625088	275,14396	297,32974	0
14.01.2021	18:32:44	0	0	2,824362	3,16425	85,1616	1,226	76,713	3,5	1005,36	7,8	9,7	9,6	1	1	1	1	1	1	1	1	1	0	1	-32,487667	275,013661	291,852048	0
14.01.2021	18:32:45	0	0	4,180055	3,2205	87,336	1,222	76,705	3,5	1005,42	7,8	9,8	9,6	1	1	1	1	1	1	1	1	1	0	1	-30,162086	275,156565	294,852296	0
14.01.2021	18:32:46	0	0	4,857902	3,11925	83,3364	1,223	76,712	3,5	1005,46	7,7	9,8	9,6	1	1	1	1	1	1	1	1	1	0	1	-26,497533	275,132937	298,405224	0
14.01.2021	18:32:47	0	0	3,728157	2,8725	77,5836	1,219	76,711	3,5	1005,4	7,7	9,8	9,6	1	1	1	1	1	1	1	1	1	0	1	-26,920366	275,200749	298,302823	0
14.01.2021	18:32:48	0	0	3,276259	2,7195	78,6492	1,23	76,719	3,5	1005,3	7,7	9,8	9,6	1	1	1	1	1	1	1	1	1	0	1	-27,766032	275,074777	296,862088	0
14.01.2021	18:32:49	0	0	3,050329	2,661	82,3428	1,226	76,723	3,5	1005,44	7,7	9,7	9,5	1	1	1	1	1	1	1	1	1	0	1	-31,430585	275,205489	293,815011	0
14.01.2021	18:32:50	0	0	3,050311	2,7825	82,962	1,224	76,708	3,5	1005,38	7,8	9,8	9,6	1	1	1	1	1	1	1	1	1	0	1	-26,638478	275,153413	298,361011	0
14.01.2021	18:32:51	0	0	3,050311	2,967	87,7356	1,229	76,702	3,5	1005,52	7,8	9,8	9,6	1	1	1	1	1	1	1	1	1	0	1	-28,400282	275,178645	296,718431	0
14.01.2021	18:32:52	0	0	3,163285	3,09825	79,7616	1,222	76,686	3,5	1005,32	7,7	9,7	9,6	1	1	1	1	1	1	1	1	1	0	1	-26,004228	275,084197	298,66836	0
14.01.2021	18:32:53	0	0	4,180055	3,06	79,7472	1,228	76,689	3,5	1005,34	7,7	9,8	9,6	1	1	1	1	1	1	1	1	1	0	1	-29,457364	275,05752	295,089299	0
14.01.2021	18:32:54	0	0	4,744927	2,92125	92,9592	1,225	76,681	3,5	1005,44	7,7	9,7	9,6	1	1	1	1	1	1	1	1	1	0	1	-31,501057	275,167602	293,565472	0
14.01.2021	18:32:55	0	0	4,406004	2,90325	100,746	1,224	76,675	3,5	1005,42	7,7	9,8	9,6	1	1	1	1	1	1	1	1	1	0	1	-30,514447	275,145535	294,447823	0
14.01.2021	18:32:56	0	0	4,29303	3,2655	101,1168	1,229	76,652	3,5	1005,48	7,7	9,8	9,6	1	1	1	1	1	1	1	1	1	0	1	-30,655391	275,013661	293,684324	0
14.01.2021	18:32:57	0	0	4,406004	3,5835	103,662	1,225	76,659	3,5	1005,42	7,7	9,7	9,6	1	1	1	1	1	1	1	1	1	0	1	-28,118393	275,156565	296,895988	0
14.01.2021	18:32:58	0	0	3,276259	3,72825	106,29	1,228	76,642	3,5	1005,42	7,8	9,7	9,6	1	1	1	1	1	1	1	1	1	0	1	-31,148696	275,05752	293,397967	0
14.01.2021	18:32:59	0	0	2,711387	3,72075	105,1308	1,22	76,645	3,5	1005,34	7,7	9,8	9,6	1	1	1	1	1	1	1	1	1	0	1	-26,920366	275,207069	298,332699	0
14.01.2021	18:33:00	0	0	3,615183	3,58125	100,7388	1,226	76,631	3,5	1005,44	7,8	9,7	9,6	1	1	1	1	1	1	1	1	1	0	1	-29,880197	275,200749	295,342992	0
14.01.2021	18:33:01	0	0	3,615183	3,58125	100,7388	1,226	76,631	3,5	1005,44	7,8	9,7	9,6	1	1	1	1	1	1	1	1	1	0	1	-29,880197	275,200749	295,342992	0
14.01.2021	18:33:02	0	0	4,067081	3,53775	99,9108	1,223	76,61	3,5	1005,36	7,8	9,7	9,6	1	1	1	1	1	1	1	1	1	0	1	-28,893587	275,117201	295,934846	0
14.01.2021	18:33:03	0	0	3,389234	3,60525	105,1308	1,228	76,596	3,5	1005,36	7,7	9,7	9,6	1	1	1	1	1	1	1	1	1	0	1	-31,007752	275,015226	293,339345	0
14.01.2021	18:33:04	0	0	3,615183	3,68475	98,442	1,234	76,597	3,5	1005,36	7,8	9,7	9,6	1	1	1	1	1	1	1	1	1	0	1	-28,259338	275,148686	296,717818	0
14.01.2021	18:33:05	0	0	4,29303	3,627	90,7704	1,229	76,583	3,5	1005,38	7,7	9,8	9,6	1	1	1	1	1	1	1	1	1	0	1	-31,219168	275,191272	293,959228	0
14.01.2021	18:33:06	0	0	3,050311	3,63375	99,8964	1,228	76,569	3,5	1005,38	7,8	9,8	9,6	1	1	1	1	1	1	1	1	1	0	1	-31,571529	275,107765	293,212344	0
14.01.2021	18:33:07	0	0	3,954106	3,7575	108,8568	1,232	76,562	3,5	1005,48	7,7	9,8	9,6	1	1	1	1	1	1	1	1	1	0	1	-32,769556	275,029314	291,644004	0
14.01.2021	18:33:08	0	0	4,067081	3,771	109,944	1,228	76,567	3,5	1005,4	7,8	9,7	9,6	1	1	1	1	1	1	1	1	1	0	1	-27,484144	275,154989	297,522791	0
14.01.2021	18:33:09	0	0	4,067081	3,6345	92,3508	1,229	76,561	3,5	1005,44	7,8	9,7	9,6	1	1	1	1	1	1	1	1	1	0	1	-32,064834	275,150262	292,919765	0
14.01.2021	18:33:10	0	0	2,485438	3,76575	93,7008	1,227	76,551	3,5	1005,18	7,7	9,8	9,6	1	1	1	1	1	1	1	1	1	0	1	-29,175476	275,00584	295,127344	0
14.01.2021	18:33:11	0	0	4,180055	3,9825	98,4276	1,225	76,565	3,5	1005,4	7,8	9,8	9,6	1	1	1	1	1	1	1	1	1	0	1	-25,792812	275,062225	298,776058	0
14.01.2021	18:33:12	0	0	2,937336	3,8505	102,9204	1,225	76,563	3,5	1005,42	7,7	9,7	9,6	1	1	1	1	1	1	1	1	1	0	1	-35,447498	275,186536	289,708511	0
14.01.2021	18:33:13	0	0	4,744927	3,807	103,662	1,228	76,566	3,5	1005,42	7,8	9,7	9,6	1	1	1	1	1	1	1	1	1	0	1	-28,188865	275,099906	296,557894	0
14.01.2021	18:33:14	0	0	3,615183	3,63075	94,392	1,23	76,561	3,5	1005,3	7,8	9,8	9,6	1	1	1	1	1	1	1	1	1	0	1	-31,007752	275,010532	293,317203	0
14.01.2021	18:33:15	0	0	3,954106	3,468	102,1932	1,23	76,569	3,5	1005,4	7,8	9,7	9,6	1	1	1	1	1	1	1	1	1	0	1	-28,541226	275,032446	295,887112	0
14.01.2021	18:33:16	0	0	3,615183	3,38775	99,5256	1,226	76,573	3,5	1005,54	7,7	9,7	9,6	1	1	1	1	1	1	1	1	1	0	1	-28,752643	275,095192	295,971858	0
14.01.2021	18:33:17	0	0	3,728157	3,36825	105,5196	1,23	76,558	3,5	1005,5	7,8	9,7	9,6	1	1	1	1	1	1	1	1	1	0	1	-32,769556	275,024617	291,621843	0
14.01.2021	18:33:18	0	0	2,598413	3,32175	111,5136	1,226	76,55	3,5	1005,38	7,8	9,7	9,6	1	1	1	1	1	1	1	1	1	0	1	-30,373502	275,131363	294,521819	0
14.01.2021	18:33:19	0	0	3,502208	3,23925	106,2864	1,231	76,563	3,5	1005,46	7,7	9,7	9,6	1	1	1	1	1	1	1	1	1	0	1	-29,386892	275,167602	295,679637	0
14.01.2021	18:33:20	0	0	4,29303	3,276	114,8256	1,227	76,56	3,5	1005,4	7,8	9,7	9,6	1	1	1	1	1	1	1	1	1	0	1	-30,866808	275,169179	294,207174	0
14.01.2021	18:33:21	0	0	4,29303	3,3705	109,2024	1,227	76,551	3,5	1005,48	7,8	9,7	9,6	1	1	1	1	1	1	1	1	1	0	1	-32,9105	275,142385	292,036887	0
14.01.2021	18:33:22	0	0	3,728157	3,56025	112,3344	1,23	76,546	3,5	1005,32	7,8	9,7	9,6	1	1	1	1	1	1	1	1	1	0	1	-37,068358	275,181801	288,065272	0
14.01.2021	18:33:23	0	0	4,970876	3,70575	104,0616	1,229	76,558	3,5	1005,22	7,8	9,7	9,6	1	1	1	1	1	1	1	1	1	0	1	-30,93728	275,145535	294,02499	0
14.01.2021	18:33:24	0	0	4,631953	3,765	101,8188	1,23	76,557	3,5	1005,22	7,7	9,8	9,6	1	1	1	1	1	1	1	1	1	0	1	-30,796335	275,154989	294,210599	0
14.01.2021	18:33:25	0	0	4,067081	3,81825	107,7156	1,226	76,532	3,5	1005,5	7,8	9,7	9,6	1	1	1	1	1	1	1	1	1	0	1	-25,792812	275,183379	299,348277	0
14.01.2021	18:33:26	0	0	4,067081	3,6855	103,6476	1,228	76,55	3,5	1005,6	7,8	9,7	9,6	1	1	1	1	1	1	1	1	1	0	1	-27,836505	275,164448	297,215122	0
14.01.2021	18:33:27	0	0	3,841132	3,76875	101,5092	1,227	76,539	3,5	1005,46	7,7	9,7	9,6	1	1	1	1	1	1	1	1	1	0	1	-31,853418	275,073207	292,767294	0
14.01.2021	18:33:28	0	0	4,180055	4,3125	84,0564	1,225	76,556	3,5	1005,46	7,7	9,8	9,6	1	1	1	1	1	1	1	1	1	0	1	-32,135307	275,205489	293,110289	0
14.01.2021	18:33:29	0	0	5,196825	4,437	98,7588	1,228	76,551	3,5	1005,36	7,8	9,7	9,6	1	1	1	1	1	1	1	1	1	0	1	-29,739253	275,073207	294,881458	0
14.01.2021	18:33:30	0	0	4,29303	4,19325	101,4876	1,229	76,532	3,5	1005,58	7,8	9,7	9,6	1	1	1	1	1	1	1	1	1	0	1	-26,779422	275,192852	298,406438	0
14.01.2021	18:33:31	0	0	4,180055	4,056	107,73	1,229	76,544	3,5	1005,32	7,8	9,8	9,6	1	1	1	1	1	1	1	1	1	0	1	-27,836505	275,095192	296,887996	0
14.01.2021	18:33:32	0	0	2,824362	4,25625	110,6712	1,227	76,549	3,5	1005,38	7,7	9,7	9,6	1	1	1	1	1	1	1	1	1	0	1	-26,286117	275,015226	298,06098	0
14.01.2021	18:33:33	0	0	3,615183	4,43025	110,6532	1,225	76,539	3,5	1005,34	7,8	9,7	9,6	1	1	1	1	1	1	1	1	1	0	1	-25,017618	275,048113	299,484652	0
14.01.2021	18:33:34	0	0	3,050311	4,6275	91,9008	1,227	76,554	3,5	1005,54	7,8	9,7	9,6	1	1	1	1	1	1	1	1	1	0	1	-26,990839	275,023051	297,393175	0
14.01.2021	18:33:35	0	0	3,389234	4,72875	102,1464	1,225	76,552	3,5	1005,5	7,8	9,7	9,6	1	1	1	1	1	1	1	1	1	0	1	-33,54475	275,136086	291,372881	0
14.01.2021	18:33:36	0	0	4,067081	4,78725	91,4904	1,227	76,547	3,5	1005,32	7,8	9,7	9,6	1	1	1	1	1	1	1	1	1	0	1	-30,373502	275,183379	294,767586	0
14.01.2021	18:33:37	0	0	4,631953	4,60425	94,392	1,223	76,525	3,5	1005,72	7,8	9,7	9,6	1	1	1	1	1	1	1	1	1	0	1	-29,809725	275,145535	295,152545	0
14.01.2021	18:33:38	0	0	2,937336	4,50225	106,3008	1,224	76,532	3,5	1005,36	7,8	9,7	9,6	1	1	1	1	1	1	1	1	1	0	1	-28,541226	275,184957	296,607323	0
14.01.2021	18:33:39	0	0	3,163285	4,365	82,3356	1,224	76,554	3,5	1005,44	7,8	9,7	9,6	1	1	1	1	1	1	1	1	1	0	1	-27,977449	275,139235	296,955059	0
14.01.2021	18:33:40	0	0	2,372464	4,31475	79,7472	1,221	76,562	3,5	1005,46	7,8	9,7	9,6	1	1	1	1	1	1	1	1	1	0	1	-27,69556	275,139235	297,236947	0
14.01.2021	18:33:41	0	0	3,954106	4,296	88,5456	1,219	76,562	3,5	1005,44	7,8	9,7	9,6	1	1	1	1	1	1	1	1	1	0	1	-27,554616	275,049681	296,955051	0
14.01.2021	18:33:42	0	0	2,937336	4,45425	93,7044	1,222	76,59	3,5	1005,6	7,8	9,7	9,6	1	1	1	1	1	1	1	1	1	0	1	-32,276251	275,099906	292,470509	0
14.01.2021	18:33:43	0	0	2,598413	4,3965	90,774	1,227	76,615	3,5	1005,32	7,8	9,7	9,6	1	1	1	1	1	1	1	1	1	0	1	-27,69556	275,049681	296,814107	0
14.01.2021	18:33:44	0	0	2,372464	4,4835	89,7192	1,228	76,618	3,5	1005,5	7,8	9,7	9,6	1	1	1	1	1	1	1	1	1	0	1	-27,836505	275,071638	296,776799	0
14.01.2021	18:33:45	0	0	3,502208	4,38075	91,5084	1,227	76,635	3,5	1005,34	7,8	9,7	9,6	1	1	1	1	1	1	1	1	1	0	1	-33,54475	275,016791	290,809729	0
14.01.2021	18:33:46	0	0	2,711387	4,239	86,6304	1,225	76,635	3,5	1005,42	7,8	9,8	9,6	1	1	1	1	1	1	1	1	1	0	1	-28,047921	275,066931	296,543163	0
14.01.2021	18:33:47	0	0	2,598413	4,3125	87,7068	1,226	76,643	3,5	1005,3	7,8	9,7	9,6	1	1	1	1	1	1	1	1	1	0	1	-26,638478	275,013661	297,701237	0
14.01.2021	18:33:48	0	0	4,631953	4,4205	91,53	1,228	76,644	3,5	1005,4	7,8	9,7	9,6	1	1	1	1	1	1	1	1	1	0	1	-30,655391	275,159718	294,373886	0
14.01.2021	18:33:49	0	0	2,824362	4,35	105,498	1,224	76,66	3,5	1005,52	7,7	9,8	9,6	1	1	1	1	1	1	1	1	1	0	1	-29,175476	275,024617	295,215923	0
14.01.2021	18:33:50	0	0	4,518979	4,16175	101,8008	1,222	76,659	3,5	1005,42	7,8	9,7	9,6	1	1	1	1	1	1	1	1	1	0	1	-28,964059	275,09205	295,745606	0
14.01.2021	18:33:51	0	0	2,485438	4,1685	103,6728	1,222	76,662	3,5	1005,44	7,8	9,7	9,6	1	1	1	1	1	1	1	1	1	0	1	-31,360113	275,027748	293,04606	0
14.01.2021	18:33:52	0	0	3,841132	4,08825	96,588	1,224	76,64	3,5	1005,32	7,8	9,7	9,6	1	1	1	1	1	1	1	1	1	0	1	-34,390416	275,156565	290,623966	0
14.01.2021	18:33:53	0	0	3,502208	3,88425	95,5044	1,224	76,645	3,5	1005,38	7,8	9,8	9,6	1	1	1	1	1	1	1	1	1	0	1	-29,598309	275,199169	295,617413	0
14.01.2021	18:33:54	0	0	2,824362	3,56925	105,8904	1,221	76,639	3,5	1005,4	7,8	9,7	9,6	1	1	1	1	1	1	1	1	1	0	1	-29,386892	275,055952	295,152371	0
14.01.2021	18:33:55	0	0	4,406004	3,3285	123,0984	1,224	76,645	3,5	1005,5	7,8	9,7	9,6	1	1	1	1	1	1	1	1	1	0	1	-28,118393	275,191272	297,060003	0
14.01.2021	18:33:56	0	0	4,631953	3,04575	114,858	1,224	76,644	3,5	1005,48	7,8	9,7	9,6	1	1	1	1	1	1	1	1	1	0	1	-30,443975	275,077916	294,198965	0
14.01.2021	18:33:57	0	0	2,598413	2,96175	98,0748	1,23	76,647	3,5	1005,58	7,8	9,7	9,6	1	1	1	1	1	1	1	1	1	0	1	-29,034531	275,041845	295,438157	0
14.01.2021	18:33:58	0	0	2,711387	2,919	114,2316	1,22	76,636	3,5	1005,32	7,8	9,7	9,6	1	1	1	1	1	1	1	1	1	0	1	-28,611698	275,044979	295,875779	0
14.01.2021	18:33:59	0	0	4,518979	2,98125	101,5056	1,228	76,65	3,5	1005,42	7,8	9,7	9,6	1	1	1	1	1	1	1	1	1	0	1	-29,386892	275,173911	295,709452	0
14.01.2021	18:34:00	0	0	4,180055	3,153	108,1188	1,219	76,632	3,5	1005,42	7,8	9,7	9,6	1	1	1	1	1	1	1	1	1	0	1	-28,047921	275,070069	296,557975	0
14.01.2021	18:34:01	0	0	4,29303	3,2925	105,1236	1,227	76,633	3,5	1005,34	7,8	9,7	9,6	1	1	1	1	1	1	1	1	1	0	1	-32,135307	275,016791	292,219172	0
14.01.2021	18:34:02	0	0	4,29303	3,2925	105,1236	1,227	76,633	3,5	1005,34	7,8	9,7	9,6	1	1	1	1	1	1	1	1	1	0	1	-32,135307	275,016791	292,219172	0
14.01.2021	18:34:03	0	0	2,824362	3,33525	105,12	1,23	76,633	3,5	1005,48	7,8	9,7	9,6	1	1	1	1	1	1	1	1	1	0	1	-27,69556	275,186536	297,460449	0
14.01.2021	18:34:04	0	0	4,406004	3,435	97,686	1,228	76,617	3,5	1005,46	7,8	9,7	9,6	1	1	1	1	1	1	1	1	1	0	1	-31,078224	275,177067	294,033032	0
14.01.2021	18:34:05	0	0	2,485438	3,38625	87,3252	1,224	76,617	3,5	1005,42	7,8	9,7	9,6	1	1	1	1	1	1	1	1	1	0	1	-30,162086	275,19759	295,046169	0
14.01.2021	18:34:06	0	0	4,744927	3,189	89,3268	1,229	76,609	3,5	1005,48	7,8	9,7	9,6	1	1	1	1	1	1	1	1	1	0	1	-26,568006	275,126641	298,305013	0
14.01.2021	18:34:07	0	0	4,180055	3,13875	87,7284	1,225	76,593	3,5	1005,42	7,8	9,8	9,6	1	1	1	1	1	1	1	1	1	0	1	-26,920366	275,03088	297,500582	0
14.01.2021	18:34:08	0	0	4,631953	3,03075	92,2428	1,23	76,616	3,5	1005,52	7,8	9,7	9,6	1	1	1	1	1	1	1	1	1	0	1	-29,175476	275,207069	296,07759	0
14.01.2021	18:34:09	0	0	2,824362	2,88	90,774	1,234	76,602	3,5	1005,46	7,8	9,8	9,6	1	1	1	1	1	1	1	1	1	0	1	-26,920366	275,137661	298,004703	0
14.01.2021	18:34:10	0	0	3,615183	2,709	105,1416	1,233	76,597	3,5	1005,48	7,8	9,7	9,6	1	1	1	1	1	1	1	1	1	0	1	-31,360113	275,200749	293,863076	0
14.01.2021	18:34:11	0	0	4,180055	2,61225	85,5324	1,225	76,582	3,5	1005,4	7,8	9,7	9,6	1	1	1	1	1	1	1	1	1	0	1	-32,346723	275,065362	292,236955	0
14.01.2021	18:34:12	0	0	2,259489	2,478	99,5184	1,228	76,594	3,5	1005,46	7,8	9,7	9,6	1	1	1	1	1	1	1	1	1	0	1	-28,964059	275,189694	296,206874	0
14.01.2021	18:34:13	0	0	2,711387	2,37225	88,1028	1,226	76,573	3,5	1005,58	7,8	9,7	9,6	1	1	1	1	1	1	1	1	1	0	1	-31,712474	275,079486	292,937877	0
14.01.2021	18:34:14	0	0	2,598413	2,3295	96,2064	1,232	76,574	3,5	1005,44	7,8	9,7	9,6	1	1	1	1	1	1	1	1	1	0	1	-28,400282	275,192852	296,785578	0
14.01.2021	18:34:15	0	0	4,518979	2,46	88,668	1,229	76,572	3,5	1005,38	7,8	9,8	9,6	1	1	1	1	1	1	1	1	1	0	1	-28,752643	275,059088	295,801422	0
14.01.2021	18:34:16	0	0	3,163285	2,502	95,1516	1,223	76,574	3,5	1005,36	7,8	9,7	9,6	1	1	1	1	1	1	1	1	1	0	1	-29,386892	275,150262	295,597707	0
14.01.2021	18:34:17	0	0	3,954106	2,6085	83,3508	1,23	76,562	3,5	1005,4	7,8	9,7	9,6	1	1	1	1	1	1	1	1	1	0	1	-34,249471	275,156565	290,76491	0
14.01.2021	18:34:18	0	0	4,29303	2,685	84,0384	1,23	76,552	3,5	1005,44	7,8	9,8	9,6	1	1	1	1	1	1	1	1	1	0	1	-30,232558	275,192852	294,953302	0
14.01.2021	18:34:19	0	0	3,954106	2,71875	87,0588	1,235	76,549	3,5	1005,38	7,8	9,7	9,6	1	1	1	1	1	1	1	1	1	0	1	-32,769556	275,161295	292,26717	0
14.01.2021	18:34:20	0	0	4,744927	2,85375	75,6144	1,228	76,528	3,5	1005,46	7,8	9,7	9,6	1	1	1	1	1	1	1	1	1	0	1	-31,92389	275,188115	293,239581	0
14.01.2021	18:34:21	0	0	3,050311	2,8875	79,398	1,227	76,526	3,5	1005,34	7,8	9,7	9,6	1	1	1	1	1	1	1	1	1	0	1	-28,682171	275,049681	295,827496	0
14.01.2021	18:34:22	0	0	4,180055	2,92725	76,3344	1,229	76,545	3,5	1005,44	7,8	9,7	9,6	1	1	1	1	1	1	1	1	1	0	1	-31,289641	275,14396	293,665188	0
14.01.2021	18:34:23	0	0	3,276259	2,95125	82,6272	1,226	76,533	3,5	1005,42	7,7	9,8	9,6	1	1	1	1	1	1	1	1	1	0	1	-35,024665	275,023051	289,359348	0
14.01.2021	18:34:24	0	0	2,937336	2,811	82,6092	1,231	76,539	3,5	1005,36	7,8	10	9,6	1	1	1	1	1	1	1	1	1	0	1	-29,105004	275,166025	295,954074	0
14.01.2021	18:34:25	0	0	2,485438	2,814	99,2016	1,229	76,537	3,5	1005,54	7,8	9,7	9,6	1	1	1	1	1	1	1	1	1	0	1	-31,782946	275,013661	292,55677	0
14.01.2021	18:34:26	0	0	2,598413	2,91	93,3156	1,225	76,518	3,5	1005,48	7,8	9,8	9,6	1	1	1	1	1	1	1	1	1	0	1	-26,356589	275,137661	298,56848	0
14.01.2021	18:34:27	0	0	2,711387	2,958	82,5948	1,225	76,519	3,5	1005,38	7,8	9,7	9,6	1	1	1	1	1	1	1	1	1	0	1	-31,148696	275,191272	294,0297	0
14.01.2021	18:34:28	0	0	2,824362	3,07725	91,1448	1,218	76,504	3,5	1005,4	7,8	9,8	9,6	1	1	1	1	1	1	1	1	1	0	1	-27,766032	275,101478	296,988148	0
14.01.2021	18:34:29	0	0	4,180055	3,14175	86,2884	1,233	76,507	3,5	1005,4	7,8	9,8	9,6	1	1	1	1	1	1	1	1	1	0	1	-30,584919	275,192852	294,600941	0
14.01.2021	18:34:30	0	0	4,518979	3,23025	90,432	1,234	76,519	3,5	1005,32	7,8	9,7	9,6	1	1	1	1	1	1	1	1	1	0	1	-32,276251	275,129789	292,611636	0
14.01.2021	18:34:31	0	0	3,615183	3,49275	84,7944	1,229	76,504	3,5	1005,46	7,8	9,7	9,6	1	1	1	1	1	1	1	1	1	0	1	-32,628612	275,181801	292,505018	0
14.01.2021	18:34:32	0	0	4,857902	3,6105	86,6628	1,227	76,505	3,5	1005,4	7,8	9,8	9,6	1	1	1	1	1	1	1	1	1	0	1	-30,443975	275,142385	294,503413	0
14.01.2021	18:34:33	0	0	4,180055	3,5445	80,9244	1,231	76,518	3,5	1005,4	7,8	9,7	9,6	1	1	1	1	1	1	1	1	1	0	1	-26,920366	275,001149	297,360325	0
14.01.2021	18:34:34	0	0	3,163285	3,43125	95,1552	1,222	76,511	3,5	1005,44	7,8	9,7	9,6	1	1	1	1	1	1	1	1	1	0	1	-30,232558	275,043412	294,247524	0
14.01.2021	18:34:35	0	0	4,518979	3,30825	85,8996	1,22	76,522	3,5	1005,48	7,8	9,8	9,6	1	1	1	1	1	1	1	1	1	0	1	-30,021142	275,184957	295,127407	0
14.01.2021	18:34:36	0	0	4,406004	3,35175	80,1504	1,221	76,519	3,5	1005,4	7,8	9,8	9,6	1	1	1	1	1	1	1	1	1	0	1	-24,524313	275,082626	300,140862	0
14.01.2021	18:34:37	0	0	3,389234	3,24375	90,7776	1,23	76,531	3,5	1005,52	7,8	9,8	9,6	1	1	1	1	1	1	1	1	1	0	1	-31,501057	275,191272	293,677339	0
14.01.2021	18:34:38	0	0	3,163285	3,2325	91,8792	1,223	76,515	3,5	1005,38	7,8	9,8	9,6	1	1	1	1	1	1	1	1	1	0	1	-25,510923	275,027748	298,895249	0
14.01.2021	18:34:39	0	0	4,744927	3,045	90,792	1,226	76,526	3,5	1005,52	7,8	9,7	9,6	1	1	1	1	1	1	1	1	1	0	1	-25,369979	275,158142	299,65185	0
14.01.2021	18:34:40	0	0	4,29303	2,9715	86,6484	1,226	76,527	3,5	1005,48	7,8	9,7	9,6	1	1	1	1	1	1	1	1	1	0	1	-29,880197	275,049681	294,62947	0
14.01.2021	18:34:41	0	0	3,276259	2,9565	82,3392	1,219	76,517	3,5	1005,42	7,8	9,7	9,6	1	1	1	1	1	1	1	1	1	0	1	-33,826638	275,161295	291,210088	0
14.01.2021	18:34:42	0	0	3,389234	2,946	78,6564	1,227	76,523	3,5	1005,44	7,8	9,7	9,6	1	1	1	1	1	1	1	1	1	0	1	-30,514447	274,991769	293,722007	0
14.01.2021	18:34:43	0	0	3,050311	2,99475	83,4192	1,227	76,524	3,5	1005,52	7,8	9,8	9,6	1	1	1	1	1	1	1	1	1	0	1	-28,682171	275,109338	296,109127	0
14.01.2021	18:34:44	0	0	4,180055	3,063	90,4176	1,229	76,516	3,5	1005,4	7,8	9,7	9,6	1	1	1	1	1	1	1	1	1	0	1	-29,880197	275,004276	294,415246	0
14.01.2021	18:34:45	0	0	2,259489	3,26775	92,9268	1,226	76,516	3,5	1005,3	7,8	9,8	9,6	1	1	1	1	1	1	1	1	1	0	1	-31,219168	275,034012	293,216559	0
14.01.2021	18:34:46	0	0	2,372464	3,339	95,13	1,223	76,496	3,5	1005,4	7,8	9,7	9,6	1	1	1	1	1	1	1	1	1	0	1	-28,611698	275,070069	295,994198	0
14.01.2021	18:34:47	0	0	2,598413	3,3405	95,5044	1,233	76,514	3,5	1005,6	7,8	9,7	9,6	1	1	1	1	1	1	1	1	1	0	1	-28,752643	274,999585	295,520674	0
14.01.2021	18:34:48	0	0	4,067081	3,294	97,7148	1,222	76,503	3,5	1005,42	7,8	9,7	9,6	1	1	1	1	1	1	1	1	1	0	1	-25,581395	275,107765	299,202477	0
14.01.2021	18:34:49	0	0	5,083851	3,189	105,192	1,226	76,52	3,5	1005,52	7,8	9,8	9,6	1	1	1	1	1	1	1	1	1	0	1	-29,527837	275,183379	295,613252	0
14.01.2021	18:34:50	0	0	4,406004	3,28725	94,7628	1,222	76,505	3,5	1005,54	7,7	9,7	9,6	1	1	1	1	1	1	1	1	1	0	1	-27,625088	275,038711	296,832814	0
14.01.2021	18:34:51	0	0	2,259489	3,60375	101,1204	1,228	76,513	3,5	1005,46	7,8	9,8	9,6	1	1	1	1	1	1	1	1	1	0	1	-30,866808	275,021486	293,509821	0
14.01.2021	18:34:52	0	0	4,518979	3,81	96,984	1,221	76,508	3,5	1005,44	7,8	9,7	9,6	1	1	1	1	1	1	1	1	1	0	1	-34,038055	275,170756	291,04338	0
14.01.2021	18:34:53	0	0	3,728157	3,8565	91,494	1,223	76,512	3,5	1005,42	7,8	9,8	9,6	1	1	1	1	1	1	1	1	1	0	1	-28,470754	275,118774	296,365108	0
14.01.2021	18:34:54	0	0	4,067081	3,8235	96,9732	1,223	76,519	3,5	1005,4	7,8	9,8	9,6	1	1	1	1	1	1	1	1	1	0	1	-28,682171	275,175489	296,421629	0
14.01.2021	18:34:55	0	0	5,196825	3,68175	98,46	1,225	76,522	3,5	1005,5	7,8	9,8	9,6	1	1	1	1	1	1	1	1	1	0	1	-30,655391	275,129789	294,232495	0
14.01.2021	18:34:56	0	0	4,631925	3,53175	100,746	1,227	76,529	3,5	1005,44	7,8	9,8	9,7	1	1	1	1	1	1	1	1	1	0	1	-29,739253	275,180223	295,386918	0
14.01.2021	18:34:57	0	0	3,728157	3,47025	92,9556	1,222	76,516	3,5	1005,3	7,8	9,7	9,6	1	1	1	1	1	1	1	1	1	0	1	-27,061311	275,038711	297,396591	0
14.01.2021	18:34:58	0	0	3,615183	3,50775	87,732	1,228	76,539	3,5	1005,56	7,8	9,7	9,6	1	1	1	1	1	1	1	1	1	0	1	-35,940803	274,998022	288,325139	0
14.01.2021	18:34:59	0	0	2,598397	3,42075	93,3372	1,223	76,542	3,5	1005,44	7,7	9,8	9,7	1	1	1	1	1	1	1	1	1	0	1	-27,906977	275,066931	296,684107	0
14.01.2021	18:35:00	0	0	4,29303	3,1365	94,0752	1,219	76,554	3,5	1005,46	7,7	9,7	9,6	1	1	1	1	1	1	1	1	1	0	1	-26,427061	275,189694	298,743872	0
14.01.2021	18:35:01	0	0	3,728157	3,138	93,7152	1,213	76,554	3,5	1005,42	7,8	9,8	9,6	1	1	1	1	1	1	1	1	1	0	1	-28,047921	275,066931	296,543163	0
14.01.2021	18:35:02	0	0	3,728157	3,138	93,7152	1,213	76,554	3,5	1005,42	7,8	9,8	9,6	1	1	1	1	1	1	1	1	1	0	1	-28,047921	275,066931	296,543163	0
14.01.2021	18:35:03	0	0	2,824362	3,02175	88,9668	1,218	76,57	3,5	1005,4	7,8	9,8	9,6	1	1	1	1	1	1	1	1	1	0	1	-29,527837	274,996458	294,730733	0
14.01.2021	18:35:04	0	0	3,615183	2,98725	81,954	1,22	76,578	3,5	1005,52	7,8	9,8	9,6	1	1	1	1	1	1	1	1	1	0	1	-30,655391	275,077916	293,987549	0
14.01.2021	18:35:05	0	0	4,29303	3,14625	89,3016	1,222	76,566	3,5	1005,42	7,8	9,8	9,6	1	1	1	1	1	1	1	1	1	0	1	-29,034531	275,008968	295,283045	0
14.01.2021	18:35:06	0	0	3,841132	3,28725	97,6896	1,219	76,586	3,5	1005,44	7,8	9,7	9,6	1	1	1	1	1	1	1	1	1	0	1	-27,766032	275,046546	296,728841	0
14.01.2021	18:35:07	0	0	4,180055	3,3795	90,4104	1,217	76,59	3,5	1005,44	7,8	9,8	9,6	1	1	1	1	1	1	1	1	1	0	1	-30,443975	275,136086	294,473656	0
14.01.2021	18:35:08	0	0	3,502208	3,5115	90,7812	1,211	76,593	3,5	1005,62	7,8	9,7	9,6	1	1	1	1	1	1	1	1	1	0	1	-32,487667	274,993332	291,756157	0
14.01.2021	18:35:09	0	0	4,518979	3,4245	79,0272	1,215	76,587	3,5	1005,5	7,8	9,8	9,6	1	1	1	1	1	1	1	1	1	0	1	-28,470754	275,107765	296,313119	0
14.01.2021	18:35:10	0	0	3,728157	3,351	82,4148	1,22	76,603	3,5	1005,38	7,8	9,8	9,6	1	1	1	1	1	1	1	1	1	0	1	-30,30303	274,999585	293,970286	0
14.01.2021	18:35:11	0	0	3,389234	3,19875	76,8168	1,215	76,592	3,5	1005,46	7,8	9,7	9,6	1	1	1	1	1	1	1	1	1	0	1	-31,430585	275,082626	293,23459	0
14.01.2021	18:35:12	0	0	3,841132	3,26625	77,1876	1,213	76,586	3,5	1005,58	7,8	9,8	9,6	1	1	1	1	1	1	1	1	1	0	1	-32,699084	275,167602	292,367446	0
14.01.2021	18:35:13	0	0	2,937336	3,25725	70,8696	1,217	76,609	3,5	1005,48	7,7	9,8	9,6	1	1	1	1	1	1	1	1	1	0	1	-30,443975	275,021486	293,932654	0
14.01.2021	18:35:14	0	0	4,631953	3,165	80,2188	1,214	76,617	3,5	1005,44	7,8	9,8	9,6	1	1	1	1	1	1	1	1	1	0	1	-25,792812	275,062225	298,776058	0
14.01.2021	18:35:15	0	0	4,18003	3,20325	85,8996	1,22	76,615	3,5	1005,36	7,7	9,8	9,7	1	1	1	1	1	1	1	1	1	0	1	-29,31642	275,181801	295,81721	0
14.01.2021	18:35:16	0	0	3,050311	3,3435	86,6556	1,22	76,619	3,5	1005,46	7,8	9,8	9,6	1	1	1	1	1	1	1	1	1	0	1	-26,568006	275,134512	298,342188	0
14.01.2021	18:35:17	0	0	4,970876	3,39	85,5324	1,217	76,625	3,5	1005,44	7,8	9,8	9,6	1	1	1	1	1	1	1	1	1	0	1	-31,007752	275,178645	294,110961	0
14.01.2021	18:35:18	0	0	2,937336	3,5385	84,8052	1,223	76,625	3,5	1005,52	7,8	9,8	9,6	1	1	1	1	1	1	1	1	1	0	1	-28,893587	275,077916	295,749353	0
14.01.2021	18:35:19	0	0	4,406004	3,46875	87,7392	1,214	76,625	3,5	1005,52	7,8	9,8	9,6	1	1	1	1	1	1	1	1	1	0	1	-33,051445	275,008968	291,266131	0
14.01.2021	18:35:20	0	0	4,18003	3,2505	81,6048	1,218	76,621	3,5	1005,48	7,8	9,8	9,7	1	1	1	1	1	1	1	1	1	0	1	-30,232558	275,087337	294,454859	0
14.01.2021	18:35:21	0	0	2,485438	3,144	91,8972	1,216	76,62	3,5	1005,5	7,8	9,8	9,6	1	1	1	1	1	1	1	1	1	0	1	-28,400282	275,181801	296,733348	0
14.01.2021	18:35:22	0	0	2,937336	2,98575	89,3124	1,213	76,621	3,5	1005,46	7,7	9,8	9,6	1	1	1	1	1	1	1	1	1	0	1	-25,933756	275,013661	298,405959	0
14.01.2021	18:35:23	0	0	2,711387	2,9235	90,8604	1,205	76,604	3,5	1005,4	7,8	9,8	9,6	1	1	1	1	1	1	1	1	1	0	1	-30,091614	275,109338	294,699684	0
14.01.2021	18:35:24	0	0	3,954106	2,91525	92,9736	1,21	76,61	3,5	1005,46	7,8	9,8	9,6	1	1	1	1	1	1	1	1	1	0	1	-26,638478	275,170756	298,442958	0
14.01.2021	18:35:25	0	0	2,711387	3,04875	99,4968	1,214	76,618	3,5	1005,44	7,7	9,7	9,6	1	1	1	1	1	1	1	1	1	0	1	-32,417195	275,088908	292,277637	0
14.01.2021	18:35:26	0	0	4,518979	3,45675	104,058	1,213	76,615	3,5	1005,56	7,8	9,8	9,6	1	1	1	1	1	1	1	1	1	0	1	-26,779422	274,982395	297,41282	0
14.01.2021	18:35:27	0	0	3,841132	3,516	94,3632	1,213	76,615	3,5	1005,34	7,7	9,8	9,6	1	1	1	1	1	1	1	1	1	0	1	-28,400282	275,14081	296,539665	0
14.01.2021	18:35:28	0	0	3,954106	3,7425	92,2716	1,21	76,625	3,5	1005,44	7,8	9,8	9,6	1	1	1	1	1	1	1	1	1	0	1	-27,061311	275,010532	297,263644	0
14.01.2021	18:35:29	0	0	2,937336	3,72675	86,2812	1,212	76,63	3,5	1005,4	7,7	9,8	9,6	1	1	1	1	1	1	1	1	1	0	1	-28,047921	275,024617	296,343478	0
14.01.2021	18:35:30	0	0	3,389214	3,59475	78,6636	1,213	76,614	3,5	1005,42	7,7	9,8	9,7	1	1	1	1	1	1	1	1	1	0	1	-29,034531	275,004276	295,260912	0
14.01.2021	18:35:31	0	0	3,728157	3,345	75,9852	1,213	76,638	3,5	1005,48	7,7	9,8	9,6	1	1	1	1	1	1	1	1	1	0	1	-30,30303	275,181801	294,830599	0
14.01.2021	18:35:32	0	0	2,372464	3,19425	86,9976	1,213	76,638	3,5	1005,42	7,7	9,8	9,6	1	1	1	1	1	1	1	1	1	0	1	-32,628612	274,983957	291,570997	0
14.01.2021	18:35:33	0	0	4,518979	3,225	84,438	1,211	76,664	3,5	1005,58	7,7	9,8	9,6	1	1	1	1	1	1	1	1	1	0	1	-28,32981	275,098334	296,40953	0
14.01.2021	18:35:34	0	0	3,728157	3,1005	97,326	1,208	76,654	3,5	1005,56	7,8	9,8	9,6	1	1	1	1	1	1	1	1	1	0	1	-26,427061	274,988644	297,794652	0
14.01.2021	18:35:35	0	0	4,518979	3,1185	97,29	1,209	76,663	3,5	1005,44	7,8	9,8	9,6	1	1	1	1	1	1	1	1	1	0	1	-29,950669	275,049681	294,558997	0
14.01.2021	18:35:36	0	0	4,180055	3,102	88,5636	1,208	76,667	3,5	1005,4	7,7	9,8	9,6	1	1	1	1	1	1	1	1	1	0	1	-30,232558	275,159718	294,796719	0
14.01.2021	18:35:37	0	0	4,518979	3,0525	96,9984	1,212	76,676	3,5	1005,54	7,7	9,8	9,6	1	1	1	1	1	1	1	1	1	0	1	-29,034531	275,117201	295,793901	0
14.01.2021	18:35:38	0	0	3,615183	3,05475	94,3956	1,203	76,67	3,5	1005,58	7,7	9,8	9,6	1	1	1	1	1	1	1	1	1	0	1	-29,668781	275,173911	295,427564	0
14.01.2021	18:35:39	0	0	4,067081	3,054	95,1228	1,212	76,672	3,5	1005,4	7,7	9,8	9,6	1	1	1	1	1	1	1	1	1	0	1	-28,823115	274,993332	295,42071	0
14.01.2021	18:35:40	0	0	2,146515	3,00975	96,6852	1,204	76,707	3,5	1005,44	7,8	9,8	9,6	1	1	1	1	1	1	1	1	1	0	1	-26,568006	275,11091	298,230717	0
14.01.2021	18:35:41	0	0	4,067081	2,99175	95,1336	1,21	76,709	3,5	1005,44	7,7	9,8	9,6	1	1	1	1	1	1	1	1	1	0	1	-26,849894	274,977709	297,320251	0
14.01.2021	18:35:42	0	0	4,405978	2,922	93,3192	1,207	76,706	3,5	1005,3	7,7	9,8	9,7	1	1	1	1	1	1	1	1	1	0	1	-30,443975	275,081056	294,213788	0
14.01.2021	18:35:43	0	0	2,485423	2,8875	97,7148	1,206	76,726	3,5	1005,54	7,7	9,8	9,7	1	1	1	1	1	1	1	1	1	0	1	-32,135307	275,153413	292,864182	0
14.01.2021	18:35:44	0	0	4,067081	2,75925	86,7348	1,206	76,731	3,5	1005,52	7,8	9,8	9,6	1	1	1	1	1	1	1	1	1	0	1	-30,443975	275,169179	294,630007	0
14.01.2021	18:35:45	0	0	4,067081	2,7375	84,4308	1,204	76,738	3,5	1005,48	7,7	9,8	9,6	1	1	1	1	1	1	1	1	1	0	1	-28,893587	275,114055	295,919989	0
14.01.2021	18:35:46	0	0	3,615183	2,79825	82,5912	1,206	76,744	3,5	1005,5	7,8	9,8	9,6	1	1	1	1	1	1	1	1	1	0	1	-29,880197	274,985519	294,326779	0
14.01.2021	18:35:47	0	0	3,050311	2,8755	85,5396	1,207	76,745	3,5	1005,46	7,7	9,8	9,6	1	1	1	1	1	1	1	1	1	0	1	-28,188865	275,05752	296,357798	0
14.01.2021	18:35:48	0	0	4,631953	2,853	84,0456	1,205	76,751	3,5	1005,5	7,7	9,8	9,6	1	1	1	1	1	1	1	1	1	0	1	-26,145173	274,985519	298,061804	0
14.01.2021	18:35:49	0	0	4,29303	2,856	81,5724	1,204	76,734	3,5	1005,44	7,7	9,8	9,6	1	1	1	1	1	1	1	1	1	0	1	-37,843552	275,05752	286,703112	0
14.01.2021	18:35:50	0	0	2,598397	2,8515	91,8972	1,199	76,747	3,5	1005,54	7,7	9,8	9,7	1	1	1	1	1	1	1	1	1	0	1	-31,007752	275,114055	293,805824	0
14.01.2021	18:35:51	0	0	2,937318	2,8155	86,2992	1,202	76,76	3,5	1005,48	7,7	9,8	9,7	1	1	1	1	1	1	1	1	1	0	1	-30,091614	274,979271	294,085897	0
14.01.2021	18:35:52	0	0	3,615183	2,784	90,4104	1,202	76,743	3,5	1005,4	7,7	9,8	9,6	1	1	1	1	1	1	1	1	1	0	1	-29,105004	275,099906	295,641756	0
14.01.2021	18:35:53	0	0	4,293004	2,844	88,128	1,205	76,762	3,5	1005,48	7,7	9,8	9,7	1	1	1	1	1	1	1	1	1	0	1	-31,289641	275,007404	293,020557	0
14.01.2021	18:35:54	0	0	2,937318	2,85675	88,9416	1,201	76,761	3,5	1005,56	7,7	9,8	9,7	1	1	1	1	1	1	1	1	1	0	1	-31,853418	275,013661	292,486297	0
14.01.2021	18:35:55	0	0	3,954082	2,93175	90,4248	1,195	76,755	3,5	1005,48	7,7	9,8	9,7	1	1	1	1	1	1	1	1	1	0	1	-29,386892	275,109338	295,404405	0
14.01.2021	18:35:56	0	0	4,067056	2,91975	87,3576	1,209	76,767	3,5	1005,5	7,7	9,8	9,7	1	1	1	1	1	1	1	1	1	0	1	-27,272727	274,983957	296,926881	0
14.01.2021	18:35:57	0	0	2,372449	2,80725	79,758	1,206	76,77	3,5	1005,52	7,7	9,8	9,7	1	1	1	1	1	1	1	1	1	0	1	-27,131783	275,117201	297,69665	0
14.01.2021	18:35:58	0	0	4,631925	2,77275	92,2788	1,203	76,754	3,5	1005,34	7,7	9,8	9,7	1	1	1	1	1	1	1	1	1	0	1	-24,10148	275,167602	300,96505	0
14.01.2021	18:35:59	0	0	4,631925	2,67075	84,0276	1,207	76,799	3,5	1005,68	7,7	9,8	9,7	1	1	1	1	1	1	1	1	1	0	1	-29,31642	275,040278	295,148875	0
14.01.2021	18:36:00	0	0	2,372464	2,6505	82,9836	1,203	76,764	3,5	1005,48	7,7	9,8	9,6	1	1	1	1	1	1	1	1	1	0	1	-30,232558	275,109338	294,558739	0
14.01.2021	18:36:01	0	0	2,372464	2,6505	82,9836	1,203	76,764	3,5	1005,48	7,7	9,8	9,6	1	1	1	1	1	1	1	1	1	0	1	-30,232558	275,109338	294,558739	0
14.01.2021	18:36:02	0	0	2,598413	2,5935	79,0416	1,207	76,775	3,5	1005,5	7,7	9,8	9,6	1	1	1	1	1	1	1	1	1	0	1	-31,92389	275,154989	293,083045	0
14.01.2021	18:36:03	0	0	3,163266	2,592	83,988	1,201	76,763	3,5	1005,38	7,7	9,8	9,7	1	1	1	1	1	1	1	1	1	0	1	-30,866808	275,059088	293,687257	0
14.01.2021	18:36:04	0	0	2,372449	2,5755	85,9176	1,201	76,766	3,5	1005,5	7,8	9,8	9,7	1	1	1	1	1	1	1	1	1	0	1	-28,752643	275,164448	296,298984	0
14.01.2021	18:36:05	0	0	2,824345	2,56425	81,9684	1,2	76,772	3,5	1005,68	7,7	9,8	9,7	1	1	1	1	1	1	1	1	1	0	1	-33,685694	275,065362	290,897984	0
14.01.2021	18:36:06	0	0	3,728157	2,46	87,0516	1,201	76,786	3,5	1005,48	7,7	9,8	9,6	1	1	1	1	1	1	1	1	1	0	1	-28,752643	275,173911	296,343702	0
14.01.2021	18:36:07	0	0	2,824362	2,43075	98,4276	1,203	76,772	3,5	1005,58	7,7	9,8	9,6	1	1	1	1	1	1	1	1	1	0	1	-29,245948	275,104621	295,523077	0
14.01.2021	18:36:08	0	0	4,293004	2,469	104,0652	1,198	76,775	3,5	1005,54	7,7	9,8	9,7	1	1	1	1	1	1	1	1	1	0	1	-28,259338	274,991769	295,977116	0
14.01.2021	18:36:09	0	0	4,631925	2,48625	92,9592	1,198	76,784	3,5	1005,6	7,7	9,8	9,7	1	1	1	1	1	1	1	1	1	0	1	-29,034531	274,996458	295,224038	0
14.01.2021	18:36:10	0	0	4,293004	2,5035	110,3652	1,199	76,801	3,5	1005,54	7,7	9,8	9,7	1	1	1	1	1	1	1	1	1	0	1	-29,598309	275,038711	294,859593	0
14.01.2021	18:36:11	0	0	3,502187	2,487	99,1512	1,202	76,796	3,5	1005,4	7,7	9,8	9,7	1	1	1	1	1	1	1	1	1	0	1	-26,145173	275,148686	298,831983	0
14.01.2021	18:36:12	0	0	3,163266	2,40525	98,4384	1,2	76,79	3,5	1005,48	7,7	9,8	9,7	1	1	1	1	1	1	1	1	1	0	1	-27,906977	275,099906	296,839783	0
14.01.2021	18:36:13	0	0	4,744899	2,493	111,0528	1,203	76,788	3,5	1005,32	7,7	9,8	9,7	1	1	1	1	1	1	1	1	1	0	1	-29,527837	275,153413	295,471652	0
14.01.2021	18:36:14	0	0	2,372478	2,592	101,8224	1,194	76,789	3,5	1005,42	7,7	9,8	9,5	1	1	1	1	1	1	1	1	1	0	1	-30,162086	275,153413	294,837403	0
14.01.2021	18:36:15	0	0	4,631925	2,5665	96,2388	1,2	76,786	3,5	1005,64	7,7	9,8	9,7	1	1	1	1	1	1	1	1	1	0	1	-27,906977	275,040278	296,558318	0
14.01.2021	18:36:16	0	0	2,711387	2,6475	98,0964	1,195	76,783	3,5	1005,54	7,7	9,8	9,6	1	1	1	1	1	1	1	1	1	0	1	-28,118393	275,156565	296,895988	0
14.01.2021	18:36:17	0	0	4,518951	2,601	81,2088	1,195	76,778	3,5	1005,46	7,7	9,8	9,7	1	1	1	1	1	1	1	1	1	0	1	-26,215645	275,137661	298,709424	0
14.01.2021	18:36:18	0	0	3,615161	2,6235	107,4384	1,2	76,792	3,5	1005,5	7,7	9,8	9,7	1	1	1	1	1	1	1	1	1	0	1	-25,72234	275,03088	298,698609	0
14.01.2021	18:36:19	0	0	3,728135	2,65725	94,086	1,19	76,796	3,5	1005,58	7,7	9,8	9,7	1	1	1	1	1	1	1	1	1	0	1	-31,782946	275,159718	293,246332	0
14.01.2021	18:36:20	0	0	4,180055	2,6895	107,7624	1,198	76,799	3,5	1005,38	7,7	9,8	9,6	1	1	1	1	1	1	1	1	1	0	1	-27,484144	275,066931	297,10694	0
14.01.2021	18:36:21	0	0	2,824345	2,784	98,4492	1,192	76,8	3,5	1005,54	7,7	9,8	9,7	1	1	1	1	1	1	1	1	1	0	1	-31,92389	275,150262	293,060709	0
14.01.2021	18:36:22	0	0	4,631925	2,96325	102,2148	1,196	76,812	3,5	1005,44	7,7	9,8	9,7	1	1	1	1	1	1	1	1	1	0	1	-37,984496	275,098334	286,754843	0
14.01.2021	18:36:23	0	0	3,163266	2,9805	101,2068	1,189	76,805	3,5	1005,52	7,7	9,8	9,7	1	1	1	1	1	1	1	1	1	0	1	-28,611698	275,134512	296,298495	0
14.01.2021	18:36:24	0	0	3,389214	3,0285	102,5676	1,195	76,821	3,5	1005,46	7,7	9,8	9,7	1	1	1	1	1	1	1	1	1	0	1	-23,960536	275,00584	300,342284	0
14.01.2021	18:36:25	0	0	3,050292	3,10425	96,57	1,191	76,825	3,5	1005,48	7,7	9,7	9,7	1	1	1	1	1	1	1	1	1	0	1	-30,93728	275,114055	293,876297	0
14.01.2021	18:36:26	0	0	4,18003	3,0795	117,4104	1,196	76,816	3,5	1005,46	7,7	9,8	9,7	1	1	1	1	1	1	1	1	1	0	1	-27,766032	275,156565	297,248349	0
14.01.2021	18:36:27	0	0	4,518979	2,98275	107,4348	1,192	76,82	3,5	1005,38	7,7	9,8	9,6	1	1	1	1	1	1	1	1	1	0	1	-31,219168	275,016791	293,13531	0
14.01.2021	18:36:28	0	0	2,824362	2,87175	110,6676	1,196	76,824	3,5	1005,5	7,7	9,8	9,6	1	1	1	1	1	1	1	1	1	0	1	-28,964059	274,976147	295,198723	0
14.01.2021	18:36:29	0	0	3,163285	2,92575	101,1204	1,189	76,831	3,5	1005,58	7,7	9,8	9,6	1	1	1	1	1	1	1	1	1	0	1	-28,682171	275,001149	295,598521	0
14.01.2021	18:36:30	0	0	2,824362	2,84475	112,2552	1,195	76,851	3,5	1005,56	7,7	9,8	9,6	1	1	1	1	1	1	1	1	1	0	1	-29,386892	275,024617	295,004507	0
14.01.2021	18:36:31	0	0	3,389214	2,8125	115,2036	1,188	76,846	3,5	1005,52	7,7	9,8	9,7	1	1	1	1	1	1	1	1	1	0	1	-27,977449	274,962098	296,11909	0
14.01.2021	18:36:32	0	0	4,067056	2,892	108,864	1,189	76,873	3,5	1005,58	7,7	9,8	9,7	1	1	1	1	1	1	1	1	1	0	1	-27,906977	275,137661	297,018092	0
14.01.2021	18:36:33	0	0	3,389214	2,91825	113,724	1,191	76,864	3,5	1005,5	7,7	9,8	9,7	1	1	1	1	1	1	1	1	1	0	1	-29,386892	275,106193	295,389557	0
14.01.2021	18:36:34	0	0	3,163266	2,907	98,4528	1,191	76,863	3,5	1005,34	7,7	9,8	9,7	1	1	1	1	1	1	1	1	1	0	1	-29,739253	275,137661	295,185816	0
14.01.2021	18:36:35	0	0	2,824362	3,00975	98,766	1,18	76,878	3,5	1005,26	7,7	9,8	9,6	1	1	1	1	1	1	1	1	1	0	1	-27,343199	275,11091	297,455524	0
14.01.2021	18:36:36	0	0	3,276259	2,9595	102,9492	1,207	76,894	3,5	1005,5	7,7	9,8	9,6	1	1	1	1	1	1	1	1	1	0	1	-31,078224	275,123494	293,77993	0
14.01.2021	18:36:37	0	0	4,293004	2,88525	96,2676	1,19	76,896	3,5	1005,44	7,7	9,8	9,7	1	1	1	1	1	1	1	1	1	0	1	-29,245948	274,963659	294,857948	0
14.01.2021	18:36:38	0	0	1,920554	2,67675	108,1368	1,188	76,896	3,5	1005,52	7,7	9,8	9,7	1	1	1	1	1	1	1	1	1	0	1	-28,118393	275,109338	296,672904	0
14.01.2021	18:36:39	0	0	4,518979	2,778	104,04	1,184	76,896	3,5	1005,36	7,7	9,8	9,6	1	1	1	1	1	1	1	1	1	0	1	-29,31642	275,09205	295,393245	0
14.01.2021	18:36:40	0	0	2,824345	2,8425	107,5212	1,182	76,903	3,5	1005,38	7,7	9,7	9,7	1	1	1	1	1	1	1	1	1	0	1	-28,752643	274,960538	295,336539	0
14.01.2021	18:36:41	0	0	3,050311	2,79825	103,2804	1,186	76,919	3,5	1005,54	7,7	9,8	9,6	1	1	1	1	1	1	1	1	1	0	1	-28,118393	274,955858	295,948723	0
14.01.2021	18:36:42	0	0	1,920566	2,78775	98,766	1,189	76,922	3,5	1005,52	7,7	9,8	9,6	1	1	1	1	1	1	1	1	1	0	1	-28,259338	274,998022	296,006605	0
14.01.2021	18:36:43	0	0	2,485438	2,784	101,5128	1,186	76,93	3,5	1005,56	7,7	9,8	9,6	1	1	1	1	1	1	1	1	1	0	1	-30,162086	275,136086	294,755545	0
14.01.2021	18:36:44	0	0	2,598397	2,63025	96,9588	1,181	76,917	3,5	1005,48	7,7	9,7	9,7	1	1	1	1	1	1	1	1	1	0	1	-25,08809	274,957418	298,98638	0
14.01.2021	18:36:45	0	0	3,276259	2,68125	107,0532	1,181	76,919	3,5	1005,44	7,7	9,8	9,6	1	1	1	1	1	1	1	1	1	0	1	-27,906977	275,063793	296,669297	0
14.01.2021	18:36:46	0	0	2,372449	2,7045	108,1404	1,178	76,935	3,5	1005,48	7,7	9,8	9,7	1	1	1	1	1	1	1	1	1	0	1	-28,964059	275,134512	295,946135	0
14.01.2021	18:36:47	0	0	4,518979	2,66775	112,6152	1,182	76,937	3,5	1005,58	7,7	9,8	9,6	1	1	1	1	1	1	1	1	1	0	1	-29,950669	275,09205	294,758995	0
14.01.2021	18:36:48	0	0	2,259476	2,66025	109,602	1,178	76,937	3,5	1005,36	7,7	9,8	9,7	1	1	1	1	1	1	1	1	1	0	1	-29,034531	274,958978	295,047294	0
14.01.2021	18:36:49	0	0	2,824362	2,60325	116,334	1,176	76,94	3,5	1005,48	7,7	9,8	9,6	1	1	1	1	1	1	1	1	1	0	1	-28,188865	274,982395	296,003376	0
14.01.2021	18:36:50	0	0	2,937318	2,604	101,8152	1,178	76,931	3,5	1005,5	7,7	9,8	9,7	1	1	1	1	1	1	1	1	1	0	1	-32,346723	275,055952	292,19254	0
14.01.2021	18:36:51	0	0	3,276259	2,568	97,308	1,177	76,916	3,5	1005,46	7,7	9,8	9,6	1	1	1	1	1	1	1	1	1	0	1	-28,611698	274,941823	295,389258	0
14.01.2021	18:36:52	0	0	3,728157	2,67525	92,9592	1,18	76,936	3,5	1005,4	7,7	9,8	9,6	1	1	1	1	1	1	1	1	1	0	1	-27,836505	275,106193	296,939944	0
14.01.2021	18:36:53	0	0	3,841132	2,70225	109,6128	1,179	76,952	3,5	1005,54	7,7	9,8	9,6	1	1	1	1	1	1	1	1	1	0	1	-28,118393	275,098334	296,620946	0
14.01.2021	18:36:54	0	0	4,631925	2,60325	99,1512	1,175	76,943	3,5	1005,36	7,7	9,8	9,7	1	1	1	1	1	1	1	1	1	0	1	-25,863284	274,94806	298,16707	0
14.01.2021	18:36:55	0	0	2,937318	2,55375	116,6472	1,174	76,951	3,5	1005,62	7,7	9,8	9,7	1	1	1	1	1	1	1	1	1	0	1	-29,668781	274,999585	294,604536	0
14.01.2021	18:36:56	0	0	3,389234	2,70075	94,392	1,174	76,963	3,5	1005,5	7,7	9,8	9,6	1	1	1	1	1	1	1	1	1	0	1	-29,527837	274,940265	294,465773	0
14.01.2021	18:36:57	0	0	2,824362	2,72325	77,2128	1,176	76,973	3,5	1005,46	7,7	9,8	9,6	1	1	1	1	1	1	1	1	1	0	1	-28,964059	275,029314	295,449501	0
14.01.2021	18:36:58	0	0	3,050292	2,874	79,7652	1,172	76,988	3,5	1005,6	7,7	9,8	9,7	1	1	1	1	1	1	1	1	1	0	1	-28,964059	274,938706	295,022203	0
14.01.2021	18:36:59	0	0	4,406004	3,07875	104,7708	1,168	77	3,5	1005,46	7,7	9,8	9,6	1	1	1	1	1	1	1	1	1	0	1	-28,259338	275,024617	296,132062	0
14.01.2021	18:37:00	0	0	3,163285	2,682	94,4568	1,17	77,023	3,5	1005,4	7,7	9,8	9,6	1	1	1	1	1	1	1	1	1	0	1	-28,470754	275,00584	295,832066	0
14.01.2021	18:37:01	0	0	3,050311	2,658	101,1276	1,173	77,012	3,5	1005,58	7,7	9,8	9,6	1	1	1	1	1	1	1	1	1	0	1	-30,725863	274,985519	293,481113	0
14.01.2021	18:37:02	0	0	3,050311	2,658	101,1276	1,173	77,012	3,5	1005,58	7,7	9,8	9,6	1	1	1	1	1	1	1	1	1	0	1	-30,725863	274,985519	293,481113	0
14.01.2021	18:37:03	0	0	4,180055	2,6535	80,5068	1,167	77,014	3,5	1005,46	7,7	9,8	9,6	1	1	1	1	1	1	1	1	1	0	1	-27,625088	275,114055	297,188488	0
14.01.2021	18:37:04	0	0	3,050311	3,084	98,7552	1,171	77,035	3,5	1005,52	7,7	9,8	9,6	1	1	1	1	1	1	1	1	1	0	1	-28,118393	275,066931	296,47269	0
14.01.2021	18:37:05	0	0	2,824345	3,183	107,0784	1,17	77,038	3,5	1005,48	7,7	9,7	9,7	1	1	1	1	1	1	1	1	1	0	1	-29,175476	274,943382	294,832829	0
14.01.2021	18:37:06	0	0	4,518979	3,279	105,1488	1,17	77,044	3,5	1005,34	7,7	9,7	9,6	1	1	1	1	1	1	1	1	1	0	1	-28,118393	275,065362	296,465285	0
14.01.2021	18:37:07	0	0	4,744927	3,2835	109,98	1,17	77,059	3,5	1005,52	7,7	9,7	9,6	1	1	1	1	1	1	1	1	1	0	1	-31,148696	275,073207	293,472015	0
14.01.2021	18:37:08	0	0	2,711387	3,15525	93,8052	1,157	77,053	3,5	1005,5	7,7	9,9	9,6	1	1	1	1	1	1	1	1	1	0	1	-29,809725	275,11091	294,988998	0
14.01.2021	18:37:09	0	0	3,841132	3,0885	81,2196	1,157	77,055	3,5	1005,54	7,7	9,8	9,6	1	1	1	1	1	1	1	1	1	0	1	-27,202255	275,043412	297,277827	0
14.01.2021	18:37:10	0	0	3,389234	3,17325	71,5896	1,165	77,059	3,5	1005,4	7,7	9,8	9,6	1	1	1	1	1	1	1	1	1	0	1	-28,259338	275,109338	296,53196	0
14.01.2021	18:37:11	0	0	3,163285	3,123	79,434	1,16	77,055	3,5	1005,4	7,7	9,8	9,6	1	1	1	1	1	1	1	1	1	0	1	-29,175476	274,996458	295,083094	0
14.01.2021	18:37:12	0	0	4,631953	3,00525	89,3592	1,16	77,052	3,5	1005,52	7,7	9,8	9,6	1	1	1	1	1	1	1	1	1	0	1	-31,289641	275,121921	293,561082	0
14.01.2021	18:37:13	0	0	4,970876	2,98725	71,7048	1,167	77,072	3,5	1005,52	7,7	9,7	9,6	1	1	1	1	1	1	1	1	1	0	1	-32,276251	275,055952	292,263012	0
14.01.2021	18:37:14	0	0	3,615161	2,90625	71,6076	1,156	77,085	3,5	1005,46	7,6	9,7	9,7	1	1	1	1	1	1	1	1	1	0	1	-25,581395	274,920012	298,316762	0
14.01.2021	18:37:15	0	0	3,615183	2,82975	71,9892	1,166	77,087	3,5	1005,58	7,7	9,8	9,6	1	1	1	1	1	1	1	1	1	0	1	-32,064834	275,049681	292,444832	0
14.01.2021	18:37:16	0	0	2,711387	2,78025	73,0584	1,162	77,096	3,5	1005,54	7,7	9,8	9,6	1	1	1	1	1	1	1	1	1	0	1	-26,0747	274,929357	297,867497	0
14.01.2021	18:37:17	0	0	2,259489	2,8605	82,9692	1,156	77,125	3,5	1005,78	7,6	9,8	9,6	1	1	1	1	1	1	1	1	1	0	1	-24,524313	275,034012	299,911415	0
14.01.2021	18:37:18	0	0	4,406004	2,91	97,704	1,161	77,102	3,5	1005,6	7,6	9,8	9,6	1	1	1	1	1	1	1	1	1	0	1	-28,259338	275,114055	296,554239	0
14.01.2021	18:37:19	0	0	3,615183	2,7015	75,9672	1,161	77,116	3,5	1005,84	7,7	9,7	9,6	1	1	1	1	1	1	1	1	1	0	1	-30,30303	274,96678	293,815583	0
14.01.2021	18:37:20	0	0	4,744927	2,592	77,67	1,155	77,113	3,5	1005,64	7,6	9,7	9,6	1	1	1	1	1	1	1	1	1	0	1	-27,413672	275,060656	297,147796	0
14.01.2021	18:37:21	0	0	4,744927	2,5035	75,978	1,158	77,136	3,5	1005,42	7,7	9,8	9,6	1	1	1	1	1	1	1	1	1	0	1	-30,725863	275,054384	293,805999	0
14.01.2021	18:37:22	0	0	2,485438	2,541	80,9064	1,156	77,143	3,5	1005,48	7,7	9,8	9,6	1	1	1	1	1	1	1	1	1	0	1	-32,276251	275,098334	292,463088	0
14.01.2021	18:37:23	0	0	2,598413	2,703	90,396	1,147	77,148	3,5	1005,66	7,8	9,7	9,6	1	1	1	1	1	1	1	1	1	0	1	-33,192389	274,957418	290,882081	0
14.01.2021	18:37:24	0	0	3,050292	2,832	84,8952	1,15	77,137	3,5	1005,58	7,7	9,8	9,7	1	1	1	1	1	1	1	1	1	0	1	-28,823115	274,976147	295,339667	0
14.01.2021	18:37:25	0	0	4,406004	2,895	76,3668	1,15	77,147	3,5	1005,42	7,6	9,7	9,6	1	1	1	1	1	1	1	1	1	0	1	-26,356589	275,095192	298,367911	0
14.01.2021	18:37:26	0	0	4,180055	2,9055	86,3064	1,15	77,153	3,5	1005,48	7,7	9,8	9,6	1	1	1	1	1	1	1	1	1	0	1	-31,994362	274,949619	292,043342	0
14.01.2021	18:37:27	0	0	2,372464	2,967	96,2208	1,153	77,144	3,5	1005,54	7,7	9,7	9,6	1	1	1	1	1	1	1	1	1	0	1	-28,964059	275,120347	295,879232	0
14.01.2021	18:37:28	0	0	4,631953	3,2235	94,0752	1,153	77,16	3,5	1005,36	7,7	9,7	9,6	1	1	1	1	1	1	1	1	1	0	1	-28,541226	275,063793	296,035048	0
14.01.2021	18:37:29	0	0	5,196825	3,444	94,3956	1,15	77,164	3,5	1005,48	7,8	9,8	9,6	1	1	1	1	1	1	1	1	1	0	1	-29,880197	274,963659	294,223699	0
14.01.2021	18:37:30	0	0	4,29303	3,4845	96,2136	1,15	77,164	3,5	1005,52	7,7	9,7	9,6	1	1	1	1	1	1	1	1	1	0	1	-30,021142	275,076347	294,614388	0
14.01.2021	18:37:31	0	0	4,631953	3,45375	87,3576	1,145	77,179	3,5	1005,52	7,6	9,7	9,6	1	1	1	1	1	1	1	1	1	0	1	-27,977449	274,994895	296,273748	0
14.01.2021	18:37:32	0	0	4,180055	3,3225	86,9652	1,154	77,188	3,5	1005,56	7,6	9,8	9,6	1	1	1	1	1	1	1	1	1	0	1	-30,443975	275,098334	294,295365	0
14.01.2021	18:37:33	0	0	4,857902	3,33675	87,336	1,148	77,182	3,5	1005,44	7,6	9,8	9,6	1	1	1	1	1	1	1	1	1	0	1	-27,061311	274,955858	297,005805	0
14.01.2021	18:37:34	0	0	3,841132	3,56025	87,336	1,15	77,211	3,5	1005,56	7,6	9,8	9,6	1	1	1	1	1	1	1	1	1	0	1	-27,69556	274,965219	296,415694	0
14.01.2021	18:37:35	0	0	4,180055	3,786	97,3944	1,147	77,212	3,5	1005,46	7,6	9,7	9,6	1	1	1	1	1	1	1	1	1	0	1	-26,70895	274,924684	297,211224	0
14.01.2021	18:37:36	0	0	4,518979	3,7335	88,5816	1,147	77,232	3,5	1005,56	7,6	9,8	9,6	1	1	1	1	1	1	1	1	1	0	1	-28,682171	275,079486	295,96818	0
14.01.2021	18:37:37	0	0	2,485438	3,4965	70,596	1,143	77,237	3,5	1005,36	7,6	9,8	9,6	1	1	1	1	1	1	1	1	1	0	1	-35,16561	275,104621	289,603416	0
14.01.2021	18:37:38	0	0	3,276259	3,39825	65,448	1,141	77,258	3,5	1005,56	7,6	9,8	9,6	1	1	1	1	1	1	1	1	1	0	1	-29,598309	275,065362	294,98537	0
14.01.2021	18:37:39	0	0	3,276259	3,4845	65,088	1,141	77,264	3,5	1005,58	7,6	9,8	9,6	1	1	1	1	1	1	1	1	1	0	1	-33,897111	275,096763	290,834809	0
14.01.2021	18:37:40	0	0	2,937336	3,48225	70,5924	1,142	77,27	3,5	1005,44	7,7	9,8	9,6	1	1	1	1	1	1	1	1	1	0	1	-30,162086	274,94806	293,868268	0
14.01.2021	18:37:41	0	0	4,067081	3,50475	76,8276	1,148	77,288	3,5	1005,52	7,6	9,8	9,6	1	1	1	1	1	1	1	1	1	0	1	-26,215645	275,046546	298,279228	0
14.01.2021	18:37:42	0	0	4,406004	3,345	86,3352	1,143	77,278	3,5	1005,44	7,6	9,7	9,6	1	1	1	1	1	1	1	1	1	0	1	-31,782946	275,070069	292,82295	0
14.01.2021	18:37:43	0	0	2,937336	3,258	94,3992	1,139	77,291	3,5	1005,62	7,8	9,7	9,6	1	1	1	1	1	1	1	1	1	0	1	-33,756166	275,076347	290,879363	0
14.01.2021	18:37:44	0	0	2,598413	3,525	99,1692	1,145	77,296	3,5	1005,4	7,6	9,8	9,6	1	1	1	1	1	1	1	1	1	0	1	-31,571529	274,912229	292,289949	0
14.01.2021	18:37:45	0	0	3,276259	3,5865	100,7424	1,145	77,286	3,5	1005,38	7,8	9,7	9,6	1	1	1	1	1	1	1	1	1	0	1	-27,69556	275,024617	296,695839	0
14.01.2021	18:37:46	0	0	4,29303	3,75825	76,8528	1,133	77,297	3,5	1005,66	7,7	9,7	9,6	1	1	1	1	1	1	1	1	1	0	1	-32,487667	274,929357	291,45453	0
14.01.2021	18:37:47	0	0	4,518979	3,927	79,7724	1,141	77,291	3,5	1005,44	7,6	9,8	9,6	1	1	1	1	1	1	1	1	1	0	1	-31,994362	275,093621	292,72272	0
14.01.2021	18:37:48	0	0	4,744927	3,79425	82,3572	1,132	77,293	3,5	1005,42	7,7	9,8	9,6	1	1	1	1	1	1	1	1	1	0	1	-38,971106	275,026182	285,427679	0
14.01.2021	18:37:49	0	0	3,389234	3,492	80,172	1,138	77,319	3,5	1005,52	7,6	9,8	9,6	1	1	1	1	1	1	1	1	1	0	1	-26,70895	275,099906	298,03781	0
14.01.2021	18:37:50	0	0	3,728157	3,27375	75,2436	1,135	77,321	3,5	1005,6	7,7	9,7	9,6	1	1	1	1	1	1	1	1	1	0	1	-27,766032	275,015226	296,581064	0
14.01.2021	18:37:51	0	0	4,180055	3,102	94,1004	1,132	77,334	3,5	1005,38	7,7	9,8	9,6	1	1	1	1	1	1	1	1	1	0	1	-25,299507	274,927799	298,635349	0
14.01.2021	18:37:52	0	0	3,163285	3,31875	90,0324	1,134	77,332	3,5	1005,56	7,7	9,8	9,6	1	1	1	1	1	1	1	1	1	0	1	-31,92389	275,03088	292,497059	0
14.01.2021	18:37:53	0	0	2,711387	3,42225	89,3196	1,141	77,355	3,5	1005,42	7,6	9,8	9,6	1	1	1	1	1	1	1	1	1	0	1	-29,457364	274,918455	294,433456	0
14.01.2021	18:37:54	0	0	2,598413	3,43725	94,0896	1,129	77,351	3,5	1005,5	7,6	9,8	9,6	1	1	1	1	1	1	1	1	1	0	1	-29,175476	274,996458	295,083094	0
14.01.2021	18:37:55	0	0	3,728157	3,2685	99,1728	1,129	77,371	3,5	1005,48	7,6	9,8	9,6	1	1	1	1	1	1	1	1	1	0	1	-30,93728	275,093621	293,779803	0
14.01.2021	18:37:56	0	0	4,518979	3,075	91,1952	1,135	77,384	3,5	1005,34	7,8	9,7	9,6	1	1	1	1	1	1	1	1	1	0	1	-28,682171	274,974586	295,473248	0
14.01.2021	18:37:57	0	0	4,744927	2,93325	91,8972	1,136	77,392	3,5	1005,58	7,6	9,8	9,6	1	1	1	1	1	1	1	1	1	0	1	-30,655391	274,918455	293,235429	0
14.01.2021	18:37:58	0	0	2,937336	2,96025	84,4452	1,128	77,394	3,5	1005,5	7,6	9,8	9,6	1	1	1	1	1	1	1	1	1	0	1	-27,202255	275,044979	297,285222	0
14.01.2021	18:37:59	0	0	2,937336	3,024	94,3632	1,136	77,397	3,5	1005,56	7,6	9,8	9,6	1	1	1	1	1	1	1	1	1	0	1	-30,232558	275,096763	294,499361	0
14.01.2021	18:38:00	0	0	2,372464	3,12075	66,5424	1,138	77,413	3,5	1005,5	7,6	9,8	9,6	1	1	1	1	1	1	1	1	1	0	1	-26,497533	274,909116	297,349277	0
14.01.2021	18:38:01	0	0	2,824362	2,9715	84,5028	1,129	77,397	3,5	1005,44	7,6	9,7	9,6	1	1	1	1	1	1	1	1	1	0	1	-26,779422	275,038711	297,67848	0
14.01.2021	18:38:02	0	0	2,824362	2,9715	84,5028	1,129	77,397	3,5	1005,44	7,6	9,7	9,6	1	1	1	1	1	1	1	1	1	0	1	-26,779422	275,038711	297,67848	0
14.01.2021	18:38:03	0	0	2,598413	2,643	75,636	1,136	77,427	3,5	1005,48	7,7	9,8	9,6	1	1	1	1	1	1	1	1	1	0	1	-30,584919	274,930915	293,364621	0
14.01.2021	18:38:04	0	0	3,389234	2,30925	92,97	1,132	77,444	3,5	1005,52	7,7	9,8	9,6	1	1	1	1	1	1	1	1	1	0	1	-37,491191	275,063793	287,085083	0
14.01.2021	18:38:05	0	0	3,615183	2,11575	87,7428	1,132	77,452	3,5	1005,58	7,7	9,8	9,6	1	1	1	1	1	1	1	1	1	0	1	-27,69556	274,949619	296,342144	0
14.01.2021	18:38:06	0	0	4,744927	1,99425	103,3128	1,136	77,455	3,5	1005,52	7,7	9,8	9,6	1	1	1	1	1	1	1	1	1	0	1	-31,007752	275,081056	293,650011	0
14.01.2021	18:38:07	0	0	4,406004	2,01975	81,2304	1,13	77,461	3,5	1005,54	7,8	9,8	9,6	1	1	1	1	1	1	1	1	1	0	1	-31,642001	274,958978	292,439824	0
14.01.2021	18:38:08	0	0	2,598413	2,27475	87,372	1,134	77,461	3,5	1005,46	7,7	9,8	9,6	1	1	1	1	1	1	1	1	1	0	1	-31,853418	274,951178	292,191638	0
14.01.2021	18:38:09	0	0	5,083851	2,5695	84,8088	1,126	77,462	3,5	1005,44	7,7	9,8	9,6	1	1	1	1	1	1	1	1	1	0	1	-26,568006	274,971463	297,572689	0
14.01.2021	18:38:10	0	0	2,937336	2,99775	104,0364	1,134	77,476	3,5	1005,62	7,7	9,8	9,6	1	1	1	1	1	1	1	1	1	0	1	-29,950669	274,929357	293,991528	0
14.01.2021	18:38:11	0	0	4,518979	3,31125	82,3572	1,13	77,475	3,5	1005,52	7,8	9,8	9,6	1	1	1	1	1	1	1	1	1	0	1	-27,061311	275,060656	297,500157	0
14.01.2021	18:38:12	0	0	4,857902	3,348	91,9008	1,13	77,481	3,5	1005,48	7,7	9,8	9,6	1	1	1	1	1	1	1	1	1	0	1	-29,245948	275,040278	295,219347	0
14.01.2021	18:38:13	0	0	2,711387	3,31425	91,9152	1,134	77,487	3,5	1005,56	7,7	9,7	9,6	1	1	1	1	1	1	1	1	1	0	1	-29,31642	275,103049	295,445183	0
14.01.2021	18:38:14	0	0	2,711387	3,38625	87,3576	1,13	77,479	3,5	1005,42	7,7	9,8	9,6	1	1	1	1	1	1	1	1	1	0	1	-26,215645	275,013661	298,12407	0
14.01.2021	18:38:15	0	0	2,824362	3,294	85,536	1,123	77,485	3,5	1005,42	7,8	9,8	9,6	1	1	1	1	1	1	1	1	1	0	1	-30,232558	274,915342	293,64359	0
14.01.2021	18:38:16	0	0	2,259489	3,1035	87,714	1,128	77,484	3,5	1005,62	7,7	9,8	9,6	1	1	1	1	1	1	1	1	1	0	1	-32,628612	274,994895	291,622585	0
14.01.2021	18:38:17	0	0	3,841132	2,9985	75,2256	1,127	77,47	3,5	1005,46	7,7	9,8	9,6	1	1	1	1	1	1	1	1	1	0	1	-29,31642	275,099906	295,43034	0
14.01.2021	18:38:18	0	0	2,937336	2,8605	85,1688	1,126	77,466	3,5	1005,46	7,7	9,8	9,6	1	1	1	1	1	1	1	1	1	0	1	-27,413672	275,051248	297,103393	0
14.01.2021	18:38:19	0	0	3,502208	2,5545	85,5396	1,127	77,468	3,5	1005,46	7,6	9,8	9,6	1	1	1	1	1	1	1	1	1	0	1	-30,655391	274,979271	293,522119	0
14.01.2021	18:38:20	0	0	4,406004	2,4465	92,9556	1,12	77,456	3,5	1005,46	7,6	9,8	9,6	1	1	1	1	1	1	1	1	1	0	1	-30,021142	274,924684	293,899033	0
14.01.2021	18:38:21	0	0	3,050311	2,53575	99,8964	1,131	77,466	3,5	1005,56	7,6	9,8	9,6	1	1	1	1	1	1	1	1	1	0	1	-25,229035	275,046546	299,265839	0
14.01.2021	18:38:22	0	0	3,841132	2,78025	87,7176	1,119	77,47	3,5	1005,46	7,6	9,8	9,6	1	1	1	1	1	1	1	1	1	0	1	-29,034531	274,915342	294,841616	0
14.01.2021	18:38:23	0	0	4,744927	3,1395	95,5188	1,127	77,454	3,5	1005,66	7,6	9,8	9,6	1	1	1	1	1	1	1	1	1	0	1	-33,262861	275,070069	291,343035	0
14.01.2021	18:38:24	0	0	2,711387	3,44175	94,1328	1,122	77,455	3,5	1005,4	7,6	9,8	9,6	1	1	1	1	1	1	1	1	1	0	1	-28,964059	274,918455	294,926761	0
14.01.2021	18:38:25	0	0	4,29303	3,56775	93,3264	1,133	77,461	3,5	1005,42	7,7	9,8	9,6	1	1	1	1	1	1	1	1	1	0	1	-33,826638	275,093621	290,890444	0
14.01.2021	18:38:26	0	0	3,389234	3,414	94,3884	1,13	77,463	3,5	1005,54	7,7	9,8	9,6	1	1	1	1	1	1	1	1	1	0	1	-29,880197	274,985519	294,326779	0
14.01.2021	18:38:27	0	0	3,389234	3,531	93,726	1,127	77,483	3,5	1005,68	7,7	9,8	9,6	1	1	1	1	1	1	1	1	1	0	1	-31,078224	275,071638	293,535079	0
14.01.2021	18:38:28	0	0	3,163285	3,5325	86,6736	1,117	77,473	3,5	1005,48	7,7	9,8	9,6	1	1	1	1	1	1	1	1	1	0	1	-30,232558	274,915342	293,64359	0
14.01.2021	18:38:29	0	0	3,728157	3,73725	88,5996	1,118	77,469	3,5	1005,42	7,7	9,8	9,6	1	1	1	1	1	1	1	1	1	0	1	-30,584919	275,007404	293,725279	0
14.01.2021	18:38:30	0	0	4,29303	3,7875	91,53	1,125	77,485	3,5	1005,52	7,7	9,8	9,6	1	1	1	1	1	1	1	1	1	0	1	-31,289641	275,087337	293,397776	0
14.01.2021	18:38:31	0	0	4,406004	3,81975	96,5916	1,126	77,491	3,5	1005,56	7,7	9,8	9,6	1	1	1	1	1	1	1	1	1	0	1	-31,994362	274,999585	292,278954	0
14.01.2021	18:38:32	0	0	2,824362	3,624	88,6212	1,12	77,495	3,5	1005,54	7,7	9,8	9,6	1	1	1	1	1	1	1	1	1	0	1	-29,527837	274,913785	294,340976	0
14.01.2021	18:38:33	0	0	3,502208	3,9285	78,282	1,123	77,496	3,5	1005,48	7,7	9,8	9,6	1	1	1	1	1	1	1	1	1	0	1	-28,118393	275,034012	296,317335	0
14.01.2021	18:38:34	0	0	4,29303	4,0695	83,7288	1,119	77,543	3,5	1005,44	7,7	9,8	9,6	1	1	1	1	1	1	1	1	1	0	1	-28,470754	274,963659	295,633142	0
14.01.2021	18:38:35	0	0	3,050311	3,867	79,4052	1,123	77,497	3,5	1005,44	7,7	9,8	9,6	1	1	1	1	1	1	1	1	1	0	1	-26,70895	274,910672	297,145194	0
14.01.2021	18:38:36	0	0	2,598413	3,9075	81,216	1,12	77,505	3,5	1005,5	7,7	9,8	9,6	1	1	1	1	1	1	1	1	1	0	1	-30,796335	274,962098	293,300203	0
14.01.2021	18:38:37	0	0	2,259489	3,969	87,3684	1,119	77,508	3,5	1005,5	7,7	9,8	9,6	1	1	1	1	1	1	1	1	1	0	1	-27,625088	274,916899	296,258396	0
14.01.2021	18:38:38	0	0	3,050311	4,035	102,1968	1,121	77,517	3,5	1005,56	7,7	9,8	9,6	1	1	1	1	1	1	1	1	1	0	1	-28,964059	274,951178	295,080997	0
14.01.2021	18:38:39	0	0	3,502208	4,08525	103,6908	1,118	77,521	3,5	1005,62	7,7	9,8	9,6	1	1	1	1	1	1	1	1	1	0	1	-28,259338	274,920012	295,63882	0
14.01.2021	18:38:40	0	0	3,615183	4,0665	100,7496	1,11	77,519	3,5	1005,46	7,7	9,8	9,6	1	1	1	1	1	1	1	1	1	0	1	-30,021142	274,902892	293,796344	0
14.01.2021	18:38:41	0	0	3,163285	3,81225	108,5976	1,116	77,52	3,5	1005,54	7,7	9,8	9,6	1	1	1	1	1	1	1	1	1	0	1	-25,651868	274,998022	298,614075	0
14.01.2021	18:38:42	0	0	4,518979	3,70875	103,6656	1,117	77,51	3,5	1005,38	7,7	9,8	9,6	1	1	1	1	1	1	1	1	1	0	1	-29,809725	274,898226	293,985774	0
14.01.2021	18:38:43	0	0	4,29303	3,76425	93,33	1,115	77,513	3,5	1005,5	7,7	9,8	9,6	1	1	1	1	1	1	1	1	1	0	1	-28,259338	275,0685	296,339152	0
14.01.2021	18:38:44	0	0	2,937336	3,75825	93,69	1,117	77,523	3,5	1005,52	7,6	9,8	9,6	1	1	1	1	1	1	1	1	1	0	1	-33,262861	274,932473	290,694022	0
14.01.2021	18:38:45	0	0	4,744927	3,606	95,1408	1,119	77,517	3,5	1005,5	7,7	9,8	9,6	1	1	1	1	1	1	1	1	1	0	1	-33,051445	274,898226	290,744054	0
14.01.2021	18:38:46	0	0	4,067081	3,672	87,7824	1,114	77,514	3,5	1005,64	7,7	9,8	9,6	1	1	1	1	1	1	1	1	1	0	1	-31,360113	274,955858	292,707003	0
14.01.2021	18:38:47	0	0	4,744927	3,585	82,3464	1,113	77,508	3,5	1005,48	7,7	9,8	9,6	1	1	1	1	1	1	1	1	1	0	1	-33,333333	274,913785	290,535479	0
14.01.2021	18:38:48	0	0	3,615183	3,858	80,5248	1,116	77,525	3,5	1005,52	7,7	9,8	9,6	1	1	1	1	1	1	1	1	1	0	1	-25,863284	275,077916	298,779656	0
14.01.2021	18:38:49	0	0	4,406004	3,79875	95,1588	1,112	77,521	3,5	1005,48	7,7	9,8	9,6	1	1	1	1	1	1	1	1	1	0	1	-25,510923	274,977709	298,659223	0
14.01.2021	18:38:50	0	0	2,485438	4,1055	89,712	1,115	77,544	3,5	1005,42	7,7	9,8	9,6	1	1	1	1	1	1	1	1	1	0	1	-29,598309	275,076347	295,037221	0
14.01.2021	18:38:51	0	0	4,744927	4,2345	98,7444	1,115	77,553	3,5	1005,48	7,7	9,8	9,6	1	1	1	1	1	1	1	1	1	0	1	-29,598309	275,046546	294,896565	0
14.01.2021	18:38:52	0	0	3,728157	4,00275	90,0504	1,112	77,561	3,5	1005,46	7,7	9,8	9,6	1	1	1	1	1	1	1	1	1	0	1	-32,487667	274,915342	291,38848	0
14.01.2021	18:38:53	0	0	4,857902	4,06275	75,24	1,116	77,582	3,5	1005,42	7,7	9,8	9,6	1	1	1	1	1	1	1	1	1	0	1	-29,527837	274,958978	294,553989	0
14.01.2021	18:38:54	0	0	3,163285	4,50225	73,0944	1,112	77,599	3,5	1005,54	7,7	9,8	9,6	1	1	1	1	1	1	1	1	1	0	1	-25,863284	274,921569	298,042212	0
14.01.2021	18:38:55	0	0	3,389234	5,22	79,758	1,108	77,604	3,5	1005,54	7,7	9,8	9,6	1	1	1	1	1	1	1	1	1	0	1	-27,202255	274,954298	296,857507	0
14.01.2021	18:38:56	0	0	2,937336	5,2155	74,538	1,116	77,627	3,5	1005,4	7,7	9,8	9,6	1	1	1	1	1	1	1	1	1	0	1	-30,232558	275,040278	294,232737	0
14.01.2021	18:38:57	0	0	2,937336	4,93725	73,7784	1,115	77,637	3,5	1005,44	7,7	9,8	9,6	1	1	1	1	1	1	1	1	1	0	1	-32,628612	275,081056	292,029151	0
14.01.2021	18:38:58	0	0	3,389234	4,842	92,6316	1,108	77,631	3,5	1005,48	7,7	9,8	9,6	1	1	1	1	1	1	1	1	1	0	1	-32,205779	275,007404	292,104419	0
14.01.2021	18:38:59	0	0	3,841132	4,56675	88,2144	1,113	77,654	3,5	1005,38	7,7	9,8	9,6	1	1	1	1	1	1	1	1	1	0	1	-30,091614	274,912229	293,769864	0
14.01.2021	18:39:00	0	0	3,276259	5,4495	83,3472	1,116	77,667	3,5	1005,54	7,7	9,8	9,6	1	1	1	1	1	1	1	1	1	0	1	-31,782946	275,041845	292,689743	0
14.01.2021	18:39:01	0	0	4,29303	5,91525	78,66	1,115	77,673	3,5	1005,56	7,7	9,8	9,6	1	1	1	1	1	1	1	1	1	0	1	-31,712474	275,038711	292,745428	0
14.01.2021	18:39:02	0	0	4,29303	5,91525	78,66	1,115	77,673	3,5	1005,56	7,7	9,8	9,6	1	1	1	1	1	1	1	1	1	0	1	-31,712474	275,038711	292,745428	0
14.01.2021	18:39:03	0	0	2,937336	5,55675	81,198	1,114	77,679	3,5	1005,44	7,7	9,8	9,6	1	1	1	1	1	1	1	1	1	0	1	-32,417195	275,013661	291,92252	0
14.01.2021	18:39:04	0	0	4,518979	5,26875	77,5584	1,116	77,689	3,5	1005,66	7,7	9,8	9,6	1	1	1	1	1	1	1	1	1	0	1	-28,118393	275,079486	296,531958	0
14.01.2021	18:39:05	0	0	4,406004	4,92825	88,1316	1,114	77,689	3,5	1005,52	7,7	9,8	9,6	1	1	1	1	1	1	1	1	1	0	1	-27,554616	275,043412	296,925467	0
14.01.2021	18:39:06	0	0	3,841132	4,71375	92,9268	1,113	77,716	3,5	1005,5	7,7	9,8	9,6	1	1	1	1	1	1	1	1	1	0	1	-29,386892	275,026182	295,011893	0
14.01.2021	18:39:07	0	0	4,29303	4,56075	99,5112	1,111	77,734	3,5	1005,38	7,7	9,8	9,6	1	1	1	1	1	1	1	1	1	0	1	-27,977449	275,09205	296,732216	0
14.01.2021	18:39:08	0	0	2,598413	4,23	100,7208	1,114	77,76	3,5	1005,7	7,7	9,8	9,6	1	1	1	1	1	1	1	1	1	0	1	-29,809725	274,960538	294,279457	0
14.01.2021	18:39:09	0	0	3,728157	4,08975	91,134	1,113	77,778	3,5	1005,5	7,7	9,8	9,6	1	1	1	1	1	1	1	1	1	0	1	-27,625088	275,044979	296,862389	0
14.01.2021	18:39:10	0	0	4,29303	4,0575	94,0932	1,111	77,798	3,5	1005,6	7,7	9,8	9,6	1	1	1	1	1	1	1	1	1	0	1	-30,162086	274,906004	293,670061	0
14.01.2021	18:39:11	0	0	3,841132	4,01775	88,56	1,114	77,798	3,5	1005,46	7,7	9,8	9,6	1	1	1	1	1	1	1	1	1	0	1	-31,571529	274,976147	292,591253	0
14.01.2021	18:39:12	0	0	4,518979	4,0815	89,3376	1,107	77,838	3,5	1005,4	7,7	9,8	9,6	1	1	1	1	1	1	1	1	1	0	1	-29,809725	274,916899	294,073758	0
14.01.2021	18:39:13	0	0	3,276259	4,0935	96,9588	1,11	77,842	3,5	1005,3	7,7	9,8	9,6	1	1	1	1	1	1	1	1	1	0	1	-31,571529	275,052816	292,952934	0
14.01.2021	18:39:14	0	0	2,711387	4,359	92,9664	1,112	77,843	3,5	1005,36	7,7	9,8	9,6	1	1	1	1	1	1	1	1	1	0	1	-32,487667	275,065362	292,096011	0
14.01.2021	18:39:15	0	0	3,502208	4,55625	91,1556	1,116	77,869	3,5	1005,28	7,7	9,8	9,6	1	1	1	1	1	1	1	1	1	0	1	-32,135307	274,918455	291,755514	0
14.01.2021	18:39:16	0	0	3,841132	4,35075	92,6244	1,108	77,876	3,5	1005,6	7,7	9,8	9,6	1	1	1	1	1	1	1	1	1	0	1	-31,360113	275,046546	293,134761	0
14.01.2021	18:39:17	0	0	4,857902	4,24875	104,4252	1,112	77,876	3,5	1005,38	7,7	9,8	9,6	1	1	1	1	1	1	1	1	1	0	1	-32,205779	275,090479	292,496469	0
14.01.2021	18:39:18	0	0	4,406004	4,38525	94,374	1,115	77,885	3,5	1005,56	7,7	9,8	9,6	1	1	1	1	1	1	1	1	1	0	1	-34,601832	275,043412	289,87825	0
14.01.2021	18:39:19	0	0	2,372464	4,51575	89,3052	1,117	77,911	3,5	1005,48	7,7	9,8	9,6	1	1	1	1	1	1	1	1	1	0	1	-33,333333	274,951178	290,711723	0
14.01.2021	18:39:20	0	0	4,857902	4,68825	90,3816	1,113	77,913	3,5	1005,54	7,7	9,8	9,6	1	1	1	1	1	1	1	1	1	0	1	-30,866808	275,098334	293,872532	0
14.01.2021	18:39:21	0	0	2,937336	4,53525	83,7252	1,118	77,91	3,5	1005,5	7,7	9,8	9,6	1	1	1	1	1	1	1	1	1	0	1	-27,766032	274,999585	296,507284	0
14.01.2021	18:39:22	0	0	4,631953	4,3215	81,9576	1,118	77,903	3,5	1005,5	7,7	9,8	9,6	1	1	1	1	1	1	1	1	1	0	1	-28,893587	275,103049	295,868016	0
14.01.2021	18:39:23	0	0	4,518979	4,52625	80,5104	1,113	77,9	3,5	1005,5	7,7	9,8	9,6	1	1	1	1	1	1	1	1	1	0	1	-36,927414	275,03088	287,493535	0
14.01.2021	18:39:24	0	0	4,970876	4,644	76,8276	1,117	77,907	3,5	1005,48	7,7	9,8	9,6	1	1	1	1	1	1	1	1	1	0	1	-28,470754	274,921569	295,434742	0
14.01.2021	18:39:25	0	0	3,954106	4,644	73,044	1,115	77,9	3,5	1005,46	7,7	9,8	9,6	1	1	1	1	1	1	1	1	1	0	1	-34,390416	275,029314	290,023144	0
14.01.2021	18:39:26	0	0	4,970876	4,47375	75,9636	1,116	77,886	3,5	1005,58	7,7	9,8	9,6	1	1	1	1	1	1	1	1	1	0	1	-30,514447	275,071638	294,098857	0
14.01.2021	18:39:27	0	0	2,485438	4,401	89,3376	1,119	77,877	3,5	1005,44	7,7	9,8	9,6	1	1	1	1	1	1	1	1	1	0	1	-33,54475	274,943382	290,463555	0
14.01.2021	18:39:28	0	0	2,146515	4,065	64,2492	1,117	77,868	3,5	1005,56	7,7	9,8	9,6	1	1	1	1	1	1	1	1	1	0	1	-35,447498	275,088908	289,247334	0
14.01.2021	18:39:29	0	0	2,598413	4,0485	84,4632	1,122	77,847	3,5	1005,42	7,7	9,8	9,6	1	1	1	1	1	1	1	1	1	0	1	-31,571529	275,104621	293,197496	0
14.01.2021	18:39:30	0	0	5,196825	3,858	80,5356	1,115	77,843	3,5	1005,52	7,7	9,8	9,6	1	1	1	1	1	1	1	1	1	0	1	-33,333333	274,998022	290,932609	0
14.01.2021	18:39:31	0	0	3,502208	3,44325	79,4016	1,124	77,841	3,5	1005,62	7,7	9,8	9,6	1	1	1	1	1	1	1	1	1	0	1	-30,021142	274,927799	293,913714	0
14.01.2021	18:39:32	0	0	4,406004	3,0795	70,848	1,118	77,826	3,5	1005,5	7,7	9,8	9,6	1	1	1	1	1	1	1	1	1	0	1	-30,373502	275,066931	294,217581	0
14.01.2021	18:39:33	0	0	4,631953	2,898	102,5352	1,122	77,803	3,5	1005,48	7,7	9,8	9,6	1	1	1	1	1	1	1	1	1	0	1	-31,994362	275,106193	292,782086	0
14.01.2021	18:39:34	0	0	4,744956	2,84325	93,726	1,122	77,801	3,5	1005,32	7,7	9,8	9,5	1	1	1	1	1	1	1	1	1	0	1	-28,823115	274,980833	295,361761	0
14.01.2021	18:39:35	0	0	2,711387	2,841	87,3468	1,116	77,792	3,5	1005,52	7,7	9,8	9,6	1	1	1	1	1	1	1	1	1	0	1	-35,870331	275,107765	288,913542	0
14.01.2021	18:39:36	0	0	4,518979	2,77575	80,9172	1,117	77,803	3,5	1005,48	7,7	9,8	9,6	1	1	1	1	1	1	1	1	1	0	1	-31,289641	275,079486	293,36071	0
14.01.2021	18:39:37	0	0	4,067081	2,7465	92,2788	1,117	77,787	3,5	1005,5	7,7	9,8	9,6	1	1	1	1	1	1	1	1	1	0	1	-30,725863	275,099906	294,020896	0
14.01.2021	18:39:38	0	0	2,598413	3,0765	95,1444	1,125	77,781	3,5	1005,46	7,7	9,7	9,6	1	1	1	1	1	1	1	1	1	0	1	-30,091614	274,969902	294,041719	0
14.01.2021	18:39:39	0	0	3,050311	3,26175	94,3992	1,118	77,783	3,5	1005,44	7,7	9,8	9,6	1	1	1	1	1	1	1	1	1	0	1	-31,289641	275,101478	293,46454	0
14.01.2021	18:39:40	0	0	4,18008	3,45525	104,0472	1,126	77,775	3,5	1005,38	7,7	9,8	9,5	1	1	1	1	1	1	1	1	1	0	1	-29,598309	275,118774	295,237553	0
14.01.2021	18:39:41	0	0	3,728157	3,5115	91,1304	1,122	77,771	3,5	1005,54	7,7	9,8	9,6	1	1	1	1	1	1	1	1	1	0	1	-32,135307	275,060656	292,426161	0
14.01.2021	18:39:42	0	0	3,050311	3,59775	95,5368	1,125	77,765	3,5	1005,44	7,7	9,7	9,6	1	1	1	1	1	1	1	1	1	0	1	-28,682171	274,935589	295,289401	0
14.01.2021	18:39:43	0	0	3,163304	3,51975	94,4028	1,125	77,752	3,5	1005,56	7,7	9,8	9,5	1	1	1	1	1	1	1	1	1	0	1	-34,742777	275,0685	289,855713	0
14.01.2021	18:39:44	0	0	2,937336	3,57975	99,2232	1,126	77,736	3,5	1005,56	7,7	9,8	9,6	1	1	1	1	1	1	1	1	1	0	1	-29,739253	274,930915	294,210287	0
14.01.2021	18:39:45	0	0	3,276259	3,54975	101,1168	1,122	77,733	3,5	1005,5	7,7	9,8	9,6	1	1	1	1	1	1	1	1	1	0	1	-27,484144	275,024617	296,907255	0
14.01.2021	18:39:46	0	0	4,180055	3,54075	99,1296	1,123	77,725	3,5	1005,5	7,7	9,8	9,6	1	1	1	1	1	1	1	1	1	0	1	-28,400282	275,106193	296,376167	0
14.01.2021	18:39:47	0	0	3,954106	3,56325	97,6536	1,125	77,695	3,5	1005,56	7,7	9,8	9,6	1	1	1	1	1	1	1	1	1	0	1	-30,021142	275,055952	294,518121	0
14.01.2021	18:39:48	0	0	3,502208	3,5505	101,8296	1,125	77,708	3,5	1005,58	7,7	9,8	9,6	1	1	1	1	1	1	1	1	1	0	1	-29,386892	275,001149	294,893799	0
14.01.2021	18:39:49	0	0	4,067105	3,54825	103,6368	1,123	77,69	3,5	1005,46	7,7	9,8	9,5	1	1	1	1	1	1	1	1	1	0	1	-30,866808	275,060656	293,69466	0
14.01.2021	18:39:50	0	0	2,598413	3,44925	94,086	1,129	77,678	3,5	1005,58	7,7	9,8	9,6	1	1	1	1	1	1	1	1	1	0	1	-29,809725	275,037145	294,640785	0
14.01.2021	18:39:51	0	0	4,18008	3,4575	99,8856	1,126	77,668	3,5	1005,52	7,7	9,8	9,5	1	1	1	1	1	1	1	1	1	0	1	-32,628612	275,11091	292,170111	0
14.01.2021	18:39:52	0	0	3,502208	3,60225	97,7796	1,119	77,671	3,5	1005,52	7,7	9,8	9,6	1	1	1	1	1	1	1	1	1	0	1	-31,360113	275,048113	293,142157	0
14.01.2021	18:39:53	0	0	2,485453	3,741	96,5664	1,132	77,66	3,5	1005,48	7,7	9,8	9,5	1	1	1	1	1	1	1	1	1	0	1	-33,685694	275,109338	291,105603	0
14.01.2021	18:39:54	0	0	4,406004	3,7035	95,1444	1,126	77,649	3,5	1005,46	7,7	9,8	9,6	1	1	1	1	1	1	1	1	1	0	1	-29,457364	275,065362	295,126314	0
14.01.2021	18:39:55	0	0	2,824379	3,44325	92,664	1,131	77,658	3,5	1005,54	7,7	9,8	9,5	1	1	1	1	1	1	1	1	1	0	1	-31,360113	274,937147	292,618804	0
14.01.2021	18:39:56	0	0	2,824362	3,321	100,7172	1,128	77,626	3,5	1005,4	7,7	9,8	9,6	1	1	1	1	1	1	1	1	1	0	1	-33,897111	274,965219	290,214144	0
14.01.2021	18:39:57	0	0	3,841132	3,12225	87,714	1,127	77,641	3,5	1005,64	7,7	9,8	9,6	1	1	1	1	1	1	1	1	1	0	1	-33,262861	275,11091	291,535862	0
14.01.2021	18:39:58	0	0	2,824379	3,01575	91,1484	1,13	77,648	3,5	1005,56	7,7	9,8	9,5	1	1	1	1	1	1	1	1	1	0	1	-31,92389	274,921569	291,981606	0
14.01.2021	18:39:59	0	0	5,083851	2,90175	101,142	1,126	77,636	3,5	1005,42	7,7	9,8	9,6	1	1	1	1	1	1	1	1	1	0	1	-30,584919	274,973025	293,563137	0
14.01.2021	18:40:00	0	0	3,72818	2,70375	85,1796	1,124	77,63	3,5	1005,38	7,7	9,8	9,5	1	1	1	1	1	1	1	1	1	0	1	-33,121917	275,087337	291,5655	0
14.01.2021	18:40:01	0	0	2,711403	2,6145	90,018	1,129	77,641	3,5	1005,46	7,7	9,8	9,5	1	1	1	1	1	1	1	1	1	0	1	-30,796335	274,985519	293,410641	0
14.01.2021	18:40:02	0	0	2,711403	2,6145	90,018	1,129	77,641	3,5	1005,46	7,7	9,8	9,5	1	1	1	1	1	1	1	1	1	0	1	-30,796335	274,985519	293,410641	0
14.01.2021	18:40:03	0	0	3,502229	2,49675	80,8884	1,125	77,643	3,5	1005,48	7,7	9,8	9,5	1	1	1	1	1	1	1	1	1	0	1	-27,906977	275,114055	296,9066	0
14.01.2021	18:40:04	0	0	4,406031	2,505	89,3268	1,129	77,638	3,5	1005,54	7,7	9,8	9,5	1	1	1	1	1	1	1	1	1	0	1	-32,276251	274,993332	291,967574	0
14.01.2021	18:40:05	0	0	4,631981	2,793	94,3884	1,127	77,623	3,5	1005,4	7,7	9,8	9,5	1	1	1	1	1	1	1	1	1	0	1	-26,920366	274,94806	297,109987	0
14.01.2021	18:40:06	0	0	2,711403	3,06825	81,1944	1,13	77,617	3,5	1005,46	7,7	9,8	9,5	1	1	1	1	1	1	1	1	1	0	1	-31,853418	275,051248	292,663647	0
14.01.2021	18:40:07	0	0	4,970876	3,204	86,2956	1,135	77,615	3,5	1005,34	7,7	9,8	9,6	1	1	1	1	1	1	1	1	1	0	1	-31,501057	275,095192	293,223444	0
14.01.2021	18:40:08	0	0	4,857902	3,1455	89,7048	1,124	77,609	3,5	1005,38	7,7	9,8	9,6	1	1	1	1	1	1	1	1	1	0	1	-30,584919	274,999585	293,688398	0
14.01.2021	18:40:09	0	0	5,083881	3,0855	97,7076	1,134	77,622	3,5	1005,54	7,7	9,8	9,5	1	1	1	1	1	1	1	1	1	0	1	-28,823115	274,930915	295,126425	0
14.01.2021	18:40:10	0	0	2,824362	3,00825	87,7068	1,127	77,593	3,5	1005,44	7,7	9,8	9,6	1	1	1	1	1	1	1	1	1	0	1	-28,047921	275,063793	296,528353	0
14.01.2021	18:40:11	0	0	4,067081	2,922	90,414	1,137	77,615	3,5	1005,52	7,7	9,8	9,6	1	1	1	1	1	1	1	1	1	0	1	-29,175476	274,935589	294,796096	0
14.01.2021	18:40:12	0	0	3,163285	2,77875	91,4796	1,131	77,601	3,5	1005,52	7,7	9,8	9,6	1	1	1	1	1	1	1	1	1	0	1	-30,373502	275,081056	294,28426	0
14.01.2021	18:40:13	0	0	4,29303	2,559	82,5984	1,127	77,592	3,5	1005,5	7,7	9,8	9,6	1	1	1	1	1	1	1	1	1	0	1	-30,232558	274,994895	294,018638	0
14.01.2021	18:40:14	0	0	2,598428	2,4705	98,4672	1,129	77,589	3,5	1005,42	7,7	9,8	9,5	1	1	1	1	1	1	1	1	1	0	1	-30,443975	274,960538	293,645207	0
14.01.2021	18:40:15	0	0	3,841155	2,55825	92,6316	1,128	77,589	3,5	1005,46	7,7	9,7	9,5	1	1	1	1	1	1	1	1	1	0	1	-31,360113	275,0685	293,238377	0
14.01.2021	18:40:16	0	0	4,29303	2,63025	94,0752	1,125	77,578	3,5	1005,58	7,7	9,8	9,6	1	1	1	1	1	1	1	1	1	0	1	-30,232558	274,906004	293,599589	0
14.01.2021	18:40:17	0	0	4,29303	2,64675	94,7736	1,129	77,585	3,5	1005,32	7,7	9,8	9,6	1	1	1	1	1	1	1	1	1	0	1	-31,148696	274,985519	293,05828	0
14.01.2021	18:40:18	0	0	3,276279	2,48325	95,5044	1,129	77,588	3,5	1005,56	7,7	9,8	9,5	1	1	1	1	1	1	1	1	1	0	1	-33,967583	275,084197	290,705005	0
14.01.2021	18:40:19	0	0	4,18008	2,36175	97,3188	1,128	77,573	3,5	1005,38	7,7	9,8	9,5	1	1	1	1	1	1	1	1	1	0	1	-36,715997	275,079486	287,934354	0
14.01.2021	18:40:20	0	0	3,502208	2,44575	98,0568	1,124	77,587	3,5	1005,64	7,7	9,8	9,6	1	1	1	1	1	1	1	1	1	0	1	-33,403805	275,121921	291,446917	0
14.01.2021	18:40:21	0	0	3,163304	2,53875	94,7844	1,129	77,574	3,5	1005,5	7,7	9,8	9,5	1	1	1	1	1	1	1	1	1	0	1	-27,836505	275,062225	296,732366	0
14.01.2021	18:40:22	0	0	4,293055	2,56575	98,4744	1,125	77,556	3,5	1005,58	7,7	9,8	9,5	1	1	1	1	1	1	1	1	1	0	1	-30,655391	274,935589	293,31618	0
14.01.2021	18:40:23	0	0	3,276279	2,61525	98,4528	1,129	77,545	3,5	1005,54	7,7	9,7	9,5	1	1	1	1	1	1	1	1	1	0	1	-27,766032	275,073207	296,854679	0
14.01.2021	18:40:24	0	0	4,18008	2,6085	93,3336	1,125	77,57	3,5	1005,54	7,7	9,8	9,5	1	1	1	1	1	1	1	1	1	0	1	-30,162086	274,930915	293,787454	0
14.01.2021	18:40:25	0	0	2,598428	2,70825	91,1592	1,124	77,551	3,5	1005,38	7,7	9,7	9,5	1	1	1	1	1	1	1	1	1	0	1	-27,272727	274,918455	296,618093	0
14.01.2021	18:40:26	0	0	2,824362	2,74725	93,708	1,132	77,546	3,5	1005,52	7,7	9,8	9,6	1	1	1	1	1	1	1	1	1	0	1	-31,712474	274,990207	292,51661	0
14.01.2021	18:40:27	0	0	2,824379	2,73975	85,1688	1,127	77,546	3,5	1005,42	7,7	9,7	9,5	1	1	1	1	1	1	1	1	1	0	1	-35,095137	275,096763	289,636782	0
14.01.2021	18:40:28	0	0	2,937354	2,601	90,036	1,129	77,558	3,5	1005,44	7,7	9,8	9,5	1	1	1	1	1	1	1	1	1	0	1	-28,752643	274,958978	295,329183	0
14.01.2021	18:40:29	0	0	3,95413	2,53425	87,3504	1,124	77,563	3,5	1005,52	7,7	9,8	9,5	1	1	1	1	1	1	1	1	1	0	1	-28,32981	275,095192	296,394691	0
14.01.2021	18:40:30	0	0	3,163304	2,5635	87,714	1,127	77,556	3,5	1005,42	7,7	9,8	9,5	1	1	1	1	1	1	1	1	1	0	1	-35,940803	274,921569	287,964693	0
14.01.2021	18:40:31	0	0	4,406031	2,5965	90,7704	1,128	77,566	3,5	1005,5	7,7	9,8	9,5	1	1	1	1	1	1	1	1	1	0	1	-30,93728	275,046546	293,557594	0
14.01.2021	18:40:32	0	0	4,180055	2,62725	91,8792	1,127	77,567	3,5	1005,52	7,7	9,8	9,6	1	1	1	1	1	1	1	1	1	0	1	-32,205779	275,106193	292,57067	0
14.01.2021	18:40:33	0	0	4,744956	2,73375	92,97	1,128	77,556	3,5	1005,44	7,7	9,8	9,5	1	1	1	1	1	1	1	1	1	0	1	-27,977449	275,032446	296,450889	0
14.01.2021	18:40:34	0	0	5,083881	2,87775	90,7776	1,129	77,571	3,5	1005,44	7,7	9,8	9,5	1	1	1	1	1	1	1	1	1	0	1	-36,293164	275,11091	288,505559	0
14.01.2021	18:40:35	0	0	3,72818	3,0765	95,1408	1,126	77,573	3,5	1005,62	7,7	9,7	9,5	1	1	1	1	1	1	1	1	1	0	1	-32,55814	274,932473	291,398743	0
14.01.2021	18:40:36	0	0	2,598428	3,06825	95,5224	1,128	77,575	3,5	1005,46	7,7	9,7	9,5	1	1	1	1	1	1	1	1	1	0	1	-30,443975	274,965219	293,66728	0
14.01.2021	18:40:37	0	0	4,744956	3,021	95,8284	1,121	77,562	3,5	1005,52	7,7	9,8	9,5	1	1	1	1	1	1	1	1	1	0	1	-31,642001	275,087337	293,045415	0
14.01.2021	18:40:38	0	0	3,72818	3,02625	95,4936	1,125	77,568	3,5	1005,54	7,7	9,8	9,5	1	1	1	1	1	1	1	1	1	0	1	-29,668781	275,066931	294,922303	0
14.01.2021	18:40:39	0	0	2,372478	2,868	94,104	1,128	77,57	3,5	1005,46	7,7	9,7	9,5	1	1	1	1	1	1	1	1	1	0	1	-30,655391	275,103049	294,106212	0
14.01.2021	18:40:40	0	0	2,937354	2,7675	81,972	1,128	77,57	3,5	1005,54	7,7	9,8	9,5	1	1	1	1	1	1	1	1	1	0	1	-30,866808	275,007404	293,44339	0
14.01.2021	18:40:41	0	0	4,067105	2,74875	100,3968	1,128	77,577	3,5	1005,64	7,7	9,8	9,5	1	1	1	1	1	1	1	1	1	0	1	-30,93728	274,927799	292,997576	0
14.01.2021	18:40:42	0	0	3,389254	2,83725	95,1408	1,125	77,569	3,5	1005,6	7,7	9,7	9,5	1	1	1	1	1	1	1	1	1	0	1	-32,699084	275,044979	291,788394	0
14.01.2021	18:40:43	0	0	3,615205	3,042	95,8248	1,123	77,577	3,5	1005,58	7,7	9,7	9,5	1	1	1	1	1	1	1	1	1	0	1	-27,836505	274,915342	296,039643	0
14.01.2021	18:40:44	0	0	3,72818	3,27525	91,1844	1,124	77,571	3,5	1005,5	7,7	9,8	9,5	1	1	1	1	1	1	1	1	1	0	1	-31,642001	275,044979	292,845476	0
14.01.2021	18:40:45	0	0	4,293055	3,26625	92,952	1,116	77,575	3,5	1005,38	7,7	9,8	9,5	1	1	1	1	1	1	1	1	1	0	1	-32,487667	274,915342	291,38848	0
14.01.2021	18:40:46	0	0	2,03354	3,39975	91,98	1,114	77,578	3,5	1005,52	7,7	9,7	9,6	1	1	1	1	1	1	1	1	1	0	1	-30,93728	274,985519	293,269696	0
14.01.2021	18:40:47	0	0	4,519006	3,7275	89,316	1,119	77,586	3,5	1005,52	7,7	9,7	9,5	1	1	1	1	1	1	1	1	1	0	1	-29,950669	275,096763	294,78125	0
14.01.2021	18:40:48	0	0	3,502229	3,62175	79,4124	1,116	77,588	3,5	1005,56	7,7	9,8	9,5	1	1	1	1	1	1	1	1	1	0	1	-33,685694	275,038711	290,772208	0
14.01.2021	18:40:49	0	0	2,711403	3,53925	86,3388	1,115	77,595	3,5	1005,46	7,7	9,8	9,5	1	1	1	1	1	1	1	1	1	0	1	-32,276251	275,043412	292,203832	0
14.01.2021	18:40:50	0	0	2,372478	3,61125	91,1736	1,122	77,597	3,5	1005,5	7,7	9,8	9,5	1	1	1	1	1	1	1	1	1	0	1	-29,880197	274,920012	294,01796	0
14.01.2021	18:40:51	0	0	4,29303	3,636	89,3592	1,124	77,598	3,5	1005,62	7,7	9,7	9,6	1	1	1	1	1	1	1	1	1	0	1	-27,69556	275,034012	296,740168	0
14.01.2021	18:40:52	0	0	4,631981	3,46575	77,1984	1,115	77,601	3,5	1005,46	7,7	9,7	9,5	1	1	1	1	1	1	1	1	1	0	1	-30,866808	275,095192	293,857693	0
14.01.2021	18:40:53	0	0	2,598428	3,40725	100,7496	1,122	77,606	3,5	1005,4	7,7	9,8	9,5	1	1	1	1	1	1	1	1	1	0	1	-31,994362	275,019921	292,374882	0
14.01.2021	18:40:54	0	0	3,163304	3,59025	105,894	1,123	77,615	3,5	1005,52	7,7	9,7	9,5	1	1	1	1	1	1	1	1	1	0	1	-30,866808	274,916899	293,016676	0
14.01.2021	18:40:55	0	0	3,841155	3,47175	102,564	1,121	77,614	3,5	1005,42	7,7	9,7	9,5	1	1	1	1	1	1	1	1	1	0	1	-32,628612	275,037145	291,821898	0
14.01.2021	18:40:56	0	0	3,728157	3,33975	103,284	1,123	77,603	3,5	1005,4	7,7	9,8	9,6	1	1	1	1	1	1	1	1	1	0	1	-32,487667	274,927799	291,447188	0
14.01.2021	18:40:57	0	0	3,954082	3,2235	92,9376	1,119	77,616	3,5	1005,44	7,7	9,8	9,7	1	1	1	1	1	1	1	1	1	0	1	-31,430585	275,077916	293,212355	0
14.01.2021	18:40:58	0	0	4,293055	3,303	96,9624	1,122	77,609	3,5	1005,62	7,7	9,8	9,5	1	1	1	1	1	1	1	1	1	0	1	-31,007752	275,090479	293,694496	0
14.01.2021	18:40:59	0	0	2,259503	3,399	97,6968	1,119	77,616	3,5	1005,46	7,6	9,8	9,5	1	1	1	1	1	1	1	1	1	0	1	-31,078224	275,088908	293,616608	0
14.01.2021	18:41:00	0	0	4,067105	3,42525	99,5508	1,114	77,616	3,5	1005,54	7,7	9,7	9,5	1	1	1	1	1	1	1	1	1	0	1	-31,360113	275,084197	293,312475	0
14.01.2021	18:41:01	0	0	4,631981	3,2265	103,662	1,117	77,626	3,5	1005,44	7,7	9,7	9,5	1	1	1	1	1	1	1	1	1	0	1	-34,460888	275,035578	289,982231	0
14.01.2021	18:41:02	0	0	4,631981	3,2265	103,662	1,117	77,626	3,5	1005,44	7,7	9,7	9,5	1	1	1	1	1	1	1	1	1	0	1	-34,460888	275,035578	289,982231	0
14.01.2021	18:41:03	0	0	4,519006	3,0465	95,85	1,12	77,629	3,5	1005,5	7,7	9,8	9,5	1	1	1	1	1	1	1	1	1	0	1	-31,92389	274,906004	291,908257	0
14.01.2021	18:41:04	0	0	2,937354	2,84325	100,8324	1,116	77,631	3,5	1005,46	7,7	9,7	9,5	1	1	1	1	1	1	1	1	1	0	1	-31,289641	274,929357	292,652557	0
14.01.2021	18:41:05	0	0	4,406031	2,76225	84,78	1,121	77,641	3,5	1005,54	7,7	9,7	9,5	1	1	1	1	1	1	1	1	1	0	1	-30,725863	274,973025	293,422193	0
14.01.2021	18:41:06	0	0	4,18008	2,748	86,9832	1,119	77,642	3,5	1005,64	7,7	9,7	9,5	1	1	1	1	1	1	1	1	1	0	1	-33,262861	274,921569	290,642635	0
14.01.2021	18:41:07	0	0	3,95413	2,68425	94,0968	1,114	77,625	3,5	1005,44	7,7	9,7	9,5	1	1	1	1	1	1	1	1	1	0	1	-29,245948	275,0685	295,352542	0
14.01.2021	18:41:08	0	0	4,293055	2,67	94,122	1,137	77,64	3,5	1005,46	7,7	9,7	9,5	1	1	1	1	1	1	1	1	1	0	1	-32,487667	275,035578	291,955451	0
14.01.2021	18:41:09	0	0	3,389254	2,74425	89,73	1,118	77,646	3,5	1005,5	7,7	9,8	9,5	1	1	1	1	1	1	1	1	1	0	1	-29,950669	275,084197	294,721919	0
14.01.2021	18:41:10	0	0	4,406031	2,7375	98,442	1,116	77,645	3,5	1005,56	7,7	9,7	9,5	1	1	1	1	1	1	1	1	1	0	1	-30,373502	274,94806	293,656851	0
14.01.2021	18:41:11	0	0	3,050329	2,8875	94,086	1,117	77,643	3,5	1005,52	7,7	9,7	9,5	1	1	1	1	1	1	1	1	1	0	1	-28,611698	274,915342	295,264449	0
14.01.2021	18:41:12	0	0	2,372478	3,009	88,1964	1,113	77,645	3,5	1005,52	7,7	9,8	9,5	1	1	1	1	1	1	1	1	1	0	1	-28,611698	274,963659	295,492198	0
14.01.2021	18:41:13	0	0	2,598428	3,0765	93,33	1,121	77,639	3,5	1005,52	7,7	9,7	9,5	1	1	1	1	1	1	1	1	1	0	1	-28,188865	274,955858	295,87825	0
14.01.2021	18:41:14	0	0	4,293055	3,14625	86,2632	1,118	77,646	3,5	1005,58	7,7	9,8	9,5	1	1	1	1	1	1	1	1	1	0	1	-33,756166	274,904448	290,068649	0
14.01.2021	18:41:15	0	0	3,95413	3,126	111,3984	1,119	77,649	3,5	1005,56	7,6	9,7	9,5	1	1	1	1	1	1	1	1	1	0	1	-31,289641	275,082626	293,375534	0
14.01.2021	18:41:16	0	0	3,841155	3,01275	113,7024	1,113	77,633	3,5	1005,3	7,7	9,7	9,5	1	1	1	1	1	1	1	1	1	0	1	-26,497533	274,96678	297,62108	0
14.01.2021	18:41:17	0	0	2,372478	2,8665	103,6836	1,113	77,645	3,5	1005,28	7,7	9,7	9,5	1	1	1	1	1	1	1	1	1	0	1	-38,689218	274,906004	285,142929	0
14.01.2021	18:41:18	0	0	4,18008	2,994	127,5696	1,108	77,644	3,5	1005,46	7,7	9,7	9,5	1	1	1	1	1	1	1	1	1	0	1	-32,417195	274,949619	291,620509	0
14.01.2021	18:41:19	0	0	2,598428	3,28875	107,7336	1,119	77,66	3,5	1005,36	7,7	9,7	9,5	1	1	1	1	1	1	1	1	1	0	1	-32,487667	275,041845	291,985021	0
14.01.2021	18:41:20	0	0	3,389254	3,60975	111,798	1,11	77,636	3,5	1005,4	7,7	9,7	9,5	1	1	1	1	1	1	1	1	1	0	1	-30,373502	275,081056	294,28426	0
14.01.2021	18:41:21	0	0	3,502208	3,67575	120,5064	1,117	77,639	3,5	1005,6	7,7	9,7	9,6	1	1	1	1	1	1	1	1	1	0	1	-31,501057	275,019921	292,868188	0
14.01.2021	18:41:22	0	0	3,163304	3,612	116,6472	1,11	77,637	3,5	1005,46	7,7	9,7	9,5	1	1	1	1	1	1	1	1	1	0	1	-29,598309	275,073207	295,022403	0
14.01.2021	18:41:23	0	0	2,598428	3,294	102,2004	1,112	77,642	3,5	1005,5	7,7	9,7	9,5	1	1	1	1	1	1	1	1	1	0	1	-29,880197	275,001149	294,400494	0
14.01.2021	18:41:24	0	0	3,502229	3,2325	105,8796	1,115	77,636	3,5	1005,62	7,7	9,7	9,5	1	1	1	1	1	1	1	1	1	0	1	-32,628612	274,909116	291,218199	0
14.01.2021	18:41:25	0	0	4,631981	3,66225	114,4836	1,111	77,63	3,5	1005,46	7,7	9,7	9,5	1	1	1	1	1	1	1	1	1	0	1	-33,756166	275,044979	290,731311	0
14.01.2021	18:41:26	0	0	4,744956	3,7305	99,1368	1,111	77,632	3,5	1005,44	7,7	9,7	9,5	1	1	1	1	1	1	1	1	1	0	1	-31,360113	275,049681	293,149554	0
14.01.2021	18:41:27	0	0	2,372478	3,6945	109,9944	1,113	77,629	3,5	1005,54	7,7	9,7	9,5	1	1	1	1	1	1	1	1	1	0	1	-26,779422	274,930915	297,170118	0
14.01.2021	18:41:28	0	0	4,631981	3,6375	108,504	1,113	77,63	3,5	1005,54	7,7	9,7	9,5	1	1	1	1	1	1	1	1	1	0	1	-31,078224	275,085767	293,601778	0
14.01.2021	18:41:29	0	0	2,937336	3,52425	105,138	1,109	77,6	3,5	1005,36	7,6	9,7	9,6	1	1	1	1	1	1	1	1	1	0	1	-31,148696	274,957418	292,925774	0
14.01.2021	18:41:30	0	0	2,824362	3,58575	96,9732	1,114	77,61	3,5	1005,52	7,7	9,7	9,6	1	1	1	1	1	1	1	1	1	0	1	-36,222692	274,890451	287,536177	0
14.01.2021	18:41:31	0	0	2,824362	3,7695	101,4912	1,11	77,59	3,5	1005,5	7,7	9,8	9,6	1	1	1	1	1	1	1	1	1	0	1	-33,403805	275,034012	291,031922	0
14.01.2021	18:41:32	0	0	4,293055	3,77025	109,9692	1,116	77,595	3,5	1005,56	7,7	9,7	9,5	1	1	1	1	1	1	1	1	1	0	1	-31,92389	274,909116	291,922921	0
14.01.2021	18:41:33	0	0	2,937354	3,9765	108,4716	1,109	77,592	3,5	1005,32	7,6	9,7	9,5	1	1	1	1	1	1	1	1	1	0	1	-30,30303	274,951178	293,742026	0
14.01.2021	18:41:34	0	0	2,485453	4,365	109,6164	1,104	77,594	3,5	1005,4	7,7	9,7	9,5	1	1	1	1	1	1	1	1	1	0	1	-31,92389	274,943382	292,084415	0
14.01.2021	18:41:35	0	0	4,18008	4,68525	107,0424	1,103	77,581	3,5	1005,3	7,6	9,7	9,5	1	1	1	1	1	1	1	1	1	0	1	-28,752643	275,082626	295,912532	0
14.01.2021	18:41:36	0	0	2,937354	4,5525	106,668	1,106	77,571	3,5	1005,52	7,6	9,7	9,5	1	1	1	1	1	1	1	1	1	0	1	-37,13883	274,940265	286,854779	0
14.01.2021	18:41:37	0	0	4,631953	4,15425	106,29	1,101	77,57	3,5	1005,48	7,6	9,7	9,6	1	1	1	1	1	1	1	1	1	0	1	-29,598309	274,893561	294,17521	0
14.01.2021	18:41:38	0	0	3,72818	4,2075	114,0948	1,105	77,582	3,5	1005,44	7,7	9,7	9,5	1	1	1	1	1	1	1	1	1	0	1	-31,782946	275,019921	292,586299	0
14.01.2021	18:41:39	0	0	3,050329	4,51875	110,6892	1,11	77,59	3,5	1005,66	7,6	9,7	9,5	1	1	1	1	1	1	1	1	1	0	1	-29,386892	275,081056	295,27087	0
14.01.2021	18:41:40	0	0	3,050311	4,1805	113,3964	1,107	77,58	3,5	1005,26	7,7	9,7	9,6	1	1	1	1	1	1	1	1	1	0	1	-30,091614	274,968341	294,034359	0
14.01.2021	18:41:41	0	0	4,18008	4,17825	119,7504	1,107	77,578	3,5	1005,56	7,7	9,7	9,5	1	1	1	1	1	1	1	1	1	0	1	-30,091614	274,902892	293,725872	0
14.01.2021	18:41:42	0	0	3,841155	4,323	109,5876	1,106	77,583	3,5	1005,58	7,6	9,7	9,5	1	1	1	1	1	1	1	1	1	0	1	-31,148696	275,019921	293,220548	0
14.01.2021	18:41:43	0	0	3,615183	4,4235	110,6604	1,104	77,589	3,5	1005,36	7,6	9,7	9,6	1	1	1	1	1	1	1	1	1	0	1	-31,92389	275,073207	292,696821	0
14.01.2021	18:41:44	0	0	3,954106	4,533	111,8304	1,094	77,596	3,5	1005,38	7,6	9,7	9,6	1	1	1	1	1	1	1	1	1	0	1	-30,021142	274,937147	293,957775	0
14.01.2021	18:41:45	0	0	3,502229	4,2375	115,9704	1,1	77,606	3,5	1005,44	7,7	9,7	9,5	1	1	1	1	1	1	1	1	1	0	1	-31,360113	274,902892	292,457373	0
14.01.2021	18:41:46	0	0	3,615205	3,8955	103,6836	1,101	77,638	3,5	1005,42	7,6	9,7	9,5	1	1	1	1	1	1	1	1	1	0	1	-29,598309	275,026182	294,800477	0
14.01.2021	18:41:47	0	0	4,18008	3,5685	87,3468	1,099	77,637	3,5	1005,4	7,7	9,7	9,5	1	1	1	1	1	1	1	1	1	0	1	-25,863284	274,926242	298,064231	0
14.01.2021	18:41:48	0	0	3,276259	3,8505	94,3668	1,099	77,653	3,5	1005,5	7,6	9,7	9,6	1	1	1	1	1	1	1	1	1	0	1	-29,386892	274,937147	294,592024	0
14.01.2021	18:41:49	0	0	4,518979	3,93825	88,9632	1,1	77,667	3,5	1005,56	7,7	9,7	9,6	1	1	1	1	1	1	1	1	1	0	1	-31,92389	274,90756	291,915588	0
14.01.2021	18:41:50	0	0	3,95413	3,8955	85,8924	1,096	77,687	3,5	1005,48	7,7	9,7	9,5	1	1	1	1	1	1	1	1	1	0	1	-29,175476	274,918455	294,715345	0
14.01.2021	18:41:51	0	0	4,857902	3,7905	76,8348	1,098	77,706	3,5	1005,44	7,6	9,7	9,6	1	1	1	1	1	1	1	1	1	0	1	-33,54475	275,034012	290,890978	0
14.01.2021	18:41:52	0	0	2,824379	3,8235	90,8316	1,104	77,708	3,5	1005,44	7,6	9,7	9,5	1	1	1	1	1	1	1	1	1	0	1	-29,527837	274,915342	294,348311	0
14.01.2021	18:41:53	0	0	2,598413	3,7305	95,5476	1,1	77,73	3,5	1005,54	7,7	9,7	9,6	1	1	1	1	1	1	1	1	1	0	1	-33,262861	275,007404	291,047336	0
14.01.2021	18:41:54	0	0	4,406004	3,75075	95,508	1,099	77,713	3,5	1005,5	7,7	9,7	9,6	1	1	1	1	1	1	1	1	1	0	1	-32,205779	274,906004	291,626368	0
14.01.2021	18:41:55	0	0	3,163304	3,8565	83,3688	1,105	77,728	3,5	1005,52	7,6	9,7	9,5	1	1	1	1	1	1	1	1	1	0	1	-32,699084	275,012097	291,633251	0
14.01.2021	18:41:56	0	0	3,954106	3,774	98,4528	1,098	77,741	3,5	1005,44	7,7	9,7	9,6	1	1	1	1	1	1	1	1	1	0	1	-34,883721	274,906004	288,948426	0
14.01.2021	18:41:57	0	0	4,631981	3,6945	92,9484	1,092	77,736	3,5	1005,48	7,7	9,7	9,5	1	1	1	1	1	1	1	1	1	0	1	-29,950669	275,059088	294,603396	0
14.01.2021	18:41:58	0	0	4,29303	3,75675	92,25	1,093	77,744	3,5	1005,48	7,6	9,7	9,6	1	1	1	1	1	1	1	1	1	0	1	-30,866808	275,027748	293,539365	0
14.01.2021	18:41:59	0	0	4,180055	3,83175	99,8748	1,093	77,735	3,5	1005,46	7,7	9,7	9,6	1	1	1	1	1	1	1	1	1	0	1	-32,417195	274,893561	291,356324	0
14.01.2021	18:42:00	0	0	4,29303	3,64125	98,4456	1,103	77,738	3,5	1005,4	7,6	9,7	9,6	1	1	1	1	1	1	1	1	1	0	1	-29,809725	275,081056	294,848037	0
14.01.2021	18:42:01	0	0	3,841132	3,49575	102,1824	1,096	77,748	3,5	1005,5	7,6	9,7	9,6	1	1	1	1	1	1	1	1	1	0	1	-34,601832	275,024617	289,789567	0
14.01.2021	18:42:02	0	0	3,841132	3,49575	102,1824	1,096	77,748	3,5	1005,5	7,6	9,7	9,6	1	1	1	1	1	1	1	1	1	0	1	-34,601832	275,024617	289,789567	0
14.01.2021	18:42:03	0	0	2,937336	3,6075	94,7808	1,097	77,752	3,5	1005,5	7,7	9,7	9,6	1	1	1	1	1	1	1	1	1	0	1	-28,400282	275,084197	296,272306	0
14.01.2021	18:42:04	0	0	4,631953	3,8535	95,1336	1,093	77,755	3,5	1005,48	7,6	9,7	9,6	1	1	1	1	1	1	1	1	1	0	1	-31,078224	275,101478	293,675957	0
14.01.2021	18:42:05	0	0	4,406004	3,744	96,2028	1,097	77,755	3,5	1005,46	7,6	9,7	9,6	1	1	1	1	1	1	1	1	1	0	1	-31,007752	275,074777	293,620368	0
14.01.2021	18:42:06	0	0	2,372478	3,52725	82,5912	1,1	77,751	3,5	1005,6	7,7	9,7	9,5	1	1	1	1	1	1	1	1	1	0	1	-31,571529	274,943382	292,436776	0
14.01.2021	18:42:07	0	0	2,937336	3,43725	101,1204	1,093	77,742	3,5	1005,54	7,7	9,7	9,6	1	1	1	1	1	1	1	1	1	0	1	-30,443975	275,066931	294,147109	0
14.01.2021	18:42:08	0	0	2,711387	3,558	100,7352	1,097	77,742	3,5	1005,54	7,7	9,7	9,6	1	1	1	1	1	1	1	1	1	0	1	-31,148696	274,912229	292,712782	0
14.01.2021	18:42:09	0	0	2,598413	3,51225	95,8392	1,09	77,74	3,5	1005,4	7,7	9,7	9,6	1	1	1	1	1	1	1	1	1	0	1	-29,386892	275,037145	295,063618	0
14.01.2021	18:42:10	0	0	2,711387	3,5385	101,0952	1,1	77,739	3,5	1005,44	7,6	9,7	9,6	1	1	1	1	1	1	1	1	1	0	1	-28,752643	274,915342	295,123505	0
14.01.2021	18:42:11	0	0	3,276279	3,438	99,8784	1,097	77,742	3,5	1005,42	7,6	9,7	9,5	1	1	1	1	1	1	1	1	1	0	1	-32,276251	274,912229	291,585227	0
14.01.2021	18:42:12	0	0	2,485438	3,25875	97,2972	1,1	77,749	3,5	1005,6	7,7	9,7	9,6	1	1	1	1	1	1	1	1	1	0	1	-34,178999	274,96678	289,939614	0
14.01.2021	18:42:13	0	0	3,841132	3,1665	96,5844	1,094	77,746	3,5	1005,48	7,6	9,7	9,6	1	1	1	1	1	1	1	1	1	0	1	-32,276251	275,071638	292,337053	0
14.01.2021	18:42:14	0	0	3,050311	3,12675	111,816	1,092	77,742	3,5	1005,4	7,6	9,7	9,6	1	1	1	1	1	1	1	1	1	0	1	-38,477801	274,930915	285,471738	0
14.01.2021	18:42:15	0	0	4,180055	3,19875	115,5816	1,095	77,755	3,5	1005,38	7,7	9,7	9,6	1	1	1	1	1	1	1	1	1	0	1	-26,779422	275,043412	297,70066	0
14.01.2021	18:42:16	0	0	4,631953	3,2055	115,2324	1,091	77,761	3,5	1005,62	7,6	9,7	9,6	1	1	1	1	1	1	1	1	1	0	1	-36,575053	275,079486	288,075298	0
14.01.2021	18:42:17	0	0	3,050311	3,4155	110,358	1,091	77,741	3,5	1005,38	7,6	9,7	9,6	1	1	1	1	1	1	1	1	1	0	1	-32,9105	274,973025	291,237556	0
14.01.2021	18:42:18	0	0	3,389234	3,6345	113,022	1,099	77,764	3,5	1005,56	7,7	9,7	9,6	1	1	1	1	1	1	1	1	1	0	1	-29,245948	274,94806	294,784406	0
14.01.2021	18:42:19	0	0	4,518979	3,8235	112,6476	1,094	77,756	3,5	1005,6	7,6	9,7	9,6	1	1	1	1	1	1	1	1	1	0	1	-29,386892	274,909116	294,459919	0
14.01.2021	18:42:20	0	0	4,18008	3,77475	120,5496	1,095	77,751	3,5	1005,58	7,6	9,7	9,5	1	1	1	1	1	1	1	1	1	0	1	-30,866808	275,062225	293,702063	0
14.01.2021	18:42:21	0	0	4,067081	3,64875	119,8764	1,089	77,758	3,5	1005,26	7,7	9,7	9,6	1	1	1	1	1	1	1	1	1	0	1	-32,699084	274,915342	291,177064	0
14.01.2021	18:42:22	0	0	3,954106	3,483	120,6252	1,09	77,756	3,5	1005,36	7,6	9,7	9,6	1	1	1	1	1	1	1	1	1	0	1	-34,319944	275,073207	290,300768	0
14.01.2021	18:42:23	0	0	2,711387	3,28725	112,662	1,093	77,754	3,5	1005,5	7,6	9,7	9,6	1	1	1	1	1	1	1	1	1	0	1	-26,920366	274,968341	297,205606	0
14.01.2021	18:42:24	0	0	2,711387	2,98425	115,5888	1,09	77,765	3,5	1005,36	7,6	9,7	9,6	1	1	1	1	1	1	1	1	1	0	1	-28,259338	274,952738	295,793071	0
14.01.2021	18:42:25	0	0	3,841132	2,877	113,0112	1,094	77,783	3,5	1005,32	7,6	9,7	9,6	1	1	1	1	1	1	1	1	1	0	1	-29,739253	274,893561	294,034266	0
14.01.2021	18:42:26	0	0	4,631953	2,79525	123,0624	1,093	77,762	3,5	1005,46	7,6	9,7	9,6	1	1	1	1	1	1	1	1	1	0	1	-32,205779	274,962098	291,89076	0
14.01.2021	18:42:27	0	0	2,485438	2,65575	109,6056	1,097	77,767	3,5	1005,52	7,6	9,7	9,6	1	1	1	1	1	1	1	1	1	0	1	-34,460888	274,906004	289,371259	0
14.01.2021	18:42:28	0	0	3,389234	2,65875	98,7804	1,093	77,758	3,5	1005,56	7,6	9,7	9,6	1	1	1	1	1	1	1	1	1	0	1	-27,272727	274,94806	296,757626	0
14.01.2021	18:42:29	0	0	3,728157	2,83725	131,9868	1,1	77,767	3,5	1005,48	7,7	9,7	9,6	1	1	1	1	1	1	1	1	1	0	1	-31,642001	275,0685	292,956488	0
14.01.2021	18:42:30	0	0	3,841132	2,63925	108,1908	1,098	77,764	3,5	1005,46	7,6	9,7	9,6	1	1	1	1	1	1	1	1	1	0	1	-29,668781	274,960538	294,420401	0
14.01.2021	18:42:31	0	0	3,163285	2,4255	109,9692	1,088	77,759	3,5	1005,62	7,6	9,7	9,6	1	1	1	1	1	1	1	1	1	0	1	-31,289641	275,082626	293,375534	0
14.01.2021	18:42:32	0	0	4,406004	2,44875	116,3412	1,096	77,756	3,5	1005,54	7,6	9,7	9,6	1	1	1	1	1	1	1	1	1	0	1	-32,205779	275,073207	292,414933	0
14.01.2021	18:42:33	0	0	4,406004	2,517	109,2024	1,097	77,749	3,5	1005,48	7,6	9,7	9,6	1	1	1	1	1	1	1	1	1	0	1	-31,853418	275,008968	292,464158	0
14.01.2021	18:42:34	0	0	3,728157	2,496	101,4912	1,094	77,739	3,5	1005,42	7,6	9,7	9,6	1	1	1	1	1	1	1	1	1	0	1	-34,319944	274,915342	289,556204	0
14.01.2021	18:42:35	0	0	3,841132	2,79375	114,8508	1,095	77,736	3,5	1005,34	7,6	9,7	9,6	1	1	1	1	1	1	1	1	1	0	1	-33,262861	274,906004	290,569286	0
14.01.2021	18:42:36	0	0	2,824362	2,9895	109,2384	1,096	77,74	3,5	1005,4	7,6	9,7	9,6	1	1	1	1	1	1	1	1	1	0	1	-32,417195	275,010532	291,90776	0
14.01.2021	18:42:37	0	0	3,502208	3,0405	106,6788	1,096	77,739	3,5	1005,52	7,6	9,7	9,6	1	1	1	1	1	1	1	1	1	0	1	-27,766032	274,881125	295,948904	0
14.01.2021	18:42:38	0	0	4,631953	3,16875	106,668	1,094	77,722	3,5	1005,58	7,7	9,7	9,6	1	1	1	1	1	1	1	1	1	0	1	-29,598309	275,029314	294,815252	0
14.01.2021	18:42:39	0	0	4,067081	3,3795	116,64	1,114	77,715	3,5	1005,62	7,6	9,7	9,6	1	1	1	1	1	1	1	1	1	0	1	-26,920366	275,048113	297,581903	0
14.01.2021	18:42:40	0	0	3,954106	3,30525	110,736	1,095	77,719	3,5	1005,46	7,6	9,7	9,6	1	1	1	1	1	1	1	1	1	0	1	-32,064834	275,076347	292,570695	0
14.01.2021	18:42:41	0	0	2,485438	3,05325	94,1112	1,092	77,705	3,5	1005,5	7,6	9,7	9,6	1	1	1	1	1	1	1	1	1	0	1	-29,31642	275,016791	295,038058	0
14.01.2021	18:42:42	0	0	4,29303	3,02775	105,8616	1,085	77,709	3,5	1005,4	7,6	9,7	9,6	1	1	1	1	1	1	1	1	1	0	1	-31,430585	274,901337	292,379571	0
14.01.2021	18:42:43	0	0	5,083851	2,88225	128,7	1,09	77,707	3,5	1005,58	7,6	9,7	9,6	1	1	1	1	1	1	1	1	1	0	1	-33,192389	274,971463	290,948305	0
14.01.2021	18:42:44	0	0	2,485438	2,691	114,4656	1,09	77,704	3,5	1005,46	7,6	9,7	9,6	1	1	1	1	1	1	1	1	1	0	1	-29,809725	275,066931	294,781358	0
14.01.2021	18:42:45	0	0	4,067081	2,5395	104,0472	1,092	77,689	3,5	1005,6	7,6	9,7	9,6	1	1	1	1	1	1	1	1	1	0	1	-29,880197	274,954298	294,179565	0
14.01.2021	18:42:46	0	0	3,615183	2,472	113,0004	1,093	77,673	3,5	1005,5	7,6	9,7	9,6	1	1	1	1	1	1	1	1	1	0	1	-28,611698	275,071638	296,001605	0
14.01.2021	18:42:47	0	0	2,485438	2,42325	125,442	1,093	77,691	3,5	1005,44	7,6	9,7	9,6	1	1	1	1	1	1	1	1	1	0	1	-28,400282	274,940265	295,593327	0
14.01.2021	18:42:48	0	0	4,744927	2,4705	113,7024	1,094	77,694	3,5	1005,42	7,6	9,7	9,6	1	1	1	1	1	1	1	1	1	0	1	-29,175476	274,9465	294,847528	0
14.01.2021	18:42:49	0	0	4,29303	2,55375	121,6188	1,094	77,696	3,5	1005,56	7,6	9,7	9,6	1	1	1	1	1	1	1	1	1	0	1	-29,245948	275,085767	295,434054	0
14.01.2021	18:42:50	0	0	2,937336	2,58525	120,5676	1,088	77,672	3,5	1005,26	7,6	9,7	9,6	1	1	1	1	1	1	1	1	1	0	1	-31,853418	274,999585	292,419899	0
14.01.2021	18:42:51	0	0	3,050311	2,5545	116,352	1,091	77,682	3,5	1005,46	7,7	9,7	9,6	1	1	1	1	1	1	1	1	1	0	1	-28,118393	275,071638	296,49491	0
14.01.2021	18:42:52	0	0	3,389234	2,64825	112,2696	1,086	77,679	3,5	1005,42	7,6	9,7	9,6	1	1	1	1	1	1	1	1	1	0	1	-27,413672	274,951178	296,631385	0
14.01.2021	18:42:53	0	0	3,615183	2,74425	118,7136	1,092	77,686	3,5	1005,5	7,6	9,7	9,6	1	1	1	1	1	1	1	1	1	0	1	-28,823115	275,0685	295,775375	0
14.01.2021	18:42:54	0	0	2,937336	2,8215	102,5712	1,09	77,69	3,5	1005,36	7,6	9,7	9,6	1	1	1	1	1	1	1	1	1	0	1	-32,628612	274,94806	291,401742	0
14.01.2021	18:42:55	0	0	2,711387	2,74425	101,502	1,084	77,694	3,5	1005,42	7,6	9,7	9,6	1	1	1	1	1	1	1	1	1	0	1	-31,078224	274,934031	292,886003	0
14.01.2021	18:42:56	0	0	2,937336	2,69025	119,4912	1,092	77,686	3,5	1005,6	7,6	9,7	9,6	1	1	1	1	1	1	1	1	1	0	1	-32,417195	275,071638	292,196108	0
14.01.2021	18:42:57	0	0	4,180055	2,6295	93,3264	1,081	77,691	3,5	1005,36	7,6	9,7	9,6	1	1	1	1	1	1	1	1	1	0	1	-25,651868	274,960538	298,437314	0
14.01.2021	18:42:58	0	0	4,180055	2,619	92,376	1,09	77,69	3,5	1005,4	7,6	9,7	9,6	1	1	1	1	1	1	1	1	1	0	1	-28,541226	275,073207	296,079485	0
14.01.2021	18:42:59	0	0	4,518979	2,50425	101,7936	1,088	77,691	3,5	1005,48	7,6	9,7	9,6	1	1	1	1	1	1	1	1	1	0	1	-30,021142	275,032446	294,407196	0
14.01.2021	18:43:00	0	0	2,824362	2,45625	104,0436	1,085	77,681	3,5	1005,28	7,6	9,7	9,6	1	1	1	1	1	1	1	1	1	0	1	-31,501057	274,926242	292,426457	0
14.01.2021	18:43:01	0	0	3,163285	2,487	88,9272	1,092	77,699	3,5	1005,32	7,6	9,7	9,6	1	1	1	1	1	1	1	1	1	0	1	-30,30303	274,912229	293,558448	0
14.01.2021	18:43:02	0	0	3,163285	2,487	88,9272	1,092	77,699	3,5	1005,32	7,6	9,7	9,6	1	1	1	1	1	1	1	1	1	0	1	-30,30303	274,912229	293,558448	0
14.01.2021	18:43:03	0	0	3,841132	2,67525	98,4528	1,085	77,704	3,5	1005,44	7,6	9,7	9,6	1	1	1	1	1	1	1	1	1	0	1	-32,840028	275,013661	291,499687	0
14.01.2021	18:43:04	0	0	4,518979	2,89275	90,7812	1,083	77,706	3,5	1005,34	7,6	9,7	9,6	1	1	1	1	1	1	1	1	1	0	1	-28,047921	275,018356	296,31394	0
14.01.2021	18:43:05	0	0	4,406004	3,12	101,7936	1,089	77,727	3,5	1005,7	7,6	9,7	9,6	1	1	1	1	1	1	1	1	1	0	1	-29,034531	275,065362	295,549147	0
14.01.2021	18:43:06	0	0	3,050311	3,17475	78,0516	1,083	77,762	3,5	1005,5	7,6	9,7	9,6	1	1	1	1	1	1	1	1	1	0	1	-33,192389	274,915342	290,683759	0
14.01.2021	18:43:07	0	0	4,631953	3,24	87,7428	1,079	77,745	3,5	1005,38	7,6	9,7	9,6	1	1	1	1	1	1	1	1	1	0	1	-36,434109	274,949619	287,603596	0
14.01.2021	18:43:08	0	0	3,841132	3,28575	93,7044	1,085	77,749	3,5	1005,34	7,6	9,7	9,6	1	1	1	1	1	1	1	1	1	0	1	-27,343199	275,0685	297,25529	0
14.01.2021	18:43:09	0	0	2,824362	3,1425	78,6492	1,087	77,771	3,5	1005,46	7,6	9,7	9,6	1	1	1	1	1	1	1	1	1	0	1	-28,964059	274,943382	295,044246	0
14.01.2021	18:43:10	0	0	3,954106	3,057	85,9068	1,086	77,77	3,5	1005,4	7,6	9,7	9,6	1	1	1	1	1	1	1	1	1	0	1	-31,994362	274,890451	291,764507	0
14.01.2021	18:43:11	0	0	3,615183	3,144	82,5948	1,083	77,782	3,5	1005,48	7,6	9,7	9,6	1	1	1	1	1	1	1	1	1	0	1	-28,118393	274,937147	295,860523	0
14.01.2021	18:43:12	0	0	3,276259	3,2235	81,9792	1,082	77,776	3,5	1005,42	7,6	9,7	9,6	1	1	1	1	1	1	1	1	1	0	1	-33,262861	275,059088	291,291204	0
14.01.2021	18:43:13	0	0	2,598413	3,138	75,204	1,08	77,795	3,5	1005,44	7,6	9,7	9,6	1	1	1	1	1	1	1	1	1	0	1	-27,484144	274,893561	296,289375	0
14.01.2021	18:43:14	0	0	4,744927	3,021	69,1344	1,082	77,806	3,5	1005,38	7,6	9,7	9,6	1	1	1	1	1	1	1	1	1	0	1	-36,293164	274,993332	287,950661	0
14.01.2021	18:43:15	0	0	3,728157	3,216	70,8444	1,083	77,819	3,5	1005,4	7,6	9,7	9,6	1	1	1	1	1	1	1	1	1	0	1	-29,598309	275,066931	294,992775	0
14.01.2021	18:43:16	0	0	4,29303	3,507	70,8372	1,084	77,798	3,5	1005,52	7,6	9,7	9,6	1	1	1	1	1	1	1	1	1	0	1	-32,9105	275,023051	291,473513	0
14.01.2021	18:43:17	0	0	3,615183	3,63	71,6148	1,087	77,82	3,5	1005,56	7,6	9,7	9,6	1	1	1	1	1	1	1	1	1	0	1	-33,051445	275,040278	291,41385	0
14.01.2021	18:43:18	0	0	3,502208	3,6645	75,9672	1,085	77,833	3,5	1005,42	7,6	9,7	9,6	1	1	1	1	1	1	1	1	1	0	1	-31,219168	274,882679	292,503088	0
14.01.2021	18:43:19	0	0	2,485438	3,61875	75,5928	1,082	77,815	3,5	1005,48	7,6	9,7	9,6	1	1	1	1	1	1	1	1	1	0	1	-33,474278	275,004276	290,821165	0
14.01.2021	18:43:20	0	0	4,519006	3,6945	84,4452	1,081	77,828	3,5	1005,52	7,6	9,7	9,5	1	1	1	1	1	1	1	1	1	0	1	-30,796335	275,070069	293,809561	0
14.01.2021	18:43:21	0	0	4,518979	3,65475	83,7252	1,079	77,808	3,5	1005,4	7,6	9,7	9,6	1	1	1	1	1	1	1	1	1	0	1	-30,232558	274,960538	293,856624	0
14.01.2021	18:43:22	0	0	2,372464	3,57825	85,5252	1,074	77,808	3,5	1005,48	7,6	9,7	9,6	1	1	1	1	1	1	1	1	1	0	1	-33,333333	275,065362	291,250345	0
14.01.2021	18:43:23	0	0	3,954106	3,67125	86,2884	1,083	77,814	3,5	1005,62	7,6	9,7	9,6	1	1	1	1	1	1	1	1	1	0	1	-29,809725	275,013661	294,52999	0
14.01.2021	18:43:24	0	0	3,389234	3,5895	89,3484	1,072	77,823	3,5	1005,54	7,6	9,8	9,6	1	1	1	1	1	1	1	1	1	0	1	-31,92389	275,054384	292,607973	0
14.01.2021	18:43:25	0	0	4,406004	3,4365	85,9284	1,083	77,817	3,5	1005,36	7,6	9,7	9,6	1	1	1	1	1	1	1	1	1	0	1	-29,105004	275,00584	295,197816	0
14.01.2021	18:43:26	0	0	2,259489	3,4965	86,976	1,083	77,826	3,5	1005,56	7,6	9,7	9,6	1	1	1	1	1	1	1	1	1	0	1	-33,897111	275,051248	290,619954	0
14.01.2021	18:43:27	0	0	4,518979	3,45975	90,7632	1,084	77,818	3,5	1005,62	7,6	9,7	9,6	1	1	1	1	1	1	1	1	1	0	1	-31,219168	275,027748	293,187004	0
14.01.2021	18:43:28	0	0	2,711387	3,27	106,6824	1,08	77,824	3,5	1005,52	7,6	9,7	9,6	1	1	1	1	1	1	1	1	1	0	1	-29,175476	274,9465	294,847528	0
14.01.2021	18:43:29	0	0	3,728157	3,14025	94,1004	1,086	77,838	3,5	1005,54	7,6	9,7	9,6	1	1	1	1	1	1	1	1	1	0	1	-28,400282	275,054384	296,131581	0
14.01.2021	18:43:30	0	0	2,824379	3,07575	97,6788	1,085	77,832	3,5	1005,56	7,6	9,8	9,5	1	1	1	1	1	1	1	1	1	0	1	-33,826638	274,930915	290,122901	0
14.01.2021	18:43:31	0	0	3,954106	2,71875	105,1056	1,086	77,833	3,5	1005,48	7,6	9,8	9,6	1	1	1	1	1	1	1	1	1	0	1	-30,091614	275,0685	294,506876	0
14.01.2021	18:43:32	0	0	3,502229	2,4705	112,7196	1,081	77,836	3,5	1005,44	7,6	9,7	9,5	1	1	1	1	1	1	1	1	1	0	1	-26,849894	274,930915	297,099645	0
14.01.2021	18:43:33	0	0	2,824362	2,36775	106,6752	1,076	77,828	3,5	1005,36	7,6	9,8	9,6	1	1	1	1	1	1	1	1	1	0	1	-33,262861	274,998022	291,003081	0
14.01.2021	18:43:34	0	0	3,050311	2,30325	116,37	1,082	77,83	3,5	1005,48	7,6	9,7	9,6	1	1	1	1	1	1	1	1	1	0	1	-32,135307	275,059088	292,418759	0
14.01.2021	18:43:35	0	0	3,050311	2,30325	103,3236	1,08	77,839	3,5	1005,58	7,6	9,8	9,6	1	1	1	1	1	1	1	1	1	0	1	-31,994362	274,915342	291,881785	0
14.01.2021	18:43:36	0	0	3,728157	2,202	107,046	1,08	77,835	3,5	1005,5	7,6	9,7	9,6	1	1	1	1	1	1	1	1	1	0	1	-31,360113	274,926242	292,567402	0
14.01.2021	18:43:37	0	0	4,744927	2,0985	95,8248	1,077	77,84	3,5	1005,48	7,6	9,7	9,6	1	1	1	1	1	1	1	1	1	0	1	-26,638478	274,881125	297,076459	0
14.01.2021	18:43:38	0	0	3,163285	2,00775	96,9696	1,082	77,805	3,5	1005,5	7,6	9,8	9,6	1	1	1	1	1	1	1	1	1	0	1	-30,796335	274,968341	293,329637	0
14.01.2021	18:43:39	0	0	4,970876	1,974	84,1212	1,084	77,809	3,5	1005,56	7,6	9,8	9,6	1	1	1	1	1	1	1	1	1	0	1	-31,078224	275,010532	293,246731	0
14.01.2021	18:43:40	0	0	3,502208	2,01825	104,4432	1,087	77,811	3,5	1005,54	7,6	9,8	9,6	1	1	1	1	1	1	1	1	1	0	1	-30,584919	275,05752	293,961745	0
14.01.2021	18:43:41	0	0	4,29303	2,019	105,8904	1,077	77,794	3,5	1005,48	7,6	9,8	9,6	1	1	1	1	1	1	1	1	1	0	1	-34,672304	274,955858	289,394811	0
14.01.2021	18:43:42	0	0	2,598413	1,98675	95,8392	1,079	77,774	3,5	1005,56	7,6	9,7	9,6	1	1	1	1	1	1	1	1	1	0	1	-33,121917	275,048113	291,380353	0
14.01.2021	18:43:43	0	0	3,163304	1,8675	98,5464	1,079	77,789	3,5	1005,54	7,6	9,7	9,5	1	1	1	1	1	1	1	1	1	0	1	-31,994362	274,987081	292,219982	0
14.01.2021	18:43:44	0	0	3,954106	1,764	99,1548	1,082	77,767	3,5	1005,52	7,6	9,7	9,6	1	1	1	1	1	1	1	1	1	0	1	-31,078224	274,86404	292,556236	0
14.01.2021	18:43:45	0	0	3,502208	1,68375	96,2136	1,078	77,773	3,5	1005,62	7,6	9,7	9,6	1	1	1	1	1	1	1	1	1	0	1	-28,611698	274,938706	295,374564	0
14.01.2021	18:43:46	0	0	2,937354	1,785	100,7388	1,086	77,773	3,5	1005,46	7,6	9,7	9,5	1	1	1	1	1	1	1	1	1	0	1	-29,809725	275,051248	294,70734	0
14.01.2021	18:43:47	0	0	3,050311	1,86375	94,7628	1,076	77,763	3,5	1005,32	7,6	9,7	9,6	1	1	1	1	1	1	1	1	1	0	1	-30,514447	274,898226	293,281052	0
14.01.2021	18:43:48	0	0	4,406004	2,0145	93,3408	1,085	77,76	3,5	1005,42	7,6	9,8	9,6	1	1	1	1	1	1	1	1	1	0	1	-33,685694	274,983957	290,513915	0
14.01.2021	18:43:49	0	0	3,050311	2,09775	98,5068	1,08	77,751	3,5	1005,46	7,6	9,8	9,6	1	1	1	1	1	1	1	1	1	0	1	-33,897111	274,888896	289,854434	0
14.01.2021	18:43:50	0	0	4,518979	2,14725	94,3524	1,078	77,742	3,5	1005,5	7,7	9,8	9,6	1	1	1	1	1	1	1	1	1	0	1	-36,645525	274,909116	287,201286	0
14.01.2021	18:43:51	0	0	3,728157	2,2365	95,526	1,087	77,739	3,5	1005,5	7,6	9,7	9,6	1	1	1	1	1	1	1	1	1	0	1	-33,54475	275,034012	290,890978	0
14.01.2021	18:43:52	0	0	4,518979	2,20425	85,9212	1,08	77,73	3,5	1005,52	7,6	9,7	9,6	1	1	1	1	1	1	1	1	1	0	1	-36,081748	275,03088	288,339201	0
14.01.2021	18:43:53	0	0	3,728157	2,11875	95,8968	1,086	77,733	3,5	1005,44	7,7	9,8	9,6	1	1	1	1	1	1	1	1	1	0	1	-31,148696	274,987081	293,065648	0
14.01.2021	18:43:54	0	0	2,824362	2,061	92,6244	1,081	77,722	3,5	1005,44	7,6	9,8	9,6	1	1	1	1	1	1	1	1	1	0	1	-35,870331	274,910672	287,983813	0
14.01.2021	18:43:55	0	0	3,163304	2,06775	98,4276	1,078	77,716	3,5	1005,42	7,6	9,7	9,5	1	1	1	1	1	1	1	1	1	0	1	-28,611698	274,874911	295,073964	0
14.01.2021	18:43:56	0	0	3,615205	2,0235	105,8832	1,086	77,729	3,5	1005,62	7,7	9,7	9,5	1	1	1	1	1	1	1	1	1	0	1	-33,897111	275,023051	290,486903	0
14.01.2021	18:43:57	0	0	2,937354	2,043	91,8792	1,08	77,71	3,5	1005,52	7,6	9,8	9,5	1	1	1	1	1	1	1	1	1	0	1	-26,920366	274,927799	297,014489	0
14.01.2021	18:43:58	0	0	2,598413	2,10825	96,2424	1,083	77,722	3,5	1005,6	7,6	9,8	9,6	1	1	1	1	1	1	1	1	1	0	1	-28,682171	274,881125	295,032766	0
14.01.2021	18:43:59	0	0	4,067105	2,097	93,672	1,078	77,705	3,5	1005,48	7,7	9,8	9,5	1	1	1	1	1	1	1	1	1	0	1	-32,417195	274,958978	291,664631	0
14.01.2021	18:44:00	0	0	3,276279	2,3925	98,766	1,08	77,705	3,5	1005,46	7,6	9,7	9,5	1	1	1	1	1	1	1	1	1	0	1	-34,954193	275,008968	289,363383	0
14.01.2021	18:44:01	0	0	3,276279	2,3925	98,766	1,08	77,705	3,5	1005,46	7,6	9,7	9,5	1	1	1	1	1	1	1	1	1	0	1	-34,954193	275,008968	289,363383	0
14.01.2021	18:44:02	0	0	4,406004	2,63625	98,064	1,08	77,701	3,5	1005,44	7,6	9,8	9,6	1	1	1	1	1	1	1	1	1	0	1	-36,927414	274,918455	286,963407	0
14.01.2021	18:44:03	0	0	3,615183	2,841	97,2864	1,08	77,691	3,5	1005,56	7,6	9,8	9,6	1	1	1	1	1	1	1	1	1	0	1	-29,739253	274,865592	293,90252	0
14.01.2021	18:44:04	0	0	2,937336	2,844	105,8436	1,083	77,691	3,5	1005,26	7,6	9,8	9,6	1	1	1	1	1	1	1	1	1	0	1	-30,514447	274,882679	293,20781	0
14.01.2021	18:44:05	0	0	3,389254	2,766	95,8248	1,075	77,697	3,5	1005,46	7,6	9,7	9,5	1	1	1	1	1	1	1	1	1	0	1	-35,306554	275,026182	289,092232	0
14.01.2021	18:44:06	0	0	3,615183	2,7405	98,046	1,08	77,685	3,5	1005,5	7,6	9,7	9,6	1	1	1	1	1	1	1	1	1	0	1	-30,93728	274,935589	293,034291	0
14.01.2021	18:44:07	0	0	2,937336	2,697	98,0676	1,078	77,683	3,5	1005,6	7,6	9,8	9,6	1	1	1	1	1	1	1	1	1	0	1	-29,527837	274,899781	294,274991	0
14.01.2021	18:44:08	0	0	2,711403	2,565	107,0388	1,08	77,693	3,5	1005,54	7,7	9,8	9,5	1	1	1	1	1	1	1	1	1	0	1	-30,655391	274,859383	292,957136	0
14.01.2021	18:44:09	0	0	4,518979	2,382	107,7084	1,076	77,711	3,5	1005,62	7,6	9,8	9,6	1	1	1	1	1	1	1	1	1	0	1	-32,9105	274,923127	291,002334	0
14.01.2021	18:44:10	0	0	4,519006	2,2755	105,1236	1,072	77,719	3,5	1005,5	7,6	9,8	9,5	1	1	1	1	1	1	1	1	1	0	1	-34,319944	275,035578	290,123175	0
14.01.2021	18:44:11	0	0	2,485438	2,1615	108,504	1,078	77,737	3,5	1005,48	7,6	9,8	9,6	1	1	1	1	1	1	1	1	1	0	1	-32,135307	274,990207	292,093777	0
14.01.2021	18:44:12	0	0	4,18008	2,04225	96,9732	1,079	77,743	3,5	1005,74	7,6	9,7	9,5	1	1	1	1	1	1	1	1	1	0	1	-33,897111	275,037145	290,553399	0
14.01.2021	18:44:13	0	0	4,067105	2,00025	90,7884	1,079	77,738	3,5	1005,44	7,7	9,8	9,5	1	1	1	1	1	1	1	1	1	0	1	-34,108527	274,96678	290,010086	0
14.01.2021	18:44:14	0	0	4,29303	2,037	92,2572	1,075	77,743	3,5	1005,4	7,6	9,8	9,6	1	1	1	1	1	1	1	1	1	0	1	-30,443975	274,870251	293,21974	0
14.01.2021	18:44:15	0	0	3,502208	2,0775	78,6564	1,076	77,747	3,5	1005,34	7,7	9,7	9,6	1	1	1	1	1	1	1	1	1	0	1	-31,712474	275,026182	292,686312	0
14.01.2021	18:44:16	0	0	4,518979	2,112	94,8276	1,076	77,753	3,5	1005,5	7,6	9,8	9,6	1	1	1	1	1	1	1	1	1	0	1	-33,826638	274,96678	290,291975	0
14.01.2021	18:44:17	0	0	4,29303	2,295	100,3716	1,075	77,747	3,5	1005,54	7,7	9,8	9,6	1	1	1	1	1	1	1	1	1	0	1	-32,840028	274,840765	290,68483	0
14.01.2021	18:44:18	0	0	5,083881	2,5245	80,5248	1,074	77,743	3,5	1005,5	7,6	9,8	9,5	1	1	1	1	1	1	1	1	1	0	1	-34,038055	274,924684	289,882119	0
14.01.2021	18:44:19	0	0	3,502208	2,694	84,8196	1,077	77,75	3,5	1005,54	7,7	9,8	9,6	1	1	1	1	1	1	1	1	1	0	1	-31,148696	275,027748	293,257476	0
14.01.2021	18:44:20	0	0	3,72818	3,087	75,9708	1,072	77,741	3,5	1005,34	7,6	9,8	9,5	1	1	1	1	1	1	1	1	1	0	1	-30,866808	274,949619	293,170897	0
14.01.2021	18:44:21	0	0	4,18008	3,483	83,7252	1,078	77,748	3,5	1005,52	7,6	9,8	9,5	1	1	1	1	1	1	1	1	1	0	1	-34,53136	274,979271	289,64615	0
14.01.2021	18:44:22	0	0	4,518979	3,6915	89,3232	1,076	77,759	3,5	1005,36	7,6	9,8	9,6	1	1	1	1	1	1	1	1	1	0	1	-33,615222	274,84852	289,946153	0
14.01.2021	18:44:23	0	0	2,824379	3,4995	88,1028	1,072	77,767	3,5	1005,3	7,7	9,8	9,5	1	1	1	1	1	1	1	1	1	0	1	-32,135307	274,913785	291,733506	0
14.01.2021	18:44:24	0	0	3,050311	3,48	98,4672	1,073	77,747	3,5	1005,52	7,6	9,8	9,6	1	1	1	1	1	1	1	1	1	0	1	-34,672304	274,845418	288,874462	0
14.01.2021	18:44:25	0	0	4,406031	3,5475	95,508	1,075	77,786	3,5	1005,42	7,7	9,8	9,5	1	1	1	1	1	1	1	1	1	0	1	-32,55814	274,987081	291,656205	0
14.01.2021	18:44:26	0	0	3,163285	3,49275	98,1432	1,077	77,781	3,5	1005,52	7,7	9,8	9,6	1	1	1	1	1	1	1	1	1	0	1	-32,840028	274,896671	290,948143	0
14.01.2021	18:44:27	0	0	2,598413	3,702	92,9808	1,075	77,768	3,5	1005,44	7,7	9,7	9,6	1	1	1	1	1	1	1	1	1	0	1	-34,108527	274,856278	289,489381	0
14.01.2021	18:44:28	0	0	2,937354	3,72975	91,1628	1,076	77,784	3,5	1005,44	7,7	9,7	9,5	1	1	1	1	1	1	1	1	1	0	1	-31,642001	274,90756	292,197477	0
14.01.2021	18:44:29	0	0	3,389254	3,522	102,5604	1,072	77,798	3,5	1005,48	7,6	9,7	9,5	1	1	1	1	1	1	1	1	1	0	1	-32,276251	274,874911	291,409412	0
14.01.2021	18:44:30	0	0	3,276279	3,47325	105,4836	1,071	77,789	3,5	1005,52	7,7	9,7	9,5	1	1	1	1	1	1	1	1	1	0	1	-33,192389	274,90756	290,647089	0
14.01.2021	18:44:31	0	0	2,937354	3,4755	105,9084	1,076	77,775	3,5	1005,52	7,7	9,7	9,5	1	1	1	1	1	1	1	1	1	0	1	-34,319944	275,037145	290,130566	0
14.01.2021	18:44:32	0	0	2,598428	3,4065	101,5092	1,068	77,785	3,5	1005,44	7,7	9,8	9,5	1	1	1	1	1	1	1	1	1	0	1	-30,725863	274,904448	293,098952	0
14.01.2021	18:44:33	0	0	4,406031	3,4815	99,8892	1,075	77,785	3,5	1005,44	7,6	9,8	9,5	1	1	1	1	1	1	1	1	1	0	1	-33,615222	275,029314	290,798338	0
14.01.2021	18:44:34	0	0	4,406004	3,3555	89,3052	1,072	77,78	3,5	1005,52	7,7	9,7	9,6	1	1	1	1	1	1	1	1	1	0	1	-32,769556	274,879571	290,938061	0
14.01.2021	18:44:35	0	0	4,406031	3,105	98,0892	1,074	77,796	3,5	1005,42	7,7	9,8	9,5	1	1	1	1	1	1	1	1	1	0	1	-33,333333	274,856278	290,264575	0
14.01.2021	18:44:36	0	0	3,95413	2,919	110,3724	1,068	77,799	3,5	1005,28	7,7	9,8	9,5	1	1	1	1	1	1	1	1	1	0	1	-32,699084	274,893561	291,074435	0
14.01.2021	18:44:37	0	0	2,485453	2,736	113,4828	1,078	77,803	3,5	1005,48	7,7	9,8	9,5	1	1	1	1	1	1	1	1	1	0	1	-33,192389	274,999585	291,080928	0
14.01.2021	18:44:38	0	0	2,033553	2,63925	111,438	1,073	77,805	3,5	1005,56	7,7	9,7	9,5	1	1	1	1	1	1	1	1	1	0	1	-32,769556	274,850072	290,799124	0
14.01.2021	18:44:39	0	0	3,72818	2,6475	108,4824	1,078	77,787	3,5	1005,56	7,7	9,7	9,5	1	1	1	1	1	1	1	1	1	0	1	-28,964059	274,954298	295,095703	0
14.01.2021	18:44:40	0	0	4,744956	2,8515	120,924	1,074	77,789	3,5	1005,48	7,7	9,7	9,5	1	1	1	1	1	1	1	1	1	0	1	-33,474278	275,019921	290,894967	0
14.01.2021	18:44:41	0	0	3,389254	2,96775	89,4132	1,07	77,793	3,5	1005,46	7,6	9,8	9,5	1	1	1	1	1	1	1	1	1	0	1	-30,796335	274,909116	293,050475	0
14.01.2021	18:44:42	0	0	4,519006	3,03	104,0544	1,073	77,777	3,5	1005,52	7,6	9,7	9,5	1	1	1	1	1	1	1	1	1	0	1	-30,232558	274,979271	293,944952	0
14.01.2021	18:44:43	0	0	4,18008	3,07575	96,1956	1,07	77,77	3,5	1005,58	7,6	9,8	9,5	1	1	1	1	1	1	1	1	1	0	1	-29,950669	275,032446	294,477668	0
14.01.2021	18:44:44	0	0	2,146528	2,97675	105,4872	1,069	77,787	3,5	1005,54	7,7	9,7	9,5	1	1	1	1	1	1	1	1	1	0	1	-30,866808	274,9465	293,156196	0
14.01.2021	18:44:45	0	0	3,389254	3,06375	110,358	1,066	77,793	3,5	1005,58	7,6	9,7	9,5	1	1	1	1	1	1	1	1	1	0	1	-31,501057	274,845418	292,045709	0
14.01.2021	18:44:46	0	0	3,389254	3,186	125,7228	1,071	77,786	3,5	1005,52	7,7	9,7	9,5	1	1	1	1	1	1	1	1	1	0	1	-28,964059	274,901337	294,846097	0
14.01.2021	18:44:47	0	0	3,276279	3,06675	120,8952	1,068	77,775	3,5	1005,56	7,6	9,7	9,5	1	1	1	1	1	1	1	1	1	0	1	-29,527837	274,842316	294,004324	0
14.01.2021	18:44:48	0	0	3,95413	3,0465	118,71	1,07	77,781	3,5	1005,52	7,6	9,8	9,5	1	1	1	1	1	1	1	1	1	0	1	-32,135307	274,906004	291,69684	0
14.01.2021	18:44:49	0	0	4,519006	2,90175	115,5852	1,069	77,785	3,5	1005,54	7,7	9,7	9,5	1	1	1	1	1	1	1	1	1	0	1	-32,417195	275,015226	291,929901	0
14.01.2021	18:44:50	0	0	4,857931	2,70675	124,254	1,068	77,779	3,5	1005,56	7,6	9,8	9,5	1	1	1	1	1	1	1	1	1	0	1	-34,178999	274,920012	289,719158	0
14.01.2021	18:44:51	0	0	2,485438	2,64975	117,3852	1,071	77,773	3,5	1005,5	7,6	9,8	9,6	1	1	1	1	1	1	1	1	1	0	1	-32,064834	275,021486	292,311794	0
14.01.2021	18:44:52	0	0	4,293055	2,58	134,5644	1,063	77,772	3,5	1005,48	7,7	9,7	9,5	1	1	1	1	1	1	1	1	1	0	1	-30,93728	274,968341	293,188693	0
14.01.2021	18:44:53	0	0	2,711403	2,55675	116,7768	1,068	77,754	3,5	1005,42	7,7	9,7	9,5	1	1	1	1	1	1	1	1	1	0	1	-31,007752	275,021486	293,368877	0
14.01.2021	18:44:54	0	0	3,050329	2,685	129,4524	1,071	77,747	3,5	1005,64	7,6	9,8	9,5	1	1	1	1	1	1	1	1	1	0	1	-28,047921	274,969902	296,085412	0
14.01.2021	18:44:55	0	0	3,276279	2,7915	112,41	1,068	77,754	3,5	1005,54	7,6	9,8	9,5	1	1	1	1	1	1	1	1	1	0	1	-29,668781	274,983957	294,530828	0
14.01.2021	18:44:56	0	0	4,631981	2,78475	113,7024	1,067	77,743	3,5	1005,58	7,7	9,7	9,5	1	1	1	1	1	1	1	1	1	0	1	-31,92389	274,836114	291,579067	0
14.01.2021	18:44:57	0	0	4,519006	2,655	121,968	1,067	77,737	3,5	1005,56	7,7	9,7	9,5	1	1	1	1	1	1	1	1	1	0	1	-31,92389	274,941823	292,077067	0
14.01.2021	18:44:58	0	0	2,824379	2,4975	107,7444	1,071	77,735	3,5	1005,56	7,6	9,8	9,5	1	1	1	1	1	1	1	1	1	0	1	-31,853418	275,008968	292,464158	0
14.01.2021	18:44:59	0	0	4,18008	2,5125	109,5948	1,067	77,72	3,5	1005,5	7,6	9,7	9,5	1	1	1	1	1	1	1	1	1	0	1	-33,54475	274,952738	290,507659	0
14.01.2021	18:45:00	0	0	2,937354	2,35275	88,9668	1,063	77,688	3,5	1005,54	7,6	9,8	9,5	1	1	1	1	1	1	1	1	1	0	1	-29,527837	275,00584	294,774983	0
14.01.2021	18:45:01	0	0	2,937354	2,35275	88,9668	1,063	77,688	3,5	1005,54	7,6	9,8	9,5	1	1	1	1	1	1	1	1	1	0	1	-29,527837	275,00584	294,774983	0
14.01.2021	18:45:02	0	0	2,824379	2,20425	93,3444	1,067	77,68	3,5	1005,4	7,6	9,7	9,5	1	1	1	1	1	1	1	1	1	0	1	-31,994362	274,893561	291,779157	0
14.01.2021	18:45:03	0	0	3,615205	2,24775	91,5192	1,06	77,676	3,5	1005,44	7,6	9,8	9,5	1	1	1	1	1	1	1	1	1	0	1	-33,685694	274,998022	290,580248	0
14.01.2021	18:45:04	0	0	2,372478	2,331	86,292	1,06	77,661	3,5	1005,46	7,6	9,7	9,5	1	1	1	1	1	1	1	1	1	0	1	-32,980973	274,881125	290,733964	0
14.01.2021	18:45:05	0	0	2,485453	2,3505	88,9416	1,063	77,658	3,5	1005,56	7,6	9,7	9,5	1	1	1	1	1	1	1	1	1	0	1	-35,024665	275,008968	289,292911	0
14.01.2021	18:45:06	0	0	2,485453	2,4525	94,4064	1,059	77,663	3,5	1005,44	7,6	9,7	9,5	1	1	1	1	1	1	1	1	1	0	1	-33,262861	274,826814	290,196313	0
14.01.2021	18:45:07	0	0	4,518979	2,607	86,6628	1,064	77,672	3,5	1005,62	7,6	9,7	9,6	1	1	1	1	1	1	1	1	1	0	1	-32,769556	274,929357	291,172641	0
14.01.2021	18:45:08	0	0	4,631981	2,56575	96,5808	1,055	77,677	3,5	1005,64	7,6	9,7	9,5	1	1	1	1	1	1	1	1	1	0	1	-34,460888	274,860935	289,158949	0
14.01.2021	18:45:09	0	0	3,72818	2,427	89,9928	1,059	77,664	3,5	1005,5	7,6	9,8	9,5	1	1	1	1	1	1	1	1	1	0	1	-31,219168	274,960538	292,870013	0
14.01.2021	18:45:10	0	0	4,406031	2,4765	90,7776	1,059	77,688	3,5	1005,52	7,6	9,7	9,5	1	1	1	1	1	1	1	1	1	0	1	-32,699084	274,831463	290,781978	0
14.01.2021	18:45:11	0	0	2,711403	2,5245	103,698	1,058	77,686	3,5	1005,52	7,6	9,7	9,5	1	1	1	1	1	1	1	1	1	0	1	-32,55814	274,893561	291,215379	0
14.01.2021	18:45:12	0	0	3,841155	2,454	93,3372	1,061	77,707	3,5	1005,32	7,6	9,7	9,5	1	1	1	1	1	1	1	1	1	0	1	-31,501057	274,829914	291,972708	0
14.01.2021	18:45:13	0	0	2,372478	2,40975	98,0892	1,057	77,715	3,5	1005,4	7,6	9,7	9,5	1	1	1	1	1	1	1	1	1	0	1	-36,293164	275,007404	288,017033	0
14.01.2021	18:45:14	0	0	3,72818	2,4465	97,7184	1,062	77,719	3,5	1005,46	7,6	9,7	9,5	1	1	1	1	1	1	1	1	1	0	1	-37,77308	275,00584	286,52974	0
14.01.2021	18:45:15	0	0	3,841155	2,448	107,0208	1,06	77,734	3,5	1005,54	7,6	9,7	9,5	1	1	1	1	1	1	1	1	1	0	1	-30,091614	274,96678	294,026999	0
14.01.2021	18:45:16	0	0	2,711403	2,36625	100,7208	1,06	77,734	3,5	1005,5	7,6	9,7	9,5	1	1	1	1	1	1	1	1	1	0	1	-36,081748	274,971463	288,058947	0
14.01.2021	18:45:17	0	0	5,196856	2,1975	99,1404	1,06	77,747	3,5	1005,46	7,6	9,7	9,5	1	1	1	1	1	1	1	1	1	0	1	-28,752643	275,002712	295,535424	0
14.01.2021	18:45:18	0	0	3,72818	2,07	87,3288	1,057	77,746	3,5	1005,44	7,6	9,7	9,5	1	1	1	1	1	1	1	1	1	0	1	-32,417195	274,881125	291,297741	0
14.01.2021	18:45:19	0	0	4,519006	2,076	85,9104	1,055	77,759	3,5	1005,46	7,6	9,7	9,5	1	1	1	1	1	1	1	1	1	0	1	-33,262861	274,817519	290,152555	0
14.01.2021	18:45:20	0	0	3,502229	2,13	93,3228	1,053	77,778	3,5	1005,6	7,6	9,7	9,5	1	1	1	1	1	1	1	1	1	0	1	-29,598309	274,876464	294,094671	0
14.01.2021	18:45:21	0	0	4,970906	2,25825	87,7392	1,05	77,773	3,5	1005,46	7,6	9,7	9,5	1	1	1	1	1	1	1	1	1	0	1	-30,796335	274,823715	292,64825	0
14.01.2021	18:45:22	0	0	2,711403	2,403	99,5292	1,056	77,767	3,5	1005,56	7,6	9,7	9,5	1	1	1	1	1	1	1	1	1	0	1	-32,55814	274,822166	290,879152	0
14.01.2021	18:45:23	0	0	2,937354	2,526	98,478	1,048	77,79	3,5	1005,44	7,6	9,7	9,5	1	1	1	1	1	1	1	1	1	0	1	-32,699084	274,934031	291,265143	0
14.01.2021	18:45:24	0	0	4,406031	2,556	107,73	1,051	77,784	3,5	1005,48	7,6	9,7	9,5	1	1	1	1	1	1	1	1	1	0	1	-34,742777	274,998022	289,523166	0
14.01.2021	18:45:25	0	0	4,293055	2,511	96,5448	1,048	77,808	3,5	1005,5	7,6	9,7	9,5	1	1	1	1	1	1	1	1	1	0	1	-36,222692	274,823715	287,221893	0
14.01.2021	18:45:26	0	0	4,406031	2,4375	102,1752	1,056	77,799	3,5	1005,5	7,6	9,7	9,5	1	1	1	1	1	1	1	1	1	0	1	-29,880197	274,973025	294,267859	0
14.01.2021	18:45:27	0	0	2,598428	2,4045	99,5076	1,047	77,819	3,5	1005,34	7,6	9,7	9,5	1	1	1	1	1	1	1	1	1	0	1	-33,051445	274,833013	290,436915	0
14.01.2021	18:45:28	0	0	3,276279	2,265	104,4432	1,052	77,832	3,5	1005,48	7,6	9,7	9,5	1	1	1	1	1	1	1	1	1	0	1	-30,091614	274,892006	293,67458	0
14.01.2021	18:45:29	0	0	2,937354	2,1195	101,5092	1,053	77,84	3,5	1005,58	7,6	9,7	9,5	1	1	1	1	1	1	1	1	1	0	1	-34,390416	274,822166	289,046876	0
14.01.2021	18:45:30	0	0	4,857931	2,16975	110,6712	1,047	77,851	3,5	1005,4	7,6	9,7	9,5	1	1	1	1	1	1	1	1	1	0	1	-31,360113	274,814422	292,040723	0
14.01.2021	18:45:31	0	0	2,372478	2,2125	104,4324	1,045	77,843	3,5	1005,5	7,6	9,7	9,5	1	1	1	1	1	1	1	1	1	0	1	-32,769556	274,885788	290,967344	0
14.01.2021	18:45:32	0	0	4,744956	2,2545	104,7204	1,05	77,846	3,5	1005,64	7,6	9,7	9,5	1	1	1	1	1	1	1	1	1	0	1	-28,541226	274,990207	295,687857	0
14.01.2021	18:45:33	0	0	4,18008	2,229	113,724	1,051	77,83	3,5	1005,5	7,6	9,7	9,5	1	1	1	1	1	1	1	1	1	0	1	-30,091614	274,856278	293,506295	0
14.01.2021	18:45:34	0	0	3,95413	2,1105	111,7908	1,052	77,852	3,5	1005,44	7,6	9,7	9,5	1	1	1	1	1	1	1	1	1	0	1	-37,561663	274,843867	285,9778	0
14.01.2021	18:45:35	0	0	3,163304	2,01	126,4752	1,056	77,854	3,5	1005,4	7,6	9,7	9,5	1	1	1	1	1	1	1	1	1	0	1	-32,346723	274,991769	291,889731	0
14.01.2021	18:45:36	0	0	2,824379	2,08725	107,7372	1,048	77,865	3,5	1005,46	7,6	9,7	9,5	1	1	1	1	1	1	1	1	1	0	1	-33,967583	274,976147	290,195199	0
14.01.2021	18:45:37	0	0	3,615205	2,1915	98,7552	1,045	77,849	3,5	1005,42	7,6	9,7	9,5	1	1	1	1	1	1	1	1	1	0	1	-35,306554	274,979271	288,870956	0
14.01.2021	18:45:38	0	0	2,937354	2,39925	99,162	1,05	77,854	3,5	1005,54	7,6	9,7	9,5	1	1	1	1	1	1	1	1	1	0	1	-30,232558	274,854727	293,358042	0
14.01.2021	18:45:39	0	0	4,067105	2,6145	107,0604	1,047	77,85	3,5	1005,5	7,6	9,7	9,5	1	1	1	1	1	1	1	1	1	0	1	-30,655391	274,814422	292,745445	0
14.01.2021	18:45:40	0	0	3,163304	2,541	92,25	1,051	77,866	3,5	1005,62	7,6	9,7	9,5	1	1	1	1	1	1	1	1	1	0	1	-33,333333	274,940265	290,660276	0
14.01.2021	18:45:41	0	0	2,711403	2,3985	119,0844	1,051	77,861	3,5	1005,58	7,6	9,7	9,5	1	1	1	1	1	1	1	1	1	0	1	-33,967583	274,987081	290,246762	0
14.01.2021	18:45:42	0	0	3,163304	2,4075	102,1788	1,047	77,87	3,5	1005,46	7,6	9,7	9,5	1	1	1	1	1	1	1	1	1	0	1	-30,373502	274,930915	293,576037	0
14.01.2021	18:45:43	0	0	4,067105	2,739	90,7812	1,045	77,875	3,5	1005,6	7,6	9,7	9,5	1	1	1	1	1	1	1	1	1	0	1	-31,219168	274,808228	292,152515	0
14.01.2021	18:45:44	0	0	3,389254	2,91375	97,4052	1,047	77,866	3,5	1005,38	7,6	9,7	9,5	1	1	1	1	1	1	1	1	1	0	1	-28,611698	274,892006	295,154495	0
14.01.2021	18:45:45	0	0	4,293055	3,231	105,4872	1,047	77,872	3,5	1005,56	7,6	9,7	9,5	1	1	1	1	1	1	1	1	1	0	1	-31,289641	274,965219	292,821614	0
14.01.2021	18:45:46	0	0	4,406031	3,73425	97,2972	1,044	77,859	3,5	1005,4	7,6	9,7	9,5	1	1	1	1	1	1	1	1	1	0	1	-32,487667	274,949619	291,550037	0
14.01.2021	18:45:47	0	0	2,485453	3,79425	103,6656	1,048	77,862	3,5	1005,36	7,6	9,7	9,5	1	1	1	1	1	1	1	1	1	0	1	-31,642001	274,873357	292,036344	0
14.01.2021	18:45:48	0	0	2,598428	3,90825	102,9348	1,046	77,851	3,5	1005,52	7,6	9,7	9,5	1	1	1	1	1	1	1	1	1	0	1	-30,30303	274,833013	293,18533	0
14.01.2021	18:45:49	0	0	3,389254	4,44375	90,036	1,039	77,82	3,5	1005,42	7,6	9,7	9,5	1	1	1	1	1	1	1	1	1	0	1	-33,54475	274,974586	290,610669	0
14.01.2021	18:45:50	0	0	4,067105	4,77675	94,1004	1,044	77,823	3,5	1005,4	7,6	9,7	9,5	1	1	1	1	1	1	1	1	1	0	1	-34,390416	274,932473	289,566467	0
14.01.2021	18:45:51	0	0	4,631981	4,8675	84,0492	1,044	77,831	3,5	1005,6	7,6	9,7	9,5	1	1	1	1	1	1	1	1	1	0	1	-33,192389	274,930915	290,757151	0
14.01.2021	18:45:52	0	0	4,293055	5,21175	83,736	1,044	77,827	3,5	1005,7	7,6	9,7	9,5	1	1	1	1	1	1	1	1	1	0	1	-29,31642	274,960538	294,772762	0
14.01.2021	18:45:53	0	0	4,067105	5,304	91,1556	1,04	77,826	3,5	1005,64	7,6	9,7	9,5	1	1	1	1	1	1	1	1	1	0	1	-28,118393	274,924684	295,801781	0
14.01.2021	18:45:54	0	0	3,95413	5,2425	104,058	1,038	77,845	3,5	1005,44	7,6	9,7	9,5	1	1	1	1	1	1	1	1	1	0	1	-29,739253	274,840765	293,785605	0
14.01.2021	18:45:55	0	0	4,406031	5,12175	104,0436	1,042	77,858	3,5	1005,5	7,6	9,7	9,5	1	1	1	1	1	1	1	1	1	0	1	-33,826638	274,924684	290,093536	0
14.01.2021	18:45:56	0	0	4,631981	5,28975	95,5008	1,042	77,891	3,5	1005,56	7,6	9,7	9,5	1	1	1	1	1	1	1	1	1	0	1	-33,897111	274,808228	289,474573	0
14.01.2021	18:45:57	0	0	4,631981	5,48625	99,1368	1,038	77,887	3,5	1005,44	7,6	9,7	9,5	1	1	1	1	1	1	1	1	1	0	1	-33,615222	274,895116	290,165623	0
14.01.2021	18:45:58	0	0	2,485453	5,58225	99,9252	1,046	77,914	3,5	1005,4	7,6	9,7	9,5	1	1	1	1	1	1	1	1	1	0	1	-30,796335	274,979271	293,381175	0
14.01.2021	18:45:59	0	0	2,485453	5,64375	102,5388	1,036	77,934	3,5	1005,5	7,6	9,7	9,5	1	1	1	1	1	1	1	1	1	0	1	-33,403805	274,938706	290,582457	0
14.01.2021	18:46:00	0	0	3,502229	5,69175	105,8688	1,042	77,979	3,5	1005,48	7,6	9,7	9,5	1	1	1	1	1	1	1	1	1	0	1	-31,501057	274,856278	292,096851	0
14.01.2021	18:46:01	0	0	3,502229	5,69175	105,8688	1,042	77,979	3,5	1005,48	7,6	9,7	9,5	1	1	1	1	1	1	1	1	1	0	1	-31,501057	274,856278	292,096851	0
14.01.2021	18:46:02	0	0	2,598428	5,514	99,504	1,045	77,982	3,5	1005,5	7,6	9,7	9,5	1	1	1	1	1	1	1	1	1	0	1	-34,813249	274,940265	289,18036	0
14.01.2021	18:46:03	0	0	2,711403	5,25975	98,4636	1,042	77,993	3,5	1005,58	7,6	9,7	9,5	1	1	1	1	1	1	1	1	1	0	1	-30,443975	274,985519	293,763002	0
14.01.2021	18:46:04	0	0	3,389254	5,3415	104,742	1,041	77,976	3,5	1005,56	7,6	9,7	9,5	1	1	1	1	1	1	1	1	1	0	1	-33,403805	274,854727	290,186795	0
14.01.2021	18:46:05	0	0	2,598428	5,58225	98,0856	1,041	77,995	3,5	1005,52	7,6	9,7	9,5	1	1	1	1	1	1	1	1	1	0	1	-34,108527	274,965219	290,002727	0
14.01.2021	18:46:06	0	0	4,744956	5,859	99,1368	1,042	78,007	3,5	1005,48	7,6	9,7	9,5	1	1	1	1	1	1	1	1	1	0	1	-37,491191	274,938706	286,495072	0
14.01.2021	18:46:07	0	0	3,502229	6,2565	90,018	1,042	78,01	3,5	1005,58	7,6	9,7	9,5	1	1	1	1	1	1	1	1	1	0	1	-27,977449	274,923127	295,935386	0
14.01.2021	18:46:08	0	0	4,067105	6,3075	103,6584	1,039	78,025	3,5	1005,62	7,6	9,7	9,5	1	1	1	1	1	1	1	1	1	0	1	-31,853418	274,990207	292,375665	0
14.01.2021	18:46:09	0	0	3,72818	6,15675	101,826	1,039	78,02	3,5	1005,46	7,6	9,7	9,5	1	1	1	1	1	1	1	1	1	0	1	-32,9105	274,901337	290,899656	0
14.01.2021	18:46:10	0	0	2,485453	5,946	96,9696	1,04	78,024	3,5	1005,58	7,6	9,7	9,5	1	1	1	1	1	1	1	1	1	0	1	-30,866808	274,786567	292,402932	0
14.01.2021	18:46:11	0	0	4,067105	5,88825	98,46	1,044	78,038	3,5	1005,64	7,6	9,7	9,5	1	1	1	1	1	1	1	1	1	0	1	-33,262861	274,84852	290,298513	0
14.01.2021	18:46:12	0	0	3,841155	5,859	95,148	1,043	78,035	3,5	1005,54	7,6	9,7	9,5	1	1	1	1	1	1	1	1	1	0	1	-32,980973	274,794301	290,32516	0
14.01.2021	18:46:13	0	0	2,824379	5,76375	93,33	1,033	78,029	3,5	1005,42	7,6	9,7	9,5	1	1	1	1	1	1	1	1	1	0	1	-30,514447	274,879571	293,19317	0
14.01.2021	18:46:14	0	0	3,163304	5,6055	99,5508	1,033	78,021	3,5	1005,62	7,6	9,7	9,5	1	1	1	1	1	1	1	1	1	0	1	-34,108527	274,794301	289,197605	0
14.01.2021	18:46:15	0	0	2,711403	5,57325	102,9528	1,041	78,036	3,5	1005,56	7,6	9,7	9,5	1	1	1	1	1	1	1	1	1	0	1	-31,078224	274,808228	292,293459	0
14.01.2021	18:46:16	0	0	2,937354	5,6595	102,1824	1,041	78,021	3,5	1005,48	7,6	9,7	9,5	1	1	1	1	1	1	1	1	1	0	1	-31,994362	274,924684	291,925812	0
14.01.2021	18:46:17	0	0	2,937354	5,679	104,058	1,043	78,025	3,5	1005,5	7,6	9,7	9,5	1	1	1	1	1	1	1	1	1	0	1	-32,064834	274,820617	291,365165	0
14.01.2021	18:46:18	0	0	4,293055	5,499	101,4948	1,045	78,09	3,5	1005,64	7,6	9,7	9,5	1	1	1	1	1	1	1	1	1	0	1	-35,447498	274,862487	288,17965	0
14.01.2021	18:46:19	0	0	3,389254	5,241	94,1256	1,039	78,028	3,5	1005,54	7,6	9,7	9,5	1	1	1	1	1	1	1	1	1	0	1	-32,346723	274,983957	291,852886	0
14.01.2021	18:46:20	0	0	4,744956	5,193	95,148	1,04	78,048	3,5	1005,36	7,6	9,7	9,5	1	1	1	1	1	1	1	1	1	0	1	-33,474278	274,941823	290,526679	0
14.01.2021	18:46:21	0	0	4,631981	5,01075	99,9072	1,044	78,058	3,5	1005,58	7,6	9,7	9,5	1	1	1	1	1	1	1	1	1	0	1	-37,914024	274,962098	286,182515	0
14.01.2021	18:46:22	0	0	4,970906	5,0115	86,2776	1,041	78,054	3,5	1005,64	7,6	9,7	9,5	1	1	1	1	1	1	1	1	1	0	1	-31,642001	274,969902	292,491332	0
14.01.2021	18:46:23	0	0	4,067105	4,79775	101,484	1,039	78,061	3,5	1005,4	7,6	9,7	9,5	1	1	1	1	1	1	1	1	1	0	1	-34,038055	274,932473	289,918828	0
14.01.2021	18:46:24	0	0	2,711403	4,57575	99,9108	1,041	78,062	3,5	1005,46	7,6	9,7	9,5	1	1	1	1	1	1	1	1	1	0	1	-36,15222	274,987081	288,062125	0
14.01.2021	18:46:25	0	0	3,841155	4,42425	101,124	1,036	78,054	3,5	1005,52	7,6	9,7	9,5	1	1	1	1	1	1	1	1	1	0	1	-30,091614	274,944941	293,92404	0
14.01.2021	18:46:26	0	0	3,163304	4,1715	108,8892	1,043	78,061	3,5	1005,4	7,6	9,7	9,5	1	1	1	1	1	1	1	1	1	0	1	-37,914024	274,982395	286,278218	0
14.01.2021	18:46:27	0	0	2,711403	4,25175	108,8532	1,038	78,066	3,5	1005,48	7,6	9,7	9,5	1	1	1	1	1	1	1	1	1	0	1	-35,658915	274,851623	287,917071	0
14.01.2021	18:46:28	0	0	4,406031	4,365	90,8964	1,044	78,069	3,5	1005,56	7,6	9,7	9,5	1	1	1	1	1	1	1	1	1	0	1	-37,350247	274,976147	286,812535	0
14.01.2021	18:46:29	0	0	4,067105	4,5075	96,2244	1,035	78,062	3,5	1005,36	7,6	9,7	9,5	1	1	1	1	1	1	1	1	1	0	1	-34,742777	274,851623	288,833209	0
14.01.2021	18:46:30	0	0	4,857931	4,89075	90,738	1,045	78,073	3,5	1005,64	7,6	9,7	9,5	1	1	1	1	1	1	1	1	1	0	1	-39,816772	274,923127	284,096062	0
14.01.2021	18:46:31	0	0	3,95413	5,08575	94,3848	1,043	78,054	3,5	1005,54	7,6	9,7	9,5	1	1	1	1	1	1	1	1	1	0	1	-32,487667	274,982395	291,704574	0
14.01.2021	18:46:32	0	0	4,744956	5,0025	94,356	1,037	78,067	3,5	1005,7	7,6	9,7	9,5	1	1	1	1	1	1	1	1	1	0	1	-33,333333	274,979271	290,844177	0
14.01.2021	18:46:33	0	0	3,95413	4,97775	91,5156	1,046	78,066	3,5	1005,58	7,6	9,7	9,5	1	1	1	1	1	1	1	1	1	0	1	-33,54475	274,856278	290,053159	0
14.01.2021	18:46:34	0	0	2,711403	5,02125	91,1664	1,039	78,083	3,5	1005,52	7,6	9,6	9,5	1	1	1	1	1	1	1	1	1	0	1	-35,024665	274,996458	289,233904	0
14.01.2021	18:46:35	0	0	4,519006	5,0205	109,9764	1,041	78,074	3,5	1005,48	7,6	9,7	9,5	1	1	1	1	1	1	1	1	1	0	1	-31,782946	274,940265	292,210664	0
14.01.2021	18:46:36	0	0	4,857931	4,82025	99,882	1,04	78,106	3,5	1005,46	7,6	9,7	9,5	1	1	1	1	1	1	1	1	1	0	1	-33,333333	274,941823	290,667623	0
14.01.2021	18:46:37	0	0	2,485453	4,49175	88,5852	1,041	78,099	3,5	1005,48	7,6	9,7	9,5	1	1	1	1	1	1	1	1	1	0	1	-33,262861	274,834564	290,232797	0
14.01.2021	18:46:38	0	0	3,841155	4,70475	91,5012	1,036	78,115	3,5	1005,34	7,6	9,7	9,5	1	1	1	1	1	1	1	1	1	0	1	-33,192389	274,987081	291,021955	0
14.01.2021	18:46:39	0	0	4,067105	5,13375	82,584	1,043	78,133	3,5	1005,56	7,6	9,7	9,5	1	1	1	1	1	1	1	1	1	0	1	-30,725863	274,892006	293,04033	0
14.01.2021	18:46:40	0	0	4,18008	5,04825	88,9308	1,043	78,136	3,5	1005,48	7,6	9,7	9,5	1	1	1	1	1	1	1	1	1	0	1	-33,474278	275,002712	290,813789	0
14.01.2021	18:46:41	0	0	4,180105	4,72875	97,7076	1,039	78,139	3,5	1005,66	7,6	9,7	9,4	1	1	1	1	1	1	1	1	1	0	1	-37,561663	274,935589	286,409908	0
14.01.2021	18:46:42	0	0	4,519006	4,22625	87,7428	1,037	78,16	3,5	1005,44	7,6	9,7	9,5	1	1	1	1	1	1	1	1	1	0	1	-32,699084	274,833013	290,789276	0
14.01.2021	18:46:43	0	0	2,372478	4,0065	94,086	1,037	78,149	3,5	1005,52	7,6	9,7	9,5	1	1	1	1	1	1	1	1	1	0	1	-31,994362	274,998022	292,27158	0
14.01.2021	18:46:44	0	0	4,406031	4,34025	92,6496	1,042	78,16	3,5	1005,36	7,6	9,7	9,5	1	1	1	1	1	1	1	1	1	0	1	-33,262861	274,833013	290,225499	0
14.01.2021	18:46:45	0	0	4,406004	4,5975	98,4636	1,043	78,178	3,5	1005,44	7,6	9,7	9,6	1	1	1	1	1	1	1	1	1	0	1	-35,940803	274,996458	288,317766	0
14.01.2021	18:46:46	0	0	3,163304	4,5255	97,4052	1,041	78,157	3,5	1005,5	7,6	9,7	9,5	1	1	1	1	1	1	1	1	1	0	1	-33,333333	274,906004	290,498813	0
14.01.2021	18:46:47	0	0	2,598428	4,82175	94,4028	1,038	78,156	3,5	1005,46	7,6	9,7	9,5	1	1	1	1	1	1	1	1	1	0	1	-34,53136	274,998022	289,734582	0
14.01.2021	18:46:48	0	0	3,050311	4,881	106,2936	1,049	78,148	3,5	1005,44	7,6	9,7	9,6	1	1	1	1	1	1	1	1	1	0	1	-32,699084	274,823715	290,745501	0
14.01.2021	18:46:49	0	0	3,841155	4,6905	106,6788	1,047	78,142	3,5	1005,52	7,6	9,7	9,5	1	1	1	1	1	1	1	1	1	0	1	-38,75969	274,930915	285,18985	0
14.01.2021	18:46:50	0	0	2,824395	4,4865	107,0568	1,045	78,124	3,5	1005,52	7,6	9,7	9,4	1	1	1	1	1	1	1	1	1	0	1	-34,742777	275,002712	289,54529	0
14.01.2021	18:46:51	0	0	2,259503	4,43625	103,3092	1,049	78,129	3,5	1005,5	7,6	9,7	9,5	1	1	1	1	1	1	1	1	1	0	1	-29,880197	274,968341	294,245775	0
14.01.2021	18:46:52	0	0	3,163304	4,4895	102,9744	1,049	78,136	3,5	1005,62	7,6	9,7	9,5	1	1	1	1	1	1	1	1	1	0	1	-32,417195	274,837664	291,093062	0
14.01.2021	18:46:53	0	0	3,841155	4,5795	103,2948	1,049	78,105	3,5	1005,62	7,6	9,7	9,5	1	1	1	1	1	1	1	1	1	0	1	-31,219168	274,873357	292,459177	0
14.01.2021	18:46:54	0	0	3,050329	4,65525	109,6416	1,041	78,116	3,5	1005,42	7,6	9,7	9,5	1	1	1	1	1	1	1	1	1	0	1	-35,377026	274,895116	288,403819	0
14.01.2021	18:46:55	0	0	4,518979	4,5165	105,8616	1,045	78,116	3,5	1005,48	7,6	9,7	9,6	1	1	1	1	1	1	1	1	1	0	1	-32,9105	274,843867	290,628962	0
14.01.2021	18:46:56	0	0	3,615205	4,53	103,6692	1,05	78,137	3,5	1005,52	7,6	9,7	9,5	1	1	1	1	1	1	1	1	1	0	1	-35,024665	274,983957	289,174943	0
14.01.2021	18:46:57	0	0	3,050329	4,87725	94,7772	1,052	78,144	3,5	1005,64	7,6	9,7	9,5	1	1	1	1	1	1	1	1	1	0	1	-32,487667	274,842316	291,044493	0
14.01.2021	18:46:58	0	0	2,937354	4,968	99,8748	1,048	78,127	3,5	1005,5	7,6	9,7	9,5	1	1	1	1	1	1	1	1	1	0	1	-30,655391	274,873357	293,022955	0
14.01.2021	18:46:59	0	0	3,841155	5,13	97,7076	1,053	78,119	3,5	1005,46	7,6	9,7	9,5	1	1	1	1	1	1	1	1	1	0	1	-28,893587	274,957418	295,180883	0
14.01.2021	18:47:00	0	0	3,728157	4,97325	102,5676	1,051	78,106	3,5	1005,46	7,6	9,7	9,6	1	1	1	1	1	1	1	1	1	0	1	-32,769556	274,962098	291,326983	0
14.01.2021	18:47:01	0	0	3,728157	4,97325	102,5676	1,051	78,106	3,5	1005,46	7,6	9,7	9,6	1	1	1	1	1	1	1	1	1	0	1	-32,769556	274,962098	291,326983	0
14.01.2021	18:47:02	0	0	3,276279	4,79025	95,526	1,056	78,123	3,5	1005,5	7,6	9,7	9,5	1	1	1	1	1	1	1	1	1	0	1	-34,954193	274,977709	289,215953	0
14.01.2021	18:47:03	0	0	4,293055	4,86825	97,7112	1,051	78,104	3,5	1005,44	7,6	9,6	9,5	1	1	1	1	1	1	1	1	1	0	1	-32,699084	275,026182	291,699702	0
14.01.2021	18:47:04	0	0	3,163304	4,72875	98,0676	1,05	78,115	3,5	1005,46	7,6	9,7	9,5	1	1	1	1	1	1	1	1	1	0	1	-35,51797	274,913785	288,350842	0
14.01.2021	18:47:05	0	0	3,502229	4,41675	96,9876	1,045	78,104	3,5	1005,5	7,6	9,7	9,5	1	1	1	1	1	1	1	1	1	0	1	-34,249471	275,002712	290,038595	0
14.01.2021	18:47:06	0	0	4,406004	4,25475	97,3116	1,053	78,101	3,5	1005,64	7,6	9,7	9,6	1	1	1	1	1	1	1	1	1	0	1	-36,222692	275,027748	288,18348	0
14.01.2021	18:47:07	0	0	4,406031	4,19625	96,5772	1,053	78,075	3,5	1005,6	7,6	9,7	9,5	1	1	1	1	1	1	1	1	1	0	1	-31,994362	274,895116	291,786483	0
14.01.2021	18:47:08	0	0	4,970906	4,1145	90,0036	1,044	78,077	3,5	1005,5	7,6	9,7	9,5	1	1	1	1	1	1	1	1	1	0	1	-31,501057	275,013661	292,838658	0
14.01.2021	18:47:09	0	0	3,95413	4,08375	90,7596	1,058	78,08	3,5	1005,48	7,6	9,7	9,5	1	1	1	1	1	1	1	1	1	0	1	-33,826638	274,938706	290,159624	0
14.01.2021	18:47:10	0	0	4,406057	3,81525	88,9704	1,06	78,085	3,5	1005,5	7,6	9,7	9,4	1	1	1	1	1	1	1	1	1	0	1	-33,333333	274,839215	290,184224	0
14.01.2021	18:47:11	0	0	4,744956	3,60375	97,3188	1,056	78,076	3,5	1005,58	7,6	9,6	9,5	1	1	1	1	1	1	1	1	1	0	1	-31,078224	274,837664	292,432033	0
14.01.2021	18:47:12	0	0	3,841155	3,438	97,812	1,06	78,065	3,5	1005,52	7,6	9,7	9,5	1	1	1	1	1	1	1	1	1	0	1	-31,712474	274,913785	292,156339	0
14.01.2021	18:47:13	0	0	3,72818	3,3255	91,4868	1,054	78,053	3,5	1005,58	7,6	9,7	9,5	1	1	1	1	1	1	1	1	1	0	1	-36,222692	274,859383	287,389835	0
14.01.2021	18:47:14	0	0	3,389254	3,32775	91,8864	1,058	78,048	3,5	1005,4	7,6	9,7	9,5	1	1	1	1	1	1	1	1	1	0	1	-37,491191	274,899781	286,311636	0
14.01.2021	18:47:15	0	0	3,389234	3,4245	88,9344	1,062	78,048	3,5	1005,5	7,6	9,7	9,6	1	1	1	1	1	1	1	1	1	0	1	-35,588443	274,909116	288,258368	0
14.01.2021	18:47:16	0	0	2,937354	3,6825	91,5264	1,06	78,039	3,5	1005,4	7,6	9,7	9,5	1	1	1	1	1	1	1	1	1	0	1	-29,175476	274,850072	294,393204	0
14.01.2021	18:47:17	0	0	4,970906	4,06725	92,6568	1,06	78,037	3,5	1005,58	7,6	9,6	9,5	1	1	1	1	1	1	1	1	1	0	1	-33,685694	274,969902	290,447639	0
14.01.2021	18:47:18	0	0	5,196888	4,57425	96,9516	1,063	78,026	3,5	1005,46	7,6	9,7	9,4	1	1	1	1	1	1	1	1	1	0	1	-34,108527	274,845418	289,438239	0
14.01.2021	18:47:19	0	0	2,71142	4,887	101,5668	1,067	78,016	3,5	1005,56	7,6	9,7	9,4	1	1	1	1	1	1	1	1	1	0	1	-32,205779	274,85783	291,399439	0
14.01.2021	18:47:20	0	0	2,259503	4,88025	109,9872	1,061	78,006	3,5	1005,62	7,6	9,7	9,5	1	1	1	1	1	1	1	1	1	0	1	-35,940803	275,018356	288,421058	0
14.01.2021	18:47:21	0	0	4,744956	4,6695	111,0528	1,062	78,012	3,5	1005,56	7,6	9,6	9,5	1	1	1	1	1	1	1	1	1	0	1	-33,474278	274,871804	290,196752	0
14.01.2021	18:47:22	0	0	3,502229	4,51875	106,2684	1,067	77,99	3,5	1005,48	7,6	9,7	9,5	1	1	1	1	1	1	1	1	1	0	1	-29,950669	274,962098	294,145869	0
14.01.2021	18:47:23	0	0	4,406031	4,36575	103,6836	1,063	77,989	3,5	1005,58	7,6	9,7	9,5	1	1	1	1	1	1	1	1	1	0	1	-32,769556	274,873357	290,90879	0
14.01.2021	18:47:24	0	0	3,276279	4,23825	102,9492	1,063	77,971	3,5	1005,52	7,6	9,7	9,5	1	1	1	1	1	1	1	1	1	0	1	-31,430585	274,996458	292,827984	0
14.01.2021	18:47:25	0	0	3,276279	4,19475	103,6872	1,066	77,968	3,5	1005,56	7,6	9,7	9,5	1	1	1	1	1	1	1	1	1	0	1	-30,443975	274,867145	293,205111	0
14.01.2021	18:47:26	0	0	4,067081	4,2375	104,7168	1,068	77,951	3,5	1005,46	7,6	9,6	9,6	1	1	1	1	1	1	1	1	1	0	1	-38,618746	274,990207	285,610338	0
14.01.2021	18:47:27	0	0	3,615226	4,19025	100,7604	1,068	77,95	3,5	1005,56	7,6	9,7	9,4	1	1	1	1	1	1	1	1	1	0	1	-35,51797	275,040278	288,947324	0
14.01.2021	18:47:28	0	0	4,18008	4,23825	95,1444	1,067	77,95	3,5	1005,4	7,6	9,7	9,5	1	1	1	1	1	1	1	1	1	0	1	-35,940803	275,040278	288,524491	0
14.01.2021	18:47:29	0	0	4,519006	4,4445	96,9696	1,07	77,95	3,5	1005,46	7,6	9,6	9,5	1	1	1	1	1	1	1	1	1	0	1	-34,108527	274,902892	289,708958	0
14.01.2021	18:47:30	0	0	2,937336	4,4535	98,8704	1,069	77,947	3,5	1005,58	7,6	9,7	9,6	1	1	1	1	1	1	1	1	1	0	1	-32,205779	274,867145	291,443307	0
14.01.2021	18:47:31	0	0	4,857902	4,215	108,2088	1,069	77,926	3,5	1005,4	7,6	9,7	9,6	1	1	1	1	1	1	1	1	1	0	1	-31,289641	274,980833	292,895235	0
14.01.2021	18:47:32	0	0	3,615226	3,921	107,0532	1,067	77,916	3,5	1005,44	7,6	9,7	9,4	1	1	1	1	1	1	1	1	1	0	1	-33,967583	274,874911	289,71808	0
14.01.2021	18:47:33	0	0	4,406057	3,66075	109,9656	1,07	77,916	3,5	1005,5	7,6	9,7	9,4	1	1	1	1	1	1	1	1	1	0	1	-34,53136	275,018356	289,830501	0
14.01.2021	18:47:34	0	0	5,083881	3,2775	113,0112	1,07	77,903	3,5	1005,56	7,6	9,6	9,5	1	1	1	1	1	1	1	1	1	0	1	-34,813249	274,962098	289,28329	0
14.01.2021	18:47:35	0	0	4,744927	3,207	93,7152	1,076	77,898	3,5	1005,66	7,6	9,7	9,6	1	1	1	1	1	1	1	1	1	0	1	-34,53136	274,871804	289,13967	0
14.01.2021	18:47:36	0	0	3,050311	3,39075	87,7356	1,075	77,881	3,5	1005,6	7,6	9,7	9,6	1	1	1	1	1	1	1	1	1	0	1	-31,430585	274,951178	292,614471	0
14.01.2021	18:47:37	0	0	2,485468	3,6885	98,0712	1,08	77,872	3,5	1005,46	7,6	9,7	9,4	1	1	1	1	1	1	1	1	1	0	1	-36,786469	275,054384	287,745393	0
14.01.2021	18:47:38	0	0	2,937336	3,85125	96,2064	1,074	77,865	3,5	1005,66	7,6	9,7	9,6	1	1	1	1	1	1	1	1	1	0	1	-30,655391	274,913785	293,213421	0
14.01.2021	18:47:39	0	0	3,841155	3,945	89,6832	1,072	77,848	3,5	1005,52	7,6	9,7	9,5	1	1	1	1	1	1	1	1	1	0	1	-41,226216	275,046546	283,268658	0
14.01.2021	18:47:40	0	0	4,744927	4,19175	80,8848	1,074	77,842	3,5	1005,64	7,6	9,7	9,6	1	1	1	1	1	1	1	1	1	0	1	-32,135307	274,867145	291,513779	0
14.01.2021	18:47:41	0	0	2,824395	4,31025	92,9664	1,075	77,845	3,5	1005,52	7,6	9,7	9,4	1	1	1	1	1	1	1	1	1	0	1	-37,702607	274,932473	286,254275	0
14.01.2021	18:47:42	0	0	2,711387	4,2945	90,0216	1,078	77,838	3,5	1005,52	7,6	9,7	9,6	1	1	1	1	1	1	1	1	1	0	1	-38,548273	274,892006	285,21792	0
14.01.2021	18:47:43	0	0	4,406031	4,16925	88,5816	1,08	77,827	3,5	1005,46	7,6	9,7	9,5	1	1	1	1	1	1	1	1	1	0	1	-33,54475	274,982395	290,647492	0
14.01.2021	18:47:44	0	0	4,519006	3,7455	79,7724	1,082	77,814	3,5	1005,42	7,6	9,7	9,5	1	1	1	1	1	1	1	1	1	0	1	-30,93728	274,882679	292,784977	0
14.01.2021	18:47:45	0	0	4,067129	3,588	77,9508	1,082	77,804	3,5	1005,5	7,6	9,7	9,4	1	1	1	1	1	1	1	1	1	0	1	-34,883721	275,05752	289,662943	0
14.01.2021	18:47:46	0	0	2,372478	3,35925	76,806	1,082	77,791	3,5	1005,48	7,6	9,6	9,5	1	1	1	1	1	1	1	1	1	0	1	-33,897111	274,9465	290,125893	0
14.01.2021	18:47:47	0	0	3,163285	3,02025	102,9312	1,082	77,78	3,5	1005,36	7,6	9,7	9,6	1	1	1	1	1	1	1	1	1	0	1	-30,584919	275,055952	293,954344	0
14.01.2021	18:47:48	0	0	4,067081	2,856	81,972	1,081	77,767	3,5	1005,48	7,6	9,6	9,6	1	1	1	1	1	1	1	1	1	0	1	-38,407329	275,021486	285,9693	0
14.01.2021	18:47:49	0	0	3,050329	2,75625	95,6412	1,086	77,759	3,5	1005,58	7,6	9,7	9,5	1	1	1	1	1	1	1	1	1	0	1	-33,756166	274,887342	289,988056	0
14.01.2021	18:47:50	0	0	4,293055	2,781	96,2208	1,09	77,732	3,5	1005,5	7,6	9,7	9,5	1	1	1	1	1	1	1	1	1	0	1	-32,205779	275,015226	292,141318	0
14.01.2021	18:47:51	0	0	3,95413	2,937	97,6824	1,086	77,717	3,5	1005,48	7,6	9,6	9,5	1	1	1	1	1	1	1	1	1	0	1	-33,967583	274,958978	290,114243	0
14.01.2021	18:47:52	0	0	3,502229	3,13725	98,55	1,087	77,713	3,5	1005,52	7,6	9,6	9,5	1	1	1	1	1	1	1	1	1	0	1	-35,377026	274,920012	288,521132	0
14.01.2021	18:47:53	0	0	2,824379	3,2235	95,148	1,086	77,687	3,5	1005,44	7,6	9,7	9,5	1	1	1	1	1	1	1	1	1	0	1	-33,54475	274,887342	290,199472	0
14.01.2021	18:47:54	0	0	3,50225	3,14175	112,2624	1,093	77,681	3,5	1005,46	7,6	9,6	9,4	1	1	1	1	1	1	1	1	1	0	1	-34,954193	274,969902	289,17914	0
14.01.2021	18:47:55	0	0	2,711403	3,387	109,2276	1,09	77,647	3,5	1005,48	7,6	9,7	9,5	1	1	1	1	1	1	1	1	1	0	1	-29,809725	274,871804	293,861305	0
14.01.2021	18:47:56	0	0	2,937354	3,666	99,1008	1,091	77,628	3,5	1005,54	7,6	9,6	9,5	1	1	1	1	1	1	1	1	1	0	1	-33,897111	274,991769	290,339343	0
14.01.2021	18:47:57	0	0	3,615205	3,69075	113,4144	1,088	77,597	3,5	1005,44	7,6	9,7	9,5	1	1	1	1	1	1	1	1	1	0	1	-32,205779	275,0685	292,392711	0
14.01.2021	18:47:58	0	0	3,615183	3,41925	109,9548	1,087	77,593	3,5	1005,6	7,6	9,7	9,6	1	1	1	1	1	1	1	1	1	0	1	-36,081748	275,027748	288,324425	0
14.01.2021	18:47:59	0	0	4,857902	3,312	108,4752	1,093	77,608	3,5	1005,5	7,6	9,7	9,6	1	1	1	1	1	1	1	1	1	0	1	-35,095137	275,002712	289,192929	0
14.01.2021	18:48:00	0	0	2,711403	3,29775	109,9872	1,096	77,573	3,5	1005,58	7,6	9,7	9,5	1	1	1	1	1	1	1	1	1	0	1	-32,628612	275,007404	291,681586	0
14.01.2021	18:48:01	0	0	2,711403	3,29775	109,9872	1,096	77,573	3,5	1005,58	7,6	9,7	9,5	1	1	1	1	1	1	1	1	1	0	1	-32,628612	275,007404	291,681586	0
14.01.2021	18:48:02	0	0	3,163285	3,20925	105,4944	1,095	77,55	3,5	1005,56	7,6	9,7	9,6	1	1	1	1	1	1	1	1	1	0	1	-30,162086	275,065362	294,421592	0
14.01.2021	18:48:03	0	0	3,72818	3,27375	98,1072	1,091	77,541	3,5	1005,4	7,6	9,7	9,5	1	1	1	1	1	1	1	1	1	0	1	-38,407329	274,980833	285,777547	0
14.01.2021	18:48:04	0	0	4,293081	3,495	102,5532	1,093	77,53	3,5	1005,52	7,6	9,7	9,4	1	1	1	1	1	1	1	1	1	0	1	-36,011276	275,027748	288,394897	0
14.01.2021	18:48:05	0	0	3,95413	3,9345	102,9348	1,093	77,494	3,5	1005,44	7,6	9,7	9,5	1	1	1	1	1	1	1	1	1	0	1	-28,611698	275,071638	296,001605	0
14.01.2021	18:48:06	0	0	4,406031	3,9915	92,2752	1,091	77,499	3,5	1005,48	7,6	9,7	9,5	1	1	1	1	1	1	1	1	1	0	1	-32,135307	274,980833	292,049569	0
14.01.2021	18:48:07	0	0	3,72818	4,07025	75,9816	1,093	77,5	3,5	1005,48	7,6	9,7	9,5	1	1	1	1	1	1	1	1	1	0	1	-34,601832	275,066931	289,989251	0
14.01.2021	18:48:08	0	0	2,372478	4,209	86,9868	1,097	77,487	3,5	1005,44	7,6	9,7	9,5	1	1	1	1	1	1	1	1	1	0	1	-33,192389	274,915342	290,683759	0
14.01.2021	18:48:09	0	0	2,937336	4,2585	88,0956	1,092	77,478	3,5	1005,32	7,6	9,6	9,6	1	1	1	1	1	1	1	1	1	0	1	-31,994362	275,016791	292,360116	0
14.01.2021	18:48:10	0	0	4,519006	4,107	86,2848	1,098	77,483	3,5	1005,44	7,6	9,7	9,5	1	1	1	1	1	1	1	1	1	0	1	-35,729387	275,073207	288,891325	0
14.01.2021	18:48:11	0	0	4,519006	4,27425	94,7592	1,099	77,481	3,5	1005,48	7,6	9,7	9,5	1	1	1	1	1	1	1	1	1	0	1	-36,222692	275,008968	288,094884	0
14.01.2021	18:48:12	0	0	2,937354	4,3725	94,1148	1,101	77,461	3,5	1005,32	7,6	9,7	9,5	1	1	1	1	1	1	1	1	1	0	1	-34,108527	275,076347	290,527003	0
14.01.2021	18:48:13	0	0	4,519006	4,30425	91,5192	1,104	77,461	3,5	1005,46	7,6	9,7	9,5	1	1	1	1	1	1	1	1	1	0	1	-35,095137	275,041845	289,377551	0
14.01.2021	18:48:14	0	0	4,067129	4,1175	95,2236	1,099	77,451	3,5	1005,42	7,6	9,7	9,4	1	1	1	1	1	1	1	1	1	0	1	-34,460888	274,909116	289,385923	0
14.01.2021	18:48:15	0	0	3,728157	3,95925	93,3444	1,095	77,438	3,5	1005,52	7,6	9,7	9,6	1	1	1	1	1	1	1	1	1	0	1	-31,078224	275,054384	293,453639	0
14.01.2021	18:48:16	0	0	2,598428	4,04025	101,8044	1,099	77,422	3,5	1005,54	7,6	9,7	9,5	1	1	1	1	1	1	1	1	1	0	1	-32,276251	275,008968	292,041325	0
14.01.2021	18:48:17	0	0	4,293055	3,85125	90,036	1,099	77,412	3,5	1005,42	7,6	9,7	9,5	1	1	1	1	1	1	1	1	1	0	1	-32,9105	275,05752	291,636163	0
14.01.2021	18:48:18	0	0	4,067105	3,83025	90,0144	1,102	77,407	3,5	1005,56	7,6	9,7	9,5	1	1	1	1	1	1	1	1	1	0	1	-32,55814	274,881125	291,156797	0
14.01.2021	18:48:19	0	0	4,067105	4,03125	101,52	1,099	77,407	3,5	1005,5	7,6	9,7	9,5	1	1	1	1	1	1	1	1	1	0	1	-36,081748	274,932473	287,875135	0
14.01.2021	18:48:20	0	0	4,406004	4,0695	85,5324	1,1	77,398	3,5	1005,52	7,6	9,6	9,6	1	1	1	1	1	1	1	1	1	0	1	-31,007752	275,071638	293,605551	0
14.01.2021	18:48:21	0	0	3,389234	4,0215	95,5152	1,102	77,393	3,5	1005,48	7,6	9,7	9,6	1	1	1	1	1	1	1	1	1	0	1	-32,276251	274,924684	291,643923	0
14.01.2021	18:48:22	0	0	2,598428	4,17075	101,8008	1,103	77,373	3,5	1005,56	7,6	9,7	9,5	1	1	1	1	1	1	1	1	1	0	1	-33,262861	274,979271	290,914649	0
14.01.2021	18:48:23	0	0	3,615226	4,116	101,52	1,101	77,366	3,5	1005,48	7,6	9,7	9,4	1	1	1	1	1	1	1	1	1	0	1	-34,460888	274,910672	289,393256	0
14.01.2021	18:48:24	0	0	4,29303	3,9105	101,1204	1,101	77,349	3,5	1005,54	7,6	9,7	9,6	1	1	1	1	1	1	1	1	1	0	1	-35,447498	275,034012	288,98823	0
14.01.2021	18:48:25	0	0	3,95413	3,73725	107,8488	1,101	77,361	3,5	1005,58	7,6	9,7	9,5	1	1	1	1	1	1	1	1	1	0	1	-37,209302	275,041845	287,263386	0
14.01.2021	18:48:26	0	0	3,163304	3,85425	102,924	1,102	77,365	3,5	1005,54	7,6	9,7	9,5	1	1	1	1	1	1	1	1	1	0	1	-34,319944	274,890451	289,438925	0
14.01.2021	18:48:27	0	0	2,711403	3,9705	100,368	1,097	77,334	3,5	1005,54	7,6	9,7	9,5	1	1	1	1	1	1	1	1	1	0	1	-32,980973	275,026182	291,417813	0
14.01.2021	18:48:28	0	0	4,293081	4,11225	103,3128	1,098	77,328	3,5	1005,48	7,6	9,7	9,4	1	1	1	1	1	1	1	1	1	0	1	-31,853418	275,073207	292,767294	0
14.01.2021	18:48:29	0	0	3,050329	4,2645	103,2732	1,101	77,325	3,5	1005,6	7,6	9,7	9,5	1	1	1	1	1	1	1	1	1	0	1	-35,024665	274,892006	288,741528	0
14.01.2021	18:48:30	0	0	2,711387	4,218	105,8832	1,101	77,33	3,5	1005,56	7,6	9,7	9,6	1	1	1	1	1	1	1	1	1	0	1	-34,954193	275,019921	289,415051	0
14.01.2021	18:48:31	0	0	2,937336	4,40475	108,1188	1,102	77,338	3,5	1005,48	7,6	9,6	9,6	1	1	1	1	1	1	1	1	1	0	1	-34,601832	275,077916	290,041108	0
14.01.2021	18:48:32	0	0	2,937354	4,71075	109,9764	1,103	77,325	3,5	1005,62	7,6	9,7	9,5	1	1	1	1	1	1	1	1	1	0	1	-36,293164	274,938706	287,693098	0
14.01.2021	18:48:33	0	0	3,276259	4,75575	101,8332	1,1	77,317	3,5	1005,4	7,6	9,6	9,6	1	1	1	1	1	1	1	1	1	0	1	-34,108527	275,077916	290,534413	0
14.01.2021	18:48:34	0	0	2,598444	4,491	100,764	1,105	77,324	3,5	1005,54	7,6	9,7	9,4	1	1	1	1	1	1	1	1	1	0	1	-34,249471	274,930915	289,700068	0
14.01.2021	18:48:35	0	0	4,970936	4,19775	107,0352	1,102	77,318	3,5	1005,52	7,6	9,6	9,4	1	1	1	1	1	1	1	1	1	0	1	-31,148696	275,002712	293,13937	0
14.01.2021	18:48:36	0	0	4,857902	4,10025	103,698	1,109	77,313	3,5	1005,5	7,6	9,7	9,6	1	1	1	1	1	1	1	1	1	0	1	-34,813249	275,071638	289,800055	0
14.01.2021	18:48:37	0	0	3,954106	4,1565	113,4	1,104	77,326	3,5	1005,44	7,6	9,6	9,6	1	1	1	1	1	1	1	1	1	0	1	-34,460888	274,930915	289,488652	0
14.01.2021	18:48:38	0	0	3,72818	4,26375	110,3724	1,097	77,319	3,5	1005,46	7,6	9,7	9,5	1	1	1	1	1	1	1	1	1	0	1	-32,55814	275,026182	291,840646	0
14.01.2021	18:48:39	0	0	2,711403	4,19475	108,846	1,104	77,333	3,5	1005,56	7,6	9,7	9,5	1	1	1	1	1	1	1	1	1	0	1	-33,262861	274,896671	290,52531	0
14.01.2021	18:48:40	0	0	2,259503	4,0845	112,2768	1,1	77,327	3,5	1005,54	7,6	9,7	9,5	1	1	1	1	1	1	1	1	1	0	1	-32,980973	275,060656	291,580495	0
14.01.2021	18:48:41	0	0	3,954106	3,94725	101,7972	1,104	77,304	3,5	1005,42	7,6	9,7	9,6	1	1	1	1	1	1	1	1	1	0	1	-39,675828	275,066931	284,915256	0
14.01.2021	18:48:42	0	0	4,857902	3,70425	107,4348	1,101	77,313	3,5	1005,38	7,6	9,7	9,6	1	1	1	1	1	1	1	1	1	0	1	-31,642001	274,990207	292,587082	0
14.01.2021	18:48:43	0	0	4,857902	3,4995	108,5148	1,107	77,336	3,5	1005,26	7,6	9,7	9,6	1	1	1	1	1	1	1	1	1	0	1	-31,430585	274,916899	292,452899	0
14.01.2021	18:48:44	0	0	4,744956	3,567	103,392	1,102	77,331	3,5	1005,42	7,6	9,7	9,5	1	1	1	1	1	1	1	1	1	0	1	-36,504581	275,029314	287,90898	0
14.01.2021	18:48:45	0	0	2,485438	3,84675	103,6404	1,103	77,325	3,5	1005,26	7,6	9,7	9,6	1	1	1	1	1	1	1	1	1	0	1	-33,54475	275,035578	290,898369	0
14.01.2021	18:48:46	0	0	3,615205	4,13175	107,4168	1,107	77,323	3,5	1005,56	7,6	9,7	9,5	1	1	1	1	1	1	1	1	1	0	1	-33,333333	275,048113	291,168936	0
14.01.2021	18:48:47	0	0	2,937336	4,13325	106,3584	1,105	77,328	3,5	1005,54	7,6	9,7	9,6	1	1	1	1	1	1	1	1	1	0	1	-34,178999	274,944941	289,836654	0
14.01.2021	18:48:48	0	0	3,502208	4,07175	96,2172	1,1	77,331	3,5	1005,44	7,6	9,7	9,6	1	1	1	1	1	1	1	1	1	0	1	-31,007752	274,898226	292,787747	0
14.01.2021	18:48:49	0	0	4,293055	4,1355	98,7552	1,106	77,329	3,5	1005,46	7,6	9,7	9,5	1	1	1	1	1	1	1	1	1	0	1	-33,826638	275,046546	290,668235	0
14.01.2021	18:48:50	0	0	3,389234	4,31175	102,9672	1,104	77,332	3,5	1005,6	7,6	9,7	9,6	1	1	1	1	1	1	1	1	1	0	1	-30,021142	274,974586	294,134277	0
14.01.2021	18:48:51	0	0	4,067129	4,37325	101,6136	1,099	77,313	3,5	1005,5	7,6	9,7	9,4	1	1	1	1	1	1	1	1	1	0	1	-36,081748	275,095192	288,642753	0
14.01.2021	18:48:52	0	0	2,824362	4,45725	95,8032	1,107	77,328	3,5	1005,64	7,6	9,6	9,6	1	1	1	1	1	1	1	1	1	0	1	-34,813249	275,034012	289,622479	0
14.01.2021	18:48:53	0	0	3,502229	4,2525	101,1312	1,108	77,327	3,5	1005,48	7,6	9,7	9,5	1	1	1	1	1	1	1	1	1	0	1	-33,685694	274,918455	290,205126	0
14.01.2021	18:48:54	0	0	3,163285	4,27725	108,8604	1,109	77,308	3,5	1005,62	7,6	9,7	9,6	1	1	1	1	1	1	1	1	1	0	1	-36,715997	275,048113	287,786273	0
14.01.2021	18:48:55	0	0	3,841155	4,2195	107,0352	1,11	77,319	3,5	1005,5	7,6	9,7	9,5	1	1	1	1	1	1	1	1	1	0	1	-39,534884	274,960538	284,554298	0
14.01.2021	18:48:56	0	0	4,631981	4,185	105,8724	1,11	77,31	3,5	1005,44	7,6	9,7	9,5	1	1	1	1	1	1	1	1	1	0	1	-35,024665	275,098334	289,714674	0
14.01.2021	18:48:57	0	0	4,744956	4,0005	101,79	1,107	77,298	3,5	1005,64	7,6	9,7	9,5	1	1	1	1	1	1	1	1	1	0	1	-34,672304	274,951178	289,372752	0
14.01.2021	18:48:58	0	0	3,841132	4,06575	96,9768	1,11	77,298	3,5	1005,56	7,6	9,7	9,6	1	1	1	1	1	1	1	1	1	0	1	-31,501057	274,909116	292,345754	0
14.01.2021	18:48:59	0	0	3,615183	3,9705	108,198	1,111	77,307	3,5	1005,56	7,6	9,7	9,6	1	1	1	1	1	1	1	1	1	0	1	-36,081748	275,004276	288,213695	0
14.01.2021	18:49:00	0	0	3,163323	3,51525	107,046	1,108	77,279	3,5	1005,42	7,6	9,7	9,4	1	1	1	1	1	1	1	1	1	0	1	-35,377026	274,930915	288,572514	0
14.01.2021	18:49:01	0	0	3,163323	3,51525	107,046	1,108	77,279	3,5	1005,42	7,6	9,7	9,4	1	1	1	1	1	1	1	1	1	0	1	-35,377026	274,930915	288,572514	0
14.01.2021	18:49:02	0	0	2,485453	3,55575	105,4692	1,108	77,286	3,5	1005,48	7,6	9,7	9,5	1	1	1	1	1	1	1	1	1	0	1	-32,769556	275,029314	291,644004	0
14.01.2021	18:49:03	0	0	4,18008	3,55575	100,3752	1,113	77,275	3,5	1005,46	7,6	9,7	9,5	1	1	1	1	1	1	1	1	1	0	1	-39,675828	275,055952	284,863435	0
14.01.2021	18:49:04	0	0	4,518979	3,471	104,058	1,114	77,268	3,5	1005,42	7,6	9,6	9,6	1	1	1	1	1	1	1	1	1	0	1	-35,16561	275,016791	289,188869	0
14.01.2021	18:49:05	0	0	4,293055	3,29025	126,864	1,115	77,254	3,5	1005,32	7,6	9,7	9,5	1	1	1	1	1	1	1	1	1	0	1	-30,232558	275,090479	294,46969	0
14.01.2021	18:49:06	0	0	4,518979	3,13875	117,1368	1,119	77,262	3,5	1005,52	7,6	9,7	9,6	1	1	1	1	1	1	1	1	1	0	1	-31,642001	275,034012	292,793726	0
14.01.2021	18:49:07	0	0	3,954106	3,165	113,436	1,107	77,253	3,5	1005,56	7,6	9,7	9,6	1	1	1	1	1	1	1	1	1	0	1	-33,333333	275,076347	291,302196	0
14.01.2021	18:49:08	0	0	3,276259	3,23025	96,1704	1,112	77,242	3,5	1005,44	7,6	9,7	9,6	1	1	1	1	1	1	1	1	1	0	1	-33,262861	274,913785	290,605951	0
14.01.2021	18:49:09	0	0	4,29303	3,72225	95,13	1,114	77,248	3,5	1005,56	7,6	9,7	9,6	1	1	1	1	1	1	1	1	1	0	1	-30,584919	274,929357	293,357278	0
14.01.2021	18:49:10	0	0	3,841155	3,9195	92,9556	1,114	77,237	3,5	1005,4	7,6	9,6	9,5	1	1	1	1	1	1	1	1	1	0	1	-34,53136	275,088908	290,163472	0
14.01.2021	18:49:11	0	0	5,083881	4,02075	95,5008	1,116	77,239	3,5	1005,58	7,6	9,7	9,5	1	1	1	1	1	1	1	1	1	0	1	-32,699084	275,044979	291,788394	0
14.01.2021	18:49:12	0	0	4,631981	4,33125	99,1728	1,115	77,229	3,5	1005,42	7,6	9,7	9,5	1	1	1	1	1	1	1	1	1	0	1	-33,897111	275,035578	290,546008	0
14.01.2021	18:49:13	0	0	4,29303	4,45575	94,8708	1,114	77,22	3,5	1005,52	7,6	9,7	9,6	1	1	1	1	1	1	1	1	1	0	1	-32,699084	275,082626	291,966091	0
14.01.2021	18:49:14	0	0	4,406031	4,32975	106,2756	1,117	77,209	3,5	1005,4	7,6	9,7	9,5	1	1	1	1	1	1	1	1	1	0	1	-32,840028	274,994895	291,411168	0
14.01.2021	18:49:15	0	0	3,615226	4,155	102,5748	1,11	77,178	3,5	1005,56	7,6	9,7	9,4	1	1	1	1	1	1	1	1	1	0	1	-34,53136	274,898226	289,264139	0
14.01.2021	18:49:16	0	0	3,276259	3,82125	83,7036	1,116	77,187	3,5	1005,36	7,6	9,7	9,6	1	1	1	1	1	1	1	1	1	0	1	-31,289641	274,934031	292,674586	0
14.01.2021	18:49:17	0	0	4,406031	3,71925	97,3836	1,116	77,175	3,5	1005,4	7,6	9,6	9,5	1	1	1	1	1	1	1	1	1	0	1	-32,980973	274,918455	290,909848	0
14.01.2021	18:49:18	0	0	2,711403	3,6885	93,3444	1,118	77,182	3,5	1005,44	7,6	9,7	9,5	1	1	1	1	1	1	1	1	1	0	1	-34,038055	275,077916	290,604885	0
14.01.2021	18:49:19	0	0	2,824362	3,47475	99,126	1,117	77,178	3,5	1005,48	7,6	9,7	9,6	1	1	1	1	1	1	1	1	1	0	1	-35,236082	275,008968	289,081494	0
14.01.2021	18:49:20	0	0	4,631953	3,3525	101,1168	1,117	77,164	3,5	1005,6	7,6	9,7	9,6	1	1	1	1	1	1	1	1	1	0	1	-30,725863	274,923127	293,186971	0
14.01.2021	18:49:21	0	0	2,711403	3,2085	99,8784	1,113	77,171	3,5	1005,36	7,6	9,7	9,5	1	1	1	1	1	1	1	1	1	0	1	-32,55814	275,012097	291,774195	0
14.01.2021	18:49:22	0	0	3,163285	3,12375	92,9448	1,117	77,172	3,5	1005,58	7,6	9,7	9,6	1	1	1	1	1	1	1	1	1	0	1	-32,55814	274,915342	291,318008	0
14.01.2021	18:49:23	0	0	3,163285	3,0885	91,8612	1,114	77,157	3,5	1005,48	7,6	9,6	9,6	1	1	1	1	1	1	1	1	1	0	1	-29,034531	274,94806	294,995822	0
14.01.2021	18:49:24	0	0	2,372478	3,033	92,6604	1,111	77,135	3,5	1005,62	7,6	9,7	9,5	1	1	1	1	1	1	1	1	1	0	1	-32,417195	274,960538	291,671987	0
14.01.2021	18:49:25	0	0	2,937354	3,2385	99,522	1,115	77,151	3,5	1005,48	7,6	9,7	9,5	1	1	1	1	1	1	1	1	1	0	1	-36,575053	275,077916	288,067887	0
14.01.2021	18:49:26	0	0	3,95413	3,28125	95,8284	1,115	77,146	3,5	1005,48	7,6	9,7	9,5	1	1	1	1	1	1	1	1	1	0	1	-35,729387	275,004276	288,566056	0
14.01.2021	18:49:27	0	0	3,615205	3,45375	98,0748	1,117	77,134	3,5	1005,62	7,6	9,7	9,5	1	1	1	1	1	1	1	1	1	0	1	-35,799859	274,901337	288,010297	0
14.01.2021	18:49:28	0	0	3,72818	3,69825	104,7816	1,111	77,098	3,5	1005,46	7,6	9,7	9,5	1	1	1	1	1	1	1	1	1	0	1	-34,108527	274,941823	289,89243	0
14.01.2021	18:49:29	0	0	4,406004	3,7935	96,9516	1,117	77,116	3,5	1005,54	7,6	9,7	9,6	1	1	1	1	1	1	1	1	1	0	1	-36,645525	275,019921	287,72372	0
14.01.2021	18:49:30	0	0	3,502208	4,032	107,4312	1,114	77,103	3,5	1005,48	7,6	9,6	9,6	1	1	1	1	1	1	1	1	1	0	1	-38,477801	275,0685	286,120688	0
14.01.2021	18:49:31	0	0	3,389254	4,0125	106,3116	1,112	77,085	3,5	1005,46	7,6	9,7	9,5	1	1	1	1	1	1	1	1	1	0	1	-32,205779	274,952738	291,84663	0
14.01.2021	18:49:32	0	0	4,406004	3,93825	100,3752	1,112	77,093	3,5	1005,5	7,6	9,7	9,6	1	1	1	1	1	1	1	1	1	0	1	-32,840028	274,912229	291,02145	0
14.01.2021	18:49:33	0	0	3,72818	3,95325	102,5352	1,112	77,086	3,5	1005,56	7,6	9,7	9,5	1	1	1	1	1	1	1	1	1	0	1	-33,051445	275,049681	291,458222	0
14.01.2021	18:49:34	0	0	4,406004	3,73725	107,0388	1,112	77,077	3,5	1005,6	7,6	9,7	9,6	1	1	1	1	1	1	1	1	1	0	1	-32,980973	274,913785	290,88784	0
14.01.2021	18:49:35	0	0	3,502229	3,69825	104,4036	1,114	77,076	3,5	1005,52	7,6	9,7	9,5	1	1	1	1	1	1	1	1	1	0	1	-33,826638	274,938706	290,159624	0
14.01.2021	18:49:36	0	0	4,29303	3,73425	92,6496	1,115	77,068	3,5	1005,42	7,6	9,7	9,6	1	1	1	1	1	1	1	1	1	0	1	-33,756166	275,038711	290,701736	0
14.01.2021	18:49:37	0	0	2,824379	3,744	92,934	1,116	77,056	3,5	1005,5	7,6	9,6	9,5	1	1	1	1	1	1	1	1	1	0	1	-31,92389	274,969902	292,209443	0
14.01.2021	18:49:38	0	0	3,276259	3,5415	100,7208	1,115	77,049	3,5	1005,5	7,6	9,6	9,6	1	1	1	1	1	1	1	1	1	0	1	-31,501057	274,899781	292,30177	0
14.01.2021	18:49:39	0	0	2,711403	3,138	94,7304	1,111	77,039	3,5	1005,44	7,6	9,7	9,5	1	1	1	1	1	1	1	1	1	0	1	-37,632135	274,926242	286,295379	0
14.01.2021	18:49:40	0	0	2,598428	2,97	94,0932	1,106	77,042	3,5	1005,44	7,6	9,7	9,5	1	1	1	1	1	1	1	1	1	0	1	-32,9105	274,901337	290,899656	0
14.01.2021	18:49:41	0	0	4,406031	3,07875	93,6792	1,113	77,025	3,5	1005,52	7,6	9,7	9,5	1	1	1	1	1	1	1	1	1	0	1	-34,038055	274,893561	289,735464	0
14.01.2021	18:49:42	0	0	3,954154	3,29925	94,4748	1,113	77,034	3,5	1005,38	7,6	9,7	9,4	1	1	1	1	1	1	1	1	1	0	1	-30,796335	274,937147	293,182581	0
14.01.2021	18:49:43	0	0	3,95413	3,4965	102,2004	1,112	77,023	3,5	1005,48	7,6	9,6	9,5	1	1	1	1	1	1	1	1	1	0	1	-31,92389	275,060656	292,637577	0
14.01.2021	18:49:44	0	0	4,406031	3,8175	102,9456	1,113	77,021	3,5	1005,42	7,6	9,7	9,5	1	1	1	1	1	1	1	1	1	0	1	-31,430585	274,892006	292,335609	0
14.01.2021	18:49:45	0	0	4,18008	3,9	102,5604	1,111	77,035	3,5	1005,38	7,6	9,6	9,5	1	1	1	1	1	1	1	1	1	0	1	-35,306554	274,987081	288,907791	0
14.01.2021	18:49:46	0	0	4,067081	3,78675	104,5476	1,113	77,014	3,5	1005,36	7,6	9,7	9,6	1	1	1	1	1	1	1	1	1	0	1	-31,994362	275,073207	292,626349	0
14.01.2021	18:49:47	0	0	3,389234	3,61575	102,1716	1,111	76,999	3,5	1005,42	7,6	9,7	9,6	1	1	1	1	1	1	1	1	1	0	1	-32,064834	274,996458	292,193735	0
14.01.2021	18:49:48	0	0	4,518979	3,2445	102,9528	1,116	76,998	3,5	1005,38	7,6	9,6	9,6	1	1	1	1	1	1	1	1	1	0	1	-35,588443	275,062225	288,980428	0
14.01.2021	18:49:49	0	0	3,050311	3,0165	87,7284	1,108	77,019	3,5	1005,52	7,6	9,6	9,6	1	1	1	1	1	1	1	1	1	0	1	-38,195913	274,974586	285,959506	0
14.01.2021	18:49:50	0	0	4,631953	2,9175	101,0952	1,109	77,019	3,5	1005,52	7,6	9,6	9,6	1	1	1	1	1	1	1	1	1	0	1	-30,93728	275,063793	293,638994	0
14.01.2021	18:49:51	0	0	3,615205	2,82225	92,916	1,112	77,026	3,5	1005,42	7,6	9,7	9,5	1	1	1	1	1	1	1	1	1	0	1	-30,30303	274,90756	293,536448	0
14.01.2021	18:49:52	0	0	3,502229	2,757	82,9584	1,11	77,038	3,5	1005,46	7,6	9,7	9,5	1	1	1	1	1	1	1	1	1	0	1	-35,16561	274,96678	288,953004	0
14.01.2021	18:49:53	0	0	4,406031	2,66775	89,712	1,107	77,048	3,5	1005,48	7,6	9,7	9,5	1	1	1	1	1	1	1	1	1	0	1	-33,051445	274,887342	290,692777	0
14.01.2021	18:49:54	0	0	2,711387	2,91375	89,9892	1,108	77,049	3,5	1005,5	7,6	9,6	9,6	1	1	1	1	1	1	1	1	1	0	1	-34,319944	274,991769	289,91651	0
14.01.2021	18:49:55	0	0	4,519006	3,23475	96,9984	1,108	77,052	3,5	1005,46	7,6	9,7	9,5	1	1	1	1	1	1	1	1	1	0	1	-32,276251	275,038711	292,181651	0
14.01.2021	18:49:56	0	0	3,841155	3,82275	113,3892	1,109	77,062	3,5	1005,5	7,6	9,7	9,5	1	1	1	1	1	1	1	1	1	0	1	-35,447498	274,890451	288,311371	0
14.01.2021	18:49:57	0	0	4,631981	4,13625	95,4936	1,109	77,065	3,5	1005,5	7,6	9,7	9,5	1	1	1	1	1	1	1	1	1	0	1	-32,346723	274,955858	291,720393	0
14.01.2021	18:49:58	0	0	3,050329	3,83175	89,3304	1,107	77,077	3,5	1005,48	7,6	9,6	9,5	1	1	1	1	1	1	1	1	1	0	1	-32,487667	275,063793	292,088607	0
14.01.2021	18:49:59	0	0	3,841132	3,67575	102,2076	1,111	77,083	3,5	1005,58	7,6	9,6	9,6	1	1	1	1	1	1	1	1	1	0	1	-29,457364	274,893561	294,316154	0
14.01.2021	18:50:00	0	0	4,406004	3,582	102,1608	1,109	77,1	3,5	1005,68	7,6	9,7	9,6	1	1	1	1	1	1	1	1	1	0	1	-34,038055	275,065362	290,545623	0
14.01.2021	18:50:01	0	0	4,406004	3,582	102,1608	1,109	77,1	3,5	1005,68	7,6	9,7	9,6	1	1	1	1	1	1	1	1	1	0	1	-34,038055	275,065362	290,545623	0
14.01.2021	18:50:02	0	0	4,857902	3,567	99,5004	1,107	77,106	3,5	1005,58	7,6	9,7	9,6	1	1	1	1	1	1	1	1	1	0	1	-31,007752	274,977709	293,162394	0
14.01.2021	18:50:03	0	0	4,293055	3,80475	92,952	1,109	77,126	3,5	1005,48	7,6	9,7	9,5	1	1	1	1	1	1	1	1	1	0	1	-31,289641	274,888896	292,461905	0
14.01.2021	18:50:04	0	0	2,937354	4,056	90,0036	1,103	77,099	3,5	1005,46	7,6	9,7	9,5	1	1	1	1	1	1	1	1	1	0	1	-31,360113	275,03088	293,060836	0
14.01.2021	18:50:05	0	0	2,598428	3,9615	99,8964	1,109	77,121	3,5	1005,68	7,6	9,7	9,5	1	1	1	1	1	1	1	1	1	0	1	-36,434109	274,882679	287,288148	0
14.01.2021	18:50:06	0	0	4,29303	3,9975	85,8996	1,104	77,121	3,5	1005,54	7,6	9,7	9,6	1	1	1	1	1	1	1	1	1	0	1	-34,672304	275,026182	289,726481	0
14.01.2021	18:50:07	0	0	4,744927	4,0425	89,3484	1,107	77,111	3,5	1005,5	7,6	9,7	9,6	1	1	1	1	1	1	1	1	1	0	1	-31,642001	275,007404	292,668196	0
14.01.2021	18:50:08	0	0	3,389254	3,891	88,9668	1,11	77,123	3,5	1005,3	7,6	9,7	9,5	1	1	1	1	1	1	1	1	1	0	1	-32,135307	274,882679	291,58695	0
14.01.2021	18:50:09	0	0	3,050311	3,72	98,4492	1,107	77,121	3,5	1005,48	7,6	9,7	9,6	1	1	1	1	1	1	1	1	1	0	1	-32,417195	274,873357	291,261151	0
14.01.2021	18:50:10	0	0	3,615183	3,56475	87,3612	1,103	77,125	3,5	1005,48	7,6	9,7	9,6	1	1	1	1	1	1	1	1	1	0	1	-32,205779	275,015226	292,141318	0
14.01.2021	18:50:11	0	0	4,631953	3,57225	111,4416	1,108	77,133	3,5	1005,56	7,6	9,6	9,6	1	1	1	1	1	1	1	1	1	0	1	-33,826638	275,021486	290,54999	0
14.01.2021	18:50:12	0	0	3,615205	3,813	123,0696	1,1	77,138	3,5	1005,6	7,6	9,7	9,5	1	1	1	1	1	1	1	1	1	0	1	-36,997886	274,955858	287,06923	0
14.01.2021	18:50:13	0	0	4,18008	4,11975	121,644	1,104	77,141	3,5	1005,64	7,6	9,7	9,5	1	1	1	1	1	1	1	1	1	0	1	-34,954193	274,878018	288,746105	0
14.01.2021	18:50:14	0	0	4,631981	4,16775	112,644	1,106	77,146	3,5	1005,52	7,6	9,7	9,5	1	1	1	1	1	1	1	1	1	0	1	-34,954193	275,021486	289,422436	0
14.01.2021	18:50:15	0	0	3,954106	3,8115	116,6076	1,104	77,152	3,5	1005,42	7,6	9,7	9,6	1	1	1	1	1	1	1	1	1	0	1	-31,994362	275,03088	292,426586	0
14.01.2021	18:50:16	0	0	4,744956	3,4995	109,9836	1,103	77,156	3,5	1005,54	7,6	9,7	9,5	1	1	1	1	1	1	1	1	1	0	1	-37,843552	275,027748	286,562621	0
14.01.2021	18:50:17	0	0	2,824362	3,4395	118,6956	1,109	77,153	3,5	1005,5	7,6	9,7	9,6	1	1	1	1	1	1	1	1	1	0	1	-35,16561	275,05752	289,381054	0
14.01.2021	18:50:18	0	0	2,598428	3,3795	110,3328	1,102	77,151	3,5	1005,54	7,6	9,7	9,5	1	1	1	1	1	1	1	1	1	0	1	-35,658915	274,912229	288,202563	0
14.01.2021	18:50:19	0	0	4,29303	3,3345	120,1176	1,1	77,147	3,5	1005,5	7,6	9,7	9,6	1	1	1	1	1	1	1	1	1	0	1	-33,756166	274,980833	290,428709	0
14.01.2021	18:50:20	0	0	2,71142	3,4365	121,6368	1,101	77,151	3,5	1005,46	7,6	9,7	9,4	1	1	1	1	1	1	1	1	1	0	1	-36,575053	275,048113	287,927217	0
14.01.2021	18:50:21	0	0	3,276299	3,51375	115,9524	1,105	77,154	3,5	1005,42	7,6	9,6	9,4	1	1	1	1	1	1	1	1	1	0	1	-33,474278	274,944941	290,541376	0
14.01.2021	18:50:22	0	0	3,72818	3,5475	107,0928	1,103	77,149	3,5	1005,58	7,6	9,6	9,5	1	1	1	1	1	1	1	1	1	0	1	-35,870331	274,895116	287,910514	0
14.01.2021	18:50:23	0	0	3,276259	3,924	127,5912	1,099	77,158	3,5	1005,56	7,6	9,7	9,6	1	1	1	1	1	1	1	1	1	0	1	-31,994362	274,943382	292,013943	0
14.01.2021	18:50:24	0	0	3,163304	3,87825	106,6608	1,099	77,154	3,5	1005,44	7,6	9,7	9,5	1	1	1	1	1	1	1	1	1	0	1	-32,628612	274,882679	291,093645	0
14.01.2021	18:50:25	0	0	2,937354	4,04475	107,046	1,094	77,152	3,5	1005,36	7,6	9,6	9,5	1	1	1	1	1	1	1	1	1	0	1	-31,360113	274,965219	292,751142	0
14.01.2021	18:50:26	0	0	4,518979	4,3575	107,7372	1,104	77,163	3,5	1005,5	7,6	9,6	9,6	1	1	1	1	1	1	1	1	1	0	1	-31,501057	275,038711	292,956845	0
14.01.2021	18:50:27	0	0	4,067105	4,4325	102,9096	1,099	77,157	3,5	1005,68	7,6	9,7	9,5	1	1	1	1	1	1	1	1	1	0	1	-32,417195	275,032446	292,011143	0
14.01.2021	18:50:28	0	0	3,72818	4,13325	105,8976	1,101	77,17	3,5	1005,52	7,6	9,7	9,5	1	1	1	1	1	1	1	1	1	0	1	-31,289641	275,002712	292,998426	0
14.01.2021	18:50:29	0	0	3,615183	3,7695	116,334	1,098	77,171	3,5	1005,5	7,6	9,6	9,6	1	1	1	1	1	1	1	1	1	0	1	-35,236082	275,051248	289,280983	0
14.01.2021	18:50:30	0	0	3,050311	3,55275	102,1896	1,103	77,17	3,5	1005,62	7,6	9,6	9,6	1	1	1	1	1	1	1	1	1	0	1	-30,866808	274,991769	293,369646	0
14.01.2021	18:50:31	0	0	4,29303	3,54225	97,3152	1,098	77,173	3,5	1005,6	7,6	9,7	9,6	1	1	1	1	1	1	1	1	1	0	1	-32,135307	275,048113	292,366963	0
14.01.2021	18:50:32	0	0	4,293055	3,76875	111,8196	1,101	77,165	3,5	1005,3	7,6	9,6	9,5	1	1	1	1	1	1	1	1	1	0	1	-30,725863	274,916899	293,15762	0
14.01.2021	18:50:33	0	0	4,519006	4,08975	108,8892	1,098	77,176	3,5	1005,4	7,6	9,7	9,5	1	1	1	1	1	1	1	1	1	0	1	-35,447498	274,988644	288,774215	0
14.01.2021	18:50:34	0	0	2,824379	4,485	104,0508	1,099	77,155	3,5	1005,32	7,6	9,7	9,5	1	1	1	1	1	1	1	1	1	0	1	-37,13883	274,86404	286,49563	0
14.01.2021	18:50:35	0	0	2,824379	4,70175	100,3644	1,1	77,163	3,5	1005,48	7,6	9,7	9,5	1	1	1	1	1	1	1	1	1	0	1	-33,051445	275,001149	291,229247	0
14.01.2021	18:50:36	0	0	3,72818	4,8585	104,0544	1,095	77,165	3,5	1005,46	7,6	9,6	9,5	1	1	1	1	1	1	1	1	1	0	1	-35,16561	274,954298	288,894152	0
14.01.2021	18:50:37	0	0	2,146515	5,148	93,7008	1,097	77,175	3,5	1005,54	7,6	9,7	9,6	1	1	1	1	1	1	1	1	1	0	1	-34,672304	274,874911	289,013358	0
14.01.2021	18:50:38	0	0	3,389254	5,241	109,5984	1,098	77,175	3,5	1005,44	7,6	9,7	9,5	1	1	1	1	1	1	1	1	1	0	1	-30,162086	274,874911	293,523576	0
14.01.2021	18:50:39	0	0	3,276279	5,11725	96,9516	1,096	77,17	3,5	1005,4	7,6	9,7	9,5	1	1	1	1	1	1	1	1	1	0	1	-32,699084	274,926242	291,228431	0
14.01.2021	18:50:40	0	0	2,711387	4,8915	105,8616	1,094	77,181	3,5	1005,46	7,6	9,7	9,6	1	1	1	1	1	1	1	1	1	0	1	-33,756166	274,86404	289,878294	0
14.01.2021	18:50:41	0	0	4,631953	4,65	94,7664	1,091	77,177	3,5	1005,5	7,6	9,6	9,6	1	1	1	1	1	1	1	1	1	0	1	-35,870331	274,906004	287,961816	0
14.01.2021	18:50:42	0	0	2,372478	4,32075	92,628	1,088	77,179	3,5	1005,36	7,6	9,7	9,5	1	1	1	1	1	1	1	1	1	0	1	-34,53136	274,926242	289,396154	0
14.01.2021	18:50:43	0	0	3,276259	4,242	96,2064	1,094	77,186	3,5	1005,5	7,6	9,7	9,6	1	1	1	1	1	1	1	1	1	0	1	-33,262861	275,044979	291,224616	0
14.01.2021	18:50:44	0	0	4,406004	4,05	121,2696	1,086	77,192	3,5	1005,4	7,6	9,7	9,6	1	1	1	1	1	1	1	1	1	0	1	-35,588443	274,991769	288,648011	0
14.01.2021	18:50:45	0	0	2,711403	4,34625	84,0384	1,087	77,191	3,5	1005,44	7,6	9,6	9,5	1	1	1	1	1	1	1	1	1	0	1	-32,487667	274,885788	291,249232	0
14.01.2021	18:50:46	0	0	4,518979	4,6635	92,2608	1,093	77,21	3,5	1005,54	7,6	9,7	9,6	1	1	1	1	1	1	1	1	1	0	1	-30,021142	274,920012	293,877016	0
14.01.2021	18:50:47	0	0	2,824379	4,665	88,9308	1,092	77,211	3,5	1005,4	7,6	9,7	9,5	1	1	1	1	1	1	1	1	1	0	1	-33,403805	274,944941	290,611848	0
14.01.2021	18:50:48	0	0	2,824379	4,4955	87,7356	1,081	77,21	3,5	1005,34	7,6	9,7	9,5	1	1	1	1	1	1	1	1	1	0	1	-40,944327	274,86404	282,690133	0
14.01.2021	18:50:49	0	0	2,937354	4,83225	104,4576	1,092	77,218	3,5	1005,62	7,6	9,6	9,5	1	1	1	1	1	1	1	1	1	0	1	-34,038055	274,927799	289,896801	0
14.01.2021	18:50:50	0	0	4,180055	4,92825	95,1444	1,083	77,219	3,5	1005,5	7,6	9,7	9,6	1	1	1	1	1	1	1	1	1	0	1	-33,051445	275,029314	291,362116	0
14.01.2021	18:50:51	0	0	3,163304	5,4135	96,966	1,093	77,236	3,5	1005,44	7,6	9,6	9,5	1	1	1	1	1	1	1	1	1	0	1	-35,306554	274,952738	288,745855	0
14.01.2021	18:50:52	0	0	2,711403	5,28975	90,756	1,09	77,235	3,5	1005,52	7,6	9,6	9,5	1	1	1	1	1	1	1	1	1	0	1	-34,460888	274,881125	289,254049	0
14.01.2021	18:50:53	0	0	2,824379	5,025	109,9692	1,091	77,262	3,5	1005,46	7,6	9,7	9,5	1	1	1	1	1	1	1	1	1	0	1	-33,54475	274,906004	290,287397	0
14.01.2021	18:50:54	0	0	4,518979	4,98	99,8856	1,092	77,257	3,5	1005,52	7,6	9,7	9,6	1	1	1	1	1	1	1	1	1	0	1	-36,856942	274,934031	287,107285	0
14.01.2021	18:50:55	0	0	2,937336	4,848	100,4184	1,091	77,268	3,5	1005,52	7,6	9,8	9,6	1	1	1	1	1	1	1	1	1	0	1	-35,658915	275,043412	288,821168	0
14.01.2021	18:50:56	0	0	3,276279	4,7025	106,668	1,09	77,263	3,5	1005,42	7,6	9,7	9,5	1	1	1	1	1	1	1	1	1	0	1	-30,93728	274,906004	292,894867	0
14.01.2021	18:50:57	0	0	4,293055	4,93275	100,7496	1,079	77,269	3,5	1005,46	7,6	9,7	9,5	1	1	1	1	1	1	1	1	1	0	1	-38,830162	275,035578	285,612956	0
14.01.2021	18:50:58	0	0	3,389254	5,0265	102,1788	1,085	77,31	3,5	1005,48	7,6	9,6	9,5	1	1	1	1	1	1	1	1	1	0	1	-34,178999	274,882679	289,543258	0
14.01.2021	18:50:59	0	0	4,519006	4,89675	102,9312	1,08	77,309	3,5	1005,48	7,6	9,6	9,5	1	1	1	1	1	1	1	1	1	0	1	-31,430585	274,898226	292,364914	0
14.01.2021	18:51:00	0	0	3,502229	5,0055	98,064	1,083	77,369	3,5	1005,54	7,6	9,6	9,5	1	1	1	1	1	1	1	1	1	0	1	-33,967583	275,004276	290,32786	0
14.01.2021	18:51:01	0	0	3,502229	5,0055	98,064	1,083	77,369	3,5	1005,54	7,6	9,6	9,5	1	1	1	1	1	1	1	1	1	0	1	-33,967583	275,004276	290,32786	0
14.01.2021	18:51:02	0	0	4,406031	5,097	98,7372	1,085	77,38	3,5	1005,52	7,6	9,6	9,5	1	1	1	1	1	1	1	1	1	0	1	-33,967583	274,990207	290,2615	0
14.01.2021	18:51:03	0	0	4,406031	4,90425	92,0052	1,086	77,385	3,5	1005,48	7,6	9,7	9,5	1	1	1	1	1	1	1	1	1	0	1	-36,222692	275,046546	288,272181	0
14.01.2021	18:51:04	0	0	4,631953	4,58475	91,8828	1,087	77,413	3,5	1005,62	7,6	9,6	9,6	1	1	1	1	1	1	1	1	1	0	1	-36,434109	274,932473	287,522774	0
14.01.2021	18:51:05	0	0	4,406031	4,371	107,0244	1,084	77,428	3,5	1005,46	7,6	9,6	9,5	1	1	1	1	1	1	1	1	1	0	1	-32,276251	275,038711	292,181651	0
14.01.2021	18:51:06	0	0	2,937354	4,32825	100,3536	1,083	77,454	3,5	1005,46	7,6	9,6	9,5	1	1	1	1	1	1	1	1	1	0	1	-36,434109	275,03088	287,98684	0
14.01.2021	18:51:07	0	0	4,067105	4,0905	97,0956	1,088	77,459	3,5	1005,5	7,6	9,7	9,5	1	1	1	1	1	1	1	1	1	0	1	-34,813249	274,929357	289,128949	0
14.01.2021	18:51:08	0	0	3,163304	4,10025	102,9456	1,093	77,473	3,5	1005,62	7,6	9,6	9,5	1	1	1	1	1	1	1	1	1	0	1	-33,474278	275,05752	291,072386	0
14.01.2021	18:51:09	0	0	2,937336	4,245	97,686	1,087	77,486	3,5	1005,4	7,6	9,6	9,6	1	1	1	1	1	1	1	1	1	0	1	-32,487667	274,971463	291,653027	0
14.01.2021	18:51:10	0	0	4,518979	3,963	118,6848	1,086	77,502	3,5	1005,48	7,6	9,7	9,6	1	1	1	1	1	1	1	1	1	0	1	-34,601832	275,038711	289,85607	0
14.01.2021	18:51:11	0	0	3,615205	3,7395	117,792	1,086	77,489	3,5	1005,32	7,6	9,6	9,5	1	1	1	1	1	1	1	1	1	0	1	-36,927414	275,034012	287,508314	0
14.01.2021	18:51:12	0	0	2,711403	3,48	94,7628	1,082	77,505	3,5	1005,54	7,6	9,6	9,5	1	1	1	1	1	1	1	1	1	0	1	-32,487667	275,038711	291,970235	0
14.01.2021	18:51:13	0	0	3,050329	3,4365	99,1224	1,085	77,501	3,5	1005,5	7,6	9,6	9,5	1	1	1	1	1	1	1	1	1	0	1	-30,93728	274,893561	292,836239	0
14.01.2021	18:51:14	0	0	2,937336	3,71175	103,3524	1,087	77,514	3,5	1005,4	7,6	9,6	9,6	1	1	1	1	1	1	1	1	1	0	1	-31,007752	275,012097	293,324583	0
14.01.2021	18:51:15	0	0	4,406031	3,81375	103,6944	1,087	77,506	3,5	1005,62	7,6	9,6	9,5	1	1	1	1	1	1	1	1	1	0	1	-35,940803	274,888896	287,810742	0
14.01.2021	18:51:16	0	0	3,389254	4,0005	98,4456	1,083	77,505	3,5	1005,46	7,6	9,6	9,5	1	1	1	1	1	1	1	1	1	0	1	-33,333333	274,980833	290,851542	0
14.01.2021	18:51:17	0	0	4,18008	4,28475	105,1236	1,087	77,499	3,5	1005,6	7,6	9,6	9,5	1	1	1	1	1	1	1	1	1	0	1	-33,967583	275,040278	290,497712	0
14.01.2021	18:51:18	0	0	4,18008	4,2825	104,7456	1,088	77,47	3,5	1005,52	7,6	9,6	9,5	1	1	1	1	1	1	1	1	1	0	1	-37,561663	274,980833	286,623213	0
14.01.2021	18:51:19	0	0	3,615205	4,16925	104,4252	1,091	77,484	3,5	1005,42	7,6	9,6	9,5	1	1	1	1	1	1	1	1	1	0	1	-34,954193	275,002712	289,333874	0
14.01.2021	18:51:20	0	0	4,744956	4,38825	103,6836	1,093	77,462	3,5	1005,54	7,6	9,6	9,5	1	1	1	1	1	1	1	1	1	0	1	-32,417195	275,055952	292,122068	0
14.01.2021	18:51:21	0	0	4,18008	4,347	115,974	1,089	77,456	3,5	1005,48	7,6	9,6	9,5	1	1	1	1	1	1	1	1	1	0	1	-34,249471	274,987081	289,964873	0
14.01.2021	18:51:22	0	0	3,841155	4,37325	119,448	1,094	77,446	3,5	1005,48	7,6	9,6	9,5	1	1	1	1	1	1	1	1	1	0	1	-35,799859	275,037145	288,650651	0
14.01.2021	18:51:23	0	0	4,293055	4,2975	112,2624	1,084	77,446	3,5	1005,48	7,6	9,6	9,5	1	1	1	1	1	1	1	1	1	0	1	-30,655391	275,051248	293,861674	0
14.01.2021	18:51:24	0	0	4,406031	4,1865	105,8976	1,093	77,45	3,5	1005,58	7,6	9,6	9,5	1	1	1	1	1	1	1	1	1	0	1	-35,447498	274,977709	288,722647	0
14.01.2021	18:51:25	0	0	3,615205	4,04325	114,0912	1,091	77,444	3,5	1005,46	7,6	9,6	9,5	1	1	1	1	1	1	1	1	1	0	1	-35,588443	274,899781	288,214385	0
14.01.2021	18:51:26	0	0	2,598428	4,3005	117,4392	1,09	77,424	3,5	1005,3	7,6	9,7	9,5	1	1	1	1	1	1	1	1	1	0	1	-36,222692	275,013661	288,117023	0
14.01.2021	18:51:27	0	0	3,276279	4,22625	101,8512	1,095	77,429	3,5	1005,54	7,6	9,6	9,5	1	1	1	1	1	1	1	1	1	0	1	-34,954193	274,870251	288,709521	0
14.01.2021	18:51:28	0	0	4,970906	4,1685	116,3376	1,098	77,425	3,5	1005,54	7,6	9,6	9,5	1	1	1	1	1	1	1	1	1	0	1	-34,178999	275,001149	290,101692	0
14.01.2021	18:51:29	0	0	2,711403	4,251	121,2804	1,092	77,421	3,5	1005,32	7,6	9,7	9,5	1	1	1	1	1	1	1	1	1	0	1	-34,672304	274,955858	289,394811	0
14.01.2021	18:51:30	0	0	2,937354	4,467	107,028	1,087	77,394	3,5	1005,4	7,6	9,6	9,5	1	1	1	1	1	1	1	1	1	0	1	-32,064834	275,049681	292,444832	0
14.01.2021	18:51:31	0	0	2,711403	4,58175	115,2036	1,093	77,402	3,5	1005,42	7,6	9,6	9,5	1	1	1	1	1	1	1	1	1	0	1	-34,460888	274,943382	289,547417	0
14.01.2021	18:51:32	0	0	4,293055	4,4775	107,7552	1,093	77,403	3,5	1005,46	7,6	9,6	9,5	1	1	1	1	1	1	1	1	1	0	1	-30,655391	274,895116	293,125454	0
14.01.2021	18:51:33	0	0	3,615205	4,49325	112,2444	1,087	77,393	3,5	1005,38	7,6	9,6	9,5	1	1	1	1	1	1	1	1	1	0	1	-33,826638	275,054384	290,705224	0
14.01.2021	18:51:34	0	0	3,72818	4,539	107,4564	1,094	77,394	3,5	1005,44	7,6	9,7	9,5	1	1	1	1	1	1	1	1	1	0	1	-33,474278	274,930915	290,475262	0
14.01.2021	18:51:35	0	0	3,615205	4,48425	113,7132	1,092	77,384	3,5	1005,54	7,6	9,6	9,5	1	1	1	1	1	1	1	1	1	0	1	-33,051445	275,043412	291,428638	0
14.01.2021	18:51:36	0	0	4,406031	4,737	112,716	1,092	77,375	3,5	1005,56	7,5	9,6	9,5	1	1	1	1	1	1	1	1	1	0	1	-35,588443	274,878018	288,111856	0
14.01.2021	18:51:37	0	0	3,615205	4,83825	112,2804	1,096	77,354	3,5	1005,48	7,6	9,6	9,5	1	1	1	1	1	1	1	1	1	0	1	-35,729387	275,029314	288,684173	0
14.01.2021	18:51:38	0	0	2,824379	4,85325	108,8928	1,094	77,363	3,5	1005,56	7,6	9,7	9,5	1	1	1	1	1	1	1	1	1	0	1	-36,997886	275,035578	287,445233	0
14.01.2021	18:51:39	0	0	3,389254	4,9065	109,9836	1,094	77,346	3,5	1005,56	7,6	9,6	9,5	1	1	1	1	1	1	1	1	1	0	1	-32,487667	274,912229	291,37381	0
14.01.2021	18:51:40	0	0	3,841155	4,95525	113,5116	1,09	77,351	3,5	1005,46	7,6	9,6	9,5	1	1	1	1	1	1	1	1	1	0	1	-40,873855	274,940265	283,119754	0
14.01.2021	18:51:41	0	0	4,406031	5,01525	115,2108	1,09	77,334	3,5	1005,44	7,6	9,6	9,5	1	1	1	1	1	1	1	1	1	0	1	-36,786469	275,05752	287,760194	0
14.01.2021	18:51:42	0	0	3,95413	4,81575	111,0888	1,094	77,333	3,5	1005,48	7,6	9,6	9,5	1	1	1	1	1	1	1	1	1	0	1	-33,333333	274,951178	290,711723	0
14.01.2021	18:51:43	0	0	2,711403	4,82625	109,6452	1,098	77,323	3,5	1005,54	7,6	9,6	9,5	1	1	1	1	1	1	1	1	1	0	1	-31,289641	274,909116	292,55717	0
14.01.2021	18:51:44	0	0	2,485453	4,8315	108,2124	1,092	77,319	3,5	1005,46	7,6	9,6	9,5	1	1	1	1	1	1	1	1	1	0	1	-35,658915	274,882679	288,063342	0
14.01.2021	18:51:45	0	0	4,406031	4,74075	112,2768	1,096	77,312	3,5	1005,46	7,6	9,6	9,5	1	1	1	1	1	1	1	1	1	0	1	-31,994362	274,94806	292,035991	0
14.01.2021	18:51:46	0	0	2,372478	4,49925	114,4872	1,097	77,308	3,5	1005,48	7,6	9,6	9,5	1	1	1	1	1	1	1	1	1	0	1	-31,289641	275,063793	293,286633	0
14.01.2021	18:51:47	0	0	2,937354	4,701	108,576	1,09	77,301	3,5	1005,56	7,6	9,7	9,5	1	1	1	1	1	1	1	1	1	0	1	-36,293164	274,924684	287,62701	0
14.01.2021	18:51:48	0	0	3,95413	4,50225	102,9744	1,098	77,302	3,5	1005,56	7,6	9,7	9,5	1	1	1	1	1	1	1	1	1	0	1	-36,434109	274,893561	287,33941	0
14.01.2021	18:51:49	0	0	2,824379	4,69125	107,0064	1,096	77,285	3,5	1005,42	7,6	9,6	9,5	1	1	1	1	1	1	1	1	1	0	1	-37,702607	274,910672	286,151537	0
14.01.2021	18:51:50	0	0	2,598428	4,88625	111,4452	1,091	77,295	3,5	1005,58	7,6	9,6	9,5	1	1	1	1	1	1	1	1	1	0	1	-35,377026	274,999585	288,89629	0
14.01.2021	18:51:51	0	0	2,259503	4,55025	109,2384	1,093	77,294	3,5	1005,54	7,6	9,7	9,5	1	1	1	1	1	1	1	1	1	0	1	-36,786469	275,043412	287,693613	0
14.01.2021	18:51:52	0	0	2,937354	4,33575	103,6728	1,091	77,288	3,5	1005,48	7,6	9,6	9,5	1	1	1	1	1	1	1	1	1	0	1	-37,350247	274,955858	286,716869	0
14.01.2021	18:51:53	0	0	2,485453	4,1775	111,8052	1,096	77,281	3,5	1005,4	7,6	9,6	9,5	1	1	1	1	1	1	1	1	1	0	1	-30,655391	274,867145	292,993695	0
14.01.2021	18:51:54	0	0	4,293055	3,885	93,708	1,094	77,264	3,5	1005,5	7,6	9,6	9,5	1	1	1	1	1	1	1	1	1	0	1	-33,051445	274,918455	290,839376	0
14.01.2021	18:51:55	0	0	2,598428	3,6675	110,3616	1,088	77,275	3,5	1005,26	7,5	9,7	9,5	1	1	1	1	1	1	1	1	1	0	1	-34,601832	274,902892	289,215653	0
14.01.2021	18:51:56	0	0	2,824362	3,79725	109,9908	1,097	77,27	3,5	1005,34	7,6	9,6	9,6	1	1	1	1	1	1	1	1	1	0	1	-32,9105	274,865592	290,731272	0
14.01.2021	18:51:57	0	0	2,824379	3,942	116,334	1,091	77,276	3,5	1005,62	7,6	9,6	9,5	1	1	1	1	1	1	1	1	1	0	1	-35,024665	275,019921	289,344579	0
14.01.2021	18:51:58	0	0	2,598428	4,12425	96,9696	1,095	77,273	3,5	1005,46	7,6	9,6	9,5	1	1	1	1	1	1	1	1	1	0	1	-36,363636	275,038711	288,094266	0
14.01.2021	18:51:59	0	0	3,502229	4,02225	111,0348	1,089	77,265	3,5	1005,46	7,6	9,6	9,5	1	1	1	1	1	1	1	1	1	0	1	-35,870331	274,974586	288,285087	0
14.01.2021	18:52:00	0	0	5,083881	4,33575	108,4896	1,09	77,248	3,5	1005,42	7,6	9,6	9,5	1	1	1	1	1	1	1	1	1	0	1	-34,53136	274,985519	289,675616	0
14.01.2021	18:52:01	0	0	2,937354	4,19325	98,7264	1,097	77,28	3,5	1005,64	7,6	9,6	9,5	1	1	1	1	1	1	1	1	1	0	1	-33,051445	275,016791	291,303034	0
14.01.2021	18:52:02	0	0	2,937354	4,19325	98,7264	1,097	77,28	3,5	1005,64	7,6	9,6	9,5	1	1	1	1	1	1	1	1	1	0	1	-33,051445	275,016791	291,303034	0
14.01.2021	18:52:03	0	0	3,163304	3,80475	105,1236	1,091	77,274	3,5	1005,6	7,6	9,6	9,5	1	1	1	1	1	1	1	1	1	0	1	-34,53136	274,882679	289,190897	0
14.01.2021	18:52:04	0	0	3,050329	3,5775	91,8936	1,089	77,259	3,5	1005,58	7,6	9,7	9,5	1	1	1	1	1	1	1	1	1	0	1	-31,642001	274,973025	292,506055	0
14.01.2021	18:52:05	0	0	3,615205	3,7335	87,372	1,1	77,266	3,5	1005,52	7,6	9,7	9,5	1	1	1	1	1	1	1	1	1	0	1	-34,038055	275,035578	290,405064	0
14.01.2021	18:52:06	0	0	4,406031	3,65475	81,216	1,095	77,276	3,5	1005,44	7,6	9,7	9,5	1	1	1	1	1	1	1	1	1	0	1	-31,007752	274,994895	293,243445	0
14.01.2021	18:52:07	0	0	3,615205	3,5385	69,444	1,095	77,27	3,5	1005,52	7,5	9,6	9,5	1	1	1	1	1	1	1	1	1	0	1	-34,390416	275,027748	290,015757	0
14.01.2021	18:52:08	0	0	4,519006	3,513	70,848	1,094	77,269	3,5	1005,48	7,6	9,6	9,5	1	1	1	1	1	1	1	1	1	0	1	-31,148696	274,973025	292,99936	0
14.01.2021	18:52:09	0	0	4,406031	3,46425	75,9636	1,085	77,249	3,5	1005,4	7,6	9,6	9,5	1	1	1	1	1	1	1	1	1	0	1	-33,192389	275,032446	291,235949	0
14.01.2021	18:52:10	0	0	2,937354	3,42525	87,7428	1,089	77,251	3,5	1005,38	7,6	9,6	9,5	1	1	1	1	1	1	1	1	1	0	1	-32,55814	274,901337	291,252016	0
14.01.2021	18:52:11	0	0	2,598428	3,246	103,6512	1,093	77,234	3,5	1005,44	7,6	9,6	9,5	1	1	1	1	1	1	1	1	1	0	1	-34,390416	275,038711	290,067486	0
14.01.2021	18:52:12	0	0	3,95413	3,0015	108,09	1,091	77,244	3,5	1005,48	7,6	9,6	9,5	1	1	1	1	1	1	1	1	1	0	1	-32,699084	274,895116	291,081761	0
14.01.2021	18:52:13	0	0	2,598428	2,88	107,0424	1,097	77,252	3,5	1005,42	7,6	9,8	9,5	1	1	1	1	1	1	1	1	1	0	1	-35,870331	274,977709	288,299814	0
14.01.2021	18:52:14	0	0	4,067105	2,96475	115,2072	1,088	77,256	3,5	1005,48	7,6	9,6	9,5	1	1	1	1	1	1	1	1	1	0	1	-31,078224	275,037145	293,372286	0
14.01.2021	18:52:15	0	0	3,163304	3,135	91,1412	1,093	77,252	3,5	1005,56	7,5	9,6	9,5	1	1	1	1	1	1	1	1	1	0	1	-32,628612	274,927799	291,306244	0
14.01.2021	18:52:16	0	0	3,72818	3,321	92,34	1,095	77,256	3,5	1005,52	7,5	9,7	9,5	1	1	1	1	1	1	1	1	1	0	1	-33,192389	274,859383	290,420138	0
14.01.2021	18:52:17	0	0	3,502229	3,2415	86,9652	1,09	77,25	3,5	1005,5	7,5	9,7	9,5	1	1	1	1	1	1	1	1	1	0	1	-39,816772	274,943382	284,191532	0
14.01.2021	18:52:18	0	0	3,615205	3,08175	88,5672	1,096	77,251	3,5	1005,44	7,6	9,7	9,5	1	1	1	1	1	1	1	1	1	0	1	-32,769556	274,86404	290,864904	0
14.01.2021	18:52:19	0	0	4,631981	2,71425	95,1156	1,09	77,237	3,5	1005,44	7,6	9,6	9,5	1	1	1	1	1	1	1	1	1	0	1	-36,645525	274,9465	287,377478	0
14.01.2021	18:52:20	0	0	3,276279	2,37675	111,8124	1,086	77,23	3,5	1005,38	7,6	9,6	9,5	1	1	1	1	1	1	1	1	1	0	1	-36,504581	275,029314	287,90898	0
14.01.2021	18:52:21	0	0	3,163304	2,22375	84,7656	1,094	77,237	3,5	1005,58	7,6	9,6	9,5	1	1	1	1	1	1	1	1	1	0	1	-37,209302	274,851623	286,366684	0
14.01.2021	18:52:22	0	0	2,937354	2,07225	95,5116	1,093	77,237	3,5	1005,46	7,6	9,6	9,5	1	1	1	1	1	1	1	1	1	0	1	-37,77308	274,901337	286,037076	0
14.01.2021	18:52:23	0	0	4,406031	2,17725	89,334	1,086	77,227	3,5	1005,28	7,6	9,7	9,5	1	1	1	1	1	1	1	1	1	0	1	-32,628612	275,016791	291,725867	0
14.01.2021	18:52:24	0	0	2,937354	2,43225	90,7776	1,095	77,228	3,5	1005,5	7,5	9,7	9,5	1	1	1	1	1	1	1	1	1	0	1	-35,306554	274,84852	288,254821	0
14.01.2021	18:52:25	0	0	4,18008	2,80575	71,9676	1,086	77,224	3,5	1005,48	7,5	9,7	9,5	1	1	1	1	1	1	1	1	1	0	1	-38,618746	274,882679	285,103511	0
14.01.2021	18:52:26	0	0	4,406031	3,14025	84,0276	1,087	77,21	3,5	1005,46	7,6	9,7	9,5	1	1	1	1	1	1	1	1	1	0	1	-32,064834	275,046546	292,430039	0
14.01.2021	18:52:27	0	0	3,841155	3,03	74,5236	1,09	77,221	3,5	1005,4	7,6	9,7	9,5	1	1	1	1	1	1	1	1	1	0	1	-33,121917	274,958978	290,959909	0
14.01.2021	18:52:28	0	0	4,744956	2,98425	81,576	1,092	77,207	3,5	1005,54	7,6	9,6	9,5	1	1	1	1	1	1	1	1	1	0	1	-33,826638	274,870251	289,837076	0
14.01.2021	18:52:29	0	0	3,72818	2,77275	87,7428	1,088	77,208	3,5	1005,46	7,5	9,7	9,5	1	1	1	1	1	1	1	1	1	0	1	-36,856942	274,853175	286,726351	0
14.01.2021	18:52:30	0	0	3,95413	2,72625	82,9332	1,08	77,205	3,5	1005,5	7,6	9,6	9,5	1	1	1	1	1	1	1	1	1	0	1	-32,769556	274,920012	291,128602	0
14.01.2021	18:52:31	0	0	2,711403	3,03525	92,6316	1,087	77,207	3,5	1005,52	7,5	9,6	9,5	1	1	1	1	1	1	1	1	1	0	1	-34,742777	274,999585	289,53054	0
14.01.2021	18:52:32	0	0	3,95413	3,28425	71,5896	1,089	77,188	3,5	1005,42	7,5	9,6	9,5	1	1	1	1	1	1	1	1	1	0	1	-36,222692	275,03088	288,198257	0
14.01.2021	18:52:33	0	0	4,293055	3,186	90,792	1,087	77,187	3,5	1005,38	7,6	9,7	9,5	1	1	1	1	1	1	1	1	1	0	1	-36,786469	274,901337	287,023687	0
14.01.2021	18:52:34	0	0	5,083881	3,11625	100,3428	1,087	77,2	3,5	1005,46	7,5	9,7	9,5	1	1	1	1	1	1	1	1	1	0	1	-33,897111	274,856278	289,700798	0
14.01.2021	18:52:35	0	0	3,163304	3,2085	109,5768	1,087	77,181	3,5	1005,46	7,6	9,6	9,5	1	1	1	1	1	1	1	1	1	0	1	-36,363636	274,881125	287,3513	0
14.01.2021	18:52:36	0	0	3,841155	3,3795	96,57	1,095	77,201	3,5	1005,54	7,5	9,7	9,5	1	1	1	1	1	1	1	1	1	0	1	-36,434109	274,842316	287,098052	0
14.01.2021	18:52:37	0	0	3,95413	3,35475	93,6936	1,09	77,196	3,5	1005,52	7,6	9,6	9,5	1	1	1	1	1	1	1	1	1	0	1	-36,927414	275,019921	287,441831	0
14.01.2021	18:52:38	0	0	4,631981	3,16125	92,9484	1,085	77,2	3,5	1005,38	7,5	9,7	9,5	1	1	1	1	1	1	1	1	1	0	1	-33,333333	274,898226	290,462166	0
14.01.2021	18:52:39	0	0	4,18008	3,08325	90,3996	1,089	77,187	3,5	1005,34	7,5	9,7	9,5	1	1	1	1	1	1	1	1	1	0	1	-35,940803	274,860935	287,679034	0
14.01.2021	18:52:40	0	0	2,485453	2,943	98,4492	1,086	77,205	3,5	1005,46	7,5	9,6	9,5	1	1	1	1	1	1	1	1	1	0	1	-30,655391	274,874911	293,030271	0
14.01.2021	18:52:41	0	0	3,276279	2,814	93,69	1,082	77,21	3,5	1005,48	7,5	9,7	9,5	1	1	1	1	1	1	1	1	1	0	1	-34,883721	274,929357	289,058476	0
14.01.2021	18:52:42	0	0	3,95413	2,73225	101,8152	1,081	77,222	3,5	1005,34	7,5	9,7	9,5	1	1	1	1	1	1	1	1	1	0	1	-37,77308	275,03088	286,647869	0
14.01.2021	18:52:43	0	0	3,615205	3,01425	81,2196	1,085	77,229	3,5	1005,4	7,5	9,7	9,5	1	1	1	1	1	1	1	1	1	0	1	-32,064834	274,892006	291,701359	0
14.01.2021	18:52:44	0	0	4,519006	3,132	89,4276	1,084	77,25	3,5	1005,46	7,6	9,7	9,5	1	1	1	1	1	1	1	1	1	0	1	-34,319944	275,015226	290,027153	0
14.01.2021	18:52:45	0	0	4,519006	3,07425	108,0972	1,087	77,291	3,5	1005,42	7,6	9,6	9,5	1	1	1	1	1	1	1	1	1	0	1	-34,954193	275,007404	289,356004	0
14.01.2021	18:52:46	0	0	3,502229	3,03375	114,1092	1,087	77,294	3,5	1005,46	7,6	9,7	9,5	1	1	1	1	1	1	1	1	1	0	1	-32,346723	274,954298	291,713039	0
14.01.2021	18:52:47	0	0	2,485453	2,922	106,7364	1,083	77,334	3,5	1005,6	7,5	9,6	9,5	1	1	1	1	1	1	1	1	1	0	1	-34,954193	275,029314	289,459367	0
14.01.2021	18:52:48	0	0	4,631981	2,90625	103,2732	1,086	77,351	3,5	1005,46	7,5	9,7	9,5	1	1	1	1	1	1	1	1	1	0	1	-34,954193	274,916899	288,929291	0
14.01.2021	18:52:49	0	0	4,18008	3,1275	106,2792	1,079	77,346	3,5	1005,16	7,5	9,6	9,5	1	1	1	1	1	1	1	1	1	0	1	-32,205779	274,853175	291,377514	0
14.01.2021	18:52:50	0	0	4,293055	3,2985	106,272	1,084	77,361	3,5	1005,6	7,5	9,6	9,5	1	1	1	1	1	1	1	1	1	0	1	-37,914024	275,023051	286,46999	0
14.01.2021	18:52:51	0	0	3,72818	3,22875	112,7196	1,087	77,389	3,5	1005,48	7,5	9,7	9,5	1	1	1	1	1	1	1	1	1	0	1	-33,685694	274,881125	290,029242	0
14.01.2021	18:52:52	0	0	3,72818	3,0945	111,8232	1,085	77,393	3,5	1005,52	7,5	9,7	9,5	1	1	1	1	1	1	1	1	1	0	1	-35,024665	275,002712	289,263402	0
14.01.2021	18:52:53	0	0	2,937354	2,87175	115,5636	1,083	77,387	3,5	1005,54	7,6	9,6	9,5	1	1	1	1	1	1	1	1	1	0	1	-34,108527	274,884233	289,621051	0
14.01.2021	18:52:54	0	0	2,824379	2,71725	109,6056	1,083	77,403	3,5	1005,44	7,5	9,7	9,5	1	1	1	1	1	1	1	1	1	0	1	-32,980973	274,854727	290,609628	0
14.01.2021	18:52:55	0	0	3,615205	2,81025	108,54	1,075	77,395	3,5	1005,42	7,5	9,6	9,5	1	1	1	1	1	1	1	1	1	0	1	-36,856942	274,853175	286,726351	0
14.01.2021	18:52:56	0	0	3,72818	3,30825	92,2572	1,086	77,412	3,5	1005,56	7,5	9,7	9,5	1	1	1	1	1	1	1	1	1	0	1	-37,702607	274,952738	286,349801	0
14.01.2021	18:52:57	0	0	3,163304	3,6525	97,7076	1,082	77,409	3,5	1005,46	7,5	9,7	9,5	1	1	1	1	1	1	1	1	1	0	1	-39,252995	275,013661	285,08672	0
14.01.2021	18:52:58	0	0	4,293055	3,88725	102,9096	1,081	77,395	3,5	1005,36	7,6	9,7	9,5	1	1	1	1	1	1	1	1	1	0	1	-36,434109	274,879571	287,273508	0
14.01.2021	18:52:59	0	0	4,406031	4,011	100,7496	1,079	77,397	3,5	1005,6	7,6	9,7	9,5	1	1	1	1	1	1	1	1	1	0	1	-33,967583	274,96678	290,15103	0
14.01.2021	18:53:00	0	0	4,631981	3,831	100,3572	1,08	77,4	3,5	1005,5	7,5	9,7	9,5	1	1	1	1	1	1	1	1	1	0	1	-35,024665	274,976147	289,138116	0
14.01.2021	18:53:01	0	0	2,711403	3,43725	90,3672	1,08	77,399	3,5	1005,54	7,5	9,7	9,5	1	1	1	1	1	1	1	1	1	0	1	-39,323467	274,839215	284,19409	0
14.01.2021	18:53:02	0	0	2,711403	3,43725	90,3672	1,08	77,399	3,5	1005,54	7,5	9,7	9,5	1	1	1	1	1	1	1	1	1	0	1	-39,323467	274,839215	284,19409	0
14.01.2021	18:53:03	0	0	3,502229	3,38775	96,2316	1,076	77,391	3,5	1005,42	7,5	9,7	9,5	1	1	1	1	1	1	1	1	1	0	1	-34,883721	274,965219	289,227533	0
14.01.2021	18:53:04	0	0	4,406031	3,47775	94,7628	1,082	77,395	3,5	1005,64	7,5	9,7	9,5	1	1	1	1	1	1	1	1	1	0	1	-37,702607	275,015226	286,644489	0
14.01.2021	18:53:05	0	0	4,18008	3,7515	100,7352	1,079	77,391	3,5	1005,3	7,5	9,7	9,5	1	1	1	1	1	1	1	1	1	0	1	-34,883721	274,988644	289,337993	0
14.01.2021	18:53:06	0	0	3,72818	3,7875	115,2288	1,085	77,4	3,5	1005,48	7,5	9,7	9,5	1	1	1	1	1	1	1	1	1	0	1	-38,336857	274,977709	285,833289	0
14.01.2021	18:53:07	0	0	4,067105	4,0005	101,124	1,085	77,404	3,5	1005,52	7,5	9,7	9,5	1	1	1	1	1	1	1	1	1	0	1	-35,799859	274,829914	287,673906	0
14.01.2021	18:53:08	0	0	4,519006	4,1565	99,1584	1,08	77,391	3,5	1005,48	7,5	9,7	9,5	1	1	1	1	1	1	1	1	1	0	1	-35,095137	274,960538	288,994044	0
14.01.2021	18:53:09	0	0	3,502229	4,26	100,3752	1,085	77,413	3,5	1005,52	7,5	9,7	9,5	1	1	1	1	1	1	1	1	1	0	1	-30,866808	274,998022	293,399135	0
14.01.2021	18:53:10	0	0	3,95413	4,281	111,0528	1,084	77,395	3,5	1005,56	7,5	9,7	9,5	1	1	1	1	1	1	1	1	1	0	1	-35,588443	275,023051	288,795571	0
14.01.2021	18:53:11	0	0	2,711403	4,31475	108,1044	1,077	77,409	3,5	1005,44	7,5	9,7	9,5	1	1	1	1	1	1	1	1	1	0	1	-34,249471	274,862487	289,377677	0
14.01.2021	18:53:12	0	0	3,389254	4,1295	108,8928	1,083	77,422	3,5	1005,5	7,5	9,7	9,5	1	1	1	1	1	1	1	1	1	0	1	-36,434109	274,846969	287,119961	0
14.01.2021	18:53:13	0	0	1,920577	4,092	110,0124	1,084	77,419	3,5	1005,42	7,5	9,7	9,5	1	1	1	1	1	1	1	1	1	0	1	-36,645525	274,94806	287,384829	0
14.01.2021	18:53:14	0	0	2,824379	4,08525	110,6676	1,079	77,424	3,5	1005,52	7,5	9,7	9,5	1	1	1	1	1	1	1	1	1	0	1	-32,205779	275,026182	292,193007	0
14.01.2021	18:53:15	0	0	4,293055	4,06275	94,7484	1,076	77,416	3,5	1005,48	7,5	9,7	9,5	1	1	1	1	1	1	1	1	1	0	1	-35,095137	274,960538	288,994044	0
14.01.2021	18:53:16	0	0	2,824379	4,479	81,9504	1,084	77,423	3,5	1005,6	7,6	9,7	9,5	1	1	1	1	1	1	1	1	1	0	1	-35,024665	274,873357	288,65368	0
14.01.2021	18:53:17	0	0	3,276279	4,95525	96,948	1,082	77,409	3,5	1005,46	7,6	9,7	9,5	1	1	1	1	1	1	1	1	1	0	1	-31,078224	275,008968	293,239352	0
14.01.2021	18:53:18	0	0	4,18008	5,21175	92,9664	1,073	77,403	3,5	1005,4	7,5	9,7	9,5	1	1	1	1	1	1	1	1	1	0	1	-33,192389	274,943382	290,815916	0
14.01.2021	18:53:19	0	0	2,372478	4,97925	95,5116	1,082	77,399	3,5	1005,32	7,6	9,7	9,5	1	1	1	1	1	1	1	1	1	0	1	-36,504581	275,012097	287,827754	0
14.01.2021	18:53:20	0	0	3,389254	4,92	94,3776	1,081	77,408	3,5	1005,36	7,5	9,7	9,5	1	1	1	1	1	1	1	1	1	0	1	-40,591966	274,954298	283,467796	0
14.01.2021	18:53:21	0	0	3,841155	4,93425	92,628	1,083	77,415	3,5	1005,34	7,6	9,7	9,5	1	1	1	1	1	1	1	1	1	0	1	-36,715997	274,971463	287,424697	0
14.01.2021	18:53:22	0	0	2,598428	5,05275	83,34	1,084	77,423	3,5	1005,52	7,5	9,7	9,5	1	1	1	1	1	1	1	1	1	0	1	-33,333333	274,828364	290,133136	0
14.01.2021	18:53:23	0	0	4,631981	4,99575	90,3636	1,081	77,42	3,5	1005,46	7,5	9,7	9,5	1	1	1	1	1	1	1	1	1	0	1	-35,799859	274,923127	288,112976	0
14.01.2021	18:53:24	0	0	3,389254	4,97475	95,49	1,075	77,407	3,5	1005,5	7,6	9,7	9,5	1	1	1	1	1	1	1	1	1	0	1	-35,447498	275,007404	288,862699	0
14.01.2021	18:53:25	0	0	2,711403	4,79325	102,5532	1,081	77,411	3,5	1005,54	7,5	9,7	9,5	1	1	1	1	1	1	1	1	1	0	1	-37,561663	275,010532	286,763292	0
14.01.2021	18:53:26	0	0	3,841155	4,77375	104,4288	1,075	77,416	3,5	1005,5	7,6	9,7	9,5	1	1	1	1	1	1	1	1	1	0	1	-34,390416	274,952738	289,661993	0
14.01.2021	18:53:27	0	0	3,276279	4,63425	108,486	1,079	77,42	3,5	1005,56	7,5	9,7	9,5	1	1	1	1	1	1	1	1	1	0	1	-31,853418	275,002712	292,434649	0
14.01.2021	18:53:28	0	0	3,841155	4,49625	92,6244	1,071	77,416	3,5	1005,38	7,5	9,7	9,5	1	1	1	1	1	1	1	1	1	0	1	-31,219168	274,979271	292,958342	0
14.01.2021	18:53:29	0	0	2,711403	4,3305	92,2716	1,069	77,431	3,5	1005,3	7,6	9,7	9,5	1	1	1	1	1	1	1	1	1	0	1	-35,870331	274,943382	288,137974	0
14.01.2021	18:53:30	0	0	3,502229	4,04775	94,7772	1,077	77,434	3,5	1005,52	7,5	9,7	9,5	1	1	1	1	1	1	1	1	1	0	1	-33,967583	274,831463	289,513479	0
14.01.2021	18:53:31	0	0	4,744956	4,07475	102,9384	1,072	77,457	3,5	1005,46	7,5	9,7	9,5	1	1	1	1	1	1	1	1	1	0	1	-33,897111	274,973025	290,250945	0
14.01.2021	18:53:32	0	0	2,937354	4,05225	99,1728	1,074	77,436	3,5	1005,46	7,5	9,7	9,5	1	1	1	1	1	1	1	1	1	0	1	-31,712474	275,015226	292,634623	0
14.01.2021	18:53:33	0	0	3,163304	4,16325	108,1044	1,077	77,461	3,5	1005,28	7,6	9,7	9,5	1	1	1	1	1	1	1	1	1	0	1	-35,306554	274,837664	288,203703	0
14.01.2021	18:53:34	0	0	4,293055	4,308	104,7492	1,077	77,479	3,5	1005,48	7,5	9,7	9,5	1	1	1	1	1	1	1	1	1	0	1	-33,967583	274,912229	289,893895	0
14.01.2021	18:53:35	0	0	4,631981	4,18275	102,5532	1,071	77,47	3,5	1005,52	7,6	9,7	9,5	1	1	1	1	1	1	1	1	1	0	1	-37,702607	275,013661	286,637108	0
14.01.2021	18:53:36	0	0	2,711403	3,822	91,5084	1,08	77,475	3,5	1005,52	7,6	9,7	9,5	1	1	1	1	1	1	1	1	1	0	1	-33,967583	274,9465	290,05542	0
14.01.2021	18:53:37	0	0	3,615205	3,594	96,984	1,075	77,497	3,5	1005,48	7,6	9,7	9,5	1	1	1	1	1	1	1	1	1	0	1	-32,769556	274,837664	290,740701	0
14.01.2021	18:53:38	0	0	3,72818	3,4365	90,3924	1,077	77,492	3,5	1005,5	7,6	9,7	9,5	1	1	1	1	1	1	1	1	1	0	1	-30,866808	274,870251	292,796907	0
14.01.2021	18:53:39	0	0	3,163304	3,36975	92,97	1,078	77,51	3,5	1005,52	7,6	9,7	9,5	1	1	1	1	1	1	1	1	1	0	1	-35,16561	274,892006	288,600584	0
14.01.2021	18:53:40	0	0	2,937354	3,6	104,436	1,078	77,507	3,5	1005,36	7,6	9,7	9,5	1	1	1	1	1	1	1	1	1	0	1	-32,276251	274,834564	291,219407	0
14.01.2021	18:53:41	0	0	3,615205	3,87525	105,1092	1,077	77,506	3,5	1005,4	7,6	9,7	9,5	1	1	1	1	1	1	1	1	1	0	1	-35,51797	274,974586	288,637448	0
14.01.2021	18:53:42	0	0	4,18008	4,04775	110,376	1,077	77,505	3,5	1005,62	7,6	9,7	9,5	1	1	1	1	1	1	1	1	1	0	1	-34,672304	274,854727	288,918296	0
14.01.2021	18:53:43	0	0	2,711403	4,27125	110,6712	1,079	77,506	3,5	1005,46	7,6	9,7	9,5	1	1	1	1	1	1	1	1	1	0	1	-33,192389	274,895116	290,588456	0
14.01.2021	18:53:44	0	0	4,744956	4,26375	112,9932	1,078	77,512	3,5	1005,54	7,5	9,7	9,5	1	1	1	1	1	1	1	1	1	0	1	-36,997886	274,84852	286,563489	0
14.01.2021	18:53:45	0	0	2,598428	4,455	106,29	1,075	77,523	3,5	1005,44	7,5	9,7	9,5	1	1	1	1	1	1	1	1	1	0	1	-33,051445	274,825265	290,400434	0
14.01.2021	18:53:46	0	0	4,631981	4,56525	100,7244	1,078	77,526	3,5	1005,48	7,6	9,7	9,5	1	1	1	1	1	1	1	1	1	0	1	-32,9105	274,960538	291,178681	0
14.01.2021	18:53:47	0	0	4,067105	4,542	102,51	1,08	77,523	3,5	1005,54	7,5	9,7	9,5	1	1	1	1	1	1	1	1	1	0	1	-38,75969	274,84852	284,801685	0
14.01.2021	18:53:48	0	0	5,083881	4,81575	106,3008	1,077	77,51	3,5	1005,46	7,6	9,7	9,5	1	1	1	1	1	1	1	1	1	0	1	-33,121917	274,985519	291,085059	0
14.01.2021	18:53:49	0	0	4,857931	5,0295	105,0804	1,071	77,514	3,5	1005,32	7,5	9,7	9,5	1	1	1	1	1	1	1	1	1	0	1	-34,53136	274,909116	289,315451	0
14.01.2021	18:53:50	0	0	2,598428	5,04975	84,7584	1,078	77,516	3,5	1005,42	7,6	9,7	9,5	1	1	1	1	1	1	1	1	1	0	1	-37,914024	274,846969	285,640046	0
14.01.2021	18:53:51	0	0	2,824379	4,52475	102,5712	1,077	77,488	3,5	1005,42	7,5	9,7	9,5	1	1	1	1	1	1	1	1	1	0	1	-32,487667	274,913785	291,381145	0
14.01.2021	18:53:52	0	0	2,259503	4,24275	91,8756	1,078	77,495	3,5	1005,68	7,5	9,7	9,5	1	1	1	1	1	1	1	1	1	0	1	-39,393939	274,856278	284,203969	0
14.01.2021	18:53:53	0	0	4,744956	4,161	107,0352	1,077	77,483	3,5	1005,46	7,6	9,7	9,5	1	1	1	1	1	1	1	1	1	0	1	-34,813249	274,993332	289,430576	0
14.01.2021	18:53:54	0	0	2,711403	4,42725	111,0348	1,083	77,492	3,5	1005,46	7,6	9,7	9,5	1	1	1	1	1	1	1	1	1	0	1	-33,333333	274,915342	290,542814	0
14.01.2021	18:53:55	0	0	2,598428	4,5555	109,2168	1,08	77,475	3,5	1005,32	7,5	9,7	9,5	1	1	1	1	1	1	1	1	1	0	1	-34,672304	275,019921	289,69694	0
14.01.2021	18:53:56	0	0	5,535782	4,52475	111,0168	1,077	77,471	3,5	1005,52	7,5	9,7	9,5	1	1	1	1	1	1	1	1	1	0	1	-33,967583	274,892006	289,798611	0
14.01.2021	18:53:57	0	0	3,163304	4,38075	111,8124	1,073	77,457	3,5	1005,3	7,5	9,7	9,5	1	1	1	1	1	1	1	1	1	0	1	-36,715997	274,906004	287,11615	0
14.01.2021	18:53:58	0	0	2,711403	4,3275	107,028	1,078	77,465	3,5	1005,46	7,5	9,7	9,5	1	1	1	1	1	1	1	1	1	0	1	-32,980973	275,018356	291,380889	0
14.01.2021	18:53:59	0	0	3,276279	4,30275	109,206	1,08	77,47	3,5	1005,62	7,5	9,7	9,5	1	1	1	1	1	1	1	1	1	0	1	-34,108527	274,985519	290,098449	0
14.01.2021	18:54:00	0	0	4,744956	3,6795	98,4384	1,082	77,473	3,5	1005,16	7,6	9,7	9,5	1	1	1	1	1	1	1	1	1	0	1	-36,715997	274,999585	287,557319	0
14.01.2021	18:54:01	0	0	2,598428	3,58125	105,0804	1,076	77,474	3,5	1005,6	7,5	9,7	9,5	1	1	1	1	1	1	1	1	1	0	1	-39,464412	274,884233	284,265166	0
14.01.2021	18:54:02	0	0	2,598428	3,58125	105,0804	1,076	77,474	3,5	1005,6	7,5	9,7	9,5	1	1	1	1	1	1	1	1	1	0	1	-39,464412	274,884233	284,265166	0
14.01.2021	18:54:03	0	0	4,970906	3,68925	97,3008	1,075	77,452	3,5	1005,5	7,6	9,7	9,5	1	1	1	1	1	1	1	1	1	0	1	-36,856942	275,019921	287,512303	0
14.01.2021	18:54:04	0	0	4,857931	3,88425	106,3296	1,073	77,442	3,5	1005,38	7,6	9,7	9,5	1	1	1	1	1	1	1	1	1	0	1	-32,064834	274,912229	291,796643	0
14.01.2021	18:54:05	0	0	4,293055	4,04475	101,8296	1,073	77,453	3,5	1005,38	7,5	9,7	9,5	1	1	1	1	1	1	1	1	1	0	1	-36,856942	275,037145	287,593568	0
14.01.2021	18:54:06	0	0	4,519006	4,27875	111,4092	1,08	77,445	3,5	1005,58	7,5	9,7	9,5	1	1	1	1	1	1	1	1	1	0	1	-34,53136	274,910672	289,322784	0
14.01.2021	18:54:07	0	0	4,067105	4,60275	107,0136	1,08	77,453	3,5	1005,5	7,6	9,7	9,5	1	1	1	1	1	1	1	1	1	0	1	-34,460888	275,038711	289,997014	0
14.01.2021	18:54:08	0	0	4,631981	4,62975	105,1164	1,077	77,431	3,5	1005,4	7,5	9,7	9,5	1	1	1	1	1	1	1	1	1	0	1	-33,826638	274,934031	290,137588	0
14.01.2021	18:54:09	0	0	2,711403	4,4655	104,4324	1,079	77,444	3,5	1005,56	7,5	9,7	9,5	1	1	1	1	1	1	1	1	1	0	1	-36,293164	275,021486	288,083465	0
14.01.2021	18:54:10	0	0	3,841155	4,17975	99,9108	1,08	77,435	3,5	1005,42	7,6	9,7	9,5	1	1	1	1	1	1	1	1	1	0	1	-35,236082	275,004276	289,059361	0
14.01.2021	18:54:11	0	0	3,389254	3,87075	105,8796	1,082	77,433	3,5	1005,48	7,5	9,7	9,5	1	1	1	1	1	1	1	1	1	0	1	-33,897111	274,996458	290,361459	0
14.01.2021	18:54:12	0	0	2,937354	3,60375	105,8796	1,073	77,426	3,5	1005,48	7,5	9,7	9,5	1	1	1	1	1	1	1	1	1	0	1	-37,914024	274,867145	285,735062	0
14.01.2021	18:54:13	0	0	3,502229	3,339	106,254	1,075	77,415	3,5	1005,42	7,5	9,7	9,5	1	1	1	1	1	1	1	1	1	0	1	-30,655391	274,952738	293,397018	0
14.01.2021	18:54:14	0	0	4,406031	3,2565	110,3652	1,074	77,428	3,5	1005,62	7,5	9,7	9,5	1	1	1	1	1	1	1	1	1	0	1	-38,477801	275,016791	285,876677	0
14.01.2021	18:54:15	0	0	4,406031	3,16875	93,5856	1,067	77,413	3,5	1005,36	7,5	9,7	9,5	1	1	1	1	1	1	1	1	1	0	1	-38,477801	274,991769	285,758652	0
14.01.2021	18:54:16	0	0	2,711403	3,1125	101,4948	1,081	77,419	3,5	1005,54	7,5	9,7	9,5	1	1	1	1	1	1	1	1	1	0	1	-33,897111	274,990207	290,331973	0
14.01.2021	18:54:17	0	0	3,502229	3,04575	98,4564	1,077	77,42	3,5	1005,52	7,5	9,7	9,5	1	1	1	1	1	1	1	1	1	0	1	-40,591966	275,032446	283,836372	0
14.01.2021	18:54:18	0	0	3,163304	2,93475	101,8008	1,072	77,411	3,5	1005,6	7,6	9,7	9,5	1	1	1	1	1	1	1	1	1	0	1	-36,434109	274,974586	287,72131	0
14.01.2021	18:54:19	0	0	4,067105	2,889	98,4744	1,077	77,418	3,5	1005,54	7,6	9,7	9,5	1	1	1	1	1	1	1	1	1	0	1	-35,729387	274,999585	288,54393	0
14.01.2021	18:54:20	0	0	4,293107	2,85075	102,564	1,071	77,412	3,5	1005,6	7,6	9,7	9,3	1	1	1	1	1	1	1	1	1	0	1	-37,632135	274,90756	286,207343	0
14.01.2021	18:54:21	0	0	3,502229	2,81625	96,228	1,076	77,408	3,5	1005,44	7,6	9,7	9,5	1	1	1	1	1	1	1	1	1	0	1	-35,024665	274,853175	288,558628	0
14.01.2021	18:54:22	0	0	3,276279	2,87025	105,1992	1,077	77,406	3,5	1005,54	7,6	9,7	9,5	1	1	1	1	1	1	1	1	1	0	1	-35,447498	274,998022	288,818444	0
14.01.2021	18:54:23	0	0	4,744956	2,88675	104,7204	1,076	77,382	3,5	1005,48	7,6	9,7	9,5	1	1	1	1	1	1	1	1	1	0	1	-35,236082	274,987081	288,978263	0
14.01.2021	18:54:24	0	0	4,293055	3,08775	105,8724	1,071	77,378	3,5	1005,42	7,6	9,7	9,5	1	1	1	1	1	1	1	1	1	0	1	-37,13883	274,993332	287,104995	0
14.01.2021	18:54:25	0	0	4,519006	3,162	100,35	1,076	77,406	3,5	1005,48	7,5	9,7	9,5	1	1	1	1	1	1	1	1	1	0	1	-30,021142	274,912229	293,840336	0
14.01.2021	18:54:26	0	0	2,824379	3,411	99,6156	1,072	77,408	3,5	1005,38	7,6	9,7	9,5	1	1	1	1	1	1	1	1	1	0	1	-37,843552	275,029314	286,570008	0
14.01.2021	18:54:27	0	0	2,485453	3,75825	95,8104	1,075	77,412	3,5	1005,46	7,5	9,7	9,5	1	1	1	1	1	1	1	1	1	0	1	-37,491191	274,888896	286,260354	0
14.01.2021	18:54:28	0	0	4,744956	3,89325	104,058	1,077	77,42	3,5	1005,38	7,6	9,7	9,5	1	1	1	1	1	1	1	1	1	0	1	-34,108527	274,898226	289,686972	0
14.01.2021	18:54:29	0	0	5,309832	3,885	94,3848	1,072	77,424	3,5	1005,42	7,5	9,7	9,5	1	1	1	1	1	1	1	1	1	0	1	-33,474278	275,016791	290,880201	0
14.01.2021	18:54:30	0	0	3,502229	4,0365	84,4236	1,074	77,414	3,5	1005,44	7,5	9,7	9,5	1	1	1	1	1	1	1	1	1	0	1	-32,769556	274,870251	290,894158	0
14.01.2021	18:54:31	0	0	2,259503	3,942	100,7244	1,077	77,427	3,5	1005,36	7,5	9,7	9,5	1	1	1	1	1	1	1	1	1	0	1	-35,799859	274,86404	287,834601	0
14.01.2021	18:54:32	0	0	2,824379	3,894	112,284	1,068	77,424	3,5	1005,56	7,5	9,7	9,5	1	1	1	1	1	1	1	1	1	0	1	-30,584919	274,973025	293,563137	0
14.01.2021	18:54:33	0	0	2,824379	4,39725	114,48	1,071	77,437	3,5	1005,46	7,5	9,7	9,5	1	1	1	1	1	1	1	1	1	0	1	-33,474278	274,853175	290,109015	0
14.01.2021	18:54:34	0	0	3,163304	4,7865	116,9928	1,069	77,427	3,5	1005,44	7,6	9,7	9,5	1	1	1	1	1	1	1	1	1	0	1	-37,13883	274,96678	286,979783	0
14.01.2021	18:54:35	0	0	2,598428	4,914	102,168	1,073	77,438	3,5	1005,46	7,5	9,7	9,5	1	1	1	1	1	1	1	1	1	0	1	-31,92389	275,027748	292,482282	0
14.01.2021	18:54:36	0	0	3,163304	4,746	102,9168	1,073	77,449	3,5	1005,44	7,5	9,7	9,5	1	1	1	1	1	1	1	1	1	0	1	-30,655391	274,993332	293,588434	0
14.01.2021	18:54:37	0	0	4,631981	4,6935	101,0916	1,071	77,444	3,5	1005,5	7,5	9,7	9,5	1	1	1	1	1	1	1	1	1	0	1	-35,729387	274,971463	288,411307	0
14.01.2021	18:54:38	0	0	4,519006	4,65825	105,8724	1,066	77,445	3,5	1005,48	7,5	9,7	9,5	1	1	1	1	1	1	1	1	1	0	1	-40,098661	274,850072	283,470019	0
14.01.2021	18:54:39	0	0	4,293055	4,68525	99,5184	1,064	77,441	3,5	1005,4	7,5	9,7	9,5	1	1	1	1	1	1	1	1	1	0	1	-36,715997	274,980833	287,468879	0
14.01.2021	18:54:40	0	0	4,406031	4,596	104,8428	1,076	77,439	3,5	1005,42	7,6	9,7	9,5	1	1	1	1	1	1	1	1	1	0	1	-32,487667	275,001149	291,793024	0
14.01.2021	18:54:41	0	0	4,970906	4,86225	113,7348	1,07	77,437	3,5	1005,46	7,6	9,7	9,5	1	1	1	1	1	1	1	1	1	0	1	-31,148696	275,03088	293,272252	0
14.01.2021	18:54:42	0	0	4,970906	4,932	115,5636	1,065	77,434	3,5	1005,5	7,6	9,7	9,5	1	1	1	1	1	1	1	1	1	0	1	-33,54475	274,901337	290,265406	0
14.01.2021	18:54:43	0	0	3,502229	4,74825	107,4276	1,073	77,436	3,5	1005,46	7,6	9,7	9,5	1	1	1	1	1	1	1	1	1	0	1	-35,236082	275,035578	289,207037	0
14.01.2021	18:54:44	0	0	3,050329	4,74675	110,3724	1,073	77,435	3,5	1005,5	7,6	9,7	9,5	1	1	1	1	1	1	1	1	1	0	1	-39,323467	274,882679	284,39879	0
14.01.2021	18:54:45	0	0	4,293055	4,67925	104,454	1,061	77,443	3,5	1005,5	7,5	9,7	9,5	1	1	1	1	1	1	1	1	1	0	1	-35,377026	274,906004	288,455121	0
14.01.2021	18:54:46	0	0	2,598428	4,5705	107,7804	1,064	77,431	3,5	1005,34	7,6	9,7	9,5	1	1	1	1	1	1	1	1	1	0	1	-33,333333	274,836114	290,169624	0
14.01.2021	18:54:47	0	0	4,293055	4,503	107,4276	1,069	77,445	3,5	1005,42	7,5	9,7	9,5	1	1	1	1	1	1	1	1	1	0	1	-33,051445	274,944941	290,964209	0
14.01.2021	18:54:48	0	0	3,95413	4,3485	107,4384	1,071	77,447	3,5	1005,38	7,5	9,7	9,5	1	1	1	1	1	1	1	1	1	0	1	-34,601832	275,037145	289,848678	0
14.01.2021	18:54:49	0	0	4,18008	4,0965	107,046	1,07	77,472	3,5	1005,58	7,6	9,7	9,5	1	1	1	1	1	1	1	1	1	0	1	-27,906977	274,906004	295,92517	0
14.01.2021	18:54:50	0	0	3,389254	3,97125	106,6644	1,066	77,465	3,5	1005,44	7,6	9,7	9,5	1	1	1	1	1	1	1	1	1	0	1	-33,967583	274,962098	290,128956	0
14.01.2021	18:54:51	0	0	3,163304	3,681	92,628	1,069	77,457	3,5	1005,66	7,5	9,7	9,5	1	1	1	1	1	1	1	1	1	0	1	-37,209302	275,035578	287,233816	0
14.01.2021	18:54:52	0	0	2,937354	3,81975	98,7876	1,072	77,483	3,5	1005,46	7,6	9,7	9,5	1	1	1	1	1	1	1	1	1	0	1	-39,182523	274,937147	284,796394	0
14.01.2021	18:54:53	0	0	4,744956	4,0335	88,9416	1,069	77,469	3,5	1005,34	7,5	9,7	9,5	1	1	1	1	1	1	1	1	1	0	1	-36,011276	275,021486	288,365353	0
14.01.2021	18:54:54	0	0	2,937354	4,2075	91,4724	1,07	77,482	3,5	1005,4	7,6	9,7	9,5	1	1	1	1	1	1	1	1	1	0	1	-36,786469	274,850072	286,782211	0
14.01.2021	18:54:55	0	0	4,970906	4,36125	94,7484	1,077	77,478	3,5	1005,52	7,6	9,7	9,5	1	1	1	1	1	1	1	1	1	0	1	-34,038055	274,924684	289,882119	0
14.01.2021	18:54:56	0	0	4,293055	4,35525	95,544	1,073	77,478	3,5	1005,46	7,6	9,7	9,5	1	1	1	1	1	1	1	1	1	0	1	-36,011276	274,856278	287,586633	0
14.01.2021	18:54:57	0	0	2,485453	4,33875	88,9704	1,069	77,476	3,5	1005,46	7,6	9,7	9,5	1	1	1	1	1	1	1	1	1	0	1	-33,54475	274,915342	290,331398	0
14.01.2021	18:54:58	0	0	2,824379	4,24425	90,7776	1,071	77,47	3,5	1005,44	7,5	9,7	9,5	1	1	1	1	1	1	1	1	1	0	1	-35,870331	275,021486	288,506297	0
14.01.2021	18:54:59	0	0	4,406031	4,08225	94,4748	1,068	77,48	3,5	1005,5	7,6	9,7	9,5	1	1	1	1	1	1	1	1	1	0	1	-34,601832	274,865592	289,03994	0
14.01.2021	18:55:00	0	0	4,18008	3,61425	104,0868	1,066	77,455	3,5	1005,4	7,5	9,7	9,5	1	1	1	1	1	1	1	1	1	0	1	-36,927414	274,983957	287,272195	0
14.01.2021	18:55:01	0	0	4,18008	3,61425	104,0868	1,066	77,455	3,5	1005,4	7,5	9,7	9,5	1	1	1	1	1	1	1	1	1	0	1	-36,927414	274,983957	287,272195	0
14.01.2021	18:55:02	0	0	5,196856	3,63375	102,222	1,07	77,441	3,5	1005,56	7,5	9,7	9,5	1	1	1	1	1	1	1	1	1	0	1	-33,897111	275,043412	290,582972	0
14.01.2021	18:55:03	0	0	3,615205	3,486	119,4588	1,066	77,432	3,5	1005,5	7,5	9,7	9,5	1	1	1	1	1	1	1	1	1	0	1	-32,205779	274,930915	291,743761	0
14.01.2021	18:55:04	0	0	2,824379	3,42225	107,7264	1,07	77,431	3,5	1005,5	7,6	9,7	9,5	1	1	1	1	1	1	1	1	1	0	1	-36,081748	275,026182	288,317038	0
14.01.2021	18:55:05	0	0	2,824379	3,88725	98,442	1,07	77,43	3,5	1005,5	7,5	9,7	9,5	1	1	1	1	1	1	1	1	1	0	1	-31,148696	274,874911	292,536966	0
14.01.2021	18:55:06	0	0	2,598428	3,795	117,4284	1,071	77,418	3,5	1005,44	7,5	9,7	9,5	1	1	1	1	1	1	1	1	1	0	1	-33,967583	274,988644	290,254131	0
14.01.2021	18:55:07	0	0	2,824379	3,4785	128,376	1,069	77,429	3,5	1005,44	7,6	9,7	9,5	1	1	1	1	1	1	1	1	1	0	1	-33,756166	275,019921	290,613078	0
14.01.2021	18:55:08	0	0	4,857931	3,696	111,0636	1,068	77,405	3,5	1005,54	7,5	9,7	9,5	1	1	1	1	1	1	1	1	1	0	1	-36,645525	274,938706	287,340738	0
14.01.2021	18:55:09	0	0	2,711403	3,93225	122,7456	1,065	77,393	3,5	1005,36	7,5	9,7	9,5	1	1	1	1	1	1	1	1	1	0	1	-41,649049	275,018356	282,712813	0
14.01.2021	18:55:10	0	0	4,744956	4,176	119,1456	1,064	77,391	3,5	1005,3	7,6	9,7	9,5	1	1	1	1	1	1	1	1	1	0	1	-37,702607	275,00584	286,600212	0
14.01.2021	18:55:11	0	0	3,163304	4,4625	107,064	1,067	77,375	3,5	1005,44	7,6	9,7	9,5	1	1	1	1	1	1	1	1	1	0	1	-34,601832	274,901337	289,208324	0
14.01.2021	18:55:12	0	0	2,372478	4,51125	107,73	1,067	77,381	3,5	1005,4	7,6	9,7	9,5	1	1	1	1	1	1	1	1	1	0	1	-34,883721	274,846969	288,670349	0
14.01.2021	18:55:13	0	0	2,937354	4,31325	115,1856	1,066	77,378	3,5	1005,38	7,6	9,7	9,5	1	1	1	1	1	1	1	1	1	0	1	-37,914024	274,870251	285,74969	0
14.01.2021	18:55:14	0	0	2,485453	4,40925	120,528	1,07	77,379	3,5	1005,48	7,5	9,7	9,5	1	1	1	1	1	1	1	1	1	0	1	-35,306554	274,96678	288,812059	0
14.01.2021	18:55:15	0	0	3,276279	4,06725	120,5676	1,07	77,373	3,5	1005,46	7,6	9,7	9,5	1	1	1	1	1	1	1	1	1	0	1	-39,041579	275,016791	285,3129	0
14.01.2021	18:55:16	0	0	4,970906	3,61575	100,3392	1,069	77,372	3,5	1005,34	7,6	9,7	9,5	1	1	1	1	1	1	1	1	1	0	1	-33,403805	274,979271	290,773705	0
14.01.2021	18:55:17	0	0	4,744956	3,65775	102,5604	1,069	77,377	3,5	1005,32	7,5	9,7	9,5	1	1	1	1	1	1	1	1	1	0	1	-33,756166	275,013661	290,583549	0
14.01.2021	18:55:18	0	0	2,598428	3,77775	95,148	1,072	77,394	3,5	1005,4	7,6	9,7	9,5	1	1	1	1	1	1	1	1	1	0	1	-34,460888	274,851623	289,115098	0
14.01.2021	18:55:19	0	0	4,631981	3,891	84,4344	1,065	77,387	3,5	1005,46	7,6	9,7	9,5	1	1	1	1	1	1	1	1	1	0	1	-33,756166	274,904448	290,068649	0
14.01.2021	18:55:20	0	0	4,293055	4,13625	86,6736	1,063	77,393	3,5	1005,4	7,6	9,7	9,5	1	1	1	1	1	1	1	1	1	0	1	-33,967583	274,853175	289,61571	0
14.01.2021	18:55:21	0	0	4,519006	4,29	92,6352	1,065	77,399	3,5	1005,48	7,6	9,6	9,5	1	1	1	1	1	1	1	1	1	0	1	-34,390416	274,906004	289,441731	0
14.01.2021	18:55:22	0	0	3,050347	3,9705	94,1148	1,071	77,397	3,5	1005,54	7,6	9,7	9,4	1	1	1	1	1	1	1	1	1	0	1	-37,914024	275,023051	286,46999	0
14.01.2021	18:55:23	0	0	4,519006	4,077	104,0436	1,065	77,413	3,5	1005,48	7,6	9,7	9,5	1	1	1	1	1	1	1	1	1	0	1	-31,712474	274,874911	291,973189	0
14.01.2021	18:55:24	0	0	4,293055	4,266	97,2252	1,066	77,418	3,5	1005,54	7,6	9,7	9,5	1	1	1	1	1	1	1	1	1	0	1	-33,333333	274,876464	290,359647	0
14.01.2021	18:55:25	0	0	2,711403	4,251	94,3884	1,065	77,417	3,5	1005,46	7,6	9,7	9,5	1	1	1	1	1	1	1	1	1	0	1	-33,192389	274,851623	290,383597	0
14.01.2021	18:55:26	0	0	4,631981	4,21275	97,308	1,067	77,444	3,5	1005,62	7,6	9,7	9,5	1	1	1	1	1	1	1	1	1	0	1	-39,041579	274,923127	284,871256	0
14.01.2021	18:55:27	0	0	4,631981	3,99375	101,502	1,064	77,432	3,5	1005,46	7,6	9,7	9,5	1	1	1	1	1	1	1	1	1	0	1	-34,813249	275,029314	289,600311	0
14.01.2021	18:55:28	0	0	2,711403	3,87675	105,12	1,065	77,431	3,5	1005,48	7,6	9,7	9,5	1	1	1	1	1	1	1	1	1	0	1	-35,51797	274,898226	288,277529	0
14.01.2021	18:55:29	0	0	3,389254	3,6375	98,7732	1,063	77,422	3,5	1005,44	7,6	9,7	9,5	1	1	1	1	1	1	1	1	1	0	1	-36,504581	274,965219	287,606674	0
14.01.2021	18:55:30	0	0	2,824379	3,25125	90,0216	1,068	77,427	3,5	1005,48	7,6	9,7	9,5	1	1	1	1	1	1	1	1	1	0	1	-35,51797	274,845418	288,028796	0
14.01.2021	18:55:31	0	0	2,598428	3,1065	110,7	1,056	77,423	3,5	1005,32	7,6	9,7	9,5	1	1	1	1	1	1	1	1	1	0	1	-34,038055	274,868698	289,618345	0
14.01.2021	18:55:32	0	0	4,18013	3,12075	98,766	1,066	77,44	3,5	1005,48	7,6	9,7	9,3	1	1	1	1	1	1	1	1	1	0	1	-33,121917	274,874911	290,563746	0
14.01.2021	18:55:33	0	0	3,050329	3,2325	91,5012	1,063	77,436	3,5	1005,6	7,6	9,6	9,5	1	1	1	1	1	1	1	1	1	0	1	-33,262861	274,892006	290,503332	0
14.01.2021	18:55:34	0	0	4,067105	3,5625	87,354	1,06	77,432	3,5	1005,4	7,5	9,7	9,5	1	1	1	1	1	1	1	1	1	0	1	-37,491191	274,870251	286,172523	0
14.01.2021	18:55:35	0	0	2,824379	3,6585	102,636	1,065	77,445	3,5	1005,38	7,6	9,7	9,5	1	1	1	1	1	1	1	1	1	0	1	-37,279774	275,029314	287,133786	0
14.01.2021	18:55:36	0	0	3,615226	3,60825	113,3856	1,059	77,434	3,5	1005,38	7,6	9,6	9,4	1	1	1	1	1	1	1	1	1	0	1	-33,474278	274,882679	290,247979	0
14.01.2021	18:55:37	0	0	3,502229	3,61425	105,4944	1,064	77,437	3,5	1005,34	7,6	9,7	9,5	1	1	1	1	1	1	1	1	1	0	1	-31,92389	274,871804	291,74714	0
14.01.2021	18:55:38	0	0	3,276279	3,5205	107,0424	1,063	77,442	3,5	1005,48	7,5	9,7	9,5	1	1	1	1	1	1	1	1	1	0	1	-33,192389	274,958978	290,889437	0
14.01.2021	18:55:39	0	0	4,18008	3,51825	111,1644	1,064	77,436	3,5	1005,58	7,6	9,7	9,5	1	1	1	1	1	1	1	1	1	0	1	-37,279774	274,853175	286,303518	0
14.01.2021	18:55:40	0	0	2,937354	3,477	110,646	1,061	77,416	3,5	1005,5	7,6	9,7	9,5	1	1	1	1	1	1	1	1	1	0	1	-35,729387	274,851623	287,846599	0
14.01.2021	18:55:41	0	0	4,857931	3,537	116,3592	1,061	77,431	3,5	1005,52	7,6	9,7	9,5	1	1	1	1	1	1	1	1	1	0	1	-33,474278	274,979271	290,703233	0
14.01.2021	18:55:42	0	0	2,937354	3,70425	115,9848	1,059	77,432	3,5	1005,42	7,6	9,7	9,5	1	1	1	1	1	1	1	1	1	0	1	-37,491191	275,024617	286,900208	0
14.01.2021	18:55:43	0	0	4,293055	4,302	117,3636	1,059	77,416	3,5	1005,44	7,6	9,7	9,5	1	1	1	1	1	1	1	1	1	0	1	-34,249471	274,990207	289,979612	0
14.01.2021	18:55:44	0	0	3,163304	4,5945	115,2216	1,061	77,421	3,5	1005,52	7,6	9,7	9,5	1	1	1	1	1	1	1	1	1	0	1	-35,447498	275,015226	288,899598	0
14.01.2021	18:55:45	0	0	3,615226	4,422	118,6596	1,062	77,406	3,5	1005,4	7,6	9,7	9,4	1	1	1	1	1	1	1	1	1	0	1	-34,601832	274,842316	288,930328	0
14.01.2021	18:55:46	0	0	4,631981	3,981	124,6896	1,065	77,427	3,5	1005,46	7,6	9,7	9,5	1	1	1	1	1	1	1	1	1	0	1	-37,350247	274,913785	286,518566	0
14.01.2021	18:55:47	0	0	2,372478	3,90975	105,1272	1,055	77,428	3,5	1005,44	7,6	9,6	9,5	1	1	1	1	1	1	1	1	1	0	1	-33,192389	275,004276	291,103054	0
14.01.2021	18:55:48	0	0	3,615205	3,85275	115,9632	1,059	77,425	3,5	1005,36	7,6	9,7	9,5	1	1	1	1	1	1	1	1	1	0	1	-33,54475	274,998022	290,721193	0
14.01.2021	18:55:49	0	0	4,631981	3,7185	97,686	1,067	77,432	3,5	1005,34	7,6	9,7	9,5	1	1	1	1	1	1	1	1	1	0	1	-34,742777	274,974586	289,412642	0
14.01.2021	18:55:50	0	0	4,406031	3,66225	102,1824	1,059	77,447	3,5	1005,54	7,6	9,7	9,5	1	1	1	1	1	1	1	1	1	0	1	-34,460888	275,027748	289,945285	0
14.01.2021	18:55:51	0	0	4,857931	3,6195	88,56	1,057	77,427	3,5	1005,58	7,6	9,7	9,5	1	1	1	1	1	1	1	1	1	0	1	-36,786469	274,951178	287,258587	0
14.01.2021	18:55:52	0	0	4,406031	3,73425	111,42	1,05	77,439	3,5	1005,36	7,6	9,6	9,5	1	1	1	1	1	1	1	1	1	0	1	-33,967583	274,854727	289,623018	0
14.01.2021	18:55:53	0	0	4,857931	4,13325	111,8232	1,056	77,446	3,5	1005,5	7,6	9,6	9,5	1	1	1	1	1	1	1	1	1	0	1	-36,786469	274,906004	287,045677	0
14.01.2021	18:55:54	0	0	4,744956	4,389	108,4788	1,06	77,442	3,5	1005,16	7,6	9,7	9,5	1	1	1	1	1	1	1	1	1	0	1	-34,390416	275,013661	289,949299	0
14.01.2021	18:55:55	0	0	3,841155	4,242	117,4104	1,056	77,431	3,5	1005,32	7,6	9,7	9,5	1	1	1	1	1	1	1	1	1	0	1	-34,672304	275,012097	289,66003	0
14.01.2021	18:55:56	0	0	2,598444	4,12575	108,4716	1,059	77,439	3,5	1005,34	7,6	9,6	9,4	1	1	1	1	1	1	1	1	1	0	1	-31,360113	274,963659	292,743783	0
14.01.2021	18:55:57	0	0	4,519033	4,10325	112,7556	1,056	77,514	3,5	1005,44	7,6	9,7	9,4	1	1	1	1	1	1	1	1	1	0	1	-32,487667	274,834564	291,007991	0
14.01.2021	18:55:58	0	0	4,631981	3,97725	90,7668	1,055	77,453	3,5	1005,46	7,6	9,7	9,5	1	1	1	1	1	1	1	1	1	0	1	-35,658915	274,887342	288,085307	0
14.01.2021	18:55:59	0	0	4,631981	3,79425	95,526	1,054	77,46	3,5	1005,4	7,6	9,7	9,5	1	1	1	1	1	1	1	1	1	0	1	-32,769556	274,998022	291,496386	0
14.01.2021	18:56:00	0	0	4,744984	3,069	88,1352	1,051	77,468	3,5	1005,3	7,6	9,7	9,4	1	1	1	1	1	1	1	1	1	0	1	-38,548273	274,957418	285,526197	0
14.01.2021	18:56:01	0	0	4,744984	3,069	88,1352	1,051	77,468	3,5	1005,3	7,6	9,7	9,4	1	1	1	1	1	1	1	1	1	0	1	-38,548273	274,957418	285,526197	0
14.01.2021	18:56:02	0	0	3,163323	2,664	79,0128	1,056	77,465	3,5	1005,36	7,6	9,7	9,4	1	1	1	1	1	1	1	1	1	0	1	-39,534884	274,86404	284,099577	0
14.01.2021	18:56:03	0	0	4,293055	2,44275	88,9236	1,057	77,467	3,5	1005,42	7,6	9,7	9,5	1	1	1	1	1	1	1	1	1	0	1	-38,195913	274,960538	285,893269	0
14.01.2021	18:56:04	0	0	2,485453	2,35425	104,058	1,054	77,467	3,5	1005,4	7,6	9,6	9,5	1	1	1	1	1	1	1	1	1	0	1	-35,799859	274,843867	287,739604	0
14.01.2021	18:56:05	0	0	3,050347	2,5965	101,7792	1,051	77,457	3,5	1005,5	7,6	9,6	9,4	1	1	1	1	1	1	1	1	1	0	1	-34,390416	274,957418	289,684055	0
14.01.2021	18:56:06	0	0	3,389254	2,86725	97,3152	1,057	77,465	3,5	1005,58	7,6	9,6	9,5	1	1	1	1	1	1	1	1	1	0	1	-37,068358	274,991769	287,168096	0
14.01.2021	18:56:07	0	0	3,389254	2,97525	110,34	1,057	77,472	3,5	1005,54	7,6	9,7	9,5	1	1	1	1	1	1	1	1	1	0	1	-33,262861	275,016791	291,091617	0
14.01.2021	18:56:08	0	0	4,744956	2,88675	106,6896	1,057	77,46	3,5	1005,36	7,6	9,7	9,5	1	1	1	1	1	1	1	1	1	0	1	-31,92389	274,910672	291,930254	0
14.01.2021	18:56:09	0	0	2,711403	2,769	97,7328	1,049	77,462	3,5	1005,44	7,6	9,7	9,5	1	1	1	1	1	1	1	1	1	0	1	-35,588443	274,996458	288,670127	0
14.01.2021	18:56:10	0	0	2,711403	2,75025	100,35	1,051	77,451	3,5	1005,54	7,6	9,7	9,5	1	1	1	1	1	1	1	1	1	0	1	-35,658915	274,878018	288,041383	0
14.01.2021	18:56:11	0	0	4,519033	2,67	75,3228	1,049	77,448	3,5	1005,3	7,6	9,6	9,4	1	1	1	1	1	1	1	1	1	0	1	-37,350247	274,859383	286,26228	0
14.01.2021	18:56:12	0	0	2,824379	2,688	87,7104	1,052	77,451	3,5	1005,4	7,6	9,7	9,5	1	1	1	1	1	1	1	1	1	0	1	-39,957717	274,831463	283,523346	0
14.01.2021	18:56:13	0	0	3,050329	2,9235	99,1656	1,046	77,445	3,5	1005,34	7,6	9,7	9,5	1	1	1	1	1	1	1	1	1	0	1	-32,276251	274,990207	291,952832	0
14.01.2021	18:56:14	0	0	4,293055	3,282	91,8792	1,045	77,411	3,5	1005,42	7,6	9,6	9,5	1	1	1	1	1	1	1	1	1	0	1	-38,195913	274,836114	285,307045	0
14.01.2021	18:56:15	0	0	3,841178	3,609	84,4128	1,053	77,439	3,5	1005,44	7,6	9,7	9,4	1	1	1	1	1	1	1	1	1	0	1	-37,491191	274,904448	286,333625	0
14.01.2021	18:56:16	0	0	3,502229	3,80925	83,3076	1,048	77,428	3,5	1005,46	7,6	9,7	9,5	1	1	1	1	1	1	1	1	1	0	1	-35,024665	274,828364	288,441804	0
14.01.2021	18:56:17	0	0	4,293081	3,93675	85,9284	1,048	77,432	3,5	1005,46	7,6	9,7	9,4	1	1	1	1	1	1	1	1	1	0	1	-37,491191	274,921569	286,414305	0
14.01.2021	18:56:18	0	0	3,72818	4,23375	95,5188	1,044	77,426	3,5	1005,4	7,6	9,6	9,5	1	1	1	1	1	1	1	1	1	0	1	-33,967583	274,831463	289,513479	0
14.01.2021	18:56:19	0	0	4,067129	4,12425	85,8888	1,05	77,424	3,5	1005,46	7,6	9,7	9,4	1	1	1	1	1	1	1	1	1	0	1	-36,575053	274,913785	287,29376	0
14.01.2021	18:56:20	0	0	3,163323	3,78825	86,5872	1,05	77,437	3,5	1005,44	7,6	9,6	9,4	1	1	1	1	1	1	1	1	1	0	1	-35,729387	275,004276	288,566056	0
14.01.2021	18:56:21	0	0	4,857931	3,522	84,0384	1,051	77,428	3,5	1005,44	7,6	9,7	9,5	1	1	1	1	1	1	1	1	1	0	1	-36,856942	274,876464	286,836038	0
14.01.2021	18:56:22	0	0	4,970936	3,183	71,9892	1,048	77,421	3,5	1005,36	7,6	9,7	9,4	1	1	1	1	1	1	1	1	1	0	1	-33,333333	274,823715	290,111252	0
14.01.2021	18:56:23	0	0	2,598428	2,9175	89,7804	1,043	77,433	3,5	1005,36	7,6	9,7	9,5	1	1	1	1	1	1	1	1	1	0	1	-38,407329	274,839215	285,110228	0
14.01.2021	18:56:24	0	0	3,728202	2,871	80,4852	1,049	77,442	3,5	1005,52	7,4	9,7	9,4	1	1	1	1	1	1	1	1	1	0	1	-34,390416	274,929357	289,551781	0
14.01.2021	18:56:25	0	0	4,293055	2,92125	65,0664	1,047	77,456	3,5	1005,46	7,6	9,6	9,5	1	1	1	1	1	1	1	1	1	0	1	-38,12544	274,837664	285,384816	0
14.01.2021	18:56:26	0	0	4,632009	3,0435	77,166	1,045	77,44	3,5	1005,28	7,6	9,6	9,4	1	1	1	1	1	1	1	1	1	0	1	-36,011276	274,909116	287,835535	0
14.01.2021	18:56:27	0	0	2,598444	3,2805	77,5944	1,047	77,455	3,5	1005,38	7,6	9,7	9,4	1	1	1	1	1	1	1	1	1	0	1	-36,575053	274,834564	286,920605	0
14.01.2021	18:56:28	0	0	2,372478	3,6885	77,2092	1,051	77,435	3,5	1005,38	7,6	9,6	9,5	1	1	1	1	1	1	1	1	1	0	1	-38,407329	274,820617	285,02267	0
14.01.2021	18:56:29	0	0	3,50225	3,91725	80,5212	1,05	77,45	3,5	1005,32	7,6	9,7	9,4	1	1	1	1	1	1	1	1	1	0	1	-37,350247	274,937147	286,62867	0
14.01.2021	18:56:30	0	0	3,954154	4,25925	85,9284	1,043	77,433	3,5	1005,34	7,6	9,6	9,4	1	1	1	1	1	1	1	1	1	0	1	-40,028189	274,999585	284,245128	0
14.01.2021	18:56:31	0	0	3,050329	4,3155	96,2208	1,039	77,433	3,5	1005,48	7,6	9,6	9,5	1	1	1	1	1	1	1	1	1	0	1	-36,856942	274,893561	286,916577	0
14.01.2021	18:56:32	0	0	2,711403	4,272	82,998	1,045	77,441	3,5	1005,4	7,6	9,6	9,5	1	1	1	1	1	1	1	1	1	0	1	-35,799859	274,843867	287,739604	0
14.01.2021	18:56:33	0	0	4,519006	4,04475	71,9856	1,044	77,428	3,5	1005,38	7,6	9,7	9,5	1	1	1	1	1	1	1	1	1	0	1	-36,293164	274,814422	287,107671	0
14.01.2021	18:56:34	0	0	4,519033	3,83775	78,2856	1,042	77,444	3,5	1005,36	7,6	9,7	9,4	1	1	1	1	1	1	1	1	1	0	1	-36,293164	274,957418	287,781306	0
14.01.2021	18:56:35	0	0	4,85796	3,68775	90,4212	1,041	77,426	3,5	1005,44	7,6	9,6	9,4	1	1	1	1	1	1	1	1	1	0	1	-34,460888	274,996458	289,797681	0
14.01.2021	18:56:36	0	0	2,598428	3,79575	85,5288	1,042	77,454	3,5	1005,38	7,6	9,7	9,5	1	1	1	1	1	1	1	1	1	0	1	-34,672304	274,834564	288,823354	0
14.01.2021	18:56:37	0	0	3,389275	3,98625	93,4128	1,045	77,452	3,5	1005,48	7,6	9,6	9,4	1	1	1	1	1	1	1	1	1	0	1	-35,51797	274,982395	288,674271	0
14.01.2021	18:56:38	0	0	4,406031	4,19325	92,2968	1,044	77,455	3,5	1005,36	7,6	9,6	9,5	1	1	1	1	1	1	1	1	1	0	1	-38,548273	274,814422	284,852562	0
14.01.2021	18:56:39	0	0	4,18008	4,50675	88,5672	1,041	77,45	3,5	1005,24	7,6	9,6	9,5	1	1	1	1	1	1	1	1	1	0	1	-33,826638	274,944941	290,189015	0
14.01.2021	18:56:40	0	0	2,824395	4,7805	91,8684	1,045	77,466	3,5	1005,46	7,6	9,6	9,4	1	1	1	1	1	1	1	1	1	0	1	-36,081748	274,839215	287,43581	0
14.01.2021	18:56:41	0	0	2,711403	4,719	94,0788	1,045	77,46	3,5	1005,48	7,6	9,6	9,5	1	1	1	1	1	1	1	1	1	0	1	-33,262861	274,982395	290,929381	0
14.01.2021	18:56:42	0	0	4,067105	4,7055	92,628	1,039	77,435	3,5	1005,28	7,6	9,6	9,5	1	1	1	1	1	1	1	1	1	0	1	-33,967583	274,899781	289,835244	0
14.01.2021	18:56:43	0	0	3,841155	4,7325	90,396	1,039	77,452	3,5	1005,5	7,6	9,6	9,5	1	1	1	1	1	1	1	1	1	0	1	-39,041579	274,829914	284,432187	0
14.01.2021	18:56:44	0	0	4,067129	4,79475	90,7848	1,037	77,443	3,5	1005,46	7,6	9,7	9,4	1	1	1	1	1	1	1	1	1	0	1	-34,249471	274,96678	289,869142	0
14.01.2021	18:56:45	0	0	3,841178	4,61025	98,0712	1,043	77,46	3,5	1005,46	7,4	9,6	9,4	1	1	1	1	1	1	1	1	1	0	1	-33,685694	274,873357	289,992652	0
14.01.2021	18:56:46	0	0	2,711403	4,24875	105,498	1,041	77,449	3,5	1005,42	7,6	9,6	9,5	1	1	1	1	1	1	1	1	1	0	1	-32,980973	274,819068	290,441735	0
14.01.2021	18:56:47	0	0	3,615205	4,1775	104,76	1,038	77,459	3,5	1005,52	7,6	9,6	9,5	1	1	1	1	1	1	1	1	1	0	1	-33,474278	274,918455	290,416543	0
14.01.2021	18:56:48	0	0	2,372492	4,3275	100,3752	1,034	77,471	3,5	1005,42	7,6	9,7	9,4	1	1	1	1	1	1	1	1	1	0	1	-35,024665	274,990207	289,204418	0
14.01.2021	18:56:49	0	0	4,970936	4,83075	102,5712	1,047	77,462	3,5	1005,36	7,6	9,6	9,4	1	1	1	1	1	1	1	1	1	0	1	-36,222692	274,851623	287,353294	0
14.01.2021	18:56:50	0	0	2,71142	5,30475	97,686	1,032	77,464	3,5	1005,36	7,6	9,6	9,4	1	1	1	1	1	1	1	1	1	0	1	-35,51797	274,916899	288,365513	0
14.01.2021	18:56:51	0	0	4,631981	5,30325	99,8964	1,036	77,464	3,5	1005,54	7,6	9,6	9,5	1	1	1	1	1	1	1	1	1	0	1	-35,658915	274,820617	287,771084	0
14.01.2021	18:56:52	0	0	4,293081	5,0685	95,8608	1,03	77,467	3,5	1005,32	7,6	9,6	9,4	1	1	1	1	1	1	1	1	1	0	1	-37,914024	274,938706	286,072239	0
14.01.2021	18:56:53	0	0	3,728202	4,7895	96,2424	1,042	77,471	3,5	1005,34	7,6	9,6	9,4	1	1	1	1	1	1	1	1	1	0	1	-39,182523	274,985519	285,024453	0
14.01.2021	18:56:54	0	0	4,18008	4,82175	98,7948	1,035	77,489	3,5	1005,4	7,6	9,6	9,5	1	1	1	1	1	1	1	1	1	0	1	-33,897111	274,9465	290,125893	0
14.01.2021	18:56:55	0	0	3,389275	4,3905	78,6636	1,041	77,502	3,5	1005,6	7,6	9,6	9,4	1	1	1	1	1	1	1	1	1	0	1	-34,742777	274,980833	289,442099	0
14.01.2021	18:56:56	0	0	4,18008	3,9765	83,7	1,036	77,502	3,5	1005,42	7,6	9,6	9,5	1	1	1	1	1	1	1	1	1	0	1	-33,967583	274,988644	290,254131	0
14.01.2021	18:56:57	0	0	3,389275	4,02225	89,6904	1,033	77,513	3,5	1005,38	7,6	9,6	9,4	1	1	1	1	1	1	1	1	1	0	1	-34,178999	274,918455	289,711821	0
14.01.2021	18:56:58	0	0	4,293081	4,275	95,8176	1,039	77,525	3,5	1005,48	7,6	9,6	9,4	1	1	1	1	1	1	1	1	1	0	1	-32,417195	274,825265	291,034684	0
14.01.2021	18:56:59	0	0	2,598444	4,40175	95,5188	1,038	77,501	3,5	1005,36	7,6	9,6	9,4	1	1	1	1	1	1	1	1	1	0	1	-38,689218	274,991769	285,547236	0
14.01.2021	18:57:00	0	0	2,937371	4,01775	80,5032	1,039	77,529	3,5	1005,5	7,4	9,6	9,4	1	1	1	1	1	1	1	1	1	0	1	-35,447498	274,86404	288,186962	0
14.01.2021	18:57:01	0	0	2,937371	4,01775	80,5032	1,039	77,529	3,5	1005,5	7,4	9,6	9,4	1	1	1	1	1	1	1	1	1	0	1	-35,447498	274,86404	288,186962	0
14.01.2021	18:57:02	0	0	4,293081	3,60375	79,0236	1,04	77,53	3,5	1005,42	7,6	9,6	9,4	1	1	1	1	1	1	1	1	1	0	1	-33,967583	274,809776	289,411388	0
14.01.2021	18:57:03	0	0	4,067129	3,456	82,5948	1,031	77,532	3,5	1005,44	7,6	9,6	9,4	1	1	1	1	1	1	1	1	1	0	1	-39,393939	274,902892	284,423546	0
14.01.2021	18:57:04	0	0	4,519033	3,42225	97,3188	1,039	77,547	3,5	1005,56	7,6	9,6	9,4	1	1	1	1	1	1	1	1	1	0	1	-37,279774	274,96678	286,838839	0
14.01.2021	18:57:05	0	0	4,406057	3,24825	100,7496	1,031	77,554	3,5	1005,38	7,6	9,6	9,4	1	1	1	1	1	1	1	1	1	0	1	-37,350247	274,976147	286,812535	0
14.01.2021	18:57:06	0	0	3,50225	3,15825	105,1272	1,035	77,54	3,5	1005,48	7,6	9,6	9,4	1	1	1	1	1	1	1	1	1	0	1	-36,222692	274,940265	287,770917	0
14.01.2021	18:57:07	0	0	4,406057	3,74925	100,3824	1,028	77,543	3,5	1005,38	7,6	9,6	9,4	1	1	1	1	1	1	1	1	1	0	1	-39,112051	274,977709	285,058095	0
14.01.2021	18:57:08	0	0	2,824395	4,5765	109,9836	1,032	77,56	3,5	1005,32	7,6	9,6	9,4	1	1	1	1	1	1	1	1	1	0	1	-37,491191	274,955858	286,575925	0
14.01.2021	18:57:09	0	0	4,406031	4,9215	113,7348	1,032	77,543	3,5	1005,32	7,6	9,6	9,5	1	1	1	1	1	1	1	1	1	0	1	-37,491191	274,980833	286,693685	0
14.01.2021	18:57:10	0	0	3,954154	4,947	109,6236	1,033	77,541	3,5	1005,46	7,6	9,6	9,4	1	1	1	1	1	1	1	1	1	0	1	-35,024665	274,940265	288,968944	0
14.01.2021	18:57:11	0	0	2,372478	4,8465	105,1092	1,032	77,56	3,5	1005,42	7,6	9,6	9,5	1	1	1	1	1	1	1	1	1	0	1	-35,024665	274,839215	288,492892	0
14.01.2021	18:57:12	0	0	4,067129	4,6485	102,2184	1,032	77,556	3,5	1005,5	7,6	9,6	9,4	1	1	1	1	1	1	1	1	1	0	1	-33,897111	274,831463	289,583952	0
14.01.2021	18:57:13	0	0	2,598444	4,6455	109,5984	1,03	77,57	3,5	1005,44	7,6	9,6	9,4	1	1	1	1	1	1	1	1	1	0	1	-36,856942	274,913785	287,011871	0
14.01.2021	18:57:14	0	0	4,406057	4,65	110,6928	1,026	77,578	3,5	1005,22	7,6	9,7	9,4	1	1	1	1	1	1	1	1	1	0	1	-35,51797	274,823715	287,926615	0
14.01.2021	18:57:15	0	0	2,71142	4,4985	104,0256	1,027	77,592	3,5	1005,36	7,6	9,7	9,4	1	1	1	1	1	1	1	1	1	0	1	-34,742777	274,846969	288,811293	0
14.01.2021	18:57:16	0	0	3,615226	4,31925	94,1112	1,029	77,604	3,5	1005,38	7,6	9,6	9,4	1	1	1	1	1	1	1	1	1	0	1	-40,451022	274,871804	283,220008	0
14.01.2021	18:57:17	0	0	2,711403	4,20675	96,984	1,033	77,619	3,5	1005,4	7,6	9,7	9,5	1	1	1	1	1	1	1	1	1	0	1	-35,51797	274,808228	287,853713	0
14.01.2021	18:57:18	0	0	4,970936	4,12725	117,0828	1,027	77,635	3,5	1005,28	7,6	9,6	9,4	1	1	1	1	1	1	1	1	1	0	1	-37,350247	274,882679	286,37201	0
14.01.2021	18:57:19	0	0	3,728202	4,10325	112,6692	1,023	77,648	3,5	1005,4	7,6	9,6	9,4	1	1	1	1	1	1	1	1	1	0	1	-33,826638	274,820617	289,603361	0
14.01.2021	18:57:20	0	0	4,293081	3,80325	98,424	1,022	77,653	3,5	1005,48	7,6	9,6	9,4	1	1	1	1	1	1	1	1	1	0	1	-36,856942	274,896671	286,93123	0
14.01.2021	18:57:21	0	0	2,824395	3,564	85,8744	1,024	77,668	3,5	1005,44	7,6	9,6	9,4	1	1	1	1	1	1	1	1	1	0	1	-36,997886	274,805132	286,359226	0
14.01.2021	18:57:22	0	0	3,954154	3,6735	87,4368	1,029	77,702	3,5	1005,28	7,4	9,6	9,4	1	1	1	1	1	1	1	1	1	0	1	-35,51797	274,949619	288,519734	0
14.01.2021	18:57:23	0	0	4,293081	3,62175	103,6584	1,032	77,712	3,5	1005,38	7,6	9,6	9,4	1	1	1	1	1	1	1	1	1	0	1	-36,434109	274,977709	287,736037	0
14.01.2021	18:57:24	0	0	4,632009	3,61275	92,97	1,027	77,747	3,5	1005,6	7,6	9,6	9,4	1	1	1	1	1	1	1	1	1	0	1	-39,816772	274,842316	283,715388	0
14.01.2021	18:57:25	0	0	2,485468	3,69675	94,1076	1,028	77,72	3,5	1005,34	7,6	9,7	9,4	1	1	1	1	1	1	1	1	1	0	1	-35,16561	274,862487	288,461539	0
14.01.2021	18:57:26	0	0	4,180105	3,8955	79,7652	1,028	77,726	3,5	1005,36	7,6	9,7	9,4	1	1	1	1	1	1	1	1	1	0	1	-34,601832	274,80668	288,762565	0
14.01.2021	18:57:27	0	0	3,728202	4,1055	87,3576	1,032	77,719	3,5	1005,46	7,6	9,6	9,4	1	1	1	1	1	1	1	1	1	0	1	-34,460888	274,898226	289,334611	0
14.01.2021	18:57:28	0	0	4,519006	4,0935	99,1368	1,03	77,716	3,5	1005,38	7,6	9,6	9,5	1	1	1	1	1	1	1	1	1	0	1	-36,645525	274,982395	287,546717	0
14.01.2021	18:57:29	0	0	3,276299	4,1895	104,0724	1,027	77,72	3,5	1005,48	7,6	9,6	9,4	1	1	1	1	1	1	1	1	1	0	1	-38,971106	274,837664	284,53915	0
14.01.2021	18:57:30	0	0	3,72818	4,32975	103,2768	1,029	77,705	3,5	1005,5	7,6	9,6	9,5	1	1	1	1	1	1	1	1	1	0	1	-36,856942	274,871804	286,814088	0
14.01.2021	18:57:31	0	0	4,067105	4,60575	99,1548	1,027	77,718	3,5	1005,58	7,6	9,6	9,5	1	1	1	1	1	1	1	1	1	0	1	-34,249471	274,823715	289,195114	0
14.01.2021	18:57:32	0	0	3,72818	4,67925	104,4288	1,021	77,706	3,5	1005,46	7,6	9,7	9,5	1	1	1	1	1	1	1	1	1	0	1	-37,632135	274,906004	286,200011	0
14.01.2021	18:57:33	0	0	3,50225	4,64775	103,32	1,022	77,707	3,5	1005,4	7,6	9,6	9,4	1	1	1	1	1	1	1	1	1	0	1	-37,279774	274,983957	286,919834	0
14.01.2021	18:57:34	0	0	3,163323	4,65825	96,9552	1,032	77,7	3,5	1005,46	7,6	9,6	9,4	1	1	1	1	1	1	1	1	1	0	1	-40,944327	274,811325	282,441931	0
14.01.2021	18:57:35	0	0	2,372478	4,701	96,1884	1,027	77,701	3,5	1005,46	7,6	9,7	9,5	1	1	1	1	1	1	1	1	1	0	1	-38,12544	274,935589	285,846131	0
14.01.2021	18:57:36	0	0	2,711403	4,71	104,4396	1,032	77,685	3,5	1005,52	7,6	9,6	9,5	1	1	1	1	1	1	1	1	1	0	1	-32,276251	274,803585	291,073576	0
14.01.2021	18:57:37	0	0	4,85796	4,842	99,162	1,029	77,672	3,5	1005,4	7,6	9,6	9,4	1	1	1	1	1	1	1	1	1	0	1	-40,38055	274,990207	283,848533	0
14.01.2021	18:57:38	0	0	3,50225	4,84575	103,302	1,029	77,68	3,5	1005,32	7,4	9,6	9,4	1	1	1	1	1	1	1	1	1	0	1	-34,460888	274,846969	289,093182	0
14.01.2021	18:57:39	0	0	4,406057	4,7685	104,0472	1,017	77,675	3,5	1005,54	7,6	9,6	9,4	1	1	1	1	1	1	1	1	1	0	1	-34,390416	274,991769	289,846038	0
14.01.2021	18:57:40	0	0	3,841178	4,85625	103,68	1,031	77,688	3,5	1005,56	7,6	9,6	9,4	1	1	1	1	1	1	1	1	1	0	1	-34,249471	274,94806	289,780882	0
14.01.2021	18:57:41	0	0	4,406057	4,824	108,8712	1,025	77,691	3,5	1005,3	7,4	9,6	9,4	1	1	1	1	1	1	1	1	1	0	1	-35,095137	274,809776	288,283833	0
14.01.2021	18:57:42	0	0	4,857931	4,74825	115,9668	1,025	77,697	3,5	1005,3	7,6	9,6	9,5	1	1	1	1	1	1	1	1	1	0	1	-38,75969	274,952738	285,292719	0
14.01.2021	18:57:43	0	0	2,485468	4,66725	111,0312	1,029	77,69	3,5	1005,38	7,6	9,6	9,4	1	1	1	1	1	1	1	1	1	0	1	-36,293164	274,940265	287,700445	0
14.01.2021	18:57:44	0	0	2,598444	4,54575	107,4456	1,028	77,705	3,5	1005,4	7,6	9,6	9,4	1	1	1	1	1	1	1	1	1	0	1	-37,702607	274,998022	286,563335	0
14.01.2021	18:57:45	0	0	4,067129	4,64025	101,808	1,019	77,691	3,5	1005,3	7,6	9,6	9,4	1	1	1	1	1	1	1	1	1	0	1	-33,897111	274,965219	290,214144	0
14.01.2021	18:57:46	0	0	2,824395	4,8585	101,1024	1,023	77,685	3,5	1005,44	7,6	9,6	9,4	1	1	1	1	1	1	1	1	1	0	1	-35,51797	274,902892	288,299515	0
14.01.2021	18:57:47	0	0	4,519033	4,95075	99,1512	1,029	77,684	3,5	1005,56	7,6	9,6	9,4	1	1	1	1	1	1	1	1	1	0	1	-31,853418	274,798942	291,474559	0
14.01.2021	18:57:48	0	0	3,163323	4,85775	106,9812	1,026	77,706	3,5	1005,3	7,6	9,6	9,4	1	1	1	1	1	1	1	1	1	0	1	-33,756166	274,951178	290,28889	0
14.01.2021	18:57:49	0	0	3,841178	5,04975	100,7388	1,028	77,703	3,5	1005,52	7,6	9,6	9,4	1	1	1	1	1	1	1	1	1	0	1	-33,967583	274,829914	289,506183	0
14.01.2021	18:57:50	0	0	4,744984	5,091	100,3464	1,027	77,673	3,5	1005,4	7,6	9,6	9,4	1	1	1	1	1	1	1	1	1	0	1	-37,984496	274,983957	286,215113	0
14.01.2021	18:57:51	0	0	4,293081	4,9035	104,076	1,026	77,69	3,5	1005,48	7,6	9,6	9,4	1	1	1	1	1	1	1	1	1	0	1	-38,689218	274,909116	285,157593	0
14.01.2021	18:57:52	0	0	4,406057	4,59	94,752	1,028	77,684	3,5	1005,18	7,6	9,6	9,4	1	1	1	1	1	1	1	1	1	0	1	-33,897111	274,994895	290,354086	0
14.01.2021	18:57:53	0	0	2,824395	4,54425	96,21	1,029	77,686	3,5	1005,38	7,4	9,6	9,4	1	1	1	1	1	1	1	1	1	0	1	-35,729387	274,990207	288,499696	0
14.01.2021	18:57:54	0	0	3,050347	4,37175	98,7624	1,027	77,701	3,5	1005,44	7,4	9,6	9,4	1	1	1	1	1	1	1	1	1	0	1	-35,658915	274,909116	288,187896	0
14.01.2021	18:57:55	0	0	4,744984	4,218	95,49	1,025	77,713	3,5	1005,52	7,6	9,6	9,4	1	1	1	1	1	1	1	1	1	0	1	-40,169133	274,96678	283,94948	0
14.01.2021	18:57:56	0	0	4,744984	4,1655	92,6424	1,025	77,711	3,5	1005,48	7,6	9,6	9,4	1	1	1	1	1	1	1	1	1	0	1	-33,262861	274,862487	290,364287	0
14.01.2021	18:57:57	0	0	4,85796	4,03725	97,704	1,019	77,718	3,5	1005,5	7,4	9,6	9,4	1	1	1	1	1	1	1	1	1	0	1	-36,434109	274,987081	287,780236	0
14.01.2021	18:57:58	0	0	3,050347	3,8355	94,7556	1,029	77,723	3,5	1005,42	7,5	9,6	9,4	1	1	1	1	1	1	1	1	1	0	1	-34,601832	274,885788	289,135067	0
14.01.2021	18:57:59	0	0	3,728202	3,672	97,326	1,029	77,717	3,5	1005,36	7,4	9,6	9,4	1	1	1	1	1	1	1	1	1	0	1	-38,971106	274,996458	285,287463	0
14.01.2021	18:58:00	0	0	3,50225	3,91425	102,564	1,027	77,73	3,5	1005,5	7,4	9,6	9,4	1	1	1	1	1	1	1	1	1	0	1	-38,689218	274,938706	285,297045	0
14.01.2021	18:58:01	0	0	3,50225	3,91425	102,564	1,027	77,73	3,5	1005,5	7,4	9,6	9,4	1	1	1	1	1	1	1	1	1	0	1	-38,689218	274,938706	285,297045	0
14.01.2021	18:58:02	0	0	2,71142	4,07625	95,5188	1,027	77,719	3,5	1005,3	7,6	9,6	9,4	1	1	1	1	1	1	1	1	1	0	1	-36,927414	274,999585	287,345903	0
14.01.2021	18:58:03	0	0	3,389275	4,1445	93,348	1,028	77,727	3,5	1005,4	7,6	9,7	9,4	1	1	1	1	1	1	1	1	1	0	1	-33,685694	274,853175	289,897599	0
14.01.2021	18:58:04	0	0	2,71142	4,06725	94,7772	1,025	77,74	3,5	1005,46	7,6	9,7	9,4	1	1	1	1	1	1	1	1	1	0	1	-35,306554	274,812873	288,086993	0
14.01.2021	18:58:05	0	0	3,276299	3,84375	94,3632	1,027	77,717	3,5	1005,34	7,6	9,6	9,4	1	1	1	1	1	1	1	1	1	0	1	-39,393939	274,982395	284,798302	0
14.01.2021	18:58:06	0	0	2,824395	3,66	84,8088	1,025	77,737	3,5	1005,4	7,6	9,6	9,4	1	1	1	1	1	1	1	1	1	0	1	-33,826638	274,865592	289,815134	0
14.01.2021	18:58:07	0	0	2,485468	3,4635	90,4104	1,022	77,748	3,5	1005,48	7,4	9,6	9,4	1	1	1	1	1	1	1	1	1	0	1	-39,7463	274,999585	284,527016	0
14.01.2021	18:58:08	0	0	3,050347	3,48525	88,5492	1,025	77,752	3,5	1005,42	7,6	9,6	9,4	1	1	1	1	1	1	1	1	1	0	1	-34,813249	274,881125	288,901688	0
14.01.2021	18:58:09	0	0	3,389275	3,75975	92,9412	1,022	77,752	3,5	1005,54	7,6	9,6	9,4	1	1	1	1	1	1	1	1	1	0	1	-37,068358	274,825265	286,383521	0
14.01.2021	18:58:10	0	0	3,389275	4,05675	96,5736	1,026	77,749	3,5	1005,36	7,6	9,6	9,4	1	1	1	1	1	1	1	1	1	0	1	-32,769556	274,846969	290,784514	0
14.01.2021	18:58:11	0	0	4,067129	4,05825	91,1376	1,023	77,727	3,5	1005,44	7,6	9,6	9,4	1	1	1	1	1	1	1	1	1	0	1	-36,081748	274,882679	287,640509	0
14.01.2021	18:58:12	0	0	2,598444	4,08675	87,3504	1,019	77,733	3,5	1005,28	7,6	9,6	9,4	1	1	1	1	1	1	1	1	1	0	1	-41,085271	274,994895	283,165925	0
14.01.2021	18:58:13	0	0	3,50225	4,04325	84,8844	1,021	77,726	3,5	1005,24	7,6	9,6	9,4	1	1	1	1	1	1	1	1	1	0	1	-35,870331	274,862487	287,756817	0
14.01.2021	18:58:14	0	0	2,937371	3,85425	75,6216	1,026	77,73	3,5	1005,54	7,6	9,6	9,4	1	1	1	1	1	1	1	1	1	0	1	-37,843552	274,833013	285,644808	0
14.01.2021	18:58:15	0	0	4,744984	3,6465	76,7988	1,03	77,726	3,5	1005,42	7,4	9,6	9,4	1	1	1	1	1	1	1	1	1	0	1	-40,239605	274,988644	283,982108	0
14.01.2021	18:58:16	0	0	2,824395	3,6525	80,1144	1,028	77,724	3,5	1005,44	7,6	9,6	9,4	1	1	1	1	1	1	1	1	1	0	1	-36,575053	274,934031	287,389174	0
14.01.2021	18:58:17	0	0	5,196888	4,10175	73,4328	1,027	77,728	3,5	1005,34	7,4	9,6	9,4	1	1	1	1	1	1	1	1	1	0	1	-39,534884	274,823715	283,909701	0
14.01.2021	18:58:18	0	0	4,519033	4,28625	78,9912	1,025	77,701	3,5	1005,22	7,6	9,6	9,4	1	1	1	1	1	1	1	1	1	0	1	-37,491191	274,895116	286,289654	0
14.01.2021	18:58:19	0	0	3,276299	4,308	83,754	1,025	77,712	3,5	1005,36	7,6	9,6	9,4	1	1	1	1	1	1	1	1	1	0	1	-40,098661	274,839215	283,418896	0
14.01.2021	18:58:20	0	0	3,163304	4,05225	98,7624	1,026	77,709	3,5	1005,46	7,4	9,6	9,5	1	1	1	1	1	1	1	1	1	0	1	-39,534884	274,850072	284,033796	0
14.01.2021	18:58:21	0	0	3,276299	4,245	67,9968	1,026	77,724	3,5	1005,42	7,4	9,6	9,4	1	1	1	1	1	1	1	1	1	0	1	-40,38055	274,926242	283,546965	0
14.01.2021	18:58:22	0	0	4,293081	4,71975	65,4804	1,022	77,72	3,5	1005,34	7,4	9,6	9,4	1	1	1	1	1	1	1	1	1	0	1	-34,390416	275,001149	289,890276	0
14.01.2021	18:58:23	0	0	4,970936	4,7805	73,4184	1,026	77,701	3,5	1005,36	7,6	9,6	9,4	1	1	1	1	1	1	1	1	1	0	1	-34,108527	274,902892	289,708958	0
14.01.2021	18:58:24	0	0	3,841178	4,6575	71,9928	1,025	77,704	3,5	1005,26	7,5	9,6	9,4	1	1	1	1	1	1	1	1	1	0	1	-38,548273	275,001149	285,732418	0
14.01.2021	18:58:25	0	0	3,954154	4,31025	89,7084	1,033	77,707	3,5	1005,38	7,6	9,6	9,4	1	1	1	1	1	1	1	1	1	0	1	-38,75969	274,854727	284,83091	0
14.01.2021	18:58:26	0	0	2,937371	4,6515	44,4024	1,032	77,695	3,5	1005,4	7,6	9,6	9,4	1	1	1	1	1	1	1	1	1	0	1	-40,662438	274,990207	283,566645	0
14.01.2021	18:58:27	0	0	3,954154	5,1645	35,0892	1,027	77,695	3,5	1005,42	7,4	9,6	9,4	1	1	1	1	1	1	1	1	1	0	1	-39,182523	275,008968	285,135053	0
14.01.2021	18:58:28	0	0	4,970936	5,2065	30,7116	1,034	77,692	3,5	1005,34	7,6	9,6	9,4	1	1	1	1	1	1	1	1	1	0	1	-34,742777	274,896671	289,045395	0
14.01.2021	18:58:29	0	0	4,519033	5,03325	51,7464	1,03	77,701	3,5	1005,42	7,5	9,6	9,4	1	1	1	1	1	1	1	1	1	0	1	-39,393939	274,817519	284,021477	0
14.01.2021	18:58:30	0	0	4,406057	4,755	56,2824	1,033	77,687	3,5	1005,36	7,6	9,6	9,4	1	1	1	1	1	1	1	1	1	0	1	-35,024665	274,954298	289,035097	0
14.01.2021	18:58:31	0	0	3,728202	4,1025	87,7824	1,026	77,691	3,5	1005,4	7,6	9,6	9,4	1	1	1	1	1	1	1	1	1	0	1	-35,095137	274,993332	289,148687	0
14.01.2021	18:58:32	0	0	2,824379	3,423	79,0092	1,03	77,673	3,5	1005,36	7,6	9,6	9,5	1	1	1	1	1	1	1	1	1	0	1	-35,870331	274,879571	287,837286	0
14.01.2021	18:58:33	0	0	3,389275	3,2775	93,3444	1,027	77,704	3,5	1005,44	7,4	9,6	9,4	1	1	1	1	1	1	1	1	1	0	1	-35,095137	274,865592	288,546635	0
14.01.2021	18:58:34	0	0	4,293081	3,84675	93,3588	1,024	77,695	3,5	1005,42	7,5	9,6	9,4	1	1	1	1	1	1	1	1	1	0	1	-39,393939	275,024617	284,99746	0
14.01.2021	18:58:35	0	0	2,259516	4,1145	69,5196	1,028	77,703	3,5	1005,46	7,6	9,6	9,4	1	1	1	1	1	1	1	1	1	0	1	-37,77308	274,909116	286,073731	0
14.01.2021	18:58:36	0	0	2,485468	4,965	71,604	1,027	77,684	3,5	1005,5	7,6	9,6	9,4	1	1	1	1	1	1	1	1	1	0	1	-37,068358	274,833013	286,420002	0
14.01.2021	18:58:37	0	0	4,18008	5,9475	71,2332	1,028	77,688	3,5	1005,5	7,4	9,6	9,5	1	1	1	1	1	1	1	1	1	0	1	-39,393939	274,854727	284,196661	0
14.01.2021	18:58:38	0	0	2,71142	5,69325	82,584	1,026	77,675	3,5	1005,4	7,6	9,6	9,4	1	1	1	1	1	1	1	1	1	0	1	-38,054968	274,941823	285,945988	0
14.01.2021	18:58:39	0	0	2,824395	5,41575	90,018	1,029	77,686	3,5	1005,44	7,5	9,6	9,4	1	1	1	1	1	1	1	1	1	0	1	-41,860465	274,833013	281,627895	0
14.01.2021	18:58:40	0	0	2,711403	5,325	83,7108	1,027	77,651	3,5	1005,36	7,6	9,6	9,5	1	1	1	1	1	1	1	1	1	0	1	-37,279774	274,968341	286,846198	0
14.01.2021	18:58:41	0	0	2,71142	5,598	94,3776	1,03	77,665	3,5	1005,34	7,6	9,6	9,4	1	1	1	1	1	1	1	1	1	0	1	-32,55814	274,993332	291,685685	0
14.01.2021	18:58:42	0	0	2,824395	5,50725	98,4276	1,031	77,662	3,5	1005,4	7,6	9,6	9,4	1	1	1	1	1	1	1	1	1	0	1	-34,813249	274,895116	288,967596	0
14.01.2021	18:58:43	0	0	4,519033	5,364	92,2608	1,025	77,654	3,5	1005,36	7,6	9,6	9,4	1	1	1	1	1	1	1	1	1	0	1	-39,393939	274,96678	284,724674	0
14.01.2021	18:58:44	0	0	2,824395	5,32575	89,7156	1,029	77,642	3,5	1005,3	7,6	9,6	9,4	1	1	1	1	1	1	1	1	1	0	1	-39,464412	275,016791	284,890067	0
14.01.2021	18:58:45	0	0	2,598444	5,4825	88,074	1,029	77,647	3,5	1005,42	7,6	9,6	9,4	1	1	1	1	1	1	1	1	1	0	1	-38,054968	274,851623	285,521018	0
14.01.2021	18:58:46	0	0	4,632009	6,3075	92,2824	1,033	77,665	3,5	1005,48	7,6	9,6	9,4	1	1	1	1	1	1	1	1	1	0	1	-36,011276	274,999585	288,262041	0
14.01.2021	18:58:47	0	0	3,615226	6,02475	92,6424	1,034	77,653	3,5	1005,4	7,6	9,6	9,4	1	1	1	1	1	1	1	1	1	0	1	-35,51797	274,836114	287,984987	0
14.01.2021	18:58:48	0	0	3,050329	5,49525	92,2608	1,026	77,651	3,5	1005,32	7,6	9,6	9,5	1	1	1	1	1	1	1	1	1	0	1	-34,601832	274,902892	289,215653	0
14.01.2021	18:58:49	0	0	4,293081	5,08425	96,9516	1,029	77,65	3,5	1005,38	7,6	9,6	9,4	1	1	1	1	1	1	1	1	1	0	1	-41,014799	274,979271	283,162711	0
14.01.2021	18:58:50	0	0	4,18008	4,74075	90,036	1,029	77,659	3,5	1005,44	7,6	9,6	9,5	1	1	1	1	1	1	1	1	1	0	1	-37,068358	274,843867	286,471105	0
14.01.2021	18:58:51	0	0	2,824395	4,6725	94,7628	1,031	77,655	3,5	1005,32	7,6	9,6	9,4	1	1	1	1	1	1	1	1	1	0	1	-36,081748	274,902892	287,735738	0
14.01.2021	18:58:52	0	0	2,71142	5,2245	94,104	1,026	77,671	3,5	1005,38	7,6	9,6	9,4	1	1	1	1	1	1	1	1	1	0	1	-37,914024	275,027748	286,492149	0
14.01.2021	18:58:53	0	0	4,067129	5,2605	91,1664	1,034	77,681	3,5	1005,52	7,6	9,6	9,4	1	1	1	1	1	1	1	1	1	0	1	-37,350247	275,038711	287,107655	0
14.01.2021	18:58:54	0	0	3,163323	5,51625	93,33	1,026	77,678	3,5	1005,28	7,6	9,6	9,4	1	1	1	1	1	1	1	1	1	0	1	-31,289641	274,929357	292,652557	0
14.01.2021	18:58:55	0	0	4,632009	5,607	96,21	1,036	77,689	3,5	1005,36	7,6	9,6	9,4	1	1	1	1	1	1	1	1	1	0	1	-39,182523	275,03088	285,238426	0
14.01.2021	18:58:56	0	0	2,824395	5,47875	100,7244	1,025	77,693	3,5	1005,46	7,6	9,6	9,4	1	1	1	1	1	1	1	1	1	0	1	-36,715997	274,892006	287,050196	0
14.01.2021	18:58:57	0	0	3,163323	5,72775	91,89	1,031	77,707	3,5	1005,36	7,6	9,6	9,4	1	1	1	1	1	1	1	1	1	0	1	-36,575053	274,980833	287,609823	0
14.01.2021	18:58:58	0	0	3,841178	5,82075	106,6896	1,035	77,706	3,5	1005,34	7,6	9,6	9,4	1	1	1	1	1	1	1	1	1	0	1	-39,7463	275,013661	284,593415	0
14.01.2021	18:58:59	0	0	2,71142	5,88825	110,3544	1,028	77,694	3,5	1005,38	7,6	9,6	9,4	1	1	1	1	1	1	1	1	1	0	1	-35,447498	274,973025	288,700558	0
14.01.2021	18:59:00	0	0	4,406057	5,71725	111,0276	1,029	77,686	3,5	1005,4	7,6	9,6	9,4	1	1	1	1	1	1	1	1	1	0	1	-35,447498	274,895116	288,333347	0
14.01.2021	18:59:01	0	0	4,406057	5,71725	111,0276	1,029	77,686	3,5	1005,4	7,6	9,6	9,4	1	1	1	1	1	1	1	1	1	0	1	-35,447498	274,895116	288,333347	0
14.01.2021	18:59:02	0	0	2,146541	5,71725	114,0912	1,031	77,681	3,5	1005,44	7,6	9,6	9,4	1	1	1	1	1	1	1	1	1	0	1	-38,75969	274,990207	285,469393	0
14.01.2021	18:59:03	0	0	2,824395	5,84025	110,3616	1,04	77,693	3,5	1005,54	7,6	9,6	9,4	1	1	1	1	1	1	1	1	1	0	1	-40,239605	274,856278	283,358303	0
14.01.2021	18:59:04	0	0	4,406057	5,87025	115,218	1,029	77,679	3,5	1005,3	7,6	9,6	9,4	1	1	1	1	1	1	1	1	1	0	1	-35,16561	274,915342	288,710538	0
14.01.2021	18:59:05	0	0	4,744984	5,6895	118,6992	1,031	77,67	3,5	1005,32	7,6	9,6	9,4	1	1	1	1	1	1	1	1	1	0	1	-38,336857	274,853175	285,246436	0
14.01.2021	18:59:06	0	0	2,937371	5,526	123,084	1,034	77,653	3,5	1005,34	7,6	9,6	9,4	1	1	1	1	1	1	1	1	1	0	1	-34,249471	275,023051	290,134542	0
14.01.2021	18:59:07	0	0	3,50225	5,1525	114,8328	1,024	77,634	3,5	1005,4	7,6	9,6	9,4	1	1	1	1	1	1	1	1	1	0	1	-40,098661	274,973025	284,049395	0
14.01.2021	18:59:08	0	0	2,259516	4,9455	119,466	1,036	77,637	3,5	1005,5	7,6	9,6	9,4	1	1	1	1	1	1	1	1	1	0	1	-31,782946	274,837664	291,727311	0
14.01.2021	18:59:09	0	0	3,615205	5,2785	123,4584	1,022	77,621	3,5	1005,38	7,6	9,6	9,5	1	1	1	1	1	1	1	1	1	0	1	-33,474278	274,890451	290,284591	0
14.01.2021	18:59:10	0	0	4,85796	5,5065	132,3684	1,037	77,621	3,5	1005,5	7,6	9,6	9,4	1	1	1	1	1	1	1	1	1	0	1	-37,77308	274,974586	286,382339	0
14.01.2021	18:59:11	0	0	2,485453	5,92575	128,016	1,033	77,592	3,5	1005,24	7,6	9,6	9,5	1	1	1	1	1	1	1	1	1	0	1	-36,997886	275,034012	287,437842	0
14.01.2021	18:59:12	0	0	2,372492	6,18225	123,4728	1,031	77,602	3,5	1005,54	7,6	9,6	9,4	1	1	1	1	1	1	1	1	1	0	1	-39,675828	274,918455	284,214992	0
14.01.2021	18:59:13	0	0	3,954154	6,48225	123,1092	1,034	77,584	3,5	1005,44	7,6	9,6	9,4	1	1	1	1	1	1	1	1	1	0	1	-33,826638	274,856278	289,77127	0
14.01.2021	18:59:14	0	0	3,163323	7,0815	122,7096	1,034	77,584	3,5	1005,46	7,6	9,6	9,4	1	1	1	1	1	1	1	1	1	0	1	-34,883721	275,026182	289,515065	0
14.01.2021	18:59:15	0	0	4,970906	6,98925	117,0396	1,034	77,566	3,5	1005,32	7,6	9,6	9,5	1	1	1	1	1	1	1	1	1	0	1	-38,12544	274,929357	285,816757	0
14.01.2021	18:59:16	0	0	2,372478	7,3725	115,9812	1,036	77,56	3,5	1005,42	7,6	9,6	9,5	1	1	1	1	1	1	1	1	1	0	1	-35,447498	274,865592	288,194274	0
14.01.2021	18:59:17	0	0	2,824395	7,32825	119,4408	1,034	77,542	3,5	1005,36	7,6	9,6	9,4	1	1	1	1	1	1	1	1	1	0	1	-39,887245	274,859383	283,725283	0
14.01.2021	18:59:18	0	0	2,598428	7,1955	111,816	1,033	77,513	3,5	1005,28	7,6	9,6	9,5	1	1	1	1	1	1	1	1	1	0	1	-36,504581	274,974586	287,650838	0
14.01.2021	18:59:19	0	0	3,389254	6,8805	109,2348	1,034	77,503	3,5	1005,3	7,4	9,6	9,5	1	1	1	1	1	1	1	1	1	0	1	-36,997886	275,018356	287,363975	0
14.01.2021	18:59:20	0	0	4,180105	6,82275	108,9216	1,035	77,515	3,5	1005,5	7,6	9,6	9,4	1	1	1	1	1	1	1	1	1	0	1	-36,856942	274,930915	287,092598	0
14.01.2021	18:59:21	0	0	4,180105	6,78975	111,0492	1,032	77,505	3,5	1005,44	7,6	9,6	9,4	1	1	1	1	1	1	1	1	1	0	1	-35,51797	275,038711	288,939932	0
14.01.2021	18:59:22	0	0	4,067129	6,633	108,2304	1,036	77,514	3,5	1005,32	7,6	9,6	9,4	1	1	1	1	1	1	1	1	1	0	1	-39,7463	275,002712	284,541767	0
14.01.2021	18:59:23	0	0	4,293055	6,5655	100,836	1,037	77,525	3,5	1005,44	7,6	9,6	9,5	1	1	1	1	1	1	1	1	1	0	1	-39,252995	274,870251	284,410719	0
14.01.2021	18:59:24	0	0	4,519006	6,44475	99,1476	1,033	77,505	3,5	1005,44	7,6	9,6	9,5	1	1	1	1	1	1	1	1	1	0	1	-39,041579	274,859383	284,570949	0
14.01.2021	18:59:25	0	0	3,502229	6,3195	115,1892	1,04	77,51	3,5	1005,36	7,6	9,6	9,5	1	1	1	1	1	1	1	1	1	0	1	-40,028189	274,935589	283,943382	0
14.01.2021	18:59:26	0	0	3,389275	5,7165	117,7272	1,03	77,52	3,5	1005,36	7,6	9,6	9,4	1	1	1	1	1	1	1	1	1	0	1	-34,954193	274,853175	288,6291	0
14.01.2021	18:59:27	0	0	2,598428	5,43825	116,4168	1,025	77,516	3,5	1005,34	7,6	9,6	9,5	1	1	1	1	1	1	1	1	1	0	1	-40,732911	274,990207	283,496173	0
14.01.2021	18:59:28	0	0	4,406057	5,81925	116,3412	1,034	77,517	3,5	1005,4	7,6	9,6	9,4	1	1	1	1	1	1	1	1	1	0	1	-39,393939	275,024617	284,99746	0
14.01.2021	18:59:29	0	0	4,067105	5,877	110,6712	1,035	77,538	3,5	1005,34	7,6	9,6	9,5	1	1	1	1	1	1	1	1	1	0	1	-36,081748	275,007404	288,22845	0
14.01.2021	18:59:30	0	0	3,72818	5,826	101,5092	1,036	77,545	3,5	1005,32	7,6	9,6	9,5	1	1	1	1	1	1	1	1	1	0	1	-39,323467	274,971463	284,817227	0
14.01.2021	18:59:31	0	0	4,293081	5,50575	97,7112	1,035	77,56	3,5	1005,44	7,6	9,6	9,4	1	1	1	1	1	1	1	1	1	0	1	-40,239605	275,041845	284,233083	0
14.01.2021	18:59:32	0	0	4,406031	5,07225	107,4312	1,03	77,547	3,5	1005,32	7,6	9,6	9,5	1	1	1	1	1	1	1	1	1	0	1	-32,699084	274,974586	291,456335	0
14.01.2021	18:59:33	0	0	4,406031	5,02875	109,6092	1,036	77,549	3,5	1005,42	7,6	9,6	9,5	1	1	1	1	1	1	1	1	1	0	1	-35,377026	274,854727	288,213574	0
14.01.2021	18:59:34	0	0	4,519033	5,34675	115,254	1,038	77,568	3,5	1005,32	7,6	9,6	9,4	1	1	1	1	1	1	1	1	1	0	1	-34,813249	274,893561	288,96027	0
14.01.2021	18:59:35	0	0	3,615226	5,481	114,8724	1,03	77,578	3,5	1005,32	7,6	9,6	9,4	1	1	1	1	1	1	1	1	1	0	1	-37,561663	274,898226	286,233836	0
14.01.2021	18:59:36	0	0	2,824395	5,26875	104,7528	1,031	77,57	3,5	1005,4	7,6	9,6	9,4	1	1	1	1	1	1	1	1	1	0	1	-34,813249	274,84852	288,748126	0
14.01.2021	18:59:37	0	0	4,293081	5,06925	94,0572	1,033	77,559	3,5	1005,38	7,6	9,6	9,4	1	1	1	1	1	1	1	1	1	0	1	-43,058492	274,934031	280,905735	0
14.01.2021	18:59:38	0	0	2,824379	4,94175	94,086	1,032	77,569	3,5	1005,34	7,6	9,6	9,5	1	1	1	1	1	1	1	1	1	0	1	-39,605356	275,027748	284,800817	0
14.01.2021	18:59:39	0	0	4,406031	4,6755	106,2684	1,027	77,562	3,5	1005,34	7,6	9,6	9,5	1	1	1	1	1	1	1	1	1	0	1	-40,38055	275,015226	283,966547	0
14.01.2021	18:59:40	0	0	3,841178	4,96575	110,3796	1,033	77,554	3,5	1005,4	7,6	9,6	9,4	1	1	1	1	1	1	1	1	1	0	1	-36,222692	274,934031	287,741535	0
14.01.2021	18:59:41	0	0	2,937371	5,11575	90,7776	1,028	77,56	3,5	1005,44	7,6	9,6	9,4	1	1	1	1	1	1	1	1	1	0	1	-36,011276	275,034012	288,424452	0
14.01.2021	18:59:42	0	0	3,615205	5,36775	101,106	1,034	77,553	3,5	1005,36	7,6	9,6	9,5	1	1	1	1	1	1	1	1	1	0	1	-37,068358	274,904448	286,756458	0
14.01.2021	18:59:43	0	0	2,937354	5,5785	107,7516	1,033	77,548	3,5	1005,38	7,6	9,6	9,5	1	1	1	1	1	1	1	1	1	0	1	-36,715997	275,026182	287,682788	0
14.01.2021	18:59:44	0	0	3,276279	5,22225	94,086	1,037	77,554	3,5	1005,22	7,6	9,6	9,5	1	1	1	1	1	1	1	1	1	0	1	-34,178999	275,037145	290,271511	0
14.01.2021	18:59:45	0	0	4,519033	5,0025	87,7536	1,032	77,542	3,5	1005,36	7,6	9,6	9,4	1	1	1	1	1	1	1	1	1	0	1	-41,930937	274,918455	281,959883	0
14.01.2021	18:59:46	0	0	2,485453	5,5905	88,578	1,033	77,543	3,5	1005,24	7,6	9,6	9,5	1	1	1	1	1	1	1	1	1	0	1	-35,377026	274,860935	288,242811	0
14.01.2021	18:59:47	0	0	4,519033	5,74275	83,7432	1,034	77,541	3,5	1005,32	7,6	9,6	9,4	1	1	1	1	1	1	1	1	1	0	1	-35,236082	274,985519	288,970894	0
14.01.2021	18:59:48	0	0	3,502229	5,424	82,9656	1,031	77,544	3,5	1005,28	7,4	9,6	9,5	1	1	1	1	1	1	1	1	1	0	1	-39,323467	274,979271	284,854043	0
14.01.2021	18:59:49	0	0	2,598428	5,391	78,6528	1,031	77,539	3,5	1005,34	7,6	9,6	9,5	1	1	1	1	1	1	1	1	1	0	1	-41,508104	275,034012	282,927624	0
14.01.2021	18:59:50	0	0	3,389275	5,18925	88,9416	1,033	77,556	3,5	1005,36	7,6	9,6	9,4	1	1	1	1	1	1	1	1	1	0	1	-34,954193	274,920012	288,943965	0
14.01.2021	18:59:51	0	0	4,632009	4,95675	84,0312	1,034	77,563	3,5	1005,5	7,6	9,6	9,4	1	1	1	1	1	1	1	1	1	0	1	-34,319944	274,851623	289,256042	0
14.01.2021	18:59:52	0	0	4,632009	4,79625	76,8204	1,038	77,549	3,5	1005,34	7,6	9,6	9,4	1	1	1	1	1	1	1	1	1	0	1	-39,393939	274,982395	284,798302	0
14.01.2021	18:59:53	0	0	3,615205	4,23075	89,7012	1,036	77,557	3,5	1005,42	7,6	9,6	9,5	1	1	1	1	1	1	1	1	1	0	1	-38,75969	274,860935	284,860148	0
14.01.2021	18:59:54	0	0	4,180105	3,85875	85,1868	1,034	77,543	3,5	1005,36	7,6	9,6	9,4	1	1	1	1	1	1	1	1	1	0	1	-36,222692	275,029314	288,190868	0
14.01.2021	18:59:55	0	0	4,970906	4,14975	104,0724	1,037	77,55	3,5	1005,34	7,6	9,6	9,5	1	1	1	1	1	1	1	1	1	0	1	-36,856942	274,965219	287,254313	0
14.01.2021	18:59:56	0	0	3,615226	4,4835	105,9084	1,039	77,541	3,5	1005,46	7,6	9,6	9,4	1	1	1	1	1	1	1	1	1	0	1	-31,92389	274,860935	291,695947	0
14.01.2021	18:59:57	0	0	4,067105	4,5975	102,9456	1,034	77,533	3,5	1005,32	7,6	9,6	9,5	1	1	1	1	1	1	1	1	1	0	1	-34,813249	275,001149	289,467443	0
14.01.2021	18:59:58	0	0	2,824395	4,71075	94,7664	1,035	77,543	3,5	1005,4	7,6	9,6	9,4	1	1	1	1	1	1	1	1	1	0	1	-36,504581	274,913785	287,364232	0
14.01.2021	18:59:59	0	0	4,067105	4,671	94,122	1,032	77,535	3,5	1005,38	7,6	9,6	9,5	1	1	1	1	1	1	1	1	1	0	1	-38,336857	275,037145	286,113653	0
14.01.2021	19:00:00	0	0	3,615205	4,39575	97,7004	1,039	77,544	3,5	1005,34	7,6	9,6	9,5	1	1	1	1	1	1	1	1	1	0	1	-36,927414	275,037145	287,523096	0
14.01.2021	19:00:01	0	0	3,615205	4,39575	97,7004	1,039	77,544	3,5	1005,34	7,6	9,6	9,5	1	1	1	1	1	1	1	1	1	0	1	-36,927414	275,037145	287,523096	0
14.01.2021	19:00:02	0	0	2,598428	4,68075	92,9592	1,038	77,533	3,5	1005,38	7,6	9,6	9,5	1	1	1	1	1	1	1	1	1	0	1	-33,897111	274,85783	289,708107	0
14.01.2021	19:00:03	0	0	4,180105	5,2245	99,9036	1,036	77,526	3,5	1005,5	7,6	9,6	9,4	1	1	1	1	1	1	1	1	1	0	1	-33,615222	274,94806	290,415132	0
14.01.2021	19:00:04	0	0	4,180105	5,58	97,3116	1,034	77,514	3,5	1005,46	7,6	9,6	9,4	1	1	1	1	1	1	1	1	1	0	1	-38,336857	274,865592	285,304916	0
14.01.2021	19:00:05	0	0	3,050329	5,5455	92,9412	1,033	77,524	3,5	1005,38	7,6	9,6	9,5	1	1	1	1	1	1	1	1	1	0	1	-37,068358	274,871804	286,602672	0
14.01.2021	19:00:06	0	0	3,276279	5,3055	96,5916	1,037	77,526	3,5	1005,36	7,6	9,6	9,5	1	1	1	1	1	1	1	1	1	0	1	-36,856942	274,980833	287,327934	0
14.01.2021	19:00:07	0	0	4,18008	5,38725	90,7848	1,033	77,518	3,5	1005,36	7,6	9,6	9,5	1	1	1	1	1	1	1	1	1	0	1	-36,011276	275,019921	288,357969	0
14.01.2021	19:00:08	0	0	4,406031	5,33325	94,0824	1,029	77,523	3,5	1005,42	7,6	9,6	9,5	1	1	1	1	1	1	1	1	1	0	1	-37,561663	274,990207	286,66742	0
14.01.2021	19:00:09	0	0	3,615226	5,655	89,6868	1,04	77,524	3,5	1005,48	7,6	9,6	9,4	1	1	1	1	1	1	1	1	1	0	1	-38,75969	274,930915	285,18985	0
14.01.2021	19:00:10	0	0	2,372478	6,08025	87,3612	1,043	77,528	3,5	1005,48	7,6	9,6	9,5	1	1	1	1	1	1	1	1	1	0	1	-37,843552	274,853175	285,739741	0
14.01.2021	19:00:11	0	0	4,067105	6,27975	91,8684	1,04	77,524	3,5	1005,36	7,6	9,6	9,5	1	1	1	1	1	1	1	1	1	0	1	-38,407329	274,85783	285,197888	0
14.01.2021	19:00:12	0	0	3,728202	6,2445	76,3524	1,034	77,497	3,5	1005,32	7,6	9,6	9,4	1	1	1	1	1	1	1	1	1	0	1	-40,310078	274,887342	283,434144	0
14.01.2021	19:00:13	0	0	3,841155	6,7155	80,1468	1,04	77,514	3,5	1005,38	7,6	9,6	9,5	1	1	1	1	1	1	1	1	1	0	1	-39,112051	274,862487	284,515098	0
14.01.2021	19:00:14	0	0	4,406057	6,42075	76,8276	1,035	77,517	3,5	1005,38	7,6	9,6	9,4	1	1	1	1	1	1	1	1	1	0	1	-37,914024	274,982395	286,278218	0
14.01.2021	19:00:15	0	0	4,293055	5,9145	91,1592	1,033	77,521	3,5	1005,32	7,6	9,6	9,5	1	1	1	1	1	1	1	1	1	0	1	-37,914024	275,019921	286,455221	0
14.01.2021	19:00:16	0	0	3,389275	5,5905	94,104	1,04	77,528	3,5	1005,46	7,6	9,6	9,4	1	1	1	1	1	1	1	1	1	0	1	-38,971106	275,026182	285,427679	0
14.01.2021	19:00:17	0	0	4,519033	5,268	90,3996	1,036	77,516	3,5	1005,44	7,6	9,6	9,4	1	1	1	1	1	1	1	1	1	0	1	-40,732911	274,871804	282,938119	0
14.01.2021	19:00:18	0	0	2,71142	5,307	89,6472	1,039	77,522	3,5	1005,34	7,6	9,6	9,4	1	1	1	1	1	1	1	1	1	0	1	-33,262861	275,012097	291,069474	0
14.01.2021	19:00:19	0	0	2,598428	5,463	97,6968	1,031	77,509	3,5	1005,36	7,6	9,6	9,5	1	1	1	1	1	1	1	1	1	0	1	-39,675828	275,027748	284,730344	0
14.01.2021	19:00:20	0	0	4,857931	5,577	95,1408	1,034	77,524	3,5	1005,3	7,6	9,6	9,5	1	1	1	1	1	1	1	1	1	0	1	-37,561663	274,982395	286,630579	0
14.01.2021	19:00:21	0	0	3,728202	5,73075	89,7984	1,035	77,513	3,5	1005,36	7,6	9,6	9,4	1	1	1	1	1	1	1	1	1	0	1	-36,081748	274,977709	288,088398	0
14.01.2021	19:00:22	0	0	2,485453	5,5575	96,2208	1,041	77,532	3,5	1005,46	7,6	9,6	9,5	1	1	1	1	1	1	1	1	1	0	1	-38,75969	275,037145	285,69082	0
14.01.2021	19:00:23	0	0	4,632009	5,2275	102,5712	1,038	77,542	3,5	1005,4	7,6	9,6	9,4	1	1	1	1	1	1	1	1	1	0	1	-36,575053	274,985519	287,631923	0
14.01.2021	19:00:24	0	0	3,728202	5,097	100,728	1,036	77,526	3,5	1005,38	7,6	9,6	9,4	1	1	1	1	1	1	1	1	1	0	1	-39,957717	274,902892	283,859769	0
14.01.2021	19:00:25	0	0	4,406031	5,061	96,5952	1,034	77,515	3,5	1005,26	7,6	9,6	9,5	1	1	1	1	1	1	1	1	1	0	1	-39,887245	275,032446	284,541093	0
14.01.2021	19:00:26	0	0	3,389275	5,052	97,308	1,034	77,536	3,5	1005,38	7,6	9,6	9,4	1	1	1	1	1	1	1	1	1	0	1	-38,548273	275,054384	285,983589	0
14.01.2021	19:00:27	0	0	3,050329	5,06025	99,1404	1,041	77,544	3,5	1005,36	7,6	9,6	9,5	1	1	1	1	1	1	1	1	1	0	1	-32,980973	274,960538	291,108209	0
14.01.2021	19:00:28	0	0	3,615226	5,05575	95,8356	1,04	77,525	3,5	1005,26	7,6	9,6	9,4	1	1	1	1	1	1	1	1	1	0	1	-37,984496	275,038711	286,473406	0
14.01.2021	19:00:29	0	0	3,50225	5,12175	94,1148	1,037	77,53	3,5	1005,32	7,6	9,6	9,4	1	1	1	1	1	1	1	1	1	0	1	-40,732911	274,916899	283,150573	0
14.01.2021	19:00:30	0	0	2,372478	5,217	91,9008	1,042	77,546	3,5	1005,4	7,6	9,6	9,5	1	1	1	1	1	1	1	1	1	0	1	-35,447498	274,885788	288,289401	0
14.01.2021	19:00:31	0	0	4,067105	4,98	79,416	1,042	77,541	3,5	1005,42	7,6	9,6	9,5	1	1	1	1	1	1	1	1	1	0	1	-39,957717	275,023051	284,426297	0
14.01.2021	19:00:32	0	0	2,937371	4,632	81,594	1,041	77,54	3,5	1005,4	7,6	9,6	9,4	1	1	1	1	1	1	1	1	1	0	1	-36,927414	274,915342	286,948734	0
14.01.2021	19:00:33	0	0	4,180105	4,02975	77,9868	1,043	77,543	3,5	1005,42	7,6	9,6	9,4	1	1	1	1	1	1	1	1	1	0	1	-36,434109	274,881125	287,280828	0
14.01.2021	19:00:34	0	0	3,841155	3,609	93,3084	1,035	77,519	3,5	1005,38	7,6	9,6	9,5	1	1	1	1	1	1	1	1	1	0	1	-37,491191	275,012097	286,841144	0
14.01.2021	19:00:35	0	0	3,615205	3,408	87,3684	1,042	77,519	3,5	1005,46	7,6	9,6	9,5	1	1	1	1	1	1	1	1	1	0	1	-36,363636	274,895116	287,417208	0
14.01.2021	19:00:36	0	0	3,050329	3,48975	82,35	1,045	77,512	3,5	1005,28	7,6	9,6	9,5	1	1	1	1	1	1	1	1	1	0	1	-34,742777	274,870251	288,920938	0
14.01.2021	19:00:37	0	0	3,728202	3,42075	99,9144	1,042	77,502	3,5	1005,42	7,6	9,6	9,4	1	1	1	1	1	1	1	1	1	0	1	-34,813249	275,008968	289,504327	0
14.01.2021	19:00:38	0	0	4,744956	3,31575	86,2776	1,039	77,469	3,5	1005,34	7,6	9,6	9,5	1	1	1	1	1	1	1	1	1	0	1	-41,578576	274,982395	282,613665	0
14.01.2021	19:00:39	0	0	4,631981	3,22425	93,3516	1,041	77,456	3,5	1005,16	7,6	9,6	9,5	1	1	1	1	1	1	1	1	1	0	1	-33,262861	275,040278	291,202434	0
14.01.2021	19:00:40	0	0	2,711403	3,45975	87,336	1,046	77,447	3,5	1005,4	7,6	9,6	9,5	1	1	1	1	1	1	1	1	1	0	1	-36,856942	274,902892	286,960544	0
14.01.2021	19:00:41	0	0	4,744956	3,87375	95,8572	1,041	77,443	3,5	1005,48	7,6	9,6	9,5	1	1	1	1	1	1	1	1	1	0	1	-34,883721	274,870251	288,779993	0
14.01.2021	19:00:42	0	0	2,711403	4,11525	92,9916	1,047	77,417	3,5	1005,42	7,6	9,6	9,5	1	1	1	1	1	1	1	1	1	0	1	-40,310078	274,874911	283,375585	0
14.01.2021	19:00:43	0	0	4,293081	4,32525	107,0532	1,043	77,395	3,5	1005,34	7,6	9,6	9,4	1	1	1	1	1	1	1	1	1	0	1	-39,182523	274,949619	284,855182	0
14.01.2021	19:00:44	0	0	3,050329	4,43925	95,5332	1,048	77,388	3,5	1005,44	7,6	9,6	9,5	1	1	1	1	1	1	1	1	1	0	1	-37,984496	274,867145	285,66459	0
14.01.2021	19:00:45	0	0	3,615205	4,41975	104,7636	1,046	77,37	3,5	1005,28	7,6	9,6	9,5	1	1	1	1	1	1	1	1	1	0	1	-42,071882	275,05752	282,474782	0
14.01.2021	19:00:46	0	0	3,163304	4,4505	94,1076	1,042	77,356	3,5	1005,32	7,6	9,6	9,5	1	1	1	1	1	1	1	1	1	0	1	-34,178999	274,912229	289,682479	0
14.01.2021	19:00:47	0	0	4,293055	4,5405	98,0748	1,049	77,354	3,5	1005,32	7,4	9,6	9,5	1	1	1	1	1	1	1	1	1	0	1	-39,816772	274,910672	284,037372	0
14.01.2021	19:00:48	0	0	3,050329	4,506	87,3792	1,045	77,355	3,5	1005,18	7,6	9,6	9,5	1	1	1	1	1	1	1	1	1	0	1	-37,491191	274,955858	286,575925	0
14.01.2021	19:00:49	0	0	3,615205	4,5195	81,9828	1,051	77,347	3,5	1005,44	7,6	9,6	9,5	1	1	1	1	1	1	1	1	1	0	1	-42,212826	275,032446	282,215512	0
14.01.2021	19:00:50	0	0	4,293081	4,71375	91,8864	1,04	77,344	3,5	1005,38	7,6	9,6	9,4	1	1	1	1	1	1	1	1	1	0	1	-33,403805	274,876464	290,289174	0
14.01.2021	19:00:51	0	0	3,95413	5,01225	99,5472	1,036	77,331	3,5	1005,4	7,6	9,6	9,5	1	1	1	1	1	1	1	1	1	0	1	-34,954193	275,007404	289,356004	0
14.01.2021	19:00:52	0	0	3,389254	4,99275	96,9588	1,044	77,329	3,5	1005,52	7,6	9,6	9,5	1	1	1	1	1	1	1	1	1	0	1	-41,719521	274,921569	282,185975	0
14.01.2021	19:00:53	0	0	4,406057	4,944	98,4672	1,046	77,345	3,5	1005,44	7,6	9,6	9,4	1	1	1	1	1	1	1	1	1	0	1	-37,068358	275,041845	287,40433	0
14.01.2021	19:00:54	0	0	3,95413	4,96725	99,8964	1,042	77,328	3,5	1005,48	7,6	9,6	9,5	1	1	1	1	1	1	1	1	1	0	1	-36,081748	274,987081	288,132597	0
14.01.2021	19:00:55	0	0	3,72818	4,97775	93,3408	1,05	77,323	3,5	1005,36	7,6	9,6	9,5	1	1	1	1	1	1	1	1	1	0	1	-34,813249	274,980833	289,371627	0
14.01.2021	19:00:56	0	0	4,293055	4,9575	90,4176	1,045	77,323	3,5	1005,5	7,6	9,6	9,5	1	1	1	1	1	1	1	1	1	0	1	-38,900634	274,990207	285,328449	0
14.01.2021	19:00:57	0	0	3,389254	4,9455	96,9768	1,044	77,306	3,5	1005,32	7,6	9,6	9,5	1	1	1	1	1	1	1	1	1	0	1	-41,155743	274,882679	282,566513	0
14.01.2021	19:00:58	0	0	4,293081	4,71975	97,3548	1,05	77,307	3,5	1005,32	7,6	9,6	9,4	1	1	1	1	1	1	1	1	1	0	1	-36,011276	275,051248	288,505789	0
14.01.2021	19:00:59	0	0	2,937354	4,74975	105,8832	1,043	77,289	3,5	1005,44	7,6	9,6	9,5	1	1	1	1	1	1	1	1	1	0	1	-37,561663	274,990207	286,66742	0
14.01.2021	19:01:00	0	0	1,920577	4,503	104,7528	1,049	77,293	3,5	1005,28	7,6	9,6	9,5	1	1	1	1	1	1	1	1	1	0	1	-36,504581	275,051248	288,012484	0
14.01.2021	19:01:01	0	0	1,920577	4,503	104,7528	1,049	77,293	3,5	1005,28	7,6	9,6	9,5	1	1	1	1	1	1	1	1	1	0	1	-36,504581	275,051248	288,012484	0
14.01.2021	19:01:02	0	0	3,502229	4,29825	114,8544	1,047	77,281	3,5	1005,4	7,6	9,6	9,5	1	1	1	1	1	1	1	1	1	0	1	-37,561663	274,915342	286,314485	0
14.01.2021	19:01:03	0	0	4,519006	4,695	79,0344	1,051	77,271	3,5	1005,44	7,6	9,6	9,5	1	1	1	1	1	1	1	1	1	0	1	-35,658915	274,958978	288,422911	0
14.01.2021	19:01:04	0	0	2,598428	4,56375	91,1556	1,047	77,274	3,5	1005,4	7,6	9,6	9,5	1	1	1	1	1	1	1	1	1	0	1	-38,548273	274,896671	285,239898	0
14.01.2021	19:01:05	0	0	4,293055	4,29	89,3232	1,045	77,277	3,5	1005,28	7,6	9,6	9,5	1	1	1	1	1	1	1	1	1	0	1	-34,742777	275,051248	289,774288	0
14.01.2021	19:01:06	0	0	3,50225	4,0425	96,228	1,047	77,284	3,5	1005,52	7,6	9,6	9,4	1	1	1	1	1	1	1	1	1	0	1	-38,12544	274,873357	285,552905	0
14.01.2021	19:01:07	0	0	3,72818	3,9645	107,712	1,046	77,282	3,5	1005,32	7,6	9,6	9,5	1	1	1	1	1	1	1	1	1	0	1	-36,786469	274,960538	287,302712	0
14.01.2021	19:01:08	0	0	4,744956	3,8655	98,7516	1,048	77,298	3,5	1005,32	7,6	9,6	9,5	1	1	1	1	1	1	1	1	1	0	1	-34,108527	274,876464	289,584453	0
14.01.2021	19:01:09	0	0	2,372478	3,79725	82,3644	1,048	77,315	3,5	1005,4	7,6	9,6	9,5	1	1	1	1	1	1	1	1	1	0	1	-35,377026	274,854727	288,213574	0
14.01.2021	19:01:10	0	0	4,18008	3,62025	86,274	1,047	77,318	3,5	1005,42	7,6	9,6	9,5	1	1	1	1	1	1	1	1	1	0	1	-38,195913	274,983957	286,003696	0
14.01.2021	19:01:11	0	0	4,744956	3,69975	94,068	1,062	77,321	3,5	1005,36	7,6	9,6	9,5	1	1	1	1	1	1	1	1	1	0	1	-40,662438	274,996458	283,596131	0
14.01.2021	19:01:12	0	0	2,824379	3,822	97,7004	1,047	77,325	3,5	1005,48	7,6	9,6	9,5	1	1	1	1	1	1	1	1	1	0	1	-36,011276	274,890451	287,747593	0
14.01.2021	19:01:13	0	0	3,95413	3,8055	92,2428	1,051	77,32	3,5	1005,26	7,6	9,6	9,5	1	1	1	1	1	1	1	1	1	0	1	-36,856942	274,885788	286,879958	0
14.01.2021	19:01:14	0	0	3,502229	3,807	95,49	1,049	77,323	3,5	1005,38	7,6	9,6	9,5	1	1	1	1	1	1	1	1	1	0	1	-34,460888	274,983957	289,738721	0
14.01.2021	19:01:15	0	0	2,485453	3,939	81,1836	1,046	77,327	3,5	1005,46	7,6	9,6	9,5	1	1	1	1	1	1	1	1	1	0	1	-35,729387	274,881125	287,98555	0
14.01.2021	19:01:16	0	0	2,711403	4,041	106,758	1,047	77,31	3,5	1005,34	7,6	9,6	9,5	1	1	1	1	1	1	1	1	1	0	1	-37,914024	274,906004	285,918123	0
14.01.2021	19:01:17	0	0	2,937354	3,9015	111,0312	1,047	77,329	3,5	1005,36	7,6	9,6	9,5	1	1	1	1	1	1	1	1	1	0	1	-40,591966	275,013661	283,747749	0
14.01.2021	19:01:18	0	0	2,937354	3,801	95,5116	1,048	77,308	3,5	1005,38	7,6	9,6	9,5	1	1	1	1	1	1	1	1	1	0	1	-39,252995	274,873357	284,425351	0
14.01.2021	19:01:19	0	0	2,485453	3,519	97,7004	1,048	77,303	3,5	1005,32	7,6	9,6	9,5	1	1	1	1	1	1	1	1	1	0	1	-36,363636	274,960538	287,725545	0
14.01.2021	19:01:20	0	0	2,598428	3,46725	97,7004	1,049	77,317	3,5	1005,26	7,6	9,6	9,5	1	1	1	1	1	1	1	1	1	0	1	-36,786469	274,892006	286,979724	0
14.01.2021	19:01:21	0	0	3,163304	3,528	97,7148	1,051	77,312	3,5	1005,44	7,6	9,6	9,5	1	1	1	1	1	1	1	1	1	0	1	-38,336857	275,03088	286,084092	0
14.01.2021	19:01:22	0	0	4,293055	3,4815	103,2912	1,053	77,309	3,5	1005,4	7,6	9,6	9,5	1	1	1	1	1	1	1	1	1	0	1	-42,917548	274,954298	281,142214	0
14.01.2021	19:01:23	0	0	3,163304	3,83025	99,1368	1,052	77,306	3,5	1005,36	7,6	9,6	9,5	1	1	1	1	1	1	1	1	1	0	1	-38,900634	274,878018	284,799664	0
14.01.2021	19:01:24	0	0	3,389254	3,9795	96,2172	1,046	77,297	3,5	1005,42	7,6	9,6	9,5	1	1	1	1	1	1	1	1	1	0	1	-36,15222	275,060656	288,409247	0
14.01.2021	19:01:25	0	0	2,598444	3,7785	98,4456	1,044	77,293	3,5	1005,34	7,6	9,6	9,4	1	1	1	1	1	1	1	1	1	0	1	-35,799859	275,002712	288,488208	0
14.01.2021	19:01:26	0	0	2,598428	3,80925	92,61	1,048	77,294	3,5	1005,4	7,6	9,6	9,5	1	1	1	1	1	1	1	1	1	0	1	-38,12544	274,884233	285,604137	0
14.01.2021	19:01:27	0	0	3,050329	3,486	83,3472	1,046	77,285	3,5	1005,3	7,6	9,6	9,5	1	1	1	1	1	1	1	1	1	0	1	-40,662438	274,882679	283,059818	0
14.01.2021	19:01:28	0	0	4,293055	3,3495	95,5116	1,051	77,287	3,5	1005,42	7,6	9,6	9,5	1	1	1	1	1	1	1	1	1	0	1	-37,209302	275,052816	287,315161	0
14.01.2021	19:01:29	0	0	4,18008	3,2685	75,9852	1,051	77,263	3,5	1005,3	7,6	9,6	9,5	1	1	1	1	1	1	1	1	1	0	1	-40,38055	274,991769	283,855904	0
14.01.2021	19:01:30	0	0	4,857931	3,33975	80,5104	1,045	77,266	3,5	1005,38	7,6	9,6	9,5	1	1	1	1	1	1	1	1	1	0	1	-36,927414	274,935589	287,044158	0
14.01.2021	19:01:31	0	0	4,18008	3,5055	81,5328	1,05	77,265	3,5	1005,34	7,6	9,6	9,5	1	1	1	1	1	1	1	1	1	0	1	-36,575053	274,893561	287,198466	0
14.01.2021	19:01:32	0	0	4,857931	3,44625	85,5396	1,05	77,26	3,5	1005,36	7,6	9,6	9,5	1	1	1	1	1	1	1	1	1	0	1	-34,249471	274,930915	289,700068	0
14.01.2021	19:01:33	0	0	3,163304	3,57675	82,3716	1,05	77,248	3,5	1005,24	7,6	9,6	9,5	1	1	1	1	1	1	1	1	1	0	1	-36,856942	275,024617	287,534458	0
14.01.2021	19:01:34	0	0	4,631981	3,7485	68,4	1,051	77,236	3,5	1005,22	7,6	9,6	9,5	1	1	1	1	1	1	1	1	1	0	1	-37,350247	274,86404	286,284214	0
14.01.2021	19:01:35	0	0	3,502229	4,07775	76,3596	1,049	77,238	3,5	1005,22	7,6	9,6	9,5	1	1	1	1	1	1	1	1	1	0	1	-38,900634	275,029314	285,512926	0
14.01.2021	19:01:36	0	0	4,631981	3,9285	78,6384	1,053	77,231	3,5	1005,44	7,6	9,6	9,5	1	1	1	1	1	1	1	1	1	0	1	-36,997886	274,949619	287,039819	0
14.01.2021	19:01:37	0	0	2,824379	3,52425	83,7396	1,052	77,221	3,5	1005,28	7,6	9,6	9,5	1	1	1	1	1	1	1	1	1	0	1	-36,434109	275,023051	287,949905	0
14.01.2021	19:01:38	0	0	2,598428	3,1185	93,4452	1,048	77,206	3,5	1005,26	7,6	9,6	9,5	1	1	1	1	1	1	1	1	1	0	1	-34,954193	274,895116	288,826652	0
14.01.2021	19:01:39	0	0	2,937354	3,05775	82,5732	1,049	77,212	3,5	1005,32	7,6	9,7	9,5	1	1	1	1	1	1	1	1	1	0	1	-39,182523	274,865592	284,45925	0
14.01.2021	19:01:40	0	0	2,711403	3,192	80,5176	1,043	77,202	3,5	1005,38	7,6	9,6	9,5	1	1	1	1	1	1	1	1	1	0	1	-39,7463	274,923127	284,166535	0
14.01.2021	19:01:41	0	0	4,857931	3,6345	72,0288	1,041	77,198	3,5	1005,28	7,6	9,6	9,5	1	1	1	1	1	1	1	1	1	0	1	-33,121917	274,941823	290,87904	0
14.01.2021	19:01:42	0	0	2,937354	3,99675	84,4236	1,043	77,18	3,5	1005,36	7,6	9,6	9,5	1	1	1	1	1	1	1	1	1	0	1	-35,729387	275,044979	288,758091	0
14.01.2021	19:01:43	0	0	2,937354	4,24425	80,5248	1,049	77,192	3,5	1005,4	7,6	9,6	9,5	1	1	1	1	1	1	1	1	1	0	1	-33,897111	274,927799	290,037745	0
14.01.2021	19:01:44	0	0	2,372478	4,266	86,256	1,051	77,194	3,5	1005,48	7,6	9,6	9,5	1	1	1	1	1	1	1	1	1	0	1	-36,786469	274,988644	287,435244	0
14.01.2021	19:01:45	0	0	3,72818	4,22775	93,798	1,048	77,177	3,5	1005,28	7,6	9,6	9,5	1	1	1	1	1	1	1	1	1	0	1	-35,729387	275,041845	288,743301	0
14.01.2021	19:01:46	0	0	3,389254	4,119	88,38	1,045	77,176	3,5	1005,48	7,6	9,6	9,5	1	1	1	1	1	1	1	1	1	0	1	-35,729387	274,882679	287,99287	0
14.01.2021	19:01:47	0	0	4,519006	3,76425	68,0184	1,049	77,196	3,5	1005,28	7,6	9,6	9,5	1	1	1	1	1	1	1	1	1	0	1	-35,51797	274,954298	288,541792	0
14.01.2021	19:01:48	0	0	3,163304	3,73125	86,9724	1,046	77,186	3,5	1005,36	7,6	9,6	9,5	1	1	1	1	1	1	1	1	1	0	1	-37,350247	275,043412	287,129836	0
14.01.2021	19:01:49	0	0	4,744956	3,79425	82,3428	1,043	77,194	3,5	1005,24	7,6	9,6	9,5	1	1	1	1	1	1	1	1	1	0	1	-40,873855	275,032446	283,554483	0
14.01.2021	19:01:50	0	0	4,857931	3,822	81,5616	1,045	77,174	3,5	1005,34	7,6	9,6	9,5	1	1	1	1	1	1	1	1	1	0	1	-36,222692	274,949619	287,815013	0
14.01.2021	19:01:51	0	0	2,598428	3,81975	74,934	1,042	77,179	3,5	1005,28	7,6	9,6	9,5	1	1	1	1	1	1	1	1	1	0	1	-38,548273	275,049681	285,961393	0
14.01.2021	19:01:52	0	0	3,502229	3,57075	100,8648	1,05	77,185	3,5	1005,38	7,6	9,6	9,5	1	1	1	1	1	1	1	1	1	0	1	-32,840028	274,870251	290,823686	0
14.01.2021	19:01:53	0	0	4,519006	3,2745	95,4936	1,045	77,183	3,5	1005,3	7,6	9,6	9,5	1	1	1	1	1	1	1	1	1	0	1	-33,192389	275,043412	291,287694	0
14.01.2021	19:01:54	0	0	2,937371	3,15075	105,1164	1,045	77,17	3,5	1005,26	7,6	9,7	9,4	1	1	1	1	1	1	1	1	1	0	1	-33,192389	274,935589	290,779182	0
14.01.2021	19:01:55	0	0	2,711403	3,3375	95,8284	1,044	77,163	3,5	1005,5	7,6	9,6	9,5	1	1	1	1	1	1	1	1	1	0	1	-41,508104	275,041845	282,964584	0
14.01.2021	19:01:56	0	0	4,293055	3,582	99,1512	1,042	77,167	3,5	1005,4	7,6	9,6	9,5	1	1	1	1	1	1	1	1	1	0	1	-39,393939	275,055952	285,145323	0
14.01.2021	19:01:57	0	0	2,824379	3,7935	101,1096	1,043	77,147	3,5	1005,34	7,6	9,6	9,5	1	1	1	1	1	1	1	1	1	0	1	-37,420719	274,890451	286,33815	0
14.01.2021	19:01:58	0	0	4,631981	3,8985	98,0964	1,047	77,142	3,5	1005,22	7,6	9,6	9,5	1	1	1	1	1	1	1	1	1	0	1	-38,830162	274,982395	285,36208	0
14.01.2021	19:01:59	0	0	4,519006	4,0485	97,7256	1,043	77,129	3,5	1005,54	7,6	9,6	9,5	1	1	1	1	1	1	1	1	1	0	1	-36,293164	274,873357	287,385182	0
14.01.2021	19:02:00	0	0	4,519006	4,22925	99,1404	1,036	77,115	3,5	1005,38	7,6	9,6	9,5	1	1	1	1	1	1	1	1	1	0	1	-41,437632	275,004276	282,857811	0
14.01.2021	19:02:01	0	0	4,519006	4,22925	99,1404	1,036	77,115	3,5	1005,38	7,6	9,6	9,5	1	1	1	1	1	1	1	1	1	0	1	-41,437632	275,004276	282,857811	0
14.01.2021	19:02:02	0	0	4,519006	4,344	108,486	1,047	77,12	3,5	1005,44	7,6	9,6	9,5	1	1	1	1	1	1	1	1	1	0	1	-40,732911	274,915342	283,143237	0
14.01.2021	19:02:03	0	0	3,841155	4,63875	101,7864	1,045	77,117	3,5	1005,24	7,6	9,6	9,5	1	1	1	1	1	1	1	1	1	0	1	-36,786469	274,871804	286,88456	0
14.01.2021	19:02:04	0	0	4,406031	4,80825	94,3884	1,039	77,115	3,5	1005,28	7,6	9,6	9,5	1	1	1	1	1	1	1	1	1	0	1	-37,702607	275,041845	286,770081	0
14.01.2021	19:02:05	0	0	4,744956	4,94775	95,5152	1,038	77,127	3,5	1005,32	7,6	9,6	9,5	1	1	1	1	1	1	1	1	1	0	1	-33,333333	274,991769	290,90312	0
14.01.2021	19:02:06	0	0	2,598428	4,7355	102,5352	1,041	77,123	3,5	1005,42	7,6	9,6	9,5	1	1	1	1	1	1	1	1	1	0	1	-35,306554	275,03088	289,114395	0
14.01.2021	19:02:07	0	0	4,18008	4,4865	102,9168	1,041	77,14	3,5	1005,28	7,6	9,6	9,5	1	1	1	1	1	1	1	1	1	0	1	-35,024665	274,867145	288,624421	0
14.01.2021	19:02:08	0	0	2,937354	4,4505	94,7772	1,041	77,161	3,5	1005,56	7,6	9,6	9,5	1	1	1	1	1	1	1	1	1	0	1	-35,236082	274,9465	288,786922	0
14.01.2021	19:02:09	0	0	4,293055	4,7145	93,3588	1,042	77,169	3,5	1005,38	7,6	9,6	9,5	1	1	1	1	1	1	1	1	1	0	1	-37,491191	275,034012	286,944537	0
14.01.2021	19:02:10	0	0	4,18008	4,9845	94,3956	1,042	77,17	3,5	1005,42	7,6	9,6	9,5	1	1	1	1	1	1	1	1	1	0	1	-33,121917	274,873357	290,556429	0
14.01.2021	19:02:11	0	0	4,857931	5,18475	97,7724	1,039	77,17	3,5	1005,34	7,6	9,6	9,5	1	1	1	1	1	1	1	1	1	0	1	-37,914024	274,892006	285,85217	0
14.01.2021	19:02:12	0	0	3,276279	5,115	95,5368	1,042	77,183	3,5	1005,32	7,6	9,6	9,5	1	1	1	1	1	1	1	1	1	0	1	-36,575053	274,887342	287,169169	0
14.01.2021	19:02:13	0	0	4,293055	4,9005	93,6936	1,042	77,189	3,5	1005,34	7,6	9,6	9,5	1	1	1	1	1	1	1	1	1	0	1	-38,548273	275,038711	285,909629	0
14.01.2021	19:02:14	0	0	2,711403	4,89225	94,7376	1,038	77,177	3,5	1005,26	7,6	9,6	9,5	1	1	1	1	1	1	1	1	1	0	1	-37,279774	274,887342	286,464447	0
14.01.2021	19:02:15	0	0	4,293055	5,00475	93,7224	1,039	77,181	3,5	1005,26	7,6	9,6	9,5	1	1	1	1	1	1	1	1	1	0	1	-36,645525	274,902892	287,17196	0
14.01.2021	19:02:16	0	0	4,631981	4,85175	96,5952	1,038	77,17	3,5	1005,42	7,6	9,6	9,5	1	1	1	1	1	1	1	1	1	0	1	-36,293164	274,885788	287,443735	0
14.01.2021	19:02:17	0	0	3,389254	4,99125	96,9624	1,043	77,171	3,5	1005,44	7,6	9,6	9,5	1	1	1	1	1	1	1	1	1	0	1	-35,51797	274,865592	288,123802	0
14.01.2021	19:02:18	0	0	2,598428	4,7355	90,0108	1,04	77,163	3,5	1005,52	7,6	9,6	9,5	1	1	1	1	1	1	1	1	1	0	1	-40,239605	274,96678	283,879008	0
14.01.2021	19:02:19	0	0	2,711403	4,4025	100,7424	1,04	77,173	3,5	1005,54	7,6	9,6	9,5	1	1	1	1	1	1	1	1	1	0	1	-36,715997	274,993332	287,527828	0
14.01.2021	19:02:20	0	0	4,519006	4,50375	101,8152	1,034	77,174	3,5	1005,4	7,6	9,6	9,5	1	1	1	1	1	1	1	1	1	0	1	-33,897111	274,854727	289,69349	0
14.01.2021	19:02:21	0	0	4,631981	4,6515	101,1276	1,044	77,191	3,5	1005,38	7,6	9,6	9,5	1	1	1	1	1	1	1	1	1	0	1	-37,561663	275,046546	286,93321	0
14.01.2021	19:02:22	0	0	4,519006	4,77975	105,1344	1,04	77,196	3,5	1005,4	7,6	9,7	9,5	1	1	1	1	1	1	1	1	1	0	1	-31,712474	274,904448	292,112342	0
14.01.2021	19:02:23	0	0	3,72818	4,8765	99,9	1,041	77,204	3,5	1005,4	7,6	9,7	9,5	1	1	1	1	1	1	1	1	1	0	1	-37,77308	274,867145	285,876006	0
14.01.2021	19:02:24	0	0	2,824379	4,67025	109,9656	1,04	77,207	3,5	1005,42	7,6	9,6	9,5	1	1	1	1	1	1	1	1	1	0	1	-38,548273	274,860935	285,071564	0
14.01.2021	19:02:25	0	0	3,502229	4,6185	101,8224	1,035	77,218	3,5	1005,48	7,6	9,7	9,5	1	1	1	1	1	1	1	1	1	0	1	-38,054968	274,985519	286,152008	0
14.01.2021	19:02:26	0	0	2,598428	4,761	102,2112	1,039	77,232	3,5	1005,4	7,6	9,6	9,5	1	1	1	1	1	1	1	1	1	0	1	-36,081748	275,034012	288,35398	0
14.01.2021	19:02:27	0	0	3,276279	4,911	98,46	1,038	77,257	3,5	1005,2	7,6	9,6	9,5	1	1	1	1	1	1	1	1	1	0	1	-40,169133	274,859383	283,443394	0
14.01.2021	19:02:28	0	0	3,615205	4,863	101,502	1,036	77,263	3,5	1005,36	7,6	9,7	9,5	1	1	1	1	1	1	1	1	1	0	1	-36,927414	274,979271	287,250097	0
14.01.2021	19:02:29	0	0	4,631981	4,71	96,9768	1,036	77,271	3,5	1005,38	7,6	9,7	9,5	1	1	1	1	1	1	1	1	1	0	1	-38,75969	274,926242	285,167825	0
14.01.2021	19:02:30	0	0	2,485453	4,3545	103,6728	1,039	77,303	3,5	1005,28	7,6	9,6	9,5	1	1	1	1	1	1	1	1	1	0	1	-37,209302	275,038711	287,2486	0
14.01.2021	19:02:31	0	0	4,857931	4,30575	96,5808	1,036	77,309	3,5	1005,36	7,6	9,6	9,5	1	1	1	1	1	1	1	1	1	0	1	-33,54475	275,043412	290,935333	0
14.01.2021	19:02:32	0	0	3,95413	4,39875	99,9036	1,041	77,315	3,5	1005,4	7,6	9,6	9,5	1	1	1	1	1	1	1	1	1	0	1	-42,071882	274,9465	281,951122	0
14.01.2021	19:02:33	0	0	2,711403	4,45125	96,9588	1,038	77,303	3,5	1005,4	7,6	9,6	9,5	1	1	1	1	1	1	1	1	1	0	1	-38,266385	275,054384	286,265478	0
14.01.2021	19:02:34	0	0	4,857931	4,46775	97,4196	1,037	77,317	3,5	1005,26	7,6	9,6	9,5	1	1	1	1	1	1	1	1	1	0	1	-37,914024	275,026182	286,484762	0
14.01.2021	19:02:35	0	0	3,276279	4,605	96,5916	1,039	77,333	3,5	1005,4	7,6	9,6	9,5	1	1	1	1	1	1	1	1	1	0	1	-33,615222	274,994895	290,635975	0
14.01.2021	19:02:36	0	0	4,519006	4,662	97,38	1,032	77,323	3,5	1005,42	7,6	9,6	9,5	1	1	1	1	1	1	1	1	1	0	1	-40,591966	275,046546	283,902907	0
14.01.2021	19:02:37	0	0	2,711403	4,60575	91,152	1,036	77,342	3,5	1005,36	7,6	9,6	9,5	1	1	1	1	1	1	1	1	1	0	1	-37,420719	274,90756	286,41876	0
14.01.2021	19:02:38	0	0	4,293055	4,50075	92,2644	1,04	77,358	3,5	1005,48	7,6	9,6	9,5	1	1	1	1	1	1	1	1	1	0	1	-37,279774	274,924684	286,6404	0
14.01.2021	19:02:39	0	0	4,519006	4,47525	95,5152	1,036	77,349	3,5	1005,34	7,6	9,6	9,5	1	1	1	1	1	1	1	1	1	0	1	-38,12544	275,041845	286,347248	0
14.01.2021	19:02:40	0	0	4,406031	4,68225	92,268	1,049	77,346	3,5	1005,5	7,6	9,6	9,5	1	1	1	1	1	1	1	1	1	0	1	-36,856942	274,987081	287,357403	0
14.01.2021	19:02:41	0	0	4,406031	4,74	95,8536	1,037	77,351	3,5	1005,42	7,6	9,6	9,5	1	1	1	1	1	1	1	1	1	0	1	-37,491191	274,862487	286,135958	0
14.01.2021	19:02:42	0	0	2,711403	4,70325	91,8828	1,045	77,343	3,5	1005,42	7,6	9,6	9,5	1	1	1	1	1	1	1	1	1	0	1	-38,12544	275,027748	286,280732	0
14.01.2021	19:02:43	0	0	2,937354	4,51875	95,148	1,042	77,343	3,5	1005,3	7,6	9,6	9,5	1	1	1	1	1	1	1	1	1	0	1	-33,121917	275,019921	291,247328	0
14.01.2021	19:02:44	0	0	3,615205	4,4325	91,1628	1,041	77,324	3,5	1005,52	7,6	9,6	9,5	1	1	1	1	1	1	1	1	1	0	1	-37,350247	275,041845	287,122442	0
14.01.2021	19:02:45	0	0	3,95413	4,593	84,7836	1,044	77,332	3,5	1005,36	7,6	9,7	9,5	1	1	1	1	1	1	1	1	1	0	1	-38,75969	274,910672	285,094454	0
14.01.2021	19:02:46	0	0	2,937354	4,56075	92,6532	1,047	77,328	3,5	1005,38	7,6	9,7	9,5	1	1	1	1	1	1	1	1	1	0	1	-35,870331	274,999585	288,402985	0
14.01.2021	19:02:47	0	0	3,841155	4,5015	86,7492	1,046	77,328	3,5	1005,24	7,6	9,6	9,5	1	1	1	1	1	1	1	1	1	0	1	-34,460888	275,040278	290,004407	0
14.01.2021	19:02:48	0	0	4,744956	4,299	78,6816	1,042	77,329	3,5	1005,28	7,6	9,6	9,5	1	1	1	1	1	1	1	1	1	0	1	-40,732911	275,016791	283,621568	0
14.01.2021	19:02:49	0	0	4,519006	4,473	81,2052	1,043	77,319	3,5	1005,38	7,6	9,6	9,5	1	1	1	1	1	1	1	1	1	0	1	-38,548273	274,935589	285,423298	0
14.01.2021	19:02:50	0	0	4,18008	4,788	74,16	1,04	77,311	3,5	1005,44	7,6	9,6	9,5	1	1	1	1	1	1	1	1	1	0	1	-36,997886	275,063793	287,578388	0
14.01.2021	19:02:51	0	0	2,711403	4,8375	77,2128	1,042	77,314	3,5	1005,36	7,6	9,6	9,5	1	1	1	1	1	1	1	1	1	0	1	-39,605356	274,881125	284,109581	0
14.01.2021	19:02:52	0	0	4,406031	4,54575	74,9232	1,043	77,298	3,5	1005,46	7,6	9,6	9,5	1	1	1	1	1	1	1	1	1	0	1	-37,561663	274,901337	286,248493	0
14.01.2021	19:02:53	0	0	3,163304	4,55175	75,2436	1,036	77,302	3,5	1005,32	7,6	9,6	9,5	1	1	1	1	1	1	1	1	1	0	1	-35,799859	275,044979	288,687619	0
14.01.2021	19:02:54	0	0	3,163304	4,4415	91,8864	1,045	77,301	3,5	1005,36	7,6	9,6	9,5	1	1	1	1	1	1	1	1	1	0	1	-33,967583	275,002712	290,320484	0
14.01.2021	19:02:55	0	0	3,389254	4,4085	74,9304	1,044	77,28	3,5	1005,4	7,6	9,6	9,5	1	1	1	1	1	1	1	1	1	0	1	-36,011276	275,002712	288,276791	0
14.01.2021	19:02:56	0	0	2,598428	4,206	68,7672	1,042	77,28	3,5	1005,38	7,6	9,6	9,5	1	1	1	1	1	1	1	1	1	0	1	-37,702607	274,874911	285,983055	0
14.01.2021	19:02:57	0	0	2,711403	4,0425	79,7508	1,043	77,282	3,5	1005,38	7,6	9,6	9,5	1	1	1	1	1	1	1	1	1	0	1	-33,192389	274,938706	290,793874	0
14.01.2021	19:02:58	0	0	3,615205	4,09575	85,536	1,045	77,256	3,5	1005,24	7,6	9,6	9,5	1	1	1	1	1	1	1	1	1	0	1	-37,702607	275,040278	286,762687	0
14.01.2021	19:02:59	0	0	3,95413	3,98025	92,9556	1,045	77,263	3,5	1005,26	7,6	9,6	9,5	1	1	1	1	1	1	1	1	1	0	1	-35,236082	274,896671	288,55209	0
14.01.2021	19:03:00	0	0	2,598428	3,50175	91,1664	1,042	77,266	3,5	1005,22	7,6	9,7	9,5	1	1	1	1	1	1	1	1	1	0	1	-34,672304	275,048113	289,829965	0
14.01.2021	19:03:01	0	0	2,598428	3,50175	91,1664	1,042	77,266	3,5	1005,22	7,6	9,7	9,5	1	1	1	1	1	1	1	1	1	0	1	-34,672304	275,048113	289,829965	0
14.01.2021	19:03:02	0	0	4,067105	3,5505	82,3428	1,04	77,248	3,5	1005,46	7,6	9,6	9,5	1	1	1	1	1	1	1	1	1	0	1	-35,799859	275,048113	288,702411	0
14.01.2021	19:03:03	0	0	4,631981	3,633	93,3336	1,047	77,248	3,5	1005,4	7,6	9,6	9,5	1	1	1	1	1	1	1	1	1	0	1	-38,336857	274,993332	285,906968	0
14.01.2021	19:03:04	0	0	3,502229	3,72	87,3396	1,039	77,247	3,5	1005,26	7,6	9,6	9,5	1	1	1	1	1	1	1	1	1	0	1	-38,75969	275,054384	285,772173	0
14.01.2021	19:03:05	0	0	3,163304	3,7815	95,148	1,041	77,23	3,5	1005,44	7,6	9,6	9,5	1	1	1	1	1	1	1	1	1	0	1	-34,53136	274,920012	289,366798	0
14.01.2021	19:03:06	0	0	4,970906	3,88125	96,2136	1,041	77,231	3,5	1005,38	7,6	9,7	9,5	1	1	1	1	1	1	1	1	1	0	1	-35,447498	274,941823	288,553458	0
14.01.2021	19:03:07	0	0	4,067178	4,21575	98,4636	1,052	77,226	3,5	1005,56	7,6	9,6	9,2	1	1	1	1	1	1	1	1	1	0	1	-34,038055	275,054384	290,493808	0
14.01.2021	19:03:08	0	0	2,711403	4,3545	93,3372	1,044	77,216	3,5	1005,38	7,6	9,6	9,5	1	1	1	1	1	1	1	1	1	0	1	-37,350247	274,920012	286,547911	0
14.01.2021	19:03:09	0	0	3,95413	4,1865	94,3668	1,05	77,218	3,5	1005,4	7,6	9,6	9,5	1	1	1	1	1	1	1	1	1	0	1	-38,12544	275,029314	286,28812	0
14.01.2021	19:03:10	0	0	5,083881	4,00125	101,1348	1,047	77,199	3,5	1005,4	7,6	9,7	9,5	1	1	1	1	1	1	1	1	1	0	1	-33,685694	274,890451	290,073175	0
14.01.2021	19:03:11	0	0	4,406031	3,70125	105,8904	1,042	77,182	3,5	1005,3	7,6	9,6	9,5	1	1	1	1	1	1	1	1	1	0	1	-39,041579	274,987081	285,172766	0
14.01.2021	19:03:12	0	0	2,824379	3,441	88,9596	1,043	77,201	3,5	1005,42	7,6	9,7	9,5	1	1	1	1	1	1	1	1	1	0	1	-32,417195	275,007404	291,893002	0
14.01.2021	19:03:13	0	0	4,970906	3,17775	95,5116	1,042	77,184	3,5	1005,26	7,6	9,7	9,5	1	1	1	1	1	1	1	1	1	0	1	-33,826638	275,048113	290,675631	0
14.01.2021	19:03:14	0	0	3,72818	3,0795	102,5856	1,045	77,176	3,5	1005,3	7,6	9,6	9,5	1	1	1	1	1	1	1	1	1	0	1	-39,534884	274,983957	284,664725	0
14.01.2021	19:03:15	0	0	3,841155	3,39525	97,3116	1,046	77,174	3,5	1005,38	7,6	9,6	9,5	1	1	1	1	1	1	1	1	1	0	1	-38,12544	275,049681	286,384226	0
14.01.2021	19:03:16	0	0	4,293055	3,45075	93,33	1,048	77,17	3,5	1005,38	7,6	9,6	9,5	1	1	1	1	1	1	1	1	1	0	1	-37,632135	275,044979	286,855342	0
14.01.2021	19:03:17	0	0	3,050329	3,39825	81,6156	1,048	77,162	3,5	1005,44	7,6	9,7	9,5	1	1	1	1	1	1	1	1	1	0	1	-42,494715	274,951178	281,550342	0
14.01.2021	19:03:18	0	0	3,389254	3,678	79,7724	1,047	77,169	3,5	1005,28	7,6	9,7	9,5	1	1	1	1	1	1	1	1	1	0	1	-37,279774	274,885788	286,457125	0
14.01.2021	19:03:19	0	0	3,389254	3,462	93,7008	1,049	77,16	3,5	1005,32	7,6	9,6	9,5	1	1	1	1	1	1	1	1	1	0	1	-35,16561	274,902892	288,651876	0
14.01.2021	19:03:20	0	0	4,067105	3,2685	87,3576	1,056	77,167	3,5	1005,36	7,6	9,7	9,5	1	1	1	1	1	1	1	1	1	0	1	-36,575053	274,988644	287,646661	0
14.01.2021	19:03:21	0	0	4,18008	3,531	80,5212	1,042	77,162	3,5	1005,36	7,6	9,7	9,5	1	1	1	1	1	1	1	1	1	0	1	-40,591966	275,05752	283,954697	0
14.01.2021	19:03:22	0	0	3,502229	3,66525	96,6132	1,04	77,162	3,5	1005,34	7,6	9,6	9,5	1	1	1	1	1	1	1	1	1	0	1	-34,742777	274,921569	289,162719	0
14.01.2021	19:03:23	0	0	2,259503	3,306	95,148	1,043	77,16	3,5	1005,3	7,6	9,6	9,5	1	1	1	1	1	1	1	1	1	0	1	-33,403805	275,004276	290,891637	0
14.01.2021	19:03:24	0	0	3,615205	3,54675	93,7728	1,041	77,163	3,5	1005,38	7,6	9,7	9,5	1	1	1	1	1	1	1	1	1	0	1	-35,588443	275,040278	288,876852	0
14.01.2021	19:03:25	0	0	3,163304	3,83175	93,3552	1,04	77,145	3,5	1005,36	7,6	9,7	9,5	1	1	1	1	1	1	1	1	1	0	1	-36,011276	274,921569	287,89422	0
14.01.2021	19:03:26	0	0	2,711403	4,203	86,9904	1,044	77,157	3,5	1005,44	7,6	9,6	9,5	1	1	1	1	1	1	1	1	1	0	1	-38,477801	274,990207	285,751282	0
14.01.2021	19:03:27	0	0	4,067105	4,2165	101,4876	1,045	77,152	3,5	1005,3	7,6	9,7	9,5	1	1	1	1	1	1	1	1	1	0	1	-34,390416	275,041845	290,082273	0
14.01.2021	19:03:28	0	0	4,744956	4,119	108,1764	1,037	77,138	3,5	1005,52	7,6	9,7	9,5	1	1	1	1	1	1	1	1	1	0	1	-37,420719	275,038711	287,037183	0
14.01.2021	19:03:29	0	0	2,711403	3,9285	121,6476	1,046	77,147	3,5	1005,8	7,6	9,6	9,5	1	1	1	1	1	1	1	1	1	0	1	-35,870331	275,048113	288,631938	0
14.01.2021	19:03:30	0	0	4,519006	3,97125	115,5924	1,037	77,129	3,5	1005,22	7,6	9,7	9,5	1	1	1	1	1	1	1	1	1	0	1	-36,011276	275,055952	288,527987	0
14.01.2021	19:03:31	0	0	3,615205	4,02375	106,6608	1,05	77,132	3,5	1005,52	7,6	9,6	9,5	1	1	1	1	1	1	1	1	1	0	1	-36,715997	274,949619	287,321707	0
14.01.2021	19:03:32	0	0	3,95413	4,233	120,2652	1,039	77,126	3,5	1005,32	7,6	9,7	9,5	1	1	1	1	1	1	1	1	1	0	1	-39,7463	275,029314	284,66726	0
14.01.2021	19:03:33	0	0	3,163304	4,581	110,3292	1,04	77,133	3,5	1005,44	7,6	9,7	9,5	1	1	1	1	1	1	1	1	1	0	1	-32,55814	274,912229	291,303338	0
14.01.2021	19:03:34	0	0	3,163304	4,57575	98,0856	1,045	77,141	3,5	1005,42	7,6	9,6	9,5	1	1	1	1	1	1	1	1	1	0	1	-37,13883	274,941823	286,862127	0
14.01.2021	19:03:35	0	0	2,259544	4,44825	107,118	1,041	77,153	3,5	1005,32	7,6	9,7	9,2	1	1	1	1	1	1	1	1	1	0	1	-35,799859	275,026182	288,598926	0
14.01.2021	19:03:36	0	0	2,372478	4,50075	95,8032	1,042	77,15	3,5	1005,38	7,6	9,6	9,5	1	1	1	1	1	1	1	1	1	0	1	-38,75969	274,881125	284,955247	0
14.01.2021	19:03:37	0	0	3,61527	4,362	99,126	1,036	77,139	3,5	1005,52	7,6	9,7	9,2	1	1	1	1	1	1	1	1	1	0	1	-37,702607	274,988644	286,519106	0
14.01.2021	19:03:38	0	0	4,406031	4,5945	98,7552	1,044	77,153	3,5	1005,4	7,6	9,6	9,5	1	1	1	1	1	1	1	1	1	0	1	-38,971106	274,84852	284,590268	0
14.01.2021	19:03:39	0	0	2,259503	4,977	108,5724	1,038	77,142	3,5	1005,28	7,6	9,7	9,5	1	1	1	1	1	1	1	1	1	0	1	-36,575053	274,949619	287,462652	0
14.01.2021	19:03:40	0	0	3,389254	5,18175	102,204	1,043	77,156	3,5	1005,38	7,6	9,7	9,5	1	1	1	1	1	1	1	1	1	0	1	-30,091614	275,010532	294,233341	0
14.01.2021	19:03:41	0	0	2,598428	5,06025	102,564	1,038	77,147	3,5	1005,34	7,6	9,6	9,5	1	1	1	1	1	1	1	1	1	0	1	-38,195913	274,860935	285,423925	0
14.01.2021	19:03:42	0	0	4,631981	5,0745	93,6828	1,038	77,154	3,5	1005,4	7,6	9,7	9,5	1	1	1	1	1	1	1	1	1	0	1	-36,081748	274,998022	288,184195	0
14.01.2021	19:03:43	0	0	4,858019	5,16825	94,0932	1,039	77,17	3,5	1005,52	7,6	9,7	9,2	1	1	1	1	1	1	1	1	1	0	1	-35,095137	275,035578	289,347981	0
14.01.2021	19:03:44	0	0	4,406031	5,47275	80,8812	1,039	77,167	3,5	1005,26	7,6	9,6	9,5	1	1	1	1	1	1	1	1	1	0	1	-34,601832	274,850072	288,966848	0
14.01.2021	19:03:45	0	0	4,857931	5,6055	75,9996	1,037	77,183	3,5	1005,28	7,6	9,6	9,5	1	1	1	1	1	1	1	1	1	0	1	-40,239605	274,982395	283,952637	0
14.01.2021	19:03:46	0	0	4,631981	5,6685	60,2496	1,035	77,18	3,5	1005,28	7,6	9,7	9,5	1	1	1	1	1	1	1	1	1	0	1	-37,491191	275,044979	286,996287	0
14.01.2021	19:03:47	0	0	3,72818	5,496	66,5352	1,032	77,203	3,5	1005,24	7,6	9,7	9,5	1	1	1	1	1	1	1	1	1	0	1	-33,121917	275,034012	291,313811	0
14.01.2021	19:03:48	0	0	4,067105	5,0475	65,4516	1,031	77,21	3,5	1005,46	7,6	9,7	9,5	1	1	1	1	1	1	1	1	1	0	1	-38,75969	274,962098	285,336849	0
14.01.2021	19:03:49	0	0	4,293055	4,347	65,8476	1,036	77,241	3,5	1005,4	7,6	9,7	9,5	1	1	1	1	1	1	1	1	1	0	1	-33,262861	275,049681	291,246806	0
14.01.2021	19:03:50	0	0	4,293055	3,861	66,222	1,031	77,253	3,5	1005,44	7,6	9,6	9,5	1	1	1	1	1	1	1	1	1	0	1	-39,252995	275,046546	285,241878	0
14.01.2021	19:03:51	0	0	2,824379	3,7515	75,9924	1,036	77,244	3,5	1005,34	7,6	9,7	9,5	1	1	1	1	1	1	1	1	1	0	1	-36,011276	274,960538	288,077906	0
14.01.2021	19:03:52	0	0	3,615205	3,7125	84,0348	1,04	77,259	3,5	1005,46	7,6	9,6	9,5	1	1	1	1	1	1	1	1	1	0	1	-34,672304	274,871804	288,998725	0
14.01.2021	19:03:53	0	0	3,72818	3,708	112,6728	1,037	77,255	3,5	1005,28	7,6	9,7	9,5	1	1	1	1	1	1	1	1	1	0	1	-34,813249	275,012097	289,519086	0
14.01.2021	19:03:54	0	0	3,95413	4,1355	99,5436	1,04	77,275	3,5	1005,54	7,6	9,7	9,5	1	1	1	1	1	1	1	1	1	0	1	-36,081748	274,881125	287,633189	0
14.01.2021	19:03:55	0	0	2,824379	4,19775	102,942	1,036	77,241	3,5	1005,3	7,6	9,7	9,5	1	1	1	1	1	1	1	1	1	0	1	-35,377026	274,890451	288,381843	0
14.01.2021	19:03:56	0	0	4,18008	4,209	108,5004	1,033	77,244	3,5	1005,16	7,6	9,7	9,5	1	1	1	1	1	1	1	1	1	0	1	-36,011276	275,004276	288,284167	0
14.01.2021	19:03:57	0	0	3,615205	4,52025	107,4456	1,034	77,237	3,5	1005,44	7,6	9,7	9,5	1	1	1	1	1	1	1	1	1	0	1	-33,474278	274,965219	290,636977	0
14.01.2021	19:03:58	0	0	3,163304	5,178	98,4564	1,032	77,228	3,5	1005,32	7,6	9,7	9,5	1	1	1	1	1	1	1	1	1	0	1	-32,769556	275,03088	291,651393	0
14.01.2021	19:03:59	0	0	2,824379	5,75325	101,8296	1,032	77,244	3,5	1005,3	7,6	9,7	9,5	1	1	1	1	1	1	1	1	1	0	1	-34,178999	274,851623	289,396987	0
14.01.2021	19:04:00	0	0	3,615205	5,39775	90,7668	1,032	77,225	3,5	1005,36	7,6	9,6	9,5	1	1	1	1	1	1	1	1	1	0	1	-35,940803	274,859383	287,671724	0
14.01.2021	19:04:01	0	0	3,615205	5,39775	90,7668	1,032	77,225	3,5	1005,36	7,6	9,6	9,5	1	1	1	1	1	1	1	1	1	0	1	-35,940803	274,859383	287,671724	0
14.01.2021	19:04:02	0	0	4,519006	5,232	97,6932	1,036	77,217	3,5	1005,38	7,6	9,7	9,5	1	1	1	1	1	1	1	1	1	0	1	-34,672304	275,016791	289,682174	0
14.01.2021	19:04:03	0	0	4,519006	4,87425	91,89	1,034	77,209	3,5	1005,5	7,6	9,7	9,5	1	1	1	1	1	1	1	1	1	0	1	-37,561663	274,960538	286,527519	0
14.01.2021	19:04:04	0	0	4,406031	4,5765	88,128	1,033	77,194	3,5	1005,26	7,6	9,7	9,5	1	1	1	1	1	1	1	1	1	0	1	-34,672304	274,976147	289,490477	0
14.01.2021	19:04:05	0	0	2,937354	4,17375	86,7348	1,031	77,193	3,5	1005,32	7,6	9,6	9,5	1	1	1	1	1	1	1	1	1	0	1	-41,508104	274,873357	282,170241	0
14.01.2021	19:04:06	0	0	2,824379	3,90375	78,678	1,032	77,206	3,5	1005,2	7,6	9,4	9,5	1	1	1	1	1	1	1	1	1	0	1	-38,12544	274,977709	286,044705	0
14.01.2021	19:04:07	0	0	2,485453	3,90225	90,0144	1,034	77,198	3,5	1005,52	7,6	9,7	9,5	1	1	1	1	1	1	1	1	1	0	1	-43,763214	274,874911	279,922449	0
14.01.2021	19:04:08	0	0	2,937354	3,7815	89,3304	1,03	77,182	3,5	1005,4	7,6	9,7	9,5	1	1	1	1	1	1	1	1	1	0	1	-36,434109	274,892006	287,332085	0
14.01.2021	19:04:09	0	0	3,276279	4,07025	95,9076	1,032	77,19	3,5	1005,4	7,6	9,7	9,5	1	1	1	1	1	1	1	1	1	0	1	-33,403805	274,915342	290,472342	0
14.01.2021	19:04:10	0	0	4,631981	4,35675	105,9048	1,033	77,179	3,5	1005,5	7,6	9,7	9,5	1	1	1	1	1	1	1	1	1	0	1	-34,672304	275,029314	289,741256	0
14.01.2021	19:04:11	0	0	4,519087	4,27425	96,5952	1,033	77,186	3,5	1005,32	7,6	9,7	9,2	1	1	1	1	1	1	1	1	1	0	1	-35,306554	274,910672	288,54759	0
14.01.2021	19:04:12	0	0	2,598428	4,37475	98,172	1,029	77,182	3,5	1005,36	7,6	9,6	9,5	1	1	1	1	1	1	1	1	1	0	1	-32,276251	275,026182	292,122535	0
14.01.2021	19:04:13	0	0	4,744956	4,8945	112,6296	1,026	77,174	3,5	1005,42	7,6	9,7	9,5	1	1	1	1	1	1	1	1	1	0	1	-35,024665	275,002712	289,263402	0
14.01.2021	19:04:14	0	0	2,598428	4,83	113,0076	1,033	77,178	3,5	1005,4	7,6	9,7	9,5	1	1	1	1	1	1	1	1	1	0	1	-39,816772	274,895116	283,964072	0
14.01.2021	19:04:15	0	0	3,276279	4,57875	97,38	1,025	77,194	3,5	1005,26	7,6	9,7	9,5	1	1	1	1	1	1	1	1	1	0	1	-37,914024	274,851623	285,661962	0
14.01.2021	19:04:16	0	0	2,937354	4,2795	99,5688	1,03	77,2	3,5	1005,46	7,4	9,7	9,5	1	1	1	1	1	1	1	1	1	0	1	-33,54475	274,949619	290,492955	0
14.01.2021	19:04:17	0	0	2,937354	4,4925	96,5916	1,029	77,192	3,5	1005,34	7,6	9,7	9,5	1	1	1	1	1	1	1	1	1	0	1	-33,051445	274,874911	290,634218	0
14.01.2021	19:04:18	0	0	3,163304	4,9695	91,1808	1,032	77,197	3,5	1005,22	7,6	9,7	9,5	1	1	1	1	1	1	1	1	1	0	1	-36,997886	275,027748	287,408287	0
14.01.2021	19:04:19	0	0	2,598428	5,35425	94,7628	1,028	77,194	3,5	1005,26	7,6	9,7	9,5	1	1	1	1	1	1	1	1	1	0	1	-35,799859	274,913785	288,068953	0
14.01.2021	19:04:20	0	0	2,485453	5,622	94,3812	1,033	77,215	3,5	1005,36	7,6	9,6	9,5	1	1	1	1	1	1	1	1	1	0	1	-38,689218	275,024617	285,702181	0
14.01.2021	19:04:21	0	0	3,615205	5,45175	91,8828	1,032	77,211	3,5	1005,22	7,6	9,7	9,5	1	1	1	1	1	1	1	1	1	0	1	-32,699084	275,035578	291,744035	0
14.01.2021	19:04:22	0	0	2,824379	5,40525	100,7712	1,032	77,197	3,5	1005,3	7,6	9,7	9,5	1	1	1	1	1	1	1	1	1	0	1	-31,289641	274,971463	292,851054	0
14.01.2021	19:04:23	0	0	3,841155	5,31075	97,7508	1,025	77,21	3,5	1005,54	7,6	9,6	9,5	1	1	1	1	1	1	1	1	1	0	1	-37,209302	275,051248	287,307762	0
14.01.2021	19:04:24	0	0	4,857931	5,418	98,7624	1,025	77,201	3,5	1005,32	7,6	9,7	9,5	1	1	1	1	1	1	1	1	1	0	1	-34,954193	275,023051	289,42982	0
14.01.2021	19:04:25	0	0	4,857931	5,47275	101,1276	1,027	77,205	3,5	1005,3	7,6	9,7	9,5	1	1	1	1	1	1	1	1	1	0	1	-34,038055	274,918455	289,852765	0
14.01.2021	19:04:26	0	0	4,631981	5,418	104,436	1,028	77,219	3,5	1005,46	7,6	9,6	9,5	1	1	1	1	1	1	1	1	1	0	1	-37,914024	275,040278	286,551271	0
14.01.2021	19:04:27	0	0	3,050329	5,24025	109,2384	1,027	77,228	3,5	1005,38	7,6	9,7	9,5	1	1	1	1	1	1	1	1	1	0	1	-35,024665	275,040278	289,44063	0
14.01.2021	19:04:28	0	0	2,259503	5,0265	91,1556	1,02	77,227	3,5	1005,3	7,6	9,7	9,5	1	1	1	1	1	1	1	1	1	0	1	-36,293164	274,918455	287,597656	0
14.01.2021	19:04:29	0	0	4,519006	4,80525	91,8648	1,025	77,234	3,5	1005,4	7,6	9,7	9,5	1	1	1	1	1	1	1	1	1	0	1	-33,685694	274,923127	290,227141	0
14.01.2021	19:04:30	0	0	1,920577	4,70925	92,6424	1,024	77,256	3,5	1005,36	7,6	9,7	9,5	1	1	1	1	1	1	1	1	1	0	1	-35,16561	274,873357	288,512736	0
14.01.2021	19:04:31	0	0	3,389254	4,28475	96,192	1,028	77,257	3,5	1005,28	7,6	9,7	9,5	1	1	1	1	1	1	1	1	1	0	1	-33,051445	274,929357	290,890753	0
14.01.2021	19:04:32	0	0	2,598428	4,10775	99,1296	1,032	77,26	3,5	1005,32	7,6	9,7	9,5	1	1	1	1	1	1	1	1	1	0	1	-35,377026	274,902892	288,440459	0
14.01.2021	19:04:33	0	0	4,293055	4,04175	107,4096	1,02	77,24	3,5	1005,26	7,6	9,7	9,5	1	1	1	1	1	1	1	1	1	0	1	-33,615222	274,868698	290,041178	0
14.01.2021	19:04:34	0	0	2,485498	3,729	88,6536	1,022	77,248	3,5	1005,3	7,6	9,5	9,2	1	1	1	1	1	1	1	1	1	0	1	-37,279774	274,916899	286,603709	0
14.01.2021	19:04:35	0	0	3,841155	3,54525	87,3468	1,029	77,244	3,5	1005,3	7,6	9,7	9,5	1	1	1	1	1	1	1	1	1	0	1	-32,135307	275,041845	292,337382	0
14.01.2021	19:04:36	0	0	4,744956	3,549	96,5952	1,03	77,254	3,5	1005,42	7,4	9,7	9,5	1	1	1	1	1	1	1	1	1	0	1	-35,870331	274,971463	288,270363	0
14.01.2021	19:04:37	0	0	3,72818	3,489	96,984	1,029	77,244	3,5	1005,36	7,6	9,5	9,5	1	1	1	1	1	1	1	1	1	0	1	-37,491191	274,868698	286,165209	0
14.01.2021	19:04:38	0	0	4,293055	3,35325	82,422	1,03	77,234	3,5	1005,32	7,6	9,7	9,5	1	1	1	1	1	1	1	1	1	0	1	-30,091614	275,016791	294,262865	0
14.01.2021	19:04:39	0	0	3,163361	3,2355	75,9672	1,026	77,209	3,5	1005,42	7,6	9,7	9,2	1	1	1	1	1	1	1	1	1	0	1	-31,078224	274,937147	292,900692	0
14.01.2021	19:04:40	0	0	4,067178	3,32325	72,2736	1,024	77,223	3,5	1005,36	7,6	9,7	9,2	1	1	1	1	1	1	1	1	1	0	1	-38,971106	275,041845	285,501582	0
14.01.2021	19:04:41	0	0	4,067105	3,3555	68,3892	1,029	77,222	3,5	1005,46	7,6	9,7	9,5	1	1	1	1	1	1	1	1	1	0	1	-31,571529	274,909116	292,275282	0
14.01.2021	19:04:42	0	0	4,067105	3,29925	76,8276	1,031	77,229	3,5	1005,34	7,6	9,5	9,5	1	1	1	1	1	1	1	1	1	0	1	-36,645525	274,94806	287,384829	0
14.01.2021	19:04:43	0	0	4,18008	2,99625	64,2132	1,028	77,227	3,5	1005,34	7,6	9,7	9,5	1	1	1	1	1	1	1	1	1	0	1	-38,900634	275,010532	285,424321	0
14.01.2021	19:04:44	0	0	2,824379	2,73675	75,9708	1,025	77,211	3,5	1005,32	7,6	9,7	9,5	1	1	1	1	1	1	1	1	1	0	1	-34,53136	274,867145	289,117726	0
14.01.2021	19:04:45	0	0	3,841155	2,73	54,8712	1,028	77,203	3,5	1005,52	7,6	9,7	9,5	1	1	1	1	1	1	1	1	1	0	1	-36,715997	275,00584	287,586823	0
14.01.2021	19:04:46	0	0	4,631981	3,26775	70,2036	1,016	77,21	3,5	1005,34	7,6	9,7	9,5	1	1	1	1	1	1	1	1	1	0	1	-38,12544	274,990207	286,103643	0
14.01.2021	19:04:47	0	0	4,18008	3,49275	71,2368	1,024	77,209	3,5	1005,44	7,6	9,7	9,5	1	1	1	1	1	1	1	1	1	0	1	-35,377026	274,865592	288,264747	0
14.01.2021	19:04:48	0	0	2,598428	3,63975	71,2404	1,029	77,207	3,5	1005,34	7,6	9,7	9,5	1	1	1	1	1	1	1	1	1	0	1	-33,967583	274,898226	289,827916	0
14.01.2021	19:04:49	0	0	4,970906	3,60375	81,6552	1,028	77,2	3,5	1005,38	7,6	9,5	9,5	1	1	1	1	1	1	1	1	1	0	1	-41,014799	274,952738	283,03761	0
14.01.2021	19:04:50	0	0	2,937354	3,29925	85,5324	1,028	77,202	3,5	1005,42	7,6	9,7	9,5	1	1	1	1	1	1	1	1	1	0	1	-33,897111	275,018356	290,464751	0
14.01.2021	19:04:51	0	0	4,857931	3,05775	97,3224	1,02	77,207	3,5	1005,4	7,6	9,7	9,5	1	1	1	1	1	1	1	1	1	0	1	-40,662438	275,032446	283,7659	0
14.01.2021	19:04:52	0	0	3,163304	2,9595	98,4456	1,019	77,196	3,5	1005,44	7,6	9,5	9,5	1	1	1	1	1	1	1	1	1	0	1	-36,081748	274,980833	288,103128	0
14.01.2021	19:04:53	0	0	4,40611	3,144	99,9072	1,026	77,2	3,5	1005,32	7,6	9,4	9,2	1	1	1	1	1	1	1	1	1	0	1	-38,195913	274,856278	285,401996	0
14.01.2021	19:04:54	0	0	4,970906	3,20625	103,6476	1,024	77,2	3,5	1005,3	7,6	9,7	9,5	1	1	1	1	1	1	1	1	1	0	1	-37,914024	274,909116	285,932787	0
14.01.2021	19:04:55	0	0	3,502292	3,225	104,4216	1,021	77,19	3,5	1005,48	7,4	9,7	9,2	1	1	1	1	1	1	1	1	1	0	1	-33,262861	275,051248	291,254204	0
14.01.2021	19:04:56	0	0	2,372478	3,267	80,5032	1,017	77,188	3,5	1005,24	7,6	9,7	9,5	1	1	1	1	1	1	1	1	1	0	1	-33,54475	274,845418	290,002016	0
14.01.2021	19:04:57	0	0	2,824379	3,38925	73,764	1,017	77,178	3,5	1005,42	7,6	9,7	9,5	1	1	1	1	1	1	1	1	1	0	1	-34,813249	274,962098	289,28329	0
14.01.2021	19:04:58	0	0	3,276279	3,417	104,0292	1,013	77,168	3,5	1005,38	7,6	9,7	9,5	1	1	1	1	1	1	1	1	1	0	1	-37,702607	274,859383	285,90992	0
14.01.2021	19:04:59	0	0	4,519006	3,5475	100,7964	1,014	77,174	3,5	1005,24	7,6	9,7	9,5	1	1	1	1	1	1	1	1	1	0	1	-37,209302	275,037145	287,241208	0
14.01.2021	19:05:00	0	0	3,954201	3,4425	91,8828	1,017	77,164	3,5	1005,32	7,6	9,5	9,2	1	1	1	1	1	1	1	1	1	0	1	-35,16561	275,027748	289,240563	0
14.01.2021	19:05:01	0	0	3,954201	3,4425	91,8828	1,017	77,164	3,5	1005,32	7,6	9,5	9,2	1	1	1	1	1	1	1	1	1	0	1	-35,16561	275,027748	289,240563	0
14.01.2021	19:05:02	0	0	2,937354	3,0255	86,6628	1,021	77,149	3,5	1005,5	7,6	9,7	9,5	1	1	1	1	1	1	1	1	1	0	1	-37,914024	274,853175	285,669269	0
14.01.2021	19:05:03	0	0	3,502271	2,685	79,416	1,024	77,165	3,5	1005,42	7,6	9,7	9,3	1	1	1	1	1	1	1	1	1	0	1	-32,699084	274,909116	291,147727	0
14.01.2021	19:05:04	0	0	4,293055	2,598	86,6412	1,019	77,168	3,5	1005,32	7,6	9,7	9,5	1	1	1	1	1	1	1	1	1	0	1	-35,024665	275,021486	289,351963	0
14.01.2021	19:05:05	0	0	2,824379	3,00525	80,8884	1,026	77,16	3,5	1005,34	7,6	9,6	9,5	1	1	1	1	1	1	1	1	1	0	1	-35,588443	274,860935	288,031395	0
14.01.2021	19:05:06	0	0	4,293133	3,36075	71,9892	1,025	77,17	3,5	1005,22	7,5	9,5	9,2	1	1	1	1	1	1	1	1	1	0	1	-34,954193	274,921569	288,951303	0
14.01.2021	19:05:07	0	0	4,067178	3,591	69,1488	1,021	77,169	3,5	1005,38	7,6	9,7	9,2	1	1	1	1	1	1	1	1	1	0	1	-38,618746	275,008968	285,69883	0
14.01.2021	19:05:08	0	0	2,711403	3,621	90,7632	1,018	77,159	3,5	1005,44	7,6	9,5	9,5	1	1	1	1	1	1	1	1	1	0	1	-34,601832	274,859383	289,010695	0
14.01.2021	19:05:09	0	0	2,146566	3,83925	90,0108	1,018	77,172	3,5	1005,2	7,5	9,5	9,2	1	1	1	1	1	1	1	1	1	0	1	-38,336857	274,934031	285,62737	0
14.01.2021	19:05:10	0	0	4,293055	4,0755	93,42	1,017	77,189	3,5	1005,36	7,6	9,5	9,5	1	1	1	1	1	1	1	1	1	0	1	-36,504581	274,987081	287,709764	0
14.01.2021	19:05:11	0	0	2,824412	4,04175	101,4768	1,02	77,189	3,5	1005,32	7,6	9,7	9,3	1	1	1	1	1	1	1	1	1	0	1	-39,252995	275,029314	285,160565	0
14.01.2021	19:05:12	0	0	2,711452	4,1925	94,77	1,017	77,186	3,5	1005,26	7,5	9,7	9,2	1	1	1	1	1	1	1	1	1	0	1	-35,729387	275,026182	288,669399	0
14.01.2021	19:05:13	0	0	4,293055	4,4115	85,1688	1,006	77,196	3,5	1005,4	7,5	9,7	9,5	1	1	1	1	1	1	1	1	1	0	1	-35,658915	274,915342	288,217233	0
14.01.2021	19:05:14	0	0	2,711403	4,85625	81,2196	1,016	77,18	3,5	1005,26	7,6	9,7	9,5	1	1	1	1	1	1	1	1	1	0	1	-39,112051	274,870251	284,551664	0
14.01.2021	19:05:15	0	0	3,728247	5,1705	100,7388	1,015	77,176	3,5	1005,34	7,6	9,7	9,2	1	1	1	1	1	1	1	1	1	0	1	-34,178999	274,878018	289,521299	0
14.01.2021	19:05:16	0	0	2,824379	5,253	101,484	1,016	77,195	3,5	1005,38	7,6	9,5	9,5	1	1	1	1	1	1	1	1	1	0	1	-37,77308	274,918455	286,117741	0
14.01.2021	19:05:17	0	0	3,276279	4,60875	82,9908	1,012	77,183	3,5	1005,42	7,5	9,7	9,5	1	1	1	1	1	1	1	1	1	0	1	-42,35377	275,013661	281,985945	0
14.01.2021	19:05:18	0	0	3,61527	4,14525	94,3596	1,014	77,185	3,5	1005,22	7,6	9,7	9,2	1	1	1	1	1	1	1	1	1	0	1	-37,350247	274,859383	286,26228	0
14.01.2021	19:05:19	0	0	4,744956	3,7605	102,186	1,008	77,176	3,5	1005,5	7,6	9,7	9,5	1	1	1	1	1	1	1	1	1	0	1	-34,108527	274,973025	290,039529	0
14.01.2021	19:05:20	0	0	2,485498	3,417	86,6664	1,015	77,182	3,5	1005,36	7,5	9,7	9,2	1	1	1	1	1	1	1	1	1	0	1	-36,645525	274,854727	286,945075	0
14.01.2021	19:05:21	0	0	3,841155	3,2865	79,0236	1,003	77,185	3,5	1005,28	7,6	9,5	9,5	1	1	1	1	1	1	1	1	1	0	1	-39,393939	274,994895	284,857257	0
14.01.2021	19:05:22	0	0	2,711403	3,18825	92,2464	1,015	77,186	3,5	1005,3	7,6	9,5	9,5	1	1	1	1	1	1	1	1	1	0	1	-40,310078	274,969902	283,823256	0
14.01.2021	19:05:23	0	0	2,598428	3,19875	103,6692	1,013	77,193	3,5	1005,44	7,6	9,7	9,5	1	1	1	1	1	1	1	1	1	0	1	-35,799859	274,853175	287,783434	0
14.01.2021	19:05:24	0	0	3,050384	3,2685	100,3428	1,013	77,187	3,5	1005,4	7,6	9,5	9,2	1	1	1	1	1	1	1	1	1	0	1	-37,77308	275,038711	286,684822	0
14.01.2021	19:05:25	0	0	3,276338	3,50025	114,5448	1,008	77,199	3,5	1005,32	7,6	9,5	9,2	1	1	1	1	1	1	1	1	1	0	1	-35,377026	275,023051	289,006988	0
14.01.2021	19:05:26	0	0	3,615205	3,6945	103,2732	1,002	77,196	3,5	1005,2	7,6	9,5	9,5	1	1	1	1	1	1	1	1	1	0	1	-35,024665	275,013661	289,31505	0
14.01.2021	19:05:27	0	0	4,067154	3,9675	85,5396	1,01	77,187	3,5	1005,22	7,5	9,7	9,3	1	1	1	1	1	1	1	1	1	0	1	-38,266385	274,971463	285,874309	0
14.01.2021	19:05:28	0	0	4,067178	3,74025	94,806	1,004	77,21	3,5	1005,3	7,6	9,7	9,2	1	1	1	1	1	1	1	1	1	0	1	-39,323467	274,895116	284,457378	0
14.01.2021	19:05:29	0	0	3,389315	3,41925	114,4476	1,009	77,195	3,5	1005,46	7,6	9,5	9,2	1	1	1	1	1	1	1	1	1	0	1	-38,971106	275,001149	285,309585	0
14.01.2021	19:05:30	0	0	3,841155	3,51375	84,0456	1,01	77,227	3,5	1005,46	7,6	9,7	9,5	1	1	1	1	1	1	1	1	1	0	1	-40,098661	274,837664	283,411596	0
14.01.2021	19:05:31	0	0	4,406083	3,91575	83,718	1,004	77,216	3,5	1005,36	7,6	9,5	9,3	1	1	1	1	1	1	1	1	1	0	1	-36,645525	274,991769	287,590929	0
14.01.2021	19:05:32	0	0	4,293055	4,10475	85,8888	1,007	77,232	3,5	1005,24	7,5	9,5	9,5	1	1	1	1	1	1	1	1	1	0	1	-35,095137	274,856278	288,502771	0
14.01.2021	19:05:33	0	0	3,050384	4,0395	80,514	1,01	77,232	3,5	1005,2	7,6	9,7	9,2	1	1	1	1	1	1	1	1	1	0	1	-37,632135	274,9465	286,390868	0
14.01.2021	19:05:34	0	0	4,744956	3,90225	79,4412	1,01	77,257	3,5	1005,26	7,5	9,7	9,5	1	1	1	1	1	1	1	1	1	0	1	-37,561663	274,994895	286,689533	0
14.01.2021	19:05:35	0	0	4,406031	3,885	81,1692	0,999	77,257	3,5	1005,32	7,5	9,7	9,5	1	1	1	1	1	1	1	1	1	0	1	-38,900634	274,834564	284,595024	0
14.01.2021	19:05:36	0	0	4,970996	3,88425	84,402	1,005	77,276	3,5	1005,46	7,5	9,7	9,2	1	1	1	1	1	1	1	1	1	0	1	-31,078224	274,990207	293,150859	0
14.01.2021	19:05:37	0	0	4,067154	3,83625	85,1688	1,004	77,264	3,5	1005,44	7,6	9,7	9,3	1	1	1	1	1	1	1	1	1	0	1	-36,645525	274,878018	287,054773	0
14.01.2021	19:05:38	0	0	3,728247	3,95475	80,514	0,997	77,293	3,5	1005,26	7,6	9,7	9,2	1	1	1	1	1	1	1	1	1	0	1	-31,92389	274,895116	291,856955	0
14.01.2021	19:05:39	0	0	4,519006	4,09125	80,1504	1,007	77,306	3,5	1005,42	7,6	9,7	9,5	1	1	1	1	1	1	1	1	1	0	1	-34,319944	274,955858	289,747172	0
14.01.2021	19:05:40	0	0	4,745041	4,1205	88,5492	1,002	77,323	3,5	1005,38	7,5	9,5	9,2	1	1	1	1	1	1	1	1	1	0	1	-37,350247	275,024617	287,041153	0
14.01.2021	19:05:41	0	0	2,824379	4,02	90,0216	1,003	77,32	3,5	1005,28	7,6	9,7	9,5	1	1	1	1	1	1	1	1	1	0	1	-33,54475	274,865592	290,097023	0
14.01.2021	19:05:42	0	0	4,519087	3,9405	90,7308	1,005	77,344	3,5	1005,6	7,5	9,5	9,2	1	1	1	1	1	1	1	1	1	0	1	-31,430585	274,944941	292,585069	0
14.01.2021	19:05:43	0	0	4,519087	3,67425	82,3392	1	77,335	3,5	1005,22	7,6	9,7	9,2	1	1	1	1	1	1	1	1	1	0	1	-35,16561	274,840765	288,359249	0
14.01.2021	19:05:44	0	0	3,728224	3,74025	73,0404	0,999	77,34	3,5	1005,2	7,6	9,5	9,3	1	1	1	1	1	1	1	1	1	0	1	-38,407329	274,895116	285,373516	0
14.01.2021	19:05:45	0	0	2,937407	3,83775	79,0344	1,002	77,371	3,5	1005,4	7,5	9,7	9,2	1	1	1	1	1	1	1	1	1	0	1	-37,491191	275,00584	286,811629	0
14.01.2021	19:05:46	0	0	4,293133	3,663	86,6844	1	77,367	3,5	1005,38	7,6	9,5	9,2	1	1	1	1	1	1	1	1	1	0	1	-40,239605	274,998022	284,026337	0
14.01.2021	19:05:47	0	0	4,406083	3,59625	80,8668	0,998	77,394	3,5	1005,38	7,5	9,7	9,3	1	1	1	1	1	1	1	1	1	0	1	-34,672304	274,963659	289,431592	0
14.01.2021	19:05:48	0	0	3,502292	3,7965	80,982	0,995	77,4	3,5	1005,38	7,5	9,7	9,2	1	1	1	1	1	1	1	1	1	0	1	-34,390416	274,829914	289,08335	0
14.01.2021	19:05:49	0	0	2,485498	3,58725	87,7356	0,992	77,387	3,5	1005,34	7,5	9,5	9,2	1	1	1	1	1	1	1	1	1	0	1	-38,12544	274,896671	285,662731	0
14.01.2021	19:05:50	0	0	4,970996	3,3675	91,8972	0,998	77,415	3,5	1005,46	7,5	9,5	9,2	1	1	1	1	1	1	1	1	1	0	1	-36,645525	275,001149	287,635166	0
14.01.2021	19:05:51	0	0	2,598428	3,35325	97,3404	1,002	77,408	3,5	1005,42	7,5	9,7	9,5	1	1	1	1	1	1	1	1	1	0	1	-34,178999	274,851623	289,396987	0
14.01.2021	19:05:52	0	0	4,631981	3,7095	102,5892	0,996	77,418	3,5	1005,4	7,5	9,5	9,5	1	1	1	1	1	1	1	1	1	0	1	-34,813249	274,952738	289,23916	0
14.01.2021	19:05:53	0	0	2,711436	3,7725	88,9488	0,994	77,416	3,5	1005,42	7,5	9,7	9,3	1	1	1	1	1	1	1	1	1	0	1	-40,662438	274,955858	283,404678	0
14.01.2021	19:05:54	0	0	2,372506	3,651	96,2028	0,998	77,418	3,5	1005,3	7,6	9,7	9,3	1	1	1	1	1	1	1	1	1	0	1	-36,081748	274,878018	287,61855	0
14.01.2021	19:05:55	0	0	3,163361	3,522	94,1616	0,991	77,417	3,5	1005,42	7,5	9,7	9,2	1	1	1	1	1	1	1	1	1	0	1	-35,377026	274,906004	288,455121	0
14.01.2021	19:05:56	0	0	4,067105	3,4875	102,204	0,996	77,436	3,5	1005,38	7,5	9,7	9,5	1	1	1	1	1	1	1	1	1	0	1	-33,54475	274,991769	290,691704	0
14.01.2021	19:05:57	0	0	2,711452	3,48075	104,7636	0,995	77,422	3,5	1005,36	7,6	9,5	9,2	1	1	1	1	1	1	1	1	1	0	1	-33,403805	274,865592	290,237967	0
14.01.2021	19:05:58	0	0	2,937407	3,456	91,5192	0,99	77,428	3,5	1005,32	7,5	9,7	9,2	1	1	1	1	1	1	1	1	1	0	1	-40,591966	274,913785	283,276846	0
14.01.2021	19:05:59	0	0	3,841155	3,62625	96,588	0,99	77,434	3,5	1005,34	7,5	9,5	9,5	1	1	1	1	1	1	1	1	1	0	1	-37,914024	274,833013	285,574336	0
14.01.2021	19:06:00	0	0	2,485483	4,32	104,0508	0,993	77,427	3,5	1005,14	7,5	9,5	9,3	1	1	1	1	1	1	1	1	1	0	1	-38,054968	274,851623	285,521018	0
14.01.2021	19:06:01	0	0	2,485483	4,32	104,0508	0,993	77,427	3,5	1005,14	7,5	9,5	9,3	1	1	1	1	1	1	1	1	1	0	1	-38,054968	274,851623	285,521018	0
14.01.2021	19:06:02	0	0	2,937407	4,33125	109,5948	0,995	77,439	3,5	1005,36	7,5	9,7	9,2	1	1	1	1	1	1	1	1	1	0	1	-29,527837	274,860935	294,092001	0
14.01.2021	19:06:03	0	0	4,067105	4,101	114,48	0,997	77,442	3,5	1005,38	7,5	9,7	9,5	1	1	1	1	1	1	1	1	1	0	1	-36,434109	274,868698	287,222291	0
14.01.2021	19:06:04	0	0	3,841201	3,888	107,7192	0,996	77,436	3,5	1005,42	7,5	9,5	9,3	1	1	1	1	1	1	1	1	1	0	1	-35,024665	275,019921	289,344579	0
14.01.2021	19:06:05	0	0	2,372521	3,675	111,4344	0,99	77,45	3,5	1005,34	7,5	9,7	9,2	1	1	1	1	1	1	1	1	1	0	1	-34,742777	274,974586	289,412642	0
14.01.2021	19:06:06	0	0	2,598459	3,7905	113,004	0,994	77,444	3,5	1005,42	7,5	9,5	9,3	1	1	1	1	1	1	1	1	1	0	1	-32,205779	274,837664	291,304478	0
14.01.2021	19:06:07	0	0	4,970966	3,79425	114,4656	0,992	77,443	3,5	1005,32	7,5	9,7	9,3	1	1	1	1	1	1	1	1	1	0	1	-34,742777	274,980833	289,442099	0
14.01.2021	19:06:08	0	0	4,406031	3,72075	120,5064	0,994	77,452	3,5	1005,34	7,5	9,7	9,5	1	1	1	1	1	1	1	1	1	0	1	-35,306554	274,873357	288,371792	0
14.01.2021	19:06:09	0	0	2,485483	3,74475	113,6988	0,991	77,454	3,5	1005,18	7,5	9,5	9,3	1	1	1	1	1	1	1	1	1	0	1	-40,310078	274,831463	283,170985	0
14.01.2021	19:06:10	0	0	2,824429	3,717	110,6604	0,997	77,456	3,5	1005,28	7,5	9,5	9,2	1	1	1	1	1	1	1	1	1	0	1	-35,024665	275,004276	289,270778	0
14.01.2021	19:06:11	0	0	3,276338	3,56475	106,2612	0,994	77,443	3,5	1005,3	7,5	9,5	9,2	1	1	1	1	1	1	1	1	1	0	1	-34,954193	274,924684	288,965981	0
14.01.2021	19:06:12	0	0	3,389315	3,56025	104,4432	0,985	77,449	3,5	1005,32	7,5	9,5	9,2	1	1	1	1	1	1	1	1	1	0	1	-33,756166	274,991769	290,480287	0
14.01.2021	19:06:13	0	0	4,519087	3,579	91,1592	0,991	77,463	3,5	1005,36	7,5	9,5	9,2	1	1	1	1	1	1	1	1	1	0	1	-34,813249	274,823715	288,631336	0
14.01.2021	19:06:14	0	0	4,970996	3,60375	80,1144	0,99	77,469	3,5	1005,24	7,5	9,5	9,2	1	1	1	1	1	1	1	1	1	0	1	-37,843552	274,920012	286,054606	0
14.01.2021	19:06:15	0	0	2,824412	3,53475	102,9348	0,99	77,469	3,5	1005,44	7,5	9,7	9,3	1	1	1	1	1	1	1	1	1	0	1	-33,474278	274,822166	289,963014	0
14.01.2021	19:06:16	0	0	3,050365	3,63	93,3228	0,985	77,473	3,5	1005,4	7,5	9,5	9,3	1	1	1	1	1	1	1	1	1	0	1	-42,776603	274,825265	280,675276	0
14.01.2021	19:06:17	0	0	4,293133	3,8625	95,1552	0,99	77,491	3,5	1005,28	7,5	9,5	9,2	1	1	1	1	1	1	1	1	1	0	1	-35,095137	274,913785	288,773675	0
14.01.2021	19:06:18	0	0	2,711452	3,71325	107,4384	0,985	77,478	3,5	1005,32	7,5	9,7	9,2	1	1	1	1	1	1	1	1	1	0	1	-33,897111	274,829914	289,576655	0
14.01.2021	19:06:19	0	0	3,954177	3,552	102,924	0,988	77,483	3,5	1005,32	7,5	9,5	9,3	1	1	1	1	1	1	1	1	1	0	1	-37,702607	275,001149	286,578084	0
14.01.2021	19:06:20	0	0	3,276338	3,603	117,1404	0,985	77,482	3,5	1005,32	7,5	9,5	9,2	1	1	1	1	1	1	1	1	1	0	1	-34,390416	274,888896	289,361129	0
14.01.2021	19:06:21	0	0	2,372521	3,594	107,4168	0,994	77,517	3,5	1005,44	7,5	9,5	9,2	1	1	1	1	1	1	1	1	1	0	1	-38,689218	274,856278	284,908691	0
14.01.2021	19:06:22	0	0	4,631981	3,4755	110,6712	0,986	77,519	3,5	1005,36	7,5	9,5	9,5	1	1	1	1	1	1	1	1	1	0	1	-37,77308	274,976147	286,389702	0
14.01.2021	19:06:23	0	0	3,050384	3,80325	108,4896	0,983	77,528	3,5	1005,36	7,5	9,5	9,2	1	1	1	1	1	1	1	1	1	0	1	-37,702607	274,882679	286,019649	0
14.01.2021	19:06:24	0	0	2,711436	4,10175	98,1576	0,988	77,539	3,5	1005,4	7,6	9,5	9,3	1	1	1	1	1	1	1	1	1	0	1	-31,782946	274,840765	291,741913	0
14.01.2021	19:06:25	0	0	3,728224	4,002	98,4564	0,989	77,533	3,5	1005,28	7,5	9,5	9,3	1	1	1	1	1	1	1	1	1	0	1	-33,474278	275,002712	290,813789	0
14.01.2021	19:06:26	0	0	2,711436	3,87075	103,6584	0,985	77,543	3,5	1005,42	7,5	9,5	9,3	1	1	1	1	1	1	1	1	1	0	1	-33,897111	274,867145	289,751975	0
14.01.2021	19:06:27	0	0	3,050384	3,894	111,402	0,98	77,54	3,5	1005,06	7,5	9,5	9,2	1	1	1	1	1	1	1	1	1	0	1	-34,883721	274,935589	289,08785	0
14.01.2021	19:06:28	0	0	2,598475	3,8835	99,9036	0,98	77,539	3,5	1005,4	7,5	9,5	9,2	1	1	1	1	1	1	1	1	1	0	1	-40,239605	274,996458	284,018964	0
14.01.2021	19:06:29	0	0	4,970906	3,83175	96,1992	0,986	77,531	3,5	1005,26	7,5	9,5	9,5	1	1	1	1	1	1	1	1	1	0	1	-33,474278	274,94806	290,556076	0
14.01.2021	19:06:30	0	0	4,293107	3,86025	91,908	0,982	77,529	3,5	1005,4	7,5	9,5	9,3	1	1	1	1	1	1	1	1	1	0	1	-34,672304	274,836114	288,830653	0
14.01.2021	19:06:31	0	0	4,18013	3,78075	102,2004	0,986	77,541	3,5	1005,3	7,5	9,5	9,3	1	1	1	1	1	1	1	1	1	0	1	-37,279774	274,814422	286,121061	0
14.01.2021	19:06:32	0	0	4,745041	3,7515	98,7624	0,981	77,541	3,5	1005,48	7,5	9,5	9,2	1	1	1	1	1	1	1	1	1	0	1	-34,108527	274,949619	289,929177	0
14.01.2021	19:06:33	0	0	3,050365	3,86625	97,3044	0,984	77,54	3,5	1005,44	7,5	9,5	9,3	1	1	1	1	1	1	1	1	1	0	1	-32,346723	274,940265	291,646886	0
14.01.2021	19:06:34	0	0	4,067105	3,705	94,356	0,986	77,542	3,5	1005,38	7,5	9,5	9,5	1	1	1	1	1	1	1	1	1	0	1	-33,826638	274,963659	290,277258	0
14.01.2021	19:06:35	0	0	3,728247	3,56025	100,3608	0,986	77,552	3,5	1005,36	7,5	9,5	9,2	1	1	1	1	1	1	1	1	1	0	1	-32,417195	274,90756	291,422283	0
14.01.2021	19:06:36	0	0	3,954177	3,56025	97,3188	0,979	77,556	3,5	1005,32	7,5	9,7	9,3	1	1	1	1	1	1	1	1	1	0	1	-30,725863	274,823715	292,718722	0
14.01.2021	19:06:37	0	0	3,163342	3,5475	97,7076	0,982	77,556	3,5	1005,26	7,5	9,5	9,3	1	1	1	1	1	1	1	1	1	0	1	-33,333333	274,831463	290,147729	0
14.01.2021	19:06:38	0	0	2,824412	3,67275	104,4036	0,986	77,561	3,5	1005,54	7,5	9,5	9,3	1	1	1	1	1	1	1	1	1	0	1	-34,178999	274,871804	289,49203	0
14.01.2021	19:06:39	0	0	2,824429	4,00575	94,374	0,982	77,568	3,5	1005,42	7,5	9,5	9,2	1	1	1	1	1	1	1	1	1	0	1	-34,672304	274,985519	289,534672	0
14.01.2021	19:06:40	0	0	2,937389	4,0935	95,5224	0,984	77,566	3,5	1005,42	7,5	9,5	9,3	1	1	1	1	1	1	1	1	1	0	1	-33,54475	274,937147	290,434167	0
14.01.2021	19:06:41	0	0	4,293133	4,0005	93,3336	0,982	77,576	3,5	1005,42	7,5	9,5	9,2	1	1	1	1	1	1	1	1	1	0	1	-34,108527	274,983957	290,091082	0
14.01.2021	19:06:42	0	0	2,485483	4,03275	106,29	0,983	77,578	3,5	1005,28	7,5	9,5	9,3	1	1	1	1	1	1	1	1	1	0	1	-31,148696	274,998022	293,117246	0
14.01.2021	19:06:43	0	0	4,858019	4,062	98,4312	0,985	77,577	3,5	1005,38	7,5	9,5	9,2	1	1	1	1	1	1	1	1	1	0	1	-36,786469	274,949619	287,251235	0
14.01.2021	19:06:44	0	0	3,841201	4,09125	95,1552	0,986	77,586	3,5	1005,42	7,5	9,5	9,3	1	1	1	1	1	1	1	1	1	0	1	-34,178999	274,851623	289,396987	0
14.01.2021	19:06:45	0	0	4,067154	3,93675	86,6592	0,983	77,589	3,5	1005,34	7,5	9,5	9,3	1	1	1	1	1	1	1	1	1	0	1	-35,377026	274,926242	288,550489	0
14.01.2021	19:06:46	0	0	2,598459	3,7455	75,618	0,985	77,593	3,5	1005,4	7,5	9,5	9,3	1	1	1	1	1	1	1	1	1	0	1	-38,689218	274,987081	285,525127	0
14.01.2021	19:06:47	0	0	2,824412	3,5955	76,8132	0,981	77,601	3,5	1005,3	7,5	9,7	9,3	1	1	1	1	1	1	1	1	1	0	1	-35,447498	274,842316	288,084662	0
14.01.2021	19:06:48	0	0	4,51906	3,8115	83,7324	0,981	77,593	3,5	1005,38	7,5	9,5	9,3	1	1	1	1	1	1	1	1	1	0	1	-35,588443	274,923127	288,324392	0
14.01.2021	19:06:49	0	0	4,632036	3,9495	88,65	0,984	77,595	3,5	1005,42	7,5	9,5	9,3	1	1	1	1	1	1	1	1	1	0	1	-33,051445	274,988644	291,170269	0
14.01.2021	19:06:50	0	0	4,067154	4,22775	76,9104	0,982	77,591	3,5	1005,58	7,5	9,5	9,3	1	1	1	1	1	1	1	1	1	0	1	-33,192389	274,853175	290,390904	0
14.01.2021	19:06:51	0	0	4,51906	4,78275	74,1708	0,984	77,592	3,5	1005,24	7,5	9,5	9,3	1	1	1	1	1	1	1	1	1	0	1	-31,853418	274,836114	291,649539	0
14.01.2021	19:06:52	0	0	2,372506	5,18175	86,2812	0,986	77,566	3,5	1005,32	7,5	9,5	9,3	1	1	1	1	1	1	1	1	1	0	1	-35,236082	274,999585	289,037235	0
14.01.2021	19:06:53	0	0	3,728224	5,4075	90,0684	0,98	77,557	3,5	1005,38	7,5	9,5	9,3	1	1	1	1	1	1	1	1	1	0	1	-35,16561	274,916899	288,717874	0
14.01.2021	19:06:54	0	0	4,970966	5,34525	91,8864	0,987	77,558	3,5	1005,54	7,5	9,5	9,3	1	1	1	1	1	1	1	1	1	0	1	-37,702607	274,973025	286,445449	0
14.01.2021	19:06:55	0	0	4,406083	5,403	96,2028	0,983	77,569	3,5	1005,36	7,5	9,5	9,3	1	1	1	1	1	1	1	1	1	0	1	-35,658915	274,965219	288,45234	0
14.01.2021	19:06:56	0	0	4,745013	5,32125	91,5156	0,978	77,556	3,5	1005,36	7,5	9,5	9,3	1	1	1	1	1	1	1	1	1	0	1	-37,632135	274,865592	286,009637	0
14.01.2021	19:06:57	0	0	4,067154	5,11125	93,3372	0,983	77,558	3,5	1005,6	7,5	9,5	9,3	1	1	1	1	1	1	1	1	1	0	1	-38,477801	274,982395	285,714441	0
14.01.2021	19:06:58	0	0	4,970966	5,16675	87,3432	0,977	77,564	3,5	1005,32	7,5	9,5	9,3	1	1	1	1	1	1	1	1	1	0	1	-33,967583	274,958978	290,114243	0
14.01.2021	19:06:59	0	0	4,632036	5,09325	90,774	0,984	77,57	3,5	1005,32	7,5	9,5	9,3	1	1	1	1	1	1	1	1	1	0	1	-36,081748	274,94806	287,948606	0
14.01.2021	19:07:00	0	0	3,615248	4,692	97,6788	0,984	77,555	3,5	1005,4	7,5	9,5	9,3	1	1	1	1	1	1	1	1	1	0	1	-33,54475	274,885788	290,19215	0
14.01.2021	19:07:01	0	0	3,615248	4,692	97,6788	0,984	77,555	3,5	1005,4	7,5	9,5	9,3	1	1	1	1	1	1	1	1	1	0	1	-33,54475	274,885788	290,19215	0
14.01.2021	19:07:02	0	0	3,389295	4,5585	94,752	0,983	77,561	3,5	1005,2	7,5	9,5	9,3	1	1	1	1	1	1	1	1	1	0	1	-33,333333	274,812873	290,060213	0
14.01.2021	19:07:03	0	0	3,276318	4,69575	101,1384	0,978	77,546	3,5	1005,34	7,6	9,5	9,3	1	1	1	1	1	1	1	1	1	0	1	-35,16561	274,952738	288,886799	0
14.01.2021	19:07:04	0	0	4,293107	4,77	93,0276	0,977	77,571	3,5	1005,46	7,5	9,5	9,3	1	1	1	1	1	1	1	1	1	0	1	-38,336857	274,829914	285,136908	0
14.01.2021	19:07:05	0	0	4,519087	4,93275	107,7552	0,981	77,566	3,5	1005,36	7,5	9,5	9,2	1	1	1	1	1	1	1	1	1	0	1	-37,209302	274,987081	287,005042	0
14.01.2021	19:07:06	0	0	5,196919	5,055	108,1224	0,977	77,567	3,5	1005,28	7,5	9,5	9,3	1	1	1	1	1	1	1	1	1	0	1	-35,16561	274,940265	288,828	0
14.01.2021	19:07:07	0	0	4,51906	4,80825	98,748	0,981	77,586	3,5	1005,38	7,6	9,5	9,3	1	1	1	1	1	1	1	1	1	0	1	-36,011276	274,871804	287,659754	0
14.01.2021	19:07:08	0	0	2,824412	4,5675	99,1296	0,981	77,59	3,5	1005,36	7,6	9,5	9,3	1	1	1	1	1	1	1	1	1	0	1	-34,813249	274,823715	288,631336	0
14.01.2021	19:07:09	0	0	3,389295	4,36275	98,0748	0,981	77,586	3,5	1005,28	7,5	9,5	9,3	1	1	1	1	1	1	1	1	1	0	1	-32,135307	274,822166	291,301985	0
14.01.2021	19:07:10	0	0	4,18013	4,3965	92,286	0,984	77,601	3,5	1005,42	7,5	9,5	9,3	1	1	1	1	1	1	1	1	1	0	1	-38,407329	274,916899	285,476155	0
14.01.2021	19:07:11	0	0	2,937389	4,28925	97,3296	0,981	77,602	3,5	1005,32	7,6	9,5	9,3	1	1	1	1	1	1	1	1	1	0	1	-41,014799	274,993332	283,229026	0
14.01.2021	19:07:12	0	0	3,615248	4,26375	89,6868	0,983	77,622	3,5	1005,44	7,5	9,5	9,3	1	1	1	1	1	1	1	1	1	0	1	-34,390416	274,929357	289,551781	0
14.01.2021	19:07:13	0	0	3,615248	4,1985	81,2124	0,983	77,628	3,5	1005,48	7,5	9,5	9,3	1	1	1	1	1	1	1	1	1	0	1	-36,081748	274,798942	287,246229	0
14.01.2021	19:07:14	0	0	2,598459	4,41825	89,7264	0,985	77,629	3,5	1005,42	7,5	9,5	9,3	1	1	1	1	1	1	1	1	1	0	1	-33,897111	274,890451	289,861758	0
14.01.2021	19:07:15	0	0	2,259503	4,67925	99,1548	0,979	77,61	3,5	1005,36	7,5	9,5	9,5	1	1	1	1	1	1	1	1	1	0	1	-34,601832	274,949619	289,435872	0
14.01.2021	19:07:16	0	0	4,18013	4,5555	98,4708	0,979	77,639	3,5	1005,52	7,5	9,5	9,3	1	1	1	1	1	1	1	1	1	0	1	-34,883721	274,987081	289,330624	0
14.01.2021	19:07:17	0	0	4,293107	4,30575	113,04	0,979	77,638	3,5	1005,38	7,5	9,5	9,3	1	1	1	1	1	1	1	1	1	0	1	-36,293164	274,836114	287,209793	0
14.01.2021	19:07:18	0	0	4,632036	4,03575	134,55	0,981	77,628	3,5	1005,24	7,5	9,5	9,3	1	1	1	1	1	1	1	1	1	0	1	-35,236082	274,918455	288,654739	0
14.01.2021	19:07:19	0	0	2,937389	3,56025	129,0564	0,977	77,618	3,5	1005,32	7,6	9,5	9,3	1	1	1	1	1	1	1	1	1	0	1	-33,826638	274,979271	290,350872	0
14.01.2021	19:07:20	0	0	4,18013	3,663	140,8932	0,983	77,622	3,5	1005,52	7,6	9,5	9,3	1	1	1	1	1	1	1	1	1	0	1	-30,373502	274,906004	293,458644	0
14.01.2021	19:07:21	0	0	3,050365	4,00875	121,6404	0,979	77,635	3,5	1005,4	7,5	9,5	9,3	1	1	1	1	1	1	1	1	1	0	1	-30,93728	274,797395	292,383415	0
14.01.2021	19:07:22	0	0	2,824412	4,55475	128,6856	0,975	77,615	3,5	1005,38	7,5	9,5	9,3	1	1	1	1	1	1	1	1	1	0	1	-31,853418	274,791207	291,438156	0
14.01.2021	19:07:23	0	0	4,632036	4,815	122,3892	0,975	77,594	3,5	1005,26	7,5	9,5	9,3	1	1	1	1	1	1	1	1	1	0	1	-33,615222	274,935589	290,356349	0
14.01.2021	19:07:24	0	0	3,276318	4,3575	120,8844	0,977	77,595	3,5	1005,18	7,5	9,5	9,3	1	1	1	1	1	1	1	1	1	0	1	-31,007752	274,926242	292,919763	0
14.01.2021	19:07:25	0	0	3,050365	4,56	105,894	0,977	77,577	3,5	1005,36	7,5	9,7	9,3	1	1	1	1	1	1	1	1	1	0	1	-34,390416	274,973025	289,75764	0
14.01.2021	19:07:26	0	0	3,615248	4,839	108,8712	0,982	77,569	3,5	1005,38	7,5	9,5	9,3	1	1	1	1	1	1	1	1	1	0	1	-32,55814	274,833013	290,93022	0
14.01.2021	19:07:27	0	0	3,050365	4,956	83,7468	0,976	77,559	3,5	1005,2	7,6	9,5	9,3	1	1	1	1	1	1	1	1	1	0	1	-32,487667	274,921569	291,417829	0
14.01.2021	19:07:28	0	0	3,050365	4,5915	96,228	0,977	77,544	3,5	1005,36	7,5	9,5	9,3	1	1	1	1	1	1	1	1	1	0	1	-33,756166	274,797395	289,564528	0
14.01.2021	19:07:29	0	0	3,502271	3,73725	90,0072	0,977	77,532	3,5	1005,34	7,5	9,5	9,3	1	1	1	1	1	1	1	1	1	0	1	-35,16561	274,834564	288,330049	0
14.01.2021	19:07:30	0	0	4,293107	3,19725	100,7424	0,978	77,54	3,5	1005,32	7,5	9,5	9,3	1	1	1	1	1	1	1	1	1	0	1	-34,883721	274,871804	288,787309	0
14.01.2021	19:07:31	0	0	4,067154	2,98575	113,7348	0,979	77,523	3,5	1005,36	7,6	9,5	9,3	1	1	1	1	1	1	1	1	1	0	1	-37,068358	274,998022	287,197585	0
14.01.2021	19:07:32	0	0	3,954177	3,1635	113,7096	0,973	77,513	3,5	1005,24	7,6	9,5	9,3	1	1	1	1	1	1	1	1	1	0	1	-29,739253	274,882679	293,983004	0
14.01.2021	19:07:33	0	0	2,146553	3,39675	119,8188	0,986	77,536	3,5	1005,3	7,5	9,5	9,3	1	1	1	1	1	1	1	1	1	0	1	-34,319944	274,811325	289,066315	0
14.01.2021	19:07:34	0	0	2,711436	4,17	113,4144	0,976	77,524	3,5	1005,24	7,5	9,5	9,3	1	1	1	1	1	1	1	1	1	0	1	-35,799859	274,988644	288,421854	0
14.01.2021	19:07:35	0	0	5,083881	5,12775	115,956	0,978	77,532	3,5	1005,26	7,5	9,7	9,5	1	1	1	1	1	1	1	1	1	0	1	-37,843552	274,870251	285,820163	0
14.01.2021	19:07:36	0	0	4,067154	5,6415	116,3412	0,978	77,521	3,5	1005,18	7,5	9,4	9,3	1	1	1	1	1	1	1	1	1	0	1	-30,655391	274,808228	292,716292	0
14.01.2021	19:07:37	0	0	3,841201	5,63925	111,42	0,977	77,52	3,5	1005,28	7,5	9,5	9,3	1	1	1	1	1	1	1	1	1	0	1	-36,997886	274,974586	287,157533	0
14.01.2021	19:07:38	0	0	3,050365	5,78625	116,6652	0,978	77,51	3,5	1005,32	7,5	9,5	9,3	1	1	1	1	1	1	1	1	1	0	1	-31,853418	274,923127	292,059417	0
14.01.2021	19:07:39	0	0	4,51906	5,70375	119,7972	0,986	77,503	3,5	1005,36	7,5	9,7	9,3	1	1	1	1	1	1	1	1	1	0	1	-32,9105	274,969902	291,222833	0
14.01.2021	19:07:40	0	0	5,083942	5,82525	123,1236	0,98	77,504	3,5	1005,3	7,5	9,5	9,3	1	1	1	1	1	1	1	1	1	0	1	-39,675828	274,982395	284,516414	0
14.01.2021	19:07:41	0	0	3,728224	5,93775	120,8988	0,97	77,474	3,5	1005,1	7,6	9,5	9,3	1	1	1	1	1	1	1	1	1	0	1	-34,813249	274,846969	288,740821	0
14.01.2021	19:07:42	0	0	3,389295	6,015	119,088	0,971	77,481	3,5	1005,36	7,6	9,5	9,3	1	1	1	1	1	1	1	1	1	0	1	-33,333333	274,805132	290,023778	0
14.01.2021	19:07:43	0	0	5,309927	6,1245	119,7792	0,98	77,483	3,5	1005,28	7,5	9,3	9,2	1	1	1	1	1	1	1	1	1	0	1	-36,645525	274,957418	287,428945	0
14.01.2021	19:07:44	0	0	4,18013	6,0435	123,462	0,978	77,499	3,5	1005,22	7,6	9,7	9,3	1	1	1	1	1	1	1	1	1	0	1	-40,239605	274,934031	283,724621	0
14.01.2021	19:07:45	0	0	2,033589	5,799	120,9096	0,978	77,501	3,5	1005,38	7,5	9,5	9,2	1	1	1	1	1	1	1	1	1	0	1	-30,93728	274,814422	292,463556	0
14.01.2021	19:07:46	0	0	3,502271	5,7	105,1236	0,978	77,511	3,5	1005,26	7,6	9,5	9,3	1	1	1	1	1	1	1	1	1	0	1	-36,575053	274,960538	287,514129	0
14.01.2021	19:07:47	0	0	4,40611	5,712	105,1416	0,979	77,513	3,5	1005,28	7,6	9,5	9,2	1	1	1	1	1	1	1	1	1	0	1	-35,799859	274,874911	287,885803	0
14.01.2021	19:07:48	0	0	3,276338	5,769	111,0348	0,977	77,507	3,5	1005,32	7,5	9,5	9,2	1	1	1	1	1	1	1	1	1	0	1	-36,997886	274,994895	287,253311	0
14.01.2021	19:07:49	0	0	1,9206	5,892	107,0568	0,98	77,531	3,5	1005,42	7,5	9,5	9,3	1	1	1	1	1	1	1	1	1	0	1	-34,249471	274,84852	289,311903	0
14.01.2021	19:07:50	0	0	4,632036	6,1605	111,78	0,976	77,536	3,5	1005,38	7,5	9,5	9,3	1	1	1	1	1	1	1	1	1	0	1	-36,222692	274,904448	287,602124	0
14.01.2021	19:07:51	0	0	3,954106	6,0105	109,5948	0,977	77,558	3,5	1005,32	7,6	9,3	9,6	1	1	1	1	1	1	1	1	1	0	1	-36,997886	275,002712	287,290181	0
14.01.2021	19:07:52	0	0	2,485483	6,042	115,2648	0,972	77,539	3,5	1005,26	7,6	9,5	9,3	1	1	1	1	1	1	1	1	1	0	1	-33,897111	275,00584	290,405709	0
14.01.2021	19:07:53	0	0	3,276318	6,0165	108,0972	0,978	77,546	3,5	1005,52	7,5	9,5	9,3	1	1	1	1	1	1	1	1	1	0	1	-39,112051	274,924684	284,808124	0
14.01.2021	19:07:54	0	0	3,502271	6,34425	109,962	0,978	77,536	3,5	1005,42	7,5	9,5	9,3	1	1	1	1	1	1	1	1	1	0	1	-32,699084	274,798942	290,628893	0
14.01.2021	19:07:55	0	0	4,632036	6,39375	108,4608	0,977	77,528	3,5	1005,44	7,5	9,5	9,3	1	1	1	1	1	1	1	1	1	0	1	-33,685694	274,873357	289,992652	0
14.01.2021	19:07:56	0	0	3,389315	6,342	97,7004	0,979	77,509	3,5	1005,44	7,5	9,7	9,2	1	1	1	1	1	1	1	1	1	0	1	-34,460888	274,994895	289,790309	0
14.01.2021	19:07:57	0	0	3,954177	6,09375	100,3608	0,978	77,52	3,5	1005,38	7,5	9,5	9,3	1	1	1	1	1	1	1	1	1	0	1	-34,672304	274,845418	288,874462	0
14.01.2021	19:07:58	0	0	2,598459	5,8185	107,73	0,972	77,512	3,5	1005,42	7,6	9,7	9,3	1	1	1	1	1	1	1	1	1	0	1	-34,813249	274,870251	288,850466	0
14.01.2021	19:07:59	0	0	3,841201	5,57025	99,8712	0,973	77,511	3,5	1005,28	7,5	9,5	9,3	1	1	1	1	1	1	1	1	1	0	1	-36,645525	274,965219	287,465729	0
14.01.2021	19:08:00	0	0	2,824412	5,337	94,7556	0,976	77,545	3,5	1005,38	7,6	9,5	9,3	1	1	1	1	1	1	1	1	1	0	1	-37,77308	275,012097	286,559255	0
14.01.2021	19:08:01	0	0	2,824412	5,337	94,7556	0,976	77,545	3,5	1005,38	7,6	9,5	9,3	1	1	1	1	1	1	1	1	1	0	1	-37,77308	275,012097	286,559255	0
14.01.2021	19:08:02	0	0	3,389315	5,223	94,0788	0,967	77,544	3,5	1005,3	7,5	9,5	9,2	1	1	1	1	1	1	1	1	1	0	1	-36,15222	274,874911	287,533443	0
14.01.2021	19:08:03	0	0	3,954177	5,253	93,7872	0,974	77,563	3,5	1005,2	7,5	9,5	9,3	1	1	1	1	1	1	1	1	1	0	1	-36,715997	274,842316	286,816163	0
14.01.2021	19:08:04	0	0	4,406083	5,0205	92,2464	0,977	77,588	3,5	1005,44	7,6	9,5	9,3	1	1	1	1	1	1	1	1	1	0	1	-39,393939	274,987081	284,820405	0
14.01.2021	19:08:05	0	0	3,841201	4,719	103,662	0,977	77,578	3,5	1005,26	7,6	9,5	9,3	1	1	1	1	1	1	1	1	1	0	1	-38,75969	274,887342	284,984532	0
14.01.2021	19:08:06	0	0	2,598475	5,004	88,5528	0,977	77,584	3,5	1005,36	7,5	9,4	9,2	1	1	1	1	1	1	1	1	1	0	1	-32,417195	274,811325	290,969063	0
14.01.2021	19:08:07	0	0	4,406083	5,00925	102,9384	0,981	77,586	3,5	1005,3	7,6	9,5	9,3	1	1	1	1	1	1	1	1	1	0	1	-33,756166	274,960538	290,333016	0
14.01.2021	19:08:08	0	0	3,95413	5,034	95,5188	0,974	77,589	3,5	1005,36	7,5	9,5	9,5	1	1	1	1	1	1	1	1	1	0	1	-37,702607	274,885788	286,034292	0
14.01.2021	19:08:09	0	0	3,615248	5,022	105,876	0,978	77,57	3,5	1005,38	7,5	9,5	9,3	1	1	1	1	1	1	1	1	1	0	1	-36,645525	274,820617	286,784474	0
14.01.2021	19:08:10	0	0	3,615248	5,04	111,0276	0,978	77,568	3,5	1005,28	7,6	9,5	9,3	1	1	1	1	1	1	1	1	1	0	1	-36,011276	274,826814	287,447898	0
14.01.2021	19:08:11	0	0	3,954177	5,10975	126,5688	0,977	77,564	3,5	1005,36	7,6	9,5	9,3	1	1	1	1	1	1	1	1	1	0	1	-30,162086	274,957418	293,912384	0
14.01.2021	19:08:12	0	0	4,293107	4,9965	110,3508	0,976	77,551	3,5	1005,5	7,6	9,7	9,3	1	1	1	1	1	1	1	1	1	0	1	-32,135307	274,817519	291,280109	0
14.01.2021	19:08:13	0	0	3,615248	5,44125	111,4056	0,975	77,543	3,5	1005,24	7,5	9,5	9,3	1	1	1	1	1	1	1	1	1	0	1	-30,514447	274,969902	293,618886	0
14.01.2021	19:08:14	0	0	2,372506	5,706	111,0528	0,98	77,534	3,5	1005,32	7,5	9,5	9,3	1	1	1	1	1	1	1	1	1	0	1	-30,021142	274,836114	293,481816	0
14.01.2021	19:08:15	0	0	3,502271	6,6885	110,682	0,972	77,524	3,5	1005,26	7,6	9,5	9,3	1	1	1	1	1	1	1	1	1	0	1	-39,675828	274,853175	283,907465	0
14.01.2021	19:08:16	0	0	2,25953	6,57525	104,742	0,976	77,545	3,5	1005,46	7,5	9,5	9,3	1	1	1	1	1	1	1	1	1	0	1	-32,699084	274,935589	291,272487	0
14.01.2021	19:08:17	0	0	2,598459	6,4215	104,7204	0,977	77,535	3,5	1005,38	7,5	9,5	9,3	1	1	1	1	1	1	1	1	1	0	1	-35,870331	274,837664	287,639926	0
14.01.2021	19:08:18	0	0	3,050365	6,048	105,8724	0,98	77,532	3,5	1005,3	7,5	9,5	9,3	1	1	1	1	1	1	1	1	1	0	1	-35,377026	274,881125	288,33791	0
14.01.2021	19:08:19	0	0	4,51906	5,6895	102,1572	0,971	77,513	3,5	1005,32	7,6	9,5	9,3	1	1	1	1	1	1	1	1	1	0	1	-34,390416	274,865592	289,251357	0
14.01.2021	19:08:20	0	0	2,146553	5,775	105,1236	0,978	77,512	3,5	1005,38	7,5	9,5	9,3	1	1	1	1	1	1	1	1	1	0	1	-33,756166	274,811325	289,630092	0
14.01.2021	19:08:21	0	0	4,745013	5,68575	105,1056	0,976	77,506	3,5	1005,26	7,6	9,5	9,3	1	1	1	1	1	1	1	1	1	0	1	-34,672304	274,859383	288,940223	0
14.01.2021	19:08:22	0	0	4,857989	5,544	105,9516	0,973	77,501	3,5	1005,26	7,6	9,5	9,3	1	1	1	1	1	1	1	1	1	0	1	-33,192389	274,9465	290,830614	0
14.01.2021	19:08:23	0	0	3,276318	5,688	110,3796	0,972	77,503	3,5	1005,18	7,6	9,5	9,3	1	1	1	1	1	1	1	1	1	0	1	-39,957717	274,828364	283,508753	0
14.01.2021	19:08:24	0	0	2,711403	5,613	99,9108	0,977	77,502	3,5	1005,46	7,5	9,5	9,5	1	1	1	1	1	1	1	1	1	0	1	-34,742777	274,941823	289,25818	0
14.01.2021	19:08:25	0	0	3,728224	5,4585	100,3752	0,984	77,514	3,5	1005,3	7,5	9,3	9,3	1	1	1	1	1	1	1	1	1	0	1	-37,561663	275,007404	286,748534	0
14.01.2021	19:08:26	0	0	2,598475	5,44125	105,5448	0,974	77,51	3,5	1005,34	7,6	9,7	9,2	1	1	1	1	1	1	1	1	1	0	1	-31,642001	274,873357	292,036344	0
14.01.2021	19:08:27	0	0	2,824412	5,5965	99,522	0,972	77,494	3,5	1005,36	7,6	9,5	9,3	1	1	1	1	1	1	1	1	1	0	1	-36,927414	274,899781	286,875413	0
14.01.2021	19:08:28	0	0	2,146553	5,71875	105,8796	0,973	77,503	3,5	1005,36	7,5	9,5	9,3	1	1	1	1	1	1	1	1	1	0	1	-31,92389	274,998022	292,342052	0
14.01.2021	19:08:29	0	0	4,74507	5,6055	97,2972	0,979	77,503	3,5	1005,28	7,5	9,7	9,1	1	1	1	1	1	1	1	1	1	0	1	-35,51797	275,001149	288,762721	0
14.01.2021	19:08:30	0	0	4,745013	5,49375	102,5496	0,977	77,509	3,5	1005,5	7,5	9,5	9,3	1	1	1	1	1	1	1	1	1	0	1	-33,826638	274,893561	289,94688	0
14.01.2021	19:08:31	0	0	4,745013	4,81425	102,9528	0,98	77,491	3,5	1005,34	7,6	9,5	9,3	1	1	1	1	1	1	1	1	1	0	1	-32,769556	274,996458	291,489013	0
14.01.2021	19:08:32	0	0	4,293107	4,71825	94,0896	0,979	77,505	3,5	1005,24	7,5	9,5	9,3	1	1	1	1	1	1	1	1	1	0	1	-39,675828	274,958978	284,405998	0
14.01.2021	19:08:33	0	0	3,389295	4,743	96,5664	0,983	77,494	3,5	1005,2	7,5	9,5	9,3	1	1	1	1	1	1	1	1	1	0	1	-31,078224	274,958978	293,003602	0
14.01.2021	19:08:34	0	0	3,841201	4,6125	95,1228	0,974	77,491	3,5	1005,38	7,6	9,5	9,3	1	1	1	1	1	1	1	1	1	0	1	-37,843552	275,007404	286,466646	0
14.01.2021	19:08:35	0	0	3,615205	4,17	99,522	0,982	77,502	3,5	1005,2	7,5	9,5	9,5	1	1	1	1	1	1	1	1	1	0	1	-35,870331	274,868698	287,786069	0
14.01.2021	19:08:36	0	0	2,937389	4,30875	111,4596	0,978	77,493	3,5	1005,08	7,5	9,5	9,3	1	1	1	1	1	1	1	1	1	0	1	-32,417195	274,839215	291,100362	0
14.01.2021	19:08:37	0	0	4,40611	4,55475	126,9864	0,982	77,492	3,5	1005,38	7,5	9,7	9,2	1	1	1	1	1	1	1	1	1	0	1	-33,121917	274,983957	291,077692	0
14.01.2021	19:08:38	0	0	3,276358	4,89375	124,3008	0,974	77,483	3,5	1005,32	7,5	9,5	9,1	1	1	1	1	1	1	1	1	1	0	1	-34,601832	274,901337	289,208324	0
14.01.2021	19:08:39	0	0	2,485483	4,86225	82,5912	0,975	77,488	3,5	1005,34	7,5	9,5	9,3	1	1	1	1	1	1	1	1	1	0	1	-32,699084	275,004276	291,596359	0
14.01.2021	19:08:40	0	0	2,937336	5,0265	113,3892	0,981	77,478	3,5	1005,46	7,5	9,3	9,6	1	1	1	1	1	1	1	1	1	0	1	-34,108527	274,854727	289,482073	0
14.01.2021	19:08:41	0	0	4,18008	5,328	118,3068	0,975	77,467	3,5	1005,26	7,6	9,5	9,5	1	1	1	1	1	1	1	1	1	0	1	-34,460888	274,890451	289,297981	0
14.01.2021	19:08:42	0	0	3,050384	5,16825	129,4488	0,985	77,473	3,5	1005,48	7,5	9,5	9,2	1	1	1	1	1	1	1	1	1	0	1	-35,024665	275,010532	289,30029	0
14.01.2021	19:08:43	0	0	4,745013	4,8915	133,8552	0,981	77,463	3,5	1005,24	7,5	9,7	9,3	1	1	1	1	1	1	1	1	1	0	1	-38,407329	274,896671	285,380842	0
14.01.2021	19:08:44	0	0	4,406083	4,48425	111,8196	0,976	77,473	3,5	1005,32	7,5	9,5	9,3	1	1	1	1	1	1	1	1	1	0	1	-40,310078	275,004276	283,985365	0
14.01.2021	19:08:45	0	0	4,745013	5,77425	121,6368	0,983	77,453	3,5	1005,4	7,6	9,5	9,3	1	1	1	1	1	1	1	1	1	0	1	-36,575053	274,996458	287,683516	0
14.01.2021	19:08:46	0	0	3,728224	6,24825	114,0948	0,989	77,447	3,5	1005,32	7,5	9,5	9,3	1	1	1	1	1	1	1	1	1	0	1	-36,575053	274,850072	286,993627	0
14.01.2021	19:08:47	0	0	4,067178	5,9055	115,92	0,981	77,441	3,5	1005,38	7,5	9,5	9,2	1	1	1	1	1	1	1	1	1	0	1	-37,13883	274,994895	287,112366	0
14.01.2021	19:08:48	0	0	3,954177	6,00975	96,9732	0,99	77,433	3,5	1005,4	7,5	9,7	9,3	1	1	1	1	1	1	1	1	1	0	1	-35,51797	274,994895	288,733226	0
14.01.2021	19:08:49	0	0	3,954177	5,7885	107,424	0,973	77,423	3,5	1005,36	7,6	9,5	9,3	1	1	1	1	1	1	1	1	1	0	1	-32,9105	275,027748	291,495672	0
14.01.2021	19:08:50	0	0	4,293107	4,7925	85,8816	0,985	77,43	3,5	1005,36	7,6	9,5	9,3	1	1	1	1	1	1	1	1	1	0	1	-36,997886	274,910672	286,856258	0
14.01.2021	19:08:51	0	0	4,406083	4,65225	86,6592	0,984	77,395	3,5	1005,32	7,6	9,5	9,3	1	1	1	1	1	1	1	1	1	0	1	-35,729387	274,999585	288,54393	0
14.01.2021	19:08:52	0	0	2,598459	4,8195	92,7108	0,982	77,407	3,5	1005,34	7,5	9,5	9,3	1	1	1	1	1	1	1	1	1	0	1	-30,93728	274,873357	292,741066	0
14.01.2021	19:08:53	0	0	3,502271	4,7925	99,5076	0,987	77,401	3,5	1005,46	7,5	9,5	9,3	1	1	1	1	1	1	1	1	1	0	1	-34,390416	274,887342	289,353806	0
14.01.2021	19:08:54	0	0	4,18013	4,62	94,3812	0,985	77,388	3,5	1005,34	7,5	9,5	9,3	1	1	1	1	1	1	1	1	1	0	1	-33,967583	275,00584	290,335237	0
14.01.2021	19:08:55	0	0	5,196919	4,878	94,0788	0,987	77,381	3,5	1005,26	7,5	9,5	9,3	1	1	1	1	1	1	1	1	1	0	1	-35,51797	274,874911	288,167692	0
14.01.2021	19:08:56	0	0	2,598459	4,881	97,704	0,984	77,37	3,5	1005,46	7,6	9,5	9,3	1	1	1	1	1	1	1	1	1	0	1	-32,276251	274,958978	291,805575	0
14.01.2021	19:08:57	0	0	3,728224	4,8615	94,1076	0,985	77,36	3,5	1005,26	7,6	9,5	9,3	1	1	1	1	1	1	1	1	1	0	1	-34,249471	275,023051	290,134542	0
14.01.2021	19:08:58	0	0	4,18013	4,8705	104,8248	0,984	77,369	3,5	1005,42	7,5	9,5	9,3	1	1	1	1	1	1	1	1	1	0	1	-34,178999	274,96678	289,939614	0
14.01.2021	19:08:59	0	0	2,372521	4,62225	101,0988	0,988	77,373	3,5	1005,3	7,6	9,5	9,2	1	1	1	1	1	1	1	1	1	0	1	-34,108527	275,013661	290,231188	0
14.01.2021	19:09:00	0	0	3,502271	4,28775	91,5084	0,988	77,358	3,5	1005,34	7,5	9,5	9,3	1	1	1	1	1	1	1	1	1	0	1	-34,672304	274,878018	289,027994	0
14.01.2021	19:09:01	0	0	3,502271	4,28775	91,5084	0,988	77,358	3,5	1005,34	7,5	9,5	9,3	1	1	1	1	1	1	1	1	1	0	1	-34,672304	274,878018	289,027994	0
14.01.2021	19:09:02	0	0	2,372506	4,01175	86,9688	0,985	77,347	3,5	1005,38	7,5	9,5	9,3	1	1	1	1	1	1	1	1	1	0	1	-33,262861	274,988644	290,958852	0
14.01.2021	19:09:03	0	0	3,502271	3,91725	88,5672	0,986	77,347	3,5	1005,32	7,5	9,5	9,3	1	1	1	1	1	1	1	1	1	0	1	-34,460888	274,898226	289,334611	0
14.01.2021	19:09:04	0	0	4,293107	3,912	104,0544	0,987	77,352	3,5	1005,3	7,6	9,5	9,3	1	1	1	1	1	1	1	1	1	0	1	-30,584919	274,851623	292,991067	0
14.01.2021	19:09:05	0	0	2,485483	4,0695	97,3296	0,991	77,351	3,5	1005,6	7,5	9,5	9,3	1	1	1	1	1	1	1	1	1	0	1	-35,377026	275,012097	288,955309	0
14.01.2021	19:09:06	0	0	4,293107	3,993	96,21	0,988	77,343	3,5	1005,36	7,6	9,5	9,3	1	1	1	1	1	1	1	1	1	0	1	-35,588443	274,912229	288,273035	0
14.01.2021	19:09:07	0	0	3,389295	3,82275	92,2644	0,988	77,354	3,5	1005,48	7,5	9,5	9,3	1	1	1	1	1	1	1	1	1	0	1	-35,095137	275,013661	289,244578	0
14.01.2021	19:09:08	0	0	3,615248	3,7155	93,7224	0,983	77,351	3,5	1005,4	7,5	9,5	9,3	1	1	1	1	1	1	1	1	1	0	1	-32,699084	274,865592	290,942689	0
14.01.2021	19:09:09	0	0	4,406083	3,6225	91,1448	0,987	77,354	3,5	1005,42	7,6	9,5	9,3	1	1	1	1	1	1	1	1	1	0	1	-30,30303	274,990207	293,926053	0
14.01.2021	19:09:10	0	0	4,745013	3,65475	100,7424	0,992	77,329	3,5	1005,28	7,5	9,5	9,3	1	1	1	1	1	1	1	1	1	0	1	-36,222692	275,00584	288,080128	0
14.01.2021	19:09:11	0	0	4,51906	3,6735	88,5852	0,989	77,358	3,5	1005,42	7,6	9,5	9,3	1	1	1	1	1	1	1	1	1	0	1	-36,293164	274,887342	287,451058	0
14.01.2021	19:09:12	0	0	3,389295	3,79425	93,3156	0,984	77,34	3,5	1005,22	7,6	9,5	9,3	1	1	1	1	1	1	1	1	1	0	1	-34,672304	274,991769	289,564149	0
14.01.2021	19:09:13	0	0	3,163342	3,86475	81,5976	0,985	77,336	3,5	1005,38	7,5	9,5	9,3	1	1	1	1	1	1	1	1	1	0	1	-31,219168	274,867145	292,429917	0
14.01.2021	19:09:14	0	0	3,050365	3,7365	89,676	0,988	77,335	3,5	1005,58	7,6	9,5	9,3	1	1	1	1	1	1	1	1	1	0	1	-31,642001	274,963659	292,461895	0
14.01.2021	19:09:15	0	0	4,293107	3,79125	86,2272	0,989	77,328	3,5	1005,36	7,5	9,5	9,3	1	1	1	1	1	1	1	1	1	0	1	-32,980973	275,016791	291,373506	0
14.01.2021	19:09:16	0	0	4,51906	3,95325	86,2812	0,989	77,338	3,5	1005,48	7,5	9,5	9,3	1	1	1	1	1	1	1	1	1	0	1	-34,813249	274,96678	289,305364	0
14.01.2021	19:09:17	0	0	2,711436	4,01775	88,5348	0,991	77,316	3,5	1005,4	7,5	9,5	9,3	1	1	1	1	1	1	1	1	1	0	1	-32,628612	274,932473	291,328271	0
14.01.2021	19:09:18	0	0	4,632036	4,2015	84,0348	0,99	77,319	3,5	1005,22	7,6	9,5	9,3	1	1	1	1	1	1	1	1	1	0	1	-31,853418	275,008968	292,464158	0
14.01.2021	19:09:19	0	0	4,51906	4,26075	92,2572	0,985	77,304	3,5	1005,1	7,5	9,5	9,3	1	1	1	1	1	1	1	1	1	0	1	-34,319944	274,996458	289,938626	0
14.01.2021	19:09:20	0	0	2,598459	3,99975	83,8116	0,99	77,315	3,5	1005,3	7,5	9,5	9,3	1	1	1	1	1	1	1	1	1	0	1	-34,178999	274,836114	289,323958	0
14.01.2021	19:09:21	0	0	4,18013	3,82425	74,1924	0,991	77,299	3,5	1005,48	7,5	9,5	9,3	1	1	1	1	1	1	1	1	1	0	1	-33,967583	275,008968	290,349993	0
14.01.2021	19:09:22	0	0	3,954177	3,98775	74,5056	0,988	77,298	3,5	1005,22	7,6	9,5	9,3	1	1	1	1	1	1	1	1	1	0	1	-32,205779	274,96678	291,912834	0
14.01.2021	19:09:23	0	0	3,954177	4,19625	74,916	0,992	77,294	3,5	1005,36	7,6	9,5	9,3	1	1	1	1	1	1	1	1	1	0	1	-33,826638	274,843867	289,712824	0
14.01.2021	19:09:24	0	0	4,293107	4,31175	67,9932	0,99	77,299	3,5	1005,32	7,5	9,5	9,3	1	1	1	1	1	1	1	1	1	0	1	-39,041579	274,862487	284,58557	0
14.01.2021	19:09:25	0	0	3,276318	4,4505	67,6692	0,989	77,283	3,5	1005,3	7,5	9,5	9,3	1	1	1	1	1	1	1	1	1	0	1	-37,209302	274,955858	286,857814	0
14.01.2021	19:09:26	0	0	4,293107	4,54425	89,3304	0,988	77,274	3,5	1005,36	7,5	9,5	9,3	1	1	1	1	1	1	1	1	1	0	1	-31,92389	274,991769	292,312564	0
14.01.2021	19:09:27	0	0	3,615248	4,43325	89,3412	0,987	77,276	3,5	1005,36	7,5	9,5	9,3	1	1	1	1	1	1	1	1	1	0	1	-35,729387	274,918455	288,161433	0
14.01.2021	19:09:28	0	0	4,51906	4,54875	95,886	0,987	77,258	3,5	1005,36	7,5	9,5	9,3	1	1	1	1	1	1	1	1	1	0	1	-31,994362	274,998022	292,27158	0
14.01.2021	19:09:29	0	0	3,163342	4,58475	90,018	0,991	77,263	3,5	1005,48	7,6	9,5	9,3	1	1	1	1	1	1	1	1	1	0	1	-35,940803	274,996458	288,317766	0
14.01.2021	19:09:30	0	0	4,745013	5,328	95,1372	0,991	77,261	3,5	1005,38	7,6	9,5	9,3	1	1	1	1	1	1	1	1	1	0	1	-35,306554	274,870251	288,35716	0
14.01.2021	19:09:31	0	0	3,954177	5,57025	81,972	0,987	77,236	3,5	1005,34	7,5	9,5	9,3	1	1	1	1	1	1	1	1	1	0	1	-33,403805	274,834564	290,091853	0
14.01.2021	19:09:32	0	0	4,293107	5,31975	75,978	0,987	77,243	3,5	1005,4	7,6	9,5	9,3	1	1	1	1	1	1	1	1	1	0	1	-30,232558	274,829914	293,241207	0
14.01.2021	19:09:33	0	0	3,615248	5,30775	79,4016	0,993	77,239	3,5	1005,3	7,6	9,5	9,3	1	1	1	1	1	1	1	1	1	0	1	-38,336857	274,96678	285,781756	0
14.01.2021	19:09:34	0	0	2,711436	5,442	87,372	0,987	77,245	3,5	1005,32	7,6	9,5	9,3	1	1	1	1	1	1	1	1	1	0	1	-32,276251	274,934031	291,687976	0
14.01.2021	19:09:35	0	0	4,745013	5,4225	76,9284	0,993	77,251	3,5	1005,52	7,6	9,5	9,3	1	1	1	1	1	1	1	1	1	0	1	-35,306554	274,828364	288,159915	0
14.01.2021	19:09:36	0	0	3,502271	5,40375	93,3372	0,99	77,249	3,5	1005,36	7,6	9,5	9,3	1	1	1	1	1	1	1	1	1	0	1	-37,984496	274,823715	285,460089	0
14.01.2021	19:09:37	0	0	4,067154	5,21625	93,7296	0,989	77,258	3,5	1005,26	7,6	9,5	9,3	1	1	1	1	1	1	1	1	1	0	1	-31,501057	274,968341	292,624916	0
14.01.2021	19:09:38	0	0	2,372506	5,00475	89,3448	0,992	77,253	3,5	1005,34	7,6	9,5	9,3	1	1	1	1	1	1	1	1	1	0	1	-29,034531	275,00584	295,268289	0
14.01.2021	19:09:39	0	0	2,937389	4,79325	93,3588	0,989	77,252	3,5	1005,34	7,5	9,5	9,3	1	1	1	1	1	1	1	1	1	0	1	-33,826638	274,822166	289,610653	0
14.01.2021	19:09:40	0	0	2,598459	4,8225	74,178	0,991	77,262	3,5	1005,36	7,5	9,5	9,3	1	1	1	1	1	1	1	1	1	0	1	-32,276251	274,899781	291,526576	0
14.01.2021	19:09:41	0	0	2,824412	4,70325	83,3652	0,992	77,274	3,5	1005,44	7,5	9,5	9,3	1	1	1	1	1	1	1	1	1	0	1	-36,715997	274,998022	287,549945	0
14.01.2021	19:09:42	0	0	2,824412	4,815	101,5128	0,988	77,27	3,5	1005,26	7,5	9,5	9,3	1	1	1	1	1	1	1	1	1	0	1	-32,487667	274,846969	291,066403	0
14.01.2021	19:09:43	0	0	3,841201	4,76925	83,3328	0,989	77,257	3,5	1005,4	7,6	9,5	9,3	1	1	1	1	1	1	1	1	1	0	1	-35,658915	274,951178	288,386142	0
14.01.2021	19:09:44	0	0	4,293107	5,10825	94,77	0,985	77,272	3,5	1005,36	7,5	9,5	9,3	1	1	1	1	1	1	1	1	1	0	1	-28,32981	274,826814	295,129364	0
14.01.2021	19:09:45	0	0	4,406083	5,14125	98,064	0,992	77,279	3,5	1005,36	7,5	9,5	9,3	1	1	1	1	1	1	1	1	1	0	1	-34,178999	274,951178	289,866057	0
14.01.2021	19:09:46	0	0	4,067154	4,809	91,1376	0,991	77,278	3,5	1005,44	7,6	9,5	9,3	1	1	1	1	1	1	1	1	1	0	1	-33,54475	274,991769	290,691704	0
14.01.2021	19:09:47	0	0	3,728224	4,8585	98,064	0,992	77,296	3,5	1005,24	7,6	9,5	9,3	1	1	1	1	1	1	1	1	1	0	1	-34,038055	274,828364	289,428414	0
14.01.2021	19:09:48	0	0	4,632036	4,6245	98,7588	0,981	77,272	3,5	1005,28	7,5	9,5	9,3	1	1	1	1	1	1	1	1	1	0	1	-35,729387	274,949619	288,308318	0
14.01.2021	19:09:49	0	0	3,276318	4,4925	95,6304	0,981	77,294	3,5	1005,42	7,6	9,5	9,3	1	1	1	1	1	1	1	1	1	0	1	-32,276251	275,021486	292,100378	0
14.01.2021	19:09:50	0	0	3,276318	4,31925	80,874	0,991	77,294	3,5	1005,34	7,5	9,5	9,3	1	1	1	1	1	1	1	1	1	0	1	-33,262861	274,859383	290,349666	0
14.01.2021	19:09:51	0	0	4,857989	4,305	93,3228	0,986	77,293	3,5	1005,3	7,6	9,5	9,3	1	1	1	1	1	1	1	1	1	0	1	-36,293164	274,90756	287,546314	0
14.01.2021	19:09:52	0	0	2,824412	4,113	88,956	0,987	77,28	3,5	1005,32	7,5	9,5	9,3	1	1	1	1	1	1	1	1	1	0	1	-33,756166	274,843867	289,783296	0
14.01.2021	19:09:53	0	0	4,18013	3,8175	105,1272	0,987	77,287	3,5	1005,28	7,6	9,5	9,3	1	1	1	1	1	1	1	1	1	0	1	-34,742777	274,881125	288,97216	0
14.01.2021	19:09:54	0	0	3,728224	3,942	106,2972	0,991	77,279	3,5	1005,34	7,6	9,5	9,3	1	1	1	1	1	1	1	1	1	0	1	-35,51797	274,833013	287,970389	0
14.01.2021	19:09:55	0	0	4,067154	4,43475	93,6972	0,992	77,287	3,5	1005,46	7,6	9,5	9,3	1	1	1	1	1	1	1	1	1	0	1	-30,443975	274,971463	293,69672	0
14.01.2021	19:09:56	0	0	3,728224	4,99425	99,522	0,982	77,29	3,5	1005,26	7,5	9,5	9,3	1	1	1	1	1	1	1	1	1	0	1	-31,007752	274,968341	293,118221	0
14.01.2021	19:09:57	0	0	3,050365	5,23425	93,3264	0,991	77,274	3,5	1005,24	7,5	9,5	9,3	1	1	1	1	1	1	1	1	1	0	1	-39,393939	275,008968	284,923636	0
14.01.2021	19:09:58	0	0	3,163342	5,0985	92,6244	0,993	77,287	3,5	1005,2	7,5	9,4	9,3	1	1	1	1	1	1	1	1	1	0	1	-31,92389	274,868698	291,73251	0
14.01.2021	19:09:59	0	0	4,970966	5,052	95,1228	0,995	77,304	3,5	1005,34	7,5	9,5	9,3	1	1	1	1	1	1	1	1	1	0	1	-32,840028	274,898226	290,955471	0
14.01.2021	19:10:00	0	0	3,841201	5,205	101,7504	0,986	77,307	3,5	1005,28	7,6	9,5	9,3	1	1	1	1	1	1	1	1	1	0	1	-33,615222	274,976147	290,54756	0
14.01.2021	19:10:01	0	0	2,485483	5,31825	99,918	0,994	77,301	3,5	1005,28	7,5	9,5	9,3	1	1	1	1	1	1	1	1	1	0	1	-33,615222	274,976147	290,54756	0
14.01.2021	19:10:02	0	0	2,485483	5,31825	99,918	0,994	77,301	3,5	1005,28	7,5	9,5	9,3	1	1	1	1	1	1	1	1	1	0	1	-38,12544	274,876464	285,567539	0
14.01.2021	19:10:03	0	0	4,632036	5,22525	96,9588	0,989	77,311	3,5	1005,3	7,6	9,5	9,3	1	1	1	1	1	1	1	1	1	0	1	-32,346723	274,856278	291,251186	0
14.01.2021	19:10:04	0	0	3,163342	5,145	97,3224	0,988	77,31	3,5	1005,36	7,5	9,5	9,3	1	1	1	1	1	1	1	1	1	0	1	-34,178999	274,932473	289,777884	0
14.01.2021	19:10:05	0	0	4,632036	5,0475	88,9416	0,986	77,315	3,5	1005,34	7,6	9,5	9,3	1	1	1	1	1	1	1	1	1	0	1	-35,236082	274,998022	289,029861	0
14.01.2021	19:10:06	0	0	4,293107	5,09475	84,8124	0,993	77,312	3,5	1005,3	7,5	9,5	9,3	1	1	1	1	1	1	1	1	1	0	1	-36,856942	274,944941	287,158712	0
14.01.2021	19:10:07	0	0	3,050365	5,05875	77,9436	0,993	77,317	3,5	1005,34	7,5	9,5	9,3	1	1	1	1	1	1	1	1	1	0	1	-33,685694	274,892006	290,080499	0
14.01.2021	19:10:08	0	0	2,824412	4,8525	77,1768	0,989	77,322	3,5	1005,26	7,6	9,5	9,3	1	1	1	1	1	1	1	1	1	0	1	-31,782946	275,03088	292,638003	0
14.01.2021	19:10:09	0	0	4,067154	4,90725	90,7308	0,991	77,312	3,5	1005,4	7,6	9,5	9,3	1	1	1	1	1	1	1	1	1	0	1	-34,672304	274,996458	289,586265	0
14.01.2021	19:10:10	0	0	3,954177	5,02125	93,726	0,991	77,32	3,5	1005,42	7,6	9,5	9,3	1	1	1	1	1	1	1	1	1	0	1	-32,699084	274,980833	291,485792	0
14.01.2021	19:10:11	0	0	4,40611	4,89525	80,9064	0,99	77,311	3,5	1005,26	7,6	9,5	9,2	1	1	1	1	1	1	1	1	1	0	1	-36,715997	274,871804	286,955033	0
14.01.2021	19:10:12	0	0	4,632036	4,8975	80,5176	0,986	77,302	3,5	1005,32	7,5	9,5	9,3	1	1	1	1	1	1	1	1	1	0	1	-32,980973	274,910672	290,873171	0
14.01.2021	19:10:13	0	0	4,067154	4,91475	80,1324	0,991	77,307	3,5	1005,58	7,5	9,5	9,3	1	1	1	1	1	1	1	1	1	0	1	-35,024665	274,853175	288,558628	0
14.01.2021	19:10:14	0	0	2,711436	4,46175	87,3252	0,989	77,301	3,5	1005,18	7,5	9,5	9,3	1	1	1	1	1	1	1	1	1	0	1	-37,561663	274,909116	286,285148	0
14.01.2021	19:10:15	0	0	4,970966	4,434	92,952	0,993	77,286	3,5	1005,38	7,6	9,5	9,3	1	1	1	1	1	1	1	1	1	0	1	-33,474278	274,985519	290,732699	0
14.01.2021	19:10:16	0	0	2,937389	4,7595	98,0532	0,992	77,282	3,5	1005,42	7,5	9,5	9,3	1	1	1	1	1	1	1	1	1	0	1	-34,038055	274,842316	289,494105	0
14.01.2021	19:10:17	0	0	2,937389	4,86825	100,3068	0,994	77,265	3,5	1005,26	7,5	9,5	9,3	1	1	1	1	1	1	1	1	1	0	1	-36,15222	274,957418	287,922251	0
14.01.2021	19:10:18	0	0	3,502271	5,007	100,458	0,998	77,256	3,5	1005,42	7,5	9,5	9,3	1	1	1	1	1	1	1	1	1	0	1	-36,293164	274,868698	287,363236	0
14.01.2021	19:10:19	0	0	4,632036	5,20125	97,3008	0,998	77,247	3,5	1005,28	7,6	9,5	9,3	1	1	1	1	1	1	1	1	1	0	1	-37,632135	275,037145	286,818375	0
14.01.2021	19:10:20	0	0	3,502271	5,09175	101,8116	0,993	77,252	3,5	1005,38	7,5	9,5	9,3	1	1	1	1	1	1	1	1	1	0	1	-34,390416	274,899781	289,412411	0
14.01.2021	19:10:21	0	0	4,632036	4,9695	100,3644	0,991	77,241	3,5	1005,34	7,5	9,5	9,3	1	1	1	1	1	1	1	1	1	0	1	-30,796335	274,983957	293,403273	0
14.01.2021	19:10:22	0	0	4,51906	4,97325	97,668	0,988	77,238	3,5	1005,34	7,6	9,5	9,3	1	1	1	1	1	1	1	1	1	0	1	-36,997886	275,034012	287,437842	0
14.01.2021	19:10:23	0	0	4,632036	5,01	97,6932	0,998	77,229	3,5	1005,42	7,5	9,5	9,3	1	1	1	1	1	1	1	1	1	0	1	-33,685694	274,902892	290,131791	0
14.01.2021	19:10:24	0	0	3,050365	5,16075	104,0364	0,993	77,219	3,5	1005,34	7,5	9,5	9,3	1	1	1	1	1	1	1	1	1	0	1	-35,51797	275,038711	288,939932	0
14.01.2021	19:10:25	0	0	2,711436	4,947	107,0784	0,999	77,211	3,5	1005,36	7,5	9,5	9,3	1	1	1	1	1	1	1	1	1	0	1	-35,588443	274,896671	288,199729	0
14.01.2021	19:10:26	0	0	3,502271	4,6905	108,6012	0,995	77,213	3,5	1005,38	7,5	9,5	9,3	1	1	1	1	1	1	1	1	1	0	1	-34,601832	274,965219	289,509422	0
14.01.2021	19:10:27	0	0	3,615248	4,674	111,798	0,992	77,212	3,5	1005,6	7,5	9,5	9,3	1	1	1	1	1	1	1	1	1	0	1	-30,725863	274,859383	292,886664	0
14.01.2021	19:10:28	0	0	4,857989	4,4655	116,6436	0,995	77,184	3,5	1005,38	7,5	9,5	9,3	1	1	1	1	1	1	1	1	1	0	1	-34,53136	274,954298	289,528402	0
14.01.2021	19:10:29	0	0	4,18013	4,4385	98,46	0,996	77,177	3,5	1005,48	7,5	9,5	9,3	1	1	1	1	1	1	1	1	1	0	1	-36,645525	274,874911	287,040137	0
14.01.2021	19:10:30	0	0	4,406083	4,5975	94,8672	0,995	77,168	3,5	1005,28	7,5	9,5	9,3	1	1	1	1	1	1	1	1	1	0	1	-31,219168	275,024617	293,172231	0
14.01.2021	19:10:31	0	0	3,954177	4,683	118,6884	0,998	77,163	3,5	1005,44	7,5	9,5	9,3	1	1	1	1	1	1	1	1	1	0	1	-33,474278	274,929357	290,46792	0
14.01.2021	19:10:32	0	0	4,067154	4,81425	121,986	0,988	77,16	3,5	1005,26	7,5	9,5	9,3	1	1	1	1	1	1	1	1	1	0	1	-31,92389	275,013661	292,415825	0
14.01.2021	19:10:33	0	0	2,937407	4,61625	106,2684	0,995	77,162	3,5	1005,44	7,6	9,5	9,2	1	1	1	1	1	1	1	1	1	0	1	-34,249471	275,046546	290,245402	0
14.01.2021	19:10:34	0	0	2,711436	4,59525	111,7764	0,996	77,157	3,5	1005,4	7,5	9,5	9,3	1	1	1	1	1	1	1	1	1	0	1	-35,377026	274,980833	288,80785	0
14.01.2021	19:10:35	0	0	4,406083	4,521	108,4968	0,996	77,143	3,5	1005,14	7,5	9,5	9,3	1	1	1	1	1	1	1	1	1	0	1	-34,460888	275,035578	289,982231	0
14.01.2021	19:10:36	0	0	2,824412	4,551	108,486	0,998	77,156	3,5	1005,26	7,6	9,5	9,3	1	1	1	1	1	1	1	1	1	0	1	-30,655391	274,882679	293,066866	0
14.01.2021	19:10:37	0	0	2,824412	4,572	101,196	0,996	77,146	3,5	1005,42	7,6	9,5	9,3	1	1	1	1	1	1	1	1	1	0	1	-31,92389	274,990207	292,305193	0
14.01.2021	19:10:38	0	0	4,406083	4,707	105,516	0,994	77,127	3,5	1005,32	7,6	9,5	9,3	1	1	1	1	1	1	1	1	1	0	1	-33,121917	274,856278	290,475992	0
14.01.2021	19:10:39	0	0	4,632036	4,968	110,3832	0,996	77,11	3,5	1005,28	7,5	9,5	9,3	1	1	1	1	1	1	1	1	1	0	1	-39,041579	274,993332	285,202246	0
14.01.2021	19:10:40	0	0	4,067154	5,00325	99,4968	0,992	77,116	3,5	1005,08	7,5	9,5	9,3	1	1	1	1	1	1	1	1	1	0	1	-33,967583	274,988644	290,254131	0
14.01.2021	19:10:41	0	0	2,711436	5,0895	104,4216	0,999	77,123	3,5	1005,32	7,5	9,5	9,3	1	1	1	1	1	1	1	1	1	0	1	-33,121917	274,845418	290,424849	0
14.01.2021	19:10:42	0	0	3,050365	5,09625	95,544	0,996	77,095	3,5	1005,36	7,5	9,5	9,3	1	1	1	1	1	1	1	1	1	0	1	-33,54475	274,988644	290,676964	0
14.01.2021	19:10:43	0	0	4,293107	5,6055	97,7292	0,997	77,074	3,5	1005,22	7,6	9,5	9,3	1	1	1	1	1	1	1	1	1	0	1	-31,289641	274,988644	292,932073	0
14.01.2021	19:10:44	0	0	4,067154	5,60025	95,1516	1	77,082	3,5	1005,28	7,6	9,5	9,3	1	1	1	1	1	1	1	1	1	0	1	-35,51797	274,865592	288,123802	0
14.01.2021	19:10:45	0	0	2,937389	5,0145	92,718	0,997	77,074	3,5	1005,4	7,6	9,5	9,3	1	1	1	1	1	1	1	1	1	0	1	-30,584919	274,958978	293,496907	0
14.01.2021	19:10:46	0	0	2,937389	4,85775	84,8196	0,994	77,07	3,5	1005,38	7,6	9,5	9,3	1	1	1	1	1	1	1	1	1	0	1	-33,54475	274,856278	290,053159	0
14.01.2021	19:10:47	0	0	2,824412	5,39475	80,892	0,997	77,069	3,5	1005,38	7,5	9,5	9,3	1	1	1	1	1	1	1	1	1	0	1	-28,259338	274,873357	295,419008	0
14.01.2021	19:10:48	0	0	4,632036	5,62725	65,9232	0,994	77,045	3,5	1005,2	7,5	9,5	9,3	1	1	1	1	1	1	1	1	1	0	1	-36,434109	274,973025	287,713947	0
14.01.2021	19:10:49	0	0	3,276318	5,80125	75,6036	1,002	77,054	3,5	1005,34	7,6	9,5	9,3	1	1	1	1	1	1	1	1	1	0	1	-30,373502	275,03088	294,047446	0
14.01.2021	19:10:50	0	0	4,406083	5,8035	82,3356	0,998	77,064	3,5	1005,54	7,5	9,5	9,3	1	1	1	1	1	1	1	1	1	0	1	-29,880197	275,002712	294,407869	0
14.01.2021	19:10:51	0	0	3,615248	5,511	83,7072	0,998	77,075	3,5	1005,32	7,6	9,5	9,3	1	1	1	1	1	1	1	1	1	0	1	-36,293164	275,035578	288,149954	0
14.01.2021	19:10:52	0	0	4,293107	5,28975	91,494	0,995	77,053	3,5	1005,14	7,5	9,5	9,3	1	1	1	1	1	1	1	1	1	0	1	-35,870331	274,84852	287,691043	0
14.01.2021	19:10:53	0	0	2,711436	5,27625	70,2216	0,998	77,069	3,5	1005,18	7,5	9,5	9,3	1	1	1	1	1	1	1	1	1	0	1	-35,447498	274,941823	288,553458	0
14.01.2021	19:10:54	0	0	3,615248	5,4345	72,7416	1,001	77,083	3,5	1005,44	7,5	9,5	9,3	1	1	1	1	1	1	1	1	1	0	1	-32,135307	274,85783	291,469911	0
14.01.2021	19:10:55	0	0	2,598459	5,7315	107,7408	0,997	77,078	3,5	1005,4	7,6	9,5	9,3	1	1	1	1	1	1	1	1	1	0	1	-38,336857	275,015226	286,01024	0
14.01.2021	19:10:56	0	0	4,406083	6,198	100,7424	1	77,101	3,5	1005,34	7,5	9,5	9,3	1	1	1	1	1	1	1	1	1	0	1	-32,699084	274,994895	291,552113	0
14.01.2021	19:10:57	0	0	3,502271	6,1485	94,3776	0,993	77,101	3,5	1005,24	7,5	9,5	9,3	1	1	1	1	1	1	1	1	1	0	1	-38,12544	275,035578	286,317678	0
14.01.2021	19:10:58	0	0	2,711436	5,63775	113,7132	1	77,098	3,5	1005,42	7,6	9,5	9,3	1	1	1	1	1	1	1	1	1	0	1	-31,92389	274,871804	291,74714	0
14.01.2021	19:10:59	0	0	3,389295	5,44725	118,3284	0,993	77,101	3,5	1005,32	7,5	9,5	9,3	1	1	1	1	1	1	1	1	1	0	1	-34,390416	274,969902	289,742917	0
14.01.2021	19:11:00	0	0	4,632036	5,6595	112,6584	0,995	77,102	3,5	1005,34	7,5	9,5	9,3	1	1	1	1	1	1	1	1	1	0	1	-33,474278	275,018356	290,887584	0
14.01.2021	19:11:01	0	0	4,632036	5,6595	112,6584	0,995	77,102	3,5	1005,34	7,5	9,5	9,3	1	1	1	1	1	1	1	1	1	0	1	-33,474278	275,018356	290,887584	0
14.01.2021	19:11:02	0	0	3,615248	5,83575	110,6784	0,996	77,108	3,5	1005,3	7,5	9,5	9,3	1	1	1	1	1	1	1	1	1	0	1	-35,940803	275,048113	288,561466	0
14.01.2021	19:11:03	0	0	3,954177	5,652	104,0616	0,997	77,109	3,5	1005,3	7,5	9,5	9,3	1	1	1	1	1	1	1	1	1	0	1	-28,541226	274,962098	295,555312	0
14.01.2021	19:11:04	0	0	3,728224	5,2815	102,96	0,993	77,122	3,5	1005,48	7,5	9,5	9,3	1	1	1	1	1	1	1	1	1	0	1	-34,601832	274,874911	289,08383	0
14.01.2021	19:11:05	0	0	3,502271	5,16525	104,7348	0,997	77,119	3,5	1005,2	7,6	9,5	9,3	1	1	1	1	1	1	1	1	1	0	1	-29,31642	275,03088	295,104529	0
14.01.2021	19:11:06	0	0	3,841224	5,24625	92,646	1	77,117	3,5	1005,34	7,5	9,5	9,2	1	1	1	1	1	1	1	1	1	0	1	-36,011276	275,016791	288,343203	0
14.01.2021	19:11:07	0	0	3,728224	5,38425	100,368	0,997	77,111	3,5	1005,4	7,5	9,5	9,3	1	1	1	1	1	1	1	1	1	0	1	-35,236082	274,993332	289,007743	0
14.01.2021	19:11:08	0	0	4,51906	5,4705	100,7532	0,999	77,097	3,5	1005,38	7,5	9,5	9,3	1	1	1	1	1	1	1	1	1	0	1	-31,782946	275,049681	292,726721	0
14.01.2021	19:11:09	0	0	4,745013	5,26725	106,2864	1	77,113	3,5	1005,36	7,5	9,5	9,3	1	1	1	1	1	1	1	1	1	0	1	-31,360113	274,987081	292,854232	0
14.01.2021	19:11:10	0	0	3,050365	4,944	98,4672	1,003	77,113	3,5	1005,16	7,5	9,5	9,3	1	1	1	1	1	1	1	1	1	0	1	-38,336857	275,049681	286,17281	0
14.01.2021	19:11:11	0	0	4,067154	4,7775	88,9668	0,997	77,11	3,5	1005,28	7,5	9,5	9,3	1	1	1	1	1	1	1	1	1	0	1	-30,373502	275,008968	293,944073	0
14.01.2021	19:11:12	0	0	4,857989	4,69575	84,4164	0,999	77,094	3,5	1005,38	7,5	9,5	9,3	1	1	1	1	1	1	1	1	1	0	1	-31,642001	274,927799	292,292854	0
14.01.2021	19:11:13	0	0	4,293107	4,4085	84,3984	1,001	77,087	3,5	1005,22	7,6	9,5	9,3	1	1	1	1	1	1	1	1	1	0	1	-33,756166	274,881125	289,95877	0
14.01.2021	19:11:14	0	0	4,293107	4,1805	87,7608	1,001	77,083	3,5	1005,3	7,6	9,5	9,3	1	1	1	1	1	1	1	1	1	0	1	-37,77308	274,927799	286,161776	0
14.01.2021	19:11:15	0	0	4,745013	4,03275	90,4104	1,003	77,079	3,5	1005,36	7,5	9,5	9,3	1	1	1	1	1	1	1	1	1	0	1	-33,967583	275,037145	290,482927	0
14.01.2021	19:11:16	0	0	2,711436	3,9165	99,8856	1,005	77,085	3,5	1005,32	7,5	9,5	9,3	1	1	1	1	1	1	1	1	1	0	1	-30,866808	274,906004	292,965339	0
14.01.2021	19:11:17	0	0	4,18013	3,72975	102,5712	1,002	77,075	3,5	1005,3	7,5	9,4	9,3	1	1	1	1	1	1	1	1	1	0	1	-31,712474	274,934031	292,251753	0
14.01.2021	19:11:18	0	0	2,372506	3,6195	98,1	0,997	77,078	3,5	1005,34	7,5	9,5	9,3	1	1	1	1	1	1	1	1	1	0	1	-36,645525	274,871804	287,025505	0
14.01.2021	19:11:19	0	0	2,937389	3,72825	105,1272	0,996	77,062	3,5	1005,38	7,5	9,5	9,3	1	1	1	1	1	1	1	1	1	0	1	-31,994362	274,899781	291,808465	0
14.01.2021	19:11:20	0	0	2,824412	3,8535	97,3296	0,999	77,049	3,5	1005,32	7,5	9,5	9,3	1	1	1	1	1	1	1	1	1	0	1	-34,954193	274,998022	289,311749	0
14.01.2021	19:11:21	0	0	3,615248	3,744	95,1444	1	77,047	3,5	1005,38	7,6	9,5	9,3	1	1	1	1	1	1	1	1	1	0	1	-36,434109	275,032446	287,994229	0
14.01.2021	19:11:22	0	0	3,050365	3,65475	107,7408	1,002	77,062	3,5	1005,34	7,5	9,5	9,3	1	1	1	1	1	1	1	1	1	0	1	-30,232558	274,909116	293,614253	0
14.01.2021	19:11:23	0	0	2,485483	3,72525	115,2144	1,004	77,052	3,5	1005,28	7,5	9,5	9,3	1	1	1	1	1	1	1	1	1	0	1	-31,571529	274,904448	292,253287	0
14.01.2021	19:11:24	0	0	2,598459	3,70125	104,4504	1,002	77,061	3,5	1005,48	7,6	9,5	9,3	1	1	1	1	1	1	1	1	1	0	1	-31,853418	274,868698	291,802982	0
14.01.2021	19:11:25	0	0	2,598459	3,789	105,2316	1,002	77,048	3,5	1005,42	7,6	9,5	9,3	1	1	1	1	1	1	1	1	1	0	1	-34,813249	274,887342	288,930973	0
14.01.2021	19:11:26	0	0	3,728224	3,88725	100,3608	0,995	77,045	3,5	1005,3	7,5	9,5	9,3	1	1	1	1	1	1	1	1	1	0	1	-36,997886	274,991769	287,238568	0
14.01.2021	19:11:27	0	0	3,502271	3,83325	104,7744	1,004	77,057	3,5	1005,38	7,5	9,5	9,3	1	1	1	1	1	1	1	1	1	0	1	-32,417195	274,878018	291,283103	0
14.01.2021	19:11:28	0	0	2,824412	3,86025	102,9312	0,993	77,03	3,5	1005,24	7,5	9,5	9,3	1	1	1	1	1	1	1	1	1	0	1	-32,840028	275,007404	291,470169	0
14.01.2021	19:11:29	0	0	3,841201	3,75975	88,9344	0,997	77,042	3,5	1005,32	7,5	9,5	9,3	1	1	1	1	1	1	1	1	1	0	1	-29,034531	274,993332	295,209293	0
14.01.2021	19:11:30	0	0	3,276318	3,5115	90,0288	1,011	77,04	3,5	1005,36	7,5	9,5	9,3	1	1	1	1	1	1	1	1	1	0	1	-30,30303	274,881125	293,411906	0
14.01.2021	19:11:31	0	0	2,711436	3,32325	91,89	1	77,044	3,5	1005,32	7,6	9,5	9,3	1	1	1	1	1	1	1	1	1	0	1	-35,799859	274,998022	288,466083	0
14.01.2021	19:11:32	0	0	4,18013	2,98725	97,344	0,995	77,03	3,5	1005,4	7,5	9,5	9,3	1	1	1	1	1	1	1	1	1	0	1	-33,685694	274,904448	290,139122	0
14.01.2021	19:11:33	0	0	4,970966	2,61525	88,1172	0,997	77,032	3,5	1005,18	7,5	9,5	9,3	1	1	1	1	1	1	1	1	1	0	1	-30,232558	274,929357	293,709639	0
14.01.2021	19:11:34	0	0	4,406083	2,466	108,8856	0,997	77,041	3,5	1005,26	7,5	9,5	9,3	1	1	1	1	1	1	1	1	1	0	1	-36,293164	275,038711	288,164738	0
14.01.2021	19:11:35	0	0	3,615248	2,41575	88,956	1,005	77,048	3,5	1005,34	7,5	9,5	9,3	1	1	1	1	1	1	1	1	1	0	1	-31,994362	274,890451	291,764507	0
14.01.2021	19:11:36	0	0	3,389295	2,38575	81,6804	0,998	77,043	3,5	1005,22	7,5	9,5	9,3	1	1	1	1	1	1	1	1	1	0	1	-30,091614	274,994895	294,159583	0
14.01.2021	19:11:37	0	0	2,372506	2,49825	88,9704	0,994	77,022	3,5	1005,44	7,5	9,5	9,3	1	1	1	1	1	1	1	1	1	0	1	-35,940803	274,865592	287,700969	0
14.01.2021	19:11:38	0	0	3,728224	2,6745	107,73	0,99	77,022	3,5	1005,08	7,5	9,5	9,3	1	1	1	1	1	1	1	1	1	0	1	-32,699084	274,983957	291,500525	0
14.01.2021	19:11:39	0	0	2,485483	2,85525	90,0216	0,996	77,025	3,5	1005,28	7,5	9,5	9,3	1	1	1	1	1	1	1	1	1	0	1	-37,209302	275,008968	287,108274	0
14.01.2021	19:11:40	0	0	4,51906	3,195	89,7192	1	77,033	3,5	1005,42	7,6	9,5	9,3	1	1	1	1	1	1	1	1	1	0	1	-28,752643	275,052816	295,771821	0
14.01.2021	19:11:41	0	0	5,196919	3,522	74,178	0,996	77,026	3,5	1005,3	7,5	9,5	9,3	1	1	1	1	1	1	1	1	1	0	1	-32,55814	274,934031	291,406087	0
14.01.2021	19:11:42	0	0	4,067154	3,585	86,2776	1,001	77,038	3,5	1005,34	7,5	9,5	9,3	1	1	1	1	1	1	1	1	1	0	1	-34,460888	274,885788	289,276012	0
14.01.2021	19:11:43	0	0	4,51906	3,39825	82,332	1,005	77,031	3,5	1005,42	7,6	9,5	9,3	1	1	1	1	1	1	1	1	1	0	1	-36,081748	275,060656	288,47972	0
14.01.2021	19:11:44	0	0	4,632036	3,3195	80,1252	0,996	77,036	3,5	1005,34	7,5	9,5	9,3	1	1	1	1	1	1	1	1	1	0	1	-36,715997	274,927799	287,218858	0
14.01.2021	19:11:45	0	0	2,598459	3,2175	87,3396	0,995	77,032	3,5	1005,34	7,5	9,5	9,3	1	1	1	1	1	1	1	1	1	0	1	-30,443975	274,860935	293,175863	0
14.01.2021	19:11:46	0	0	4,406083	3,17625	113,7276	0,998	77,028	3,5	1005,36	7,5	9,5	9,3	1	1	1	1	1	1	1	1	1	0	1	-31,078224	274,853175	292,505069	0
14.01.2021	19:11:47	0	0	4,406083	3,03825	108,1296	1,002	77,042	3,5	1005,38	7,5	9,5	9,3	1	1	1	1	1	1	1	1	1	0	1	-32,064834	274,943382	291,94347	0
14.01.2021	19:11:48	0	0	4,51906	3,20625	101,106	0,995	77,037	3,5	1005,48	7,5	9,5	9,3	1	1	1	1	1	1	1	1	1	0	1	-36,645525	275,026182	287,75326	0
14.01.2021	19:11:49	0	0	4,632036	3,58275	95,832	0,998	77,041	3,5	1005,44	7,5	9,5	9,3	1	1	1	1	1	1	1	1	1	0	1	-31,007752	274,969902	293,125581	0
14.01.2021	19:11:50	0	0	3,163342	3,7065	96,2136	0,996	77,032	3,5	1005,52	7,5	9,5	9,3	1	1	1	1	1	1	1	1	1	0	1	-31,501057	274,878018	292,199241	0
14.01.2021	19:11:51	0	0	4,406083	3,71325	98,4708	0,997	77,036	3,5	1005,34	7,6	9,5	9,3	1	1	1	1	1	1	1	1	1	0	1	-28,32981	275,043412	296,150273	0
14.01.2021	19:11:52	0	0	4,18013	4,00275	104,0544	0,998	77,029	3,5	1005,32	7,5	9,5	9,3	1	1	1	1	1	1	1	1	1	0	1	-33,897111	274,916899	289,986373	0
14.01.2021	19:11:53	0	0	4,406083	4,374	117,81	0,995	77,019	3,5	1005,3	7,5	9,5	9,3	1	1	1	1	1	1	1	1	1	0	1	-33,54475	274,853175	290,038543	0
14.01.2021	19:11:54	0	0	2,824412	4,3695	113,0328	1,002	77,034	3,5	1005,44	7,5	9,5	9,3	1	1	1	1	1	1	1	1	1	0	1	-31,501057	274,912229	292,360421	0
14.01.2021	19:11:55	0	0	2,937389	4,20075	107,748	0,999	77,019	3,5	1005,38	7,5	9,5	9,3	1	1	1	1	1	1	1	1	1	0	1	-31,148696	274,850072	292,419984	0
14.01.2021	19:11:56	0	0	2,937389	3,94275	108,1152	0,997	77,022	3,5	1005,32	7,5	9,5	9,3	1	1	1	1	1	1	1	1	1	0	1	-29,598309	274,879571	294,109308	0
14.01.2021	19:11:57	0	0	2,372506	3,71475	107,7264	0,996	77,016	3,5	1005,36	7,5	9,5	9,3	1	1	1	1	1	1	1	1	1	0	1	-29,105004	274,952738	294,947405	0
14.01.2021	19:11:58	0	0	2,937389	3,651	104,4288	1,001	77,015	3,5	1005,42	7,6	9,5	9,3	1	1	1	1	1	1	1	1	1	0	1	-30,021142	275,026182	294,377644	0
14.01.2021	19:11:59	0	0	3,163342	3,711	106,668	0,998	77,01	3,5	1005,32	7,5	9,5	9,3	1	1	1	1	1	1	1	1	1	0	1	-33,333333	275,002712	290,954733	0
14.01.2021	19:12:00	0	0	3,163342	4,569	108,4968	0,99	76,988	3,5	1005,16	7,6	9,5	9,3	1	1	1	1	1	1	1	1	1	0	1	-31,360113	274,994895	292,891084	0
14.01.2021	19:12:01	0	0	3,163342	4,569	108,4968	0,99	76,988	3,5	1005,16	7,6	9,5	9,3	1	1	1	1	1	1	1	1	1	0	1	-31,360113	274,994895	292,891084	0
14.01.2021	19:12:02	0	0	4,067154	4,7385	114,8724	1,005	77,01	3,5	1005,3	7,6	9,5	9,3	1	1	1	1	1	1	1	1	1	0	1	-32,276251	274,842316	291,255909	0
14.01.2021	19:12:03	0	0	3,389315	4,45125	109,2276	0,998	76,996	3,5	1005,4	7,5	9,5	9,2	1	1	1	1	1	1	1	1	1	0	1	-35,236082	274,839215	288,281476	0
14.01.2021	19:12:04	0	0	5,083942	4,24575	115,5888	0,999	76,98	3,5	1005,26	7,6	9,5	9,3	1	1	1	1	1	1	1	1	1	0	1	-32,135307	274,971463	292,005388	0
14.01.2021	19:12:05	0	0	3,954177	4,0065	94,0716	0,996	76,976	3,5	1005,28	7,6	9,5	9,3	1	1	1	1	1	1	1	1	1	0	1	-35,51797	274,985519	288,689006	0
14.01.2021	19:12:06	0	0	3,841201	3,654	84,7836	0,997	76,964	3,5	1005,26	7,6	9,5	9,3	1	1	1	1	1	1	1	1	1	0	1	-33,897111	274,996458	290,361459	0
14.01.2021	19:12:07	0	0	4,51906	3,44475	94,7664	1,001	76,975	3,5	1005,32	7,5	9,5	9,3	1	1	1	1	1	1	1	1	1	0	1	-31,289641	275,013661	293,050075	0
14.01.2021	19:12:08	0	0	2,598459	3,4305	91,1448	1,001	76,965	3,5	1005,36	7,5	9,5	9,3	1	1	1	1	1	1	1	1	1	0	1	-33,333333	274,943382	290,674972	0
14.01.2021	19:12:09	0	0	3,841201	3,3255	101,8368	0,999	76,981	3,5	1005,38	7,6	9,5	9,3	1	1	1	1	1	1	1	1	1	0	1	-29,034531	275,026182	295,364254	0
14.01.2021	19:12:10	0	0	2,372506	3,669	106,6788	0,999	76,967	3,5	1005,56	7,6	9,5	9,3	1	1	1	1	1	1	1	1	1	0	1	-36,715997	274,881125	286,998939	0
14.01.2021	19:12:11	0	0	2,485483	4,008	104,0832	0,991	76,963	3,5	1005,32	7,6	9,4	9,3	1	1	1	1	1	1	1	1	1	0	1	-26,145173	274,846969	297,408897	0
14.01.2021	19:12:12	0	0	3,841201	4,68825	104,0256	0,988	76,948	3,5	1005,34	7,5	9,5	9,3	1	1	1	1	1	1	1	1	1	0	1	-29,386892	274,977709	294,783254	0
14.01.2021	19:12:13	0	0	3,050365	4,7895	101,7828	0,991	76,946	3,5	1005,22	7,6	9,5	9,3	1	1	1	1	1	1	1	1	1	0	1	-32,769556	275,012097	291,562779	0
14.01.2021	19:12:14	0	0	4,745013	4,39575	105,1344	0,995	76,957	3,5	1005,28	7,5	9,5	9,3	1	1	1	1	1	1	1	1	1	0	1	-35,799859	274,842316	287,732301	0
14.01.2021	19:12:15	0	0	2,711403	4,431	111,8052	0,989	76,939	3,5	1005,28	7,5	9,7	9,5	1	1	1	1	1	1	1	1	1	0	1	-38,336857	274,918455	285,553963	0
14.01.2021	19:12:16	0	0	2,485483	4,1805	97,6896	0,989	76,959	3,5	1005,3	7,5	9,5	9,3	1	1	1	1	1	1	1	1	1	0	1	-34,601832	275,010532	289,723123	0
14.01.2021	19:12:17	0	0	3,389295	3,78	88,1928	0,989	76,937	3,5	1005,38	7,6	9,5	9,3	1	1	1	1	1	1	1	1	1	0	1	-32,205779	274,973025	291,942277	0
14.01.2021	19:12:18	0	0	3,389295	3,792	86,6556	0,992	76,952	3,5	1005,26	7,6	9,4	9,3	1	1	1	1	1	1	1	1	1	0	1	-33,121917	274,870251	290,541798	0
14.01.2021	19:12:19	0	0	3,841201	4,13025	98,4384	0,994	76,962	3,5	1005,34	7,6	9,7	9,3	1	1	1	1	1	1	1	1	1	0	1	-31,994362	275,00584	292,308458	0
14.01.2021	19:12:20	0	0	4,632064	4,5285	109,962	0,992	76,984	3,5	1005,5	7,5	9,7	9,2	1	1	1	1	1	1	1	1	1	0	1	-33,826638	274,899781	289,976189	0
14.01.2021	19:12:21	0	0	3,502271	4,554	115,2144	0,995	76,993	3,5	1005,44	7,6	9,5	9,3	1	1	1	1	1	1	1	1	1	0	1	-30,373502	274,851623	293,202484	0
14.01.2021	19:12:22	0	0	4,745013	4,72275	113,688	0,992	77,009	3,5	1005,38	7,5	9,5	9,3	1	1	1	1	1	1	1	1	1	0	1	-31,007752	274,90756	292,831727	0
14.01.2021	19:12:23	0	0	3,276318	4,758	122,022	0,991	77,02	3,5	1005,34	7,6	9,5	9,3	1	1	1	1	1	1	1	1	1	0	1	-28,682171	275,026182	295,716615	0
14.01.2021	19:12:24	0	0	2,937389	4,98075	110,754	0,986	77,017	3,5	1005,18	7,5	9,3	9,3	1	1	1	1	1	1	1	1	1	0	1	-34,813249	274,943382	289,195056	0
14.01.2021	19:12:25	0	0	2,937389	5,0325	111,8052	0,995	77,045	3,5	1005,34	7,6	9,5	9,3	1	1	1	1	1	1	1	1	1	0	1	-33,54475	274,854727	290,045851	0
14.01.2021	19:12:26	0	0	2,598459	5,05575	98,0712	0,993	77,048	3,5	1005,26	7,6	9,5	9,3	1	1	1	1	1	1	1	1	1	0	1	-38,266385	274,846969	285,287685	0
14.01.2021	19:12:27	0	0	3,050365	5,214	102,9492	0,988	77,055	3,5	1005,44	7,5	9,4	9,3	1	1	1	1	1	1	1	1	1	0	1	-32,064834	274,890451	291,694035	0
14.01.2021	19:12:28	0	0	2,485453	5,36925	106,6824	0,986	77,056	3,5	1005,14	7,5	9,5	9,5	1	1	1	1	1	1	1	1	1	0	1	-37,561663	275,008968	286,755913	0
14.01.2021	19:12:29	0	0	2,937389	5,2335	104,7168	0,984	77,061	3,5	1005,28	7,6	9,5	9,3	1	1	1	1	1	1	1	1	1	0	1	-32,55814	274,860935	291,061698	0
14.01.2021	19:12:30	0	0	3,728247	5,53275	109,5984	0,995	77,071	3,5	1005,32	7,6	9,4	9,2	1	1	1	1	1	1	1	1	1	0	1	-26,849894	274,979271	297,327616	0
14.01.2021	19:12:31	0	0	3,728224	6,0435	105,2388	0,99	77,068	3,5	1005,38	7,6	9,5	9,3	1	1	1	1	1	1	1	1	1	0	1	-31,501057	274,850072	292,067623	0
14.01.2021	19:12:32	0	0	4,518979	6,14475	109,2132	0,992	77,073	3,5	1005,2	7,6	9,8	9,6	1	1	1	1	1	1	1	1	1	0	1	-35,51797	274,898226	288,277529	0
14.01.2021	19:12:33	0	0	3,502292	6,27225	101,1024	0,991	77,084	3,5	1005,42	7,6	9,5	9,2	1	1	1	1	1	1	1	1	1	0	1	-32,840028	274,874911	290,845634	0
14.01.2021	19:12:34	0	0	2,711387	6,28125	98,064	0,993	77,085	3,5	1005,36	7,6	9,7	9,6	1	1	1	1	1	1	1	1	1	0	1	-31,642001	275,010532	292,682954	0
14.01.2021	19:12:35	0	0	2,824412	5,9535	98,7552	0,994	77,08	3,5	1005,22	7,5	9,5	9,3	1	1	1	1	1	1	1	1	1	0	1	-35,16561	274,949619	288,872095	0
14.01.2021	19:12:36	0	0	4,293133	5,49075	98,478	0,992	77,076	3,5	1005,36	7,6	9,5	9,2	1	1	1	1	1	1	1	1	1	0	1	-31,501057	274,839215	292,0165	0
14.01.2021	19:12:37	0	0	4,180155	5,52075	99,8784	0,995	77,081	3,5	1005,26	7,6	9,5	9,2	1	1	1	1	1	1	1	1	1	0	1	-35,940803	274,996458	288,317766	0
14.01.2021	19:12:38	0	0	2,937389	5,439	98,1864	0,997	77,081	3,5	1005,48	7,6	9,5	9,3	1	1	1	1	1	1	1	1	1	0	1	-29,386892	274,94806	294,643461	0
14.01.2021	19:12:39	0	0	2,711436	5,35425	102,9492	0,996	77,085	3,5	1005,4	7,6	9,7	9,3	1	1	1	1	1	1	1	1	1	0	1	-27,766032	274,854727	295,824568	0
14.01.2021	19:12:40	0	0	3,502271	5,50725	102,546	0,987	77,06	3,5	1005,28	7,6	9,5	9,3	1	1	1	1	1	1	1	1	1	0	1	-30,655391	274,902892	293,162094	0
14.01.2021	19:12:41	0	0	4,40611	5,29425	92,9736	0,993	77,086	3,5	1005,32	7,6	9,5	9,2	1	1	1	1	1	1	1	1	1	0	1	-39,041579	274,954298	285,018183	0
14.01.2021	19:12:42	0	0	2,937389	5,21175	88,9668	0,99	77,08	3,5	1005,38	7,6	9,7	9,3	1	1	1	1	1	1	1	1	1	0	1	-35,940803	275,010532	288,384152	0
14.01.2021	19:12:43	0	0	4,293133	5,3235	92,97	0,991	77,062	3,5	1005,4	7,6	9,5	9,2	1	1	1	1	1	1	1	1	1	0	1	-34,178999	275,034012	290,256729	0
14.01.2021	19:12:44	0	0	4,40611	5,031	97,3368	0,991	77,076	3,5	1005,32	7,6	9,4	9,2	1	1	1	1	1	1	1	1	1	0	1	-32,699084	274,976147	291,463698	0
14.01.2021	19:12:45	0	0	2,711403	4,87125	94,374	0,996	77,064	3,5	1005,38	7,5	9,4	9,5	1	1	1	1	1	1	1	1	1	0	1	-33,615222	274,851623	289,960764	0
14.01.2021	19:12:46	0	0	5,196825	4,96275	89,3016	0,992	77,073	3,5	1005,38	7,6	9,3	9,6	1	1	1	1	1	1	1	1	1	0	1	-35,16561	274,983957	289,033999	0
14.01.2021	19:12:47	0	0	3,841155	5,0415	94,7628	0,987	77,058	3,5	1005,26	7,6	9,5	9,5	1	1	1	1	1	1	1	1	1	0	1	-30,725863	274,955858	293,341253	0
14.01.2021	19:12:48	0	0	2,598475	5,16225	87,6996	0,99	77,071	3,5	1005,38	7,5	9,5	9,2	1	1	1	1	1	1	1	1	1	0	1	-35,799859	275,015226	288,547237	0
14.01.2021	19:12:49	0	0	4,970966	5,13525	94,7844	0,989	77,059	3,5	1005,4	7,6	9,5	9,3	1	1	1	1	1	1	1	1	1	0	1	-31,360113	274,898226	292,435386	0
14.01.2021	19:12:50	0	0	3,050384	5,22	88,128	0,986	77,057	3,5	1005,24	7,6	9,5	9,2	1	1	1	1	1	1	1	1	1	0	1	-36,363636	274,870251	287,300078	0
14.01.2021	19:12:51	0	0	2,937389	4,98675	90,0432	0,993	77,06	3,5	1005,42	7,6	9,4	9,3	1	1	1	1	1	1	1	1	1	0	1	-33,474278	274,994895	290,776919	0
14.01.2021	19:12:52	0	0	4,51906	4,6785	98,4564	0,989	77,037	3,5	1005,28	7,6	9,5	9,3	1	1	1	1	1	1	1	1	1	0	1	-43,199436	274,963659	280,90446	0
14.01.2021	19:12:53	0	0	4,632036	4,77225	99,8964	0,994	77,037	3,5	1005,38	7,6	9,5	9,3	1	1	1	1	1	1	1	1	1	0	1	-34,108527	275,026182	290,290258	0
14.01.2021	19:12:54	0	0	3,163342	4,51125	96,9732	0,992	77,04	3,5	1005,3	7,5	9,5	9,3	1	1	1	1	1	1	1	1	1	0	1	-33,967583	274,871804	289,703447	0
14.01.2021	19:12:55	0	0	4,745013	4,48125	90,0324	0,986	77,035	3,5	1005,4	7,5	9,5	9,3	1	1	1	1	1	1	1	1	1	0	1	-31,219168	274,958978	292,862657	0
14.01.2021	19:12:56	0	0	2,711436	4,3275	82,3608	0,991	77,029	3,5	1005,36	7,6	9,7	9,3	1	1	1	1	1	1	1	1	1	0	1	-32,840028	275,03088	291,580921	0
14.01.2021	19:12:57	0	0	3,276318	4,19475	94,0896	0,985	77,05	3,5	1005,46	7,6	9,3	9,3	1	1	1	1	1	1	1	1	1	0	1	-31,078224	274,918455	292,812596	0
14.01.2021	19:12:58	0	0	3,728224	4,0575	89,352	0,996	77,031	3,5	1005,2	7,5	9,5	9,3	1	1	1	1	1	1	1	1	1	0	1	-32,064834	274,977709	292,105311	0
14.01.2021	19:12:59	0	0	4,632036	4,16775	92,25	0,986	77,029	3,5	1005,28	7,6	9,5	9,3	1	1	1	1	1	1	1	1	1	0	1	-36,081748	274,991769	288,154706	0
14.01.2021	19:13:00	0	0	4,293107	3,77175	85,1796	0,997	77,032	3,5	1005,42	7,6	9,5	9,3	1	1	1	1	1	1	1	1	1	0	1	-35,870331	275,038711	288,587571	0
14.01.2021	19:13:01	0	0	4,293107	3,77175	85,1796	0,997	77,032	3,5	1005,42	7,6	9,5	9,3	1	1	1	1	1	1	1	1	1	0	1	-35,870331	275,038711	288,587571	0
14.01.2021	19:13:02	0	0	3,502271	3,92175	100,7352	0,995	77,018	3,5	1005,34	7,6	9,5	9,3	1	1	1	1	1	1	1	1	1	0	1	-30,93728	274,965219	293,173974	0
14.01.2021	19:13:03	0	0	2,598475	3,76425	98,7336	0,992	77,014	3,5	1005,32	7,6	9,5	9,2	1	1	1	1	1	1	1	1	1	0	1	-33,121917	274,851623	290,454069	0
14.01.2021	19:13:04	0	0	4,406083	3,84675	91,8972	0,987	77,019	3,5	1005,28	7,6	9,5	9,3	1	1	1	1	1	1	1	1	1	0	1	-37,279774	274,957418	286,794696	0
14.01.2021	19:13:05	0	0	2,824412	3,669	102,9564	0,988	77,024	3,5	1005,34	7,6	9,5	9,3	1	1	1	1	1	1	1	1	1	0	1	-31,007752	274,859383	292,604775	0
14.01.2021	19:13:06	0	0	4,406031	3,42375	106,3152	0,991	77,022	3,5	1005,26	7,6	9,7	9,5	1	1	1	1	1	1	1	1	1	0	1	-32,55814	274,941823	291,442817	0
14.01.2021	19:13:07	0	0	2,711436	3,48075	92,97	0,991	77,04	3,5	1005,48	7,6	9,7	9,3	1	1	1	1	1	1	1	1	1	0	1	-36,927414	274,84852	286,633961	0
14.01.2021	19:13:08	0	0	4,51906	3,5895	99,54	0,993	77,035	3,5	1005,4	7,6	9,3	9,3	1	1	1	1	1	1	1	1	1	0	1	-31,078224	274,969902	293,055109	0
14.01.2021	19:13:09	0	0	4,745013	3,96225	91,8864	0,993	77,037	3,5	1005,36	7,5	9,5	9,3	1	1	1	1	1	1	1	1	1	0	1	-29,668781	274,993332	294,575044	0
14.01.2021	19:13:10	0	0	4,40611	4,46925	88,9704	0,993	77,032	3,5	1005,46	7,5	9,4	9,2	1	1	1	1	1	1	1	1	1	0	1	-35,236082	275,004276	289,059361	0
14.01.2021	19:13:11	0	0	3,728269	4,7235	83,3364	0,992	77,04	3,5	1005,34	7,5	9,5	9,1	1	1	1	1	1	1	1	1	1	0	1	-35,658915	274,974586	288,496504	0
14.01.2021	19:13:12	0	0	4,745013	4,7775	77,5872	0,994	77,025	3,5	1005,26	7,6	9,7	9,3	1	1	1	1	1	1	1	1	1	0	1	-29,668781	274,851623	293,907205	0
14.01.2021	19:13:13	0	0	2,485483	4,6995	74,9016	0,993	77,031	3,5	1005,24	7,6	9,5	9,3	1	1	1	1	1	1	1	1	1	0	1	-28,118393	274,979271	296,059117	0
14.01.2021	19:13:14	0	0	3,389336	4,50675	79,038	0,993	77,043	3,5	1005,66	7,5	9,4	9,1	1	1	1	1	1	1	1	1	1	0	1	-35,447498	275,034012	288,98823	0
14.01.2021	19:13:15	0	0	3,276279	4,42275	94,1652	0,997	77,012	3,5	1005,24	7,6	9,5	9,5	1	1	1	1	1	1	1	1	1	0	1	-32,9105	274,84852	290,650874	0
14.01.2021	19:13:16	0	0	3,389295	4,36725	86,2704	0,992	77,018	3,5	1005,38	7,6	9,7	9,3	1	1	1	1	1	1	1	1	1	0	1	-30,514447	274,932473	293,442436	0
14.01.2021	19:13:17	0	0	3,389295	4,3815	88,9632	0,998	77,019	3,5	1005,32	7,6	9,3	9,3	1	1	1	1	1	1	1	1	1	0	1	-34,038055	275,010532	290,2869	0
14.01.2021	19:13:18	0	0	4,18013	4,203	86,2632	1,001	77,018	3,5	1005,32	7,6	9,5	9,3	1	1	1	1	1	1	1	1	1	0	1	-32,487667	275,044979	291,99981	0
14.01.2021	19:13:19	0	0	3,841201	4,43025	96,5484	0,999	77,009	3,5	1005,42	7,6	9,7	9,3	1	1	1	1	1	1	1	1	1	0	1	-35,447498	274,969902	288,685835	0
14.01.2021	19:13:20	0	0	2,485453	4,65	92,97	0,988	76,997	3,5	1005,38	7,6	9,4	9,5	1	1	1	1	1	1	1	1	1	0	1	-31,712474	274,86404	291,921987	0
14.01.2021	19:13:21	0	0	2,598459	4,44825	84,4056	0,995	76,989	3,5	1005,38	7,6	9,5	9,3	1	1	1	1	1	1	1	1	1	0	1	-32,346723	274,985519	291,860253	0
14.01.2021	19:13:22	0	0	3,841201	4,302	82,3284	0,996	76,992	3,5	1005,36	7,6	9,5	9,3	1	1	1	1	1	1	1	1	1	0	1	-34,813249	274,982395	289,378993	0
14.01.2021	19:13:23	0	0	4,519087	4,19925	78,6564	0,997	76,98	3,5	1005,32	7,6	9,5	9,2	1	1	1	1	1	1	1	1	1	0	1	-36,293164	275,037145	288,157346	0
14.01.2021	19:13:24	0	0	2,824446	3,957	70,8156	0,998	76,987	3,5	1005,22	7,6	9,5	9,1	1	1	1	1	1	1	1	1	1	0	1	-34,813249	274,90756	289,02623	0
14.01.2021	19:13:25	0	0	3,389315	3,612	74,9088	0,993	76,982	3,5	1005,44	7,5	9,7	9,2	1	1	1	1	1	1	1	1	1	0	1	-33,051445	274,874911	290,634218	0
14.01.2021	19:13:26	0	0	4,632036	3,441	73,7964	1	76,969	3,5	1005,36	7,6	9,5	9,3	1	1	1	1	1	1	1	1	1	0	1	-33,474278	274,983957	290,725331	0
14.01.2021	19:13:27	0	0	4,067154	3,417	73,0404	0,995	76,978	3,5	1005,36	7,6	9,5	9,3	1	1	1	1	1	1	1	1	1	0	1	-32,769556	275,032446	291,658782	0
14.01.2021	19:13:28	0	0	2,824412	3,42825	67,6656	0,999	76,986	3,5	1005,4	7,6	9,5	9,3	1	1	1	1	1	1	1	1	1	0	1	-35,16561	274,998022	289,100333	0
14.01.2021	19:13:29	0	0	3,841224	3,2595	72,0504	0,998	76,983	3,5	1005,38	7,6	9,5	9,2	1	1	1	1	1	1	1	1	1	0	1	-35,51797	274,915342	288,358177	0
14.01.2021	19:13:30	0	0	3,841224	3,25875	74,1636	0,991	76,958	3,5	1005,28	7,5	9,7	9,2	1	1	1	1	1	1	1	1	1	0	1	-33,615222	274,85783	289,989995	0
14.01.2021	19:13:31	0	0	2,259544	3,78975	71,6004	0,998	76,975	3,5	1005,42	7,6	9,7	9,2	1	1	1	1	1	1	1	1	1	0	1	-32,699084	274,965219	291,41217	0
14.01.2021	19:13:32	0	0	3,72818	3,8625	70,8408	0,998	76,958	3,5	1005,42	7,6	9,4	9,5	1	1	1	1	1	1	1	1	1	0	1	-33,967583	274,853175	289,61571	0
14.01.2021	19:13:33	0	0	4,406031	3,94875	71,982	0,994	76,946	3,5	1005,52	7,6	9,3	9,5	1	1	1	1	1	1	1	1	1	0	1	-30,796335	274,990207	293,432748	0
14.01.2021	19:13:34	0	0	4,745013	4,16025	80,9028	0,994	76,953	3,5	1005,4	7,6	9,4	9,3	1	1	1	1	1	1	1	1	1	0	1	-32,699084	274,968341	291,426889	0
14.01.2021	19:13:35	0	0	4,519006	4,22775	81,5976	0,994	76,947	3,5	1005,4	7,6	9,4	9,5	1	1	1	1	1	1	1	1	1	0	1	-35,095137	275,043412	289,384945	0
14.01.2021	19:13:36	0	0	4,406083	4,31175	89,6832	0,998	76,928	3,5	1005,38	7,5	9,8	9,3	1	1	1	1	1	1	1	1	1	0	1	-35,51797	274,974586	288,637448	0
14.01.2021	19:13:37	0	0	2,485483	4,308	87,8436	0,994	76,926	3,5	1005,36	7,5	9,5	9,3	1	1	1	1	1	1	1	1	1	0	1	-39,534884	274,850072	284,033796	0
14.01.2021	19:13:38	0	0	2,485483	4,152	80,1756	0,999	76,921	3,5	1005,32	7,5	9,7	9,3	1	1	1	1	1	1	1	1	1	0	1	-32,135307	274,988644	292,086407	0
14.01.2021	19:13:39	0	0	3,050384	4,05	80,5284	0,998	76,919	3,5	1005,44	7,6	9,5	9,2	1	1	1	1	1	1	1	1	1	0	1	-30,232558	274,856278	293,36535	0
14.01.2021	19:13:40	0	0	4,180155	3,93975	82,584	1,002	76,91	3,5	1005,46	7,5	9,4	9,2	1	1	1	1	1	1	1	1	1	0	1	-35,588443	274,876464	288,104537	0
14.01.2021	19:13:41	0	0	2,485498	3,8265	90,036	1,004	76,903	3,5	1005,32	7,6	9,4	9,2	1	1	1	1	1	1	1	1	1	0	1	-33,615222	275,024617	290,776177	0
14.01.2021	19:13:42	0	0	2,824412	3,60525	92,2464	1,001	76,898	3,5	1005,36	7,6	9,5	9,3	1	1	1	1	1	1	1	1	1	0	1	-35,940803	274,860935	287,679034	0
14.01.2021	19:13:43	0	0	4,40611	3,45975	96,2244	1,002	76,9	3,5	1005,46	7,6	9,3	9,2	1	1	1	1	1	1	1	1	1	0	1	-31,994362	274,998022	292,27158	0
14.01.2021	19:13:44	0	0	2,25953	3,36225	99,5436	0,997	76,884	3,5	1005,36	7,6	9,8	9,3	1	1	1	1	1	1	1	1	1	0	1	-34,742777	274,856278	288,855132	0
14.01.2021	19:13:45	0	0	2,259489	3,46725	106,308	0,994	76,894	3,5	1005,38	7,6	9,8	9,6	1	1	1	1	1	1	1	1	1	0	1	-33,967583	274,916899	289,915901	0
14.01.2021	19:13:46	0	0	3,954225	3,657	109,224	0,999	76,875	3,5	1005,34	7,5	9,7	9,1	1	1	1	1	1	1	1	1	1	0	1	-33,333333	275,008968	290,984243	0
14.01.2021	19:13:47	0	0	2,598475	3,72975	102,1968	0,994	76,883	3,5	1005,38	7,5	9,4	9,2	1	1	1	1	1	1	1	1	1	0	1	-35,024665	274,873357	288,65368	0
14.01.2021	19:13:48	0	0	2,824412	3,5595	93,7152	0,996	76,869	3,5	1005,42	7,6	9,5	9,3	1	1	1	1	1	1	1	1	1	0	1	-34,038055	274,881125	289,676882	0
14.01.2021	19:13:49	0	0	4,406083	3,504	90,792	0,994	76,866	3,5	1005,24	7,6	9,4	9,3	1	1	1	1	1	1	1	1	1	0	1	-33,756166	274,859383	289,856361	0
14.01.2021	19:13:50	0	0	4,067178	3,3615	105,8796	0,995	76,854	3,5	1005,24	7,6	9,5	9,2	1	1	1	1	1	1	1	1	1	0	1	-34,601832	274,979271	289,575678	0
14.01.2021	19:13:51	0	0	3,502229	3,24675	90,4032	0,999	76,865	3,5	1005,32	7,5	9,7	9,5	1	1	1	1	1	1	1	1	1	0	1	-31,994362	274,998022	292,27158	0
14.01.2021	19:13:52	0	0	4,518979	3,47025	101,4624	0,999	76,873	3,5	1005,4	7,6	9,7	9,6	1	1	1	1	1	1	1	1	1	0	1	-39,252995	275,037145	285,197515	0
14.01.2021	19:13:53	0	0	3,276358	3,81975	99,9036	0,997	76,875	3,5	1005,38	7,6	9,3	9,1	1	1	1	1	1	1	1	1	1	0	1	-33,685694	274,965219	290,42556	0
14.01.2021	19:13:54	0	0	2,824379	4,005	104,0508	1	76,855	3,5	1005,5	7,5	9,7	9,5	1	1	1	1	1	1	1	1	1	0	1	-34,742777	275,024617	289,648623	0
14.01.2021	19:13:55	0	0	2,937424	4,13325	94,3848	0,997	76,853	3,5	1005,3	7,6	9,7	9,1	1	1	1	1	1	1	1	1	1	0	1	-34,460888	274,904448	289,363928	0
14.01.2021	19:13:56	0	0	4,632036	4,467	105,1344	1,001	76,861	3,5	1005,36	7,5	9,5	9,3	1	1	1	1	1	1	1	1	1	0	1	-35,447498	274,892006	288,318695	0
14.01.2021	19:13:57	0	0	4,293107	4,896	92,9484	0,998	76,863	3,5	1005,34	7,5	9,7	9,3	1	1	1	1	1	1	1	1	1	0	1	-32,840028	275,034012	291,5957	0
14.01.2021	19:13:58	0	0	2,824362	4,74675	89,352	0,994	76,881	3,5	1005,4	7,6	9,5	9,6	1	1	1	1	1	1	1	1	1	0	1	-33,54475	274,979271	290,632761	0
14.01.2021	19:13:59	0	0	3,276318	4,49025	106,6896	0,994	76,864	3,5	1005,52	7,6	9,5	9,3	1	1	1	1	1	1	1	1	1	0	1	-36,997886	274,899781	286,804941	0
14.01.2021	19:14:00	0	0	4,632036	4,2555	94,1112	0,995	76,852	3,5	1005,32	7,6	9,5	9,3	1	1	1	1	1	1	1	1	1	0	1	-36,504581	274,929357	287,437617	0
14.01.2021	19:14:01	0	0	4,632036	4,2555	94,1112	0,995	76,852	3,5	1005,32	7,6	9,5	9,3	1	1	1	1	1	1	1	1	1	0	1	-36,504581	274,929357	287,437617	0
14.01.2021	19:14:02	0	0	4,406083	4,12875	102,9636	0,997	76,873	3,5	1005,36	7,6	9,5	9,3	1	1	1	1	1	1	1	1	1	0	1	-36,856942	275,018356	287,50492	0
14.01.2021	19:14:03	0	0	3,502292	4,107	112,6728	0,994	76,88	3,5	1005,36	7,5	9,4	9,2	1	1	1	1	1	1	1	1	1	0	1	-34,672304	274,867145	288,976781	0
14.01.2021	19:14:04	0	0	3,276338	4,197	119,79	0,999	76,872	3,5	1005,28	7,6	9,5	9,2	1	1	1	1	1	1	1	1	1	0	1	-37,068358	274,867145	286,580728	0
14.01.2021	19:14:05	0	0	2,937389	4,24725	113,4252	0,994	76,881	3,5	1005,5	7,6	9,5	9,3	1	1	1	1	1	1	1	1	1	0	1	-30,866808	274,850072	292,701872	0
14.01.2021	19:14:06	0	0	3,841201	4,23675	104,742	0,991	76,9	3,5	1005,38	7,6	9,5	9,3	1	1	1	1	1	1	1	1	1	0	1	-34,954193	274,960538	289,134989	0
14.01.2021	19:14:07	0	0	4,293055	4,21125	107,7408	0,989	76,9	3,5	1005,32	7,6	9,5	9,5	1	1	1	1	1	1	1	1	1	0	1	-31,642001	274,86404	291,992459	0
14.01.2021	19:14:08	0	0	4,067154	4,173	124,3152	0,995	76,889	3,5	1005,46	7,6	9,4	9,3	1	1	1	1	1	1	1	1	1	0	1	-33,756166	274,843867	289,783296	0
14.01.2021	19:14:09	0	0	3,615205	3,97725	119,448	0,995	76,899	3,5	1005,46	7,5	9,5	9,5	1	1	1	1	1	1	1	1	1	0	1	-32,769556	274,985519	291,43742	0
14.01.2021	19:14:10	0	0	3,61527	3,8325	123,444	0,989	76,887	3,5	1005,42	7,5	9,4	9,2	1	1	1	1	1	1	1	1	1	0	1	-31,148696	274,932473	292,808187	0
14.01.2021	19:14:11	0	0	3,615248	3,9705	128,6532	0,993	76,901	3,5	1005,26	7,6	9,5	9,3	1	1	1	1	1	1	1	1	1	0	1	-34,672304	275,038711	289,785598	0
14.01.2021	19:14:12	0	0	2,824412	3,789	107,4024	0,993	76,886	3,5	1005,38	7,6	9,5	9,3	1	1	1	1	1	1	1	1	1	0	1	-27,202255	274,882679	296,520002	0
14.01.2021	19:14:13	0	0	3,954201	3,558	130,572	0,996	76,899	3,5	1005,44	7,5	9,5	9,2	1	1	1	1	1	1	1	1	1	0	1	-31,007752	274,971463	293,132942	0
14.01.2021	19:14:14	0	0	2,937389	3,44475	122,4108	0,985	76,884	3,5	1005,36	7,5	9,5	9,3	1	1	1	1	1	1	1	1	1	0	1	-32,417195	274,839215	291,100362	0
14.01.2021	19:14:15	0	0	4,18013	3,41775	120,1824	0,99	76,893	3,5	1005,36	7,5	9,5	9,3	1	1	1	1	1	1	1	1	1	0	1	-39,112051	274,987081	285,102294	0
14.01.2021	19:14:16	0	0	2,824429	3,42375	117,8244	0,993	76,881	3,5	1005,12	7,6	9,5	9,2	1	1	1	1	1	1	1	1	1	0	1	-32,9105	274,969902	291,222833	0
14.01.2021	19:14:17	0	0	2,937389	3,306	113,4072	0,995	76,894	3,5	1005,28	7,6	9,5	9,3	1	1	1	1	1	1	1	1	1	0	1	-32,205779	274,842316	291,326381	0
14.01.2021	19:14:18	0	0	3,276318	3,2085	90,7668	0,99	76,915	3,5	1005,4	7,5	9,5	9,3	1	1	1	1	1	1	1	1	1	0	1	-33,474278	274,952738	290,578131	0
14.01.2021	19:14:19	0	0	2,372506	3,25725	112,2876	0,991	76,922	3,5	1005,42	7,6	9,5	9,3	1	1	1	1	1	1	1	1	1	0	1	-33,897111	274,854727	289,69349	0
14.01.2021	19:14:20	0	0	4,293107	3,3915	103,6764	0,989	76,912	3,5	1005,3	7,6	9,5	9,3	1	1	1	1	1	1	1	1	1	0	1	-38,407329	274,873357	285,271017	0
14.01.2021	19:14:21	0	0	4,180155	3,396	102,6468	0,984	76,919	3,5	1005,28	7,5	9,5	9,2	1	1	1	1	1	1	1	1	1	0	1	-32,980973	274,910672	290,873171	0
14.01.2021	19:14:22	0	0	3,615248	3,65325	110,0052	0,992	76,917	3,5	1005,34	7,6	9,5	9,3	1	1	1	1	1	1	1	1	1	0	1	-33,756166	274,876464	289,936814	0
14.01.2021	19:14:23	0	0	4,51906	3,71625	110,3796	0,992	76,941	3,5	1005,32	7,5	9,5	9,3	1	1	1	1	1	1	1	1	1	0	1	-30,30303	274,899781	293,499797	0
14.01.2021	19:14:24	0	0	4,51906	3,98775	100,7532	0,993	76,93	3,5	1005,56	7,6	9,5	9,3	1	1	1	1	1	1	1	1	1	0	1	-33,967583	275,035578	290,475536	0
14.01.2021	19:14:25	0	0	3,502271	4,536	101,1096	0,987	76,916	3,5	1005,18	7,6	9,5	9,3	1	1	1	1	1	1	1	1	1	0	1	-35,447498	274,941823	288,553458	0
14.01.2021	19:14:26	0	0	3,728224	4,7235	96,9768	0,985	76,916	3,5	1005,28	7,6	9,4	9,3	1	1	1	1	1	1	1	1	1	0	1	-30,232558	275,024617	294,158841	0
14.01.2021	19:14:27	0	0	2,824412	4,5255	95,5188	0,99	76,93	3,5	1005,42	7,6	9,5	9,3	1	1	1	1	1	1	1	1	1	0	1	-32,346723	274,884233	291,382855	0
14.01.2021	19:14:28	0	0	3,615248	4,569	96,9768	0,986	76,941	3,5	1005,4	7,6	9,5	9,3	1	1	1	1	1	1	1	1	1	0	1	-33,333333	274,854727	290,257267	0
14.01.2021	19:14:29	0	0	3,389295	4,59975	86,7528	0,991	76,954	3,5	1005,4	7,6	9,5	9,3	1	1	1	1	1	1	1	1	1	0	1	-30,655391	275,027748	293,750781	0
14.01.2021	19:14:30	0	0	2,824412	4,4955	98,4636	0,991	76,962	3,5	1005,54	7,5	9,4	9,3	1	1	1	1	1	1	1	1	1	0	1	-33,474278	274,968341	290,651695	0
14.01.2021	19:14:31	0	0	3,502271	4,1535	98,0604	0,985	76,975	3,5	1005,34	7,6	9,5	9,3	1	1	1	1	1	1	1	1	1	0	1	-29,598309	274,842316	293,933852	0
14.01.2021	19:14:32	0	0	3,954177	3,98475	108,8748	0,982	76,976	3,5	1005,38	7,5	9,5	9,3	1	1	1	1	1	1	1	1	1	0	1	-33,121917	274,856278	290,475992	0
14.01.2021	19:14:33	0	0	2,824412	3,63525	114,0876	0,991	76,975	3,5	1005,44	7,6	9,5	9,3	1	1	1	1	1	1	1	1	1	0	1	-32,628612	274,971463	291,512083	0
14.01.2021	19:14:34	0	0	4,067154	3,489	107,082	0,983	76,976	3,5	1005,4	7,6	9,5	9,3	1	1	1	1	1	1	1	1	1	0	1	-29,950669	275,038711	294,507232	0
14.01.2021	19:14:35	0	0	2,598459	3,14925	98,7768	0,986	76,979	3,5	1005,44	7,6	9,5	9,3	1	1	1	1	1	1	1	1	1	0	1	-31,430585	274,918455	292,460235	0
14.01.2021	19:14:36	0	0	3,276318	3,09	103,392	0,987	76,976	3,5	1005,38	7,6	9,5	9,3	1	1	1	1	1	1	1	1	1	0	1	-33,54475	275,008968	290,772826	0
14.01.2021	19:14:37	0	0	2,711436	3,1665	98,0532	0,984	76,983	3,5	1005,44	7,6	9,4	9,3	1	1	1	1	1	1	1	1	1	0	1	-33,333333	275,021486	291,043295	0
14.01.2021	19:14:38	0	0	4,293107	3,15225	108,1584	0,987	76,978	3,5	1005,38	7,6	9,5	9,3	1	1	1	1	1	1	1	1	1	0	1	-40,521494	274,960538	283,567688	0
14.01.2021	19:14:39	0	0	3,841201	3,195	108,4752	0,992	76,99	3,5	1005,44	7,6	9,4	9,3	1	1	1	1	1	1	1	1	1	0	1	-30,162086	275,024617	294,229313	0
14.01.2021	19:14:40	0	0	3,502271	3,16575	96,9732	0,984	76,982	3,5	1005,42	7,6	9,5	9,3	1	1	1	1	1	1	1	1	1	0	1	-34,249471	274,923127	289,663363	0
14.01.2021	19:14:41	0	0	4,18013	3,2145	117,0324	0,988	76,99	3,5	1005,38	7,6	9,4	9,3	1	1	1	1	1	1	1	1	1	0	1	-33,121917	274,853175	290,461376	0
14.01.2021	19:14:42	0	0	3,841201	2,99325	108,864	0,983	76,98	3,5	1005,34	7,6	9,5	9,3	1	1	1	1	1	1	1	1	1	0	1	-31,501057	274,974586	292,654361	0
14.01.2021	19:14:43	0	0	4,632036	2,847	107,0712	0,984	76,983	3,5	1005,44	7,6	9,5	9,3	1	1	1	1	1	1	1	1	1	0	1	-29,598309	274,890451	294,16056	0
14.01.2021	19:14:44	0	0	2,25953	2,60925	126,1764	0,986	76,988	3,5	1005,5	7,6	9,5	9,3	1	1	1	1	1	1	1	1	1	0	1	-32,064834	275,021486	292,311794	0
14.01.2021	19:14:45	0	0	3,728224	2,643	99,1224	0,978	76,966	3,5	1005,3	7,6	9,5	9,3	1	1	1	1	1	1	1	1	1	0	1	-32,840028	274,963659	291,263868	0
14.01.2021	19:14:46	0	0	3,615248	3,2085	106,7616	0,98	76,98	3,5	1005,3	7,6	9,5	9,3	1	1	1	1	1	1	1	1	1	0	1	-31,571529	275,007404	292,738668	0
14.01.2021	19:14:47	0	0	4,632064	3,3615	93,3444	0,981	76,987	3,5	1005,36	7,6	9,5	9,2	1	1	1	1	1	1	1	1	1	0	1	-36,222692	274,969902	287,910641	0
14.01.2021	19:14:48	0	0	5,196919	3,01125	107,0712	0,982	76,979	3,5	1005,32	7,6	9,5	9,3	1	1	1	1	1	1	1	1	1	0	1	-31,642001	274,976147	292,52078	0
14.01.2021	19:14:49	0	0	3,050365	2,742	118,7136	0,983	76,968	3,5	1005,42	7,6	9,5	9,3	1	1	1	1	1	1	1	1	1	0	1	-32,9105	275,012097	291,421834	0
14.01.2021	19:14:50	0	0	2,598459	2,6925	107,8488	0,981	76,988	3,5	1005,36	7,6	9,5	9,3	1	1	1	1	1	1	1	1	1	0	1	-34,038055	274,896671	289,750117	0
14.01.2021	19:14:51	0	0	2,372506	3,18525	110,6748	0,977	76,979	3,5	1005,38	7,6	9,5	9,3	1	1	1	1	1	1	1	1	1	0	1	-35,51797	274,840765	288,006888	0
14.01.2021	19:14:52	0	0	3,954201	3,53625	104,0544	0,982	76,98	3,5	1005,38	7,6	9,5	9,2	1	1	1	1	1	1	1	1	1	0	1	-35,16561	275,002712	289,122457	0
14.01.2021	19:14:53	0	0	4,51906	4,15575	89,6976	0,984	76,989	3,5	1005,34	7,6	9,5	9,3	1	1	1	1	1	1	1	1	1	0	1	-37,209302	274,938706	286,77696	0
14.01.2021	19:14:54	0	0	4,970966	4,1925	86,2776	0,987	76,999	3,5	1005,56	7,6	9,5	9,3	1	1	1	1	1	1	1	1	1	0	1	-35,658915	274,84852	287,90246	0
14.01.2021	19:14:55	0	0	4,745013	4,00575	96,2316	0,98	76,994	3,5	1005,28	7,6	9,5	9,3	1	1	1	1	1	1	1	1	1	0	1	-31,92389	274,955858	292,143226	0
14.01.2021	19:14:56	0	0	2,485483	3,9705	94,0824	0,981	76,998	3,5	1005,38	7,6	9,5	9,3	1	1	1	1	1	1	1	1	1	0	1	-29,457364	274,998022	294,808578	0
14.01.2021	19:14:57	0	0	2,372506	3,54525	77,2056	0,977	76,997	3,5	1005,46	7,6	9,5	9,3	1	1	1	1	1	1	1	1	1	0	1	-36,715997	274,851623	286,859989	0
14.01.2021	19:14:58	0	0	2,485483	3,252	80,8884	0,982	77,019	3,5	1005,46	7,6	9,5	9,3	1	1	1	1	1	1	1	1	1	0	1	-30,655391	274,867145	292,993695	0
14.01.2021	19:14:59	0	0	2,146553	3,0105	92,97	0,979	77,022	3,5	1005,52	7,6	9,5	9,3	1	1	1	1	1	1	1	1	1	0	1	-35,236082	274,831463	288,244981	0
14.01.2021	19:15:00	0	0	4,293107	3,045	95,9292	0,982	77,033	3,5	1005,34	7,6	9,5	9,3	1	1	1	1	1	1	1	1	1	0	1	-31,501057	274,982395	292,691185	0
14.01.2021	19:15:01	0	0	2,711436	2,88375	81,2088	0,978	77,046	3,5	1005,26	7,6	9,5	9,3	1	1	1	1	1	1	1	1	1	0	1	-31,501057	274,982395	292,691185	0
14.01.2021	19:15:02	0	0	2,711436	2,88375	81,2088	0,978	77,046	3,5	1005,26	7,6	9,5	9,3	1	1	1	1	1	1	1	1	1	0	1	-33,333333	274,867145	290,315753	0
14.01.2021	19:15:03	0	0	2,937389	2,6895	100,3536	0,973	77,062	3,5	1005,36	7,6	9,5	9,3	1	1	1	1	1	1	1	1	1	0	1	-33,051445	275,008968	291,266131	0
14.01.2021	19:15:04	0	0	4,745013	2,832	117,0144	0,977	77,062	3,5	1005,36	7,6	9,5	9,3	1	1	1	1	1	1	1	1	1	0	1	-27,131783	274,977709	297,038363	0
14.01.2021	19:15:05	0	0	4,857989	2,9295	96,2064	0,98	77,074	3,5	1005,4	7,6	9,5	9,3	1	1	1	1	1	1	1	1	1	0	1	-34,883721	274,892006	288,882473	0
14.01.2021	19:15:06	0	0	2,372506	2,9895	97,3188	0,979	77,078	3,5	1005,44	7,6	9,5	9,3	1	1	1	1	1	1	1	1	1	0	1	-30,866808	274,823715	292,577777	0
14.01.2021	19:15:07	0	0	4,857989	3,1155	96,9768	0,97	77,078	3,5	1005,32	7,6	9,5	9,3	1	1	1	1	1	1	1	1	1	0	1	-32,487667	274,881125	291,227269	0
14.01.2021	19:15:08	0	0	4,406083	3,21825	90,3816	0,976	77,081	3,5	1005,48	7,6	9,5	9,3	1	1	1	1	1	1	1	1	1	0	1	-37,491191	274,994895	286,760006	0
14.01.2021	19:15:09	0	0	4,857989	3,273	85,2048	0,974	77,096	3,5	1005,42	7,6	9,5	9,3	1	1	1	1	1	1	1	1	1	0	1	-35,870331	274,881125	287,844605	0
14.01.2021	19:15:10	0	0	4,067154	3,2085	85,932	0,979	77,115	3,5	1005,44	7,6	9,4	9,3	1	1	1	1	1	1	1	1	1	0	1	-34,390416	274,999585	289,882901	0
14.01.2021	19:15:11	0	0	4,406083	3,0015	71,2296	0,974	77,116	3,5	1005,34	7,6	9,5	9,3	1	1	1	1	1	1	1	1	1	0	1	-33,051445	275,010532	291,27351	0
14.01.2021	19:15:12	0	0	4,632036	2,7	62,4636	0,976	77,12	3,5	1005,46	7,6	9,5	9,3	1	1	1	1	1	1	1	1	1	0	1	-33,967583	274,893561	289,805936	0
14.01.2021	19:15:13	0	0	2,372506	2,6685	85,1832	0,975	77,117	3,5	1005,38	7,6	9,5	9,3	1	1	1	1	1	1	1	1	1	0	1	-32,346723	275,00584	291,956097	0
14.01.2021	19:15:14	0	0	2,937389	3,3585	77,184	0,975	77,127	3,5	1005,5	7,6	9,5	9,3	1	1	1	1	1	1	1	1	1	0	1	-34,390416	274,90756	289,449063	0
14.01.2021	19:15:15	0	0	3,615248	3,933	76,806	0,976	77,136	3,5	1005,46	7,6	9,5	9,3	1	1	1	1	1	1	1	1	1	0	1	-34,53136	275,002712	289,756707	0
14.01.2021	19:15:16	0	0	2,711436	3,978	90,8784	0,971	77,125	3,5	1005,36	7,6	9,5	9,3	1	1	1	1	1	1	1	1	1	0	1	-36,786469	274,853175	286,796823	0
14.01.2021	19:15:17	0	0	4,293107	4,071	90,3888	0,975	77,126	3,5	1005,32	7,6	9,5	9,3	1	1	1	1	1	1	1	1	1	0	1	-32,9105	274,982395	291,281742	0
14.01.2021	19:15:18	0	0	4,745013	4,431	87,75	0,974	77,124	3,5	1005,36	7,6	9,5	9,3	1	1	1	1	1	1	1	1	1	0	1	-33,967583	274,977709	290,202563	0
14.01.2021	19:15:19	0	0	4,293107	4,84725	86,976	0,972	77,128	3,5	1005,34	7,6	9,5	9,3	1	1	1	1	1	1	1	1	1	0	1	-32,769556	274,873357	290,90879	0
14.01.2021	19:15:20	0	0	4,745013	4,77975	77,0328	0,971	77,139	3,5	1005,42	7,4	9,5	9,3	1	1	1	1	1	1	1	1	1	0	1	-34,53136	274,965219	289,579894	0
14.01.2021	19:15:21	0	0	3,389295	4,89075	85,9248	0,968	77,133	3,5	1005,36	7,6	9,5	9,3	1	1	1	1	1	1	1	1	1	0	1	-33,192389	274,94806	290,837965	0
14.01.2021	19:15:22	0	0	2,824412	4,9665	88,9416	0,973	77,153	3,5	1005,66	7,6	9,5	9,3	1	1	1	1	1	1	1	1	1	0	1	-30,373502	274,991769	293,862951	0
14.01.2021	19:15:23	0	0	3,050365	4,91325	89,7048	0,974	77,136	3,5	1005,34	7,6	9,5	9,3	1	1	1	1	1	1	1	1	1	0	1	-34,53136	274,870251	289,132354	0
14.01.2021	19:15:24	0	0	4,51906	4,77075	92,9448	0,975	77,133	3,5	1005,4	7,5	9,5	9,3	1	1	1	1	1	1	1	1	1	0	1	-33,826638	275,001149	290,454053	0
14.01.2021	19:15:25	0	0	4,51906	4,554	100,7244	0,975	77,143	3,5	1005,44	7,6	9,5	9,3	1	1	1	1	1	1	1	1	1	0	1	-36,856942	274,871804	286,814088	0
14.01.2021	19:15:26	0	0	2,485483	4,30875	93,8664	0,976	77,141	3,5	1005,54	7,6	9,5	9,3	1	1	1	1	1	1	1	1	1	0	1	-32,276251	274,976147	291,886531	0
14.01.2021	19:15:27	0	0	4,293107	3,996	93,0024	0,974	77,125	3,5	1005,4	7,6	9,5	9,3	1	1	1	1	1	1	1	1	1	0	1	-34,390416	274,828364	289,076053	0
14.01.2021	19:15:28	0	0	3,841201	4,16775	98,0928	0,968	77,134	3,5	1005,34	7,6	9,5	9,3	1	1	1	1	1	1	1	1	1	0	1	-31,92389	274,912229	291,937588	0
14.01.2021	19:15:29	0	0	2,598459	4,08375	116,3412	0,976	77,14	3,5	1005,54	7,6	9,5	9,3	1	1	1	1	1	1	1	1	1	0	1	-38,336857	274,856278	285,261052	0
14.01.2021	19:15:30	0	0	3,954177	3,666	102,546	0,969	77,16	3,5	1005,24	7,6	9,5	9,3	1	1	1	1	1	1	1	1	1	0	1	-35,377026	274,874911	288,308636	0
14.01.2021	19:15:31	0	0	4,406083	3,6255	116,3448	0,969	77,16	3,5	1005,34	7,6	9,5	9,3	1	1	1	1	1	1	1	1	1	0	1	-31,148696	274,840765	292,376162	0
14.01.2021	19:15:32	0	0	3,163342	3,55275	110,3616	0,969	77,167	3,5	1005,28	7,6	9,5	9,3	1	1	1	1	1	1	1	1	1	0	1	-34,038055	274,993332	290,20577	0
14.01.2021	19:15:33	0	0	3,615248	3,459	113,7528	0,974	77,166	3,5	1005,4	7,6	9,5	9,3	1	1	1	1	1	1	1	1	1	0	1	-31,92389	274,865592	291,717883	0
14.01.2021	19:15:34	0	0	4,632036	3,43125	114,102	0,976	77,18	3,5	1005,38	7,6	9,5	9,3	1	1	1	1	1	1	1	1	1	0	1	-30,725863	274,834564	292,769795	0
14.01.2021	19:15:35	0	0	3,502271	3,43875	112,2696	0,971	77,172	3,5	1005,44	7,6	9,5	9,3	1	1	1	1	1	1	1	1	1	0	1	-34,954193	274,840765	288,570665	0
14.01.2021	19:15:36	0	0	4,067154	3,24675	108,5112	0,978	77,164	3,5	1005,46	7,6	9,5	9,3	1	1	1	1	1	1	1	1	1	0	1	-33,333333	274,938706	290,652929	0
14.01.2021	19:15:37	0	0	2,372506	3,16875	104,7456	0,978	77,166	3,5	1005,36	7,6	9,5	9,3	1	1	1	1	1	1	1	1	1	0	1	-28,118393	275,00584	296,184427	0
14.01.2021	19:15:38	0	0	4,858019	3,156	112,6692	0,973	77,177	3,5	1005,36	7,6	9,5	9,2	1	1	1	1	1	1	1	1	1	0	1	-32,980973	274,96678	291,137641	0
14.01.2021	19:15:39	0	0	2,824412	3,23775	106,6572	0,974	77,169	3,5	1005,42	7,6	9,5	9,3	1	1	1	1	1	1	1	1	1	0	1	-36,363636	274,94806	287,666717	0
14.01.2021	19:15:40	0	0	2,937389	3,28425	104,0328	0,974	77,166	3,5	1005,4	7,6	9,5	9,3	1	1	1	1	1	1	1	1	1	0	1	-34,672304	274,828364	288,794165	0
14.01.2021	19:15:41	0	0	4,067154	3,36525	94,356	0,976	77,164	3,5	1005,36	7,6	9,5	9,3	1	1	1	1	1	1	1	1	1	0	1	-42,142354	274,994895	282,108843	0
14.01.2021	19:15:42	0	0	4,51906	3,32925	94,0824	0,976	77,152	3,5	1005,48	7,6	9,5	9,3	1	1	1	1	1	1	1	1	1	0	1	-31,571529	274,873357	292,106816	0
14.01.2021	19:15:43	0	0	2,598459	3,23025	94,0644	0,973	77,151	3,5	1005,34	7,6	9,5	9,3	1	1	1	1	1	1	1	1	1	0	1	-35,16561	274,831463	288,315453	0
14.01.2021	19:15:44	0	0	4,632064	3,075	95,832	0,97	77,15	3,5	1005,38	7,6	9,5	9,2	1	1	1	1	1	1	1	1	1	0	1	-32,628612	274,971463	291,512083	0
14.01.2021	19:15:45	0	0	3,050365	2,9205	101,7756	0,971	77,137	3,5	1005,44	7,6	9,5	9,3	1	1	1	1	1	1	1	1	1	0	1	-29,809725	274,871804	293,861305	0
14.01.2021	19:15:46	0	0	4,632036	2,8605	92,2752	0,972	77,131	3,5	1005,42	7,6	9,5	9,3	1	1	1	1	1	1	1	1	1	0	1	-33,474278	274,81597	289,933848	0
14.01.2021	19:15:47	0	0	3,615248	3,01725	90,4212	0,966	77,137	3,5	1005,3	7,6	9,5	9,3	1	1	1	1	1	1	1	1	1	0	1	-35,729387	274,951178	288,315669	0
14.01.2021	19:15:48	0	0	4,406083	3,06225	85,1868	0,969	77,114	3,5	1005,4	7,6	9,5	9,3	1	1	1	1	1	1	1	1	1	0	1	-34,178999	274,833013	289,309361	0
14.01.2021	19:15:49	0	0	4,406083	2,96925	102,6432	0,971	77,127	3,5	1005,44	7,6	9,4	9,3	1	1	1	1	1	1	1	1	1	0	1	-35,236082	275,002712	289,051985	0
14.01.2021	19:15:50	0	0	3,615248	2,943	97,7112	0,973	77,138	3,5	1005,32	7,6	9,5	9,3	1	1	1	1	1	1	1	1	1	0	1	-34,390416	274,941823	289,610541	0
14.01.2021	19:15:51	0	0	2,824412	2,9835	91,5084	0,968	77,121	3,5	1005,34	7,6	9,5	9,3	1	1	1	1	1	1	1	1	1	0	1	-38,971106	274,932473	284,985776	0
14.01.2021	19:15:52	0	0	2,711436	2,83275	115,9668	0,972	77,13	3,5	1005,44	7,6	9,5	9,3	1	1	1	1	1	1	1	1	1	0	1	-35,658915	274,991769	288,577539	0
14.01.2021	19:15:53	0	0	3,728224	2,73075	86,2812	0,971	77,134	3,5	1005,52	7,6	9,5	9,3	1	1	1	1	1	1	1	1	1	0	1	-31,219168	274,943382	292,789136	0
14.01.2021	19:15:54	0	0	2,711436	2,679	97,3224	0,971	77,12	3,5	1005,66	7,6	9,5	9,3	1	1	1	1	1	1	1	1	1	0	1	-31,078224	274,81597	292,329901	0
14.01.2021	19:15:55	0	0	3,163342	2,67675	82,3248	0,967	77,116	3,5	1005,46	7,6	9,5	9,3	1	1	1	1	1	1	1	1	1	0	1	-36,786469	274,839215	286,731088	0
14.01.2021	19:15:56	0	0	4,18013	2,772	81,288	0,967	77,102	3,5	1005,24	7,6	9,5	9,3	1	1	1	1	1	1	1	1	1	0	1	-33,333333	274,895116	290,447511	0
14.01.2021	19:15:57	0	0	3,954177	2,81475	73,782	0,973	77,107	3,5	1005,38	7,6	9,5	9,3	1	1	1	1	1	1	1	1	1	0	1	-32,205779	274,819068	291,216928	0
14.01.2021	19:15:58	0	0	3,050365	2,9205	80,5068	0,973	77,11	3,5	1005,34	7,6	9,5	9,3	1	1	1	1	1	1	1	1	1	0	1	-35,940803	274,846969	287,613267	0
14.01.2021	19:15:59	0	0	4,406083	2,95725	92,6208	0,973	77,107	3,5	1005,36	7,6	9,4	9,3	1	1	1	1	1	1	1	1	1	0	1	-31,360113	274,881125	292,354824	0
14.01.2021	19:16:00	0	0	2,711436	2,7885	85,5252	0,974	77,093	3,5	1005,42	7,6	9,5	9,3	1	1	1	1	1	1	1	1	1	0	1	-32,628612	274,870251	291,035103	0
14.01.2021	19:16:01	0	0	2,711436	2,7885	85,5252	0,974	77,093	3,5	1005,42	7,6	9,5	9,3	1	1	1	1	1	1	1	1	1	0	1	-32,628612	274,870251	291,035103	0
14.01.2021	19:16:02	0	0	3,502271	2,73	86,9688	0,974	77,097	3,5	1005,54	7,6	9,5	9,3	1	1	1	1	1	1	1	1	1	0	1	-34,672304	274,856278	288,925604	0
14.01.2021	19:16:03	0	0	2,824412	2,60025	90,7776	0,971	77,093	3,5	1005,32	7,6	9,5	9,3	1	1	1	1	1	1	1	1	1	0	1	-34,883721	274,819068	288,538986	0
14.01.2021	19:16:04	0	0	2,485483	2,4255	96,2928	0,973	77,094	3,5	1005,48	7,6	9,5	9,3	1	1	1	1	1	1	1	1	1	0	1	-30,443975	274,834564	293,051684	0
14.01.2021	19:16:05	0	0	4,51906	2,5425	75,2328	0,966	77,078	3,5	1005,48	7,6	9,5	9,3	1	1	1	1	1	1	1	1	1	0	1	-31,92389	274,826814	291,535284	0
14.01.2021	19:16:06	0	0	2,937389	2,49225	77,9652	0,974	77,084	3,5	1005,36	7,6	9,5	9,3	1	1	1	1	1	1	1	1	1	0	1	-35,236082	274,797395	288,084613	0
14.01.2021	19:16:07	0	0	2,824412	2,538	103,6764	0,973	77,087	3,5	1005,24	7,6	9,5	9,3	1	1	1	1	1	1	1	1	1	0	1	-35,095137	274,892006	288,671056	0
14.01.2021	19:16:08	0	0	2,25953	2,52225	68,0256	0,97	77,064	3,5	1005,44	7,6	9,5	9,3	1	1	1	1	1	1	1	1	1	0	1	-35,024665	274,826814	288,434509	0
14.01.2021	19:16:09	0	0	3,615248	2,523	82,5948	0,972	77,064	3,5	1005,38	7,6	9,5	9,3	1	1	1	1	1	1	1	1	1	0	1	-29,386892	274,831463	294,09417	0
14.01.2021	19:16:10	0	0	4,067154	2,697	82,602	0,972	77,071	3,5	1005,42	7,6	9,5	9,3	1	1	1	1	1	1	1	1	1	0	1	-29,950669	274,955858	294,116446	0
14.01.2021	19:16:11	0	0	2,711452	2,5845	81,5868	0,978	77,069	3,5	1005,56	7,6	9,5	9,2	1	1	1	1	1	1	1	1	1	0	1	-36,434109	274,998022	287,831834	0
14.01.2021	19:16:12	0	0	4,857989	2,42925	79,02	0,969	77,054	3,5	1005,4	7,6	9,5	9,3	1	1	1	1	1	1	1	1	1	0	1	-34,038055	274,918455	289,852765	0
14.01.2021	19:16:13	0	0	4,293107	2,364	101,484	0,968	77,035	3,5	1005,26	7,6	9,5	9,3	1	1	1	1	1	1	1	1	1	0	1	-33,54475	274,994895	290,706447	0
14.01.2021	19:16:14	0	0	2,485483	2,41275	105,1272	0,973	77,058	3,5	1005,52	7,4	9,4	9,3	1	1	1	1	1	1	1	1	1	0	1	-29,598309	274,856278	293,9996	0
14.01.2021	19:16:15	0	0	3,728224	2,42925	91,9008	0,976	77,052	3,5	1005,42	7,6	9,5	9,3	1	1	1	1	1	1	1	1	1	0	1	-33,333333	274,820617	290,096666	0
14.01.2021	19:16:16	0	0	4,970966	2,43525	95,5188	0,971	77,054	3,5	1005,26	7,4	9,5	9,3	1	1	1	1	1	1	1	1	1	0	1	-38,336857	274,938706	285,649406	0
14.01.2021	19:16:17	0	0	2,598459	2,59575	90,7812	0,972	77,052	3,5	1005,38	7,6	9,4	9,3	1	1	1	1	1	1	1	1	1	0	1	-33,756166	274,973025	290,39189	0
14.01.2021	19:16:18	0	0	4,40611	2,754	97,6824	0,969	77,041	3,5	1005,56	7,6	9,5	9,2	1	1	1	1	1	1	1	1	1	0	1	-35,024665	274,996458	289,233904	0
14.01.2021	19:16:19	0	0	2,937389	2,89125	107,7336	0,972	77,034	3,5	1005,46	7,4	9,5	9,3	1	1	1	1	1	1	1	1	1	0	1	-36,293164	274,910672	287,56098	0
14.01.2021	19:16:20	0	0	2,937389	3,22725	104,4432	0,978	77,033	3,5	1005,52	7,6	9,5	9,3	1	1	1	1	1	1	1	1	1	0	1	-30,443975	274,969902	293,689359	0
14.01.2021	19:16:21	0	0	2,937407	3,42825	102,5784	0,969	77,015	3,5	1005,42	7,6	9,4	9,2	1	1	1	1	1	1	1	1	1	0	1	-32,980973	274,987081	291,233372	0
14.01.2021	19:16:22	0	0	3,615248	3,30225	111,8196	0,961	77,019	3,5	1005,32	7,6	9,5	9,3	1	1	1	1	1	1	1	1	1	0	1	-34,038055	274,943382	289,97025	0
14.01.2021	19:16:23	0	0	2,824412	3,31425	95,8068	0,969	77,033	3,5	1005,38	7,6	9,5	9,3	1	1	1	1	1	1	1	1	1	0	1	-30,162086	274,795848	293,151327	0
14.01.2021	19:16:24	0	0	3,954177	3,33375	102,9456	0,973	77,034	3,5	1005,38	7,6	9,5	9,3	1	1	1	1	1	1	1	1	1	0	1	-35,588443	274,896671	288,199729	0
14.01.2021	19:16:25	0	0	3,163342	3,4665	101,592	0,971	77,044	3,5	1005,4	7,4	9,5	9,3	1	1	1	1	1	1	1	1	1	0	1	-33,54475	274,831463	289,936312	0
14.01.2021	19:16:26	0	0	3,276318	3,456	90,0324	0,967	77,038	3,5	1005,42	7,4	9,4	9,3	1	1	1	1	1	1	1	1	1	0	1	-36,856942	274,983957	287,342667	0
14.01.2021	19:16:27	0	0	4,18013	3,2595	90,774	0,974	77,027	3,5	1005,28	7,4	9,5	9,3	1	1	1	1	1	1	1	1	1	0	1	-32,346723	274,915342	291,529425	0
14.01.2021	19:16:28	0	0	2,824412	3,201	79,0416	0,969	77,024	3,5	1005,42	7,6	9,5	9,3	1	1	1	1	1	1	1	1	1	0	1	-33,121917	274,809776	290,257054	0
14.01.2021	19:16:29	0	0	2,937389	3,47175	90,4032	0,962	77,028	3,5	1005,34	7,6	9,5	9,3	1	1	1	1	1	1	1	1	1	0	1	-35,377026	274,820617	288,052973	0
14.01.2021	19:16:30	0	0	4,632036	3,984	84,4416	0,971	77,006	3,5	1005,14	7,4	9,5	9,3	1	1	1	1	1	1	1	1	1	0	1	-36,786469	274,805132	286,570642	0
14.01.2021	19:16:31	0	0	4,293107	4,4025	78,2676	0,971	77,021	3,5	1005,44	7,4	9,5	9,3	1	1	1	1	1	1	1	1	1	0	1	-36,997886	274,969902	287,135447	0
14.01.2021	19:16:32	0	0	2,598459	4,74525	78,9984	0,972	77,018	3,5	1005,36	7,4	9,4	9,3	1	1	1	1	1	1	1	1	1	0	1	-34,178999	274,840765	289,345859	0
14.01.2021	19:16:33	0	0	2,711452	5,16975	91,4724	0,968	77,021	3,5	1005,4	7,6	9,5	9,2	1	1	1	1	1	1	1	1	1	0	1	-35,024665	274,962098	289,071873	0
14.01.2021	19:16:34	0	0	2,598459	5,253	92,97	0,969	77,032	3,5	1005,48	7,6	9,5	9,3	1	1	1	1	1	1	1	1	1	0	1	-36,15222	274,987081	288,062125	0
14.01.2021	19:16:35	0	0	3,502271	5,355	99,5112	0,968	77,028	3,5	1005,38	7,4	9,5	9,3	1	1	1	1	1	1	1	1	1	0	1	-35,588443	274,937147	288,390474	0
14.01.2021	19:16:36	0	0	3,389315	5,5515	82,6092	0,968	77,033	3,5	1005,5	7,6	9,4	9,2	1	1	1	1	1	1	1	1	1	0	1	-39,182523	274,84852	284,378852	0
14.01.2021	19:16:37	0	0	3,050384	5,54475	84,7944	0,97	77,031	3,5	1005,42	7,4	9,4	9,2	1	1	1	1	1	1	1	1	1	0	1	-33,967583	274,977709	290,202563	0
14.01.2021	19:16:38	0	0	2,485483	5,45175	87,354	0,966	77,041	3,5	1005,52	7,6	9,5	9,3	1	1	1	1	1	1	1	1	1	0	1	-29,880197	274,870251	293,783517	0
14.01.2021	19:16:39	0	0	2,824412	5,187	85,5108	0,965	77,048	3,5	1005,36	7,4	9,5	9,3	1	1	1	1	1	1	1	1	1	0	1	-35,588443	274,80668	287,775955	0
14.01.2021	19:16:40	0	0	3,502271	4,827	88,56	0,968	77,045	3,5	1005,38	7,4	9,4	9,3	1	1	1	1	1	1	1	1	1	0	1	-30,725863	274,929357	293,216334	0
14.01.2021	19:16:41	0	0	4,293107	4,41075	89,6976	0,965	77,032	3,5	1005,4	7,6	9,5	9,3	1	1	1	1	1	1	1	1	1	0	1	-31,148696	274,924684	292,771478	0
14.01.2021	19:16:42	0	0	4,745013	4,1415	87,3612	0,963	77,022	3,5	1005,4	7,4	9,5	9,3	1	1	1	1	1	1	1	1	1	0	1	-35,729387	274,971463	288,411307	0
14.01.2021	19:16:43	0	0	5,083973	3,99225	83,3292	0,969	77,053	3,5	1005,4	7,6	9,5	9,2	1	1	1	1	1	1	1	1	1	0	1	-37,984496	274,924684	285,935678	0
14.01.2021	19:16:44	0	0	2,598459	3,8025	101,4984	0,965	77,055	3,5	1005,34	7,6	9,5	9,3	1	1	1	1	1	1	1	1	1	0	1	-38,477801	274,957418	285,596669	0
14.01.2021	19:16:45	0	0	4,858019	3,8505	107,0568	0,96	77,059	3,5	1005,56	7,4	9,4	9,2	1	1	1	1	1	1	1	1	1	0	1	-35,729387	274,932473	288,227496	0
14.01.2021	19:16:46	0	0	4,40611	3,828	114,102	0,962	77,104	3,5	1005,42	7,6	9,5	9,2	1	1	1	1	1	1	1	1	1	0	1	-32,135307	274,916899	291,748177	0
14.01.2021	19:16:47	0	0	5,422904	3,663	104,7528	0,968	77,061	3,5	1005,42	7,6	9,5	9,2	1	1	1	1	1	1	1	1	1	0	1	-29,527837	274,982395	294,664405	0
14.01.2021	19:16:48	0	0	4,632064	3,585	98,7444	0,962	77,054	3,5	1005,36	7,6	9,5	9,2	1	1	1	1	1	1	1	1	1	0	1	-32,9105	274,913785	290,958312	0
14.01.2021	19:16:49	0	0	4,745013	3,8175	100,368	0,968	77,064	3,5	1005,3	7,6	9,6	9,3	1	1	1	1	1	1	1	1	1	0	1	-33,333333	274,794301	289,972799	0
14.01.2021	19:16:50	0	0	4,519087	4,14075	98,7624	0,966	77,06	3,5	1005,56	7,6	9,5	9,2	1	1	1	1	1	1	1	1	1	0	1	-36,645525	274,839215	286,872032	0
14.01.2021	19:16:51	0	0	2,598459	4,2945	109,5948	0,968	77,063	3,5	1005,38	7,4	9,5	9,3	1	1	1	1	1	1	1	1	1	0	1	-35,095137	274,854727	288,495463	0
14.01.2021	19:16:52	0	0	3,502271	4,3995	102,546	0,97	77,072	3,5	1005,66	7,6	9,5	9,3	1	1	1	1	1	1	1	1	1	0	1	-32,135307	274,805132	291,221805	0
14.01.2021	19:16:53	0	0	3,954177	4,47675	81,1656	0,962	77,071	3,5	1005,46	7,4	9,5	9,3	1	1	1	1	1	1	1	1	1	0	1	-33,333333	274,834564	290,162325	0
14.01.2021	19:16:54	0	0	4,40611	4,27275	80,5212	0,962	77,082	3,5	1005,52	7,6	9,5	9,2	1	1	1	1	1	1	1	1	1	0	1	-29,457364	274,892006	294,308829	0
14.01.2021	19:16:55	0	0	4,970966	3,8715	90,0396	0,966	77,09	3,5	1005,44	7,6	9,5	9,3	1	1	1	1	1	1	1	1	1	0	1	-39,182523	274,798942	284,145454	0
14.01.2021	19:16:56	0	0	3,050365	3,5445	99,8964	0,969	77,088	3,5	1005,42	7,6	9,4	9,3	1	1	1	1	1	1	1	1	1	0	1	-31,078224	274,825265	292,373655	0
14.01.2021	19:16:57	0	0	3,841201	3,46275	103,6944	0,966	77,104	3,5	1005,42	7,4	9,4	9,3	1	1	1	1	1	1	1	1	1	0	1	-33,615222	274,949619	290,422483	0
14.01.2021	19:16:58	0	0	3,615248	3,68625	100,7244	0,971	77,095	3,5	1005,52	7,4	9,4	9,3	1	1	1	1	1	1	1	1	1	0	1	-38,900634	274,927799	285,034221	0
14.01.2021	19:16:59	0	0	4,067178	3,744	95,85	0,956	77,093	3,5	1005,38	7,6	9,6	9,2	1	1	1	1	1	1	1	1	1	0	1	-33,897111	274,968341	290,228862	0
14.01.2021	19:17:00	0	0	3,728224	3,573	103,3128	0,963	77,105	3,5	1005,24	7,4	9,4	9,3	1	1	1	1	1	1	1	1	1	0	1	-34,954193	274,839215	288,563364	0
14.01.2021	19:17:01	0	0	3,728224	3,573	103,3128	0,963	77,105	3,5	1005,24	7,4	9,4	9,3	1	1	1	1	1	1	1	1	1	0	1	-34,954193	274,839215	288,563364	0
14.01.2021	19:17:02	0	0	4,970996	3,30375	108,1152	0,963	77,104	3,5	1005,38	7,4	9,5	9,2	1	1	1	1	1	1	1	1	1	0	1	-33,967583	274,952738	290,084826	0
14.01.2021	19:17:03	0	0	3,502271	3,07275	104,0616	0,964	77,106	3,5	1005,44	7,4	9,4	9,3	1	1	1	1	1	1	1	1	1	0	1	-33,685694	274,973025	290,462362	0
14.01.2021	19:17:04	0	0	3,728247	3,13275	78,0552	0,968	77,11	3,5	1005,44	7,6	9,4	9,2	1	1	1	1	1	1	1	1	1	0	1	-38,75969	274,920012	285,138468	0
14.01.2021	19:17:05	0	0	2,824412	3,165	93,3228	0,958	77,111	3,5	1005,24	7,4	9,5	9,3	1	1	1	1	1	1	1	1	1	0	1	-31,712474	274,803585	291,637353	0
14.01.2021	19:17:06	0	0	2,598459	3,1425	99,1404	0,96	77,11	3,5	1005,42	7,6	9,4	9,3	1	1	1	1	1	1	1	1	1	0	1	-30,796335	274,788114	292,480682	0
14.01.2021	19:17:07	0	0	2,937389	3,1995	91,9008	0,964	77,107	3,5	1005,28	7,6	9,5	9,3	1	1	1	1	1	1	1	1	1	0	1	-33,967583	274,918455	289,923238	0
14.01.2021	19:17:08	0	0	3,050365	3,28125	92,9484	0,963	77,103	3,5	1005,44	7,5	9,5	9,3	1	1	1	1	1	1	1	1	1	0	1	-33,051445	274,968341	291,074528	0
14.01.2021	19:17:09	0	0	3,61527	3,54375	85,518	0,962	77,105	3,5	1005,42	7,4	9,4	9,2	1	1	1	1	1	1	1	1	1	0	1	-38,407329	274,826814	285,051845	0
14.01.2021	19:17:10	0	0	4,519087	3,84375	83,7396	0,963	77,093	3,5	1005,32	7,5	9,4	9,2	1	1	1	1	1	1	1	1	1	0	1	-33,262861	274,805132	290,094251	0
14.01.2021	19:17:11	0	0	3,954177	3,82725	85,5936	0,961	77,094	3,5	1005,5	7,4	9,4	9,3	1	1	1	1	1	1	1	1	1	0	1	-40,310078	274,955858	283,757038	0
14.01.2021	19:17:12	0	0	4,632036	3,74925	87,7572	0,957	77,084	3,5	1005,36	7,4	9,4	9,3	1	1	1	1	1	1	1	1	1	0	1	-35,658915	274,935589	288,312657	0
14.01.2021	19:17:13	0	0	2,711436	3,735	73,4256	0,96	77,092	3,5	1005,38	7,4	9,5	9,3	1	1	1	1	1	1	1	1	1	0	1	-38,548273	274,90756	285,291205	0
14.01.2021	19:17:14	0	0	4,51906	3,954	90,0288	0,961	77,077	3,5	1005,18	7,4	9,4	9,3	1	1	1	1	1	1	1	1	1	0	1	-32,628612	274,797395	290,692083	0
14.01.2021	19:17:15	0	0	2,485483	3,81225	69,1524	0,964	77,096	3,5	1005,34	7,4	9,4	9,3	1	1	1	1	1	1	1	1	1	0	1	-36,927414	274,86404	286,707047	0
14.01.2021	19:17:16	0	0	4,519087	3,69225	54,81	0,959	77,093	3,5	1005,38	7,5	9,6	9,2	1	1	1	1	1	1	1	1	1	0	1	-37,350247	274,962098	286,746292	0
14.01.2021	19:17:17	0	0	3,163361	3,59625	60,2316	0,962	77,084	3,5	1005,5	7,5	9,5	9,2	1	1	1	1	1	1	1	1	1	0	1	-32,9105	274,968341	291,215472	0
14.01.2021	19:17:18	0	0	4,51906	3,41175	66,5568	0,96	77,095	3,5	1005,48	7,4	9,4	9,3	1	1	1	1	1	1	1	1	1	0	1	-35,024665	274,918455	288,866155	0
14.01.2021	19:17:19	0	0	2,598475	3,168	82,5588	0,961	77,089	3,5	1005,4	7,5	9,5	9,2	1	1	1	1	1	1	1	1	1	0	1	-34,319944	274,968341	289,806029	0
14.01.2021	19:17:20	0	0	2,937407	3,08625	85,932	0,959	77,089	3,5	1005,46	7,6	9,4	9,2	1	1	1	1	1	1	1	1	1	0	1	-35,799859	274,828364	287,66661	0
14.01.2021	19:17:21	0	0	2,598459	3,228	81,9504	0,953	77,078	3,5	1005,32	7,4	9,5	9,3	1	1	1	1	1	1	1	1	1	0	1	-38,830162	274,968341	285,295811	0
14.01.2021	19:17:22	0	0	3,841224	3,5025	74,9232	0,957	77,059	3,5	1005,22	7,4	9,4	9,2	1	1	1	1	1	1	1	1	1	0	1	-36,222692	274,963659	287,881204	0
14.01.2021	19:17:23	0	0	3,841201	3,49425	79,416	0,963	77,059	3,5	1005,36	7,4	9,5	9,3	1	1	1	1	1	1	1	1	1	0	1	-35,799859	274,840765	287,724999	0
14.01.2021	19:17:24	0	0	4,180155	3,6465	80,9136	0,952	77,066	3,5	1005,34	7,4	9,4	9,2	1	1	1	1	1	1	1	1	1	0	1	-32,9105	274,812873	290,483046	0
14.01.2021	19:17:25	0	0	3,615248	4,311	94,3668	0,954	77,066	3,5	1005,4	7,6	9,5	9,3	1	1	1	1	1	1	1	1	1	0	1	-35,024665	274,974586	289,130753	0
14.01.2021	19:17:26	0	0	3,163361	4,158	97,326	0,954	77,071	3,5	1005,34	7,4	9,5	9,2	1	1	1	1	1	1	1	1	1	0	1	-35,16561	274,803585	288,184217	0
14.01.2021	19:17:27	0	0	3,050384	4,2405	95,8248	0,954	77,084	3,5	1005,24	7,4	9,6	9,2	1	1	1	1	1	1	1	1	1	0	1	-34,883721	274,935589	289,08785	0
14.01.2021	19:17:28	0	0	3,050384	4,188	91,1628	0,955	77,09	3,5	1005,44	7,4	9,4	9,2	1	1	1	1	1	1	1	1	1	0	1	-34,813249	274,867145	288,835837	0
14.01.2021	19:17:29	0	0	3,389315	4,18575	96,9696	0,956	77,086	3,5	1005,32	7,4	9,5	9,2	1	1	1	1	1	1	1	1	1	0	1	-33,403805	274,973025	290,744251	0
14.01.2021	19:17:30	0	0	4,858019	4,1985	101,1168	0,957	77,096	3,5	1005,5	7,5	9,6	9,2	1	1	1	1	1	1	1	1	1	0	1	-32,840028	274,929357	291,102169	0
14.01.2021	19:17:31	0	0	4,40611	4,25775	78,282	0,945	77,092	3,5	1005,34	7,5	9,4	9,2	1	1	1	1	1	1	1	1	1	0	1	-33,685694	274,794301	289,620438	0
14.01.2021	19:17:32	0	0	5,083973	4,1145	76,0032	0,95	77,107	3,5	1005,32	7,6	9,5	9,2	1	1	1	1	1	1	1	1	1	0	1	-36,363636	274,926242	287,563878	0
14.01.2021	19:17:33	0	0	4,40611	4,239	95,1516	0,951	77,103	3,5	1005,4	7,4	9,4	9,2	1	1	1	1	1	1	1	1	1	0	1	-33,121917	274,831463	290,359145	0
14.01.2021	19:17:34	0	0	4,632064	4,4985	114,0948	0,949	77,116	3,5	1005,3	7,4	9,5	9,2	1	1	1	1	1	1	1	1	1	0	1	-37,632135	274,980833	286,55274	0
14.01.2021	19:17:35	0	0	4,745041	4,46325	83,3472	0,953	77,108	3,5	1005,38	7,5	9,5	9,2	1	1	1	1	1	1	1	1	1	0	1	-37,13883	274,825265	286,313049	0
14.01.2021	19:17:36	0	0	2,033589	4,029	96,57	0,948	77,121	3,5	1005,56	7,4	9,5	9,2	1	1	1	1	1	1	1	1	1	0	1	-32,064834	274,798942	291,263142	0
14.01.2021	19:17:37	0	0	4,51906	3,9495	86,6484	0,953	77,135	3,5	1005,46	7,4	9,5	9,3	1	1	1	1	1	1	1	1	1	0	1	-34,390416	274,792754	288,908437	0
14.01.2021	19:17:38	0	0	2,259544	3,99675	98,4456	0,954	77,145	3,5	1005,36	7,4	9,5	9,2	1	1	1	1	1	1	1	1	1	0	1	-34,601832	274,929357	289,340365	0
14.01.2021	19:17:39	0	0	2,598475	4,13775	102,924	0,95	77,136	3,5	1005,38	7,4	9,4	9,2	1	1	1	1	1	1	1	1	1	0	1	-36,081748	274,794301	287,224385	0
14.01.2021	19:17:40	0	0	2,711436	4,45575	105,8832	0,954	77,131	3,5	1005,46	7,4	9,5	9,3	1	1	1	1	1	1	1	1	1	0	1	-33,262861	274,865592	290,378912	0
14.01.2021	19:17:41	0	0	3,050384	4,48575	105,8832	0,949	77,145	3,5	1005,54	7,4	9,4	9,2	1	1	1	1	1	1	1	1	1	0	1	-31,853418	274,786567	291,416322	0
14.01.2021	19:17:42	0	0	4,40611	4,6965	101,4876	0,952	77,148	3,5	1005,5	7,4	9,6	9,2	1	1	1	1	1	1	1	1	1	0	1	-33,262861	274,937147	290,716055	0
14.01.2021	19:17:43	0	0	4,858019	4,995	96,1776	0,954	77,154	3,5	1005,46	7,5	9,4	9,2	1	1	1	1	1	1	1	1	1	0	1	-38,336857	274,823715	285,107728	0
14.01.2021	19:17:44	0	0	3,502292	5,157	93,762	0,954	77,178	3,5	1005,6	7,5	9,4	9,2	1	1	1	1	1	1	1	1	1	0	1	-37,420719	274,769565	285,76902	0
14.01.2021	19:17:45	0	0	3,163361	5,22675	99,144	0,948	77,157	3,5	1005,42	7,5	9,4	9,2	1	1	1	1	1	1	1	1	1	0	1	-33,756166	274,836114	289,746791	0
14.01.2021	19:17:46	0	0	3,728247	5,514	102,942	0,948	77,158	3,5	1005,32	7,5	9,5	9,2	1	1	1	1	1	1	1	1	1	0	1	-31,289641	274,778837	291,943725	0
14.01.2021	19:17:47	0	0	3,163361	5,67825	101,5056	0,965	77,173	3,5	1005,56	7,4	9,5	9,2	1	1	1	1	1	1	1	1	1	0	1	-33,615222	274,85783	289,989995	0
14.01.2021	19:17:48	0	0	3,728247	5,43225	102,5424	0,949	77,18	3,5	1005,38	7,5	9,4	9,2	1	1	1	1	1	1	1	1	1	0	1	-35,51797	274,775746	287,70085	0
14.01.2021	19:17:49	0	0	2,598459	5,17275	110,6784	0,948	77,174	3,5	1005,32	7,5	9,5	9,3	1	1	1	1	1	1	1	1	1	0	1	-36,504581	274,882679	287,217676	0
14.01.2021	19:17:50	0	0	2,485498	5,007	115,9632	0,945	77,186	3,5	1005,42	7,5	9,6	9,2	1	1	1	1	1	1	1	1	1	0	1	-31,219168	274,952738	292,83324	0
14.01.2021	19:17:51	0	0	2,372521	4,67625	110,3724	0,941	77,19	3,5	1005,52	7,5	9,4	9,2	1	1	1	1	1	1	1	1	1	0	1	-33,262861	274,974586	290,892557	0
14.01.2021	19:17:52	0	0	3,502292	4,626	106,6824	0,938	77,192	3,5	1005,5	7,5	9,5	9,2	1	1	1	1	1	1	1	1	1	0	1	-32,276251	274,899781	291,526576	0
14.01.2021	19:17:53	0	0	3,61527	4,62675	108,4824	0,942	77,181	3,5	1005,32	7,5	9,4	9,2	1	1	1	1	1	1	1	1	1	0	1	-32,9105	274,785021	290,351963	0
14.01.2021	19:17:54	0	0	2,711452	4,725	98,7516	0,954	77,196	3,5	1005,32	7,5	9,4	9,2	1	1	1	1	1	1	1	1	1	0	1	-32,346723	274,800489	290,988536	0
14.01.2021	19:17:55	0	0	4,519087	4,737	89,7012	0,946	77,199	3,5	1005,48	7,4	9,6	9,2	1	1	1	1	1	1	1	1	1	0	1	-34,813249	274,951178	289,231808	0
14.01.2021	19:17:56	0	0	2,937389	4,5945	93,7152	0,946	77,215	3,5	1005,36	7,4	9,5	9,3	1	1	1	1	1	1	1	1	1	0	1	-33,54475	274,808228	289,826934	0
14.01.2021	19:17:57	0	0	4,745041	4,58175	84,798	0,946	77,225	3,5	1005,5	7,5	9,4	9,2	1	1	1	1	1	1	1	1	1	0	1	-33,897111	274,78966	289,387184	0
14.01.2021	19:17:58	0	0	3,954201	4,383	84,0384	0,947	77,22	3,5	1005,5	7,5	9,5	9,2	1	1	1	1	1	1	1	1	1	0	1	-37,209302	274,785021	286,053161	0
14.01.2021	19:17:59	0	0	4,18013	4,10475	81,6048	0,947	77,243	3,5	1005,46	7,5	9,4	9,3	1	1	1	1	1	1	1	1	1	0	1	-31,360113	274,909116	292,486698	0
14.01.2021	19:18:00	0	0	3,61527	3,84975	84,4164	0,951	77,248	3,5	1005,38	7,5	9,6	9,2	1	1	1	1	1	1	1	1	1	0	1	-38,548273	274,842316	284,983887	0
14.01.2021	19:18:01	0	0	3,61527	3,84975	84,4164	0,951	77,248	3,5	1005,38	7,5	9,6	9,2	1	1	1	1	1	1	1	1	1	0	1	-38,548273	274,842316	284,983887	0
14.01.2021	19:18:02	0	0	2,598475	3,73875	81,6624	0,948	77,26	3,5	1005,34	7,5	9,5	9,2	1	1	1	1	1	1	1	1	1	0	1	-34,672304	274,785021	288,590159	0
14.01.2021	19:18:03	0	0	3,502292	3,8205	76,8168	0,949	77,272	3,5	1005,36	7,5	9,4	9,2	1	1	1	1	1	1	1	1	1	0	1	-32,9105	274,800489	290,424759	0
14.01.2021	19:18:04	0	0	4,293133	3,909	77,9436	0,951	77,276	3,5	1005,4	7,5	9,4	9,2	1	1	1	1	1	1	1	1	1	0	1	-35,658915	274,839215	287,858643	0
14.01.2021	19:18:05	0	0	4,858019	3,97125	84,8088	0,968	77,291	3,5	1005,56	7,4	9,5	9,2	1	1	1	1	1	1	1	1	1	0	1	-32,346723	274,951178	291,698333	0
14.01.2021	19:18:06	0	0	4,632064	3,909	78,2676	0,947	77,275	3,5	1005,32	7,5	9,5	9,2	1	1	1	1	1	1	1	1	1	0	1	-34,038055	274,831463	289,443007	0
14.01.2021	19:18:07	0	0	2,485498	3,9495	84,0168	0,948	77,289	3,5	1005,44	7,4	9,5	9,2	1	1	1	1	1	1	1	1	1	0	1	-34,53136	274,77111	288,665648	0
14.01.2021	19:18:08	0	0	4,40611	4,32975	86,9688	0,944	77,291	3,5	1005,32	7,5	9,4	9,2	1	1	1	1	1	1	1	1	1	0	1	-34,742777	274,927799	289,192079	0
14.01.2021	19:18:09	0	0	2,372521	4,64925	96,9516	0,946	77,294	3,5	1005,46	7,4	9,5	9,2	1	1	1	1	1	1	1	1	1	0	1	-34,813249	274,823715	288,631336	0
14.01.2021	19:18:10	0	0	3,050365	4,818	100,7388	0,946	77,295	3,5	1005,38	7,5	9,4	9,3	1	1	1	1	1	1	1	1	1	0	1	-36,363636	274,831463	287,117426	0
14.01.2021	19:18:11	0	0	2,598475	4,767	70,2108	0,948	77,284	3,5	1005,48	7,5	9,4	9,2	1	1	1	1	1	1	1	1	1	0	1	-31,712474	274,960538	292,376708	0
14.01.2021	19:18:12	0	0	2,711452	4,683	75,2184	0,939	77,283	3,5	1005,34	7,5	9,5	9,2	1	1	1	1	1	1	1	1	1	0	1	-35,658915	274,890451	288,099954	0
14.01.2021	19:18:13	0	0	2,824429	4,13625	71,9676	0,946	77,284	3,5	1005,4	7,5	9,5	9,2	1	1	1	1	1	1	1	1	1	0	1	-35,658915	274,778837	287,57445	0
14.01.2021	19:18:14	0	0	4,745041	3,81825	63,1764	0,937	77,27	3,5	1005,3	7,5	9,4	9,2	1	1	1	1	1	1	1	1	1	0	1	-38,618746	274,812873	284,774801	0
14.01.2021	19:18:15	0	0	2,372521	3,70125	78,6384	0,935	77,264	3,5	1005,36	7,5	9,5	9,2	1	1	1	1	1	1	1	1	1	0	1	-36,011276	274,80668	287,353122	0
14.01.2021	19:18:16	0	0	2,824429	4,0425	73,4328	0,941	77,254	3,5	1005,48	7,5	9,5	9,2	1	1	1	1	1	1	1	1	1	0	1	-37,984496	274,932473	285,972387	0
14.01.2021	19:18:17	0	0	3,954201	4,6065	65,4804	0,94	77,266	3,5	1005,4	7,4	9,4	9,2	1	1	1	1	1	1	1	1	1	0	1	-34,319944	274,909116	289,526867	0
14.01.2021	19:18:18	0	0	2,824429	5,001	80,8812	0,944	77,262	3,5	1005,42	7,5	9,5	9,2	1	1	1	1	1	1	1	1	1	0	1	-36,786469	274,752578	286,323353	0
14.01.2021	19:18:19	0	0	4,858019	5,2005	88,5924	0,937	77,251	3,5	1005,32	7,5	9,5	9,2	1	1	1	1	1	1	1	1	1	0	1	-37,702607	274,879571	286,005009	0
14.01.2021	19:18:20	0	0	3,050384	5,703	106,4304	0,941	77,255	3,5	1005,32	7,5	9,5	9,2	1	1	1	1	1	1	1	1	1	0	1	-34,319944	274,944941	289,69571	0
14.01.2021	19:18:21	0	0	4,180155	5,97975	90,0252	0,939	77,243	3,5	1005,42	7,5	9,5	9,2	1	1	1	1	1	1	1	1	1	0	1	-35,16561	274,814422	288,235226	0
14.01.2021	19:18:22	0	0	4,632064	6,1065	94,3812	0,941	77,255	3,5	1005,46	7,5	9,5	9,2	1	1	1	1	1	1	1	1	1	0	1	-31,712474	274,76802	291,469996	0
14.01.2021	19:18:23	0	0	3,728247	6,4455	78,6708	0,943	77,244	3,5	1005,42	7,5	9,5	9,2	1	1	1	1	1	1	1	1	1	0	1	-35,940803	274,758753	287,198069	0
14.01.2021	19:18:24	0	0	2,372521	5,853	85,896	0,945	77,255	3,5	1005,44	7,5	9,5	9,2	1	1	1	1	1	1	1	1	1	0	1	-33,403805	274,794301	289,902327	0
14.01.2021	19:18:25	0	0	3,841224	5,574	82,5732	0,941	77,261	3,5	1005,5	7,5	9,5	9,2	1	1	1	1	1	1	1	1	1	0	1	-36,081748	274,952738	287,970661	0
14.01.2021	19:18:26	0	0	3,728247	5,47125	99,1224	0,938	77,252	3,5	1005,52	7,5	9,4	9,2	1	1	1	1	1	1	1	1	1	0	1	-37,77308	274,893561	286,000439	0
14.01.2021	19:18:27	0	0	3,954177	5,118	96,1956	0,939	77,24	3,5	1005,44	7,5	9,5	9,3	1	1	1	1	1	1	1	1	1	0	1	-30,021142	274,781929	293,226771	0
14.01.2021	19:18:28	0	0	2,937407	5,06475	98,0712	0,935	77,239	3,5	1005,38	7,4	9,5	9,2	1	1	1	1	1	1	1	1	1	0	1	-34,954193	274,899781	288,848634	0
14.01.2021	19:18:29	0	0	3,61527	4,869	94,3668	0,947	77,238	3,5	1005,44	7,5	9,5	9,2	1	1	1	1	1	1	1	1	1	0	1	-34,53136	274,783475	288,723828	0
14.01.2021	19:18:30	0	0	4,858019	4,8435	107,046	0,934	77,234	3,5	1005,38	7,5	9,5	9,2	1	1	1	1	1	1	1	1	1	0	1	-35,799859	274,896671	287,988312	0
14.01.2021	19:18:31	0	0	3,502292	4,44075	128,6496	0,938	77,23	3,5	1005,34	7,5	9,5	9,2	1	1	1	1	1	1	1	1	1	0	1	-31,712474	274,934031	292,251753	0
14.01.2021	19:18:32	0	0	4,293133	4,19175	109,962	0,941	77,242	3,5	1005,5	7,5	9,5	9,2	1	1	1	1	1	1	1	1	1	0	1	-33,403805	274,780383	289,836833	0
14.01.2021	19:18:33	0	0	3,61527	3,90975	97,3224	0,939	77,234	3,5	1005,34	7,5	9,5	9,2	1	1	1	1	1	1	1	1	1	0	1	-35,658915	274,898226	288,136584	0
14.01.2021	19:18:34	0	0	3,954201	3,7095	116,658	0,941	77,252	3,5	1005,34	7,5	9,5	9,2	1	1	1	1	1	1	1	1	1	0	1	-35,024665	274,758753	288,114208	0
14.01.2021	19:18:35	0	0	3,841224	3,63075	108,8424	0,936	77,233	3,5	1005,42	7,5	9,5	9,2	1	1	1	1	1	1	1	1	1	0	1	-32,064834	274,85783	291,540383	0
14.01.2021	19:18:36	0	0	4,180155	3,7215	107,7264	0,936	77,226	3,5	1005,52	7,5	9,5	9,2	1	1	1	1	1	1	1	1	1	0	1	-33,403805	274,940265	290,589804	0
14.01.2021	19:18:37	0	0	2,711452	3,58725	107,4204	0,938	77,239	3,5	1005,46	7,5	9,5	9,2	1	1	1	1	1	1	1	1	1	0	1	-35,729387	274,775746	287,489433	0
14.01.2021	19:18:38	0	0	4,067178	3,7875	89,316	0,933	77,244	3,5	1005,44	7,5	9,5	9,2	1	1	1	1	1	1	1	1	1	0	1	-35,16561	274,893561	288,607909	0
14.01.2021	19:18:39	0	0	3,61527	3,7575	102,9456	0,939	77,222	3,5	1005,34	7,5	9,5	9,2	1	1	1	1	1	1	1	1	1	0	1	-35,024665	274,941823	288,976291	0
14.01.2021	19:18:40	0	0	2,937407	3,71625	115,1892	0,939	77,247	3,5	1005,4	7,5	9,5	9,2	1	1	1	1	1	1	1	1	1	0	1	-33,192389	274,867145	290,456697	0
14.01.2021	19:18:41	0	0	2,937407	3,69975	111,8196	0,941	77,252	3,5	1005,54	7,5	9,5	9,2	1	1	1	1	1	1	1	1	1	0	1	-37,209302	274,746404	285,87148	0
14.01.2021	19:18:42	0	0	4,632064	3,2925	107,4096	0,934	77,242	3,5	1005,46	7,5	9,5	9,2	1	1	1	1	1	1	1	1	1	0	1	-37,209302	274,833013	286,279058	0
14.01.2021	19:18:43	0	0	4,40611	2,9355	93,3336	0,937	77,248	3,5	1005,56	7,5	9,5	9,2	1	1	1	1	1	1	1	1	1	0	1	-35,729387	274,781929	287,518526	0
14.01.2021	19:18:44	0	0	2,937407	2,97225	87,7032	0,935	77,243	3,5	1005,56	7,5	9,5	9,2	1	1	1	1	1	1	1	1	1	0	1	-37,561663	274,924684	286,358511	0
14.01.2021	19:18:45	0	0	4,40611	2,9985	96,9624	0,936	77,26	3,5	1005,2	7,5	9,5	9,2	1	1	1	1	1	1	1	1	1	0	1	-32,064834	274,795848	291,248579	0
14.01.2021	19:18:46	0	0	3,728247	2,7585	72,0036	0,935	77,267	3,5	1005,48	7,5	9,5	9,2	1	1	1	1	1	1	1	1	1	0	1	-34,390416	274,743318	288,675851	0
14.01.2021	19:18:47	0	0	2,937407	3,201	85,878	0,936	77,27	3,5	1005,42	7,5	9,5	9,2	1	1	1	1	1	1	1	1	1	0	1	-29,386892	274,798942	293,941084	0
14.01.2021	19:18:48	0	0	3,61527	3,597	85,5144	0,935	77,278	3,5	1005,46	7,5	9,5	9,2	1	1	1	1	1	1	1	1	1	0	1	-35,447498	274,873357	288,230848	0
14.01.2021	19:18:49	0	0	2,711452	3,7245	105,8796	0,933	77,277	3,5	1005,46	7,5	9,5	9,2	1	1	1	1	1	1	1	1	1	0	1	-34,53136	274,769565	288,658378	0
14.01.2021	19:18:50	0	0	4,293133	4,083	83,0484	0,936	77,284	3,5	1005,38	7,5	9,5	9,2	1	1	1	1	1	1	1	1	1	0	1	-37,702607	274,854727	285,887993	0
14.01.2021	19:18:51	0	0	3,841224	4,41825	83,358	0,932	77,276	3,5	1005,46	7,5	9,5	9,2	1	1	1	1	1	1	1	1	1	0	1	-35,447498	274,906004	288,384649	0
14.01.2021	19:18:52	0	0	3,163361	4,4445	90,3852	0,935	77,304	3,5	1005,36	7,5	9,5	9,2	1	1	1	1	1	1	1	1	1	0	1	-37,77308	274,940265	286,22053	0
14.01.2021	19:18:53	0	0	2,824429	4,701	98,4384	0,935	77,32	3,5	1005,5	7,5	9,5	9,2	1	1	1	1	1	1	1	1	1	0	1	-35,940803	274,783475	287,314385	0
14.01.2021	19:18:54	0	0	2,372521	5,12475	104,4828	0,935	77,341	3,5	1005,46	7,5	9,5	9,2	1	1	1	1	1	1	1	1	1	0	1	-35,095137	274,921569	288,810358	0
14.01.2021	19:18:55	0	0	2,711452	5,115	104,7456	0,934	77,343	3,5	1005,46	7,5	9,5	9,2	1	1	1	1	1	1	1	1	1	0	1	-34,178999	274,737147	288,858245	0
14.01.2021	19:18:56	0	0	4,745041	4,7595	108,4968	0,937	77,346	3,5	1005,64	7,5	9,5	9,2	1	1	1	1	1	1	1	1	1	0	1	-35,377026	274,839215	288,140531	0
14.01.2021	19:18:57	0	0	2,598459	4,338	124,6752	0,926	77,347	3,5	1005,46	7,5	9,5	9,3	1	1	1	1	1	1	1	1	1	0	1	-33,051445	274,77111	290,145563	0
14.01.2021	19:18:58	0	0	2,711452	4,8675	124,9992	0,935	77,364	3,5	1005,48	7,5	9,5	9,2	1	1	1	1	1	1	1	1	1	0	1	-31,712474	274,814422	291,688362	0
14.01.2021	19:18:59	0	0	3,050384	5,71725	121,6476	0,935	77,373	3,5	1005,4	7,5	9,5	9,2	1	1	1	1	1	1	1	1	1	0	1	-32,487667	274,920012	291,41049	0
14.01.2021	19:19:00	0	0	3,163361	6,3315	114,1992	0,934	77,372	3,5	1005,34	7,5	9,5	9,2	1	1	1	1	1	1	1	1	1	0	1	-35,729387	274,822166	287,707905	0
14.01.2021	19:19:01	0	0	3,163361	6,3315	114,1992	0,934	77,372	3,5	1005,34	7,5	9,5	9,2	1	1	1	1	1	1	1	1	1	0	1	-35,729387	274,822166	287,707905	0
14.01.2021	19:19:02	0	0	2,937389	6,252	122,3928	0,939	77,368	3,5	1005,44	7,5	9,5	9,3	1	1	1	1	1	1	1	1	1	0	1	-30,232558	274,754121	292,884526	0
14.01.2021	19:19:03	0	0	4,406083	6,345	101,7972	0,923	77,35	3,5	1005,28	7,5	9,5	9,3	1	1	1	1	1	1	1	1	1	0	1	-34,883721	274,879571	288,823896	0
14.01.2021	19:19:04	0	0	2,937407	5,8605	98,4564	0,935	77,373	3,5	1005,34	7,5	9,5	9,2	1	1	1	1	1	1	1	1	1	0	1	-31,782946	274,895116	291,997899	0
14.01.2021	19:19:05	0	0	3,954201	5,256	92,3544	0,927	77,36	3,5	1005,34	7,5	9,5	9,2	1	1	1	1	1	1	1	1	1	0	1	-35,447498	274,752578	287,662324	0
14.01.2021	19:19:06	0	0	3,728247	4,75575	103,6764	0,931	77,37	3,5	1005,42	7,5	9,5	9,2	1	1	1	1	1	1	1	1	1	0	1	-31,712474	274,798942	291,615503	0
14.01.2021	19:19:07	0	0	4,632064	4,24125	129,834	0,927	77,365	3,5	1005,52	7,5	9,5	9,2	1	1	1	1	1	1	1	1	1	0	1	-33,192389	274,909116	290,654422	0
14.01.2021	19:19:08	0	0	3,61527	3,89175	111,816	0,934	77,388	3,5	1005,48	7,5	9,5	9,2	1	1	1	1	1	1	1	1	1	0	1	-37,491191	274,926242	286,436324	0
14.01.2021	19:19:09	0	0	3,163361	3,444	107,4312	0,931	77,384	3,5	1005,52	7,5	9,5	9,2	1	1	1	1	1	1	1	1	1	0	1	-34,390416	274,85783	289,214802	0
14.01.2021	19:19:10	0	0	2,711452	3,38925	116,3448	0,935	77,381	3,5	1005,42	7,5	9,5	9,2	1	1	1	1	1	1	1	1	1	0	1	-37,491191	274,934031	286,473036	0
14.01.2021	19:19:11	0	0	2,824429	3,39225	120,4956	0,928	77,37	3,5	1005,28	7,5	9,5	9,2	1	1	1	1	1	1	1	1	1	0	1	-33,192389	274,836114	290,310568	0
14.01.2021	19:19:12	0	0	3,163361	3,288	109,2204	0,929	77,371	3,5	1005,48	7,6	9,4	9,2	1	1	1	1	1	1	1	1	1	0	1	-32,840028	274,763386	290,32064	0
14.01.2021	19:19:13	0	0	4,067178	3,19575	103,2984	0,92	77,35	3,5	1005,34	7,5	9,5	9,2	1	1	1	1	1	1	1	1	1	0	1	-34,883721	274,859383	288,728806	0
14.01.2021	19:19:14	0	0	4,067178	2,9535	121,6332	0,929	77,348	3,5	1005,5	7,5	9,5	9,2	1	1	1	1	1	1	1	1	1	0	1	-38,477801	274,937147	285,501115	0
14.01.2021	19:19:15	0	0	4,293133	2,72925	132,7608	0,929	77,352	3,5	1005,36	7,5	9,5	9,2	1	1	1	1	1	1	1	1	1	0	1	-34,178999	274,797395	289,141695	0
14.01.2021	19:19:16	0	0	4,519087	3,50475	116,3484	0,93	77,355	3,5	1005,42	7,5	9,5	9,2	1	1	1	1	1	1	1	1	1	0	1	-37,279774	274,754121	285,837309	0
14.01.2021	19:19:17	0	0	4,180155	3,98475	100,332	0,927	77,367	3,5	1005,48	7,5	9,4	9,2	1	1	1	1	1	1	1	1	1	0	1	-35,870331	274,920012	288,027827	0
14.01.2021	19:19:18	0	0	4,293133	3,8775	99,882	0,924	77,356	3,5	1005,36	7,5	9,5	9,2	1	1	1	1	1	1	1	1	1	0	1	-34,954193	274,843867	288,58527	0
14.01.2021	19:19:19	0	0	3,841224	3,73275	131,598	0,926	77,339	3,5	1005,4	7,5	9,5	9,2	1	1	1	1	1	1	1	1	1	0	1	-37,914024	274,924684	286,00615	0
14.01.2021	19:19:20	0	0	4,858019	3,948	108,5004	0,928	77,335	3,5	1005,38	7,5	9,5	9,2	1	1	1	1	1	1	1	1	1	0	1	-34,601832	274,902892	289,215653	0
14.01.2021	19:19:21	0	0	4,632036	4,28775	109,2276	0,927	77,318	3,5	1005,36	7,5	9,5	9,3	1	1	1	1	1	1	1	1	1	0	1	-33,967583	274,923127	289,945252	0
14.01.2021	19:19:22	0	0	3,163342	4,608	108,4716	0,929	77,331	3,5	1005,28	7,5	9,5	9,3	1	1	1	1	1	1	1	1	1	0	1	-32,135307	274,775746	291,083514	0
14.01.2021	19:19:23	0	0	2,485483	4,9125	101,502	0,93	77,337	3,5	1005,06	7,5	9,5	9,3	1	1	1	1	1	1	1	1	1	0	1	-31,007752	274,795848	292,305661	0
14.01.2021	19:19:24	0	0	4,293133	5,133	101,8008	0,923	77,321	3,5	1005,3	7,5	9,5	9,2	1	1	1	1	1	1	1	1	1	0	1	-32,135307	274,937147	291,84361	0
14.01.2021	19:19:25	0	0	2,598475	4,97475	106,6824	0,927	77,331	3,5	1005,44	7,5	9,5	9,2	1	1	1	1	1	1	1	1	1	0	1	-31,148696	274,85783	292,456521	0
14.01.2021	19:19:26	0	0	3,61527	4,77225	113,022	0,931	77,314	3,5	1005,44	7,5	9,5	9,2	1	1	1	1	1	1	1	1	1	0	1	-29,175476	274,921569	294,73002	0
14.01.2021	19:19:27	0	0	4,180155	4,599	106,2864	0,925	77,297	3,5	1005,32	7,5	9,5	9,2	1	1	1	1	1	1	1	1	1	0	1	-32,346723	274,817519	291,068693	0
14.01.2021	19:19:28	0	0	3,841224	4,482	99,1332	0,923	77,298	3,5	1005,22	7,5	9,5	9,2	1	1	1	1	1	1	1	1	1	0	1	-35,16561	274,755665	287,958736	0
14.01.2021	19:19:29	0	0	3,502271	4,5315	108,126	0,925	77,314	3,5	1005,56	7,5	9,5	9,3	1	1	1	1	1	1	1	1	1	0	1	-31,92389	274,918455	291,96693	0
14.01.2021	19:19:30	0	0	2,937389	4,62675	92,9412	0,922	77,302	3,5	1005,5	7,5	9,5	9,3	1	1	1	1	1	1	1	1	1	0	1	-32,205779	274,808228	291,165905	0
14.01.2021	19:19:31	0	0	4,745041	5,11125	99,9144	0,924	77,287	3,5	1005,42	7,4	9,5	9,2	1	1	1	1	1	1	1	1	1	0	1	-33,54475	274,74949	289,550551	0
14.01.2021	19:19:32	0	0	3,61527	5,40075	85,5252	0,927	77,305	3,5	1005,48	7,5	9,5	9,2	1	1	1	1	1	1	1	1	1	0	1	-41,789993	274,734063	281,232744	0
14.01.2021	19:19:33	0	0	3,61527	6,027	95,8248	0,927	77,295	3,5	1005,48	7,5	9,5	9,2	1	1	1	1	1	1	1	1	1	0	1	-36,081748	274,865592	287,560025	0
14.01.2021	19:19:34	0	0	4,519087	5,99925	85,9176	0,923	77,297	3,5	1005,44	7,5	9,5	9,2	1	1	1	1	1	1	1	1	1	0	1	-32,276251	274,743318	290,790016	0
14.01.2021	19:19:35	0	0	3,61527	6,02325	89,3304	0,922	77,297	3,5	1005,44	7,5	9,5	9,2	1	1	1	1	1	1	1	1	1	0	1	-36,011276	274,926242	287,916239	0
14.01.2021	19:19:36	0	0	2,824412	5,86275	108,5076	0,923	77,289	3,5	1005,44	7,5	9,5	9,3	1	1	1	1	1	1	1	1	1	0	1	-31,289641	274,873357	292,388705	0
14.01.2021	19:19:37	0	0	4,406083	5,60475	105,5052	0,925	77,294	3,5	1005,56	7,4	9,5	9,3	1	1	1	1	1	1	1	1	1	0	1	-32,9105	274,747947	290,177541	0
14.01.2021	19:19:38	0	0	2,598475	5,436	101,9088	0,921	77,304	3,5	1005,4	7,5	9,5	9,2	1	1	1	1	1	1	1	1	1	0	1	-34,672304	274,825265	288,779575	0
14.01.2021	19:19:39	0	0	4,857989	5,14575	95,526	0,922	77,301	3,5	1005,32	7,4	9,5	9,3	1	1	1	1	1	1	1	1	1	0	1	-32,346723	274,924684	291,573451	0
14.01.2021	19:19:40	0	0	4,293107	4,75875	97,3116	0,916	77,315	3,5	1005,52	7,5	9,5	9,3	1	1	1	1	1	1	1	1	1	0	1	-35,870331	274,761842	287,283071	0
14.01.2021	19:19:41	0	0	4,293107	5,02275	83,3544	0,923	77,319	3,5	1005,4	7,5	9,5	9,3	1	1	1	1	1	1	1	1	1	0	1	-33,403805	274,812873	289,989741	0
14.01.2021	19:19:42	0	0	4,067178	5,2245	88,9308	0,925	77,343	3,5	1005,3	7,4	9,5	9,2	1	1	1	1	1	1	1	1	1	0	1	-36,645525	274,743318	286,420742	0
14.01.2021	19:19:43	0	0	4,51906	5,106	96,6024	0,923	77,357	3,5	1005,56	7,4	9,5	9,3	1	1	1	1	1	1	1	1	1	0	1	-37,209302	274,884233	286,520276	0
14.01.2021	19:19:44	0	0	3,841201	4,78875	88,5888	0,923	77,369	3,5	1005,48	7,5	9,5	9,3	1	1	1	1	1	1	1	1	1	0	1	-35,588443	274,802037	287,7541	0
14.01.2021	19:19:45	0	0	4,519087	4,4835	85,9284	0,924	77,381	3,5	1005,2	7,5	9,5	9,2	1	1	1	1	1	1	1	1	1	0	1	-42,847075	274,927799	281,08778	0
14.01.2021	19:19:46	0	0	3,502292	4,242	81,2016	0,919	77,404	3,5	1005,3	7,5	9,5	9,2	1	1	1	1	1	1	1	1	1	0	1	-33,685694	274,802037	289,656849	0
14.01.2021	19:19:47	0	0	3,163342	4,0605	93,3264	0,917	77,413	3,5	1005,36	7,4	9,5	9,3	1	1	1	1	1	1	1	1	1	0	1	-35,588443	274,896671	288,199729	0
14.01.2021	19:19:48	0	0	2,824429	3,8415	86,2704	0,921	77,415	3,5	1005,46	7,5	9,5	9,2	1	1	1	1	1	1	1	1	1	0	1	-33,192389	274,726354	289,794093	0
14.01.2021	19:19:49	0	0	4,632036	3,657	93,33	0,92	77,434	3,5	1005,46	7,5	9,5	9,3	1	1	1	1	1	1	1	1	1	0	1	-35,377026	274,786567	287,892714	0
14.01.2021	19:19:50	0	0	2,711436	3,537	81,2124	0,912	77,446	3,5	1005,34	7,6	9,5	9,3	1	1	1	1	1	1	1	1	1	0	1	-36,575053	274,74949	286,520248	0
14.01.2021	19:19:51	0	0	3,050365	3,62175	78,2532	0,915	77,457	3,5	1005,44	7,5	9,5	9,3	1	1	1	1	1	1	1	1	1	0	1	-32,769556	274,792754	290,529297	0
14.01.2021	19:19:52	0	0	3,502271	3,53325	83,0736	0,922	77,477	3,5	1005,58	7,4	9,5	9,3	1	1	1	1	1	1	1	1	1	0	1	-37,632135	274,778837	285,60123	0
14.01.2021	19:19:53	0	0	4,519087	3,3075	91,5084	0,918	77,454	3,5	1005,44	7,5	9,5	9,2	1	1	1	1	1	1	1	1	1	0	1	-38,195913	274,932473	285,76097	0
14.01.2021	19:19:54	0	0	2,937389	3,4935	85,1616	0,921	77,468	3,5	1005,26	7,4	9,5	9,3	1	1	1	1	1	1	1	1	1	0	1	-37,984496	274,898226	285,811003	0
14.01.2021	19:19:55	0	0	4,970996	3,762	87,3612	0,914	77,455	3,5	1005,48	7,5	9,5	9,2	1	1	1	1	1	1	1	1	1	0	1	-36,786469	274,913785	287,082343	0
14.01.2021	19:19:56	0	0	3,728224	4,2195	76,824	0,916	77,459	3,5	1005,38	7,5	9,5	9,3	1	1	1	1	1	1	1	1	1	0	1	-33,685694	274,778837	289,547671	0
14.01.2021	19:19:57	0	0	4,18013	4,53975	82,5984	0,917	77,467	3,5	1005,6	7,5	9,5	9,3	1	1	1	1	1	1	1	1	1	0	1	-34,108527	274,862487	289,518621	0
14.01.2021	19:19:58	0	0	2,937407	4,6275	88,9812	0,92	77,457	3,5	1005,4	7,4	9,5	9,2	1	1	1	1	1	1	1	1	1	0	1	-38,336857	274,757209	284,794752	0
14.01.2021	19:19:59	0	0	3,615248	4,5405	94,0644	0,921	77,449	3,5	1005,44	7,5	9,5	9,3	1	1	1	1	1	1	1	1	1	0	1	-39,041579	274,814422	284,359257	0
14.01.2021	19:20:00	0	0	4,51906	4,23	96,588	0,915	77,455	3,5	1005,44	7,5	9,5	9,3	1	1	1	1	1	1	1	1	1	0	1	-36,434109	274,898226	287,36139	0
14.01.2021	19:20:01	0	0	4,51906	4,23	96,588	0,915	77,455	3,5	1005,44	7,5	9,5	9,3	1	1	1	1	1	1	1	1	1	0	1	-36,434109	274,898226	287,36139	0
14.01.2021	19:20:02	0	0	3,615248	4,2645	98,7516	0,915	77,446	3,5	1005,42	7,5	9,5	9,3	1	1	1	1	1	1	1	1	1	0	1	-38,266385	274,814422	285,134451	0
14.01.2021	19:20:03	0	0	2,937389	4,27875	91,5048	0,919	77,446	3,5	1005,32	7,5	9,5	9,3	1	1	1	1	1	1	1	1	1	0	1	-32,980973	274,918455	290,909848	0
14.01.2021	19:20:04	0	0	3,163342	4,1655	94,0968	0,917	77,446	3,5	1005,54	7,5	9,5	9,3	1	1	1	1	1	1	1	1	1	0	1	-38,336857	274,941823	285,6641	0
14.01.2021	19:20:05	0	0	4,632036	4,3095	95,5656	0,914	77,434	3,5	1005,42	7,5	9,5	9,3	1	1	1	1	1	1	1	1	1	0	1	-34,813249	274,874911	288,872414	0
14.01.2021	19:20:06	0	0	2,146566	4,23675	88,938	0,916	77,432	3,5	1005,46	7,5	9,5	9,2	1	1	1	1	1	1	1	1	1	0	1	-35,51797	274,764931	287,649964	0
14.01.2021	19:20:07	0	0	3,276338	4,0365	90,0216	0,915	77,438	3,5	1005,42	7,5	9,5	9,2	1	1	1	1	1	1	1	1	1	0	1	-34,672304	274,828364	288,794165	0
14.01.2021	19:20:08	0	0	5,083942	3,819	87,3684	0,92	77,421	3,5	1005,46	7,5	9,5	9,3	1	1	1	1	1	1	1	1	1	0	1	-36,575053	274,921569	287,330443	0
14.01.2021	19:20:09	0	0	4,293107	3,7005	88,5636	0,919	77,416	3,5	1005,38	7,5	9,5	9,3	1	1	1	1	1	1	1	1	1	0	1	-43,058492	274,785021	280,203972	0
14.01.2021	19:20:10	0	0	4,51906	3,65775	90,4068	0,914	77,438	3,5	1005,42	7,4	9,5	9,3	1	1	1	1	1	1	1	1	1	0	1	-38,054968	274,819068	285,367739	0
14.01.2021	19:20:11	0	0	3,841224	3,67575	79,434	0,924	77,438	3,5	1005,46	7,5	9,5	9,2	1	1	1	1	1	1	1	1	1	0	1	-36,715997	274,757209	286,415612	0
14.01.2021	19:20:12	0	0	4,632036	3,76875	82,5768	0,918	77,409	3,5	1005,36	7,5	9,5	9,3	1	1	1	1	1	1	1	1	1	0	1	-33,897111	274,901337	289,913045	0
14.01.2021	19:20:13	0	0	2,937389	3,78825	79,3908	0,923	77,424	3,5	1005,56	7,6	9,5	9,3	1	1	1	1	1	1	1	1	1	0	1	-35,870331	274,777291	287,355761	0
14.01.2021	19:20:14	0	0	4,970966	3,88125	82,566	0,921	77,433	3,5	1005,56	7,5	9,5	9,3	1	1	1	1	1	1	1	1	1	0	1	-39,7463	274,924684	284,173874	0
14.01.2021	19:20:15	0	0	2,824412	4,2765	96,2172	0,919	77,425	3,5	1005,42	7,5	9,5	9,3	1	1	1	1	1	1	1	1	1	0	1	-40,803383	274,814422	282,597453	0
14.01.2021	19:20:16	0	0	3,728224	4,4715	97,3332	0,915	77,42	3,5	1005,3	7,5	9,5	9,3	1	1	1	1	1	1	1	1	1	0	1	-35,799859	274,935589	288,171712	0
14.01.2021	19:20:17	0	0	3,163361	4,6665	98,4348	0,919	77,417	3,5	1005,46	7,5	9,5	9,2	1	1	1	1	1	1	1	1	1	0	1	-35,729387	274,766475	287,445815	0
14.01.2021	19:20:18	0	0	3,728247	4,821	84,042	0,912	77,41	3,5	1005,36	7,5	9,5	9,2	1	1	1	1	1	1	1	1	1	0	1	-36,363636	274,797395	286,957058	0
14.01.2021	19:20:19	0	0	4,18013	4,698	92,6388	0,918	77,425	3,5	1005,46	7,5	9,5	9,3	1	1	1	1	1	1	1	1	1	0	1	-32,769556	274,77111	290,427452	0
14.01.2021	19:20:20	0	0	3,728224	4,61325	110,3544	0,916	77,412	3,5	1005,52	7,6	9,5	9,3	1	1	1	1	1	1	1	1	1	0	1	-33,685694	274,795848	289,627719	0
14.01.2021	19:20:21	0	0	4,18013	4,61625	105,1056	0,916	77,429	3,5	1005,36	7,5	9,5	9,3	1	1	1	1	1	1	1	1	1	0	1	-31,853418	274,938706	292,132845	0
14.01.2021	19:20:22	0	0	3,276318	4,72275	110,4192	0,923	77,418	3,5	1005,52	7,4	9,5	9,3	1	1	1	1	1	1	1	1	1	0	1	-36,293164	274,85783	287,312053	0
14.01.2021	19:20:23	0	0	4,51906	4,719	98,46	0,923	77,422	3,5	1005,42	7,5	9,5	9,3	1	1	1	1	1	1	1	1	1	0	1	-34,390416	274,940265	289,603193	0
14.01.2021	19:20:24	0	0	4,632064	4,6155	97,3332	0,915	77,414	3,5	1005,3	7,5	9,5	9,2	1	1	1	1	1	1	1	1	1	0	1	-35,588443	274,885788	288,148457	0
14.01.2021	19:20:25	0	0	4,406083	4,70925	100,7712	0,912	77,425	3,5	1005,4	7,5	9,5	9,3	1	1	1	1	1	1	1	1	1	0	1	-35,799859	274,865592	287,841914	0
14.01.2021	19:20:26	0	0	3,163361	4,43475	113,0868	0,919	77,438	3,5	1005,4	7,4	9,5	9,2	1	1	1	1	1	1	1	1	1	0	1	-32,417195	274,746404	290,663587	0
14.01.2021	19:20:27	0	0	3,276318	4,01175	109,1952	0,918	77,434	3,5	1005,46	7,5	9,5	9,3	1	1	1	1	1	1	1	1	1	0	1	-34,178999	274,854727	289,411601	0
14.01.2021	19:20:28	0	0	3,502271	3,98775	101,4948	0,917	77,424	3,5	1005,3	7,5	9,5	9,3	1	1	1	1	1	1	1	1	1	0	1	-34,390416	274,935589	289,581155	0
14.01.2021	19:20:29	0	0	3,389295	3,76725	88,542	0,91	77,419	3,5	1005,54	7,5	9,5	9,3	1	1	1	1	1	1	1	1	1	0	1	-33,967583	274,791207	289,323991	0
14.01.2021	19:20:30	0	0	4,293133	3,7455	88,5744	0,912	77,417	3,5	1005,48	7,5	9,5	9,2	1	1	1	1	1	1	1	1	1	0	1	-40,521494	274,938706	283,464769	0
14.01.2021	19:20:31	0	0	3,389295	3,94875	98,46	0,915	77,411	3,5	1005,28	7,5	9,5	9,3	1	1	1	1	1	1	1	1	1	0	1	-36,293164	274,77111	286,903844	0
14.01.2021	19:20:32	0	0	3,841201	4,0725	94,0716	0,913	77,41	3,5	1005,38	7,5	9,5	9,3	1	1	1	1	1	1	1	1	1	0	1	-36,997886	274,825265	286,453993	0
14.01.2021	19:20:33	0	0	4,180155	3,9495	81,9612	0,924	77,429	3,5	1005,46	7,5	9,5	9,2	1	1	1	1	1	1	1	1	1	0	1	-33,051445	274,754121	290,065639	0
14.01.2021	19:20:34	0	0	4,632064	3,56325	77,562	0,914	77,439	3,5	1005,5	7,5	9,5	9,2	1	1	1	1	1	1	1	1	1	0	1	-35,870331	274,882679	287,851926	0
14.01.2021	19:20:35	0	0	4,632036	3,42825	74,5308	0,921	77,448	3,5	1005,48	7,5	9,5	9,3	1	1	1	1	1	1	1	1	1	0	1	-37,914024	274,791207	285,37755	0
14.01.2021	19:20:36	0	0	4,632036	3,31275	79,7508	0,921	77,444	3,5	1005,3	7,5	9,5	9,3	1	1	1	1	1	1	1	1	1	0	1	-36,434109	274,920012	287,464049	0
14.01.2021	19:20:37	0	0	4,74507	2,98725	68,3784	0,911	77,432	3,5	1005,44	7,5	9,5	9,1	1	1	1	1	1	1	1	1	1	0	1	-36,222692	274,871804	287,448338	0
14.01.2021	19:20:38	0	0	4,406083	2,8185	90,4032	0,917	77,411	3,5	1005,36	7,5	9,5	9,3	1	1	1	1	1	1	1	1	1	0	1	-33,615222	274,76802	289,567248	0
14.01.2021	19:20:39	0	0	4,293133	2,8605	79,4268	0,938	77,449	3,5	1005,48	7,5	9,5	9,2	1	1	1	1	1	1	1	1	1	0	1	-37,843552	274,920012	286,054606	0
14.01.2021	19:20:40	0	0	4,406083	3,2445	81,5796	0,916	77,421	3,5	1005,48	7,5	9,5	9,3	1	1	1	1	1	1	1	1	1	0	1	-38,971106	274,829914	284,502659	0
14.01.2021	19:20:41	0	0	2,711436	4,23525	77,9472	0,916	77,419	3,5	1005,44	7,6	9,5	9,3	1	1	1	1	1	1	1	1	1	0	1	-35,870331	274,954298	288,189431	0
14.01.2021	19:20:42	0	0	4,406083	5,1165	78,2568	0,915	77,432	3,5	1005,46	7,5	9,5	9,3	1	1	1	1	1	1	1	1	1	0	1	-36,997886	274,846969	286,556184	0
14.01.2021	19:20:43	0	0	4,745013	6,0135	74,8944	0,917	77,413	3,5	1005,56	7,5	9,5	9,3	1	1	1	1	1	1	1	1	1	0	1	-37,068358	274,930915	286,881182	0
14.01.2021	19:20:44	0	0	2,598459	6,58275	74,5236	0,919	77,424	3,5	1005,42	7,5	9,5	9,3	1	1	1	1	1	1	1	1	1	0	1	-35,095137	274,794301	288,210995	0
14.01.2021	19:20:45	0	0	4,745013	6,93525	76,3704	0,918	77,416	3,5	1005,44	7,5	9,5	9,3	1	1	1	1	1	1	1	1	1	0	1	-34,108527	274,764931	289,059408	0
14.01.2021	19:20:46	0	0	3,841201	6,90675	73,0512	0,921	77,428	3,5	1005,28	7,4	9,5	9,3	1	1	1	1	1	1	1	1	1	0	1	-36,504581	274,904448	287,320235	0
14.01.2021	19:20:47	0	0	2,711436	6,624	85,5396	0,919	77,434	3,5	1005,22	7,4	9,5	9,3	1	1	1	1	1	1	1	1	1	0	1	-31,430585	274,760297	291,715552	0
14.01.2021	19:20:48	0	0	4,406083	5,84325	80,8812	0,917	77,427	3,5	1005,56	7,4	9,5	9,3	1	1	1	1	1	1	1	1	1	0	1	-32,417195	274,822166	291,020097	0
14.01.2021	19:20:49	0	0	2,25953	5,175	73,4256	0,918	77,439	3,5	1005,42	7,5	9,5	9,3	1	1	1	1	1	1	1	1	1	0	1	-36,856942	274,921569	287,048554	0
14.01.2021	19:20:50	0	0	3,163342	5,346	80,1468	0,92	77,428	3,5	1005,52	7,5	9,5	9,3	1	1	1	1	1	1	1	1	1	0	1	-31,360113	274,941823	292,640844	0
14.01.2021	19:20:51	0	0	4,406083	5,2965	71,2044	0,912	77,415	3,5	1005,44	7,5	9,5	9,3	1	1	1	1	1	1	1	1	1	0	1	-36,504581	274,845418	287,042185	0
14.01.2021	19:20:52	0	0	2,824412	5,0115	76,8384	0,916	77,438	3,5	1005,34	7,5	9,5	9,3	1	1	1	1	1	1	1	1	1	0	1	-33,54475	274,763386	289,615918	0
14.01.2021	19:20:53	0	0	4,632036	4,623	73,4076	0,912	77,436	3,5	1005,48	7,5	9,5	9,3	1	1	1	1	1	1	1	1	1	0	1	-34,460888	274,775746	288,757932	0
14.01.2021	19:20:54	0	0	3,389295	4,85925	69,462	0,921	77,452	3,5	1005,46	7,5	9,5	9,3	1	1	1	1	1	1	1	1	1	0	1	-30,162086	274,878018	293,538212	0
14.01.2021	19:20:55	0	0	2,146553	5,1195	69,1776	0,916	77,461	3,5	1005,4	7,5	9,5	9,3	1	1	1	1	1	1	1	1	1	0	1	-37,491191	274,758753	285,647682	0
14.01.2021	19:20:56	0	0	4,745013	5,0355	62,0388	0,911	77,46	3,5	1005,4	7,5	9,5	9,3	1	1	1	1	1	1	1	1	1	0	1	-31,430585	274,842316	292,101575	0
14.01.2021	19:20:57	0	0	3,61527	4,77525	73,8972	0,918	77,466	3,5	1005,42	7,5	9,5	9,2	1	1	1	1	1	1	1	1	1	0	1	-33,333333	274,783475	289,921855	0
14.01.2021	19:20:58	0	0	4,18013	4,44075	75,9744	0,915	77,474	3,5	1005,52	7,5	9,5	9,3	1	1	1	1	1	1	1	1	1	0	1	-36,645525	274,854727	286,945075	0
14.01.2021	19:20:59	0	0	4,18013	4,3515	76,8276	0,919	77,456	3,5	1005,44	7,4	9,4	9,3	1	1	1	1	1	1	1	1	1	0	1	-39,7463	274,764931	283,421635	0
14.01.2021	19:21:00	0	0	4,970996	3,91875	77,2308	0,915	77,458	3,5	1005,62	7,5	9,4	9,2	1	1	1	1	1	1	1	1	1	0	1	-32,699084	274,935589	291,272487	0
14.01.2021	19:21:01	0	0	4,745013	3,89025	72,288	0,911	77,442	3,5	1005,32	7,5	9,5	9,3	1	1	1	1	1	1	1	1	1	0	1	-38,900634	274,831463	284,580428	0
14.01.2021	19:21:02	0	0	4,745013	3,89025	72,288	0,911	77,442	3,5	1005,32	7,5	9,5	9,3	1	1	1	1	1	1	1	1	1	0	1	-38,900634	274,831463	284,580428	0
14.01.2021	19:21:03	0	0	2,711436	3,99375	91,5156	0,914	77,439	3,5	1005,44	7,5	9,5	9,3	1	1	1	1	1	1	1	1	1	0	1	-37,13883	274,943382	286,869475	0
14.01.2021	19:21:04	0	0	3,615248	3,95775	86,9544	0,916	77,431	3,5	1005,4	7,5	9,5	9,3	1	1	1	1	1	1	1	1	1	0	1	-35,16561	274,822166	288,271682	0
14.01.2021	19:21:05	0	0	4,293133	4,02525	71,6148	0,918	77,412	3,5	1005,38	7,5	9,5	9,2	1	1	1	1	1	1	1	1	1	0	1	-38,266385	274,935589	285,705186	0
14.01.2021	19:21:06	0	0	4,067154	3,84075	108,4752	0,919	77,407	3,5	1005,36	7,5	9,5	9,3	1	1	1	1	1	1	1	1	1	0	1	-36,15222	274,932473	287,804663	0
14.01.2021	19:21:07	0	0	3,163342	3,57525	97,7004	0,918	77,427	3,5	1005,46	7,5	9,5	9,3	1	1	1	1	1	1	1	1	1	0	1	-35,024665	274,934031	288,939561	0
14.01.2021	19:21:08	0	0	3,050365	3,31425	89,7876	0,91	77,413	3,5	1005,36	7,5	9,5	9,3	1	1	1	1	1	1	1	1	1	0	1	-38,195913	274,766475	284,979289	0
14.01.2021	19:21:09	0	0	4,51906	3,2415	82,368	0,918	77,427	3,5	1005,54	7,5	9,5	9,3	1	1	1	1	1	1	1	1	1	0	1	-37,632135	274,954298	286,427627	0
14.01.2021	19:21:10	0	0	2,824412	3,36525	91,8936	0,919	77,424	3,5	1005,48	7,5	9,5	9,3	1	1	1	1	1	1	1	1	1	0	1	-38,830162	274,888896	284,921383	0
14.01.2021	19:21:11	0	0	3,276318	3,33075	90,7632	0,92	77,419	3,5	1005,48	7,5	9,5	9,3	1	1	1	1	1	1	1	1	1	0	1	-32,699084	274,949619	291,338621	0
14.01.2021	19:21:12	0	0	4,293107	3,23925	97,3152	0,922	77,42	3,5	1005,36	7,5	9,5	9,3	1	1	1	1	1	1	1	1	1	0	1	-41,014799	274,924684	282,905375	0
14.01.2021	19:21:13	0	0	3,163342	3,147	89,6976	0,924	77,42	3,5	1005,42	7,5	9,5	9,3	1	1	1	1	1	1	1	1	1	0	1	-36,363636	274,898226	287,431863	0
14.01.2021	19:21:14	0	0	3,050365	3,23925	94,374	0,918	77,403	3,5	1005,36	7,5	9,5	9,3	1	1	1	1	1	1	1	1	1	0	1	-39,887245	274,788114	283,389773	0
14.01.2021	19:21:15	0	0	4,51906	3,6255	94,1004	0,916	77,404	3,5	1005,46	7,4	9,5	9,3	1	1	1	1	1	1	1	1	1	0	1	-39,323467	274,885788	284,413432	0
14.01.2021	19:21:16	0	0	3,502292	3,77325	99,9072	0,917	77,404	3,5	1005,48	7,5	9,5	9,2	1	1	1	1	1	1	1	1	1	0	1	-38,266385	274,94806	285,763969	0
14.01.2021	19:21:17	0	0	3,050365	3,80625	96,948	0,916	77,394	3,5	1005,36	7,5	9,5	9,3	1	1	1	1	1	1	1	1	1	0	1	-35,658915	274,834564	287,836743	0
14.01.2021	19:21:18	0	0	4,857989	3,80625	88,956	0,921	77,402	3,5	1005,4	7,5	9,5	9,3	1	1	1	1	1	1	1	1	1	0	1	-38,266385	274,938706	285,719878	0
14.01.2021	19:21:19	0	0	4,745013	3,76875	93,726	0,922	77,393	3,5	1005,48	7,5	9,5	9,3	1	1	1	1	1	1	1	1	1	0	1	-36,15222	274,7742	287,059329	0
14.01.2021	19:21:20	0	0	3,163342	4,28775	91,1556	0,916	77,373	3,5	1005,34	7,5	9,5	9,3	1	1	1	1	1	1	1	1	1	0	1	-35,588443	274,837664	287,921814	0
14.01.2021	19:21:21	0	0	4,406083	4,761	87,3648	0,915	77,376	3,5	1005,42	7,5	9,5	9,3	1	1	1	1	1	1	1	1	1	0	1	-36,081748	274,788114	287,195269	0
14.01.2021	19:21:22	0	0	4,293107	4,968	93,7008	0,92	77,36	3,5	1005,4	7,4	9,5	9,3	1	1	1	1	1	1	1	1	1	0	1	-36,15222	274,955858	287,914896	0
14.01.2021	19:21:23	0	0	5,083942	5,03625	93,3228	0,918	77,362	3,5	1005,48	7,5	9,5	9,3	1	1	1	1	1	1	1	1	1	0	1	-37,420719	274,888896	286,330826	0
14.01.2021	19:21:24	0	0	4,857989	4,95975	96,2496	0,921	77,368	3,5	1005,44	7,5	9,5	9,3	1	1	1	1	1	1	1	1	1	0	1	-34,319944	274,781929	288,927969	0
14.01.2021	19:21:25	0	0	3,276318	4,809	102,2148	0,917	77,347	3,5	1005,44	7,5	9,5	9,3	1	1	1	1	1	1	1	1	1	0	1	-36,081748	274,874911	287,603915	0
14.01.2021	19:21:26	0	0	2,824429	4,9095	102,6036	0,917	77,336	3,5	1005,42	7,4	9,5	9,2	1	1	1	1	1	1	1	1	1	0	1	-38,12544	274,957418	285,94903	0
14.01.2021	19:21:27	0	0	4,632036	4,64925	102,2112	0,92	77,349	3,5	1005,42	7,5	9,5	9,3	1	1	1	1	1	1	1	1	1	0	1	-34,038055	274,822166	289,399237	0
14.01.2021	19:21:28	0	0	4,858019	4,66275	94,7808	0,92	77,348	3,5	1005,5	7,5	9,5	9,2	1	1	1	1	1	1	1	1	1	0	1	-37,068358	274,803585	286,281469	0
14.01.2021	19:21:29	0	0	4,632036	4,6725	96,6024	0,922	77,334	3,5	1005,46	7,5	9,5	9,3	1	1	1	1	1	1	1	1	1	0	1	-34,954193	274,963659	289,149703	0
14.01.2021	19:21:30	0	0	4,858019	4,5765	96,5736	0,917	77,339	3,5	1005,38	7,5	9,5	9,2	1	1	1	1	1	1	1	1	1	0	1	-35,377026	274,874911	288,308636	0
14.01.2021	19:21:31	0	0	3,502292	4,497	99,1584	0,918	77,332	3,5	1005,28	7,5	9,5	9,2	1	1	1	1	1	1	1	1	1	0	1	-34,038055	274,968341	290,087918	0
14.01.2021	19:21:32	0	0	2,598459	4,47975	104,418	0,914	77,33	3,5	1005,36	7,5	9,5	9,3	1	1	1	1	1	1	1	1	1	0	1	-34,038055	274,825265	289,413824	0
14.01.2021	19:21:33	0	0	4,632036	4,479	103,302	0,919	77,335	3,5	1005,58	7,5	9,5	9,3	1	1	1	1	1	1	1	1	1	0	1	-40,662438	274,904448	283,162377	0
14.01.2021	19:21:34	0	0	5,196919	4,557	84,4344	0,919	77,339	3,5	1005,44	7,5	9,5	9,3	1	1	1	1	1	1	1	1	1	0	1	-33,54475	274,791207	289,746824	0
14.01.2021	19:21:35	0	0	2,711436	4,347	108,5004	0,921	77,341	3,5	1005,42	7,5	9,5	9,3	1	1	1	1	1	1	1	1	1	0	1	-36,504581	274,851623	287,071405	0
14.01.2021	19:21:36	0	0	4,632064	3,9645	102,9564	0,92	77,33	3,5	1005,44	7,5	9,5	9,2	1	1	1	1	1	1	1	1	1	0	1	-34,249471	274,798942	289,078505	0
14.01.2021	19:21:37	0	0	3,276318	3,549	95,1408	0,925	77,342	3,5	1005,54	7,5	9,5	9,3	1	1	1	1	1	1	1	1	1	0	1	-36,856942	274,944941	287,158712	0
14.01.2021	19:21:38	0	0	2,711436	3,387	87,4404	0,913	77,347	3,5	1005,44	7,5	9,5	9,3	1	1	1	1	1	1	1	1	1	0	1	-34,108527	274,916899	289,774957	0
14.01.2021	19:21:39	0	0	2,711436	3,369	102,1572	0,912	77,349	3,5	1005,46	7,5	9,5	9,3	1	1	1	1	1	1	1	1	1	0	1	-36,856942	274,968341	287,269031	0
14.01.2021	19:21:40	0	0	3,502271	3,1875	94,1004	0,921	77,34	3,5	1005,38	7,5	9,5	9,3	1	1	1	1	1	1	1	1	1	0	1	-36,575053	274,845418	286,971713	0
14.01.2021	19:21:41	0	0	2,824412	3,279	103,6764	0,925	77,329	3,5	1005,36	7,5	9,5	9,3	1	1	1	1	1	1	1	1	1	0	1	-33,756166	274,78966	289,528129	0
14.01.2021	19:21:42	0	0	3,728224	3,438	97,308	0,927	77,323	3,5	1005,42	7,5	9,5	9,3	1	1	1	1	1	1	1	1	1	0	1	-37,279774	274,834564	286,215884	0
14.01.2021	19:21:43	0	0	3,728224	3,3375	100,3896	0,922	77,325	3,5	1005,28	7,5	9,5	9,3	1	1	1	1	1	1	1	1	1	0	1	-33,826638	274,786567	289,443102	0
14.01.2021	19:21:44	0	0	3,050384	3,50775	98,784	0,921	77,316	3,5	1005,48	7,5	9,5	9,2	1	1	1	1	1	1	1	1	1	0	1	-35,729387	274,929357	288,21281	0
14.01.2021	19:21:45	0	0	2,485483	3,92625	106,7148	0,923	77,329	3,5	1005,58	7,5	9,5	9,3	1	1	1	1	1	1	1	1	1	0	1	-40,873855	274,957418	283,200616	0
14.01.2021	19:21:46	0	0	2,598459	4,239	104,7852	0,921	77,303	3,5	1005,58	7,5	9,5	9,3	1	1	1	1	1	1	1	1	1	0	1	-39,252995	274,791207	284,038578	0
14.01.2021	19:21:47	0	0	4,51906	4,20825	100,7784	0,919	77,299	3,5	1005,52	7,5	9,5	9,3	1	1	1	1	1	1	1	1	1	0	1	-36,011276	274,898226	287,784223	0
14.01.2021	19:21:48	0	0	4,970966	3,924	100,3752	0,924	77,314	3,5	1005,54	7,5	9,5	9,3	1	1	1	1	1	1	1	1	1	0	1	-36,434109	274,965219	287,677146	0
14.01.2021	19:21:49	0	0	3,841201	4,27275	102,96	0,92	77,288	3,5	1005,32	7,5	9,5	9,3	1	1	1	1	1	1	1	1	1	0	1	-35,306554	274,920012	288,591604	0
14.01.2021	19:21:50	0	0	2,711436	4,40175	102,2112	0,92	77,292	3,5	1005,4	7,5	9,5	9,3	1	1	1	1	1	1	1	1	1	0	1	-39,957717	274,913785	283,911096	0
14.01.2021	19:21:51	0	0	2,711452	4,31025	101,502	0,922	77,302	3,5	1005,3	7,5	9,5	9,2	1	1	1	1	1	1	1	1	1	0	1	-39,816772	274,955858	284,250343	0
14.01.2021	19:21:52	0	0	3,389295	4,29375	95,1588	0,917	77,296	3,5	1005,26	7,5	9,5	9,3	1	1	1	1	1	1	1	1	1	0	1	-40,028189	274,826814	283,430985	0
14.01.2021	19:21:53	0	0	2,711436	4,353	85,5072	0,919	77,297	3,5	1005,44	7,5	9,5	9,3	1	1	1	1	1	1	1	1	1	0	1	-33,897111	274,963659	290,206785	0
14.01.2021	19:21:54	0	0	4,970996	4,083	80,1324	0,917	77,276	3,5	1005,18	7,5	9,5	9,2	1	1	1	1	1	1	1	1	1	0	1	-39,675828	274,853175	283,907465	0
14.01.2021	19:21:55	0	0	2,485483	4,062	82,3464	0,92	77,28	3,5	1005,32	7,5	9,5	9,3	1	1	1	1	1	1	1	1	1	0	1	-37,068358	274,958978	287,013468	0
14.01.2021	19:21:56	0	0	4,632036	4,39125	82,5876	0,924	77,281	3,5	1005,4	7,5	9,5	9,3	1	1	1	1	1	1	1	1	1	0	1	-38,971106	274,904448	284,853709	0
14.01.2021	19:21:57	0	0	2,824429	4,341	88,9272	0,923	77,288	3,5	1005,4	7,5	9,5	9,2	1	1	1	1	1	1	1	1	1	0	1	-38,407329	274,820617	285,02267	0
14.01.2021	19:21:58	0	0	2,937407	4,11825	63,4788	0,919	77,275	3,5	1005,36	7,5	9,5	9,2	1	1	1	1	1	1	1	1	1	0	1	-38,477801	274,785021	284,784662	0
14.01.2021	19:21:59	0	0	2,485498	4,06275	70,5888	0,919	77,278	3,5	1005,36	7,5	9,5	9,2	1	1	1	1	1	1	1	1	1	0	1	-35,870331	274,817519	287,545085	0
14.01.2021	19:22:00	0	0	4,745013	3,89325	82,332	0,92	77,288	3,5	1005,38	7,5	9,5	9,3	1	1	1	1	1	1	1	1	1	0	1	-34,390416	274,913785	289,478397	0
14.01.2021	19:22:01	0	0	5,083973	3,78525	88,1244	0,916	77,263	3,5	1005,26	7,5	9,5	9,2	1	1	1	1	1	1	1	1	1	0	1	-34,038055	274,828364	289,428414	0
14.01.2021	19:22:02	0	0	5,083973	3,78525	88,1244	0,916	77,263	3,5	1005,26	7,5	9,5	9,2	1	1	1	1	1	1	1	1	1	0	1	-34,038055	274,828364	289,428414	0
14.01.2021	19:22:03	0	0	2,598459	3,858	87,7392	0,922	77,281	3,5	1005,42	7,5	9,5	9,3	1	1	1	1	1	1	1	1	1	0	1	-39,182523	274,778837	284,050842	0
14.01.2021	19:22:04	0	0	4,067154	4,077	82,602	0,912	77,274	3,5	1005,34	7,5	9,5	9,3	1	1	1	1	1	1	1	1	1	0	1	-35,51797	274,862487	288,109178	0
14.01.2021	19:22:05	0	0	3,163342	4,3575	86,2632	0,915	77,289	3,5	1005,6	7,5	9,5	9,3	1	1	1	1	1	1	1	1	1	0	1	-37,843552	274,955858	286,223564	0
14.01.2021	19:22:06	0	0	4,745013	4,563	82,6308	0,911	77,287	3,5	1005,38	7,5	9,5	9,3	1	1	1	1	1	1	1	1	1	0	1	-35,024665	274,902892	288,79282	0
14.01.2021	19:22:07	0	0	2,598459	4,35675	82,5948	0,918	77,299	3,5	1005,42	7,5	9,5	9,3	1	1	1	1	1	1	1	1	1	0	1	-38,407329	274,965219	285,703925	0
14.01.2021	19:22:08	0	0	3,276318	4,41	90,8604	0,917	77,289	3,5	1005,44	7,5	9,5	9,3	1	1	1	1	1	1	1	1	1	0	1	-38,548273	274,846969	285,005797	0
14.01.2021	19:22:09	0	0	4,745013	4,43175	79,0344	0,918	77,296	3,5	1005,48	7,5	9,5	9,3	1	1	1	1	1	1	1	1	1	0	1	-37,13883	274,785021	286,123634	0
14.01.2021	19:22:10	0	0	4,293107	4,4205	90,0432	0,914	77,284	3,5	1005,36	7,5	9,5	9,3	1	1	1	1	1	1	1	1	1	0	1	-37,420719	274,938706	286,565544	0
14.01.2021	19:22:11	0	0	3,389315	4,7295	75,2256	0,911	77,288	3,5	1005,34	7,5	9,5	9,2	1	1	1	1	1	1	1	1	1	0	1	-35,588443	274,935589	288,383129	0
14.01.2021	19:22:12	0	0	3,728247	4,5525	80,1648	0,917	77,297	3,5	1005,34	7,5	9,5	9,2	1	1	1	1	1	1	1	1	1	0	1	-34,108527	274,834564	289,387131	0
14.01.2021	19:22:13	0	0	4,858019	4,31925	67,6692	0,918	77,295	3,5	1005,36	7,5	9,4	9,2	1	1	1	1	1	1	1	1	1	0	1	-36,645525	274,803585	286,704302	0
14.01.2021	19:22:14	0	0	4,632036	4,0395	77,94	0,917	77,298	3,5	1005,46	7,5	9,4	9,3	1	1	1	1	1	1	1	1	1	0	1	-34,178999	274,934031	289,785227	0
14.01.2021	19:22:15	0	0	4,180155	4,18275	85,5288	0,918	77,309	3,5	1005,42	7,5	9,5	9,2	1	1	1	1	1	1	1	1	1	0	1	-36,011276	274,80668	287,353122	0
14.01.2021	19:22:16	0	0	4,293133	4,569	94,1076	0,918	77,315	3,5	1005,4	7,5	9,5	9,2	1	1	1	1	1	1	1	1	1	0	1	-36,645525	274,96678	287,473088	0
14.01.2021	19:22:17	0	0	4,632036	4,59825	100,3752	0,911	77,337	3,5	1005,22	7,4	9,5	9,3	1	1	1	1	1	1	1	1	1	0	1	-33,615222	274,822166	289,82207	0
14.01.2021	19:22:18	0	0	3,389315	4,3005	105,5016	0,909	77,325	3,5	1005,38	7,5	9,5	9,2	1	1	1	1	1	1	1	1	1	0	1	-39,887245	274,960538	284,201937	0
14.01.2021	19:22:19	0	0	4,970966	3,897	94,7232	0,92	77,323	3,5	1005,54	7,5	9,5	9,3	1	1	1	1	1	1	1	1	1	0	1	-37,984496	274,837664	285,525761	0
14.01.2021	19:22:20	0	0	2,937389	3,909	88,11	0,924	77,336	3,5	1005,5	7,5	9,5	9,3	1	1	1	1	1	1	1	1	1	0	1	-39,041579	274,963659	285,062317	0
14.01.2021	19:22:21	0	0	4,067178	3,81675	91,512	0,912	77,333	3,5	1005,2	7,5	9,3	9,2	1	1	1	1	1	1	1	1	1	0	1	-39,182523	274,842316	284,349637	0
14.01.2021	19:22:22	0	0	4,067178	3,49575	99,5328	0,92	77,326	3,5	1005,34	7,5	9,5	9,2	1	1	1	1	1	1	1	1	1	0	1	-41,508104	274,836114	281,994853	0
14.01.2021	19:22:23	0	0	2,937389	3,312	86,3748	0,921	77,318	3,5	1005,28	7,5	9,5	9,3	1	1	1	1	1	1	1	1	1	0	1	-38,75969	274,968341	285,366283	0
14.01.2021	19:22:24	0	0	3,728247	3,27225	106,2936	0,92	77,331	3,5	1005,46	7,5	9,5	9,2	1	1	1	1	1	1	1	1	1	0	1	-36,856942	274,932473	287,099941	0
14.01.2021	19:22:25	0	0	4,406083	3,336	98,0784	0,918	77,323	3,5	1005,42	7,5	9,5	9,3	1	1	1	1	1	1	1	1	1	0	1	-38,266385	274,783475	284,988803	0
14.01.2021	19:22:26	0	0	3,728247	3,2505	88,9704	0,916	77,319	3,5	1005,4	7,5	9,5	9,2	1	1	1	1	1	1	1	1	1	0	1	-36,575053	274,882679	287,147204	0
14.01.2021	19:22:27	0	0	4,40611	3,23175	73,7784	0,917	77,311	3,5	1005,3	7,4	9,5	9,2	1	1	1	1	1	1	1	1	1	0	1	-36,15222	274,80668	287,212177	0
14.01.2021	19:22:28	0	0	2,598459	3,465	80,5356	0,917	77,298	3,5	1005,3	7,5	9,5	9,3	1	1	1	1	1	1	1	1	1	0	1	-34,672304	274,968341	289,453668	0
14.01.2021	19:22:29	0	0	5,083942	3,97725	86,2668	0,915	77,283	3,5	1005,3	7,5	9,5	9,3	1	1	1	1	1	1	1	1	1	0	1	-35,447498	274,882679	288,274759	0
14.01.2021	19:22:30	0	0	4,632036	4,33425	98,4528	0,919	77,298	3,5	1005,5	7,5	9,5	9,3	1	1	1	1	1	1	1	1	1	0	1	-38,266385	274,780383	284,974254	0
14.01.2021	19:22:31	0	0	3,841224	4,1505	92,6604	0,915	77,281	3,5	1005,44	7,5	9,5	9,2	1	1	1	1	1	1	1	1	1	0	1	-35,940803	274,920012	287,957354	0
14.01.2021	19:22:32	0	0	2,711452	3,9465	104,4612	0,918	77,271	3,5	1005,46	7,5	9,5	9,2	1	1	1	1	1	1	1	1	1	0	1	-37,279774	274,890451	286,479094	0
14.01.2021	19:22:33	0	0	4,632036	4,19475	99,1512	0,919	77,269	3,5	1005,38	7,4	9,5	9,3	1	1	1	1	1	1	1	1	1	0	1	-38,12544	274,786567	285,1443	0
14.01.2021	19:22:34	0	0	2,824412	4,5585	86,2776	0,915	77,26	3,5	1005,5	7,5	9,5	9,3	1	1	1	1	1	1	1	1	1	0	1	-35,024665	274,811325	288,361593	0
14.01.2021	19:22:35	0	0	3,050384	4,3755	91,9008	0,916	77,241	3,5	1005,54	7,5	9,3	9,2	1	1	1	1	1	1	1	1	1	0	1	-38,548273	274,791207	284,7433	0
14.01.2021	19:22:36	0	0	4,406083	3,85425	95,8392	0,912	77,267	3,5	1005,46	7,5	9,5	9,3	1	1	1	1	1	1	1	1	1	0	1	-36,997886	274,932473	286,958997	0
14.01.2021	19:22:37	0	0	4,632064	3,4905	86,9832	0,915	77,267	3,5	1005,4	7,5	9,3	9,2	1	1	1	1	1	1	1	1	1	0	1	-35,658915	274,881125	288,056022	0
14.01.2021	19:22:38	0	0	4,40611	3,465	98,91	0,916	77,27	3,5	1005,48	7,4	9,3	9,2	1	1	1	1	1	1	1	1	1	0	1	-36,715997	274,968341	287,409976	0
14.01.2021	19:22:39	0	0	3,502271	3,9165	90,3672	0,913	77,266	3,5	1005,5	7,4	9,5	9,3	1	1	1	1	1	1	1	1	1	0	1	-34,038055	274,881125	289,676882	0
14.01.2021	19:22:40	0	0	3,728247	4,32525	98,0856	0,915	77,277	3,5	1005,52	7,5	9,5	9,2	1	1	1	1	1	1	1	1	1	0	1	-31,642001	274,792754	291,656851	0
14.01.2021	19:22:41	0	0	2,711436	4,47075	92,9628	0,914	77,262	3,5	1005,26	7,6	9,5	9,3	1	1	1	1	1	1	1	1	1	0	1	-33,615222	274,850072	289,953458	0
14.01.2021	19:22:42	0	0	3,163342	4,84725	92,2752	0,915	77,256	3,5	1005,34	7,5	9,5	9,3	1	1	1	1	1	1	1	1	1	0	1	-40,098661	274,962098	283,997878	0
14.01.2021	19:22:43	0	0	3,728224	5,28	104,436	0,914	77,27	3,5	1005,46	7,5	9,5	9,3	1	1	1	1	1	1	1	1	1	0	1	-40,169133	274,915342	283,707014	0
14.01.2021	19:22:44	0	0	4,745041	5,39925	106,0056	0,917	77,276	3,5	1005,42	7,5	9,5	9,2	1	1	1	1	1	1	1	1	1	0	1	-37,77308	274,902892	286,044406	0
14.01.2021	19:22:45	0	0	4,18013	5,24475	92,9376	0,912	77,268	3,5	1005,4	7,5	9,5	9,3	1	1	1	1	1	1	1	1	1	0	1	-33,897111	274,963659	290,206785	0
14.01.2021	19:22:46	0	0	5,083942	4,8465	87,3396	0,913	77,269	3,5	1005,54	7,5	9,5	9,3	1	1	1	1	1	1	1	1	1	0	1	-36,927414	274,913785	286,941399	0
14.01.2021	19:22:47	0	0	4,406136	4,2345	91,1664	0,913	77,266	3,5	1005,7	7,5	9,5	9,1	1	1	1	1	1	1	1	1	1	0	1	-36,645525	274,94806	287,384829	0
14.01.2021	19:22:48	0	0	3,841224	3,72825	106,7472	0,913	77,263	3,5	1005,5	7,5	9,5	9,2	1	1	1	1	1	1	1	1	1	0	1	-37,279774	274,898226	286,515724	0
14.01.2021	19:22:49	0	0	3,841201	3,489	80,532	0,915	77,265	3,5	1005,52	7,6	9,5	9,3	1	1	1	1	1	1	1	1	1	0	1	-37,068358	274,929357	286,873839	0
14.01.2021	19:22:50	0	0	3,728269	3,486	91,17	0,916	77,269	3,5	1005,46	7,5	9,5	9,1	1	1	1	1	1	1	1	1	1	0	1	-38,830162	274,786567	284,439578	0
14.01.2021	19:22:51	0	0	4,293107	3,393	85,1904	0,911	77,267	3,5	1005,4	7,5	9,5	9,3	1	1	1	1	1	1	1	1	1	0	1	-41,296688	274,921569	282,608808	0
14.01.2021	19:22:52	0	0	2,485483	3,495	103,6908	0,912	77,264	3,5	1005,4	7,4	9,5	9,3	1	1	1	1	1	1	1	1	1	0	1	-41,789993	274,955858	282,277123	0
14.01.2021	19:22:53	0	0	4,18013	3,8325	106,2936	0,912	77,265	3,5	1005,44	7,5	9,4	9,3	1	1	1	1	1	1	1	1	1	0	1	-36,575053	274,909116	287,271758	0
14.01.2021	19:22:54	0	0	3,16338	4,16625	95,13	0,909	77,252	3,5	1005,36	7,5	9,5	9,1	1	1	1	1	1	1	1	1	1	0	1	-38,548273	274,798942	284,779703	0
14.01.2021	19:22:55	0	0	3,050384	4,76925	98,7696	0,909	77,249	3,5	1005,22	7,5	9,5	9,2	1	1	1	1	1	1	1	1	1	0	1	-36,997886	274,920012	286,900272	0
14.01.2021	19:22:56	0	0	4,519087	5,50125	102,5712	0,911	77,249	3,5	1005,3	7,5	9,5	9,2	1	1	1	1	1	1	1	1	1	0	1	-40,944327	274,896671	282,843845	0
14.01.2021	19:22:57	0	0	2,937389	5,895	99,9324	0,911	77,251	3,5	1005,46	7,6	9,4	9,3	1	1	1	1	1	1	1	1	1	0	1	-36,997886	274,783475	286,257302	0
14.01.2021	19:22:58	0	0	4,744984	6,10125	96,5952	0,913	77,239	3,5	1005,48	7,4	9,5	9,4	1	1	1	1	1	1	1	1	1	0	1	-37,702607	274,853175	285,880685	0
14.01.2021	19:22:59	0	0	2,937371	6,0015	103,6908	0,912	77,237	3,5	1005,52	7,6	9,3	9,4	1	1	1	1	1	1	1	1	1	0	1	-37,068358	274,941823	286,932599	0
14.01.2021	19:23:00	0	0	4,40611	5,26275	91,8792	0,914	77,229	3,5	1005,44	7,5	9,4	9,2	1	1	1	1	1	1	1	1	1	0	1	-35,870331	274,937147	288,108585	0
14.01.2021	19:23:01	0	0	4,51906	5,0805	102,9276	0,916	77,248	3,5	1005,46	7,5	9,5	9,3	1	1	1	1	1	1	1	1	1	0	1	-35,870331	274,937147	288,108585	0
14.01.2021	19:23:02	0	0	4,51906	5,0805	102,9276	0,916	77,248	3,5	1005,46	7,5	9,5	9,3	1	1	1	1	1	1	1	1	1	0	1	-39,323467	274,912229	284,538011	0
14.01.2021	19:23:03	0	0	2,372506	5,085	110,6676	0,906	77,244	3,5	1005,36	7,3	9,5	9,3	1	1	1	1	1	1	1	1	1	0	1	-42,283298	274,898226	281,512201	0
14.01.2021	19:23:04	0	0	4,293107	5,17875	106,3188	0,911	77,254	3,5	1005,42	7,6	9,5	9,3	1	1	1	1	1	1	1	1	1	0	1	-34,249471	274,951178	289,795585	0
14.01.2021	19:23:05	0	0	3,954201	5,421	109,9512	0,912	77,265	3,5	1005,44	7,6	9,6	9,2	1	1	1	1	1	1	1	1	1	0	1	-37,13883	274,86404	286,49563	0
14.01.2021	19:23:06	0	0	3,050384	5,20875	109,2456	0,915	77,262	3,5	1005,44	7,5	9,5	9,2	1	1	1	1	1	1	1	1	1	0	1	-37,491191	274,949619	286,546514	0
14.01.2021	19:23:07	0	0	4,857989	5,3955	105,4836	0,911	77,257	3,5	1005,52	7,6	9,6	9,3	1	1	1	1	1	1	1	1	1	0	1	-33,615222	274,963659	290,488674	0
14.01.2021	19:23:08	0	0	3,389336	5,64375	105,5268	0,911	77,261	3,5	1005,42	7,7	9,4	9,1	1	1	1	1	1	1	1	1	1	0	1	-36,222692	274,901337	287,587464	0
14.01.2021	19:23:09	0	0	2,711452	5,5575	99,9072	0,908	77,259	3,5	1005,44	7,5	9,5	9,2	1	1	1	1	1	1	1	1	1	0	1	-34,108527	274,918455	289,782293	0
14.01.2021	19:23:10	0	0	4,406083	5,2575	104,4108	0,906	77,252	3,5	1005,44	7,5	9,6	9,3	1	1	1	1	1	1	1	1	1	0	1	-40,098661	274,851623	283,477325	0
14.01.2021	19:23:11	0	0	3,389336	5,13075	112,2876	0,905	77,259	3,5	1005,3	7,7	9,5	9,1	1	1	1	1	1	1	1	1	1	0	1	-37,350247	274,952738	286,702162	0
14.01.2021	19:23:12	0	0	3,841224	4,746	113,0292	0,906	77,262	3,5	1005,44	7,3	9,2	9,2	1	1	1	1	1	1	1	1	1	0	1	-35,236082	274,940265	288,757528	0
14.01.2021	19:23:13	0	0	3,16338	4,31775	110,3688	0,909	77,268	3,5	1005,36	7,7	9,5	9,1	1	1	1	1	1	1	1	1	1	0	1	-40,662438	274,878018	283,03786	0
14.01.2021	19:23:14	0	0	2,598475	4,1235	107,4456	0,908	77,251	3,5	1005,38	7,4	9,5	9,2	1	1	1	1	1	1	1	1	1	0	1	-36,011276	274,9465	288,011728	0
14.01.2021	19:23:15	0	0	4,180155	4,2405	105,1272	0,908	77,262	3,5	1005,38	7,5	9,5	9,2	1	1	1	1	1	1	1	1	1	0	1	-34,883721	274,840765	288,641137	0
14.01.2021	19:23:16	0	0	4,519114	4,19175	105,4944	0,911	77,264	3,5	1005,4	7,5	9,2	9,1	1	1	1	1	1	1	1	1	1	0	1	-34,672304	274,9465	289,350699	0
14.01.2021	19:23:17	0	0	4,519114	4,194	104,0796	0,905	77,247	3,5	1005,46	7,4	9,3	9,1	1	1	1	1	1	1	1	1	1	0	1	-40,732911	274,84852	282,828464	0
14.01.2021	19:23:18	0	0	3,841247	4,34925	95,5332	0,909	77,258	3,5	1005,34	7,4	9,3	9,1	1	1	1	1	1	1	1	1	1	0	1	-41,437632	274,94806	282,592721	0
14.01.2021	19:23:19	0	0	3,841201	4,2375	106,2936	0,907	77,265	3,5	1005,52	7,3	9,5	9,3	1	1	1	1	1	1	1	1	1	0	1	-35,024665	274,820617	288,405334	0
14.01.2021	19:23:20	0	0	4,632064	3,939	95,5224	0,91	77,258	3,5	1005,32	7,6	9,5	9,2	1	1	1	1	1	1	1	1	1	0	1	-34,813249	274,780383	288,42739	0
14.01.2021	19:23:21	0	0	3,276358	3,63	96,1884	0,905	77,255	3,5	1005,42	7,4	9,3	9,1	1	1	1	1	1	1	1	1	1	0	1	-32,9105	274,809776	290,46847	0
14.01.2021	19:23:22	0	0	3,954201	3,63525	91,908	0,911	77,253	3,5	1005,38	7,3	9,6	9,2	1	1	1	1	1	1	1	1	1	0	1	-35,377026	274,885788	288,359873	0
14.01.2021	19:23:23	0	0	3,050384	3,804	92,9448	0,91	77,26	3,5	1005,18	7,5	9,4	9,2	1	1	1	1	1	1	1	1	1	0	1	-36,645525	274,963659	287,458371	0
14.01.2021	19:23:24	0	0	2,824429	4,09575	97,3152	0,906	77,262	3,5	1005,42	7,5	9,3	9,2	1	1	1	1	1	1	1	1	1	0	1	-41,789993	274,834564	281,705665	0
14.01.2021	19:23:25	0	0	2,824429	4,18725	102,2076	0,905	77,27	3,5	1005,46	7,6	9,3	9,2	1	1	1	1	1	1	1	1	1	0	1	-39,464412	274,955858	284,602704	0
14.01.2021	19:23:26	0	0	2,598444	4,27725	88,56	0,907	77,27	3,5	1005,4	7,4	9,5	9,4	1	1	1	1	1	1	1	1	1	0	1	-37,843552	274,802037	285,498991	0
14.01.2021	19:23:27	0	0	2,372521	4,31025	91,8972	0,911	77,283	3,5	1005,38	7,4	9,5	9,2	1	1	1	1	1	1	1	1	1	0	1	-38,900634	274,943382	285,107671	0
14.01.2021	19:23:28	0	0	4,18013	4,12725	88,956	0,912	77,268	3,5	1005,36	7,5	9,3	9,3	1	1	1	1	1	1	1	1	1	0	1	-34,883721	274,899781	288,919106	0
14.01.2021	19:23:29	0	0	2,485513	3,978	82,9908	0,907	77,258	3,5	1005,34	7,5	9,5	9,1	1	1	1	1	1	1	1	1	1	0	1	-38,12544	274,895116	285,655404	0
14.01.2021	19:23:30	0	0	4,745041	4,09275	86,9616	0,906	77,278	3,5	1005,38	7,6	9,5	9,2	1	1	1	1	1	1	1	1	1	0	1	-36,293164	274,940265	287,700445	0
14.01.2021	19:23:31	0	0	2,937424	4,2045	94,392	0,904	77,287	3,5	1005,52	7,6	9,4	9,1	1	1	1	1	1	1	1	1	1	0	1	-37,843552	274,786567	285,426188	0
14.01.2021	19:23:32	0	0	4,858048	4,125	94,1004	0,91	77,262	3,5	1005,4	7,4	9,3	9,1	1	1	1	1	1	1	1	1	1	0	1	-37,984496	274,938706	286,001766	0
14.01.2021	19:23:33	0	0	3,61527	4,083	89,7048	0,905	77,273	3,5	1005,36	7,7	9,5	9,2	1	1	1	1	1	1	1	1	1	0	1	-37,209302	274,958978	286,872523	0
14.01.2021	19:23:34	0	0	2,937389	4,45125	88,0884	0,91	77,273	3,5	1005,34	7,3	9,5	9,3	1	1	1	1	1	1	1	1	1	0	1	-37,984496	274,901337	285,82566	0
14.01.2021	19:23:35	0	0	4,18008	4,701	73,0692	0,909	77,257	3,5	1005,42	7,3	9,5	9,5	1	1	1	1	1	1	1	1	1	0	1	-34,460888	274,777291	288,765204	0
14.01.2021	19:23:36	0	0	3,163342	4,644	62,1	0,908	77,274	3,5	1005,32	7,4	9,4	9,3	1	1	1	1	1	1	1	1	1	0	1	-35,658915	274,913785	288,209898	0
14.01.2021	19:23:37	0	0	3,276358	4,2075	60,9336	0,903	77,268	3,5	1005,42	7,4	9,6	9,1	1	1	1	1	1	1	1	1	1	0	1	-36,997886	274,94806	287,032468	0
14.01.2021	19:23:38	0	0	3,954177	4,2765	79,3944	0,904	77,286	3,5	1005,26	7,3	9,6	9,3	1	1	1	1	1	1	1	1	1	0	1	-35,095137	274,893561	288,678381	0
14.01.2021	19:23:39	0	0	4,40611	4,26	75,9708	0,905	77,272	3,5	1005,44	7,4	9,5	9,2	1	1	1	1	1	1	1	1	1	0	1	-38,195913	274,949619	285,841792	0
14.01.2021	19:23:40	0	0	4,293158	4,10175	81,9432	0,908	77,279	3,5	1005,48	7,4	9,5	9,1	1	1	1	1	1	1	1	1	1	0	1	-37,491191	274,882679	286,231066	0
14.01.2021	19:23:41	0	0	3,615226	3,84075	82,962	0,905	77,289	3,5	1005,46	7,6	9,5	9,4	1	1	1	1	1	1	1	1	1	0	1	-34,178999	274,785021	289,083464	0
14.01.2021	19:23:42	0	0	4,40611	3,588	105,8724	0,905	77,26	3,5	1005,36	7,7	9,3	9,2	1	1	1	1	1	1	1	1	1	0	1	-39,041579	274,927799	284,893277	0
14.01.2021	19:23:43	0	0	3,389315	3,498	103,752	0,907	77,272	3,5	1005,42	7,4	9,5	9,2	1	1	1	1	1	1	1	1	1	0	1	-35,16561	274,885788	288,57129	0
14.01.2021	19:23:44	0	0	4,519087	3,29775	98,0676	0,903	77,252	3,5	1005,36	7,3	9,3	9,2	1	1	1	1	1	1	1	1	1	0	1	-38,266385	274,940265	285,727224	0
14.01.2021	19:23:45	0	0	4,180181	3,402	94,104	0,907	77,262	3,5	1005,44	7,5	9,5	9,1	1	1	1	1	1	1	1	1	1	0	1	-36,15222	274,781929	287,095693	0
14.01.2021	19:23:46	0	0	4,406136	3,4635	92,2752	0,908	77,261	3,5	1005,48	7,3	9,3	9,1	1	1	1	1	1	1	1	1	1	0	1	-35,799859	274,754121	287,317225	0
14.01.2021	19:23:47	0	0	4,406136	3,354	89,0496	0,904	77,261	3,5	1005,36	7,4	9,6	9,1	1	1	1	1	1	1	1	1	1	0	1	-32,346723	274,850072	291,221957	0
14.01.2021	19:23:48	0	0	4,180105	3,276	79,7868	0,897	77,248	3,5	1005,3	7,6	9,4	9,4	1	1	1	1	1	1	1	1	1	0	1	-34,813249	274,944941	289,202405	0
14.01.2021	19:23:49	0	0	2,824412	3,396	88,0992	0,909	77,248	3,5	1005,44	7,6	9,4	9,3	1	1	1	1	1	1	1	1	1	0	1	-37,561663	274,899781	286,241164	0
14.01.2021	19:23:50	0	0	3,841224	3,45525	94,0932	0,904	77,259	3,5	1005,32	7,3	9,5	9,2	1	1	1	1	1	1	1	1	1	0	1	-37,420719	274,760297	285,725418	0
14.01.2021	19:23:51	0	0	4,293133	3,456	95,8392	0,903	77,262	3,5	1005,42	7,3	9,3	9,2	1	1	1	1	1	1	1	1	1	0	1	-40,662438	274,938706	283,323824	0
14.01.2021	19:23:52	0	0	3,276338	3,40125	94,3848	0,898	77,267	3,5	1005,38	7,7	9,6	9,2	1	1	1	1	1	1	1	1	1	0	1	-37,632135	274,795848	285,681278	0
14.01.2021	19:23:53	0	0	2,485483	3,387	95,8212	0,904	77,277	3,5	1005,54	7,5	9,5	9,3	1	1	1	1	1	1	1	1	1	0	1	-33,967583	274,839215	289,549974	0
14.01.2021	19:23:54	0	0	3,050384	3,7245	88,9956	0,904	77,277	3,5	1005,32	7,7	9,5	9,2	1	1	1	1	1	1	1	1	1	0	1	-33,756166	274,77111	289,440842	0
14.01.2021	19:23:55	0	0	3,163361	3,66375	85,518	0,902	77,285	3,5	1005,42	7,6	9,6	9,2	1	1	1	1	1	1	1	1	1	0	1	-39,252995	274,870251	284,410719	0
14.01.2021	19:23:56	0	0	4,406136	3,7425	101,5308	0,903	77,285	3,5	1005,52	7,3	9,4	9,1	1	1	1	1	1	1	1	1	1	0	1	-38,830162	274,77111	284,366846	0
14.01.2021	19:23:57	0	0	3,502271	3,83325	96,9696	0,902	77,322	3,5	1005,44	7,3	9,5	9,3	1	1	1	1	1	1	1	1	1	0	1	-39,112051	274,921569	284,793445	0
14.01.2021	19:23:58	0	0	2,485498	3,85875	96,2064	0,9	77,326	3,5	1005,3	7,3	9,4	9,2	1	1	1	1	1	1	1	1	1	0	1	-37,068358	274,840765	286,4565	0
14.01.2021	19:23:59	0	0	3,050384	3,74475	98,7696	0,895	77,34	3,5	1005,36	7,3	9,5	9,2	1	1	1	1	1	1	1	1	1	0	1	-37,279774	274,924684	286,6404	0
14.01.2021	19:24:00	0	0	2,485483	3,69075	82,3428	0,899	77,35	3,5	1005,42	7,3	9,6	9,3	1	1	1	1	1	1	1	1	1	0	1	-33,615222	274,901337	290,194934	0
14.01.2021	19:24:01	0	0	4,970966	3,50325	86,67	0,907	77,337	3,5	1005,48	7,3	9,5	9,3	1	1	1	1	1	1	1	1	1	0	1	-37,279774	274,792754	286,019078	0
14.01.2021	19:24:02	0	0	4,970966	3,50325	86,67	0,907	77,337	3,5	1005,48	7,3	9,5	9,3	1	1	1	1	1	1	1	1	1	0	1	-37,279774	274,792754	286,019078	0
14.01.2021	19:24:03	0	0	4,406083	3,258	97,3188	0,908	77,356	3,5	1005,42	7,3	9,5	9,3	1	1	1	1	1	1	1	1	1	0	1	-33,826638	274,940265	290,166971	0
14.01.2021	19:24:04	0	0	4,51906	3,1275	94,1292	0,901	77,329	3,5	1005,52	7,6	9,3	9,3	1	1	1	1	1	1	1	1	1	0	1	-39,887245	274,862487	283,739904	0
14.01.2021	19:24:05	0	0	3,50225	3,12825	96,588	0,9	77,342	3,5	1005,42	7,4	9,5	9,4	1	1	1	1	1	1	1	1	1	0	1	-33,615222	274,935589	290,356349	0
14.01.2021	19:24:06	0	0	4,970996	3,24675	89,4204	0,896	77,339	3,5	1005,38	7,6	9,3	9,2	1	1	1	1	1	1	1	1	1	0	1	-36,927414	274,777291	286,298679	0
14.01.2021	19:24:07	0	0	3,841224	3,417	87,7428	0,902	77,323	3,5	1005,38	7,5	9,5	9,2	1	1	1	1	1	1	1	1	1	0	1	-38,266385	274,890451	285,492484	0
14.01.2021	19:24:08	0	0	2,711403	3,71325	80,9136	0,899	77,328	3,5	1005,24	7,4	9,5	9,5	1	1	1	1	1	1	1	1	1	0	1	-33,615222	274,940265	290,378387	0
14.01.2021	19:24:09	0	0	3,954201	3,7395	107,7408	0,897	77,307	3,5	1005,5	7,4	9,5	9,2	1	1	1	1	1	1	1	1	1	0	1	-38,336857	274,837664	285,1734	0
14.01.2021	19:24:10	0	0	3,615248	3,804	85,932	0,906	77,3	3,5	1005,56	7,8	9,4	9,3	1	1	1	1	1	1	1	1	1	0	1	-42,142354	274,788114	281,134663	0
14.01.2021	19:24:11	0	0	4,857989	4,20975	80,514	0,908	77,306	3,5	1005,34	7,4	9,5	9,3	1	1	1	1	1	1	1	1	1	0	1	-38,971106	274,74949	284,124195	0
14.01.2021	19:24:12	0	0	2,937407	4,42125	107,046	0,895	77,292	3,5	1005,44	7,4	9,4	9,2	1	1	1	1	1	1	1	1	1	0	1	-35,095137	274,840765	288,429721	0
14.01.2021	19:24:13	0	0	2,598475	4,45275	113,5116	0,904	77,301	3,5	1005,42	7,4	9,5	9,2	1	1	1	1	1	1	1	1	1	0	1	-37,279774	274,929357	286,662423	0
14.01.2021	19:24:14	0	0	4,970996	4,05525	100,3644	0,899	77,293	3,5	1005,44	7,3	9,3	9,2	1	1	1	1	1	1	1	1	1	0	1	-42,706131	274,788114	280,570886	0
14.01.2021	19:24:15	0	0	3,61527	3,66	97,3188	0,902	77,299	3,5	1005,48	7,6	9,3	9,2	1	1	1	1	1	1	1	1	1	0	1	-33,121917	274,924684	290,798257	0
14.01.2021	19:24:16	0	0	2,711452	3,546	92,7252	0,898	77,308	3,5	1005,38	7,5	9,5	9,2	1	1	1	1	1	1	1	1	1	0	1	-38,407329	274,924684	285,512845	0
14.01.2021	19:24:17	0	0	4,632064	3,74475	94,0932	0,898	77,305	3,5	1005,46	7,5	9,3	9,2	1	1	1	1	1	1	1	1	1	0	1	-37,068358	274,879571	286,639259	0
14.01.2021	19:24:18	0	0	3,163361	3,90525	95,8212	0,897	77,294	3,5	1005,44	7,7	9,3	9,2	1	1	1	1	1	1	1	1	1	0	1	-38,477801	274,758753	284,661072	0
14.01.2021	19:24:19	0	0	4,067203	4,05525	86,9688	0,906	77,3	3,5	1005,5	7,6	9,5	9,1	1	1	1	1	1	1	1	1	1	0	1	-38,12544	274,836114	285,377517	0
14.01.2021	19:24:20	0	0	3,389336	4,0545	89,7912	0,892	77,303	3,5	1005,32	7,3	9,4	9,1	1	1	1	1	1	1	1	1	1	0	1	-39,957717	274,927799	283,977139	0
14.01.2021	19:24:21	0	0	2,485513	4,06725	84,0168	0,894	77,3	3,5	1005,48	7,6	9,5	9,1	1	1	1	1	1	1	1	1	1	0	1	-37,068358	274,893561	286,705161	0
14.01.2021	19:24:22	0	0	3,502292	4,2135	98,0676	0,902	77,307	3,5	1005,44	7,4	9,5	9,2	1	1	1	1	1	1	1	1	1	0	1	-38,548273	274,921569	285,357222	0
14.01.2021	19:24:23	0	0	3,728269	4,1955	84,4416	0,897	77,3	3,5	1005,4	7,4	9,3	9,1	1	1	1	1	1	1	1	1	1	0	1	-42,635659	274,780383	280,60498	0
14.01.2021	19:24:24	0	0	4,067178	4,0725	88,5636	0,899	77,31	3,5	1005,56	7,4	9,3	9,2	1	1	1	1	1	1	1	1	1	0	1	-36,222692	274,882679	287,499565	0
14.01.2021	19:24:25	0	0	3,276338	4,13775	92,6352	0,894	77,305	3,5	1005,54	7,6	9,3	9,2	1	1	1	1	1	1	1	1	1	0	1	-36,363636	274,763386	286,797032	0
14.01.2021	19:24:26	0	0	4,970996	4,05375	87,7284	0,895	77,292	3,5	1005,32	7,6	9,4	9,2	1	1	1	1	1	1	1	1	1	0	1	-36,504581	274,888896	287,246964	0
14.01.2021	19:24:27	0	0	3,276318	3,89925	88,9668	0,903	77,318	3,5	1005,5	7,4	9,3	9,3	1	1	1	1	1	1	1	1	1	0	1	-35,658915	274,752578	287,450907	0
14.01.2021	19:24:28	0	0	3,276358	3,50625	85,1544	0,902	77,301	3,5	1005,52	7,7	9,5	9,1	1	1	1	1	1	1	1	1	1	0	1	-37,279774	274,785021	285,982689	0
14.01.2021	19:24:29	0	0	2,711468	3,28725	95,8536	0,902	77,31	3,5	1005,56	7,4	9,3	9,1	1	1	1	1	1	1	1	1	1	0	1	-33,474278	274,795848	289,839136	0
14.01.2021	19:24:30	0	0	4,40611	3,267	96,57	0,898	77,298	3,5	1005,48	7,4	9,3	9,2	1	1	1	1	1	1	1	1	1	0	1	-37,279774	274,909116	286,567036	0
14.01.2021	19:24:31	0	0	4,293133	3,60075	74,2428	0,89	77,296	3,5	1005,46	7,6	9,3	9,2	1	1	1	1	1	1	1	1	1	0	1	-39,112051	274,85783	284,493167	0
14.01.2021	19:24:32	0	0	2,937407	3,84225	78,2928	0,901	77,299	3,5	1005,36	7,4	9,4	9,2	1	1	1	1	1	1	1	1	1	0	1	-36,363636	274,920012	287,534521	0
14.01.2021	19:24:33	0	0	3,954177	3,711	84,798	0,897	77,285	3,5	1005,44	7,7	9,5	9,3	1	1	1	1	1	1	1	1	1	0	1	-34,954193	274,764931	288,213742	0
14.01.2021	19:24:34	0	0	2,598475	3,40275	96,228	0,897	77,289	3,5	1005,38	7,7	9,5	9,2	1	1	1	1	1	1	1	1	1	0	1	-36,222692	274,876464	287,470288	0
14.01.2021	19:24:35	0	0	3,728269	2,9685	94,7736	0,9	77,278	3,5	1005,44	7,4	9,4	9,1	1	1	1	1	1	1	1	1	1	0	1	-33,192389	274,9465	290,830614	0
14.01.2021	19:24:36	0	0	4,745041	2,532	80,1396	0,899	77,289	3,5	1005,24	7,5	9,5	9,2	1	1	1	1	1	1	1	1	1	0	1	-34,390416	274,854727	289,200185	0
14.01.2021	19:24:37	0	0	2,598475	2,5605	108,1332	0,9	77,282	3,5	1005,52	7,6	9,4	9,2	1	1	1	1	1	1	1	1	1	0	1	-36,786469	274,90756	287,053009	0
14.01.2021	19:24:38	0	0	4,180155	2,71425	92,9556	0,904	77,282	3,5	1005,48	7,4	9,4	9,2	1	1	1	1	1	1	1	1	1	0	1	-35,024665	274,775746	288,194155	0
14.01.2021	19:24:39	0	0	2,824429	2,757	95,5188	0,898	77,275	3,5	1005,36	7,7	9,3	9,2	1	1	1	1	1	1	1	1	1	0	1	-36,081748	274,854727	287,508853	0
14.01.2021	19:24:40	0	0	4,406136	2,8365	90,7668	0,894	77,279	3,5	1005,22	7,4	9,3	9,1	1	1	1	1	1	1	1	1	1	0	1	-34,601832	274,937147	289,377084	0
14.01.2021	19:24:41	0	0	4,40611	2,9175	73,7748	0,896	77,276	3,5	1005,52	7,4	9,4	9,2	1	1	1	1	1	1	1	1	1	0	1	-36,363636	274,754121	286,753447	0
14.01.2021	19:24:42	0	0	4,519087	2,96625	81,6768	0,892	77,27	3,5	1005,28	7,6	9,5	9,2	1	1	1	1	1	1	1	1	1	0	1	-39,323467	274,837664	284,18679	0
14.01.2021	19:24:43	0	0	2,259557	2,9355	91,1448	0,9	77,296	3,5	1005,54	7,4	9,4	9,1	1	1	1	1	1	1	1	1	1	0	1	-35,16561	274,918455	288,725211	0
14.01.2021	19:24:44	0	0	3,728247	3,0255	95,1228	0,893	77,289	3,5	1005,16	7,4	9,3	9,2	1	1	1	1	1	1	1	1	1	0	1	-39,393939	274,879571	284,313678	0
14.01.2021	19:24:45	0	0	2,937389	3,6525	93,3408	0,894	77,273	3,5	1005,52	7,6	9,4	9,3	1	1	1	1	1	1	1	1	1	0	1	-37,068358	274,929357	286,873839	0
14.01.2021	19:24:46	0	0	2,598475	4,473	100,7568	0,897	77,28	3,5	1005,48	7,4	9,5	9,2	1	1	1	1	1	1	1	1	1	0	1	-37,843552	274,809776	285,535419	0
14.01.2021	19:24:47	0	0	3,502271	4,7055	96,2352	0,917	77,289	3,5	1005,56	7,4	9,5	9,3	1	1	1	1	1	1	1	1	1	0	1	-40,803383	274,760297	282,342755	0
14.01.2021	19:24:48	0	0	3,276318	4,605	113,0472	0,9	77,337	3,5	1005,44	7,4	9,4	9,3	1	1	1	1	1	1	1	1	1	0	1	-38,336857	274,783475	284,918331	0
14.01.2021	19:24:49	0	0	2,259557	4,41975	104,4072	0,892	77,29	3,5	1005,4	7,6	9,4	9,1	1	1	1	1	1	1	1	1	1	0	1	-34,672304	274,797395	288,64839	0
14.01.2021	19:24:50	0	0	2,824429	4,593	93,33	0,898	77,315	3,5	1005,46	7,3	9,4	9,2	1	1	1	1	1	1	1	1	1	0	1	-40,944327	274,752578	282,165495	0
14.01.2021	19:24:51	0	0	4,293133	5,19675	96,9732	0,896	77,3	3,5	1005,54	7,4	9,4	9,2	1	1	1	1	1	1	1	1	1	0	1	-40,098661	274,862487	283,528487	0
14.01.2021	19:24:52	0	0	3,389336	5,33625	97,7184	0,896	77,335	3,5	1005,38	7,4	9,4	9,1	1	1	1	1	1	1	1	1	1	0	1	-34,813249	274,74949	288,282052	0
14.01.2021	19:24:53	0	0	4,971026	5,71875	103,6836	0,895	77,338	3,5	1005,32	7,6	9,5	9,1	1	1	1	1	1	1	1	1	1	0	1	-38,618746	274,884233	285,110832	0
14.01.2021	19:24:54	0	0	3,61527	6,06825	95,5188	0,9	77,361	3,5	1005,42	7,6	9,4	9,2	1	1	1	1	1	1	1	1	1	0	1	-39,182523	274,918455	284,708297	0
14.01.2021	19:24:55	0	0	4,74507	6,0555	89,6976	0,892	77,372	3,5	1005,46	7,8	9,3	9,1	1	1	1	1	1	1	1	1	1	0	1	-41,789993	274,909116	282,056818	0
14.01.2021	19:24:56	0	0	3,163361	5,76375	89,046	0,9	77,383	3,5	1005,6	7,6	9,4	9,2	1	1	1	1	1	1	1	1	1	0	1	-34,813249	274,792754	288,485604	0
14.01.2021	19:24:57	0	0	3,050402	5,15625	101,9052	0,897	77,402	3,5	1005,36	7,6	9,5	9,1	1	1	1	1	1	1	1	1	1	0	1	-36,434109	274,76802	286,748361	0
14.01.2021	19:24:58	0	0	4,406083	4,935	93,348	0,892	77,392	3,5	1005,4	7,3	9,5	9,3	1	1	1	1	1	1	1	1	1	0	1	-35,51797	274,822166	287,919321	0
14.01.2021	19:24:59	0	0	2,937424	5,15175	94,1076	0,896	77,417	3,5	1005,46	7,2	9,5	9,1	1	1	1	1	1	1	1	1	1	0	1	-41,085271	274,906004	282,746875	0
14.01.2021	19:25:00	0	0	3,502334	5,13075	103,2804	0,889	77,414	3,5	1005,28	7,4	9,2	9	1	1	1	1	1	1	1	1	1	0	1	-39,041579	274,746404	284,039204	0
14.01.2021	19:25:01	0	0	2,711468	5,2365	95,8248	0,89	77,435	3,5	1005,42	7,7	9,2	9,1	1	1	1	1	1	1	1	1	1	0	1	-39,041579	274,746404	284,039204	0
14.01.2021	19:25:02	0	0	2,711468	5,2365	95,8248	0,89	77,435	3,5	1005,42	7,7	9,2	9,1	1	1	1	1	1	1	1	1	1	0	1	-34,813249	274,794301	288,492884	0
14.01.2021	19:25:03	0	0	2,937407	5,00025	111,0492	0,892	77,429	3,5	1005,42	7,4	9,5	9,2	1	1	1	1	1	1	1	1	1	0	1	-37,350247	274,772655	285,854031	0
14.01.2021	19:25:04	0	0	4,293133	5,02725	99,9144	0,891	77,438	3,5	1005,48	7,3	9,4	9,2	1	1	1	1	1	1	1	1	1	0	1	-39,041579	274,766475	284,133623	0
14.01.2021	19:25:05	0	0	4,293133	4,80375	124,6896	0,899	77,45	3,5	1005,56	7,3	9,3	9,2	1	1	1	1	1	1	1	1	1	0	1	-34,460888	274,743318	288,605379	0
14.01.2021	19:25:06	0	0	3,954177	4,7715	116,9892	0,893	77,444	3,5	1005,34	7,4	9,5	9,3	1	1	1	1	1	1	1	1	1	0	1	-40,591966	274,786567	282,677774	0
14.01.2021	19:25:07	0	0	2,598475	4,58025	109,962	0,891	77,443	3,5	1005,4	7,4	9,2	9,2	1	1	1	1	1	1	1	1	1	0	1	-41,649049	274,764931	281,518886	0
14.01.2021	19:25:08	0	0	2,711436	4,56825	81,5868	0,891	77,461	3,5	1005,44	7,3	9,3	9,3	1	1	1	1	1	1	1	1	1	0	1	-35,799859	274,77111	287,397149	0
14.01.2021	19:25:09	0	0	3,389295	4,69725	102,9492	0,895	77,44	3,5	1005,56	7,4	9,5	9,3	1	1	1	1	1	1	1	1	1	0	1	-35,940803	274,751034	287,161758	0
14.01.2021	19:25:10	0	0	3,050365	4,87125	99,1764	0,895	77,454	3,5	1005,48	7,4	9,4	9,3	1	1	1	1	1	1	1	1	1	0	1	-36,997886	274,851623	286,5781	0
14.01.2021	19:25:11	0	0	3,61527	4,86075	89,4348	0,897	77,454	3,5	1005,4	7,4	9,5	9,2	1	1	1	1	1	1	1	1	1	0	1	-36,997886	274,752578	286,111936	0
14.01.2021	19:25:12	0	0	2,711452	4,4325	91,1664	0,889	77,421	3,5	1005,5	7,6	9,3	9,2	1	1	1	1	1	1	1	1	1	0	1	-38,548273	274,785021	284,71419	0
14.01.2021	19:25:13	0	0	2,711468	4,40025	91,8972	0,894	77,419	3,5	1005,3	7,2	9,2	9,1	1	1	1	1	1	1	1	1	1	0	1	-37,914024	274,754121	285,20306	0
14.01.2021	19:25:14	0	0	2,937424	4,4595	88,542	0,891	77,435	3,5	1005,44	7,4	9,5	9,1	1	1	1	1	1	1	1	1	1	0	1	-39,112051	274,898226	284,683448	0
14.01.2021	19:25:15	0	0	3,954201	4,67625	96,2208	0,895	77,416	3,5	1005,56	7,6	9,5	9,2	1	1	1	1	1	1	1	1	1	0	1	-37,13883	274,923127	286,774005	0
14.01.2021	19:25:16	0	0	3,16338	4,6335	103,2768	0,894	77,397	3,5	1005,28	7,7	9,5	9,1	1	1	1	1	1	1	1	1	1	0	1	-34,813249	274,783475	288,441939	0
14.01.2021	19:25:17	0	0	3,050384	4,54725	95,4936	0,889	77,403	3,5	1005,54	7,6	9,3	9,2	1	1	1	1	1	1	1	1	1	0	1	-35,658915	274,834564	287,836743	0
14.01.2021	19:25:18	0	0	2,598475	4,32975	80,5032	0,895	77,412	3,5	1005,4	7,4	9,4	9,2	1	1	1	1	1	1	1	1	1	0	1	-33,474278	274,918455	290,416543	0
14.01.2021	19:25:19	0	0	4,293133	4,3005	109,6596	0,897	77,403	3,5	1005,3	7,3	9,5	9,2	1	1	1	1	1	1	1	1	1	0	1	-38,195913	274,758753	284,94296	0
14.01.2021	19:25:20	0	0	3,61527	4,14075	104,4144	0,888	77,405	3,5	1005,44	7,2	9,5	9,2	1	1	1	1	1	1	1	1	1	0	1	-39,182523	274,761842	283,970879	0
14.01.2021	19:25:21	0	0	3,050384	3,93225	105,498	0,892	77,398	3,5	1005,42	7,3	9,4	9,2	1	1	1	1	1	1	1	1	1	0	1	-40,803383	274,884233	282,926195	0
14.01.2021	19:25:22	0	0	2,372521	3,72375	116,352	0,888	77,403	3,5	1005,26	7,4	9,3	9,2	1	1	1	1	1	1	1	1	1	0	1	-37,350247	274,887342	286,393975	0
14.01.2021	19:25:23	0	0	2,711452	3,43875	99,8784	0,89	77,387	3,5	1005,52	7,7	9,5	9,2	1	1	1	1	1	1	1	1	1	0	1	-36,15222	274,781929	287,095693	0
14.01.2021	19:25:24	0	0	3,276358	3,56325	94,3956	0,893	77,395	3,5	1005,38	7,3	9,5	9,1	1	1	1	1	1	1	1	1	1	0	1	-40,591966	274,792754	282,706887	0
14.01.2021	19:25:25	0	0	3,050384	3,852	93,7188	0,894	77,387	3,5	1005,34	7,6	9,3	9,2	1	1	1	1	1	1	1	1	1	0	1	-40,591966	274,902892	283,225519	0
14.01.2021	19:25:26	0	0	2,824429	4,128	86,9832	0,889	77,398	3,5	1005,42	7,7	9,3	9,2	1	1	1	1	1	1	1	1	1	0	1	-32,487667	274,777291	290,738425	0
14.01.2021	19:25:27	0	0	3,389315	4,131	91,5192	0,896	77,387	3,5	1005,6	7,3	9,4	9,2	1	1	1	1	1	1	1	1	1	0	1	-39,464412	274,904448	284,360404	0
14.01.2021	19:25:28	0	0	4,858048	4,11825	95,148	0,893	77,397	3,5	1005,5	7,7	9,3	9,1	1	1	1	1	1	1	1	1	1	0	1	-38,477801	274,80668	284,886596	0
14.01.2021	19:25:29	0	0	4,180181	4,2705	84,8808	0,896	77,419	3,5	1005,5	7,3	9,4	9,1	1	1	1	1	1	1	1	1	1	0	1	-38,054968	274,923127	285,857866	0
14.01.2021	19:25:30	0	0	3,728247	4,425	80,1324	0,886	77,411	3,5	1005,4	7,3	9,3	9,2	1	1	1	1	1	1	1	1	1	0	1	-40,521494	274,780383	282,719145	0
14.01.2021	19:25:31	0	0	3,841247	4,515	82,602	0,885	77,415	3,5	1005,26	7,3	9,5	9,1	1	1	1	1	1	1	1	1	1	0	1	-42,565187	274,772655	280,639091	0
14.01.2021	19:25:32	0	0	4,745013	4,347	82,3428	0,887	77,411	3,5	1005,5	7,7	9,3	9,3	1	1	1	1	1	1	1	1	1	0	1	-43,199436	274,888896	280,552109	0
14.01.2021	19:25:33	0	0	4,293133	4,04475	88,668	0,887	77,403	3,5	1005,48	7,4	9,3	9,2	1	1	1	1	1	1	1	1	1	0	1	-39,605356	274,871804	284,065674	0
14.01.2021	19:25:34	0	0	2,372521	3,90975	84,4092	0,892	77,411	3,5	1005,44	7,4	9,4	9,2	1	1	1	1	1	1	1	1	1	0	1	-37,914024	274,74949	285,181277	0
14.01.2021	19:25:35	0	0	4,519087	3,99675	94,0644	0,89	77,402	3,5	1005,38	7,4	9,4	9,2	1	1	1	1	1	1	1	1	1	0	1	-38,12544	274,856278	285,472468	0
14.01.2021	19:25:36	0	0	3,276358	3,882	97,3224	0,895	77,411	3,5	1005,52	7,4	9,4	9,1	1	1	1	1	1	1	1	1	1	0	1	-33,615222	274,910672	290,238922	0
14.01.2021	19:25:37	0	0	3,615291	3,79425	91,4904	0,886	77,393	3,5	1005,44	7,4	9,4	9,1	1	1	1	1	1	1	1	1	1	0	1	-35,870331	274,865592	287,771442	0
14.01.2021	19:25:38	0	0	3,276318	3,912	98,1072	0,893	77,388	3,5	1005,38	7,3	9,3	9,3	1	1	1	1	1	1	1	1	1	0	1	-38,830162	274,772655	284,374116	0
14.01.2021	19:25:39	0	0	4,406083	3,99375	105,138	0,889	77,37	3,5	1005,5	7,4	9,4	9,3	1	1	1	1	1	1	1	1	1	0	1	-35,236082	274,923127	288,676753	0
14.01.2021	19:25:40	0	0	3,728247	3,94575	107,0208	0,898	77,367	3,5	1005,4	7,4	9,2	9,2	1	1	1	1	1	1	1	1	1	0	1	-38,548273	274,873357	285,130072	0
14.01.2021	19:25:41	0	0	2,824412	3,8025	103,6836	0,899	77,356	3,5	1005,52	7,3	9,5	9,3	1	1	1	1	1	1	1	1	1	0	1	-35,377026	274,758753	287,761847	0
14.01.2021	19:25:42	0	0	4,406083	3,861	102,528	0,89	77,354	3,5	1005,28	7,6	9,3	9,3	1	1	1	1	1	1	1	1	1	0	1	-37,632135	274,729437	285,368847	0
14.01.2021	19:25:43	0	0	2,711436	4,23825	90,0144	0,896	77,345	3,5	1005,32	7,2	9,6	9,3	1	1	1	1	1	1	1	1	1	0	1	-39,182523	274,735605	283,847468	0
14.01.2021	19:25:44	0	0	4,293107	4,29225	89,3124	0,892	77,344	3,5	1005,38	7,4	9,4	9,3	1	1	1	1	1	1	1	1	1	0	1	-36,715997	274,890451	287,042872	0
14.01.2021	19:25:45	0	0	3,954177	4,25175	75,3048	0,889	77,333	3,5	1005,44	7,4	9,4	9,3	1	1	1	1	1	1	1	1	1	0	1	-33,474278	274,823715	289,970307	0
14.01.2021	19:25:46	0	0	3,615248	3,95775	84,042	0,897	77,326	3,5	1005,32	7,4	9,4	9,3	1	1	1	1	1	1	1	1	1	0	1	-39,323467	274,746404	283,757315	0
14.01.2021	19:25:47	0	0	4,406136	4,095	97,6896	0,893	77,332	3,5	1005,4	7,7	9,3	9,1	1	1	1	1	1	1	1	1	1	0	1	-36,786469	274,893561	286,987049	0
14.01.2021	19:25:48	0	0	2,598475	4,31925	101,8188	0,893	77,309	3,5	1005,34	7,2	9,3	9,2	1	1	1	1	1	1	1	1	1	0	1	-38,689218	274,890451	285,069651	0
14.01.2021	19:25:49	0	0	3,615291	4,38075	97,7724	0,89	77,317	3,5	1005,4	7,4	9,4	9,1	1	1	1	1	1	1	1	1	1	0	1	-38,971106	274,772655	284,233172	0
14.01.2021	19:25:50	0	0	2,711468	4,332	92,6568	0,894	77,306	3,5	1005,48	7,7	9,5	9,1	1	1	1	1	1	1	1	1	1	0	1	-31,289641	274,865592	292,352132	0
14.01.2021	19:25:51	0	0	3,954201	4,09725	92,2644	0,89	77,326	3,5	1005,44	7,6	9,5	9,2	1	1	1	1	1	1	1	1	1	0	1	-40,662438	274,909116	283,184373	0
14.01.2021	19:25:52	0	0	4,406083	3,77175	86,9472	0,892	77,309	3,5	1005,38	7,7	9,2	9,3	1	1	1	1	1	1	1	1	1	0	1	-35,658915	274,726354	287,327567	0
14.01.2021	19:25:53	0	0	3,163361	4,16625	90,4068	0,893	77,315	3,5	1005,56	7,2	9,6	9,2	1	1	1	1	1	1	1	1	1	0	1	-36,222692	274,837664	287,287565	0
14.01.2021	19:25:54	0	0	2,937424	4,5	86,976	0,892	77,3	3,5	1005,68	7,2	9,4	9,1	1	1	1	1	1	1	1	1	1	0	1	-41,860465	274,915342	282,015683	0
14.01.2021	19:25:55	0	0	3,163361	4,359	97,3368	0,898	77,295	3,5	1005,48	7,4	9,4	9,2	1	1	1	1	1	1	1	1	1	0	1	-36,575053	274,842316	286,957107	0
14.01.2021	19:25:56	0	0	2,485483	4,16475	95,5152	0,894	77,288	3,5	1005,6	7,4	9,3	9,3	1	1	1	1	1	1	1	1	1	0	1	-37,561663	274,884233	286,167915	0
14.01.2021	19:25:57	0	0	2,937424	3,9885	97,3116	0,895	77,292	3,5	1005,48	7,3	9,5	9,1	1	1	1	1	1	1	1	1	1	0	1	-35,236082	274,786567	288,033658	0
14.01.2021	19:25:58	0	0	3,050365	4,26225	93,6972	0,894	77,282	3,5	1005,4	7,4	9,5	9,3	1	1	1	1	1	1	1	1	1	0	1	-39,7463	274,734063	283,276437	0
14.01.2021	19:25:59	0	0	4,632036	4,5465	97,3188	0,889	77,293	3,5	1005,54	7,6	9,5	9,3	1	1	1	1	1	1	1	1	1	0	1	-39,957717	274,865592	283,684056	0
14.01.2021	19:26:00	0	0	4,18013	4,18425	91,5012	0,888	77,298	3,5	1005,56	7,4	9,5	9,3	1	1	1	1	1	1	1	1	1	0	1	-38,548273	274,893561	285,225245	0
14.01.2021	19:26:01	0	0	4,18013	4,18425	91,5012	0,888	77,298	3,5	1005,56	7,4	9,5	9,3	1	1	1	1	1	1	1	1	1	0	1	-38,548273	274,893561	285,225245	0
14.01.2021	19:26:02	0	0	3,050365	4,398	98,1072	0,893	77,274	3,5	1005,44	7,4	9,3	9,3	1	1	1	1	1	1	1	1	1	0	1	-36,222692	274,850072	287,345988	0
14.01.2021	19:26:03	0	0	2,259544	4,3095	97,3332	0,89	77,301	3,5	1005,48	7,4	9,4	9,2	1	1	1	1	1	1	1	1	1	0	1	-35,447498	274,885788	288,289401	0
14.01.2021	19:26:04	0	0	4,293133	4,17	87,3756	0,885	77,285	3,5	1005,5	7,6	9,5	9,2	1	1	1	1	1	1	1	1	1	0	1	-40,028189	274,851623	283,547797	0
14.01.2021	19:26:05	0	0	3,841224	3,7125	95,1156	0,889	77,3	3,5	1005,7	7,6	9,4	9,2	1	1	1	1	1	1	1	1	1	0	1	-32,980973	274,732521	290,034512	0
14.01.2021	19:26:06	0	0	4,745041	3,4965	101,8116	0,883	77,296	3,5	1005,5	7,4	9,4	9,2	1	1	1	1	1	1	1	1	1	0	1	-31,712474	274,850072	291,856206	0
14.01.2021	19:26:07	0	0	4,406136	3,5055	99,1476	0,887	77,295	3,5	1005,58	7,7	9,5	9,1	1	1	1	1	1	1	1	1	1	0	1	-40,873855	274,846969	282,680215	0
14.01.2021	19:26:08	0	0	3,16338	3,61875	96,1992	0,889	77,305	3,5	1005,42	7,6	9,3	9,1	1	1	1	1	1	1	1	1	1	0	1	-36,504581	274,715566	286,431173	0
14.01.2021	19:26:09	0	0	3,16338	3,672	99,9108	0,887	77,303	3,5	1005,52	7,3	9,5	9,1	1	1	1	1	1	1	1	1	1	0	1	-42,283298	274,826814	281,175876	0
14.01.2021	19:26:10	0	0	3,954201	3,6345	80,2044	0,887	77,306	3,5	1005,42	7,6	9,3	9,2	1	1	1	1	1	1	1	1	1	0	1	-38,054968	274,904448	285,769847	0
14.01.2021	19:26:11	0	0	3,954201	3,67875	91,512	0,886	77,317	3,5	1005,5	7,4	9,5	9,2	1	1	1	1	1	1	1	1	1	0	1	-42,424242	274,867145	281,224843	0
14.01.2021	19:26:12	0	0	4,067178	3,8085	96,9912	0,881	77,309	3,5	1005,38	7,7	9,5	9,2	1	1	1	1	1	1	1	1	1	0	1	-42,494715	274,870251	281,169	0
14.01.2021	19:26:13	0	0	3,954177	3,822	98,4456	0,89	77,319	3,5	1005,48	7,6	9,3	9,3	1	1	1	1	1	1	1	1	1	0	1	-36,434109	274,912229	287,427369	0
14.01.2021	19:26:14	0	0	4,970966	3,81375	95,1264	0,878	77,31	3,5	1005,42	7,3	9,4	9,3	1	1	1	1	1	1	1	1	1	0	1	-36,011276	274,862487	287,615873	0
14.01.2021	19:26:15	0	0	3,728247	4,0305	114,48	0,886	77,321	3,5	1005,58	7,4	9,4	9,2	1	1	1	1	1	1	1	1	1	0	1	-37,77308	274,730979	285,235153	0
14.01.2021	19:26:16	0	0	3,61527	4,00575	94,3884	0,88	77,314	3,5	1005,46	7,4	9,5	9,2	1	1	1	1	1	1	1	1	1	0	1	-39,112051	274,850072	284,456629	0
14.01.2021	19:26:17	0	0	3,728247	3,62775	98,4564	0,885	77,317	3,5	1005,38	7,4	9,4	9,2	1	1	1	1	1	1	1	1	1	0	1	-36,293164	274,718647	286,65708	0
14.01.2021	19:26:18	0	0	3,841201	3,23625	96,2316	0,885	77,32	3,5	1005,66	7,4	9,4	9,3	1	1	1	1	1	1	1	1	1	0	1	-38,477801	274,851623	285,098185	0
14.01.2021	19:26:19	0	0	2,598475	3,23925	104,76	0,887	77,311	3,5	1005,34	7,4	9,4	9,2	1	1	1	1	1	1	1	1	1	0	1	-37,13883	274,73869	285,905669	0
14.01.2021	19:26:20	0	0	4,519087	3,51	94,392	0,884	77,328	3,5	1005,38	7,6	9,5	9,2	1	1	1	1	1	1	1	1	1	0	1	-35,658915	274,846969	287,895155	0
14.01.2021	19:26:21	0	0	4,632092	3,64575	88,128	0,88	77,321	3,5	1005,32	7,4	9,4	9,1	1	1	1	1	1	1	1	1	1	0	1	-34,883721	274,881125	288,831216	0
14.01.2021	19:26:22	0	0	4,067178	3,6045	90,7956	0,897	77,338	3,5	1005,56	7,4	9,4	9,2	1	1	1	1	1	1	1	1	1	0	1	-37,350247	274,718647	285,599997	0
14.01.2021	19:26:23	0	0	4,519087	3,306	84,7908	0,884	77,319	3,5	1005,34	7,3	9,4	9,2	1	1	1	1	1	1	1	1	1	0	1	-36,786469	274,831463	286,694593	0
14.01.2021	19:26:24	0	0	3,276338	3,33975	78,6636	0,882	77,341	3,5	1005,46	7,4	9,4	9,2	1	1	1	1	1	1	1	1	1	0	1	-39,393939	274,718647	283,556304	0
14.01.2021	19:26:25	0	0	3,954201	3,33525	86,7384	0,883	77,341	3,5	1005,54	7,4	9,4	9,2	1	1	1	1	1	1	1	1	1	0	1	-36,293164	274,839215	287,224393	0
14.01.2021	19:26:26	0	0	3,61527	3,3045	91,5048	0,88	77,337	3,5	1005,42	7,4	9,4	9,2	1	1	1	1	1	1	1	1	1	0	1	-33,685694	274,899781	290,117133	0
14.01.2021	19:26:27	0	0	4,180155	3,14325	84,06	0,884	77,347	3,5	1005,52	7,4	9,4	9,2	1	1	1	1	1	1	1	1	1	0	1	-37,13883	274,751034	285,963731	0
14.01.2021	19:26:28	0	0	3,502292	2,96625	79,02	0,878	77,352	3,5	1005,58	7,3	9,5	9,2	1	1	1	1	1	1	1	1	1	0	1	-38,054968	274,7742	285,15658	0
14.01.2021	19:26:29	0	0	4,519087	2,88375	88,7256	0,881	77,359	3,5	1005,58	7,4	9,5	9,2	1	1	1	1	1	1	1	1	1	0	1	-35,024665	274,714025	287,903844	0
14.01.2021	19:26:30	0	0	4,632064	2,844	73,7784	0,885	77,363	3,5	1005,58	7,4	9,4	9,2	1	1	1	1	1	1	1	1	1	0	1	-36,222692	274,86404	287,411768	0
14.01.2021	19:26:31	0	0	2,937407	2,83575	82,3428	0,889	77,364	3,5	1005,58	7,4	9,5	9,2	1	1	1	1	1	1	1	1	1	0	1	-34,672304	274,839215	288,845253	0
14.01.2021	19:26:32	0	0	2,711452	2,88525	79,092	0,877	77,357	3,5	1005,56	7,4	9,4	9,2	1	1	1	1	1	1	1	1	1	0	1	-40,028189	274,896671	283,759983	0
14.01.2021	19:26:33	0	0	2,937407	2,96025	80,1576	0,885	77,348	3,5	1005,42	7,5	9,4	9,2	1	1	1	1	1	1	1	1	1	0	1	-35,306554	274,859383	288,305973	0
14.01.2021	19:26:34	0	0	2,824429	3,579	79,7688	0,882	77,352	3,5	1005,44	7,4	9,4	9,2	1	1	1	1	1	1	1	1	1	0	1	-41,014799	274,906004	282,817348	0
14.01.2021	19:26:35	0	0	4,067178	4,6455	82,962	0,884	77,361	3,5	1005,48	7,4	9,5	9,2	1	1	1	1	1	1	1	1	1	0	1	-34,390416	274,860935	289,229422	0
14.01.2021	19:26:36	0	0	4,519087	6,0795	74,178	0,876	77,353	3,5	1005,42	7,4	9,4	9,2	1	1	1	1	1	1	1	1	1	0	1	-42,565187	274,896671	281,222985	0
14.01.2021	19:26:37	0	0	3,954201	6,40125	74,5308	0,88	77,351	3,5	1005,6	7,4	9,4	9,2	1	1	1	1	1	1	1	1	1	0	1	-38,054968	274,871804	285,616061	0
14.01.2021	19:26:38	0	0	3,728247	6,28125	82,6056	0,885	77,34	3,5	1005,58	7,4	9,4	9,2	1	1	1	1	1	1	1	1	1	0	1	-36,293164	274,788114	286,983853	0
14.01.2021	19:26:39	0	0	2,937407	5,757	79,4088	0,881	77,329	3,5	1005,5	7,5	9,5	9,2	1	1	1	1	1	1	1	1	1	0	1	-38,618746	274,710944	284,295278	0
14.01.2021	19:26:40	0	0	3,502292	5,7975	86,2704	0,88	77,337	3,5	1005,38	7,4	9,5	9,2	1	1	1	1	1	1	1	1	1	0	1	-36,081748	274,834564	287,41391	0
14.01.2021	19:26:41	0	0	2,711452	5,9445	96,966	0,88	77,324	3,5	1005,52	7,4	9,4	9,2	1	1	1	1	1	1	1	1	1	0	1	-42,142354	274,901337	281,667802	0
14.01.2021	19:26:42	0	0	4,970996	6,306	91,188	0,873	77,325	3,5	1005,44	7,4	9,4	9,2	1	1	1	1	1	1	1	1	1	0	1	-35,447498	274,775746	287,771322	0
14.01.2021	19:26:43	0	0	4,40611	6,294	94,0968	0,88	77,351	3,5	1005,62	7,4	9,4	9,2	1	1	1	1	1	1	1	1	1	0	1	-36,856942	274,707864	286,042598	0
14.01.2021	19:26:44	0	0	4,970996	6,1635	90,4248	0,876	77,353	3,5	1005,54	7,5	9,4	9,2	1	1	1	1	1	1	1	1	1	0	1	-40,38055	274,76802	282,80192	0
14.01.2021	19:26:45	0	0	2,824429	6,41325	89,7012	0,874	77,356	3,5	1005,48	7,5	9,4	9,2	1	1	1	1	1	1	1	1	1	0	1	-41,649049	274,888896	282,102497	0
14.01.2021	19:26:46	0	0	5,19695	6,86175	89,7264	0,876	77,358	3,5	1005,34	7,4	9,4	9,2	1	1	1	1	1	1	1	1	1	0	1	-35,447498	274,78966	287,836797	0
14.01.2021	19:26:47	0	0	4,519087	6,9165	83,3508	0,875	77,351	3,5	1005,62	7,5	9,4	9,2	1	1	1	1	1	1	1	1	1	0	1	-38,75969	274,730979	284,248543	0
14.01.2021	19:26:48	0	0	5,19695	7,06425	88,596	0,877	77,373	3,5	1005,58	7,4	9,4	9,2	1	1	1	1	1	1	1	1	1	0	1	-38,266385	274,868698	285,390015	0
14.01.2021	19:26:49	0	0	3,276338	7,10625	88,11	0,876	77,385	3,5	1005,48	7,4	9,4	9,2	1	1	1	1	1	1	1	1	1	0	1	-41,296688	274,730979	281,711545	0
14.01.2021	19:26:50	0	0	3,502292	6,849	90,414	0,874	77,379	3,5	1005,38	7,4	9,4	9,2	1	1	1	1	1	1	1	1	1	0	1	-33,967583	274,707864	288,931957	0
14.01.2021	19:26:51	0	0	2,824429	6,279	90,0216	0,874	77,385	3,5	1005,34	7,5	9,4	9,2	1	1	1	1	1	1	1	1	1	0	1	-35,940803	274,833013	287,547556	0
14.01.2021	19:26:52	0	0	4,632064	5,91225	90,4428	0,87	77,409	3,5	1005,52	7,4	9,4	9,2	1	1	1	1	1	1	1	1	1	0	1	-38,689218	274,882679	285,033039	0
14.01.2021	19:26:53	0	0	3,728247	5,448	75,9816	0,868	77,424	3,5	1005,34	7,4	9,4	9,2	1	1	1	1	1	1	1	1	1	0	1	-38,900634	274,746404	284,180148	0
14.01.2021	19:26:54	0	0	4,40611	5,71425	86,3676	0,875	77,436	3,5	1005,44	7,5	9,4	9,2	1	1	1	1	1	1	1	1	1	0	1	-40,521494	274,826814	282,93768	0
14.01.2021	19:26:55	0	0	4,40611	6,2265	100,7352	0,871	77,451	3,5	1005,32	7,4	9,5	9,2	1	1	1	1	1	1	1	1	1	0	1	-33,826638	274,712485	289,094628	0
14.01.2021	19:26:56	0	0	3,276338	5,90925	77,958	0,87	77,459	3,5	1005,38	7,3	9,4	9,2	1	1	1	1	1	1	1	1	1	0	1	-35,236082	274,839215	288,281476	0
14.01.2021	19:26:57	0	0	4,40611	5,39925	63,1692	0,868	77,48	3,5	1005,58	7,5	9,5	9,2	1	1	1	1	1	1	1	1	1	0	1	-37,702607	274,867145	285,946478	0
14.01.2021	19:26:58	0	0	4,519087	5,121	68,7708	0,87	77,468	3,5	1005,48	7,4	9,4	9,2	1	1	1	1	1	1	1	1	1	0	1	-40,803383	274,752578	282,306439	0
14.01.2021	19:26:59	0	0	3,954201	5,36625	63,8676	0,866	77,476	3,5	1005,36	7,4	9,4	9,2	1	1	1	1	1	1	1	1	1	0	1	-36,997886	274,73869	286,046613	0
14.01.2021	19:27:00	0	0	4,858019	7,023	69,4656	0,869	77,499	3,5	1005,54	7,4	9,5	9,2	1	1	1	1	1	1	1	1	1	0	1	-38,830162	274,890451	284,928707	0
14.01.2021	19:27:01	0	0	4,858019	7,023	69,4656	0,869	77,499	3,5	1005,54	7,4	9,5	9,2	1	1	1	1	1	1	1	1	1	0	1	-38,830162	274,890451	284,928707	0
14.01.2021	19:27:02	0	0	3,954201	7,3425	63,8604	0,87	77,516	3,5	1005,42	7,4	9,4	9,2	1	1	1	1	1	1	1	1	1	0	1	-39,252995	274,853175	284,330298	0
14.01.2021	19:27:03	0	0	3,61527	7,215	62,7912	0,871	77,542	3,5	1005,52	7,4	9,4	9,2	1	1	1	1	1	1	1	1	1	0	1	-35,51797	274,902892	288,299515	0
14.01.2021	19:27:04	0	0	2,824429	6,8925	65,4732	0,867	77,563	3,5	1005,54	7,5	9,4	9,2	1	1	1	1	1	1	1	1	1	0	1	-37,420719	274,751034	285,681842	0
14.01.2021	19:27:05	0	0	4,74507	6,318	68,7744	0,87	77,566	3,5	1005,56	7,5	9,4	9,1	1	1	1	1	1	1	1	1	1	0	1	-34,742777	274,86404	288,891684	0
14.01.2021	19:27:06	0	0	3,61527	6,168	55,9188	0,866	77,562	3,5	1005,46	7,4	9,5	9,2	1	1	1	1	1	1	1	1	1	0	1	-37,843552	274,909116	286,003259	0
14.01.2021	19:27:07	0	0	3,163361	6,44925	65,8152	0,866	77,586	3,5	1005,4	7,5	9,5	9,2	1	1	1	1	1	1	1	1	1	0	1	-39,041579	274,817519	284,373837	0
14.01.2021	19:27:08	0	0	2,711468	6,44175	63,4716	0,87	77,592	3,5	1005,66	7,4	9,4	9,1	1	1	1	1	1	1	1	1	1	0	1	-39,112051	274,735605	283,91794	0
14.01.2021	19:27:09	0	0	4,293133	6,65025	64,6308	0,867	77,612	3,5	1005,48	7,5	9,4	9,2	1	1	1	1	1	1	1	1	1	0	1	-34,742777	274,775746	288,476044	0
14.01.2021	19:27:10	0	0	4,519087	6,59925	61,6932	0,86	77,623	3,5	1005,4	7,4	9,5	9,2	1	1	1	1	1	1	1	1	1	0	1	-39,182523	274,902892	284,634963	0
14.01.2021	19:27:11	0	0	4,632064	6,5865	58,1328	0,867	77,629	3,5	1005,66	7,4	9,5	9,2	1	1	1	1	1	1	1	1	1	0	1	-39,957717	274,892006	283,808477	0
14.01.2021	19:27:12	0	0	2,485498	6,3375	61,0164	0,864	77,618	3,5	1005,26	7,5	9,5	9,2	1	1	1	1	1	1	1	1	1	0	1	-39,887245	274,775746	283,331576	0
14.01.2021	19:27:13	0	0	2,259544	6,0315	70,8372	0,868	77,619	3,5	1005,44	7,5	9,5	9,2	1	1	1	1	1	1	1	1	1	0	1	-38,407329	274,906004	285,424818	0
14.01.2021	19:27:14	0	0	3,050384	5,6175	70,1964	0,864	77,62	3,5	1005,38	7,4	9,4	9,2	1	1	1	1	1	1	1	1	1	0	1	-39,323467	274,766475	283,851735	0
14.01.2021	19:27:15	0	0	3,276338	5,535	63,8676	0,864	77,633	3,5	1005,42	7,3	9,5	9,2	1	1	1	1	1	1	1	1	1	0	1	-38,407329	274,764931	284,760606	0
14.01.2021	19:27:16	0	0	4,519087	5,52	68,778	0,863	77,632	3,5	1005,5	7,4	9,4	9,2	1	1	1	1	1	1	1	1	1	0	1	-40,310078	274,904448	283,514738	0
14.01.2021	19:27:17	0	0	2,824429	5,43975	80,5176	0,87	77,628	3,5	1005,52	7,4	9,4	9,2	1	1	1	1	1	1	1	1	1	0	1	-39,112051	274,785021	284,150413	0
14.01.2021	19:27:18	0	0	3,61527	5,265	77,5764	0,865	77,624	3,5	1005,52	7,3	9,4	9,2	1	1	1	1	1	1	1	1	1	0	1	-36,293164	274,84852	287,26821	0
14.01.2021	19:27:19	0	0	3,050384	5,2215	76,824	0,868	77,608	3,5	1005,54	7,4	9,5	9,2	1	1	1	1	1	1	1	1	1	0	1	-38,195913	274,740232	284,855842	0
14.01.2021	19:27:20	0	0	4,519087	5,4075	80,1504	0,87	77,614	3,5	1005,28	7,4	9,4	9,2	1	1	1	1	1	1	1	1	1	0	1	-39,887245	274,884233	283,842333	0
14.01.2021	19:27:21	0	0	4,745041	5,52675	84,4272	0,867	77,61	3,5	1005,52	7,4	9,4	9,2	1	1	1	1	1	1	1	1	1	0	1	-40,521494	274,805132	282,835618	0
14.01.2021	19:27:22	0	0	3,276338	5,40975	85,9068	0,871	77,613	3,5	1005,56	7,4	9,5	9,2	1	1	1	1	1	1	1	1	1	0	1	-41,296688	274,730979	281,711545	0
14.01.2021	19:27:23	0	0	2,259544	5,07675	91,296	0,867	77,614	3,5	1005,5	7,4	9,5	9,2	1	1	1	1	1	1	1	1	1	0	1	-37,209302	274,785021	286,053161	0
14.01.2021	19:27:24	0	0	4,180155	4,91025	95,112	0,87	77,61	3,5	1005,56	7,5	9,5	9,2	1	1	1	1	1	1	1	1	1	0	1	-40,38055	274,910672	283,473594	0
14.01.2021	19:27:25	0	0	2,259544	4,81425	82,9908	0,87	77,603	3,5	1005,38	7,4	9,4	9,2	1	1	1	1	1	1	1	1	1	0	1	-36,434109	274,772655	286,770169	0
14.01.2021	19:27:26	0	0	3,163361	4,71975	82,9944	0,869	77,587	3,5	1005,52	7,4	9,5	9,2	1	1	1	1	1	1	1	1	1	0	1	-38,477801	274,892006	285,288392	0
14.01.2021	19:27:27	0	0	2,598475	4,58475	75,9744	0,865	77,594	3,5	1005,42	7,4	9,5	9,2	1	1	1	1	1	1	1	1	1	0	1	-37,843552	274,769565	285,346187	0
14.01.2021	19:27:28	0	0	3,61527	4,389	98,0388	0,87	77,604	3,5	1005,54	7,4	9,5	9,2	1	1	1	1	1	1	1	1	1	0	1	-39,7463	274,775746	283,47252	0
14.01.2021	19:27:29	0	0	3,276338	4,45725	108,1296	0,869	77,602	3,5	1005,58	7,4	9,4	9,2	1	1	1	1	1	1	1	1	1	0	1	-38,266385	274,898226	285,529114	0
14.01.2021	19:27:30	0	0	4,632092	4,50825	107,0316	0,868	77,571	3,5	1005,52	7,5	9,4	9,1	1	1	1	1	1	1	1	1	1	0	1	-34,249471	274,81597	289,158654	0
14.01.2021	19:27:31	0	0	2,711452	4,19625	96,5808	0,868	77,582	3,5	1005,44	7,5	9,4	9,2	1	1	1	1	1	1	1	1	1	0	1	-36,645525	274,920012	287,252633	0
14.01.2021	19:27:32	0	0	4,632064	3,80775	110,7	0,867	77,6	3,5	1005,58	7,5	9,4	9,2	1	1	1	1	1	1	1	1	1	0	1	-36,504581	274,802037	286,837962	0
14.01.2021	19:27:33	0	0	4,067178	3,5295	86,9472	0,864	77,606	3,5	1005,44	7,4	9,4	9,2	1	1	1	1	1	1	1	1	1	0	1	-37,491191	274,923127	286,421644	0
14.01.2021	19:27:34	0	0	2,711452	3,531	88,0848	0,865	77,592	3,5	1005,36	7,4	9,4	9,2	1	1	1	1	1	1	1	1	1	0	1	-37,984496	274,870251	285,679218	0
14.01.2021	19:27:35	0	0	2,598475	3,52875	94,7628	0,867	77,598	3,5	1005,54	7,4	9,4	9,2	1	1	1	1	1	1	1	1	1	0	1	-39,112051	274,924684	284,808124	0
14.01.2021	19:27:36	0	0	4,40611	3,51975	92,2608	0,867	77,593	3,5	1005,52	7,4	9,4	9,2	1	1	1	1	1	1	1	1	1	0	1	-39,182523	274,893561	284,590996	0
14.01.2021	19:27:37	0	0	3,61527	3,4845	87,7284	0,872	77,606	3,5	1005,72	7,4	9,4	9,2	1	1	1	1	1	1	1	1	1	0	1	-35,236082	274,904448	288,588734	0
14.01.2021	19:27:38	0	0	4,970996	3,4845	96,5952	0,869	77,593	3,5	1005,54	7,4	9,4	9,2	1	1	1	1	1	1	1	1	1	0	1	-41,719521	274,895116	282,061324	0
14.01.2021	19:27:39	0	0	2,598475	3,53025	85,518	0,869	77,615	3,5	1005,7	7,5	9,5	9,2	1	1	1	1	1	1	1	1	1	0	1	-35,51797	274,915342	288,358177	0
14.01.2021	19:27:40	0	0	3,841224	3,648	85,1904	0,87	77,599	3,5	1005,4	7,4	9,5	9,2	1	1	1	1	1	1	1	1	1	0	1	-33,262861	274,769565	289,926877	0
14.01.2021	19:27:41	0	0	3,728269	3,6	70,2	0,867	77,593	3,5	1005,56	7,5	9,4	9,1	1	1	1	1	1	1	1	1	1	0	1	-33,685694	274,884233	290,043884	0
14.01.2021	19:27:42	0	0	3,163361	3,501	80,1468	0,868	77,59	3,5	1005,56	7,4	9,5	9,2	1	1	1	1	1	1	1	1	1	0	1	-36,856942	274,791207	286,434632	0
14.01.2021	19:27:43	0	0	4,180155	3,411	92,934	0,871	77,594	3,5	1005,34	7,4	9,4	9,2	1	1	1	1	1	1	1	1	1	0	1	-34,813249	274,920012	289,084909	0
14.01.2021	19:27:44	0	0	3,050384	3,27375	86,2668	0,869	77,582	3,5	1005,4	7,4	9,4	9,2	1	1	1	1	1	1	1	1	1	0	1	-38,195913	274,743318	284,870355	0
14.01.2021	19:27:45	0	0	4,519087	3,08625	100,3896	0,869	77,588	3,5	1005,46	7,5	9,4	9,2	1	1	1	1	1	1	1	1	1	0	1	-37,702607	274,775746	285,516213	0
14.01.2021	19:27:46	0	0	4,293133	3,10125	99,5472	0,865	77,583	3,5	1005,5	7,4	9,5	9,2	1	1	1	1	1	1	1	1	1	0	1	-31,642001	274,74949	291,4533	0
14.01.2021	19:27:47	0	0	4,632064	3,13125	91,152	0,869	77,577	3,5	1005,46	7,5	9,4	9,2	1	1	1	1	1	1	1	1	1	0	1	-37,279774	274,879571	286,427842	0
14.01.2021	19:27:48	0	0	2,485498	3,24675	100,746	0,87	77,572	3,5	1005,5	7,4	9,5	9,2	1	1	1	1	1	1	1	1	1	0	1	-39,464412	274,795848	283,849002	0
14.01.2021	19:27:49	0	0	2,937407	3,41475	109,6092	0,866	77,555	3,5	1005,42	7,4	9,5	9,2	1	1	1	1	1	1	1	1	1	0	1	-36,222692	274,76802	286,959778	0
14.01.2021	19:27:50	0	0	2,711452	3,74325	102,5784	0,865	77,567	3,5	1005,4	7,4	9,5	9,2	1	1	1	1	1	1	1	1	1	0	1	-37,914024	274,862487	285,713125	0
14.01.2021	19:27:51	0	0	4,067203	4,0485	105,1416	0,864	77,574	3,5	1005,52	7,5	9,5	9,1	1	1	1	1	1	1	1	1	1	0	1	-35,658915	274,90756	288,180564	0
14.01.2021	19:27:52	0	0	3,728247	3,903	87,7284	0,867	77,555	3,5	1005,58	7,5	9,5	9,2	1	1	1	1	1	1	1	1	1	0	1	-36,434109	274,797395	286,886586	0
14.01.2021	19:27:53	0	0	4,519087	3,32775	83,3436	0,867	77,556	3,5	1005,48	7,4	9,4	9,2	1	1	1	1	1	1	1	1	1	0	1	-38,477801	274,734063	284,544936	0
14.01.2021	19:27:54	0	0	4,293133	3,042	80,892	0,869	77,56	3,5	1005,36	7,4	9,5	9,2	1	1	1	1	1	1	1	1	1	0	1	-37,702607	274,850072	285,866073	0
14.01.2021	19:27:55	0	0	4,632092	2,89575	83,3652	0,862	77,541	3,5	1005,44	7,4	9,5	9,1	1	1	1	1	1	1	1	1	1	0	1	-33,403805	274,720188	289,553685	0
14.01.2021	19:27:56	0	0	4,519087	2,72325	101,0952	0,867	77,551	3,5	1005,64	7,4	9,5	9,2	1	1	1	1	1	1	1	1	1	0	1	-39,112051	274,860935	284,507787	0
14.01.2021	19:27:57	0	0	4,180155	2,5305	87,7212	0,865	77,559	3,5	1005,48	7,4	9,5	9,2	1	1	1	1	1	1	1	1	1	0	1	-38,477801	274,851623	285,098185	0
14.01.2021	19:27:58	0	0	4,632064	2,54325	78,2712	0,865	77,569	3,5	1005,52	7,4	9,5	9,2	1	1	1	1	1	1	1	1	1	0	1	-41,719521	274,730979	281,288712	0
14.01.2021	19:27:59	0	0	3,276338	2,71275	90,0144	0,862	77,551	3,5	1005,58	7,4	9,4	9,2	1	1	1	1	1	1	1	1	1	0	1	-36,856942	274,865592	286,784831	0
14.01.2021	19:28:00	0	0	3,728247	2,82825	99,918	0,864	77,558	3,5	1005,52	7,4	9,5	9,2	1	1	1	1	1	1	1	1	1	0	1	-42,071882	274,794301	281,234251	0
14.01.2021	19:28:01	0	0	3,728247	2,82825	99,918	0,864	77,558	3,5	1005,52	7,4	9,5	9,2	1	1	1	1	1	1	1	1	1	0	1	-42,071882	274,794301	281,234251	0
14.01.2021	19:28:02	0	0	3,728247	2,8815	88,11	0,858	77,553	3,5	1005,56	7,4	9,4	9,2	1	1	1	1	1	1	1	1	1	0	1	-36,011276	274,766475	287,163926	0
14.01.2021	19:28:03	0	0	3,389315	2,81775	83,2644	0,866	77,577	3,5	1005,4	7,3	9,5	9,2	1	1	1	1	1	1	1	1	1	0	1	-38,75969	274,906004	285,072457	0
14.01.2021	19:28:04	0	0	4,180155	2,96625	85,5324	0,863	77,571	3,5	1005,4	7,4	9,5	9,2	1	1	1	1	1	1	1	1	1	0	1	-38,548273	274,826814	284,9109	0
14.01.2021	19:28:05	0	0	4,40611	3,285	96,2064	0,854	77,579	3,5	1005,46	7,5	9,5	9,2	1	1	1	1	1	1	1	1	1	0	1	-36,293164	274,884233	287,436414	0
14.01.2021	19:28:06	0	0	5,19695	3,6045	92,2572	0,865	77,576	3,5	1005,46	7,5	9,5	9,2	1	1	1	1	1	1	1	1	1	0	1	-40,944327	274,839215	282,57323	0
14.01.2021	19:28:07	0	0	3,050384	3,7815	86,2704	0,864	77,592	3,5	1005,56	7,5	9,4	9,2	1	1	1	1	1	1	1	1	1	0	1	-37,068358	274,850072	286,500322	0
14.01.2021	19:28:08	0	0	5,083973	3,96975	87,7248	0,86	77,586	3,5	1005,46	7,4	9,4	9,2	1	1	1	1	1	1	1	1	1	0	1	-40,803383	274,870251	282,860332	0
14.01.2021	19:28:09	0	0	4,745041	4,08	86,9544	0,859	77,587	3,5	1005,48	7,4	9,4	9,2	1	1	1	1	1	1	1	1	1	0	1	-38,12544	274,783475	285,129748	0
14.01.2021	19:28:10	0	0	4,632092	4,113	79,7796	0,855	77,575	3,5	1005,52	7,4	9,5	9,1	1	1	1	1	1	1	1	1	1	0	1	-38,12544	274,717106	284,817558	0
14.01.2021	19:28:11	0	0	4,858019	4,119	76,4352	0,857	77,577	3,5	1005,48	7,4	9,5	9,2	1	1	1	1	1	1	1	1	1	0	1	-40,662438	274,792754	282,636414	0
14.01.2021	19:28:12	0	0	4,519087	4,11075	76,8168	0,863	77,587	3,5	1005,58	7,4	9,3	9,2	1	1	1	1	1	1	1	1	1	0	1	-39,112051	274,717106	283,830948	0
14.01.2021	19:28:13	0	0	3,61527	3,95175	87,7248	0,866	77,587	3,5	1005,46	7,5	9,5	9,2	1	1	1	1	1	1	1	1	1	0	1	-40,310078	274,757209	282,821532	0
14.01.2021	19:28:14	0	0	2,824446	3,82575	80,4816	0,865	77,585	3,5	1005,54	7,5	9,4	9,1	1	1	1	1	1	1	1	1	1	0	1	-35,306554	274,769565	287,883185	0
14.01.2021	19:28:15	0	0	4,745041	3,92475	82,962	0,861	77,59	3,5	1005,58	7,6	9,5	9,2	1	1	1	1	1	1	1	1	1	0	1	-35,588443	274,901337	288,221713	0
14.01.2021	19:28:16	0	0	3,954201	4,065	77,9508	0,863	77,575	3,5	1005,38	7,3	9,5	9,2	1	1	1	1	1	1	1	1	1	0	1	-39,7463	274,868698	283,9101	0
14.01.2021	19:28:17	0	0	3,728247	4,5705	86,9544	0,862	77,57	3,5	1005,56	7,4	9,3	9,2	1	1	1	1	1	1	1	1	1	0	1	-37,279774	274,895116	286,50107	0
14.01.2021	19:28:18	0	0	3,954201	4,488	79,2144	0,861	77,566	3,5	1005,56	7,4	9,5	9,2	1	1	1	1	1	1	1	1	1	0	1	-39,182523	274,865592	284,45925	0
14.01.2021	19:28:19	0	0	3,276338	4,38225	82,9692	0,852	77,579	3,5	1005,56	7,4	9,5	9,2	1	1	1	1	1	1	1	1	1	0	1	-41,155743	274,850072	282,412936	0
14.01.2021	19:28:20	0	0	2,937407	4,28925	86,2992	0,86	77,568	3,5	1005,52	7,4	9,5	9,2	1	1	1	1	1	1	1	1	1	0	1	-40,732911	274,718647	282,217333	0
14.01.2021	19:28:21	0	0	3,502292	4,17075	90,0072	0,855	77,584	3,5	1005,24	7,6	9,5	9,2	1	1	1	1	1	1	1	1	1	0	1	-41,226216	274,831463	282,254847	0
14.01.2021	19:28:22	0	0	4,293133	4,077	92,358	0,858	77,605	3,5	1005,56	7,4	9,5	9,2	1	1	1	1	1	1	1	1	1	0	1	-38,477801	274,718647	284,472443	0
14.01.2021	19:28:23	0	0	4,632064	4,10925	90,4176	0,855	77,606	3,5	1005,5	7,4	9,5	9,2	1	1	1	1	1	1	1	1	1	0	1	-40,169133	274,764931	282,998802	0
14.01.2021	19:28:24	0	0	3,841224	4,31175	85,9032	0,855	77,601	3,5	1005,42	7,4	9,5	9,2	1	1	1	1	1	1	1	1	1	0	1	-40,38055	274,836114	283,122407	0
14.01.2021	19:28:25	0	0	3,389315	4,461	85,176	0,86	77,625	3,5	1005,54	7,4	9,5	9,2	1	1	1	1	1	1	1	1	1	0	1	-35,870331	274,715566	287,065422	0
14.01.2021	19:28:26	0	0	4,180155	4,22175	89,7156	0,853	77,634	3,5	1005,42	7,6	9,5	9,2	1	1	1	1	1	1	1	1	1	0	1	-37,420719	274,735605	285,609272	0
14.01.2021	19:28:27	0	0	2,937424	4,0785	86,67	0,852	77,618	3,5	1005,54	7,4	9,3	9,1	1	1	1	1	1	1	1	1	1	0	1	-35,51797	274,887342	288,226252	0
14.01.2021	19:28:28	0	0	3,954201	4,02975	84,7836	0,855	77,639	3,5	1005,5	7,4	9,5	9,2	1	1	1	1	1	1	1	1	1	0	1	-34,249471	274,862487	289,377677	0
14.01.2021	19:28:29	0	0	4,406136	4,101	83,3328	0,857	77,648	3,5	1005,5	7,4	9,4	9,1	1	1	1	1	1	1	1	1	1	0	1	-41,014799	274,884233	282,714779	0
14.01.2021	19:28:30	0	0	3,615291	4,014	78,7716	0,844	77,638	3,5	1005,4	7,6	9,5	9,1	1	1	1	1	1	1	1	1	1	0	1	-35,024665	274,700165	287,838679	0
14.01.2021	19:28:31	0	0	4,74507	3,885	85,9068	0,851	77,632	3,5	1005,48	7,3	9,5	9,1	1	1	1	1	1	1	1	1	1	0	1	-33,051445	274,840765	290,473414	0
14.01.2021	19:28:32	0	0	2,485498	4,272	89,7228	0,848	77,631	3,5	1005,48	7,7	9,3	9,2	1	1	1	1	1	1	1	1	1	0	1	-33,967583	274,766475	289,207619	0
14.01.2021	19:28:33	0	0	4,067178	4,59375	85,518	0,846	77,632	3,5	1005,44	7,7	9,5	9,2	1	1	1	1	1	1	1	1	1	0	1	-37,914024	274,720188	285,043466	0
14.01.2021	19:28:34	0	0	4,632064	4,8015	81,5832	0,851	77,634	3,5	1005,48	7,3	9,5	9,2	1	1	1	1	1	1	1	1	1	0	1	-42,98802	274,814422	280,412816	0
14.01.2021	19:28:35	0	0	2,824429	5,39175	80,1288	0,848	77,617	3,5	1005,62	7,6	9,5	9,2	1	1	1	1	1	1	1	1	1	0	1	-38,266385	274,714025	284,662125	0
14.01.2021	19:28:36	0	0	3,163361	5,55375	91,8864	0,845	77,624	3,5	1005,5	7,4	9,5	9,2	1	1	1	1	1	1	1	1	1	0	1	-40,873855	274,843867	282,665608	0
14.01.2021	19:28:37	0	0	4,180155	5,50125	85,1652	0,85	77,624	3,5	1005,26	7,4	9,3	9,2	1	1	1	1	1	1	1	1	1	0	1	-39,605356	274,829914	283,86841	0
14.01.2021	19:28:38	0	0	3,502292	5,76975	91,9008	0,845	77,638	3,5	1005,48	7,4	9,4	9,2	1	1	1	1	1	1	1	1	1	0	1	-36,715997	274,887342	287,028225	0
14.01.2021	19:28:39	0	0	3,728247	5,73225	94,7376	0,849	77,639	3,5	1005,4	7,5	9,5	9,2	1	1	1	1	1	1	1	1	1	0	1	-34,108527	274,846969	289,445543	0
14.01.2021	19:28:40	0	0	4,293133	5,4675	104,04	0,847	77,647	3,5	1005,48	7,5	9,5	9,2	1	1	1	1	1	1	1	1	1	0	1	-36,363636	274,887342	287,380586	0
14.01.2021	19:28:41	0	0	2,824446	4,875	100,332	0,846	77,65	3,5	1005,48	7,4	9,5	9,1	1	1	1	1	1	1	1	1	1	0	1	-32,276251	274,809776	291,10272	0
14.01.2021	19:28:42	0	0	4,293133	4,5525	96,588	0,849	77,645	3,5	1005,42	7,3	9,5	9,2	1	1	1	1	1	1	1	1	1	0	1	-40,38055	274,695547	282,461085	0
14.01.2021	19:28:43	0	0	3,615291	4,359	101,7648	0,841	77,634	3,5	1005,52	7,4	9,3	9,1	1	1	1	1	1	1	1	1	1	0	1	-33,826638	274,746404	289,254144	0
14.01.2021	19:28:44	0	0	3,389315	4,7535	103,3092	0,847	77,658	3,5	1005,42	7,6	9,5	9,2	1	1	1	1	1	1	1	1	1	0	1	-35,377026	274,874911	288,308636	0
14.01.2021	19:28:45	0	0	4,74507	5,0295	92,2428	0,847	77,662	3,5	1005,5	7,4	9,3	9,1	1	1	1	1	1	1	1	1	1	0	1	-36,575053	274,884233	287,154525	0
14.01.2021	19:28:46	0	0	3,16338	5,076	103,6656	0,842	77,677	3,5	1005,36	7,3	9,5	9,1	1	1	1	1	1	1	1	1	1	0	1	-35,306554	274,865592	288,335219	0
14.01.2021	19:28:47	0	0	4,632064	4,80075	104,724	0,844	77,678	3,5	1005,48	7,4	9,5	9,2	1	1	1	1	1	1	1	1	1	0	1	-35,095137	274,737147	287,942107	0
14.01.2021	19:28:48	0	0	4,970996	4,545	82,6056	0,84	77,663	3,5	1005,56	7,6	9,5	9,2	1	1	1	1	1	1	1	1	1	0	1	-32,205779	274,778837	291,027586	0
14.01.2021	19:28:49	0	0	4,180181	4,335	84,4128	0,844	77,683	3,5	1005,56	7,4	9,5	9,1	1	1	1	1	1	1	1	1	1	0	1	-40,38055	274,878018	283,319748	0
14.01.2021	19:28:50	0	0	2,598491	4,113	84,8088	0,848	77,703	3,5	1005,44	7,3	9,5	9,1	1	1	1	1	1	1	1	1	1	0	1	-34,390416	274,740232	288,661339	0
14.01.2021	19:28:51	0	0	4,40611	4,113	94,7448	0,842	77,687	3,5	1005,42	7,6	9,3	9,2	1	1	1	1	1	1	1	1	1	0	1	-37,420719	274,871804	286,250311	0
14.01.2021	19:28:52	0	0	3,389315	3,84075	99,1224	0,839	77,697	3,5	1005,56	7,6	9,3	9,2	1	1	1	1	1	1	1	1	1	0	1	-33,333333	274,732521	289,682152	0
14.01.2021	19:28:53	0	0	3,61527	3,78225	94,0968	0,84	77,691	3,5	1005,48	7,4	9,5	9,2	1	1	1	1	1	1	1	1	1	0	1	-36,222692	274,831463	287,25837	0
14.01.2021	19:28:54	0	0	4,745041	3,726	93,7008	0,842	77,711	3,5	1005,5	7,4	9,3	9,2	1	1	1	1	1	1	1	1	1	0	1	-35,16561	274,867145	288,483476	0
14.01.2021	19:28:55	0	0	3,389315	3,7455	98,514	0,836	77,714	3,5	1005,64	7,4	9,5	9,2	1	1	1	1	1	1	1	1	1	0	1	-33,615222	274,760297	289,530915	0
14.01.2021	19:28:56	0	0	2,711452	3,84825	100,7568	0,838	77,7	3,5	1005,52	7,4	9,5	9,2	1	1	1	1	1	1	1	1	1	0	1	-37,702607	274,868698	285,953792	0
14.01.2021	19:28:57	0	0	4,970996	3,98475	94,0896	0,837	77,714	3,5	1005,5	7,5	9,3	9,2	1	1	1	1	1	1	1	1	1	0	1	-39,112051	274,714025	283,816459	0
14.01.2021	19:28:58	0	0	4,180155	3,93525	101,7864	0,838	77,724	3,5	1005,58	7,6	9,3	9,2	1	1	1	1	1	1	1	1	1	0	1	-38,618746	274,757209	284,512863	0
14.01.2021	19:28:59	0	0	2,937407	4,31325	104,7132	0,835	77,732	3,5	1005,5	7,4	9,5	9,2	1	1	1	1	1	1	1	1	1	0	1	-35,51797	274,704784	287,367089	0
14.01.2021	19:29:00	0	0	2,937424	4,50225	109,6164	0,835	77,752	3,5	1005,56	7,6	9,5	9,1	1	1	1	1	1	1	1	1	1	0	1	-37,843552	274,860935	285,776286	0
14.01.2021	19:29:01	0	0	2,937424	4,50225	109,6164	0,835	77,752	3,5	1005,56	7,6	9,5	9,1	1	1	1	1	1	1	1	1	1	0	1	-37,843552	274,860935	285,776286	0
14.01.2021	19:29:02	0	0	2,711452	4,4265	87,7248	0,829	77,761	3,5	1005,44	7,5	9,5	9,2	1	1	1	1	1	1	1	1	1	0	1	-39,534884	274,868698	284,121516	0
14.01.2021	19:29:03	0	0	3,61527	4,66275	79,4016	0,833	77,787	3,5	1005,56	7,4	9,5	9,2	1	1	1	1	1	1	1	1	1	0	1	-39,7463	274,714025	283,182209	0
14.01.2021	19:29:04	0	0	3,16338	4,4475	100,7136	0,836	77,802	3,5	1005,38	7,5	9,5	9,1	1	1	1	1	1	1	1	1	1	0	1	-36,293164	274,859383	287,319363	0
14.01.2021	19:29:05	0	0	3,954225	4,28175	84,42	0,832	77,821	3,5	1005,26	7,4	9,3	9,1	1	1	1	1	1	1	1	1	1	0	1	-39,7463	274,80668	283,618097	0
14.01.2021	19:29:06	0	0	4,632092	4,272	92,6532	0,825	77,847	3,5	1005,36	7,4	9,5	9,1	1	1	1	1	1	1	1	1	1	0	1	-36,645525	274,86404	286,988935	0
14.01.2021	19:29:07	0	0	3,389336	4,40325	98,064	0,836	77,861	3,5	1005,64	7,4	9,3	9,1	1	1	1	1	1	1	1	1	1	0	1	-36,504581	274,718647	286,445663	0
14.01.2021	19:29:08	0	0	4,970996	4,58325	94,122	0,832	77,88	3,5	1005,56	7,5	9,3	9,2	1	1	1	1	1	1	1	1	1	0	1	-39,464412	274,811325	283,921847	0
14.01.2021	19:29:09	0	0	2,485483	4,61325	89,3304	0,831	77,9	3,5	1005,62	7,4	9,3	9,3	1	1	1	1	1	1	1	1	1	0	1	-43,410853	274,856278	280,187056	0
14.01.2021	19:29:10	0	0	3,954201	4,479	94,7592	0,835	77,9	3,5	1005,44	7,5	9,3	9,2	1	1	1	1	1	1	1	1	1	0	1	-37,350247	274,834564	286,145412	0
14.01.2021	19:29:11	0	0	3,276338	4,6125	90,7668	0,835	77,91	3,5	1005,58	7,4	9,5	9,2	1	1	1	1	1	1	1	1	1	0	1	-35,729387	274,826814	287,729787	0
14.01.2021	19:29:12	0	0	3,050384	4,57275	94,7664	0,834	77,898	3,5	1005,54	7,4	9,5	9,2	1	1	1	1	1	1	1	1	1	0	1	-36,856942	274,703244	286,020879	0
14.01.2021	19:29:13	0	0	2,824429	4,38	96,5772	0,826	77,917	3,5	1005,38	7,4	9,3	9,2	1	1	1	1	1	1	1	1	1	0	1	-37,77308	274,747947	285,314962	0
14.01.2021	19:29:14	0	0	4,632092	4,17075	94,3812	0,835	77,92	3,5	1005,52	7,4	9,3	9,1	1	1	1	1	1	1	1	1	1	0	1	-37,632135	274,690931	285,187796	0
14.01.2021	19:29:15	0	0	3,050402	4,08825	90,7704	0,835	77,922	3,5	1005,6	7,5	9,5	9,1	1	1	1	1	1	1	1	1	1	0	1	-38,75969	274,701705	284,110892	0
14.01.2021	19:29:16	0	0	3,276318	4,15275	88,092	0,825	77,915	3,5	1005,42	7,4	9,3	9,3	1	1	1	1	1	1	1	1	1	0	1	-35,095137	274,746404	287,985645	0
14.01.2021	19:29:17	0	0	2,485498	4,09425	82,458	0,83	77,927	3,5	1005,46	7,5	9,3	9,2	1	1	1	1	1	1	1	1	1	0	1	-39,252995	274,865592	284,388778	0
14.01.2021	19:29:18	0	0	4,067203	4,0515	86,9796	0,828	77,93	3,5	1005,54	7,4	9,5	9,1	1	1	1	1	1	1	1	1	1	0	1	-41,578576	274,86404	282,055884	0
14.01.2021	19:29:19	0	0	2,711468	4,43925	82,9836	0,832	77,925	3,5	1005,36	7,4	9,3	9,1	1	1	1	1	1	1	1	1	1	0	1	-37,279774	274,853175	286,303518	0
14.01.2021	19:29:20	0	0	3,841224	4,32	84,0168	0,835	77,927	3,5	1005,34	7,4	9,5	9,2	1	1	1	1	1	1	1	1	1	0	1	-38,689218	274,694008	284,145182	0
14.01.2021	19:29:21	0	0	4,180181	4,074	71,6076	0,827	77,927	3,5	1005,48	7,4	9,5	9,1	1	1	1	1	1	1	1	1	1	0	1	-35,940803	274,769565	287,248935	0
14.01.2021	19:29:22	0	0	4,74507	4,0245	67,9968	0,826	77,93	3,5	1005,44	7,4	9,3	9,1	1	1	1	1	1	1	1	1	1	0	1	-38,266385	274,709404	284,640397	0
14.01.2021	19:29:23	0	0	4,293158	4,27575	85,1688	0,834	77,933	3,5	1005,5	7,3	9,5	9,1	1	1	1	1	1	1	1	1	1	0	1	-37,632135	274,850072	285,936545	0
14.01.2021	19:29:24	0	0	2,146553	4,2735	83,322	0,827	77,929	3,5	1005,52	7,4	9,3	9,3	1	1	1	1	1	1	1	1	1	0	1	-34,672304	274,86404	288,962156	0
14.01.2021	19:29:25	0	0	3,615291	4,029	84,7944	0,827	77,93	3,5	1005,6	7,4	9,3	9,1	1	1	1	1	1	1	1	1	1	0	1	-38,477801	274,73869	284,566698	0
14.01.2021	19:29:26	0	0	4,745041	4,05225	84,78	0,822	77,945	3,5	1005,42	7,5	9,5	9,2	1	1	1	1	1	1	1	1	1	0	1	-36,504581	274,704784	286,380479	0
14.01.2021	19:29:27	0	0	4,519114	4,1775	88,9632	0,835	77,951	3,5	1005,52	7,4	9,3	9,1	1	1	1	1	1	1	1	1	1	0	1	-36,997886	274,695547	285,843749	0
14.01.2021	19:29:28	0	0	2,372535	4,272	89,2404	0,825	77,947	3,5	1005,56	7,4	9,5	9,1	1	1	1	1	1	1	1	1	1	0	1	-40,944327	274,817519	282,471089	0
14.01.2021	19:29:29	0	0	2,711468	4,3485	85,8996	0,83	77,952	3,5	1005,52	7,5	9,3	9,1	1	1	1	1	1	1	1	1	1	0	1	-39,182523	274,86404	284,451937	0
14.01.2021	19:29:30	0	0	2,711452	4,164	90,0108	0,828	77,962	3,5	1005,54	7,4	9,3	9,2	1	1	1	1	1	1	1	1	1	0	1	-36,856942	274,718647	286,093302	0
14.01.2021	19:29:31	0	0	3,841224	4,01775	86,9796	0,83	77,956	3,5	1005,58	7,5	9,3	9,2	1	1	1	1	1	1	1	1	1	0	1	-40,310078	274,868698	283,346322	0
14.01.2021	19:29:32	0	0	2,259544	4,0845	77,184	0,821	77,94	3,5	1005,48	7,4	9,3	9,2	1	1	1	1	1	1	1	1	1	0	1	-42,142354	274,700165	280,72099	0
14.01.2021	19:29:33	0	0	4,067154	4,272	82,5768	0,826	77,95	3,5	1005,46	7,4	9,5	9,3	1	1	1	1	1	1	1	1	1	0	1	-40,732911	274,822166	282,704381	0
14.01.2021	19:29:34	0	0	3,728269	4,38075	88,1064	0,821	77,933	3,5	1005,38	7,4	9,3	9,1	1	1	1	1	1	1	1	1	1	0	1	-38,548273	274,854727	285,042327	0
14.01.2021	19:29:35	0	0	3,61527	4,365	83,3364	0,824	77,948	3,5	1005,44	7,4	9,3	9,2	1	1	1	1	1	1	1	1	1	0	1	-39,887245	274,712485	283,034021	0
14.01.2021	19:29:36	0	0	4,74507	4,206	86,6484	0,825	77,943	3,5	1005,66	7,4	9,3	9,1	1	1	1	1	1	1	1	1	1	0	1	-39,675828	274,783475	283,57936	0
14.01.2021	19:29:37	0	0	2,937407	4,527	81,1944	0,825	77,933	3,5	1005,54	7,4	9,3	9,2	1	1	1	1	1	1	1	1	1	0	1	-41,296688	274,698626	281,559419	0
14.01.2021	19:29:38	0	0	3,163361	4,692	83,7036	0,828	77,943	3,5	1005,38	7,4	9,3	9,2	1	1	1	1	1	1	1	1	1	0	1	-34,813249	274,701705	288,057333	0
14.01.2021	19:29:39	0	0	4,519114	4,81725	91,8684	0,823	77,961	3,5	1005,44	7,5	9,3	9,1	1	1	1	1	1	1	1	1	1	0	1	-32,135307	274,754121	290,981777	0
14.01.2021	19:29:40	0	0	2,937424	4,872	90,7632	0,829	77,955	3,5	1005,5	7,4	9,3	9,1	1	1	1	1	1	1	1	1	1	0	1	-37,279774	274,86404	286,354686	0
14.01.2021	19:29:41	0	0	3,276358	4,623	84,7944	0,821	77,952	3,5	1005,5	7,4	9,3	9,1	1	1	1	1	1	1	1	1	1	0	1	-37,209302	274,744861	285,864222	0
14.01.2021	19:29:42	0	0	2,824412	4,095	82,9872	0,82	77,939	3,5	1005,3	7,4	9,3	9,3	1	1	1	1	1	1	1	1	1	0	1	-43,904158	274,879571	279,803459	0
14.01.2021	19:29:43	0	0	4,180155	4,17525	91,1628	0,828	77,949	3,5	1005,32	7,4	9,3	9,2	1	1	1	1	1	1	1	1	1	0	1	-39,393939	274,878018	284,306359	0
14.01.2021	19:29:44	0	0	3,728269	4,18425	80,1576	0,83	77,96	3,5	1005,54	7,5	9,3	9,1	1	1	1	1	1	1	1	1	1	0	1	-40,803383	274,812873	282,590164	0
14.01.2021	19:29:45	0	0	4,293133	4,383	80,5104	0,829	77,954	3,5	1005,54	7,4	9,5	9,2	1	1	1	1	1	1	1	1	1	0	1	-33,967583	274,820617	289,462416	0
14.01.2021	19:29:46	0	0	3,050384	4,71375	85,9068	0,828	77,959	3,5	1005,38	7,4	9,3	9,2	1	1	1	1	1	1	1	1	1	0	1	-34,319944	274,715566	288,61581	0
14.01.2021	19:29:47	0	0	4,632092	5,00925	84,024	0,821	77,969	3,5	1005,5	7,4	9,3	9,1	1	1	1	1	1	1	1	1	1	0	1	-36,575053	274,823715	286,869532	0
14.01.2021	19:29:48	0	0	2,485513	4,98225	75,2436	0,824	77,965	3,5	1005,5	7,4	9,3	9,1	1	1	1	1	1	1	1	1	1	0	1	-40,239605	274,878018	283,460693	0
14.01.2021	19:29:49	0	0	3,615291	4,85625	78,6348	0,818	77,95	3,5	1005,38	7,4	9,3	9,1	1	1	1	1	1	1	1	1	1	0	1	-38,12544	274,7742	285,086108	0
14.01.2021	19:29:50	0	0	4,067178	4,57275	73,0368	0,827	77,95	3,5	1005,42	7,4	9,3	9,2	1	1	1	1	1	1	1	1	1	0	1	-37,491191	274,879571	286,216426	0
14.01.2021	19:29:51	0	0	3,728247	4,43325	77,1984	0,821	77,945	3,5	1005,36	7,4	9,3	9,2	1	1	1	1	1	1	1	1	1	0	1	-40,098661	274,714025	282,829848	0
14.01.2021	19:29:52	0	0	3,954201	4,25475	82,9656	0,823	77,936	3,5	1005,56	7,4	9,3	9,2	1	1	1	1	1	1	1	1	1	0	1	-37,984496	274,730979	285,023737	0
14.01.2021	19:29:53	0	0	4,858019	4,44225	81,9612	0,823	77,931	3,5	1005,36	7,4	9,3	9,2	1	1	1	1	1	1	1	1	1	0	1	-35,51797	274,867145	288,131116	0
14.01.2021	19:29:54	0	0	3,389315	4,257	85,5864	0,82	77,93	3,5	1005,44	7,4	9,3	9,2	1	1	1	1	1	1	1	1	1	0	1	-36,293164	274,766475	286,882038	0
14.01.2021	19:29:55	0	0	3,728247	4,389	85,176	0,817	77,933	3,5	1005,44	7,4	9,3	9,2	1	1	1	1	1	1	1	1	1	0	1	-41,226216	274,871804	282,444814	0
14.01.2021	19:29:56	0	0	4,519087	4,62075	92,2356	0,814	77,928	3,5	1005,5	7,4	9,3	9,2	1	1	1	1	1	1	1	1	1	0	1	-33,897111	274,737147	289,140134	0
14.01.2021	19:29:57	0	0	2,259544	4,68675	97,0092	0,819	77,929	3,5	1005,46	7,4	9,3	9,2	1	1	1	1	1	1	1	1	1	0	1	-41,649049	274,700165	281,214295	0
14.01.2021	19:29:58	0	0	4,067178	4,5435	96,5736	0,815	77,933	3,5	1005,48	7,4	9,3	9,2	1	1	1	1	1	1	1	1	1	0	1	-37,914024	274,834564	285,581634	0
14.01.2021	19:29:59	0	0	3,954201	4,48125	101,1096	0,821	77,943	3,5	1005,56	7,4	9,3	9,2	1	1	1	1	1	1	1	1	1	0	1	-37,77308	274,81597	285,635046	0
14.01.2021	19:30:00	0	0	3,163361	4,5555	96,3036	0,824	77,94	3,5	1005,48	7,4	9,3	9,2	1	1	1	1	1	1	1	1	1	0	1	-39,252995	274,692469	283,57417	0
14.01.2021	19:30:01	0	0	2,937407	4,53375	87,7248	0,816	77,942	3,5	1005,62	7,4	9,3	9,2	1	1	1	1	1	1	1	1	1	0	1	-36,363636	274,707864	286,535904	0
14.01.2021	19:30:02	0	0	2,937407	4,53375	87,7248	0,816	77,942	3,5	1005,62	7,4	9,3	9,2	1	1	1	1	1	1	1	1	1	0	1	-36,363636	274,707864	286,535904	0
14.01.2021	19:30:03	0	0	3,615291	4,42725	94,086	0,826	77,931	3,5	1005,52	7,4	9,3	9,1	1	1	1	1	1	1	1	1	1	0	1	-40,732911	274,74949	282,36239	0
14.01.2021	19:30:04	0	0	3,276358	4,17525	98,0856	0,824	77,923	3,5	1005,44	7,4	9,3	9,1	1	1	1	1	1	1	1	1	1	0	1	-38,195913	274,717106	284,747086	0
14.01.2021	19:30:05	0	0	4,632064	4,3635	94,7628	0,817	77,936	3,5	1005,5	7,4	9,3	9,2	1	1	1	1	1	1	1	1	1	0	1	-37,984496	274,692469	284,842669	0
14.01.2021	19:30:06	0	0	4,519087	4,24425	89,676	0,821	77,933	3,5	1005,38	7,4	9,3	9,2	1	1	1	1	1	1	1	1	1	0	1	-36,715997	274,775746	286,502823	0
14.01.2021	19:30:07	0	0	3,389315	4,527	81,6048	0,821	77,93	3,5	1005,52	7,4	9,3	9,2	1	1	1	1	1	1	1	1	1	0	1	-35,729387	274,692469	287,097778	0
14.01.2021	19:30:08	0	0	2,711452	4,932	84,8772	0,816	77,936	3,5	1005,58	7,4	9,3	9,2	1	1	1	1	1	1	1	1	1	0	1	-35,51797	274,726354	287,468511	0
14.01.2021	19:30:09	0	0	4,40611	5,34225	97,704	0,81	77,935	3,5	1005,46	7,4	9,3	9,2	1	1	1	1	1	1	1	1	1	0	1	-39,323467	274,820617	284,106532	0
14.01.2021	19:30:10	0	0	4,40611	5,253	101,0916	0,822	77,934	3,5	1005,44	7,4	9,3	9,2	1	1	1	1	1	1	1	1	1	0	1	-38,266385	274,706324	284,625915	0
14.01.2021	19:30:11	0	0	3,502292	5,178	77,5512	0,819	77,938	3,5	1005,58	7,4	9,3	9,2	1	1	1	1	1	1	1	1	1	0	1	-29,880197	274,791207	293,411376	0
14.01.2021	19:30:12	0	0	3,050384	5,12325	76,464	0,818	77,952	3,5	1005,36	7,4	9,3	9,2	1	1	1	1	1	1	1	1	1	0	1	-35,306554	274,867145	288,342532	0
14.01.2021	19:30:13	0	0	3,163361	4,8285	66,8952	0,813	77,963	3,5	1005,32	7,4	9,3	9,2	1	1	1	1	1	1	1	1	1	0	1	-40,662438	274,698626	282,193668	0
14.01.2021	19:30:14	0	0	4,858019	4,5915	66,9096	0,817	77,958	3,5	1005,4	7,4	9,3	9,2	1	1	1	1	1	1	1	1	1	0	1	-35,658915	274,76802	287,523555	0
14.01.2021	19:30:15	0	0	4,745041	4,73925	70,92	0,813	77,993	3,5	1005,42	7,4	9,3	9,2	1	1	1	1	1	1	1	1	1	0	1	-35,658915	274,706324	287,233385	0
14.01.2021	19:30:16	0	0	4,745041	4,98375	74,5128	0,818	77,996	3,5	1005,44	7,4	9,3	9,2	1	1	1	1	1	1	1	1	1	0	1	-37,914024	274,836114	285,588933	0
14.01.2021	19:30:17	0	0	4,519087	4,89375	85,1976	0,822	78,014	3,5	1005,56	7,4	9,3	9,2	1	1	1	1	1	1	1	1	1	0	1	-40,521494	274,860935	283,098343	0
14.01.2021	19:30:18	0	0	4,745041	4,86225	87,732	0,815	78,013	3,5	1005,64	7,4	9,3	9,2	1	1	1	1	1	1	1	1	1	0	1	-39,887245	274,86404	283,747216	0
14.01.2021	19:30:19	0	0	2,598475	4,90125	73,0368	0,819	78,019	3,5	1005,52	7,4	9,3	9,2	1	1	1	1	1	1	1	1	1	0	1	-39,816772	274,829914	283,656993	0
14.01.2021	19:30:20	0	0	4,632064	4,95975	81,5544	0,815	78,026	3,5	1005,54	7,4	9,3	9,2	1	1	1	1	1	1	1	1	1	0	1	-37,702607	274,884233	286,02697	0
14.01.2021	19:30:21	0	0	4,970996	4,84725	83,3436	0,816	78,024	3,5	1005,48	7,4	9,3	9,2	1	1	1	1	1	1	1	1	1	0	1	-42,847075	274,817519	280,568341	0
14.01.2021	19:30:22	0	0	2,824429	4,671	79,7796	0,818	78,017	3,5	1005,4	7,4	9,3	9,2	1	1	1	1	1	1	1	1	1	0	1	-38,336857	274,870251	285,326857	0
14.01.2021	19:30:23	0	0	3,050384	4,81275	84,5064	0,82	78,032	3,5	1005,48	7,4	9,3	9,2	1	1	1	1	1	1	1	1	1	0	1	-39,675828	274,86404	283,958632	0
14.01.2021	19:30:24	0	0	4,180155	4,9155	69,4512	0,821	78,022	3,5	1005,54	7,4	9,3	9,2	1	1	1	1	1	1	1	1	1	0	1	-38,12544	274,764931	285,042494	0
14.01.2021	19:30:25	0	0	3,728247	5,0205	75,6	0,816	78,033	3,5	1005,64	7,4	9,3	9,2	1	1	1	1	1	1	1	1	1	0	1	-36,997886	274,714025	285,930624	0
14.01.2021	19:30:26	0	0	3,050384	5,5605	90,3744	0,82	78,044	3,5	1005,4	7,4	9,3	9,2	1	1	1	1	1	1	1	1	1	0	1	-39,605356	274,706324	283,286943	0
14.01.2021	19:30:27	0	0	4,519087	5,76675	89,7876	0,815	78,052	3,5	1005,46	7,4	9,3	9,2	1	1	1	1	1	1	1	1	1	0	1	-37,491191	274,723271	285,480794	0
14.01.2021	19:30:28	0	0	4,40611	5,55075	83,3184	0,815	78,06	3,5	1005,54	7,4	9,3	9,2	1	1	1	1	1	1	1	1	1	0	1	-38,830162	274,831463	284,6509	0
14.01.2021	19:30:29	0	0	2,937407	5,244	85,1796	0,818	78,072	3,5	1005,52	7,4	9,3	9,2	1	1	1	1	1	1	1	1	1	0	1	-39,323467	274,823715	284,121118	0
14.01.2021	19:30:30	0	0	4,745041	4,8945	88,5672	0,816	78,053	3,5	1005,38	7,4	9,3	9,2	1	1	1	1	1	1	1	1	1	0	1	-39,534884	274,709404	283,371898	0
14.01.2021	19:30:31	0	0	3,389315	4,701	91,1448	0,817	78,051	3,5	1005,5	7,4	9,3	9,2	1	1	1	1	1	1	1	1	1	0	1	-38,407329	274,837664	285,102928	0
14.01.2021	19:30:32	0	0	2,485498	4,6875	91,5084	0,816	78,062	3,5	1005,42	7,4	9,3	9,2	1	1	1	1	1	1	1	1	1	0	1	-36,434109	274,729437	286,566873	0
14.01.2021	19:30:33	0	0	3,502292	4,52475	93,3264	0,809	78,051	3,5	1005,44	7,4	9,3	9,2	1	1	1	1	1	1	1	1	1	0	1	-38,12544	274,887342	285,618782	0
14.01.2021	19:30:34	0	0	3,163361	4,4235	93,7692	0,813	78,06	3,5	1005,5	7,3	9,3	9,2	1	1	1	1	1	1	1	1	1	0	1	-40,521494	274,785021	282,74097	0
14.01.2021	19:30:35	0	0	4,745041	4,63125	88,1136	0,816	78,061	3,5	1005,54	7,4	9,3	9,2	1	1	1	1	1	1	1	1	1	0	1	-38,618746	274,741775	284,440265	0
14.01.2021	19:30:36	0	0	2,146566	4,734	91,1592	0,814	78,066	3,5	1005,58	7,4	9,3	9,2	1	1	1	1	1	1	1	1	1	0	1	-38,195913	274,860935	285,423925	0
14.01.2021	19:30:37	0	0	3,276338	5,0385	85,1868	0,812	78,062	3,5	1005,52	7,3	9,3	9,2	1	1	1	1	1	1	1	1	1	0	1	-39,7463	274,825265	283,705579	0
14.01.2021	19:30:38	0	0	3,841224	5,09625	92,2536	0,812	78,063	3,5	1005,38	7,4	9,3	9,2	1	1	1	1	1	1	1	1	1	0	1	-36,15222	274,752578	286,957602	0
14.01.2021	19:30:39	0	0	4,293133	5,09025	92,9556	0,812	78,077	3,5	1005,56	7,4	9,3	9,2	1	1	1	1	1	1	1	1	1	0	1	-44,186047	274,843867	279,353416	0
14.01.2021	19:30:40	0	0	2,598475	5,06175	90,7668	0,818	78,079	3,5	1005,5	7,4	9,3	9,2	1	1	1	1	1	1	1	1	1	0	1	-40,803383	274,865592	282,83839	0
14.01.2021	19:30:41	0	0	2,937407	4,8405	91,1772	0,814	78,077	3,5	1005,48	7,3	9,3	9,2	1	1	1	1	1	1	1	1	1	0	1	-40,169133	274,874911	283,516529	0
14.01.2021	19:30:42	0	0	2,372521	4,89675	91,17	0,822	78,085	3,5	1005,5	7,4	9,3	9,2	1	1	1	1	1	1	1	1	1	0	1	-35,658915	274,757209	287,472694	0
14.01.2021	19:30:43	0	0	3,61527	4,83975	91,8864	0,813	78,091	3,5	1005,54	7,4	9,3	9,2	1	1	1	1	1	1	1	1	1	0	1	-38,477801	274,867145	285,171285	0
14.01.2021	19:30:44	0	0	4,40611	4,5255	87,6852	0,815	78,104	3,5	1005,78	7,6	9,3	9,2	1	1	1	1	1	1	1	1	1	0	1	-39,7463	274,885788	283,990599	0
14.01.2021	19:30:45	0	0	4,519087	4,44375	88,9524	0,807	78,098	3,5	1005,48	7,5	9,3	9,2	1	1	1	1	1	1	1	1	1	0	1	-38,12544	274,772655	285,078838	0
14.01.2021	19:30:46	0	0	3,276338	4,8465	86,6664	0,816	78,12	3,5	1005,54	7,4	9,3	9,2	1	1	1	1	1	1	1	1	1	0	1	-37,632135	274,888896	286,11941	0
14.01.2021	19:30:47	0	0	4,067178	4,86225	80,5212	0,811	78,102	3,5	1005,54	7,4	9,3	9,2	1	1	1	1	1	1	1	1	1	0	1	-39,7463	274,836114	283,756657	0
14.01.2021	19:30:48	0	0	4,180155	4,82325	80,172	0,813	78,115	3,5	1005,56	7,4	9,3	9,2	1	1	1	1	1	1	1	1	1	0	1	-37,914024	274,704784	284,971035	0
14.01.2021	19:30:49	0	0	4,067178	4,80825	95,13	0,814	78,12	3,5	1005,6	7,4	9,3	9,2	1	1	1	1	1	1	1	1	1	0	1	-39,957717	274,859383	283,65481	0
14.01.2021	19:30:50	0	0	2,711452	4,41225	82,5696	0,811	78,12	3,5	1005,36	7,4	9,3	9,2	1	1	1	1	1	1	1	1	1	0	1	-34,672304	274,820617	288,757695	0
14.01.2021	19:30:51	0	0	2,937407	3,97875	78,282	0,813	78,137	3,5	1005,6	7,4	9,3	9,2	1	1	1	1	1	1	1	1	1	0	1	-38,900634	274,697086	283,948236	0
14.01.2021	19:30:52	0	0	4,745041	4,1835	75,9708	0,812	78,113	3,5	1005,48	7,4	9,3	9,2	1	1	1	1	1	1	1	1	1	0	1	-38,12544	274,845418	285,421326	0
14.01.2021	19:30:53	0	0	2,372521	4,551	83,7288	0,813	78,131	3,5	1005,4	7,4	9,4	9,2	1	1	1	1	1	1	1	1	1	0	1	-43,410853	274,781929	279,83706	0
14.01.2021	19:30:54	0	0	3,050384	4,6365	81,5868	0,815	78,15	3,5	1005,52	7,4	9,4	9,2	1	1	1	1	1	1	1	1	1	0	1	-35,306554	274,706324	287,585745	0
14.01.2021	19:30:55	0	0	4,067178	4,5375	83,3472	0,817	78,151	3,5	1005,6	7,4	9,3	9,2	1	1	1	1	1	1	1	1	1	0	1	-33,403805	274,885788	290,333094	0
14.01.2021	19:30:56	0	0	4,40611	4,239	69,4584	0,813	78,157	3,5	1005,48	7,4	9,3	9,2	1	1	1	1	1	1	1	1	1	0	1	-34,742777	274,78966	288,541518	0
14.01.2021	19:30:57	0	0	3,728247	4,0305	90,4032	0,82	78,147	3,5	1005,52	7,4	9,3	9,2	1	1	1	1	1	1	1	1	1	0	1	-39,182523	274,873357	284,495823	0
14.01.2021	19:30:58	0	0	3,276338	3,84075	93,7188	0,809	78,135	3,5	1005,58	7,4	9,3	9,2	1	1	1	1	1	1	1	1	1	0	1	-37,984496	274,842316	285,547664	0
14.01.2021	19:30:59	0	0	4,40611	3,5985	88,5672	0,817	78,13	3,5	1005,5	7,6	9,3	9,2	1	1	1	1	1	1	1	1	1	0	1	-39,816772	274,846969	283,737298	0
14.01.2021	19:31:00	0	0	4,519087	3,168	98,0604	0,814	78,134	3,5	1005,44	7,4	9,4	9,2	1	1	1	1	1	1	1	1	1	0	1	-34,460888	274,795848	288,852525	0
14.01.2021	19:31:01	0	0	2,937407	3,13275	85,176	0,813	78,137	3,5	1005,46	7,4	9,3	9,2	1	1	1	1	1	1	1	1	1	0	1	-36,786469	274,884233	286,943108	0
14.01.2021	19:31:02	0	0	2,937407	3,13275	85,176	0,813	78,137	3,5	1005,46	7,4	9,3	9,2	1	1	1	1	1	1	1	1	1	0	1	-36,786469	274,884233	286,943108	0
14.01.2021	19:31:03	0	0	3,050384	3,56475	86,202	0,815	78,123	3,5	1005,44	7,3	9,4	9,2	1	1	1	1	1	1	1	1	1	0	1	-41,36716	274,734063	281,655577	0
14.01.2021	19:31:04	0	0	3,050384	4,13025	86,6736	0,815	78,124	3,5	1005,54	7,4	9,3	9,2	1	1	1	1	1	1	1	1	1	0	1	-40,873855	274,729437	282,127127	0
14.01.2021	19:31:05	0	0	2,598475	4,47075	83,7288	0,819	78,124	3,5	1005,72	7,3	9,3	9,2	1	1	1	1	1	1	1	1	1	0	1	-42,917548	274,878018	280,782751	0
14.01.2021	19:31:06	0	0	5,19695	4,50525	83,3364	0,819	78,113	3,5	1005,44	7,4	9,3	9,2	1	1	1	1	1	1	1	1	1	0	1	-38,75969	274,882679	284,962567	0
14.01.2021	19:31:07	0	0	4,40611	4,5195	83,34	0,818	78,107	3,5	1005,52	7,4	9,3	9,2	1	1	1	1	1	1	1	1	1	0	1	-42,98802	274,871804	280,68301	0
14.01.2021	19:31:08	0	0	3,050384	4,302	87,3504	0,814	78,1	3,5	1005,56	7,4	9,3	9,2	1	1	1	1	1	1	1	1	1	0	1	-40,451022	274,747947	282,63702	0
14.01.2021	19:31:09	0	0	3,841224	4,1505	99,1512	0,815	78,104	3,5	1005,44	7,4	9,3	9,2	1	1	1	1	1	1	1	1	1	0	1	-35,447498	274,860935	288,172339	0
14.01.2021	19:31:10	0	0	2,937407	4,419	104,4396	0,817	78,095	3,5	1005,58	7,3	9,3	9,2	1	1	1	1	1	1	1	1	1	0	1	-37,702607	274,885788	286,034292	0
14.01.2021	19:31:11	0	0	4,293133	4,57125	104,0256	0,81	78,076	3,5	1005,46	7,4	9,3	9,2	1	1	1	1	1	1	1	1	1	0	1	-37,632135	274,764931	285,535799	0
14.01.2021	19:31:12	0	0	4,40611	4,77375	98,0712	0,813	78,087	3,5	1005,32	7,4	9,3	9,2	1	1	1	1	1	1	1	1	1	0	1	-33,192389	274,704784	289,69267	0
14.01.2021	19:31:13	0	0	4,180155	5,20125	82,9872	0,811	78,074	3,5	1005,36	7,4	9,3	9,2	1	1	1	1	1	1	1	1	1	0	1	-39,534884	274,727895	283,458848	0
14.01.2021	19:31:14	0	0	3,276338	5,331	86,3856	0,808	78,073	3,5	1005,64	7,4	9,3	9,2	1	1	1	1	1	1	1	1	1	0	1	-41,085271	274,700165	281,778073	0
14.01.2021	19:31:15	0	0	4,519087	4,8735	75,1968	0,808	78,089	3,5	1005,46	7,4	9,3	9,2	1	1	1	1	1	1	1	1	1	0	1	-37,13883	274,860935	286,481007	0
14.01.2021	19:31:16	0	0	3,61527	4,3575	65,0772	0,81	78,088	3,5	1005,5	7,4	9,3	9,2	1	1	1	1	1	1	1	1	1	0	1	-41,155743	274,803585	282,194083	0
14.01.2021	19:31:17	0	0	3,502292	4,0935	94,086	0,816	78,11	3,5	1005,58	7,4	9,4	9,2	1	1	1	1	1	1	1	1	1	0	1	-39,816772	274,873357	283,861573	0
14.01.2021	19:31:18	0	0	3,050384	4,182	86,6664	0,815	78,111	3,5	1005,46	7,4	9,3	9,2	1	1	1	1	1	1	1	1	1	0	1	-38,548273	274,707864	284,351267	0
14.01.2021	19:31:19	0	0	4,067178	4,323	73,044	0,815	78,11	3,5	1005,4	7,4	9,3	9,2	1	1	1	1	1	1	1	1	1	0	1	-39,112051	274,786567	284,157689	0
14.01.2021	19:31:20	0	0	3,954201	3,99825	77,9472	0,817	78,101	3,5	1005,6	7,4	9,4	9,2	1	1	1	1	1	1	1	1	1	0	1	-41,226216	274,876464	282,466764	0
14.01.2021	19:31:21	0	0	4,858019	3,73275	78,6816	0,81	78,104	3,5	1005,46	7,4	9,3	9,2	1	1	1	1	1	1	1	1	1	0	1	-36,856942	274,884233	286,872636	0
14.01.2021	19:31:22	0	0	3,841224	3,70275	65,4696	0,817	78,111	3,5	1005,5	7,4	9,4	9,2	1	1	1	1	1	1	1	1	1	0	1	-35,940803	274,76802	287,241667	0
14.01.2021	19:31:23	0	0	2,485498	3,507	82,3212	0,803	78,103	3,5	1005,5	7,4	9,3	9,2	1	1	1	1	1	1	1	1	1	0	1	-40,239605	274,888896	283,51194	0
14.01.2021	19:31:24	0	0	2,824429	3,579	79,0344	0,806	78,091	3,5	1005,5	7,4	9,3	9,2	1	1	1	1	1	1	1	1	1	0	1	-37,420719	274,781929	285,827194	0
14.01.2021	19:31:25	0	0	4,067178	3,86925	87,3756	0,807	78,081	3,5	1005,38	7,4	9,3	9,2	1	1	1	1	1	1	1	1	1	0	1	-42,142354	274,871804	281,528676	0
14.01.2021	19:31:26	0	0	2,259544	3,807	79,038	0,821	78,087	3,5	1005,54	7,3	9,3	9,2	1	1	1	1	1	1	1	1	1	0	1	-39,534884	274,701705	283,335698	0
14.01.2021	19:31:27	0	0	2,372521	3,55275	101,1168	0,817	78,055	3,5	1005,52	7,4	9,3	9,2	1	1	1	1	1	1	1	1	1	0	1	-34,742777	274,78966	288,541518	0
14.01.2021	19:31:28	0	0	2,372521	3,44175	98,064	0,82	78,063	3,5	1005,34	7,4	9,4	9,2	1	1	1	1	1	1	1	1	1	0	1	-36,786469	274,878018	286,913829	0
14.01.2021	19:31:29	0	0	3,61527	3,67275	91,9728	0,817	78,056	3,5	1005,56	7,4	9,3	9,2	1	1	1	1	1	1	1	1	1	0	1	-36,15222	274,754121	286,964864	0
14.01.2021	19:31:30	0	0	3,954201	3,684	95,5332	0,815	78,06	3,5	1005,44	7,4	9,4	9,2	1	1	1	1	1	1	1	1	1	0	1	-41,437632	274,879571	282,269985	0
14.01.2021	19:31:31	0	0	3,841224	3,5895	107,4348	0,815	78,06	3,5	1005,48	7,4	9,3	9,2	1	1	1	1	1	1	1	1	1	0	1	-38,548273	274,755665	284,576073	0
14.01.2021	19:31:32	0	0	2,824429	3,39675	107,4132	0,814	78,062	3,5	1005,54	7,4	9,4	9,2	1	1	1	1	1	1	1	1	1	0	1	-38,477801	274,712485	284,443465	0
14.01.2021	19:31:33	0	0	4,40611	3,34575	98,4816	0,812	78,041	3,5	1005,5	7,4	9,4	9,2	1	1	1	1	1	1	1	1	1	0	1	-38,900634	274,797395	284,42006	0
14.01.2021	19:31:34	0	0	2,598475	3,51225	98,4528	0,813	78,046	3,5	1005,48	7,4	9,3	9,2	1	1	1	1	1	1	1	1	1	0	1	-40,451022	274,856278	283,146887	0
14.01.2021	19:31:35	0	0	3,954201	3,68175	95,832	0,817	78,046	3,5	1005,38	7,4	9,3	9,2	1	1	1	1	1	1	1	1	1	0	1	-43,410853	274,879571	280,296764	0
14.01.2021	19:31:36	0	0	3,050384	3,4605	87,8112	0,809	78,032	3,5	1005,44	7,4	9,3	9,2	1	1	1	1	1	1	1	1	1	0	1	-37,13883	274,828364	286,327639	0
14.01.2021	19:31:37	0	0	3,389315	3,30675	108,1296	0,813	78,039	3,5	1005,44	7,4	9,3	9,2	1	1	1	1	1	1	1	1	1	0	1	-36,222692	274,710944	286,691331	0
14.01.2021	19:31:38	0	0	2,711452	3,45675	98,7768	0,81	78,022	3,5	1005,4	7,4	9,3	9,2	1	1	1	1	1	1	1	1	1	0	1	-38,830162	274,811325	284,556096	0
14.01.2021	19:31:39	0	0	3,050384	3,612	80,8956	0,81	78,021	3,5	1005,4	7,4	9,4	9,2	1	1	1	1	1	1	1	1	1	0	1	-38,548273	274,715566	284,38748	0
14.01.2021	19:31:40	0	0	4,970996	3,621	82,566	0,813	78,017	3,5	1005,42	7,4	9,3	9,2	1	1	1	1	1	1	1	1	1	0	1	-39,534884	274,735605	283,495107	0
14.01.2021	19:31:41	0	0	4,745041	3,537	83,7324	0,808	78,018	3,5	1005,6	7,4	9,4	9,2	1	1	1	1	1	1	1	1	1	0	1	-41,226216	274,727895	281,767516	0
14.01.2021	19:31:42	0	0	3,61527	3,37875	91,494	0,81	78,026	3,5	1005,54	7,4	9,3	9,2	1	1	1	1	1	1	1	1	1	0	1	-40,451022	274,707864	282,448518	0
14.01.2021	19:31:43	0	0	2,598475	3,30825	83,322	0,813	78,017	3,5	1005,5	7,4	9,3	9,2	1	1	1	1	1	1	1	1	1	0	1	-42,001409	274,792754	281,297443	0
14.01.2021	19:31:44	0	0	2,711452	3,25425	73,4256	0,815	78,006	3,5	1005,7	7,4	9,4	9,2	1	1	1	1	1	1	1	1	1	0	1	-39,182523	274,727895	283,811209	0
14.01.2021	19:31:45	0	0	4,632064	3,55575	88,1172	0,815	78,012	3,5	1005,48	7,4	9,3	9,2	1	1	1	1	1	1	1	1	1	0	1	-41,649049	274,687853	281,156418	0
14.01.2021	19:31:46	0	0	2,937407	3,6255	90,774	0,812	77,998	3,5	1005,52	7,4	9,3	9,2	1	1	1	1	1	1	1	1	1	0	1	-35,940803	274,786567	287,328937	0
14.01.2021	19:31:47	0	0	4,40611	3,651	86,6772	0,814	77,991	3,5	1005,5	7,4	9,4	9,2	1	1	1	1	1	1	1	1	1	0	1	-39,7463	274,715566	283,189453	0
14.01.2021	19:31:48	0	0	2,937407	3,5445	84,7908	0,81	77,978	3,5	1005,46	7,4	9,4	9,2	1	1	1	1	1	1	1	1	1	0	1	-37,13883	274,709404	285,767951	0
14.01.2021	19:31:49	0	0	2,711452	3,5835	84,78	0,801	77,979	3,5	1005,52	7,4	9,3	9,2	1	1	1	1	1	1	1	1	1	0	1	-40,098661	274,867145	283,550425	0
14.01.2021	19:31:50	0	0	2,937407	3,55875	72,2952	0,806	77,962	3,5	1005,54	7,4	9,3	9,2	1	1	1	1	1	1	1	1	1	0	1	-38,336857	274,734063	284,68588	0
14.01.2021	19:31:51	0	0	4,745041	3,65775	102,5424	0,812	77,971	3,5	1005,58	7,4	9,3	9,2	1	1	1	1	1	1	1	1	1	0	1	-39,464412	274,755665	283,659934	0
14.01.2021	19:31:52	0	0	4,180155	3,27975	83,34	0,813	77,947	3,5	1005,48	7,4	9,3	9,2	1	1	1	1	1	1	1	1	1	0	1	-40,803383	274,871804	282,867647	0
14.01.2021	19:31:53	0	0	4,632064	3,1455	79,0416	0,811	77,953	3,5	1005,4	7,4	9,4	9,2	1	1	1	1	1	1	1	1	1	0	1	-36,997886	274,823715	286,446699	0
14.01.2021	19:31:54	0	0	3,163361	3,08775	80,5392	0,811	77,961	3,5	1005,46	7,4	9,4	9,2	1	1	1	1	1	1	1	1	1	0	1	-44,397463	274,860935	279,222374	0
14.01.2021	19:31:55	0	0	3,276338	3,66825	63,8568	0,809	77,952	3,5	1005,5	7,4	9,4	9,2	1	1	1	1	1	1	1	1	1	0	1	-39,957717	274,701705	282,912865	0
14.01.2021	19:31:56	0	0	2,485498	4,29	73,8	0,81	77,961	3,5	1005,42	7,4	9,4	9,2	1	1	1	1	1	1	1	1	1	0	1	-38,12544	274,814422	285,275395	0
14.01.2021	19:31:57	0	0	2,824429	4,42725	94,1724	0,811	77,953	3,5	1005,58	7,4	9,3	9,2	1	1	1	1	1	1	1	1	1	0	1	-36,997886	274,817519	286,41753	0
14.01.2021	19:31:58	0	0	4,067178	4,12575	86,9868	0,806	77,944	3,5	1005,54	7,4	9,4	9,2	1	1	1	1	1	1	1	1	1	0	1	-38,12544	274,846969	285,428629	0
14.01.2021	19:31:59	0	0	4,293133	3,92175	96,5772	0,805	77,96	3,5	1005,46	7,4	9,3	9,2	1	1	1	1	1	1	1	1	1	0	1	-40,732911	274,85783	282,872307	0
14.01.2021	19:32:00	0	0	4,632064	3,63675	87,3468	0,811	77,96	3,5	1005,46	7,4	9,4	9,2	1	1	1	1	1	1	1	1	1	0	1	-39,675828	274,734063	283,346909	0
14.01.2021	19:32:01	0	0	2,598475	3,555	106,668	0,809	77,977	3,5	1005,5	7,4	9,4	9,2	1	1	1	1	1	1	1	1	1	0	1	-41,930937	274,678625	280,83115	0
14.01.2021	19:32:02	0	0	2,598475	3,555	106,668	0,809	77,977	3,5	1005,5	7,4	9,4	9,2	1	1	1	1	1	1	1	1	1	0	1	-41,930937	274,678625	280,83115	0
14.01.2021	19:32:03	0	0	3,502292	3,3105	104,4432	0,807	77,969	3,5	1005,38	7,4	9,4	9,2	1	1	1	1	1	1	1	1	1	0	1	-35,729387	274,829914	287,744379	0
14.01.2021	19:32:04	0	0	2,598475	3,069	96,9876	0,809	77,977	3,5	1005,62	7,4	9,4	9,2	1	1	1	1	1	1	1	1	1	0	1	-40,732911	274,862487	282,894238	0
14.01.2021	19:32:05	0	0	4,745041	3,201	97,3908	0,805	77,974	3,5	1005,44	7,4	9,4	9,2	1	1	1	1	1	1	1	1	1	0	1	-40,803383	274,836114	282,699574	0
14.01.2021	19:32:06	0	0	3,502292	3,6975	91,512	0,805	77,99	3,5	1005,46	7,4	9,4	9,2	1	1	1	1	1	1	1	1	1	0	1	-37,632135	274,795848	285,681278	0
14.01.2021	19:32:07	0	0	4,519087	4,04025	92,2356	0,809	77,997	3,5	1005,72	7,4	9,4	9,2	1	1	1	1	1	1	1	1	1	0	1	-37,279774	274,879571	286,427842	0
14.01.2021	19:32:08	0	0	3,050384	4,30575	80,1252	0,797	77,996	3,5	1005,5	7,4	9,4	9,2	1	1	1	1	1	1	1	1	1	0	1	-37,984496	274,706324	284,907803	0
14.01.2021	19:32:09	0	0	3,61527	4,4085	71,5968	0,811	78,006	3,5	1005,46	7,4	9,4	9,2	1	1	1	1	1	1	1	1	1	0	1	-35,729387	274,867145	287,919699	0
14.01.2021	19:32:10	0	0	2,372521	4,54125	74,16	0,811	78,023	3,5	1005,52	7,4	9,4	9,2	1	1	1	1	1	1	1	1	1	0	1	-36,715997	274,714025	286,212512	0
14.01.2021	19:32:11	0	0	2,824429	4,512	77,2272	0,81	78,041	3,5	1005,54	7,4	9,3	9,2	1	1	1	1	1	1	1	1	1	0	1	-39,393939	274,833013	284,09442	0
14.01.2021	19:32:12	0	0	4,180155	4,461	84,7908	0,805	78,046	3,5	1005,56	7,4	9,4	9,2	1	1	1	1	1	1	1	1	1	0	1	-45,877378	274,862487	277,74977	0
14.01.2021	19:32:13	0	0	2,598475	4,404	79,7688	0,805	78,041	3,5	1005,26	7,4	9,4	9,2	1	1	1	1	1	1	1	1	1	0	1	-38,618746	274,80668	284,745652	0
14.01.2021	19:32:14	0	0	3,61527	4,4745	90,7596	0,803	78,062	3,5	1005,54	7,4	9,4	9,2	1	1	1	1	1	1	1	1	1	0	1	-36,997886	274,873357	286,68046	0
14.01.2021	19:32:15	0	0	4,067178	4,2675	92,6316	0,805	78,053	3,5	1005,46	7,4	9,4	9,2	1	1	1	1	1	1	1	1	1	0	1	-36,15222	274,74949	286,943081	0
14.01.2021	19:32:16	0	0	2,598475	4,593	99,54	0,803	78,061	3,5	1005,46	7,4	9,4	9,2	1	1	1	1	1	1	1	1	1	0	1	-33,051445	274,701705	289,819137	0
14.01.2021	19:32:17	0	0	4,970996	4,8195	93,69	0,806	78,067	3,5	1005,46	7,4	9,4	9,2	1	1	1	1	1	1	1	1	1	0	1	-37,491191	274,856278	286,106718	0
14.01.2021	19:32:18	0	0	4,293133	4,83225	85,1472	0,807	78,053	3,5	1005,38	7,4	9,4	9,2	1	1	1	1	1	1	1	1	1	0	1	-39,675828	274,743318	283,390439	0
14.01.2021	19:32:19	0	0	3,954201	4,9365	94,8276	0,806	78,058	3,5	1005,6	7,4	9,4	9,2	1	1	1	1	1	1	1	1	1	0	1	-37,13883	274,854727	286,45177	0
14.01.2021	19:32:20	0	0	3,389315	4,83675	89,3268	0,807	78,031	3,5	1005,26	7,4	9,4	9,2	1	1	1	1	1	1	1	1	1	0	1	-35,729387	274,720188	287,228103	0
14.01.2021	19:32:21	0	0	4,519087	4,671	90,3744	0,796	78,053	3,5	1005,54	7,4	9,4	9,2	1	1	1	1	1	1	1	1	1	0	1	-38,830162	274,860935	284,789675	0
14.01.2021	19:32:22	0	0	2,937407	4,44075	82,6524	0,809	78,057	3,5	1005,38	7,4	9,4	9,2	1	1	1	1	1	1	1	1	1	0	1	-37,914024	274,675549	284,83361	0
14.01.2021	19:32:23	0	0	3,163361	4,0245	70,9488	0,808	78,042	3,5	1005,56	7,4	9,4	9,2	1	1	1	1	1	1	1	1	1	0	1	-33,967583	274,798942	289,360394	0
14.01.2021	19:32:24	0	0	2,372521	4,251	77,1912	0,805	78,043	3,5	1005,6	7,4	9,4	9,2	1	1	1	1	1	1	1	1	1	0	1	-38,75969	274,86404	284,87477	0
14.01.2021	19:32:25	0	0	3,954201	4,49475	84,024	0,805	78,03	3,5	1005,44	7,4	9,4	9,2	1	1	1	1	1	1	1	1	1	0	1	-42,706131	274,856278	280,891777	0
14.01.2021	19:32:26	0	0	3,389315	4,371	85,5108	0,805	78,039	3,5	1005,5	7,4	9,4	9,2	1	1	1	1	1	1	1	1	1	0	1	-40,169133	274,775746	283,049687	0
14.01.2021	19:32:27	0	0	3,502292	4,221	84,042	0,798	78,038	3,5	1005,5	7,4	9,4	9,2	1	1	1	1	1	1	1	1	1	0	1	-41,860465	274,680162	280,908851	0
14.01.2021	19:32:28	0	0	4,067178	4,0425	80,5176	0,8	78,035	3,5	1005,46	7,4	9,3	9,2	1	1	1	1	1	1	1	1	1	0	1	-34,53136	274,778837	288,702005	0
14.01.2021	19:32:29	0	0	4,180155	3,91875	88,1136	0,811	78,038	3,5	1005,5	7,4	9,4	9,2	1	1	1	1	1	1	1	1	1	0	1	-38,971106	274,862487	284,656042	0
14.01.2021	19:32:30	0	0	4,632064	3,918	92,2572	0,801	78,018	3,5	1005,48	7,4	9,4	9,2	1	1	1	1	1	1	1	1	1	0	1	-41,226216	274,734063	281,796522	0
14.01.2021	19:32:31	0	0	2,598475	4,04175	87,7536	0,807	78,021	3,5	1005,48	7,4	9,4	9,2	1	1	1	1	1	1	1	1	1	0	1	-37,350247	274,694008	285,484153	0
14.01.2021	19:32:32	0	0	2,598475	4,25025	98,4456	0,807	78,025	3,5	1005,48	7,4	9,4	9,2	1	1	1	1	1	1	1	1	1	0	1	-37,491191	274,829914	285,982574	0
14.01.2021	19:32:33	0	0	3,276338	4,464	86,274	0,798	78,029	3,5	1005,46	7,4	9,4	9,2	1	1	1	1	1	1	1	1	1	0	1	-39,182523	274,690931	283,637409	0
14.01.2021	19:32:34	0	0	3,728247	4,70925	87,3468	0,808	78,047	3,5	1005,52	7,4	9,4	9,2	1	1	1	1	1	1	1	1	1	0	1	-37,702607	274,6817	285,073937	0
14.01.2021	19:32:35	0	0	2,598475	4,9545	84,7692	0,802	78,037	3,5	1005,54	7,4	9,3	9,2	1	1	1	1	1	1	1	1	1	0	1	-39,112051	274,734063	283,910687	0
14.01.2021	19:32:36	0	0	4,180155	5,13525	105,1164	0,802	78,057	3,5	1005,5	7,4	9,4	9,2	1	1	1	1	1	1	1	1	1	0	1	-37,561663	274,678625	285,200424	0
14.01.2021	19:32:37	0	0	3,841224	5,29725	109,5804	0,803	78,047	3,5	1005,4	7,4	9,4	9,2	1	1	1	1	1	1	1	1	1	0	1	-37,561663	274,811325	285,824595	0
14.01.2021	19:32:38	0	0	4,745041	5,46675	100,3644	0,806	78,066	3,5	1005,58	7,4	9,4	9,2	1	1	1	1	1	1	1	1	1	0	1	-40,944327	274,701705	281,926255	0
14.01.2021	19:32:39	0	0	2,598475	5,67525	106,2936	0,801	78,063	3,5	1005,64	7,4	9,4	9,2	1	1	1	1	1	1	1	1	1	0	1	-34,813249	274,712485	288,108017	0
14.01.2021	19:32:40	0	0	4,632064	5,61	93,6972	0,799	78,071	3,5	1005,4	7,4	9,4	9,2	1	1	1	1	1	1	1	1	1	0	1	-40,944327	274,836114	282,55863	0
14.01.2021	19:32:41	0	0	4,858019	5,8755	102,9636	0,806	78,075	3,5	1005,46	7,4	9,4	9,2	1	1	1	1	1	1	1	1	1	0	1	-36,434109	274,85783	287,171109	0
14.01.2021	19:32:42	0	0	4,293133	5,77125	105,1236	0,805	78,098	3,5	1005,26	7,4	9,4	9,2	1	1	1	1	1	1	1	1	1	0	1	-40,591966	274,812873	282,80158	0
14.01.2021	19:32:43	0	0	2,824429	5,709	96,5808	0,801	78,102	3,5	1005,52	7,4	9,4	9,2	1	1	1	1	1	1	1	1	1	0	1	-34,813249	274,695547	288,028386	0
14.01.2021	19:32:44	0	0	4,180155	6,0105	103,2948	0,805	78,102	3,5	1005,5	7,4	9,4	9,2	1	1	1	1	1	1	1	1	1	0	1	-37,13883	274,785021	286,123634	0
14.01.2021	19:32:45	0	0	4,632064	5,9925	97,3296	0,801	78,104	3,5	1005,24	7,4	9,4	9,2	1	1	1	1	1	1	1	1	1	0	1	-38,266385	274,854727	285,324216	0
14.01.2021	19:32:46	0	0	4,40611	5,916	101,4984	0,808	78,109	3,5	1005,52	7,4	9,4	9,2	1	1	1	1	1	1	1	1	1	0	1	-37,914024	274,86404	285,720436	0
14.01.2021	19:32:47	0	0	3,61527	5,7105	98,0892	0,805	78,094	3,5	1005,4	7,4	9,4	9,2	1	1	1	1	1	1	1	1	1	0	1	-41,085271	274,7742	282,126277	0
14.01.2021	19:32:48	0	0	3,841224	5,46675	96,2064	0,809	78,105	3,5	1005,46	7,4	9,3	9,2	1	1	1	1	1	1	1	1	1	0	1	-40,591966	274,890451	283,166903	0
14.01.2021	19:32:49	0	0	2,824446	5,24325	98,0856	0,805	78,092	3,5	1005,36	7,4	9,4	9,1	1	1	1	1	1	1	1	1	1	0	1	-37,561663	274,797395	285,759031	0
14.01.2021	19:32:50	0	0	2,824446	5,2605	102,96	0,807	78,095	3,5	1005,6	7,4	9,4	9,1	1	1	1	1	1	1	1	1	1	0	1	-37,702607	274,714025	285,225902	0
14.01.2021	19:32:51	0	0	2,598475	5,40375	104,742	0,807	78,091	3,5	1005,5	7,4	9,4	9,2	1	1	1	1	1	1	1	1	1	0	1	-42,635659	274,687853	280,169808	0
14.01.2021	19:32:52	0	0	5,309927	5,388	114,0948	0,804	78,092	3,5	1005,44	7,4	9,4	9,2	1	1	1	1	1	1	1	1	1	0	1	-38,266385	274,747947	284,821657	0
14.01.2021	19:32:53	0	0	3,502292	5,50725	108,1188	0,801	78,085	3,5	1005,5	7,4	9,4	9,2	1	1	1	1	1	1	1	1	1	0	1	-35,940803	274,862487	287,686345	0
14.01.2021	19:32:54	0	0	3,276338	5,718	112,6548	0,804	78,087	3,5	1005,44	7,4	9,4	9,2	1	1	1	1	1	1	1	1	1	0	1	-34,883721	274,808228	288,487963	0
14.01.2021	19:32:55	0	0	4,067203	5,42175	99,8856	0,799	78,096	3,5	1005,48	7,4	9,4	9,1	1	1	1	1	1	1	1	1	1	0	1	-37,279774	274,878018	286,420524	0
14.01.2021	19:32:56	0	0	3,841247	5,184	91,9872	0,806	78,098	3,5	1005,48	7,3	9,4	9,1	1	1	1	1	1	1	1	1	1	0	1	-36,011276	274,763386	287,149393	0
14.01.2021	19:32:57	0	0	2,937407	4,7535	95,148	0,809	78,097	3,5	1005,46	7,4	9,4	9,2	1	1	1	1	1	1	1	1	1	0	1	-37,13883	274,695547	285,702804	0
14.01.2021	19:32:58	0	0	2,598475	4,077	86,2632	0,81	78,098	3,5	1005,3	7,4	9,4	9,2	1	1	1	1	1	1	1	1	1	0	1	-39,605356	274,777291	283,620736	0
14.01.2021	19:32:59	0	0	3,163361	3,783	79,4124	0,807	78,105	3,5	1005,26	7,4	9,4	9,2	1	1	1	1	1	1	1	1	1	0	1	-42,071882	274,839215	281,445676	0
14.01.2021	19:33:00	0	0	2,711468	3,82575	71,6148	0,806	78,103	3,5	1005,32	7,3	9,4	9,1	1	1	1	1	1	1	1	1	1	0	1	-37,632135	274,720188	285,325355	0
14.01.2021	19:33:01	0	0	4,293133	3,819	74,5344	0,813	78,091	3,5	1005,46	7,4	9,4	9,2	1	1	1	1	1	1	1	1	1	0	1	-43,058492	274,851623	280,517494	0
14.01.2021	19:33:02	0	0	4,293133	3,819	74,5344	0,813	78,091	3,5	1005,46	7,4	9,4	9,2	1	1	1	1	1	1	1	1	1	0	1	-43,058492	274,851623	280,517494	0
14.01.2021	19:33:03	0	0	3,841224	3,8205	91,5336	0,812	78,086	3,5	1005,32	7,4	9,4	9,2	1	1	1	1	1	1	1	1	1	0	1	-39,041579	274,811325	284,34468	0
14.01.2021	19:33:04	0	0	3,276338	3,54075	83,3544	0,809	78,102	3,5	1005,5	7,3	9,4	9,2	1	1	1	1	1	1	1	1	1	0	1	-38,900634	274,867145	284,748452	0
14.01.2021	19:33:05	0	0	4,74507	3,363	75,2364	0,81	78,089	3,5	1005,52	7,4	9,4	9,1	1	1	1	1	1	1	1	1	1	0	1	-34,883721	274,854727	288,706879	0
14.01.2021	19:33:06	0	0	4,858019	3,327	95,1624	0,817	78,079	3,5	1005,48	7,4	9,4	9,2	1	1	1	1	1	1	1	1	1	0	1	-39,7463	274,714025	283,182209	0
14.01.2021	19:33:07	0	0	2,711452	3,45	75,7116	0,806	78,063	3,5	1005,34	7,4	9,4	9,2	1	1	1	1	1	1	1	1	1	0	1	-42,494715	274,714025	280,433795	0
14.01.2021	19:33:08	0	0	4,858048	3,735	81,5688	0,815	78,06	3,5	1005,42	7,4	9,4	9,1	1	1	1	1	1	1	1	1	1	0	1	-37,491191	274,792754	285,807662	0
14.01.2021	19:33:09	0	0	2,485498	3,8985	86,6556	0,812	78,044	3,5	1005,44	7,4	9,3	9,2	1	1	1	1	1	1	1	1	1	0	1	-39,816772	274,700165	283,046572	0
14.01.2021	19:33:10	0	0	2,937424	3,81675	80,1432	0,812	78,033	3,5	1005,36	7,4	9,4	9,1	1	1	1	1	1	1	1	1	1	0	1	-39,393939	274,726354	283,592542	0
14.01.2021	19:33:11	0	0	3,841224	3,70875	85,1796	0,814	78,025	3,5	1005,68	7,4	9,4	9,2	1	1	1	1	1	1	1	1	1	0	1	-42,001409	274,729437	280,999573	0
14.01.2021	19:33:12	0	0	2,824429	3,8565	100,3752	0,815	78,005	3,5	1005,5	7,4	9,3	9,2	1	1	1	1	1	1	1	1	1	0	1	-42,917548	274,882679	280,804709	0
14.01.2021	19:33:13	0	0	2,711468	4,152	94,4136	0,812	77,988	3,5	1005,4	7,6	9,4	9,1	1	1	1	1	1	1	1	1	1	0	1	-41,014799	274,823715	282,429786	0
14.01.2021	19:33:14	0	0	5,083973	4,32675	101,2104	0,81	77,987	3,5	1005,52	7,4	9,4	9,2	1	1	1	1	1	1	1	1	1	0	1	-35,658915	274,715566	287,276839	0
14.01.2021	19:33:15	0	0	3,050384	4,3635	94,0896	0,809	77,961	3,5	1005,44	7,4	9,4	9,2	1	1	1	1	1	1	1	1	1	0	1	-37,843552	274,687853	284,961915	0
14.01.2021	19:33:16	0	0	3,276338	4,5075	82,35	0,817	77,972	3,5	1005,42	7,4	9,4	9,2	1	1	1	1	1	1	1	1	1	0	1	-34,390416	274,761842	288,762987	0
14.01.2021	19:33:17	0	0	4,40611	4,419	101,5128	0,815	77,949	3,5	1005,32	7,4	9,4	9,2	1	1	1	1	1	1	1	1	1	0	1	-37,984496	274,710944	284,929527	0
14.01.2021	19:33:18	0	0	4,632064	4,37925	94,3992	0,814	77,943	3,5	1005,46	7,4	9,4	9,2	1	1	1	1	1	1	1	1	1	0	1	-41,014799	274,737147	282,022445	0
14.01.2021	19:33:19	0	0	4,406136	4,7925	95,5296	0,817	77,928	3,5	1005,5	7,4	9,4	9,1	1	1	1	1	1	1	1	1	1	0	1	-39,605356	274,701705	283,265226	0
14.01.2021	19:33:20	0	0	2,033601	5,01525	93,7152	0,816	77,92	3,5	1005,38	7,4	9,4	9,1	1	1	1	1	1	1	1	1	1	0	1	-37,702607	274,727895	285,291124	0
14.01.2021	19:33:21	0	0	3,841224	4,90575	97,038	0,816	77,918	3,5	1005,42	7,4	9,4	9,2	1	1	1	1	1	1	1	1	1	0	1	-33,756166	274,694008	289,078233	0
14.01.2021	19:33:22	0	0	3,841224	4,59525	96,9876	0,811	77,91	3,5	1005,48	7,4	9,4	9,2	1	1	1	1	1	1	1	1	1	0	1	-39,605356	274,892006	284,160838	0
14.01.2021	19:33:23	0	0	4,858048	4,476	99,162	0,815	77,922	3,5	1005,44	7,4	9,3	9,1	1	1	1	1	1	1	1	1	1	0	1	-34,813249	274,808228	288,558435	0
14.01.2021	19:33:24	0	0	3,615291	4,57875	104,436	0,81	77,912	3,5	1005,5	7,4	9,4	9,1	1	1	1	1	1	1	1	1	1	0	1	-33,756166	274,701705	289,114415	0
14.01.2021	19:33:25	0	0	3,841224	4,57875	110,6568	0,816	77,927	3,5	1005,5	7,4	9,4	9,2	1	1	1	1	1	1	1	1	1	0	1	-37,843552	274,811325	285,542706	0
14.01.2021	19:33:26	0	0	2,937407	4,59	107,0244	0,813	77,92	3,5	1005,54	7,4	9,4	9,2	1	1	1	1	1	1	1	1	1	0	1	-40,873855	274,761842	282,279548	0
14.01.2021	19:33:27	0	0	4,180155	4,64925	105,1272	0,816	77,928	3,5	1005,5	7,4	9,4	9,2	1	1	1	1	1	1	1	1	1	0	1	-35,658915	274,701705	287,211667	0
14.01.2021	19:33:28	0	0	3,389336	4,70175	104,0508	0,834	77,909	3,5	1005,64	7,4	9,4	9,1	1	1	1	1	1	1	1	1	1	0	1	-40,451022	274,831463	283,03004	0
14.01.2021	19:33:29	0	0	2,598491	4,54875	104,8284	0,809	77,911	3,5	1005,42	7,4	9,4	9,1	1	1	1	1	1	1	1	1	1	0	1	-37,068358	274,707864	285,831182	0
14.01.2021	19:33:30	0	0	3,615291	4,1115	101,1168	0,818	77,917	3,5	1005,54	7,4	9,4	9,1	1	1	1	1	1	1	1	1	1	0	1	-40,944327	274,714025	281,984182	0
14.01.2021	19:33:31	0	0	4,632064	3,8235	105,1308	0,813	77,919	3,5	1005,46	7,4	9,4	9,2	1	1	1	1	1	1	1	1	1	0	1	-37,491191	274,811325	285,895067	0
14.01.2021	19:33:32	0	0	2,711452	4,05	99,9144	0,816	77,94	3,5	1005,4	7,4	9,4	9,2	1	1	1	1	1	1	1	1	1	0	1	-39,534884	274,700165	283,32846	0
14.01.2021	19:33:33	0	0	4,74507	4,2495	107,7624	0,812	77,939	3,5	1005,32	7,4	9,3	9,1	1	1	1	1	1	1	1	1	1	0	1	-40,169133	274,845418	283,377633	0
14.01.2021	19:33:34	0	0	4,40611	4,38825	88,5888	0,819	77,943	3,5	1005,46	7,4	9,4	9,2	1	1	1	1	1	1	1	1	1	0	1	-41,649049	274,714025	281,279461	0
14.01.2021	19:33:35	0	0	2,824429	4,55175	91,8936	0,817	77,943	3,5	1005,42	7,4	9,4	9,2	1	1	1	1	1	1	1	1	1	0	1	-36,997886	274,717106	285,945112	0
14.01.2021	19:33:36	0	0	4,406136	5,14275	83,52	0,817	77,951	3,5	1005,48	7,4	9,4	9,1	1	1	1	1	1	1	1	1	1	0	1	-42,565187	274,741775	280,493824	0
14.01.2021	19:33:37	0	0	3,050384	5,55225	75,2148	0,818	77,923	3,5	1005,26	7,4	9,4	9,2	1	1	1	1	1	1	1	1	1	0	1	-34,319944	274,881125	289,394993	0
14.01.2021	19:33:38	0	0	3,841224	5,42325	84,7872	0,815	77,935	3,5	1005,6	7,4	9,4	9,2	1	1	1	1	1	1	1	1	1	0	1	-35,658915	274,803585	287,690912	0
14.01.2021	19:33:39	0	0	3,728269	5,31225	86,292	0,817	77,94	3,5	1005,5	7,4	9,4	9,1	1	1	1	1	1	1	1	1	1	0	1	-41,296688	274,701705	281,573894	0
14.01.2021	19:33:40	0	0	2,485513	5,0235	81,2124	0,816	77,945	3,5	1005,54	7,4	9,4	9,1	1	1	1	1	1	1	1	1	1	0	1	-40,591966	274,741775	282,467044	0
14.01.2021	19:33:41	0	0	2,824429	4,725	85,9356	0,819	77,94	3,5	1005,62	7,4	9,4	9,2	1	1	1	1	1	1	1	1	1	0	1	-36,856942	274,704784	286,028118	0
14.01.2021	19:33:42	0	0	4,971026	4,46025	77,2344	0,825	77,93	3,5	1005,4	7,4	9,4	9,1	1	1	1	1	1	1	1	1	1	0	1	-40,028189	274,829914	283,445577	0
14.01.2021	19:33:43	0	0	3,050384	4,3485	84,1212	0,817	77,937	3,5	1005,4	7,4	9,4	9,2	1	1	1	1	1	1	1	1	1	0	1	-35,447498	274,831463	288,033564	0
14.01.2021	19:33:44	0	0	3,728269	4,15575	92,2608	0,814	77,92	3,5	1005,42	7,4	9,3	9,1	1	1	1	1	1	1	1	1	1	0	1	-37,209302	274,712485	285,711964	0
14.01.2021	19:33:45	0	0	4,632064	4,104	104,7456	0,82	77,912	3,5	1005,34	7,4	9,4	9,2	1	1	1	1	1	1	1	1	1	0	1	-41,860465	274,846969	281,693605	0
14.01.2021	19:33:46	0	0	3,163361	3,942	85,194	0,82	77,901	3,5	1005,44	7,4	9,4	9,2	1	1	1	1	1	1	1	1	1	0	1	-41,014799	274,879571	282,692818	0
14.01.2021	19:33:47	0	0	2,824446	4,095	90,4176	0,824	77,894	3,5	1005,58	7,6	9,4	9,1	1	1	1	1	1	1	1	1	1	0	1	-40,098661	274,873357	283,579685	0
14.01.2021	19:33:48	0	0	4,970996	4,464	92,6244	0,823	77,887	3,5	1005,38	7,4	9,4	9,2	1	1	1	1	1	1	1	1	1	0	1	-41,649049	274,766475	281,526153	0
14.01.2021	19:33:49	0	0	4,519114	4,6965	98,0532	0,824	77,872	3,5	1005,46	7,4	9,4	9,1	1	1	1	1	1	1	1	1	1	0	1	-37,491191	274,870251	286,172523	0
14.01.2021	19:33:50	0	0	2,824429	4,86075	97,8012	0,821	77,881	3,5	1005,4	7,4	9,3	9,2	1	1	1	1	1	1	1	1	1	0	1	-40,169133	274,879571	283,538484	0
14.01.2021	19:33:51	0	0	4,406136	4,995	99,1296	0,825	77,855	3,5	1005,6	7,4	9,4	9,1	1	1	1	1	1	1	1	1	1	0	1	-35,024665	274,780383	288,215974	0
14.01.2021	19:33:52	0	0	2,711468	5,046	95,832	0,816	77,845	3,5	1005,46	7,4	9,4	9,1	1	1	1	1	1	1	1	1	1	0	1	-38,900634	274,701705	283,969947	0
14.01.2021	19:33:53	0	0	3,276358	5,0235	101,1096	0,824	77,848	3,5	1005,56	7,4	9,3	9,1	1	1	1	1	1	1	1	1	1	0	1	-36,081748	274,798942	287,246229	0
14.01.2021	19:33:54	0	0	3,954201	4,94625	87,3648	0,82	77,84	3,5	1005,38	7,4	9,3	9,2	1	1	1	1	1	1	1	1	1	0	1	-35,799859	274,720188	287,157631	0
14.01.2021	19:33:55	0	0	4,970996	4,632	92,2788	0,819	77,845	3,5	1005,56	7,4	9,3	9,2	1	1	1	1	1	1	1	1	1	0	1	-38,477801	274,856278	285,120107	0
14.01.2021	19:33:56	0	0	2,937407	4,42725	87,7212	0,82	77,85	3,5	1005,46	7,4	9,4	9,2	1	1	1	1	1	1	1	1	1	0	1	-42,142354	274,721729	280,822383	0
14.01.2021	19:33:57	0	0	3,163361	4,43025	84,438	0,824	77,839	3,5	1005,36	7,4	9,4	9,2	1	1	1	1	1	1	1	1	1	0	1	-43,269908	274,876464	280,423072	0
14.01.2021	19:33:58	0	0	4,293133	4,575	90,0072	0,823	77,847	3,5	1005,32	7,4	9,4	9,2	1	1	1	1	1	1	1	1	1	0	1	-39,464412	274,74949	283,630889	0
14.01.2021	19:33:59	0	0	2,485498	4,5015	85,914	0,83	77,86	3,5	1005,3	7,4	9,4	9,2	1	1	1	1	1	1	1	1	1	0	1	-41,649049	274,881125	282,065888	0
14.01.2021	19:34:00	0	0	2,033601	4,43775	93,7044	0,832	77,861	3,5	1005,58	7,4	9,3	9,1	1	1	1	1	1	1	1	1	1	0	1	-38,548273	274,843867	284,991189	0
14.01.2021	19:34:01	0	0	4,180181	4,554	88,1352	0,829	77,852	3,5	1005,64	7,4	9,4	9,1	1	1	1	1	1	1	1	1	1	0	1	-35,377026	274,718647	287,573218	0
14.01.2021	19:34:02	0	0	4,180181	4,554	88,1352	0,829	77,852	3,5	1005,64	7,4	9,4	9,1	1	1	1	1	1	1	1	1	1	0	1	-35,377026	274,718647	287,573218	0
14.01.2021	19:34:03	0	0	4,180181	4,78275	89,6832	0,822	77,834	3,5	1005,4	7,4	9,3	9,1	1	1	1	1	1	1	1	1	1	0	1	-39,323467	274,879571	284,38415	0
14.01.2021	19:34:04	0	0	3,502292	4,9575	83,7576	0,831	77,815	3,5	1005,5	7,4	9,4	9,2	1	1	1	1	1	1	1	1	1	0	1	-38,12544	274,888896	285,626105	0
14.01.2021	19:34:05	0	0	4,632092	4,8675	88,578	0,828	77,793	3,5	1005,22	7,4	9,3	9,1	1	1	1	1	1	1	1	1	1	0	1	-40,873855	274,898226	282,921644	0
14.01.2021	19:34:06	0	0	3,050384	4,54125	101,484	0,82	77,779	3,5	1005,44	7,4	9,4	9,2	1	1	1	1	1	1	1	1	1	0	1	-38,054968	274,77111	285,14204	0
14.01.2021	19:34:07	0	0	3,050402	4,50225	98,7696	0,83	77,773	3,5	1005,44	7,4	9,3	9,1	1	1	1	1	1	1	1	1	1	0	1	-39,252995	274,86404	284,381465	0
14.01.2021	19:34:08	0	0	4,293158	4,65675	94,356	0,832	77,768	3,5	1005,54	7,4	9,4	9,1	1	1	1	1	1	1	1	1	1	0	1	-39,534884	274,902892	284,282602	0
14.01.2021	19:34:09	0	0	4,293133	5,133	82,584	0,827	77,744	3,5	1005,44	7,4	9,4	9,2	1	1	1	1	1	1	1	1	1	0	1	-39,534884	274,7742	283,676665	0
14.01.2021	19:34:10	0	0	4,519114	5,4735	104,4396	0,83	77,724	3,5	1005,48	7,4	9,4	9,1	1	1	1	1	1	1	1	1	1	0	1	-42,565187	274,752578	280,544635	0
14.01.2021	19:34:11	0	0	2,937407	5,6685	105,498	0,834	77,72	3,5	1005,52	7,4	9,4	9,2	1	1	1	1	1	1	1	1	1	0	1	-37,984496	274,910672	285,869648	0
14.01.2021	19:34:12	0	0	4,40611	5,63175	90,7776	0,834	77,697	3,5	1005,54	7,4	9,3	9,2	1	1	1	1	1	1	1	1	1	0	1	-38,12544	274,865592	285,516332	0
14.01.2021	19:34:13	0	0	2,824446	5,5785	99,9072	0,836	77,694	3,5	1005,48	7,4	9,3	9,1	1	1	1	1	1	1	1	1	1	0	1	-39,393939	274,868698	284,26246	0
14.01.2021	19:34:14	0	0	3,615291	5,35725	99,1332	0,831	77,689	3,5	1005,58	7,4	9,4	9,1	1	1	1	1	1	1	1	1	1	0	1	-37,279774	274,757209	285,851835	0
14.01.2021	19:34:15	0	0	3,615291	5,379	108,9072	0,831	77,679	3,5	1005,66	7,4	9,3	9,1	1	1	1	1	1	1	1	1	1	0	1	-41,296688	274,840765	282,228171	0
14.01.2021	19:34:16	0	0	2,711468	5,6415	97,7724	0,831	77,666	3,5	1005,6	7,4	9,3	9,1	1	1	1	1	1	1	1	1	1	0	1	-39,112051	274,895116	284,668794	0
14.01.2021	19:34:17	0	0	4,74507	5,643	103,716	0,839	77,658	3,5	1005,58	7,4	9,4	9,1	1	1	1	1	1	1	1	1	1	0	1	-41,719521	274,809776	281,65945	0
14.01.2021	19:34:18	0	0	4,180181	5,66175	102,5676	0,832	77,654	3,5	1005,5	7,6	9,4	9,1	1	1	1	1	1	1	1	1	1	0	1	-40,169133	274,898226	283,626366	0
14.01.2021	19:34:19	0	0	2,824429	5,62125	100,3644	0,838	77,645	3,5	1005,48	7,4	9,4	9,2	1	1	1	1	1	1	1	1	1	0	1	-39,605356	274,808228	283,766328	0
14.01.2021	19:34:20	0	0	4,293158	5,24025	92,2608	0,833	77,631	3,5	1005,54	7,4	9,4	9,1	1	1	1	1	1	1	1	1	1	0	1	-37,209302	274,735605	285,820688	0
14.01.2021	19:34:21	0	0	4,632092	4,728	82,9728	0,834	77,609	3,5	1005,24	7,4	9,4	9,1	1	1	1	1	1	1	1	1	1	0	1	-39,675828	274,867145	283,973258	0
14.01.2021	19:34:22	0	0	4,180155	4,965	85,8996	0,84	77,61	3,5	1005,58	7,6	9,4	9,2	1	1	1	1	1	1	1	1	1	0	1	-40,38055	274,721729	282,584187	0
14.01.2021	19:34:23	0	0	2,711452	5,331	99,144	0,838	77,596	3,5	1005,5	7,4	9,4	9,2	1	1	1	1	1	1	1	1	1	0	1	-36,363636	274,916899	287,519847	0
14.01.2021	19:34:24	0	0	4,858019	5,21775	101,4768	0,836	77,582	3,5	1005,5	7,3	9,4	9,2	1	1	1	1	1	1	1	1	1	0	1	-42,35377	274,825265	281,098109	0
14.01.2021	19:34:25	0	0	3,728269	5,21925	100,7352	0,835	77,56	3,5	1005,6	7,4	9,4	9,1	1	1	1	1	1	1	1	1	1	0	1	-44,397463	274,895116	279,383382	0
14.01.2021	19:34:26	0	0	2,485513	4,956	102,2076	0,839	77,57	3,5	1005,38	7,3	9,4	9,1	1	1	1	1	1	1	1	1	1	0	1	-37,984496	274,833013	285,503864	0
14.01.2021	19:34:27	0	0	4,067203	4,7115	100,0008	0,835	77,555	3,5	1005,52	7,4	9,4	9,1	1	1	1	1	1	1	1	1	1	0	1	-37,914024	274,712485	285,007242	0
14.01.2021	19:34:28	0	0	4,632092	4,632	92,9592	0,834	77,583	3,5	1005,62	7,4	9,4	9,1	1	1	1	1	1	1	1	1	1	0	1	-42,776603	274,874911	280,909059	0
14.01.2021	19:34:29	0	0	3,728269	4,55025	86,31	0,84	77,568	3,5	1005,58	7,3	9,4	9,1	1	1	1	1	1	1	1	1	1	0	1	-37,279774	274,729437	285,721207	0
14.01.2021	19:34:30	0	0	3,728247	4,4085	79,3944	0,842	77,575	3,5	1005,56	7,4	9,3	9,2	1	1	1	1	1	1	1	1	1	0	1	-41,155743	274,893561	282,617775	0
14.01.2021	19:34:31	0	0	3,615291	4,20675	97,0596	0,842	77,558	3,5	1005,46	7,6	9,4	9,1	1	1	1	1	1	1	1	1	1	0	1	-42,98802	274,7742	280,223529	0
14.01.2021	19:34:32	0	0	2,598475	4,05075	87,732	0,846	77,556	3,5	1005,6	7,3	9,4	9,2	1	1	1	1	1	1	1	1	1	0	1	-37,350247	274,915342	286,525901	0
14.01.2021	19:34:33	0	0	2,711468	3,981	91,8936	0,842	77,554	3,5	1005,4	7,4	9,5	9,1	1	1	1	1	1	1	1	1	1	0	1	-35,588443	274,794301	287,71769	0
14.01.2021	19:34:34	0	0	4,293158	3,8655	82,3356	0,835	77,538	3,5	1005,66	7,4	9,3	9,1	1	1	1	1	1	1	1	1	1	0	1	-40,169133	274,893561	283,604386	0
14.01.2021	19:34:35	0	0	4,293158	3,6345	78,3396	0,838	77,534	3,5	1005,42	7,4	9,4	9,1	1	1	1	1	1	1	1	1	1	0	1	-35,658915	274,823715	287,78567	0
14.01.2021	19:34:36	0	0	4,067178	3,69225	73,7748	0,844	77,538	3,5	1005,58	7,4	9,4	9,2	1	1	1	1	1	1	1	1	1	0	1	-36,222692	274,910672	287,631452	0
14.01.2021	19:34:37	0	0	4,519114	3,711	67,6836	0,846	77,528	3,5	1005,4	7,4	9,4	9,1	1	1	1	1	1	1	1	1	1	0	1	-37,561663	274,843867	285,9778	0
14.01.2021	19:34:38	0	0	3,954225	3,65325	57,0312	0,841	77,524	3,5	1005,44	7,3	9,4	9,1	1	1	1	1	1	1	1	1	1	0	1	-35,16561	274,732521	287,849875	0
14.01.2021	19:34:39	0	0	3,050384	3,60225	59,472	0,838	77,509	3,5	1005,32	7,4	9,3	9,2	1	1	1	1	1	1	1	1	1	0	1	-36,997886	274,808228	286,373798	0
14.01.2021	19:34:40	0	0	4,971026	3,28425	45,8568	0,845	77,506	3,5	1005,44	7,6	9,4	9,1	1	1	1	1	1	1	1	1	1	0	1	-41,578576	274,746404	281,502206	0
14.01.2021	19:34:41	0	0	4,632092	3,06975	79,038	0,846	77,486	3,5	1005,56	7,4	9,3	9,1	1	1	1	1	1	1	1	1	1	0	1	-40,38055	274,865592	283,261223	0
14.01.2021	19:34:42	0	0	3,728269	2,856	80,5032	0,841	77,471	3,5	1005,48	7,4	9,4	9,1	1	1	1	1	1	1	1	1	1	0	1	-39,957717	274,842316	283,574444	0
14.01.2021	19:34:43	0	0	2,937424	2,745	86,2668	0,85	77,464	3,5	1005,6	7,6	9,4	9,1	1	1	1	1	1	1	1	1	1	0	1	-39,957717	274,735605	283,072274	0
14.01.2021	19:34:44	0	0	4,632092	2,8575	81,1944	0,847	77,453	3,5	1005,46	7,4	9,4	9,1	1	1	1	1	1	1	1	1	1	0	1	-37,77308	274,850072	285,7956	0
14.01.2021	19:34:45	0	0	4,632092	2,99325	89,8236	0,85	77,438	3,5	1005,54	7,4	9,3	9,1	1	1	1	1	1	1	1	1	1	0	1	-42,98802	274,888896	280,763525	0
14.01.2021	19:34:46	0	0	4,406136	3,00075	99,5292	0,842	77,425	3,5	1005,46	7,3	9,4	9,1	1	1	1	1	1	1	1	1	1	0	1	-42,494715	274,910672	281,359429	0
14.01.2021	19:34:47	0	0	2,598491	2,8275	100,764	0,848	77,42	3,5	1005,48	7,6	9,3	9,1	1	1	1	1	1	1	1	1	1	0	1	-43,199436	274,778837	280,033929	0
14.01.2021	19:34:48	0	0	4,858048	2,71275	92,9736	0,851	77,41	3,5	1005,54	7,6	9,4	9,1	1	1	1	1	1	1	1	1	1	0	1	-36,504581	274,744861	286,568944	0
14.01.2021	19:34:49	0	0	4,632064	2,78775	104,0472	0,849	77,399	3,5	1005,48	7,3	9,3	9,2	1	1	1	1	1	1	1	1	1	0	1	-40,239605	274,80668	283,124792	0
14.01.2021	19:34:50	0	0	2,824446	3,2115	102,9492	0,845	77,382	3,5	1005,64	7,4	9,4	9,1	1	1	1	1	1	1	1	1	1	0	1	-40,310078	274,895116	283,470767	0
14.01.2021	19:34:51	0	0	3,954225	3,37125	94,7736	0,853	77,376	3,5	1005,44	7,4	9,4	9,1	1	1	1	1	1	1	1	1	1	0	1	-39,182523	274,904448	284,642293	0
14.01.2021	19:34:52	0	0	3,954225	3,405	73,4472	0,847	77,363	3,5	1005,66	7,4	9,3	9,1	1	1	1	1	1	1	1	1	1	0	1	-38,830162	274,837664	284,680095	0
14.01.2021	19:34:53	0	0	4,519114	3,38625	73,4292	0,848	77,358	3,5	1005,58	7,4	9,4	9,1	1	1	1	1	1	1	1	1	1	0	1	-40,028189	274,906004	283,803958	0
14.01.2021	19:34:54	0	0	3,389315	3,498	71,2152	0,843	77,334	3,5	1005,46	7,4	9,4	9,2	1	1	1	1	1	1	1	1	1	0	1	-41,719521	274,854727	281,87108	0
14.01.2021	19:34:55	0	0	3,050384	3,393	73,4436	0,854	77,323	3,5	1005,62	7,3	9,4	9,2	1	1	1	1	1	1	1	1	1	0	1	-39,605356	274,752578	283,504466	0
14.01.2021	19:34:56	0	0	2,711468	3,16875	71,2332	0,85	77,301	3,5	1005,46	7,4	9,4	9,1	1	1	1	1	1	1	1	1	1	0	1	-37,420719	274,902892	286,396767	0
14.01.2021	19:34:57	0	0	3,502292	3,36	73,062	0,854	77,288	3,5	1005,6	7,6	9,4	9,2	1	1	1	1	1	1	1	1	1	0	1	-38,900634	274,77111	284,296374	0
14.01.2021	19:34:58	0	0	3,728269	4,36725	82,6164	0,856	77,272	3,5	1005,54	7,4	9,3	9,1	1	1	1	1	1	1	1	1	1	0	1	-38,054968	274,761842	285,098434	0
14.01.2021	19:34:59	0	0	4,519114	5,33025	76,3812	0,853	77,271	3,5	1005,48	7,4	9,3	9,1	1	1	1	1	1	1	1	1	1	0	1	-37,702607	274,912229	286,15887	0
14.01.2021	19:35:00	0	0	2,485513	5,71725	100,746	0,853	77,222	3,5	1005,44	7,3	9,3	9,1	1	1	1	1	1	1	1	1	1	0	1	-40,591966	274,906004	283,240181	0
14.01.2021	19:35:01	0	0	2,485513	5,71725	100,746	0,853	77,222	3,5	1005,44	7,3	9,3	9,1	1	1	1	1	1	1	1	1	1	0	1	-40,591966	274,906004	283,240181	0
14.01.2021	19:35:02	0	0	4,632064	5,3385	107,0316	0,856	77,227	3,5	1005,56	7,3	9,4	9,2	1	1	1	1	1	1	1	1	1	0	1	-35,729387	274,843867	287,810076	0
14.01.2021	19:35:03	0	0	4,632092	4,96275	69,4692	0,854	77,211	3,5	1005,5	7,6	9,4	9,1	1	1	1	1	1	1	1	1	1	0	1	-40,803383	274,882679	282,918874	0
14.01.2021	19:35:04	0	0	2,485513	5,4375	69,8436	0,854	77,217	3,5	1005,58	7,4	9,4	9,1	1	1	1	1	1	1	1	1	1	0	1	-38,336857	274,854727	285,253743	0
14.01.2021	19:35:05	0	0	3,615291	5,604	93,744	0,856	77,209	3,5	1005,44	7,4	9,4	9,1	1	1	1	1	1	1	1	1	1	0	1	-37,914024	274,714025	285,014485	0
14.01.2021	19:35:06	0	0	3,502313	4,9815	104,0328	0,854	77,207	3,5	1005,58	7,4	9,4	9,1	1	1	1	1	1	1	1	1	1	0	1	-40,451022	274,772655	282,753256	0
14.01.2021	19:35:07	0	0	4,406136	4,88775	99,162	0,855	77,192	3,5	1005,6	7,4	9,4	9,1	1	1	1	1	1	1	1	1	1	0	1	-40,310078	274,718647	282,640166	0
14.01.2021	19:35:08	0	0	2,937407	4,93725	91,8936	0,856	77,179	3,5	1005,56	7,6	9,3	9,2	1	1	1	1	1	1	1	1	1	0	1	-39,887245	274,811325	283,499014	0
14.01.2021	19:35:09	0	0	3,954201	4,8555	91,1628	0,855	77,158	3,5	1005,52	7,4	9,3	9,2	1	1	1	1	1	1	1	1	1	0	1	-39,182523	274,895116	284,598322	0
14.01.2021	19:35:10	0	0	4,519114	4,68075	90,0324	0,854	77,161	3,5	1005,48	7,4	9,3	9,1	1	1	1	1	1	1	1	1	1	0	1	-42,494715	274,871804	281,176315	0
14.01.2021	19:35:11	0	0	2,598491	4,47	82,3176	0,856	77,169	3,5	1005,58	7,4	9,3	9,1	1	1	1	1	1	1	1	1	1	0	1	-37,984496	274,892006	285,781697	0
14.01.2021	19:35:12	0	0	2,485513	3,9435	76,356	0,857	77,165	3,5	1005,54	7,4	9,3	9,1	1	1	1	1	1	1	1	1	1	0	1	-42,071882	274,822166	281,36541	0
14.01.2021	19:35:13	0	0	4,74507	3,9855	82,5804	0,857	77,159	3,5	1005,56	7,4	9,3	9,1	1	1	1	1	1	1	1	1	1	0	1	-38,971106	274,74949	284,124195	0
14.01.2021	19:35:14	0	0	3,050384	4,48425	86,9832	0,853	77,169	3,5	1005,54	7,4	9,3	9,2	1	1	1	1	1	1	1	1	1	0	1	-37,350247	274,837664	286,16001	0
14.01.2021	19:35:15	0	0	2,485513	4,75125	108,1152	0,858	77,15	3,5	1005,58	7,4	9,4	9,1	1	1	1	1	1	1	1	1	1	0	1	-44,679352	274,904448	279,145464	0
14.01.2021	19:35:16	0	0	4,519114	4,5045	120,9096	0,854	77,142	3,5	1005,52	7,4	9,4	9,1	1	1	1	1	1	1	1	1	1	0	1	-41,296688	274,868698	282,359712	0
14.01.2021	19:35:17	0	0	2,598491	4,632	97,3224	0,857	77,152	3,5	1005,62	7,4	9,4	9,1	1	1	1	1	1	1	1	1	1	0	1	-41,014799	274,734063	282,007938	0
14.01.2021	19:35:18	0	0	2,711452	4,55175	101,8008	0,854	77,144	3,5	1005,48	7,4	9,4	9,2	1	1	1	1	1	1	1	1	1	0	1	-37,77308	274,853175	285,810213	0
14.01.2021	19:35:19	0	0	2,937424	4,473	108,5148	0,861	77,197	3,5	1005,58	7,4	9,3	9,1	1	1	1	1	1	1	1	1	1	0	1	-37,843552	274,721729	285,121185	0
14.01.2021	19:35:20	0	0	2,937407	4,35225	98,4492	0,849	77,138	3,5	1005,44	7,4	9,4	9,2	1	1	1	1	1	1	1	1	1	0	1	-42,001409	274,850072	281,567271	0
14.01.2021	19:35:21	0	0	4,406136	4,72725	96,1956	0,851	77,138	3,5	1005,44	7,4	9,4	9,1	1	1	1	1	1	1	1	1	1	0	1	-38,266385	274,865592	285,375388	0
14.01.2021	19:35:22	0	0	2,485498	5,17275	92,268	0,852	77,138	3,5	1005,58	7,4	9,4	9,2	1	1	1	1	1	1	1	1	1	0	1	-40,38055	274,714025	282,54796	0
14.01.2021	19:35:23	0	0	2,259557	5,061	101,8728	0,849	77,113	3,5	1005,52	7,4	9,4	9,1	1	1	1	1	1	1	1	1	1	0	1	-40,451022	274,882679	283,271235	0
14.01.2021	19:35:24	0	0	3,841247	5,1315	95,8428	0,855	77,118	3,5	1005,56	7,4	9,3	9,1	1	1	1	1	1	1	1	1	1	0	1	-39,393939	274,904448	284,430876	0
14.01.2021	19:35:25	0	0	2,937424	5,1225	96,9912	0,855	77,117	3,5	1005,54	7,4	9,3	9,1	1	1	1	1	1	1	1	1	1	0	1	-41,578576	274,854727	282,012024	0
14.01.2021	19:35:26	0	0	4,406136	5,13375	96,5736	0,855	77,124	3,5	1005,42	7,4	9,3	9,1	1	1	1	1	1	1	1	1	1	0	1	-38,618746	274,853175	284,964547	0
14.01.2021	19:35:27	0	0	2,598491	5,1135	99,1548	0,856	77,128	3,5	1005,6	7,4	9,3	9,1	1	1	1	1	1	1	1	1	1	0	1	-40,944327	274,715566	281,991427	0
14.01.2021	19:35:28	0	0	3,61527	5,03175	95,1444	0,867	77,138	3,5	1005,62	7,4	9,4	9,2	1	1	1	1	1	1	1	1	1	0	1	-42,142354	274,873357	281,535992	0
14.01.2021	19:35:29	0	0	4,632064	5,16	99,504	0,857	77,131	3,5	1005,6	7,4	9,4	9,2	1	1	1	1	1	1	1	1	1	0	1	-34,038055	274,851623	289,537931	0
14.01.2021	19:35:30	0	0	4,293158	4,9245	83,3472	0,854	77,133	3,5	1005,5	7,4	9,4	9,1	1	1	1	1	1	1	1	1	1	0	1	-36,363636	274,90756	287,475842	0
14.01.2021	19:35:31	0	0	2,824446	4,70325	93,348	0,856	77,132	3,5	1005,56	7,4	9,4	9,1	1	1	1	1	1	1	1	1	1	0	1	-38,900634	274,764931	284,2673	0
14.01.2021	19:35:32	0	0	3,050402	4,41525	77,22	0,852	77,122	3,5	1005,54	7,4	9,3	9,1	1	1	1	1	1	1	1	1	1	0	1	-39,182523	274,769565	284,007216	0
14.01.2021	19:35:33	0	0	2,824446	4,2645	82,5984	0,858	77,146	3,5	1005,54	7,4	9,3	9,1	1	1	1	1	1	1	1	1	1	0	1	-44,256519	274,909116	279,590292	0
14.01.2021	19:35:34	0	0	2,937407	4,392	91,1736	0,857	77,141	3,5	1005,54	7,4	9,4	9,2	1	1	1	1	1	1	1	1	1	0	1	-37,914024	274,839215	285,603533	0
14.01.2021	19:35:35	0	0	4,519087	4,46025	92,2572	0,851	77,17	3,5	1005,64	7,4	9,3	9,2	1	1	1	1	1	1	1	1	1	0	1	-38,12544	274,715566	284,810313	0
14.01.2021	19:35:36	0	0	2,711452	4,437	89,7228	0,857	77,159	3,5	1005,6	7,4	9,4	9,2	1	1	1	1	1	1	1	1	1	0	1	-37,632135	274,80668	285,732262	0
14.01.2021	19:35:37	0	0	2,598491	4,39275	92,2464	0,85	77,165	3,5	1005,54	7,4	9,3	9,1	1	1	1	1	1	1	1	1	1	0	1	-40,873855	274,893561	282,899664	0
14.01.2021	19:35:38	0	0	2,824446	4,27575	81,954	0,851	77,167	3,5	1005,5	7,4	9,4	9,1	1	1	1	1	1	1	1	1	1	0	1	-40,098661	274,763386	283,062007	0
14.01.2021	19:35:39	0	0	3,61527	4,40475	91,5192	0,852	77,191	3,5	1005,6	7,4	9,3	9,2	1	1	1	1	1	1	1	1	1	0	1	-37,209302	274,730979	285,798931	0
14.01.2021	19:35:40	0	0	3,16338	4,6305	94,068	0,855	77,195	3,5	1005,5	7,4	9,4	9,1	1	1	1	1	1	1	1	1	1	0	1	-35,16561	274,763386	287,995059	0
14.01.2021	19:35:41	0	0	4,519114	4,32	98,1108	0,851	77,188	3,5	1005,5	7,4	9,4	9,1	1	1	1	1	1	1	1	1	1	0	1	-39,252995	274,887342	284,491227	0
14.01.2021	19:35:42	0	0	3,954225	4,0305	97,308	0,854	77,193	3,5	1005,54	7,4	9,3	9,1	1	1	1	1	1	1	1	1	1	0	1	-41,437632	274,846969	282,116438	0
14.01.2021	19:35:43	0	0	3,050402	3,62175	87,3288	0,854	77,188	3,5	1005,64	7,4	9,4	9,1	1	1	1	1	1	1	1	1	1	0	1	-41,860465	274,906004	281,971682	0
14.01.2021	19:35:44	0	0	4,40611	3,57975	75,5964	0,856	77,186	3,5	1005,54	7,4	9,3	9,2	1	1	1	1	1	1	1	1	1	0	1	-35,51797	274,86404	288,11649	0
14.01.2021	19:35:45	0	0	2,824446	3,627	84,4236	0,857	77,176	3,5	1005,56	7,4	9,3	9,1	1	1	1	1	1	1	1	1	1	0	1	-39,464412	274,757209	283,667198	0
14.01.2021	19:35:46	0	0	3,502292	3,74025	84,42	0,858	77,18	3,5	1005,38	7,4	9,4	9,2	1	1	1	1	1	1	1	1	1	0	1	-38,12544	274,757209	285,006169	0
14.01.2021	19:35:47	0	0	2,598491	3,84075	82,35	0,864	77,185	3,5	1005,6	7,4	9,3	9,1	1	1	1	1	1	1	1	1	1	0	1	-42,142354	274,904448	281,682462	0
14.01.2021	19:35:48	0	0	2,598491	3,86025	88,5924	0,851	77,167	3,5	1005,44	7,4	9,3	9,1	1	1	1	1	1	1	1	1	1	0	1	-41,36716	274,741775	281,69185	0
14.01.2021	19:35:49	0	0	2,711468	3,6855	99,5148	0,857	77,168	3,5	1005,52	7,4	9,3	9,1	1	1	1	1	1	1	1	1	1	0	1	-40,591966	274,808228	282,779717	0
14.01.2021	19:35:50	0	0	4,632064	3,288	107,0568	0,856	77,158	3,5	1005,64	7,4	9,4	9,2	1	1	1	1	1	1	1	1	1	0	1	-39,605356	274,729437	283,395626	0
14.01.2021	19:35:51	0	0	3,276358	3,4275	104,7348	0,858	77,137	3,5	1005,56	7,4	9,3	9,1	1	1	1	1	1	1	1	1	1	0	1	-41,437632	274,730979	281,570601	0
14.01.2021	19:35:52	0	0	3,16338	4,005	102,1752	0,854	77,152	3,5	1005,36	7,4	9,4	9,1	1	1	1	1	1	1	1	1	1	0	1	-38,689218	274,758753	284,449655	0
14.01.2021	19:35:53	0	0	3,276358	4,38825	98,7588	0,86	77,163	3,5	1005,54	7,4	9,4	9,1	1	1	1	1	1	1	1	1	1	0	1	-40,38055	274,769565	282,809189	0
14.01.2021	19:35:54	0	0	2,485513	4,57275	92,9664	0,858	77,164	3,5	1005,6	7,4	9,3	9,1	1	1	1	1	1	1	1	1	1	0	1	-39,182523	274,720188	283,774967	0
14.01.2021	19:35:55	0	0	2,598491	4,56675	92,9592	0,857	77,156	3,5	1005,56	7,4	9,3	9,1	1	1	1	1	1	1	1	1	1	0	1	-38,548273	274,752578	284,561549	0
14.01.2021	19:35:56	0	0	4,40611	4,65675	91,5156	0,859	77,158	3,5	1005,6	7,4	9,4	9,2	1	1	1	1	1	1	1	1	1	0	1	-42,706131	274,879571	281,001486	0
14.01.2021	19:35:57	0	0	4,293133	4,65825	101,1168	0,852	77,152	3,5	1005,54	7,4	9,3	9,2	1	1	1	1	1	1	1	1	1	0	1	-44,397463	274,856278	279,200446	0
14.01.2021	19:35:58	0	0	2,598491	4,5	99,1296	0,858	77,14	3,5	1005,52	7,4	9,4	9,1	1	1	1	1	1	1	1	1	1	0	1	-38,830162	274,888896	284,921383	0
14.01.2021	19:35:59	0	0	4,858019	4,401	103,7808	0,853	77,134	3,5	1005,42	7,4	9,4	9,2	1	1	1	1	1	1	1	1	1	0	1	-35,729387	274,888896	288,022158	0
14.01.2021	19:36:00	0	0	2,711452	4,22175	100,7496	0,857	77,14	3,5	1005,58	7,4	9,4	9,2	1	1	1	1	1	1	1	1	1	0	1	-38,971106	274,893561	284,802412	0
14.01.2021	19:36:01	0	0	4,519087	3,96	104,7456	0,854	77,129	3,5	1005,62	7,4	9,3	9,2	1	1	1	1	1	1	1	1	1	0	1	-38,971106	274,893561	284,802412	0
14.01.2021	19:36:02	0	0	4,519087	3,96	104,7456	0,854	77,129	3,5	1005,62	7,4	9,3	9,2	1	1	1	1	1	1	1	1	1	0	1	-36,856942	274,892006	286,909252	0
14.01.2021	19:36:03	0	0	3,389315	3,7875	98,7876	0,856	77,15	3,5	1005,42	7,4	9,5	9,2	1	1	1	1	1	1	1	1	1	0	1	-38,477801	274,763386	284,682867	0
14.01.2021	19:36:04	0	0	2,372535	3,537	76,3596	0,858	77,143	3,5	1005,52	7,4	9,4	9,1	1	1	1	1	1	1	1	1	1	0	1	-39,393939	274,763386	283,766729	0
14.01.2021	19:36:05	0	0	4,293158	3,408	98,4456	0,859	77,142	3,5	1005,46	7,4	9,4	9,1	1	1	1	1	1	1	1	1	1	0	1	-37,279774	274,902892	286,537711	0
14.01.2021	19:36:06	0	0	4,067203	3,47925	96,6024	0,851	77,148	3,5	1005,44	7,4	9,3	9,1	1	1	1	1	1	1	1	1	1	0	1	-39,816772	274,822166	283,620519	0
14.01.2021	19:36:07	0	0	3,954225	3,50025	87,336	0,856	77,143	3,5	1005,5	7,4	9,3	9,1	1	1	1	1	1	1	1	1	1	0	1	-41,014799	274,885788	282,7221	0
14.01.2021	19:36:08	0	0	4,40611	3,34275	77,5728	0,859	77,152	3,5	1005,46	7,4	9,4	9,2	1	1	1	1	1	1	1	1	1	0	1	-42,706131	274,85783	280,899086	0
14.01.2021	19:36:09	0	0	2,485498	3,01275	95,1192	0,855	77,15	3,5	1005,58	7,4	9,4	9,2	1	1	1	1	1	1	1	1	1	0	1	-41,296688	274,737147	281,740557	0
14.01.2021	19:36:10	0	0	4,180181	2,808	97,6896	0,85	77,142	3,5	1005,48	7,4	9,3	9,1	1	1	1	1	1	1	1	1	1	0	1	-43,692741	274,870251	279,970973	0
14.01.2021	19:36:11	0	0	3,276338	2,76	91,5084	0,86	77,156	3,5	1005,62	7,4	9,3	9,2	1	1	1	1	1	1	1	1	1	0	1	-40,169133	274,735605	282,860857	0
14.01.2021	19:36:12	0	0	3,163361	2,844	95,5368	0,858	77,15	3,5	1005,6	7,4	9,4	9,2	1	1	1	1	1	1	1	1	1	0	1	-38,75969	274,780383	284,480949	0
14.01.2021	19:36:13	0	0	3,050402	2,916	94,1184	0,856	77,171	3,5	1005,58	7,4	9,3	9,1	1	1	1	1	1	1	1	1	1	0	1	-42,283298	274,729437	280,717684	0
14.01.2021	19:36:14	0	0	3,954225	3,06075	106,7508	0,853	77,148	3,5	1005,56	7,4	9,3	9,1	1	1	1	1	1	1	1	1	1	0	1	-38,336857	274,823715	285,107728	0
14.01.2021	19:36:15	0	0	3,389336	3,171	104,418	0,849	77,157	3,5	1005,64	7,4	9,4	9,1	1	1	1	1	1	1	1	1	1	0	1	-38,830162	274,732521	284,185323	0
14.01.2021	19:36:16	0	0	4,293133	3,033	102,9312	0,858	77,142	3,5	1005,54	7,4	9,5	9,2	1	1	1	1	1	1	1	1	1	0	1	-41,36716	274,85783	282,238057	0
14.01.2021	19:36:17	0	0	3,389315	2,8185	81,2088	0,854	77,158	3,5	1005,5	7,4	9,3	9,2	1	1	1	1	1	1	1	1	1	0	1	-37,13883	274,706324	285,753469	0
14.01.2021	19:36:18	0	0	3,502292	2,6115	100,8396	0,854	77,146	3,5	1005,42	7,4	9,3	9,2	1	1	1	1	1	1	1	1	1	0	1	-38,900634	274,755665	284,223712	0
14.01.2021	19:36:19	0	0	2,711468	2,47425	88,5708	0,856	77,158	3,5	1005,58	7,4	9,4	9,1	1	1	1	1	1	1	1	1	1	0	1	-38,195913	274,744861	284,877612	0
14.01.2021	19:36:20	0	0	3,16338	2,4675	89,9928	0,857	77,159	3,5	1005,4	7,4	9,3	9,1	1	1	1	1	1	1	1	1	1	0	1	-37,561663	274,871804	286,109367	0
14.01.2021	19:36:21	0	0	3,502292	2,4345	95,1552	0,856	77,171	3,5	1005,56	7,4	9,3	9,2	1	1	1	1	1	1	1	1	1	0	1	-34,954193	274,720188	288,003297	0
14.01.2021	19:36:22	0	0	3,728269	2,592	85,1868	0,861	77,174	3,5	1005,58	7,4	9,3	9,1	1	1	1	1	1	1	1	1	1	0	1	-41,719521	274,885788	282,017379	0
14.01.2021	19:36:23	0	0	4,293158	2,6745	84,42	0,854	77,167	3,5	1005,58	7,4	9,4	9,1	1	1	1	1	1	1	1	1	1	0	1	-40,803383	274,840765	282,721476	0
14.01.2021	19:36:24	0	0	2,598475	2,98425	88,596	0,857	77,159	3,5	1005,64	7,4	9,3	9,2	1	1	1	1	1	1	1	1	1	0	1	-42,917548	274,715566	280,018206	0
14.01.2021	19:36:25	0	0	2,033589	3,177	90,4068	0,855	77,163	3,5	1005,52	7,4	9,4	9,2	1	1	1	1	1	1	1	1	1	0	1	-37,632135	274,836114	285,870822	0
14.01.2021	19:36:26	0	0	2,711468	3,30225	94,374	0,856	77,173	3,5	1005,64	7,4	9,3	9,1	1	1	1	1	1	1	1	1	1	0	1	-35,306554	274,715566	287,6292	0
14.01.2021	19:36:27	0	0	3,050402	3,43425	91,8972	0,853	77,153	3,5	1005,54	7,4	9,3	9,1	1	1	1	1	1	1	1	1	1	0	1	-37,984496	274,808228	285,387187	0
14.01.2021	19:36:28	0	0	2,937424	3,29775	67,3092	0,856	77,177	3,5	1005,62	7,4	9,4	9,1	1	1	1	1	1	1	1	1	1	0	1	-42,917548	274,710944	279,996476	0
14.01.2021	19:36:29	0	0	2,598491	3,117	74,916	0,85	77,161	3,5	1005,42	7,4	9,3	9,1	1	1	1	1	1	1	1	1	1	0	1	-37,77308	274,732521	285,242405	0
14.01.2021	19:36:30	0	0	3,615291	2,9775	71,9712	0,856	77,177	3,5	1005,58	7,4	9,3	9,1	1	1	1	1	1	1	1	1	1	0	1	-38,971106	274,854727	284,619494	0
14.01.2021	19:36:31	0	0	5,084003	2,73975	75,2328	0,851	77,157	3,5	1005,52	7,4	9,3	9,1	1	1	1	1	1	1	1	1	1	0	1	-43,128964	274,873357	280,549382	0
14.01.2021	19:36:32	0	0	3,954225	2,62725	69,8508	0,852	77,163	3,5	1005,54	7,4	9,3	9,1	1	1	1	1	1	1	1	1	1	0	1	-35,447498	274,856278	288,15041	0
14.01.2021	19:36:33	0	0	3,389336	2,646	75,6324	0,85	77,163	3,5	1005,68	7,4	9,4	9,1	1	1	1	1	1	1	1	1	1	0	1	-39,7463	274,701705	283,124281	0
14.01.2021	19:36:34	0	0	3,389336	2,553	70,2252	0,856	77,162	3,5	1005,52	7,4	9,4	9,1	1	1	1	1	1	1	1	1	1	0	1	-41,860465	274,769565	281,329273	0
14.01.2021	19:36:35	0	0	2,711468	2,57475	81,9432	0,853	77,154	3,5	1005,56	7,4	9,3	9,1	1	1	1	1	1	1	1	1	1	0	1	-42,847075	274,890451	280,911794	0
14.01.2021	19:36:36	0	0	3,728247	2,49075	85,1544	0,853	77,164	3,5	1005,62	7,4	9,3	9,2	1	1	1	1	1	1	1	1	1	0	1	-40,169133	274,873357	283,509213	0
14.01.2021	19:36:37	0	0	2,372521	2,46675	90,7776	0,854	77,158	3,5	1005,66	7,4	9,3	9,2	1	1	1	1	1	1	1	1	1	0	1	-39,464412	274,718647	283,485832	0
14.01.2021	19:36:38	0	0	4,180181	2,59125	85,9212	0,855	77,164	3,5	1005,54	7,4	9,4	9,1	1	1	1	1	1	1	1	1	1	0	1	-38,75969	274,853175	284,823603	0
14.01.2021	19:36:39	0	0	2,598475	2,7915	92,97	0,854	77,154	3,5	1005,4	7,4	9,4	9,2	1	1	1	1	1	1	1	1	1	0	1	-43,97463	274,878018	279,725668	0
14.01.2021	19:36:40	0	0	4,74507	2,8425	86,9652	0,857	77,16	3,5	1005,56	7,4	9,4	9,1	1	1	1	1	1	1	1	1	1	0	1	-40,451022	274,842316	283,081138	0
14.01.2021	19:36:41	0	0	4,971026	2,69925	69,1344	0,851	77,147	3,5	1005,56	7,4	9,5	9,1	1	1	1	1	1	1	1	1	1	0	1	-39,041579	274,805132	284,315533	0
14.01.2021	19:36:42	0	0	2,824446	2,42025	71,9928	0,855	77,168	3,5	1005,58	7,4	9,4	9,1	1	1	1	1	1	1	1	1	1	0	1	-37,420719	274,870251	286,242996	0
14.01.2021	19:36:43	0	0	4,632092	2,24625	65,4552	0,854	77,167	3,5	1005,54	7,4	9,3	9,1	1	1	1	1	1	1	1	1	1	0	1	-39,393939	274,825265	284,05794	0
14.01.2021	19:36:44	0	0	2,485513	2,1495	76,8384	0,855	77,17	3,5	1005,62	7,3	9,5	9,1	1	1	1	1	1	1	1	1	1	0	1	-45,172657	274,700165	277,690687	0
14.01.2021	19:36:45	0	0	4,067203	2,1645	76,374	0,853	77,201	3,5	1005,52	7,4	9,3	9,1	1	1	1	1	1	1	1	1	1	0	1	-38,618746	274,823715	284,825839	0
14.01.2021	19:36:46	0	0	4,067203	2,1165	104,4252	0,845	77,175	3,5	1005,42	7,4	9,4	9,1	1	1	1	1	1	1	1	1	1	0	1	-41,014799	274,729437	281,986183	0
14.01.2021	19:36:47	0	0	2,824446	2,133	85,5216	0,856	77,174	3,5	1005,56	7,4	9,3	9,1	1	1	1	1	1	1	1	1	1	0	1	-41,508104	274,712485	281,413162	0
14.01.2021	19:36:48	0	0	3,954225	2,14425	91,8792	0,852	77,176	3,5	1005,54	7,4	9,3	9,1	1	1	1	1	1	1	1	1	1	0	1	-43,058492	274,752578	280,05133	0
14.01.2021	19:36:49	0	0	4,293158	2,43825	86,652	0,849	77,155	3,5	1005,62	7,4	9,5	9,1	1	1	1	1	1	1	1	1	1	0	1	-42,635659	274,879571	281,071958	0
14.01.2021	19:36:50	0	0	3,841247	2,85075	89,3232	0,848	77,175	3,5	1005,62	7,4	9,4	9,1	1	1	1	1	1	1	1	1	1	0	1	-41,649049	274,755665	281,475297	0
14.01.2021	19:36:51	0	0	3,615291	3,162	91,1736	0,853	77,167	3,5	1005,58	7,4	9,3	9,1	1	1	1	1	1	1	1	1	1	0	1	-40,169133	274,741775	282,889877	0
14.01.2021	19:36:52	0	0	4,067203	3,3075	97,7004	0,852	77,182	3,5	1005,48	7,4	9,3	9,1	1	1	1	1	1	1	1	1	1	0	1	-38,336857	274,724812	284,642376	0
14.01.2021	19:36:53	0	0	4,406136	3,54975	99,9216	0,844	77,161	3,5	1005,46	7,4	9,3	9,1	1	1	1	1	1	1	1	1	1	0	1	-42,706131	274,751034	280,39643	0
14.01.2021	19:36:54	0	0	2,598475	3,57525	85,5216	0,843	77,179	3,5	1005,62	7,4	9,3	9,2	1	1	1	1	1	1	1	1	1	0	1	-38,336857	274,697086	284,512013	0
14.01.2021	19:36:55	0	0	4,180155	3,597	80,1468	0,852	77,18	3,5	1005,5	7,4	9,5	9,2	1	1	1	1	1	1	1	1	1	0	1	-40,451022	274,763386	282,709646	0
14.01.2021	19:36:56	0	0	2,711468	3,603	92,2716	0,85	77,168	3,5	1005,36	7,3	9,3	9,1	1	1	1	1	1	1	1	1	1	0	1	-40,591966	274,884233	283,137612	0
14.01.2021	19:36:57	0	0	4,74507	3,4725	77,9724	0,847	77,176	3,5	1005,56	7,4	9,3	9,1	1	1	1	1	1	1	1	1	1	0	1	-37,77308	274,812873	285,620467	0
14.01.2021	19:36:58	0	0	2,824429	3,291	93,3408	0,849	77,171	3,5	1005,48	7,4	9,3	9,2	1	1	1	1	1	1	1	1	1	0	1	-38,75969	274,865592	284,882083	0
14.01.2021	19:36:59	0	0	5,084003	2,973	60,9228	0,846	77,153	3,5	1005,46	7,4	9,3	9,1	1	1	1	1	1	1	1	1	1	0	1	-42,847075	274,850072	280,721605	0
14.01.2021	19:37:00	0	0	3,16338	3,05925	78,2892	0,848	77,168	3,5	1005,56	7,4	9,3	9,1	1	1	1	1	1	1	1	1	1	0	1	-43,269908	274,686315	279,528326	0
14.01.2021	19:37:01	0	0	3,16338	3,05925	78,2892	0,848	77,168	3,5	1005,56	7,4	9,3	9,1	1	1	1	1	1	1	1	1	1	0	1	-43,269908	274,686315	279,528326	0
14.01.2021	19:37:02	0	0	4,406136	3,525	74,9304	0,851	77,167	3,5	1005,54	7,4	9,4	9,1	1	1	1	1	1	1	1	1	1	0	1	-41,296688	274,812873	282,096859	0
14.01.2021	19:37:03	0	0	4,406136	3,91425	58,4748	0,85	77,147	3,5	1005,6	7,4	9,4	9,1	1	1	1	1	1	1	1	1	1	0	1	-39,7463	274,860935	283,873537	0
14.01.2021	19:37:04	0	0	3,728247	3,91575	67,302	0,844	77,149	3,5	1005,48	7,4	9,4	9,2	1	1	1	1	1	1	1	1	1	0	1	-42,424242	274,778837	280,809123	0
14.01.2021	19:37:05	0	0	2,485513	3,963	87,3792	0,855	77,138	3,5	1005,54	7,4	9,3	9,1	1	1	1	1	1	1	1	1	1	0	1	-38,971106	274,873357	284,707239	0
14.01.2021	19:37:06	0	0	3,954225	3,981	86,6484	0,847	77,144	3,5	1005,48	7,4	9,4	9,1	1	1	1	1	1	1	1	1	1	0	1	-39,534884	274,751034	283,567677	0
14.01.2021	19:37:07	0	0	3,389336	3,90225	69,1452	0,848	77,145	3,5	1005,54	7,4	9,3	9,1	1	1	1	1	1	1	1	1	1	0	1	-39,323467	274,718647	283,626777	0
14.01.2021	19:37:08	0	0	4,632092	3,82425	86,9904	0,847	77,148	3,5	1005,74	7,3	9,4	9,1	1	1	1	1	1	1	1	1	1	0	1	-41,014799	274,820617	282,4152	0
14.01.2021	19:37:09	0	0	3,050402	3,6255	79,4052	0,845	77,138	3,5	1005,58	7,3	9,3	9,1	1	1	1	1	1	1	1	1	1	0	1	-35,51797	274,73869	287,526529	0
14.01.2021	19:37:10	0	0	3,954225	3,30975	77,9652	0,848	77,145	3,5	1005,68	7,4	9,3	9,1	1	1	1	1	1	1	1	1	1	0	1	-35,658915	274,707864	287,240625	0
14.01.2021	19:37:11	0	0	3,954225	3,4515	73,4292	0,848	77,135	3,5	1005,52	7,6	9,3	9,1	1	1	1	1	1	1	1	1	1	0	1	-38,75969	274,684777	284,031314	0
14.01.2021	19:37:12	0	0	4,406136	3,7215	73,7748	0,84	77,128	3,5	1005,5	7,3	9,4	9,1	1	1	1	1	1	1	1	1	1	0	1	-45,172657	274,85783	278,432561	0
14.01.2021	19:37:13	0	0	2,937424	4,2105	77,202	0,848	77,109	3,5	1005,52	7,4	9,3	9,1	1	1	1	1	1	1	1	1	1	0	1	-40,521494	274,814422	282,879342	0
14.01.2021	19:37:14	0	0	4,180181	4,5225	80,5176	0,848	77,117	3,5	1005,56	7,4	9,3	9,1	1	1	1	1	1	1	1	1	1	0	1	-39,252995	274,876464	284,439985	0
14.01.2021	19:37:15	0	0	4,519114	4,82475	79,0164	0,847	77,122	3,5	1005,52	7,3	9,5	9,1	1	1	1	1	1	1	1	1	1	0	1	-42,917548	274,755665	280,206798	0
14.01.2021	19:37:16	0	0	3,954201	4,98975	72,6984	0,843	77,127	3,5	1005,58	7,4	9,3	9,2	1	1	1	1	1	1	1	1	1	0	1	-42,565187	274,871804	281,105843	0
14.01.2021	19:37:17	0	0	2,824446	5,02875	78,3036	0,842	77,127	3,5	1005,54	7,4	9,5	9,1	1	1	1	1	1	1	1	1	1	0	1	-38,054968	274,814422	285,345867	0
14.01.2021	19:37:18	0	0	2,259557	4,95075	75,9888	0,845	77,129	3,5	1005,58	7,4	9,3	9,1	1	1	1	1	1	1	1	1	1	0	1	-44,397463	274,697086	278,451407	0
14.01.2021	19:37:19	0	0	4,40611	4,87275	84,0348	0,843	77,138	3,5	1005,6	7,4	9,4	9,2	1	1	1	1	1	1	1	1	1	0	1	-42,98802	274,751034	280,114541	0
14.01.2021	19:37:20	0	0	2,485513	4,7925	82,6596	0,842	77,214	3,5	1005,58	7,3	9,3	9,1	1	1	1	1	1	1	1	1	1	0	1	-39,182523	274,853175	284,40077	0
14.01.2021	19:37:21	0	0	4,406136	4,995	85,9428	0,841	77,165	3,5	1005,52	7,4	9,3	9,1	1	1	1	1	1	1	1	1	1	0	1	-43,269908	274,777291	279,956184	0
14.01.2021	19:37:22	0	0	4,632092	5,0325	84,0528	0,841	77,173	3,5	1005,62	7,4	9,5	9,1	1	1	1	1	1	1	1	1	1	0	1	-41,578576	274,867145	282,070509	0
14.01.2021	19:37:23	0	0	4,067203	4,71675	88,9668	0,845	77,171	3,5	1005,5	7,3	9,3	9,1	1	1	1	1	1	1	1	1	1	0	1	-42,283298	274,760297	280,862839	0
14.01.2021	19:37:24	0	0	2,824429	4,5165	88,9776	0,845	77,168	3,5	1005,62	7,6	9,3	9,2	1	1	1	1	1	1	1	1	1	0	1	-36,222692	274,689392	286,590007	0
14.01.2021	19:37:25	0	0	3,050402	4,341	92,9556	0,839	77,182	3,5	1005,7	7,4	9,3	9,1	1	1	1	1	1	1	1	1	1	0	1	-36,222692	274,747947	286,865349	0
14.01.2021	19:37:26	0	0	2,937424	4,413	87,7464	0,847	77,19	3,5	1005,58	7,3	9,3	9,1	1	1	1	1	1	1	1	1	1	0	1	-37,13883	274,81597	286,269295	0
14.01.2021	19:37:27	0	0	3,728247	4,2675	84,474	0,835	77,189	3,5	1005,5	7,4	9,3	9,2	1	1	1	1	1	1	1	1	1	0	1	-44,890768	274,859383	278,721759	0
14.01.2021	19:37:28	0	0	2,711452	4,12125	73,4184	0,84	77,206	3,5	1005,5	7,3	9,3	9,2	1	1	1	1	1	1	1	1	1	0	1	-42,001409	274,772655	281,202869	0
14.01.2021	19:37:29	0	0	3,728269	4,14375	67,284	0,839	77,227	3,5	1005,58	7,3	9,3	9,1	1	1	1	1	1	1	1	1	1	0	1	-42,212826	274,867145	281,43626	0
14.01.2021	19:37:30	0	0	4,632092	4,19925	77,562	0,841	77,221	3,5	1005,34	7,3	9,3	9,1	1	1	1	1	1	1	1	1	1	0	1	-39,675828	274,727895	283,317904	0
14.01.2021	19:37:31	0	0	4,293158	4,28775	68,0976	0,843	77,224	3,5	1005,52	7,4	9,3	9,1	1	1	1	1	1	1	1	1	1	0	1	-39,957717	274,870251	283,705998	0
14.01.2021	19:37:32	0	0	3,050402	4,34325	74,9124	0,835	77,232	3,5	1005,58	7,4	9,3	9,1	1	1	1	1	1	1	1	1	1	0	1	-41,296688	274,834564	282,19897	0
14.01.2021	19:37:33	0	0	3,61527	4,37325	84,0672	0,836	77,238	3,5	1005,58	7,6	9,3	9,2	1	1	1	1	1	1	1	1	1	0	1	-40,591966	274,795848	282,721447	0
14.01.2021	19:37:34	0	0	2,824446	4,1895	81,9648	0,838	77,279	3,5	1005,68	7,3	9,3	9,1	1	1	1	1	1	1	1	1	1	0	1	-38,971106	274,680162	283,798209	0
14.01.2021	19:37:35	0	0	2,485513	4,215	74,2536	0,833	77,276	3,5	1005,56	7,4	9,3	9,1	1	1	1	1	1	1	1	1	1	0	1	-40,803383	274,786567	282,466357	0
14.01.2021	19:37:36	0	0	4,293158	4,19625	77,5908	0,839	77,278	3,5	1005,36	7,4	9,3	9,1	1	1	1	1	1	1	1	1	1	0	1	-36,786469	274,860935	286,833368	0
14.01.2021	19:37:37	0	0	3,050402	4,02075	74,9124	0,836	77,297	3,5	1005,52	7,3	9,3	9,1	1	1	1	1	1	1	1	1	1	0	1	-38,75969	274,700165	284,103654	0
14.01.2021	19:37:38	0	0	3,615291	3,84525	83,7288	0,837	77,323	3,5	1005,66	7,4	9,3	9,1	1	1	1	1	1	1	1	1	1	0	1	-41,719521	274,747947	281,368521	0
14.01.2021	19:37:39	0	0	3,502313	3,969	68,4036	0,841	77,324	3,5	1005,56	7,3	9,3	9,1	1	1	1	1	1	1	1	1	1	0	1	-37,702607	274,678625	285,05948	0
14.01.2021	19:37:40	0	0	3,16338	4,18425	82,5948	0,837	77,339	3,5	1005,58	7,3	9,3	9,1	1	1	1	1	1	1	1	1	1	0	1	-41,649049	274,721729	281,315688	0
14.01.2021	19:37:41	0	0	3,050402	4,18575	78,2856	0,837	77,35	3,5	1005,34	7,4	9,3	9,1	1	1	1	1	1	1	1	1	1	0	1	-42,212826	274,73869	280,831673	0
14.01.2021	19:37:42	0	0	3,502313	4,16925	82,4004	0,839	77,352	3,5	1005,72	7,6	9,3	9,1	1	1	1	1	1	1	1	1	1	0	1	-39,464412	274,867145	284,184674	0
14.01.2021	19:37:43	0	0	4,406136	4,1895	80,154	0,837	77,359	3,5	1005,62	7,3	9,3	9,1	1	1	1	1	1	1	1	1	1	0	1	-35,729387	274,734063	287,29335	0
14.01.2021	19:37:44	0	0	3,389336	4,1235	84,4308	0,841	77,359	3,5	1005,5	7,3	9,3	9,1	1	1	1	1	1	1	1	1	1	0	1	-41,789993	274,687853	281,015473	0
14.01.2021	19:37:45	0	0	2,711468	3,85425	78,6564	0,834	77,362	3,5	1005,34	7,4	9,3	9,1	1	1	1	1	1	1	1	1	1	0	1	-36,997886	274,831463	286,483176	0
14.01.2021	19:37:46	0	0	4,067203	3,48225	94,4244	0,833	77,368	3,5	1005,5	7,3	9,3	9,1	1	1	1	1	1	1	1	1	1	0	1	-41,085271	274,703244	281,792549	0
14.01.2021	19:37:47	0	0	3,050384	3,36	99,1656	0,835	77,353	3,5	1005,74	7,4	9,3	9,2	1	1	1	1	1	1	1	1	1	0	1	-38,477801	274,851623	285,098185	0
14.01.2021	19:37:48	0	0	2,937424	3,59925	96,9768	0,837	77,369	3,5	1005,46	7,4	9,3	9,1	1	1	1	1	1	1	1	1	1	0	1	-41,508104	274,808228	281,863579	0
14.01.2021	19:37:49	0	0	5,084003	3,90225	96,9804	0,836	77,371	3,5	1005,64	7,3	9,5	9,1	1	1	1	1	1	1	1	1	1	0	1	-37,984496	274,851623	285,59149	0
14.01.2021	19:37:50	0	0	4,632092	3,825	98,46	0,838	77,37	3,5	1005,46	7,3	9,3	9,1	1	1	1	1	1	1	1	1	1	0	1	-40,944327	274,805132	282,412785	0
14.01.2021	19:37:51	0	0	4,293158	3,4635	117,4284	0,84	77,364	3,5	1005,48	7,3	9,5	9,1	1	1	1	1	1	1	1	1	1	0	1	-38,618746	274,692469	284,20842	0
14.01.2021	19:37:52	0	0	3,502313	3,38325	98,064	0,837	77,369	3,5	1005,66	7,4	9,3	9,1	1	1	1	1	1	1	1	1	1	0	1	-40,591966	274,712485	282,3293	0
14.01.2021	19:37:53	0	0	4,406136	3,8505	105,8976	0,833	77,365	3,5	1005,84	7,3	9,4	9,1	1	1	1	1	1	1	1	1	1	0	1	-42,35377	274,680162	280,415545	0
14.01.2021	19:37:54	0	0	4,519087	4,098	104,0688	0,836	77,339	3,5	1005,52	7,3	9,3	9,2	1	1	1	1	1	1	1	1	1	0	1	-36,363636	274,854727	287,226964	0
14.01.2021	19:37:55	0	0	4,519114	4,1445	105,5196	0,841	77,355	3,5	1005,42	7,3	9,3	9,1	1	1	1	1	1	1	1	1	1	0	1	-37,984496	274,746404	285,096287	0
14.01.2021	19:37:56	0	0	3,954225	4,095	99,1152	0,837	77,343	3,5	1005,46	7,3	9,3	9,1	1	1	1	1	1	1	1	1	1	0	1	-39,816772	274,853175	283,76652	0
14.01.2021	19:37:57	0	0	3,050402	3,9315	95,8104	0,837	77,338	3,5	1005,44	7,3	9,3	9,1	1	1	1	1	1	1	1	1	1	0	1	-34,038055	274,785021	289,224409	0
14.01.2021	19:37:58	0	0	4,519114	3,8145	90,7668	0,838	77,34	3,5	1005,6	7,4	9,3	9,1	1	1	1	1	1	1	1	1	1	0	1	-39,393939	274,853175	284,189353	0
14.01.2021	19:37:59	0	0	4,74507	3,80175	105,516	0,837	77,335	3,5	1005,72	7,4	9,3	9,1	1	1	1	1	1	1	1	1	1	0	1	-40,451022	274,803585	282,898805	0
14.01.2021	19:38:00	0	0	3,728269	3,62025	95,1336	0,832	77,332	3,5	1005,7	7,4	9,3	9,1	1	1	1	1	1	1	1	1	1	0	1	-40,873855	274,84852	282,68752	0
14.01.2021	19:38:01	0	0	4,067203	3,55125	97,704	0,834	77,337	3,5	1005,54	7,3	9,3	9,1	1	1	1	1	1	1	1	1	1	0	1	-37,914024	274,724812	285,065209	0
14.01.2021	19:38:02	0	0	4,067203	3,55125	97,704	0,834	77,337	3,5	1005,54	7,3	9,3	9,1	1	1	1	1	1	1	1	1	1	0	1	-37,914024	274,724812	285,065209	0
14.01.2021	19:38:03	0	0	4,067203	3,744	96,9804	0,834	77,334	3,5	1005,8	7,4	9,3	9,1	1	1	1	1	1	1	1	1	1	0	1	-42,917548	274,856278	280,680361	0
14.01.2021	19:38:04	0	0	3,728269	3,79725	87,444	0,837	77,344	3,5	1005,46	7,3	9,3	9,1	1	1	1	1	1	1	1	1	1	0	1	-47,357294	274,788114	275,919723	0
14.01.2021	19:38:05	0	0	3,615291	3,60375	80,5248	0,835	77,335	3,5	1005,58	7,4	9,3	9,1	1	1	1	1	1	1	1	1	1	0	1	-42,706131	274,683238	280,077643	0
14.01.2021	19:38:06	0	0	3,16338	3,2835	76,8312	0,838	77,356	3,5	1005,6	7,4	9,3	9,1	1	1	1	1	1	1	1	1	1	0	1	-40,662438	274,853175	282,920855	0
14.01.2021	19:38:07	0	0	3,16338	3,246	90,036	0,837	77,345	3,5	1005,54	7,4	9,3	9,1	1	1	1	1	1	1	1	1	1	0	1	-38,548273	274,781929	284,69964	0
14.01.2021	19:38:08	0	0	3,615291	3,0705	82,602	0,832	77,344	3,5	1005,44	7,4	9,3	9,1	1	1	1	1	1	1	1	1	1	0	1	-41,155743	274,837664	282,354513	0
14.01.2021	19:38:09	0	0	4,632092	2,9715	82,9584	0,838	77,345	3,5	1005,6	7,3	9,3	9,1	1	1	1	1	1	1	1	1	1	0	1	-40,310078	274,757209	282,821532	0
14.01.2021	19:38:10	0	0	2,937424	3,05175	87,0012	0,84	77,351	3,5	1005,76	7,3	9,3	9,1	1	1	1	1	1	1	1	1	1	0	1	-41,296688	274,842316	282,235472	0
14.01.2021	19:38:11	0	0	3,615291	3,16425	98,8056	0,839	77,358	3,5	1005,84	7,3	9,3	9,1	1	1	1	1	1	1	1	1	1	0	1	-40,944327	274,817519	282,471089	0
14.01.2021	19:38:12	0	0	3,050402	3,29325	96,2208	0,832	77,339	3,5	1005,58	7,3	9,3	9,1	1	1	1	1	1	1	1	1	1	0	1	-40,310078	274,850072	283,258602	0
14.01.2021	19:38:13	0	0	3,954225	3,28275	86,6592	0,836	77,356	3,5	1005,46	7,4	9,3	9,1	1	1	1	1	1	1	1	1	1	0	1	-44,538407	274,839215	278,97915	0
14.01.2021	19:38:14	0	0	3,502313	3,042	77,976	0,836	77,373	3,5	1005,54	7,4	9,3	9,1	1	1	1	1	1	1	1	1	1	0	1	-37,77308	274,694008	285,06132	0
14.01.2021	19:38:15	0	0	4,293158	2,886	87,7608	0,836	77,373	3,5	1005,48	7,3	9,3	9,1	1	1	1	1	1	1	1	1	1	0	1	-41,437632	274,817519	281,977784	0
14.01.2021	19:38:16	0	0	4,067203	2,81325	78,6708	0,831	77,364	3,5	1005,4	7,4	9,3	9,1	1	1	1	1	1	1	1	1	1	0	1	-39,816772	274,684777	282,974232	0
14.01.2021	19:38:17	0	0	3,615291	2,85375	70,6176	0,834	77,362	3,5	1005,38	7,6	9,3	9,1	1	1	1	1	1	1	1	1	1	0	1	-37,914024	274,701705	284,956558	0
14.01.2021	19:38:18	0	0	3,954225	2,8065	78,6564	0,838	77,366	3,5	1005,58	7,4	9,3	9,1	1	1	1	1	1	1	1	1	1	0	1	-41,437632	274,694008	281,396767	0
14.01.2021	19:38:19	0	0	4,406136	2,68725	92,2824	0,836	77,372	3,5	1005,62	7,3	9,3	9,1	1	1	1	1	1	1	1	1	1	0	1	-36,575053	274,6694	286,143681	0
14.01.2021	19:38:20	0	0	4,74507	2,5755	96,966	0,832	77,361	3,5	1005,46	7,4	9,3	9,1	1	1	1	1	1	1	1	1	1	0	1	-44,186047	274,797395	279,134648	0
14.01.2021	19:38:21	0	0	4,519114	2,6535	98,7876	0,827	77,361	3,5	1005,56	7,4	9,3	9,1	1	1	1	1	1	1	1	1	1	0	1	-39,252995	274,674012	283,487413	0
14.01.2021	19:38:22	0	0	2,711468	2,88675	96,9912	0,83	77,366	3,5	1005,5	7,4	9,3	9,1	1	1	1	1	1	1	1	1	1	0	1	-42,706131	274,755665	280,418215	0
14.01.2021	19:38:23	0	0	4,406136	2,84925	94,1004	0,832	77,383	3,5	1005,76	7,3	9,3	9,1	1	1	1	1	1	1	1	1	1	0	1	-38,830162	274,833013	284,658198	0
14.01.2021	19:38:24	0	0	4,632092	2,68725	82,5948	0,832	77,349	3,5	1005,48	7,4	9,3	9,1	1	1	1	1	1	1	1	1	1	0	1	-43,128964	274,794301	280,177169	0
14.01.2021	19:38:25	0	0	4,858048	2,72175	81	0,832	77,362	3,5	1005,46	7,3	9,3	9,1	1	1	1	1	1	1	1	1	1	0	1	-46,370684	274,794301	276,935449	0
14.01.2021	19:38:26	0	0	4,406136	2,8005	92,232	0,833	77,351	3,5	1005,44	7,4	9,3	9,1	1	1	1	1	1	1	1	1	1	0	1	-39,041579	274,680162	283,727737	0
14.01.2021	19:38:27	0	0	2,372535	2,859	92,6424	0,833	77,342	3,5	1005,54	7,4	9,3	9,1	1	1	1	1	1	1	1	1	1	0	1	-43,551797	274,723271	279,420188	0
14.01.2021	19:38:28	0	0	2,824446	3,3645	82,9692	0,833	77,347	3,5	1005,54	7,4	9,3	9,1	1	1	1	1	1	1	1	1	1	0	1	-33,051445	274,667863	289,660066	0
14.01.2021	19:38:29	0	0	2,485513	3,74625	96,5772	0,832	77,363	3,5	1005,56	7,4	9,3	9,1	1	1	1	1	1	1	1	1	1	0	1	-38,12544	274,757209	285,006169	0
14.01.2021	19:38:30	0	0	3,276358	3,816	82,5912	0,826	77,351	3,5	1005,62	7,4	9,3	9,1	1	1	1	1	1	1	1	1	1	0	1	-41,014799	274,853175	282,568494	0
14.01.2021	19:38:31	0	0	3,389336	3,7635	83,7252	0,829	77,349	3,5	1005,52	7,4	9,3	9,1	1	1	1	1	1	1	1	1	1	0	1	-38,830162	274,803585	284,519665	0
14.01.2021	19:38:32	0	0	3,502313	3,69075	81,1944	0,833	77,352	3,5	1005,52	7,4	9,3	9,1	1	1	1	1	1	1	1	1	1	0	1	-35,16561	274,6694	287,553124	0
14.01.2021	19:38:33	0	0	2,711468	3,65475	80,5212	0,834	77,353	3,5	1005,44	7,4	9,3	9,1	1	1	1	1	1	1	1	1	1	0	1	-41,437632	274,840765	282,087226	0
14.01.2021	19:38:34	0	0	4,519114	3,57525	76,8348	0,83	77,349	3,5	1005,5	7,4	9,3	9,1	1	1	1	1	1	1	1	1	1	0	1	-39,464412	274,730979	283,543822	0
14.01.2021	19:38:35	0	0	3,615291	3,51825	88,5744	0,831	77,345	3,5	1005,5	7,4	9,3	9,1	1	1	1	1	1	1	1	1	1	0	1	-39,393939	274,850072	284,174741	0
14.01.2021	19:38:36	0	0	3,615291	3,4485	90,3996	0,834	77,351	3,5	1005,72	7,4	9,3	9,1	1	1	1	1	1	1	1	1	1	0	1	-42,565187	274,795848	280,748226	0
14.01.2021	19:38:37	0	0	2,259557	3,33525	74,1564	0,835	77,361	3,5	1005,72	7,4	9,3	9,1	1	1	1	1	1	1	1	1	1	0	1	-42,212826	274,822166	281,224466	0
14.01.2021	19:38:38	0	0	4,74507	3,2655	74,9376	0,826	77,338	3,5	1005,6	7,4	9,3	9,1	1	1	1	1	1	1	1	1	1	0	1	-42,424242	274,763386	280,736426	0
14.01.2021	19:38:39	0	0	2,259557	3,24375	78,3108	0,828	77,348	3,5	1005,42	7,4	9,3	9,1	1	1	1	1	1	1	1	1	1	0	1	-36,434109	274,652501	286,205208	0
14.01.2021	19:38:40	0	0	2,711468	3,09375	77,2164	0,824	77,348	3,5	1005,42	7,3	9,3	9,1	1	1	1	1	1	1	1	1	1	0	1	-39,605356	274,795848	283,708057	0
14.01.2021	19:38:41	0	0	4,293158	3,03	91,1916	0,826	77,329	3,5	1005,6	7,4	9,3	9,1	1	1	1	1	1	1	1	1	1	0	1	-41,860465	274,842316	281,671695	0
14.01.2021	19:38:42	0	0	2,937424	2,96775	92,9628	0,823	77,34	3,5	1005,6	7,4	9,3	9,1	1	1	1	1	1	1	1	1	1	0	1	-38,830162	274,697086	284,018708	0
14.01.2021	19:38:43	0	0	4,293158	3,0045	84,4164	0,83	77,33	3,5	1005,56	7,4	9,3	9,1	1	1	1	1	1	1	1	1	1	0	1	-41,296688	274,840765	282,228171	0
14.01.2021	19:38:44	0	0	4,519114	3,075	84,0564	0,83	77,345	3,5	1005,44	7,4	9,3	9,1	1	1	1	1	1	1	1	1	1	0	1	-41,36716	274,735605	281,662831	0
14.01.2021	19:38:45	0	0	3,615291	3,1335	76,3596	0,829	77,341	3,5	1005,6	7,4	9,3	9,1	1	1	1	1	1	1	1	1	1	0	1	-38,12544	274,661717	284,557184	0
14.01.2021	19:38:46	0	0	3,615291	3,32025	86,9868	0,829	77,334	3,5	1005,6	7,4	9,3	9,1	1	1	1	1	1	1	1	1	1	0	1	-37,279774	274,80668	286,084623	0
14.01.2021	19:38:47	0	0	5,084003	3,48	70,8408	0,834	77,337	3,5	1005,56	7,4	9,3	9,1	1	1	1	1	1	1	1	1	1	0	1	-35,658915	274,76802	287,523555	0
14.01.2021	19:38:48	0	0	2,598491	3,6135	87,3792	0,829	77,329	3,5	1005,8	7,4	9,3	9,1	1	1	1	1	1	1	1	1	1	0	1	-35,16561	274,657108	287,495358	0
14.01.2021	19:38:49	0	0	3,050402	3,8055	82,5768	0,821	77,323	3,5	1005,36	7,4	9,3	9,1	1	1	1	1	1	1	1	1	1	0	1	-37,632135	274,77111	285,564873	0
14.01.2021	19:38:50	0	0	3,954225	4,12725	92,9484	0,827	77,325	3,5	1005,5	7,4	9,3	9,1	1	1	1	1	1	1	1	1	1	0	1	-35,940803	274,840765	287,584055	0
14.01.2021	19:38:51	0	0	3,954225	4,34925	84,1608	0,829	77,315	3,5	1005,58	7,3	9,3	9,1	1	1	1	1	1	1	1	1	1	0	1	-43,551797	274,76802	279,630673	0
14.01.2021	19:38:52	0	0	2,711468	4,31025	111,8124	0,829	77,323	3,5	1005,6	7,4	9,3	9,1	1	1	1	1	1	1	1	1	1	0	1	-42,35377	274,64943	280,271116	0
14.01.2021	19:38:53	0	0	4,858048	4,18575	89,298	0,823	77,315	3,5	1005,5	7,4	9,3	9,1	1	1	1	1	1	1	1	1	1	0	1	-43,763214	274,729437	279,237768	0
14.01.2021	19:38:54	0	0	4,067203	4,33725	106,6716	0,824	77,301	3,5	1005,6	7,4	9,3	9,1	1	1	1	1	1	1	1	1	1	0	1	-39,041579	274,644824	283,561668	0
14.01.2021	19:38:55	0	0	3,615291	4,419	108,1188	0,827	77,307	3,5	1005,64	7,4	9,3	9,1	1	1	1	1	1	1	1	1	1	0	1	-43,904158	274,763386	279,25651	0
14.01.2021	19:38:56	0	0	3,389336	4,26825	102,942	0,823	77,302	3,5	1005,58	7,4	9,3	9,1	1	1	1	1	1	1	1	1	1	0	1	-36,434109	274,652501	286,205208	0
14.01.2021	19:38:57	0	0	3,050402	4,0215	95,526	0,822	77,287	3,5	1005,64	7,4	9,3	9,1	1	1	1	1	1	1	1	1	1	0	1	-40,239605	274,706324	282,652694	0
14.01.2021	19:38:58	0	0	3,389336	3,849	103,3524	0,827	77,312	3,5	1005,62	7,4	9,3	9,1	1	1	1	1	1	1	1	1	1	0	1	-37,420719	274,684777	285,370285	0
14.01.2021	19:38:59	0	0	3,16338	3,90525	109,62	0,821	77,327	3,5	1005,64	7,4	9,3	9,1	1	1	1	1	1	1	1	1	1	0	1	-36,434109	274,661717	286,248516	0
14.01.2021	19:39:00	0	0	3,841247	4,032	98,0676	0,825	77,34	3,5	1005,42	7,4	9,3	9,1	1	1	1	1	1	1	1	1	1	0	1	-40,310078	274,805132	283,047034	0
14.01.2021	19:39:01	0	0	3,841247	4,032	98,0676	0,825	77,34	3,5	1005,42	7,4	9,3	9,1	1	1	1	1	1	1	1	1	1	0	1	-40,310078	274,805132	283,047034	0
14.01.2021	19:39:02	0	0	4,406136	3,9765	100,3788	0,823	77,333	3,5	1005,56	7,4	9,3	9,1	1	1	1	1	1	1	1	1	1	0	1	-38,75969	274,63715	283,807503	0
14.01.2021	19:39:03	0	0	4,180181	3,67575	116,3448	0,818	77,357	3,5	1005,48	7,4	9,3	9,1	1	1	1	1	1	1	1	1	1	0	1	-39,252995	274,707864	283,646545	0
14.01.2021	19:39:04	0	0	3,502313	3,23475	100,3716	0,821	77,363	3,5	1005,56	7,4	9,3	9,1	1	1	1	1	1	1	1	1	1	0	1	-41,649049	274,644824	280,954198	0
14.01.2021	19:39:05	0	0	4,858048	2,958	100,7496	0,821	77,371	3,5	1005,54	7,4	9,3	9,1	1	1	1	1	1	1	1	1	1	0	1	-45,525018	274,777291	277,701075	0
14.01.2021	19:39:06	0	0	2,824446	2,94975	98,0964	0,82	77,374	3,5	1005,62	7,4	9,3	9,1	1	1	1	1	1	1	1	1	1	0	1	-37,209302	274,63715	285,35789	0
14.01.2021	19:39:07	0	0	3,728269	3,207	115,5888	0,817	77,391	3,5	1005,58	7,4	9,3	9,1	1	1	1	1	1	1	1	1	1	0	1	-39,605356	274,769565	283,584383	0
14.01.2021	19:39:08	0	0	2,711468	3,159	107,0784	0,819	77,406	3,5	1005,58	7,4	9,3	9,1	1	1	1	1	1	1	1	1	1	0	1	-38,830162	274,629479	283,700995	0
14.01.2021	19:39:09	0	0	3,728269	3,1695	85,1868	0,82	77,425	3,5	1005,44	7,4	9,3	9,1	1	1	1	1	1	1	1	1	1	0	1	-38,266385	274,721729	284,698352	0
14.01.2021	19:39:10	0	0	3,389336	3,48	102,5892	0,817	77,432	3,5	1005,52	7,4	9,3	9,1	1	1	1	1	1	1	1	1	1	0	1	-39,7463	274,650965	282,885801	0
14.01.2021	19:39:11	0	0	4,519114	3,5295	101,8404	0,82	77,451	3,5	1005,68	7,4	9,3	9,1	1	1	1	1	1	1	1	1	1	0	1	-44,467935	274,763386	278,692733	0
14.01.2021	19:39:12	0	0	4,293158	3,39	108,8964	0,821	77,457	3,5	1005,58	7,4	9,3	9,1	1	1	1	1	1	1	1	1	1	0	1	-39,182523	274,677087	283,572337	0
14.01.2021	19:39:13	0	0	3,502313	3,52875	99,9288	0,814	77,45	3,5	1005,68	7,4	9,3	9,1	1	1	1	1	1	1	1	1	1	0	1	-40,38055	274,786567	282,88919	0
14.01.2021	19:39:14	0	0	3,615291	3,6735	103,698	0,814	77,472	3,5	1005,48	7,4	9,3	9,1	1	1	1	1	1	1	1	1	1	0	1	-41,36716	274,775746	281,85166	0
14.01.2021	19:39:15	0	0	5,084003	3,5475	104,076	0,816	77,483	3,5	1005,56	7,4	9,3	9,1	1	1	1	1	1	1	1	1	1	0	1	-42,142354	274,692469	280,684811	0
14.01.2021	19:39:16	0	0	4,067203	3,522	98,7624	0,811	77,486	3,5	1005,56	7,4	9,3	9,1	1	1	1	1	1	1	1	1	1	0	1	-41,437632	274,811325	281,948626	0
14.01.2021	19:39:17	0	0	3,16338	3,375	94,7844	0,813	77,501	3,5	1005,6	7,4	9,3	9,1	1	1	1	1	1	1	1	1	1	0	1	-37,914024	274,666327	284,790264	0
14.01.2021	19:39:18	0	0	2,824446	3,32925	91,9224	0,813	77,498	3,5	1005,6	7,4	9,3	9,1	1	1	1	1	1	1	1	1	1	0	1	-44,749824	274,6694	277,96891	0
14.01.2021	19:39:19	0	0	4,180181	3,3765	92,9808	0,813	77,503	3,5	1005,7	7,4	9,3	9,1	1	1	1	1	1	1	1	1	1	0	1	-38,548273	274,663253	284,141572	0
14.01.2021	19:39:20	0	0	4,971026	3,36825	81,9432	0,819	77,518	3,5	1005,72	7,4	9,3	9,1	1	1	1	1	1	1	1	1	1	0	1	-40,873855	274,805132	282,483257	0
14.01.2021	19:39:21	0	0	2,937424	3,4125	102,5964	0,802	77,514	3,5	1005,52	7,4	9,3	9,1	1	1	1	1	1	1	1	1	1	0	1	-40,169133	274,647894	282,448539	0
14.01.2021	19:39:22	0	0	4,067178	3,33	88,9632	0,81	77,518	3,5	1005,64	7,4	9,3	9,2	1	1	1	1	1	1	1	1	1	0	1	-43,833686	274,811325	279,552573	0
14.01.2021	19:39:23	0	0	2,598491	2,9925	74,9052	0,813	77,53	3,5	1005,56	7,4	9,3	9,1	1	1	1	1	1	1	1	1	1	0	1	-40,239605	274,635616	282,320379	0
14.01.2021	19:39:24	0	0	3,502313	3,2535	75,6252	0,815	77,538	3,5	1005,64	7,4	9,3	9,1	1	1	1	1	1	1	1	1	1	0	1	-41,226216	274,772655	281,978062	0
14.01.2021	19:39:25	0	0	4,293158	3,18975	58,8744	0,808	77,547	3,5	1005,54	7,4	9,3	9,1	1	1	1	1	1	1	1	1	1	0	1	-43,199436	274,761842	279,953966	0
14.01.2021	19:39:26	0	0	2,259544	3,348	98,0676	0,804	77,553	3,5	1005,48	7,4	9,3	9,2	1	1	1	1	1	1	1	1	1	0	1	-39,464412	274,624879	283,045132	0
14.01.2021	19:39:27	0	0	4,293158	3,72825	94,0932	0,809	77,544	3,5	1005,4	7,4	9,3	9,1	1	1	1	1	1	1	1	1	1	0	1	-36,645525	274,734063	286,377212	0
14.01.2021	19:39:28	0	0	4,519087	4,74525	67,2876	0,811	77,552	3,5	1005,66	7,4	9,3	9,2	1	1	1	1	1	1	1	1	1	0	1	-37,914024	274,629479	284,617133	0
14.01.2021	19:39:29	0	0	3,841247	5,00025	74,5488	0,809	77,543	3,5	1005,7	7,4	9,3	9,1	1	1	1	1	1	1	1	1	1	0	1	-34,813249	274,737147	288,223996	0
14.01.2021	19:39:30	0	0	3,728247	5,11275	73,0368	0,805	77,556	3,5	1005,5	7,4	9,3	9,2	1	1	1	1	1	1	1	1	1	0	1	-39,7463	274,797395	283,574394	0
14.01.2021	19:39:31	0	0	4,293158	5,20575	79,4196	0,809	77,56	3,5	1005,66	7,4	9,3	9,1	1	1	1	1	1	1	1	1	1	0	1	-37,209302	274,726354	285,77718	0
14.01.2021	19:39:32	0	0	4,406136	5,15625	83,3436	0,81	77,567	3,5	1005,5	7,4	9,3	9,1	1	1	1	1	1	1	1	1	1	0	1	-43,058492	274,617213	279,415043	0
14.01.2021	19:39:33	0	0	2,485513	4,89675	85,914	0,811	77,571	3,5	1005,72	7,4	9,3	9,1	1	1	1	1	1	1	1	1	1	0	1	-40,239605	274,747947	282,848436	0
14.01.2021	19:39:34	0	0	3,389336	4,653	77,5836	0,806	77,572	3,5	1005,7	7,4	9,3	9,1	1	1	1	1	1	1	1	1	1	0	1	-42,212826	274,81597	281,1953	0
14.01.2021	19:39:35	0	0	3,615291	4,50975	79,4232	0,812	77,572	3,5	1005,58	7,4	9,3	9,1	1	1	1	1	1	1	1	1	1	0	1	-41,296688	274,667863	281,414823	0
14.01.2021	19:39:36	0	0	3,16338	4,116	74,5596	0,808	77,584	3,5	1005,54	7,4	9,3	9,1	1	1	1	1	1	1	1	1	1	0	1	-41,719521	274,792754	281,579332	0
14.01.2021	19:39:37	0	0	2,485513	3,89925	102,9672	0,799	77,587	3,5	1005,52	7,4	9,3	9,1	1	1	1	1	1	1	1	1	1	0	1	-37,350247	274,631013	285,188116	0
14.01.2021	19:39:38	0	0	4,745041	4,31325	72,306	0,809	77,578	3,5	1005,5	7,4	9,3	9,2	1	1	1	1	1	1	1	1	1	0	1	-39,887245	274,743318	283,179023	0
14.01.2021	19:39:39	0	0	3,728269	4,42575	92,6496	0,808	77,588	3,5	1005,66	7,4	9,3	9,1	1	1	1	1	1	1	1	1	1	0	1	-39,675828	274,606486	282,747324	0
14.01.2021	19:39:40	0	0	4,519114	4,2765	85,536	0,808	77,585	3,5	1005,58	7,4	9,3	9,1	1	1	1	1	1	1	1	1	1	0	1	-41,508104	274,764931	281,65983	0
14.01.2021	19:39:41	0	0	4,180181	4,02675	102,9564	0,803	77,584	3,5	1005,56	7,4	9,3	9,1	1	1	1	1	1	1	1	1	1	0	1	-39,041579	274,661717	283,641046	0
14.01.2021	19:39:42	0	0	3,841247	3,84225	97,3944	0,805	77,564	3,5	1005,74	7,4	9,3	9,1	1	1	1	1	1	1	1	1	1	0	1	-35,658915	274,751034	287,443646	0
14.01.2021	19:39:43	0	0	2,711468	3,55575	66,9312	0,805	77,57	3,5	1005,68	7,4	9,3	9,1	1	1	1	1	1	1	1	1	1	0	1	-40,732911	274,760297	282,413227	0
14.01.2021	19:39:44	0	0	2,372535	3,3495	92,9448	0,8	77,575	3,5	1005,5	7,4	9,3	9,1	1	1	1	1	1	1	1	1	1	0	1	-37,984496	274,638685	284,589906	0
14.01.2021	19:39:45	0	0	3,163361	3,22725	78,2964	0,803	77,584	3,5	1005,58	7,4	9,3	9,2	1	1	1	1	1	1	1	1	1	0	1	-40,098661	274,618746	282,382074	0
14.01.2021	19:39:46	0	0	4,519087	3,18075	85,1904	0,804	77,61	3,5	1005,52	7,4	9,3	9,2	1	1	1	1	1	1	1	1	1	0	1	-34,319944	274,74949	288,775357	0
14.01.2021	19:39:47	0	0	2,711468	3,114	75,6432	0,804	77,606	3,5	1005,4	7,4	9,3	9,1	1	1	1	1	1	1	1	1	1	0	1	-36,715997	274,786567	286,553743	0
14.01.2021	19:39:48	0	0	2,598491	2,958	88,596	0,8	77,613	3,5	1005,72	7,4	9,3	9,1	1	1	1	1	1	1	1	1	1	0	1	-41,085271	274,800489	282,249988	0
14.01.2021	19:39:49	0	0	3,502313	2,95275	95,8284	0,803	77,631	3,5	1005,3	7,3	9,3	9,1	1	1	1	1	1	1	1	1	1	0	1	-36,504581	274,777291	286,721512	0
14.01.2021	19:39:50	0	0	5,309959	3,225	67,572	0,804	77,652	3,5	1005,54	7,4	9,3	9,1	1	1	1	1	1	1	1	1	1	0	1	-41,930937	274,786567	281,338803	0
14.01.2021	19:39:51	0	0	4,970996	3,53325	90,8208	0,804	77,652	3,5	1005,66	7,3	9,3	9,2	1	1	1	1	1	1	1	1	1	0	1	-42,142354	274,623345	280,359986	0
14.01.2021	19:39:52	0	0	2,937424	3,645	77,5692	0,803	77,661	3,5	1005,52	7,4	9,3	9,1	1	1	1	1	1	1	1	1	1	0	1	-36,504581	274,74949	286,59072	0
14.01.2021	19:39:53	0	0	3,163361	3,7275	73,0728	0,805	77,681	3,5	1005,62	7,4	9,3	9,2	1	1	1	1	1	1	1	1	1	0	1	-40,732911	274,647894	281,884762	0
14.01.2021	19:39:54	0	0	5,084003	3,7965	75,9708	0,802	77,691	3,5	1005,62	7,4	9,3	9,1	1	1	1	1	1	1	1	1	1	0	1	-48,20296	274,766475	274,972242	0
14.01.2021	19:39:55	0	0	4,40611	3,99375	85,5648	0,799	77,703	3,5	1005,54	7,4	9,3	9,2	1	1	1	1	1	1	1	1	1	0	1	-40,873855	274,621812	281,621283	0
14.01.2021	19:39:56	0	0	4,293158	4,026	81,9936	0,804	77,709	3,5	1005,64	7,4	9,3	9,1	1	1	1	1	1	1	1	1	1	0	1	-41,437632	274,60955	280,999912	0
14.01.2021	19:39:57	0	0	2,711452	4,107	88,1244	0,801	77,72	3,5	1005,6	7,4	9,3	9,2	1	1	1	1	1	1	1	1	1	0	1	-40,169133	274,643289	282,426901	0
14.01.2021	19:39:58	0	0	4,519087	4,08525	88,434	0,801	77,73	3,5	1005,5	7,4	9,3	9,2	1	1	1	1	1	1	1	1	1	0	1	-42,917548	274,76802	280,264922	0
14.01.2021	19:39:59	0	0	2,711468	3,9795	91,548	0,8	77,725	3,5	1005,68	7,4	9,3	9,1	1	1	1	1	1	1	1	1	1	0	1	-36,363636	274,652501	286,275681	0
14.01.2021	19:40:00	0	0	2,598475	3,81675	100,7604	0,799	77,727	3,5	1005,58	7,5	9,3	9,2	1	1	1	1	1	1	1	1	1	0	1	-40,028189	274,660181	282,647216	0
14.01.2021	19:40:01	0	0	2,598475	3,81675	100,7604	0,799	77,727	3,5	1005,58	7,5	9,3	9,2	1	1	1	1	1	1	1	1	1	0	1	-40,028189	274,660181	282,647216	0
14.01.2021	19:40:02	0	0	4,745041	3,642	85,9248	0,803	77,73	3,5	1005,46	7,4	9,3	9,2	1	1	1	1	1	1	1	1	1	0	1	-43,622269	274,752578	279,487553	0
14.01.2021	19:40:03	0	0	3,728269	3,5595	93,7152	0,801	77,723	3,5	1005,56	7,4	9,3	9,1	1	1	1	1	1	1	1	1	1	0	1	-41,155743	274,809776	282,223227	0
14.01.2021	19:40:04	0	0	4,293133	3,5895	95,8536	0,798	77,719	3,5	1005,46	7,4	9,3	9,2	1	1	1	1	1	1	1	1	1	0	1	-39,323467	274,678625	283,43862	0
14.01.2021	19:40:05	0	0	2,824429	3,294	84,4236	0,806	77,72	3,5	1005,52	7,4	9,3	9,2	1	1	1	1	1	1	1	1	1	0	1	-43,481325	274,788114	279,795692	0
14.01.2021	19:40:06	0	0	2,711452	3,261	81,5832	0,799	77,702	3,5	1005,64	7,3	9,3	9,2	1	1	1	1	1	1	1	1	1	0	1	-38,336857	274,741775	284,722153	0
14.01.2021	19:40:07	0	0	3,050384	3,35175	77,6016	0,801	77,7	3,5	1005,38	7,4	9,3	9,2	1	1	1	1	1	1	1	1	1	0	1	-38,195913	274,618746	284,284823	0
14.01.2021	19:40:08	0	0	3,954201	3,2925	78,7284	0,8	77,69	3,5	1005,68	7,4	9,3	9,2	1	1	1	1	1	1	1	1	1	0	1	-38,971106	274,726354	284,015375	0
14.01.2021	19:40:09	0	0	3,276338	3,369	80,1576	0,798	77,684	3,5	1005,46	7,3	9,3	9,2	1	1	1	1	1	1	1	1	1	0	1	-41,296688	274,624879	281,212855	0
14.01.2021	19:40:10	0	0	3,841224	3,468	100,7496	0,805	77,703	3,5	1005,58	7,4	9,3	9,2	1	1	1	1	1	1	1	1	1	0	1	-39,182523	274,777291	284,043569	0
14.01.2021	19:40:11	0	0	4,519087	3,495	96,2172	0,807	77,699	3,5	1005,62	7,4	9,3	9,2	1	1	1	1	1	1	1	1	1	0	1	-40,873855	274,798942	282,454122	0
14.01.2021	19:40:12	0	0	3,050384	3,5955	80,2368	0,805	77,686	3,5	1005,72	7,3	9,3	9,2	1	1	1	1	1	1	1	1	1	0	1	-41,014799	274,727895	281,978932	0
14.01.2021	19:40:13	0	0	2,711468	3,984	88,1424	0,795	77,685	3,5	1005,58	7,5	9,3	9,1	1	1	1	1	1	1	1	1	1	0	1	-39,323467	274,611082	283,121273	0
14.01.2021	19:40:14	0	0	2,824429	4,353	82,602	0,798	77,673	3,5	1005,48	7,3	9,3	9,2	1	1	1	1	1	1	1	1	1	0	1	-43,833686	274,632547	278,711883	0
14.01.2021	19:40:15	0	0	2,824429	4,4325	88,1244	0,8	77,666	3,5	1005,56	7,3	9,3	9,2	1	1	1	1	1	1	1	1	1	0	1	-35,51797	274,652501	287,121347	0
14.01.2021	19:40:16	0	0	2,937407	4,422	88,1172	0,803	77,66	3,5	1005,68	7,4	9,4	9,2	1	1	1	1	1	1	1	1	1	0	1	-40,098661	274,741775	282,960349	0
14.01.2021	19:40:17	0	0	3,502292	4,51725	86,6772	0,801	77,648	3,5	1005,52	7,5	9,3	9,2	1	1	1	1	1	1	1	1	1	0	1	-37,984496	274,78966	285,299799	0
14.01.2021	19:40:18	0	0	3,954225	4,695	84,06	0,792	77,641	3,5	1005,6	7,4	9,3	9,1	1	1	1	1	1	1	1	1	1	0	1	-41,789993	274,700165	281,073351	0
14.01.2021	19:40:19	0	0	4,858048	4,44075	87,4332	0,796	77,624	3,5	1005,54	7,4	9,4	9,1	1	1	1	1	1	1	1	1	1	0	1	-37,068358	274,624879	285,441185	0
14.01.2021	19:40:20	0	0	3,841224	4,3995	90,8028	0,804	77,639	3,5	1005,48	7,3	9,3	9,2	1	1	1	1	1	1	1	1	1	0	1	-38,971106	274,689392	283,841592	0
14.01.2021	19:40:21	0	0	4,406136	4,263	93,726	0,802	77,647	3,5	1005,54	7,4	9,3	9,1	1	1	1	1	1	1	1	1	1	0	1	-37,209302	274,623345	285,293038	0
14.01.2021	19:40:22	0	0	4,858019	4,044	86,6592	0,798	77,649	3,5	1005,6	7,5	9,3	9,2	1	1	1	1	1	1	1	1	1	0	1	-38,407329	274,683238	284,376445	0
14.01.2021	19:40:23	0	0	2,372521	4,08825	96,2316	0,801	77,659	3,5	1005,62	7,3	9,3	9,2	1	1	1	1	1	1	1	1	1	0	1	-37,843552	274,606486	284,5796	0
14.01.2021	19:40:24	0	0	2,259544	4,095	95,1264	0,799	77,653	3,5	1005,68	7,3	9,3	9,2	1	1	1	1	1	1	1	1	1	0	1	-35,799859	274,734063	287,222878	0
14.01.2021	19:40:25	0	0	3,954201	4,071	82,35	0,802	77,672	3,5	1005,68	7,3	9,2	9,2	1	1	1	1	1	1	1	1	1	0	1	-41,226216	274,618746	281,254519	0
14.01.2021	19:40:26	0	0	2,937424	4,11	85,9176	0,794	77,679	3,5	1005,58	7,3	9,4	9,1	1	1	1	1	1	1	1	1	1	0	1	-41,296688	274,741775	281,762323	0
14.01.2021	19:40:27	0	0	3,050384	3,91125	85,1796	0,795	77,69	3,5	1005,52	7,5	9,3	9,2	1	1	1	1	1	1	1	1	1	0	1	-37,068358	274,60955	285,369186	0
14.01.2021	19:40:28	0	0	4,858019	3,84075	80,136	0,793	77,695	3,5	1005,64	7,4	9,2	9,2	1	1	1	1	1	1	1	1	1	0	1	-41,437632	274,744861	281,635892	0
14.01.2021	19:40:29	0	0	3,954225	3,67275	87,7464	0,8	77,709	3,5	1005,66	7,4	9,3	9,1	1	1	1	1	1	1	1	1	1	0	1	-39,252995	274,797395	284,067699	0
14.01.2021	19:40:30	0	0	4,858048	3,4845	86,2668	0,796	77,717	3,5	1005,52	7,3	9,2	9,1	1	1	1	1	1	1	1	1	1	0	1	-38,971106	274,675549	283,776527	0
14.01.2021	19:40:31	0	0	3,16338	3,465	90,8064	0,791	77,723	3,5	1005,7	7,4	9,3	9,1	1	1	1	1	1	1	1	1	1	0	1	-35,940803	274,797395	287,379891	0
14.01.2021	19:40:32	0	0	2,372521	3,46725	96,5772	0,791	77,734	3,5	1005,66	7,3	9,3	9,2	1	1	1	1	1	1	1	1	1	0	1	-39,605356	274,712485	283,31591	0
14.01.2021	19:40:33	0	0	3,954201	3,28425	96,9696	0,801	77,736	3,5	1005,56	7,5	9,3	9,2	1	1	1	1	1	1	1	1	1	0	1	-40,310078	274,623345	282,192263	0
14.01.2021	19:40:34	0	0	4,519087	3,279	95,1372	0,798	77,753	3,5	1005,7	7,4	9,3	9,2	1	1	1	1	1	1	1	1	1	0	1	-39,675828	274,727895	283,317904	0
14.01.2021	19:40:35	0	0	4,858019	3,10725	88,11	0,796	77,77	3,5	1005,6	7,3	9,3	9,2	1	1	1	1	1	1	1	1	1	0	1	-40,028189	274,797395	283,292506	0
14.01.2021	19:40:36	0	0	2,824446	3,00975	101,8152	0,793	77,781	3,5	1005,38	7,3	9,3	9,1	1	1	1	1	1	1	1	1	1	0	1	-34,601832	274,650965	288,030269	0
14.01.2021	19:40:37	0	0	4,180155	3,14325	89,3268	0,798	77,799	3,5	1005,58	7,4	9,3	9,2	1	1	1	1	1	1	1	1	1	0	1	-38,548273	274,611082	283,896467	0
14.01.2021	19:40:38	0	0	3,841224	3,58725	86,2668	0,799	77,804	3,5	1005,6	7,3	9,3	9,2	1	1	1	1	1	1	1	1	1	0	1	-41,649049	274,760297	281,497089	0
14.01.2021	19:40:39	0	0	3,841247	3,7275	80,9064	0,798	77,815	3,5	1005,62	7,3	9,2	9,1	1	1	1	1	1	1	1	1	1	0	1	-38,12544	274,740232	284,926314	0
14.01.2021	19:40:40	0	0	3,163361	3,606	96,2028	0,797	77,813	3,5	1005,6	7,4	9,3	9,2	1	1	1	1	1	1	1	1	1	0	1	-40,662438	274,795848	282,650975	0
14.01.2021	19:40:41	0	0	3,050402	3,45525	90,0072	0,793	77,831	3,5	1005,56	7,5	9,4	9,1	1	1	1	1	1	1	1	1	1	0	1	-41,860465	274,712485	281,060801	0
14.01.2021	19:40:42	0	0	3,502292	3,3825	93,3732	0,789	77,829	3,5	1005,52	7,5	9,3	9,2	1	1	1	1	1	1	1	1	1	0	1	-36,575053	274,623345	285,927287	0
14.01.2021	19:40:43	0	0	4,970996	3,291	79,7688	0,792	77,832	3,5	1005,4	7,4	9,3	9,2	1	1	1	1	1	1	1	1	1	0	1	-42,706131	274,724812	280,273102	0
14.01.2021	19:40:44	0	0	4,519087	3,06375	73,458	0,791	77,851	3,5	1005,52	7,4	9,4	9,2	1	1	1	1	1	1	1	1	1	0	1	-35,447498	274,778837	287,785867	0
14.01.2021	19:40:45	0	0	4,293133	2,8965	73,0332	0,796	77,862	3,5	1005,64	7,4	9,3	9,2	1	1	1	1	1	1	1	1	1	0	1	-38,12544	274,663253	284,564405	0
14.01.2021	19:40:46	0	0	3,61527	2,78925	58,4892	0,797	77,87	3,5	1005,58	7,4	9,4	9,2	1	1	1	1	1	1	1	1	1	0	1	-41,930937	274,788114	281,34608	0
14.01.2021	19:40:47	0	0	4,180155	2,74575	80,8776	0,796	77,861	3,5	1005,58	7,3	9,3	9,2	1	1	1	1	1	1	1	1	1	0	1	-37,77308	274,655572	284,880671	0
14.01.2021	19:40:48	0	0	3,954201	2,742	79,038	0,802	77,836	3,5	1005,52	7,4	9,3	9,2	1	1	1	1	1	1	1	1	1	0	1	-41,085271	274,788114	282,191746	0
14.01.2021	19:40:49	0	0	3,502292	2,922	71,9892	0,793	77,84	3,5	1005,48	7,4	9,3	9,2	1	1	1	1	1	1	1	1	1	0	1	-41,085271	274,772655	282,119007	0
14.01.2021	19:40:50	0	0	3,954225	3,06	82,5876	0,794	77,825	3,5	1005,46	7,4	9,3	9,1	1	1	1	1	1	1	1	1	1	0	1	-40,310078	274,660181	282,365328	0
14.01.2021	19:40:51	0	0	3,389315	3,01125	86,6772	0,796	77,805	3,5	1005,46	7,3	9,3	9,2	1	1	1	1	1	1	1	1	1	0	1	-35,51797	274,792754	287,780882	0
14.01.2021	19:40:52	0	0	2,598491	2,9115	96,5772	0,795	77,805	3,5	1005,58	7,4	9,3	9,1	1	1	1	1	1	1	1	1	1	0	1	-39,041579	274,6694	283,677155	0
14.01.2021	19:40:53	0	0	2,598475	3,17625	99,1548	0,794	77,8	3,5	1005,5	7,4	9,3	9,2	1	1	1	1	1	1	1	1	1	0	1	-39,393939	274,794301	283,912193	0
14.01.2021	19:40:54	0	0	4,180155	3,44625	85,1904	0,793	77,784	3,5	1005,48	7,3	9,2	9,2	1	1	1	1	1	1	1	1	1	0	1	-35,236082	274,672475	287,497101	0
14.01.2021	19:40:55	0	0	2,485498	3,23925	91,1556	0,792	77,779	3,5	1005,56	7,4	9,3	9,2	1	1	1	1	1	1	1	1	1	0	1	-42,35377	274,640219	280,227842	0
14.01.2021	19:40:56	0	0	2,937407	2,81775	86,3604	0,796	77,759	3,5	1005,46	7,4	9,3	9,2	1	1	1	1	1	1	1	1	1	0	1	-39,534884	274,795848	283,77853	0
14.01.2021	19:40:57	0	0	3,954201	2,57175	81,2088	0,795	77,759	3,5	1005,56	7,3	9,3	9,2	1	1	1	1	1	1	1	1	1	0	1	-38,195913	274,672475	284,53727	0
14.01.2021	19:40:58	0	0	4,40611	2,517	73,4436	0,792	77,73	3,5	1005,48	7,5	9,3	9,2	1	1	1	1	1	1	1	1	1	0	1	-37,77308	274,7742	285,438469	0
14.01.2021	19:40:59	0	0	3,163361	2,4225	83,7504	0,798	77,738	3,5	1005,54	7,4	9,3	9,2	1	1	1	1	1	1	1	1	1	0	1	-38,266385	274,677087	284,488475	0
14.01.2021	19:41:00	0	0	4,067178	2,4225	73,4436	0,793	77,714	3,5	1005,64	7,3	9,3	9,2	1	1	1	1	1	1	1	1	1	0	1	-36,575053	274,744861	286,498472	0
14.01.2021	19:41:01	0	0	2,485498	2,4135	88,1136	0,796	77,707	3,5	1005,48	7,4	9,3	9,2	1	1	1	1	1	1	1	1	1	0	1	-41,36716	274,811325	282,019098	0
14.01.2021	19:41:02	0	0	2,485498	2,4135	88,1136	0,796	77,707	3,5	1005,48	7,4	9,3	9,2	1	1	1	1	1	1	1	1	1	0	1	-41,36716	274,811325	282,019098	0
14.01.2021	19:41:03	0	0	2,598475	2,47725	86,6484	0,787	77,696	3,5	1005,46	7,4	9,3	9,2	1	1	1	1	1	1	1	1	1	0	1	-40,310078	274,714025	282,618432	0
14.01.2021	19:41:04	0	0	4,971026	2,40975	82,998	0,794	77,689	3,5	1005,6	7,4	9,2	9,1	1	1	1	1	1	1	1	1	1	0	1	-39,534884	274,629479	282,996273	0
14.01.2021	19:41:05	0	0	2,824446	2,66025	85,1688	0,796	77,67	3,5	1005,56	7,3	9,4	9,1	1	1	1	1	1	1	1	1	1	0	1	-36,081748	274,734063	286,94099	0
14.01.2021	19:41:06	0	0	2,485513	2,76525	95,5044	0,793	77,659	3,5	1005,52	7,4	9,3	9,1	1	1	1	1	1	1	1	1	1	0	1	-39,323467	274,792754	283,975385	0
14.01.2021	19:41:07	0	0	2,824429	3,12375	80,2476	0,787	77,667	3,5	1005,5	7,4	9,4	9,2	1	1	1	1	1	1	1	1	1	0	1	-34,249471	274,654036	288,397062	0
14.01.2021	19:41:08	0	0	4,971026	3,44775	80,892	0,79	77,647	3,5	1005,38	7,4	9,4	9,1	1	1	1	1	1	1	1	1	1	0	1	-39,323467	274,638685	283,250935	0
14.01.2021	19:41:09	0	0	2,598475	3,93825	86,274	0,796	77,655	3,5	1005,6	7,4	9,2	9,2	1	1	1	1	1	1	1	1	1	0	1	-38,830162	274,658644	283,838024	0
14.01.2021	19:41:10	0	0	2,598475	4,434	85,1868	0,794	77,654	3,5	1005,7	7,4	9,3	9,2	1	1	1	1	1	1	1	1	1	0	1	-37,13883	274,618746	285,341905	0
14.01.2021	19:41:11	0	0	2,824446	4,722	82,458	0,791	77,623	3,5	1005,56	7,4	9,4	9,1	1	1	1	1	1	1	1	1	1	0	1	-38,75969	274,712485	284,161576	0
14.01.2021	19:41:12	0	0	4,293133	4,84575	85,5252	0,794	77,627	3,5	1005,54	7,4	9,4	9,2	1	1	1	1	1	1	1	1	1	0	1	-34,954193	274,60955	287,483351	0
14.01.2021	19:41:13	0	0	4,632092	4,884	90,414	0,789	77,629	3,5	1005,5	7,4	9,3	9,1	1	1	1	1	1	1	1	1	1	0	1	-36,504581	274,677087	286,25028	0
14.01.2021	19:41:14	0	0	5,422904	4,53075	85,5288	0,791	77,613	3,5	1005,6	7,4	9,3	9,2	1	1	1	1	1	1	1	1	1	0	1	-40,944327	274,757209	282,187282	0
14.01.2021	19:41:15	0	0	2,598475	4,359	86,6772	0,791	77,612	3,5	1005,56	7,4	9,4	9,2	1	1	1	1	1	1	1	1	1	0	1	-41,085271	274,652501	281,554046	0
14.01.2021	19:41:16	0	0	4,519087	4,2645	97,2936	0,791	77,6	3,5	1005,5	7,4	9,3	9,2	1	1	1	1	1	1	1	1	1	0	1	-38,12544	274,794301	285,180692	0
14.01.2021	19:41:17	0	0	4,406136	4,6785	84,78	0,794	77,614	3,5	1005,62	7,5	9,2	9,1	1	1	1	1	1	1	1	1	1	0	1	-41,649049	274,757209	281,48256	0
14.01.2021	19:41:18	0	0	4,858019	5,0085	88,974	0,792	77,604	3,5	1005,62	7,4	9,3	9,2	1	1	1	1	1	1	1	1	1	0	1	-40,944327	274,802037	282,398216	0
14.01.2021	19:41:19	0	0	3,841247	4,73925	94,0824	0,788	77,593	3,5	1005,64	7,4	9,3	9,1	1	1	1	1	1	1	1	1	1	0	1	-42,001409	274,710944	280,912614	0
14.01.2021	19:41:20	0	0	3,728269	4,6935	85,9248	0,789	77,592	3,5	1005,56	7,4	9,2	9,1	1	1	1	1	1	1	1	1	1	0	1	-39,393939	274,611082	283,050801	0
14.01.2021	19:41:21	0	0	3,728247	4,4445	69,9516	0,785	77,594	3,5	1005,56	7,5	9,4	9,2	1	1	1	1	1	1	1	1	1	0	1	-42,98802	274,667863	279,723491	0
14.01.2021	19:41:22	0	0	2,711452	4,3155	80,5248	0,788	77,591	3,5	1005,5	7,4	9,3	9,2	1	1	1	1	1	1	1	1	1	0	1	-40,028189	274,760297	283,117948	0
14.01.2021	19:41:23	0	0	4,74507	4,482	76,3632	0,783	77,61	3,5	1005,56	7,4	9,3	9,1	1	1	1	1	1	1	1	1	1	0	1	-40,521494	274,755665	282,602852	0
14.01.2021	19:41:24	0	0	4,519087	4,5	88,5672	0,783	77,606	3,5	1005,44	7,4	9,2	9,2	1	1	1	1	1	1	1	1	1	0	1	-42,212826	274,747947	280,875216	0
14.01.2021	19:41:25	0	0	3,954225	4,3125	94,4784	0,783	77,605	3,5	1005,4	7,4	9,4	9,1	1	1	1	1	1	1	1	1	1	0	1	-35,870331	274,612615	286,581607	0
14.01.2021	19:41:26	0	0	3,841224	4,287	94,3884	0,79	77,62	3,5	1005,7	7,4	9,3	9,2	1	1	1	1	1	1	1	1	1	0	1	-36,081748	274,712485	286,839518	0
14.01.2021	19:41:27	0	0	4,519087	4,626	97,704	0,788	77,626	3,5	1005,56	7,4	9,3	9,2	1	1	1	1	1	1	1	1	1	0	1	-37,068358	274,61568	285,397977	0
14.01.2021	19:41:28	0	0	2,598491	4,91475	90,0252	0,788	77,626	3,5	1005,6	7,4	9,3	9,1	1	1	1	1	1	1	1	1	1	0	1	-35,729387	274,710944	287,184636	0
14.01.2021	19:41:29	0	0	2,711452	4,62375	87,7392	0,786	77,639	3,5	1005,4	7,4	9,3	9,2	1	1	1	1	1	1	1	1	1	0	1	-40,803383	274,780383	282,437256	0
14.01.2021	19:41:30	0	0	2,598491	4,293	80,1324	0,786	77,658	3,5	1005,4	7,4	9,3	9,1	1	1	1	1	1	1	1	1	1	0	1	-39,534884	274,641754	283,053939	0
14.01.2021	19:41:31	0	0	3,841247	4,42875	74,916	0,782	77,679	3,5	1005,5	7,4	9,3	9,1	1	1	1	1	1	1	1	1	1	0	1	-37,984496	274,667863	284,727015	0
14.01.2021	19:41:32	0	0	2,824446	4,6545	79,776	0,784	77,686	3,5	1005,6	7,4	9,3	9,1	1	1	1	1	1	1	1	1	1	0	1	-41,296688	274,78966	281,987607	0
14.01.2021	19:41:33	0	0	4,180155	4,5285	95,8428	0,782	77,696	3,5	1005,5	7,4	9,3	9,2	1	1	1	1	1	1	1	1	1	0	1	-36,222692	274,667863	286,488819	0
14.01.2021	19:41:34	0	0	2,598491	4,13625	99,8748	0,783	77,685	3,5	1005,44	7,4	9,3	9,1	1	1	1	1	1	1	1	1	1	0	1	-37,843552	274,646359	284,766907	0
14.01.2021	19:41:35	0	0	3,389336	3,80625	88,9488	0,784	77,696	3,5	1005,58	7,4	9,3	9,1	1	1	1	1	1	1	1	1	1	0	1	-35,024665	274,618746	287,45607	0
14.01.2021	19:41:36	0	0	2,937424	3,708	103,0356	0,778	77,688	3,5	1005,56	7,3	9,3	9,1	1	1	1	1	1	1	1	1	1	0	1	-39,534884	274,746404	283,545899	0
14.01.2021	19:41:37	0	0	3,728269	3,81	92,6568	0,784	77,714	3,5	1005,62	7,4	9,3	9,1	1	1	1	1	1	1	1	1	1	0	1	-37,632135	274,727895	285,361596	0
14.01.2021	19:41:38	0	0	2,937424	4,07775	94,1076	0,78	77,71	3,5	1005,66	7,4	9,3	9,1	1	1	1	1	1	1	1	1	1	0	1	-40,521494	274,621812	281,973644	0
14.01.2021	19:41:39	0	0	4,632092	4,041	85,5504	0,783	77,701	3,5	1005,66	7,4	9,2	9,1	1	1	1	1	1	1	1	1	1	0	1	-38,477801	274,77111	284,719207	0
14.01.2021	19:41:40	0	0	3,389315	4,011	91,9008	0,781	77,715	3,5	1005,6	7,4	9,3	9,2	1	1	1	1	1	1	1	1	1	0	1	-36,222692	274,791207	287,068881	0
14.01.2021	19:41:41	0	0	3,954225	3,8595	82,602	0,785	77,724	3,5	1005,56	7,4	9,3	9,1	1	1	1	1	1	1	1	1	1	0	1	-37,068358	274,672475	285,664824	0
14.01.2021	19:41:42	0	0	3,389336	3,83175	81,198	0,78	77,728	3,5	1005,56	7,4	9,3	9,1	1	1	1	1	1	1	1	1	1	0	1	-41,649049	274,747947	281,438993	0
14.01.2021	19:41:43	0	0	4,632092	4,146	82,6164	0,779	77,719	3,5	1005,52	7,4	9,2	9,1	1	1	1	1	1	1	1	1	1	0	1	-37,209302	274,60955	285,228241	0
14.01.2021	19:41:44	0	0	4,74507	4,191	89,73	0,79	77,743	3,5	1005,5	7,4	9,3	9,1	1	1	1	1	1	1	1	1	1	0	1	-36,081748	274,746404	286,999035	0
14.01.2021	19:41:45	0	0	4,406136	3,95175	84,4092	0,774	77,74	3,5	1005,56	7,4	9,3	9,1	1	1	1	1	1	1	1	1	1	0	1	-37,843552	274,786567	285,426188	0
14.01.2021	19:41:46	0	0	2,598491	3,81375	89,7048	0,779	77,734	3,5	1005,54	7,4	9,4	9,1	1	1	1	1	1	1	1	1	1	0	1	-37,068358	274,743318	285,997909	0
14.01.2021	19:41:47	0	0	4,74507	3,82575	90,0396	0,776	77,733	3,5	1005,54	7,4	9,3	9,1	1	1	1	1	1	1	1	1	1	0	1	-35,095137	274,612615	287,356801	0
14.01.2021	19:41:48	0	0	2,711468	3,79875	94,3884	0,775	77,742	3,5	1005,52	7,4	9,4	9,1	1	1	1	1	1	1	1	1	1	0	1	-35,940803	274,612615	286,511135	0
14.01.2021	19:41:49	0	0	4,971026	3,7785	92,9592	0,782	77,755	3,5	1005,48	7,4	9,3	9,1	1	1	1	1	1	1	1	1	1	0	1	-45,384073	274,689392	277,428625	0
14.01.2021	19:41:50	0	0	2,485513	3,94425	95,5188	0,782	77,772	3,5	1005,68	7,4	9,3	9,1	1	1	1	1	1	1	1	1	1	0	1	-34,883721	274,61568	287,582614	0
14.01.2021	19:41:51	0	0	2,372535	3,9915	100,3932	0,778	77,763	3,5	1005,72	7,4	9,3	9,1	1	1	1	1	1	1	1	1	1	0	1	-33,403805	274,643289	289,192229	0
14.01.2021	19:41:52	0	0	4,180181	3,9765	98,0784	0,773	77,745	3,5	1005,6	7,4	9,3	9,1	1	1	1	1	1	1	1	1	1	0	1	-33,403805	274,644824	289,199441	0
14.01.2021	19:41:53	0	0	3,954201	3,62625	84,0564	0,773	77,758	3,5	1005,64	7,4	9,3	9,2	1	1	1	1	1	1	1	1	1	0	1	-37,350247	274,647894	285,267426	0
14.01.2021	19:41:54	0	0	4,858048	3,387	80,1432	0,778	77,754	3,5	1005,54	7,4	9,4	9,1	1	1	1	1	1	1	1	1	1	0	1	-38,548273	274,788114	284,728744	0
14.01.2021	19:41:55	0	0	2,372521	3,37425	86,67	0,774	77,772	3,5	1005,38	7,4	9,3	9,2	1	1	1	1	1	1	1	1	1	0	1	-37,561663	274,730979	285,44657	0
14.01.2021	19:41:56	0	0	2,711452	3,65475	88,9416	0,776	77,772	3,5	1005,6	7,4	9,4	9,2	1	1	1	1	1	1	1	1	1	0	1	-37,13883	274,781929	286,109083	0
14.01.2021	19:41:57	0	0	3,954225	3,8355	91,9008	0,774	77,776	3,5	1005,7	7,4	9,3	9,1	1	1	1	1	1	1	1	1	1	0	1	-37,491191	274,785021	285,771273	0
14.01.2021	19:41:58	0	0	4,74507	3,64275	80,1468	0,775	77,787	3,5	1005,76	7,4	9,3	9,1	1	1	1	1	1	1	1	1	1	0	1	-37,350247	274,808228	286,021437	0
14.01.2021	19:41:59	0	0	4,406136	3,7335	66,528	0,776	77,805	3,5	1005,48	7,4	9,3	9,1	1	1	1	1	1	1	1	1	1	0	1	-37,068358	274,670938	285,6576	0
14.01.2021	19:42:00	0	0	2,711468	3,9405	81,2124	0,779	77,801	3,5	1005,52	7,4	9,2	9,1	1	1	1	1	1	1	1	1	1	0	1	-36,786469	274,744861	286,287055	0
14.01.2021	19:42:01	0	0	4,293158	3,93975	85,1868	0,768	77,808	3,5	1005,56	7,4	9,3	9,1	1	1	1	1	1	1	1	1	1	0	1	-35,870331	274,802037	287,472212	0
14.01.2021	19:42:02	0	0	4,293158	3,93975	85,1868	0,768	77,808	3,5	1005,56	7,4	9,3	9,1	1	1	1	1	1	1	1	1	1	0	1	-35,870331	274,802037	287,472212	0
14.01.2021	19:42:03	0	0	2,598491	4,14975	86,292	0,774	77,789	3,5	1005,52	7,4	9,3	9,1	1	1	1	1	1	1	1	1	1	0	1	-40,098661	274,631013	282,439701	0
14.01.2021	19:42:04	0	0	3,502313	4,4415	86,9652	0,771	77,787	3,5	1005,6	7,4	9,3	9,1	1	1	1	1	1	1	1	1	1	0	1	-35,306554	274,657108	287,354414	0
14.01.2021	19:42:05	0	0	3,954225	4,75425	84,5208	0,777	77,797	3,5	1005,6	7,4	9,3	9,1	1	1	1	1	1	1	1	1	1	0	1	-36,011276	274,781929	287,236638	0
14.01.2021	19:42:06	0	0	4,067203	5,3715	82,3428	0,778	77,778	3,5	1005,64	7,4	9,3	9,1	1	1	1	1	1	1	1	1	1	0	1	-41,437632	274,781929	281,810281	0
14.01.2021	19:42:07	0	0	3,841247	5,6265	95,5116	0,774	77,778	3,5	1005,56	7,4	9,4	9,1	1	1	1	1	1	1	1	1	1	0	1	-34,954193	274,632547	287,591376	0
14.01.2021	19:42:08	0	0	4,858048	5,77575	85,5072	0,778	77,787	3,5	1005,74	7,4	9,3	9,1	1	1	1	1	1	1	1	1	1	0	1	-40,239605	274,635616	282,320379	0
14.01.2021	19:42:09	0	0	2,711468	5,8245	84,7944	0,777	77,786	3,5	1005,72	7,4	9,3	9,1	1	1	1	1	1	1	1	1	1	0	1	-38,75969	274,690931	284,060242	0
14.01.2021	19:42:10	0	0	3,615291	5,73225	85,8744	0,775	77,772	3,5	1005,52	7,4	9,2	9,1	1	1	1	1	1	1	1	1	1	0	1	-37,702607	274,61568	284,763728	0
14.01.2021	19:42:11	0	0	4,74507	5,682	79,4232	0,771	77,789	3,5	1005,46	7,4	9,3	9,1	1	1	1	1	1	1	1	1	1	0	1	-36,715997	274,698626	286,14011	0
14.01.2021	19:42:12	0	0	3,16338	5,4405	85,5144	0,773	77,785	3,5	1005,62	7,4	9,3	9,1	1	1	1	1	1	1	1	1	1	0	1	-38,689218	274,635616	283,870766	0
14.01.2021	19:42:13	0	0	4,180181	5,07075	77,5764	0,776	77,805	3,5	1005,68	7,4	9,3	9,1	1	1	1	1	1	1	1	1	1	0	1	-37,843552	274,729437	285,15743	0
14.01.2021	19:42:14	0	0	4,067178	5,196	85,1868	0,777	77,811	3,5	1005,62	7,4	9,3	9,2	1	1	1	1	1	1	1	1	1	0	1	-32,276251	274,620279	290,211685	0
14.01.2021	19:42:15	0	0	3,728269	5,47875	76,338	0,772	77,823	3,5	1005,58	7,4	9,3	9,1	1	1	1	1	1	1	1	1	1	0	1	-37,491191	274,680162	285,278125	0
14.01.2021	19:42:16	0	0	4,180155	5,66175	79,4088	0,77	77,847	3,5	1005,66	7,4	9,3	9,2	1	1	1	1	1	1	1	1	1	0	1	-41,014799	274,805132	282,342313	0
14.01.2021	19:42:17	0	0	2,937424	5,50725	87,372	0,772	77,868	3,5	1005,58	7,4	9,3	9,1	1	1	1	1	1	1	1	1	1	0	1	-37,068358	274,675549	285,679276	0
14.01.2021	19:42:18	0	0	2,598491	5,3595	82,6164	0,776	77,873	3,5	1005,56	7,4	9,3	9,1	1	1	1	1	1	1	1	1	1	0	1	-36,715997	274,640219	285,865615	0
14.01.2021	19:42:19	0	0	2,824446	5,07675	90,7704	0,771	77,879	3,5	1005,56	7,4	9,3	9,1	1	1	1	1	1	1	1	1	1	0	1	-38,054968	274,66479	284,642098	0
14.01.2021	19:42:20	0	0	3,276358	5,08875	88,668	0,764	77,883	3,5	1005,58	7,4	9,3	9,1	1	1	1	1	1	1	1	1	1	0	1	-39,112051	274,618746	283,368684	0
14.01.2021	19:42:21	0	0	4,406136	4,89225	105,498	0,774	77,883	3,5	1005,68	7,4	9,3	9,1	1	1	1	1	1	1	1	1	1	0	1	-38,75969	274,78966	284,524605	0
14.01.2021	19:42:22	0	0	2,711468	4,80375	113,4252	0,767	77,877	3,5	1005,48	7,4	9,3	9,1	1	1	1	1	1	1	1	1	1	0	1	-36,293164	274,758753	286,845709	0
14.01.2021	19:42:23	0	0	2,937424	4,6695	96,9912	0,77	77,872	3,5	1005,62	7,4	9,3	9,1	1	1	1	1	1	1	1	1	1	0	1	-35,447498	274,802037	287,895045	0
14.01.2021	19:42:24	0	0	4,180155	4,53975	102,9852	0,772	77,874	3,5	1005,6	7,4	9,3	9,2	1	1	1	1	1	1	1	1	1	0	1	-38,336857	274,718647	284,613387	0
14.01.2021	19:42:25	0	0	2,598491	4,428	104,4288	0,776	77,882	3,5	1005,7	7,4	9,4	9,1	1	1	1	1	1	1	1	1	1	0	1	-40,451022	274,612615	282,000916	0
14.01.2021	19:42:26	0	0	3,728269	4,45125	102,5568	0,768	77,867	3,5	1005,54	7,4	9,3	9,1	1	1	1	1	1	1	1	1	1	0	1	-38,12544	274,697086	284,72343	0
14.01.2021	19:42:27	0	0	4,519114	4,6005	104,0292	0,771	77,887	3,5	1005,5	7,4	9,3	9,1	1	1	1	1	1	1	1	1	1	0	1	-34,319944	274,795848	288,99347	0
14.01.2021	19:42:28	0	0	2,937424	4,599	93,3192	0,77	77,885	3,5	1005,7	7,4	9,3	9,1	1	1	1	1	1	1	1	1	1	0	1	-45,806906	274,660181	276,868499	0
14.01.2021	19:42:29	0	0	3,728269	4,80975	86,274	0,773	77,906	3,5	1005,58	7,4	9,3	9,1	1	1	1	1	1	1	1	1	1	0	1	-40,451022	274,6694	282,267712	0
14.01.2021	19:42:30	0	0	2,485513	4,44525	74,1564	0,773	77,908	3,5	1005,5	7,4	9,3	9,1	1	1	1	1	1	1	1	1	1	0	1	-39,112051	274,61568	283,354284	0
14.01.2021	19:42:31	0	0	3,502313	3,72375	93,6936	0,772	77,902	3,5	1005,52	7,4	9,3	9,1	1	1	1	1	1	1	1	1	1	0	1	-40,662438	274,6694	282,056296	0
14.01.2021	19:42:32	0	0	3,728269	3,38025	105,1272	0,767	77,893	3,5	1005,62	7,4	9,3	9,1	1	1	1	1	1	1	1	1	1	0	1	-41,226216	274,788114	282,050802	0
14.01.2021	19:42:33	0	0	3,389315	2,94	103,3308	0,774	77,901	3,5	1005,58	7,4	9,3	9,2	1	1	1	1	1	1	1	1	1	0	1	-38,266385	274,686315	284,53185	0
14.01.2021	19:42:34	0	0	2,937424	2,73075	91,9152	0,778	77,886	3,5	1005,54	7,4	9,3	9,1	1	1	1	1	1	1	1	1	1	0	1	-37,350247	274,626412	285,1665	0
14.01.2021	19:42:35	0	0	4,180181	3,17475	105,1632	0,771	77,882	3,5	1005,42	7,4	9,3	9,1	1	1	1	1	1	1	1	1	1	0	1	-43,481325	274,672475	279,251857	0
14.01.2021	19:42:36	0	0	2,711468	3,37275	87,7428	0,775	77,896	3,5	1005,58	7,4	9,3	9,1	1	1	1	1	1	1	1	1	1	0	1	-31,782946	274,805132	291,574166	0
14.01.2021	19:42:37	0	0	4,180181	3,45525	119,0628	0,77	77,886	3,5	1005,7	7,4	9,3	9,1	1	1	1	1	1	1	1	1	1	0	1	-36,575053	274,670938	286,150905	0
14.01.2021	19:42:38	0	0	4,067203	3,41325	74,5452	0,767	77,895	3,5	1005,54	7,4	9,3	9,1	1	1	1	1	1	1	1	1	1	0	1	-38,336857	274,663253	284,352988	0
14.01.2021	19:42:39	0	0	3,16338	3,47925	102,9528	0,773	77,887	3,5	1005,42	7,4	9,4	9,1	1	1	1	1	1	1	1	1	1	0	1	-36,575053	274,646359	286,035406	0
14.01.2021	19:42:40	0	0	3,389336	3,579	88,5744	0,766	77,883	3,5	1005,6	7,4	9,3	9,1	1	1	1	1	1	1	1	1	1	0	1	-35,16561	274,791207	288,125964	0
14.01.2021	19:42:41	0	0	4,406136	3,708	96,2172	0,775	77,886	3,5	1005,6	7,4	9,3	9,1	1	1	1	1	1	1	1	1	1	0	1	-38,971106	274,80668	284,393291	0
14.01.2021	19:42:42	0	0	3,050402	3,52125	92,9988	0,774	77,866	3,5	1005,58	7,4	9,3	9,1	1	1	1	1	1	1	1	1	1	0	1	-36,504581	274,66479	286,192486	0
14.01.2021	19:42:43	0	0	3,841247	3,32325	90,8172	0,776	77,866	3,5	1005,66	7,4	9,3	9,1	1	1	1	1	1	1	1	1	1	0	1	-35,306554	274,620279	287,181382	0
14.01.2021	19:42:44	0	0	4,858048	3,087	99,522	0,768	77,857	3,5	1005,6	7,4	9,3	9,1	1	1	1	1	1	1	1	1	1	0	1	-38,830162	274,769565	284,359576	0
14.01.2021	19:42:45	0	0	2,937424	3,1485	98,7768	0,77	77,849	3,5	1005,58	7,4	9,3	9,1	1	1	1	1	1	1	1	1	1	0	1	-36,997886	274,706324	285,894414	0
14.01.2021	19:42:46	0	0	3,389336	3,55725	100,3896	0,772	77,837	3,5	1005,6	7,4	9,3	9,1	1	1	1	1	1	1	1	1	1	0	1	-39,182523	274,624879	283,32702	0
14.01.2021	19:42:47	0	0	2,598491	3,74625	89,7264	0,77	77,819	3,5	1005,56	7,4	9,3	9,1	1	1	1	1	1	1	1	1	1	0	1	-38,054968	274,727895	284,938763	0
14.01.2021	19:42:48	0	0	4,293158	3,73125	97,704	0,773	77,801	3,5	1005,44	7,4	9,3	9,1	1	1	1	1	1	1	1	1	1	0	1	-36,715997	274,634082	285,836779	0
14.01.2021	19:42:49	0	0	4,180181	3,79875	96,9588	0,765	77,795	3,5	1005,5	7,4	9,3	9,1	1	1	1	1	1	1	1	1	1	0	1	-37,702607	274,647894	284,915065	0
14.01.2021	19:42:50	0	0	4,406136	3,58275	95,5404	0,77	77,803	3,5	1005,58	7,4	9,3	9,1	1	1	1	1	1	1	1	1	1	0	1	-36,856942	274,680162	285,912374	0
14.01.2021	19:42:51	0	0	3,615291	3,5025	93,3372	0,766	77,785	3,5	1005,52	7,4	9,3	9,1	1	1	1	1	1	1	1	1	1	0	1	-36,856942	274,620279	285,630995	0
14.01.2021	19:42:52	0	0	3,050402	3,76125	93,3264	0,763	77,803	3,5	1005,7	7,4	9,3	9,1	1	1	1	1	1	1	1	1	1	0	1	-39,041579	274,667863	283,669932	0
14.01.2021	19:42:53	0	0	3,615291	4,095	92,9448	0,771	77,818	3,5	1005,68	7,4	9,3	9,1	1	1	1	1	1	1	1	1	1	0	1	-30,232558	274,614147	292,226578	0
14.01.2021	19:42:54	0	0	2,485513	4,323	88,956	0,768	77,817	3,5	1005,68	7,4	9,3	9,1	1	1	1	1	1	1	1	1	1	0	1	-37,350247	274,717106	285,592752	0
14.01.2021	19:42:55	0	0	2,598491	4,29	91,152	0,771	77,836	3,5	1005,7	7,4	9,3	9,1	1	1	1	1	1	1	1	1	1	0	1	-38,900634	274,646359	283,709825	0
14.01.2021	19:42:56	0	0	4,74507	4,00575	83,3616	0,765	77,848	3,5	1005,56	7,4	9,3	9,1	1	1	1	1	1	1	1	1	1	0	1	-37,702607	274,766475	285,472595	0
14.01.2021	19:42:57	0	0	3,389336	3,98175	88,128	0,775	77,849	3,5	1005,58	7,4	9,3	9,1	1	1	1	1	1	1	1	1	1	0	1	-36,011276	274,752578	287,098547	0
14.01.2021	19:42:58	0	0	3,16338	4,08975	101,4768	0,769	77,865	3,5	1005,56	7,4	9,3	9,1	1	1	1	1	1	1	1	1	1	0	1	-33,051445	274,641754	289,537378	0
14.01.2021	19:42:59	0	0	2,598491	4,00725	96,2136	0,773	77,883	3,5	1005,48	7,4	9,3	9,1	1	1	1	1	1	1	1	1	1	0	1	-40,310078	274,78966	282,974217	0
14.01.2021	19:43:00	0	0	2,598491	3,708	88,5996	0,773	77,884	3,5	1005,7	7,4	9,3	9,1	1	1	1	1	1	1	1	1	1	0	1	-40,803383	274,76802	282,379087	0
14.01.2021	19:43:01	0	0	3,276358	3,52725	87,7176	0,77	77,881	3,5	1005,6	7,4	9,3	9,1	1	1	1	1	1	1	1	1	1	0	1	-33,685694	274,646359	288,924765	0
14.01.2021	19:43:02	0	0	3,276358	3,52725	87,7176	0,77	77,881	3,5	1005,6	7,4	9,3	9,1	1	1	1	1	1	1	1	1	1	0	1	-33,685694	274,646359	288,924765	0
14.01.2021	19:43:03	0	0	3,16338	3,48075	95,5368	0,767	77,88	3,5	1005,8	7,4	9,3	9,1	1	1	1	1	1	1	1	1	1	0	1	-36,504581	274,663253	286,185265	0
14.01.2021	19:43:04	0	0	2,937424	3,41175	94,3848	0,768	77,884	3,5	1005,6	7,4	9,3	9,1	1	1	1	1	1	1	1	1	1	0	1	-41,36716	274,783475	281,888028	0
14.01.2021	19:43:05	0	0	4,519114	3,4275	100,7532	0,768	77,878	3,5	1005,48	7,4	9,3	9,1	1	1	1	1	1	1	1	1	1	0	1	-37,914024	274,735605	285,115967	0
14.01.2021	19:43:06	0	0	4,067203	3,79125	99,9108	0,768	77,888	3,5	1005,56	7,4	9,3	9,1	1	1	1	1	1	1	1	1	1	0	1	-34,390416	274,802037	288,952127	0
14.01.2021	19:43:07	0	0	5,196981	4,086	100,368	0,775	77,887	3,5	1005,64	7,4	9,3	9,1	1	1	1	1	1	1	1	1	1	0	1	-36,15222	274,752578	286,957602	0
14.01.2021	19:43:08	0	0	3,841247	4,2105	98,0712	0,775	77,88	3,5	1005,52	7,4	9,3	9,1	1	1	1	1	1	1	1	1	1	0	1	-35,658915	274,775746	287,559905	0
14.01.2021	19:43:09	0	0	2,598491	4,28925	94,0824	0,774	77,869	3,5	1005,68	7,4	9,3	9,1	1	1	1	1	1	1	1	1	1	0	1	-37,350247	274,626412	285,1665	0
14.01.2021	19:43:10	0	0	2,937424	4,19175	96,2136	0,772	77,885	3,5	1005,66	7,4	9,3	9,1	1	1	1	1	1	1	1	1	1	0	1	-37,914024	274,74949	285,181277	0
14.01.2021	19:43:11	0	0	2,372535	4,06125	97,3152	0,767	77,884	3,5	1005,54	7,4	9,3	9,1	1	1	1	1	1	1	1	1	1	0	1	-40,239605	274,798942	283,088371	0
14.01.2021	19:43:12	0	0	3,16338	3,98625	100,7532	0,776	77,885	3,5	1005,56	7,4	9,3	9,1	1	1	1	1	1	1	1	1	1	0	1	-33,615222	274,695547	289,226413	0
14.01.2021	19:43:13	0	0	3,389336	3,81225	94,7412	0,773	77,876	3,5	1005,64	7,4	9,3	9,1	1	1	1	1	1	1	1	1	1	0	1	-36,645525	274,802037	286,697018	0
14.01.2021	19:43:14	0	0	3,276358	3,76575	89,6904	0,768	77,871	3,5	1005,52	7,4	9,3	9,1	1	1	1	1	1	1	1	1	1	0	1	-36,997886	274,701705	285,872696	0
14.01.2021	19:43:15	0	0	3,728269	4,03875	88,11	0,768	77,89	3,5	1005,56	7,4	9,3	9,1	1	1	1	1	1	1	1	1	1	0	1	-37,13883	274,618746	285,341905	0
14.01.2021	19:43:16	0	0	4,519114	4,41075	77,2128	0,774	77,891	3,5	1005,64	7,4	9,3	9,1	1	1	1	1	1	1	1	1	1	0	1	-38,689218	274,709404	284,217564	0
14.01.2021	19:43:17	0	0	3,841247	4,872	98,7588	0,774	77,898	3,5	1005,5	7,4	9,3	9,1	1	1	1	1	1	1	1	1	1	0	1	-39,252995	274,80668	284,111402	0
14.01.2021	19:43:18	0	0	4,74507	4,728	96,2064	0,775	77,903	3,5	1005,74	7,4	9,3	9,1	1	1	1	1	1	1	1	1	1	0	1	-37,77308	274,778837	285,460286	0
14.01.2021	19:43:19	0	0	3,841247	4,5915	91,1628	0,771	77,902	3,5	1005,54	7,4	9,3	9,1	1	1	1	1	1	1	1	1	1	0	1	-37,209302	274,812873	286,184244	0
14.01.2021	19:43:20	0	0	2,937424	4,32975	78,6456	0,77	77,893	3,5	1005,6	7,4	9,3	9,1	1	1	1	1	1	1	1	1	1	0	1	-36,504581	274,641754	286,084242	0
14.01.2021	19:43:21	0	0	3,502313	3,921	95,1156	0,772	77,893	3,5	1005,68	7,4	9,3	9,1	1	1	1	1	1	1	1	1	1	0	1	-36,434109	274,677087	286,320752	0
14.01.2021	19:43:22	0	0	3,502313	3,621	79,0272	0,775	77,876	3,5	1005,46	7,4	9,3	9,1	1	1	1	1	1	1	1	1	1	0	1	-38,548273	274,621812	283,946864	0
14.01.2021	19:43:23	0	0	4,293158	3,44325	74,5416	0,775	77,872	3,5	1005,64	7,4	9,3	9,1	1	1	1	1	1	1	1	1	1	0	1	-36,786469	274,700165	286,076875	0
14.01.2021	19:43:24	0	0	3,16338	3,2475	72,306	0,768	77,861	3,5	1005,62	7,4	9,3	9,1	1	1	1	1	1	1	1	1	1	0	1	-35,658915	274,794301	287,647218	0
14.01.2021	19:43:25	0	0	2,824446	3,0735	73,044	0,776	77,849	3,5	1005,74	7,4	9,3	9,1	1	1	1	1	1	1	1	1	1	0	1	-39,887245	274,644824	282,716002	0
14.01.2021	19:43:26	0	0	4,519114	3,2565	74,1744	0,78	77,825	3,5	1005,54	7,4	9,3	9,1	1	1	1	1	1	1	1	1	1	0	1	-37,420719	274,677087	285,334141	0
14.01.2021	19:43:27	0	0	4,293158	3,21675	62,7876	0,777	77,827	3,5	1005,74	7,4	9,3	9,1	1	1	1	1	1	1	1	1	1	0	1	-37,984496	274,795848	285,328917	0
14.01.2021	19:43:28	0	0	4,067203	3,3375	79,776	0,775	77,822	3,5	1005,6	7,4	9,3	9,1	1	1	1	1	1	1	1	1	1	0	1	-36,856942	274,754121	286,260142	0
14.01.2021	19:43:29	0	0	3,728269	3,55125	77,9544	0,778	77,798	3,5	1005,76	7,4	9,3	9,1	1	1	1	1	1	1	1	1	1	0	1	-40,732911	274,632547	281,812658	0
14.01.2021	19:43:30	0	0	2,711468	3,8745	73,1556	0,772	77,798	3,5	1005,54	7,4	9,3	9,1	1	1	1	1	1	1	1	1	1	0	1	-37,843552	274,752578	285,26627	0
14.01.2021	19:43:31	0	0	4,180181	4,4145	91,9008	0,777	77,772	3,5	1005,66	7,4	9,3	9,1	1	1	1	1	1	1	1	1	1	0	1	-35,447498	274,624879	287,062045	0
14.01.2021	19:43:32	0	0	4,180181	4,30275	72,288	0,777	77,763	3,5	1005,56	7,4	9,3	9,1	1	1	1	1	1	1	1	1	1	0	1	-43,058492	274,758753	280,080381	0
14.01.2021	19:43:33	0	0	4,632092	4,062	81,9504	0,781	77,766	3,5	1005,72	7,4	9,3	9,1	1	1	1	1	1	1	1	1	1	0	1	-35,729387	274,629479	286,80177	0
14.01.2021	19:43:34	0	0	4,180181	3,918	73,1268	0,774	77,752	3,5	1005,54	7,4	9,3	9,1	1	1	1	1	1	1	1	1	1	0	1	-35,799859	274,684777	286,991145	0
14.01.2021	19:43:35	0	0	3,615291	3,897	92,2392	0,783	77,772	3,5	1005,78	7,4	9,3	9,1	1	1	1	1	1	1	1	1	1	0	1	-36,856942	274,621812	285,638196	0
14.01.2021	19:43:36	0	0	4,74507	3,71775	86,9796	0,778	77,78	3,5	1005,62	7,4	9,3	9,1	1	1	1	1	1	1	1	1	1	0	1	-38,336857	274,764931	284,831078	0
14.01.2021	19:43:37	0	0	4,74507	3,6105	90,3924	0,77	77,769	3,5	1005,5	7,4	9,3	9,1	1	1	1	1	1	1	1	1	1	0	1	-38,12544	274,741775	284,93357	0
14.01.2021	19:43:38	0	0	3,502313	3,699	84,4344	0,775	77,764	3,5	1005,58	7,4	9,3	9,1	1	1	1	1	1	1	1	1	1	0	1	-35,940803	274,80668	287,423594	0
14.01.2021	19:43:39	0	0	3,050402	4,08975	81,5868	0,783	77,753	3,5	1005,54	7,4	9,4	9,1	1	1	1	1	1	1	1	1	1	0	1	-37,984496	274,743318	285,081771	0
14.01.2021	19:43:40	0	0	2,372535	4,74225	90,396	0,785	77,751	3,5	1005,48	7,4	9,3	9,1	1	1	1	1	1	1	1	1	1	0	1	-35,870331	274,817519	287,545085	0
14.01.2021	19:43:41	0	0	2,937424	4,85625	74,916	0,778	77,745	3,5	1005,68	7,4	9,3	9,1	1	1	1	1	1	1	1	1	1	0	1	-35,51797	274,686315	287,280264	0
14.01.2021	19:43:42	0	0	4,74507	4,80375	84,042	0,787	77,732	3,5	1005,48	7,4	9,3	9,1	1	1	1	1	1	1	1	1	1	0	1	-37,702607	274,640219	284,879005	0
14.01.2021	19:43:43	0	0	3,16338	5,25225	66,906	0,784	77,718	3,5	1005,64	7,4	9,3	9,1	1	1	1	1	1	1	1	1	1	0	1	-37,350247	274,635616	285,209737	0
14.01.2021	19:43:44	0	0	5,309959	5,7675	72,6588	0,784	77,71	3,5	1005,64	7,4	9,3	9,1	1	1	1	1	1	1	1	1	1	0	1	-35,306554	274,710944	287,607469	0
14.01.2021	19:43:45	0	0	3,276358	5,73225	79,4124	0,784	77,684	3,5	1005,62	7,4	9,3	9,1	1	1	1	1	1	1	1	1	1	0	1	-35,51797	274,798942	287,810006	0
14.01.2021	19:43:46	0	0	3,050402	5,69625	77,2164	0,783	77,684	3,5	1005,56	7,4	9,3	9,1	1	1	1	1	1	1	1	1	1	0	1	-35,658915	274,752578	287,450907	0
14.01.2021	19:43:47	0	0	4,519114	5,66625	88,128	0,791	77,679	3,5	1005,46	7,4	9,3	9,1	1	1	1	1	1	1	1	1	1	0	1	-34,249471	274,623345	288,252869	0
14.01.2021	19:43:48	0	0	2,711468	5,0295	92,9052	0,784	77,667	3,5	1005,62	7,4	9,3	9,1	1	1	1	1	1	1	1	1	1	0	1	-36,434109	274,683238	286,349665	0
14.01.2021	19:43:49	0	0	3,276358	4,548	91,4976	0,781	77,68	3,5	1005,64	7,4	9,3	9,1	1	1	1	1	1	1	1	1	1	0	1	-36,011276	274,809776	287,367695	0
14.01.2021	19:43:50	0	0	4,519114	4,83675	79,7472	0,782	77,695	3,5	1005,6	7,4	9,3	9,1	1	1	1	1	1	1	1	1	1	0	1	-33,826638	274,817519	289,588777	0
14.01.2021	19:43:51	0	0	2,824446	5,29875	70,614	0,779	77,69	3,5	1005,6	7,4	9,3	9,1	1	1	1	1	1	1	1	1	1	0	1	-33,121917	274,672475	289,611265	0
14.01.2021	19:43:52	0	0	4,519114	5,32425	80,9784	0,782	77,707	3,5	1005,56	7,4	9,3	9,1	1	1	1	1	1	1	1	1	1	0	1	-34,178999	274,64943	288,445887	0
14.01.2021	19:43:53	0	0	2,824446	5,283	82,5732	0,78	77,71	3,5	1005,66	7,4	9,3	9,1	1	1	1	1	1	1	1	1	1	0	1	-38,971106	274,735605	284,058884	0
14.01.2021	19:43:54	0	0	2,485513	5,37	92,268	0,788	77,695	3,5	1005,54	7,4	9,3	9,1	1	1	1	1	1	1	1	1	1	0	1	-35,236082	274,643289	287,359952	0
14.01.2021	19:43:55	0	0	4,067203	5,50725	85,1724	0,785	77,689	3,5	1005,66	7,4	9,3	9,1	1	1	1	1	1	1	1	1	1	0	1	-38,548273	274,754121	284,56881	0
14.01.2021	19:43:56	0	0	4,971026	5,54625	92,6316	0,776	77,69	3,5	1005,52	7,4	9,3	9,1	1	1	1	1	1	1	1	1	1	0	1	-38,195913	274,632547	284,349656	0
14.01.2021	19:43:57	0	0	3,050402	5,787	98,0928	0,784	77,7	3,5	1005,68	7,4	9,3	9,1	1	1	1	1	1	1	1	1	1	0	1	-34,390416	274,670938	288,335542	0
14.01.2021	19:43:58	0	0	4,180181	6,06975	85,536	0,786	77,686	3,5	1005,46	7,4	9,3	9,1	1	1	1	1	1	1	1	1	1	0	1	-33,897111	274,655572	288,75664	0
14.01.2021	19:43:59	0	0	4,74507	6,14175	90,7596	0,782	77,691	3,5	1005,42	7,4	9,3	9,1	1	1	1	1	1	1	1	1	1	0	1	-36,786469	274,654036	285,860064	0
14.01.2021	19:44:00	0	0	3,276358	5,48025	89,7156	0,788	77,68	3,5	1005,38	7,4	9,3	9,1	1	1	1	1	1	1	1	1	1	0	1	-36,927414	274,641754	285,661409	0
14.01.2021	19:44:01	0	0	3,276358	5,48025	89,7156	0,788	77,68	3,5	1005,38	7,4	9,3	9,1	1	1	1	1	1	1	1	1	1	0	1	-36,927414	274,641754	285,661409	0
14.01.2021	19:44:02	0	0	4,858048	5,33025	89,3232	0,783	77,664	3,5	1005,62	7,4	9,3	9,1	1	1	1	1	1	1	1	1	1	0	1	-35,16561	274,710944	287,748414	0
14.01.2021	19:44:03	0	0	4,519114	5,2635	95,6088	0,782	77,664	3,5	1005,58	7,4	9,3	9,1	1	1	1	1	1	1	1	1	1	0	1	-34,601832	274,640219	287,97978	0
14.01.2021	19:44:04	0	0	4,519114	4,86225	92,2284	0,785	77,669	3,5	1005,6	7,4	9,3	9,1	1	1	1	1	1	1	1	1	1	0	1	-35,51797	274,732521	287,497514	0
14.01.2021	19:44:05	0	0	2,711468	4,72275	103,6872	0,785	77,671	3,5	1005,5	7,4	9,3	9,1	1	1	1	1	1	1	1	1	1	0	1	-36,856942	274,64943	285,767945	0
14.01.2021	19:44:06	0	0	2,711468	4,7565	103,2732	0,786	77,678	3,5	1005,58	7,4	9,3	9,1	1	1	1	1	1	1	1	1	1	0	1	-37,13883	274,76802	286,04364	0
14.01.2021	19:44:07	0	0	4,293158	4,96575	104,04	0,781	77,656	3,5	1005,54	7,4	9,3	9,1	1	1	1	1	1	1	1	1	1	0	1	-37,632135	274,825265	285,819744	0
14.01.2021	19:44:08	0	0	4,180181	5,11125	110,6424	0,787	77,668	3,5	1005,54	7,4	9,3	9,1	1	1	1	1	1	1	1	1	1	0	1	-34,672304	274,764931	288,49563	0
14.01.2021	19:44:09	0	0	2,937424	5,30925	119,0772	0,785	77,665	3,5	1005,5	7,4	9,3	9,1	1	1	1	1	1	1	1	1	1	0	1	-38,12544	274,819068	285,297267	0
14.01.2021	19:44:10	0	0	4,519114	5,16225	113,0364	0,787	77,662	3,5	1005,38	7,4	9,3	9,1	1	1	1	1	1	1	1	1	1	0	1	-35,236082	274,695547	287,605553	0
14.01.2021	19:44:11	0	0	3,502313	5,0805	114,0984	0,789	77,667	3,5	1005,6	7,4	9,3	9,1	1	1	1	1	1	1	1	1	1	0	1	-38,054968	274,621812	284,44017	0
14.01.2021	19:44:12	0	0	2,485513	4,452	105,1092	0,785	77,685	3,5	1005,56	7,4	9,3	9,1	1	1	1	1	1	1	1	1	1	0	1	-41,014799	274,740232	282,036955	0
14.01.2021	19:44:13	0	0	4,293158	4,21575	106,6572	0,784	77,67	3,5	1005,58	7,4	9,3	9,1	1	1	1	1	1	1	1	1	1	0	1	-36,786469	274,674012	285,953938	0
14.01.2021	19:44:14	0	0	3,389336	4,25775	89,3304	0,784	77,668	3,5	1005,52	7,4	9,3	9,1	1	1	1	1	1	1	1	1	1	0	1	-36,786469	274,678625	285,975618	0
14.01.2021	19:44:15	0	0	3,16338	4,7625	99,1656	0,781	77,679	3,5	1005,6	7,4	9,3	9,1	1	1	1	1	1	1	1	1	1	0	1	-35,658915	274,675549	287,088719	0
14.01.2021	19:44:16	0	0	3,615291	4,67175	98,4564	0,79	77,681	3,5	1005,72	7,4	9,3	9,1	1	1	1	1	1	1	1	1	1	0	1	-35,447498	274,726354	287,538984	0
14.01.2021	19:44:17	0	0	3,050402	4,5375	93,7008	0,786	77,667	3,5	1005,68	7,4	9,3	9,1	1	1	1	1	1	1	1	1	1	0	1	-34,672304	274,650965	287,959797	0
14.01.2021	19:44:18	0	0	4,406136	4,46025	88,5852	0,79	77,657	3,5	1005,46	7,4	9,3	9,1	1	1	1	1	1	1	1	1	1	0	1	-33,121917	274,6817	289,654628	0
14.01.2021	19:44:19	0	0	4,519114	4,40625	78,6384	0,789	77,649	3,5	1005,52	7,4	9,3	9,1	1	1	1	1	1	1	1	1	1	0	1	-34,53136	274,812873	288,862186	0
14.01.2021	19:44:20	0	0	4,067203	4,479	77,58	0,787	77,666	3,5	1005,68	7,4	9,3	9,1	1	1	1	1	1	1	1	1	1	0	1	-34,390416	274,825265	289,061463	0
14.01.2021	19:44:21	0	0	5,309959	4,326	79,3872	0,79	77,673	3,5	1005,64	7,4	9,3	9,1	1	1	1	1	1	1	1	1	1	0	1	-37,209302	274,703244	285,668518	0
14.01.2021	19:44:22	0	0	3,728269	4,026	86,2776	0,787	77,642	3,5	1005,5	7,4	9,3	9,1	1	1	1	1	1	1	1	1	1	0	1	-33,756166	274,836114	289,746791	0
14.01.2021	19:44:23	0	0	4,406136	4,077	91,17	0,787	77,669	3,5	1005,6	7,4	9,3	9,1	1	1	1	1	1	1	1	1	1	0	1	-35,236082	274,726354	287,7504	0
14.01.2021	19:44:24	0	0	2,937424	4,2705	98,0712	0,784	77,663	3,5	1005,48	7,4	9,3	9,1	1	1	1	1	1	1	1	1	1	0	1	-37,279774	274,820617	286,150225	0
14.01.2021	19:44:25	0	0	3,615291	4,221	108,1152	0,788	77,657	3,5	1005,7	7,4	9,3	9,1	1	1	1	1	1	1	1	1	1	0	1	-32,980973	274,720188	289,976518	0
14.01.2021	19:44:26	0	0	3,389336	4,014	91,5012	0,786	77,657	3,5	1005,6	7,4	9,3	9,1	1	1	1	1	1	1	1	1	1	0	1	-33,121917	274,643289	289,474117	0
14.01.2021	19:44:27	0	0	3,615291	3,6855	95,526	0,787	77,648	3,5	1005,58	7,4	9,3	9,1	1	1	1	1	1	1	1	1	1	0	1	-35,16561	274,775746	288,053211	0
14.01.2021	19:44:28	0	0	4,180181	3,35175	75,9852	0,795	77,646	3,5	1005,64	7,4	9,3	9,1	1	1	1	1	1	1	1	1	1	0	1	-35,940803	274,829914	287,532962	0
14.01.2021	19:44:29	0	0	3,954225	3,516	83,052	0,792	77,63	3,5	1005,5	7,4	9,3	9,1	1	1	1	1	1	1	1	1	1	0	1	-36,222692	274,715566	286,713061	0
14.01.2021	19:44:30	0	0	2,824446	3,54225	82,35	0,786	77,625	3,5	1005,74	7,4	9,3	9,1	1	1	1	1	1	1	1	1	1	0	1	-34,178999	274,658644	288,489187	0
14.01.2021	19:44:31	0	0	3,502313	3,70275	77,9652	0,792	77,631	3,5	1005,54	7,4	9,3	9,1	1	1	1	1	1	1	1	1	1	0	1	-33,262861	274,701705	289,607721	0
14.01.2021	19:44:32	0	0	2,824446	3,76275	81,5904	0,795	77,624	3,5	1005,58	7,4	9,3	9,1	1	1	1	1	1	1	1	1	1	0	1	-37,209302	274,661717	285,473323	0
14.01.2021	19:44:33	0	0	4,293158	3,6045	86,9724	0,79	77,619	3,5	1005,62	7,4	9,3	9,1	1	1	1	1	1	1	1	1	1	0	1	-34,319944	274,690931	288,499988	0
14.01.2021	19:44:34	0	0	3,841247	3,507	91,4652	0,793	77,599	3,5	1005,6	7,4	9,3	9,1	1	1	1	1	1	1	1	1	1	0	1	-30,162086	274,683238	292,621688	0
14.01.2021	19:44:35	0	0	3,615291	3,39825	96,1956	0,796	77,595	3,5	1005,52	7,4	9,3	9,1	1	1	1	1	1	1	1	1	1	0	1	-36,645525	274,697086	286,203345	0
14.01.2021	19:44:36	0	0	4,406136	3,345	99,1656	0,791	77,585	3,5	1005,56	7,4	9,3	9,1	1	1	1	1	1	1	1	1	1	0	1	-32,346723	274,660181	290,328682	0
14.01.2021	19:44:37	0	0	2,937424	3,3615	95,7852	0,797	77,576	3,5	1005,68	7,4	9,3	9,1	1	1	1	1	1	1	1	1	1	0	1	-32,9105	274,732521	290,104985	0
14.01.2021	19:44:38	0	0	4,632092	3,44625	93,3228	0,792	77,571	3,5	1005,62	7,4	9,3	9,1	1	1	1	1	1	1	1	1	1	0	1	-35,870331	274,834564	287,625327	0
14.01.2021	19:44:39	0	0	3,050402	3,504	89,7192	0,801	77,561	3,5	1005,6	7,4	9,3	9,1	1	1	1	1	1	1	1	1	1	0	1	-36,856942	274,785021	286,405522	0
14.01.2021	19:44:40	0	0	2,598491	3,462	96,2784	0,79	77,548	3,5	1005,76	7,4	9,3	9,1	1	1	1	1	1	1	1	1	1	0	1	-35,588443	274,819068	287,834265	0
14.01.2021	19:44:41	0	0	4,971026	3,456	104,094	0,793	77,534	3,5	1005,44	7,4	9,3	9,1	1	1	1	1	1	1	1	1	1	0	1	-34,954193	274,714025	287,974316	0
14.01.2021	19:44:42	0	0	2,711468	3,42075	102,5712	0,799	77,526	3,5	1005,78	7,4	9,3	9,1	1	1	1	1	1	1	1	1	1	0	1	-36,293164	274,670938	286,432794	0
14.01.2021	19:44:43	0	0	2,485513	3,345	91,494	0,794	77,514	3,5	1005,64	7,4	9,3	9,1	1	1	1	1	1	1	1	1	1	0	1	-35,799859	274,77111	287,397149	0
14.01.2021	19:44:44	0	0	3,050402	3,67125	101,5128	0,8	77,507	3,5	1005,52	7,4	9,3	9,1	1	1	1	1	1	1	1	1	1	0	1	-31,92389	274,654036	290,722643	0
14.01.2021	19:44:45	0	0	2,937424	4,12425	105,8472	0,796	77,511	3,5	1005,66	7,4	9,3	9,1	1	1	1	1	1	1	1	1	1	0	1	-36,15222	274,723271	286,819765	0
14.01.2021	19:44:46	0	0	3,050402	4,743	106,272	0,801	77,505	3,5	1005,68	7,4	9,3	9,1	1	1	1	1	1	1	1	1	1	0	1	-33,826638	274,638685	288,747764	0
14.01.2021	19:44:47	0	0	2,598491	5,112	109,9656	0,796	77,489	3,5	1005,64	7,4	9,3	9,1	1	1	1	1	1	1	1	1	1	0	1	-36,856942	274,730979	286,151292	0
14.01.2021	19:44:48	0	0	2,598491	4,887	106,3152	0,796	77,482	3,5	1005,52	7,4	9,3	9,1	1	1	1	1	1	1	1	1	1	0	1	-30,866808	274,657108	291,79416	0
14.01.2021	19:44:49	0	0	2,598491	4,8045	107,0532	0,8	77,486	3,5	1005,66	7,4	9,3	9,1	1	1	1	1	1	1	1	1	1	0	1	-31,289641	274,791207	292,001933	0
14.01.2021	19:44:50	0	0	4,858048	4,79775	104,0472	0,8	77,483	3,5	1005,58	7,4	9,3	9,1	1	1	1	1	1	1	1	1	1	0	1	-38,618746	274,769565	284,570993	0
14.01.2021	19:44:51	0	0	2,598491	4,79775	109,2168	0,8	77,474	3,5	1005,7	7,4	9,3	9,1	1	1	1	1	1	1	1	1	1	0	1	-36,363636	274,808228	287,008047	0
14.01.2021	19:44:52	0	0	4,293158	4,635	89,7228	0,799	77,486	3,5	1005,34	7,4	9,3	9,1	1	1	1	1	1	1	1	1	1	0	1	-36,645525	274,76802	286,536945	0
14.01.2021	19:44:53	0	0	2,937424	4,28325	106,2864	0,796	77,473	3,5	1005,68	7,4	9,3	9,1	1	1	1	1	1	1	1	1	1	0	1	-33,54475	274,684777	289,246254	0
14.01.2021	19:44:54	0	0	4,180181	4,191	96,2424	0,802	77,479	3,5	1005,58	7,4	9,3	9,1	1	1	1	1	1	1	1	1	1	0	1	-35,306554	274,660181	287,368851	0
14.01.2021	19:44:55	0	0	3,502313	4,035	81,576	0,802	77,476	3,5	1005,48	7,4	9,3	9,1	1	1	1	1	1	1	1	1	1	0	1	-34,460888	274,66479	288,236178	0
14.01.2021	19:44:56	0	0	2,824446	4,074	79,4232	0,796	77,465	3,5	1005,62	7,4	9,3	9,1	1	1	1	1	1	1	1	1	1	0	1	-37,420719	274,684777	285,370285	0
14.01.2021	19:44:57	0	0	4,293158	4,05525	79,7544	0,799	77,47	3,5	1005,84	7,4	9,3	9,1	1	1	1	1	1	1	1	1	1	0	1	-40,803383	274,777291	282,42271	0
14.01.2021	19:44:58	0	0	4,519114	3,90825	80,8668	0,802	77,468	3,5	1005,64	7,4	9,3	9,1	1	1	1	1	1	1	1	1	1	0	1	-37,350247	274,786567	285,919493	0
14.01.2021	19:44:59	0	0	4,632092	3,672	80,9028	0,8	77,468	3,5	1005,74	7,4	9,3	9,1	1	1	1	1	1	1	1	1	1	0	1	-40,662438	274,786567	282,607302	0
14.01.2021	19:45:00	0	0	2,711468	3,92625	85,2732	0,804	77,457	3,5	1005,58	7,4	9,3	9,1	1	1	1	1	1	1	1	1	1	0	1	-37,350247	274,689392	285,462452	0
14.01.2021	19:45:01	0	0	3,502313	4,18575	80,1576	0,804	77,464	3,5	1005,62	7,4	9,3	9,1	1	1	1	1	1	1	1	1	1	0	1	-36,856942	274,674012	285,883466	0
14.01.2021	19:45:02	0	0	3,502313	4,18575	80,1576	0,804	77,464	3,5	1005,62	7,4	9,3	9,1	1	1	1	1	1	1	1	1	1	0	1	-36,856942	274,674012	285,883466	0
14.01.2021	19:45:03	0	0	2,485513	4,0515	80,496	0,801	77,453	3,5	1005,6	7,4	9,3	9,1	1	1	1	1	1	1	1	1	1	0	1	-38,75969	274,700165	284,103654	0
14.01.2021	19:45:04	0	0	4,293158	3,9285	84,8052	0,804	77,438	3,5	1005,52	7,4	9,3	9,1	1	1	1	1	1	1	1	1	1	0	1	-37,491191	274,820617	285,938808	0
14.01.2021	19:45:05	0	0	2,372535	4,04625	95,13	0,803	77,431	3,5	1005,6	7,4	9,3	9,1	1	1	1	1	1	1	1	1	1	0	1	-35,940803	274,763386	287,219865	0
14.01.2021	19:45:06	0	0	3,841247	3,7755	98,7804	0,802	77,423	3,5	1005,76	7,4	9,3	9,1	1	1	1	1	1	1	1	1	1	0	1	-37,702607	274,646359	284,907851	0
14.01.2021	19:45:07	0	0	4,067203	3,62925	98,0784	0,798	77,416	3,5	1005,52	7,4	9,3	9,1	1	1	1	1	1	1	1	1	1	0	1	-44,115574	274,775746	279,103246	0
14.01.2021	19:45:08	0	0	4,067203	3,492	96,9408	0,802	77,426	3,5	1005,58	7,4	9,3	9,1	1	1	1	1	1	1	1	1	1	0	1	-33,192389	274,826814	290,266785	0
14.01.2021	19:45:09	0	0	3,050402	3,36	90,7488	0,806	77,417	3,5	1005,62	7,4	9,3	9,1	1	1	1	1	1	1	1	1	1	0	1	-32,769556	274,694008	290,064844	0
14.01.2021	19:45:10	0	0	3,954225	3,30825	99,5436	0,801	77,408	3,5	1005,64	7,4	9,3	9,1	1	1	1	1	1	1	1	1	1	0	1	-38,477801	274,811325	284,908457	0
14.01.2021	19:45:11	0	0	3,16338	3,228	85,8888	0,799	77,396	3,5	1005,48	7,4	9,3	9,1	1	1	1	1	1	1	1	1	1	0	1	-37,77308	274,777291	285,453013	0
14.01.2021	19:45:12	0	0	2,824446	3,45	78,282	0,798	77,4	3,5	1005,5	7,4	9,3	9,1	1	1	1	1	1	1	1	1	1	0	1	-38,266385	274,833013	285,221975	0
14.01.2021	19:45:13	0	0	4,293158	3,67725	70,8336	0,803	77,384	3,5	1005,48	7,4	9,3	9,1	1	1	1	1	1	1	1	1	1	0	1	-32,205779	274,757209	290,92583	0
14.01.2021	19:45:14	0	0	3,16338	3,73275	76,8384	0,801	77,375	3,5	1005,66	7,4	9,3	9,1	1	1	1	1	1	1	1	1	1	0	1	-32,487667	274,644824	290,115579	0
14.01.2021	19:45:15	0	0	4,067203	3,687	76,3524	0,807	77,379	3,5	1005,44	7,4	9,3	9,1	1	1	1	1	1	1	1	1	1	0	1	-37,491191	274,714025	285,437318	0
14.01.2021	19:45:16	0	0	2,259557	3,78	79,4016	0,803	77,378	3,5	1005,5	7,4	9,3	9,1	1	1	1	1	1	1	1	1	1	0	1	-32,699084	274,674012	290,041324	0
14.01.2021	19:45:17	0	0	2,485513	3,897	71,9748	0,806	77,376	3,5	1005,74	7,4	9,3	9,1	1	1	1	1	1	1	1	1	1	0	1	-34,672304	274,777291	288,553788	0
14.01.2021	19:45:18	0	0	3,954225	4,20525	81,1584	0,804	77,371	3,5	1005,88	7,4	9,3	9,1	1	1	1	1	1	1	1	1	1	0	1	-36,856942	274,837664	286,653315	0
14.01.2021	19:45:19	0	0	2,937424	4,47975	86,2596	0,805	77,354	3,5	1005,62	7,4	9,3	9,1	1	1	1	1	1	1	1	1	1	0	1	-35,729387	274,763386	287,431281	0
14.01.2021	19:45:20	0	0	4,519114	4,452	81,2988	0,802	77,366	3,5	1005,6	7,4	9,3	9,1	1	1	1	1	1	1	1	1	1	0	1	-40,098661	274,825265	283,353218	0
14.01.2021	19:45:21	0	0	2,598491	4,2375	84,0132	0,804	77,347	3,5	1005,54	7,4	9,3	9,1	1	1	1	1	1	1	1	1	1	0	1	-33,897111	274,743318	289,169156	0
14.01.2021	19:45:22	0	0	3,16338	3,9195	85,5288	0,797	77,345	3,5	1005,64	7,4	9,3	9,1	1	1	1	1	1	1	1	1	1	0	1	-29,809725	274,63715	292,757468	0
14.01.2021	19:45:23	0	0	2,711468	3,6585	82,404	0,8	77,331	3,5	1005,64	7,4	9,3	9,1	1	1	1	1	1	1	1	1	1	0	1	-34,460888	274,672475	288,272294	0
14.01.2021	19:45:24	0	0	2,937424	3,64725	80,5104	0,805	77,335	3,5	1005,66	7,4	9,3	9,1	1	1	1	1	1	1	1	1	1	0	1	-33,262861	274,707864	289,636679	0
14.01.2021	19:45:25	0	0	3,615291	3,65475	90,3708	0,807	77,334	3,5	1005,74	7,4	9,3	9,1	1	1	1	1	1	1	1	1	1	0	1	-37,279774	274,820617	286,150225	0
14.01.2021	19:45:26	0	0	3,615291	3,30525	81,576	0,804	77,322	3,5	1005,58	7,4	9,3	9,1	1	1	1	1	1	1	1	1	1	0	1	-35,799859	274,761842	287,353543	0
14.01.2021	19:45:27	0	0	4,519114	3,13575	74,16	0,806	77,329	3,5	1005,66	7,4	9,3	9,1	1	1	1	1	1	1	1	1	1	0	1	-32,628612	274,822166	290,80868	0
14.01.2021	19:45:28	0	0	4,180181	3,09375	77,9652	0,808	77,32	3,5	1005,58	7,4	9,3	9,1	1	1	1	1	1	1	1	1	1	0	1	-35,799859	274,721729	287,164878	0
14.01.2021	19:45:29	0	0	3,615291	3,1155	76,3848	0,806	77,306	3,5	1005,68	7,4	9,3	9,1	1	1	1	1	1	1	1	1	1	0	1	-32,628612	274,650965	290,00349	0
14.01.2021	19:45:30	0	0	3,502313	3,093	82,3428	0,809	77,315	3,5	1005,74	7,4	9,3	9,1	1	1	1	1	1	1	1	1	1	0	1	-35,870331	274,712485	287,050935	0
14.01.2021	19:45:31	0	0	2,824446	3,17625	98,4456	0,802	77,314	3,5	1005,58	7,4	9,3	9,1	1	1	1	1	1	1	1	1	1	0	1	-33,051445	274,808228	290,320239	0
14.01.2021	19:45:32	0	0	2,598491	3,20175	100,764	0,808	77,297	3,5	1005,78	7,4	9,3	9,1	1	1	1	1	1	1	1	1	1	0	1	-32,55814	274,823715	290,886446	0
14.01.2021	19:45:33	0	0	4,293158	3,28125	75,222	0,803	77,288	3,5	1005,7	7,4	9,3	9,1	1	1	1	1	1	1	1	1	1	0	1	-37,068358	274,758753	286,070515	0
14.01.2021	19:45:34	0	0	3,16338	3,15825	87,3432	0,809	77,3	3,5	1005,72	7,4	9,3	9,1	1	1	1	1	1	1	1	1	1	0	1	-38,548273	274,650965	284,083828	0
14.01.2021	19:45:35	0	0	4,858048	3,37875	96,1956	0,796	77,281	3,5	1005,52	7,4	9,3	9,1	1	1	1	1	1	1	1	1	1	0	1	-34,742777	274,735605	288,287214	0
14.01.2021	19:45:36	0	0	2,711468	3,444	73,4112	0,801	77,284	3,5	1005,7	7,4	9,3	9,1	1	1	1	1	1	1	1	1	1	0	1	-36,856942	274,63715	285,710251	0
14.01.2021	19:45:37	0	0	3,615291	3,4365	82,5876	0,8	77,273	3,5	1005,68	7,4	9,3	9,1	1	1	1	1	1	1	1	1	1	0	1	-33,051445	274,783475	290,203743	0
14.01.2021	19:45:38	0	0	3,389336	3,2775	80,4924	0,798	77,275	3,5	1005,54	7,4	9,3	9,1	1	1	1	1	1	1	1	1	1	0	1	-35,588443	274,764931	287,579492	0
14.01.2021	19:45:39	0	0	4,74507	3,1755	92,646	0,802	77,26	3,5	1005,82	7,4	9,3	9,1	1	1	1	1	1	1	1	1	1	0	1	-37,350247	274,7742	285,861302	0
14.01.2021	19:45:40	0	0	3,728269	3,20175	84,0312	0,803	77,27	3,5	1005,66	7,4	9,3	9,1	1	1	1	1	1	1	1	1	1	0	1	-36,927414	274,819068	286,495294	0
14.01.2021	19:45:41	0	0	2,711468	3,41625	78,66	0,803	77,26	3,5	1005,46	7,4	9,3	9,1	1	1	1	1	1	1	1	1	1	0	1	-34,108527	274,675549	288,639106	0
14.01.2021	19:45:42	0	0	3,728269	3,50025	86,2848	0,804	77,264	3,5	1005,6	7,4	9,3	9,1	1	1	1	1	1	1	1	1	1	0	1	-34,672304	274,76802	288,510165	0
14.01.2021	19:45:43	0	0	5,084003	3,45675	67,6584	0,8	77,274	3,5	1005,5	7,4	9,3	9,1	1	1	1	1	1	1	1	1	1	0	1	-36,222692	274,814422	287,178144	0
14.01.2021	19:45:44	0	0	4,519114	3,5295	66,2112	0,796	77,255	3,5	1005,52	7,4	9,3	9,1	1	1	1	1	1	1	1	1	1	0	1	-36,997886	274,732521	286,017599	0
14.01.2021	19:45:45	0	0	4,632092	3,591	59,8392	0,801	77,27	3,5	1005,7	7,4	9,3	9,1	1	1	1	1	1	1	1	1	1	0	1	-36,222692	274,661717	286,459933	0
14.01.2021	19:45:46	0	0	4,519114	3,71625	64,2348	0,802	77,278	3,5	1005,62	7,4	9,3	9,1	1	1	1	1	1	1	1	1	1	0	1	-38,195913	274,780383	285,044726	0
14.01.2021	19:45:47	0	0	2,259557	3,4875	66,9276	0,8	77,252	3,5	1005,46	7,4	9,3	9,1	1	1	1	1	1	1	1	1	1	0	1	-35,377026	274,640219	287,204586	0
14.01.2021	19:45:48	0	0	4,74507	3,0645	54,7992	0,8	77,279	3,5	1005,56	7,4	9,3	9,1	1	1	1	1	1	1	1	1	1	0	1	-33,121917	274,690931	289,698015	0
14.01.2021	19:45:49	0	0	4,519114	3,174	76,356	0,804	77,27	3,5	1005,62	7,4	9,3	9,1	1	1	1	1	1	1	1	1	1	0	1	-35,729387	274,833013	287,758973	0
14.01.2021	19:45:50	0	0	4,632092	3,0495	91,872	0,797	77,26	3,5	1005,64	7,4	9,3	9,1	1	1	1	1	1	1	1	1	1	0	1	-35,236082	274,695547	287,605553	0
14.01.2021	19:45:51	0	0	2,259557	2,9655	91,1592	0,799	77,266	3,5	1005,62	7,4	9,3	9,1	1	1	1	1	1	1	1	1	1	0	1	-35,588443	274,650965	287,043659	0
14.01.2021	19:45:52	0	0	3,16338	3,07575	67,2696	0,801	77,274	3,5	1005,5	7,4	9,3	9,1	1	1	1	1	1	1	1	1	1	0	1	-32,417195	274,6817	290,359349	0
14.01.2021	19:45:53	0	0	3,502313	2,973	78,2784	0,8	77,289	3,5	1005,72	7,4	9,3	9,1	1	1	1	1	1	1	1	1	1	0	1	-34,813249	274,650965	287,818853	0
14.01.2021	19:45:54	0	0	3,954225	2,77575	104,0328	0,804	77,278	3,5	1005,64	7,4	9,3	9,1	1	1	1	1	1	1	1	1	1	0	1	-35,870331	274,795848	287,443082	0
14.01.2021	19:45:55	0	0	4,406136	2,805	79,0092	0,8	77,261	3,5	1005,44	7,4	9,3	9,1	1	1	1	1	1	1	1	1	1	0	1	-36,927414	274,769565	286,262325	0
14.01.2021	19:45:56	0	0	3,841247	3,10425	96,5916	0,807	77,278	3,5	1005,56	7,4	9,3	9,1	1	1	1	1	1	1	1	1	1	0	1	-39,041579	274,788114	284,235439	0
14.01.2021	19:45:57	0	0	4,971026	3,117	84,7944	0,8	77,261	3,5	1005,78	7,4	9,3	9,1	1	1	1	1	1	1	1	1	1	0	1	-31,571529	274,795848	291,741884	0
14.01.2021	19:45:58	0	0	4,632092	2,87625	99,1656	0,795	77,278	3,5	1005,54	7,4	9,3	9,1	1	1	1	1	1	1	1	1	1	0	1	-30,30303	274,626412	292,213717	0
14.01.2021	19:45:59	0	0	3,954225	2,5515	75,9888	0,8	77,291	3,5	1005,78	7,4	9,3	9,1	1	1	1	1	1	1	1	1	1	0	1	-36,222692	274,757209	286,908917	0
14.01.2021	19:46:00	0	0	4,180181	2,1	91,5012	0,793	77,295	3,5	1005,56	7,4	9,3	9,1	1	1	1	1	1	1	1	1	1	0	1	-35,729387	274,814422	287,671449	0
14.01.2021	19:46:01	0	0	4,180181	2,1	91,5012	0,793	77,295	3,5	1005,56	7,4	9,3	9,1	1	1	1	1	1	1	1	1	1	0	1	-35,729387	274,814422	287,671449	0
14.01.2021	19:46:02	0	0	3,16338	2,0925	104,7528	0,799	77,309	3,5	1005,72	7,4	9,3	9,1	1	1	1	1	1	1	1	1	1	0	1	-37,914024	274,690931	284,905908	0
14.01.2021	19:46:03	0	0	2,485513	2,17275	87,714	0,801	77,315	3,5	1005,56	7,4	9,3	9,1	1	1	1	1	1	1	1	1	1	0	1	-37,279774	274,623345	285,222566	0
14.01.2021	19:46:04	0	0	2,824446	2,628	91,5732	0,798	77,31	3,5	1005,52	7,4	9,3	9,1	1	1	1	1	1	1	1	1	1	0	1	-31,219168	274,747947	291,868873	0
14.01.2021	19:46:05	0	0	4,180181	3,04875	84,0492	0,799	77,328	3,5	1005,58	7,4	9,3	9,1	1	1	1	1	1	1	1	1	1	0	1	-33,897111	274,64943	288,727776	0
14.01.2021	19:46:06	0	0	4,519114	3,07125	81,558	0,793	77,328	3,5	1005,54	7,4	9,3	9,1	1	1	1	1	1	1	1	1	1	0	1	-35,095137	274,684777	287,695867	0
14.01.2021	19:46:07	0	0	4,74507	3,255	104,7492	0,801	77,337	3,5	1005,68	7,4	9,3	9,1	1	1	1	1	1	1	1	1	1	0	1	-33,474278	274,63715	289,092915	0
14.01.2021	19:46:08	0	0	3,276358	3,48	102,5856	0,795	77,327	3,5	1005,48	7,4	9,3	9,1	1	1	1	1	1	1	1	1	1	0	1	-34,108527	274,781929	289,139386	0
14.01.2021	19:46:09	0	0	3,502313	3,7005	96,2136	0,79	77,342	3,5	1005,62	7,4	9,3	9,1	1	1	1	1	1	1	1	1	1	0	1	-35,658915	274,635616	286,901069	0
14.01.2021	19:46:10	0	0	3,615291	3,735	92,628	0,798	77,352	3,5	1005,66	7,4	9,3	9,1	1	1	1	1	1	1	1	1	1	0	1	-32,487667	274,6694	290,231066	0
14.01.2021	19:46:11	0	0	2,711468	3,77025	91,17	0,796	77,365	3,5	1005,74	7,4	9,3	9,1	1	1	1	1	1	1	1	1	1	0	1	-30,30303	274,772655	292,901248	0
14.01.2021	19:46:12	0	0	2,937424	3,79275	83,7576	0,794	77,358	3,5	1005,58	7,4	9,3	9,1	1	1	1	1	1	1	1	1	1	0	1	-32,980973	274,644824	289,622274	0
14.01.2021	19:46:13	0	0	3,502313	3,981	90,396	0,799	77,36	3,5	1005,44	7,4	9,3	9,1	1	1	1	1	1	1	1	1	1	0	1	-36,786469	274,744861	286,287055	0
14.01.2021	19:46:14	0	0	4,519114	4,428	91,872	0,8	77,375	3,5	1005,54	7,4	9,3	9,1	1	1	1	1	1	1	1	1	1	0	1	-34,460888	274,641754	288,127935	0
14.01.2021	19:46:15	0	0	4,858048	4,35825	85,2444	0,796	77,368	3,5	1005,54	7,4	9,3	9,1	1	1	1	1	1	1	1	1	1	0	1	-33,262861	274,798942	290,065115	0
14.01.2021	19:46:16	0	0	4,971026	4,43175	79,3944	0,798	77,377	3,5	1005,6	7,4	9,3	9,1	1	1	1	1	1	1	1	1	1	0	1	-32,769556	274,714025	290,158953	0
14.01.2021	19:46:17	0	0	3,502313	4,332	80,514	0,794	77,383	3,5	1005,76	7,4	9,3	9,1	1	1	1	1	1	1	1	1	1	0	1	-30,021142	274,631013	292,517221	0
14.01.2021	19:46:18	0	0	5,084003	4,305	82,3284	0,796	77,383	3,5	1005,56	7,4	9,3	9,1	1	1	1	1	1	1	1	1	1	0	1	-35,729387	274,712485	287,191879	0
14.01.2021	19:46:19	0	0	3,050402	4,25025	81,5904	0,797	77,39	3,5	1005,48	7,4	9,3	9,1	1	1	1	1	1	1	1	1	1	0	1	-34,601832	274,631013	287,93653	0
14.01.2021	19:46:20	0	0	4,632092	4,50675	79,3908	0,793	77,398	3,5	1005,62	7,4	9,3	9,1	1	1	1	1	1	1	1	1	1	0	1	-37,068358	274,772655	286,13592	0
14.01.2021	19:46:21	0	0	3,615291	4,39725	91,8864	0,801	77,4	3,5	1005,62	7,4	9,3	9,1	1	1	1	1	1	1	1	1	1	0	1	-32,417195	274,63715	290,149998	0
14.01.2021	19:46:22	0	0	4,858048	4,07175	97,668	0,794	77,396	3,5	1005,46	7,4	9,3	9,1	1	1	1	1	1	1	1	1	1	0	1	-36,434109	274,791207	286,857465	0
14.01.2021	19:46:23	0	0	3,16338	4,15275	94,0788	0,793	77,404	3,5	1005,44	7,4	9,3	9,1	1	1	1	1	1	1	1	1	1	0	1	-35,658915	274,718647	287,291329	0
14.01.2021	19:46:24	0	0	3,841247	4,203	99,144	0,791	77,407	3,5	1005,62	7,4	9,3	9,1	1	1	1	1	1	1	1	1	1	0	1	-31,571529	274,623345	290,930811	0
14.01.2021	19:46:25	0	0	3,050402	3,858	106,65	0,791	77,405	3,5	1005,42	7,4	9,3	9,1	1	1	1	1	1	1	1	1	1	0	1	-34,390416	274,698626	288,465691	0
14.01.2021	19:46:26	0	0	4,632092	3,67275	93,7224	0,794	77,421	3,5	1005,46	7,4	9,3	9,1	1	1	1	1	1	1	1	1	1	0	1	-32,699084	274,777291	290,527008	0
14.01.2021	19:46:27	0	0	4,74507	3,69525	91,1628	0,798	77,421	3,5	1005,34	7,4	9,3	9,1	1	1	1	1	1	1	1	1	1	0	1	-33,54475	274,624879	288,964793	0
14.01.2021	19:46:28	0	0	4,858048	3,6375	88,5888	0,792	77,437	3,5	1005,6	7,4	9,3	9,1	1	1	1	1	1	1	1	1	1	0	1	-36,222692	274,718647	286,727552	0
14.01.2021	19:46:29	0	0	2,824446	3,4995	83,4336	0,787	77,45	3,5	1005,5	7,4	9,3	9,1	1	1	1	1	1	1	1	1	1	0	1	-34,249471	274,814422	289,151364	0
14.01.2021	19:46:30	0	0	4,632092	3,48825	101,4624	0,787	77,466	3,5	1005,52	7,4	9,3	9,1	1	1	1	1	1	1	1	1	1	0	1	-33,615222	274,780383	289,625417	0
14.01.2021	19:46:31	0	0	4,406136	3,45	98,7588	0,793	77,49	3,5	1005,64	7,4	9,3	9,1	1	1	1	1	1	1	1	1	1	0	1	-36,645525	274,687853	286,159941	0
14.01.2021	19:46:32	0	0	2,711468	3,6015	74,5128	0,79	77,474	3,5	1005,54	7,4	9,3	9,1	1	1	1	1	1	1	1	1	1	0	1	-35,588443	274,786567	287,681298	0
14.01.2021	19:46:33	0	0	3,502313	3,91725	72,6624	0,793	77,506	3,5	1005,6	7,4	9,3	9,1	1	1	1	1	1	1	1	1	1	0	1	-36,081748	274,723271	286,890237	0
14.01.2021	19:46:34	0	0	4,406136	4,341	69,4764	0,796	77,515	3,5	1005,58	7,4	9,3	9,1	1	1	1	1	1	1	1	1	1	0	1	-33,967583	274,641754	288,62124	0
14.01.2021	19:46:35	0	0	4,971026	4,488	71,6076	0,79	77,496	3,5	1005,6	7,4	9,3	9,1	1	1	1	1	1	1	1	1	1	0	1	-30,232558	274,812873	293,160988	0
14.01.2021	19:46:36	0	0	4,971026	4,3725	82,3392	0,796	77,515	3,5	1005,68	7,4	9,3	9,1	1	1	1	1	1	1	1	1	1	0	1	-36,363636	274,647894	286,254036	0
14.01.2021	19:46:37	0	0	4,858048	4,16775	80,1324	0,798	77,512	3,5	1005,76	7,4	9,3	9,1	1	1	1	1	1	1	1	1	1	0	1	-32,769556	274,614147	289,68958	0
14.01.2021	19:46:38	0	0	4,293158	3,89325	79,0452	0,792	77,494	3,5	1005,46	7,4	9,3	9,1	1	1	1	1	1	1	1	1	1	0	1	-36,011276	274,723271	286,960709	0
14.01.2021	19:46:39	0	0	4,067203	3,795	74,1888	0,795	77,492	3,5	1005,6	7,4	9,3	9,1	1	1	1	1	1	1	1	1	1	0	1	-31,007752	274,812873	292,385795	0
14.01.2021	19:46:40	0	0	4,74507	3,91275	80,9136	0,796	77,506	3,5	1005,56	7,4	9,3	9,1	1	1	1	1	1	1	1	1	1	0	1	-36,645525	274,7742	286,566024	0
14.01.2021	19:46:41	0	0	2,598491	4,209	86,9688	0,789	77,499	3,5	1005,62	7,4	9,3	9,1	1	1	1	1	1	1	1	1	1	0	1	-34,672304	274,687853	288,133162	0
14.01.2021	19:46:42	0	0	3,389336	4,281	83,3868	0,79	77,502	3,5	1005,64	7,4	9,3	9,1	1	1	1	1	1	1	1	1	1	0	1	-30,93728	274,631013	291,601083	0
14.01.2021	19:46:43	0	0	4,180181	4,413	83,3328	0,795	77,496	3,5	1005,46	7,4	9,3	9,1	1	1	1	1	1	1	1	1	1	0	1	-32,840028	274,689392	289,97267	0
14.01.2021	19:46:44	0	0	4,067203	4,46025	83,0736	0,793	77,489	3,5	1005,48	7,4	9,3	9,1	1	1	1	1	1	1	1	1	1	0	1	-32,769556	274,820617	290,660443	0
14.01.2021	19:46:45	0	0	2,937424	4,47075	79,7508	0,796	77,482	3,5	1005,8	7,4	9,3	9,1	1	1	1	1	1	1	1	1	1	0	1	-29,809725	274,723271	293,162259	0
14.01.2021	19:46:46	0	0	4,74507	4,239	89,334	0,791	77,475	3,5	1005,64	7,4	9,3	9,1	1	1	1	1	1	1	1	1	1	0	1	-30,373502	274,629479	292,157654	0
14.01.2021	19:46:47	0	0	3,16338	3,9075	92,6352	0,787	77,467	3,5	1005,6	7,4	9,3	9,1	1	1	1	1	1	1	1	1	1	0	1	-35,447498	274,800489	287,887761	0
14.01.2021	19:46:48	0	0	3,841247	3,5325	87,7464	0,794	77,473	3,5	1005,54	7,4	9,3	9,1	1	1	1	1	1	1	1	1	1	0	1	-39,252995	274,646359	283,357464	0
14.01.2021	19:46:49	0	0	2,824446	3,29625	87,3432	0,79	77,456	3,5	1005,56	7,4	9,3	9,1	1	1	1	1	1	1	1	1	1	0	1	-36,645525	274,811325	286,740733	0
14.01.2021	19:46:50	0	0	4,180181	3,594	81,6012	0,792	77,441	3,5	1005,66	7,4	9,3	9,1	1	1	1	1	1	1	1	1	1	0	1	-38,830162	274,763386	284,330506	0
14.01.2021	19:46:51	0	0	4,293158	3,67425	81,2304	0,787	77,458	3,5	1005,64	7,4	9,3	9,1	1	1	1	1	1	1	1	1	1	0	1	-34,742777	274,785021	288,519687	0
14.01.2021	19:46:52	0	0	4,293158	3,7665	86,2632	0,793	77,457	3,5	1005,7	7,4	9,3	9,1	1	1	1	1	1	1	1	1	1	0	1	-37,914024	274,805132	285,443088	0
14.01.2021	19:46:53	0	0	3,615291	4,16025	92,2428	0,79	77,452	3,5	1005,48	7,4	9,3	9,1	1	1	1	1	1	1	1	1	1	0	1	-32,9105	274,654036	289,736033	0
14.01.2021	19:46:54	0	0	4,406136	4,704	79,0272	0,794	77,45	3,5	1005,5	7,4	9,3	9,1	1	1	1	1	1	1	1	1	1	0	1	-34,954193	274,629479	287,576964	0
14.01.2021	19:46:55	0	0	3,050402	4,9155	82,5876	0,794	77,425	3,5	1005,66	7,4	9,3	9,1	1	1	1	1	1	1	1	1	1	0	1	-31,712474	274,707864	291,187066	0
14.01.2021	19:46:56	0	0	3,615291	4,839	82,9764	0,794	77,446	3,5	1005,68	7,4	9,3	9,1	1	1	1	1	1	1	1	1	1	0	1	-36,856942	274,647894	285,760731	0
14.01.2021	19:46:57	0	0	4,632092	4,79775	86,274	0,798	77,43	3,5	1005,7	7,4	9,3	9,1	1	1	1	1	1	1	1	1	1	0	1	-34,672304	274,635616	287,88768	0
14.01.2021	19:46:58	0	0	4,519114	4,5855	85,5576	0,797	77,426	3,5	1005,52	7,4	9,3	9,1	1	1	1	1	1	1	1	1	1	0	1	-34,108527	274,6694	288,610207	0
14.01.2021	19:46:59	0	0	4,406136	4,50075	84,7728	0,796	77,415	3,5	1005,76	7,4	9,3	9,1	1	1	1	1	1	1	1	1	1	0	1	-33,262861	274,791207	290,028712	0
14.01.2021	19:47:00	0	0	4,971026	4,47	89,712	0,787	77,4	3,5	1005,52	7,4	9,3	9,1	1	1	1	1	1	1	1	1	1	0	1	-38,054968	274,820617	285,375031	0
14.01.2021	19:47:01	0	0	4,971026	4,47	89,712	0,787	77,4	3,5	1005,52	7,4	9,3	9,1	1	1	1	1	1	1	1	1	1	0	1	-38,054968	274,820617	285,375031	0
14.01.2021	19:47:02	0	0	4,858048	4,2555	92,9484	0,794	77,411	3,5	1005,72	7,4	9,3	9,1	1	1	1	1	1	1	1	1	1	0	1	-36,363636	274,752578	286,746186	0
14.01.2021	19:47:03	0	0	2,711468	4,46175	92,9448	0,786	77,412	3,5	1005,66	7,4	9,3	9,1	1	1	1	1	1	1	1	1	1	0	1	-34,390416	274,623345	288,111924	0
14.01.2021	19:47:04	0	0	5,084003	4,788	85,896	0,78	77,407	3,5	1005,6	7,4	9,3	9,1	1	1	1	1	1	1	1	1	1	0	1	-38,548273	274,729437	284,452709	0
14.01.2021	19:47:05	0	0	2,372535	5,06175	81,2088	0,792	77,415	3,5	1005,7	7,4	9,3	9,1	1	1	1	1	1	1	1	1	1	0	1	-35,16561	274,812873	288,227937	0
14.01.2021	19:47:06	0	0	2,259557	5,127	79,8624	0,789	77,405	3,5	1005,68	7,4	9,3	9,1	1	1	1	1	1	1	1	1	1	0	1	-36,856942	274,700165	286,006402	0
14.01.2021	19:47:07	0	0	2,711468	4,90575	79,0416	0,791	77,401	3,5	1005,58	7,4	9,3	9,1	1	1	1	1	1	1	1	1	1	0	1	-31,92389	274,672475	290,809292	0
14.01.2021	19:47:08	0	0	4,971026	4,86525	89,7156	0,789	77,413	3,5	1005,7	7,4	9,3	9,1	1	1	1	1	1	1	1	1	1	0	1	-34,249471	274,760297	288,896666	0
14.01.2021	19:47:09	0	0	4,858048	4,49025	97,6968	0,79	77,434	3,5	1005,7	7,4	9,3	9,1	1	1	1	1	1	1	1	1	1	0	1	-29,598309	274,687853	293,207158	0
14.01.2021	19:47:10	0	0	4,519114	4,14675	98,1	0,786	77,434	3,5	1005,7	7,4	9,3	9,1	1	1	1	1	1	1	1	1	1	0	1	-35,095137	274,684777	287,695867	0
14.01.2021	19:47:11	0	0	4,858048	4,167	101,52	0,789	77,447	3,5	1005,58	7,4	9,3	9,1	1	1	1	1	1	1	1	1	1	0	1	-32,064834	274,805132	291,292277	0
14.01.2021	19:47:12	0	0	2,711468	4,2015	90,7992	0,786	77,454	3,5	1005,6	7,4	9,3	9,1	1	1	1	1	1	1	1	1	1	0	1	-33,121917	274,707864	289,777623	0
14.01.2021	19:47:13	0	0	2,146579	4,1505	100,7568	0,793	77,47	3,5	1005,46	7,4	9,3	9,1	1	1	1	1	1	1	1	1	1	0	1	-38,971106	274,638685	283,603296	0
14.01.2021	19:47:14	0	0	3,389336	4,13325	95,5152	0,789	77,464	3,5	1005,52	7,4	9,3	9,1	1	1	1	1	1	1	1	1	1	0	1	-39,957717	274,720188	282,999773	0
14.01.2021	19:47:15	0	0	4,519114	4,29375	101,8188	0,785	77,483	3,5	1005,72	7,4	9,3	9,1	1	1	1	1	1	1	1	1	1	0	1	-36,434109	274,63715	286,133084	0
14.01.2021	19:47:16	0	0	4,406136	4,31475	97,308	0,79	77,501	3,5	1005,6	7,4	9,3	9,1	1	1	1	1	1	1	1	1	1	0	1	-37,13883	274,737147	285,898414	0
14.01.2021	19:47:17	0	0	4,519114	3,8415	117,0144	0,781	77,508	3,5	1005,46	7,4	9,3	9,1	1	1	1	1	1	1	1	1	1	0	1	-34,601832	274,811325	288,784426	0
14.01.2021	19:47:18	0	0	4,406136	3,651	109,2312	0,788	77,522	3,5	1005,64	7,3	9,3	9,1	1	1	1	1	1	1	1	1	1	0	1	-31,712474	274,641754	290,876349	0
14.01.2021	19:47:19	0	0	3,954225	3,55275	105,8796	0,783	77,528	3,5	1005,54	7,4	9,3	9,1	1	1	1	1	1	1	1	1	1	0	1	-30,162086	274,626412	292,354661	0
14.01.2021	19:47:20	0	0	5,084003	3,53325	94,0824	0,781	77,534	3,5	1005,6	7,4	9,3	9,1	1	1	1	1	1	1	1	1	1	0	1	-35,236082	274,788114	288,040935	0
14.01.2021	19:47:21	0	0	4,632092	3,98625	91,5192	0,784	77,553	3,5	1005,6	7,4	9,3	9,1	1	1	1	1	1	1	1	1	1	0	1	-34,460888	274,792754	288,837965	0
14.01.2021	19:47:22	0	0	2,711468	4,4445	96,5916	0,786	77,556	3,5	1005,58	7,4	9,3	9,1	1	1	1	1	1	1	1	1	1	0	1	-32,487667	274,710944	290,426356	0
14.01.2021	19:47:23	0	0	2,824446	4,38075	79,0272	0,786	77,55	3,5	1005,66	7,4	9,3	9,1	1	1	1	1	1	1	1	1	1	0	1	-34,601832	274,811325	288,784426	0
14.01.2021	19:47:24	0	0	3,16338	4,3665	85,1256	0,785	77,56	3,5	1005,54	7,4	9,3	9,1	1	1	1	1	1	1	1	1	1	0	1	-33,615222	274,66479	289,081844	0
14.01.2021	19:47:25	0	0	3,276358	4,50675	85,5216	0,785	77,584	3,5	1005,64	7,4	9,3	9,1	1	1	1	1	1	1	1	1	1	0	1	-35,236082	274,680162	287,533234	0
14.01.2021	19:47:26	0	0	4,406136	4,587	77,562	0,794	77,588	3,5	1005,66	7,3	9,3	9,1	1	1	1	1	1	1	1	1	1	0	1	-37,209302	274,652501	285,430015	0
14.01.2021	19:47:27	0	0	4,632092	4,506	90,0072	0,783	77,575	3,5	1005,68	7,4	9,3	9,1	1	1	1	1	1	1	1	1	1	0	1	-33,897111	274,760297	289,249027	0
14.01.2021	19:47:28	0	0	3,389336	4,6965	92,6424	0,784	77,574	3,5	1005,56	7,4	9,3	9,1	1	1	1	1	1	1	1	1	1	0	1	-33,685694	274,6817	289,09085	0
14.01.2021	19:47:29	0	0	4,180181	4,57575	91,152	0,79	77,584	3,5	1005,5	7,4	9,3	9,1	1	1	1	1	1	1	1	1	1	0	1	-36,222692	274,689392	286,590007	0
14.01.2021	19:47:30	0	0	4,519114	4,6185	97,6932	0,782	77,595	3,5	1005,52	7,4	9,3	9,1	1	1	1	1	1	1	1	1	1	0	1	-36,715997	274,808228	286,655686	0
14.01.2021	19:47:31	0	0	4,406136	4,58325	102,9456	0,778	77,607	3,5	1005,66	7,3	9,3	9,1	1	1	1	1	1	1	1	1	1	0	1	-36,715997	274,741775	286,343013	0
14.01.2021	19:47:32	0	0	3,050402	4,206	80,9172	0,779	77,603	3,5	1005,6	7,4	9,3	9,1	1	1	1	1	1	1	1	1	1	0	1	-33,54475	274,823715	289,899835	0
14.01.2021	19:47:33	0	0	2,937424	3,69375	106,2972	0,783	77,6	3,5	1005,56	7,4	9,3	9,1	1	1	1	1	1	1	1	1	1	0	1	-35,588443	274,743318	287,477825	0
14.01.2021	19:47:34	0	0	2,598491	3,52575	105,5088	0,779	77,607	3,5	1005,5	7,4	9,3	9,1	1	1	1	1	1	1	1	1	1	0	1	-36,434109	274,817519	286,981307	0
14.01.2021	19:47:35	0	0	3,276358	3,585	104,4288	0,782	77,618	3,5	1005,42	7,4	9,3	9,1	1	1	1	1	1	1	1	1	1	0	1	-36,434109	274,752578	286,675714	0
14.01.2021	19:47:36	0	0	3,728269	3,3945	102,1932	0,779	77,615	3,5	1005,58	7,4	9,3	9,1	1	1	1	1	1	1	1	1	1	0	1	-36,15222	274,825265	287,299659	0
14.01.2021	19:47:37	0	0	3,841247	3,15675	106,2792	0,785	77,617	3,5	1005,6	7,4	9,3	9,1	1	1	1	1	1	1	1	1	1	0	1	-35,729387	274,77111	287,467621	0
14.01.2021	19:47:38	0	0	2,372535	3,00825	101,4948	0,781	77,608	3,5	1005,58	7,4	9,3	9,1	1	1	1	1	1	1	1	1	1	0	1	-36,715997	274,661717	285,966628	0
14.01.2021	19:47:39	0	0	4,293158	3,02325	107,4492	0,787	77,612	3,5	1005,52	7,3	9,3	9,1	1	1	1	1	1	1	1	1	1	0	1	-38,548273	274,792754	284,750579	0
14.01.2021	19:47:40	0	0	2,372535	3,5355	104,7672	0,78	77,594	3,5	1005,68	7,4	9,3	9,1	1	1	1	1	1	1	1	1	1	0	1	-32,840028	274,635616	289,719956	0
14.01.2021	19:47:41	0	0	3,050402	3,78675	100,7424	0,786	77,61	3,5	1005,58	7,4	9,3	9,1	1	1	1	1	1	1	1	1	1	0	1	-36,856942	274,780383	286,383697	0
14.01.2021	19:47:42	0	0	5,084003	4,2165	102,9672	0,78	77,613	3,5	1005,44	7,4	9,3	9,1	1	1	1	1	1	1	1	1	1	0	1	-33,121917	274,786567	290,147823	0
14.01.2021	19:47:43	0	0	3,615291	4,1445	92,754	0,783	77,616	3,5	1005,6	7,4	9,3	9,1	1	1	1	1	1	1	1	1	1	0	1	-35,447498	274,822166	287,989793	0
14.01.2021	19:47:44	0	0	4,519114	3,90225	96,1992	0,777	77,61	3,5	1005,48	7,4	9,3	9,1	1	1	1	1	1	1	1	1	1	0	1	-32,628612	274,695547	290,213023	0
14.01.2021	19:47:45	0	0	4,406136	3,6825	102,5748	0,784	77,599	3,5	1005,66	7,4	9,3	9,1	1	1	1	1	1	1	1	1	1	0	1	-35,51797	274,660181	287,157435	0
14.01.2021	19:47:46	0	0	4,293158	3,369	83,3508	0,785	77,609	3,5	1005,62	7,4	9,3	9,1	1	1	1	1	1	1	1	1	1	0	1	-35,940803	274,766475	287,234399	0
14.01.2021	19:47:47	0	0	2,372535	3,183	96,5988	0,78	77,606	3,5	1005,66	7,4	9,3	9,1	1	1	1	1	1	1	1	1	1	0	1	-34,460888	274,811325	288,92537	0
14.01.2021	19:47:48	0	0	2,259557	3,069	91,5012	0,782	77,619	3,5	1005,48	7,4	9,3	9,1	1	1	1	1	1	1	1	1	1	0	1	-31,219168	274,677087	291,535692	0
14.01.2021	19:47:49	0	0	4,519114	3,1515	87,7212	0,782	77,632	3,5	1005,62	7,4	9,3	9,1	1	1	1	1	1	1	1	1	1	0	1	-33,051445	274,805132	290,305667	0
14.01.2021	19:47:50	0	0	2,711468	3,141	101,7648	0,784	77,626	3,5	1005,52	7,4	9,3	9,1	1	1	1	1	1	1	1	1	1	0	1	-35,447498	274,666327	287,25679	0
14.01.2021	19:47:51	0	0	3,954225	3,1095	113,0148	0,78	77,616	3,5	1005,64	7,4	9,3	9,1	1	1	1	1	1	1	1	1	1	0	1	-31,078224	274,692469	291,748941	0
14.01.2021	19:47:52	0	0	5,084003	2,99025	101,8224	0,778	77,618	3,5	1005,62	7,4	9,3	9,1	1	1	1	1	1	1	1	1	1	0	1	-32,276251	274,629479	290,254906	0
14.01.2021	19:47:53	0	0	4,067203	3,012	106,2756	0,782	77,609	3,5	1005,46	7,4	9,3	9,1	1	1	1	1	1	1	1	1	1	0	1	-31,571529	274,674012	291,168878	0
14.01.2021	19:47:54	0	0	2,937424	3,333	94,392	0,782	77,612	3,5	1005,54	7,4	9,3	9,1	1	1	1	1	1	1	1	1	1	0	1	-33,474278	274,798942	289,853699	0
14.01.2021	19:47:55	0	0	2,824446	3,65325	98,4456	0,788	77,611	3,5	1005,5	7,4	9,3	9,1	1	1	1	1	1	1	1	1	1	0	1	-31,148696	274,670938	291,577261	0
14.01.2021	19:47:56	0	0	2,372535	3,99825	102,9348	0,782	77,614	3,5	1005,76	7,4	9,3	9,1	1	1	1	1	1	1	1	1	1	0	1	-34,813249	274,647894	287,804424	0
14.01.2021	19:47:57	0	0	2,598491	4,272	85,5216	0,783	77,595	3,5	1005,58	7,4	9,3	9,1	1	1	1	1	1	1	1	1	1	0	1	-33,897111	274,643289	288,698923	0
14.01.2021	19:47:58	0	0	4,632092	4,302	90,0108	0,786	77,604	3,5	1005,66	7,4	9,3	9,1	1	1	1	1	1	1	1	1	1	0	1	-34,249471	274,698626	288,606635	0
14.01.2021	19:47:59	0	0	4,293158	4,128	94,3848	0,778	77,594	3,5	1005,58	7,4	9,3	9,1	1	1	1	1	1	1	1	1	1	0	1	-36,856942	274,805132	286,50017	0
14.01.2021	19:48:00	0	0	4,632092	3,81225	96,9948	0,779	77,606	3,5	1005,44	7,4	9,3	9,1	1	1	1	1	1	1	1	1	1	0	1	-32,276251	274,808228	291,095433	0
14.01.2021	19:48:01	0	0	4,632092	3,81225	96,9948	0,779	77,606	3,5	1005,44	7,4	9,3	9,1	1	1	1	1	1	1	1	1	1	0	1	-32,276251	274,808228	291,095433	0
14.01.2021	19:48:02	0	0	2,937424	3,62475	89,7048	0,782	77,612	3,5	1005,58	7,4	9,3	9,1	1	1	1	1	1	1	1	1	1	0	1	-35,377026	274,74949	287,718275	0
14.01.2021	19:48:03	0	0	2,485513	3,657	99,864	0,784	77,604	3,5	1005,56	7,4	9,3	9,1	1	1	1	1	1	1	1	1	1	0	1	-33,192389	274,800489	290,14287	0
14.01.2021	19:48:04	0	0	4,632092	3,8895	95,5116	0,779	77,608	3,5	1005,6	7,4	9,3	9,1	1	1	1	1	1	1	1	1	1	0	1	-35,799859	274,780383	287,44078	0
14.01.2021	19:48:05	0	0	2,937424	4,1085	90,0432	0,775	77,623	3,5	1005,54	7,4	9,3	9,1	1	1	1	1	1	1	1	1	1	0	1	-32,135307	274,6817	290,641238	0
14.01.2021	19:48:06	0	0	3,050402	4,2375	96,2316	0,784	77,626	3,5	1005,62	7,4	9,3	9,1	1	1	1	1	1	1	1	1	1	0	1	-33,54475	274,802037	289,797793	0
14.01.2021	19:48:07	0	0	4,406136	4,22625	96,2244	0,773	77,625	3,5	1005,62	7,4	9,3	9,1	1	1	1	1	1	1	1	1	1	0	1	-30,655391	274,707864	292,244149	0
14.01.2021	19:48:08	0	0	2,824446	4,065	100,7568	0,781	77,649	3,5	1005,7	7,4	9,3	9,1	1	1	1	1	1	1	1	1	1	0	1	-36,15222	274,624879	286,357323	0
14.01.2021	19:48:09	0	0	3,050402	3,87675	104,1264	0,785	77,647	3,5	1005,64	7,4	9,3	9,1	1	1	1	1	1	1	1	1	1	0	1	-33,333333	274,690931	289,486598	0
14.01.2021	19:48:10	0	0	2,485513	3,81675	102,2112	0,782	77,644	3,5	1005,54	7,4	9,3	9,1	1	1	1	1	1	1	1	1	1	0	1	-31,782946	274,623345	290,719394	0
14.01.2021	19:48:11	0	0	2,711468	3,84975	99,1512	0,779	77,652	3,5	1005,44	7,4	9,3	9,1	1	1	1	1	1	1	1	1	1	0	1	-33,756166	274,674012	288,984241	0
14.01.2021	19:48:12	0	0	3,050402	3,79725	104,7492	0,778	77,686	3,5	1005,6	7,4	9,3	9,1	1	1	1	1	1	1	1	1	1	0	1	-32,55814	274,678625	290,203948	0
14.01.2021	19:48:13	0	0	3,276358	3,8025	96,2352	0,78	77,658	3,5	1005,68	7,4	9,3	9,1	1	1	1	1	1	1	1	1	1	0	1	-32,840028	274,819068	290,582679	0
14.01.2021	19:48:14	0	0	4,632092	3,7995	77,976	0,783	77,677	3,5	1005,54	7,4	9,3	9,1	1	1	1	1	1	1	1	1	1	0	1	-33,474278	274,734063	289,54846	0
14.01.2021	19:48:15	0	0	4,74507	3,66675	90,09	0,787	77,676	3,5	1005,46	7,4	9,3	9,1	1	1	1	1	1	1	1	1	1	0	1	-33,333333	274,814422	290,067502	0
14.01.2021	19:48:16	0	0	2,937424	3,96	73,7712	0,78	77,675	3,5	1005,54	7,4	9,3	9,1	1	1	1	1	1	1	1	1	1	0	1	-34,249471	274,74949	288,84583	0
14.01.2021	19:48:17	0	0	2,598491	4,6695	86,2632	0,78	77,672	3,5	1005,66	7,3	9,3	9,1	1	1	1	1	1	1	1	1	1	0	1	-35,16561	274,814422	288,235226	0
14.01.2021	19:48:18	0	0	3,728269	4,82925	96,966	0,783	77,672	3,5	1005,76	7,4	9,3	9,1	1	1	1	1	1	1	1	1	1	0	1	-38,618746	274,686315	284,179489	0
14.01.2021	19:48:19	0	0	3,954225	5,169	94,482	0,788	77,686	3,5	1005,74	7,4	9,3	9,1	1	1	1	1	1	1	1	1	1	0	1	-35,940803	274,81597	287,467322	0
14.01.2021	19:48:20	0	0	2,937424	4,98	96,9552	0,784	77,678	3,5	1005,6	7,4	9,3	9,1	1	1	1	1	1	1	1	1	1	0	1	-33,615222	274,734063	289,407515	0
14.01.2021	19:48:21	0	0	3,841247	5,07975	83,7252	0,779	77,695	3,5	1005,64	7,4	9,3	9,1	1	1	1	1	1	1	1	1	1	0	1	-36,856942	274,638685	285,717461	0
14.01.2021	19:48:22	0	0	3,16338	5,4585	97,7148	0,78	77,687	3,5	1005,34	7,4	9,3	9,1	1	1	1	1	1	1	1	1	1	0	1	-29,950669	274,684777	292,840335	0
14.01.2021	19:48:23	0	0	2,372535	5,7045	99,864	0,778	77,701	3,5	1005,56	7,4	9,3	9,1	1	1	1	1	1	1	1	1	1	0	1	-31,501057	274,802037	291,841486	0
14.01.2021	19:48:24	0	0	2,824446	6,25875	93,2976	0,772	77,713	3,5	1005,38	7,4	9,3	9,1	1	1	1	1	1	1	1	1	1	0	1	-35,377026	274,680162	287,39229	0
14.01.2021	19:48:25	0	0	4,74507	6,07125	92,9088	0,781	77,724	3,5	1005,52	7,4	9,3	9,1	1	1	1	1	1	1	1	1	1	0	1	-32,064834	274,638685	290,509568	0
14.01.2021	19:48:26	0	0	4,632092	6,10425	100,3608	0,779	77,725	3,5	1005,7	7,4	9,3	9,1	1	1	1	1	1	1	1	1	1	0	1	-30,443975	274,783475	292,811213	0
14.01.2021	19:48:27	0	0	2,824446	6,453	98,4888	0,78	77,733	3,5	1005,56	7,4	9,3	9,1	1	1	1	1	1	1	1	1	1	0	1	-30,443975	274,766475	292,731227	0
14.01.2021	19:48:28	0	0	2,937424	6,8655	95,5116	0,779	77,754	3,5	1005,6	7,4	9,3	9,1	1	1	1	1	1	1	1	1	1	0	1	-34,038055	274,823715	289,40653	0
14.01.2021	19:48:29	0	0	3,276358	6,49275	111,0348	0,779	77,735	3,5	1005,52	7,4	9,3	9,1	1	1	1	1	1	1	1	1	1	0	1	-36,927414	274,744861	286,146111	0
14.01.2021	19:48:30	0	0	4,632092	6,3555	101,88	0,786	77,734	3,5	1005,34	7,4	9,3	9,1	1	1	1	1	1	1	1	1	1	0	1	-34,108527	274,647894	288,509145	0
14.01.2021	19:48:31	0	0	4,971026	6,219	110,6712	0,78	77,733	3,5	1005,56	7,4	9,3	9,1	1	1	1	1	1	1	1	1	1	0	1	-33,967583	274,680162	288,801733	0
14.01.2021	19:48:32	0	0	3,050402	5,93925	116,6364	0,786	77,754	3,5	1005,62	7,3	9,3	9,1	1	1	1	1	1	1	1	1	1	0	1	-33,826638	274,692469	289,000527	0
14.01.2021	19:48:33	0	0	4,293158	5,61	108,1188	0,783	77,737	3,5	1005,6	7,4	9,3	9,1	1	1	1	1	1	1	1	1	1	0	1	-33,262861	274,788114	290,014156	0
14.01.2021	19:48:34	0	0	3,615291	5,4645	120,8808	0,778	77,727	3,5	1005,34	7,4	9,3	9,1	1	1	1	1	1	1	1	1	1	0	1	-35,799859	274,707864	287,099681	0
14.01.2021	19:48:35	0	0	4,293158	5,205	113,4072	0,785	77,742	3,5	1005,62	7,4	9,3	9,1	1	1	1	1	1	1	1	1	1	0	1	-36,293164	274,836114	287,209793	0
14.01.2021	19:48:36	0	0	4,858048	5,394	126,1512	0,789	77,747	3,5	1005,46	7,4	9,3	9,1	1	1	1	1	1	1	1	1	1	0	1	-36,786469	274,712485	286,134797	0
14.01.2021	19:48:37	0	0	2,485513	5,52	122,0328	0,784	77,753	3,5	1005,6	7,4	9,3	9,1	1	1	1	1	1	1	1	1	1	0	1	-33,54475	274,655572	289,109	0
14.01.2021	19:48:38	0	0	2,824446	6,0765	108,4932	0,78	77,746	3,5	1005,6	7,4	9,3	9,1	1	1	1	1	1	1	1	1	1	0	1	-33,615222	274,797395	289,705473	0
14.01.2021	19:48:39	0	0	4,406136	5,8155	89,3268	0,778	77,739	3,5	1005,38	7,4	9,3	9,1	1	1	1	1	1	1	1	1	1	0	1	-31,289641	274,826814	292,169533	0
14.01.2021	19:48:40	0	0	5,084003	5,7465	98,0784	0,778	77,754	3,5	1005,46	7,4	9,3	9,1	1	1	1	1	1	1	1	1	1	0	1	-35,024665	274,7742	288,186883	0
14.01.2021	19:48:41	0	0	2,711468	5,65425	103,284	0,783	77,768	3,5	1005,5	7,4	9,3	9,1	1	1	1	1	1	1	1	1	1	0	1	-35,16561	274,674012	287,574798	0
14.01.2021	19:48:42	0	0	4,406136	5,59275	139,8528	0,785	77,758	3,5	1005,58	7,4	9,3	9,1	1	1	1	1	1	1	1	1	1	0	1	-32,135307	274,66479	290,56176	0
14.01.2021	19:48:43	0	0	3,954225	5,39925	124,2792	0,785	77,748	3,5	1005,38	7,4	9,3	9,1	1	1	1	1	1	1	1	1	1	0	1	-39,464412	274,697086	283,384459	0
14.01.2021	19:48:44	0	0	2,598491	5,3655	114,8688	0,782	77,743	3,5	1005,5	7,4	9,3	9,1	1	1	1	1	1	1	1	1	1	0	1	-35,870331	274,825265	287,581548	0
14.01.2021	19:48:45	0	0	3,615291	5,3865	111,3912	0,784	77,737	3,5	1005,44	7,4	9,3	9,1	1	1	1	1	1	1	1	1	1	0	1	-36,081748	274,795848	287,231666	0
14.01.2021	19:48:46	0	0	4,74507	5,51775	118,71	0,78	77,747	3,5	1005,54	7,4	9,3	9,1	1	1	1	1	1	1	1	1	1	0	1	-35,236082	274,780383	288,004557	0
14.01.2021	19:48:47	0	0	3,954225	5,45025	108,5076	0,777	77,728	3,5	1005,48	7,4	9,3	9,1	1	1	1	1	1	1	1	1	1	0	1	-32,980973	274,692469	289,846193	0
14.01.2021	19:48:48	0	0	4,406136	5,2275	110,3508	0,786	77,741	3,5	1005,52	7,4	9,3	9,1	1	1	1	1	1	1	1	1	1	0	1	-35,51797	274,654036	287,128563	0
14.01.2021	19:48:49	0	0	2,711468	5,25375	103,7448	0,778	77,737	3,5	1005,32	7,4	9,3	9,1	1	1	1	1	1	1	1	1	1	0	1	-36,927414	274,672475	285,805769	0
14.01.2021	19:48:50	0	0	2,824446	5,319	101,8044	0,781	77,727	3,5	1005,48	7,4	9,3	9,1	1	1	1	1	1	1	1	1	1	0	1	-35,236082	274,717106	287,706917	0
14.01.2021	19:48:51	0	0	4,293158	5,367	101,1096	0,784	77,732	3,5	1005,56	7,4	9,3	9,1	1	1	1	1	1	1	1	1	1	0	1	-33,967583	274,66479	288,729484	0
14.01.2021	19:48:52	0	0	3,728269	5,544	109,5732	0,784	77,738	3,5	1005,62	7,4	9,3	9,1	1	1	1	1	1	1	1	1	1	0	1	-37,068358	274,712485	285,852908	0
14.01.2021	19:48:53	0	0	2,598491	5,32275	101,4768	0,788	77,724	3,5	1005,54	7,4	9,3	9,1	1	1	1	1	1	1	1	1	1	0	1	-33,474278	274,657108	289,18669	0
14.01.2021	19:48:54	0	0	3,389336	4,8075	86,2776	0,786	77,723	3,5	1005,42	7,4	9,3	9,1	1	1	1	1	1	1	1	1	1	0	1	-34,249471	274,781929	288,998442	0
14.01.2021	19:48:55	0	0	2,711468	4,4505	88,9452	0,787	77,72	3,5	1005,56	7,4	9,3	9,1	1	1	1	1	1	1	1	1	1	0	1	-32,487667	274,839215	291,02989	0
14.01.2021	19:48:56	0	0	3,16338	4,35075	80,5104	0,793	77,767	3,5	1005,6	7,4	9,3	9,1	1	1	1	1	1	1	1	1	1	0	1	-35,447498	274,764931	287,720436	0
14.01.2021	19:48:57	0	0	2,598491	4,2015	81,1908	0,782	77,694	3,5	1005,64	7,4	9,3	9,1	1	1	1	1	1	1	1	1	1	0	1	-35,870331	274,66479	286,826735	0
14.01.2021	19:48:58	0	0	3,502313	4,14675	87,354	0,785	77,683	3,5	1005,56	7,4	9,3	9,1	1	1	1	1	1	1	1	1	1	0	1	-32,699084	274,791207	290,59249	0
14.01.2021	19:48:59	0	0	4,519114	4,2645	89,7048	0,781	77,686	3,5	1005,5	7,4	9,3	9,1	1	1	1	1	1	1	1	1	1	0	1	-31,007752	274,657108	291,653216	0
14.01.2021	19:49:00	0	0	2,937424	4,3635	88,5528	0,782	77,684	3,5	1005,56	7,4	9,3	9,1	1	1	1	1	1	1	1	1	1	0	1	-37,561663	274,700165	285,301681	0
14.01.2021	19:49:01	0	0	2,937424	4,3635	88,5528	0,782	77,684	3,5	1005,56	7,4	9,3	9,1	1	1	1	1	1	1	1	1	1	0	1	-37,561663	274,700165	285,301681	0
14.01.2021	19:49:02	0	0	5,309959	4,45125	86,652	0,789	77,665	3,5	1005,68	7,4	9,3	9,1	1	1	1	1	1	1	1	1	1	0	1	-36,15222	274,826814	287,306954	0
14.01.2021	19:49:03	0	0	4,180181	4,33125	88,5744	0,788	77,668	3,5	1005,56	7,4	9,3	9,1	1	1	1	1	1	1	1	1	1	0	1	-36,081748	274,747947	287,006294	0
14.01.2021	19:49:04	0	0	4,858048	4,2675	90,4068	0,788	77,651	3,5	1005,58	7,4	9,3	9,1	1	1	1	1	1	1	1	1	1	0	1	-33,967583	274,666327	288,736705	0
14.01.2021	19:49:05	0	0	4,632092	4,08975	88,9272	0,784	77,654	3,5	1005,62	7,4	9,3	9,1	1	1	1	1	1	1	1	1	1	0	1	-36,293164	274,726354	286,693318	0
14.01.2021	19:49:06	0	0	2,485513	4,01475	94,788	0,787	77,659	3,5	1005,48	7,4	9,3	9,1	1	1	1	1	1	1	1	1	1	0	1	-41,014799	274,672475	281,718383	0
14.01.2021	19:49:07	0	0	3,841247	3,939	100,3608	0,788	77,652	3,5	1005,54	7,4	9,3	9,1	1	1	1	1	1	1	1	1	1	0	1	-36,645525	274,808228	286,726159	0
14.01.2021	19:49:08	0	0	4,858048	3,7995	92,9556	0,784	77,649	3,5	1005,72	7,4	9,3	9,1	1	1	1	1	1	1	1	1	1	0	1	-37,209302	274,717106	285,733696	0
14.01.2021	19:49:09	0	0	2,598491	3,66225	103,6548	0,782	77,656	3,5	1005,62	7,4	9,3	9,1	1	1	1	1	1	1	1	1	1	0	1	-35,51797	274,684777	287,273034	0
14.01.2021	19:49:10	0	0	3,276358	3,4185	96,9588	0,786	77,675	3,5	1005,64	7,4	9,3	9,1	1	1	1	1	1	1	1	1	1	0	1	-34,742777	274,802037	288,599766	0
14.01.2021	19:49:11	0	0	4,067203	3,34425	76,3344	0,785	77,661	3,5	1005,5	7,4	9,3	9,1	1	1	1	1	1	1	1	1	1	0	1	-29,31642	274,652501	293,322897	0
14.01.2021	19:49:12	0	0	2,485513	3,636	81,1944	0,781	77,681	3,5	1005,62	7,4	9,3	9,1	1	1	1	1	1	1	1	1	1	0	1	-39,252995	274,772655	283,951283	0
14.01.2021	19:49:13	0	0	2,824446	3,741	85,1652	0,781	77,693	3,5	1005,42	7,4	9,3	9,1	1	1	1	1	1	1	1	1	1	0	1	-34,53136	274,850072	289,03732	0
14.01.2021	19:49:14	0	0	4,180181	3,561	74,142	0,784	77,696	3,5	1005,62	7,4	9,3	9,1	1	1	1	1	1	1	1	1	1	0	1	-35,658915	274,794301	287,647218	0
14.01.2021	19:49:15	0	0	3,841247	3,36525	88,5708	0,788	77,705	3,5	1005,58	7,4	9,3	9,1	1	1	1	1	1	1	1	1	1	0	1	-31,007752	274,655572	291,645998	0
14.01.2021	19:49:16	0	0	2,372535	3,1635	95,5152	0,781	77,701	3,5	1005,52	7,4	9,3	9,1	1	1	1	1	1	1	1	1	1	0	1	-31,360113	274,698626	291,495994	0
14.01.2021	19:49:17	0	0	2,824446	3,081	86,2884	0,786	77,715	3,5	1005,62	7,4	9,3	9,1	1	1	1	1	1	1	1	1	1	0	1	-36,15222	274,823715	287,292365	0
14.01.2021	19:49:18	0	0	2,937424	3,1425	95,5404	0,784	77,708	3,5	1005,48	7,4	9,3	9,1	1	1	1	1	1	1	1	1	1	0	1	-33,826638	274,66479	288,870428	0
14.01.2021	19:49:19	0	0	2,711468	3,408	89,316	0,786	77,73	3,5	1005,56	7,4	9,3	9,1	1	1	1	1	1	1	1	1	1	0	1	-35,236082	274,667863	287,475429	0
14.01.2021	19:49:20	0	0	3,050402	3,53325	98,0496	0,78	77,722	3,5	1005,52	7,4	9,3	9,1	1	1	1	1	1	1	1	1	1	0	1	-37,068358	274,820617	286,361641	0
14.01.2021	19:49:21	0	0	4,971026	3,48225	101,502	0,787	77,723	3,5	1005,36	7,4	9,3	9,1	1	1	1	1	1	1	1	1	1	0	1	-34,460888	274,703244	288,416932	0
14.01.2021	19:49:22	0	0	4,293158	3,25725	83,4336	0,781	77,729	3,5	1005,56	7,4	9,3	9,1	1	1	1	1	1	1	1	1	1	0	1	-34,813249	274,783475	288,441939	0
14.01.2021	19:49:23	0	0	3,050402	3,38475	87,732	0,785	77,73	3,5	1005,38	7,4	9,3	9,1	1	1	1	1	1	1	1	1	1	0	1	-32,628612	274,819068	290,794095	0
14.01.2021	19:49:24	0	0	2,711468	4,221	102,5892	0,778	77,733	3,5	1005,62	7,4	9,3	9,1	1	1	1	1	1	1	1	1	1	0	1	-34,390416	274,690931	288,429516	0
14.01.2021	19:49:25	0	0	2,824446	4,72875	101,5164	0,783	77,742	3,5	1005,54	7,4	9,3	9,1	1	1	1	1	1	1	1	1	1	0	1	-39,041579	274,687853	283,763888	0
14.01.2021	19:49:26	0	0	4,406136	4,90875	98,4312	0,79	77,745	3,5	1005,48	7,4	9,3	9,1	1	1	1	1	1	1	1	1	1	0	1	-36,856942	274,831463	286,624121	0
14.01.2021	19:49:27	0	0	2,711468	5,1885	107,0604	0,789	77,736	3,5	1005,72	7,4	9,3	9,1	1	1	1	1	1	1	1	1	1	0	1	-34,742777	274,674012	287,997631	0
14.01.2021	19:49:28	0	0	3,728269	5,06775	103,68	0,784	77,732	3,5	1005,58	7,4	9,3	9,1	1	1	1	1	1	1	1	1	1	0	1	-32,205779	274,646359	290,40468	0
14.01.2021	19:49:29	0	0	4,519114	5,004	91,9008	0,788	77,738	3,5	1005,66	7,4	9,3	9,1	1	1	1	1	1	1	1	1	1	0	1	-36,645525	274,775746	286,573295	0
14.01.2021	19:49:30	0	0	4,632092	4,962	91,1412	0,789	77,746	3,5	1005,6	7,4	9,3	9,1	1	1	1	1	1	1	1	1	1	0	1	-33,615222	274,657108	289,045746	0
14.01.2021	19:49:31	0	0	4,180181	5,16075	93,6828	0,785	77,751	3,5	1005,46	7,4	9,3	9,1	1	1	1	1	1	1	1	1	1	0	1	-35,940803	274,763386	287,219865	0
14.01.2021	19:49:32	0	0	3,050402	5,292	91,4976	0,78	77,755	3,5	1005,54	7,4	9,3	9,1	1	1	1	1	1	1	1	1	1	0	1	-36,081748	274,812873	287,311799	0
14.01.2021	19:49:33	0	0	4,067203	5,19	91,8828	0,786	77,756	3,5	1005,7	7,4	9,3	9,1	1	1	1	1	1	1	1	1	1	0	1	-33,615222	274,764931	289,552713	0
14.01.2021	19:49:34	0	0	4,406136	5,16075	92,6532	0,786	77,754	3,5	1005,64	7,3	9,3	9,1	1	1	1	1	1	1	1	1	1	0	1	-34,460888	274,658644	288,207298	0
14.01.2021	19:49:35	0	0	4,632092	5,12625	92,9412	0,788	77,76	3,5	1005,46	7,4	9,3	9,1	1	1	1	1	1	1	1	1	1	0	1	-35,447498	274,798942	287,880478	0
14.01.2021	19:49:36	0	0	3,728269	4,98675	90,8604	0,783	77,754	3,5	1005,58	7,4	9,3	9,1	1	1	1	1	1	1	1	1	1	0	1	-33,474278	274,783475	289,78091	0
14.01.2021	19:49:37	0	0	2,598491	4,73775	92,9628	0,776	77,75	3,5	1005,56	7,4	9,3	9,1	1	1	1	1	1	1	1	1	1	0	1	-41,649049	274,677087	281,105812	0
14.01.2021	19:49:38	0	0	3,16338	4,9095	86,6664	0,789	77,768	3,5	1005,5	7,4	9,3	9,1	1	1	1	1	1	1	1	1	1	0	1	-32,55814	274,650965	290,073962	0
14.01.2021	19:49:39	0	0	4,971026	4,82025	84,4092	0,787	77,763	3,5	1005,44	7,4	9,3	9,1	1	1	1	1	1	1	1	1	1	0	1	-33,967583	274,808228	289,404101	0
14.01.2021	19:49:40	0	0	4,632092	4,7295	93,7872	0,783	77,761	3,5	1005,4	7,4	9,3	9,1	1	1	1	1	1	1	1	1	1	0	1	-36,575053	274,718647	286,375191	0
14.01.2021	19:49:41	0	0	4,971026	4,70925	90,7632	0,788	77,778	3,5	1005,54	7,4	9,3	9,1	1	1	1	1	1	1	1	1	1	0	1	-35,306554	274,643289	287,28948	0
14.01.2021	19:49:42	0	0	3,954225	4,56525	88,5708	0,783	77,767	3,5	1005,62	7,4	9,3	9,1	1	1	1	1	1	1	1	1	1	0	1	-34,672304	274,695547	288,16933	0
14.01.2021	19:49:43	0	0	2,598491	4,68225	92,952	0,789	77,778	3,5	1005,7	7,4	9,3	9,1	1	1	1	1	1	1	1	1	1	0	1	-34,601832	274,658644	288,066354	0
14.01.2021	19:49:44	0	0	2,937424	4,62	84,4344	0,785	77,787	3,5	1005,68	7,4	9,3	9,1	1	1	1	1	1	1	1	1	1	0	1	-36,434109	274,752578	286,675714	0
14.01.2021	19:49:45	0	0	5,084003	4,686	82,3356	0,788	77,78	3,5	1005,58	7,4	9,3	9,1	1	1	1	1	1	1	1	1	1	0	1	-38,971106	274,814422	284,429729	0
14.01.2021	19:49:46	0	0	2,937424	4,82925	86,2884	0,782	77,785	3,5	1005,38	7,4	9,3	9,1	1	1	1	1	1	1	1	1	1	0	1	-35,095137	274,718647	287,855106	0
14.01.2021	19:49:47	0	0	3,050402	5,055	93,312	0,784	77,789	3,5	1005,58	7,4	9,3	9,1	1	1	1	1	1	1	1	1	1	0	1	-33,967583	274,831463	289,513479	0
14.01.2021	19:49:48	0	0	4,74507	5,145	83,3184	0,785	77,789	3,5	1005,56	7,4	9,3	9,1	1	1	1	1	1	1	1	1	1	0	1	-38,407329	274,758753	284,731544	0
14.01.2021	19:49:49	0	0	2,711468	5,127	77,5908	0,79	77,79	3,5	1005,72	7,4	9,3	9,1	1	1	1	1	1	1	1	1	1	0	1	-31,853418	274,77111	291,34359	0
14.01.2021	19:49:50	0	0	4,406136	5,12175	78,2712	0,783	77,779	3,5	1005,58	7,4	9,3	9,1	1	1	1	1	1	1	1	1	1	0	1	-35,236082	274,829914	288,237684	0
14.01.2021	19:49:51	0	0	3,954225	4,719	57,7368	0,789	77,773	3,5	1005,54	7,4	9,3	9,1	1	1	1	1	1	1	1	1	1	0	1	-35,024665	274,724812	287,954568	0
14.01.2021	19:49:52	0	0	2,259557	4,38375	67,6836	0,79	77,771	3,5	1005,52	7,4	9,3	9,1	1	1	1	1	1	1	1	1	1	0	1	-35,870331	274,654036	286,776202	0
14.01.2021	19:49:53	0	0	4,406136	4,38	60,5376	0,792	77,777	3,5	1005,64	7,4	9,3	9,1	1	1	1	1	1	1	1	1	1	0	1	-36,293164	274,78966	286,991131	0
14.01.2021	19:49:54	0	0	4,74507	4,4895	57,7188	0,785	77,759	3,5	1005,62	7,4	9,3	9,1	1	1	1	1	1	1	1	1	1	0	1	-38,75969	274,820617	284,670309	0
14.01.2021	19:49:55	0	0	2,824446	4,23825	72,6768	0,781	77,741	3,5	1005,44	7,4	9,3	9,1	1	1	1	1	1	1	1	1	1	0	1	-37,420719	274,811325	285,965539	0
14.01.2021	19:49:56	0	0	3,728269	4,347	95,832	0,79	77,737	3,5	1005,44	7,4	9,3	9,1	1	1	1	1	1	1	1	1	1	0	1	-36,997886	274,638685	285,576516	0
14.01.2021	19:49:57	0	0	4,067203	4,76175	92,9484	0,794	77,724	3,5	1005,5	7,4	9,3	9,1	1	1	1	1	1	1	1	1	1	0	1	-38,971106	274,690931	283,848825	0
14.01.2021	19:49:58	0	0	3,16338	4,7115	98,424	0,784	77,716	3,5	1005,54	7,4	9,3	9,1	1	1	1	1	1	1	1	1	1	0	1	-34,813249	274,822166	288,624043	0
14.01.2021	19:49:59	0	0	3,276358	4,29375	86,2524	0,789	77,708	3,5	1005,54	7,4	9,3	9,1	1	1	1	1	1	1	1	1	1	0	1	-37,77308	274,698626	285,083027	0
14.01.2021	19:50:00	0	0	4,406136	4,206	81,9396	0,789	77,701	3,5	1005,58	7,4	9,3	9,1	1	1	1	1	1	1	1	1	1	0	1	-37,632135	274,678625	285,129952	0
14.01.2021	19:50:01	0	0	4,406136	4,206	81,9396	0,789	77,701	3,5	1005,58	7,4	9,3	9,1	1	1	1	1	1	1	1	1	1	0	1	-37,632135	274,678625	285,129952	0
14.01.2021	19:50:02	0	0	4,180181	4,22325	74,5452	0,793	77,696	3,5	1005,62	7,4	9,3	9,1	1	1	1	1	1	1	1	1	1	0	1	-39,112051	274,822166	284,325241	0
14.01.2021	19:50:03	0	0	2,937424	4,36875	85,1616	0,794	77,686	3,5	1005,52	7,4	9,3	9,1	1	1	1	1	1	1	1	1	1	0	1	-31,92389	274,684777	290,867114	0
14.01.2021	19:50:04	0	0	2,937424	4,52475	88,9776	0,788	77,66	3,5	1005,66	7,4	9,3	9,1	1	1	1	1	1	1	1	1	1	0	1	-38,12544	274,797395	285,195254	0
14.01.2021	19:50:05	0	0	3,16338	4,7505	100,3536	0,791	77,667	3,5	1005,56	7,4	9,3	9,1	1	1	1	1	1	1	1	1	1	0	1	-35,799859	274,812873	287,593688	0
14.01.2021	19:50:06	0	0	4,858048	4,86675	102,5712	0,792	77,668	3,5	1005,46	7,4	9,3	9,1	1	1	1	1	1	1	1	1	1	0	1	-37,068358	274,727895	285,925374	0
14.01.2021	19:50:07	0	0	4,406136	4,662	86,2776	0,789	77,653	3,5	1005,56	7,4	9,3	9,1	1	1	1	1	1	1	1	1	1	0	1	-35,447498	274,641754	287,141324	0
14.01.2021	19:50:08	0	0	4,74507	4,71375	103,3056	0,793	77,682	3,5	1005,42	7,4	9,3	9,1	1	1	1	1	1	1	1	1	1	0	1	-34,178999	274,764931	288,988935	0
14.01.2021	19:50:09	0	0	3,502313	4,79175	107,4492	0,793	77,669	3,5	1005,36	7,4	9,3	9,1	1	1	1	1	1	1	1	1	1	0	1	-36,997886	274,626412	285,518861	0
14.01.2021	19:50:10	0	0	2,824446	4,65	107,0064	0,793	77,655	3,5	1005,58	7,4	9,3	9,1	1	1	1	1	1	1	1	1	1	0	1	-33,121917	274,76802	290,060553	0
14.01.2021	19:50:11	0	0	2,937424	4,40775	102,9384	0,796	77,665	3,5	1005,74	7,4	9,3	9,1	1	1	1	1	1	1	1	1	1	0	1	-36,081748	274,647894	286,535925	0
14.01.2021	19:50:12	0	0	2,711468	4,194	103,2912	0,793	77,661	3,5	1005,56	7,4	9,3	9,1	1	1	1	1	1	1	1	1	1	0	1	-34,319944	274,740232	288,731811	0
14.01.2021	19:50:13	0	0	2,937424	4,0605	105,1452	0,793	77,641	3,5	1005,38	7,4	9,3	9,1	1	1	1	1	1	1	1	1	1	0	1	-35,236082	274,837664	288,274175	0
14.01.2021	19:50:14	0	0	3,276358	3,79125	105,858	0,789	77,632	3,5	1005,4	7,4	9,3	9,1	1	1	1	1	1	1	1	1	1	0	1	-32,840028	274,80668	290,524369	0
14.01.2021	19:50:15	0	0	4,293158	3,711	100,764	0,792	77,617	3,5	1005,6	7,4	9,3	9,1	1	1	1	1	1	1	1	1	1	0	1	-35,940803	274,670938	286,785154	0
14.01.2021	19:50:16	0	0	5,084003	3,7845	96,5808	0,79	77,624	3,5	1005,5	7,4	9,3	9,1	1	1	1	1	1	1	1	1	1	0	1	-35,377026	274,629479	287,154131	0
14.01.2021	19:50:17	0	0	2,824446	3,7335	103,6584	0,791	77,612	3,5	1005,56	7,4	9,3	9,1	1	1	1	1	1	1	1	1	1	0	1	-31,712474	274,723271	291,259511	0
14.01.2021	19:50:18	0	0	3,389336	3,76275	98,4384	0,797	77,616	3,5	1005,64	7,4	9,3	9,1	1	1	1	1	1	1	1	1	1	0	1	-35,377026	274,825265	288,074853	0
14.01.2021	19:50:19	0	0	4,632092	3,72675	95,796	0,787	77,617	3,5	1005,52	7,4	9,3	9,1	1	1	1	1	1	1	1	1	1	0	1	-34,954193	274,703244	287,923627	0
14.01.2021	19:50:20	0	0	4,74507	3,69525	89,3304	0,789	77,61	3,5	1005,52	7,4	9,3	9,1	1	1	1	1	1	1	1	1	1	0	1	-35,236082	274,667863	287,475429	0
14.01.2021	19:50:21	0	0	3,16338	3,6735	88,5924	0,795	77,616	3,5	1005,46	7,4	9,3	9,1	1	1	1	1	1	1	1	1	1	0	1	-35,658915	274,758753	287,479958	0
14.01.2021	19:50:22	0	0	3,954225	3,8085	88,596	0,789	77,612	3,5	1005,58	7,4	9,3	9,1	1	1	1	1	1	1	1	1	1	0	1	-34,390416	274,820617	289,039583	0
14.01.2021	19:50:23	0	0	4,293158	3,849	94,7448	0,785	77,61	3,5	1005,62	7,4	9,3	9,1	1	1	1	1	1	1	1	1	1	0	1	-36,434109	274,678625	286,327979	0
14.01.2021	19:50:24	0	0	5,309959	3,78375	80,5176	0,794	77,632	3,5	1005,56	7,4	9,3	9,1	1	1	1	1	1	1	1	1	1	0	1	-36,715997	274,828364	286,750472	0
14.01.2021	19:50:25	0	0	3,16338	3,7395	85,5504	0,791	77,638	3,5	1005,3	7,4	9,3	9,1	1	1	1	1	1	1	1	1	1	0	1	-35,095137	274,76802	288,087332	0
14.01.2021	19:50:26	0	0	4,632092	3,77175	84,7512	0,794	77,647	3,5	1005,46	7,4	9,3	9,1	1	1	1	1	1	1	1	1	1	0	1	-36,786469	274,64943	285,838417	0
14.01.2021	19:50:27	0	0	4,632092	3,80475	83,7108	0,788	77,631	3,5	1005,6	7,3	9,3	9,1	1	1	1	1	1	1	1	1	1	0	1	-34,954193	274,761842	288,199209	0
14.01.2021	19:50:28	0	0	3,615291	3,9735	93,3444	0,794	77,634	3,5	1005,6	7,4	9,3	9,1	1	1	1	1	1	1	1	1	1	0	1	-31,853418	274,814422	291,547418	0
14.01.2021	19:50:29	0	0	2,372535	3,99	91,962	0,79	77,645	3,5	1005,58	7,4	9,3	9,1	1	1	1	1	1	1	1	1	1	0	1	-33,54475	274,655572	289,109	0
14.01.2021	19:50:30	0	0	4,858048	4,08075	90,7704	0,791	77,663	3,5	1005,46	7,4	9,3	9,1	1	1	1	1	1	1	1	1	1	0	1	-33,756166	274,74949	289,339135	0
14.01.2021	19:50:31	0	0	3,276358	4,04325	99,5364	0,788	77,655	3,5	1005,58	7,4	9,3	9,1	1	1	1	1	1	1	1	1	1	0	1	-32,346723	274,63715	290,22047	0
14.01.2021	19:50:32	0	0	2,485513	3,933	91,17	0,792	77,672	3,5	1005,62	7,4	9,3	9,1	1	1	1	1	1	1	1	1	1	0	1	-33,54475	274,811325	289,841508	0
14.01.2021	19:50:33	0	0	4,406136	3,9555	83,8332	0,789	77,666	3,5	1005,72	7,4	9,3	9,1	1	1	1	1	1	1	1	1	1	0	1	-37,914024	274,829914	285,559741	0
14.01.2021	19:50:34	0	0	5,084003	4,053	79,7652	0,787	77,651	3,5	1005,58	7,3	9,3	9,1	1	1	1	1	1	1	1	1	1	0	1	-34,883721	274,76802	288,298749	0
14.01.2021	19:50:35	0	0	3,050402	3,78375	85,5252	0,795	77,656	3,5	1005,44	7,3	9,3	9,1	1	1	1	1	1	1	1	1	1	0	1	-32,135307	274,640219	290,446305	0
14.01.2021	19:50:36	0	0	2,598491	3,73575	90,4032	0,795	77,67	3,5	1005,52	7,4	9,3	9,1	1	1	1	1	1	1	1	1	1	0	1	-34,390416	274,709404	288,516365	0
14.01.2021	19:50:37	0	0	2,711468	4,01625	80,1504	0,789	77,667	3,5	1005,56	7,4	9,3	9,1	1	1	1	1	1	1	1	1	1	0	1	-37,209302	274,661717	285,473323	0
14.01.2021	19:50:38	0	0	4,632092	4,25625	82,3536	0,792	77,646	3,5	1005,56	7,4	9,3	9,1	1	1	1	1	1	1	1	1	1	0	1	-36,997886	274,721729	285,966851	0
14.01.2021	19:50:39	0	0	4,293158	4,4025	86,9724	0,796	77,671	3,5	1005,68	7,4	9,3	9,1	1	1	1	1	1	1	1	1	1	0	1	-37,914024	274,819068	285,508683	0
14.01.2021	19:50:40	0	0	4,406136	4,8975	84,4236	0,794	77,682	3,5	1005,58	7,4	9,3	9,1	1	1	1	1	1	1	1	1	1	0	1	-34,108527	274,746404	288,972256	0
14.01.2021	19:50:41	0	0	2,711468	5,60025	81,6012	0,789	77,662	3,5	1005,52	7,4	9,3	9,1	1	1	1	1	1	1	1	1	1	0	1	-39,112051	274,654036	283,534482	0
14.01.2021	19:50:42	0	0	2,824446	6,2595	84,7872	0,795	77,712	3,5	1005,62	7,4	9,3	9,1	1	1	1	1	1	1	1	1	1	0	1	-34,178999	274,754121	288,938084	0
14.01.2021	19:50:43	0	0	3,050402	6,525	101,502	0,794	77,661	3,5	1005,54	7,4	9,3	9,1	1	1	1	1	1	1	1	1	1	0	1	-37,843552	274,647894	284,774121	0
14.01.2021	19:50:44	0	0	2,598491	6,696	89,2944	0,788	77,66	3,5	1005,64	7,4	9,3	9,1	1	1	1	1	1	1	1	1	1	0	1	-38,618746	274,694008	284,215654	0
14.01.2021	19:50:45	0	0	3,841247	6,64875	92,97	0,793	77,662	3,5	1005,56	7,4	9,3	9,1	1	1	1	1	1	1	1	1	1	0	1	-39,182523	274,644824	283,420723	0
14.01.2021	19:50:46	0	0	3,841247	6,2295	82,5732	0,795	77,655	3,5	1005,48	7,4	9,3	9,1	1	1	1	1	1	1	1	1	1	0	1	-35,16561	274,724812	287,813623	0
14.01.2021	19:50:47	0	0	3,728269	5,712	95,5152	0,785	77,657	3,5	1005,58	7,3	9,3	9,1	1	1	1	1	1	1	1	1	1	0	1	-34,883721	274,64943	287,741166	0
14.01.2021	19:50:48	0	0	2,372535	5,50725	99,5184	0,79	77,653	3,5	1005,48	7,3	9,3	9,1	1	1	1	1	1	1	1	1	1	0	1	-40,169133	274,684777	282,621871	0
14.01.2021	19:50:49	0	0	2,937424	5,685	116,6292	0,785	77,662	3,5	1005,52	7,4	9,3	9,1	1	1	1	1	1	1	1	1	1	0	1	-35,870331	274,634082	286,682445	0
14.01.2021	19:50:50	0	0	3,502313	5,559	106,272	0,794	77,675	3,5	1005,62	7,4	9,3	9,1	1	1	1	1	1	1	1	1	1	0	1	-33,685694	274,77111	289,511314	0
14.01.2021	19:50:51	0	0	3,615291	5,4975	108,1116	0,798	77,675	3,5	1005,58	7,4	9,3	9,1	1	1	1	1	1	1	1	1	1	0	1	-37,561663	274,666327	285,142625	0
14.01.2021	19:50:52	0	0	2,598491	5,62125	102,9456	0,796	77,681	3,5	1005,58	7,3	9,3	9,1	1	1	1	1	1	1	1	1	1	0	1	-30,584919	274,641754	292,003904	0
14.01.2021	19:50:53	0	0	3,050402	5,688	91,8792	0,798	77,677	3,5	1005,62	7,4	9,3	9,1	1	1	1	1	1	1	1	1	1	0	1	-39,887245	274,735605	283,142746	0
14.01.2021	19:50:54	0	0	4,74507	6,50175	95,1048	0,794	77,676	3,5	1005,3	7,4	9,3	9,1	1	1	1	1	1	1	1	1	1	0	1	-36,011276	274,819068	287,411432	0
14.01.2021	19:50:55	0	0	3,615291	6,7755	82,4436	0,795	77,673	3,5	1005,44	7,4	9,3	9,1	1	1	1	1	1	1	1	1	1	0	1	-36,011276	274,730979	286,996958	0
14.01.2021	19:50:56	0	0	4,180181	6,07425	72,648	0,791	77,671	3,5	1005,48	7,4	9,3	9,1	1	1	1	1	1	1	1	1	1	0	1	-34,249471	274,814422	289,151364	0
14.01.2021	19:50:57	0	0	5,084003	5,22675	86,274	0,794	77,672	3,5	1005,44	7,4	9,3	9,1	1	1	1	1	1	1	1	1	1	0	1	-36,786469	274,780383	286,454169	0
14.01.2021	19:50:58	0	0	2,711468	5,0625	90,3888	0,793	77,683	3,5	1005,58	7,4	9,3	9,1	1	1	1	1	1	1	1	1	1	0	1	-43,269908	274,802037	280,072634	0
14.01.2021	19:50:59	0	0	5,196981	5,46075	97,6932	0,8	77,697	3,5	1005,64	7,4	9,3	9,1	1	1	1	1	1	1	1	1	1	0	1	-36,363636	274,666327	286,340652	0
14.01.2021	19:51:00	0	0	2,485513	5,83125	98,0712	0,804	77,703	3,5	1005,58	7,3	9,3	9,1	1	1	1	1	1	1	1	1	1	0	1	-36,715997	274,831463	286,765065	0
14.01.2021	19:51:01	0	0	2,711468	6,18825	101,1096	0,803	77,687	3,5	1005,56	7,4	9,3	9,1	1	1	1	1	1	1	1	1	1	0	1	-31,501057	274,769565	291,688681	0
14.01.2021	19:51:02	0	0	2,711468	6,18825	101,1096	0,803	77,687	3,5	1005,56	7,4	9,3	9,1	1	1	1	1	1	1	1	1	1	0	1	-31,501057	274,769565	291,688681	0
14.01.2021	19:51:03	0	0	2,598491	6,33975	96,588	0,801	77,683	3,5	1005,62	7,4	9,3	9,1	1	1	1	1	1	1	1	1	1	0	1	-37,702607	274,834564	285,793051	0
14.01.2021	19:51:04	0	0	2,937424	6,10425	98,496	0,801	77,706	3,5	1005,58	7,4	9,3	9,1	1	1	1	1	1	1	1	1	1	0	1	-36,081748	274,820617	287,348251	0
14.01.2021	19:51:05	0	0	4,971026	6,18375	104,742	0,802	77,703	3,5	1005,54	7,4	9,3	9,1	1	1	1	1	1	1	1	1	1	0	1	-33,333333	274,715566	289,60242	0
14.01.2021	19:51:06	0	0	3,502313	6,2415	88,9848	0,796	77,711	3,5	1005,54	7,4	9,3	9,1	1	1	1	1	1	1	1	1	1	0	1	-37,279774	274,652501	285,359542	0
14.01.2021	19:51:07	0	0	2,711468	6,2145	95,5044	0,798	77,71	3,5	1005,74	7,4	9,3	9,1	1	1	1	1	1	1	1	1	1	0	1	-36,081748	274,772655	287,12253	0
14.01.2021	19:51:08	0	0	2,711468	6,114	78,282	0,794	77,702	3,5	1005,44	7,4	9,3	9,1	1	1	1	1	1	1	1	1	1	0	1	-37,068358	274,825265	286,383521	0
14.01.2021	19:51:09	0	0	3,615291	5,81925	78,6672	0,8	77,726	3,5	1005,56	7,4	9,3	9,1	1	1	1	1	1	1	1	1	1	0	1	-35,024665	274,658644	287,643521	0
14.01.2021	19:51:10	0	0	2,598491	5,889	81,1908	0,797	77,734	3,5	1005,6	7,4	9,3	9,1	1	1	1	1	1	1	1	1	1	0	1	-36,011276	274,76802	287,171194	0
14.01.2021	19:51:11	0	0	4,858048	5,95575	91,8648	0,802	77,728	3,5	1005,48	7,3	9,3	9,1	1	1	1	1	1	1	1	1	1	0	1	-34,319944	274,683238	288,46383	0
14.01.2021	19:51:12	0	0	4,519114	5,92125	80,136	0,803	77,74	3,5	1005,5	7,4	9,3	9,1	1	1	1	1	1	1	1	1	1	0	1	-36,434109	274,712485	286,487157	0
14.01.2021	19:51:13	0	0	2,824446	5,91075	81,576	0,804	77,728	3,5	1005,6	7,4	9,3	9,1	1	1	1	1	1	1	1	1	1	0	1	-39,605356	274,831463	283,875706	0
14.01.2021	19:51:14	0	0	3,050402	5,76	99,1368	0,803	77,715	3,5	1005,66	7,4	9,3	9,1	1	1	1	1	1	1	1	1	1	0	1	-32,699084	274,785021	290,56338	0
14.01.2021	19:51:15	0	0	2,937424	5,27625	99,1332	0,796	77,728	3,5	1005,64	7,4	9,3	9,1	1	1	1	1	1	1	1	1	1	0	1	-33,403805	274,652501	289,235511	0
14.01.2021	19:51:16	0	0	4,406136	5,535	87,8004	0,809	77,714	3,5	1005,8	7,4	9,3	9,1	1	1	1	1	1	1	1	1	1	0	1	-36,15222	274,747947	286,935822	0
14.01.2021	19:51:17	0	0	2,711468	5,81025	82,3392	0,801	77,702	3,5	1005,62	7,4	9,3	9,1	1	1	1	1	1	1	1	1	1	0	1	-36,011276	274,638685	286,563126	0
14.01.2021	19:51:18	0	0	2,485513	5,7825	88,9452	0,797	77,683	3,5	1005,56	7,4	9,3	9,1	1	1	1	1	1	1	1	1	1	0	1	-34,108527	274,707864	288,791013	0
14.01.2021	19:51:19	0	0	2,937424	5,736	101,0952	0,802	77,68	3,5	1005,62	7,4	9,2	9,1	1	1	1	1	1	1	1	1	1	0	1	-38,830162	274,655572	283,823588	0
14.01.2021	19:51:20	0	0	3,050402	5,5035	91,89	0,799	77,677	3,5	1005,6	7,4	9,3	9,1	1	1	1	1	1	1	1	1	1	0	1	-35,377026	274,732521	287,638459	0
14.01.2021	19:51:21	0	0	4,067203	6,08625	83,3544	0,804	77,683	3,5	1005,68	7,4	9,3	9,1	1	1	1	1	1	1	1	1	1	0	1	-35,870331	274,667863	286,841179	0
14.01.2021	19:51:22	0	0	3,841247	6,25875	90,7776	0,801	77,667	3,5	1005,68	7,4	9,3	9,1	1	1	1	1	1	1	1	1	1	0	1	-35,729387	274,735605	287,300604	0
14.01.2021	19:51:23	0	0	3,050402	6,492	94,752	0,808	77,667	3,5	1005,62	7,4	9,3	9,1	1	1	1	1	1	1	1	1	1	0	1	-36,645525	274,825265	286,806354	0
14.01.2021	19:51:24	0	0	3,276358	6,45375	88,7004	0,797	77,656	3,5	1005,54	7,4	9,3	9,1	1	1	1	1	1	1	1	1	1	0	1	-39,816772	274,746404	283,26401	0
14.01.2021	19:51:25	0	0	2,824446	6,078	95,8248	0,809	77,671	3,5	1005,68	7,4	9,3	9,1	1	1	1	1	1	1	1	1	1	0	1	-36,856942	274,81597	286,551184	0
14.01.2021	19:51:26	0	0	2,937424	6,0765	90,7704	0,804	77,663	3,5	1005,54	7,4	9,3	9,1	1	1	1	1	1	1	1	1	1	0	1	-33,192389	274,689392	289,62031	0
14.01.2021	19:51:27	0	0	2,598491	6,0705	99,1548	0,806	77,674	3,5	1005,62	7,4	9,3	9,1	1	1	1	1	1	1	1	1	1	0	1	-40,169133	274,670938	282,556825	0
14.01.2021	19:51:28	0	0	3,841247	6,14175	99,5004	0,802	77,675	3,5	1005,52	7,4	9,3	9,1	1	1	1	1	1	1	1	1	1	0	1	-37,984496	274,66479	284,71257	0
14.01.2021	19:51:29	0	0	3,502313	5,93775	95,5332	0,805	77,704	3,5	1005,6	7,4	9,3	9,1	1	1	1	1	1	1	1	1	1	0	1	-39,041579	274,66479	283,655488	0
14.01.2021	19:51:30	0	0	2,824446	5,97075	91,8792	0,805	77,707	3,5	1005,54	7,4	9,3	9,1	1	1	1	1	1	1	1	1	1	0	1	-36,011276	274,678625	286,750812	0
14.01.2021	19:51:31	0	0	3,728269	6,48375	94,4676	0,808	77,707	3,5	1005,54	7,4	9,3	9,1	1	1	1	1	1	1	1	1	1	0	1	-40,38055	274,777291	282,845543	0
14.01.2021	19:51:32	0	0	3,615291	7,42725	90,7776	0,805	77,7	3,5	1005,62	7,4	9,3	9,1	1	1	1	1	1	1	1	1	1	0	1	-37,77308	274,678625	284,989008	0
14.01.2021	19:51:33	0	0	4,406136	7,2795	82,3176	0,8	77,707	3,5	1005,38	7,4	9,3	9,1	1	1	1	1	1	1	1	1	1	0	1	-36,222692	274,792754	287,076161	0
14.01.2021	19:51:34	0	0	3,050402	6,993	85,176	0,798	77,716	3,5	1005,54	7,4	9,3	9,1	1	1	1	1	1	1	1	1	1	0	1	-36,575053	274,66479	286,122014	0
14.01.2021	19:51:35	0	0	4,519114	6,87225	99,5148	0,808	77,702	3,5	1005,66	7,4	9,3	9,1	1	1	1	1	1	1	1	1	1	0	1	-37,843552	274,817519	285,571864	0
14.01.2021	19:51:36	0	0	3,502313	6,63975	102,9096	0,801	77,715	3,5	1005,52	7,4	9,3	9,1	1	1	1	1	1	1	1	1	1	0	1	-32,135307	274,675549	290,612327	0
14.01.2021	19:51:37	0	0	2,937424	6,0645	99,1332	0,805	77,702	3,5	1005,62	7,4	9,3	9,1	1	1	1	1	1	1	1	1	1	0	1	-33,192389	274,660181	289,483016	0
14.01.2021	19:51:38	0	0	4,74507	5,7375	85,9068	0,805	77,717	3,5	1005,5	7,4	9,3	9,1	1	1	1	1	1	1	1	1	1	0	1	-37,914024	274,817519	285,501392	0
14.01.2021	19:51:39	0	0	4,519114	5,715	83,7396	0,807	77,731	3,5	1005,56	7,4	9,3	9,1	1	1	1	1	1	1	1	1	1	0	1	-37,491191	274,853175	286,092102	0
14.01.2021	19:51:40	0	0	3,502313	5,733	80,496	0,807	77,728	3,5	1005,54	7,4	9,3	9,1	1	1	1	1	1	1	1	1	1	0	1	-35,024665	274,689392	287,788033	0
14.01.2021	19:51:41	0	0	3,728269	5,13225	90,0108	0,811	77,723	3,5	1005,44	7,4	9,3	9,1	1	1	1	1	1	1	1	1	1	0	1	-40,38055	274,661717	282,302075	0
14.01.2021	19:51:42	0	0	2,711468	5,208	83,4228	0,811	77,737	3,5	1005,4	7,4	9,3	9,1	1	1	1	1	1	1	1	1	1	0	1	-33,967583	274,786567	289,302157	0
14.01.2021	19:51:43	0	0	3,050402	5,88225	73,764	0,808	77,739	3,5	1005,54	7,4	9,3	9,1	1	1	1	1	1	1	1	1	1	0	1	-37,632135	274,853175	285,951158	0
14.01.2021	19:51:44	0	0	3,954225	7,6185	89,316	0,809	77,73	3,5	1005,56	7,4	9,3	9,1	1	1	1	1	1	1	1	1	1	0	1	-38,407329	274,825265	285,04455	0
14.01.2021	19:51:45	0	0	2,372535	7,581	79,416	0,812	77,734	3,5	1005,72	7,4	9,3	9,1	1	1	1	1	1	1	1	1	1	0	1	-36,15222	274,845418	287,394546	0
14.01.2021	19:51:46	0	0	3,615291	6,85125	76,068	0,815	77,721	3,5	1005,56	7,4	9,3	9,1	1	1	1	1	1	1	1	1	1	0	1	-35,870331	274,734063	287,152406	0
14.01.2021	19:51:47	0	0	2,937424	5,6775	75,9708	0,812	77,705	3,5	1005,26	7,4	9,3	9,1	1	1	1	1	1	1	1	1	1	0	1	-38,618746	274,839215	284,898812	0
14.01.2021	19:51:48	0	0	4,971026	5,3265	77,9796	0,809	77,703	3,5	1005,6	7,4	9,3	9,1	1	1	1	1	1	1	1	1	1	0	1	-38,830162	274,839215	284,687395	0
14.01.2021	19:51:49	0	0	2,937424	5,07375	73,0404	0,81	77,693	3,5	1005,6	7,4	9,3	9,1	1	1	1	1	1	1	1	1	1	0	1	-38,195913	274,712485	284,725353	0
14.01.2021	19:51:50	0	0	3,276358	5,31	69,8292	0,817	77,675	3,5	1005,6	7,4	9,3	9,1	1	1	1	1	1	1	1	1	1	0	1	-39,041579	274,854727	284,549022	0
14.01.2021	19:51:51	0	0	4,519114	5,92275	84,042	0,821	77,697	3,5	1005,5	7,4	9,3	9,1	1	1	1	1	1	1	1	1	1	0	1	-40,591966	274,811325	282,794292	0
14.01.2021	19:51:52	0	0	2,937424	5,892	84,438	0,823	77,683	3,5	1005,74	7,4	9,3	9,1	1	1	1	1	1	1	1	1	1	0	1	-38,407329	274,867145	285,241757	0
14.01.2021	19:51:53	0	0	2,485513	5,8845	86,2776	0,817	77,675	3,5	1005,84	7,4	9,3	9,1	1	1	1	1	1	1	1	1	1	0	1	-38,75969	274,743318	284,306577	0
14.01.2021	19:51:54	0	0	2,711468	5,67825	94,0824	0,82	77,682	3,5	1005,64	7,4	9,3	9,1	1	1	1	1	1	1	1	1	1	0	1	-41,014799	274,865592	282,626974	0
14.01.2021	19:51:55	0	0	2,598491	5,68275	98,7552	0,819	77,666	3,5	1005,58	7,4	9,3	9,1	1	1	1	1	1	1	1	1	1	0	1	-36,434109	274,729437	286,566873	0
14.01.2021	19:51:56	0	0	3,502313	5,658	94,0932	0,819	77,661	3,5	1005,58	7,4	9,3	9,1	1	1	1	1	1	1	1	1	1	0	1	-38,689218	274,86404	284,945242	0
14.01.2021	19:51:57	0	0	4,067203	5,32125	85,1688	0,819	77,627	3,5	1005,38	7,4	9,3	9,1	1	1	1	1	1	1	1	1	1	0	1	-36,997886	274,760297	286,148251	0
14.01.2021	19:51:58	0	0	4,067203	5,2755	85,8672	0,824	77,613	3,5	1005,7	7,4	9,3	9,1	1	1	1	1	1	1	1	1	1	0	1	-36,786469	274,874911	286,899193	0
14.01.2021	19:51:59	0	0	4,293158	4,995	80,5104	0,823	77,594	3,5	1005,62	7,4	9,3	9,1	1	1	1	1	1	1	1	1	1	0	1	-38,407329	274,819068	285,015378	0
14.01.2021	19:52:00	0	0	4,067203	4,6185	61,2936	0,827	77,574	3,5	1005,52	7,4	9,3	9,1	1	1	1	1	1	1	1	1	1	0	1	-38,336857	274,822166	285,100435	0
14.01.2021	19:52:01	0	0	4,067203	4,6185	61,2936	0,827	77,574	3,5	1005,52	7,4	9,3	9,1	1	1	1	1	1	1	1	1	1	0	1	-38,336857	274,822166	285,100435	0
14.01.2021	19:52:02	0	0	4,180181	4,40325	74,556	0,828	77,563	3,5	1005,62	7,4	9,3	9,1	1	1	1	1	1	1	1	1	1	0	1	-41,437632	274,884233	282,291946	0
14.01.2021	19:52:03	0	0	2,598491	4,1715	75,978	0,829	77,549	3,5	1005,56	7,4	9,3	9,1	1	1	1	1	1	1	1	1	1	0	1	-39,887245	274,845418	283,659521	0
14.01.2021	19:52:04	0	0	4,519114	3,9585	100,4364	0,828	77,523	3,5	1005,66	7,4	9,3	9,1	1	1	1	1	1	1	1	1	1	0	1	-38,336857	274,884233	285,392721	0
14.01.2021	19:52:05	0	0	4,858048	3,67875	111,042	0,827	77,509	3,5	1005,7	7,4	9,3	9,1	1	1	1	1	1	1	1	1	1	0	1	-39,041579	274,76802	284,140891	0
14.01.2021	19:52:06	0	0	3,050402	3,55125	119,0772	0,835	77,514	3,5	1005,72	7,4	9,3	9,1	1	1	1	1	1	1	1	1	1	0	1	-39,323467	274,715566	283,612286	0
14.01.2021	19:52:07	0	0	3,954225	3,37425	103,3128	0,829	77,478	3,5	1005,58	7,4	9,3	9,1	1	1	1	1	1	1	1	1	1	0	1	-37,13883	274,769565	286,050908	0
14.01.2021	19:52:08	0	0	2,824446	3,399	100,7496	0,835	77,482	3,5	1005,66	7,4	9,3	9,1	1	1	1	1	1	1	1	1	1	0	1	-36,786469	274,698626	286,069637	0
14.01.2021	19:52:09	0	0	2,598491	3,456	96,9444	0,833	77,464	3,5	1005,64	7,4	9,3	9,1	1	1	1	1	1	1	1	1	1	0	1	-42,35377	274,834564	281,141888	0
14.01.2021	19:52:10	0	0	4,519114	3,49875	88,9452	0,836	77,43	3,5	1005,5	7,4	9,3	9,1	1	1	1	1	1	1	1	1	1	0	1	-35,024665	274,873357	288,65368	0
14.01.2021	19:52:11	0	0	2,485513	3,927	97,3224	0,833	77,43	3,5	1005,62	7,4	9,3	9,1	1	1	1	1	1	1	1	1	1	0	1	-33,685694	274,734063	289,337043	0
14.01.2021	19:52:12	0	0	3,276358	3,8775	107,7336	0,837	77,405	3,5	1005,52	7,4	9,3	9,1	1	1	1	1	1	1	1	1	1	0	1	-35,095137	274,772655	288,109141	0
14.01.2021	19:52:13	0	0	2,824446	3,62775	93,726	0,835	77,378	3,5	1005,64	7,4	9,3	9,1	1	1	1	1	1	1	1	1	1	0	1	-36,363636	274,899781	287,439191	0
14.01.2021	19:52:14	0	0	2,711468	3,55875	91,908	0,838	77,385	3,5	1005,62	7,4	9,3	9,1	1	1	1	1	1	1	1	1	1	0	1	-35,236082	274,834564	288,259576	0
14.01.2021	19:52:15	0	0	3,502313	3,6195	101,106	0,84	77,374	3,5	1005,68	7,4	9,3	9,1	1	1	1	1	1	1	1	1	1	0	1	-33,051445	274,882679	290,670812	0
14.01.2021	19:52:16	0	0	4,180181	3,4515	89,7084	0,838	77,334	3,5	1005,56	7,4	9,3	9,1	1	1	1	1	1	1	1	1	1	0	1	-38,477801	274,80668	284,886596	0
14.01.2021	19:52:17	0	0	2,372535	3,3045	102,2112	0,841	77,338	3,5	1005,7	7,4	9,3	9,1	1	1	1	1	1	1	1	1	1	0	1	-37,914024	274,879571	285,793593	0
14.01.2021	19:52:18	0	0	3,615291	3,093	99,5184	0,839	77,33	3,5	1005,5	7,5	9,3	9,1	1	1	1	1	1	1	1	1	1	0	1	-39,534884	274,803585	283,814943	0
14.01.2021	19:52:19	0	0	2,598491	2,96175	91,8864	0,838	77,323	3,5	1005,58	7,4	9,3	9,1	1	1	1	1	1	1	1	1	1	0	1	-40,098661	274,884233	283,630917	0
14.01.2021	19:52:20	0	0	4,067203	3,051	97,3332	0,842	77,32	3,5	1005,66	7,4	9,3	9,1	1	1	1	1	1	1	1	1	1	0	1	-35,940803	274,783475	287,314385	0
14.01.2021	19:52:21	0	0	2,598491	3,048	113,0148	0,844	77,302	3,5	1005,7	7,4	9,3	9,1	1	1	1	1	1	1	1	1	1	0	1	-33,615222	274,893561	290,158297	0
14.01.2021	19:52:22	0	0	4,406136	3,066	86,9688	0,843	77,299	3,5	1005,66	7,4	9,3	9,1	1	1	1	1	1	1	1	1	1	0	1	-35,51797	274,775746	287,70085	0
14.01.2021	19:52:23	0	0	2,824446	3,68175	95,8248	0,838	77,286	3,5	1005,4	7,4	9,3	9,1	1	1	1	1	1	1	1	1	1	0	1	-38,75969	274,704784	284,12537	0
14.01.2021	19:52:24	0	0	4,293158	3,891	113,0184	0,842	77,288	3,5	1005,56	7,4	9,3	9,1	1	1	1	1	1	1	1	1	1	0	1	-39,041579	274,812873	284,351968	0
14.01.2021	19:52:25	0	0	2,598491	3,85575	105,8724	0,836	77,269	3,5	1005,5	7,4	9,3	9,1	1	1	1	1	1	1	1	1	1	0	1	-40,521494	274,885788	283,215406	0
14.01.2021	19:52:26	0	0	4,632092	3,80175	105,4872	0,844	77,261	3,5	1005,72	7,4	9,3	9,1	1	1	1	1	1	1	1	1	1	0	1	-36,927414	274,758753	286,211459	0
14.01.2021	19:52:27	0	0	2,598491	3,4065	116,352	0,839	77,254	3,5	1005,66	7,4	9,3	9,1	1	1	1	1	1	1	1	1	1	0	1	-32,135307	274,895116	291,645538	0
14.01.2021	19:52:28	0	0	3,954225	4,065	103,6728	0,846	77,244	3,5	1005,6	7,4	9,3	9,1	1	1	1	1	1	1	1	1	1	0	1	-40,732911	274,865592	282,908862	0
14.01.2021	19:52:29	0	0	2,598491	4,44825	106,2864	0,847	77,236	3,5	1005,56	7,4	9,3	9,1	1	1	1	1	1	1	1	1	1	0	1	-37,209302	274,860935	286,410535	0
14.01.2021	19:52:30	0	0	4,293158	4,9905	117,6084	0,845	77,246	3,5	1005,74	7,4	9,3	9,1	1	1	1	1	1	1	1	1	1	0	1	-36,011276	274,887342	287,732946	0
14.01.2021	19:52:31	0	0	3,502313	5,13375	118,3248	0,837	77,216	3,5	1005,58	7,4	9,3	9,1	1	1	1	1	1	1	1	1	1	0	1	-38,618746	274,763386	284,541923	0
14.01.2021	19:52:32	0	0	3,050402	4,84425	105,4908	0,842	77,196	3,5	1005,48	7,4	9,3	9,1	1	1	1	1	1	1	1	1	1	0	1	-35,870331	274,831463	287,610731	0
14.01.2021	19:52:33	0	0	3,276358	4,63275	117,4176	0,848	77,21	3,5	1005,66	7,4	9,3	9,1	1	1	1	1	1	1	1	1	1	0	1	-33,051445	274,902892	290,766041	0
14.01.2021	19:52:34	0	0	4,406136	4,64625	113,418	0,849	77,202	3,5	1005,7	7,4	9,3	9,1	1	1	1	1	1	1	1	1	1	0	1	-42,98802	274,846969	280,56605	0
14.01.2021	19:52:35	0	0	3,276358	4,6605	103,3164	0,851	77,199	3,5	1005,66	7,4	9,3	9,1	1	1	1	1	1	1	1	1	1	0	1	-36,15222	274,747947	286,935822	0
14.01.2021	19:52:36	0	0	2,372535	4,49175	99,8928	0,844	77,164	3,5	1005,6	7,4	9,3	9,1	1	1	1	1	1	1	1	1	1	0	1	-38,689218	274,873357	284,989128	0
14.01.2021	19:52:37	0	0	3,050402	4,1745	101,1276	0,847	77,179	3,5	1005,56	7,4	9,3	9,1	1	1	1	1	1	1	1	1	1	0	1	-39,816772	274,720188	283,140718	0
14.01.2021	19:52:38	0	0	2,598491	4,05	84,7944	0,852	77,18	3,5	1005,36	7,4	9,3	9,1	1	1	1	1	1	1	1	1	1	0	1	-36,715997	274,842316	286,816163	0
14.01.2021	19:52:39	0	0	3,841247	3,9405	92,6388	0,844	77,183	3,5	1005,58	7,4	9,3	9,1	1	1	1	1	1	1	1	1	1	0	1	-35,095137	274,718647	287,855106	0
14.01.2021	19:52:40	0	0	2,937424	3,693	101,808	0,847	77,171	3,5	1005,44	7,4	9,3	9,1	1	1	1	1	1	1	1	1	1	0	1	-36,856942	274,763386	286,303727	0
14.01.2021	19:52:41	0	0	4,067203	3,507	97,686	0,846	77,162	3,5	1005,5	7,4	9,3	9,1	1	1	1	1	1	1	1	1	1	0	1	-34,178999	274,899781	289,623828	0
14.01.2021	19:52:42	0	0	2,711468	3,50925	109,9476	0,849	77,139	3,5	1005,56	7,4	9,3	9,1	1	1	1	1	1	1	1	1	1	0	1	-34,813249	274,769565	288,37649	0
14.01.2021	19:52:43	0	0	4,519114	3,867	90,0036	0,841	77,152	3,5	1005,5	7,4	9,3	9,1	1	1	1	1	1	1	1	1	1	0	1	-36,504581	274,884233	287,224997	0
14.01.2021	19:52:44	0	0	4,293158	4,071	99,9	0,846	77,129	3,5	1005,6	7,4	9,3	9,1	1	1	1	1	1	1	1	1	1	0	1	-37,13883	274,811325	286,247428	0
14.01.2021	19:52:45	0	0	2,711468	4,1805	95,1084	0,85	77,141	3,5	1005,76	7,4	9,3	9,1	1	1	1	1	1	1	1	1	1	0	1	-40,521494	274,882679	283,200763	0
14.01.2021	19:52:46	0	0	3,276358	4,25925	91,9152	0,847	77,117	3,5	1005,58	7,4	9,3	9,1	1	1	1	1	1	1	1	1	1	0	1	-32,980973	274,769565	290,208766	0
14.01.2021	19:52:47	0	0	4,632092	4,59375	87,7104	0,85	77,135	3,5	1005,76	7,4	9,3	9,1	1	1	1	1	1	1	1	1	1	0	1	-32,699084	274,720188	290,258406	0
14.01.2021	19:52:48	0	0	3,050402	4,74075	91,8864	0,848	77,125	3,5	1005,54	7,4	9,3	9,1	1	1	1	1	1	1	1	1	1	0	1	-38,618746	274,741775	284,440265	0
14.01.2021	19:52:49	0	0	3,16338	4,93575	93,6936	0,844	77,118	3,5	1005,36	7,4	9,3	9,1	1	1	1	1	1	1	1	1	1	0	1	-36,222692	274,876464	287,470288	0
14.01.2021	19:52:50	0	0	4,067203	5,03325	86,2704	0,847	77,115	3,5	1005,54	7,4	9,3	9,1	1	1	1	1	1	1	1	1	1	0	1	-40,098661	274,899781	283,704166	0
14.01.2021	19:52:51	0	0	4,74507	4,92225	80,8956	0,849	77,112	3,5	1005,68	7,4	9,3	9,1	1	1	1	1	1	1	1	1	1	0	1	-38,266385	274,792754	285,032468	0
14.01.2021	19:52:52	0	0	2,372535	4,632	82,5984	0,851	77,105	3,5	1005,44	7,4	9,3	9,1	1	1	1	1	1	1	1	1	1	0	1	-38,12544	274,884233	285,604137	0
14.01.2021	19:52:53	0	0	2,937424	4,43925	79,0236	0,856	77,11	3,5	1005,5	7,4	9,3	9,1	1	1	1	1	1	1	1	1	1	0	1	-35,16561	274,746404	287,915173	0
14.01.2021	19:52:54	0	0	3,615291	4,51125	85,1796	0,852	77,096	3,5	1005,6	7,4	9,3	9,1	1	1	1	1	1	1	1	1	1	0	1	-36,715997	274,882679	287,00626	0
14.01.2021	19:52:55	0	0	3,615291	4,6485	80,5356	0,847	77,107	3,5	1005,46	7,4	9,3	9,1	1	1	1	1	1	1	1	1	1	0	1	-36,363636	274,777291	286,862456	0
14.01.2021	19:52:56	0	0	2,937424	4,59225	87,3612	0,847	77,114	3,5	1005,58	7,4	9,3	9,1	1	1	1	1	1	1	1	1	1	0	1	-40,732911	274,703244	282,14491	0
14.01.2021	19:52:57	0	0	4,180181	4,6755	66,8988	0,839	77,106	3,5	1005,54	7,4	9,3	9,1	1	1	1	1	1	1	1	1	1	0	1	-39,393939	274,871804	284,27709	0
14.01.2021	19:52:58	0	0	2,485513	4,9935	63,1692	0,843	77,107	3,5	1005,54	7,4	9,3	9,1	1	1	1	1	1	1	1	1	1	0	1	-36,011276	274,85783	287,593942	0
14.01.2021	19:52:59	0	0	4,519114	5,18625	79,3944	0,849	77,118	3,5	1005,56	7,4	9,3	9,1	1	1	1	1	1	1	1	1	1	0	1	-33,685694	274,714025	289,242815	0
14.01.2021	19:53:00	0	0	4,858048	5,76075	67,2768	0,853	77,133	3,5	1005,6	7,4	9,3	9,1	1	1	1	1	1	1	1	1	1	0	1	-39,323467	274,715566	283,612286	0
14.01.2021	19:53:01	0	0	4,858048	5,76075	67,2768	0,853	77,133	3,5	1005,6	7,4	9,3	9,1	1	1	1	1	1	1	1	1	1	0	1	-39,323467	274,715566	283,612286	0
14.01.2021	19:53:02	0	0	3,16338	5,8455	62,4132	0,848	77,128	3,5	1005,56	7,4	9,3	9,1	1	1	1	1	1	1	1	1	1	0	1	-33,897111	274,783475	289,358077	0
14.01.2021	19:53:03	0	0	4,067203	5,55375	62,0316	0,852	77,148	3,5	1005,68	7,4	9,3	9,1	1	1	1	1	1	1	1	1	1	0	1	-40,944327	274,901337	282,865829	0
14.01.2021	19:53:04	0	0	2,598491	5,22375	63,864	0,847	77,132	3,5	1005,74	7,4	9,3	9,1	1	1	1	1	1	1	1	1	1	0	1	-38,689218	274,812873	284,704329	0
14.01.2021	19:53:05	0	0	3,728269	4,72425	57,042	0,852	77,144	3,5	1005,7	7,4	9,3	9,1	1	1	1	1	1	1	1	1	1	0	1	-36,011276	274,904448	287,81354	0
14.01.2021	19:53:06	0	0	2,598491	4,578	62,7948	0,849	77,138	3,5	1005,44	7,4	9,3	9,1	1	1	1	1	1	1	1	1	1	0	1	-38,054968	274,845418	285,491798	0
14.01.2021	19:53:07	0	0	4,519114	4,746	73,0548	0,851	77,132	3,5	1005,6	7,4	9,3	9,1	1	1	1	1	1	1	1	1	1	0	1	-41,719521	274,714025	281,208989	0
14.01.2021	19:53:08	0	0	4,406136	4,69425	82,332	0,849	77,14	3,5	1005,56	7,4	9,3	9,1	1	1	1	1	1	1	1	1	1	0	1	-39,675828	274,786567	283,593912	0
14.01.2021	19:53:09	0	0	4,067203	4,77375	88,9596	0,854	77,131	3,5	1005,5	7,4	9,3	9,1	1	1	1	1	1	1	1	1	1	0	1	-37,279774	274,870251	286,38394	0
14.01.2021	19:53:10	0	0	4,293158	4,53675	75,2328	0,851	77,129	3,5	1005,46	7,5	9,3	9,1	1	1	1	1	1	1	1	1	1	0	1	-39,252995	274,720188	283,704495	0
14.01.2021	19:53:11	0	0	3,954225	4,7175	88,56	0,851	77,121	3,5	1005,5	7,4	9,3	9,1	1	1	1	1	1	1	1	1	1	0	1	-38,689218	274,74949	284,406083	0
14.01.2021	19:53:12	0	0	2,146579	4,65675	99,504	0,852	77,126	3,5	1005,56	7,4	9,3	9,1	1	1	1	1	1	1	1	1	1	0	1	-42,776603	274,715566	280,15915	0
14.01.2021	19:53:13	0	0	2,824446	4,158	90,414	0,858	77,118	3,5	1005,48	7,4	9,3	9,1	1	1	1	1	1	1	1	1	1	0	1	-36,011276	274,712485	286,90999	0
14.01.2021	19:53:14	0	0	3,615291	4,14675	94,0788	0,854	77,12	3,5	1005,44	7,4	9,3	9,1	1	1	1	1	1	1	1	1	1	0	1	-36,363636	274,840765	287,161222	0
14.01.2021	19:53:15	0	0	4,74507	4,23225	99,1224	0,859	77,103	3,5	1005,66	7,4	9,3	9,1	1	1	1	1	1	1	1	1	1	0	1	-39,7463	274,721729	283,218437	0
14.01.2021	19:53:16	0	0	3,050402	4,188	98,4456	0,858	77,102	3,5	1005,56	7,5	9,3	9,1	1	1	1	1	1	1	1	1	1	0	1	-37,561663	274,791207	285,72991	0
14.01.2021	19:53:17	0	0	4,067203	4,34325	102,5316	0,854	77,098	3,5	1005,48	7,4	9,3	9,1	1	1	1	1	1	1	1	1	1	0	1	-37,984496	274,757209	285,147113	0
14.01.2021	19:53:18	0	0	4,067203	4,47975	102,1824	0,856	77,088	3,5	1005,66	7,4	9,3	9,1	1	1	1	1	1	1	1	1	1	0	1	-39,252995	274,724812	283,726238	0
14.01.2021	19:53:19	0	0	4,519114	4,4115	105,102	0,854	77,093	3,5	1005,6	7,4	9,3	9,1	1	1	1	1	1	1	1	1	1	0	1	-32,980973	274,729437	290,020009	0
14.01.2021	19:53:20	0	0	3,615291	3,99675	96,9732	0,858	77,068	3,5	1005,62	7,4	9,3	9,1	1	1	1	1	1	1	1	1	1	0	1	-37,279774	274,85783	286,325443	0
14.01.2021	19:53:21	0	0	3,615291	3,8205	87,732	0,855	77,071	3,5	1005,54	7,4	9,3	9,1	1	1	1	1	1	1	1	1	1	0	1	-38,75969	274,892006	285,006504	0
14.01.2021	19:53:22	0	0	4,632092	3,792	82,5624	0,858	77,074	3,5	1005,46	7,4	9,3	9,1	1	1	1	1	1	1	1	1	1	0	1	-38,407329	274,820617	285,02267	0
14.01.2021	19:53:23	0	0	4,406136	3,8325	82,5912	0,853	77,069	3,5	1005,64	7,4	9,3	9,1	1	1	1	1	1	1	1	1	1	0	1	-39,887245	274,892006	283,878949	0
14.01.2021	19:53:24	0	0	3,954225	4,06275	90,4212	0,857	77,09	3,5	1005,6	7,4	9,3	9,1	1	1	1	1	1	1	1	1	1	0	1	-39,675828	274,757209	283,455781	0
14.01.2021	19:53:25	0	0	2,711468	4,38375	81,9648	0,863	77,085	3,5	1005,6	7,4	9,3	9,1	1	1	1	1	1	1	1	1	1	0	1	-37,914024	274,839215	285,603533	0
14.01.2021	19:53:26	0	0	3,16338	4,32075	91,5156	0,852	77,078	3,5	1005,6	7,4	9,3	9,1	1	1	1	1	1	1	1	1	1	0	1	-35,658915	274,754121	287,458169	0
14.01.2021	19:53:27	0	0	4,632092	4,4055	87,3576	0,857	77,085	3,5	1005,58	7,4	9,3	9,1	1	1	1	1	1	1	1	1	1	0	1	-36,222692	274,890451	287,536177	0
14.01.2021	19:53:28	0	0	4,74507	4,54275	83,3364	0,863	77,092	3,5	1005,5	7,5	9,3	9,1	1	1	1	1	1	1	1	1	1	0	1	-36,011276	274,766475	287,163926	0
14.01.2021	19:53:29	0	0	3,276358	4,8855	85,6296	0,857	77,083	3,5	1005,74	7,4	9,3	9,1	1	1	1	1	1	1	1	1	1	0	1	-42,424242	274,888896	281,327303	0
14.01.2021	19:53:30	0	0	3,615291	4,94025	86,2812	0,86	77,095	3,5	1005,64	7,4	9,3	9,1	1	1	1	1	1	1	1	1	1	0	1	-40,451022	274,775746	282,767798	0
14.01.2021	19:53:31	0	0	4,293158	4,83225	92,2644	0,857	77,089	3,5	1005,6	7,4	9,3	9,1	1	1	1	1	1	1	1	1	1	0	1	-38,054968	274,785021	285,207495	0
14.01.2021	19:53:32	0	0	4,067203	4,638	101,4732	0,854	77,096	3,5	1005,78	7,5	9,3	9,1	1	1	1	1	1	1	1	1	1	0	1	-39,112051	274,720188	283,845439	0
14.01.2021	19:53:33	0	0	4,858048	4,88475	98,0316	0,86	77,1	3,5	1005,54	7,4	9,3	9,1	1	1	1	1	1	1	1	1	1	0	1	-38,477801	274,791207	284,813772	0
14.01.2021	19:53:34	0	0	3,728269	5,4195	90,4032	0,865	77,083	3,5	1005,7	7,4	9,3	9,1	1	1	1	1	1	1	1	1	1	0	1	-36,293164	274,899781	287,509663	0
14.01.2021	19:53:35	0	0	2,711468	5,3745	93,69	0,854	77,088	3,5	1005,58	7,5	9,3	9,1	1	1	1	1	1	1	1	1	1	0	1	-35,658915	274,777291	287,567178	0
14.01.2021	19:53:36	0	0	3,050402	5,20575	94,77	0,862	77,076	3,5	1005,7	7,4	9,3	9,1	1	1	1	1	1	1	1	1	1	0	1	-37,13883	274,730979	285,869403	0
14.01.2021	19:53:37	0	0	4,858048	5,0445	85,8816	0,856	77,1	3,5	1005,54	7,4	9,3	9,1	1	1	1	1	1	1	1	1	1	0	1	-37,279774	274,734063	285,742963	0
14.01.2021	19:53:38	0	0	3,502313	5,01675	83,7072	0,86	77,091	3,5	1005,62	7,5	9,3	9,1	1	1	1	1	1	1	1	1	1	0	1	-37,632135	274,901337	286,178021	0
14.01.2021	19:53:39	0	0	3,389336	5,21025	88,0812	0,855	77,079	3,5	1005,42	7,5	9,3	9,1	1	1	1	1	1	1	1	1	1	0	1	-36,363636	274,775746	286,855184	0
14.01.2021	19:53:40	0	0	2,485513	5,478	74,16	0,859	77,081	3,5	1005,54	7,4	9,3	9,1	1	1	1	1	1	1	1	1	1	0	1	-41,508104	274,741775	281,550906	0
14.01.2021	19:53:41	0	0	2,146579	5,448	91,8972	0,859	77,093	3,5	1005,54	7,4	9,3	9,1	1	1	1	1	1	1	1	1	1	0	1	-35,16561	274,896671	288,622562	0
14.01.2021	19:53:42	0	0	2,937424	5,28975	91,1376	0,852	77,077	3,5	1005,54	7,4	9,3	9,1	1	1	1	1	1	1	1	1	1	0	1	-37,491191	274,850072	286,077489	0
14.01.2021	19:53:43	0	0	4,632092	5,2305	83,43	0,855	77,089	3,5	1005,52	7,4	9,3	9,1	1	1	1	1	1	1	1	1	1	0	1	-34,460888	274,720188	288,496602	0
14.01.2021	19:53:44	0	0	4,180181	5,21175	90,0072	0,86	77,077	3,5	1005,54	7,4	9,3	9,1	1	1	1	1	1	1	1	1	1	0	1	-38,195913	274,809776	285,183058	0
14.01.2021	19:53:45	0	0	3,728269	4,938	80,9064	0,857	77,072	3,5	1005,58	7,4	9,3	9,1	1	1	1	1	1	1	1	1	1	0	1	-39,041579	274,723271	283,930406	0
14.01.2021	19:53:46	0	0	4,971026	4,84275	80,1288	0,856	77,083	3,5	1005,52	7,4	9,3	9,1	1	1	1	1	1	1	1	1	1	0	1	-37,984496	274,84852	285,576878	0
14.01.2021	19:53:47	0	0	3,841247	4,77675	84,4056	0,855	77,09	3,5	1005,52	7,5	9,3	9,1	1	1	1	1	1	1	1	1	1	0	1	-37,279774	274,723271	285,69221	0
14.01.2021	19:53:48	0	0	4,74507	4,7175	86,2488	0,864	77,102	3,5	1005,72	7,5	9,3	9,1	1	1	1	1	1	1	1	1	1	0	1	-38,689218	274,794301	284,616915	0
14.01.2021	19:53:49	0	0	3,050402	4,71525	78,6528	0,863	77,107	3,5	1005,66	7,5	9,3	9,1	1	1	1	1	1	1	1	1	1	0	1	-36,645525	274,899781	287,157302	0
14.01.2021	19:53:50	0	0	2,372535	4,53825	81,2196	0,862	77,114	3,5	1005,54	7,4	9,3	9,1	1	1	1	1	1	1	1	1	1	0	1	-41,719521	274,747947	281,368521	0
14.01.2021	19:53:51	0	0	5,084003	4,521	70,5996	0,864	77,126	3,5	1005,64	7,4	9,3	9,1	1	1	1	1	1	1	1	1	1	0	1	-34,319944	274,898226	289,475555	0
14.01.2021	19:53:52	0	0	4,74507	4,46175	67,6656	0,855	77,131	3,5	1005,7	7,4	9,3	9,1	1	1	1	1	1	1	1	1	1	0	1	-38,689218	274,761842	284,464185	0
14.01.2021	19:53:53	0	0	3,050402	4,46475	67,9896	0,862	77,134	3,5	1005,6	7,4	9,3	9,1	1	1	1	1	1	1	1	1	1	0	1	-38,336857	274,791207	284,954717	0
14.01.2021	19:53:54	0	0	2,598491	4,36275	80,9136	0,859	77,128	3,5	1005,78	7,5	9,3	9,1	1	1	1	1	1	1	1	1	1	0	1	-42,212826	274,910672	281,641318	0
14.01.2021	19:53:55	0	0	3,276358	4,12875	80,892	0,86	77,128	3,5	1005,58	7,5	9,3	9,1	1	1	1	1	1	1	1	1	1	0	1	-34,460888	274,76802	288,721582	0
14.01.2021	19:53:56	0	0	3,389336	3,86625	74,916	0,861	77,115	3,5	1005,66	7,5	9,3	9,1	1	1	1	1	1	1	1	1	1	0	1	-35,588443	274,73869	287,456057	0
14.01.2021	19:53:57	0	0	4,74507	3,7935	82,35	0,863	77,117	3,5	1005,7	7,5	9,3	9,1	1	1	1	1	1	1	1	1	1	0	1	-44,96124	274,84852	278,600134	0
14.01.2021	19:53:58	0	0	3,050402	3,82425	88,0992	0,866	77,098	3,5	1005,5	7,4	9,3	9,1	1	1	1	1	1	1	1	1	1	0	1	-38,75969	274,73869	284,284809	0
14.01.2021	19:53:59	0	0	4,067203	3,80175	77,94	0,865	77,094	3,5	1005,64	7,4	9,3	9,1	1	1	1	1	1	1	1	1	1	0	1	-40,239605	274,781929	283,008308	0
14.01.2021	19:54:00	0	0	3,16338	3,79425	82,5768	0,864	77,066	3,5	1005,58	7,5	9,3	9,1	1	1	1	1	1	1	1	1	1	0	1	-38,054968	274,862487	285,57218	0
14.01.2021	19:54:01	0	0	3,16338	3,79425	82,5768	0,864	77,066	3,5	1005,58	7,5	9,3	9,1	1	1	1	1	1	1	1	1	1	0	1	-38,054968	274,862487	285,57218	0
14.01.2021	19:54:02	0	0	4,406136	3,86175	80,1252	0,862	77,073	3,5	1005,5	7,4	9,3	9,1	1	1	1	1	1	1	1	1	1	0	1	-36,434109	274,74949	286,661192	0
14.01.2021	19:54:03	0	0	2,937424	4,24125	88,9524	0,865	77,071	3,5	1005,6	7,4	9,3	9,1	1	1	1	1	1	1	1	1	1	0	1	-41,649049	274,747947	281,438993	0
14.01.2021	19:54:04	0	0	4,74507	4,41375	85,5216	0,866	77,042	3,5	1005,68	7,4	9,3	9,1	1	1	1	1	1	1	1	1	1	0	1	-39,7463	274,899781	284,056527	0
14.01.2021	19:54:05	0	0	2,485513	4,4055	83,412	0,873	77,05	3,5	1005,52	7,4	9,3	9,1	1	1	1	1	1	1	1	1	1	0	1	-38,830162	274,777291	284,39593	0
14.01.2021	19:54:06	0	0	4,406136	4,3305	81,5688	0,869	77,021	3,5	1005,54	7,4	9,3	9,1	1	1	1	1	1	1	1	1	1	0	1	-39,464412	274,786567	283,805329	0
14.01.2021	19:54:07	0	0	4,74507	4,25025	77,2128	0,867	77,038	3,5	1005,58	7,4	9,3	9,1	1	1	1	1	1	1	1	1	1	0	1	-39,7463	274,90756	284,093178	0
14.01.2021	19:54:08	0	0	3,050402	4,194	69,1488	0,869	77,025	3,5	1005,56	7,4	9,3	9,1	1	1	1	1	1	1	1	1	1	0	1	-42,635659	274,791207	280,655915	0
14.01.2021	19:54:09	0	0	3,502313	3,94425	76,8132	0,867	77,028	3,5	1005,62	7,4	9,3	9,1	1	1	1	1	1	1	1	1	1	0	1	-34,390416	274,73869	288,654083	0
14.01.2021	19:54:10	0	0	2,485513	3,675	76,8348	0,871	77,03	3,5	1005,66	7,5	9,3	9,1	1	1	1	1	1	1	1	1	1	0	1	-36,081748	274,881125	287,633189	0
14.01.2021	19:54:11	0	0	3,276358	3,63525	82,5912	0,865	77	3,5	1005,54	7,5	9,3	9,1	1	1	1	1	1	1	1	1	1	0	1	-38,689218	274,746404	284,391565	0
14.01.2021	19:54:12	0	0	5,309959	3,52875	98,4888	0,867	77,003	3,5	1005,74	7,4	9,3	9,1	1	1	1	1	1	1	1	1	1	0	1	-42,917548	274,743318	280,14872	0
14.01.2021	19:54:13	0	0	3,389336	3,44475	87,336	0,866	77,005	3,5	1005,6	7,5	9,3	9,1	1	1	1	1	1	1	1	1	1	0	1	-40,098661	274,743318	282,967606	0
14.01.2021	19:54:14	0	0	4,180181	3,5685	80,1576	0,865	76,985	3,5	1005,54	7,4	9,3	9,1	1	1	1	1	1	1	1	1	1	0	1	-36,363636	274,744861	286,709888	0
14.01.2021	19:54:15	0	0	4,519114	3,624	86,9508	0,863	76,981	3,5	1005,64	7,5	9,3	9,1	1	1	1	1	1	1	1	1	1	0	1	-31,078224	274,918455	292,812596	0
14.01.2021	19:54:16	0	0	5,535915	3,741	82,3464	0,866	76,98	3,5	1005,76	7,5	9,3	9,1	1	1	1	1	1	1	1	1	1	0	1	-38,407329	274,84852	285,154045	0
14.01.2021	19:54:17	0	0	3,276358	4,008	88,0956	0,868	76,963	3,5	1005,74	7,4	9,3	9,1	1	1	1	1	1	1	1	1	1	0	1	-34,601832	274,740232	288,449922	0
14.01.2021	19:54:18	0	0	4,858048	3,882	83,3328	0,866	76,967	3,5	1005,58	7,5	9,3	9,1	1	1	1	1	1	1	1	1	1	0	1	-41,226216	274,854727	282,364385	0
14.01.2021	19:54:19	0	0	3,841247	3,57975	86,9544	0,864	76,956	3,5	1005,52	7,5	9,3	9,1	1	1	1	1	1	1	1	1	1	0	1	-39,182523	274,876464	284,510457	0
14.01.2021	19:54:20	0	0	4,971026	3,516	104,436	0,866	76,945	3,5	1005,54	7,5	9,3	9,1	1	1	1	1	1	1	1	1	1	0	1	-38,75969	274,737147	284,277555	0
14.01.2021	19:54:21	0	0	4,519114	3,56025	86,6412	0,861	76,932	3,5	1005,56	7,5	9,3	9,1	1	1	1	1	1	1	1	1	1	0	1	-40,803383	274,881125	282,911554	0
14.01.2021	19:54:22	0	0	2,485513	3,774	93,3048	0,862	76,939	3,5	1005,64	7,5	9,3	9,1	1	1	1	1	1	1	1	1	1	0	1	-39,887245	274,890451	283,871624	0
14.01.2021	19:54:23	0	0	3,502313	3,66375	91,1088	0,866	76,936	3,5	1005,58	7,5	9,3	9,1	1	1	1	1	1	1	1	1	1	0	1	-36,011276	274,915342	287,864872	0
14.01.2021	19:54:24	0	0	2,598491	3,81375	97,4016	0,869	76,929	3,5	1005,62	7,4	9,3	9,1	1	1	1	1	1	1	1	1	1	0	1	-40,803383	274,809776	282,575588	0
14.01.2021	19:54:25	0	0	2,824446	3,99	91,1412	0,872	76,934	3,5	1005,72	7,5	9,3	9,1	1	1	1	1	1	1	1	1	1	0	1	-38,054968	274,912229	285,80651	0
14.01.2021	19:54:26	0	0	3,615291	4,11675	92,646	0,87	76,928	3,5	1005,48	7,5	9,3	9,1	1	1	1	1	1	1	1	1	1	0	1	-39,957717	274,730979	283,050516	0
14.01.2021	19:54:27	0	0	4,180181	4,30425	93,1068	0,862	76,916	3,5	1005,66	7,4	9,3	9,1	1	1	1	1	1	1	1	1	1	0	1	-37,420719	274,803585	285,929108	0
14.01.2021	19:54:28	0	0	4,293158	4,02225	91,1556	0,87	76,94	3,5	1005,64	7,4	9,3	9,1	1	1	1	1	1	1	1	1	1	0	1	-39,393939	274,90756	284,445539	0
14.01.2021	19:54:29	0	0	4,632092	3,639	94,104	0,861	76,927	3,5	1005,58	7,4	9,3	9,1	1	1	1	1	1	1	1	1	1	0	1	-38,12544	274,839215	285,392117	0
14.01.2021	19:54:30	0	0	2,824446	3,8205	91,53	0,861	76,924	3,5	1005,66	7,4	9,3	9,1	1	1	1	1	1	1	1	1	1	0	1	-42,142354	274,902892	281,675132	0
14.01.2021	19:54:31	0	0	2,824446	3,96975	105,5772	0,867	76,95	3,5	1005,7	7,5	9,3	9,1	1	1	1	1	1	1	1	1	1	0	1	-39,182523	274,735605	283,847468	0
14.01.2021	19:54:32	0	0	3,050402	3,61125	104,454	0,866	76,953	3,5	1005,76	7,5	9,3	9,1	1	1	1	1	1	1	1	1	1	0	1	-42,35377	274,901337	281,456386	0
14.01.2021	19:54:33	0	0	2,937424	3,49575	93,3336	0,864	76,956	3,5	1005,74	7,4	9,3	9,1	1	1	1	1	1	1	1	1	1	0	1	-39,887245	274,839215	283,630313	0
14.01.2021	19:54:34	0	0	3,615291	4,095	102,9492	0,863	76,955	3,5	1005,6	7,4	9,3	9,1	1	1	1	1	1	1	1	1	1	0	1	-42,494715	274,912229	281,366763	0
14.01.2021	19:54:35	0	0	4,632092	4,6125	96,1884	0,862	76,952	3,5	1005,72	7,4	9,3	9,1	1	1	1	1	1	1	1	1	1	0	1	-41,578576	274,853175	282,004716	0
14.01.2021	19:54:36	0	0	3,389336	5,0685	96,5628	0,865	76,962	3,5	1005,6	7,5	9,3	9,1	1	1	1	1	1	1	1	1	1	0	1	-33,615222	274,734063	289,407515	0
14.01.2021	19:54:37	0	0	4,971026	5,28225	96,5772	0,863	76,98	3,5	1005,66	7,5	9,3	9,1	1	1	1	1	1	1	1	1	1	0	1	-40,098661	274,837664	283,411596	0
14.01.2021	19:54:38	0	0	2,711468	5,16525	80,604	0,863	76,97	3,5	1005,66	7,5	9,3	9,1	1	1	1	1	1	1	1	1	1	0	1	-39,393939	274,732521	283,621545	0
14.01.2021	19:54:39	0	0	2,824446	5,0685	97,7004	0,856	76,988	3,5	1005,6	7,4	9,3	9,1	1	1	1	1	1	1	1	1	1	0	1	-36,927414	274,856278	286,670495	0
14.01.2021	19:54:40	0	0	3,502313	4,797	82,3608	0,864	76,995	3,5	1005,5	7,5	9,3	9,1	1	1	1	1	1	1	1	1	1	0	1	-36,434109	274,902892	287,383377	0
14.01.2021	19:54:41	0	0	4,180181	4,569	86,9544	0,863	77,026	3,5	1005,64	7,4	9,3	9,1	1	1	1	1	1	1	1	1	1	0	1	-41,719521	274,890451	282,039348	0
14.01.2021	19:54:42	0	0	3,16338	4,617	95,8428	0,862	77,054	3,5	1005,68	7,5	9,3	9,1	1	1	1	1	1	1	1	1	1	0	1	-39,816772	274,870251	283,846942	0
14.01.2021	19:54:43	0	0	4,293158	4,2675	82,602	0,857	77,064	3,5	1005,52	7,4	9,3	9,1	1	1	1	1	1	1	1	1	1	0	1	-39,464412	274,732521	283,551073	0
14.01.2021	19:54:44	0	0	2,598491	3,9105	93,7008	0,86	77,098	3,5	1005,5	7,5	9,3	9,1	1	1	1	1	1	1	1	1	1	0	1	-38,477801	274,809776	284,901169	0
14.01.2021	19:54:45	0	0	4,632092	3,84375	97,0596	0,861	77,097	3,5	1005,5	7,5	9,3	9,1	1	1	1	1	1	1	1	1	1	0	1	-37,702607	274,896671	286,085564	0
14.01.2021	19:54:46	0	0	3,276358	3,71325	82,5948	0,86	77,115	3,5	1005,44	7,5	9,3	9,1	1	1	1	1	1	1	1	1	1	0	1	-39,887245	274,786567	283,382496	0
14.01.2021	19:54:47	0	0	4,180181	3,74625	78,2712	0,861	77,137	3,5	1005,64	7,5	9,3	9,1	1	1	1	1	1	1	1	1	1	0	1	-41,226216	274,899781	282,576611	0
14.01.2021	19:54:48	0	0	2,711468	3,924	108,4788	0,859	77,16	3,5	1005,7	7,5	9,3	9,1	1	1	1	1	1	1	1	1	1	0	1	-41,36716	274,865592	282,274613	0
14.01.2021	19:54:49	0	0	4,067203	4,51125	109,9404	0,862	77,164	3,5	1005,62	7,5	9,3	9,1	1	1	1	1	1	1	1	1	1	0	1	-40,098661	274,904448	283,726155	0
14.01.2021	19:54:50	0	0	4,632092	5,322	107,7372	0,861	77,169	3,5	1005,7	7,4	9,3	9,1	1	1	1	1	1	1	1	1	1	0	1	-41,085271	274,812873	282,308275	0
14.01.2021	19:54:51	0	0	3,276358	6,3225	99,144	0,864	77,186	3,5	1005,62	7,4	9,3	9,1	1	1	1	1	1	1	1	1	1	0	1	-41,085271	274,723271	281,886713	0
14.01.2021	19:54:52	0	0	3,16338	6,6105	95,1336	0,862	77,177	3,5	1005,54	7,5	9,3	9,1	1	1	1	1	1	1	1	1	1	0	1	-38,689218	274,77111	284,50779	0
14.01.2021	19:54:53	0	0	3,389336	6,75375	92,6424	0,856	77,181	3,5	1005,74	7,4	9,3	9,1	1	1	1	1	1	1	1	1	1	0	1	-35,024665	274,740232	288,027089	0
14.01.2021	19:54:54	0	0	3,16338	6,5955	95,1192	0,859	77,182	3,5	1005,68	7,5	9,3	9,1	1	1	1	1	1	1	1	1	1	0	1	-36,222692	274,842316	287,309468	0
14.01.2021	19:54:55	0	0	2,485513	6,53625	105,138	0,859	77,166	3,5	1005,5	7,5	9,3	9,1	1	1	1	1	1	1	1	1	1	0	1	-38,336857	274,904448	285,487959	0
14.01.2021	19:54:56	0	0	3,050402	6,4875	104,418	0,856	77,169	3,5	1005,68	7,5	9,3	9,1	1	1	1	1	1	1	1	1	1	0	1	-38,195913	274,788114	285,081105	0
14.01.2021	19:54:57	0	0	3,16338	6,48525	108,1368	0,854	77,166	3,5	1005,6	7,5	9,3	9,1	1	1	1	1	1	1	1	1	1	0	1	-36,997886	274,90756	286,841593	0
14.01.2021	19:54:58	0	0	4,858048	5,99325	115,5852	0,859	77,187	3,5	1005,52	7,4	9,3	9,1	1	1	1	1	1	1	1	1	1	0	1	-39,816772	274,845418	283,729994	0
14.01.2021	19:54:59	0	0	3,841247	6,2385	104,0544	0,861	77,174	3,5	1005,6	7,5	9,3	9,1	1	1	1	1	1	1	1	1	1	0	1	-37,632135	274,916899	286,251348	0
14.01.2021	19:55:00	0	0	4,971026	6,8265	99,1476	0,855	77,206	3,5	1005,78	7,5	9,3	9,1	1	1	1	1	1	1	1	1	1	0	1	-40,521494	274,916899	283,36199	0
14.01.2021	19:55:01	0	0	4,067203	6,9465	96,5736	0,86	77,209	3,5	1005,64	7,5	9,3	9,1	1	1	1	1	1	1	1	1	1	0	1	-43,622269	274,792754	279,676583	0
14.01.2021	19:55:02	0	0	4,067203	6,9465	96,5736	0,86	77,209	3,5	1005,64	7,5	9,3	9,1	1	1	1	1	1	1	1	1	1	0	1	-43,622269	274,792754	279,676583	0
14.01.2021	19:55:03	0	0	2,485513	6,9	101,79	0,859	77,218	3,5	1005,58	7,5	9,3	9,1	1	1	1	1	1	1	1	1	1	0	1	-40,098661	274,734063	282,924076	0
14.01.2021	19:55:04	0	0	4,971026	6,819	97,6896	0,854	77,223	3,5	1005,6	7,5	9,3	9,1	1	1	1	1	1	1	1	1	1	0	1	-37,209302	274,834564	286,286356	0
14.01.2021	19:55:05	0	0	3,050384	6,51075	99,126	0,862	77,236	3,5	1005,6	7,5	9,3	9,2	1	1	1	1	1	1	1	1	1	0	1	-43,833686	274,754121	279,283398	0
14.01.2021	19:55:06	0	0	2,937424	6,51075	99,1368	0,859	77,25	3,5	1005,7	7,4	9,3	9,1	1	1	1	1	1	1	1	1	1	0	1	-38,75969	274,85783	284,845528	0
14.01.2021	19:55:07	0	0	4,74507	6,564	98,0424	0,851	77,242	3,5	1005,58	7,5	9,3	9,1	1	1	1	1	1	1	1	1	1	0	1	-38,689218	274,90756	285,150261	0
14.01.2021	19:55:08	0	0	4,519114	6,42825	101,0772	0,858	77,229	3,5	1005,48	7,5	9,3	9,1	1	1	1	1	1	1	1	1	1	0	1	-37,279774	274,843867	286,259688	0
14.01.2021	19:55:09	0	0	2,937424	6,60675	102,9564	0,859	77,243	3,5	1005,74	7,5	9,3	9,1	1	1	1	1	1	1	1	1	1	0	1	-41,719521	274,884233	282,010057	0
14.01.2021	19:55:10	0	0	3,954201	6,59625	105,894	0,861	77,259	3,5	1005,78	7,5	9,3	9,2	1	1	1	1	1	1	1	1	1	0	1	-40,098661	274,751034	283,0039	0
14.01.2021	19:55:11	0	0	4,632092	6,28575	93,06	0,861	77,264	3,5	1005,78	7,5	9,3	9,1	1	1	1	1	1	1	1	1	1	0	1	-36,081748	274,916899	287,801736	0
14.01.2021	19:55:12	0	0	2,937407	5,85375	94,3596	0,86	77,267	3,5	1005,72	7,5	9,3	9,2	1	1	1	1	1	1	1	1	1	0	1	-35,447498	274,798942	287,880478	0
14.01.2021	19:55:13	0	0	4,406136	5,74425	93,3408	0,863	77,257	3,5	1005,66	7,5	9,3	9,1	1	1	1	1	1	1	1	1	1	0	1	-42,494715	274,73869	280,549785	0
14.01.2021	19:55:14	0	0	4,632092	5,6715	90,7596	0,864	77,254	3,5	1005,72	7,5	9,3	9,1	1	1	1	1	1	1	1	1	1	0	1	-39,7463	274,879571	283,961317	0
14.01.2021	19:55:15	0	0	3,841224	5,6355	92,2428	0,861	77,246	3,5	1005,76	7,5	9,3	9,2	1	1	1	1	1	1	1	1	1	0	1	-37,561663	274,845418	285,985103	0
14.01.2021	19:55:16	0	0	4,40611	5,547	94,1544	0,867	77,273	3,5	1005,72	7,5	9,3	9,2	1	1	1	1	1	1	1	1	1	0	1	-40,803383	274,740232	282,248372	0
14.01.2021	19:55:17	0	0	4,067203	5,268	91,17	0,868	77,261	3,5	1005,6	7,4	9,3	9,1	1	1	1	1	1	1	1	1	1	0	1	-42,283298	274,874911	281,402364	0
14.01.2021	19:55:18	0	0	4,293158	5,08425	92,2248	0,86	77,28	3,5	1005,62	7,5	9,3	9,1	1	1	1	1	1	1	1	1	1	0	1	-37,420719	274,730979	285,587514	0
14.01.2021	19:55:19	0	0	3,389315	4,70925	96,2244	0,859	77,27	3,5	1005,58	7,5	9,3	9,2	1	1	1	1	1	1	1	1	1	0	1	-42,424242	274,802037	280,9183	0
14.01.2021	19:55:20	0	0	2,824446	4,68675	102,5604	0,861	77,289	3,5	1005,58	7,5	9,3	9,1	1	1	1	1	1	1	1	1	1	0	1	-41,437632	274,912229	282,423846	0
14.01.2021	19:55:21	0	0	3,502313	4,7565	101,826	0,86	77,304	3,5	1005,62	7,5	9,3	9,1	1	1	1	1	1	1	1	1	1	0	1	-41,437632	274,777291	281,78846	0
14.01.2021	19:55:22	0	0	4,180181	4,8225	101,4912	0,866	77,31	3,5	1005,62	7,5	9,3	9,1	1	1	1	1	1	1	1	1	1	0	1	-42,35377	274,741775	280,70524	0
14.01.2021	19:55:23	0	0	3,276358	4,78125	108,486	0,884	77,306	3,5	1005,44	7,5	9,4	9,1	1	1	1	1	1	1	1	1	1	0	1	-40,451022	274,772655	282,753256	0
14.01.2021	19:55:24	0	0	3,954225	4,7115	100,3572	0,866	77,33	3,5	1005,7	7,5	9,3	9,1	1	1	1	1	1	1	1	1	1	0	1	-32,9105	274,778837	290,322865	0
14.01.2021	19:55:25	0	0	2,485513	5,03325	108,5076	0,86	77,324	3,5	1005,62	7,5	9,3	9,1	1	1	1	1	1	1	1	1	1	0	1	-40,591966	274,740232	282,459788	0
14.01.2021	19:55:26	0	0	4,858048	5,49825	97,3116	0,86	77,314	3,5	1005,6	7,5	9,3	9,1	1	1	1	1	1	1	1	1	1	0	1	-39,112051	274,870251	284,551664	0
14.01.2021	19:55:27	0	0	2,598475	5,38275	90	0,867	77,331	3,5	1005,7	7,5	9,3	9,2	1	1	1	1	1	1	1	1	1	0	1	-40,451022	274,74949	282,644279	0
14.01.2021	19:55:28	0	0	3,16338	5,15025	94,3884	0,864	77,329	3,5	1005,58	7,5	9,3	9,1	1	1	1	1	1	1	1	1	1	0	1	-37,702607	274,795848	285,610806	0
14.01.2021	19:55:29	0	0	3,841247	5,09025	95,1372	0,87	77,332	3,5	1005,6	7,5	9,3	9,1	1	1	1	1	1	1	1	1	1	0	1	-37,561663	274,941823	286,439294	0
14.01.2021	19:55:30	0	0	3,954225	5,21025	95,94	0,869	77,338	3,5	1005,86	7,5	9,3	9,1	1	1	1	1	1	1	1	1	1	0	1	-39,182523	274,809776	284,196448	0
14.01.2021	19:55:31	0	0	2,598475	5,022	88,5744	0,864	77,327	3,5	1005,68	7,5	9,4	9,2	1	1	1	1	1	1	1	1	1	0	1	-49,330514	274,741775	273,728496	0
14.01.2021	19:55:32	0	0	4,74507	5,22825	88,938	0,862	77,333	3,5	1005,56	7,5	9,3	9,1	1	1	1	1	1	1	1	1	1	0	1	-42,847075	274,885788	280,889824	0
14.01.2021	19:55:33	0	0	4,745041	5,367	85,896	0,871	77,342	3,5	1005,7	7,5	9,3	9,2	1	1	1	1	1	1	1	1	1	0	1	-38,689218	274,769565	284,500521	0
14.01.2021	19:55:34	0	0	3,16338	5,5785	93,3516	0,867	77,34	3,5	1005,8	7,5	9,3	9,1	1	1	1	1	1	1	1	1	1	0	1	-37,702607	274,890451	286,056262	0
14.01.2021	19:55:35	0	0	2,372535	6,4395	96,228	0,872	77,343	3,5	1005,58	7,5	9,3	9,1	1	1	1	1	1	1	1	1	1	0	1	-38,054968	274,783475	285,20022	0
14.01.2021	19:55:36	0	0	3,276338	6,70875	84,4416	0,871	77,324	3,5	1005,72	7,5	9,3	9,2	1	1	1	1	1	1	1	1	1	0	1	-40,591966	274,760297	282,554171	0
14.01.2021	19:55:37	0	0	4,406136	6,33675	80,1288	0,872	77,324	3,5	1005,54	7,5	9,4	9,1	1	1	1	1	1	1	1	1	1	0	1	-42,424242	274,906004	281,407904	0
14.01.2021	19:55:38	0	0	4,519114	6,4965	86,6664	0,878	77,325	3,5	1005,76	7,4	9,3	9,1	1	1	1	1	1	1	1	1	1	0	1	-40,662438	274,761842	282,490964	0
14.01.2021	19:55:39	0	0	2,711468	6,054	73,44	0,876	77,308	3,5	1005,56	7,5	9,3	9,1	1	1	1	1	1	1	1	1	1	0	1	-36,997886	274,800489	286,337373	0
14.01.2021	19:55:40	0	0	5,084003	6,465	79,4016	0,877	77,283	3,5	1005,56	7,5	9,3	9,1	1	1	1	1	1	1	1	1	1	0	1	-38,75969	274,923127	285,153145	0
14.01.2021	19:55:41	0	0	3,615291	6,36	70,5996	0,871	77,292	3,5	1005,7	7,5	9,3	9,1	1	1	1	1	1	1	1	1	1	0	1	-36,363636	274,760297	286,782501	0
14.01.2021	19:55:42	0	0	4,632064	6,19275	85,9176	0,874	77,282	3,5	1005,64	7,5	9,3	9,2	1	1	1	1	1	1	1	1	1	0	1	-36,222692	274,777291	287,0034	0
14.01.2021	19:55:43	0	0	4,180181	5,70375	89,712	0,875	77,271	3,5	1005,6	7,5	9,3	9,1	1	1	1	1	1	1	1	1	1	0	1	-40,591966	274,781929	282,655947	0
14.01.2021	19:55:44	0	0	4,858019	5,499	75,2148	0,878	77,283	3,5	1005,64	7,5	9,4	9,2	1	1	1	1	1	1	1	1	1	0	1	-40,169133	274,825265	283,282746	0
14.01.2021	19:55:45	0	0	4,293133	6,396	82,3644	0,877	77,275	3,5	1005,64	7,5	9,3	9,2	1	1	1	1	1	1	1	1	1	0	1	-38,195913	274,929357	285,746285	0
14.01.2021	19:55:46	0	0	2,485498	6,7665	79,7508	0,874	77,268	3,5	1005,66	7,5	9,3	9,2	1	1	1	1	1	1	1	1	1	0	1	-39,252995	274,865592	284,388778	0
14.01.2021	19:55:47	0	0	3,841224	7,2405	84,816	0,878	77,269	3,5	1005,78	7,5	9,3	9,2	1	1	1	1	1	1	1	1	1	0	1	-40,732911	274,934031	283,231316	0
14.01.2021	19:55:48	0	0	2,711468	7,146	78,6636	0,88	77,266	3,5	1005,44	7,5	9,3	9,1	1	1	1	1	1	1	1	1	1	0	1	-35,658915	274,828364	287,807555	0
14.01.2021	19:55:49	0	0	3,841247	6,98175	82,5948	0,875	77,272	3,5	1005,58	7,5	9,3	9,1	1	1	1	1	1	1	1	1	1	0	1	-36,011276	274,937147	287,967641	0
14.01.2021	19:55:50	0	0	4,293158	7,3515	80,892	0,881	77,268	3,5	1005,68	7,5	9,3	9,1	1	1	1	1	1	1	1	1	1	0	1	-43,763214	274,895116	280,017631	0
14.01.2021	19:55:51	0	0	2,937407	7,47975	83,3508	0,881	77,258	3,5	1005,7	7,5	9,3	9,2	1	1	1	1	1	1	1	1	1	0	1	-40,732911	274,924684	283,187264	0
14.01.2021	19:55:52	0	0	3,389315	7,23225	79,0308	0,882	77,251	3,5	1005,64	7,5	9,3	9,2	1	1	1	1	1	1	1	1	1	0	1	-43,622269	274,937147	280,356647	0
14.01.2021	19:55:53	0	0	4,180181	7,074	85,914	0,882	77,236	3,5	1005,68	7,5	9,3	9,1	1	1	1	1	1	1	1	1	1	0	1	-40,169133	274,870251	283,494581	0
14.01.2021	19:55:54	0	0	2,937424	6,92475	88,1316	0,878	77,235	3,5	1005,62	7,5	9,3	9,1	1	1	1	1	1	1	1	1	1	0	1	-36,222692	274,777291	287,0034	0
14.01.2021	19:55:55	0	0	3,16338	6,40875	98,0892	0,879	77,226	3,5	1005,74	7,5	9,3	9,1	1	1	1	1	1	1	1	1	1	0	1	-37,702607	274,90756	286,136871	0
14.01.2021	19:55:56	0	0	3,389336	6,19125	87,3468	0,889	77,229	3,5	1005,54	7,5	9,3	9,1	1	1	1	1	1	1	1	1	1	0	1	-39,112051	274,898226	284,683448	0
14.01.2021	19:55:57	0	0	3,16338	6,0795	94,0896	0,877	77,218	3,5	1005,64	7,5	9,4	9,1	1	1	1	1	1	1	1	1	1	0	1	-35,870331	274,839215	287,647226	0
14.01.2021	19:55:58	0	0	4,293133	5,823	88,1244	0,902	77,202	3,5	1005,66	7,5	9,3	9,2	1	1	1	1	1	1	1	1	1	0	1	-41,226216	274,780383	282,014423	0
14.01.2021	19:55:59	0	0	3,954201	5,8785	77,9472	0,884	77,197	3,5	1005,38	7,4	9,4	9,2	1	1	1	1	1	1	1	1	1	0	1	-41,437632	274,822166	281,99966	0
14.01.2021	19:56:00	0	0	4,519087	5,8905	97,3296	0,882	77,179	3,5	1005,66	7,5	9,3	9,2	1	1	1	1	1	1	1	1	1	0	1	-40,944327	274,808228	282,427357	0
14.01.2021	19:56:01	0	0	4,519087	5,8905	97,3296	0,882	77,179	3,5	1005,66	7,5	9,3	9,2	1	1	1	1	1	1	1	1	1	0	1	-40,944327	274,808228	282,427357	0
14.01.2021	19:56:02	0	0	2,598491	5,9595	99,1584	0,886	77,169	3,5	1005,68	7,4	9,3	9,1	1	1	1	1	1	1	1	1	1	0	1	-39,675828	274,938706	284,310434	0
14.01.2021	19:56:03	0	0	3,502292	5,631	94,0896	0,885	77,152	3,5	1005,68	7,5	9,4	9,2	1	1	1	1	1	1	1	1	1	0	1	-38,12544	274,814422	285,275395	0
14.01.2021	19:56:04	0	0	3,954201	5,29725	78,3	0,889	77,153	3,5	1005,7	7,5	9,3	9,2	1	1	1	1	1	1	1	1	1	0	1	-37,984496	274,896671	285,803675	0
14.01.2021	19:56:05	0	0	2,824446	5,18025	93,348	0,889	77,133	3,5	1005,74	7,5	9,3	9,1	1	1	1	1	1	1	1	1	1	0	1	-39,393939	274,758753	283,744933	0
14.01.2021	19:56:06	0	0	4,519087	5,35725	89,3376	0,888	77,124	3,5	1005,7	7,4	9,4	9,2	1	1	1	1	1	1	1	1	1	0	1	-35,16561	274,819068	288,257098	0
14.01.2021	19:56:07	0	0	3,61527	5,53125	78,6744	0,892	77,111	3,5	1005,64	7,5	9,3	9,2	1	1	1	1	1	1	1	1	1	0	1	-37,702607	274,954298	286,357155	0
14.01.2021	19:56:08	0	0	4,180181	5,2815	76,3812	0,899	77,118	3,5	1005,5	7,4	9,3	9,1	1	1	1	1	1	1	1	1	1	0	1	-39,041579	274,823715	284,403006	0
14.01.2021	19:56:09	0	0	3,841247	5,268	67,6656	0,888	77,1	3,5	1005,64	7,5	9,4	9,1	1	1	1	1	1	1	1	1	1	0	1	-40,591966	274,775746	282,626854	0
14.01.2021	19:56:10	0	0	4,406136	5,1345	93,7152	0,898	77,099	3,5	1005,62	7,5	9,4	9,1	1	1	1	1	1	1	1	1	1	0	1	-36,856942	274,890451	286,901927	0
14.01.2021	19:56:11	0	0	3,163361	4,89675	100,746	0,893	77,07	3,5	1005,72	7,5	9,3	9,2	1	1	1	1	1	1	1	1	1	0	1	-39,675828	274,949619	284,361877	0
14.01.2021	19:56:12	0	0	4,74507	4,69275	88,11	0,889	77,072	3,5	1005,54	7,5	9,4	9,1	1	1	1	1	1	1	1	1	1	0	1	-37,632135	274,831463	285,848927	0
14.01.2021	19:56:13	0	0	4,180155	4,5705	72,6552	0,896	77,067	3,5	1005,62	7,4	9,3	9,2	1	1	1	1	1	1	1	1	1	0	1	-40,591966	274,958978	283,48986	0
14.01.2021	19:56:14	0	0	2,824446	4,5315	66,2184	0,894	77,043	3,5	1005,42	7,4	9,3	9,1	1	1	1	1	1	1	1	1	1	0	1	-39,252995	274,839215	284,264562	0
14.01.2021	19:56:15	0	0	4,180155	4,62075	85,1796	0,894	77,046	3,5	1005,54	7,4	9,3	9,2	1	1	1	1	1	1	1	1	1	0	1	-37,914024	274,76802	285,268446	0
14.01.2021	19:56:16	0	0	2,598475	4,37775	76,3848	0,891	77,032	3,5	1005,7	7,4	9,4	9,2	1	1	1	1	1	1	1	1	1	0	1	-42,283298	274,915342	281,59285	0
14.01.2021	19:56:17	0	0	2,711468	4,12425	88,9416	0,899	77,024	3,5	1005,68	7,5	9,4	9,1	1	1	1	1	1	1	1	1	1	0	1	-38,336857	274,812873	285,05669	0
14.01.2021	19:56:18	0	0	3,502292	4,15875	93,3192	0,891	77,015	3,5	1005,7	7,4	9,4	9,2	1	1	1	1	1	1	1	1	1	0	1	-43,269908	274,94806	280,760445	0
14.01.2021	19:56:19	0	0	4,067203	4,38825	84,7836	0,899	77,009	3,5	1005,74	7,5	9,3	9,1	1	1	1	1	1	1	1	1	1	0	1	-39,887245	274,809776	283,491726	0
14.01.2021	19:56:20	0	0	4,632064	4,64325	73,062	0,895	76,989	3,5	1005,74	7,4	9,4	9,2	1	1	1	1	1	1	1	1	1	0	1	-41,508104	274,957418	282,566366	0
14.01.2021	19:56:21	0	0	4,858019	4,794	86,634	0,898	76,97	3,5	1005,54	7,4	9,3	9,2	1	1	1	1	1	1	1	1	1	0	1	-39,252995	274,865592	284,388778	0
14.01.2021	19:56:22	0	0	3,389336	4,49025	83,3328	0,902	76,976	3,5	1005,7	7,4	9,4	9,1	1	1	1	1	1	1	1	1	1	0	1	-41,860465	274,938706	282,125797	0
14.01.2021	19:56:23	0	0	4,858048	4,2765	81,9828	0,895	76,956	3,5	1005,6	7,4	9,3	9,1	1	1	1	1	1	1	1	1	1	0	1	-40,239605	274,812873	283,153941	0
14.01.2021	19:56:24	0	0	2,824429	4,458	81,9612	0,899	76,947	3,5	1005,58	7,4	9,4	9,2	1	1	1	1	1	1	1	1	1	0	1	-40,169133	274,786567	283,100607	0
14.01.2021	19:56:25	0	0	5,196981	4,94325	83,7396	0,9	76,934	3,5	1005,5	7,4	9,4	9,1	1	1	1	1	1	1	1	1	1	0	1	-44,397463	274,846969	279,156607	0
14.01.2021	19:56:26	0	0	2,259544	5,115	89,7084	0,904	76,939	3,5	1005,68	7,5	9,4	9,2	1	1	1	1	1	1	1	1	1	0	1	-45,736434	274,949619	278,301271	0
14.01.2021	19:56:27	0	0	4,293133	5,37975	94,4028	0,895	76,935	3,5	1005,66	7,4	9,3	9,2	1	1	1	1	1	1	1	1	1	0	1	-43,551797	274,909116	280,295014	0
14.01.2021	19:56:28	0	0	2,598475	5,391	92,9628	0,901	76,936	3,5	1005,7	7,5	9,3	9,2	1	1	1	1	1	1	1	1	1	0	1	-40,451022	274,937147	283,527895	0
14.01.2021	19:56:29	0	0	4,970996	5,3535	92,2788	0,891	76,925	3,5	1005,54	7,4	9,3	9,2	1	1	1	1	1	1	1	1	1	0	1	-40,38055	274,954298	283,679212	0
14.01.2021	19:56:30	0	0	3,954225	5,27325	84,4092	0,899	76,927	3,5	1005,68	7,5	9,4	9,1	1	1	1	1	1	1	1	1	1	0	1	-41,649049	274,836114	281,853909	0
14.01.2021	19:56:31	0	0	4,40611	5,16375	88,1136	0,899	76,938	3,5	1005,68	7,4	9,3	9,2	1	1	1	1	1	1	1	1	1	0	1	-36,997886	274,763386	286,162782	0
14.01.2021	19:56:32	0	0	4,293133	5,28975	86,6664	0,901	76,929	3,5	1005,7	7,4	9,4	9,2	1	1	1	1	1	1	1	1	1	0	1	-37,491191	274,829914	285,982574	0
14.01.2021	19:56:33	0	0	3,502292	5,187	97,7112	0,901	76,952	3,5	1005,7	7,4	9,3	9,2	1	1	1	1	1	1	1	1	1	0	1	-40,169133	274,769565	283,020605	0
14.01.2021	19:56:34	0	0	2,711452	5,355	83,7216	0,901	76,936	3,5	1005,58	7,5	9,3	9,2	1	1	1	1	1	1	1	1	1	0	1	-38,336857	274,797395	284,983838	0
14.01.2021	19:56:35	0	0	2,937407	5,44275	86,9832	0,901	76,94	3,5	1005,58	7,5	9,3	9,2	1	1	1	1	1	1	1	1	1	0	1	-35,870331	274,839215	287,647226	0
14.01.2021	19:56:36	0	0	3,954225	5,4165	86,274	0,907	76,933	3,5	1005,64	7,4	9,3	9,1	1	1	1	1	1	1	1	1	1	0	1	-39,323467	274,77111	283,873541	0
14.01.2021	19:56:37	0	0	2,598491	5,3625	85,5432	0,908	76,935	3,5	1005,64	7,4	9,4	9,1	1	1	1	1	1	1	1	1	1	0	1	-37,77308	274,81597	285,635046	0
14.01.2021	19:56:38	0	0	3,276338	5,196	89,9964	0,909	76,927	3,5	1005,7	7,4	9,3	9,2	1	1	1	1	1	1	1	1	1	0	1	-45,525018	274,944941	278,490636	0
14.01.2021	19:56:39	0	0	3,954201	4,90725	88,9344	0,903	76,933	3,5	1005,58	7,4	9,4	9,2	1	1	1	1	1	1	1	1	1	0	1	-39,7463	274,803585	283,603527	0
14.01.2021	19:56:40	0	0	3,389315	4,584	89,7264	0,899	76,923	3,5	1005,62	7,4	9,4	9,2	1	1	1	1	1	1	1	1	1	0	1	-37,420719	274,902892	286,396767	0
14.01.2021	19:56:41	0	0	3,61527	4,473	90,0144	0,904	76,923	3,5	1005,7	7,4	9,4	9,2	1	1	1	1	1	1	1	1	1	0	1	-37,279774	274,783475	285,975414	0
14.01.2021	19:56:42	0	0	3,841247	4,15125	92,2284	0,905	76,926	3,5	1005,58	7,4	9,4	9,1	1	1	1	1	1	1	1	1	1	0	1	-37,77308	274,912229	286,088398	0
14.01.2021	19:56:43	0	0	4,745041	3,999	91,9872	0,901	76,907	3,5	1005,66	7,5	9,3	9,2	1	1	1	1	1	1	1	1	1	0	1	-41,014799	274,94806	283,015554	0
14.01.2021	19:56:44	0	0	2,824429	3,86925	89,3124	0,905	76,921	3,5	1005,56	7,4	9,3	9,2	1	1	1	1	1	1	1	1	1	0	1	-40,098661	274,853175	283,484632	0
14.01.2021	19:56:45	0	0	4,519087	4,0245	86,9652	0,907	76,898	3,5	1005,58	7,5	9,4	9,2	1	1	1	1	1	1	1	1	1	0	1	-42,001409	274,940265	281,9922	0
14.01.2021	19:56:46	0	0	4,40611	4,5255	85,518	0,906	76,924	3,5	1005,62	7,4	9,4	9,2	1	1	1	1	1	1	1	1	1	0	1	-39,041579	274,932473	284,915304	0
14.01.2021	19:56:47	0	0	3,954201	5,007	82,5804	0,903	76,919	3,5	1005,64	7,4	9,3	9,2	1	1	1	1	1	1	1	1	1	0	1	-36,575053	274,846969	286,979017	0
14.01.2021	19:56:48	0	0	3,389315	4,932	79,4124	0,908	76,922	3,5	1005,68	7,5	9,3	9,2	1	1	1	1	1	1	1	1	1	0	1	-47,004933	274,943382	277,003372	0
14.01.2021	19:56:49	0	0	4,067178	4,7655	81,5904	0,898	76,899	3,5	1005,58	7,4	9,3	9,2	1	1	1	1	1	1	1	1	1	0	1	-41,296688	274,865592	282,345085	0
14.01.2021	19:56:50	0	0	4,519087	4,70925	82,5696	0,899	76,908	3,5	1005,68	7,5	9,4	9,2	1	1	1	1	1	1	1	1	1	0	1	-40,803383	274,954298	283,256379	0
14.01.2021	19:56:51	0	0	4,632064	4,97175	89,6976	0,901	76,907	3,5	1005,66	7,5	9,3	9,2	1	1	1	1	1	1	1	1	1	0	1	-43,269908	274,90756	280,56957	0
14.01.2021	19:56:52	0	0	4,180155	4,9875	90,3996	0,901	76,907	3,5	1005,48	7,4	9,4	9,2	1	1	1	1	1	1	1	1	1	0	1	-38,75969	274,962098	285,336849	0
14.01.2021	19:56:53	0	0	2,372521	4,5615	93,3156	0,904	76,919	3,5	1005,66	7,5	9,4	9,2	1	1	1	1	1	1	1	1	1	0	1	-40,521494	274,805132	282,835618	0
14.01.2021	19:56:54	0	0	4,180155	4,33425	98,5356	0,899	76,913	3,5	1005,72	7,4	9,3	9,2	1	1	1	1	1	1	1	1	1	0	1	-39,323467	274,77111	283,873541	0
14.01.2021	19:56:55	0	0	4,519087	4,68675	93,7044	0,905	76,911	3,5	1005,74	7,4	9,3	9,2	1	1	1	1	1	1	1	1	1	0	1	-36,504581	274,909116	287,34223	0
14.01.2021	19:56:56	0	0	4,519087	5,103	80,514	0,909	76,934	3,5	1005,68	7,4	9,4	9,2	1	1	1	1	1	1	1	1	1	0	1	-40,521494	274,955858	283,545622	0
14.01.2021	19:56:57	0	0	4,180155	5,14275	89,9928	0,905	76,929	3,5	1005,6	7,4	9,4	9,2	1	1	1	1	1	1	1	1	1	0	1	-41,437632	274,935589	282,533939	0
14.01.2021	19:56:58	0	0	4,632064	5,04525	86,3604	0,908	76,934	3,5	1005,66	7,5	9,3	9,2	1	1	1	1	1	1	1	1	1	0	1	-42,494715	274,892006	281,271479	0
14.01.2021	19:56:59	0	0	4,067178	4,41825	97,3044	0,914	76,949	3,5	1005,74	7,4	9,4	9,2	1	1	1	1	1	1	1	1	1	0	1	-46,511628	274,943382	277,496677	0
14.01.2021	19:57:00	0	0	3,502292	4,0935	90,0324	0,902	76,951	3,5	1005,58	7,4	9,4	9,2	1	1	1	1	1	1	1	1	1	0	1	-42,706131	274,778837	280,527234	0
14.01.2021	19:57:01	0	0	2,485498	4,4085	91,8756	0,908	76,956	3,5	1005,76	7,5	9,3	9,2	1	1	1	1	1	1	1	1	1	0	1	-42,706131	274,778837	280,527234	0
14.01.2021	19:57:02	0	0	2,485498	4,4085	91,8756	0,908	76,956	3,5	1005,76	7,5	9,3	9,2	1	1	1	1	1	1	1	1	1	0	1	-42,35377	274,954298	281,705992	0
14.01.2021	19:57:03	0	0	2,824429	4,71675	93,7152	0,904	76,956	3,5	1005,64	7,4	9,3	9,2	1	1	1	1	1	1	1	1	1	0	1	-38,830162	274,909116	285,016649	0
14.01.2021	19:57:04	0	0	2,937407	4,60275	100,6956	0,909	76,948	3,5	1005,54	7,4	9,4	9,2	1	1	1	1	1	1	1	1	1	0	1	-44,397463	274,954298	279,662299	0
14.01.2021	19:57:05	0	0	2,711452	4,34625	91,2492	0,913	76,968	3,5	1005,78	7,4	9,4	9,2	1	1	1	1	1	1	1	1	1	0	1	-41,719521	274,870251	281,944194	0
14.01.2021	19:57:06	0	0	4,745041	4,0485	85,5324	0,911	76,971	3,5	1005,74	7,4	9,4	9,2	1	1	1	1	1	1	1	1	1	0	1	-43,622269	274,77111	279,574739	0
14.01.2021	19:57:07	0	0	4,40611	3,951	97,3152	0,908	76,953	3,5	1005,7	7,5	9,3	9,2	1	1	1	1	1	1	1	1	1	0	1	-39,675828	274,842316	283,856332	0
14.01.2021	19:57:08	0	0	2,598475	3,7905	87,7356	0,913	76,961	3,5	1005,82	7,4	9,4	9,2	1	1	1	1	1	1	1	1	1	0	1	-38,830162	274,952738	285,222247	0
14.01.2021	19:57:09	0	0	2,711452	3,5415	86,274	0,912	76,953	3,5	1005,62	7,4	9,4	9,2	1	1	1	1	1	1	1	1	1	0	1	-39,887245	274,859383	283,725283	0
14.01.2021	19:57:10	0	0	4,180155	3,40575	82,5984	0,918	76,949	3,5	1005,66	7,4	9,4	9,2	1	1	1	1	1	1	1	1	1	0	1	-37,914024	274,766475	285,261178	0
14.01.2021	19:57:11	0	0	4,180155	3,17775	82,584	0,908	76,928	3,5	1005,46	7,4	9,4	9,2	1	1	1	1	1	1	1	1	1	0	1	-43,622269	274,798942	279,705707	0
14.01.2021	19:57:12	0	0	2,937407	3,18825	92,9628	0,914	76,937	3,5	1005,56	7,4	9,4	9,2	1	1	1	1	1	1	1	1	1	0	1	-42,917548	274,941823	281,083409	0
14.01.2021	19:57:13	0	0	3,050384	3,17475	88,1244	0,915	76,915	3,5	1005,78	7,4	9,4	9,2	1	1	1	1	1	1	1	1	1	0	1	-43,692741	274,9465	280,330262	0
14.01.2021	19:57:14	0	0	4,632064	3,16275	91,1628	0,912	76,911	3,5	1005,76	7,4	9,4	9,2	1	1	1	1	1	1	1	1	1	0	1	-38,971106	274,901337	284,83905	0
14.01.2021	19:57:15	0	0	3,841224	3,59625	79,038	0,907	76,902	3,5	1005,48	7,4	9,4	9,2	1	1	1	1	1	1	1	1	1	0	1	-41,649049	274,800489	281,686211	0
14.01.2021	19:57:16	0	0	4,632064	4,01775	72,288	0,912	76,894	3,5	1005,7	7,4	9,4	9,2	1	1	1	1	1	1	1	1	1	0	1	-37,13883	274,904448	286,685986	0
14.01.2021	19:57:17	0	0	4,067178	4,0575	89,7264	0,908	76,899	3,5	1005,76	7,4	9,3	9,2	1	1	1	1	1	1	1	1	1	0	1	-40,028189	274,921569	283,877307	0
14.01.2021	19:57:18	0	0	3,276338	3,96675	95,1228	0,912	76,871	3,5	1005,7	7,4	9,4	9,2	1	1	1	1	1	1	1	1	1	0	1	-41,649049	274,952738	282,40336	0
14.01.2021	19:57:19	0	0	3,389315	3,6945	99,9288	0,907	76,869	3,5	1005,54	7,5	9,4	9,2	1	1	1	1	1	1	1	1	1	0	1	-44,186047	274,920012	279,712111	0
14.01.2021	19:57:20	0	0	4,632064	3,6	94,104	0,914	76,879	3,5	1005,76	7,4	9,4	9,2	1	1	1	1	1	1	1	1	1	0	1	-41,719521	274,915342	282,156627	0
14.01.2021	19:57:21	0	0	2,485498	3,35475	104,7744	0,914	76,867	3,5	1005,6	7,4	9,4	9,2	1	1	1	1	1	1	1	1	1	0	1	-37,279774	274,763386	285,880894	0
14.01.2021	19:57:22	0	0	4,519087	3,34275	98,4276	0,913	76,87	3,5	1005,76	7,5	9,3	9,2	1	1	1	1	1	1	1	1	1	0	1	-38,971106	274,828364	284,495363	0
14.01.2021	19:57:23	0	0	4,067178	3,495	96,1956	0,914	76,859	3,5	1005,7	7,4	9,4	9,2	1	1	1	1	1	1	1	1	1	0	1	-42,565187	274,781929	280,682726	0
14.01.2021	19:57:24	0	0	2,824429	3,43725	95,8284	0,917	76,852	3,5	1005,6	7,4	9,4	9,2	1	1	1	1	1	1	1	1	1	0	1	-40,310078	274,809776	283,068893	0
14.01.2021	19:57:25	0	0	4,293133	3,4035	92,9628	0,91	76,85	3,5	1005,64	7,4	9,3	9,2	1	1	1	1	1	1	1	1	1	0	1	-38,12544	274,940265	285,868169	0
14.01.2021	19:57:26	0	0	3,728247	3,243	93,3084	0,909	76,841	3,5	1005,64	7,4	9,4	9,2	1	1	1	1	1	1	1	1	1	0	1	-36,645525	274,879571	287,062092	0
14.01.2021	19:57:27	0	0	4,180155	2,964	86,0076	0,917	76,855	3,5	1005,7	7,4	9,4	9,2	1	1	1	1	1	1	1	1	1	0	1	-47,921071	274,943382	276,087234	0
14.01.2021	19:57:28	0	0	2,259544	2,988	79,7724	0,913	76,847	3,5	1005,7	7,5	9,3	9,2	1	1	1	1	1	1	1	1	1	0	1	-41,437632	274,881125	282,277304	0
14.01.2021	19:57:29	0	0	2,485498	3,246	78,678	0,913	76,853	3,5	1005,74	7,4	9,4	9,2	1	1	1	1	1	1	1	1	1	0	1	-39,534884	274,943382	284,473421	0
14.01.2021	19:57:30	0	0	4,858019	3,42075	86,6448	0,916	76,839	3,5	1005,8	7,5	9,4	9,2	1	1	1	1	1	1	1	1	1	0	1	-41,578576	274,913785	282,290236	0
14.01.2021	19:57:31	0	0	4,40611	3,38625	89,7084	0,917	76,85	3,5	1005,76	7,4	9,4	9,2	1	1	1	1	1	1	1	1	1	0	1	-40,873855	274,895116	282,90699	0
14.01.2021	19:57:32	0	0	2,711452	3,3225	87,7356	0,912	76,826	3,5	1005,66	7,4	9,4	9,2	1	1	1	1	1	1	1	1	1	0	1	-39,675828	274,780383	283,564811	0
14.01.2021	19:57:33	0	0	3,163361	3,36525	92,268	0,912	76,818	3,5	1005,66	7,4	9,4	9,2	1	1	1	1	1	1	1	1	1	0	1	-38,689218	274,77111	284,50779	0
14.01.2021	19:57:34	0	0	3,502292	3,678	90,3924	0,904	76,83	3,5	1005,76	7,4	9,4	9,2	1	1	1	1	1	1	1	1	1	0	1	-42,635659	274,906004	281,196488	0
14.01.2021	19:57:35	0	0	3,954201	4,13925	84,0492	0,91	76,832	3,5	1005,78	7,4	9,4	9,2	1	1	1	1	1	1	1	1	1	0	1	-43,97463	274,763386	279,186038	0
14.01.2021	19:57:36	0	0	4,40611	4,4265	84,0384	0,912	76,829	3,5	1005,68	7,4	9,4	9,2	1	1	1	1	1	1	1	1	1	0	1	-42,706131	274,944941	281,309523	0
14.01.2021	19:57:37	0	0	4,180155	4,44	85,914	0,91	76,815	3,5	1005,66	7,4	9,4	9,2	1	1	1	1	1	1	1	1	1	0	1	-40,098661	274,819068	283,324046	0
14.01.2021	19:57:38	0	0	4,293158	4,04775	88,578	0,914	76,813	3,5	1005,6	7,4	9,4	9,1	1	1	1	1	1	1	1	1	1	0	1	-41,930937	274,954298	282,128825	0
14.01.2021	19:57:39	0	0	4,632064	3,71475	91,152	0,912	76,813	3,5	1005,84	7,4	9,4	9,2	1	1	1	1	1	1	1	1	1	0	1	-40,803383	274,902892	283,014103	0
14.01.2021	19:57:40	0	0	2,372521	3,67875	81,2088	0,907	76,805	3,5	1005,7	7,5	9,4	9,2	1	1	1	1	1	1	1	1	1	0	1	-38,407329	274,937147	285,571587	0
14.01.2021	19:57:41	0	0	3,728247	3,71925	91,8828	0,903	76,799	3,5	1005,66	7,4	9,4	9,2	1	1	1	1	1	1	1	1	1	0	1	-36,645525	274,86404	286,988935	0
14.01.2021	19:57:42	0	0	2,485498	3,792	84,7944	0,915	76,815	3,5	1005,7	7,4	9,4	9,2	1	1	1	1	1	1	1	1	1	0	1	-39,534884	274,77111	283,662124	0
14.01.2021	19:57:43	0	0	4,858019	3,90075	90,4032	0,912	76,803	3,5	1005,74	7,4	9,4	9,2	1	1	1	1	1	1	1	1	1	0	1	-43,481325	274,825265	279,970554	0
14.01.2021	19:57:44	0	0	2,937407	3,78225	83,3544	0,914	76,832	3,5	1005,72	7,4	9,4	9,2	1	1	1	1	1	1	1	1	1	0	1	-43,622269	274,754121	279,494815	0
14.01.2021	19:57:45	0	0	4,858019	3,6165	92,916	0,915	76,821	3,5	1005,72	7,4	9,4	9,2	1	1	1	1	1	1	1	1	1	0	1	-43,481325	274,819068	279,941382	0
14.01.2021	19:57:46	0	0	3,163361	3,468	93,3336	0,913	76,838	3,5	1005,74	7,4	9,4	9,2	1	1	1	1	1	1	1	1	1	0	1	-40,944327	274,938706	283,041936	0
14.01.2021	19:57:47	0	0	4,970996	3,36375	91,5228	0,915	76,832	3,5	1005,66	7,4	9,4	9,2	1	1	1	1	1	1	1	1	1	0	1	-39,252995	274,820617	284,177004	0
14.01.2021	19:57:48	0	0	4,745041	3,78525	90,1116	0,911	76,846	3,5	1005,8	7,4	9,4	9,2	1	1	1	1	1	1	1	1	1	0	1	-41,085271	274,927799	282,849584	0
14.01.2021	19:57:49	0	0	3,841224	4,2135	96,6996	0,913	76,852	3,5	1005,7	7,4	9,4	9,2	1	1	1	1	1	1	1	1	1	0	1	-39,252995	274,803585	284,096832	0
14.01.2021	19:57:50	0	0	3,389315	4,43775	101,0952	0,909	76,871	3,5	1005,8	7,4	9,4	9,2	1	1	1	1	1	1	1	1	1	0	1	-41,155743	274,90756	282,683735	0
14.01.2021	19:57:51	0	0	3,050384	4,22475	105,8472	0,91	76,883	3,5	1005,7	7,4	9,4	9,2	1	1	1	1	1	1	1	1	1	0	1	-36,081748	274,792754	287,217105	0
14.01.2021	19:57:52	0	0	2,937407	3,99675	102,186	0,91	76,912	3,5	1005,7	7,4	9,4	9,2	1	1	1	1	1	1	1	1	1	0	1	-45,031712	274,938706	278,95455	0
14.01.2021	19:57:53	0	0	2,485498	3,8085	98,0712	0,907	76,918	3,5	1005,78	7,4	9,4	9,2	1	1	1	1	1	1	1	1	1	0	1	-41,789993	274,812873	281,603554	0
14.01.2021	19:57:54	0	0	2,598475	3,8265	88,9596	0,907	76,93	3,5	1005,46	7,4	9,4	9,2	1	1	1	1	1	1	1	1	1	0	1	-41,437632	274,757209	281,693977	0
14.01.2021	19:57:55	0	0	2,711452	3,9435	92,5992	0,909	76,951	3,5	1005,68	7,4	9,4	9,2	1	1	1	1	1	1	1	1	1	0	1	-43,269908	274,786567	279,999832	0
14.01.2021	19:57:56	0	0	3,841224	3,94275	104,436	0,9	76,952	3,5	1005,66	7,4	9,4	9,2	1	1	1	1	1	1	1	1	1	0	1	-37,068358	274,932473	286,888525	0
14.01.2021	19:57:57	0	0	4,632064	3,891	96,2244	0,901	76,953	3,5	1005,7	7,4	9,4	9,2	1	1	1	1	1	1	1	1	1	0	1	-39,182523	274,888896	284,569022	0
14.01.2021	19:57:58	0	0	4,293133	3,86925	97,3296	0,902	76,952	3,5	1005,58	7,5	9,4	9,2	1	1	1	1	1	1	1	1	1	0	1	-42,283298	274,780383	280,957341	0
14.01.2021	19:57:59	0	0	2,824429	3,84525	97,686	0,906	76,941	3,5	1005,64	7,4	9,4	9,2	1	1	1	1	1	1	1	1	1	0	1	-41,719521	274,890451	282,039348	0
14.01.2021	19:58:00	0	0	4,858019	3,85725	94,356	0,903	76,955	3,5	1005,7	7,5	9,4	9,2	1	1	1	1	1	1	1	1	1	0	1	-43,904158	274,867145	279,744928	0
14.01.2021	19:58:01	0	0	4,858019	3,85725	94,356	0,903	76,955	3,5	1005,7	7,5	9,4	9,2	1	1	1	1	1	1	1	1	1	0	1	-43,904158	274,867145	279,744928	0
14.01.2021	19:58:02	0	0	4,40611	3,975	98,046	0,908	76,965	3,5	1005,7	7,4	9,4	9,2	1	1	1	1	1	1	1	1	1	0	1	-45,665962	274,769565	277,523777	0
14.01.2021	19:58:03	0	0	3,841224	4,155	88,092	0,902	76,947	3,5	1005,66	7,4	9,4	9,2	1	1	1	1	1	1	1	1	1	0	1	-41,014799	274,890451	282,74407	0
14.01.2021	19:58:04	0	0	3,050384	3,987	93,3336	0,906	76,954	3,5	1005,62	7,5	9,4	9,2	1	1	1	1	1	1	1	1	1	0	1	-37,561663	274,885788	286,175236	0
14.01.2021	19:58:05	0	0	3,502292	3,94575	95,526	0,909	76,965	3,5	1005,76	7,4	9,4	9,2	1	1	1	1	1	1	1	1	1	0	1	-42,98802	274,94806	281,042334	0
14.01.2021	19:58:06	0	0	3,728247	3,9615	88,9452	0,907	76,945	3,5	1005,62	7,4	9,4	9,2	1	1	1	1	1	1	1	1	1	0	1	-42,98802	274,868698	280,66838	0
14.01.2021	19:58:07	0	0	2,598475	4,359	92,34	0,9	76,934	3,5	1005,72	7,4	9,4	9,2	1	1	1	1	1	1	1	1	1	0	1	-44,467935	274,760297	278,678202	0
14.01.2021	19:58:08	0	0	2,824429	4,75875	101,8116	0,905	76,94	3,5	1005,64	7,4	9,4	9,2	1	1	1	1	1	1	1	1	1	0	1	-44,749824	274,912229	279,111654	0
14.01.2021	19:58:09	0	0	2,937407	5,08575	107,0748	0,907	76,909	3,5	1005,54	7,4	9,4	9,2	1	1	1	1	1	1	1	1	1	0	1	-44,186047	274,920012	279,712111	0
14.01.2021	19:58:10	0	0	2,485498	5,15775	109,6128	0,908	76,926	3,5	1005,72	7,4	9,4	9,2	1	1	1	1	1	1	1	1	1	0	1	-41,789993	274,764931	281,377942	0
14.01.2021	19:58:11	0	0	3,389315	5,3055	100,7496	0,906	76,911	3,5	1005,54	7,4	9,4	9,2	1	1	1	1	1	1	1	1	1	0	1	-42,424242	274,778837	280,809123	0
14.01.2021	19:58:12	0	0	2,598475	4,824	87,3396	0,908	76,912	3,5	1005,8	7,5	9,4	9,2	1	1	1	1	1	1	1	1	1	0	1	-42,847075	274,876464	280,845905	0
14.01.2021	19:58:13	0	0	2,598475	4,098	81,9324	0,903	76,896	3,5	1005,78	7,4	9,4	9,2	1	1	1	1	1	1	1	1	1	0	1	-42,917548	274,833013	280,570812	0
14.01.2021	19:58:14	0	0	3,502292	3,8655	80,5284	0,905	76,902	3,5	1005,76	7,4	9,4	9,2	1	1	1	1	1	1	1	1	1	0	1	-43,199436	274,752578	279,910386	0
14.01.2021	19:58:15	0	0	3,276338	4,23075	83,34	0,91	76,909	3,5	1005,78	7,5	9,4	9,2	1	1	1	1	1	1	1	1	1	0	1	-37,984496	274,785021	285,277968	0
14.01.2021	19:58:16	0	0	2,824429	4,44675	78,2496	0,906	76,899	3,5	1005,52	7,5	9,4	9,2	1	1	1	1	1	1	1	1	1	0	1	-41,296688	274,896671	282,491484	0
14.01.2021	19:58:17	0	0	3,728247	4,61475	82,9512	0,902	76,893	3,5	1005,56	7,5	9,4	9,2	1	1	1	1	1	1	1	1	1	0	1	-37,702607	274,761842	285,450795	0
14.01.2021	19:58:18	0	0	2,598475	4,623	92,9628	0,906	76,901	3,5	1005,7	7,4	9,4	9,2	1	1	1	1	1	1	1	1	1	0	1	-40,944327	274,800489	282,390932	0
14.01.2021	19:58:19	0	0	4,519087	4,611	91,5192	0,906	76,907	3,5	1005,82	7,4	9,4	9,2	1	1	1	1	1	1	1	1	1	0	1	-40,591966	274,918455	283,298854	0
14.01.2021	19:58:20	0	0	4,745041	4,6635	86,9616	0,907	76,907	3,5	1005,84	7,5	9,4	9,2	1	1	1	1	1	1	1	1	1	0	1	-43,692741	274,772655	279,511537	0
14.01.2021	19:58:21	0	0	4,067178	4,407	83,736	0,906	76,905	3,5	1005,58	7,4	9,4	9,2	1	1	1	1	1	1	1	1	1	0	1	-41,578576	274,740232	281,473178	0
14.01.2021	19:58:22	0	0	2,485498	4,5225	88,956	0,896	76,9	3,5	1005,74	7,4	9,4	9,2	1	1	1	1	1	1	1	1	1	0	1	-38,618746	274,870251	285,044969	0
14.01.2021	19:58:23	0	0	2,824429	4,596	87,354	0,907	76,891	3,5	1005,74	7,4	9,4	9,2	1	1	1	1	1	1	1	1	1	0	1	-43,481325	274,921569	280,424171	0
14.01.2021	19:58:24	0	0	2,372521	4,611	88,5708	0,907	76,909	3,5	1005,6	7,4	9,4	9,2	1	1	1	1	1	1	1	1	1	0	1	-43,622269	274,805132	279,734843	0
14.01.2021	19:58:25	0	0	4,293133	4,23375	107,0172	0,897	76,915	3,5	1005,5	7,4	9,4	9,2	1	1	1	1	1	1	1	1	1	0	1	-40,239605	274,934031	283,724621	0
14.01.2021	19:58:26	0	0	3,728247	4,31175	101,8368	0,903	76,908	3,5	1005,7	7,4	9,4	9,2	1	1	1	1	1	1	1	1	1	0	1	-40,873855	274,837664	282,636402	0
14.01.2021	19:58:27	0	0	4,293133	4,659	97,7184	0,897	76,911	3,5	1005,72	7,4	9,4	9,2	1	1	1	1	1	1	1	1	1	0	1	-40,169133	274,755665	282,955213	0
14.01.2021	19:58:28	0	0	3,050384	5,1615	113,0328	0,903	76,91	3,5	1005,64	7,4	9,4	9,2	1	1	1	1	1	1	1	1	1	0	1	-41,014799	274,775746	282,204021	0
14.01.2021	19:58:29	0	0	2,937407	5,64975	98,8632	0,908	76,914	3,5	1005,66	7,5	9,4	9,2	1	1	1	1	1	1	1	1	1	0	1	-41,437632	274,862487	282,189516	0
14.01.2021	19:58:30	0	0	2,711452	5,892	101,1168	0,897	76,912	3,5	1005,64	7,5	9,4	9,2	1	1	1	1	1	1	1	1	1	0	1	-41,649049	274,741775	281,409962	0
14.01.2021	19:58:31	0	0	4,293133	6,135	98,4672	0,904	76,911	3,5	1005,76	7,4	9,4	9,2	1	1	1	1	1	1	1	1	1	0	1	-38,336857	274,772655	284,867421	0
14.01.2021	19:58:32	0	0	3,050384	6,09075	97,3332	0,902	76,92	3,5	1005,78	7,5	9,4	9,2	1	1	1	1	1	1	1	1	1	0	1	-39,887245	274,924684	284,03293	0
14.01.2021	19:58:33	0	0	3,728247	6,13125	87,3468	0,904	76,919	3,5	1005,62	7,4	9,4	9,2	1	1	1	1	1	1	1	1	1	0	1	-40,028189	274,780383	283,21245	0
14.01.2021	19:58:34	0	0	3,61527	6,00825	82,368	0,903	76,934	3,5	1005,58	7,5	9,4	9,2	1	1	1	1	1	1	1	1	1	0	1	-39,393939	274,772655	283,810339	0
14.01.2021	19:58:35	0	0	3,728247	5,77125	79,02	0,9	76,939	3,5	1005,6	7,5	9,4	9,2	1	1	1	1	1	1	1	1	1	0	1	-39,041579	274,913785	284,827234	0
14.01.2021	19:58:36	0	0	2,598475	5,7645	85,5216	0,905	76,946	3,5	1005,74	7,5	9,4	9,2	1	1	1	1	1	1	1	1	1	0	1	-38,548273	274,927799	285,386582	0
14.01.2021	19:58:37	0	0	4,40611	5,4585	84,4344	0,904	76,966	3,5	1005,76	7,4	9,3	9,2	1	1	1	1	1	1	1	1	1	0	1	-40,662438	274,913785	283,206374	0
14.01.2021	19:58:38	0	0	3,276338	5,01	79,38	0,907	76,95	3,5	1005,84	7,5	9,4	9,2	1	1	1	1	1	1	1	1	1	0	1	-39,182523	274,878018	284,517775	0
14.01.2021	19:58:39	0	0	3,389315	4,70925	81,2088	0,903	76,937	3,5	1005,5	7,5	9,4	9,2	1	1	1	1	1	1	1	1	1	0	1	-41,719521	274,921569	282,185975	0
14.01.2021	19:58:40	0	0	2,598475	4,806	74,1564	0,899	76,945	3,5	1005,78	7,4	9,4	9,2	1	1	1	1	1	1	1	1	1	0	1	-39,182523	274,798942	284,145454	0
14.01.2021	19:58:41	0	0	4,40611	4,6785	73,0512	0,903	76,951	3,5	1005,72	7,4	9,4	9,2	1	1	1	1	1	1	1	1	1	0	1	-35,306554	274,874911	288,379109	0
14.01.2021	19:58:42	0	0	3,502292	4,57275	88,1064	0,901	76,926	3,5	1005,72	7,4	9,4	9,2	1	1	1	1	1	1	1	1	1	0	1	-39,816772	274,887342	283,92745	0
14.01.2021	19:58:43	0	0	3,954201	4,57125	86,238	0,9	76,942	3,5	1005,72	7,4	9,4	9,2	1	1	1	1	1	1	1	1	1	0	1	-41,155743	274,757209	281,975866	0
14.01.2021	19:58:44	0	0	2,598475	4,3695	84,0348	0,89	76,925	3,5	1005,6	7,5	9,4	9,2	1	1	1	1	1	1	1	1	1	0	1	-37,984496	274,859383	285,628031	0
14.01.2021	19:58:45	0	0	2,711452	3,858	69,1668	0,903	76,94	3,5	1005,82	7,5	9,4	9,2	1	1	1	1	1	1	1	1	1	0	1	-42,142354	274,915342	281,733794	0
14.01.2021	19:58:46	0	0	4,970996	3,6255	77,2128	0,895	76,941	3,5	1005,74	7,5	9,4	9,2	1	1	1	1	1	1	1	1	1	0	1	-39,252995	274,871804	284,418035	0
14.01.2021	19:58:47	0	0	4,519087	3,33675	73,782	0,895	76,957	3,5	1005,84	7,5	9,4	9,2	1	1	1	1	1	1	1	1	1	0	1	-42,98802	274,904448	280,836796	0
14.01.2021	19:58:48	0	0	2,824429	3,12825	55,9116	0,895	76,974	3,5	1005,66	7,5	9,4	9,2	1	1	1	1	1	1	1	1	1	0	1	-39,182523	274,785021	284,079941	0
14.01.2021	19:58:49	0	0	2,259544	3,186	68,7744	0,899	76,986	3,5	1005,72	7,4	9,4	9,2	1	1	1	1	1	1	1	1	1	0	1	-40,169133	274,913785	283,699679	0
14.01.2021	19:58:50	0	0	4,519087	3,70275	70,5924	0,896	76,985	3,5	1005,8	7,5	9,3	9,2	1	1	1	1	1	1	1	1	1	0	1	-39,816772	274,744861	283,256752	0
14.01.2021	19:58:51	0	0	2,033589	4,0305	92,628	0,895	76,989	3,5	1005,76	7,4	9,4	9,2	1	1	1	1	1	1	1	1	1	0	1	-40,38055	274,814422	283,020286	0
14.01.2021	19:58:52	0	0	4,293133	4,017	82,962	0,897	76,997	3,5	1005,6	7,4	9,3	9,2	1	1	1	1	1	1	1	1	1	0	1	-41,437632	274,923127	282,475203	0
14.01.2021	19:58:53	0	0	4,858019	4,2165	67,6728	0,894	76,993	3,5	1005,72	7,5	9,4	9,2	1	1	1	1	1	1	1	1	1	0	1	-42,494715	274,885788	281,242185	0
14.01.2021	19:58:54	0	0	4,293133	3,984	70,5924	0,893	77,012	3,5	1005,78	7,5	9,4	9,2	1	1	1	1	1	1	1	1	1	0	1	-40,803383	274,899781	282,999444	0
14.01.2021	19:58:55	0	0	3,954201	3,7515	76,3668	0,894	76,991	3,5	1005,64	7,5	9,4	9,2	1	1	1	1	1	1	1	1	1	0	1	-42,917548	274,924684	281,002627	0
14.01.2021	19:58:56	0	0	2,937407	3,5145	91,5156	0,893	76,999	3,5	1005,46	7,5	9,4	9,2	1	1	1	1	1	1	1	1	1	0	1	-40,310078	274,802037	283,032465	0
14.01.2021	19:58:57	0	0	4,745041	3,372	96,984	0,888	76,993	3,5	1005,7	7,5	9,3	9,2	1	1	1	1	1	1	1	1	1	0	1	-39,816772	274,868698	283,839627	0
14.01.2021	19:58:58	0	0	2,711452	3,61425	91,5048	0,894	76,979	3,5	1005,64	7,4	9,3	9,2	1	1	1	1	1	1	1	1	1	0	1	-42,001409	274,926242	281,926105	0
14.01.2021	19:58:59	0	0	4,180155	3,657	97,3152	0,897	77,002	3,5	1005,7	7,5	9,4	9,2	1	1	1	1	1	1	1	1	1	0	1	-42,776603	274,775746	280,442217	0
14.01.2021	19:59:00	0	0	4,970996	4,01475	77,562	0,892	76,978	3,5	1005,78	7,4	9,4	9,2	1	1	1	1	1	1	1	1	1	0	1	-42,424242	274,802037	280,9183	0
14.01.2021	19:59:01	0	0	4,970996	4,01475	77,562	0,892	76,978	3,5	1005,78	7,4	9,4	9,2	1	1	1	1	1	1	1	1	1	0	1	-42,424242	274,802037	280,9183	0
14.01.2021	19:59:02	0	0	3,61527	3,9465	78,66	0,894	76,988	3,5	1005,66	7,5	9,4	9,2	1	1	1	1	1	1	1	1	1	0	1	-40,591966	274,772655	282,612312	0
14.01.2021	19:59:03	0	0	4,293133	3,87225	82,6164	0,892	77,001	3,5	1005,66	7,4	9,4	9,2	1	1	1	1	1	1	1	1	1	0	1	-39,957717	274,820617	283,472282	0
14.01.2021	19:59:04	0	0	3,163361	3,77925	85,1652	0,891	77,003	3,5	1005,6	7,4	9,4	9,2	1	1	1	1	1	1	1	1	1	0	1	-37,984496	274,927799	285,950359	0
14.01.2021	19:59:05	0	0	3,728247	4,299	81,9684	0,888	77,005	3,5	1005,48	7,5	9,4	9,2	1	1	1	1	1	1	1	1	1	0	1	-46,934461	274,871804	276,736569	0
14.01.2021	19:59:06	0	0	2,824429	4,617	87,3792	0,884	76,998	3,5	1005,6	7,4	9,4	9,2	1	1	1	1	1	1	1	1	1	0	1	-44,326991	274,899781	279,475836	0
14.01.2021	19:59:07	0	0	2,824429	4,6545	104,0256	0,89	77,004	3,5	1005,76	7,4	9,4	9,2	1	1	1	1	1	1	1	1	1	0	1	-43,410853	274,923127	280,501982	0
14.01.2021	19:59:08	0	0	4,632064	4,4745	91,4976	0,891	77,001	3,5	1005,66	7,5	9,4	9,2	1	1	1	1	1	1	1	1	1	0	1	-41,296688	274,802037	282,045855	0
14.01.2021	19:59:09	0	0	3,276338	4,20075	89,0532	0,888	76,993	3,5	1005,76	7,5	9,4	9,2	1	1	1	1	1	1	1	1	1	0	1	-40,028189	274,734063	282,994549	0
14.01.2021	19:59:10	0	0	2,485498	4,122	83,7108	0,886	77,002	3,5	1005,72	7,4	9,4	9,2	1	1	1	1	1	1	1	1	1	0	1	-41,649049	274,842316	281,883112	0
14.01.2021	19:59:11	0	0	2,711452	4,22175	84,7692	0,891	77,013	3,5	1005,74	7,5	9,4	9,2	1	1	1	1	1	1	1	1	1	0	1	-41,789993	274,740232	281,261761	0
14.01.2021	19:59:12	0	0	3,389315	4,401	84,762	0,894	76,998	3,5	1005,56	7,4	9,4	9,2	1	1	1	1	1	1	1	1	1	0	1	-37,561663	274,850072	286,007017	0
14.01.2021	19:59:13	0	0	3,389315	4,137	86,2416	0,89	77,01	3,5	1005,76	7,5	9,4	9,2	1	1	1	1	1	1	1	1	1	0	1	-41,36716	274,761842	281,786242	0
14.01.2021	19:59:14	0	0	2,824429	4,1265	92,2608	0,886	76,985	3,5	1005,7	7,5	9,3	9,2	1	1	1	1	1	1	1	1	1	0	1	-40,169133	274,878018	283,531165	0
14.01.2021	19:59:15	0	0	4,519087	4,48875	92,6388	0,891	77,007	3,5	1005,74	7,5	9,4	9,2	1	1	1	1	1	1	1	1	1	0	1	-40,591966	274,757209	282,539643	0
14.01.2021	19:59:16	0	0	3,050384	4,49625	86,2848	0,89	77,008	3,5	1005,74	7,5	9,4	9,2	1	1	1	1	1	1	1	1	1	0	1	-40,028189	274,828364	283,43828	0
14.01.2021	19:59:17	0	0	3,163361	4,395	88,0992	0,888	77,012	3,5	1005,72	7,4	9,4	9,2	1	1	1	1	1	1	1	1	1	0	1	-42,917548	274,751034	280,185014	0
14.01.2021	19:59:18	0	0	4,180155	4,509	94,1004	0,885	77,006	3,5	1005,72	7,5	9,4	9,2	1	1	1	1	1	1	1	1	1	0	1	-42,001409	274,780383	281,239229	0
14.01.2021	19:59:19	0	0	4,519087	4,2825	83,7324	0,883	77,033	3,5	1005,66	7,5	9,4	9,2	1	1	1	1	1	1	1	1	1	0	1	-41,789993	274,741775	281,269017	0
14.01.2021	19:59:20	0	0	3,502292	4,1745	85,9176	0,892	77,042	3,5	1005,76	7,4	9,4	9,2	1	1	1	1	1	1	1	1	1	0	1	-37,279774	274,780383	285,960864	0
14.01.2021	19:59:21	0	0	4,745041	4,50375	81,9576	0,884	77,046	3,5	1005,76	7,4	9,4	9,2	1	1	1	1	1	1	1	1	1	0	1	-38,054968	274,930915	285,894571	0
14.01.2021	19:59:22	0	0	2,711452	4,7325	85,4928	0,891	77,048	3,5	1005,68	7,4	9,4	9,2	1	1	1	1	1	1	1	1	1	0	1	-40,944327	274,892006	282,821867	0
14.01.2021	19:59:23	0	0	3,61527	4,956	81,594	0,888	77,042	3,5	1005,66	7,4	9,4	9,2	1	1	1	1	1	1	1	1	1	0	1	-40,38055	274,805132	282,976562	0
14.01.2021	19:59:24	0	0	4,745041	5,09925	85,6368	0,879	77,045	3,5	1005,62	7,4	9,4	9,2	1	1	1	1	1	1	1	1	1	0	1	-44,045102	274,921569	279,860394	0
14.01.2021	19:59:25	0	0	2,711452	4,94775	85,1832	0,88	77,032	3,5	1005,68	7,5	9,4	9,2	1	1	1	1	1	1	1	1	1	0	1	-41,508104	274,792754	281,790748	0
14.01.2021	19:59:26	0	0	2,711452	5,1195	91,17	0,888	77,037	3,5	1005,72	7,4	9,4	9,2	1	1	1	1	1	1	1	1	1	0	1	-44,538407	274,854727	279,052193	0
14.01.2021	19:59:27	0	0	4,519087	5,24325	98,1684	0,883	77,049	3,5	1005,72	7,5	9,4	9,2	1	1	1	1	1	1	1	1	1	0	1	-39,041579	274,930915	284,907961	0
14.01.2021	19:59:28	0	0	4,519087	5,151	81,9612	0,882	77,027	3,5	1005,6	7,4	9,4	9,2	1	1	1	1	1	1	1	1	1	0	1	-42,35377	274,805132	281,003341	0
14.01.2021	19:59:29	0	0	2,259544	5,1795	88,9452	0,881	77,05	3,5	1005,74	7,4	9,4	9,2	1	1	1	1	1	1	1	1	1	0	1	-40,873855	274,916899	283,009629	0
14.01.2021	19:59:30	0	0	2,711452	5,07975	95,5224	0,884	77,059	3,5	1005,66	7,5	9,4	9,2	1	1	1	1	1	1	1	1	1	0	1	-40,662438	274,826814	282,796735	0
14.01.2021	19:59:31	0	0	3,050384	5,064	84,4956	0,882	77,068	3,5	1005,8	7,5	9,4	9,2	1	1	1	1	1	1	1	1	1	0	1	-41,155743	274,915342	282,720404	0
14.01.2021	19:59:32	0	0	4,858019	5,049	105,48	0,884	77,073	3,5	1005,82	7,5	9,4	9,2	1	1	1	1	1	1	1	1	1	0	1	-38,689218	274,831463	284,791845	0
14.01.2021	19:59:33	0	0	4,40611	5,20875	95,5188	0,878	77,072	3,5	1005,72	7,4	9,4	9,2	1	1	1	1	1	1	1	1	1	0	1	-40,169133	274,924684	283,751041	0
14.01.2021	19:59:34	0	0	4,180155	5,22	86,9508	0,884	77,078	3,5	1005,64	7,4	9,3	9,2	1	1	1	1	1	1	1	1	1	0	1	-39,816772	274,825265	283,635107	0
14.01.2021	19:59:35	0	0	4,40611	5,217	87,7284	0,878	77,085	3,5	1005,6	7,4	9,4	9,2	1	1	1	1	1	1	1	1	1	0	1	-44,890768	274,904448	278,934048	0
14.01.2021	19:59:36	0	0	5,535882	5,38275	92,2572	0,88	77,104	3,5	1005,5	7,5	9,4	9,2	1	1	1	1	1	1	1	1	1	0	1	-42,001409	274,874911	281,684253	0
14.01.2021	19:59:37	0	0	2,598475	5,29725	89,7192	0,881	77,113	3,5	1005,86	7,4	9,4	9,2	1	1	1	1	1	1	1	1	1	0	1	-42,283298	274,802037	281,059245	0
14.01.2021	19:59:38	0	0	4,519087	5,11725	82,6056	0,887	77,109	3,5	1005,72	7,5	9,4	9,2	1	1	1	1	1	1	1	1	1	0	1	-44,679352	274,744861	278,394173	0
14.01.2021	19:59:39	0	0	2,598491	5,145	83,43	0,877	77,122	3,5	1005,62	7,4	9,4	9,1	1	1	1	1	1	1	1	1	1	0	1	-39,112051	274,778837	284,121314	0
14.01.2021	19:59:40	0	0	5,309927	5,18775	77,5872	0,882	77,105	3,5	1005,56	7,4	9,3	9,2	1	1	1	1	1	1	1	1	1	0	1	-44,326991	274,729437	278,673991	0
14.01.2021	19:59:41	0	0	3,276338	5,27925	84,798	0,875	77,132	3,5	1005,76	7,4	9,4	9,2	1	1	1	1	1	1	1	1	1	0	1	-41,860465	274,854727	281,730135	0
14.01.2021	19:59:42	0	0	3,728247	5,145	84,0456	0,875	77,142	3,5	1005,6	7,5	9,4	9,2	1	1	1	1	1	1	1	1	1	0	1	-42,424242	274,910672	281,429902	0
14.01.2021	19:59:43	0	0	3,728247	5,2455	72,6804	0,876	77,157	3,5	1005,88	7,4	9,4	9,2	1	1	1	1	1	1	1	1	1	0	1	-42,35377	274,887342	281,390452	0
14.01.2021	19:59:44	0	0	4,293133	5,382	74,5416	0,874	77,163	3,5	1005,76	7,4	9,4	9,2	1	1	1	1	1	1	1	1	1	0	1	-38,971106	274,895116	284,809738	0
14.01.2021	19:59:45	0	0	3,954201	5,5845	81,6588	0,877	77,177	3,5	1005,78	7,4	9,4	9,2	1	1	1	1	1	1	1	1	1	0	1	-42,847075	274,73869	280,197424	0
14.01.2021	19:59:46	0	0	3,954201	5,38725	85,5396	0,882	77,182	3,5	1005,56	7,5	9,4	9,2	1	1	1	1	1	1	1	1	1	0	1	-40,521494	274,865592	283,120279	0
14.01.2021	19:59:47	0	0	4,40611	5,41725	78,642	0,88	77,167	3,5	1005,8	7,5	9,4	9,2	1	1	1	1	1	1	1	1	1	0	1	-43,481325	274,800489	279,853934	0
14.01.2021	19:59:48	0	0	3,61527	5,355	77,2092	0,879	77,181	3,5	1005,96	7,5	9,4	9,2	1	1	1	1	1	1	1	1	1	0	1	-40,169133	274,920012	283,729025	0
14.01.2021	19:59:49	0	0	2,937407	5,3475	80,8812	0,878	77,194	3,5	1005,66	7,4	9,4	9,2	1	1	1	1	1	1	1	1	1	0	1	-38,971106	274,896671	284,817065	0
14.01.2021	19:59:50	0	0	3,954201	5,09025	89,982	0,88	77,202	3,5	1005,8	7,5	9,4	9,2	1	1	1	1	1	1	1	1	1	0	1	-46,652572	274,80668	276,711825	0
14.01.2021	19:59:51	0	0	2,711452	5,02425	90,0396	0,881	77,213	3,5	1005,74	7,5	9,4	9,2	1	1	1	1	1	1	1	1	1	0	1	-41,508104	274,929357	282,434093	0
14.01.2021	19:59:52	0	0	2,824429	4,92225	93,3156	0,876	77,221	3,5	1005,7	7,5	9,4	9,2	1	1	1	1	1	1	1	1	1	0	1	-42,071882	274,884233	281,657696	0
14.01.2021	19:59:53	0	0	4,067178	4,94475	82,944	0,88	77,234	3,5	1005,78	7,5	9,4	9,2	1	1	1	1	1	1	1	1	1	0	1	-44,326991	274,761842	278,826412	0
14.01.2021	19:59:54	0	0	2,598475	4,88625	76,8276	0,875	77,215	3,5	1005,66	7,4	9,4	9,2	1	1	1	1	1	1	1	1	1	0	1	-43,481325	274,732521	279,53416	0
14.01.2021	19:59:55	0	0	4,970996	4,74825	86,274	0,874	77,242	3,5	1005,74	7,4	9,4	9,2	1	1	1	1	1	1	1	1	1	0	1	-40,310078	274,862487	283,317071	0
14.01.2021	19:59:56	0	0	3,389315	4,54425	82,5912	0,878	77,239	3,5	1005,66	7,4	9,4	9,2	1	1	1	1	1	1	1	1	1	0	1	-41,789993	274,923127	282,122842	0
14.01.2021	19:59:57	0	0	4,745041	4,58025	76,4568	0,876	77,271	3,5	1005,72	7,4	9,4	9,2	1	1	1	1	1	1	1	1	1	0	1	-50,387597	274,878018	273,312701	0
14.01.2021	19:59:58	0	0	2,711452	4,47375	75,6144	0,877	77,28	3,5	1005,68	7,5	9,4	9,2	1	1	1	1	1	1	1	1	1	0	1	-43,763214	274,912229	280,098264	0
14.01.2021	19:59:59	0	0	4,519087	4,30725	79,4124	0,88	77,285	3,5	1005,76	7,5	9,4	9,2	1	1	1	1	1	1	1	1	1	0	1	-42,283298	274,904448	281,541518	0
14.01.2021	20:00:00	0	0	3,276338	4,23675	73,4148	0,876	77,302	3,5	1005,8	7,4	9,4	9,2	1	1	1	1	1	1	1	1	1	0	1	-45,665962	274,918455	278,224858	0
14.01.2021	20:00:01	0	0	3,276338	4,23675	73,4148	0,876	77,302	3,5	1005,8	7,4	9,4	9,2	1	1	1	1	1	1	1	1	1	0	1	-45,665962	274,918455	278,224858	0
14.01.2021	20:00:02	0	0	3,61527	4,38225	78,3	0,874	77,303	3,5	1005,72	7,4	9,3	9,2	1	1	1	1	1	1	1	1	1	0	1	-42,142354	274,809776	281,236617	0
14.01.2021	20:00:03	0	0	2,598475	4,3005	79,0272	0,881	77,302	3,5	1005,74	7,5	9,3	9,2	1	1	1	1	1	1	1	1	1	0	1	-43,551797	274,769565	279,637942	0
14.01.2021	20:00:04	0	0	2,711452	4,497	83,718	0,876	77,318	3,5	1005,74	7,5	9,4	9,2	1	1	1	1	1	1	1	1	1	0	1	-43,481325	274,923127	280,43151	0
14.01.2021	20:00:05	0	0	3,61527	4,5585	86,6484	0,877	77,312	3,5	1005,7	7,5	9,4	9,2	1	1	1	1	1	1	1	1	1	0	1	-46,441156	274,81597	276,96697	0
14.01.2021	20:00:06	0	0	3,728247	4,35525	83,3364	0,882	77,325	3,5	1005,68	7,5	9,4	9,2	1	1	1	1	1	1	1	1	1	0	1	-39,957717	274,921569	283,947779	0
14.01.2021	20:00:07	0	0	1,920612	4,188	77,202	0,876	77,33	3,5	1005,6	7,4	9,4	9,2	1	1	1	1	1	1	1	1	1	0	1	-44,397463	274,775746	278,821357	0
14.01.2021	20:00:08	0	0	4,40611	4,182	70,6032	0,877	77,361	3,5	1005,8	7,4	9,4	9,2	1	1	1	1	1	1	1	1	1	0	1	-42,635659	274,751034	280,466902	0
14.01.2021	20:00:09	0	0	2,033589	4,15875	80,8884	0,873	77,361	3,5	1005,66	7,5	9,4	9,2	1	1	1	1	1	1	1	1	1	0	1	-42,847075	274,918455	281,043745	0
14.01.2021	20:00:10	0	0	4,858019	3,92775	82,9692	0,874	77,357	3,5	1005,66	7,4	9,4	9,2	1	1	1	1	1	1	1	1	1	0	1	-43,128964	274,881125	280,585972	0
14.01.2021	20:00:11	0	0	4,745041	3,63075	79,0236	0,874	77,335	3,5	1005,58	7,5	9,4	9,2	1	1	1	1	1	1	1	1	1	0	1	-44,679352	274,86404	278,955109	0
14.01.2021	20:00:12	0	0	4,40611	3,50925	85,536	0,874	77,347	3,5	1005,82	7,4	9,4	9,2	1	1	1	1	1	1	1	1	1	0	1	-41,508104	274,760297	281,638033	0
14.01.2021	20:00:13	0	0	4,40611	3,57375	88,9452	0,864	77,349	3,5	1005,48	7,5	9,4	9,2	1	1	1	1	1	1	1	1	1	0	1	-41,437632	274,859383	282,174895	0
14.01.2021	20:00:14	0	0	4,745041	3,52725	84,438	0,881	77,372	3,5	1005,58	7,4	9,4	9,2	1	1	1	1	1	1	1	1	1	0	1	-40,098661	274,757209	283,032948	0
14.01.2021	20:00:15	0	0	4,519087	3,4215	82,9692	0,876	77,359	3,5	1005,7	7,4	9,4	9,2	1	1	1	1	1	1	1	1	1	0	1	-42,071882	274,746404	281,008901	0
14.01.2021	20:00:16	0	0	2,259544	3,219	95,4972	0,867	77,354	3,5	1005,52	7,4	9,4	9,2	1	1	1	1	1	1	1	1	1	0	1	-36,575053	274,794301	286,73108	0
14.01.2021	20:00:17	0	0	4,970996	3,1845	89,3628	0,878	77,362	3,5	1005,62	7,5	9,4	9,2	1	1	1	1	1	1	1	1	1	0	1	-38,971106	274,859383	284,641421	0
14.01.2021	20:00:18	0	0	2,598475	3,03	96,2424	0,875	77,352	3,5	1005,78	7,5	9,4	9,2	1	1	1	1	1	1	1	1	1	0	1	-44,115574	274,743318	278,950693	0
14.01.2021	20:00:19	0	0	4,858019	3,0405	93,3948	0,868	77,347	3,5	1005,6	7,4	9,4	9,2	1	1	1	1	1	1	1	1	1	0	1	-42,001409	274,913785	281,867403	0
14.01.2021	20:00:20	0	0	4,858019	3,02325	81,6012	0,877	77,338	3,5	1005,64	7,5	9,4	9,2	1	1	1	1	1	1	1	1	1	0	1	-43,340381	274,884233	280,389197	0
14.01.2021	20:00:21	0	0	3,389315	3,132	79,4088	0,873	77,357	3,5	1005,78	7,4	9,4	9,2	1	1	1	1	1	1	1	1	1	0	1	-44,820296	274,85783	278,784921	0
14.01.2021	20:00:22	0	0	3,728247	3,26775	79,74	0,868	77,348	3,5	1005,58	7,4	9,4	9,2	1	1	1	1	1	1	1	1	1	0	1	-46,159267	274,920012	277,738891	0
14.01.2021	20:00:23	0	0	2,937407	3,34725	63,252	0,872	77,322	3,5	1005,8	7,5	9,3	9,2	1	1	1	1	1	1	1	1	1	0	1	-46,652572	274,763386	276,508096	0
14.01.2021	20:00:24	0	0	4,858019	3,273	96,9588	0,872	77,343	3,5	1005,7	7,4	9,4	9,2	1	1	1	1	1	1	1	1	1	0	1	-45,525018	274,795848	277,788396	0
14.01.2021	20:00:25	0	0	3,502292	3,11625	67,6692	0,875	77,322	3,5	1005,66	7,5	9,4	9,2	1	1	1	1	1	1	1	1	1	0	1	-41,085271	274,758753	282,053601	0
14.01.2021	20:00:26	0	0	4,40611	3,03375	64,6344	0,874	77,321	3,5	1005,7	7,4	9,4	9,2	1	1	1	1	1	1	1	1	1	0	1	-43,058492	274,910672	280,795652	0
14.01.2021	20:00:27	0	0	4,632064	3,057	54,7776	0,87	77,307	3,5	1005,5	7,5	9,3	9,2	1	1	1	1	1	1	1	1	1	0	1	-40,310078	274,884233	283,4195	0
14.01.2021	20:00:28	0	0	3,502292	3,21975	70,6032	0,873	77,321	3,5	1005,64	7,5	9,4	9,2	1	1	1	1	1	1	1	1	1	0	1	-44,397463	274,856278	279,200446	0
14.01.2021	20:00:29	0	0	4,632064	3,23025	70,9092	0,879	77,321	3,5	1005,68	7,4	9,4	9,2	1	1	1	1	1	1	1	1	1	0	1	-43,481325	274,920012	280,416833	0
14.01.2021	20:00:30	0	0	4,632064	3,1935	60,3036	0,875	77,313	3,5	1005,66	7,4	9,4	9,2	1	1	1	1	1	1	1	1	1	0	1	-40,239605	274,899781	283,563222	0
14.01.2021	20:00:31	0	0	4,067178	3,60375	66,51	0,868	77,309	3,5	1005,66	7,5	9,4	9,2	1	1	1	1	1	1	1	1	1	0	1	-46,018323	274,811325	277,367935	0
14.01.2021	20:00:32	0	0	2,937407	3,579	66,9132	0,875	77,327	3,5	1005,68	7,4	9,4	9,2	1	1	1	1	1	1	1	1	1	0	1	-38,407329	274,758753	284,731544	0
14.01.2021	20:00:33	0	0	2,937407	3,51975	74,9376	0,87	77,367	3,5	1005,7	7,4	9,4	9,2	1	1	1	1	1	1	1	1	1	0	1	-41,36716	274,90756	282,472318	0
14.01.2021	20:00:34	0	0	2,937407	3,37425	79,0236	0,876	77,318	3,5	1005,62	7,4	9,3	9,2	1	1	1	1	1	1	1	1	1	0	1	-40,803383	274,758753	282,33549	0
14.01.2021	20:00:35	0	0	3,954201	3,16875	92,9304	0,871	77,325	3,5	1005,68	7,5	9,4	9,2	1	1	1	1	1	1	1	1	1	0	1	-42,142354	274,785021	281,12011	0
14.01.2021	20:00:36	0	0	4,293133	2,95425	82,602	0,873	77,328	3,5	1005,68	7,4	9,4	9,2	1	1	1	1	1	1	1	1	1	0	1	-39,112051	274,735605	283,91794	0
14.01.2021	20:00:37	0	0	4,293133	2,99925	84,438	0,876	77,323	3,5	1005,66	7,4	9,4	9,2	1	1	1	1	1	1	1	1	1	0	1	-40,169133	274,734063	282,853604	0
14.01.2021	20:00:38	0	0	2,824429	3,2115	74,9268	0,874	77,325	3,5	1005,76	7,5	9,4	9,2	1	1	1	1	1	1	1	1	1	0	1	-44,890768	274,737147	278,146476	0
14.01.2021	20:00:39	0	0	2,485498	3,414	73,0728	0,866	77,318	3,5	1005,66	7,5	9,4	9,2	1	1	1	1	1	1	1	1	1	0	1	-41,437632	274,7742	281,773917	0
14.01.2021	20:00:40	0	0	2,711452	3,70725	81,972	0,875	77,315	3,5	1005,72	7,5	9,4	9,2	1	1	1	1	1	1	1	1	1	0	1	-42,635659	274,839215	280,881898	0
14.01.2021	20:00:41	0	0	4,858019	4,01025	79,4124	0,873	77,315	3,5	1005,82	7,5	9,4	9,2	1	1	1	1	1	1	1	1	1	0	1	-44,890768	274,786567	278,378972	0
14.01.2021	20:00:42	0	0	4,180155	3,80775	66,2184	0,872	77,321	3,5	1005,68	7,4	9,3	9,2	1	1	1	1	1	1	1	1	1	0	1	-41,930937	274,744861	281,142587	0
14.01.2021	20:00:43	0	0	2,824429	3,53925	72,684	0,867	77,322	3,5	1005,66	7,4	9,4	9,2	1	1	1	1	1	1	1	1	1	0	1	-40,803383	274,920012	283,094775	0
14.01.2021	20:00:44	0	0	3,61527	3,5235	77,9796	0,867	77,314	3,5	1005,52	7,5	9,4	9,2	1	1	1	1	1	1	1	1	1	0	1	-44,045102	274,853175	279,538191	0
14.01.2021	20:00:45	0	0	4,40611	3,882	74,934	0,871	77,329	3,5	1005,56	7,5	9,4	9,2	1	1	1	1	1	1	1	1	1	0	1	-42,35377	274,829914	281,119995	0
14.01.2021	20:00:46	0	0	3,276338	3,855	82,5876	0,864	77,32	3,5	1005,7	7,5	9,3	9,2	1	1	1	1	1	1	1	1	1	0	1	-41,719521	274,798942	281,608456	0
14.01.2021	20:00:47	0	0	3,389315	3,669	89,7336	0,865	77,333	3,5	1005,68	7,5	9,4	9,2	1	1	1	1	1	1	1	1	1	0	1	-44,890768	274,772655	278,31351	0
14.01.2021	20:00:48	0	0	4,293133	3,516	100,476	0,863	77,337	3,5	1005,76	7,4	9,4	9,2	1	1	1	1	1	1	1	1	1	0	1	-40,944327	274,721729	282,02041	0
14.01.2021	20:00:49	0	0	4,293133	3,672	96,2424	0,87	77,338	3,5	1005,68	7,5	9,4	9,2	1	1	1	1	1	1	1	1	1	0	1	-46,229739	274,860935	277,390098	0
14.01.2021	20:00:50	0	0	2,485498	3,753	96,9696	0,87	77,33	3,5	1005,62	7,4	9,4	9,2	1	1	1	1	1	1	1	1	1	0	1	-41,930937	274,860935	281,6889	0
14.01.2021	20:00:51	0	0	4,180155	3,696	81,9612	0,872	77,321	3,5	1005,9	7,5	9,4	9,2	1	1	1	1	1	1	1	1	1	0	1	-42,424242	274,735605	280,605748	0
14.01.2021	20:00:52	0	0	2,146566	4,0695	90,4104	0,869	77,327	3,5	1005,78	7,4	9,4	9,2	1	1	1	1	1	1	1	1	1	0	1	-43,410853	274,901337	280,399303	0
14.01.2021	20:00:53	0	0	2,711452	4,215	100,3572	0,868	77,323	3,5	1005,66	7,5	9,4	9,2	1	1	1	1	1	1	1	1	1	0	1	-45,806906	274,893561	277,966613	0
14.01.2021	20:00:54	0	0	3,61527	4,12875	100,3788	0,868	77,327	3,5	1005,78	7,5	9,4	9,2	1	1	1	1	1	1	1	1	1	0	1	-43,481325	274,901337	280,328831	0
14.01.2021	20:00:55	0	0	2,711452	4,18275	90,3888	0,869	77,322	3,5	1005,8	7,5	9,3	9,2	1	1	1	1	1	1	1	1	1	0	1	-41,508104	274,744861	281,56542	0
14.01.2021	20:00:56	0	0	4,970996	4,485	91,1772	0,869	77,324	3,5	1005,68	7,5	9,3	9,2	1	1	1	1	1	1	1	1	1	0	1	-41,578576	274,850072	281,990104	0
14.01.2021	20:00:57	0	0	4,858019	4,68	92,232	0,864	77,341	3,5	1005,7	7,5	9,3	9,2	1	1	1	1	1	1	1	1	1	0	1	-42,706131	274,836114	280,796826	0
14.01.2021	20:00:58	0	0	3,163361	4,74525	93,3408	0,869	77,341	3,5	1005,78	7,5	9,4	9,2	1	1	1	1	1	1	1	1	1	0	1	-42,917548	274,760297	280,22859	0
14.01.2021	20:00:59	0	0	3,050384	4,74375	84,4128	0,866	77,363	3,5	1005,78	7,5	9,4	9,2	1	1	1	1	1	1	1	1	1	0	1	-44,045102	274,720188	278,912388	0
14.01.2021	20:01:00	0	0	2,937407	4,842	74,916	0,866	77,362	3,5	1005,9	7,5	9,4	9,2	1	1	1	1	1	1	1	1	1	0	1	-43,692741	274,721729	279,271996	0
14.01.2021	20:01:01	0	0	2,937407	4,842	74,916	0,866	77,362	3,5	1005,9	7,5	9,4	9,2	1	1	1	1	1	1	1	1	1	0	1	-43,692741	274,721729	279,271996	0
14.01.2021	20:01:02	0	0	4,519087	4,6455	69,8364	0,857	77,364	3,5	1005,78	7,5	9,4	9,2	1	1	1	1	1	1	1	1	1	0	1	-44,045102	274,879571	279,662515	0
14.01.2021	20:01:03	0	0	4,180155	4,4115	70,3116	0,862	77,359	3,5	1005,74	7,5	9,4	9,2	1	1	1	1	1	1	1	1	1	0	1	-42,283298	274,785021	280,979166	0
14.01.2021	20:01:04	0	0	4,40611	4,1565	68,0256	0,865	77,367	3,5	1005,7	7,5	9,3	9,2	1	1	1	1	1	1	1	1	1	0	1	-41,437632	274,729437	281,56335	0
14.01.2021	20:01:05	0	0	3,61527	4,00875	72,6588	0,867	77,383	3,5	1005,76	7,5	9,4	9,2	1	1	1	1	1	1	1	1	1	0	1	-41,155743	274,712485	281,765523	0
14.01.2021	20:01:06	0	0	3,050384	3,79275	78,6348	0,865	77,388	3,5	1005,5	7,5	9,4	9,2	1	1	1	1	1	1	1	1	1	0	1	-42,142354	274,751034	280,960207	0
14.01.2021	20:01:07	0	0	4,858048	3,83325	98,4204	0,861	77,377	3,5	1005,56	7,5	9,4	9,1	1	1	1	1	1	1	1	1	1	0	1	-41,930937	274,823715	281,513648	0
14.01.2021	20:01:08	0	0	4,293133	3,91575	86,31	0,864	77,388	3,5	1005,56	7,5	9,3	9,2	1	1	1	1	1	1	1	1	1	0	1	-42,847075	274,881125	280,867861	0
14.01.2021	20:01:09	0	0	3,276338	3,99825	91,5012	0,862	77,393	3,5	1005,7	7,5	9,4	9,2	1	1	1	1	1	1	1	1	1	0	1	-41,719521	274,709404	281,18726	0
14.01.2021	20:01:10	0	0	4,067178	4,02975	85,1292	0,856	77,399	3,5	1005,68	7,5	9,4	9,2	1	1	1	1	1	1	1	1	1	0	1	-49,682875	274,769565	273,506863	0
14.01.2021	20:01:11	0	0	2,711452	4,08525	80,5068	0,858	77,397	3,5	1005,72	7,5	9,4	9,2	1	1	1	1	1	1	1	1	1	0	1	-43,833686	274,828364	279,632784	0
14.01.2021	20:01:12	0	0	4,180155	4,36875	80,5248	0,855	77,401	3,5	1005,6	7,5	9,4	9,2	1	1	1	1	1	1	1	1	1	0	1	-41,860465	274,715566	281,075288	0
14.01.2021	20:01:13	0	0	2,937407	4,3425	88,1244	0,858	77,408	3,5	1005,76	7,5	9,4	9,2	1	1	1	1	1	1	1	1	1	0	1	-42,565187	274,707864	280,334353	0
14.01.2021	20:01:14	0	0	2,824429	4,07925	82,5804	0,857	77,408	3,5	1005,7	7,5	9,3	9,2	1	1	1	1	1	1	1	1	1	0	1	-46,652572	274,859383	276,959955	0
14.01.2021	20:01:15	0	0	2,711452	3,98925	78,246	0,86	77,412	3,5	1005,72	7,5	9,3	9,2	1	1	1	1	1	1	1	1	1	0	1	-39,957717	274,795848	283,355697	0
14.01.2021	20:01:16	0	0	4,519114	3,807	73,7604	0,861	77,429	3,5	1005,62	7,4	9,3	9,1	1	1	1	1	1	1	1	1	1	0	1	-41,226216	274,734063	281,796522	0
14.01.2021	20:01:17	0	0	4,067178	3,63225	79,7436	0,861	77,431	3,5	1005,8	7,5	9,3	9,2	1	1	1	1	1	1	1	1	1	0	1	-39,887245	274,878018	283,813054	0
14.01.2021	20:01:18	0	0	3,728247	3,39825	87,3612	0,857	77,445	3,5	1005,72	7,5	9,3	9,2	1	1	1	1	1	1	1	1	1	0	1	-44,256519	274,703244	278,621302	0
14.01.2021	20:01:19	0	0	3,954201	3,0975	90,414	0,857	77,451	3,5	1005,58	7,5	9,4	9,2	1	1	1	1	1	1	1	1	1	0	1	-46,5821	274,868698	277,0743	0
14.01.2021	20:01:20	0	0	4,745041	3,1095	87,336	0,857	77,459	3,5	1005,62	7,5	9,4	9,2	1	1	1	1	1	1	1	1	1	0	1	-42,635659	274,842316	280,896501	0
14.01.2021	20:01:21	0	0	2,937407	3,34875	91,512	0,859	77,464	3,5	1005,64	7,5	9,3	9,2	1	1	1	1	1	1	1	1	1	0	1	-43,269908	274,819068	280,152799	0
14.01.2021	20:01:22	0	0	2,598475	3,57525	89,7228	0,856	77,466	3,5	1005,74	7,5	9,4	9,2	1	1	1	1	1	1	1	1	1	0	1	-45,525018	274,86404	278,109443	0
14.01.2021	20:01:23	0	0	4,858019	3,606	96,5916	0,858	77,447	3,5	1005,74	7,5	9,3	9,2	1	1	1	1	1	1	1	1	1	0	1	-40,873855	274,888896	282,87769	0
14.01.2021	20:01:24	0	0	2,711452	3,82575	86,6628	0,854	77,464	3,5	1005,62	7,5	9,4	9,2	1	1	1	1	1	1	1	1	1	0	1	-47,21635	274,874911	276,469313	0
14.01.2021	20:01:25	0	0	4,632064	4,0605	89,1468	0,853	77,464	3,5	1005,78	7,5	9,4	9,2	1	1	1	1	1	1	1	1	1	0	1	-39,887245	274,6817	282,8893	0
14.01.2021	20:01:26	0	0	2,937407	3,903	81,9684	0,858	77,448	3,5	1005,76	7,5	9,4	9,2	1	1	1	1	1	1	1	1	1	0	1	-44,608879	274,86404	279,025581	0
14.01.2021	20:01:27	0	0	4,745041	3,54975	71,9784	0,854	77,449	3,5	1005,72	7,5	9,4	9,2	1	1	1	1	1	1	1	1	1	0	1	-43,833686	274,817519	279,58173	0
14.01.2021	20:01:28	0	0	3,728247	3,57375	86,3028	0,855	77,45	3,5	1005,76	7,5	9,3	9,2	1	1	1	1	1	1	1	1	1	0	1	-41,296688	274,694008	281,537712	0
14.01.2021	20:01:29	0	0	3,163361	3,612	77,958	0,852	77,443	3,5	1005,66	7,5	9,4	9,2	1	1	1	1	1	1	1	1	1	0	1	-43,128964	274,712485	279,792302	0
14.01.2021	20:01:30	0	0	4,519087	3,4815	69,4584	0,858	77,44	3,5	1005,64	7,5	9,4	9,2	1	1	1	1	1	1	1	1	1	0	1	-42,071882	274,704784	280,813178	0
14.01.2021	20:01:31	0	0	2,711452	3,57975	77,9832	0,856	77,432	3,5	1005,88	7,5	9,4	9,2	1	1	1	1	1	1	1	1	1	0	1	-42,565187	274,698626	280,29092	0
14.01.2021	20:01:32	0	0	3,841224	3,56925	79,4052	0,858	77,428	3,5	1005,78	7,5	9,4	9,2	1	1	1	1	1	1	1	1	1	0	1	-39,675828	274,850072	283,892852	0
14.01.2021	20:01:33	0	0	3,841224	3,5565	86,2992	0,854	77,428	3,5	1005,7	7,4	9,4	9,2	1	1	1	1	1	1	1	1	1	0	1	-40,662438	274,729437	282,338544	0
14.01.2021	20:01:34	0	0	3,502292	3,4935	86,9976	0,858	77,426	3,5	1005,7	7,5	9,4	9,2	1	1	1	1	1	1	1	1	1	0	1	-43,833686	274,692469	278,99348	0
14.01.2021	20:01:35	0	0	2,485513	3,6945	80,5032	0,848	77,43	3,5	1005,76	7,4	9,4	9,1	1	1	1	1	1	1	1	1	1	0	1	-45,384073	274,706324	277,508226	0
14.01.2021	20:01:36	0	0	3,276338	3,89625	87,8112	0,851	77,405	3,5	1005,78	7,5	9,3	9,2	1	1	1	1	1	1	1	1	1	0	1	-44,115574	274,878018	279,584724	0
14.01.2021	20:01:37	0	0	4,293133	4,11675	82,602	0,853	77,413	3,5	1005,68	7,5	9,3	9,2	1	1	1	1	1	1	1	1	1	0	1	-44,538407	274,687853	278,267059	0
14.01.2021	20:01:38	0	0	2,824429	4,50825	83,3436	0,846	77,408	3,5	1005,6	7,5	9,4	9,2	1	1	1	1	1	1	1	1	1	0	1	-40,38055	274,717106	282,562449	0
14.01.2021	20:01:39	0	0	2,824429	4,90725	89,6976	0,847	77,414	3,5	1005,66	7,5	9,4	9,2	1	1	1	1	1	1	1	1	1	0	1	-46,723044	274,800489	276,612215	0
14.01.2021	20:01:40	0	0	3,728247	5,01	96,9804	0,851	77,419	3,5	1005,64	7,5	9,4	9,2	1	1	1	1	1	1	1	1	1	0	1	-49,753347	274,769565	273,436391	0
14.01.2021	20:01:41	0	0	4,970996	4,98825	83,7396	0,845	77,407	3,5	1005,58	7,5	9,3	9,2	1	1	1	1	1	1	1	1	1	0	1	-42,565187	274,737147	280,472058	0
14.01.2021	20:01:42	0	0	3,728247	4,77375	72,6804	0,851	77,402	3,5	1005,8	7,5	9,3	9,2	1	1	1	1	1	1	1	1	1	0	1	-42,001409	274,865592	281,640363	0
14.01.2021	20:01:43	0	0	4,632064	4,93275	65,8584	0,847	77,406	3,5	1005,78	7,5	9,3	9,2	1	1	1	1	1	1	1	1	1	0	1	-46,511628	274,871804	277,159402	0
14.01.2021	20:01:44	0	0	3,050384	5,2455	72,2772	0,852	77,395	3,5	1005,84	7,4	9,3	9,2	1	1	1	1	1	1	1	1	1	0	1	-42,283298	274,729437	280,717684	0
14.01.2021	20:01:45	0	0	3,16338	5,23575	90,7992	0,846	77,4	3,5	1005,72	7,5	9,3	9,1	1	1	1	1	1	1	1	1	1	0	1	-46,793517	274,817519	276,621899	0
14.01.2021	20:01:46	0	0	2,937424	5,3205	94,3668	0,849	77,399	3,5	1005,62	7,5	9,4	9,1	1	1	1	1	1	1	1	1	1	0	1	-42,847075	274,788114	280,429942	0
14.01.2021	20:01:47	0	0	3,163361	5,7735	75,9852	0,847	77,41	3,5	1005,72	7,5	9,3	9,2	1	1	1	1	1	1	1	1	1	0	1	-46,229739	274,817519	277,185677	0
14.01.2021	20:01:48	0	0	3,615291	5,20275	74,1564	0,845	77,392	3,5	1005,54	7,5	9,3	9,1	1	1	1	1	1	1	1	1	1	0	1	-47,639183	274,678625	275,122905	0
14.01.2021	20:01:49	0	0	4,067178	4,407	70,5996	0,841	77,405	3,5	1005,58	7,5	9,3	9,2	1	1	1	1	1	1	1	1	1	0	1	-43,481325	274,851623	280,094661	0
14.01.2021	20:01:50	0	0	3,276338	3,89325	71,5932	0,843	77,401	3,5	1005,68	7,5	9,3	9,2	1	1	1	1	1	1	1	1	1	0	1	-44,326991	274,80668	279,037406	0
14.01.2021	20:01:51	0	0	3,276358	4,02075	63,4932	0,846	77,416	3,5	1005,7	7,4	9,4	9,1	1	1	1	1	1	1	1	1	1	0	1	-43,833686	274,778837	279,39968	0
14.01.2021	20:01:52	0	0	3,389336	3,83625	82,9764	0,84	77,411	3,5	1005,56	7,5	9,4	9,1	1	1	1	1	1	1	1	1	1	0	1	-48,343904	274,732521	274,671581	0
14.01.2021	20:01:53	0	0	2,824429	3,63975	78,6564	0,844	77,427	3,5	1005,78	7,4	9,4	9,2	1	1	1	1	1	1	1	1	1	0	1	-46,934461	274,853175	276,648832	0
14.01.2021	20:01:54	0	0	3,16338	3,93	67,6656	0,848	77,43	3,5	1005,78	7,5	9,4	9,1	1	1	1	1	1	1	1	1	1	0	1	-42,776603	274,670938	279,949354	0
14.01.2021	20:01:55	0	0	4,858019	4,37325	73,4184	0,839	77,437	3,5	1005,6	7,5	9,4	9,2	1	1	1	1	1	1	1	1	1	0	1	-45,947851	274,834564	277,547808	0
14.01.2021	20:01:56	0	0	2,711468	4,75425	79,4052	0,84	77,459	3,5	1005,64	7,4	9,4	9,1	1	1	1	1	1	1	1	1	1	0	1	-40,803383	274,811325	282,582876	0
14.01.2021	20:01:57	0	0	4,632064	4,73325	85,1868	0,839	77,474	3,5	1005,62	7,4	9,4	9,2	1	1	1	1	1	1	1	1	1	0	1	-42,142354	274,683238	280,64142	0
14.01.2021	20:01:58	0	0	2,937407	4,74225	77,9652	0,838	77,481	3,5	1005,72	7,4	9,3	9,2	1	1	1	1	1	1	1	1	1	0	1	-46,863989	274,675549	275,883645	0
14.01.2021	20:01:59	0	0	3,841224	4,60725	81,1872	0,846	77,5	3,5	1005,8	7,5	9,4	9,2	1	1	1	1	1	1	1	1	1	0	1	-40,803383	274,737147	282,233862	0
14.01.2021	20:02:00	0	0	3,61527	4,6155	77,9508	0,839	77,524	3,5	1005,58	7,5	9,3	9,2	1	1	1	1	1	1	1	1	1	0	1	-47,780127	274,868698	275,876273	0
14.01.2021	20:02:01	0	0	2,711468	4,407	75,456	0,837	77,538	3,5	1005,7	7,4	9,3	9,1	1	1	1	1	1	1	1	1	1	0	1	-44,749824	274,865592	278,891949	0
14.01.2021	20:02:02	0	0	2,711468	4,407	75,456	0,837	77,538	3,5	1005,7	7,4	9,3	9,1	1	1	1	1	1	1	1	1	1	0	1	-44,749824	274,865592	278,891949	0
14.01.2021	20:02:03	0	0	2,598475	4,25925	80,1324	0,838	77,541	3,5	1005,82	7,5	9,3	9,2	1	1	1	1	1	1	1	1	1	0	1	-42,212826	274,723271	280,759159	0
14.01.2021	20:02:04	0	0	4,293133	3,9135	89,3268	0,838	77,555	3,5	1005,8	7,5	9,4	9,2	1	1	1	1	1	1	1	1	1	0	1	-45,806906	274,754121	277,310177	0
14.01.2021	20:02:05	0	0	2,711452	3,91425	94,0896	0,843	77,571	3,5	1005,74	7,4	9,3	9,2	1	1	1	1	1	1	1	1	1	0	1	-47,850599	274,865592	275,791174	0
14.01.2021	20:02:06	0	0	4,632092	4,2075	81,972	0,84	77,594	3,5	1005,76	7,5	9,3	9,1	1	1	1	1	1	1	1	1	1	0	1	-42,706131	274,853175	280,877162	0
14.01.2021	20:02:07	0	0	2,937407	4,21125	77,5764	0,834	77,605	3,5	1005,7	7,5	9,3	9,2	1	1	1	1	1	1	1	1	1	0	1	-43,058492	274,723271	279,913493	0
14.01.2021	20:02:08	0	0	4,067178	4,0635	87,39	0,836	77,623	3,5	1005,66	7,5	9,4	9,2	1	1	1	1	1	1	1	1	1	0	1	-44,326991	274,819068	279,095716	0
14.01.2021	20:02:09	0	0	2,485498	3,81525	73,1304	0,834	77,651	3,5	1005,82	7,4	9,3	9,2	1	1	1	1	1	1	1	1	1	0	1	-45,102185	274,704784	277,782875	0
14.01.2021	20:02:10	0	0	4,632064	3,648	89,3196	0,836	77,669	3,5	1005,78	7,5	9,3	9,2	1	1	1	1	1	1	1	1	1	0	1	-46,511628	274,868698	277,144772	0
14.01.2021	20:02:11	0	0	2,937424	3,633	80,1324	0,837	77,687	3,5	1005,74	7,4	9,3	9,1	1	1	1	1	1	1	1	1	1	0	1	-43,622269	274,697086	279,226601	0
14.01.2021	20:02:12	0	0	3,389315	3,56925	83,0556	0,84	77,704	3,5	1005,76	7,4	9,3	9,2	1	1	1	1	1	1	1	1	1	0	1	-40,098661	274,684777	282,692343	0
14.01.2021	20:02:13	0	0	3,502292	3,5745	88,9488	0,834	77,726	3,5	1005,78	7,5	9,3	9,2	1	1	1	1	1	1	1	1	1	0	1	-44,538407	274,808228	278,833276	0
14.01.2021	20:02:14	0	0	2,485498	3,51975	80,5248	0,838	77,726	3,5	1005,68	7,4	9,3	9,2	1	1	1	1	1	1	1	1	1	0	1	-41,789993	274,718647	281,160251	0
14.01.2021	20:02:15	0	0	3,502313	3,39825	82,9368	0,857	77,776	3,5	1005,86	7,4	9,4	9,1	1	1	1	1	1	1	1	1	1	0	1	-42,98802	274,706324	279,90428	0
14.01.2021	20:02:16	0	0	2,824429	3,6045	92,3436	0,844	77,778	3,5	1005,68	7,4	9,3	9,2	1	1	1	1	1	1	1	1	1	0	1	-43,269908	274,734063	279,752829	0
14.01.2021	20:02:17	0	0	2,485513	3,8355	89,334	0,84	77,792	3,5	1005,64	7,4	9,4	9,1	1	1	1	1	1	1	1	1	1	0	1	-41,296688	274,817519	282,118728	0
14.01.2021	20:02:18	0	0	3,615291	3,708	97,3188	0,842	77,813	3,5	1005,74	7,4	9,3	9,1	1	1	1	1	1	1	1	1	1	0	1	-47,991543	274,871804	275,679486	0
14.01.2021	20:02:19	0	0	2,937424	3,7275	99,1188	0,84	77,817	3,5	1005,48	7,5	9,3	9,1	1	1	1	1	1	1	1	1	1	0	1	-45,665962	274,723271	277,306023	0
14.01.2021	20:02:20	0	0	4,971026	3,9465	90,108	0,839	77,859	3,5	1005,9	7,5	9,3	9,1	1	1	1	1	1	1	1	1	1	0	1	-46,018323	274,777291	277,20777	0
14.01.2021	20:02:21	0	0	3,276358	4,06125	89,3196	0,837	77,841	3,5	1005,6	7,5	9,4	9,1	1	1	1	1	1	1	1	1	1	0	1	-48,555321	274,882679	275,166936	0
14.01.2021	20:02:22	0	0	2,824446	4,128	105,8652	0,84	77,844	3,5	1005,82	7,5	9,4	9,1	1	1	1	1	1	1	1	1	1	0	1	-43,904158	274,692469	278,923007	0
14.01.2021	20:02:23	0	0	3,163361	4,0065	95,832	0,837	77,85	3,5	1005,82	7,4	9,3	9,2	1	1	1	1	1	1	1	1	1	0	1	-48,414376	274,802037	274,928166	0
14.01.2021	20:02:24	0	0	4,180155	3,82875	90,0216	0,839	77,838	3,5	1005,72	7,5	9,4	9,2	1	1	1	1	1	1	1	1	1	0	1	-45,59549	274,876464	278,09749	0
14.01.2021	20:02:25	0	0	4,180155	3,6525	92,6604	0,832	77,832	3,5	1005,84	7,4	9,3	9,2	1	1	1	1	1	1	1	1	1	0	1	-44,538407	274,721729	278,42633	0
14.01.2021	20:02:26	0	0	4,406136	3,60225	103,662	0,833	77,812	3,5	1005,72	7,5	9,3	9,1	1	1	1	1	1	1	1	1	1	0	1	-43,622269	274,840765	279,902589	0
14.01.2021	20:02:27	0	0	3,163361	3,60975	108,5904	0,838	77,811	3,5	1005,8	7,5	9,3	9,2	1	1	1	1	1	1	1	1	1	0	1	-42,776603	274,757209	280,355006	0
14.01.2021	20:02:28	0	0	4,519114	3,414	98,442	0,841	77,795	3,5	1005,66	7,5	9,3	9,1	1	1	1	1	1	1	1	1	1	0	1	-43,833686	274,712485	279,08758	0
14.01.2021	20:02:29	0	0	2,711452	3,273	101,7972	0,843	77,792	3,5	1005,74	7,4	9,3	9,2	1	1	1	1	1	1	1	1	1	0	1	-41,578576	274,885788	282,158323	0
14.01.2021	20:02:30	0	0	3,841224	3,18225	99,1224	0,842	77,773	3,5	1005,58	7,5	9,3	9,2	1	1	1	1	1	1	1	1	1	0	1	-43,340381	274,77111	279,856627	0
14.01.2021	20:02:31	0	0	2,598491	3,17175	92,1636	0,839	77,762	3,5	1005,62	7,5	9,3	9,1	1	1	1	1	1	1	1	1	1	0	1	-45,031712	274,845418	278,515054	0
14.01.2021	20:02:32	0	0	4,40611	3,4995	97,7076	0,838	77,732	3,5	1005,62	7,5	9,3	9,2	1	1	1	1	1	1	1	1	1	0	1	-41,930937	274,703244	280,946883	0
14.01.2021	20:02:33	0	0	3,050384	3,63525	96,5592	0,835	77,729	3,5	1005,62	7,5	9,4	9,2	1	1	1	1	1	1	1	1	1	0	1	-40,944327	274,850072	282,624353	0
14.01.2021	20:02:34	0	0	2,485513	3,5175	108,8784	0,837	77,719	3,5	1005,54	7,5	9,3	9,1	1	1	1	1	1	1	1	1	1	0	1	-47,850599	274,846969	275,703471	0
14.01.2021	20:02:35	0	0	2,711468	3,42975	91,1448	0,845	77,715	3,5	1005,9	7,5	9,3	9,1	1	1	1	1	1	1	1	1	1	0	1	-46,229739	274,714025	276,69877	0
14.01.2021	20:02:36	0	0	3,728247	3,17025	96,588	0,841	77,699	3,5	1005,86	7,5	9,3	9,2	1	1	1	1	1	1	1	1	1	0	1	-44,326991	274,829914	279,146775	0
14.01.2021	20:02:37	0	0	3,389336	3,18225	94,4352	0,839	77,681	3,5	1005,66	7,5	9,4	9,1	1	1	1	1	1	1	1	1	1	0	1	-41,226216	274,828364	282,240254	0
14.01.2021	20:02:38	0	0	2,485498	3,42075	98,4528	0,843	77,675	3,5	1005,7	7,5	9,3	9,2	1	1	1	1	1	1	1	1	1	0	1	-47,991543	274,717106	274,951455	0
14.01.2021	20:02:39	0	0	4,180181	3,43425	93,4272	0,842	77,648	3,5	1005,68	7,4	9,3	9,1	1	1	1	1	1	1	1	1	1	0	1	-45,454545	274,867145	278,19454	0
14.01.2021	20:02:40	0	0	4,745041	3,276	100,728	0,84	77,651	3,5	1005,58	7,5	9,3	9,2	1	1	1	1	1	1	1	1	1	0	1	-44,256519	274,834564	279,239139	0
14.01.2021	20:02:41	0	0	3,841247	3,138	88,9524	0,84	77,64	3,5	1005,68	7,5	9,3	9,1	1	1	1	1	1	1	1	1	1	0	1	-42,001409	274,707864	280,898131	0
14.01.2021	20:02:42	0	0	3,276358	3,27975	93,3732	0,838	77,635	3,5	1005,72	7,5	9,4	9,1	1	1	1	1	1	1	1	1	1	0	1	-43,551797	274,717106	279,391201	0
14.01.2021	20:02:43	0	0	3,276358	3,2265	87,3468	0,84	77,633	3,5	1005,8	7,5	9,3	9,1	1	1	1	1	1	1	1	1	1	0	1	-46,018323	274,792754	277,28053	0
14.01.2021	20:02:44	0	0	4,519114	2,97	84,0528	0,842	77,624	3,5	1005,76	7,5	9,3	9,1	1	1	1	1	1	1	1	1	1	0	1	-47,21635	274,819068	276,206358	0
14.01.2021	20:02:45	0	0	4,632092	2,8305	85,1904	0,841	77,624	3,5	1005,78	7,5	9,3	9,1	1	1	1	1	1	1	1	1	1	0	1	-44,820296	274,724812	278,158937	0
14.01.2021	20:02:46	0	0	4,519114	2,82225	90,8532	0,839	77,594	3,5	1005,74	7,5	9,3	9,1	1	1	1	1	1	1	1	1	1	0	1	-42,494715	274,878018	281,205583	0
14.01.2021	20:02:47	0	0	3,502313	2,91675	88,1028	0,844	77,601	3,5	1005,72	7,5	9,4	9,1	1	1	1	1	1	1	1	1	1	0	1	-45,102185	274,755665	278,022161	0
14.01.2021	20:02:48	0	0	2,485513	2,88825	86,9904	0,84	77,594	3,5	1005,8	7,5	9,3	9,1	1	1	1	1	1	1	1	1	1	0	1	-43,97463	274,879571	279,732987	0
14.01.2021	20:02:49	0	0	4,632064	2,9595	85,608	0,842	77,591	3,5	1005,84	7,5	9,3	9,2	1	1	1	1	1	1	1	1	1	0	1	-42,071882	274,895116	281,708963	0
14.01.2021	20:02:50	0	0	2,485513	2,985	91,494	0,838	77,586	3,5	1005,68	7,5	9,4	9,1	1	1	1	1	1	1	1	1	1	0	1	-46,652572	274,81597	276,755553	0
14.01.2021	20:02:51	0	0	3,050384	3,07875	94,086	0,836	77,564	3,5	1005,68	7,6	9,3	9,2	1	1	1	1	1	1	1	1	1	0	1	-46,511628	274,825265	276,940251	0
14.01.2021	20:02:52	0	0	4,632064	3,0825	91,1376	0,841	77,557	3,5	1005,76	7,4	9,3	9,2	1	1	1	1	1	1	1	1	1	0	1	-43,340381	274,879571	280,367236	0
14.01.2021	20:02:53	0	0	4,519114	2,84925	95,13	0,836	77,551	3,5	1005,5	7,4	9,3	9,1	1	1	1	1	1	1	1	1	1	0	1	-43,97463	274,84852	279,586745	0
14.01.2021	20:02:54	0	0	3,16338	2,77575	91,5192	0,832	77,562	3,5	1005,76	7,5	9,3	9,1	1	1	1	1	1	1	1	1	1	0	1	-45,665962	274,811325	277,720296	0
14.01.2021	20:02:55	0	0	4,745041	2,76975	96,2244	0,836	77,545	3,5	1005,64	7,5	9,3	9,2	1	1	1	1	1	1	1	1	1	0	1	-42,494715	274,737147	280,54253	0
14.01.2021	20:02:56	0	0	4,293133	2,679	92,7072	0,838	77,549	3,5	1005,68	7,4	9,3	9,2	1	1	1	1	1	1	1	1	1	0	1	-42,847075	274,874911	280,838587	0
14.01.2021	20:02:57	0	0	4,067203	2,6265	86,6592	0,836	77,556	3,5	1005,58	7,5	9,3	9,1	1	1	1	1	1	1	1	1	1	0	1	-46,723044	274,884233	277,006533	0
14.01.2021	20:02:58	0	0	3,615291	2,6175	89,3268	0,837	77,552	3,5	1005,86	7,5	9,3	9,1	1	1	1	1	1	1	1	1	1	0	1	-44,326991	274,814422	279,073845	0
14.01.2021	20:02:59	0	0	3,615291	2,56425	82,5984	0,84	77,544	3,5	1005,6	7,5	9,3	9,1	1	1	1	1	1	1	1	1	1	0	1	-42,776603	274,707864	280,122937	0
14.01.2021	20:03:00	0	0	5,196981	2,565	81,594	0,834	77,541	3,5	1005,74	7,4	9,3	9,1	1	1	1	1	1	1	1	1	1	0	1	-44,820296	274,839215	278,697261	0
14.01.2021	20:03:01	0	0	4,632092	2,58225	87,7284	0,836	77,549	3,5	1005,76	7,4	9,3	9,1	1	1	1	1	1	1	1	1	1	0	1	-43,692741	274,747947	279,3953	0
14.01.2021	20:03:02	0	0	4,632092	2,58225	87,7284	0,836	77,549	3,5	1005,76	7,4	9,3	9,1	1	1	1	1	1	1	1	1	1	0	1	-43,692741	274,747947	279,3953	0
14.01.2021	20:03:03	0	0	3,389336	2,46075	82,9764	0,842	77,55	3,5	1005,74	7,4	9,3	9,1	1	1	1	1	1	1	1	1	1	0	1	-42,283298	274,689392	280,529401	0
14.01.2021	20:03:04	0	0	4,293158	2,523	97,7256	0,842	77,537	3,5	1005,86	7,4	9,3	9,1	1	1	1	1	1	1	1	1	1	0	1	-46,723044	274,700165	276,140299	0
14.01.2021	20:03:05	0	0	4,293158	2,5575	86,9796	0,828	77,523	3,5	1005,72	7,4	9,3	9,1	1	1	1	1	1	1	1	1	1	0	1	-45,665962	274,843867	277,873501	0
14.01.2021	20:03:06	0	0	4,406136	2,7765	95,544	0,833	77,519	3,5	1005,86	7,4	9,3	9,1	1	1	1	1	1	1	1	1	1	0	1	-47,709655	274,81597	275,698471	0
14.01.2021	20:03:07	0	0	3,389336	2,9685	85,9032	0,839	77,506	3,5	1005,78	7,4	9,4	9,1	1	1	1	1	1	1	1	1	1	0	1	-43,692741	274,870251	279,970973	0
14.01.2021	20:03:08	0	0	4,519114	2,88675	103,3452	0,836	77,498	3,5	1005,8	7,5	9,3	9,1	1	1	1	1	1	1	1	1	1	0	1	-46,5821	274,730979	276,426133	0
14.01.2021	20:03:09	0	0	3,276358	2,916	90,7884	0,835	77,492	3,5	1005,7	7,5	9,3	9,1	1	1	1	1	1	1	1	1	1	0	1	-47,004933	274,751034	276,097628	0
14.01.2021	20:03:10	0	0	4,632092	2,90325	100,7496	0,827	77,475	3,5	1005,86	7,4	9,3	9,1	1	1	1	1	1	1	1	1	1	0	1	-45,947851	274,878018	277,752447	0
14.01.2021	20:03:11	0	0	3,050402	2,92575	108,9648	0,833	77,465	3,5	1005,76	7,5	9,3	9,1	1	1	1	1	1	1	1	1	1	0	1	-42,98802	274,720188	279,96947	0
14.01.2021	20:03:12	0	0	2,372521	3,2925	112,2552	0,825	77,456	3,5	1005,68	7,4	9,3	9,2	1	1	1	1	1	1	1	1	1	0	1	-45,243129	274,778837	277,990236	0
14.01.2021	20:03:13	0	0	3,050384	3,756	107,3916	0,834	77,46	3,5	1005,64	7,4	9,3	9,2	1	1	1	1	1	1	1	1	1	0	1	-45,102185	274,80668	278,262213	0
14.01.2021	20:03:14	0	0	4,180155	3,954	102,5892	0,833	77,467	3,5	1005,7	7,4	9,3	9,2	1	1	1	1	1	1	1	1	1	0	1	-43,904158	274,692469	278,923007	0
14.01.2021	20:03:15	0	0	2,937424	4,005	96,2964	0,832	77,459	3,5	1005,64	7,4	9,3	9,1	1	1	1	1	1	1	1	1	1	0	1	-48,625793	274,666327	274,078495	0
14.01.2021	20:03:16	0	0	2,598491	3,75375	102,2148	0,827	77,435	3,5	1005,66	7,4	9,3	9,1	1	1	1	1	1	1	1	1	1	0	1	-41,014799	274,74949	282,080502	0
14.01.2021	20:03:17	0	0	2,711468	3,6765	100,7496	0,836	77,454	3,5	1005,82	7,4	9,3	9,1	1	1	1	1	1	1	1	1	1	0	1	-44,96124	274,729437	278,039742	0
14.01.2021	20:03:18	0	0	4,180181	3,71625	101,5344	0,825	77,449	3,5	1005,74	7,4	9,3	9,1	1	1	1	1	1	1	1	1	1	0	1	-44,749824	274,856278	278,848085	0
14.01.2021	20:03:19	0	0	4,293158	3,91125	97,3368	0,827	77,443	3,5	1005,96	7,4	9,3	9,1	1	1	1	1	1	1	1	1	1	0	1	-46,229739	274,865592	277,412033	0
14.01.2021	20:03:20	0	0	3,050402	3,9435	106,2972	0,829	77,437	3,5	1005,72	7,4	9,3	9,1	1	1	1	1	1	1	1	1	1	0	1	-44,467935	274,712485	278,453331	0
14.01.2021	20:03:21	0	0	4,40611	3,5985	96,9948	0,826	77,449	3,5	1005,7	7,4	9,3	9,2	1	1	1	1	1	1	1	1	1	0	1	-45,172657	274,829914	278,301109	0
14.01.2021	20:03:22	0	0	3,389336	3,837	101,1096	0,83	77,45	3,5	1005,8	7,4	9,3	9,1	1	1	1	1	1	1	1	1	1	0	1	-43,269908	274,862487	280,35724	0
14.01.2021	20:03:23	0	0	2,372535	4,11375	78,2928	0,822	77,462	3,5	1005,6	7,4	9,3	9,1	1	1	1	1	1	1	1	1	1	0	1	-44,045102	274,697086	278,803768	0
14.01.2021	20:03:24	0	0	4,180181	4,296	96,5952	0,823	77,472	3,5	1005,78	7,6	9,3	9,1	1	1	1	1	1	1	1	1	1	0	1	-46,370684	274,802037	276,971859	0
14.01.2021	20:03:25	0	0	3,050402	4,45275	84,4452	0,828	77,489	3,5	1005,72	7,4	9,3	9,1	1	1	1	1	1	1	1	1	1	0	1	-44,326991	274,704784	278,558069	0
14.01.2021	20:03:26	0	0	1,920624	4,419	102,5604	0,82	77,487	3,5	1005,8	7,4	9,3	9,1	1	1	1	1	1	1	1	1	1	0	1	-43,481325	274,845418	280,065441	0
14.01.2021	20:03:27	0	0	3,728269	4,365	107,4708	0,818	77,494	3,5	1005,84	7,4	9,5	9,1	1	1	1	1	1	1	1	1	1	0	1	-47,780127	274,657108	274,880841	0
14.01.2021	20:03:28	0	0	3,728269	4,37025	111,8196	0,826	77,496	3,5	1005,8	7,4	9,3	9,1	1	1	1	1	1	1	1	1	1	0	1	-45,877378	274,794301	277,428754	0
14.01.2021	20:03:29	0	0	4,406136	4,476	103,302	0,822	77,498	3,5	1005,86	7,4	9,3	9,1	1	1	1	1	1	1	1	1	1	0	1	-43,763214	274,694008	279,071186	0
14.01.2021	20:03:30	0	0	3,050402	4,5075	116,3412	0,817	77,485	3,5	1005,66	7,4	9,3	9,1	1	1	1	1	1	1	1	1	1	0	1	-44,186047	274,658644	278,48214	0
14.01.2021	20:03:31	0	0	2,711468	4,407	102,9636	0,822	77,491	3,5	1005,8	7,4	9,3	9,1	1	1	1	1	1	1	1	1	1	0	1	-45,102185	274,658644	277,566001	0
14.01.2021	20:03:32	0	0	4,293158	4,80675	122,4216	0,812	77,478	3,5	1005,7	7,4	9,3	9,1	1	1	1	1	1	1	1	1	1	0	1	-43,410853	274,823715	280,033732	0
14.01.2021	20:03:33	0	0	2,711468	4,95	110,0124	0,818	77,484	3,5	1005,62	7,4	9,3	9,1	1	1	1	1	1	1	1	1	1	0	1	-42,706131	274,783475	280,549057	0
14.01.2021	20:03:34	0	0	3,954225	4,9215	112,2768	0,817	77,505	3,5	1005,8	7,4	9,3	9,1	1	1	1	1	1	1	1	1	1	0	1	-44,186047	274,845418	279,360719	0
14.01.2021	20:03:35	0	0	3,728269	4,5195	101,808	0,81	77,498	3,5	1005,72	7,4	9,3	9,1	1	1	1	1	1	1	1	1	1	0	1	-40,028189	274,660181	282,647216	0
14.01.2021	20:03:36	0	0	2,485513	4,13775	107,0532	0,82	77,506	3,5	1005,84	7,4	9,3	9,1	1	1	1	1	1	1	1	1	1	0	1	-44,890768	274,655572	277,762982	0
14.01.2021	20:03:37	0	0	4,293158	3,933	120,8916	0,817	77,513	3,5	1005,7	7,4	9,3	9,1	1	1	1	1	1	1	1	1	1	0	1	-44,538407	274,811325	278,847851	0
14.01.2021	20:03:38	0	0	2,598491	3,639	119,0736	0,814	77,518	3,5	1005,64	7,4	9,3	9,1	1	1	1	1	1	1	1	1	1	0	1	-41,860465	274,730979	281,147768	0
14.01.2021	20:03:39	0	0	3,050402	3,87975	107,7624	0,813	77,531	3,5	1005,8	7,4	9,3	9,1	1	1	1	1	1	1	1	1	1	0	1	-42,917548	274,823715	280,527037	0
14.01.2021	20:03:40	0	0	2,937424	4,26675	103,2804	0,816	77,534	3,5	1005,76	7,4	9,3	9,1	1	1	1	1	1	1	1	1	1	0	1	-46,652572	274,657108	276,008396	0
14.01.2021	20:03:41	0	0	4,519114	4,536	103,3668	0,81	77,526	3,5	1005,66	7,4	9,3	9,1	1	1	1	1	1	1	1	1	1	0	1	-45,454545	274,825265	277,997334	0
14.01.2021	20:03:42	0	0	4,406136	4,644	104,0328	0,809	77,522	3,5	1005,64	7,4	9,3	9,1	1	1	1	1	1	1	1	1	1	0	1	-45,947851	274,723271	277,024134	0
14.01.2021	20:03:43	0	0	3,615291	4,6275	99,9	0,805	77,536	3,5	1005,8	7,4	9,3	9,1	1	1	1	1	1	1	1	1	1	0	1	-43,199436	274,831463	280,281626	0
14.01.2021	20:03:44	0	0	3,389336	4,57575	109,6884	0,809	77,547	3,5	1005,74	7,4	9,3	9,1	1	1	1	1	1	1	1	1	1	0	1	-41,930937	274,845418	281,615829	0
14.01.2021	20:03:45	0	0	3,615291	4,4955	100,7172	0,808	77,551	3,5	1005,7	7,4	9,3	9,1	1	1	1	1	1	1	1	1	1	0	1	-43,128964	274,712485	279,792302	0
14.01.2021	20:03:46	0	0	4,180181	4,386	91,8972	0,812	77,554	3,5	1005,64	7,4	9,3	9,1	1	1	1	1	1	1	1	1	1	0	1	-48,062016	274,80668	275,302382	0
14.01.2021	20:03:47	0	0	3,050402	4,4025	95,8428	0,808	77,572	3,5	1005,72	7,4	9,3	9,1	1	1	1	1	1	1	1	1	1	0	1	-44,467935	274,6694	278,250799	0
14.01.2021	20:03:48	0	0	3,16338	4,46775	87,3684	0,812	77,56	3,5	1005,66	7,4	9,3	9,1	1	1	1	1	1	1	1	1	1	0	1	-42,98802	274,678625	279,774068	0
14.01.2021	20:03:49	0	0	2,598491	4,36425	97,3224	0,805	77,568	3,5	1005,74	7,4	9,3	9,1	1	1	1	1	1	1	1	1	1	0	1	-41,649049	274,761842	281,504354	0
14.01.2021	20:03:50	0	0	3,050402	3,9705	95,8464	0,799	77,572	3,5	1005,66	7,4	9,3	9,1	1	1	1	1	1	1	1	1	1	0	1	-43,551797	274,643289	279,044237	0
14.01.2021	20:03:51	0	0	3,954225	3,53925	86,274	0,802	77,581	3,5	1005,72	7,4	9,3	9,1	1	1	1	1	1	1	1	1	1	0	1	-44,397463	274,797395	278,923232	0
14.01.2021	20:03:52	0	0	3,728269	3,03525	53,7228	0,812	77,609	3,5	1005,84	7,4	9,3	9,1	1	1	1	1	1	1	1	1	1	0	1	-41,014799	274,701705	281,855783	0
14.01.2021	20:03:53	0	0	2,485513	2,934	72,6732	0,803	77,611	3,5	1005,66	7,4	9,3	9,1	1	1	1	1	1	1	1	1	1	0	1	-44,397463	274,66479	278,299603	0
14.01.2021	20:03:54	0	0	4,519114	3,07425	88,578	0,808	77,615	3,5	1005,78	7,4	9,3	9,1	1	1	1	1	1	1	1	1	1	0	1	-43,97463	274,777291	279,251462	0
14.01.2021	20:03:55	0	0	3,841247	2,84625	72,3384	0,805	77,645	3,5	1005,74	7,4	9,3	9,1	1	1	1	1	1	1	1	1	1	0	1	-46,229739	274,743318	276,836528	0
14.01.2021	20:03:56	0	0	4,293158	2,49975	68,4036	0,812	77,648	3,5	1005,86	7,4	9,3	9,1	1	1	1	1	1	1	1	1	1	0	1	-42,212826	274,814422	281,18801	0
14.01.2021	20:03:57	0	0	4,74507	2,2995	71,9856	0,804	77,647	3,5	1005,74	7,4	9,3	9,1	1	1	1	1	1	1	1	1	1	0	1	-41,226216	274,635616	281,333768	0
14.01.2021	20:03:58	0	0	3,954225	2,256	67,6656	0,806	77,646	3,5	1005,74	7,4	9,3	9,1	1	1	1	1	1	1	1	1	1	0	1	-50,035236	274,635616	272,524748	0
14.01.2021	20:03:59	0	0	2,711468	2,31675	84,7944	0,806	77,635	3,5	1005,72	7,4	9,3	9,1	1	1	1	1	1	1	1	1	1	0	1	-43,692741	274,707864	279,206799	0
14.01.2021	20:04:00	0	0	4,406136	2,48775	89,334	0,806	77,64	3,5	1005,86	7,4	9,3	9,1	1	1	1	1	1	1	1	1	1	0	1	-44,749824	274,781929	278,498089	0
14.01.2021	20:04:01	0	0	4,406136	2,48775	89,334	0,806	77,64	3,5	1005,86	7,4	9,3	9,1	1	1	1	1	1	1	1	1	1	0	1	-44,749824	274,781929	278,498089	0
14.01.2021	20:04:02	0	0	3,276358	2,51175	87,3396	0,806	77,628	3,5	1005,7	7,4	9,3	9,1	1	1	1	1	1	1	1	1	1	0	1	-45,243129	274,761842	277,910273	0
14.01.2021	20:04:03	0	0	3,389336	2,45325	81,5976	0,805	77,623	3,5	1005,72	7,4	9,3	9,1	1	1	1	1	1	1	1	1	1	0	1	-44,538407	274,661717	278,144218	0
14.01.2021	20:04:04	0	0	4,519114	2,397	85,4964	0,803	77,63	3,5	1005,76	7,4	9,3	9,1	1	1	1	1	1	1	1	1	1	0	1	-44,256519	274,663253	278,433327	0
14.01.2021	20:04:05	0	0	5,196981	2,30175	84,06	0,803	77,627	3,5	1005,7	7,4	9,3	9,1	1	1	1	1	1	1	1	1	1	0	1	-46,793517	274,797395	276,527178	0
14.01.2021	20:04:06	0	0	4,406136	2,41275	76,9212	0,809	77,624	3,5	1005,74	7,4	9,3	9,1	1	1	1	1	1	1	1	1	1	0	1	-45,172657	274,751034	277,929904	0
14.01.2021	20:04:07	0	0	3,16338	2,358	77,5692	0,805	77,614	3,5	1005,6	7,4	9,3	9,1	1	1	1	1	1	1	1	1	1	0	1	-45,665962	274,783475	277,589226	0
14.01.2021	20:04:08	0	0	3,050402	2,346	74,5344	0,799	77,615	3,5	1005,68	7,4	9,3	9,1	1	1	1	1	1	1	1	1	1	0	1	-46,863989	274,817519	276,551427	0
14.01.2021	20:04:09	0	0	2,824446	2,35725	71,2296	0,801	77,627	3,5	1005,78	7,4	9,3	9,1	1	1	1	1	1	1	1	1	1	0	1	-42,98802	274,632547	279,557549	0
14.01.2021	20:04:10	0	0	3,615291	2,3205	80,5104	0,798	77,625	3,5	1005,88	7,4	9,3	9,1	1	1	1	1	1	1	1	1	1	0	1	-44,256519	274,686315	278,541716	0
14.01.2021	20:04:11	0	0	4,971026	2,235	92,2428	0,801	77,627	3,5	1005,74	7,4	9,3	9,1	1	1	1	1	1	1	1	1	1	0	1	-43,692741	274,798942	279,635235	0
14.01.2021	20:04:12	0	0	3,276358	2,2335	119,7792	0,803	77,653	3,5	1006,1	7,4	9,3	9,1	1	1	1	1	1	1	1	1	1	0	1	-47,075405	274,629479	275,455751	0
14.01.2021	20:04:13	0	0	4,067203	2,352	83,3616	0,797	77,616	3,5	1005,78	7,4	9,3	9,1	1	1	1	1	1	1	1	1	1	0	1	-43,692741	274,721729	279,271996	0
14.01.2021	20:04:14	0	0	4,293158	2,4225	98,4456	0,794	77,6	3,5	1005,74	7,4	9,3	9,1	1	1	1	1	1	1	1	1	1	0	1	-44,045102	274,809776	279,333868	0
14.01.2021	20:04:15	0	0	2,259557	2,3685	88,9596	0,792	77,611	3,5	1005,92	7,4	9,3	9,1	1	1	1	1	1	1	1	1	1	0	1	-44,186047	274,640219	278,395566	0
14.01.2021	20:04:16	0	0	3,615291	2,31375	87,3576	0,793	77,604	3,5	1005,76	7,4	9,3	9,1	1	1	1	1	1	1	1	1	1	0	1	-43,269908	274,632547	279,275661	0
14.01.2021	20:04:17	0	0	4,519114	2,29575	78,2604	0,789	77,597	3,5	1005,7	7,4	9,3	9,1	1	1	1	1	1	1	1	1	1	0	1	-44,115574	274,757209	279,016035	0
14.01.2021	20:04:18	0	0	4,406136	2,697	79,416	0,791	77,595	3,5	1005,78	7,4	9,3	9,1	1	1	1	1	1	1	1	1	1	0	1	-42,917548	274,794301	280,388585	0
14.01.2021	20:04:19	0	0	4,858048	2,844	77,2056	0,795	77,586	3,5	1005,8	7,4	9,3	9,1	1	1	1	1	1	1	1	1	1	0	1	-41,649049	274,640219	280,932563	0
14.01.2021	20:04:20	0	0	4,406136	2,71875	85,5288	0,788	77,595	3,5	1005,8	7,4	9,3	9,1	1	1	1	1	1	1	1	1	1	0	1	-48,414376	274,755665	274,70997	0
14.01.2021	20:04:21	0	0	3,16338	2,7645	108,5004	0,796	77,591	3,5	1005,76	7,4	9,3	9,1	1	1	1	1	1	1	1	1	1	0	1	-40,944327	274,80668	282,42007	0
14.01.2021	20:04:22	0	0	4,632092	2,94675	94,3956	0,792	77,588	3,5	1005,7	7,4	9,3	9,1	1	1	1	1	1	1	1	1	1	0	1	-41,508104	274,626412	281,008643	0
14.01.2021	20:04:23	0	0	3,276358	3,2145	101,52	0,793	77,578	3,5	1005,72	7,4	9,3	9,1	1	1	1	1	1	1	1	1	1	0	1	-40,169133	274,675549	282,5785	0
14.01.2021	20:04:24	0	0	3,841247	3,10575	107,0496	0,792	77,588	3,5	1005,86	7,4	9,3	9,1	1	1	1	1	1	1	1	1	1	0	1	-47,21635	274,640219	275,365263	0
14.01.2021	20:04:25	0	0	3,502313	3,006	104,436	0,79	77,581	3,5	1005,86	7,4	9,3	9,1	1	1	1	1	1	1	1	1	1	0	1	-43,199436	274,627946	279,324515	0
14.01.2021	20:04:26	0	0	2,824446	3,21975	102,5892	0,786	77,575	3,5	1005,78	7,4	9,3	9,1	1	1	1	1	1	1	1	1	1	0	1	-45,031712	274,672475	277,70147	0
14.01.2021	20:04:27	0	0	4,406136	3,3855	88,542	0,792	77,571	3,5	1005,72	7,4	9,3	9,1	1	1	1	1	1	1	1	1	1	0	1	-46,5821	274,751034	276,520461	0
14.01.2021	20:04:28	0	0	4,858048	3,57825	107,0532	0,788	77,575	3,5	1005,86	7,4	9,3	9,1	1	1	1	1	1	1	1	1	1	0	1	-42,565187	274,795848	280,748226	0
14.01.2021	20:04:29	0	0	5,196981	3,6525	102,582	0,79	77,574	3,5	1005,72	7,3	9,3	9,1	1	1	1	1	1	1	1	1	1	0	1	-43,481325	274,783475	279,773863	0
14.01.2021	20:04:30	0	0	3,841247	3,7545	103,6548	0,783	77,579	3,5	1005,76	7,4	9,3	9,1	1	1	1	1	1	1	1	1	1	0	1	-44,326991	274,709404	278,57979	0
14.01.2021	20:04:31	0	0	3,389336	4,11675	104,4252	0,783	77,581	3,5	1005,86	7,4	9,3	9,1	1	1	1	1	1	1	1	1	1	0	1	-45,877378	274,754121	277,239705	0
14.01.2021	20:04:32	0	0	2,598491	4,2795	107,0388	0,788	77,601	3,5	1005,78	7,4	9,3	9,1	1	1	1	1	1	1	1	1	1	0	1	-43,97463	274,798942	279,353347	0
14.01.2021	20:04:33	0	0	4,74507	4,4415	102,5748	0,787	77,619	3,5	1005,78	7,4	9,3	9,1	1	1	1	1	1	1	1	1	1	0	1	-42,071882	274,778837	281,161484	0
14.01.2021	20:04:34	0	0	4,406136	4,332	87,3576	0,776	77,628	3,5	1005,62	7,4	9,3	9,1	1	1	1	1	1	1	1	1	1	0	1	-43,269908	274,741775	279,789102	0
14.01.2021	20:04:35	0	0	3,502313	3,99675	88,9344	0,788	77,647	3,5	1005,88	7,4	9,3	9,1	1	1	1	1	1	1	1	1	1	0	1	-44,115574	274,627946	278,408377	0
14.01.2021	20:04:36	0	0	4,74507	3,74475	73,422	0,781	77,648	3,5	1005,66	7,4	9,3	9,1	1	1	1	1	1	1	1	1	1	0	1	-46,370684	274,643289	276,225351	0
14.01.2021	20:04:37	0	0	4,406136	3,3765	94,7484	0,784	77,667	3,5	1005,76	7,4	9,3	9,1	1	1	1	1	1	1	1	1	1	0	1	-44,467935	274,709404	278,438846	0
14.01.2021	20:04:38	0	0	3,276358	3,573	91,1664	0,787	77,679	3,5	1005,84	7,4	9,3	9,1	1	1	1	1	1	1	1	1	1	0	1	-44,186047	274,788114	279,090971	0
14.01.2021	20:04:39	0	0	3,954225	3,94725	87,3756	0,78	77,687	3,5	1005,8	7,4	9,3	9,1	1	1	1	1	1	1	1	1	1	0	1	-44,115574	274,788114	279,161443	0
14.01.2021	20:04:40	0	0	4,519114	4,14375	78,282	0,781	77,707	3,5	1005,84	7,4	9,3	9,1	1	1	1	1	1	1	1	1	1	0	1	-42,071882	274,795848	281,241532	0
14.01.2021	20:04:41	0	0	4,632092	4,24725	86,9796	0,779	77,728	3,5	1005,82	7,4	9,3	9,1	1	1	1	1	1	1	1	1	1	0	1	-44,749824	274,724812	278,229409	0
14.01.2021	20:04:42	0	0	4,406136	4,43625	101,2392	0,78	77,725	3,5	1005,76	7,3	9,3	9,1	1	1	1	1	1	1	1	1	1	0	1	-41,578576	274,795848	281,734837	0
14.01.2021	20:04:43	0	0	2,937424	4,64175	104,7708	0,783	77,753	3,5	1005,82	7,4	9,3	9,1	1	1	1	1	1	1	1	1	1	0	1	-42,706131	274,78966	280,578164	0
14.01.2021	20:04:44	0	0	4,632092	4,77825	98,7732	0,775	77,748	3,5	1005,68	7,4	9,3	9,1	1	1	1	1	1	1	1	1	1	0	1	-44,96124	274,772655	278,243038	0
14.01.2021	20:04:45	0	0	4,74507	4,99425	100,7568	0,781	77,762	3,5	1005,84	7,4	9,3	9,1	1	1	1	1	1	1	1	1	1	0	1	-43,833686	274,677087	278,921175	0
14.01.2021	20:04:46	0	0	2,824446	4,86375	101,898	0,78	77,784	3,5	1005,78	7,4	9,3	9,1	1	1	1	1	1	1	1	1	1	0	1	-45,665962	274,624879	276,843581	0
14.01.2021	20:04:47	0	0	4,180181	5,13525	92,2608	0,778	77,759	3,5	1005,72	7,4	9,3	9,1	1	1	1	1	1	1	1	1	1	0	1	-42,001409	274,769565	281,188329	0
14.01.2021	20:04:48	0	0	5,084003	5,20425	84,4056	0,771	77,781	3,5	1005,7	7,3	9,3	9,1	1	1	1	1	1	1	1	1	1	0	1	-48,20296	274,721729	274,761777	0
14.01.2021	20:04:49	0	0	4,632092	5,65275	92,2716	0,768	77,808	3,5	1005,88	7,4	9,3	9,1	1	1	1	1	1	1	1	1	1	0	1	-45,736434	274,63715	276,830759	0
14.01.2021	20:04:50	0	0	2,711468	5,73375	97,6968	0,775	77,832	3,5	1005,66	7,4	9,3	9,1	1	1	1	1	1	1	1	1	1	0	1	-46,652572	274,788114	276,624445	0
14.01.2021	20:04:51	0	0	2,824446	5,769	102,1788	0,779	77,856	3,5	1005,74	7,4	9,3	9,1	1	1	1	1	1	1	1	1	1	0	1	-44,890768	274,672475	277,842414	0
14.01.2021	20:04:52	0	0	4,180181	5,62575	102,5568	0,773	77,869	3,5	1005,86	7,4	9,3	9,1	1	1	1	1	1	1	1	1	1	0	1	-40,098661	274,677087	282,656199	0
14.01.2021	20:04:53	0	0	3,502313	5,49975	102,5352	0,778	77,887	3,5	1005,82	7,4	9,3	9,1	1	1	1	1	1	1	1	1	1	0	1	-42,635659	274,797395	280,685036	0
14.01.2021	20:04:54	0	0	2,598491	5,586	99,5292	0,781	77,895	3,5	1005,62	7,4	9,3	9,1	1	1	1	1	1	1	1	1	1	0	1	-51,726568	274,709404	271,180213	0
14.01.2021	20:04:55	0	0	4,519114	5,6625	100,7352	0,777	77,904	3,5	1005,8	7,4	9,3	9,1	1	1	1	1	1	1	1	1	1	0	1	-43,058492	274,788114	280,218525	0
14.01.2021	20:04:56	0	0	3,728247	5,4975	104,7816	0,777	77,928	3,5	1005,9	7,4	9,3	9,2	1	1	1	1	1	1	1	1	1	0	1	-49,541931	274,78966	273,742364	0
14.01.2021	20:04:57	0	0	4,519114	5,196	111,0312	0,778	77,934	3,5	1005,8	7,4	9,3	9,1	1	1	1	1	1	1	1	1	1	0	1	-42,071882	274,758753	281,066991	0
14.01.2021	20:04:58	0	0	2,485513	4,84425	100,7388	0,774	77,962	3,5	1005,86	7,4	9,3	9,1	1	1	1	1	1	1	1	1	1	0	1	-44,608879	274,791207	278,682694	0
14.01.2021	20:04:59	0	0	2,598475	4,71675	102,5712	0,775	77,97	3,5	1005,8	7,3	9,3	9,2	1	1	1	1	1	1	1	1	1	0	1	-44,326991	274,608018	278,103357	0
14.01.2021	20:05:00	0	0	3,615291	4,0155	100,3464	0,778	78,007	3,5	1005,68	7,4	9,3	9,1	1	1	1	1	1	1	1	1	1	0	1	-47,075405	274,758753	276,063468	0
14.01.2021	20:05:01	0	0	3,615291	4,0155	100,3464	0,778	78,007	3,5	1005,68	7,4	9,3	9,1	1	1	1	1	1	1	1	1	1	0	1	-47,075405	274,758753	276,063468	0
14.01.2021	20:05:02	0	0	3,502313	3,92775	94,1004	0,77	77,997	3,5	1005,78	7,4	9,3	9,1	1	1	1	1	1	1	1	1	1	0	1	-47,850599	274,800489	275,48466	0
14.01.2021	20:05:03	0	0	2,598491	4,107	87,7104	0,776	77,995	3,5	1005,72	7,3	9,3	9,1	1	1	1	1	1	1	1	1	1	0	1	-45,384073	274,6694	277,334661	0
14.01.2021	20:05:04	0	0	2,372535	4,326	77,9796	0,778	77,989	3,5	1005,76	7,4	9,3	9,1	1	1	1	1	1	1	1	1	1	0	1	-47,004933	274,7742	276,206616	0
14.01.2021	20:05:05	0	0	2,711468	4,35825	94,1076	0,778	77,983	3,5	1005,8	7,4	9,3	9,1	1	1	1	1	1	1	1	1	1	0	1	-46,652572	274,61568	275,813763	0
14.01.2021	20:05:06	0	0	4,632092	4,12875	96,2136	0,782	77,991	3,5	1005,86	7,3	9,3	9,1	1	1	1	1	1	1	1	1	1	0	1	-43,269908	274,754121	279,847175	0
14.01.2021	20:05:07	0	0	3,389336	4,14675	88,9416	0,77	77,996	3,5	1005,78	7,4	9,3	9,1	1	1	1	1	1	1	1	1	1	0	1	-45,243129	274,735605	277,786862	0
14.01.2021	20:05:08	0	0	3,276338	4,18125	85,1868	0,776	78,005	3,5	1005,7	7,4	9,3	9,2	1	1	1	1	1	1	1	1	1	0	1	-42,98802	274,606486	279,435132	0
14.01.2021	20:05:09	0	0	2,937424	4,2795	85,5324	0,773	78,016	3,5	1005,78	7,3	9,3	9,1	1	1	1	1	1	1	1	1	1	0	1	-43,551797	274,617213	278,921738	0
14.01.2021	20:05:10	0	0	3,389336	4,311	92,664	0,776	78,038	3,5	1005,88	7,3	9,3	9,1	1	1	1	1	1	1	1	1	1	0	1	-39,887245	274,650965	282,744857	0
14.01.2021	20:05:11	0	0	4,067203	4,3365	79,8372	0,773	78,041	3,5	1005,66	7,3	9,3	9,1	1	1	1	1	1	1	1	1	1	0	1	-44,679352	274,667863	278,032159	0
14.01.2021	20:05:12	0	0	4,74507	4,668	77,9652	0,775	78,034	3,5	1005,66	7,3	9,3	9,1	1	1	1	1	1	1	1	1	1	0	1	-45,031712	274,623345	277,470628	0
14.01.2021	20:05:13	0	0	2,711468	4,58025	78,2568	0,775	78,046	3,5	1005,66	7,3	9,3	9,1	1	1	1	1	1	1	1	1	1	0	1	-47,21635	274,627946	275,307602	0
14.01.2021	20:05:14	0	0	3,276377	4,41975	79,0128	0,775	78,056	3,5	1005,78	7,3	9,3	9	1	1	1	1	1	1	1	1	1	0	1	-47,639183	274,675549	275,108451	0
14.01.2021	20:05:15	0	0	4,180155	4,008	96,2388	0,775	78,066	3,5	1005,76	7,3	9,3	9,2	1	1	1	1	1	1	1	1	1	0	1	-46,5821	274,769565	276,607638	0
14.01.2021	20:05:16	0	0	4,745041	3,70875	94,8672	0,77	78,062	3,5	1005,66	7,4	9,3	9,2	1	1	1	1	1	1	1	1	1	0	1	-44,256519	274,783475	278,998669	0
14.01.2021	20:05:17	0	0	3,16338	3,4575	92,9304	0,776	78,071	3,5	1005,7	7,3	9,3	9,1	1	1	1	1	1	1	1	1	1	0	1	-46,5821	274,647894	276,035572	0
14.01.2021	20:05:18	0	0	2,937424	3,3525	84,7728	0,779	78,07	3,5	1005,82	7,4	9,3	9,1	1	1	1	1	1	1	1	1	1	0	1	-44,890768	274,712485	278,030498	0
14.01.2021	20:05:19	0	0	2,598491	3,33675	73,7892	0,778	78,052	3,5	1005,9	7,3	9,3	9,1	1	1	1	1	1	1	1	1	1	0	1	-43,128964	274,617213	279,344571	0
14.01.2021	20:05:20	0	0	3,276358	3,4575	78,2604	0,777	78,048	3,5	1005,78	7,4	9,3	9,1	1	1	1	1	1	1	1	1	1	0	1	-43,269908	274,805132	280,087203	0
14.01.2021	20:05:21	0	0	4,180181	3,86625	76,8204	0,775	78,017	3,5	1005,6	7,3	9,2	9,1	1	1	1	1	1	1	1	1	1	0	1	-49,048626	274,687853	273,756841	0
14.01.2021	20:05:22	0	0	2,485513	3,9435	71,3412	0,778	78,016	3,5	1005,64	7,3	9,3	9,1	1	1	1	1	1	1	1	1	1	0	1	-47,004933	274,786567	276,264807	0
14.01.2021	20:05:23	0	0	4,858048	3,70425	53,7372	0,774	77,987	3,5	1005,72	7,3	9,3	9,1	1	1	1	1	1	1	1	1	1	0	1	-42,283298	274,608018	280,147049	0
14.01.2021	20:05:24	0	0	2,824446	3,51525	56,2932	0,778	77,998	3,5	1005,76	7,3	9,3	9,1	1	1	1	1	1	1	1	1	1	0	1	-47,639183	274,769565	275,550556	0
14.01.2021	20:05:25	0	0	3,276358	3,6465	58,5036	0,775	77,988	3,5	1005,78	7,4	9,2	9,1	1	1	1	1	1	1	1	1	1	0	1	-46,793517	274,735605	276,236474	0
14.01.2021	20:05:26	0	0	2,485513	3,5955	50,6772	0,773	77,981	3,5	1005,64	7,3	9,3	9,1	1	1	1	1	1	1	1	1	1	0	1	-47,075405	274,797395	276,245289	0
14.01.2021	20:05:27	0	0	4,858048	3,96525	55,5516	0,776	77,958	3,5	1005,82	7,3	9,3	9,1	1	1	1	1	1	1	1	1	1	0	1	-46,018323	274,618746	276,462412	0
14.01.2021	20:05:28	0	0	4,180181	4,06125	48,1284	0,775	77,975	3,5	1005,72	7,3	9,2	9,1	1	1	1	1	1	1	1	1	1	0	1	-48,062016	274,652501	274,577301	0
14.01.2021	20:05:29	0	0	2,824429	4,035	37,6884	0,777	77,966	3,5	1005,72	7,3	9,3	9,2	1	1	1	1	1	1	1	1	1	0	1	-44,045102	274,670938	278,680856	0
14.01.2021	20:05:30	0	0	4,067203	3,97125	42,9192	0,772	77,947	3,5	1005,68	7,3	9,2	9,1	1	1	1	1	1	1	1	1	1	0	1	-45,877378	274,667863	276,834132	0
14.01.2021	20:05:31	0	0	2,598491	3,93	46,6056	0,775	77,945	3,5	1005,76	7,3	9,3	9,1	1	1	1	1	1	1	1	1	1	0	1	-47,004933	274,617213	275,468602	0
14.01.2021	20:05:32	0	0	2,711468	3,897	45,144	0,779	77,941	3,5	1005,74	7,4	9,3	9,1	1	1	1	1	1	1	1	1	1	0	1	-41,649049	274,737147	281,388196	0
14.01.2021	20:05:33	0	0	2,372535	3,87	42,9912	0,772	77,936	3,5	1005,7	7,3	9,3	9,1	1	1	1	1	1	1	1	1	1	0	1	-42,917548	274,63715	279,649645	0
14.01.2021	20:05:34	0	0	3,502292	3,876	35,8668	0,774	77,93	3,5	1005,84	7,3	9,2	9,2	1	1	1	1	1	1	1	1	1	0	1	-43,410853	274,78966	279,873442	0
14.01.2021	20:05:35	0	0	2,937424	3,77625	49,9428	0,776	77,935	3,5	1005,74	7,3	9,2	9,1	1	1	1	1	1	1	1	1	1	0	1	-47,21635	274,678625	275,545738	0
14.01.2021	20:05:36	0	0	3,16338	3,501	73,4544	0,781	77,935	3,5	1005,78	7,3	9,3	9,1	1	1	1	1	1	1	1	1	1	0	1	-51,937984	274,788114	271,339033	0
14.01.2021	20:05:37	0	0	3,050402	3,74175	66,9312	0,776	77,94	3,5	1005,6	7,3	9,3	9,1	1	1	1	1	1	1	1	1	1	0	1	-50,387597	274,624879	272,121946	0
14.01.2021	20:05:38	0	0	2,711485	3,74175	61,686	0,778	77,934	3,5	1005,9	7,3	9,2	9	1	1	1	1	1	1	1	1	1	0	1	-44,045102	274,78966	279,239193	0
14.01.2021	20:05:39	0	0	3,276358	3,402	41,4504	0,782	77,934	3,5	1005,82	7,3	9,3	9,1	1	1	1	1	1	1	1	1	1	0	1	-48,484848	274,629479	274,046308	0
14.01.2021	20:05:40	0	0	2,937424	3,35325	76,014	0,776	77,929	3,5	1005,84	7,3	9,2	9,1	1	1	1	1	1	1	1	1	1	0	1	-47,991543	274,667863	274,719967	0
14.01.2021	20:05:41	0	0	3,389315	3,441	73,0584	0,776	77,924	3,5	1005,88	7,4	9,3	9,2	1	1	1	1	1	1	1	1	1	0	1	-52,995067	274,778837	270,238298	0
14.01.2021	20:05:42	0	0	3,276338	3,66375	69,156	0,77	77,916	3,5	1005,56	7,3	9,2	9,2	1	1	1	1	1	1	1	1	1	0	1	-48,20296	274,654036	274,443573	0
14.01.2021	20:05:43	0	0	3,954201	4,3095	60,9336	0,773	77,934	3,5	1005,82	7,3	9,2	9,2	1	1	1	1	1	1	1	1	1	0	1	-47,21635	274,703244	275,661471	0
14.01.2021	20:05:44	0	0	4,180155	4,65225	68,814	0,776	77,916	3,5	1005,7	7,3	9,2	9,2	1	1	1	1	1	1	1	1	1	0	1	-44,397463	274,74949	278,697838	0
14.01.2021	20:05:45	0	0	4,180155	4,98	60,9408	0,773	77,916	3,5	1005,86	7,4	9,2	9,2	1	1	1	1	1	1	1	1	1	0	1	-48,978154	274,788114	274,298864	0
14.01.2021	20:05:46	0	0	2,711452	4,64025	64,6236	0,772	77,905	3,5	1005,8	7,4	9,2	9,2	1	1	1	1	1	1	1	1	1	0	1	-46,723044	274,623345	275,779296	0
14.01.2021	20:05:47	0	0	4,74507	4,4655	75,9708	0,767	77,882	3,5	1005,62	7,4	9,2	9,1	1	1	1	1	1	1	1	1	1	0	1	-46,370684	274,683238	276,41309	0
14.01.2021	20:05:48	0	0	3,389315	5,031	81,5868	0,771	77,893	3,5	1005,72	7,4	9,3	9,2	1	1	1	1	1	1	1	1	1	0	1	-48,273432	274,604954	274,142525	0
14.01.2021	20:05:49	0	0	3,050402	4,698	98,406	0,773	77,879	3,5	1005,88	7,3	9,2	9,1	1	1	1	1	1	1	1	1	1	0	1	-47,56871	274,64943	275,056176	0
14.01.2021	20:05:50	0	0	3,502292	4,1625	82,9728	0,763	77,854	3,5	1005,68	7,4	9,2	9,2	1	1	1	1	1	1	1	1	1	0	1	-48,343904	274,626412	274,172843	0
14.01.2021	20:05:51	0	0	2,824429	4,614	84,0348	0,768	77,864	3,5	1005,86	7,3	9,2	9,2	1	1	1	1	1	1	1	1	1	0	1	-44,326991	274,591172	278,024245	0
14.01.2021	20:05:52	0	0	4,858019	5,082	81,2124	0,773	77,866	3,5	1005,68	7,3	9,3	9,2	1	1	1	1	1	1	1	1	1	0	1	-50,951374	274,737147	272,08587	0
14.01.2021	20:05:53	0	0	2,598475	5,1585	86,2812	0,774	77,867	3,5	1005,76	7,4	9,2	9,2	1	1	1	1	1	1	1	1	1	0	1	-45,384073	274,63715	277,183119	0
14.01.2021	20:05:54	0	0	2,711468	4,87125	98,0784	0,77	77,871	3,5	1005,76	7,3	9,2	9,1	1	1	1	1	1	1	1	1	1	0	1	-45,665962	274,600359	276,728415	0
14.01.2021	20:05:55	0	0	2,598491	5,157	91,224	0,77	77,882	3,5	1005,94	7,4	9,3	9,1	1	1	1	1	1	1	1	1	1	0	1	-47,56871	274,732521	275,446775	0
14.01.2021	20:05:56	0	0	4,519114	5,9985	82,5948	0,769	77,87	3,5	1005,86	7,3	9,3	9,1	1	1	1	1	1	1	1	1	1	0	1	-42,142354	274,66479	280,554713	0
14.01.2021	20:05:57	0	0	3,050402	5,98725	73,0584	0,768	77,875	3,5	1005,94	7,4	9,2	9,1	1	1	1	1	1	1	1	1	1	0	1	-51,585624	274,61568	270,880712	0
14.01.2021	20:05:58	0	0	4,858019	5,895	85,1688	0,767	77,867	3,5	1005,7	7,4	9,3	9,2	1	1	1	1	1	1	1	1	1	0	1	-46,652572	274,775746	276,566248	0
14.01.2021	20:05:59	0	0	4,519141	5,7735	90,0288	0,77	77,865	3,5	1005,82	7,3	9,2	9	1	1	1	1	1	1	1	1	1	0	1	-45,102185	274,723271	277,8698	0
14.01.2021	20:06:00	0	0	3,728292	6,93525	68,0184	0,769	77,872	3,5	1005,82	7,4	9,2	9	1	1	1	1	1	1	1	1	1	0	1	-45,313601	274,792754	277,985252	0
14.01.2021	20:06:01	0	0	3,502313	6,67575	74,9196	0,769	77,88	3,5	1005,62	7,4	9,3	9,1	1	1	1	1	1	1	1	1	1	0	1	-44,115574	274,720188	278,841916	0
14.01.2021	20:06:02	0	0	3,502313	6,67575	74,9196	0,769	77,88	3,5	1005,62	7,4	9,3	9,1	1	1	1	1	1	1	1	1	1	0	1	-44,115574	274,720188	278,841916	0
14.01.2021	20:06:03	0	0	2,711452	6,36525	79,4592	0,763	77,891	3,5	1005,74	7,4	9,3	9,2	1	1	1	1	1	1	1	1	1	0	1	-45,806906	274,606486	276,616246	0
14.01.2021	20:06:04	0	0	2,259557	5,922	86,2848	0,767	77,896	3,5	1005,78	7,3	9,2	9,1	1	1	1	1	1	1	1	1	1	0	1	-47,286822	274,777291	275,939271	0
14.01.2021	20:06:05	0	0	4,632064	5,91675	95,1264	0,76	77,899	3,5	1005,7	7,3	9,3	9,2	1	1	1	1	1	1	1	1	1	0	1	-45,172657	274,730979	277,835576	0
14.01.2021	20:06:06	0	0	3,841247	6,2595	92,6316	0,758	77,903	3,5	1005,88	7,3	9,2	9,1	1	1	1	1	1	1	1	1	1	0	1	-44,467935	274,710944	278,446088	0
14.01.2021	20:06:07	0	0	2,824429	6,19725	86,274	0,761	77,904	3,5	1005,78	7,3	9,2	9,2	1	1	1	1	1	1	1	1	1	0	1	-46,159267	274,608018	276,27108	0
14.01.2021	20:06:08	0	0	3,502292	6,1455	79,7436	0,76	77,908	3,5	1005,8	7,4	9,3	9,2	1	1	1	1	1	1	1	1	1	0	1	-45,806906	274,632547	276,738663	0
14.01.2021	20:06:09	0	0	4,63212	5,8335	89,712	0,762	77,935	3,5	1005,62	7,4	9,3	9	1	1	1	1	1	1	1	1	1	0	1	-42,424242	274,672475	280,30894	0
14.01.2021	20:06:10	0	0	2,824429	5,42775	90,774	0,766	77,967	3,5	1005,9	7,4	9,2	9,2	1	1	1	1	1	1	1	1	1	0	1	-45,454545	274,740232	277,597209	0
14.01.2021	20:06:11	0	0	4,519114	5,88825	84,8124	0,766	77,961	3,5	1005,74	7,4	9,2	9,1	1	1	1	1	1	1	1	1	1	0	1	-41,36716	274,594233	280,998453	0
14.01.2021	20:06:12	0	0	2,711468	6,204	83,718	0,765	77,965	3,5	1005,7	7,4	9,2	9,1	1	1	1	1	1	1	1	1	1	0	1	-47,145877	274,712485	275,775389	0
14.01.2021	20:06:13	0	0	2,598491	6,288	82,5912	0,765	77,982	3,5	1005,82	7,4	9,2	9,1	1	1	1	1	1	1	1	1	1	0	1	-43,833686	274,640219	278,747926	0
14.01.2021	20:06:14	0	0	4,63212	6,0765	82,3464	0,766	77,998	3,5	1005,9	7,4	9,2	9	1	1	1	1	1	1	1	1	1	0	1	-50,387597	274,795848	272,925816	0
14.01.2021	20:06:15	0	0	4,858048	6,13875	78,2712	0,762	77,998	3,5	1005,66	7,4	9,2	9,1	1	1	1	1	1	1	1	1	1	0	1	-43,763214	274,758753	279,375659	0
14.01.2021	20:06:16	0	0	2,598475	5,901	83,358	0,765	78,013	3,5	1005,8	7,4	9,3	9,2	1	1	1	1	1	1	1	1	1	0	1	-45,384073	274,626412	277,132674	0
14.01.2021	20:06:17	0	0	4,406136	5,75775	80,2404	0,762	78,025	3,5	1005,82	7,4	9,2	9,1	1	1	1	1	1	1	1	1	1	0	1	-43,904158	274,783475	279,35103	0
14.01.2021	20:06:18	0	0	3,050384	5,682	78,282	0,766	78,035	3,5	1005,76	7,4	9,3	9,2	1	1	1	1	1	1	1	1	1	0	1	-46,441156	274,781929	276,806757	0
14.01.2021	20:06:19	0	0	3,841247	5,40375	74,9268	0,763	78,028	3,5	1005,74	7,4	9,2	9,1	1	1	1	1	1	1	1	1	1	0	1	-41,930937	274,683238	280,852837	0
14.01.2021	20:06:20	0	0	4,067203	5,09025	78,3072	0,765	78,036	3,5	1005,84	7,4	9,2	9,1	1	1	1	1	1	1	1	1	1	0	1	-45,031712	274,638685	277,54269	0
14.01.2021	20:06:21	0	0	2,824446	4,65375	85,266	0,76	78,051	3,5	1005,74	7,4	9,4	9,1	1	1	1	1	1	1	1	1	1	0	1	-44,820296	274,78966	278,463999	0
14.01.2021	20:06:22	0	0	2,937407	4,173	91,8936	0,754	78,049	3,5	1005,88	7,4	9,2	9,2	1	1	1	1	1	1	1	1	1	0	1	-47,850599	274,786567	275,419141	0
14.01.2021	20:06:23	0	0	4,74507	3,7515	78,642	0,764	78,079	3,5	1005,8	7,3	9,3	9,1	1	1	1	1	1	1	1	1	1	0	1	-44,256519	274,694008	278,577881	0
14.01.2021	20:06:24	0	0	2,711452	3,49875	85,5108	0,761	78,082	3,5	1005,84	7,4	9,3	9,2	1	1	1	1	1	1	1	1	1	0	1	-45,59549	274,788114	277,681527	0
14.01.2021	20:06:25	0	0	4,180181	3,70575	84,4344	0,769	78,086	3,5	1005,84	7,4	9,2	9,1	1	1	1	1	1	1	1	1	1	0	1	-42,706131	274,620279	279,781805	0
14.01.2021	20:06:26	0	0	2,937424	4,43175	90,0396	0,764	78,069	3,5	1005,98	7,5	9,3	9,1	1	1	1	1	1	1	1	1	1	0	1	-44,679352	274,63715	277,887841	0
14.01.2021	20:06:27	0	0	4,519141	5,052	87,336	0,764	78,064	3,5	1005,68	7,3	9,2	9	1	1	1	1	1	1	1	1	1	0	1	-43,833686	274,732521	279,181799	0
14.01.2021	20:06:28	0	0	3,16338	5,2185	107,1396	0,766	78,091	3,5	1006	7,4	9,2	9,1	1	1	1	1	1	1	1	1	1	0	1	-52,854123	274,754121	270,262961	0
14.01.2021	20:06:29	0	0	3,728269	5,0355	103,2984	0,77	78,084	3,5	1005,76	7,3	9,2	9,1	1	1	1	1	1	1	1	1	1	0	1	-45,384073	274,795848	277,92934	0
14.01.2021	20:06:30	0	0	2,937407	5,07525	104,4648	0,767	78,076	3,5	1005,9	7,4	9,3	9,2	1	1	1	1	1	1	1	1	1	0	1	-47,850599	274,612615	274,601339	0
14.01.2021	20:06:31	0	0	4,519114	5,07525	103,6692	0,76	78,078	3,5	1005,78	7,4	9,2	9,1	1	1	1	1	1	1	1	1	1	0	1	-49,119098	274,760297	274,027039	0
14.01.2021	20:06:32	0	0	2,598491	5,271	96,2244	0,761	78,073	3,5	1005,84	7,4	9,2	9,1	1	1	1	1	1	1	1	1	1	0	1	-42,071882	274,720188	280,885608	0
14.01.2021	20:06:33	0	0	2,937424	5,71575	99,1548	0,766	78,086	3,5	1005,82	7,4	9,2	9,1	1	1	1	1	1	1	1	1	1	0	1	-41,508104	274,692469	281,319061	0
14.01.2021	20:06:34	0	0	2,711468	5,382	98,0964	0,76	78,075	3,5	1005,74	7,3	9,2	9,1	1	1	1	1	1	1	1	1	1	0	1	-44,749824	274,611082	277,694917	0
14.01.2021	20:06:35	0	0	2,937424	5,20875	86,6628	0,767	78,073	3,5	1005,74	7,4	9,2	9,1	1	1	1	1	1	1	1	1	1	0	1	-43,199436	274,730979	279,808797	0
14.01.2021	20:06:36	0	0	4,406136	5,06925	99,1224	0,769	78,091	3,5	1005,9	7,4	9,3	9,1	1	1	1	1	1	1	1	1	1	0	1	-47,286822	274,672475	275,446361	0
14.01.2021	20:06:37	0	0	2,937407	4,33875	98,4636	0,764	78,085	3,5	1005,76	7,4	9,2	9,2	1	1	1	1	1	1	1	1	1	0	1	-42,283298	274,781929	280,964615	0
14.01.2021	20:06:38	0	0	4,858048	4,056	100,7352	0,764	78,091	3,5	1005,68	7,4	9,3	9,1	1	1	1	1	1	1	1	1	1	0	1	-45,454545	274,795848	277,858868	0
14.01.2021	20:06:39	0	0	3,615291	4,65	103,2732	0,758	78,093	3,5	1005,68	7,4	9,3	9,1	1	1	1	1	1	1	1	1	1	0	1	-44,045102	274,727895	278,948629	0
14.01.2021	20:06:40	0	0	3,841247	5,09325	94,0896	0,765	78,094	3,5	1005,82	7,4	9,2	9,1	1	1	1	1	1	1	1	1	1	0	1	-45,877378	274,766475	277,297824	0
14.01.2021	20:06:41	0	0	5,422937	5,208	94,7556	0,757	78,11	3,5	1005,76	7,4	9,3	9,1	1	1	1	1	1	1	1	1	1	0	1	-44,679352	274,781929	278,568561	0
14.01.2021	20:06:42	0	0	4,519087	5,187	99,5256	0,761	78,125	3,5	1005,78	7,3	9,2	9,2	1	1	1	1	1	1	1	1	1	0	1	-43,058492	274,800489	280,276767	0
14.01.2021	20:06:43	0	0	3,615291	5,1075	90,5004	0,766	78,141	3,5	1005,74	7,4	9,2	9,1	1	1	1	1	1	1	1	1	1	0	1	-45,806906	274,63715	276,760286	0
14.01.2021	20:06:44	0	0	4,74507	4,9065	83,7036	0,765	78,139	3,5	1005,74	7,3	9,2	9,1	1	1	1	1	1	1	1	1	1	0	1	-46,159267	274,690931	276,660665	0
14.01.2021	20:06:45	0	0	3,16338	4,69725	80,1396	0,769	78,155	3,5	1005,92	7,4	9,3	9,1	1	1	1	1	1	1	1	1	1	0	1	-45,313601	274,791207	277,977972	0
14.01.2021	20:06:46	0	0	4,067203	4,347	77,9472	0,764	78,145	3,5	1005,88	7,4	9,2	9,1	1	1	1	1	1	1	1	1	1	0	1	-49,330514	274,777291	273,895578	0
14.01.2021	20:06:47	0	0	4,406136	3,9045	92,6316	0,76	78,147	3,5	1005,68	7,4	9,3	9,1	1	1	1	1	1	1	1	1	1	0	1	-44,115574	274,697086	278,733296	0
14.01.2021	20:06:48	0	0	4,519114	3,80475	88,9344	0,762	78,156	3,5	1005,74	7,4	9,3	9,1	1	1	1	1	1	1	1	1	1	0	1	-46,511628	274,809776	276,867343	0
14.01.2021	20:06:49	0	0	2,372535	3,705	91,1628	0,763	78,136	3,5	1005,52	7,4	9,2	9,1	1	1	1	1	1	1	1	1	1	0	1	-45,243129	274,663253	277,446716	0
14.01.2021	20:06:50	0	0	3,050402	3,7035	95,8392	0,768	78,125	3,5	1005,86	7,4	9,3	9,1	1	1	1	1	1	1	1	1	1	0	1	-45,384073	274,654036	277,26246	0
14.01.2021	20:06:51	0	0	4,971026	3,945	84,0132	0,768	78,126	3,5	1005,82	7,3	9,2	9,1	1	1	1	1	1	1	1	1	1	0	1	-44,679352	274,626412	277,837395	0
14.01.2021	20:06:52	0	0	4,519114	3,687	88,9596	0,767	78,134	3,5	1005,74	7,4	9,3	9,1	1	1	1	1	1	1	1	1	1	0	1	-47,357294	274,683238	275,42648	0
14.01.2021	20:06:53	0	0	4,745041	3,40425	74,9232	0,76	78,138	3,5	1005,76	7,3	9,2	9,2	1	1	1	1	1	1	1	1	1	0	1	-48,343904	274,618746	274,136831	0
14.01.2021	20:06:54	0	0	3,728269	3,2715	86,9868	0,768	78,149	3,5	1005,78	7,4	9,3	9,1	1	1	1	1	1	1	1	1	1	0	1	-46,229739	274,61568	276,236596	0
14.01.2021	20:06:55	0	0	2,937424	3,393	85,5288	0,767	78,138	3,5	1005,84	7,4	9,2	9,1	1	1	1	1	1	1	1	1	1	0	1	-47,004933	274,654036	275,6416	0
14.01.2021	20:06:56	0	0	4,067203	3,34125	122,0292	0,765	78,14	3,5	1005,78	7,4	9,3	9,1	1	1	1	1	1	1	1	1	1	0	1	-45,172657	274,627946	277,351295	0
14.01.2021	20:06:57	0	0	4,632092	3,03	91,8828	0,763	78,145	3,5	1005,8	7,4	9,2	9,1	1	1	1	1	1	1	1	1	1	0	1	-42,283298	274,792754	281,015555	0
14.01.2021	20:06:58	0	0	4,519114	2,79675	114,4476	0,766	78,142	3,5	1005,9	7,3	9,2	9,1	1	1	1	1	1	1	1	1	1	0	1	-43,199436	274,712485	279,72183	0
14.01.2021	20:06:59	0	0	2,485513	2,661	113,0256	0,763	78,121	3,5	1005,78	7,4	9,3	9,1	1	1	1	1	1	1	1	1	1	0	1	-45,172657	274,788114	278,10436	0
14.01.2021	20:07:00	0	0	4,293158	3,91425	104,7672	0,767	78,132	3,5	1005,82	7,4	9,2	9,1	1	1	1	1	1	1	1	1	1	0	1	-42,283298	274,744861	280,790226	0
14.01.2021	20:07:01	0	0	3,728269	5,0175	116,028	0,76	78,126	3,5	1005,76	7,3	9,3	9,1	1	1	1	1	1	1	1	1	1	0	1	-42,283298	274,744861	280,790226	0
14.01.2021	20:07:02	0	0	3,728269	5,0175	116,028	0,76	78,126	3,5	1005,76	7,3	9,3	9,1	1	1	1	1	1	1	1	1	1	0	1	-44,96124	274,657108	277,699727	0
14.01.2021	20:07:03	0	0	3,502313	5,26875	105,498	0,764	78,139	3,5	1005,7	7,4	9,3	9,1	1	1	1	1	1	1	1	1	1	0	1	-45,243129	274,698626	277,612978	0
14.01.2021	20:07:04	0	0	2,485513	4,773	104,7564	0,767	78,138	3,5	1005,76	7,4	9,3	9,1	1	1	1	1	1	1	1	1	1	0	1	-48,484848	274,631013	274,053514	0
14.01.2021	20:07:05	0	0	2,598491	4,7925	115,9524	0,763	78,154	3,5	1005,76	7,4	9,3	9,1	1	1	1	1	1	1	1	1	1	0	1	-48,625793	274,785021	274,636671	0
14.01.2021	20:07:06	0	0	2,937424	5,03475	108,4968	0,769	78,152	3,5	1005,8	7,4	9,3	9,1	1	1	1	1	1	1	1	1	1	0	1	-42,001409	274,715566	280,934344	0
14.01.2021	20:07:07	0	0	2,824446	4,93275	106,3044	0,763	78,156	3,5	1005,74	7,4	9,3	9,1	1	1	1	1	1	1	1	1	1	0	1	-42,847075	274,727895	280,146656	0
14.01.2021	20:07:08	0	0	2,598491	4,9005	98,4456	0,765	78,16	3,5	1005,84	7,4	9,3	9,1	1	1	1	1	1	1	1	1	1	0	1	-44,749824	274,766475	278,425378	0
14.01.2021	20:07:09	0	0	2,485513	5,148	92,646	0,765	78,151	3,5	1005,84	7,3	9,3	9,1	1	1	1	1	1	1	1	1	1	0	1	-46,441156	274,689392	276,371543	0
14.01.2021	20:07:10	0	0	4,519114	5,3235	86,652	0,768	78,151	3,5	1005,94	7,4	9,3	9,1	1	1	1	1	1	1	1	1	1	0	1	-45,313601	274,631013	277,224761	0
14.01.2021	20:07:11	0	0	3,841247	5,175	90,4032	0,763	78,143	3,5	1005,74	7,3	9,3	9,1	1	1	1	1	1	1	1	1	1	0	1	-46,441156	274,809776	276,937815	0
14.01.2021	20:07:12	0	0	4,293158	4,9815	78,354	0,761	78,124	3,5	1005,7	7,4	9,3	9,1	1	1	1	1	1	1	1	1	1	0	1	-44,186047	274,737147	278,851198	0
14.01.2021	20:07:13	0	0	3,389336	4,83075	84,024	0,762	78,124	3,5	1005,76	7,3	9,3	9,1	1	1	1	1	1	1	1	1	1	0	1	-43,692741	274,792754	279,606111	0
14.01.2021	20:07:14	0	0	3,050402	4,7535	82,584	0,767	78,124	3,5	1005,86	7,4	9,2	9,1	1	1	1	1	1	1	1	1	1	0	1	-48,696265	274,641754	273,892558	0
14.01.2021	20:07:15	0	0	2,598491	4,31775	90,0036	0,77	78,112	3,5	1005,68	7,4	9,2	9,1	1	1	1	1	1	1	1	1	1	0	1	-43,763214	274,775746	279,455607	0
14.01.2021	20:07:16	0	0	4,293158	4,119	95,8104	0,768	78,091	3,5	1005,92	7,4	9,3	9,1	1	1	1	1	1	1	1	1	1	0	1	-44,608879	274,61568	277,857456	0
14.01.2021	20:07:17	0	0	2,937424	4,242	99,5292	0,769	78,1	3,5	1005,9	7,4	9,3	9,1	1	1	1	1	1	1	1	1	1	0	1	-47,357294	274,644824	275,245952	0
14.01.2021	20:07:18	0	0	2,598491	4,59975	100,764	0,771	78,096	3,5	1005,8	7,4	9,3	9,1	1	1	1	1	1	1	1	1	1	0	1	-47,075405	274,732521	275,94008	0
14.01.2021	20:07:19	0	0	2,711468	5,1015	92,2572	0,768	78,068	3,5	1005,64	7,4	9,3	9,1	1	1	1	1	1	1	1	1	1	0	1	-42,071882	274,634082	280,480895	0
14.01.2021	20:07:20	0	0	4,293158	5,05725	96,5772	0,768	78,061	3,5	1005,82	7,4	9,3	9,1	1	1	1	1	1	1	1	1	1	0	1	-45,877378	274,772655	277,3269	0
14.01.2021	20:07:21	0	0	4,180181	4,77975	92,9592	0,762	78,065	3,5	1005,84	7,4	9,3	9,1	1	1	1	1	1	1	1	1	1	0	1	-43,622269	274,747947	279,465772	0
14.01.2021	20:07:22	0	0	3,276358	4,479	95,1696	0,768	78,054	3,5	1005,92	7,3	9,3	9,1	1	1	1	1	1	1	1	1	1	0	1	-46,723044	274,626412	275,793703	0
14.01.2021	20:07:23	0	0	4,858048	4,341	98,4492	0,767	78,051	3,5	1005,82	7,4	9,3	9,1	1	1	1	1	1	1	1	1	1	0	1	-47,56871	274,694008	275,265689	0
14.01.2021	20:07:24	0	0	2,711468	4,37325	92,2572	0,76	78,032	3,5	1005,62	7,4	9,3	9,1	1	1	1	1	1	1	1	1	1	0	1	-46,229739	274,797395	277,090955	0
14.01.2021	20:07:25	0	0	4,180181	4,1565	93,708	0,767	78,048	3,5	1006	7,4	9,3	9,1	1	1	1	1	1	1	1	1	1	0	1	-44,890768	274,781929	278,357145	0
14.01.2021	20:07:26	0	0	5,309959	4,404	92,952	0,764	78,024	3,5	1005,68	7,4	9,2	9,1	1	1	1	1	1	1	1	1	1	0	1	-45,384073	274,694008	277,450326	0
14.01.2021	20:07:27	0	0	2,937424	4,659	90,792	0,761	78,042	3,5	1005,76	7,3	9,3	9,1	1	1	1	1	1	1	1	1	1	0	1	-44,820296	274,626412	277,696451	0
14.01.2021	20:07:28	0	0	3,502313	4,8795	92,9376	0,764	78,017	3,5	1005,72	7,3	9,3	9,1	1	1	1	1	1	1	1	1	1	0	1	-48,414376	274,792754	274,884476	0
14.01.2021	20:07:29	0	0	3,16338	4,75125	90,7956	0,759	78,01	3,5	1005,74	7,4	9,3	9,1	1	1	1	1	1	1	1	1	1	0	1	-43,904158	274,667863	278,807353	0
14.01.2021	20:07:30	0	0	2,485513	4,80225	84,4272	0,768	78,029	3,5	1005,92	7,4	9,3	9,1	1	1	1	1	1	1	1	1	1	0	1	-43,128964	274,743318	279,937303	0
14.01.2021	20:07:31	0	0	3,841247	4,99575	88,9632	0,764	78,047	3,5	1005,8	7,4	9,3	9,1	1	1	1	1	1	1	1	1	1	0	1	-44,186047	274,764931	278,981888	0
14.01.2021	20:07:32	0	0	5,084003	4,992	87,3396	0,765	78,028	3,5	1005,62	7,4	9,3	9,1	1	1	1	1	1	1	1	1	1	0	1	-44,115574	274,672475	278,617608	0
14.01.2021	20:07:33	0	0	4,632092	5,2125	86,2956	0,766	78,038	3,5	1005,76	7,4	9,3	9,1	1	1	1	1	1	1	1	1	1	0	1	-48,907681	274,597296	273,472312	0
14.01.2021	20:07:34	0	0	4,180181	5,70825	90,7992	0,765	78,025	3,5	1005,58	7,4	9,3	9,1	1	1	1	1	1	1	1	1	1	0	1	-40,451022	274,755665	282,673324	0
14.01.2021	20:07:35	0	0	4,632092	6,02925	95,8248	0,759	78,022	3,5	1005,8	7,4	9,3	9,1	1	1	1	1	1	1	1	1	1	0	1	-41,578576	274,658644	281,08961	0
14.01.2021	20:07:36	0	0	2,598491	5,76525	92,9556	0,765	78,014	3,5	1005,76	7,4	9,3	9,1	1	1	1	1	1	1	1	1	1	0	1	-42,565187	274,794301	280,740946	0
14.01.2021	20:07:37	0	0	4,406136	5,8485	101,4552	0,764	78,017	3,5	1005,76	7,4	9,3	9,1	1	1	1	1	1	1	1	1	1	0	1	-48,273432	274,792754	275,025421	0
14.01.2021	20:07:38	0	0	4,519114	6,11925	92,9988	0,761	78,013	3,5	1005,68	7,4	9,3	9,1	1	1	1	1	1	1	1	1	1	0	1	-44,326991	274,720188	278,630499	0
14.01.2021	20:07:39	0	0	2,598491	5,8485	100,7244	0,761	78,018	3,5	1005,7	7,4	9,3	9,1	1	1	1	1	1	1	1	1	1	0	1	-48,414376	274,612615	274,037562	0
14.01.2021	20:07:40	0	0	2,711468	6,04425	103,3128	0,764	78,018	3,5	1005,92	7,4	9,3	9,1	1	1	1	1	1	1	1	1	1	0	1	-47,56871	274,640219	275,012902	0
14.01.2021	20:07:41	0	0	3,16338	6,25575	90,7884	0,759	78,024	3,5	1005,78	7,4	9,3	9,1	1	1	1	1	1	1	1	1	1	0	1	-45,313601	274,721729	277,651136	0
14.01.2021	20:07:42	0	0	4,406136	6,15075	90,4248	0,763	78,033	3,5	1005,68	7,4	9,3	9,1	1	1	1	1	1	1	1	1	1	0	1	-42,98802	274,624879	279,521524	0
14.01.2021	20:07:43	0	0	4,519114	5,66175	101,1312	0,765	78,046	3,5	1005,84	7,4	9,3	9,1	1	1	1	1	1	1	1	1	1	0	1	-41,649049	274,614147	280,810088	0
14.01.2021	20:07:44	0	0	4,293158	5,23575	86,9796	0,763	78,048	3,5	1005,84	7,4	9,3	9,1	1	1	1	1	1	1	1	1	1	0	1	-47,004933	274,704784	275,880126	0
14.01.2021	20:07:45	0	0	2,711468	4,50375	70,8588	0,766	78,061	3,5	1005,78	7,4	9,3	9,1	1	1	1	1	1	1	1	1	1	0	1	-50,528541	274,617213	271,944994	0
14.01.2021	20:07:46	0	0	2,372535	3,972	100,3644	0,764	78,058	3,5	1005,84	7,4	9,3	9,1	1	1	1	1	1	1	1	1	1	0	1	-46,441156	274,614147	276,017981	0
14.01.2021	20:07:47	0	0	4,180181	4,281	98,478	0,764	78,081	3,5	1005,72	7,4	9,3	9,1	1	1	1	1	1	1	1	1	1	0	1	-43,199436	274,674012	279,540971	0
14.01.2021	20:07:48	0	0	2,711468	4,02075	87,3648	0,762	78,081	3,5	1005,78	7,4	9,3	9,1	1	1	1	1	1	1	1	1	1	0	1	-47,498238	274,794301	275,807894	0
14.01.2021	20:07:49	0	0	3,16338	3,8325	98,5104	0,769	78,102	3,5	1005,8	7,4	9,3	9,1	1	1	1	1	1	1	1	1	1	0	1	-46,088795	274,777291	277,137297	0
14.01.2021	20:07:50	0	0	3,16338	3,7035	108,1152	0,764	78,112	3,5	1005,86	7,4	9,3	9,1	1	1	1	1	1	1	1	1	1	0	1	-44,96124	274,723271	278,010744	0
14.01.2021	20:07:51	0	0	3,615291	3,762	115,9668	0,765	78,127	3,5	1005,74	7,4	9,3	9,1	1	1	1	1	1	1	1	1	1	0	1	-43,269908	274,64943	279,354978	0
14.01.2021	20:07:52	0	0	3,276358	3,89625	110,358	0,766	78,124	3,5	1005,84	7,4	9,3	9,1	1	1	1	1	1	1	1	1	1	0	1	-45,384073	274,802037	277,958469	0
14.01.2021	20:07:53	0	0	3,276358	4,113	95,1264	0,763	78,141	3,5	1005,86	7,4	9,3	9,1	1	1	1	1	1	1	1	1	1	0	1	-48,273432	274,710944	274,640591	0
14.01.2021	20:07:54	0	0	4,293158	4,60875	77,58	0,769	78,136	3,5	1005,76	7,4	9,3	9,1	1	1	1	1	1	1	1	1	1	0	1	-47,709655	274,620279	274,778281	0
14.01.2021	20:07:55	0	0	2,824446	4,66275	62,0208	0,762	78,143	3,5	1005,84	7,4	9,3	9,1	1	1	1	1	1	1	1	1	1	0	1	-49,260042	274,644824	273,343204	0
14.01.2021	20:07:56	0	0	2,937424	4,30575	84,024	0,763	78,131	3,5	1005,86	7,4	9,3	9,1	1	1	1	1	1	1	1	1	1	0	1	-47,427766	274,658644	275,24042	0
14.01.2021	20:07:57	0	0	4,180181	4,04925	61,3224	0,763	78,142	3,5	1005,68	7,4	9,3	9,1	1	1	1	1	1	1	1	1	1	0	1	-44,115574	274,805132	279,241537	0
14.01.2021	20:07:58	0	0	2,711468	4,23975	72,6876	0,763	78,127	3,5	1005,84	7,4	9,3	9,1	1	1	1	1	1	1	1	1	1	0	1	-47,145877	274,6817	275,630667	0
14.01.2021	20:07:59	0	0	4,519114	4,053	64,6344	0,767	78,144	3,5	1006	7,4	9,3	9,1	1	1	1	1	1	1	1	1	1	0	1	-46,370684	274,620279	276,117253	0
14.01.2021	20:08:00	0	0	3,16338	3,9345	62,4024	0,764	78,137	3,5	1005,78	7,4	9,3	9,1	1	1	1	1	1	1	1	1	1	0	1	-45,947851	274,798942	277,380126	0
14.01.2021	20:08:01	0	0	3,16338	3,9345	62,4024	0,764	78,137	3,5	1005,78	7,4	9,3	9,1	1	1	1	1	1	1	1	1	1	0	1	-45,947851	274,798942	277,380126	0
14.01.2021	20:08:02	0	0	2,711468	3,94125	65,4444	0,765	78,137	3,5	1005,78	7,4	9,3	9,1	1	1	1	1	1	1	1	1	1	0	1	-48,343904	274,677087	274,410956	0
14.01.2021	20:08:03	0	0	4,858048	3,708	59,0976	0,761	78,117	3,5	1005,7	7,4	9,3	9,1	1	1	1	1	1	1	1	1	1	0	1	-47,286822	274,729437	275,71416	0
14.01.2021	20:08:04	0	0	2,937424	3,41925	75,6072	0,768	78,124	3,5	1005,62	7,4	9,3	9,1	1	1	1	1	1	1	1	1	1	0	1	-43,481325	274,654036	279,165208	0
14.01.2021	20:08:05	0	0	4,406136	3,23925	78,6564	0,767	78,117	3,5	1005,72	7,4	9,3	9,1	1	1	1	1	1	1	1	1	1	0	1	-44,538407	274,760297	278,60773	0
14.01.2021	20:08:06	0	0	3,389336	3,24075	73,7748	0,773	78,134	3,5	1005,78	7,4	9,3	9,1	1	1	1	1	1	1	1	1	1	0	1	-43,269908	274,76802	279,912562	0
14.01.2021	20:08:07	0	0	5,084003	3,31725	84,87	0,768	78,117	3,5	1005,7	7,4	9,3	9,1	1	1	1	1	1	1	1	1	1	0	1	-43,269908	274,80668	280,094489	0
14.01.2021	20:08:08	0	0	4,406136	3,462	78,2928	0,763	78,116	3,5	1005,78	7,4	9,3	9,1	1	1	1	1	1	1	1	1	1	0	1	-46,159267	274,724812	276,819966	0
14.01.2021	20:08:09	0	0	3,954225	3,56025	76,8276	0,77	78,121	3,5	1005,86	7,4	9,3	9,1	1	1	1	1	1	1	1	1	1	0	1	-44,749824	274,795848	278,563589	0
14.01.2021	20:08:10	0	0	4,180181	4,0575	75,978	0,768	78,107	3,5	1005,88	7,4	9,3	9,1	1	1	1	1	1	1	1	1	1	0	1	-46,018323	274,763386	277,142345	0
14.01.2021	20:08:11	0	0	2,033601	4,4145	77,5908	0,769	78,107	3,5	1005,96	7,4	9,3	9,1	1	1	1	1	1	1	1	1	1	0	1	-49,964764	274,63715	272,602429	0
14.01.2021	20:08:12	0	0	4,519114	4,839	71,5896	0,76	78,098	3,5	1005,76	7,4	9,3	9,1	1	1	1	1	1	1	1	1	1	0	1	-45,384073	274,794301	277,922059	0
14.01.2021	20:08:13	0	0	4,971026	5,184	64,2204	0,762	78,088	3,5	1005,82	7,4	9,3	9,1	1	1	1	1	1	1	1	1	1	0	1	-44,820296	274,775746	278,398524	0
14.01.2021	20:08:14	0	0	3,276358	5,52075	57,4092	0,769	78,078	3,5	1005,84	7,4	9,3	9,1	1	1	1	1	1	1	1	1	1	0	1	-42,565187	274,703244	280,312633	0
14.01.2021	20:08:15	0	0	4,74507	5,45475	60,9156	0,767	78,067	3,5	1005,74	7,4	9,3	9,1	1	1	1	1	1	1	1	1	1	0	1	-45,665962	274,803585	277,683865	0
14.01.2021	20:08:16	0	0	3,16338	5,4045	59,868	0,762	78,058	3,5	1005,7	7,4	9,3	9,1	1	1	1	1	1	1	1	1	1	0	1	-42,917548	274,683238	279,866226	0
14.01.2021	20:08:17	0	0	2,937424	5,26875	64,5984	0,764	78,068	3,5	1005,96	7,4	9,3	9,1	1	1	1	1	1	1	1	1	1	0	1	-47,498238	274,778837	275,735127	0
14.01.2021	20:08:18	0	0	4,293158	4,81275	56,6604	0,766	78,064	3,5	1005,7	7,4	9,3	9,1	1	1	1	1	1	1	1	1	1	0	1	-42,142354	274,624879	280,367189	0
14.01.2021	20:08:19	0	0	2,937424	4,3485	61,2828	0,759	78,049	3,5	1005,84	7,4	9,3	9,1	1	1	1	1	1	1	1	1	1	0	1	-46,229739	274,654036	276,416794	0
14.01.2021	20:08:20	0	0	4,180181	3,88875	70,2252	0,762	78,055	3,5	1005,7	7,4	9,3	9,1	1	1	1	1	1	1	1	1	1	0	1	-44,467935	274,743318	278,598332	0
14.01.2021	20:08:21	0	0	3,841247	3,489	58,8456	0,767	78,031	3,5	1005,58	7,4	9,3	9,1	1	1	1	1	1	1	1	1	1	0	1	-44,820296	274,621812	277,674842	0
14.01.2021	20:08:22	0	0	3,728269	3,07425	60,3324	0,764	78,041	3,5	1005,88	7,4	9,3	9,1	1	1	1	1	1	1	1	1	1	0	1	-49,471459	274,690931	273,348473	0
14.01.2021	20:08:23	0	0	4,293158	2,811	74,1456	0,76	78,032	3,5	1005,96	7,4	9,3	9,1	1	1	1	1	1	1	1	1	1	0	1	-46,229739	274,778837	277,003626	0
14.01.2021	20:08:24	0	0	4,519114	2,73075	78,6744	0,755	78,024	3,5	1005,8	7,4	9,3	9,1	1	1	1	1	1	1	1	1	1	0	1	-47,004933	274,769565	276,184806	0
14.01.2021	20:08:25	0	0	4,067203	2,90175	88,5852	0,763	78,034	3,5	1005,88	7,4	9,3	9,1	1	1	1	1	1	1	1	1	1	0	1	-43,97463	274,764931	279,193305	0
14.01.2021	20:08:26	0	0	3,16338	3,096	98,0748	0,764	78,024	3,5	1005,84	7,4	9,3	9,1	1	1	1	1	1	1	1	1	1	0	1	-46,300211	274,604954	276,115746	0
14.01.2021	20:08:27	0	0	3,16338	3,15225	80,1252	0,769	78,02	3,5	1005,82	7,4	9,3	9,1	1	1	1	1	1	1	1	1	1	0	1	-45,525018	274,675549	277,222616	0
14.01.2021	20:08:28	0	0	4,067203	3,4695	77,5692	0,768	78,018	3,5	1005,92	7,4	9,3	9,1	1	1	1	1	1	1	1	1	1	0	1	-46,370684	274,592702	275,98774	0
14.01.2021	20:08:29	0	0	4,067203	4,04475	61,29	0,765	78,004	3,5	1005,78	7,4	9,3	9,1	1	1	1	1	1	1	1	1	1	0	1	-44,96124	274,746404	278,119542	0
14.01.2021	20:08:30	0	0	3,841247	4,539	68,0148	0,761	78,007	3,5	1005,86	7,4	9,3	9,1	1	1	1	1	1	1	1	1	1	0	1	-49,18957	274,626412	273,327177	0
14.01.2021	20:08:31	0	0	2,485513	4,623	75,9852	0,764	77,995	3,5	1005,88	7,4	9,3	9,1	1	1	1	1	1	1	1	1	1	0	1	-42,212826	274,617213	280,260709	0
14.01.2021	20:08:32	0	0	4,180181	4,8735	84,438	0,766	77,981	3,5	1005,88	7,4	9,3	9,1	1	1	1	1	1	1	1	1	1	0	1	-48,907681	274,747947	274,18036	0
14.01.2021	20:08:33	0	0	4,406136	4,9935	72	0,764	77,976	3,5	1005,78	7,4	9,3	9,1	1	1	1	1	1	1	1	1	1	0	1	-43,692741	274,634082	278,860035	0
14.01.2021	20:08:34	0	0	2,824446	5,01975	71,208	0,767	77,978	3,5	1005,9	7,4	9,3	9,1	1	1	1	1	1	1	1	1	1	0	1	-47,780127	274,606486	274,643025	0
14.01.2021	20:08:35	0	0	4,858048	5,08725	78,264	0,763	77,969	3,5	1005,84	7,4	9,3	9,1	1	1	1	1	1	1	1	1	1	0	1	-43,269908	274,703244	279,607912	0
14.01.2021	20:08:36	0	0	4,519114	5,00475	84,4128	0,762	77,979	3,5	1005,84	7,4	9,3	9,1	1	1	1	1	1	1	1	1	1	0	1	-47,21635	274,626412	275,300397	0
14.01.2021	20:08:37	0	0	3,615291	4,905	73,4292	0,759	77,979	3,5	1005,7	7,4	9,3	9,1	1	1	1	1	1	1	1	1	1	0	1	-48,273432	274,746404	274,807351	0
14.01.2021	20:08:38	0	0	3,615291	4,6905	91,8792	0,761	77,985	3,5	1005,9	7,4	9,3	9,1	1	1	1	1	1	1	1	1	1	0	1	-45,313601	274,794301	277,992531	0
14.01.2021	20:08:39	0	0	3,728269	4,476	81,594	0,758	77,989	3,5	1005,68	7,4	9,3	9,1	1	1	1	1	1	1	1	1	1	0	1	-48,273432	274,687853	274,532034	0
14.01.2021	20:08:40	0	0	2,485513	4,17	85,2444	0,757	77,995	3,5	1005,76	7,4	9,3	9,1	1	1	1	1	1	1	1	1	1	0	1	-41,226216	274,617213	281,247319	0
14.01.2021	20:08:41	0	0	2,711468	3,852	82,3716	0,761	78,016	3,5	1005,8	7,4	9,3	9,1	1	1	1	1	1	1	1	1	1	0	1	-46,441156	274,611082	276,003585	0
14.01.2021	20:08:42	0	0	3,615291	3,429	79,416	0,76	78,015	3,5	1005,88	7,4	9,3	9,1	1	1	1	1	1	1	1	1	1	0	1	-45,031712	274,734063	277,991025	0
14.01.2021	20:08:43	0	0	2,598491	3,192	85,9284	0,757	78,024	3,5	1005,84	7,4	9,3	9,1	1	1	1	1	1	1	1	1	1	0	1	-44,96124	274,621812	277,533897	0
14.01.2021	20:08:44	0	0	3,050402	3,21675	92,97	0,757	78,02	3,5	1005,76	7,4	9,3	9,1	1	1	1	1	1	1	1	1	1	0	1	-46,229739	274,646359	276,38072	0
14.01.2021	20:08:45	0	0	2,937424	3,207	78,2712	0,779	78,021	3,5	1006	7,4	9,3	9,1	1	1	1	1	1	1	1	1	1	0	1	-45,877378	274,792754	277,421474	0
14.01.2021	20:08:46	0	0	4,971026	3,33525	81,2232	0,753	78,032	3,5	1005,82	7,4	9,3	9,1	1	1	1	1	1	1	1	1	1	0	1	-44,890768	274,740232	278,160986	0
14.01.2021	20:08:47	0	0	4,293158	3,471	74,2752	0,763	78,053	3,5	1005,62	7,4	9,3	9,1	1	1	1	1	1	1	1	1	1	0	1	-48,766737	274,740232	274,285017	0
14.01.2021	20:08:48	0	0	2,485513	3,54	86,6628	0,764	78,045	3,5	1005,92	7,4	9,3	9,1	1	1	1	1	1	1	1	1	1	0	1	-43,269908	274,612615	279,18203	0
14.01.2021	20:08:49	0	0	2,711468	3,459	88,578	0,755	78,033	3,5	1005,76	7,3	9,3	9,1	1	1	1	1	1	1	1	1	1	0	1	-42,917548	274,641754	279,671275	0
14.01.2021	20:08:50	0	0	4,858048	3,222	77,22	0,762	78,045	3,5	1006,04	7,4	9,3	9,1	1	1	1	1	1	1	1	1	1	0	1	-45,525018	274,757209	277,606591	0
14.01.2021	20:08:51	0	0	2,372535	3,12825	84,8016	0,758	78,056	3,5	1005,88	7,4	9,3	9,1	1	1	1	1	1	1	1	1	1	0	1	-43,481325	274,794301	279,824808	0
14.01.2021	20:08:52	0	0	5,309959	3,087	77,9796	0,76	78,04	3,5	1005,78	7,4	9,3	9,1	1	1	1	1	1	1	1	1	1	0	1	-43,340381	274,687853	279,465086	0
14.01.2021	20:08:53	0	0	4,74507	3,0825	80,5176	0,764	78,041	3,5	1005,92	7,4	9,3	9,1	1	1	1	1	1	1	1	1	1	0	1	-43,904158	274,785021	279,358306	0
14.01.2021	20:08:54	0	0	4,519114	2,88	70,218	0,758	78,031	3,5	1005,96	7,4	9,3	9,1	1	1	1	1	1	1	1	1	1	0	1	-44,045102	274,652501	278,594215	0
14.01.2021	20:08:55	0	0	2,824446	3,0675	74,934	0,754	78,028	3,5	1005,74	7,4	9,3	9,1	1	1	1	1	1	1	1	1	1	0	1	-44,679352	274,741775	278,379659	0
14.01.2021	20:08:56	0	0	2,259557	3,10125	88,578	0,759	78,019	3,5	1005,72	7,4	9,3	9,1	1	1	1	1	1	1	1	1	1	0	1	-48,414376	274,611082	274,030364	0
14.01.2021	20:08:57	0	0	4,067203	3,33525	87,7356	0,758	78,01	3,5	1005,8	7,4	9,3	9,1	1	1	1	1	1	1	1	1	1	0	1	-48,273432	274,707864	274,626108	0
14.01.2021	20:08:58	0	0	2,937424	3,4725	88,1028	0,758	78,019	3,5	1005,88	7,4	9,3	9,1	1	1	1	1	1	1	1	1	1	0	1	-41,649049	274,73869	281,39545	0
14.01.2021	20:08:59	0	0	3,050402	3,62175	82,6056	0,754	77,996	3,5	1005,76	7,4	9,3	9,1	1	1	1	1	1	1	1	1	1	0	1	-45,172657	274,611082	277,272084	0
14.01.2021	20:09:00	0	0	2,824446	3,78	84,42	0,76	77,985	3,5	1005,7	7,4	9,3	9,1	1	1	1	1	1	1	1	1	1	0	1	-47,21635	274,621812	275,278788	0
14.01.2021	20:09:01	0	0	2,824446	3,78	84,42	0,76	77,985	3,5	1005,7	7,4	9,3	9,1	1	1	1	1	1	1	1	1	1	0	1	-47,21635	274,621812	275,278788	0
14.01.2021	20:09:02	0	0	3,389336	3,97275	73,7568	0,756	77,986	3,5	1005,64	7,4	9,3	9,1	1	1	1	1	1	1	1	1	1	0	1	-44,538407	274,689392	278,274291	0
14.01.2021	20:09:03	0	0	3,276358	3,87225	76,3704	0,753	77,964	3,5	1005,74	7,4	9,3	9,1	1	1	1	1	1	1	1	1	1	0	1	-43,481325	274,623345	279,021015	0
14.01.2021	20:09:04	0	0	2,937424	3,546	86,6736	0,755	77,961	3,5	1005,94	7,4	9,3	9,1	1	1	1	1	1	1	1	1	1	0	1	-43,410853	274,604954	279,005105	0
14.01.2021	20:09:05	0	0	4,406136	3,17775	67,2984	0,756	77,961	3,5	1005,9	7,4	9,3	9,1	1	1	1	1	1	1	1	1	1	0	1	-47,145877	274,674012	275,59453	0
14.01.2021	20:09:06	0	0	4,293158	2,997	87,0732	0,756	77,958	3,5	1005,82	7,4	9,3	9,1	1	1	1	1	1	1	1	1	1	0	1	-43,058492	274,60189	279,343078	0
14.01.2021	20:09:07	0	0	2,485513	2,9175	78,2856	0,753	77,942	3,5	1005,78	7,4	9,3	9,1	1	1	1	1	1	1	1	1	1	0	1	-45,031712	274,646359	277,578746	0
14.01.2021	20:09:08	0	0	2,711468	2,994	66,2076	0,745	77,933	3,5	1005,76	7,4	9,3	9,1	1	1	1	1	1	1	1	1	1	0	1	-47,357294	274,78966	275,927001	0
14.01.2021	20:09:09	0	0	4,293158	3,16425	70,2144	0,757	77,941	3,5	1005,78	7,4	9,3	9,1	1	1	1	1	1	1	1	1	1	0	1	-45,665962	274,627946	276,85799	0
14.01.2021	20:09:10	0	0	2,485513	3,28275	77,5764	0,748	77,935	3,5	1005,82	7,4	9,3	9,1	1	1	1	1	1	1	1	1	1	0	1	-47,357294	274,769565	275,832445	0
14.01.2021	20:09:11	0	0	4,971026	3,22275	81,2124	0,752	77,934	3,5	1005,82	7,4	9,3	9,1	1	1	1	1	1	1	1	1	1	0	1	-45,172657	274,777291	278,053436	0
14.01.2021	20:09:12	0	0	4,632092	3,219	71,2152	0,756	77,923	3,5	1005,84	7,4	9,3	9,1	1	1	1	1	1	1	1	1	1	0	1	-42,35377	274,729437	280,647212	0
14.01.2021	20:09:13	0	0	4,293158	3,20625	62,0352	0,756	77,914	3,5	1006,14	7,4	9,3	9,1	1	1	1	1	1	1	1	1	1	0	1	-46,652572	274,623345	275,849768	0
14.01.2021	20:09:14	0	0	4,406136	3,16875	64,5984	0,755	77,904	3,5	1005,68	7,4	9,3	9,1	1	1	1	1	1	1	1	1	1	0	1	-47,850599	274,747947	275,237442	0
14.01.2021	20:09:15	0	0	3,728269	3,45525	71,6148	0,754	77,898	3,5	1005,82	7,4	9,3	9,1	1	1	1	1	1	1	1	1	1	0	1	-46,300211	274,732521	276,715273	0
14.01.2021	20:09:16	0	0	3,728269	3,27375	51,0732	0,755	77,898	3,5	1005,88	7,4	9,3	9,1	1	1	1	1	1	1	1	1	1	0	1	-44,397463	274,778837	278,835902	0
14.01.2021	20:09:17	0	0	2,824446	3,26925	72,2916	0,75	77,876	3,5	1005,82	7,4	9,3	9,1	1	1	1	1	1	1	1	1	1	0	1	-45,243129	274,752578	277,866693	0
14.01.2021	20:09:18	0	0	2,711468	3,29625	65,1096	0,753	77,883	3,5	1005,92	7,4	9,3	9,1	1	1	1	1	1	1	1	1	1	0	1	-47,357294	274,650965	275,274808	0
14.01.2021	20:09:19	0	0	3,841247	3,4215	77,2128	0,752	77,872	3,5	1005,7	7,4	9,3	9,1	1	1	1	1	1	1	1	1	1	0	1	-40,310078	274,592702	282,048346	0
14.01.2021	20:09:20	0	0	4,406136	3,3435	78,3648	0,753	77,894	3,5	1005,84	7,4	9,3	9,1	1	1	1	1	1	1	1	1	1	0	1	-44,749824	274,678625	278,012264	0
14.01.2021	20:09:21	0	0	2,485513	3,33525	88,1136	0,749	77,892	3,5	1005,88	7,4	9,3	9,1	1	1	1	1	1	1	1	1	1	0	1	-42,212826	274,60955	280,224718	0
14.01.2021	20:09:22	0	0	2,824446	3,29025	77,598	0,747	77,908	3,5	1005,82	7,4	9,3	9,1	1	1	1	1	1	1	1	1	1	0	1	-44,890768	274,592702	277,467656	0
14.01.2021	20:09:23	0	0	4,519114	3,138	72,0036	0,747	77,906	3,5	1005,8	7,4	9,3	9,1	1	1	1	1	1	1	1	1	1	0	1	-46,934461	274,737147	276,102784	0
14.01.2021	20:09:24	0	0	4,858048	3,02025	65,0844	0,743	77,908	3,5	1005,94	7,4	9,3	9,1	1	1	1	1	1	1	1	1	1	0	1	-46,018323	274,640219	276,563289	0
14.01.2021	20:09:25	0	0	4,74507	3,0465	68,04	0,747	77,909	3,5	1005,92	7,4	9,3	9,1	1	1	1	1	1	1	1	1	1	0	1	-46,088795	274,718647	276,861449	0
14.01.2021	20:09:26	0	0	4,519114	3,231	58,0968	0,75	77,928	3,5	1006,12	7,4	9,3	9,1	1	1	1	1	1	1	1	1	1	0	1	-44,749824	274,752578	278,359998	0
14.01.2021	20:09:27	0	0	2,824446	3,4095	61,668	0,747	77,915	3,5	1005,84	7,4	9,3	9,1	1	1	1	1	1	1	1	1	1	0	1	-44,326991	274,760297	278,819146	0
14.01.2021	20:09:28	0	0	3,954225	3,3405	61,704	0,748	77,93	3,5	1005,64	7,4	9,3	9,1	1	1	1	1	1	1	1	1	1	0	1	-41,014799	274,697086	281,834071	0
14.01.2021	20:09:29	0	0	4,519114	3,21975	71,604	0,744	77,932	3,5	1005,8	7,4	9,3	9,1	1	1	1	1	1	1	1	1	1	0	1	-43,551797	274,595765	278,821006	0
14.01.2021	20:09:30	0	0	4,519114	2,955	77,9544	0,745	77,919	3,5	1005,92	7,4	9,3	9,1	1	1	1	1	1	1	1	1	1	0	1	-47,286822	274,734063	275,735916	0
14.01.2021	20:09:31	0	0	3,728269	2,75775	68,0328	0,749	77,932	3,5	1005,8	7,3	9,3	9,1	1	1	1	1	1	1	1	1	1	0	1	-45,384073	274,775746	277,834747	0
14.01.2021	20:09:32	0	0	4,406136	2,9295	84,0312	0,746	77,928	3,5	1005,9	7,4	9,3	9,1	1	1	1	1	1	1	1	1	1	0	1	-44,608879	274,592702	277,749544	0
14.01.2021	20:09:33	0	0	3,841247	3,25875	95,832	0,747	77,931	3,5	1005,74	7,4	9,3	9,1	1	1	1	1	1	1	1	1	1	0	1	-42,212826	274,64943	280,412061	0
14.01.2021	20:09:34	0	0	2,937424	3,3945	89,3268	0,741	77,917	3,5	1005,84	7,4	9,3	9,1	1	1	1	1	1	1	1	1	1	0	1	-42,212826	274,760297	280,933311	0
14.01.2021	20:09:35	0	0	4,858048	3,267	65,1024	0,743	77,906	3,5	1005,9	7,4	9,3	9,1	1	1	1	1	1	1	1	1	1	0	1	-43,340381	274,772655	279,863897	0
14.01.2021	20:09:36	0	0	4,406136	3,13575	82,3464	0,745	77,928	3,5	1005,92	7,4	9,3	9,1	1	1	1	1	1	1	1	1	1	0	1	-44,115574	274,647894	278,502098	0
14.01.2021	20:09:37	0	0	3,615291	3,05325	93,3264	0,741	77,911	3,5	1005,82	7,4	9,3	9,1	1	1	1	1	1	1	1	1	1	0	1	-44,186047	274,589641	278,158001	0
14.01.2021	20:09:38	0	0	3,615313	3,18075	91,1628	0,744	77,906	3,5	1005,74	7,4	9,3	9	1	1	1	1	1	1	1	1	1	0	1	-46,441156	274,620279	276,04678	0
14.01.2021	20:09:39	0	0	4,293158	3,12375	81,2052	0,742	77,916	3,5	1005,9	7,4	9,3	9,1	1	1	1	1	1	1	1	1	1	0	1	-42,917548	274,594233	279,448066	0
14.01.2021	20:09:40	0	0	2,937424	3,16125	90,018	0,741	77,91	3,5	1005,78	7,3	9,3	9,1	1	1	1	1	1	1	1	1	1	0	1	-45,59549	274,571281	276,662357	0
14.01.2021	20:09:41	0	0	4,180181	3,21225	83,7288	0,739	77,912	3,5	1005,9	7,4	9,3	9,1	1	1	1	1	1	1	1	1	1	0	1	-39,7463	274,655572	282,90745	0
14.01.2021	20:09:42	0	0	2,485513	3,1335	76,374	0,735	77,898	3,5	1005,76	7,3	9,3	9,1	1	1	1	1	1	1	1	1	1	0	1	-45,947851	274,580459	276,353084	0
14.01.2021	20:09:43	0	0	2,485513	3,08325	75,5928	0,738	77,914	3,5	1006	7,4	9,3	9,1	1	1	1	1	1	1	1	1	1	0	1	-46,511628	274,709404	276,395153	0
14.01.2021	20:09:44	0	0	4,632092	3,23475	90,018	0,744	77,92	3,5	1005,86	7,3	9,3	9,1	1	1	1	1	1	1	1	1	1	0	1	-46,934461	274,580459	275,366474	0
14.01.2021	20:09:45	0	0	4,632092	3,693	75,2508	0,735	77,929	3,5	1005,8	7,4	9,3	9,1	1	1	1	1	1	1	1	1	1	0	1	-44,538407	274,647894	278,079265	0
14.01.2021	20:09:46	0	0	3,954225	4,104	87,354	0,742	77,946	3,5	1006	7,3	9,3	9,1	1	1	1	1	1	1	1	1	1	0	1	-45,102185	274,740232	277,94957	0
14.01.2021	20:09:47	0	0	3,502313	4,65825	87,714	0,737	77,932	3,5	1005,72	7,3	9,3	9,1	1	1	1	1	1	1	1	1	1	0	1	-44,679352	274,585049	277,643136	0
14.01.2021	20:09:48	0	0	3,954225	4,89675	94,77	0,735	77,947	3,5	1005,88	7,3	9,3	9,1	1	1	1	1	1	1	1	1	1	0	1	-47,004933	274,732521	276,010552	0
14.01.2021	20:09:49	0	0	5,084003	4,79325	88,5636	0,739	77,979	3,5	1005,9	7,4	9,3	9,1	1	1	1	1	1	1	1	1	1	0	1	-43,97463	274,626412	278,542117	0
14.01.2021	20:09:50	0	0	3,615291	4,4835	84,06	0,731	77,978	3,5	1005,9	7,3	9,3	9,1	1	1	1	1	1	1	1	1	1	0	1	-45,102185	274,74949	277,993116	0
14.01.2021	20:09:51	0	0	4,74507	4,239	90,0072	0,739	77,992	3,5	1005,88	7,3	9,3	9,1	1	1	1	1	1	1	1	1	1	0	1	-44,749824	274,735605	278,280167	0
14.01.2021	20:09:52	0	0	2,259557	4,33275	71,9712	0,739	78,002	3,5	1005,8	7,3	9,3	9,1	1	1	1	1	1	1	1	1	1	0	1	-51,303735	274,629479	271,227422	0
14.01.2021	20:09:53	0	0	4,632092	4,29	86,6484	0,738	78,006	3,5	1005,82	7,3	9,3	9,1	1	1	1	1	1	1	1	1	1	0	1	-49,82382	274,740232	273,227935	0
14.01.2021	20:09:54	0	0	3,728269	4,62	80,4996	0,732	78,011	3,5	1005,8	7,3	9,3	9,1	1	1	1	1	1	1	1	1	1	0	1	-45,59549	274,6694	277,123244	0
14.01.2021	20:09:55	0	0	3,615291	4,605	74,9196	0,726	78,011	3,5	1005,78	7,4	9,3	9,1	1	1	1	1	1	1	1	1	1	0	1	-41,860465	274,57587	280,418923	0
14.01.2021	20:09:56	0	0	3,389336	4,476	66,5388	0,738	78,018	3,5	1005,9	7,4	9,3	9,1	1	1	1	1	1	1	1	1	1	0	1	-47,427766	274,603422	274,980997	0
14.01.2021	20:09:57	0	0	3,050402	4,20975	73,872	0,728	78,016	3,5	1005,72	7,3	9,3	9,1	1	1	1	1	1	1	1	1	1	0	1	-43,481325	274,578929	278,812427	0
14.01.2021	20:09:58	0	0	2,824446	3,81	69,138	0,724	78,01	3,5	1005,82	7,3	9,3	9,1	1	1	1	1	1	1	1	1	1	0	1	-44,820296	274,572811	277,44473	0
14.01.2021	20:09:59	0	0	3,615291	3,5775	73,7964	0,732	78,012	3,5	1005,78	7,4	9,3	9,1	1	1	1	1	1	1	1	1	1	0	1	-43,622269	274,689392	279,190429	0
14.01.2021	20:10:00	0	0	3,389336	3,3915	71,5968	0,727	78,026	3,5	1005,84	7,4	9,3	9,1	1	1	1	1	1	1	1	1	1	0	1	-44,256519	274,614147	278,202618	0
14.01.2021	20:10:01	0	0	2,711468	3,36	79,4412	0,728	78,013	3,5	1005,82	7,3	9,3	9,1	1	1	1	1	1	1	1	1	1	0	1	-44,256519	274,614147	278,202618	0
14.01.2021	20:10:02	0	0	2,711468	3,36	79,4412	0,728	78,013	3,5	1005,82	7,3	9,3	9,1	1	1	1	1	1	1	1	1	1	0	1	-47,357294	274,540721	274,757105	0
14.01.2021	20:10:03	0	0	3,954225	3,56775	83,718	0,731	78,019	3,5	1005,88	7,3	9,3	9,1	1	1	1	1	1	1	1	1	1	0	1	-43,128964	274,655572	279,524786	0
14.01.2021	20:10:04	0	0	2,372535	3,32025	98,0784	0,725	78,046	3,5	1006,02	7,4	9,3	9,1	1	1	1	1	1	1	1	1	1	0	1	-41,860465	274,746404	281,220318	0
14.01.2021	20:10:05	0	0	4,519114	3,07425	108,6012	0,723	78,035	3,5	1005,76	7,3	9,3	9,1	1	1	1	1	1	1	1	1	1	0	1	-46,159267	274,704784	276,725792	0
14.01.2021	20:10:06	0	0	4,74507	2,99025	115,974	0,729	78,053	3,5	1005,82	7,3	9,3	9,1	1	1	1	1	1	1	1	1	1	0	1	-45,313601	274,612615	277,138337	0
14.01.2021	20:10:07	0	0	2,598491	2,86725	86,2668	0,728	78,073	3,5	1005,82	7,3	9,3	9,1	1	1	1	1	1	1	1	1	1	0	1	-45,59549	274,737147	277,441755	0
14.01.2021	20:10:08	0	0	2,711468	2,71275	85,9284	0,725	78,075	3,5	1006	7,3	9,3	9,1	1	1	1	1	1	1	1	1	1	0	1	-46,793517	274,626412	275,72323	0
14.01.2021	20:10:09	0	0	4,406136	2,712	95,1336	0,723	78,067	3,5	1005,84	7,3	9,3	9,1	1	1	1	1	1	1	1	1	1	0	1	-43,481325	274,589641	278,862723	0
14.01.2021	20:10:10	0	0	4,406136	2,739	72,6696	0,721	78,074	3,5	1005,94	7,3	9,3	9,1	1	1	1	1	1	1	1	1	1	0	1	-43,410853	274,592702	278,947571	0
14.01.2021	20:10:11	0	0	4,406136	2,76675	79,0056	0,724	78,078	3,5	1005,84	7,3	9,2	9,1	1	1	1	1	1	1	1	1	1	0	1	-45,736434	274,571281	276,521413	0
14.01.2021	20:10:12	0	0	4,406136	3,02775	87,3756	0,729	78,08	3,5	1005,9	7,3	9,3	9,1	1	1	1	1	1	1	1	1	1	0	1	-47,427766	274,585049	274,894722	0
14.01.2021	20:10:13	0	0	4,180181	2,96925	86,9976	0,726	78,084	3,5	1005,94	7,3	9,3	9,1	1	1	1	1	1	1	1	1	1	0	1	-43,622269	274,697086	279,226601	0
14.01.2021	20:10:14	0	0	3,502313	2,80875	82,6164	0,725	78,075	3,5	1005,88	7,4	9,3	9,1	1	1	1	1	1	1	1	1	1	0	1	-46,300211	274,715566	276,635542	0
14.01.2021	20:10:15	0	0	3,16338	2,6475	90,4068	0,72	78,089	3,5	1005,86	7,3	9,3	9,1	1	1	1	1	1	1	1	1	1	0	1	-44,679352	274,692469	278,147814	0
14.01.2021	20:10:16	0	0	4,74507	2,66475	83,322	0,72	78,073	3,5	1005,84	7,3	9,2	9,1	1	1	1	1	1	1	1	1	1	0	1	-40,662438	274,554467	281,516478	0
14.01.2021	20:10:17	0	0	3,276358	2,65725	85,5252	0,727	78,079	3,5	1005,88	7,3	9,3	9,1	1	1	1	1	1	1	1	1	1	0	1	-45,947851	274,58811	276,38901	0
14.01.2021	20:10:18	0	0	4,180181	2,5755	77,2308	0,722	78,067	3,5	1005,78	7,3	9,3	9,1	1	1	1	1	1	1	1	1	1	0	1	-44,186047	274,687853	278,61942	0
14.01.2021	20:10:19	0	0	4,858048	2,667	77,2236	0,721	78,078	3,5	1005,94	7,3	9,3	9,1	1	1	1	1	1	1	1	1	1	0	1	-45,59549	274,706324	277,29681	0
14.01.2021	20:10:20	0	0	3,050402	2,7375	78,66	0,72	78,07	3,5	1005,78	7,3	9,3	9,1	1	1	1	1	1	1	1	1	1	0	1	-45,172657	274,672475	277,560526	0
14.01.2021	20:10:21	0	0	4,858048	2,739	75,6252	0,713	78,068	3,5	1005,62	7,4	9,3	9,1	1	1	1	1	1	1	1	1	1	0	1	-48,484848	274,724812	274,494384	0
14.01.2021	20:10:22	0	0	4,180181	2,76075	88,5888	0,722	78,071	3,5	1005,92	7,3	9,2	9,1	1	1	1	1	1	1	1	1	1	0	1	-44,186047	274,597296	278,193947	0
14.01.2021	20:10:23	0	0	3,16338	2,69325	82,9764	0,714	78,068	3,5	1005,86	7,3	9,3	9,1	1	1	1	1	1	1	1	1	1	0	1	-41,578576	274,542248	280,542989	0
14.01.2021	20:10:24	0	0	4,406136	2,73225	77,2128	0,718	78,069	3,5	1005,96	7,3	9,3	9,1	1	1	1	1	1	1	1	1	1	0	1	-45,454545	274,657108	277,206422	0
14.01.2021	20:10:25	0	0	3,389336	3,243	83,7252	0,718	78,083	3,5	1005,76	7,3	9,2	9,1	1	1	1	1	1	1	1	1	1	0	1	-46,159267	274,723271	276,812717	0
14.01.2021	20:10:26	0	0	3,841247	3,6405	88,11	0,716	78,072	3,5	1005,84	7,3	9,3	9,1	1	1	1	1	1	1	1	1	1	0	1	-43,481325	274,594233	278,884288	0
14.01.2021	20:10:27	0	0	3,050402	3,57525	87,0624	0,712	78,056	3,5	1005,96	7,3	9,3	9,1	1	1	1	1	1	1	1	1	1	0	1	-43,269908	274,540721	278,844491	0
14.01.2021	20:10:28	0	0	4,293158	3,29775	79,0416	0,714	78,064	3,5	1005,86	7,3	9,2	9,1	1	1	1	1	1	1	1	1	1	0	1	-44,467935	274,690931	278,351996	0
14.01.2021	20:10:29	0	0	3,16338	3,207	75,9708	0,71	78,06	3,5	1005,88	7,3	9,3	9,1	1	1	1	1	1	1	1	1	1	0	1	-44,326991	274,666327	278,377297	0
14.01.2021	20:10:30	0	0	3,728269	3,36675	82,602	0,713	78,072	3,5	1005,78	7,3	9,2	9,1	1	1	1	1	1	1	1	1	1	0	1	-46,159267	274,701705	276,711315	0
14.01.2021	20:10:31	0	0	3,050402	3,3765	59,0904	0,708	78,072	3,5	1005,68	7,3	9,2	9,1	1	1	1	1	1	1	1	1	1	0	1	-44,045102	274,614147	278,414034	0
14.01.2021	20:10:32	0	0	3,05042	3,65475	60,2136	0,712	78,087	3,5	1005,9	7,3	9,3	9	1	1	1	1	1	1	1	1	1	0	1	-48,978154	274,562108	273,23663	0
14.01.2021	20:10:33	0	0	4,406136	3,88875	66,5244	0,71	78,102	3,5	1005,84	7,3	9,2	9,1	1	1	1	1	1	1	1	1	1	0	1	-44,890768	274,606486	277,532384	0
14.01.2021	20:10:34	0	0	4,519114	3,79425	73,7892	0,717	78,098	3,5	1005,76	7,3	9,2	9,1	1	1	1	1	1	1	1	1	1	0	1	-44,467935	274,531562	277,603483	0
14.01.2021	20:10:35	0	0	4,74507	3,759	69,1308	0,711	78,112	3,5	1005,92	7,3	9,2	9,1	1	1	1	1	1	1	1	1	1	0	1	-48,062016	274,603422	274,346748	0
14.01.2021	20:10:36	0	0	4,406136	4,30725	79,02	0,716	78,103	3,5	1005,82	7,3	9,3	9,1	1	1	1	1	1	1	1	1	1	0	1	-43,833686	274,720188	279,123804	0
14.01.2021	20:10:37	0	0	2,485528	5,1135	75,6	0,703	78,116	3,5	1005,88	7,3	9,2	9	1	1	1	1	1	1	1	1	1	0	1	-41,860465	274,552939	280,31128	0
14.01.2021	20:10:38	0	0	4,180181	5,304	71,2368	0,703	78,115	3,5	1005,82	7,3	9,2	9,1	1	1	1	1	1	1	1	1	1	0	1	-42,847075	274,533089	279,231505	0
14.01.2021	20:10:39	0	0	2,824446	4,8885	104,4036	0,706	78,106	3,5	1005,92	7,3	9,2	9,1	1	1	1	1	1	1	1	1	1	0	1	-45,877378	274,525459	276,1654	0
14.01.2021	20:10:40	0	0	3,841247	4,3545	100,3968	0,703	78,119	3,5	1006,06	7,3	9,2	9,1	1	1	1	1	1	1	1	1	1	0	1	-47,498238	274,657108	275,16273	0
14.01.2021	20:10:41	0	0	2,372535	4,10025	98,0856	0,706	78,119	3,5	1005,92	7,3	9,2	9,1	1	1	1	1	1	1	1	1	1	0	1	-46,934461	274,525459	275,108317	0
14.01.2021	20:10:42	0	0	2,711468	3,978	90,0036	0,706	78,135	3,5	1005,8	7,3	9,3	9,1	1	1	1	1	1	1	1	1	1	0	1	-42,424242	274,520883	279,597063	0
14.01.2021	20:10:43	0	0	5,084003	4,07325	71,9928	0,7	78,134	3,5	1005,76	7,3	9,3	9,1	1	1	1	1	1	1	1	1	1	0	1	-45,525018	274,611082	276,919723	0
14.01.2021	20:10:44	0	0	3,954249	4,2945	71,226	0,703	78,141	3,5	1005,96	7,3	9,2	9	1	1	1	1	1	1	1	1	1	0	1	-43,833686	274,657108	278,827282	0
14.01.2021	20:10:45	0	0	3,728269	4,617	72,2844	0,701	78,147	3,5	1005,78	7,3	9,2	9,1	1	1	1	1	1	1	1	1	1	0	1	-44,326991	274,603422	278,081772	0
14.01.2021	20:10:46	0	0	4,858048	4,839	65,4804	0,7	78,157	3,5	1005,9	7,3	9,3	9,1	1	1	1	1	1	1	1	1	1	0	1	-40,38055	274,646359	282,229909	0
14.01.2021	20:10:47	0	0	2,146579	5,16975	79,7868	0,696	78,165	3,5	1005,66	7,3	9,2	9,1	1	1	1	1	1	1	1	1	1	0	1	-44,186047	274,709404	278,720735	0
14.01.2021	20:10:48	0	0	3,728269	5,4555	80,4996	0,705	78,185	3,5	1005,88	7,3	9,3	9,1	1	1	1	1	1	1	1	1	1	0	1	-44,749824	274,61568	277,716511	0
14.01.2021	20:10:49	0	0	4,293158	5,5815	82,3716	0,703	78,208	3,5	1005,78	7,3	9,2	9,1	1	1	1	1	1	1	1	1	1	0	1	-47,21635	274,533089	274,862231	0
14.01.2021	20:10:50	0	0	4,519114	5,382	79,0272	0,698	78,222	3,5	1005,74	7,3	9,2	9,1	1	1	1	1	1	1	1	1	1	0	1	-40,591966	274,66479	282,1051	0
14.01.2021	20:10:51	0	0	2,485513	5,0325	76,3524	0,705	78,251	3,5	1005,78	7,3	9,2	9,1	1	1	1	1	1	1	1	1	1	0	1	-49,894292	274,531562	272,177127	0
14.01.2021	20:10:52	0	0	3,163399	4,87725	81,972	0,702	78,285	3,5	1005,84	7,3	9,2	9	1	1	1	1	1	1	1	1	1	0	1	-42,776603	274,714025	280,151906	0
14.01.2021	20:10:53	0	0	3,276377	5,00175	85,9032	0,697	78,305	3,5	1005,88	7,3	9,2	9	1	1	1	1	1	1	1	1	1	0	1	-41,578576	274,641754	281,010246	0
14.01.2021	20:10:54	0	0	2,711468	5,16975	77,5764	0,697	78,315	3,5	1005,86	7,3	9,2	9,1	1	1	1	1	1	1	1	1	1	0	1	-47,145877	274,686315	275,652357	0
14.01.2021	20:10:55	0	0	4,632092	5,4615	79,7688	0,698	78,313	3,5	1005,6	7,3	9,2	9,1	1	1	1	1	1	1	1	1	1	0	1	-46,159267	274,652501	276,48005	0
14.01.2021	20:10:56	0	0	3,502334	5,29875	79,7616	0,7	78,344	3,5	1005,88	7,3	9,2	9	1	1	1	1	1	1	1	1	1	0	1	-45,877378	274,52851	276,179718	0
14.01.2021	20:10:57	0	0	4,519114	5,26425	64,2708	0,699	78,346	3,5	1005,92	7,3	9,2	9,1	1	1	1	1	1	1	1	1	1	0	1	-44,890768	274,57434	277,381439	0
14.01.2021	20:10:58	0	0	3,05042	5,41425	73,782	0,7	78,377	3,5	1005,78	7,3	9,2	9	1	1	1	1	1	1	1	1	1	0	1	-45,031712	274,697086	277,817158	0
14.01.2021	20:10:59	0	0	4,293184	5,57025	73,0332	0,696	78,386	3,5	1005,84	7,3	9,2	9	1	1	1	1	1	1	1	1	1	0	1	-47,21635	274,670938	275,509608	0
14.01.2021	20:11:00	0	0	3,615291	5,9715	69,4836	0,699	78,407	3,5	1005,92	7,3	9,2	9,1	1	1	1	1	1	1	1	1	1	0	1	-44,397463	274,555995	277,788626	0
14.01.2021	20:11:01	0	0	3,615291	5,9715	69,4836	0,699	78,407	3,5	1005,92	7,3	9,2	9,1	1	1	1	1	1	1	1	1	1	0	1	-44,397463	274,555995	277,788626	0
14.01.2021	20:11:02	0	0	2,937442	6,22875	75,2148	0,69	78,411	3,5	1005,64	7,3	9,2	9	1	1	1	1	1	1	1	1	1	0	1	-44,96124	274,563637	277,260719	0
14.01.2021	20:11:03	0	0	2,711485	6,4305	73,782	0,697	78,429	3,5	1005,7	7,3	9,2	9	1	1	1	1	1	1	1	1	1	0	1	-45,102185	274,675549	277,645449	0
14.01.2021	20:11:04	0	0	2,711485	6,381	76,3704	0,704	78,422	3,5	1005,76	7,3	9,2	9	1	1	1	1	1	1	1	1	1	0	1	-44,397463	274,511733	277,580915	0
14.01.2021	20:11:05	0	0	4,293184	6,309	76,824	0,698	78,423	3,5	1005,68	7,3	9,2	9	1	1	1	1	1	1	1	1	1	0	1	-45,59549	274,635616	276,964494	0
14.01.2021	20:11:06	0	0	2,711485	5,91	73,782	0,7	78,457	3,5	1005,84	7,3	9,2	9	1	1	1	1	1	1	1	1	1	0	1	-43,763214	274,548357	278,387022	0
14.01.2021	20:11:07	0	0	3,276377	5,57325	78,876	0,699	78,459	3,5	1005,68	7,3	9,2	9	1	1	1	1	1	1	1	1	1	0	1	-42,917548	274,617213	279,555987	0
14.01.2021	20:11:08	0	0	4,180206	5,4135	76,8132	0,7	78,457	3,5	1005,82	7,3	9,2	9	1	1	1	1	1	1	1	1	1	0	1	-38,900634	274,715566	284,035119	0
14.01.2021	20:11:09	0	0	2,824463	5,0925	82,5948	0,699	78,47	3,5	1005,92	7,3	9,2	9	1	1	1	1	1	1	1	1	1	0	1	-44,538407	274,641754	278,050415	0
14.01.2021	20:11:10	0	0	4,293184	5,09325	85,1868	0,696	78,464	3,5	1005,8	7,3	9,2	9	1	1	1	1	1	1	1	1	1	0	1	-43,551797	274,555995	278,634292	0
14.01.2021	20:11:11	0	0	2,598506	5,1735	79,398	0,697	78,472	3,5	1005,94	7,3	9,2	9	1	1	1	1	1	1	1	1	1	0	1	-43,199436	274,697086	279,649434	0
14.01.2021	20:11:12	0	0	4,858077	5,40675	81,9432	0,699	78,478	3,5	1005,88	7,3	9,2	9	1	1	1	1	1	1	1	1	1	0	1	-46,441156	274,667863	276,270355	0
14.01.2021	20:11:13	0	0	3,163399	5,4375	84,4164	0,691	78,505	3,5	1005,76	7,3	9,2	9	1	1	1	1	1	1	1	1	1	0	1	-43,058492	274,568223	279,184998	0
14.01.2021	20:11:14	0	0	3,615313	5,59125	77,9904	0,698	78,525	3,5	1005,9	7,3	9,2	9	1	1	1	1	1	1	1	1	1	0	1	-45,313601	274,546829	276,829466	0
14.01.2021	20:11:15	0	0	4,63212	5,757	74,1528	0,704	78,535	3,5	1005,86	7,3	9,2	9	1	1	1	1	1	1	1	1	1	0	1	-43,128964	274,566694	279,107348	0
14.01.2021	20:11:16	0	0	4,519141	5,66625	74,142	0,694	78,55	3,5	1005,78	7,3	9,2	9	1	1	1	1	1	1	1	1	1	0	1	-43,058492	274,666327	279,645796	0
14.01.2021	20:11:17	0	0	3,389356	5,6535	73,7568	0,69	78,562	3,5	1005,88	7,3	9,2	9	1	1	1	1	1	1	1	1	1	0	1	-46,5821	274,585049	275,740388	0
14.01.2021	20:11:18	0	0	4,180206	5,5875	73,0476	0,692	78,565	3,5	1005,76	7,3	9,2	9	1	1	1	1	1	1	1	1	1	0	1	-38,054968	274,746404	285,025814	0
14.01.2021	20:11:19	0	0	3,389356	5,5965	82,3284	0,698	78,562	3,5	1005,94	7,3	9,2	9	1	1	1	1	1	1	1	1	1	0	1	-46,229739	274,670938	276,496218	0
14.01.2021	20:11:20	0	0	3,954249	5,403	88,5708	0,701	78,585	3,5	1005,9	7,3	9,2	9	1	1	1	1	1	1	1	1	1	0	1	-45,172657	274,680162	277,596659	0
14.01.2021	20:11:21	0	0	2,711485	5,1855	84,4236	0,694	78,592	3,5	1005,74	7,3	9,2	9	1	1	1	1	1	1	1	1	1	0	1	-48,062016	274,735605	274,967975	0
14.01.2021	20:11:22	0	0	4,293184	5,052	84,0528	0,698	78,616	3,5	1005,9	7,3	9,2	9	1	1	1	1	1	1	1	1	1	0	1	-42,98802	274,629479	279,543137	0
14.01.2021	20:11:23	0	0	3,954249	4,8735	84,8088	0,69	78,616	3,5	1005,94	7,3	9,2	9	1	1	1	1	1	1	1	1	1	0	1	-43,622269	274,729437	279,378713	0
14.01.2021	20:11:24	0	0	2,485528	4,785	83,3544	0,702	78,633	3,5	1005,84	7,3	9,2	9	1	1	1	1	1	1	1	1	1	0	1	-44,397463	274,646359	278,212996	0
14.01.2021	20:11:25	0	0	4,63212	4,58475	72,0396	0,695	78,639	3,5	1005,8	7,3	9,2	9	1	1	1	1	1	1	1	1	1	0	1	-44,538407	274,552939	277,633338	0
14.01.2021	20:11:26	0	0	4,858077	4,2975	90,0288	0,698	78,626	3,5	1005,76	7,3	9,2	9	1	1	1	1	1	1	1	1	1	0	1	-47,075405	274,697086	275,773465	0
14.01.2021	20:11:27	0	0	4,406163	3,94125	87,732	0,699	78,657	3,5	1005,86	7,3	9,2	9	1	1	1	1	1	1	1	1	1	0	1	-41,437632	274,559051	280,762803	0
14.01.2021	20:11:28	0	0	2,598506	3,69975	81,2376	0,701	78,639	3,5	1005,94	7,3	9,2	9	1	1	1	1	1	1	1	1	1	0	1	-42,001409	274,603422	280,407354	0
14.01.2021	20:11:29	0	0	4,180206	3,555	86,0076	0,695	78,645	3,5	1005,92	7,3	9,2	9	1	1	1	1	1	1	1	1	1	0	1	-45,384073	274,581989	276,924045	0
14.01.2021	20:11:30	0	0	5,309991	3,54825	85,176	0,703	78,633	3,5	1005,88	7,3	9,2	9	1	1	1	1	1	1	1	1	1	0	1	-45,454545	274,677087	277,300315	0
14.01.2021	20:11:31	0	0	2,711485	3,7035	83,3724	0,703	78,64	3,5	1005,82	7,3	9,2	9	1	1	1	1	1	1	1	1	1	0	1	-45,031712	274,743318	278,034555	0
14.01.2021	20:11:32	0	0	2,372549	3,87225	83,7288	0,706	78,62	3,5	1005,86	7,3	9,2	9	1	1	1	1	1	1	1	1	1	0	1	-44,326991	274,592702	278,031433	0
14.01.2021	20:11:33	0	0	2,598506	3,96825	80,9136	0,711	78,622	3,5	1006	7,3	9,2	9	1	1	1	1	1	1	1	1	1	0	1	-46,441156	274,700165	276,422188	0
14.01.2021	20:11:34	0	0	3,389356	4,2075	88,5744	0,706	78,616	3,5	1005,94	7,3	9,2	9	1	1	1	1	1	1	1	1	1	0	1	-47,21635	274,757209	275,91526	0
14.01.2021	20:11:35	0	0	3,276377	4,01025	79,4052	0,699	78,605	3,5	1005,86	7,3	9,2	9	1	1	1	1	1	1	1	1	1	0	1	-46,652572	274,6817	276,123972	0
14.01.2021	20:11:36	0	0	4,406163	3,93825	101,5308	0,7	78,592	3,5	1005,88	7,3	9,2	9	1	1	1	1	1	1	1	1	1	0	1	-40,873855	274,741775	282,185156	0
14.01.2021	20:11:37	0	0	3,502334	3,78225	79,758	0,703	78,583	3,5	1005,82	7,3	9,2	9	1	1	1	1	1	1	1	1	1	0	1	-40,38055	274,654036	282,265984	0
14.01.2021	20:11:38	0	0	3,05042	3,56025	82,9764	0,709	78,583	3,5	1005,96	7,3	9,2	9	1	1	1	1	1	1	1	1	1	0	1	-46,370684	274,743318	276,695584	0
14.01.2021	20:11:39	0	0	3,502334	3,70275	85,1904	0,706	78,555	3,5	1005,86	7,3	9,2	9	1	1	1	1	1	1	1	1	1	0	1	-42,283298	274,60189	280,118272	0
14.01.2021	20:11:40	0	0	2,937442	4,113	86,9832	0,705	78,548	3,5	1005,78	7,3	9,2	9	1	1	1	1	1	1	1	1	1	0	1	-44,890768	274,658644	277,777418	0
14.01.2021	20:11:41	0	0	4,406163	4,27875	88,9488	0,707	78,544	3,5	1005,94	7,3	9,2	9	1	1	1	1	1	1	1	1	1	0	1	-39,957717	274,740232	283,094038	0
14.01.2021	20:11:42	0	0	4,745098	4,26825	89,3448	0,707	78,538	3,5	1005,78	7,3	9,2	9	1	1	1	1	1	1	1	1	1	0	1	-42,142354	274,686315	280,655881	0
14.01.2021	20:11:43	0	0	4,406163	4,20075	86,688	0,708	78,519	3,5	1005,76	7,3	9,2	9	1	1	1	1	1	1	1	1	1	0	1	-42,494715	274,734063	280,528023	0
14.01.2021	20:11:44	0	0	4,63212	4,3035	90,7596	0,701	78,511	3,5	1005,8	7,3	9,2	9	1	1	1	1	1	1	1	1	1	0	1	-45,313601	274,698626	277,542506	0
14.01.2021	20:11:45	0	0	3,276377	4,35	90,81	0,71	78,512	3,5	1005,84	7,3	9,2	9	1	1	1	1	1	1	1	1	1	0	1	-44,115574	274,734063	278,907163	0
14.01.2021	20:11:46	0	0	3,84127	4,23975	90,4176	0,702	78,493	3,5	1005,72	7,3	9,2	9	1	1	1	1	1	1	1	1	1	0	1	-41,649049	274,58811	280,687812	0
14.01.2021	20:11:47	0	0	3,84127	4,1415	78,372	0,712	78,507	3,5	1005,9	7,3	9,2	9	1	1	1	1	1	1	1	1	1	0	1	-47,639183	274,580459	274,661752	0
14.01.2021	20:11:48	0	0	4,067227	3,891	87,3684	0,705	78,497	3,5	1005,74	7,3	9,2	9	1	1	1	1	1	1	1	1	1	0	1	-41,578576	274,726354	281,407905	0
14.01.2021	20:11:49	0	0	3,502334	3,7815	83,718	0,709	78,489	3,5	1005,88	7,3	9,2	9	1	1	1	1	1	1	1	1	1	0	1	-42,635659	274,692469	280,191506	0
14.01.2021	20:11:50	0	0	2,598506	3,633	87,7284	0,705	78,471	3,5	1005,84	7,3	9,2	9	1	1	1	1	1	1	1	1	1	0	1	-43,692741	274,761842	279,460661	0
14.01.2021	20:11:51	0	0	2,824463	3,56475	71,6148	0,708	78,487	3,5	1005,88	7,3	9,2	9	1	1	1	1	1	1	1	1	1	0	1	-45,172657	274,689392	277,640042	0
14.01.2021	20:11:52	0	0	3,84127	3,75375	66,9132	0,71	78,475	3,5	1005,86	7,3	9,2	9	1	1	1	1	1	1	1	1	1	0	1	-44,115574	274,569752	278,135094	0
14.01.2021	20:11:53	0	0	3,615313	3,82725	76,8168	0,708	78,456	3,5	1005,76	7,3	9,2	9	1	1	1	1	1	1	1	1	1	0	1	-41,014799	274,600359	281,379578	0
14.01.2021	20:11:54	0	0	2,937442	3,804	79,7544	0,709	78,472	3,5	1006,06	7,3	9,2	9	1	1	1	1	1	1	1	1	1	0	1	-43,904158	274,692469	278,923007	0
14.01.2021	20:11:55	0	0	4,63212	3,759	88,1028	0,708	78,461	3,5	1005,8	7,3	9,2	9	1	1	1	1	1	1	1	1	1	0	1	-44,115574	274,73869	278,928925	0
14.01.2021	20:11:56	0	0	2,711468	3,68625	88,0992	0,708	78,469	3,5	1005,76	7,3	9,2	9,1	1	1	1	1	1	1	1	1	1	0	1	-45,59549	274,60189	276,80608	0
14.01.2021	20:11:57	0	0	5,197012	3,6105	90,792	0,709	78,475	3,5	1005,78	7,3	9,2	9	1	1	1	1	1	1	1	1	1	0	1	-45,877378	274,617213	276,596156	0
14.01.2021	20:11:58	0	0	3,502334	3,594	97,7688	0,704	78,462	3,5	1005,82	7,3	9,2	9	1	1	1	1	1	1	1	1	1	0	1	-42,424242	274,754121	280,692841	0
14.01.2021	20:11:59	0	0	2,711485	3,396	86,9688	0,707	78,431	3,5	1005,82	7,3	9,2	9	1	1	1	1	1	1	1	1	1	0	1	-43,269908	274,638685	279,304494	0
14.01.2021	20:12:00	0	0	2,372549	3,222	66,528	0,703	78,426	3,5	1005,8	7,3	9,2	9	1	1	1	1	1	1	1	1	1	0	1	-41,36716	274,60189	281,03441	0
14.01.2021	20:12:01	0	0	2,372549	3,222	66,528	0,703	78,426	3,5	1005,8	7,3	9,2	9	1	1	1	1	1	1	1	1	1	0	1	-41,36716	274,60189	281,03441	0
14.01.2021	20:12:02	0	0	2,598506	3,3135	65,4732	0,709	78,43	3,5	1005,8	7,3	9,2	9	1	1	1	1	1	1	1	1	1	0	1	-42,424242	274,581989	279,883876	0
14.01.2021	20:12:03	0	0	4,745098	3,3615	77,5656	0,705	78,405	3,5	1005,72	7,3	9,2	9	1	1	1	1	1	1	1	1	1	0	1	-45,806906	274,703244	277,070914	0
14.01.2021	20:12:04	0	0	2,824446	3,312	81,1908	0,701	78,41	3,5	1006,08	7,3	9,2	9,1	1	1	1	1	1	1	1	1	1	0	1	-44,538407	274,727895	278,455324	0
14.01.2021	20:12:05	0	0	2,711485	3,39825	74,1672	0,707	78,406	3,5	1005,68	7,3	9,2	9	1	1	1	1	1	1	1	1	1	0	1	-42,35377	274,620279	280,134166	0
14.01.2021	20:12:06	0	0	2,485528	3,65475	72,3132	0,705	78,409	3,5	1005,68	7,3	9,2	9	1	1	1	1	1	1	1	1	1	0	1	-41,649049	274,620279	280,838887	0
14.01.2021	20:12:07	0	0	2,937442	3,66375	91,8936	0,71	78,411	3,5	1005,66	7,3	9,2	9	1	1	1	1	1	1	1	1	1	0	1	-48,625793	274,746404	274,45499	0
14.01.2021	20:12:08	0	0	4,180206	3,51975	91,5012	0,706	78,413	3,5	1005,8	7,3	9,2	9	1	1	1	1	1	1	1	1	1	0	1	-42,283298	274,657108	280,37767	0
14.01.2021	20:12:09	0	0	4,406163	3,492	82,6092	0,707	78,411	3,5	1005,7	7,3	9,2	9	1	1	1	1	1	1	1	1	1	0	1	-44,115574	274,724812	278,863659	0
14.01.2021	20:12:10	0	0	3,728292	3,43575	87,3396	0,706	78,424	3,5	1005,82	7,3	9,2	9	1	1	1	1	1	1	1	1	1	0	1	-46,793517	274,684777	275,997487	0
14.01.2021	20:12:11	0	0	4,519141	3,444	69,8508	0,71	78,415	3,5	1005,82	7,3	9,2	9	1	1	1	1	1	1	1	1	1	0	1	-44,96124	274,577399	277,325329	0
14.01.2021	20:12:12	0	0	4,858048	3,18825	74,9232	0,706	78,418	3,5	1005,66	7,3	9,2	9,1	1	1	1	1	1	1	1	1	1	0	1	-40,310078	274,695547	282,531557	0
14.01.2021	20:12:13	0	0	2,937424	3,01575	78,2784	0,707	78,436	3,5	1005,82	7,3	9,2	9,1	1	1	1	1	1	1	1	1	1	0	1	-44,96124	274,569752	277,289428	0
14.01.2021	20:12:14	0	0	2,711485	2,93175	82,3608	0,71	78,445	3,5	1005,82	7,3	9,2	9	1	1	1	1	1	1	1	1	1	0	1	-41,649049	274,63715	280,918144	0
14.01.2021	20:12:15	0	0	4,067227	3,135	75,6108	0,705	78,44	3,5	1005,76	7,3	9,2	9	1	1	1	1	1	1	1	1	1	0	1	-44,256519	274,741775	278,802492	0
14.01.2021	20:12:16	0	0	4,519141	3,25725	70,2288	0,711	78,424	3,5	1005,82	7,3	9,2	9	1	1	1	1	1	1	1	1	1	0	1	-45,454545	274,638685	277,119857	0
14.01.2021	20:12:17	0	0	3,05042	3,351	86,2956	0,709	78,407	3,5	1005,9	7,3	9,2	9	1	1	1	1	1	1	1	1	1	0	1	-41,014799	274,727895	281,978932	0
14.01.2021	20:12:18	0	0	2,937442	3,357	91,89	0,71	78,422	3,5	1005,9	7,3	9,2	9	1	1	1	1	1	1	1	1	1	0	1	-44,397463	274,732521	278,618022	0
14.01.2021	20:12:19	0	0	4,632092	3,09675	89,7192	0,701	78,409	3,5	1005,82	7,3	9,2	9,1	1	1	1	1	1	1	1	1	1	0	1	-48,20296	274,655572	274,45079	0
14.01.2021	20:12:20	0	0	3,954249	2,89275	85,2012	0,705	78,4	3,5	1005,74	7,3	9,2	9	1	1	1	1	1	1	1	1	1	0	1	-40,591966	274,555995	281,594122	0
14.01.2021	20:12:21	0	0	3,84127	2,85975	89,7336	0,705	78,393	3,5	1005,84	7,3	9,2	9	1	1	1	1	1	1	1	1	1	0	1	-45,525018	274,603422	276,883746	0
14.01.2021	20:12:22	0	0	4,745098	3,096	81,99	0,708	78,381	3,5	1005,9	7,3	9,2	9	1	1	1	1	1	1	1	1	1	0	1	-41,296688	274,56058	280,910921	0
14.01.2021	20:12:23	0	0	3,163399	3,48225	82,35	0,705	78,359	3,5	1005,86	7,3	9,2	9	1	1	1	1	1	1	1	1	1	0	1	-41,860465	274,624879	280,649078	0
14.01.2021	20:12:24	0	0	4,519114	3,77025	81,9396	0,71	78,329	3,5	1005,72	7,3	9,2	9,1	1	1	1	1	1	1	1	1	1	0	1	-45,031712	274,568223	277,211777	0
14.01.2021	20:12:25	0	0	3,16338	3,9435	86,9796	0,711	78,325	3,5	1005,8	7,3	9,2	9,1	1	1	1	1	1	1	1	1	1	0	1	-41,014799	274,60955	281,422745	0
14.01.2021	20:12:26	0	0	3,389356	4,27275	87,3612	0,708	78,315	3,5	1005,92	7,3	9,2	9	1	1	1	1	1	1	1	1	1	0	1	-43,692741	274,735605	279,337249	0
14.01.2021	20:12:27	0	0	2,598506	4,59	79,7796	0,703	78,31	3,5	1005,9	7,3	9,2	9	1	1	1	1	1	1	1	1	1	0	1	-47,004933	274,660181	275,670472	0
14.01.2021	20:12:28	0	0	4,067227	4,43025	82,3752	0,701	78,277	3,5	1005,8	7,3	9,2	9	1	1	1	1	1	1	1	1	1	0	1	-47,21635	274,566694	275,019963	0
14.01.2021	20:12:29	0	0	4,63212	4,02	78,2892	0,71	78,281	3,5	1005,84	7,3	9,2	9	1	1	1	1	1	1	1	1	1	0	1	-42,565187	274,571281	279,69266	0
14.01.2021	20:12:30	0	0	2,711485	3,6225	77,5728	0,707	78,257	3,5	1005,84	7,3	9,2	9	1	1	1	1	1	1	1	1	1	0	1	-43,763214	274,714025	279,165296	0
14.01.2021	20:12:31	0	0	2,598491	3,3255	75,2328	0,706	78,248	3,5	1005,84	7,3	9,2	9,1	1	1	1	1	1	1	1	1	1	0	1	-42,35377	274,562108	279,861013	0
14.01.2021	20:12:32	0	0	4,519114	3,156	68,3928	0,707	78,246	3,5	1005,86	7,3	9,2	9,1	1	1	1	1	1	1	1	1	1	0	1	-42,706131	274,638685	279,868271	0
14.01.2021	20:12:33	0	0	3,389336	3,33525	66,2004	0,706	78,241	3,5	1005,84	7,3	9,2	9,1	1	1	1	1	1	1	1	1	1	0	1	-44,186047	274,57434	278,08616	0
14.01.2021	20:12:34	0	0	2,711468	3,726	79,0344	0,707	78,242	3,5	1006	7,3	9,2	9,1	1	1	1	1	1	1	1	1	1	0	1	-45,172657	274,709404	277,734124	0
14.01.2021	20:12:35	0	0	2,372549	3,78	84,528	0,701	78,238	3,5	1005,82	7,3	9,2	9	1	1	1	1	1	1	1	1	1	0	1	-44,467935	274,559051	277,7325	0
14.01.2021	20:12:36	0	0	2,824446	4,119	88,11	0,704	78,237	3,5	1005,9	7,3	9,2	9,1	1	1	1	1	1	1	1	1	1	0	1	-46,018323	274,694008	276,816077	0
14.01.2021	20:12:37	0	0	3,615291	4,34625	80,5284	0,706	78,227	3,5	1005,94	7,3	9,2	9,1	1	1	1	1	1	1	1	1	1	0	1	-43,128964	274,551412	279,03561	0
14.01.2021	20:12:38	0	0	4,632092	4,458	67,68	0,704	78,226	3,5	1005,88	7,3	9,2	9,1	1	1	1	1	1	1	1	1	1	0	1	-41,437632	274,598827	280,949553	0
14.01.2021	20:12:39	0	0	4,293158	4,87125	69,858	0,696	78,219	3,5	1005,76	7,3	9,2	9,1	1	1	1	1	1	1	1	1	1	0	1	-42,776603	274,718647	280,173641	0
14.01.2021	20:12:40	0	0	2,485513	4,83675	63,486	0,702	78,223	3,5	1005,74	7,4	9,2	9,1	1	1	1	1	1	1	1	1	1	0	1	-44,115574	274,60955	278,321969	0
14.01.2021	20:12:41	0	0	2,598506	4,7685	63,162	0,704	78,229	3,5	1005,86	7,3	9,2	9	1	1	1	1	1	1	1	1	1	0	1	-46,934461	274,720188	276,023029	0
14.01.2021	20:12:42	0	0	3,389356	5,0655	59,4684	0,7	78,247	3,5	1005,76	7,3	9,2	9	1	1	1	1	1	1	1	1	1	0	1	-44,467935	274,568223	277,775555	0
14.01.2021	20:12:43	0	0	3,615291	5,298	50,292	0,702	78,251	3,5	1005,7	7,3	9,2	9,1	1	1	1	1	1	1	1	1	1	0	1	-43,622269	274,635616	278,937715	0
14.01.2021	20:12:44	0	0	4,519114	5,151	48,1248	0,699	78,266	3,5	1005,7	7,3	9,2	9,1	1	1	1	1	1	1	1	1	1	0	1	-41,296688	274,707864	281,602852	0
14.01.2021	20:12:45	0	0	2,824463	4,9245	62,4024	0,704	78,284	3,5	1005,84	7,3	9,2	9	1	1	1	1	1	1	1	1	1	0	1	-45,877378	274,677087	276,877482	0
14.01.2021	20:12:46	0	0	3,050402	4,5885	65,8584	0,694	78,293	3,5	1005,74	7,3	9,2	9,1	1	1	1	1	1	1	1	1	1	0	1	-46,793517	274,715566	276,142237	0
14.01.2021	20:12:47	0	0	3,050402	4,31475	74,5236	0,698	78,299	3,5	1005,8	7,4	9,2	9,1	1	1	1	1	1	1	1	1	1	0	1	-43,269908	274,58658	279,059765	0
14.01.2021	20:12:48	0	0	3,954225	3,915	70,8552	0,699	78,295	3,5	1005,92	7,3	9,2	9,1	1	1	1	1	1	1	1	1	1	0	1	-48,20296	274,721729	274,761777	0
14.01.2021	20:12:49	0	0	4,519114	3,57525	66,5568	0,699	78,306	3,5	1005,88	7,4	9,2	9,1	1	1	1	1	1	1	1	1	1	0	1	-47,004933	274,545302	275,130966	0
14.01.2021	20:12:50	0	0	4,293184	3,49425	89,334	0,701	78,314	3,5	1005,82	7,3	9,2	9	1	1	1	1	1	1	1	1	1	0	1	-42,565187	274,732521	280,450298	0
14.01.2021	20:12:51	0	0	4,067203	3,6795	78,6528	0,698	78,322	3,5	1005,8	7,3	9,2	9,1	1	1	1	1	1	1	1	1	1	0	1	-46,863989	274,595765	275,508814	0
14.01.2021	20:12:52	0	0	3,502313	3,876	74,9232	0,699	78,302	3,5	1005,86	7,3	9,2	9,1	1	1	1	1	1	1	1	1	1	0	1	-44,679352	274,727895	278,31438	0
14.01.2021	20:12:53	0	0	4,180181	3,94425	83,3364	0,698	78,304	3,5	1005,74	7,3	9,2	9,1	1	1	1	1	1	1	1	1	1	0	1	-43,97463	274,701705	278,895952	0
14.01.2021	20:12:54	0	0	4,406136	4,07925	95,1624	0,698	78,321	3,5	1005,86	7,3	9,2	9,1	1	1	1	1	1	1	1	1	1	0	1	-45,031712	274,672475	277,70147	0
14.01.2021	20:12:55	0	0	3,389356	4,152	97,3512	0,698	78,311	3,5	1005,84	7,3	9,2	9	1	1	1	1	1	1	1	1	1	0	1	-46,370684	274,732521	276,644801	0
14.01.2021	20:12:56	0	0	4,406136	4,236	89,028	0,7	78,299	3,5	1005,82	7,3	9,2	9,1	1	1	1	1	1	1	1	1	1	0	1	-47,639183	274,598827	274,748003	0
14.01.2021	20:12:57	0	0	4,180181	4,59375	99,1548	0,7	78,29	3,5	1005,84	7,3	9,2	9,1	1	1	1	1	1	1	1	1	1	0	1	-40,169133	274,721729	282,795604	0
14.01.2021	20:12:58	0	0	2,372535	4,728	90,3996	0,694	78,282	3,5	1005,78	7,3	9,2	9,1	1	1	1	1	1	1	1	1	1	0	1	-45,313601	274,581989	276,994517	0
14.01.2021	20:12:59	0	0	4,632092	4,6215	92,6424	0,699	78,292	3,5	1005,9	7,3	9,2	9,1	1	1	1	1	1	1	1	1	1	0	1	-44,538407	274,551412	277,626167	0
14.01.2021	20:13:00	0	0	4,971026	4,56075	95,8536	0,695	78,278	3,5	1005,86	7,4	9,2	9,1	1	1	1	1	1	1	1	1	1	0	1	-42,917548	274,551412	279,247027	0
14.01.2021	20:13:01	0	0	4,406163	4,53375	86,6556	0,696	78,257	3,5	1005,74	7,3	9,2	9	1	1	1	1	1	1	1	1	1	0	1	-43,340381	274,591172	279,010855	0
14.01.2021	20:13:02	0	0	4,406163	4,53375	86,6556	0,696	78,257	3,5	1005,74	7,3	9,2	9	1	1	1	1	1	1	1	1	1	0	1	-44,890768	274,683238	277,893006	0
14.01.2021	20:13:03	0	0	4,067203	4,2195	98,7696	0,696	78,249	3,5	1005,96	7,4	9,2	9,1	1	1	1	1	1	1	1	1	1	0	1	-45,384073	274,700165	277,479271	0
14.01.2021	20:13:04	0	0	4,067203	3,993	96,9516	0,694	78,235	3,5	1005,78	7,3	9,2	9,1	1	1	1	1	1	1	1	1	1	0	1	-47,075405	274,675549	275,672228	0
14.01.2021	20:13:05	0	0	3,050402	3,9555	90,0288	0,695	78,258	3,5	1005,92	7,4	9,3	9,1	1	1	1	1	1	1	1	1	1	0	1	-48,20296	274,563637	274,018999	0
14.01.2021	20:13:06	0	0	4,406136	4,161	80,8776	0,696	78,269	3,5	1005,9	7,3	9,2	9,1	1	1	1	1	1	1	1	1	1	0	1	-48,273432	274,539194	273,833802	0
14.01.2021	20:13:07	0	0	3,502313	4,48425	80,5212	0,689	78,283	3,5	1005,78	7,3	9,2	9,1	1	1	1	1	1	1	1	1	1	0	1	-45,736434	274,641754	276,852389	0
14.01.2021	20:13:08	0	0	4,632092	4,575	70,5924	0,687	78,287	3,5	1005,72	7,3	9,2	9,1	1	1	1	1	1	1	1	1	1	0	1	-42,071882	274,730979	280,936351	0
14.01.2021	20:13:09	0	0	4,067203	4,623	71,226	0,691	78,289	3,5	1005,8	7,3	9,2	9,1	1	1	1	1	1	1	1	1	1	0	1	-42,847075	274,603422	279,561688	0
14.01.2021	20:13:10	0	0	3,050402	4,7235	73,8072	0,691	78,303	3,5	1005,64	7,4	9,2	9,1	1	1	1	1	1	1	1	1	1	0	1	-43,692741	274,526985	278,357196	0
14.01.2021	20:13:11	0	0	2,937424	4,64625	81,5868	0,689	78,333	3,5	1005,86	7,4	9,2	9,1	1	1	1	1	1	1	1	1	1	0	1	-48,062016	274,661717	274,620609	0
14.01.2021	20:13:12	0	0	2,372535	4,6965	78,2712	0,69	78,347	3,5	1005,84	7,3	9,2	9,1	1	1	1	1	1	1	1	1	1	0	1	-46,863989	274,542248	275,257576	0
14.01.2021	20:13:13	0	0	4,067203	4,5525	75,2004	0,685	78,369	3,5	1005,78	7,4	9,2	9,1	1	1	1	1	1	1	1	1	1	0	1	-40,732911	274,565165	281,496225	0
14.01.2021	20:13:14	0	0	3,050402	4,389	99,5292	0,687	78,387	3,5	1005,86	7,3	9,3	9,1	1	1	1	1	1	1	1	1	1	0	1	-41,649049	274,537668	280,451021	0
14.01.2021	20:13:15	0	0	3,615291	3,993	83,7072	0,687	78,396	3,5	1005,88	7,4	9,2	9,1	1	1	1	1	1	1	1	1	1	0	1	-47,145877	274,672475	275,587305	0
14.01.2021	20:13:16	0	0	4,74507	4,09425	86,6556	0,692	78,41	3,5	1005,92	7,4	9,2	9,1	1	1	1	1	1	1	1	1	1	0	1	-48,062016	274,555995	274,124073	0
14.01.2021	20:13:17	0	0	3,05042	4,41675	94,3848	0,685	78,42	3,5	1005,86	7,3	9,2	9	1	1	1	1	1	1	1	1	1	0	1	-44,820296	274,566694	277,416016	0
14.01.2021	20:13:18	0	0	3,615291	4,39275	87,7392	0,688	78,442	3,5	1005,96	7,3	9,2	9,1	1	1	1	1	1	1	1	1	1	0	1	-42,35377	274,551412	279,810804	0
14.01.2021	20:13:19	0	0	3,728269	4,2825	83,7396	0,688	78,406	3,5	1005,94	7,4	9,2	9,1	1	1	1	1	1	1	1	1	1	0	1	-44,96124	274,632547	277,584329	0
14.01.2021	20:13:20	0	0	4,632092	4,05825	83,7432	0,691	78,405	3,5	1005,9	7,4	9,3	9,1	1	1	1	1	1	1	1	1	1	0	1	-47,56871	274,539194	274,538524	0
14.01.2021	20:13:21	0	0	2,711468	4,065	84,8124	0,685	78,397	3,5	1005,8	7,4	9,2	9,1	1	1	1	1	1	1	1	1	1	0	1	-46,652572	274,566694	275,58374	0
14.01.2021	20:13:22	0	0	4,74507	3,99675	81,6156	0,682	78,394	3,5	1005,76	7,4	9,3	9,1	1	1	1	1	1	1	1	1	1	0	1	-45,384073	274,707864	277,515467	0
14.01.2021	20:13:23	0	0	4,74507	4,143	94,3812	0,689	78,414	3,5	1005,92	7,4	9,2	9,1	1	1	1	1	1	1	1	1	1	0	1	-44,820296	274,57587	277,459092	0
14.01.2021	20:13:24	0	0	3,276358	4,80675	81,1656	0,688	78,42	3,5	1005,96	7,4	9,2	9,1	1	1	1	1	1	1	1	1	1	0	1	-45,665962	274,700165	277,197382	0
14.01.2021	20:13:25	0	0	5,309959	5,24475	92,2644	0,681	78,399	3,5	1005,82	7,4	9,2	9,1	1	1	1	1	1	1	1	1	1	0	1	-42,776603	274,706324	280,115696	0
14.01.2021	20:13:26	0	0	5,196981	5,19675	85,4928	0,682	78,402	3,5	1005,86	7,4	9,2	9,1	1	1	1	1	1	1	1	1	1	0	1	-49,82382	274,604954	272,592138	0
14.01.2021	20:13:27	0	0	3,728269	5,28975	80,5284	0,685	78,399	3,5	1005,94	7,3	9,2	9,1	1	1	1	1	1	1	1	1	1	0	1	-52,008457	274,712485	270,912809	0
14.01.2021	20:13:28	0	0	2,937424	5,60175	83,718	0,684	78,41	3,5	1005,92	7,4	9,1	9,1	1	1	1	1	1	1	1	1	1	0	1	-42,776603	274,585049	279,545885	0
14.01.2021	20:13:29	0	0	4,180181	5,50875	90,0216	0,683	78,403	3,5	1005,66	7,4	9,3	9,1	1	1	1	1	1	1	1	1	1	0	1	-42,35377	274,549884	279,803634	0
14.01.2021	20:13:30	0	0	2,937424	5,43	83,6928	0,679	78,426	3,5	1005,82	7,2	9,2	9,1	1	1	1	1	1	1	1	1	1	0	1	-43,340381	274,580459	278,960554	0
14.01.2021	20:13:31	0	0	2,485513	5,37075	81,5904	0,68	78,425	3,5	1005,86	7,3	9,2	9,1	1	1	1	1	1	1	1	1	1	0	1	-43,763214	274,548357	278,387022	0
14.01.2021	20:13:32	0	0	2,598491	5,424	98,0604	0,678	78,456	3,5	1005,74	7,4	9,2	9,1	1	1	1	1	1	1	1	1	1	0	1	-47,286822	274,563637	274,935137	0
14.01.2021	20:13:33	0	0	2,937424	5,0415	88,0668	0,684	78,473	3,5	1005,74	7,2	9,2	9,1	1	1	1	1	1	1	1	1	1	0	1	-42,142354	274,674012	280,598054	0
14.01.2021	20:13:34	0	0	2,598491	4,74525	79,038	0,686	78,484	3,5	1005,9	7,3	9,2	9,1	1	1	1	1	1	1	1	1	1	0	1	-45,59549	274,721729	277,369247	0
14.01.2021	20:13:35	0	0	5,422937	4,71225	77,9688	0,677	78,503	3,5	1005,96	7,3	9,2	9,1	1	1	1	1	1	1	1	1	1	0	1	-43,692741	274,594233	278,672872	0
14.01.2021	20:13:36	0	0	4,519114	4,791	74,1492	0,682	78,517	3,5	1005,78	7,4	9,2	9,1	1	1	1	1	1	1	1	1	1	0	1	-46,229739	274,714025	276,69877	0
14.01.2021	20:13:37	0	0	4,293158	4,78725	67,6692	0,678	78,536	3,5	1005,94	7,3	9,2	9,1	1	1	1	1	1	1	1	1	1	0	1	-45,243129	274,629479	277,288028	0
14.01.2021	20:13:38	0	0	3,050402	4,6335	80,1432	0,682	78,535	3,5	1005,88	7,4	9,2	9,1	1	1	1	1	1	1	1	1	1	0	1	-44,397463	274,537668	277,702606	0
14.01.2021	20:13:39	0	0	4,406136	4,491	76,3668	0,675	78,54	3,5	1005,9	7,3	9,2	9,1	1	1	1	1	1	1	1	1	1	0	1	-44,679352	274,64943	277,945535	0
14.01.2021	20:13:40	0	0	2,485513	4,338	89,3232	0,67	78,533	3,5	1005,86	7,4	9,3	9,1	1	1	1	1	1	1	1	1	1	0	1	-46,511628	274,526985	275,538309	0
14.01.2021	20:13:41	0	0	3,16338	3,96225	91,4868	0,682	78,536	3,5	1005,78	7,3	9,3	9,1	1	1	1	1	1	1	1	1	1	0	1	-44,890768	274,626412	277,625979	0
14.01.2021	20:13:42	0	0	4,180206	4,02975	87,3432	0,677	78,532	3,5	1005,86	7,3	9,3	9	1	1	1	1	1	1	1	1	1	0	1	-42,212826	274,694008	280,621574	0
14.01.2021	20:13:43	0	0	3,502313	3,969	85,5612	0,673	78,522	3,5	1005,88	7,3	9,2	9,1	1	1	1	1	1	1	1	1	1	0	1	-44,890768	274,64943	277,734118	0
14.01.2021	20:13:44	0	0	3,954225	4,23975	81,6228	0,676	78,534	3,5	1006,06	7,3	9,3	9,1	1	1	1	1	1	1	1	1	1	0	1	-40,662438	274,525459	281,38034	0
14.01.2021	20:13:45	0	0	3,050402	4,70325	83,3112	0,672	78,526	3,5	1005,74	7,4	9,3	9,1	1	1	1	1	1	1	1	1	1	0	1	-41,296688	274,562108	280,918096	0
14.01.2021	20:13:46	0	0	2,824446	4,938	84,0528	0,675	78,536	3,5	1005,8	7,2	9,3	9,1	1	1	1	1	1	1	1	1	1	0	1	-43,410853	274,692469	279,416313	0
14.01.2021	20:13:47	0	0	3,615291	4,84725	88,9524	0,677	78,525	3,5	1005,94	7,3	9,2	9,1	1	1	1	1	1	1	1	1	1	0	1	-44,538407	274,63715	278,028785	0
14.01.2021	20:13:48	0	0	4,406136	4,3155	77,976	0,672	78,536	3,5	1005,8	7,3	9,2	9,1	1	1	1	1	1	1	1	1	1	0	1	-42,35377	274,52851	279,703327	0
14.01.2021	20:13:49	0	0	2,711468	3,92175	70,5744	0,674	78,547	3,5	1005,8	7,3	9,3	9,1	1	1	1	1	1	1	1	1	1	0	1	-42,071882	274,568223	280,171608	0
14.01.2021	20:13:50	0	0	4,519114	3,89625	77,9796	0,674	78,532	3,5	1005,8	7,3	9,2	9,1	1	1	1	1	1	1	1	1	1	0	1	-43,692741	274,700165	279,170603	0
14.01.2021	20:13:51	0	0	4,519114	3,71175	77,2164	0,679	78,555	3,5	1005,76	7,3	9,2	9,1	1	1	1	1	1	1	1	1	1	0	1	-44,467935	274,546829	277,675132	0
14.01.2021	20:13:52	0	0	4,858048	3,7275	70,596	0,675	78,555	3,5	1005,74	7,3	9,3	9,1	1	1	1	1	1	1	1	1	1	0	1	-48,484848	274,589641	273,859199	0
14.01.2021	20:13:53	0	0	2,824446	3,42975	91,1592	0,673	78,562	3,5	1005,82	7,3	9,3	9,1	1	1	1	1	1	1	1	1	1	0	1	-44,538407	274,703244	278,339413	0
14.01.2021	20:13:54	0	0	4,293158	3,3315	84,4308	0,676	78,578	3,5	1005,72	7,3	9,3	9,1	1	1	1	1	1	1	1	1	1	0	1	-46,159267	274,641754	276,429556	0
14.01.2021	20:13:55	0	0	4,180181	3,738	84,4344	0,673	78,571	3,5	1005,62	7,4	9,2	9,1	1	1	1	1	1	1	1	1	1	0	1	-47,427766	274,710944	275,486257	0
14.01.2021	20:13:56	0	0	3,050402	4,113	84,06	0,677	78,567	3,5	1005,68	7,3	9,2	9,1	1	1	1	1	1	1	1	1	1	0	1	-40,521494	274,640219	282,060118	0
14.01.2021	20:13:57	0	0	4,406136	4,548	86,9868	0,67	78,575	3,5	1005,8	7,3	9,3	9,1	1	1	1	1	1	1	1	1	1	0	1	-47,780127	274,707864	275,119413	0
14.01.2021	20:13:58	0	0	2,711468	4,67175	88,5888	0,669	78,569	3,5	1005,76	7,4	9,3	9,1	1	1	1	1	1	1	1	1	1	0	1	-41,719521	274,652501	280,919796	0
14.01.2021	20:13:59	0	0	2,937424	4,61325	86,7348	0,671	78,575	3,5	1005,7	7,3	9,3	9,1	1	1	1	1	1	1	1	1	1	0	1	-45,525018	274,56058	276,682591	0
14.01.2021	20:14:00	0	0	2,485513	4,89975	75,2436	0,669	78,587	3,5	1005,86	7,3	9,3	9,1	1	1	1	1	1	1	1	1	1	0	1	-40,944327	274,546829	281,19874	0
14.01.2021	20:14:01	0	0	5,197012	4,7115	65,466	0,669	78,58	3,5	1005,68	7,3	9,1	9	1	1	1	1	1	1	1	1	1	0	1	-44,749824	274,657108	277,911144	0
14.01.2021	20:14:02	0	0	5,197012	4,7115	65,466	0,669	78,58	3,5	1005,68	7,3	9,1	9	1	1	1	1	1	1	1	1	1	0	1	-44,749824	274,657108	277,911144	0
14.01.2021	20:14:03	0	0	4,293158	4,62975	77,2416	0,672	78,579	3,5	1005,8	7,3	9,3	9,1	1	1	1	1	1	1	1	1	1	0	1	-46,723044	274,689392	276,089654	0
14.01.2021	20:14:04	0	0	2,372535	4,65075	88,0992	0,671	78,578	3,5	1005,8	7,4	9,2	9,1	1	1	1	1	1	1	1	1	1	0	1	-46,018323	274,597296	276,361671	0
14.01.2021	20:14:05	0	0	4,293158	5,2065	100,7424	0,67	78,577	3,5	1005,76	7,3	9,3	9,1	1	1	1	1	1	1	1	1	1	0	1	-45,806906	274,533089	276,271674	0
14.01.2021	20:14:06	0	0	4,74507	5,57925	71,3412	0,665	78,564	3,5	1005,84	7,4	9,3	9,1	1	1	1	1	1	1	1	1	1	0	1	-42,142354	274,704784	280,742706	0
14.01.2021	20:14:07	0	0	2,937424	6,288	76,8024	0,669	78,56	3,5	1005,84	7,3	9,3	9,1	1	1	1	1	1	1	1	1	1	0	1	-45,947851	274,670938	276,778107	0
14.01.2021	20:14:08	0	0	4,632092	6,1305	67,6548	0,669	78,577	3,5	1005,88	7,3	9,3	9,1	1	1	1	1	1	1	1	1	1	0	1	-42,635659	274,718647	280,314585	0
14.01.2021	20:14:09	0	0	4,067203	6,132	81,2124	0,669	78,573	3,5	1005,86	7,3	9,3	9,1	1	1	1	1	1	1	1	1	1	0	1	-43,410853	274,654036	279,235681	0
14.01.2021	20:14:10	0	0	4,74507	5,57775	95,1516	0,672	78,573	3,5	1005,82	7,3	9,2	9,1	1	1	1	1	1	1	1	1	1	0	1	-46,088795	274,530036	275,975462	0
14.01.2021	20:14:11	0	0	4,632092	5,59125	85,2048	0,665	78,574	3,5	1005,88	7,3	9,3	9,1	1	1	1	1	1	1	1	1	1	0	1	-47,991543	274,603422	274,41722	0
14.01.2021	20:14:12	0	0	2,937442	5,45625	87,3468	0,67	78,572	3,5	1005,86	7,3	9,3	9	1	1	1	1	1	1	1	1	1	0	1	-40,662438	274,523933	281,373182	0
14.01.2021	20:14:13	0	0	3,050402	5,19675	79,0416	0,669	78,597	3,5	1005,74	7,3	9,3	9,1	1	1	1	1	1	1	1	1	1	0	1	-43,410853	274,657108	279,250115	0
14.01.2021	20:14:14	0	0	3,050402	5,35575	87,7284	0,664	78,591	3,5	1005,84	7,3	9,2	9,1	1	1	1	1	1	1	1	1	1	0	1	-40,169133	274,717106	282,773865	0
14.01.2021	20:14:15	0	0	2,824446	4,83675	109,6056	0,664	78,589	3,5	1005,76	7,3	9,3	9,1	1	1	1	1	1	1	1	1	1	0	1	-46,088795	274,60955	276,348749	0
14.01.2021	20:14:16	0	0	3,276358	4,776	123,4656	0,669	78,585	3,5	1006,02	7,3	9,2	9,1	1	1	1	1	1	1	1	1	1	0	1	-46,863989	274,703244	276,013831	0
14.01.2021	20:14:17	0	0	3,84127	4,689	100,7388	0,663	78,58	3,5	1005,62	7,3	9,3	9	1	1	1	1	1	1	1	1	1	0	1	-43,833686	274,617213	278,639849	0
14.01.2021	20:14:18	0	0	3,163399	4,8975	90,3924	0,667	78,58	3,5	1005,78	7,3	9,2	9	1	1	1	1	1	1	1	1	1	0	1	-37,984496	274,546829	284,158571	0
14.01.2021	20:14:19	0	0	2,824446	5,45175	101,8332	0,663	78,576	3,5	1005,86	7,4	9,2	9,1	1	1	1	1	1	1	1	1	1	0	1	-41,085271	274,571281	281,172576	0
14.01.2021	20:14:20	0	0	2,372535	5,7165	101,1204	0,664	78,58	3,5	1005,86	7,3	9,3	9,1	1	1	1	1	1	1	1	1	1	0	1	-44,749824	274,543775	277,378908	0
14.01.2021	20:14:21	0	0	3,050402	5,826	102,582	0,662	78,597	3,5	1005,82	7,3	9,3	9,1	1	1	1	1	1	1	1	1	1	0	1	-46,652572	274,543775	275,476159	0
14.01.2021	20:14:22	0	0	2,598491	5,985	96,9804	0,666	78,591	3,5	1005,66	7,3	9,3	9,1	1	1	1	1	1	1	1	1	1	0	1	-43,622269	274,546829	278,520797	0
14.01.2021	20:14:23	0	0	3,276358	6,22425	102,1968	0,66	78,59	3,5	1005,74	7,4	9,2	9,1	1	1	1	1	1	1	1	1	1	0	1	-41,508104	274,555995	280,677984	0
14.01.2021	20:14:24	0	0	4,858048	6,22575	91,5084	0,665	78,602	3,5	1006,02	7,3	9,3	9,1	1	1	1	1	1	1	1	1	1	0	1	-46,652572	274,592702	275,705852	0
14.01.2021	20:14:25	0	0	2,598491	6,33225	85,536	0,662	78,606	3,5	1005,8	7,4	9,3	9,1	1	1	1	1	1	1	1	1	1	0	1	-43,481325	274,706324	279,410974	0
14.01.2021	20:14:26	0	0	4,519141	5,9535	100,35	0,661	78,608	3,5	1005,84	7,3	9,3	9	1	1	1	1	1	1	1	1	1	0	1	-45,172657	274,626412	277,34409	0
14.01.2021	20:14:27	0	0	4,180181	6,77025	94,0932	0,667	78,629	3,5	1005,84	7,3	9,3	9,1	1	1	1	1	1	1	1	1	1	0	1	-45,384073	274,697086	277,464797	0
14.01.2021	20:14:28	0	0	3,728292	7,01775	102,9492	0,665	78,656	3,5	1006	7,3	9,2	9	1	1	1	1	1	1	1	1	1	0	1	-44,115574	274,674012	278,624833	0
14.01.2021	20:14:29	0	0	2,485513	6,40425	101,8224	0,658	78,666	3,5	1005,84	7,4	9,2	9,1	1	1	1	1	1	1	1	1	1	0	1	-42,635659	274,571281	279,622188	0
14.01.2021	20:14:30	0	0	3,954249	6,0195	101,4876	0,656	78,699	3,5	1005,82	7,3	9,2	9	1	1	1	1	1	1	1	1	1	0	1	-46,441156	274,624879	276,068388	0
14.01.2021	20:14:31	0	0	4,067227	6,5355	92,6388	0,658	78,705	3,5	1005,82	7,3	9,3	9	1	1	1	1	1	1	1	1	1	0	1	-41,649049	274,697086	281,199822	0
14.01.2021	20:14:32	0	0	2,937442	7,19325	85,5396	0,663	78,729	3,5	1005,92	7,3	9,2	9	1	1	1	1	1	1	1	1	1	0	1	-46,441156	274,598827	275,946029	0
14.01.2021	20:14:33	0	0	3,728292	7,11375	85,1904	0,665	78,731	3,5	1005,88	7,3	9,3	9	1	1	1	1	1	1	1	1	1	0	1	-43,269908	274,539194	278,837326	0
14.01.2021	20:14:34	0	0	4,632092	6,99	92,97	0,656	78,727	3,5	1005,8	7,3	9,2	9,1	1	1	1	1	1	1	1	1	1	0	1	-44,397463	274,650965	278,234638	0
14.01.2021	20:14:35	0	0	2,711485	6,906	91,5444	0,658	78,733	3,5	1005,78	7,3	9,3	9	1	1	1	1	1	1	1	1	1	0	1	-42,98802	274,692469	279,839146	0
14.01.2021	20:14:36	0	0	4,293158	6,7755	94,3848	0,664	78,735	3,5	1005,86	7,3	9,3	9,1	1	1	1	1	1	1	1	1	1	0	1	-43,481325	274,643289	279,114709	0
14.01.2021	20:14:37	0	0	5,196981	6,96375	88,0992	0,665	78,744	3,5	1005,86	7,3	9,3	9,1	1	1	1	1	1	1	1	1	1	0	1	-45,59549	274,6817	277,181055	0
14.01.2021	20:14:38	0	0	4,632092	7,0545	86,652	0,661	78,733	3,5	1005,78	7,3	9,2	9,1	1	1	1	1	1	1	1	1	1	0	1	-45,031712	274,672475	277,70147	0
14.01.2021	20:14:39	0	0	2,372549	7,1415	88,2288	0,664	78,742	3,5	1005,78	7,3	9,3	9	1	1	1	1	1	1	1	1	1	0	1	-46,159267	274,698626	276,69684	0
14.01.2021	20:14:40	0	0	3,502313	6,8295	85,878	0,661	78,758	3,5	1006,1	7,3	9,3	9,1	1	1	1	1	1	1	1	1	1	0	1	-42,98802	274,660181	279,687385	0
14.01.2021	20:14:41	0	0	2,146579	6,7665	84,7944	0,664	78,773	3,5	1006,06	7,3	9,2	9,1	1	1	1	1	1	1	1	1	1	0	1	-41,789993	274,531562	280,281425	0
14.01.2021	20:14:42	0	0	4,63212	6,83025	86,9832	0,669	78,786	3,5	1005,94	7,3	9,3	9	1	1	1	1	1	1	1	1	1	0	1	-45,313601	274,674012	277,426806	0
14.01.2021	20:14:43	0	0	4,63212	6,6825	91,8648	0,664	78,797	3,5	1005,96	7,3	9,3	9	1	1	1	1	1	1	1	1	1	0	1	-46,300211	274,710944	276,613812	0
14.01.2021	20:14:44	0	0	4,406163	6,243	74,1636	0,66	78,805	3,5	1005,92	7,3	9,3	9	1	1	1	1	1	1	1	1	1	0	1	-44,749824	274,61568	277,716511	0
14.01.2021	20:14:45	0	0	4,632092	6,0015	82,5912	0,663	78,816	3,5	1005,86	7,3	9,2	9,1	1	1	1	1	1	1	1	1	1	0	1	-46,723044	274,526985	275,326893	0
14.01.2021	20:14:46	0	0	3,615291	5,715	85,5288	0,664	78,852	3,5	1005,84	7,3	9,3	9,1	1	1	1	1	1	1	1	1	1	0	1	-49,612403	274,670938	273,113555	0
14.01.2021	20:14:47	0	0	3,615313	5,38425	84,8052	0,659	78,86	3,5	1005,86	7,3	9,2	9	1	1	1	1	1	1	1	1	1	0	1	-44,890768	274,692469	277,936397	0
14.01.2021	20:14:48	0	0	3,16338	5,013	79,7688	0,665	78,875	3,5	1005,82	7,3	9,3	9,1	1	1	1	1	1	1	1	1	1	0	1	-46,793517	274,552939	275,378229	0
14.01.2021	20:14:49	0	0	3,728292	4,85175	82,6308	0,662	78,889	3,5	1005,84	7,3	9,3	9	1	1	1	1	1	1	1	1	1	0	1	-46,863989	274,551412	275,300586	0
14.01.2021	20:14:50	0	0	3,728292	4,77525	80,3772	0,659	78,933	3,5	1005,8	7,3	9,2	9	1	1	1	1	1	1	1	1	1	0	1	-45,59549	274,537668	276,50458	0
14.01.2021	20:14:51	0	0	2,372535	4,76925	85,5252	0,66	78,957	3,5	1005,88	7,3	9,2	9,1	1	1	1	1	1	1	1	1	1	0	1	-45,665962	274,577399	276,620607	0
14.01.2021	20:14:52	0	0	3,954225	4,69275	86,6628	0,669	78,976	3,5	1005,74	7,3	9,2	9,1	1	1	1	1	1	1	1	1	1	0	1	-44,679352	274,721729	278,285385	0
14.01.2021	20:14:53	0	0	4,519141	4,722	79,4016	0,667	79,005	3,5	1005,92	7,3	9,2	9	1	1	1	1	1	1	1	1	1	0	1	-44,186047	274,684777	278,604958	0
14.01.2021	20:14:54	0	0	2,485528	4,695	78,2784	0,668	79,005	3,5	1005,86	7,3	9,2	9	1	1	1	1	1	1	1	1	1	0	1	-46,5821	274,578929	275,711652	0
14.01.2021	20:14:55	0	0	2,372549	4,5165	104,0292	0,667	79,036	3,5	1005,86	7,3	9,2	9	1	1	1	1	1	1	1	1	1	0	1	-48,907681	274,677087	273,847179	0
14.01.2021	20:14:56	0	0	2,598506	4,10475	92,6352	0,663	79,026	3,5	1005,78	7,3	9,2	9	1	1	1	1	1	1	1	1	1	0	1	-45,877378	274,563637	276,344581	0
14.01.2021	20:14:57	0	0	4,067227	4,086	95,13	0,667	79,046	3,5	1005,92	7,3	9,2	9	1	1	1	1	1	1	1	1	1	0	1	-45,243129	274,703244	277,634691	0
14.01.2021	20:14:58	0	0	4,293184	3,915	77,9796	0,67	79,048	3,5	1005,74	7,3	9,2	9	1	1	1	1	1	1	1	1	1	0	1	-45,877378	274,562108	276,337405	0
14.01.2021	20:14:59	0	0	2,598506	4,038	73,782	0,67	79,046	3,5	1005,9	7,3	9,2	9	1	1	1	1	1	1	1	1	1	0	1	-46,018323	274,578929	276,275429	0
14.01.2021	20:15:00	0	0	4,293184	4,137	72,7776	0,666	79,026	3,5	1005,82	7,3	9,2	9	1	1	1	1	1	1	1	1	1	0	1	-45,947851	274,695547	276,893784	0
14.01.2021	20:15:01	0	0	4,293184	4,137	72,7776	0,666	79,026	3,5	1005,82	7,3	9,2	9	1	1	1	1	1	1	1	1	1	0	1	-45,947851	274,695547	276,893784	0
14.01.2021	20:15:02	0	0	4,293184	4,11375	75,9996	0,67	79,018	3,5	1005,94	7,3	9,2	9	1	1	1	1	1	1	1	1	1	0	1	-41,085271	274,701705	281,78531	0
14.01.2021	20:15:03	0	0	2,372549	4,06275	83,3544	0,671	79,005	3,5	1005,92	7,3	9,2	9	1	1	1	1	1	1	1	1	1	0	1	-49,400987	274,640219	273,180625	0
14.01.2021	20:15:04	0	0	3,502313	4,035	87,3792	0,677	79,007	3,5	1005,92	7,3	9,2	9,1	1	1	1	1	1	1	1	1	1	0	1	-49,400987	274,726354	273,585495	0
14.01.2021	20:15:05	0	0	3,954249	4,1535	84,06	0,672	78,975	3,5	1005,82	7,3	9,2	9	1	1	1	1	1	1	1	1	1	0	1	-44,186047	274,621812	278,309091	0
14.01.2021	20:15:06	0	0	2,824463	4,2465	85,5072	0,676	78,993	3,5	1005,92	7,3	9,3	9	1	1	1	1	1	1	1	1	1	0	1	-48,625793	274,737147	274,411452	0
14.01.2021	20:15:07	0	0	2,937442	4,5345	85,9032	0,679	78,968	3,5	1005,92	7,3	9,3	9	1	1	1	1	1	1	1	1	1	0	1	-48,343904	274,723271	274,62808	0
14.01.2021	20:15:08	0	0	2,485528	4,965	82,6092	0,674	78,961	3,5	1005,82	7,3	9,2	9	1	1	1	1	1	1	1	1	1	0	1	-44,326991	274,729437	278,673991	0
14.01.2021	20:15:09	0	0	2,824446	5,142	90,3888	0,674	78,934	3,5	1005,76	7,4	9,3	9,1	1	1	1	1	1	1	1	1	1	0	1	-43,199436	274,604954	279,216521	0
14.01.2021	20:15:10	0	0	3,728292	5,331	85,9068	0,681	78,912	3,5	1005,72	7,3	9,2	9	1	1	1	1	1	1	1	1	1	0	1	-44,256519	274,727895	278,737213	0
14.01.2021	20:15:11	0	0	4,519141	5,41575	83,3544	0,68	78,917	3,5	1005,94	7,3	9,2	9	1	1	1	1	1	1	1	1	1	0	1	-44,679352	274,638685	277,89505	0
14.01.2021	20:15:12	0	0	2,598506	5,3175	84,492	0,682	78,899	3,5	1005,98	7,3	9,2	9	1	1	1	1	1	1	1	1	1	0	1	-45,384073	274,552939	276,787672	0
14.01.2021	20:15:13	0	0	4,293184	5,0085	81,2124	0,681	78,878	3,5	1005,88	7,4	9,2	9	1	1	1	1	1	1	1	1	1	0	1	-46,652572	274,709404	276,254209	0
14.01.2021	20:15:14	0	0	3,841247	4,9965	85,9212	0,678	78,941	3,5	1005,98	7,3	9,2	9,1	1	1	1	1	1	1	1	1	1	0	1	-42,847075	274,568223	279,396414	0
14.01.2021	20:15:15	0	0	3,276358	5,106	81,2268	0,676	78,86	3,5	1005,88	7,3	9,2	9,1	1	1	1	1	1	1	1	1	1	0	1	-47,21635	274,690931	275,603582	0
14.01.2021	20:15:16	0	0	3,276377	5,03025	75,6216	0,679	78,851	3,5	1005,78	7,3	9,2	9	1	1	1	1	1	1	1	1	1	0	1	-47,075405	274,724812	275,903828	0
14.01.2021	20:15:17	0	0	2,711485	4,7715	75,6108	0,678	78,852	3,5	1005,74	7,3	9,2	9	1	1	1	1	1	1	1	1	1	0	1	-49,119098	274,680162	273,650218	0
14.01.2021	20:15:18	0	0	3,954249	4,4445	77,2092	0,687	78,831	3,5	1005,8	7,3	9,2	9	1	1	1	1	1	1	1	1	1	0	1	-41,508104	274,578929	280,785647	0
14.01.2021	20:15:19	0	0	4,519141	4,4865	79,3944	0,685	78,838	3,5	1005,86	7,3	9,2	9	1	1	1	1	1	1	1	1	1	0	1	-43,481325	274,660181	279,19408	0
14.01.2021	20:15:20	0	0	2,372549	4,56675	79,0344	0,681	78,817	3,5	1005,82	7,3	9,2	9	1	1	1	1	1	1	1	1	1	0	1	-49,260042	274,729437	273,74094	0
14.01.2021	20:15:21	0	0	3,276377	5,136	74,1492	0,681	78,807	3,5	1005,9	7,3	9,2	9	1	1	1	1	1	1	1	1	1	0	1	-48,978154	274,692469	273,849012	0
14.01.2021	20:15:22	0	0	2,259571	5,586	82,3572	0,683	78,783	3,5	1005,82	7,4	9,2	9	1	1	1	1	1	1	1	1	1	0	1	-48,273432	274,754121	274,843652	0
14.01.2021	20:15:23	0	0	3,389356	5,76225	79,02	0,683	78,777	3,5	1005,72	7,3	9,2	9	1	1	1	1	1	1	1	1	1	0	1	-48,837209	274,683238	273,946565	0
14.01.2021	20:15:24	0	0	2,259571	5,76375	89,3124	0,692	78,754	3,5	1005,78	7,3	9,2	9	1	1	1	1	1	1	1	1	1	0	1	-45,172657	274,551412	276,991918	0
14.01.2021	20:15:25	0	0	2,824463	5,44875	85,5144	0,692	78,743	3,5	1005,88	7,3	9,2	9	1	1	1	1	1	1	1	1	1	0	1	-45,384073	274,677087	277,370787	0
14.01.2021	20:15:26	0	0	2,937442	5,29125	96,5772	0,688	78,732	3,5	1005,78	7,3	9,2	9	1	1	1	1	1	1	1	1	1	0	1	-43,622269	274,554467	278,556647	0
14.01.2021	20:15:27	0	0	2,824463	5,27775	99,8964	0,695	78,736	3,5	1005,9	7,4	9,2	9	1	1	1	1	1	1	1	1	1	0	1	-43,833686	274,658644	278,8345	0
14.01.2021	20:15:28	0	0	4,971055	5,33775	103,6764	0,692	78,719	3,5	1005,86	7,3	9,2	9	1	1	1	1	1	1	1	1	1	0	1	-42,98802	274,571281	279,269827	0
14.01.2021	20:15:29	0	0	3,389356	5,25225	99,1368	0,694	78,708	3,5	1005,8	7,3	9,2	9	1	1	1	1	1	1	1	1	1	0	1	-43,551797	274,585049	278,770691	0
14.01.2021	20:15:30	0	0	2,485528	5,181	87,3612	0,694	78,697	3,5	1005,78	7,4	9,2	9	1	1	1	1	1	1	1	1	1	0	1	-44,96124	274,569752	277,289428	0
14.01.2021	20:15:31	0	0	2,146592	4,75575	103,7736	0,696	78,681	3,5	1005,84	7,4	9,2	9	1	1	1	1	1	1	1	1	1	0	1	-43,904158	274,58658	278,425516	0
14.01.2021	20:15:32	0	0	4,293184	4,60425	104,0652	0,689	78,67	3,5	1005,78	7,3	9,2	9	1	1	1	1	1	1	1	1	1	0	1	-49,753347	274,703244	273,124473	0
14.01.2021	20:15:33	0	0	4,632092	4,497	94,104	0,695	78,675	3,5	1005,94	7,4	9,2	9,1	1	1	1	1	1	1	1	1	1	0	1	-41,155743	274,757209	281,975866	0
14.01.2021	20:15:34	0	0	4,180206	4,296	110,3544	0,7	78,652	3,5	1005,88	7,3	9,2	9	1	1	1	1	1	1	1	1	1	0	1	-46,441156	274,643289	276,154878	0
14.01.2021	20:15:35	0	0	2,937442	4,26975	88,9488	0,697	78,659	3,5	1005,98	7,3	9,2	9	1	1	1	1	1	1	1	1	1	0	1	-43,410853	274,589641	278,933195	0
14.01.2021	20:15:36	0	0	2,937442	4,104	91,5048	0,696	78,628	3,5	1005,8	7,3	9,2	9	1	1	1	1	1	1	1	1	1	0	1	-46,793517	274,620279	275,69442	0
14.01.2021	20:15:37	0	0	4,067227	4,2165	88,1136	0,691	78,608	3,5	1005,76	7,3	9,2	9	1	1	1	1	1	1	1	1	1	0	1	-46,370684	274,754121	276,7464	0
14.01.2021	20:15:38	0	0	2,711485	4,131	87,75	0,697	78,597	3,5	1005,88	7,3	9,2	9	1	1	1	1	1	1	1	1	1	0	1	-43,97463	274,657108	278,686338	0
14.01.2021	20:15:39	0	0	4,406163	4,16775	87,7284	0,698	78,574	3,5	1005,96	7,3	9,2	9	1	1	1	1	1	1	1	1	1	0	1	-40,591966	274,568223	281,651524	0
14.01.2021	20:15:40	0	0	4,745098	4,50975	85,5072	0,698	78,557	3,5	1005,86	7,3	9,2	9	1	1	1	1	1	1	1	1	1	0	1	-48,696265	274,675549	274,051369	0
14.01.2021	20:15:41	0	0	3,389356	5,0115	83,3544	0,701	78,533	3,5	1005,72	7,3	9,2	9	1	1	1	1	1	1	1	1	1	0	1	-47,075405	274,57434	275,196802	0
14.01.2021	20:15:42	0	0	4,067227	5,3295	79,02	0,703	78,54	3,5	1005,84	7,3	9,2	9	1	1	1	1	1	1	1	1	1	0	1	-43,904158	274,661717	278,778467	0
14.01.2021	20:15:43	0	0	3,05042	5,5215	100,3788	0,701	78,523	3,5	1005,82	7,3	9,2	9	1	1	1	1	1	1	1	1	1	0	1	-46,934461	274,571281	275,323386	0
14.01.2021	20:15:44	0	0	4,519141	5,56725	89,7264	0,702	78,543	3,5	1005,84	7,3	9,2	9	1	1	1	1	1	1	1	1	1	0	1	-45,243129	274,643289	277,352905	0
14.01.2021	20:15:45	0	0	2,711485	5,46075	88,974	0,697	78,548	3,5	1005,86	7,3	9,2	9	1	1	1	1	1	1	1	1	1	0	1	-39,112051	274,581989	283,196068	0
14.01.2021	20:15:46	0	0	4,519141	5,77125	83,7324	0,699	78,541	3,5	1005,68	7,3	9,2	9	1	1	1	1	1	1	1	1	1	0	1	-47,850599	274,684777	274,940405	0
14.01.2021	20:15:47	0	0	3,728292	5,667	91,1556	0,7	78,533	3,5	1005,96	7,3	9,2	9	1	1	1	1	1	1	1	1	1	0	1	-47,991543	274,740232	275,060211	0
14.01.2021	20:15:48	0	0	2,824463	5,403	91,17	0,704	78,531	3,5	1005,96	7,3	9,2	9	1	1	1	1	1	1	1	1	1	0	1	-43,904158	274,624879	278,605385	0
14.01.2021	20:15:49	0	0	4,067227	5,20575	92,9592	0,697	78,515	3,5	1006,04	7,3	9,2	9	1	1	1	1	1	1	1	1	1	0	1	-44,326991	274,583519	277,988312	0
14.01.2021	20:15:50	0	0	3,728292	5,0775	95,5152	0,706	78,505	3,5	1005,68	7,3	9,2	9	1	1	1	1	1	1	1	1	1	0	1	-47,286822	274,63715	275,280371	0
14.01.2021	20:15:51	0	0	4,858077	5,09025	94,0752	0,705	78,486	3,5	1005,88	7,3	9,2	9	1	1	1	1	1	1	1	1	1	0	1	-44,326991	274,56058	277,880618	0
14.01.2021	20:15:52	0	0	4,519141	5,061	88,0812	0,695	78,478	3,5	1005,78	7,3	9,2	9	1	1	1	1	1	1	1	1	1	0	1	-45,806906	274,624879	276,702637	0
14.01.2021	20:15:53	0	0	3,728292	4,79025	86,274	0,704	78,485	3,5	1005,76	7,4	9,2	9	1	1	1	1	1	1	1	1	1	0	1	-47,145877	274,578929	275,147874	0
14.01.2021	20:15:54	0	0	4,519141	4,71075	91,4976	0,704	78,464	3,5	1005,76	7,4	9,2	9	1	1	1	1	1	1	1	1	1	0	1	-47,709655	274,612615	274,742283	0
14.01.2021	20:15:55	0	0	2,146592	4,515	87,3576	0,702	78,463	3,5	1005,8	7,3	9,2	9	1	1	1	1	1	1	1	1	1	0	1	-47,21635	274,583519	275,098953	0
14.01.2021	20:15:56	0	0	3,615313	4,5315	77,5908	0,702	78,493	3,5	1005,78	7,4	9,2	9	1	1	1	1	1	1	1	1	1	0	1	-49,612403	274,763386	273,548265	0
14.01.2021	20:15:57	0	0	2,485528	4,686	80,9208	0,709	78,475	3,5	1005,8	7,4	9,2	9	1	1	1	1	1	1	1	1	1	0	1	-44,045102	274,689392	278,767596	0
14.01.2021	20:15:58	0	0	2,937442	4,791	90,7416	0,701	78,499	3,5	1005,84	7,4	9,2	9	1	1	1	1	1	1	1	1	1	0	1	-48,132488	274,56058	274,075121	0
14.01.2021	20:15:59	0	0	3,84127	4,77675	81,216	0,704	78,487	3,5	1005,88	7,4	9,2	9	1	1	1	1	1	1	1	1	1	0	1	-47,004933	274,631013	275,533429	0
14.01.2021	20:16:00	0	0	5,197012	4,95375	73,7712	0,7	78,468	3,5	1005,72	7,3	9,2	9	1	1	1	1	1	1	1	1	1	0	1	-46,370684	274,715566	276,56507	0
14.01.2021	20:16:01	0	0	5,197012	4,95375	73,7712	0,7	78,468	3,5	1005,72	7,3	9,2	9	1	1	1	1	1	1	1	1	1	0	1	-46,370684	274,715566	276,56507	0
14.01.2021	20:16:02	0	0	4,63212	4,72875	85,9176	0,706	78,474	3,5	1005,82	7,4	9,2	9	1	1	1	1	1	1	1	1	1	0	1	-44,045102	274,563637	278,176857	0
14.01.2021	20:16:03	0	0	4,858077	4,73325	82,5948	0,701	78,453	3,5	1005,74	7,3	9,2	9	1	1	1	1	1	1	1	1	1	0	1	-48,062016	274,710944	274,852008	0
14.01.2021	20:16:04	0	0	2,711485	4,974	79,4088	0,703	78,434	3,5	1005,9	7,4	9,2	9	1	1	1	1	1	1	1	1	1	0	1	-46,793517	274,635616	275,766468	0
14.01.2021	20:16:05	0	0	4,858077	4,974	88,6608	0,714	78,449	3,5	1005,82	7,4	9,2	9	1	1	1	1	1	1	1	1	1	0	1	-43,833686	274,709404	279,073096	0
14.01.2021	20:16:06	0	0	4,519141	5,14125	88,5852	0,709	78,427	3,5	1005,84	7,3	9,2	9	1	1	1	1	1	1	1	1	1	0	1	-47,498238	274,746404	275,582544	0
14.01.2021	20:16:07	0	0	5,422969	5,08575	86,2956	0,705	78,418	3,5	1005,76	7,3	9,2	9	1	1	1	1	1	1	1	1	1	0	1	-48,766737	274,740232	274,285017	0
14.01.2021	20:16:08	0	0	4,293184	5,41875	75,2364	0,717	78,413	3,5	1005,96	7,3	9,2	9	1	1	1	1	1	1	1	1	1	0	1	-46,300211	274,729437	276,700771	0
14.01.2021	20:16:09	0	0	2,711485	5,316	81,2628	0,707	78,394	3,5	1005,76	7,3	9,2	9	1	1	1	1	1	1	1	1	1	0	1	-49,260042	274,755665	273,864304	0
14.01.2021	20:16:10	0	0	4,406163	5,1105	82,332	0,716	78,391	3,5	1005,9	7,3	9,2	9	1	1	1	1	1	1	1	1	1	0	1	-44,679352	274,680162	278,089964	0
14.01.2021	20:16:11	0	0	3,84127	4,8315	84,7836	0,709	78,375	3,5	1005,72	7,4	9,2	9	1	1	1	1	1	1	1	1	1	0	1	-49,894292	274,752578	273,21553	0
14.01.2021	20:16:12	0	0	4,293184	4,42725	85,4964	0,71	78,35	3,5	1005,92	7,4	9,2	9	1	1	1	1	1	1	1	1	1	0	1	-47,850599	274,663253	274,839246	0
14.01.2021	20:16:13	0	0	2,711485	4,284	93,3444	0,709	78,342	3,5	1005,92	7,3	9,3	9	1	1	1	1	1	1	1	1	1	0	1	-44,679352	274,754121	278,437732	0
14.01.2021	20:16:14	0	0	4,293184	4,57875	86,9724	0,71	78,339	3,5	1005,9	7,3	9,2	9	1	1	1	1	1	1	1	1	1	0	1	-46,300211	274,680162	276,469104	0
14.01.2021	20:16:15	0	0	2,824463	4,85625	98,1828	0,718	78,348	3,5	1005,88	7,3	9,2	9	1	1	1	1	1	1	1	1	1	0	1	-47,075405	274,591172	275,27583	0
14.01.2021	20:16:16	0	0	2,937442	4,827	102,5532	0,716	78,337	3,5	1005,84	7,3	9,2	9	1	1	1	1	1	1	1	1	1	0	1	-45,384073	274,638685	277,190329	0
14.01.2021	20:16:17	0	0	4,406163	4,55625	106,3188	0,708	78,334	3,5	1005,84	7,4	9,2	9	1	1	1	1	1	1	1	1	1	0	1	-45,525018	274,747947	277,563024	0
14.01.2021	20:16:18	0	0	4,406163	4,18125	106,308	0,717	78,328	3,5	1005,96	7,3	9,2	9	1	1	1	1	1	1	1	1	1	0	1	-47,56871	274,710944	275,345313	0
14.01.2021	20:16:19	0	0	4,406163	3,94725	75,6936	0,715	78,307	3,5	1005,88	7,3	9,2	9	1	1	1	1	1	1	1	1	1	0	1	-45,806906	274,597296	276,573088	0
14.01.2021	20:16:20	0	0	3,615313	3,96675	77,5728	0,712	78,312	3,5	1005,82	7,3	9,2	9	1	1	1	1	1	1	1	1	1	0	1	-45,947851	274,737147	277,089394	0
14.01.2021	20:16:21	0	0	4,180206	4,2255	81,2268	0,716	78,308	3,5	1005,94	7,4	9,2	9	1	1	1	1	1	1	1	1	1	0	1	-41,508104	274,723271	281,46388	0
14.01.2021	20:16:22	0	0	3,728292	4,22175	91,8936	0,715	78,293	3,5	1005,84	7,4	9,2	9	1	1	1	1	1	1	1	1	1	0	1	-44,96124	274,612615	277,490698	0
14.01.2021	20:16:23	0	0	3,502334	4,221	91,1628	0,718	78,284	3,5	1005,88	7,4	9,2	9	1	1	1	1	1	1	1	1	1	0	1	-47,427766	274,720188	275,529724	0
14.01.2021	20:16:24	0	0	4,858077	4,188	82,9836	0,712	78,277	3,5	1005,76	7,4	9,2	9	1	1	1	1	1	1	1	1	1	0	1	-46,5821	274,757209	276,549509	0
14.01.2021	20:16:25	0	0	4,63212	4,833	72,6624	0,712	78,244	3,5	1005,8	7,3	9,2	9	1	1	1	1	1	1	1	1	1	0	1	-45,525018	274,661717	277,157607	0
14.01.2021	20:16:26	0	0	2,711485	5,35725	84,3876	0,712	78,253	3,5	1005,8	7,4	9,2	9	1	1	1	1	1	1	1	1	1	0	1	-44,045102	274,58811	278,291758	0
14.01.2021	20:16:27	0	0	4,519141	5,52525	95,1264	0,717	78,248	3,5	1005,78	7,4	9,2	9	1	1	1	1	1	1	1	1	1	0	1	-44,679352	274,658644	277,988834	0
14.01.2021	20:16:28	0	0	2,598506	5,1975	92,6496	0,718	78,253	3,5	1005,76	7,4	9,2	9	1	1	1	1	1	1	1	1	1	0	1	-44,679352	274,760297	278,466786	0
14.01.2021	20:16:29	0	0	3,389356	4,52325	90,7848	0,716	78,225	3,5	1005,86	7,4	9,2	9	1	1	1	1	1	1	1	1	1	0	1	-47,709655	274,66479	274,987412	0
14.01.2021	20:16:30	0	0	3,954249	4,11375	85,158	0,717	78,242	3,5	1005,86	7,3	9,2	9	1	1	1	1	1	1	1	1	1	0	1	-44,890768	274,580459	277,410167	0
14.01.2021	20:16:31	0	0	4,519141	3,95475	76,3596	0,707	78,22	3,5	1005,82	7,3	9,2	9	1	1	1	1	1	1	1	1	1	0	1	-41,226216	274,701705	281,644366	0
14.01.2021	20:16:32	0	0	3,276377	4,0305	67,6728	0,719	78,228	3,5	1005,86	7,3	9,2	9	1	1	1	1	1	1	1	1	1	0	1	-46,863989	274,757209	276,26762	0
14.01.2021	20:16:33	0	0	2,937442	4,428	79,0092	0,716	78,216	3,5	1005,82	7,4	9,2	9	1	1	1	1	1	1	1	1	1	0	1	-41,930937	274,614147	280,528199	0
14.01.2021	20:16:34	0	0	2,937442	4,64025	77,5908	0,715	78,209	3,5	1005,98	7,4	9,2	9	1	1	1	1	1	1	1	1	1	0	1	-51,867512	274,761842	271,28589	0
14.01.2021	20:16:35	0	0	4,519114	4,839	81,9576	0,718	78,205	3,5	1005,76	7,4	9,2	9,1	1	1	1	1	1	1	1	1	1	0	1	-48,414376	274,608018	274,015971	0
14.01.2021	20:16:36	0	0	4,745098	4,821	90,0432	0,709	78,207	3,5	1005,84	7,4	9,2	9	1	1	1	1	1	1	1	1	1	0	1	-41,649049	274,692469	281,178117	0
14.01.2021	20:16:37	0	0	3,163399	4,4535	87,4908	0,715	78,195	3,5	1005,8	7,4	9,2	9	1	1	1	1	1	1	1	1	1	0	1	-41,860465	274,57434	280,411742	0
14.01.2021	20:16:38	0	0	4,067227	4,218	85,518	0,721	78,211	3,5	1005,96	7,3	9,2	9	1	1	1	1	1	1	1	1	1	0	1	-47,075405	274,714025	275,853104	0
14.01.2021	20:16:39	0	0	3,728292	3,993	87,3468	0,714	78,208	3,5	1005,9	7,3	9,2	9	1	1	1	1	1	1	1	1	1	0	1	-46,934461	274,746404	276,146322	0
14.01.2021	20:16:40	0	0	4,971055	4,458	84,8052	0,718	78,205	3,5	1005,9	7,3	9,2	9	1	1	1	1	1	1	1	1	1	0	1	-46,088795	274,746404	276,991988	0
14.01.2021	20:16:41	0	0	2,711485	4,692	86,652	0,717	78,203	3,5	1005,92	7,4	9,2	9	1	1	1	1	1	1	1	1	1	0	1	-48,978154	274,710944	273,93587	0
14.01.2021	20:16:42	0	0	4,180206	4,6605	78,282	0,721	78,204	3,5	1005,92	7,4	9,2	9	1	1	1	1	1	1	1	1	1	0	1	-47,780127	274,777291	275,445965	0
14.01.2021	20:16:43	0	0	3,84127	4,60125	84,4308	0,713	78,216	3,5	1005,8	7,3	9,2	9	1	1	1	1	1	1	1	1	1	0	1	-42,98802	274,672475	279,745163	0
14.01.2021	20:16:44	0	0	3,615313	5,05875	86,2596	0,714	78,214	3,5	1005,86	7,4	9,2	9	1	1	1	1	1	1	1	1	1	0	1	-42,847075	274,597296	279,532918	0
14.01.2021	20:16:45	0	0	4,858077	5,448	59,8572	0,714	78,192	3,5	1005,94	7,4	9,2	9	1	1	1	1	1	1	1	1	1	0	1	-47,850599	274,623345	274,651741	0
14.01.2021	20:16:46	0	0	4,63212	5,946	70,8408	0,716	78,192	3,5	1005,76	7,3	9,2	9	1	1	1	1	1	1	1	1	1	0	1	-44,608879	274,589641	277,735168	0
14.01.2021	20:16:47	0	0	4,519141	5,8905	78,6744	0,717	78,199	3,5	1005,98	7,4	9,2	9	1	1	1	1	1	1	1	1	1	0	1	-46,370684	274,74949	276,724617	0
14.01.2021	20:16:48	0	0	4,745098	5,457	72,306	0,717	78,182	3,5	1005,9	7,4	9,2	9	1	1	1	1	1	1	1	1	1	0	1	-43,97463	274,729437	279,026352	0
14.01.2021	20:16:49	0	0	4,63212	5,21775	81,558	0,72	78,179	3,5	1005,74	7,4	9,2	9	1	1	1	1	1	1	1	1	1	0	1	-43,622269	274,578929	278,671483	0
14.01.2021	20:16:50	0	0	2,711485	5,2845	74,5344	0,719	78,166	3,5	1005,86	7,4	9,2	9	1	1	1	1	1	1	1	1	1	0	1	-45,384073	274,701705	277,486508	0
14.01.2021	20:16:51	0	0	5,197012	5,15025	72,306	0,72	78,163	3,5	1005,82	7,3	9,2	9	1	1	1	1	1	1	1	1	1	0	1	-44,820296	274,746404	278,260487	0
14.01.2021	20:16:52	0	0	3,389356	5,32425	74,4732	0,719	78,156	3,5	1005,68	7,4	9,2	9	1	1	1	1	1	1	1	1	1	0	1	-43,97463	274,687853	278,830836	0
14.01.2021	20:16:53	0	0	4,519141	5,2515	75,6216	0,722	78,148	3,5	1005,88	7,4	9,2	9	1	1	1	1	1	1	1	1	1	0	1	-43,692741	274,764931	279,475193	0
14.01.2021	20:16:54	0	0	3,163399	5,09925	82,368	0,722	78,136	3,5	1005,8	7,3	9,2	9	1	1	1	1	1	1	1	1	1	0	1	-46,511628	274,689392	276,301071	0
14.01.2021	20:16:55	0	0	2,485528	5,154	85,5288	0,714	78,127	3,5	1005,94	7,4	9,2	9	1	1	1	1	1	1	1	1	1	0	1	-47,498238	274,597296	274,881756	0
14.01.2021	20:16:56	0	0	2,824463	5,21325	83,3436	0,721	78,122	3,5	1005,86	7,4	9,2	9	1	1	1	1	1	1	1	1	1	0	1	-43,904158	274,726354	279,082324	0
14.01.2021	20:16:57	0	0	2,485528	5,28975	81,9792	0,721	78,079	3,5	1005,82	7,4	9,2	9	1	1	1	1	1	1	1	1	1	0	1	-51,092319	274,763386	272,06835	0
14.01.2021	20:16:58	0	0	2,937442	4,65375	91,8648	0,719	78,093	3,5	1005,84	7,3	9,2	9	1	1	1	1	1	1	1	1	1	0	1	-43,340381	274,663253	279,349465	0
14.01.2021	20:16:59	0	0	2,711485	4,32825	94,3812	0,719	78,079	3,5	1005,88	7,4	9,2	9	1	1	1	1	1	1	1	1	1	0	1	-47,427766	274,58658	274,901908	0
14.01.2021	20:17:00	0	0	3,728292	4,16775	88,5888	0,718	78,064	3,5	1005,88	7,3	9,2	9	1	1	1	1	1	1	1	1	1	0	1	-45,102185	274,631013	277,436178	0
14.01.2021	20:17:01	0	0	3,728292	4,16775	88,5888	0,718	78,064	3,5	1005,88	7,3	9,2	9	1	1	1	1	1	1	1	1	1	0	1	-45,102185	274,631013	277,436178	0
14.01.2021	20:17:02	0	0	4,067227	4,617	77,9508	0,72	78,041	3,5	1005,96	7,4	9,2	9	1	1	1	1	1	1	1	1	1	0	1	-43,622269	274,620279	278,865667	0
14.01.2021	20:17:03	0	0	2,824463	4,6305	94,4856	0,72	78,04	3,5	1005,78	7,3	9,2	9	1	1	1	1	1	1	1	1	1	0	1	-44,749824	274,706324	278,142476	0
14.01.2021	20:17:04	0	0	4,858077	4,65825	95,148	0,719	78,026	3,5	1005,94	7,4	9,2	9	1	1	1	1	1	1	1	1	1	0	1	-46,934461	274,578929	275,359291	0
14.01.2021	20:17:05	0	0	4,293184	4,83825	87,372	0,712	78,02	3,5	1005,84	7,3	9,2	9	1	1	1	1	1	1	1	1	1	0	1	-48,414376	274,684777	274,376628	0
14.01.2021	20:17:06	0	0	2,485528	4,593	103,6872	0,724	78,013	3,5	1005,92	7,4	9,2	9	1	1	1	1	1	1	1	1	1	0	1	-44,890768	274,57587	277,38862	0
14.01.2021	20:17:07	0	0	3,05042	4,25925	94,842	0,719	78,006	3,5	1005,94	7,3	9,2	9	1	1	1	1	1	1	1	1	1	0	1	-44,96124	274,632547	277,584329	0
14.01.2021	20:17:08	0	0	2,372549	4,08075	96,9732	0,718	77,986	3,5	1005,82	7,4	9,2	9	1	1	1	1	1	1	1	1	1	0	1	-47,498238	274,585049	274,82425	0
14.01.2021	20:17:09	0	0	4,971055	4,404	96,2352	0,712	77,978	3,5	1006	7,4	9,2	9	1	1	1	1	1	1	1	1	1	0	1	-47,075405	274,629479	275,455751	0
14.01.2021	20:17:10	0	0	3,615313	4,551	89,712	0,716	77,985	3,5	1005,86	7,3	9,2	9	1	1	1	1	1	1	1	1	1	0	1	-46,370684	274,754121	276,7464	0
14.01.2021	20:17:11	0	0	5,084034	4,42125	101,8296	0,713	77,978	3,5	1005,8	7,3	9,2	9	1	1	1	1	1	1	1	1	1	0	1	-51,726568	274,718647	271,223676	0
14.01.2021	20:17:12	0	0	4,406163	4,287	91,9008	0,72	77,968	3,5	1005,96	7,4	9,2	9	1	1	1	1	1	1	1	1	1	0	1	-53,136011	274,634082	269,416765	0
14.01.2021	20:17:13	0	0	5,422969	4,44225	100,7568	0,723	77,969	3,5	1005,78	7,4	9,2	9	1	1	1	1	1	1	1	1	1	0	1	-44,397463	274,763386	278,763205	0
14.01.2021	20:17:14	0	0	2,937442	5,3265	83,7252	0,714	77,966	3,5	1005,82	7,3	9,2	9	1	1	1	1	1	1	1	1	1	0	1	-47,709655	274,737147	275,32759	0
14.01.2021	20:17:15	0	0	3,615313	6,2175	86,3424	0,717	77,975	3,5	1005,9	7,4	9,2	9	1	1	1	1	1	1	1	1	1	0	1	-42,847075	274,720188	280,110415	0
14.01.2021	20:17:16	0	0	3,954249	6,84375	82,3572	0,716	77,966	3,5	1005,92	7,3	9,2	9	1	1	1	1	1	1	1	1	1	0	1	-42,071882	274,717106	280,871117	0
14.01.2021	20:17:17	0	0	2,598506	6,819	80,1288	0,714	77,948	3,5	1005,96	7,3	9,2	9	1	1	1	1	1	1	1	1	1	0	1	-44,538407	274,60955	277,899136	0
14.01.2021	20:17:18	0	0	2,937442	6,552	73,5192	0,71	77,961	3,5	1005,84	7,3	9,2	9	1	1	1	1	1	1	1	1	1	0	1	-50,951374	274,611082	271,493366	0
14.01.2021	20:17:19	0	0	5,422969	6,5145	94,0824	0,708	77,96	3,5	1005,8	7,3	9,2	9	1	1	1	1	1	1	1	1	1	0	1	-49,471459	274,709404	273,435323	0
14.01.2021	20:17:20	0	0	3,389356	6,42225	98,4564	0,717	77,962	3,5	1005,92	7,3	9,2	9	1	1	1	1	1	1	1	1	1	0	1	-46,511628	274,744861	276,561897	0
14.01.2021	20:17:21	0	0	2,146592	6,63675	78,2784	0,715	77,956	3,5	1005,86	7,3	9,2	9	1	1	1	1	1	1	1	1	1	0	1	-49,400987	274,63715	273,166206	0
14.01.2021	20:17:22	0	0	2,372549	6,28725	79,1136	0,711	77,983	3,5	1005,94	7,4	9,2	9	1	1	1	1	1	1	1	1	1	0	1	-44,115574	274,58811	278,221286	0
14.01.2021	20:17:23	0	0	5,197012	5,811	87,7104	0,716	77,984	3,5	1005,78	7,3	9,2	9	1	1	1	1	1	1	1	1	1	0	1	-45,806906	274,730979	277,201327	0
14.01.2021	20:17:24	0	0	3,728292	5,45625	85,5324	0,718	77,996	3,5	1005,88	7,3	9,2	9	1	1	1	1	1	1	1	1	1	0	1	-44,467935	274,606486	277,955217	0
14.01.2021	20:17:25	0	0	3,389356	5,1645	83,3472	0,717	78,01	3,5	1005,82	7,4	9,2	9	1	1	1	1	1	1	1	1	1	0	1	-41,649049	274,589641	280,694999	0
14.01.2021	20:17:26	0	0	2,598491	4,88775	74,1348	0,713	78,005	3,5	1005,74	7,4	9,2	9,1	1	1	1	1	1	1	1	1	1	0	1	-43,340381	274,706324	279,551919	0
14.01.2021	20:17:27	0	0	3,728292	4,506	80,514	0,719	78,008	3,5	1005,78	7,4	9,2	9	1	1	1	1	1	1	1	1	1	0	1	-47,56871	274,761842	275,584692	0
14.01.2021	20:17:28	0	0	2,824463	4,22325	68,3928	0,708	78,012	3,5	1005,98	7,3	9,3	9	1	1	1	1	1	1	1	1	1	0	1	-42,212826	274,666327	280,491462	0
14.01.2021	20:17:29	0	0	2,937442	4,3635	70,8444	0,717	78,031	3,5	1005,7	7,3	9,2	9	1	1	1	1	1	1	1	1	1	0	1	-48,20296	274,747947	274,885082	0
14.01.2021	20:17:30	0	0	4,858077	4,638	71,6004	0,72	78,033	3,5	1005,88	7,4	9,2	9	1	1	1	1	1	1	1	1	1	0	1	-48,625793	274,729437	274,375189	0
14.01.2021	20:17:31	0	0	2,711485	5,082	74,5164	0,717	78,036	3,5	1005,76	7,3	9,2	9	1	1	1	1	1	1	1	1	1	0	1	-49,119098	274,735605	273,910893	0
14.01.2021	20:17:32	0	0	4,519141	5,7825	86,6592	0,714	78,049	3,5	1005,88	7,3	9,2	9	1	1	1	1	1	1	1	1	1	0	1	-44,186047	274,60189	278,215523	0
14.01.2021	20:17:33	0	0	4,293184	6,0345	89,7156	0,717	78,056	3,5	1005,92	7,4	9,2	9	1	1	1	1	1	1	1	1	1	0	1	-46,5821	274,643289	276,013934	0
14.01.2021	20:17:34	0	0	2,372549	5,83875	94,3704	0,718	78,04	3,5	1005,88	7,3	9,2	9	1	1	1	1	1	1	1	1	1	0	1	-46,723044	274,57587	275,556343	0
14.01.2021	20:17:35	0	0	3,389336	5,87175	85,8996	0,718	78,046	3,5	1005,78	7,3	9,2	9,1	1	1	1	1	1	1	1	1	1	0	1	-44,749824	274,674012	277,990584	0
14.01.2021	20:17:36	0	0	3,954249	5,69925	88,956	0,71	78,088	3,5	1005,72	7,3	9,2	9	1	1	1	1	1	1	1	1	1	0	1	-47,498238	274,57587	274,78115	0
14.01.2021	20:17:37	0	0	4,067227	5,09175	88,9524	0,718	78,039	3,5	1005,9	7,4	9,2	9	1	1	1	1	1	1	1	1	1	0	1	-50,035236	274,621812	272,459902	0
14.01.2021	20:17:38	0	0	3,389356	4,788	74,1384	0,717	78,016	3,5	1005,74	7,4	9,3	9	1	1	1	1	1	1	1	1	1	0	1	-47,921071	274,626412	274,595676	0
14.01.2021	20:17:39	0	0	4,519141	5,0715	91,9116	0,717	78,028	3,5	1006,02	7,4	9,2	9	1	1	1	1	1	1	1	1	1	0	1	-47,004933	274,751034	276,097628	0
14.01.2021	20:17:40	0	0	3,276377	5,391	90,3924	0,714	78,024	3,5	1005,94	7,4	9,2	9	1	1	1	1	1	1	1	1	1	0	1	-52,219873	274,670938	270,506085	0
14.01.2021	20:17:41	0	0	4,293184	5,24325	92,6496	0,718	78,027	3,5	1005,86	7,4	9,2	9	1	1	1	1	1	1	1	1	1	0	1	-48,132488	274,58811	274,204373	0
14.01.2021	20:17:42	0	0	2,711485	5,2665	91,8828	0,711	78,019	3,5	1005,84	7,4	9,2	9	1	1	1	1	1	1	1	1	1	0	1	-44,467935	274,611082	277,976805	0
14.01.2021	20:17:43	0	0	2,711485	4,9485	81,2232	0,719	78,036	3,5	1005,96	7,3	9,2	9	1	1	1	1	1	1	1	1	1	0	1	-50,17618	274,611082	272,26856	0
14.01.2021	20:17:44	0	0	4,293184	4,6665	81,6048	0,713	78,03	3,5	1005,9	7,3	9,2	9	1	1	1	1	1	1	1	1	1	0	1	-48,484848	274,7742	274,7267	0
14.01.2021	20:17:45	0	0	4,406163	4,104	90,3996	0,713	78,015	3,5	1006	7,3	9,2	9	1	1	1	1	1	1	1	1	1	0	1	-47,56871	274,658644	275,099476	0
14.01.2021	20:17:46	0	0	2,711485	3,92925	102,5532	0,712	78,046	3,5	1006,02	7,4	9,2	9	1	1	1	1	1	1	1	1	1	0	1	-45,736434	274,755665	277,387912	0
14.01.2021	20:17:47	0	0	2,711485	4,27575	92,7108	0,705	78,036	3,5	1005,84	7,3	9,2	9	1	1	1	1	1	1	1	1	1	0	1	-44,045102	274,626412	278,471645	0
14.01.2021	20:17:48	0	0	3,954249	4,674	95,1048	0,716	78,035	3,5	1006,02	7,4	9,2	9	1	1	1	1	1	1	1	1	1	0	1	-45,384073	274,646359	277,226386	0
14.01.2021	20:17:49	0	0	4,745098	4,758	90,0036	0,715	78,028	3,5	1005,9	7,4	9,2	9	1	1	1	1	1	1	1	1	1	0	1	-45,031712	274,57434	277,240494	0
14.01.2021	20:17:50	0	0	4,406163	4,854	85,1652	0,716	78,035	3,5	1005,94	7,3	9,2	9	1	1	1	1	1	1	1	1	1	0	1	-45,243129	274,697086	277,605741	0
14.01.2021	20:17:51	0	0	4,180206	4,794	99,8712	0,714	78,034	3,5	1005,8	7,4	9,2	9	1	1	1	1	1	1	1	1	1	0	1	-47,921071	274,57587	274,358317	0
14.01.2021	20:17:52	0	0	2,598506	5,4495	102,9132	0,716	78,031	3,5	1006,04	7,4	9,2	9	1	1	1	1	1	1	1	1	1	0	1	-47,21635	274,709404	275,690432	0
14.01.2021	20:17:53	0	0	4,745098	5,78625	105,1452	0,714	78,024	3,5	1005,94	7,3	9,3	9	1	1	1	1	1	1	1	1	1	0	1	-49,964764	274,592702	272,39366	0
14.01.2021	20:17:54	0	0	4,745098	5,52	102,1716	0,712	78,024	3,5	1005,94	7,3	9,3	9	1	1	1	1	1	1	1	1	1	0	1	-46,018323	274,66479	276,678744	0
14.01.2021	20:17:55	0	0	2,711485	5,916	108,8748	0,708	78	3,5	1005,8	7,4	9,2	9	1	1	1	1	1	1	1	1	1	0	1	-44,679352	274,757209	278,452257	0
14.01.2021	20:17:56	0	0	5,084034	5,87025	118,728	0,712	78,022	3,5	1006,06	7,3	9,2	9	1	1	1	1	1	1	1	1	1	0	1	-45,806906	274,709404	277,099875	0
14.01.2021	20:17:57	0	0	2,824463	5,60475	117,432	0,705	78,003	3,5	1005,9	7,3	9,2	9	1	1	1	1	1	1	1	1	1	0	1	-47,357294	274,600359	275,037083	0
14.01.2021	20:17:58	0	0	2,824463	5,22075	99,1656	0,716	77,998	3,5	1005,84	7,4	9,2	9	1	1	1	1	1	1	1	1	1	0	1	-46,370684	274,57587	275,908704	0
14.01.2021	20:17:59	0	0	3,502334	4,74	108,5004	0,712	78,005	3,5	1005,86	7,4	9,3	9	1	1	1	1	1	1	1	1	1	0	1	-48,273432	274,612615	274,178506	0
14.01.2021	20:18:00	0	0	3,502334	5,18325	116,6544	0,708	77,985	3,5	1005,82	7,3	9,2	9	1	1	1	1	1	1	1	1	1	0	1	-45,59549	274,754121	277,521594	0
14.01.2021	20:18:01	0	0	3,502334	5,18325	116,6544	0,708	77,985	3,5	1005,82	7,3	9,2	9	1	1	1	1	1	1	1	1	1	0	1	-45,59549	274,754121	277,521594	0
14.01.2021	20:18:02	0	0	4,519141	5,40975	111,4344	0,716	78	3,5	1005,88	7,4	9,2	9	1	1	1	1	1	1	1	1	1	0	1	-43,622269	274,707864	279,277271	0
14.01.2021	20:18:03	0	0	4,406163	5,34375	96,966	0,713	77,979	3,5	1006,08	7,3	9,2	9	1	1	1	1	1	1	1	1	1	0	1	-45,243129	274,591172	277,108106	0
14.01.2021	20:18:04	0	0	3,05042	5,19525	102,2004	0,714	78,004	3,5	1005,9	7,4	9,2	9	1	1	1	1	1	1	1	1	1	0	1	-45,736434	274,623345	276,765906	0
14.01.2021	20:18:05	0	0	2,598506	5,277	111,0888	0,716	77,999	3,5	1005,66	7,4	9,2	9	1	1	1	1	1	1	1	1	1	0	1	-51,585624	274,583519	270,729679	0
14.01.2021	20:18:06	0	0	4,858077	4,893	113,0508	0,708	78,005	3,5	1005,66	7,4	9,2	9	1	1	1	1	1	1	1	1	1	0	1	-48,062016	274,726354	274,924466	0
14.01.2021	20:18:07	0	0	4,519141	4,45275	107,0676	0,713	78,003	3,5	1006,08	7,3	9,2	9	1	1	1	1	1	1	1	1	1	0	1	-45,031712	274,744861	278,041812	0
14.01.2021	20:18:08	0	0	2,146592	4,48125	109,9836	0,712	77,999	3,5	1005,84	7,4	9,3	9	1	1	1	1	1	1	1	1	1	0	1	-44,890768	274,604954	277,525189	0
14.01.2021	20:18:09	0	0	3,728292	4,536	111,0276	0,71	77,988	3,5	1005,96	7,4	9,2	9	1	1	1	1	1	1	1	1	1	0	1	-45,102185	274,626412	277,414562	0
14.01.2021	20:18:10	0	0	3,84127	4,788	103,6692	0,711	77,989	3,5	1005,86	7,3	9,2	9	1	1	1	1	1	1	1	1	1	0	1	-43,833686	274,581989	278,474433	0
14.01.2021	20:18:11	0	0	3,163399	4,59525	97,7076	0,703	77,977	3,5	1005,82	7,4	9,2	9	1	1	1	1	1	1	1	1	1	0	1	-46,159267	274,603422	276,249496	0
14.01.2021	20:18:12	0	0	4,745098	4,4355	98,0856	0,713	77,962	3,5	1005,9	7,3	9,2	9	1	1	1	1	1	1	1	1	1	0	1	-49,400987	274,766475	273,774215	0
14.01.2021	20:18:13	0	0	4,406163	4,1655	79,0308	0,714	77,962	3,5	1005,84	7,3	9,2	9	1	1	1	1	1	1	1	1	1	0	1	-46,652572	274,624879	275,856971	0
14.01.2021	20:18:14	0	0	3,502334	3,79425	80,5068	0,71	77,958	3,5	1005,98	7,3	9,3	9	1	1	1	1	1	1	1	1	1	0	1	-45,665962	274,751034	277,436599	0
14.01.2021	20:18:15	0	0	2,937442	3,60825	105,8832	0,711	77,952	3,5	1005,9	7,3	9,2	9	1	1	1	1	1	1	1	1	1	0	1	-44,679352	274,617213	277,794183	0
14.01.2021	20:18:16	0	0	4,293184	3,4065	97,3332	0,709	77,948	3,5	1005,86	7,4	9,3	9	1	1	1	1	1	1	1	1	1	0	1	-48,062016	274,626412	274,454732	0
14.01.2021	20:18:17	0	0	2,937442	3,27	93,3336	0,712	77,945	3,5	1005,78	7,3	9,2	9	1	1	1	1	1	1	1	1	1	0	1	-45,947851	274,614147	276,511286	0
14.01.2021	20:18:18	0	0	4,406163	3,432	99,162	0,71	77,946	3,5	1005,82	7,3	9,2	9	1	1	1	1	1	1	1	1	1	0	1	-46,934461	274,701705	275,936121	0
14.01.2021	20:18:19	0	0	4,63212	3,81	75,996	0,711	77,951	3,5	1005,9	7,4	9,3	9	1	1	1	1	1	1	1	1	1	0	1	-47,921071	274,595765	274,451732	0
14.01.2021	20:18:20	0	0	2,711485	4,0005	86,9832	0,707	77,931	3,5	1005,98	7,3	9,2	9	1	1	1	1	1	1	1	1	1	0	1	-47,639183	274,611082	274,805558	0
14.01.2021	20:18:21	0	0	4,519141	3,7335	93,3516	0,712	77,935	3,5	1005,86	7,3	9,3	9	1	1	1	1	1	1	1	1	1	0	1	-45,806906	274,701705	277,063675	0
14.01.2021	20:18:22	0	0	4,519141	3,8595	99,1764	0,709	77,918	3,5	1005,92	7,3	9,3	9	1	1	1	1	1	1	1	1	1	0	1	-47,850599	274,741775	275,208411	0
14.01.2021	20:18:23	0	0	4,63212	4,23525	99,54	0,712	77,937	3,5	1005,94	7,4	9,3	9	1	1	1	1	1	1	1	1	1	0	1	-48,062016	274,58811	274,274845	0
14.01.2021	20:18:24	0	0	3,389356	4,7625	99,8928	0,703	77,93	3,5	1005,86	7,3	9,2	9	1	1	1	1	1	1	1	1	1	0	1	-46,652572	274,77111	276,544436	0
14.01.2021	20:18:25	0	0	4,745098	5,1525	97,3152	0,703	77,932	3,5	1005,78	7,4	9,2	9	1	1	1	1	1	1	1	1	1	0	1	-44,538407	274,723271	278,433577	0
14.01.2021	20:18:26	0	0	2,598506	5,28825	91,1484	0,71	77,948	3,5	1005,94	7,4	9,2	9	1	1	1	1	1	1	1	1	1	0	1	-44,749824	274,614147	277,709312	0
14.01.2021	20:18:27	0	0	4,519141	5,13375	92,2644	0,702	77,936	3,5	1005,92	7,4	9,3	9	1	1	1	1	1	1	1	1	1	0	1	-49,048626	274,74949	274,046675	0
14.01.2021	20:18:28	0	0	4,745098	4,7355	98,4456	0,705	77,955	3,5	1005,84	7,3	9,2	9	1	1	1	1	1	1	1	1	1	0	1	-55,320648	274,624879	267,188895	0
14.01.2021	20:18:29	0	0	2,485528	4,587	107,7336	0,7	77,971	3,5	1005,92	7,3	9,2	9	1	1	1	1	1	1	1	1	1	0	1	-46,511628	274,764931	276,656307	0
14.01.2021	20:18:30	0	0	4,519141	4,905	91,1628	0,705	77,97	3,5	1005,8	7,4	9,2	9	1	1	1	1	1	1	1	1	1	0	1	-42,776603	274,661717	279,906022	0
14.01.2021	20:18:31	0	0	4,858077	4,9275	91,6164	0,702	77,994	3,5	1005,84	7,3	9,3	9	1	1	1	1	1	1	1	1	1	0	1	-46,441156	274,597296	275,938838	0
14.01.2021	20:18:32	0	0	3,05042	4,6455	104,7456	0,703	77,988	3,5	1005,92	7,3	9,2	9	1	1	1	1	1	1	1	1	1	0	1	-44,890768	274,598827	277,496417	0
14.01.2021	20:18:33	0	0	2,485528	4,332	91,1556	0,708	77,986	3,5	1005,94	7,3	9,3	9	1	1	1	1	1	1	1	1	1	0	1	-46,088795	274,718647	276,861449	0
14.01.2021	20:18:34	0	0	2,598506	4,02075	85,518	0,707	77,989	3,5	1005,86	7,3	9,2	9	1	1	1	1	1	1	1	1	1	0	1	-45,806906	274,57587	276,472481	0
14.01.2021	20:18:35	0	0	4,406163	3,75375	70,2288	0,706	77,996	3,5	1005,96	7,3	9,3	9	1	1	1	1	1	1	1	1	1	0	1	-43,692741	274,73869	279,351758	0
14.01.2021	20:18:36	0	0	4,745098	3,64725	64,242	0,704	77,99	3,5	1005,76	7,4	9,3	9	1	1	1	1	1	1	1	1	1	0	1	-43,622269	274,729437	279,378713	0
14.01.2021	20:18:37	0	0	3,954249	3,4755	71,7444	0,711	78,006	3,5	1005,96	7,3	9,3	9	1	1	1	1	1	1	1	1	1	0	1	-41,578576	274,715566	281,357177	0
14.01.2021	20:18:38	0	0	3,84127	3,2955	88,9488	0,703	78,017	3,5	1005,92	7,3	9,2	9	1	1	1	1	1	1	1	1	1	0	1	-49,753347	274,74949	273,341954	0
14.01.2021	20:18:39	0	0	5,084034	3,32925	83,322	0,703	78,014	3,5	1005,92	7,3	9,2	9	1	1	1	1	1	1	1	1	1	0	1	-44,749824	274,726354	278,236658	0
14.01.2021	20:18:40	0	0	3,163399	3,4365	75,6216	0,7	78,018	3,5	1005,82	7,3	9,2	9	1	1	1	1	1	1	1	1	1	0	1	-43,692741	274,74949	279,40256	0
14.01.2021	20:18:41	0	0	5,084034	3,2985	79,3944	0,705	78,012	3,5	1005,86	7,3	9,2	9	1	1	1	1	1	1	1	1	1	0	1	-46,088795	274,634082	276,463981	0
14.01.2021	20:18:42	0	0	4,406163	3,23325	88,56	0,706	78,014	3,5	1006,02	7,4	9,2	9	1	1	1	1	1	1	1	1	1	0	1	-45,031712	274,757209	278,099897	0
14.01.2021	20:18:43	0	0	4,745098	3,351	72,0612	0,697	78,013	3,5	1005,82	7,4	9,2	9	1	1	1	1	1	1	1	1	1	0	1	-42,847075	274,717106	280,095923	0
14.01.2021	20:18:44	0	0	3,05042	3,5985	77,9688	0,705	78,01	3,5	1005,98	7,3	9,3	9	1	1	1	1	1	1	1	1	1	0	1	-46,018323	274,704784	276,866737	0
14.01.2021	20:18:45	0	0	4,293184	3,67125	85,176	0,703	78,006	3,5	1005,92	7,4	9,2	9	1	1	1	1	1	1	1	1	1	0	1	-43,269908	274,571281	278,987938	0
14.01.2021	20:18:46	0	0	3,163399	3,6795	78,7284	0,705	77,999	3,5	1005,98	7,3	9,3	9	1	1	1	1	1	1	1	1	1	0	1	-44,467935	274,715566	278,467818	0
14.01.2021	20:18:47	0	0	4,406163	3,6915	89,7084	0,704	77,991	3,5	1005,9	7,3	9,3	9	1	1	1	1	1	1	1	1	1	0	1	-51,162791	274,595765	271,210012	0
14.01.2021	20:18:48	0	0	4,519141	3,6825	91,8864	0,693	77,993	3,5	1005,92	7,3	9,2	9	1	1	1	1	1	1	1	1	1	0	1	-45,172657	274,712485	277,748609	0
14.01.2021	20:18:49	0	0	3,84127	3,62625	87,3396	0,705	77,98	3,5	1005,92	7,3	9,2	9	1	1	1	1	1	1	1	1	1	0	1	-45,243129	274,73869	277,80137	0
14.01.2021	20:18:50	0	0	3,05042	3,591	83,7288	0,701	77,974	3,5	1005,82	7,3	9,2	9	1	1	1	1	1	1	1	1	1	0	1	-42,424242	274,744861	280,649282	0
14.01.2021	20:18:51	0	0	4,63212	3,4665	81,2304	0,699	77,977	3,5	1005,94	7,4	9,3	9	1	1	1	1	1	1	1	1	1	0	1	-45,313601	274,580459	276,987334	0
14.01.2021	20:18:52	0	0	2,598506	3,19425	72,2628	0,704	77,976	3,5	1005,86	7,3	9,2	9	1	1	1	1	1	1	1	1	1	0	1	-46,863989	274,741775	276,195022	0
14.01.2021	20:18:53	0	0	3,84127	2,931	66,204	0,7	77,965	3,5	1005,88	7,3	9,3	9	1	1	1	1	1	1	1	1	1	0	1	-43,904158	274,743318	279,162109	0
14.01.2021	20:18:54	0	0	4,745098	3,00375	90,3924	0,702	77,968	3,5	1005,86	7,3	9,3	9	1	1	1	1	1	1	1	1	1	0	1	-48,132488	274,747947	274,955554	0
14.01.2021	20:18:55	0	0	3,163399	3,072	91,1772	0,702	77,976	3,5	1005,92	7,3	9,3	9	1	1	1	1	1	1	1	1	1	0	1	-45,877378	274,677087	276,877482	0
14.01.2021	20:18:56	0	0	3,389356	2,99475	74,16	0,701	77,974	3,5	1005,98	7,3	9,2	9	1	1	1	1	1	1	1	1	1	0	1	-46,934461	274,754121	276,182623	0
14.01.2021	20:18:57	0	0	2,485528	3,213	86,2632	0,699	77,993	3,5	1005,8	7,3	9,2	9	1	1	1	1	1	1	1	1	1	0	1	-46,370684	274,644824	276,232563	0
14.01.2021	20:18:58	0	0	4,180206	3,25425	96,948	0,699	77,998	3,5	1005,94	7,3	9,2	9	1	1	1	1	1	1	1	1	1	0	1	-45,384073	274,741775	277,674937	0
14.01.2021	20:18:59	0	0	3,615313	3,0975	86,6376	0,7	77,991	3,5	1005,9	7,3	9,3	9	1	1	1	1	1	1	1	1	1	0	1	-47,498238	274,66479	275,198828	0
14.01.2021	20:19:00	0	0	2,937442	2,86875	88,938	0,7	77,995	3,5	1006,08	7,3	9,3	9	1	1	1	1	1	1	1	1	1	0	1	-48,484848	274,598827	273,902337	0
14.01.2021	20:19:01	0	0	2,937442	2,86875	88,938	0,7	77,995	3,5	1006,08	7,3	9,3	9	1	1	1	1	1	1	1	1	1	0	1	-48,484848	274,598827	273,902337	0
14.01.2021	20:19:02	0	0	3,728292	3,1095	94,1004	0,703	78,009	3,5	1006,1	7,3	9,3	9	1	1	1	1	1	1	1	1	1	0	1	-48,343904	274,740232	274,70785	0
14.01.2021	20:19:03	0	0	4,180206	3,35775	86,6592	0,703	78,007	3,5	1005,98	7,4	9,3	9	1	1	1	1	1	1	1	1	1	0	1	-45,665962	274,629479	276,865195	0
14.01.2021	20:19:04	0	0	3,502334	3,53325	95,1264	0,708	77,986	3,5	1006,04	7,3	9,3	9	1	1	1	1	1	1	1	1	1	0	1	-42,142354	274,568223	280,101136	0
14.01.2021	20:19:05	0	0	4,63212	3,4695	87,336	0,697	77,976	3,5	1005,74	7,3	9,3	9	1	1	1	1	1	1	1	1	1	0	1	-46,5821	274,707864	276,31744	0
14.01.2021	20:19:06	0	0	2,711485	3,37275	84,4704	0,697	77,969	3,5	1005,88	7,3	9,3	9	1	1	1	1	1	1	1	1	1	0	1	-46,441156	274,695547	276,400479	0
14.01.2021	20:19:07	0	0	2,711485	3,25125	87,7392	0,697	77,955	3,5	1005,8	7,3	9,2	9	1	1	1	1	1	1	1	1	1	0	1	-48,20296	274,727895	274,790772	0
14.01.2021	20:19:08	0	0	3,728292	3,20325	80,1324	0,703	77,967	3,5	1005,94	7,3	9,2	9	1	1	1	1	1	1	1	1	1	0	1	-47,991543	274,680162	274,777772	0
14.01.2021	20:19:09	0	0	2,598506	3,41475	80,154	0,697	77,961	3,5	1005,92	7,3	9,2	9	1	1	1	1	1	1	1	1	1	0	1	-47,639183	274,741775	275,419828	0
14.01.2021	20:19:10	0	0	4,858077	3,354	68,004	0,697	77,957	3,5	1005,88	7,3	9,2	9	1	1	1	1	1	1	1	1	1	0	1	-42,283298	274,684777	280,507706	0
14.01.2021	20:19:11	0	0	4,63212	3,2865	85,536	0,694	77,955	3,5	1005,98	7,3	9,3	9	1	1	1	1	1	1	1	1	1	0	1	-43,410853	274,571281	278,846994	0
14.01.2021	20:19:12	0	0	5,422969	3,339	87,0588	0,7	77,944	3,5	1005,98	7,3	9,3	9	1	1	1	1	1	1	1	1	1	0	1	-43,481325	274,657108	279,179643	0
14.01.2021	20:19:13	0	0	2,711485	3,44175	81,2232	0,702	77,935	3,5	1005,92	7,3	9,3	9	1	1	1	1	1	1	1	1	1	0	1	-42,776603	274,559051	279,423832	0
14.01.2021	20:19:14	0	0	3,163399	3,8115	77,5836	0,701	77,93	3,5	1006	7,3	9,2	9	1	1	1	1	1	1	1	1	1	0	1	-46,018323	274,569752	276,232345	0
14.01.2021	20:19:15	0	0	3,615313	3,8865	79,416	0,701	77,923	3,5	1005,86	7,3	9,3	9	1	1	1	1	1	1	1	1	1	0	1	-40,451022	274,632547	282,094547	0
14.01.2021	20:19:16	0	0	4,858077	3,816	77,5908	0,703	77,914	3,5	1005,94	7,3	9,2	9	1	1	1	1	1	1	1	1	1	0	1	-48,555321	274,562108	273,659463	0
14.01.2021	20:19:17	0	0	4,971055	3,702	85,1688	0,691	77,906	3,5	1005,78	7,3	9,3	9	1	1	1	1	1	1	1	1	1	0	1	-47,004933	274,600359	275,389444	0
14.01.2021	20:19:18	0	0	4,519141	3,609	88,9524	0,699	77,876	3,5	1005,9	7,3	9,3	9	1	1	1	1	1	1	1	1	1	0	1	-44,256519	274,557523	277,936743	0
14.01.2021	20:19:19	0	0	3,954249	3,98325	83,7972	0,698	77,882	3,5	1005,94	7,3	9,2	9	1	1	1	1	1	1	1	1	1	0	1	-43,481325	274,612615	278,970613	0
14.01.2021	20:19:20	0	0	4,745098	4,176	76,3596	0,698	77,881	3,5	1005,98	7,3	9,3	9	1	1	1	1	1	1	1	1	1	0	1	-46,018323	274,718647	276,931921	0
14.01.2021	20:19:21	0	0	3,05042	4,164	96,21	0,698	77,869	3,5	1005,9	7,3	9,2	9	1	1	1	1	1	1	1	1	1	0	1	-44,467935	274,60955	277,969609	0
14.01.2021	20:19:22	0	0	4,745098	4,0965	97,3224	0,693	77,858	3,5	1005,88	7,3	9,3	9	1	1	1	1	1	1	1	1	1	0	1	-44,326991	274,61568	278,139344	0
14.01.2021	20:19:23	0	0	3,389356	3,8355	95,8968	0,692	77,853	3,5	1006	7,3	9,2	9	1	1	1	1	1	1	1	1	1	0	1	-45,454545	274,723271	277,517439	0
14.01.2021	20:19:24	0	0	4,858077	3,8145	80,8956	0,695	77,833	3,5	1005,92	7,3	9,3	9	1	1	1	1	1	1	1	1	1	0	1	-45,454545	274,635616	277,105439	0
14.01.2021	20:19:25	0	0	4,519141	3,72075	89,3196	0,697	77,862	3,5	1005,94	7,3	9,2	9	1	1	1	1	1	1	1	1	1	0	1	-45,454545	274,744861	277,618979	0
14.01.2021	20:19:26	0	0	4,067227	3,82125	86,6412	0,699	77,864	3,5	1006	7,3	9,2	9	1	1	1	1	1	1	1	1	1	0	1	-46,5821	274,623345	275,92024	0
14.01.2021	20:19:27	0	0	2,711485	3,7425	82,5732	0,697	77,865	3,5	1005,8	7,3	9,3	9	1	1	1	1	1	1	1	1	1	0	1	-47,21635	274,727895	275,777382	0
14.01.2021	20:19:28	0	0	2,937442	3,64875	83,6964	0,695	77,881	3,5	1005,96	7,3	9,3	9	1	1	1	1	1	1	1	1	1	0	1	-44,326991	274,58658	278,002683	0
14.01.2021	20:19:29	0	0	2,824463	3,6735	90,7884	0,701	77,894	3,5	1005,88	7,3	9,3	9	1	1	1	1	1	1	1	1	1	0	1	-45,665962	274,552939	276,505783	0
14.01.2021	20:19:30	0	0	2,824463	3,63825	82,0548	0,697	77,895	3,5	1005,92	7,3	9,3	9	1	1	1	1	1	1	1	1	1	0	1	-43,97463	274,726354	279,011852	0
14.01.2021	20:19:31	0	0	3,954249	3,6135	102,5532	0,695	77,896	3,5	1006,08	7,3	9,3	9	1	1	1	1	1	1	1	1	1	0	1	-48,062016	274,674012	274,678392	0
14.01.2021	20:19:32	0	0	3,276377	3,7665	91,5012	0,688	77,915	3,5	1005,9	7,3	9,2	9	1	1	1	1	1	1	1	1	1	0	1	-39,112051	274,724812	283,867182	0
14.01.2021	20:19:33	0	0	4,745098	4,134	92,2536	0,693	77,928	3,5	1005,98	7,3	9,2	9	1	1	1	1	1	1	1	1	1	0	1	-50,739958	274,677087	272,014903	0
14.01.2021	20:19:34	0	0	2,598506	4,341	95,1264	0,693	77,928	3,5	1005,84	7,3	9,3	9	1	1	1	1	1	1	1	1	1	0	1	-47,850599	274,709404	275,056182	0
14.01.2021	20:19:35	0	0	4,293184	4,1775	95,5188	0,688	77,931	3,5	1005,9	7,3	9,3	9	1	1	1	1	1	1	1	1	1	0	1	-44,467935	274,536141	277,62497	0
14.01.2021	20:19:36	0	0	2,937442	4,49475	85,536	0,692	77,942	3,5	1005,88	7,3	9,3	9	1	1	1	1	1	1	1	1	1	0	1	-46,863989	274,585049	275,458499	0
14.01.2021	20:19:37	0	0	3,728292	4,9065	80,91	0,693	77,95	3,5	1005,96	7,3	9,3	9	1	1	1	1	1	1	1	1	1	0	1	-45,59549	274,732521	277,419995	0
14.01.2021	20:19:38	0	0	3,05042	4,98375	69,48	0,691	77,949	3,5	1005,86	7,3	9,3	9	1	1	1	1	1	1	1	1	1	0	1	-45,59549	274,6694	277,123244	0
14.01.2021	20:19:39	0	0	4,63212	5,06625	98,4456	0,69	77,969	3,5	1005,82	7,3	9,3	9	1	1	1	1	1	1	1	1	1	0	1	-42,776603	274,734063	280,246134	0
14.01.2021	20:19:40	0	0	2,598506	5,20725	98,0604	0,696	78,045	3,5	1005,82	7,3	9,2	9	1	1	1	1	1	1	1	1	1	0	1	-43,269908	274,631013	279,268454	0
14.01.2021	20:19:41	0	0	4,63212	5,22075	92,2392	0,688	78,003	3,5	1005,76	7,3	9,3	9	1	1	1	1	1	1	1	1	1	0	1	-42,565187	274,598827	279,821998	0
14.01.2021	20:19:42	0	0	2,824463	5,36175	73,4328	0,691	78,039	3,5	1005,9	7,3	9,3	9	1	1	1	1	1	1	1	1	1	0	1	-42,565187	274,546829	279,57788	0
14.01.2021	20:19:43	0	0	2,485528	5,676	85,158	0,687	78,052	3,5	1005,96	7,3	9,2	9	1	1	1	1	1	1	1	1	1	0	1	-40,944327	274,583519	281,370976	0
14.01.2021	20:19:44	0	0	4,406163	5,8245	87,3648	0,689	78,063	3,5	1005,86	7,3	9,3	9	1	1	1	1	1	1	1	1	1	0	1	-43,833686	274,718647	279,116558	0
14.01.2021	20:19:45	0	0	3,163399	5,4435	94,7988	0,689	78,075	3,5	1005,98	7,3	9,3	9	1	1	1	1	1	1	1	1	1	0	1	-48,062016	274,635616	274,497969	0
14.01.2021	20:19:46	0	0	3,276377	5,091	83,7144	0,69	78,068	3,5	1005,8	7,3	9,3	9	1	1	1	1	1	1	1	1	1	0	1	-47,004933	274,703244	275,872887	0
14.01.2021	20:19:47	0	0	4,293184	5,50875	90,7524	0,693	78,098	3,5	1005,94	7,3	9,3	9	1	1	1	1	1	1	1	1	1	0	1	-49,119098	274,714025	273,809411	0
14.01.2021	20:19:48	0	0	3,84127	5,625	86,274	0,696	78,113	3,5	1006,04	7,3	9,3	9	1	1	1	1	1	1	1	1	1	0	1	-47,21635	274,580459	275,084585	0
14.01.2021	20:19:49	0	0	4,519141	5,859	89,7048	0,689	78,126	3,5	1005,92	7,3	9,3	9	1	1	1	1	1	1	1	1	1	0	1	-47,56871	274,712485	275,352556	0
14.01.2021	20:19:50	0	0	2,937442	5,715	90,3888	0,684	78,133	3,5	1005,92	7,3	9,3	9	1	1	1	1	1	1	1	1	1	0	1	-44,608879	274,626412	277,907868	0
14.01.2021	20:19:51	0	0	2,598506	5,70225	83,43	0,694	78,155	3,5	1005,88	7,3	9,3	9	1	1	1	1	1	1	1	1	1	0	1	-46,088795	274,712485	276,832471	0
14.01.2021	20:19:52	0	0	3,389356	5,96025	85,8888	0,691	78,198	3,5	1005,76	7,3	9,3	9	1	1	1	1	1	1	1	1	1	0	1	-48,414376	274,670938	274,311581	0
14.01.2021	20:19:53	0	0	4,858077	5,913	99,1512	0,692	78,219	3,5	1005,84	7,3	9,3	9	1	1	1	1	1	1	1	1	1	0	1	-46,018323	274,552939	276,153422	0
14.01.2021	20:19:54	0	0	5,084034	5,79225	105,1452	0,687	78,229	3,5	1005,96	7,3	9,3	9	1	1	1	1	1	1	1	1	1	0	1	-45,877378	274,654036	276,769155	0
14.01.2021	20:19:55	0	0	2,598506	5,3265	96,6132	0,693	78,284	3,5	1006,12	7,3	9,3	9	1	1	1	1	1	1	1	1	1	0	1	-43,692741	274,543775	278,43599	0
14.01.2021	20:19:56	0	0	3,728292	5,05275	95,526	0,687	78,258	3,5	1005,88	7,3	9,3	9	1	1	1	1	1	1	1	1	1	0	1	-44,96124	274,683238	277,822534	0
14.01.2021	20:19:57	0	0	3,84127	4,89975	82,962	0,69	78,28	3,5	1005,8	7,3	9,3	9	1	1	1	1	1	1	1	1	1	0	1	-47,991543	274,566694	274,244769	0
14.01.2021	20:19:58	0	0	4,293184	4,7445	70,218	0,692	78,264	3,5	1005,76	7,3	9,3	9	1	1	1	1	1	1	1	1	1	0	1	-48,837209	274,723271	274,134775	0
14.01.2021	20:19:59	0	0	4,745098	4,407	80,5212	0,686	78,266	3,5	1005,78	7,3	9,2	9	1	1	1	1	1	1	1	1	1	0	1	-45,384073	274,597296	276,995921	0
14.01.2021	20:20:00	0	0	3,728292	4,21575	85,914	0,695	78,257	3,5	1005,9	7,3	9,3	9	1	1	1	1	1	1	1	1	1	0	1	-45,665962	274,634082	276,886814	0
14.01.2021	20:20:01	0	0	3,728292	4,21575	85,914	0,695	78,257	3,5	1005,9	7,3	9,3	9	1	1	1	1	1	1	1	1	1	0	1	-45,665962	274,634082	276,886814	0
14.01.2021	20:20:02	0	0	3,84127	4,21725	92,2752	0,692	78,24	3,5	1005,9	7,3	9,3	9	1	1	1	1	1	1	1	1	1	0	1	-47,004933	274,727895	275,988799	0
14.01.2021	20:20:03	0	0	4,180206	4,05375	85,9068	0,691	78,238	3,5	1005,9	7,3	9,3	9	1	1	1	1	1	1	1	1	1	0	1	-44,820296	274,723271	278,151689	0
14.01.2021	20:20:04	0	0	2,372549	3,71175	86,6628	0,685	78,209	3,5	1005,82	7,3	9,3	9	1	1	1	1	1	1	1	1	1	0	1	-44,890768	274,612615	277,56117	0
14.01.2021	20:20:05	0	0	3,163399	3,61725	89,3232	0,697	78,215	3,5	1006,04	7,3	9,3	9	1	1	1	1	1	1	1	1	1	0	1	-43,481325	274,751034	279,621236	0
14.01.2021	20:20:06	0	0	4,63212	3,5205	86,7456	0,693	78,201	3,5	1005,86	7,3	9,3	9	1	1	1	1	1	1	1	1	1	0	1	-46,723044	274,635616	275,83694	0
14.01.2021	20:20:07	0	0	3,050439	3,669	74,1528	0,691	78,199	3,5	1006,1	7,3	9,3	8,9	1	1	1	1	1	1	1	1	1	0	1	-43,058492	274,732521	279,956993	0
14.01.2021	20:20:08	0	0	4,858077	3,681	82,332	0,688	78,182	3,5	1005,84	7,3	9,3	9	1	1	1	1	1	1	1	1	1	0	1	-47,639183	274,694008	275,195217	0
14.01.2021	20:20:09	0	0	4,406163	3,6435	92,97	0,698	78,162	3,5	1005,92	7,3	9,3	9	1	1	1	1	1	1	1	1	1	0	1	-43,199436	274,57587	279,079951	0
14.01.2021	20:20:10	0	0	3,276377	3,3435	80,6076	0,695	78,162	3,5	1005,82	7,3	9,3	9	1	1	1	1	1	1	1	1	1	0	1	-44,679352	274,565165	277,549784	0
14.01.2021	20:20:11	0	0	4,293184	3,11325	74,9304	0,697	78,157	3,5	1005,96	7,3	9,3	9	1	1	1	1	1	1	1	1	1	0	1	-40,873855	274,720188	282,083635	0
14.01.2021	20:20:12	0	0	2,824463	3,258	81,2052	0,7	78,131	3,5	1005,96	7,3	9,3	9	1	1	1	1	1	1	1	1	1	0	1	-45,947851	274,684777	276,843153	0
14.01.2021	20:20:13	0	0	3,615313	3,441	80,874	0,694	78,125	3,5	1005,92	7,3	9,3	9	1	1	1	1	1	1	1	1	1	0	1	-49,400987	274,559051	272,799448	0
14.01.2021	20:20:14	0	0	4,63212	3,6345	83,7396	0,695	78,104	3,5	1005,82	7,3	9,3	9	1	1	1	1	1	1	1	1	1	0	1	-47,921071	274,714025	275,007438	0
14.01.2021	20:20:15	0	0	3,389356	3,6765	79,7508	0,697	78,095	3,5	1005,82	7,3	9,3	9	1	1	1	1	1	1	1	1	1	0	1	-48,132488	274,594233	274,233126	0
14.01.2021	20:20:16	0	0	2,711485	3,80625	99,1656	0,691	78,078	3,5	1005,8	7,3	9,3	9	1	1	1	1	1	1	1	1	1	0	1	-48,907681	274,572811	273,357345	0
14.01.2021	20:20:17	0	0	4,519141	4,13175	99,1332	0,694	78,071	3,5	1005,9	7,3	9,3	9	1	1	1	1	1	1	1	1	1	0	1	-45,102185	274,64943	277,522702	0
14.01.2021	20:20:18	0	0	4,745098	4,41225	94,392	0,697	78,066	3,5	1005,98	7,3	9,3	9	1	1	1	1	1	1	1	1	1	0	1	-44,045102	274,667863	278,666408	0
14.01.2021	20:20:19	0	0	2,824463	4,64775	94,374	0,693	78,059	3,5	1005,8	7,3	9,3	9	1	1	1	1	1	1	1	1	1	0	1	-41,155743	274,559051	281,044691	0
14.01.2021	20:20:20	0	0	4,067227	5,0745	95,5008	0,695	78,043	3,5	1005,82	7,3	9,3	9	1	1	1	1	1	1	1	1	1	0	1	-44,608879	274,58811	277,727981	0
14.01.2021	20:20:21	0	0	3,954249	5,08125	88,5816	0,696	78,018	3,5	1005,96	7,3	9,3	9	1	1	1	1	1	1	1	1	1	0	1	-45,525018	274,663253	277,164828	0
14.01.2021	20:20:22	0	0	4,293184	4,54275	81,5832	0,694	78,018	3,5	1005,84	7,3	9,3	9	1	1	1	1	1	1	1	1	1	0	1	-44,890768	274,583519	277,424535	0
14.01.2021	20:20:23	0	0	3,502334	4,46925	86,958	0,694	78,018	3,5	1005,88	7,3	9,2	9	1	1	1	1	1	1	1	1	1	0	1	-43,97463	274,720188	278,98286	0
14.01.2021	20:20:24	0	0	4,63212	4,455	86,652	0,693	78,004	3,5	1005,96	7,3	9,3	9	1	1	1	1	1	1	1	1	1	0	1	-48,273432	274,701705	274,59715	0
14.01.2021	20:20:25	0	0	2,937442	4,2915	81,5796	0,695	78,004	3,5	1005,9	7,3	9,2	9	1	1	1	1	1	1	1	1	1	0	1	-43,481325	274,680162	279,287991	0
14.01.2021	20:20:26	0	0	2,824463	4,25175	71,2224	0,701	78,004	3,5	1005,92	7,3	9,3	9	1	1	1	1	1	1	1	1	1	0	1	-46,5821	274,531562	275,489318	0
14.01.2021	20:20:27	0	0	3,728292	4,125	62,4168	0,7	78,001	3,5	1006	7,3	9,3	9	1	1	1	1	1	1	1	1	1	0	1	-49,260042	274,680162	273,509273	0
14.01.2021	20:20:28	0	0	2,485528	4,14225	77,202	0,702	78,002	3,5	1005,88	7,3	9,3	9	1	1	1	1	1	1	1	1	1	0	1	-44,749824	274,562108	277,46496	0
14.01.2021	20:20:29	0	0	4,293184	4,197	75,2292	0,694	78,01	3,5	1005,78	7,3	9,3	9	1	1	1	1	1	1	1	1	1	0	1	-47,780127	274,692469	275,047038	0
14.01.2021	20:20:30	0	0	2,485528	4,03125	81,9684	0,7	78,021	3,5	1005,92	7,3	9,3	9	1	1	1	1	1	1	1	1	1	0	1	-48,978154	274,726354	274,008328	0
14.01.2021	20:20:31	0	0	2,937442	4,83375	64,62	0,703	78,019	3,5	1005,92	7,3	9,3	9	1	1	1	1	1	1	1	1	1	0	1	-46,229739	274,724812	276,749494	0
14.01.2021	20:20:32	0	0	3,84127	5,10525	66,888	0,702	78,012	3,5	1005,82	7,3	9,3	9	1	1	1	1	1	1	1	1	1	0	1	-46,441156	274,663253	276,24869	0
14.01.2021	20:20:33	0	0	4,180206	5,29275	91,5012	0,702	78,006	3,5	1005,86	7,3	9,3	9	1	1	1	1	1	1	1	1	1	0	1	-43,763214	274,727895	279,230518	0
14.01.2021	20:20:34	0	0	2,711485	4,71075	82,5732	0,696	78,005	3,5	1005,88	7,3	9,3	9	1	1	1	1	1	1	1	1	1	0	1	-43,340381	274,667863	279,37113	0
14.01.2021	20:20:35	0	0	4,293184	4,137	91,512	0,701	77,993	3,5	1005,96	7,3	9,3	9	1	1	1	1	1	1	1	1	1	0	1	-42,071882	274,729437	280,9291	0
14.01.2021	20:20:36	0	0	3,84127	4,2735	88,5888	0,7	78,007	3,5	1005,92	7,3	9,3	9	1	1	1	1	1	1	1	1	1	0	1	-43,622269	274,591172	278,728966	0
14.01.2021	20:20:37	0	0	2,598506	4,1655	88,5816	0,703	77,997	3,5	1005,96	7,3	9,3	9	1	1	1	1	1	1	1	1	1	0	1	-43,833686	274,730979	279,174547	0
14.01.2021	20:20:38	0	0	2,711485	4,4625	88,0848	0,702	77,998	3,5	1005,76	7,3	9,3	9	1	1	1	1	1	1	1	1	1	0	1	-43,199436	274,562108	279,015347	0
14.01.2021	20:20:39	0	0	2,824463	4,59375	90,4032	0,692	78	3,5	1005,84	7,3	9,3	9	1	1	1	1	1	1	1	1	1	0	1	-44,749824	274,724812	278,229409	0
14.01.2021	20:20:40	0	0	3,728292	4,52325	65,8368	0,698	78,008	3,5	1005,82	7,3	9,3	9	1	1	1	1	1	1	1	1	1	0	1	-48,766737	274,721729	274,198	0
14.01.2021	20:20:41	0	0	2,711485	4,509	96,948	0,7	77,996	3,5	1005,84	7,3	9,3	9	1	1	1	1	1	1	1	1	1	0	1	-45,172657	274,646359	277,437802	0
14.01.2021	20:20:42	0	0	4,63212	4,4985	84,4164	0,702	77,995	3,5	1006,02	7,3	9,3	9	1	1	1	1	1	1	1	1	1	0	1	-41,296688	274,726354	281,689794	0
14.01.2021	20:20:43	0	0	3,276377	4,58025	78,6492	0,699	78,044	3,5	1005,92	7,3	9,3	9	1	1	1	1	1	1	1	1	1	0	1	-46,5821	274,627946	275,941851	0
14.01.2021	20:20:44	0	0	3,954249	4,80525	84,4236	0,702	77,982	3,5	1005,8	7,3	9,3	9	1	1	1	1	1	1	1	1	1	0	1	-48,062016	274,557523	274,131246	0
14.01.2021	20:20:45	0	0	3,276377	5,46	84,0348	0,704	77,997	3,5	1005,9	7,3	9,3	9	1	1	1	1	1	1	1	1	1	0	1	-41,155743	274,654036	281,49079	0
14.01.2021	20:20:46	0	0	4,519141	5,96175	88,9416	0,703	78,003	3,5	1006	7,3	9,3	9	1	1	1	1	1	1	1	1	1	0	1	-43,692741	274,726354	279,29374	0
14.01.2021	20:20:47	0	0	4,745098	6,447	88,992	0,701	77,994	3,5	1006,06	7,3	9,3	9	1	1	1	1	1	1	1	1	1	0	1	-40,873855	274,723271	282,09813	0
14.01.2021	20:20:48	0	0	3,389376	6,65175	85,8816	0,707	77,999	3,5	1005,88	7,3	9,3	8,9	1	1	1	1	1	1	1	1	1	0	1	-46,229739	274,63715	276,337453	0
14.01.2021	20:20:49	0	0	4,067227	6,45975	88,578	0,706	77,993	3,5	1005,94	7,3	9,3	9	1	1	1	1	1	1	1	1	1	0	1	-41,860465	274,717106	281,082533	0
14.01.2021	20:20:50	0	0	4,745098	6,0795	78,2532	0,707	77,976	3,5	1006	7,3	9,3	9	1	1	1	1	1	1	1	1	1	0	1	-43,199436	274,591172	279,151799	0
14.01.2021	20:20:51	0	0	4,180206	5,577	94,0896	0,701	77,979	3,5	1005,76	7,3	9,3	9	1	1	1	1	1	1	1	1	1	0	1	-41,719521	274,585049	280,602967	0
14.01.2021	20:20:52	0	0	3,389356	5,41125	91,1556	0,711	77,976	3,5	1006,02	7,3	9,3	9	1	1	1	1	1	1	1	1	1	0	1	-52,219873	274,744861	270,853651	0
14.01.2021	20:20:53	0	0	4,519141	5,28675	85,1436	0,704	77,951	3,5	1005,96	7,3	9,3	9	1	1	1	1	1	1	1	1	1	0	1	-47,145877	274,689392	275,666821	0
14.01.2021	20:20:54	0	0	2,485528	5,3775	85,2192	0,705	77,972	3,5	1005,98	7,3	9,3	9	1	1	1	1	1	1	1	1	1	0	1	-44,115574	274,594233	278,250039	0
14.01.2021	20:20:55	0	0	3,163399	5,19975	71,6076	0,708	77,982	3,5	1005,82	7,3	9,3	9	1	1	1	1	1	1	1	1	1	0	1	-47,286822	274,545302	274,849077	0
14.01.2021	20:20:56	0	0	2,937442	4,872	72	0,709	77,972	3,5	1005,96	7,3	9,3	9	1	1	1	1	1	1	1	1	1	0	1	-47,427766	274,726354	275,558716	0
14.01.2021	20:20:57	0	0	3,84127	4,734	68,004	0,7	77,986	3,5	1005,92	7,3	9,3	9	1	1	1	1	1	1	1	1	1	0	1	-49,048626	274,583519	273,266677	0
14.01.2021	20:20:58	0	0	2,824463	4,49025	73,4472	0,699	77,977	3,5	1005,94	7,3	9,3	9	1	1	1	1	1	1	1	1	1	0	1	-43,340381	274,694008	279,494019	0
14.01.2021	20:20:59	0	0	3,615313	4,4805	70,902	0,705	77,973	3,5	1006,04	7,3	9,3	9	1	1	1	1	1	1	1	1	1	0	1	-44,608879	274,554467	277,570037	0
14.01.2021	20:21:00	0	0	4,519141	3,981	55,5444	0,707	77,98	3,5	1006	7,3	9,3	9	1	1	1	1	1	1	1	1	1	0	1	-46,793517	274,710944	276,120507	0
14.01.2021	20:21:01	0	0	4,971055	3,97575	57,0312	0,706	77,975	3,5	1005,94	7,3	9,3	9	1	1	1	1	1	1	1	1	1	0	1	-40,239605	274,626412	282,277142	0
14.01.2021	20:21:02	0	0	4,971055	3,97575	57,0312	0,706	77,975	3,5	1005,94	7,3	9,3	9	1	1	1	1	1	1	1	1	1	0	1	-40,239605	274,626412	282,277142	0
14.01.2021	20:21:03	0	0	3,163399	4,00575	64,224	0,699	77,967	3,5	1005,94	7,3	9,3	9	1	1	1	1	1	1	1	1	1	0	1	-44,608879	274,552939	277,562866	0
14.01.2021	20:21:04	0	0	3,389356	4,11375	81,9828	0,708	77,968	3,5	1005,96	7,3	9,3	9	1	1	1	1	1	1	1	1	1	0	1	-44,96124	274,692469	277,865925	0
14.01.2021	20:21:05	0	0	2,824463	3,867	60,5304	0,707	77,943	3,5	1005,96	7,3	9,3	9	1	1	1	1	1	1	1	1	1	0	1	-44,397463	274,557523	277,795798	0
14.01.2021	20:21:06	0	0	2,824463	4,0005	59,4756	0,707	77,945	3,5	1005,98	7,3	9,3	9	1	1	1	1	1	1	1	1	1	0	1	-46,511628	274,589641	275,83242	0
14.01.2021	20:21:07	0	0	4,971055	3,75975	58,86	0,704	77,919	3,5	1006,02	7,3	9,3	9	1	1	1	1	1	1	1	1	1	0	1	-45,877378	274,604954	276,538579	0
14.01.2021	20:21:08	0	0	4,858077	3,21225	79,7472	0,703	77,901	3,5	1006,04	7,3	9,3	9	1	1	1	1	1	1	1	1	1	0	1	-46,300211	274,545302	275,835687	0
14.01.2021	20:21:09	0	0	3,05042	2,90025	63,8568	0,703	77,892	3,5	1005,96	7,3	9,3	9	1	1	1	1	1	1	1	1	1	0	1	-44,890768	274,647894	277,726904	0
14.01.2021	20:21:10	0	0	3,163399	2,9985	87,732	0,703	77,88	3,5	1006,12	7,3	9,3	9	1	1	1	1	1	1	1	1	1	0	1	-44,890768	274,57587	277,38862	0
14.01.2021	20:21:11	0	0	2,598506	3,426	69,48	0,709	77,874	3,5	1006,12	7,3	9,3	9	1	1	1	1	1	1	1	1	1	0	1	-45,172657	274,729437	277,828325	0
14.01.2021	20:21:12	0	0	3,502334	4,1235	86,7456	0,703	77,84	3,5	1005,74	7,3	9,3	9	1	1	1	1	1	1	1	1	1	0	1	-46,652572	274,6694	276,066162	0
14.01.2021	20:21:13	0	0	4,180206	4,78425	61,7904	0,707	77,836	3,5	1005,84	7,3	9,2	9	1	1	1	1	1	1	1	1	1	0	1	-46,723044	274,572811	275,541982	0
14.01.2021	20:21:14	0	0	2,598506	5,55225	59,8608	0,706	77,812	3,5	1005,82	7,3	9,3	9	1	1	1	1	1	1	1	1	1	0	1	-44,115574	274,624879	278,393969	0
14.01.2021	20:21:15	0	0	4,858077	5,38875	55,566	0,706	77,815	3,5	1005,94	7,3	9,3	9	1	1	1	1	1	1	1	1	1	0	1	-45,384073	274,734063	277,638664	0
14.01.2021	20:21:16	0	0	3,728292	4,8435	79,0164	0,7	77,799	3,5	1005,88	7,3	9,3	9	1	1	1	1	1	1	1	1	1	0	1	-50,951374	274,60955	271,486169	0
14.01.2021	20:21:17	0	0	3,615313	4,6125	93,3228	0,709	77,813	3,5	1006,04	7,3	9,3	9	1	1	1	1	1	1	1	1	1	0	1	-44,890768	274,741775	278,168242	0
14.01.2021	20:21:18	0	0	4,745098	4,50525	98,73	0,702	77,788	3,5	1005,84	7,3	9,3	9	1	1	1	1	1	1	1	1	1	0	1	-43,551797	274,60189	278,849773	0
14.01.2021	20:21:19	0	0	3,16338	4,07775	92,9628	0,703	77,776	3,5	1005,92	7,3	9,3	9,1	1	1	1	1	1	1	1	1	1	0	1	-45,947851	274,723271	277,024134	0
14.01.2021	20:21:20	0	0	3,954249	3,90225	74,6388	0,706	77,78	3,5	1005,78	7,3	9,3	9	1	1	1	1	1	1	1	1	1	0	1	-47,56871	274,623345	274,93363	0
14.01.2021	20:21:21	0	0	4,745098	4,0845	93,3192	0,701	77,802	3,5	1005,86	7,3	9,3	9	1	1	1	1	1	1	1	1	1	0	1	-42,565187	274,551412	279,599388	0
14.01.2021	20:21:22	0	0	2,824463	4,34925	90,0324	0,706	77,784	3,5	1005,84	7,3	9,3	9	1	1	1	1	1	1	1	1	1	0	1	-39,393939	274,621812	283,101198	0
14.01.2021	20:21:23	0	0	4,406163	4,83375	94,3416	0,707	77,863	3,5	1005,96	7,3	9,3	9	1	1	1	1	1	1	1	1	1	0	1	-42,847075	274,712485	280,074191	0
14.01.2021	20:21:24	0	0	4,293184	5,13525	109,6056	0,709	77,81	3,5	1005,98	7,3	9,3	9	1	1	1	1	1	1	1	1	1	0	1	-41,226216	274,687853	281,579251	0
14.01.2021	20:21:25	0	0	2,372549	5,20275	106,6788	0,708	77,828	3,5	1006,08	7,3	9,3	9	1	1	1	1	1	1	1	1	1	0	1	-45,59549	274,715566	277,340264	0
14.01.2021	20:21:26	0	0	3,05042	5,3145	103,6512	0,71	77,826	3,5	1005,82	7,3	9,3	9	1	1	1	1	1	1	1	1	1	0	1	-45,313601	274,552939	276,858144	0
14.01.2021	20:21:27	0	0	3,050402	5,5815	101,0808	0,706	77,842	3,5	1005,96	7,3	9,3	9,1	1	1	1	1	1	1	1	1	1	0	1	-48,766737	274,678625	273,99535	0
14.01.2021	20:21:28	0	0	3,728269	5,5215	118,7424	0,706	77,823	3,5	1006,02	7,3	9,3	9,1	1	1	1	1	1	1	1	1	1	0	1	-45,947851	274,548357	276,202385	0
14.01.2021	20:21:29	0	0	4,406136	4,88475	101,106	0,703	77,831	3,5	1005,84	7,3	9,3	9,1	1	1	1	1	1	1	1	1	1	0	1	-41,085271	274,658644	281,582915	0
14.01.2021	20:21:30	0	0	3,163399	4,8945	102,1896	0,702	77,831	3,5	1005,86	7,3	9,3	9	1	1	1	1	1	1	1	1	1	0	1	-43,833686	274,545302	278,302213	0
14.01.2021	20:21:31	0	0	4,519141	4,935	101,4984	0,704	77,84	3,5	1005,82	7,3	9,3	9	1	1	1	1	1	1	1	1	1	0	1	-44,749824	274,661717	277,932801	0
14.01.2021	20:21:32	0	0	2,711468	4,4865	99,1368	0,698	77,844	3,5	1005,9	7,3	9,2	9,1	1	1	1	1	1	1	1	1	1	0	1	-46,018323	274,577399	276,268247	0
14.01.2021	20:21:33	0	0	4,519141	4,188	89,7264	0,701	77,844	3,5	1005,96	7,3	9,3	9	1	1	1	1	1	1	1	1	1	0	1	-46,088795	274,698626	276,767312	0
14.01.2021	20:21:34	0	0	3,84127	4,18125	99,9072	0,701	77,853	3,5	1005,92	7,3	9,2	9	1	1	1	1	1	1	1	1	1	0	1	-45,665962	274,569752	276,584706	0
14.01.2021	20:21:35	0	0	3,05042	4,49025	106,6824	0,705	77,858	3,5	1005,86	7,3	9,3	9	1	1	1	1	1	1	1	1	1	0	1	-44,256519	274,557523	277,936743	0
14.01.2021	20:21:36	0	0	3,05042	4,56	98,46	0,702	77,852	3,5	1006,12	7,3	9,3	9	1	1	1	1	1	1	1	1	1	0	1	-47,286822	274,597296	275,093172	0
14.01.2021	20:21:37	0	0	2,937442	4,323	97,6968	0,708	77,866	3,5	1006,08	7,3	9,3	9	1	1	1	1	1	1	1	1	1	0	1	-42,706131	274,568223	279,537359	0
14.01.2021	20:21:38	0	0	2,372549	4,305	99,1512	0,704	77,859	3,5	1005,78	7,3	9,3	9	1	1	1	1	1	1	1	1	1	0	1	-40,098661	274,663253	282,591184	0
14.01.2021	20:21:39	0	0	2,937442	4,14675	87,7068	0,708	77,845	3,5	1006,04	7,3	9,3	9	1	1	1	1	1	1	1	1	1	0	1	-47,850599	274,546829	274,292468	0
14.01.2021	20:21:40	0	0	4,293184	3,91125	77,202	0,701	77,841	3,5	1005,94	7,3	9,3	9	1	1	1	1	1	1	1	1	1	0	1	-44,96124	274,629479	277,569916	0
14.01.2021	20:21:41	0	0	2,711485	3,67425	92,3004	0,709	77,853	3,5	1006,04	7,3	9,3	9	1	1	1	1	1	1	1	1	1	0	1	-41,226216	274,548357	280,92402	0
14.01.2021	20:21:42	0	0	2,485528	3,3915	89,0388	0,706	77,861	3,5	1005,98	7,3	9,3	9	1	1	1	1	1	1	1	1	1	0	1	-46,018323	274,604954	276,397635	0
14.01.2021	20:21:43	0	0	2,598491	3,15825	87,7392	0,708	77,836	3,5	1005,96	7,3	9,3	9,1	1	1	1	1	1	1	1	1	1	0	1	-45,454545	274,703244	277,423275	0
14.01.2021	20:21:44	0	0	4,406163	3,1995	87,7248	0,705	77,828	3,5	1005,92	7,3	9,3	9	1	1	1	1	1	1	1	1	1	0	1	-43,340381	274,551412	278,824194	0
14.01.2021	20:21:45	0	0	2,824463	3,555	89,3376	0,709	77,81	3,5	1006	7,3	9,3	9	1	1	1	1	1	1	1	1	1	0	1	-45,243129	274,657108	277,417839	0
14.01.2021	20:21:46	0	0	2,033601	3,72225	81,216	0,707	77,803	3,5	1005,84	7,3	9,3	9,1	1	1	1	1	1	1	1	1	1	0	1	-44,608879	274,721729	278,355857	0
14.01.2021	20:21:47	0	0	4,745098	3,585	93,3156	0,707	77,788	3,5	1005,96	7,3	9,3	9	1	1	1	1	1	1	1	1	1	0	1	-45,665962	274,677087	277,088898	0
14.01.2021	20:21:48	0	0	3,276358	3,27075	96,1992	0,706	77,767	3,5	1005,9	7,3	9,3	9,1	1	1	1	1	1	1	1	1	1	0	1	-43,340381	274,548357	278,809855	0
14.01.2021	20:21:49	0	0	3,728269	3,16425	91,494	0,701	77,769	3,5	1006	7,3	9,3	9,1	1	1	1	1	1	1	1	1	1	0	1	-42,706131	274,714025	280,222378	0
14.01.2021	20:21:50	0	0	4,067252	3,12	95,5152	0,712	77,764	3,5	1006,02	7,3	9,3	8,9	1	1	1	1	1	1	1	1	1	0	1	-46,159267	274,569752	276,091401	0
14.01.2021	20:21:51	0	0	4,067227	3,17175	88,9452	0,707	77,754	3,5	1005,96	7,3	9,3	9	1	1	1	1	1	1	1	1	1	0	1	-45,102185	274,718647	277,848059	0
14.01.2021	20:21:52	0	0	5,422969	3,1215	86,2776	0,705	77,762	3,5	1005,8	7,3	9,3	9	1	1	1	1	1	1	1	1	1	0	1	-44,96124	274,670938	277,764717	0
14.01.2021	20:21:53	0	0	3,84127	2,96925	81,5868	0,705	77,763	3,5	1005,88	7,3	9,3	9	1	1	1	1	1	1	1	1	1	0	1	-44,115574	274,585049	278,206914	0
14.01.2021	20:21:54	0	0	4,858077	2,8425	90,0432	0,706	77,767	3,5	1005,92	7,3	9,3	9	1	1	1	1	1	1	1	1	1	0	1	-46,863989	274,652501	275,775328	0
14.01.2021	20:21:55	0	0	2,824463	2,71275	98,7516	0,705	77,749	3,5	1006	7,3	9,3	9	1	1	1	1	1	1	1	1	1	0	1	-46,863989	274,577399	275,422581	0
14.01.2021	20:21:56	0	0	4,971055	2,75025	117,0396	0,708	77,766	3,5	1005,82	7,3	9,3	9	1	1	1	1	1	1	1	1	1	0	1	-42,917548	274,660181	279,757858	0
14.01.2021	20:21:57	0	0	2,711485	2,8755	120,9312	0,708	77,77	3,5	1005,82	7,3	9,3	9	1	1	1	1	1	1	1	1	1	0	1	-42,98802	274,720188	279,96947	0
14.01.2021	20:21:58	0	0	2,485528	3,129	113,6988	0,699	77,762	3,5	1005,86	7,3	9,3	9	1	1	1	1	1	1	1	1	1	0	1	-43,058492	274,654036	279,588041	0
14.01.2021	20:21:59	0	0	2,485528	3,57	111,4452	0,7	77,768	3,5	1005,9	7,3	9,3	9	1	1	1	1	1	1	1	1	1	0	1	-43,622269	274,73869	279,42223	0
14.01.2021	20:22:00	0	0	3,954249	4,0245	79,4016	0,707	77,774	3,5	1005,92	7,3	9,3	9	1	1	1	1	1	1	1	1	1	0	1	-46,441156	274,554467	275,737761	0
14.01.2021	20:22:01	0	0	2,598506	4,23375	82,35	0,709	77,786	3,5	1005,9	7,3	9,3	9	1	1	1	1	1	1	1	1	1	0	1	-43,269908	274,569752	278,98076	0
14.01.2021	20:22:02	0	0	2,598506	4,23375	82,35	0,709	77,786	3,5	1005,9	7,3	9,3	9	1	1	1	1	1	1	1	1	1	0	1	-43,269908	274,569752	278,98076	0
14.01.2021	20:22:03	0	0	4,858077	4,00725	93,3552	0,703	77,789	3,5	1005,96	7,3	9,3	9	1	1	1	1	1	1	1	1	1	0	1	-42,847075	274,674012	279,893332	0
14.01.2021	20:22:04	0	0	2,372549	3,849	87,7248	0,705	77,805	3,5	1005,8	7,3	9,3	9	1	1	1	1	1	1	1	1	1	0	1	-44,326991	274,540721	277,787408	0
14.01.2021	20:22:05	0	0	4,858077	3,73575	92,9592	0,709	77,792	3,5	1005,96	7,3	9,3	9	1	1	1	1	1	1	1	1	1	0	1	-45,806906	274,634082	276,74587	0
14.01.2021	20:22:06	0	0	3,84127	3,57525	86,9796	0,708	77,792	3,5	1005,86	7,3	9,2	9	1	1	1	1	1	1	1	1	1	0	1	-44,538407	274,542248	277,583158	0
14.01.2021	20:22:07	0	0	2,824463	3,59475	95,166	0,706	77,809	3,5	1005,96	7,3	9,3	9	1	1	1	1	1	1	1	1	1	0	1	-44,256519	274,621812	278,238619	0
14.01.2021	20:22:08	0	0	4,180206	3,48375	70,6212	0,697	77,8	3,5	1005,92	7,3	9,3	9	1	1	1	1	1	1	1	1	1	0	1	-42,847075	274,548357	279,30316	0
14.01.2021	20:22:09	0	0	4,858077	3,216	81,5796	0,707	77,8	3,5	1005,9	7,3	9,3	9	1	1	1	1	1	1	1	1	1	0	1	-44,186047	274,66479	278,51102	0
14.01.2021	20:22:10	0	0	2,82448	3,13125	75,6216	0,703	77,813	3,5	1005,96	7,3	9,3	8,9	1	1	1	1	1	1	1	1	1	0	1	-43,128964	274,692469	279,698201	0
14.01.2021	20:22:11	0	0	4,180206	3,30825	87,3612	0,705	77,794	3,5	1005,8	7,3	9,3	9	1	1	1	1	1	1	1	1	1	0	1	-46,018323	274,6817	276,758222	0
14.01.2021	20:22:12	0	0	3,389356	3,4935	84,798	0,706	77,783	3,5	1005,9	7,3	9,3	9	1	1	1	1	1	1	1	1	1	0	1	-41,014799	274,585049	281,307689	0
14.01.2021	20:22:13	0	0	4,293184	3,4845	84,8088	0,705	77,778	3,5	1005,82	7,3	9,3	9	1	1	1	1	1	1	1	1	1	0	1	-45,384073	274,704784	277,500986	0
14.01.2021	20:22:14	0	0	3,502313	3,3315	76,3812	0,701	77,769	3,5	1005,94	7,3	9,3	9,1	1	1	1	1	1	1	1	1	1	0	1	-46,934461	274,594233	275,431152	0
14.01.2021	20:22:15	0	0	3,389356	3,003	101,5164	0,701	77,762	3,5	1006,06	7,3	9,3	9	1	1	1	1	1	1	1	1	1	0	1	-43,340381	274,571281	278,917466	0
14.01.2021	20:22:16	0	0	4,858048	2,6805	85,2084	0,7	77,76	3,5	1006,02	7,3	9,3	9,1	1	1	1	1	1	1	1	1	1	0	1	-43,199436	274,660181	279,475969	0
14.01.2021	20:22:17	0	0	3,05042	2,58225	85,1976	0,704	77,765	3,5	1005,94	7,3	9,3	9	1	1	1	1	1	1	1	1	1	0	1	-40,239605	274,692469	282,58756	0
14.01.2021	20:22:18	0	0	4,180206	2,7375	94,392	0,704	77,744	3,5	1006	7,3	9,3	9	1	1	1	1	1	1	1	1	1	0	1	-42,424242	274,712485	280,497024	0
14.01.2021	20:22:19	0	0	2,485528	2,8635	74,9412	0,705	77,75	3,5	1006,12	7,3	9,3	9	1	1	1	1	1	1	1	1	1	0	1	-42,494715	274,643289	280,10132	0
14.01.2021	20:22:20	0	0	2,711485	3,159	103,6584	0,704	77,73	3,5	1005,9	7,3	9,3	9	1	1	1	1	1	1	1	1	1	0	1	-45,947851	274,513258	276,03768	0
14.01.2021	20:22:21	0	0	4,180181	3,61125	84,0456	0,696	77,702	3,5	1005,9	7,3	9,3	9,1	1	1	1	1	1	1	1	1	1	0	1	-42,98802	274,604954	279,427938	0
14.01.2021	20:22:22	0	0	3,615313	3,88575	84,0492	0,701	77,709	3,5	1005,98	7,3	9,3	9	1	1	1	1	1	1	1	1	1	0	1	-45,59549	274,52851	276,461607	0
14.01.2021	20:22:23	0	0	3,389376	4,17	92,2536	0,7	77,706	3,5	1005,86	7,3	9,2	8,9	1	1	1	1	1	1	1	1	1	0	1	-38,900634	274,57434	283,371572	0
14.01.2021	20:22:24	0	0	2,937442	4,7415	104,454	0,702	77,705	3,5	1005,92	7,3	9,3	9	1	1	1	1	1	1	1	1	1	0	1	-41,155743	274,717106	281,787255	0
14.01.2021	20:22:25	0	0	3,954249	5,178	90,0324	0,698	77,728	3,5	1005,94	7,3	9,3	9	1	1	1	1	1	1	1	1	1	0	1	-47,639183	274,683238	275,144591	0
14.01.2021	20:22:26	0	0	2,711468	5,30775	89,3196	0,7	77,729	3,5	1005,9	7,2	9,3	9,1	1	1	1	1	1	1	1	1	1	0	1	-43,692741	274,697086	279,156129	0
14.01.2021	20:22:27	0	0	3,615313	5,3475	86,2776	0,697	77,734	3,5	1005,86	7,3	9,3	9	1	1	1	1	1	1	1	1	1	0	1	-43,692741	274,58811	278,644119	0
14.01.2021	20:22:28	0	0	3,615291	5,364	80,5176	0,698	77,755	3,5	1005,92	7,3	9,3	9,1	1	1	1	1	1	1	1	1	1	0	1	-44,115574	274,508685	277,8485	0
14.01.2021	20:22:29	0	0	3,502355	5,1975	85,9212	0,695	77,758	3,5	1005,98	7,3	9,3	8,9	1	1	1	1	1	1	1	1	1	0	1	-43,410853	274,63715	279,15634	0
14.01.2021	20:22:30	0	0	4,519141	5,22	88,1064	0,692	77,765	3,5	1005,94	7,3	9,3	9	1	1	1	1	1	1	1	1	1	0	1	-50,880902	274,697086	271,967968	0
14.01.2021	20:22:31	0	0	2,598491	5,487	83,3472	0,704	77,775	3,5	1006	7,3	9,3	9,1	1	1	1	1	1	1	1	1	1	0	1	-40,310078	274,623345	282,192263	0
14.01.2021	20:22:32	0	0	2,711468	5,3385	92,2788	0,693	77,788	3,5	1005,98	7,3	9,3	9,1	1	1	1	1	1	1	1	1	1	0	1	-44,749824	274,692469	278,077341	0
14.01.2021	20:22:33	0	0	3,050402	5,24775	96,5772	0,696	77,789	3,5	1005,84	7,3	9,2	9,1	1	1	1	1	1	1	1	1	1	0	1	-40,169133	274,654036	282,4774	0
14.01.2021	20:22:34	0	0	4,29321	5,007	86,2776	0,7	77,791	3,5	1005,88	7,3	9,3	8,9	1	1	1	1	1	1	1	1	1	0	1	-39,534884	274,694008	283,299516	0
14.01.2021	20:22:35	0	0	3,84127	4,98225	86,634	0,698	77,807	3,5	1005,98	7,3	9,3	9	1	1	1	1	1	1	1	1	1	0	1	-44,045102	274,646359	278,565357	0
14.01.2021	20:22:36	0	0	2,711485	5,004	83,7432	0,7	77,826	3,5	1005,78	7,3	9,3	9	1	1	1	1	1	1	1	1	1	0	1	-44,397463	274,677087	278,357397	0
14.01.2021	20:22:37	0	0	3,615313	5,1	85,59	0,694	77,81	3,5	1005,86	7,2	9,2	9	1	1	1	1	1	1	1	1	1	0	1	-44,749824	274,655572	277,903926	0
14.01.2021	20:22:38	0	0	2,824463	5,0385	95,5296	0,695	77,841	3,5	1006,04	7,2	9,3	9	1	1	1	1	1	1	1	1	1	0	1	-41,296688	274,663253	281,393157	0
14.01.2021	20:22:39	0	0	5,309991	5,00325	94,086	0,697	77,834	3,5	1006,02	7,3	9,2	9	1	1	1	1	1	1	1	1	1	0	1	-41,014799	274,666327	281,689489	0
14.01.2021	20:22:40	0	0	3,050402	4,70775	82,3428	0,698	77,834	3,5	1005,72	7,2	9,3	9,1	1	1	1	1	1	1	1	1	1	0	1	-45,313601	274,578929	276,980151	0
14.01.2021	20:22:41	0	0	4,519141	4,65375	80,8776	0,693	77,844	3,5	1006,1	7,3	9,3	9	1	1	1	1	1	1	1	1	1	0	1	-45,877378	274,703244	277,000442	0
14.01.2021	20:22:42	0	0	4,519168	4,4745	95,8464	0,689	77,826	3,5	1005,9	7,2	9,2	8,9	1	1	1	1	1	1	1	1	1	0	1	-42,776603	274,626412	279,740144	0
14.01.2021	20:22:43	0	0	4,519114	4,78425	90,0288	0,694	77,832	3,5	1006,04	7,3	9,3	9,1	1	1	1	1	1	1	1	1	1	0	1	-43,622269	274,530036	278,441988	0
14.01.2021	20:22:44	0	0	4,067227	4,7595	86,3352	0,696	77,859	3,5	1005,86	7,3	9,2	9	1	1	1	1	1	1	1	1	1	0	1	-44,397463	274,612615	278,054475	0
14.01.2021	20:22:45	0	0	3,954272	4,83825	82,35	0,695	77,861	3,5	1006,04	7,3	9,2	8,9	1	1	1	1	1	1	1	1	1	0	1	-45,102185	274,680162	277,667131	0
14.01.2021	20:22:46	0	0	4,293184	4,56375	77,2056	0,69	77,852	3,5	1005,96	7,3	9,3	9	1	1	1	1	1	1	1	1	1	0	1	-41,085271	274,566694	281,151041	0
14.01.2021	20:22:47	0	0	3,615291	4,359	74,6244	0,694	77,859	3,5	1006,04	7,3	9,2	9,1	1	1	1	1	1	1	1	1	1	0	1	-45,102185	274,66479	277,594882	0
14.01.2021	20:22:48	0	0	3,728269	4,20225	85,1508	0,7	77,864	3,5	1006,02	7,3	9,3	9,1	1	1	1	1	1	1	1	1	1	0	1	-43,763214	274,542248	278,358351	0
14.01.2021	20:22:49	0	0	3,05042	4,17675	85,9248	0,693	77,857	3,5	1005,96	7,2	9,3	9	1	1	1	1	1	1	1	1	1	0	1	-43,128964	274,617213	279,344571	0
14.01.2021	20:22:50	0	0	3,389336	3,9705	79,038	0,693	77,871	3,5	1005,94	7,3	9,2	9,1	1	1	1	1	1	1	1	1	1	0	1	-44,608879	274,697086	278,239991	0
14.01.2021	20:22:51	0	0	4,406136	3,798	81,5832	0,693	77,88	3,5	1005,92	7,2	9,3	9,1	1	1	1	1	1	1	1	1	1	0	1	-44,820296	274,571281	277,437551	0
14.01.2021	20:22:52	0	0	3,728269	3,71025	76,8276	0,692	77,88	3,5	1006,06	7,3	9,3	9,1	1	1	1	1	1	1	1	1	1	0	1	-42,706131	274,508685	279,257943	0
14.01.2021	20:22:53	0	0	3,841247	3,42225	76,3632	0,689	77,882	3,5	1006	7,3	9,3	9,1	1	1	1	1	1	1	1	1	1	0	1	-43,904158	274,551412	278,260417	0
14.01.2021	20:22:54	0	0	4,519114	3,201	74,9376	0,692	77,879	3,5	1005,96	7,3	9,3	9,1	1	1	1	1	1	1	1	1	1	0	1	-42,917548	274,559051	279,282887	0
14.01.2021	20:22:55	0	0	2,824463	3,0285	79,7616	0,699	77,875	3,5	1006	7,3	9,2	9	1	1	1	1	1	1	1	1	1	0	1	-44,749824	274,683238	278,03395	0
14.01.2021	20:22:56	0	0	4,293184	3,2475	70,8804	0,69	77,866	3,5	1005,94	7,3	9,2	9	1	1	1	1	1	1	1	1	1	0	1	-42,35377	274,698626	280,502336	0
14.01.2021	20:22:57	0	0	4,745127	3,684	77,9616	0,696	77,841	3,5	1005,96	7,3	9,2	8,9	1	1	1	1	1	1	1	1	1	0	1	-46,652572	274,620279	275,835364	0
14.01.2021	20:22:58	0	0	2,711501	3,73725	73,7712	0,693	77,837	3,5	1006,1	7,3	9,3	8,9	1	1	1	1	1	1	1	1	1	0	1	-41,36716	274,697086	281,48171	0
14.01.2021	20:22:59	0	0	3,615291	3,9585	70,5816	0,695	77,84	3,5	1005,96	7,2	9,3	9,1	1	1	1	1	1	1	1	1	1	0	1	-44,186047	274,644824	278,4172	0
14.01.2021	20:23:00	0	0	3,050439	3,79425	72,2808	0,698	77,819	3,5	1005,92	7,3	9,3	8,9	1	1	1	1	1	1	1	1	1	0	1	-42,35377	274,555995	279,832318	0
14.01.2021	20:23:01	0	0	3,050439	3,79425	72,2808	0,698	77,819	3,5	1005,92	7,3	9,3	8,9	1	1	1	1	1	1	1	1	1	0	1	-42,35377	274,555995	279,832318	0
14.01.2021	20:23:02	0	0	2,824446	3,8535	69,858	0,694	77,817	3,5	1006,04	7,2	9,2	9,1	1	1	1	1	1	1	1	1	1	0	1	-45,243129	274,660181	277,432276	0
14.01.2021	20:23:03	0	0	2,598506	3,91425	81,5688	0,697	77,799	3,5	1005,86	7,2	9,3	9	1	1	1	1	1	1	1	1	1	0	1	-42,635659	274,525459	279,407119	0
14.01.2021	20:23:04	0	0	3,389336	4,491	86,6736	0,69	77,782	3,5	1005,84	7,2	9,3	9,1	1	1	1	1	1	1	1	1	1	0	1	-45,313601	274,60955	277,123943	0
14.01.2021	20:23:05	0	0	4,406163	4,6155	67,2984	0,693	77,77	3,5	1005,94	7,2	9,3	9	1	1	1	1	1	1	1	1	1	0	1	-43,410853	274,530036	278,653405	0
14.01.2021	20:23:06	0	0	2,259557	4,416	73,7568	0,691	77,779	3,5	1005,98	7,3	9,2	9,1	1	1	1	1	1	1	1	1	1	0	1	-45,877378	274,555995	276,30871	0
14.01.2021	20:23:07	0	0	3,728269	4,10325	91,1736	0,695	77,778	3,5	1006,02	7,3	9,2	9,1	1	1	1	1	1	1	1	1	1	0	1	-46,863989	274,52851	275,193108	0
14.01.2021	20:23:08	0	0	2,711485	3,64875	68,7672	0,692	77,776	3,5	1005,84	7,2	9,3	9	1	1	1	1	1	1	1	1	1	0	1	-44,326991	274,562108	277,887793	0
14.01.2021	20:23:09	0	0	3,05042	3,37725	79,4232	0,689	77,76	3,5	1005,78	7,2	9,3	9	1	1	1	1	1	1	1	1	1	0	1	-43,481325	274,700165	279,382019	0
14.01.2021	20:23:10	0	0	3,276397	3,47775	65,16	0,689	77,759	3,5	1005,96	7,2	9,2	8,9	1	1	1	1	1	1	1	1	1	0	1	-47,639183	274,536141	274,453723	0
14.01.2021	20:23:11	0	0	2,711485	4,39275	70,8372	0,684	77,762	3,5	1006,1	7,3	9,3	9	1	1	1	1	1	1	1	1	1	0	1	-41,860465	274,644824	280,742781	0
14.01.2021	20:23:12	0	0	4,971055	4,6455	68,0184	0,685	77,77	3,5	1005,98	7,3	9,2	9	1	1	1	1	1	1	1	1	1	0	1	-44,115574	274,707864	278,783966	0
14.01.2021	20:23:13	0	0	3,954249	4,6245	64,2456	0,692	77,782	3,5	1006,06	7,3	9,2	9	1	1	1	1	1	1	1	1	1	0	1	-43,551797	274,678625	279,210291	0
14.01.2021	20:23:14	0	0	3,954225	4,6785	62,7912	0,69	77,775	3,5	1006,08	7,3	9,3	9,1	1	1	1	1	1	1	1	1	1	0	1	-49,82382	274,710944	273,090204	0
14.01.2021	20:23:15	0	0	4,74507	4,50375	81,9576	0,692	77,769	3,5	1005,82	7,2	9,3	9,1	1	1	1	1	1	1	1	1	1	0	1	-42,001409	274,634082	280,551367	0
14.01.2021	20:23:16	0	0	4,519114	3,99825	84,4344	0,691	77,779	3,5	1006,02	7,3	9,2	9,1	1	1	1	1	1	1	1	1	1	0	1	-44,749824	274,542248	277,371741	0
14.01.2021	20:23:17	0	0	3,050402	3,8085	94,7304	0,685	77,762	3,5	1005,88	7,3	9,2	9,1	1	1	1	1	1	1	1	1	1	0	1	-45,243129	274,533089	276,835451	0
14.01.2021	20:23:18	0	0	2,711468	3,69375	92,6388	0,691	77,761	3,5	1006,06	7,2	9,2	9,1	1	1	1	1	1	1	1	1	1	0	1	-44,326991	274,643289	278,269043	0
14.01.2021	20:23:19	0	0	3,954225	3,55575	88,1172	0,693	77,768	3,5	1006	7,3	9,3	9,1	1	1	1	1	1	1	1	1	1	0	1	-45,102185	274,520883	276,919121	0
14.01.2021	20:23:20	0	0	4,067252	3,831	73,4292	0,684	77,751	3,5	1005,94	7,2	9,3	8,9	1	1	1	1	1	1	1	1	1	0	1	-43,833686	274,517833	278,173308	0
14.01.2021	20:23:21	0	0	4,067203	3,939	85,1544	0,683	77,747	3,5	1005,72	7,2	9,2	9,1	1	1	1	1	1	1	1	1	1	0	1	-44,679352	274,675549	278,068282	0
14.01.2021	20:23:22	0	0	2,711485	4,31625	88,5672	0,684	77,755	3,5	1005,9	7,2	9,2	9	1	1	1	1	1	1	1	1	1	0	1	-43,622269	274,631013	278,916093	0
14.01.2021	20:23:23	0	0	4,632092	4,35675	79,0344	0,687	77,76	3,5	1006	7,2	9,3	9,1	1	1	1	1	1	1	1	1	1	0	1	-45,102185	274,508685	276,86189	0
14.01.2021	20:23:24	0	0	4,519114	4,3155	89,694	0,687	77,743	3,5	1006,02	7,2	9,2	9,1	1	1	1	1	1	1	1	1	1	0	1	-43,128964	274,569752	279,121704	0
14.01.2021	20:23:25	0	0	2,485528	4,1235	75,618	0,689	77,764	3,5	1006,1	7,3	9,2	9	1	1	1	1	1	1	1	1	1	0	1	-42,635659	274,690931	280,184273	0
14.01.2021	20:23:26	0	0	4,180231	3,819	57,0384	0,683	77,733	3,5	1005,96	7,2	9,2	8,9	1	1	1	1	1	1	1	1	1	0	1	-43,269908	274,572811	278,995118	0
14.01.2021	20:23:27	0	0	3,276377	3,87075	64,2204	0,685	77,77	3,5	1005,96	7,3	9,2	9	1	1	1	1	1	1	1	1	1	0	1	-45,877378	274,675549	276,870255	0
14.01.2021	20:23:28	0	0	4,632092	3,91725	76,8384	0,688	77,772	3,5	1005,94	7,2	9,2	9,1	1	1	1	1	1	1	1	1	1	0	1	-43,833686	274,652501	278,805631	0
14.01.2021	20:23:29	0	0	4,519141	3,867	85,2624	0,681	77,775	3,5	1005,9	7,2	9,2	9	1	1	1	1	1	1	1	1	1	0	1	-45,031712	274,680162	277,737603	0
14.01.2021	20:23:30	0	0	3,389356	3,63525	84,42	0,682	77,783	3,5	1005,96	7,2	9,3	9	1	1	1	1	1	1	1	1	1	0	1	-46,511628	274,638685	276,062774	0
14.01.2021	20:23:31	0	0	3,954225	3,4275	86,9832	0,688	77,8	3,5	1006,04	7,2	9,2	9,1	1	1	1	1	1	1	1	1	1	0	1	-41,719521	274,505636	280,230253	0
14.01.2021	20:23:32	0	0	3,389356	3,2295	95,1228	0,688	77,791	3,5	1006	7,2	9,2	9	1	1	1	1	1	1	1	1	1	0	1	-46,018323	274,559051	276,182112	0
14.01.2021	20:23:33	0	0	3,502313	3,31575	90,3708	0,675	77,79	3,5	1005,92	7,2	9,3	9,1	1	1	1	1	1	1	1	1	1	0	1	-47,850599	274,513258	274,134932	0
14.01.2021	20:23:34	0	0	3,05042	3,474	102,9528	0,687	77,8	3,5	1005,9	7,2	9,3	9	1	1	1	1	1	1	1	1	1	0	1	-41,085271	274,614147	281,373865	0
14.01.2021	20:23:35	0	0	4,293184	3,56325	104,4252	0,677	77,798	3,5	1005,88	7,2	9,2	9	1	1	1	1	1	1	1	1	1	0	1	-44,115574	274,517833	277,891419	0
14.01.2021	20:23:36	0	0	2,372549	3,5355	102,564	0,685	77,797	3,5	1005,98	7,2	9,3	9	1	1	1	1	1	1	1	1	1	0	1	-40,310078	274,537668	281,789992	0
14.01.2021	20:23:37	0	0	2,711485	3,22125	99,5292	0,679	77,791	3,5	1005,96	7,2	9,2	9	1	1	1	1	1	1	1	1	1	0	1	-45,313601	274,505636	276,636172	0
14.01.2021	20:23:38	0	0	4,74507	2,99775	110,6604	0,681	77,778	3,5	1005,92	7,2	9,3	9,1	1	1	1	1	1	1	1	1	1	0	1	-47,639183	274,641754	274,94964	0
14.01.2021	20:23:39	0	0	4,406163	2,841	110,5092	0,674	77,795	3,5	1006	7,2	9,2	9	1	1	1	1	1	1	1	1	1	0	1	-42,212826	274,640219	280,368786	0
14.01.2021	20:23:40	0	0	2,824463	2,87025	105,5124	0,678	77,786	3,5	1005,86	7,2	9,2	9	1	1	1	1	1	1	1	1	1	0	1	-38,971106	274,539194	283,136128	0
14.01.2021	20:23:41	0	0	4,519141	2,9415	86,976	0,679	77,804	3,5	1005,82	7,2	9,2	9	1	1	1	1	1	1	1	1	1	0	1	-41,789993	274,551412	280,374582	0
14.01.2021	20:23:42	0	0	2,937459	2,7795	86,2848	0,681	77,807	3,5	1006,02	7,2	9,2	8,9	1	1	1	1	1	1	1	1	1	0	1	-40,591966	274,539194	281,515268	0
14.01.2021	20:23:43	0	0	2,937424	2,8065	98,7336	0,68	77,797	3,5	1006,06	7,2	9,2	9,1	1	1	1	1	1	1	1	1	1	0	1	-40,310078	274,566694	281,926235	0
14.01.2021	20:23:44	0	0	4,63212	2,9385	92,6388	0,681	77,814	3,5	1005,98	7,2	9,2	9	1	1	1	1	1	1	1	1	1	0	1	-44,256519	274,663253	278,433327	0
14.01.2021	20:23:45	0	0	3,954225	2,93175	99,1548	0,673	77,806	3,5	1005,9	7,3	9,2	9,1	1	1	1	1	1	1	1	1	1	0	1	-41,155743	274,551412	281,008831	0
14.01.2021	20:23:46	0	0	3,84127	2,88975	82,9728	0,686	77,83	3,5	1006,08	7,2	9,2	9	1	1	1	1	1	1	1	1	1	0	1	-41,789993	274,491925	280,09546	0
14.01.2021	20:23:47	0	0	4,293158	2,65275	79,8624	0,683	77,831	3,5	1006,02	7,2	9,2	9,1	1	1	1	1	1	1	1	1	1	0	1	-46,652572	274,61568	275,813763	0
14.01.2021	20:23:48	0	0	4,406136	2,7585	85,1688	0,67	77,825	3,5	1005,96	7,2	9,2	9,1	1	1	1	1	1	1	1	1	1	0	1	-41,014799	274,683238	281,768975	0
14.01.2021	20:23:49	0	0	2,824446	2,82975	101,502	0,673	77,828	3,5	1005,94	7,3	9,2	9,1	1	1	1	1	1	1	1	1	1	0	1	-44,256519	274,552939	277,915227	0
14.01.2021	20:23:50	0	0	2,485513	2,8515	105,8904	0,68	77,837	3,5	1006,1	7,2	9,2	9,1	1	1	1	1	1	1	1	1	1	0	1	-46,934461	274,684777	275,856543	0
14.01.2021	20:23:51	0	0	5,084034	2,799	92,268	0,675	77,843	3,5	1006,06	7,2	9,2	9	1	1	1	1	1	1	1	1	1	0	1	-42,98802	274,549884	279,169385	0
14.01.2021	20:23:52	0	0	2,711485	2,78475	68,0364	0,672	77,83	3,5	1005,96	7,3	9,2	9	1	1	1	1	1	1	1	1	1	0	1	-47,427766	274,50716	274,529157	0
14.01.2021	20:23:53	0	0	2,824446	2,7075	75,2076	0,671	77,819	3,5	1006,1	7,2	9,2	9,1	1	1	1	1	1	1	1	1	1	0	1	-41,36716	274,531562	280,704258	0
14.01.2021	20:23:54	0	0	3,276377	2,72625	73,7892	0,668	77,84	3,5	1005,92	7,2	9,2	9	1	1	1	1	1	1	1	1	1	0	1	-40,028189	274,683238	282,755585	0
14.01.2021	20:23:55	0	0	2,372549	2,59725	77,5584	0,676	77,834	3,5	1006,06	7,2	9,2	9	1	1	1	1	1	1	1	1	1	0	1	-44,326991	274,523933	277,708629	0
14.01.2021	20:23:56	0	0	4,067227	2,44125	77,2272	0,673	77,83	3,5	1006,06	7,2	9,2	9	1	1	1	1	1	1	1	1	1	0	1	-43,128964	274,646359	279,481495	0
14.01.2021	20:23:57	0	0	4,858077	2,3865	72,6948	0,675	77,831	3,5	1006,14	7,2	9,2	9	1	1	1	1	1	1	1	1	1	0	1	-41,226216	274,626412	281,290531	0
14.01.2021	20:23:58	0	0	2,598506	2,30775	76,8312	0,668	77,832	3,5	1006,14	7,3	9,2	9	1	1	1	1	1	1	1	1	1	0	1	-44,96124	274,534615	277,124502	0
14.01.2021	20:23:59	0	0	2,259557	2,2725	69,8544	0,671	77,826	3,5	1005,98	7,3	9,2	9,1	1	1	1	1	1	1	1	1	1	0	1	-44,256519	274,525459	277,786259	0
14.01.2021	20:24:00	0	0	5,084034	2,51625	70,2144	0,668	77,839	3,5	1005,88	7,3	9,2	9	1	1	1	1	1	1	1	1	1	0	1	-43,97463	274,618746	278,506105	0
14.01.2021	20:24:01	0	0	5,084034	2,51625	70,2144	0,668	77,839	3,5	1005,88	7,3	9,2	9	1	1	1	1	1	1	1	1	1	0	1	-43,97463	274,618746	278,506105	0
14.01.2021	20:24:02	0	0	3,05042	2,67675	73,44	0,672	77,827	3,5	1006,02	7,3	9,2	9	1	1	1	1	1	1	1	1	1	0	1	-40,239605	274,499541	281,681574	0
14.01.2021	20:24:03	0	0	4,745098	3,3135	81,594	0,666	77,831	3,5	1005,98	7,2	9,2	9	1	1	1	1	1	1	1	1	1	0	1	-45,525018	274,522408	276,503445	0
14.01.2021	20:24:04	0	0	3,276377	3,61875	82,5804	0,666	77,824	3,5	1005,88	7,2	9,2	9	1	1	1	1	1	1	1	1	1	0	1	-39,534884	274,533089	282,543696	0
14.01.2021	20:24:05	0	0	2,711485	3,61725	80,8956	0,675	77,837	3,5	1006,04	7,3	9,2	9	1	1	1	1	1	1	1	1	1	0	1	-44,820296	274,540721	277,294103	0
14.01.2021	20:24:06	0	0	4,519141	3,6795	82,602	0,668	77,811	3,5	1005,98	7,3	9,2	9	1	1	1	1	1	1	1	1	1	0	1	-43,692741	274,66479	279,004325	0
14.01.2021	20:24:07	0	0	3,276377	3,67425	86,652	0,669	77,834	3,5	1005,94	7,2	9,3	9	1	1	1	1	1	1	1	1	1	0	1	-47,780127	274,603422	274,628636	0
14.01.2021	20:24:08	0	0	2,711485	3,651	80,514	0,671	77,825	3,5	1006,02	7,2	9,3	9	1	1	1	1	1	1	1	1	1	0	1	-38,477801	274,654036	284,168732	0
14.01.2021	20:24:09	0	0	3,163399	3,624	81,2124	0,669	77,841	3,5	1005,96	7,2	9,2	9	1	1	1	1	1	1	1	1	1	0	1	-41,649049	274,654036	280,997485	0
14.01.2021	20:24:10	0	0	4,293184	3,6285	78,3072	0,669	77,845	3,5	1005,98	7,2	9,2	9	1	1	1	1	1	1	1	1	1	0	1	-42,706131	274,56058	279,501478	0
14.01.2021	20:24:11	0	0	4,180206	3,52725	69,84	0,668	77,857	3,5	1006	7,3	9,2	9	1	1	1	1	1	1	1	1	1	0	1	-45,031712	274,634082	277,521064	0
14.01.2021	20:24:12	0	0	3,84127	3,85125	75,0096	0,674	77,86	3,5	1005,82	7,2	9,2	9	1	1	1	1	1	1	1	1	1	0	1	-40,732911	274,488879	281,138257	0
14.01.2021	20:24:13	0	0	4,63212	4,32225	60,93	0,67	77,866	3,5	1005,92	7,3	9,2	9	1	1	1	1	1	1	1	1	1	0	1	-42,001409	274,621812	280,493728	0
14.01.2021	20:24:14	0	0	4,519141	4,46325	60,9336	0,667	77,878	3,5	1006,04	7,2	9,2	9	1	1	1	1	1	1	1	1	1	0	1	-45,454545	274,644824	277,148701	0
14.01.2021	20:24:15	0	0	4,858077	4,31925	56,6604	0,665	77,88	3,5	1005,92	7,2	9,2	9	1	1	1	1	1	1	1	1	1	0	1	-45,59549	274,523933	276,44013	0
14.01.2021	20:24:16	0	0	4,406163	4,056	66,222	0,669	77,886	3,5	1005,92	7,3	9,2	9	1	1	1	1	1	1	1	1	1	0	1	-44,890768	274,641754	277,698055	0
14.01.2021	20:24:17	0	0	2,824463	3,768	77,202	0,658	77,887	3,5	1005,88	7,3	9,2	9	1	1	1	1	1	1	1	1	1	0	1	-41,508104	274,530036	280,556153	0
14.01.2021	20:24:18	0	0	3,389336	3,72075	79,7652	0,665	77,89	3,5	1005,96	7,3	9,2	9,1	1	1	1	1	1	1	1	1	1	0	1	-47,498238	274,646359	275,112221	0
14.01.2021	20:24:19	0	0	2,598506	3,8175	69,1776	0,659	77,905	3,5	1005,9	7,3	9,2	9	1	1	1	1	1	1	1	1	1	0	1	-43,128964	274,508685	278,83511	0
14.01.2021	20:24:20	0	0	4,406136	3,96675	66,5568	0,655	77,918	3,5	1005,9	7,3	9,2	9,1	1	1	1	1	1	1	1	1	1	0	1	-42,212826	274,623345	280,289514	0
14.01.2021	20:24:21	0	0	3,05042	4,01625	81,5652	0,66	77,931	3,5	1005,86	7,3	9,2	9	1	1	1	1	1	1	1	1	1	0	1	-41,226216	274,499541	280,694964	0
14.01.2021	20:24:22	0	0	2,937442	4,28325	66,9168	0,665	77,931	3,5	1005,84	7,3	9,2	9	1	1	1	1	1	1	1	1	1	0	1	-48,062016	274,660181	274,61339	0
14.01.2021	20:24:23	0	0	3,05042	4,572	88,9308	0,659	77,936	3,5	1006,2	7,2	9,2	9	1	1	1	1	1	1	1	1	1	0	1	-42,283298	274,543775	279,845433	0
14.01.2021	20:24:24	0	0	3,163399	4,55175	90,0252	0,662	77,939	3,5	1006	7,3	9,2	9	1	1	1	1	1	1	1	1	1	0	1	-39,957717	274,661717	282,724908	0
14.01.2021	20:24:25	0	0	2,711485	4,98675	86,2884	0,658	77,959	3,5	1005,96	7,3	9,2	9	1	1	1	1	1	1	1	1	1	0	1	-46,723044	274,510209	275,248181	0
14.01.2021	20:24:26	0	0	3,954249	5,36175	76,8492	0,662	77,992	3,5	1005,96	7,3	9,2	9	1	1	1	1	1	1	1	1	1	0	1	-43,481325	274,502589	278,45415	0
14.01.2021	20:24:27	0	0	4,63212	5,54175	80,9892	0,66	78,004	3,5	1005,8	7,3	9,2	9	1	1	1	1	1	1	1	1	1	0	1	-45,384073	274,632547	277,161496	0
14.01.2021	20:24:28	0	0	3,163399	5,001	75,2184	0,656	78,033	3,5	1005,94	7,3	9,2	9	1	1	1	1	1	1	1	1	1	0	1	-42,071882	274,478223	279,749306	0
14.01.2021	20:24:29	0	0	2,937442	4,84575	74,916	0,66	78,055	3,5	1005,92	7,3	9,2	9	1	1	1	1	1	1	1	1	1	0	1	-43,340381	274,569752	278,910287	0
14.01.2021	20:24:30	0	0	4,519141	4,86825	80,1504	0,653	78,07	3,5	1005,9	7,3	9,2	9	1	1	1	1	1	1	1	1	1	0	1	-40,803383	274,646359	281,807076	0
14.01.2021	20:24:31	0	0	3,615313	5,0835	91,1376	0,655	78,077	3,5	1005,8	7,3	9,2	9	1	1	1	1	1	1	1	1	1	0	1	-42,776603	274,60955	279,66094	0
14.01.2021	20:24:32	0	0	4,971055	5,1885	80,9064	0,655	78,077	3,5	1006,06	7,2	9,2	9	1	1	1	1	1	1	1	1	1	0	1	-45,525018	274,591172	276,826218	0
14.01.2021	20:24:33	0	0	3,84127	5,241	78,3144	0,654	78,073	3,5	1006,1	7,3	9,2	9	1	1	1	1	1	1	1	1	1	0	1	-45,806906	274,627946	276,717045	0
14.01.2021	20:24:34	0	0	4,971055	5,60625	78,282	0,658	78,07	3,5	1005,94	7,3	9,2	9	1	1	1	1	1	1	1	1	1	0	1	-43,481325	274,493448	278,411272	0
14.01.2021	20:24:35	0	0	3,615313	5,9805	75,2328	0,659	78,085	3,5	1006,04	7,3	9,2	9	1	1	1	1	1	1	1	1	1	0	1	-36,222692	274,494971	285,67705	0
14.01.2021	20:24:36	0	0	4,293184	6,29025	84,0564	0,655	78,069	3,5	1005,9	7,3	9,2	9	1	1	1	1	1	1	1	1	1	0	1	-42,776603	274,504112	279,166021	0
14.01.2021	20:24:37	0	0	4,519141	6,3045	80,118	0,655	78,075	3,5	1005,98	7,3	9,2	9	1	1	1	1	1	1	1	1	1	0	1	-40,732911	274,629479	281,798246	0
14.01.2021	20:24:38	0	0	3,84127	6,08025	83,3508	0,662	78,074	3,5	1006,02	7,2	9,2	9	1	1	1	1	1	1	1	1	1	0	1	-42,071882	274,519358	279,942267	0
14.01.2021	20:24:39	0	0	2,485528	5,6745	79,74	0,656	78,07	3,5	1005,86	7,3	9,2	9	1	1	1	1	1	1	1	1	1	0	1	-43,692741	274,514783	278,299943	0
14.01.2021	20:24:40	0	0	4,519141	5,2755	73,0584	0,66	78,078	3,5	1006,1	7,3	9,2	9	1	1	1	1	1	1	1	1	1	0	1	-42,494715	274,654036	280,151819	0
14.01.2021	20:24:41	0	0	3,502334	4,88625	78,2784	0,656	78,077	3,5	1005,9	7,3	9,2	9	1	1	1	1	1	1	1	1	1	0	1	-42,776603	274,652501	279,862714	0
14.01.2021	20:24:42	0	0	2,711485	4,863	77,8464	0,655	78,066	3,5	1006,04	7,3	9,2	9	1	1	1	1	1	1	1	1	1	0	1	-40,451022	274,598827	281,936163	0
14.01.2021	20:24:43	0	0	2,824463	4,7415	77,22	0,651	78,057	3,5	1006,04	7,3	9,2	9	1	1	1	1	1	1	1	1	1	0	1	-49,048626	274,488879	272,822541	0
14.01.2021	20:24:44	0	0	4,067227	4,6905	63,1584	0,652	78,066	3,5	1006,02	7,3	9,2	9	1	1	1	1	1	1	1	1	1	0	1	-42,917548	274,614147	279,541589	0
14.01.2021	20:24:45	0	0	2,824463	5,4345	65,484	0,648	78,05	3,5	1005,92	7,3	9,2	9	1	1	1	1	1	1	1	1	1	0	1	-43,410853	274,634082	279,141924	0
14.01.2021	20:24:46	0	0	4,745098	5,811	78,3	0,656	78,06	3,5	1005,82	7,3	9,2	9	1	1	1	1	1	1	1	1	1	0	1	-44,890768	274,631013	277,647594	0
14.01.2021	20:24:47	0	0	3,05042	5,80875	75,9852	0,653	78,079	3,5	1006	7,3	9,2	9	1	1	1	1	1	1	1	1	1	0	1	-47,498238	274,64943	275,126648	0
14.01.2021	20:24:48	0	0	2,824446	5,48325	78,264	0,654	78,088	3,5	1005,78	7,3	9,2	9,1	1	1	1	1	1	1	1	1	1	0	1	-44,467935	274,531562	277,603483	0
14.01.2021	20:24:49	0	0	4,519141	5,06025	78,6528	0,654	78,076	3,5	1005,74	7,3	9,2	9	1	1	1	1	1	1	1	1	1	0	1	-43,692741	274,644824	278,910505	0
14.01.2021	20:24:50	0	0	4,858077	4,89225	74,5344	0,659	78,091	3,5	1005,96	7,3	9,2	9	1	1	1	1	1	1	1	1	1	0	1	-47,004933	274,627946	275,519018	0
14.01.2021	20:24:51	0	0	4,745098	5,21175	78,6672	0,657	78,094	3,5	1005,84	7,3	9,2	9	1	1	1	1	1	1	1	1	1	0	1	-45,102185	274,660181	277,573221	0
14.01.2021	20:24:52	0	0	3,728292	5,4195	81,9648	0,65	78,13	3,5	1005,84	7,3	9,2	9	1	1	1	1	1	1	1	1	1	0	1	-48,484848	274,627946	274,039103	0
14.01.2021	20:24:53	0	0	3,05042	5,346	79,83	0,657	78,156	3,5	1006,04	7,3	9,2	9	1	1	1	1	1	1	1	1	1	0	1	-46,159267	274,658644	276,508919	0
14.01.2021	20:24:54	0	0	3,163399	5,29275	84,7944	0,654	78,165	3,5	1005,96	7,3	9,2	9	1	1	1	1	1	1	1	1	1	0	1	-44,820296	274,514783	277,172388	0
14.01.2021	20:24:55	0	0	4,067227	5,1825	94,0752	0,654	78,172	3,5	1005,96	7,3	9,2	9	1	1	1	1	1	1	1	1	1	0	1	-43,269908	274,60189	279,131661	0
14.01.2021	20:24:56	0	0	2,824463	4,92	79,02	0,656	78,181	3,5	1005,96	7,3	9,2	9	1	1	1	1	1	1	1	1	1	0	1	-44,608879	274,643289	277,987155	0
14.01.2021	20:24:57	0	0	2,146592	4,77675	85,1328	0,657	78,194	3,5	1005,94	7,3	9,2	9	1	1	1	1	1	1	1	1	1	0	1	-43,763214	274,663253	278,926632	0
14.01.2021	20:24:58	0	0	2,711485	4,61325	87,3468	0,655	78,202	3,5	1005,88	7,2	9,2	9	1	1	1	1	1	1	1	1	1	0	1	-39,605356	274,536141	282,48755	0
14.01.2021	20:24:59	0	0	3,615313	4,68975	83,3652	0,661	78,207	3,5	1005,96	7,3	9,2	9	1	1	1	1	1	1	1	1	1	0	1	-42,071882	274,484312	279,777862	0
14.01.2021	20:25:00	0	0	3,84127	4,5225	79,7796	0,658	78,191	3,5	1005,86	7,3	9,2	9	1	1	1	1	1	1	1	1	1	0	1	-42,635659	274,658644	280,032527	0
14.01.2021	20:25:01	0	0	3,84127	4,5225	79,7796	0,658	78,191	3,5	1005,86	7,3	9,2	9	1	1	1	1	1	1	1	1	1	0	1	-42,635659	274,658644	280,032527	0
14.01.2021	20:25:02	0	0	4,067227	4,42125	101,826	0,657	78,191	3,5	1005,9	7,3	9,2	9	1	1	1	1	1	1	1	1	1	0	1	-42,706131	274,551412	279,458443	0
14.01.2021	20:25:03	0	0	3,276377	4,16175	95,8464	0,652	78,192	3,5	1005,98	7,3	9,2	9	1	1	1	1	1	1	1	1	1	0	1	-45,806906	274,646359	276,803553	0
14.01.2021	20:25:04	0	0	2,485528	4,03725	88,1028	0,652	78,182	3,5	1006,04	7,3	9,2	9	1	1	1	1	1	1	1	1	1	0	1	-43,410853	274,525459	278,631925	0
14.01.2021	20:25:05	0	0	4,180206	3,834	81,2196	0,652	78,179	3,5	1006,02	7,3	9,2	9	1	1	1	1	1	1	1	1	1	0	1	-46,229739	274,667863	276,481771	0
14.01.2021	20:25:06	0	0	3,05042	3,63825	81,2124	0,65	78,174	3,5	1005,98	7,3	9,2	9	1	1	1	1	1	1	1	1	1	0	1	-42,776603	274,530036	279,287654	0
14.01.2021	20:25:07	0	0	2,824463	4,0845	88,9668	0,65	78,157	3,5	1005,94	7,3	9,2	9	1	1	1	1	1	1	1	1	1	0	1	-42,283298	274,650965	280,348803	0
14.01.2021	20:25:08	0	0	2,711485	4,85475	88,5816	0,657	78,164	3,5	1006,06	7,3	9,2	9	1	1	1	1	1	1	1	1	1	0	1	-40,169133	274,572811	282,095893	0
14.01.2021	20:25:09	0	0	3,615313	4,90725	75,24	0,656	78,154	3,5	1006,04	7,3	9,2	9	1	1	1	1	1	1	1	1	1	0	1	-42,706131	274,496494	279,200756	0
14.01.2021	20:25:10	0	0	4,519141	5,04975	91,5228	0,654	78,134	3,5	1005,8	7,3	9,2	9	1	1	1	1	1	1	1	1	1	0	1	-44,326991	274,539194	277,780243	0
14.01.2021	20:25:11	0	0	4,971055	5,163	78,7536	0,651	78,135	3,5	1005,88	7,3	9,2	9	1	1	1	1	1	1	1	1	1	0	1	-47,780127	274,667863	274,931384	0
14.01.2021	20:25:12	0	0	4,971055	5,15775	84,4344	0,658	78,14	3,5	1006,04	7,3	9,2	9	1	1	1	1	1	1	1	1	1	0	1	-41,789993	274,634082	280,762783	0
14.01.2021	20:25:13	0	0	3,276377	4,99125	86,9832	0,656	78,134	3,5	1005,96	7,3	9,2	9	1	1	1	1	1	1	1	1	1	0	1	-48,343904	274,644824	274,259342	0
14.01.2021	20:25:14	0	0	3,728292	5,06025	84,4344	0,658	78,151	3,5	1006,04	7,2	9,2	9	1	1	1	1	1	1	1	1	1	0	1	-39,605356	274,581989	282,702763	0
14.01.2021	20:25:15	0	0	2,485528	5,18325	84,8124	0,651	78,149	3,5	1005,98	7,3	9,2	9	1	1	1	1	1	1	1	1	1	0	1	-39,605356	274,499541	282,315824	0
14.01.2021	20:25:16	0	0	2,824463	5,331	87,3756	0,653	78,15	3,5	1006	7,3	9,2	9	1	1	1	1	1	1	1	1	1	0	1	-45,525018	274,578929	276,768734	0
14.01.2021	20:25:17	0	0	4,63212	5,616	89,3232	0,655	78,176	3,5	1006,12	7,3	9,2	9	1	1	1	1	1	1	1	1	1	0	1	-46,018323	274,672475	276,71486	0
14.01.2021	20:25:18	0	0	4,293184	5,604	81,9396	0,648	78,171	3,5	1005,96	7,3	9,2	9	1	1	1	1	1	1	1	1	1	0	1	-41,930937	274,581989	280,377181	0
14.01.2021	20:25:19	0	0	3,954249	5,595	82,458	0,656	78,165	3,5	1005,98	7,3	9,2	9	1	1	1	1	1	1	1	1	1	0	1	-42,565187	274,64943	280,0597	0
14.01.2021	20:25:20	0	0	3,276377	5,58225	88,5672	0,659	78,187	3,5	1006,1	7,3	9,2	9	1	1	1	1	1	1	1	1	1	0	1	-40,803383	274,624879	281,706161	0
14.01.2021	20:25:21	0	0	5,197012	5,40525	87,3576	0,661	78,196	3,5	1005,92	7,3	9,2	9	1	1	1	1	1	1	1	1	1	0	1	-41,014799	274,674012	281,725608	0
14.01.2021	20:25:22	0	0	4,519141	5,34225	86,976	0,656	78,193	3,5	1005,9	7,3	9,2	9	1	1	1	1	1	1	1	1	1	0	1	-43,551797	274,569752	278,698871	0
14.01.2021	20:25:23	0	0	2,711485	5,3805	87,354	0,659	78,188	3,5	1005,9	7,3	9,2	9	1	1	1	1	1	1	1	1	1	0	1	-42,424242	274,6694	280,294491	0
14.01.2021	20:25:24	0	0	3,163399	5,45925	89,7048	0,656	78,172	3,5	1006,04	7,3	9,2	9	1	1	1	1	1	1	1	1	1	0	1	-39,7463	274,580459	282,554635	0
14.01.2021	20:25:25	0	0	2,824463	5,04975	87,7464	0,655	78,189	3,5	1006,08	7,3	9,2	9	1	1	1	1	1	1	1	1	1	0	1	-42,071882	274,677087	280,682979	0
14.01.2021	20:25:26	0	0	4,180206	4,6215	96,2136	0,659	78,188	3,5	1005,92	7,3	9,2	9	1	1	1	1	1	1	1	1	1	0	1	-39,7463	274,614147	282,712836	0
14.01.2021	20:25:27	0	0	2,711485	4,194	91,5156	0,654	78,19	3,5	1006,12	7,3	9,2	9	1	1	1	1	1	1	1	1	1	0	1	-42,212826	274,6817	280,563718	0
14.01.2021	20:25:28	0	0	2,824463	4,54275	88,9668	0,664	78,177	3,5	1005,92	7,3	9,2	9	1	1	1	1	1	1	1	1	1	0	1	-46,159267	274,624879	276,350276	0
14.01.2021	20:25:29	0	0	3,389356	4,84875	94,374	0,662	78,178	3,5	1006	7,3	9,2	9	1	1	1	1	1	1	1	1	1	0	1	-39,534884	274,508685	282,42919	0
14.01.2021	20:25:30	0	0	4,180206	4,98825	85,5288	0,661	78,173	3,5	1005,88	7,3	9,2	9	1	1	1	1	1	1	1	1	1	0	1	-45,031712	274,614147	277,427424	0
14.01.2021	20:25:31	0	0	4,63212	4,85925	88,9596	0,654	78,185	3,5	1005,94	7,3	9,2	9	1	1	1	1	1	1	1	1	1	0	1	-42,283298	274,694008	280,551101	0
14.01.2021	20:25:32	0	0	2,937442	5,14875	89,7264	0,66	78,179	3,5	1005,92	7,3	9,2	9	1	1	1	1	1	1	1	1	1	0	1	-43,481325	274,624879	279,028218	0
14.01.2021	20:25:33	0	0	2,824463	5,50875	97,3044	0,652	78,185	3,5	1006,06	7,3	9,2	9	1	1	1	1	1	1	1	1	1	0	1	-44,890768	274,50716	277,066155	0
14.01.2021	20:25:34	0	0	2,824463	5,60325	94,0896	0,658	78,172	3,5	1005,84	7,3	9,2	9	1	1	1	1	1	1	1	1	1	0	1	-43,551797	274,606486	278,871355	0
14.01.2021	20:25:35	0	0	3,05042	6,09075	95,1336	0,658	78,191	3,5	1006	7,3	9,2	9	1	1	1	1	1	1	1	1	1	0	1	-46,159267	274,50716	275,797656	0
14.01.2021	20:25:36	0	0	3,84127	6,303	71,226	0,657	78,187	3,5	1006,08	7,3	9,2	9	1	1	1	1	1	1	1	1	1	0	1	-42,071882	274,57587	280,207506	0
14.01.2021	20:25:37	0	0	5,084034	6,486	86,9796	0,656	78,193	3,5	1006	7,3	9,2	9	1	1	1	1	1	1	1	1	1	0	1	-41,578576	274,683238	281,205197	0
14.01.2021	20:25:38	0	0	3,05042	6,354	90,0036	0,66	78,201	3,5	1006,1	7,3	9,2	9	1	1	1	1	1	1	1	1	1	0	1	-41,649049	274,578929	280,644703	0
14.01.2021	20:25:39	0	0	2,937442	6,12975	93,3408	0,661	78,202	3,5	1005,9	7,3	9,2	9	1	1	1	1	1	1	1	1	1	0	1	-41,36716	274,504112	280,575464	0
14.01.2021	20:25:40	0	0	4,63212	5,844	90,0252	0,657	78,217	3,5	1006,04	7,3	9,2	9	1	1	1	1	1	1	1	1	1	0	1	-46,159267	274,566694	276,077045	0
14.01.2021	20:25:41	0	0	2,937442	5,6775	85,5144	0,653	78,221	3,5	1005,94	7,3	9,2	9	1	1	1	1	1	1	1	1	1	0	1	-44,96124	274,686315	277,836995	0
14.01.2021	20:25:42	0	0	3,389356	5,68875	81,9468	0,658	78,228	3,5	1006,04	7,2	9,2	9	1	1	1	1	1	1	1	1	1	0	1	-44,467935	274,634082	278,084841	0
14.01.2021	20:25:43	0	0	3,954249	5,2815	84,402	0,659	78,238	3,5	1005,92	7,3	9,2	9	1	1	1	1	1	1	1	1	1	0	1	-40,521494	274,695547	282,320141	0
14.01.2021	20:25:44	0	0	2,937442	5,33475	92,7144	0,665	78,235	3,5	1005,84	7,3	9,2	9	1	1	1	1	1	1	1	1	1	0	1	-42,35377	274,594233	280,011843	0
14.01.2021	20:25:45	0	0	4,63212	5,3985	95,8176	0,661	78,224	3,5	1005,92	7,3	9,2	9	1	1	1	1	1	1	1	1	1	0	1	-41,860465	274,694008	280,973934	0
14.01.2021	20:25:46	0	0	4,63212	5,24475	92,232	0,665	78,221	3,5	1005,94	7,3	9,2	9	1	1	1	1	1	1	1	1	1	0	1	-47,850599	274,57587	274,428789	0
14.01.2021	20:25:47	0	0	3,502334	5,202	90,3924	0,666	78,252	3,5	1006	7,2	9,2	9	1	1	1	1	1	1	1	1	1	0	1	-46,370684	274,657108	276,290284	0
14.01.2021	20:25:48	0	0	3,954249	4,8915	90,7848	0,667	78,237	3,5	1005,9	7,3	9,2	9	1	1	1	1	1	1	1	1	1	0	1	-45,736434	274,64943	276,888452	0
14.01.2021	20:25:49	0	0	2,372549	4,45275	80,5068	0,665	78,253	3,5	1006,06	7,3	9,2	9	1	1	1	1	1	1	1	1	1	0	1	-40,521494	274,522408	281,506968	0
14.01.2021	20:25:50	0	0	3,502334	4,20975	82,5948	0,666	78,252	3,5	1006,08	7,3	9,2	9	1	1	1	1	1	1	1	1	1	0	1	-40,873855	274,525459	281,168923	0
14.01.2021	20:25:51	0	0	4,519141	3,9135	96,966	0,662	78,266	3,5	1005,9	7,3	9,2	9	1	1	1	1	1	1	1	1	1	0	1	-44,186047	274,638685	278,388356	0
14.01.2021	20:25:52	0	0	4,971055	3,7875	77,6016	0,665	78,247	3,5	1006,12	7,3	9,2	9	1	1	1	1	1	1	1	1	1	0	1	-44,679352	274,701705	278,19123	0
14.01.2021	20:25:53	0	0	4,745098	4,49775	97,7148	0,667	78,257	3,5	1006	7,3	9,2	9	1	1	1	1	1	1	1	1	1	0	1	-43,058492	274,571281	279,199355	0
14.01.2021	20:25:54	0	0	3,84127	4,39875	93,3264	0,67	78,262	3,5	1005,98	7,3	9,2	9	1	1	1	1	1	1	1	1	1	0	1	-41,226216	274,508685	280,737859	0
14.01.2021	20:25:55	0	0	4,406163	4,179	84,4992	0,671	78,27	3,5	1005,94	7,3	9,2	9	1	1	1	1	1	1	1	1	1	0	1	-39,887245	274,592702	282,471179	0
14.01.2021	20:25:56	0	0	4,067227	3,85125	85,1796	0,668	78,269	3,5	1006,12	7,3	9,2	9	1	1	1	1	1	1	1	1	1	0	1	-42,98802	274,514783	279,004665	0
14.01.2021	20:25:57	0	0	3,954249	4,19025	82,3392	0,667	78,253	3,5	1006	7,3	9,2	9	1	1	1	1	1	1	1	1	1	0	1	-45,031712	274,641754	277,55711	0
14.01.2021	20:25:58	0	0	4,293184	4,56525	83,358	0,669	78,25	3,5	1006,1	7,3	9,2	9	1	1	1	1	1	1	1	1	1	0	1	-42,917548	274,689392	279,895151	0
14.01.2021	20:25:59	0	0	4,067227	4,83	91,5408	0,673	78,209	3,5	1005,88	7,2	9,2	9	1	1	1	1	1	1	1	1	1	0	1	-44,890768	274,687853	277,914698	0
14.01.2021	20:26:00	0	0	2,372549	5,22	88,578	0,667	78,203	3,5	1005,94	7,3	9,2	9	1	1	1	1	1	1	1	1	1	0	1	-46,088795	274,703244	276,789025	0
14.01.2021	20:26:01	0	0	2,372549	5,22	88,578	0,667	78,203	3,5	1005,94	7,3	9,2	9	1	1	1	1	1	1	1	1	1	0	1	-46,088795	274,703244	276,789025	0
14.01.2021	20:26:02	0	0	3,615313	5,5035	96,5808	0,669	78,19	3,5	1006,04	7,3	9,2	9	1	1	1	1	1	1	1	1	1	0	1	-44,608879	274,6694	278,109854	0
14.01.2021	20:26:03	0	0	4,63212	5,2815	93,348	0,67	78,164	3,5	1006,04	7,3	9,2	9	1	1	1	1	1	1	1	1	1	0	1	-42,001409	274,700165	280,861934	0
14.01.2021	20:26:04	0	0	4,180206	5,118	75,9924	0,667	78,148	3,5	1005,98	7,3	9,2	9	1	1	1	1	1	1	1	1	1	0	1	-45,59549	274,684777	277,195514	0
14.01.2021	20:26:05	0	0	3,05042	5,0865	90,7596	0,67	78,135	3,5	1005,94	7,2	9,2	9	1	1	1	1	1	1	1	1	1	0	1	-42,35377	274,559051	279,846665	0
14.01.2021	20:26:06	0	0	2,711485	4,91625	86,6484	0,673	78,115	3,5	1006	7,2	9,2	9	1	1	1	1	1	1	1	1	1	0	1	-44,186047	274,548357	277,964189	0
14.01.2021	20:26:07	0	0	2,824463	4,78425	93,3372	0,675	78,097	3,5	1005,88	7,3	9,2	9	1	1	1	1	1	1	1	1	1	0	1	-43,058492	274,608018	279,371856	0
14.01.2021	20:26:08	0	0	2,937442	5,2125	79,7472	0,679	78,078	3,5	1006	7,3	9,2	9	1	1	1	1	1	1	1	1	1	0	1	-42,847075	274,531562	279,224343	0
14.01.2021	20:26:09	0	0	4,180206	5,403	81,9648	0,679	78,063	3,5	1005,92	7,3	9,2	9	1	1	1	1	1	1	1	1	1	0	1	-45,102185	274,581989	277,205934	0
14.01.2021	20:26:10	0	0	3,389356	5,12475	67,7196	0,67	78,064	3,5	1006	7,3	9,2	9	1	1	1	1	1	1	1	1	1	0	1	-41,789993	274,723271	281,181992	0
14.01.2021	20:26:11	0	0	3,05042	4,78575	72,306	0,682	78,058	3,5	1005,88	7,3	9,2	9	1	1	1	1	1	1	1	1	1	0	1	-43,128964	274,632547	279,416605	0
14.01.2021	20:26:12	0	0	4,293184	4,8315	70,596	0,674	78,058	3,5	1005,96	7,2	9,2	9	1	1	1	1	1	1	1	1	1	0	1	-42,35377	274,546829	279,789296	0
14.01.2021	20:26:13	0	0	3,615313	4,89225	76,4532	0,673	78,046	3,5	1006,1	7,2	9,2	9	1	1	1	1	1	1	1	1	1	0	1	-43,269908	274,603422	279,138855	0
14.01.2021	20:26:14	0	0	3,615313	5,22375	74,1672	0,67	78,048	3,5	1005,88	7,2	9,2	9	1	1	1	1	1	1	1	1	1	0	1	-42,494715	274,554467	279,684202	0
14.01.2021	20:26:15	0	0	4,180206	5,37525	73,7964	0,677	78,047	3,5	1005,94	7,3	9,2	9	1	1	1	1	1	1	1	1	1	0	1	-40,028189	274,585049	282,294299	0
14.01.2021	20:26:16	0	0	4,519141	5,532	76,3812	0,67	78,038	3,5	1005,9	7,3	9,2	9	1	1	1	1	1	1	1	1	1	0	1	-39,957717	274,714025	282,970793	0
14.01.2021	20:26:17	0	0	4,293184	5,8725	78,2748	0,677	78,034	3,5	1005,98	7,2	9,2	9	1	1	1	1	1	1	1	1	1	0	1	-44,820296	274,672475	277,912886	0
14.01.2021	20:26:18	0	0	2,937442	6,14175	80,9064	0,667	78,027	3,5	1005,8	7,3	9,2	9	1	1	1	1	1	1	1	1	1	0	1	-42,283298	274,545302	279,852601	0
14.01.2021	20:26:19	0	0	3,389356	5,78925	87,7392	0,677	78,02	3,5	1005,96	7,4	9,2	9	1	1	1	1	1	1	1	1	1	0	1	-43,622269	274,654036	279,024264	0
14.01.2021	20:26:20	0	0	2,598506	5,4945	67,2768	0,674	78,002	3,5	1005,84	7,2	9,2	9	1	1	1	1	1	1	1	1	1	0	1	-42,142354	274,548357	280,007882	0
14.01.2021	20:26:21	0	0	4,180206	5,6985	68,8572	0,674	77,999	3,5	1005,94	7,3	9,2	9	1	1	1	1	1	1	1	1	1	0	1	-48,343904	274,600359	274,050473	0
14.01.2021	20:26:22	0	0	3,615313	5,97075	72,2844	0,678	77,999	3,5	1005,86	7,3	9,2	9	1	1	1	1	1	1	1	1	1	0	1	-44,115574	274,57434	278,156632	0
14.01.2021	20:26:23	0	0	2,824463	6,153	77,9724	0,676	78,002	3,5	1005,94	7,4	9,2	9	1	1	1	1	1	1	1	1	1	0	1	-41,578576	274,591172	280,772659	0
14.01.2021	20:26:24	0	0	4,519141	5,9505	89,712	0,678	77,989	3,5	1005,98	7,2	9,2	9	1	1	1	1	1	1	1	1	1	0	1	-44,397463	274,546829	277,745604	0
14.01.2021	20:26:25	0	0	4,63212	5,53425	99,5256	0,678	77,975	3,5	1005,88	7,3	9,2	9	1	1	1	1	1	1	1	1	1	0	1	-43,692741	274,674012	279,047666	0
14.01.2021	20:26:26	0	0	4,519141	5,4	92,2752	0,68	77,983	3,5	1006,12	7,3	9,2	9	1	1	1	1	1	1	1	1	1	0	1	-42,142354	274,555995	280,043735	0
14.01.2021	20:26:27	0	0	2,598506	5,2545	86,6592	0,681	77,96	3,5	1005,92	7,2	9,2	9	1	1	1	1	1	1	1	1	1	0	1	-39,041579	274,629479	283,489578	0
14.01.2021	20:26:28	0	0	3,276377	5,02575	96,2244	0,674	77,96	3,5	1005,82	7,2	9,2	9	1	1	1	1	1	1	1	1	1	0	1	-44,326991	274,735605	278,703	0
14.01.2021	20:26:29	0	0	2,485528	4,61175	98,0856	0,677	77,947	3,5	1005,96	7,3	9,2	9	1	1	1	1	1	1	1	1	1	0	1	-40,098661	274,634082	282,454115	0
14.01.2021	20:26:30	0	0	2,711485	4,43775	86,6484	0,676	77,942	3,5	1005,94	7,3	9,2	9	1	1	1	1	1	1	1	1	1	0	1	-43,128964	274,545302	279,006935	0
14.01.2021	20:26:31	0	0	4,067227	4,3575	98,0532	0,676	77,926	3,5	1005,98	7,3	9,2	9	1	1	1	1	1	1	1	1	1	0	1	-43,410853	274,689392	279,401846	0
14.01.2021	20:26:32	0	0	3,84127	4,221	84,1716	0,678	77,918	3,5	1005,84	7,2	9,2	9	1	1	1	1	1	1	1	1	1	0	1	-44,045102	274,723271	278,926882	0
14.01.2021	20:26:33	0	0	3,615313	3,86775	100,3572	0,682	77,916	3,5	1006,06	7,2	9,2	9	1	1	1	1	1	1	1	1	1	0	1	-47,991543	274,57434	274,280663	0
14.01.2021	20:26:34	0	0	3,05042	3,615	103,716	0,68	77,889	3,5	1005,84	7,2	9,2	9	1	1	1	1	1	1	1	1	1	0	1	-44,749824	274,744861	278,323701	0
14.01.2021	20:26:35	0	0	2,598506	3,537	90,7596	0,678	77,899	3,5	1005,8	7,2	9,2	9	1	1	1	1	1	1	1	1	1	0	1	-41,508104	274,585049	280,814384	0
14.01.2021	20:26:36	0	0	2,598506	3,56775	85,1688	0,681	77,89	3,5	1005,9	7,2	9,2	9	1	1	1	1	1	1	1	1	1	0	1	-43,622269	274,726354	279,364213	0
14.01.2021	20:26:37	0	0	2,033614	3,8775	87,3612	0,683	77,876	3,5	1005,94	7,2	9,2	9	1	1	1	1	1	1	1	1	1	0	1	-46,934461	274,686315	275,863774	0
14.01.2021	20:26:38	0	0	4,971055	3,97125	91,1628	0,677	77,876	3,5	1005,9	7,2	9,2	9	1	1	1	1	1	1	1	1	1	0	1	-38,12544	274,548357	284,024795	0
14.01.2021	20:26:39	0	0	2,259557	3,78525	71,982	0,677	77,881	3,5	1005,96	7,2	9,2	9,1	1	1	1	1	1	1	1	1	1	0	1	-43,904158	274,657108	278,75681	0
14.01.2021	20:26:40	0	0	4,858077	3,72075	90,4176	0,678	77,89	3,5	1006,02	7,2	9,2	9	1	1	1	1	1	1	1	1	1	0	1	-43,058492	274,726354	279,92799	0
14.01.2021	20:26:41	0	0	3,276377	3,92475	74,9088	0,683	77,868	3,5	1005,86	7,3	9,2	9	1	1	1	1	1	1	1	1	1	0	1	-43,551797	274,690931	279,268135	0
14.01.2021	20:26:42	0	0	2,824463	3,9165	75,9816	0,676	77,866	3,5	1005,98	7,3	9,2	9	1	1	1	1	1	1	1	1	1	0	1	-43,622269	274,732521	279,393216	0
14.01.2021	20:26:43	0	0	2,824463	4,18575	79,7364	0,684	77,876	3,5	1005,96	7,2	9,2	9	1	1	1	1	1	1	1	1	1	0	1	-42,847075	274,674012	279,893332	0
14.01.2021	20:26:44	0	0	4,519141	4,3965	79,7652	0,683	77,87	3,5	1006,12	7,3	9,2	9	1	1	1	1	1	1	1	1	1	0	1	-42,071882	274,724812	280,907351	0
14.01.2021	20:26:45	0	0	3,728292	4,5315	83,3616	0,68	77,861	3,5	1005,92	7,3	9,2	9	1	1	1	1	1	1	1	1	1	0	1	-41,014799	274,700165	281,848545	0
14.01.2021	20:26:46	0	0	4,067227	4,39425	86,3604	0,689	77,861	3,5	1005,94	7,2	9,2	9	1	1	1	1	1	1	1	1	1	0	1	-47,498238	274,710944	275,415785	0
14.01.2021	20:26:47	0	0	3,728292	4,37025	94,0968	0,678	77,867	3,5	1005,92	7,3	9,2	9	1	1	1	1	1	1	1	1	1	0	1	-43,340381	274,6694	279,378353	0
14.01.2021	20:26:48	0	0	4,180206	4,305	80,9064	0,689	77,866	3,5	1006,12	7,3	9,2	9	1	1	1	1	1	1	1	1	1	0	1	-43,904158	274,548357	278,246077	0
14.01.2021	20:26:49	0	0	3,389356	4,398	78,66	0,682	77,853	3,5	1006	7,2	9,2	9	1	1	1	1	1	1	1	1	1	0	1	-41,649049	274,61568	280,817287	0
14.01.2021	20:26:50	0	0	4,293184	4,629	85,5396	0,684	77,853	3,5	1006	7,2	9,2	9	1	1	1	1	1	1	1	1	1	0	1	-46,652572	274,549884	275,504832	0
14.01.2021	20:26:51	0	0	3,84127	4,53975	86,9868	0,687	77,845	3,5	1005,88	7,2	9,2	9	1	1	1	1	1	1	1	1	1	0	1	-44,045102	274,565165	278,184033	0
14.01.2021	20:26:52	0	0	3,163399	4,47675	86,9796	0,684	77,848	3,5	1005,96	7,3	9,2	9	1	1	1	1	1	1	1	1	1	0	1	-38,75969	274,604954	283,656267	0
14.01.2021	20:26:53	0	0	2,937442	4,52775	81,972	0,688	77,853	3,5	1005,96	7,2	9,2	9	1	1	1	1	1	1	1	1	1	0	1	-45,877378	274,732521	277,138106	0
14.01.2021	20:26:54	0	0	4,745098	4,311	74,9952	0,686	77,838	3,5	1005,9	7,2	9,2	9	1	1	1	1	1	1	1	1	1	0	1	-45,243129	274,635616	277,316855	0
14.01.2021	20:26:55	0	0	3,502334	4,356	83,7144	0,681	77,842	3,5	1006,08	7,2	9,2	9	1	1	1	1	1	1	1	1	1	0	1	-41,226216	274,572811	281,038811	0
14.01.2021	20:26:56	0	0	2,711485	4,42425	80,5212	0,693	77,841	3,5	1005,94	7,3	9,2	9	1	1	1	1	1	1	1	1	1	0	1	-42,635659	274,689392	280,17704	0
14.01.2021	20:26:57	0	0	4,519141	4,545	74,5524	0,689	77,837	3,5	1005,98	7,3	9,2	9	1	1	1	1	1	1	1	1	1	0	1	-43,622269	274,581989	278,685849	0
14.01.2021	20:26:58	0	0	2,937442	4,66725	77,2236	0,688	77,819	3,5	1006,02	7,3	9,2	9	1	1	1	1	1	1	1	1	1	0	1	-40,451022	274,712485	282,470244	0
14.01.2021	20:26:59	0	0	2,824463	4,8465	72,0072	0,687	77,82	3,5	1006,02	7,2	9,2	9	1	1	1	1	1	1	1	1	1	0	1	-45,102185	274,743318	277,964082	0
14.01.2021	20:27:00	0	0	3,728292	4,72575	71,9748	0,687	77,815	3,5	1006,04	7,3	9,2	9	1	1	1	1	1	1	1	1	1	0	1	-44,045102	274,620279	278,442834	0
14.01.2021	20:27:01	0	0	4,63212	4,4895	85,5576	0,691	77,815	3,5	1006,02	7,2	9,2	9	1	1	1	1	1	1	1	1	1	0	1	-44,045102	274,620279	278,442834	0
14.01.2021	20:27:02	0	0	4,63212	4,4895	85,5576	0,691	77,815	3,5	1006,02	7,2	9,2	9	1	1	1	1	1	1	1	1	1	0	1	-42,424242	274,737147	280,613002	0
14.01.2021	20:27:03	0	0	2,485528	4,332	81,2088	0,693	77,808	3,5	1005,94	7,4	9,2	9	1	1	1	1	1	1	1	1	1	0	1	-45,031712	274,714025	277,896797	0
14.01.2021	20:27:04	0	0	4,63212	4,362	81,9792	0,684	77,778	3,5	1006,08	7,3	9,2	9	1	1	1	1	1	1	1	1	1	0	1	-42,847075	274,734063	280,175662	0
14.01.2021	20:27:05	0	0	4,519141	4,56525	82,3608	0,686	77,775	3,5	1006,02	7,2	9,2	9	1	1	1	1	1	1	1	1	1	0	1	-39,957717	274,692469	282,869449	0
14.01.2021	20:27:06	0	0	2,259571	4,71825	83,358	0,688	77,779	3,5	1006	7,2	9,2	9	1	1	1	1	1	1	1	1	1	0	1	-43,833686	274,555995	278,352403	0
14.01.2021	20:27:07	0	0	2,711485	4,56225	80,5356	0,689	77,767	3,5	1006,02	7,3	9,2	9	1	1	1	1	1	1	1	1	1	0	1	-44,679352	274,690931	278,14058	0
14.01.2021	20:27:08	0	0	3,389356	4,17225	75,222	0,684	77,757	3,5	1006,02	7,2	9,2	9	1	1	1	1	1	1	1	1	1	0	1	-42,212826	274,710944	280,701197	0
14.01.2021	20:27:09	0	0	3,163399	4,00125	82,3356	0,684	77,749	3,5	1005,78	7,2	9,2	9	1	1	1	1	1	1	1	1	1	0	1	-44,326991	274,741775	278,73202	0
14.01.2021	20:27:10	0	0	1,694678	3,948	82,35	0,692	77,753	3,5	1006	7,2	9,2	9	1	1	1	1	1	1	1	1	1	0	1	-40,873855	274,617213	281,59968	0
14.01.2021	20:27:11	0	0	4,067227	3,807	85,896	0,691	77,735	3,5	1005,96	7,2	9,2	9	1	1	1	1	1	1	1	1	1	0	1	-38,900634	274,595765	283,472169	0
14.01.2021	20:27:12	0	0	2,372549	3,89175	95,8716	0,689	77,701	3,5	1006,02	7,2	9,2	9	1	1	1	1	1	1	1	1	1	0	1	-44,820296	274,600359	277,574081	0
14.01.2021	20:27:13	0	0	2,711485	4,2525	87,7428	0,692	77,71	3,5	1006,08	7,2	9,2	9	1	1	1	1	1	1	1	1	1	0	1	-43,692741	274,752578	279,417081	0
14.01.2021	20:27:14	0	0	3,615313	4,52025	84,0492	0,685	77,684	3,5	1005,98	7,3	9,2	9	1	1	1	1	1	1	1	1	1	0	1	-42,917548	274,687853	279,887919	0
14.01.2021	20:27:15	0	0	4,971055	4,59225	85,9032	0,687	77,698	3,5	1006	7,2	9,2	9	1	1	1	1	1	1	1	1	1	0	1	-44,679352	274,730979	278,328881	0
14.01.2021	20:27:16	0	0	3,05042	4,37025	89,3232	0,689	77,687	3,5	1006	7,3	9,2	9	1	1	1	1	1	1	1	1	1	0	1	-39,605356	274,678625	283,156732	0
14.01.2021	20:27:17	0	0	3,728292	4,31925	98,7732	0,687	77,671	3,5	1006,06	7,3	9,2	9	1	1	1	1	1	1	1	1	1	0	1	-39,7463	274,566694	282,490012	0
14.01.2021	20:27:18	0	0	4,63212	4,1115	97,6968	0,684	77,668	3,5	1006	7,3	9,2	9	1	1	1	1	1	1	1	1	1	0	1	-43,058492	274,670938	279,667466	0
14.01.2021	20:27:19	0	0	3,841247	3,90975	92,6604	0,69	77,655	3,5	1005,9	7,3	9,2	9,1	1	1	1	1	1	1	1	1	1	0	1	-43,199436	274,56058	279,008173	0
14.01.2021	20:27:20	0	0	3,615313	3,87675	92,268	0,686	77,639	3,5	1005,94	7,2	9,2	9	1	1	1	1	1	1	1	1	1	0	1	-42,142354	274,621812	280,352784	0
14.01.2021	20:27:21	0	0	3,728292	3,96	92,2644	0,687	77,647	3,5	1005,96	7,2	9,2	9	1	1	1	1	1	1	1	1	1	0	1	-46,088795	274,58811	276,248065	0
14.01.2021	20:27:22	0	0	3,389356	3,789	83,0016	0,685	77,632	3,5	1005,88	7,2	9,2	9	1	1	1	1	1	1	1	1	1	0	1	-39,675828	274,670938	283,05013	0
14.01.2021	20:27:23	0	0	4,293184	3,594	77,976	0,689	77,64	3,5	1005,98	7,3	9,2	9	1	1	1	1	1	1	1	1	1	0	1	-39,464412	274,724812	283,514821	0
14.01.2021	20:27:24	0	0	2,711485	3,288	82,9512	0,68	77,637	3,5	1006,12	7,3	9,2	9	1	1	1	1	1	1	1	1	1	0	1	-45,736434	274,677087	277,018426	0
14.01.2021	20:27:25	0	0	3,389356	3,09825	90,0576	0,691	77,649	3,5	1006,16	7,3	9,2	9	1	1	1	1	1	1	1	1	1	0	1	-42,424242	274,572811	279,840784	0
14.01.2021	20:27:26	0	0	3,05042	3,1275	83,358	0,692	77,638	3,5	1005,86	7,2	9,2	9	1	1	1	1	1	1	1	1	1	0	1	-44,467935	274,614147	277,991201	0
14.01.2021	20:27:27	0	0	3,05042	3,1695	87,8292	0,685	77,645	3,5	1006	7,2	9,2	9	1	1	1	1	1	1	1	1	1	0	1	-47,850599	274,546829	274,292468	0
14.01.2021	20:27:28	0	0	4,519141	3,3105	76,8384	0,687	77,645	3,5	1006,04	7,4	9,2	9	1	1	1	1	1	1	1	1	1	0	1	-42,565187	274,66479	280,13188	0
14.01.2021	20:27:29	0	0	3,954249	3,66225	67,284	0,682	77,647	3,5	1005,86	7,4	9,2	9	1	1	1	1	1	1	1	1	1	0	1	-39,534884	274,554467	282,644033	0
14.01.2021	20:27:30	0	0	3,05042	4,38075	77,3136	0,681	77,63	3,5	1006,02	7,2	9,2	9	1	1	1	1	1	1	1	1	1	0	1	-41,719521	274,60955	280,718023	0
14.01.2021	20:27:31	0	0	4,519141	4,782	99,5292	0,691	77,653	3,5	1005,8	7,2	9,2	9	1	1	1	1	1	1	1	1	1	0	1	-41,155743	274,566694	281,080569	0
14.01.2021	20:27:32	0	0	2,937442	4,58025	89,3196	0,69	77,657	3,5	1006,02	7,2	9,2	9	1	1	1	1	1	1	1	1	1	0	1	-42,98802	274,591172	279,363216	0
14.01.2021	20:27:33	0	0	4,293184	4,161	82,6272	0,687	77,648	3,5	1005,98	7,2	9,2	9	1	1	1	1	1	1	1	1	1	0	1	-43,269908	274,606486	279,153244	0
14.01.2021	20:27:34	0	0	3,05042	3,52725	96,2064	0,684	77,649	3,5	1006,1	7,3	9,2	9	1	1	1	1	1	1	1	1	1	0	1	-42,98802	274,746404	280,092763	0
14.01.2021	20:27:35	0	0	2,485528	3,18675	93,3048	0,687	77,641	3,5	1006,02	7,2	9,2	9	1	1	1	1	1	1	1	1	1	0	1	-40,662438	274,727895	282,331293	0
14.01.2021	20:27:36	0	0	4,293184	3,11775	98,4636	0,686	77,657	3,5	1005,86	7,3	9,2	9	1	1	1	1	1	1	1	1	1	0	1	-37,420719	274,620279	285,067217	0
14.01.2021	20:27:37	0	0	3,502334	3,36975	77,9544	0,693	77,652	3,5	1006	7,3	9,2	9	1	1	1	1	1	1	1	1	1	0	1	-43,763214	274,734063	279,259524	0
14.01.2021	20:27:38	0	0	3,615313	3,93675	86,3784	0,689	77,629	3,5	1005,96	7,2	9,2	9	1	1	1	1	1	1	1	1	1	0	1	-41,860465	274,654036	280,786068	0
14.01.2021	20:27:39	0	0	2,711485	4,10175	83,3508	0,688	77,645	3,5	1006,14	7,2	9,2	9	1	1	1	1	1	1	1	1	1	0	1	-41,930937	274,732521	281,084548	0
14.01.2021	20:27:40	0	0	3,728292	4,11075	74,538	0,683	77,627	3,5	1005,96	7,2	9,2	9	1	1	1	1	1	1	1	1	1	0	1	-44,256519	274,608018	278,173829	0
14.01.2021	20:27:41	0	0	3,615313	4,71225	72,2844	0,69	77,639	3,5	1006,02	7,3	9,2	9	1	1	1	1	1	1	1	1	1	0	1	-46,441156	274,734063	276,581582	0
14.01.2021	20:27:42	0	0	2,937442	4,917	76,05	0,686	77,626	3,5	1006	7,2	9,2	9	1	1	1	1	1	1	1	1	1	0	1	-39,534884	274,658644	283,133302	0
14.01.2021	20:27:43	0	0	3,728292	4,8615	80,1828	0,686	77,622	3,5	1006,02	7,3	9,2	9	1	1	1	1	1	1	1	1	1	0	1	-40,310078	274,557523	281,883184	0
14.01.2021	20:27:44	0	0	3,615313	5,1135	94,788	0,687	77,626	3,5	1005,92	7,2	9,2	9	1	1	1	1	1	1	1	1	1	0	1	-44,749824	274,621812	277,745314	0
14.01.2021	20:27:45	0	0	2,598506	4,9125	67,68	0,687	77,611	3,5	1005,82	7,3	9,2	9	1	1	1	1	1	1	1	1	1	0	1	-41,649049	274,747947	281,438993	0
14.01.2021	20:27:46	0	0	4,293184	4,605	90,8532	0,685	77,605	3,5	1006,02	7,2	9,2	9	1	1	1	1	1	1	1	1	1	0	1	-42,706131	274,626412	279,810616	0
14.01.2021	20:27:47	0	0	4,180206	4,81725	90,0324	0,684	77,609	3,5	1006,02	7,3	9,2	9	1	1	1	1	1	1	1	1	1	0	1	-47,780127	274,548357	274,370108	0
14.01.2021	20:27:48	0	0	3,05042	5,43	86,274	0,687	77,605	3,5	1006	7,2	9,2	9	1	1	1	1	1	1	1	1	1	0	1	-45,736434	274,712485	277,184832	0
14.01.2021	20:27:49	0	0	5,084034	5,799	85,9176	0,683	77,608	3,5	1006,04	7,3	9,2	9	1	1	1	1	1	1	1	1	1	0	1	-40,662438	274,701705	282,208143	0
14.01.2021	20:27:50	0	0	3,05042	5,67225	87,7572	0,689	77,63	3,5	1006,04	7,2	9,2	9	1	1	1	1	1	1	1	1	1	0	1	-42,917548	274,680162	279,851768	0
14.01.2021	20:27:51	0	0	3,502334	5,733	90,7956	0,686	77,619	3,5	1006	7,2	9,2	9	1	1	1	1	1	1	1	1	1	0	1	-42,565187	274,730979	280,443046	0
14.01.2021	20:27:52	0	0	2,824463	5,77875	95,8428	0,681	77,632	3,5	1005,86	7,3	9,2	9	1	1	1	1	1	1	1	1	1	0	1	-45,172657	274,660181	277,502748	0
14.01.2021	20:27:53	0	0	2,372549	5,31675	80,4996	0,684	77,643	3,5	1006	7,2	9,2	9	1	1	1	1	1	1	1	1	1	0	1	-41,719521	274,754121	281,397563	0
14.01.2021	20:27:54	0	0	3,389336	4,83375	88,5816	0,687	77,664	3,5	1006,04	7,4	9,2	9,1	1	1	1	1	1	1	1	1	1	0	1	-44,397463	274,663253	278,292382	0
14.01.2021	20:27:55	0	0	2,598491	4,80825	85,5324	0,69	77,679	3,5	1005,98	7,2	9,2	9,1	1	1	1	1	1	1	1	1	1	0	1	-41,36716	274,555995	280,818929	0
14.01.2021	20:27:56	0	0	4,293184	4,70325	96,6024	0,685	77,687	3,5	1005,94	7,3	9,2	9	1	1	1	1	1	1	1	1	1	0	1	-43,269908	274,680162	279,499407	0
14.01.2021	20:27:57	0	0	3,84127	4,5225	87,7248	0,685	77,7	3,5	1005,96	7,2	9,2	9	1	1	1	1	1	1	1	1	1	0	1	-41,649049	274,580459	280,651886	0
14.01.2021	20:27:58	0	0	2,824463	4,584	78,6672	0,682	77,726	3,5	1005,98	7,2	9,2	9	1	1	1	1	1	1	1	1	1	0	1	-44,96124	274,58658	277,368434	0
14.01.2021	20:27:59	0	0	5,084034	4,83	80,136	0,684	77,742	3,5	1005,9	7,3	9,2	9	1	1	1	1	1	1	1	1	1	0	1	-49,260042	274,690931	273,559889	0
14.01.2021	20:28:00	0	0	3,615313	4,962	85,1508	0,682	77,764	3,5	1005,98	7,3	9,2	9	1	1	1	1	1	1	1	1	1	0	1	-46,441156	274,580459	275,859779	0
14.01.2021	20:28:01	0	0	3,615313	4,962	85,1508	0,682	77,764	3,5	1005,98	7,3	9,2	9	1	1	1	1	1	1	1	1	1	0	1	-46,441156	274,580459	275,859779	0
14.01.2021	20:28:02	0	0	3,502334	4,84575	91,8936	0,679	77,776	3,5	1005,92	7,3	9,2	9	1	1	1	1	1	1	1	1	1	0	1	-42,706131	274,612615	279,745807	0
14.01.2021	20:28:03	0	0	2,598506	4,70775	90,0144	0,684	77,792	3,5	1006,02	7,2	9,2	9	1	1	1	1	1	1	1	1	1	0	1	-43,199436	274,737147	279,837808	0
14.01.2021	20:28:04	0	0	4,406163	4,4445	93,3444	0,684	77,762	3,5	1006,06	7,3	9,2	9	1	1	1	1	1	1	1	1	1	0	1	-44,115574	274,644824	278,487672	0
14.01.2021	20:28:05	0	0	3,728269	4,254	91,1736	0,68	77,76	3,5	1005,88	7,3	9,2	9,1	1	1	1	1	1	1	1	1	1	0	1	-45,313601	274,720188	277,643889	0
14.01.2021	20:28:06	0	0	2,824463	4,359	85,9248	0,681	77,768	3,5	1006	7,3	9,2	9	1	1	1	1	1	1	1	1	1	0	1	-41,930937	274,608018	280,49941	0
14.01.2021	20:28:07	0	0	3,728292	4,425	90,5004	0,678	77,762	3,5	1005,92	7,2	9,2	9	1	1	1	1	1	1	1	1	1	0	1	-42,565187	274,568223	279,678303	0
14.01.2021	20:28:08	0	0	2,711485	4,302	82,3356	0,681	77,747	3,5	1006,02	7,2	9,2	9	1	1	1	1	1	1	1	1	1	0	1	-47,56871	274,629479	274,962446	0
14.01.2021	20:28:09	0	0	4,293184	4,323	80,9028	0,681	77,754	3,5	1005,94	7,3	9,2	9	1	1	1	1	1	1	1	1	1	0	1	-41,719521	274,752578	281,390301	0
14.01.2021	20:28:10	0	0	4,745098	4,323	83,3436	0,68	77,759	3,5	1005,82	7,2	9,2	9	1	1	1	1	1	1	1	1	1	0	1	-38,477801	274,618746	284,002934	0
14.01.2021	20:28:11	0	0	3,954249	4,19775	87,3396	0,679	77,748	3,5	1005,9	7,3	9,2	9	1	1	1	1	1	1	1	1	1	0	1	-44,397463	274,680162	278,371853	0
14.01.2021	20:28:12	0	0	4,745098	4,023	68,7744	0,687	77,758	3,5	1005,84	7,2	9,2	9	1	1	1	1	1	1	1	1	1	0	1	-43,481325	274,555995	278,704764	0
14.01.2021	20:28:13	0	0	4,745098	3,86025	71,6076	0,682	77,759	3,5	1005,96	7,2	9,2	9	1	1	1	1	1	1	1	1	1	0	1	-44,890768	274,687853	277,914698	0
14.01.2021	20:28:14	0	0	4,406163	3,7665	86,3712	0,689	77,78	3,5	1006,06	7,3	9,2	9	1	1	1	1	1	1	1	1	1	0	1	-43,622269	274,565165	278,606866	0
14.01.2021	20:28:15	0	0	4,63212	3,66675	76,3524	0,688	77,779	3,5	1006,12	7,2	9,2	9	1	1	1	1	1	1	1	1	1	0	1	-42,706131	274,624879	279,803412	0
14.01.2021	20:28:16	0	0	2,824463	3,5625	89,7336	0,686	77,775	3,5	1006,14	7,2	9,2	9	1	1	1	1	1	1	1	1	1	0	1	-46,229739	274,744861	276,843785	0
14.01.2021	20:28:17	0	0	3,05042	3,75375	83,3112	0,688	77,756	3,5	1005,86	7,3	9,2	9	1	1	1	1	1	1	1	1	1	0	1	-43,481325	274,678625	279,280763	0
14.01.2021	20:28:18	0	0	4,293184	3,77325	77,2128	0,689	77,775	3,5	1006,06	7,3	9,2	9	1	1	1	1	1	1	1	1	1	0	1	-45,102185	274,744861	277,97134	0
14.01.2021	20:28:19	0	0	3,728292	3,86775	81,198	0,683	77,747	3,5	1005,96	7,3	9,2	9	1	1	1	1	1	1	1	1	1	0	1	-46,229739	274,743318	276,836528	0
14.01.2021	20:28:20	0	0	5,197012	3,9615	86,9544	0,69	77,756	3,5	1005,98	7,2	9,2	9	1	1	1	1	1	1	1	1	1	0	1	-44,608879	274,60955	277,828664	0
14.01.2021	20:28:21	0	0	2,937442	4,05	96,57	0,686	77,737	3,5	1005,86	7,2	9,2	9	1	1	1	1	1	1	1	1	1	0	1	-43,692741	274,58658	278,636932	0
14.01.2021	20:28:22	0	0	2,711485	3,924	80,5392	0,695	77,739	3,5	1006,34	7,2	9,2	9	1	1	1	1	1	1	1	1	1	0	1	-42,424242	274,712485	280,497024	0
14.01.2021	20:28:23	0	0	2,937442	3,98925	81,5616	0,691	77,717	3,5	1005,86	7,3	9,2	9	1	1	1	1	1	1	1	1	1	0	1	-42,706131	274,614147	279,753005	0
14.01.2021	20:28:24	0	0	3,615313	4,242	81,5868	0,691	77,714	3,5	1006	7,3	9,2	9	1	1	1	1	1	1	1	1	1	0	1	-42,98802	274,577399	279,29855	0
14.01.2021	20:28:25	0	0	3,276377	4,335	81,5832	0,685	77,695	3,5	1005,9	7,3	9,2	9	1	1	1	1	1	1	1	1	1	0	1	-44,96124	274,577399	277,325329	0
14.01.2021	20:28:26	0	0	4,745098	4,335	85,2012	0,687	77,668	3,5	1005,92	7,3	9,2	9	1	1	1	1	1	1	1	1	1	0	1	-43,904158	274,730979	279,104075	0
14.01.2021	20:28:27	0	0	4,858077	4,0635	82,5984	0,684	77,67	3,5	1005,92	7,2	9,2	9	1	1	1	1	1	1	1	1	1	0	1	-46,863989	274,689392	275,94871	0
14.01.2021	20:28:28	0	0	2,485528	3,84975	76,3668	0,692	77,659	3,5	1006,02	7,2	9,2	9	1	1	1	1	1	1	1	1	1	0	1	-42,001409	274,58658	280,328264	0
14.01.2021	20:28:29	0	0	3,728292	3,83775	85,1724	0,691	77,649	3,5	1006,08	7,2	9,2	9	1	1	1	1	1	1	1	1	1	0	1	-44,679352	274,763386	278,481317	0
14.01.2021	20:28:30	0	0	4,858077	3,837	97,6968	0,691	77,63	3,5	1006,06	7,3	9,2	9	1	1	1	1	1	1	1	1	1	0	1	-45,031712	274,626412	277,485035	0
14.01.2021	20:28:31	0	0	2,824463	3,621	95,1516	0,685	77,63	3,5	1005,96	7,2	9,2	9	1	1	1	1	1	1	1	1	1	0	1	-43,269908	274,754121	279,847175	0
14.01.2021	20:28:32	0	0	4,971055	3,53325	85,1976	0,686	77,624	3,5	1006,08	7,4	9,2	9	1	1	1	1	1	1	1	1	1	0	1	-44,679352	274,632547	277,866217	0
14.01.2021	20:28:33	0	0	4,406163	3,561	80,1396	0,692	77,621	3,5	1006,22	7,2	9,2	9	1	1	1	1	1	1	1	1	1	0	1	-43,692741	274,568223	278,550748	0
14.01.2021	20:28:34	0	0	4,067203	3,648	72,3024	0,688	77,611	3,5	1006,02	7,3	9,2	9,1	1	1	1	1	1	1	1	1	1	0	1	-45,947851	274,640219	276,633761	0
14.01.2021	20:28:35	0	0	4,519141	3,79725	79,3908	0,691	77,602	3,5	1005,98	7,3	9,2	9	1	1	1	1	1	1	1	1	1	0	1	-44,820296	274,551412	277,344279	0
14.01.2021	20:28:36	0	0	2,598506	3,82125	74,1708	0,688	77,589	3,5	1006,14	7,2	9,2	9	1	1	1	1	1	1	1	1	1	0	1	-43,904158	274,64943	278,720729	0
14.01.2021	20:28:37	0	0	4,406163	3,75675	73,8288	0,692	77,585	3,5	1005,98	7,2	9,2	9	1	1	1	1	1	1	1	1	1	0	1	-45,877378	274,727895	277,116353	0
14.01.2021	20:28:38	0	0	4,745098	3,4935	82,3428	0,684	77,571	3,5	1005,92	7,2	9,2	9	1	1	1	1	1	1	1	1	1	0	1	-46,441156	274,690931	276,378776	0
14.01.2021	20:28:39	0	0	2,824463	3,423	78,2928	0,685	77,568	3,5	1005,96	7,4	9,2	9	1	1	1	1	1	1	1	1	1	0	1	-45,877378	274,569752	276,373289	0
14.01.2021	20:28:40	0	0	2,824463	3,51	68,7708	0,688	77,56	3,5	1005,82	7,3	9,2	9	1	1	1	1	1	1	1	1	1	0	1	-40,169133	274,672475	282,564049	0
14.01.2021	20:28:41	0	0	2,485528	3,70425	87,3612	0,688	77,554	3,5	1006,04	7,3	9,2	9	1	1	1	1	1	1	1	1	1	0	1	-43,481325	274,724812	279,497908	0
14.01.2021	20:28:42	0	0	3,163399	3,6975	77,9796	0,693	77,547	3,5	1006	7,2	9,2	9	1	1	1	1	1	1	1	1	1	0	1	-43,692741	274,568223	278,550748	0
14.01.2021	20:28:43	0	0	4,745098	3,6615	86,2884	0,686	77,535	3,5	1006,1	7,2	9,2	9	1	1	1	1	1	1	1	1	1	0	1	-42,283298	274,718647	280,666946	0
14.01.2021	20:28:44	0	0	4,293184	3,903	86,0184	0,686	77,513	3,5	1005,94	7,2	9,2	9	1	1	1	1	1	1	1	1	1	0	1	-45,454545	274,589641	276,889502	0
14.01.2021	20:28:45	0	0	3,728269	4,14	90,4176	0,69	77,538	3,5	1005,94	7,2	9,2	9,1	1	1	1	1	1	1	1	1	1	0	1	-41,930937	274,737147	281,106307	0
14.01.2021	20:28:46	0	0	4,63212	4,53975	80,892	0,686	77,526	3,5	1006,14	7,2	9,2	9	1	1	1	1	1	1	1	1	1	0	1	-40,169133	274,709404	282,737648	0
14.01.2021	20:28:47	0	0	4,519141	4,54275	85,1868	0,687	77,522	3,5	1006,04	7,2	9,2	9	1	1	1	1	1	1	1	1	1	0	1	-43,128964	274,566694	279,107348	0
14.01.2021	20:28:48	0	0	4,971055	3,94275	91,1556	0,686	77,53	3,5	1006,06	7,2	9,2	9	1	1	1	1	1	1	1	1	1	0	1	-42,847075	274,690931	279,972856	0
14.01.2021	20:28:49	0	0	3,276377	3,55425	94,4028	0,689	77,525	3,5	1006,12	7,2	9,2	9	1	1	1	1	1	1	1	1	1	0	1	-45,454545	274,562108	276,760238	0
14.01.2021	20:28:50	0	0	3,502334	3,61275	91,9044	0,684	77,513	3,5	1006,02	7,2	9,2	9	1	1	1	1	1	1	1	1	1	0	1	-44,820296	274,697086	278,028574	0
14.01.2021	20:28:51	0	0	3,389356	3,84	68,7564	0,688	77,528	3,5	1006,12	7,2	9,2	9	1	1	1	1	1	1	1	1	1	0	1	-45,102185	274,552939	277,069561	0
14.01.2021	20:28:52	0	0	4,519141	3,7065	76,3488	0,68	77,523	3,5	1006,02	7,2	9,2	9	1	1	1	1	1	1	1	1	1	0	1	-41,930937	274,608018	280,49941	0
14.01.2021	20:28:53	0	0	3,84127	3,702	74,538	0,686	77,504	3,5	1005,9	7,2	9,2	9	1	1	1	1	1	1	1	1	1	0	1	-43,481325	274,732521	279,53416	0
14.01.2021	20:28:54	0	0	2,485528	3,798	73,7676	0,684	77,511	3,5	1005,8	7,2	9,2	9	1	1	1	1	1	1	1	1	1	0	1	-40,873855	274,598827	281,51333	0
14.01.2021	20:28:55	0	0	4,519141	4,11075	83,7468	0,681	77,518	3,5	1006	7,2	9,2	9	1	1	1	1	1	1	1	1	1	0	1	-44,679352	274,557523	277,51391	0
14.01.2021	20:28:56	0	0	2,711485	4,0575	79,7724	0,686	77,523	3,5	1005,98	7,3	9,2	9	1	1	1	1	1	1	1	1	1	0	1	-46,5821	274,717106	276,360898	0
14.01.2021	20:28:57	0	0	2,598506	3,94875	78,2676	0,679	77,507	3,5	1005,96	7,2	9,2	9	1	1	1	1	1	1	1	1	1	0	1	-43,128964	274,578929	279,164788	0
14.01.2021	20:28:58	0	0	2,711485	4,002	79,398	0,684	77,506	3,5	1006,06	7,3	9,2	9	1	1	1	1	1	1	1	1	1	0	1	-44,115574	274,563637	278,106385	0
14.01.2021	20:28:59	0	0	3,954249	3,834	69,1632	0,676	77,492	3,5	1006	7,3	9,2	9	1	1	1	1	1	1	1	1	1	0	1	-43,692741	274,580459	278,608193	0
14.01.2021	20:29:00	0	0	4,858077	3,588	67,284	0,681	77,517	3,5	1005,98	7,2	9,2	9	1	1	1	1	1	1	1	1	1	0	1	-39,675828	274,612615	282,77611	0
14.01.2021	20:29:01	0	0	4,858077	3,588	67,284	0,681	77,517	3,5	1005,98	7,2	9,2	9	1	1	1	1	1	1	1	1	1	0	1	-44,608879	274,707864	278,29066	0
14.01.2021	20:29:02	0	0	4,745098	3,837	75,2184	0,679	77,517	3,5	1006	7,2	9,2	9	1	1	1	1	1	1	1	1	1	0	1	-45,665962	274,723271	277,306023	0
14.01.2021	20:29:03	0	0	4,74507	3,80325	59,8716	0,682	77,52	3,5	1006,06	7,3	9,2	9,1	1	1	1	1	1	1	1	1	1	0	1	-42,494715	274,591172	279,856521	0
14.01.2021	20:29:04	0	0	3,389356	3,5565	77,9688	0,703	77,529	3,5	1006,04	7,4	9,2	9	1	1	1	1	1	1	1	1	1	0	1	-40,662438	274,578929	281,631313	0
14.01.2021	20:29:05	0	0	4,971055	3,423	65,8872	0,682	77,53	3,5	1006,02	7,3	9,2	9	1	1	1	1	1	1	1	1	1	0	1	-43,410853	274,60189	278,990717	0
14.01.2021	20:29:06	0	0	3,389356	3,69525	65,9376	0,684	77,538	3,5	1005,9	7,2	9,2	9	1	1	1	1	1	1	1	1	1	0	1	-42,494715	274,568223	279,748775	0
14.01.2021	20:29:07	0	0	3,050402	3,87075	57,024	0,675	77,52	3,5	1006,1	7,3	9,2	9,1	1	1	1	1	1	1	1	1	1	0	1	-42,142354	274,577399	280,144216	0
14.01.2021	20:29:08	0	0	4,519141	3,933	60,9408	0,679	77,526	3,5	1006,04	7,2	9,2	9	1	1	1	1	1	1	1	1	1	0	1	-43,763214	274,732521	279,252271	0
14.01.2021	20:29:09	0	0	4,858048	3,759	69,1596	0,674	77,523	3,5	1005,96	7,3	9,2	9,1	1	1	1	1	1	1	1	1	1	0	1	-42,917548	274,707864	279,981992	0
14.01.2021	20:29:10	0	0	3,502313	3,6375	60,948	0,677	77,526	3,5	1006,06	7,3	9,2	9,1	1	1	1	1	1	1	1	1	1	0	1	-40,310078	274,600359	282,0843	0
14.01.2021	20:29:11	0	0	2,711485	3,60825	62,7948	0,678	77,527	3,5	1005,94	7,3	9,2	9	1	1	1	1	1	1	1	1	1	0	1	-42,635659	274,542248	279,485906	0
14.01.2021	20:29:12	0	0	2,598491	3,4575	63,4788	0,676	77,532	3,5	1005,82	7,2	9,2	9,1	1	1	1	1	1	1	1	1	1	0	1	-42,494715	274,620279	279,993222	0
14.01.2021	20:29:13	0	0	4,63212	3,3375	61,344	0,677	77,534	3,5	1006,08	7,2	9,2	9	1	1	1	1	1	1	1	1	1	0	1	-43,97463	274,543775	278,154101	0
14.01.2021	20:29:14	0	0	4,858077	3,1725	74,9196	0,674	77,537	3,5	1005,94	7,3	9,2	9	1	1	1	1	1	1	1	1	1	0	1	-45,806906	274,608018	276,623441	0
14.01.2021	20:29:15	0	0	4,971055	3,0585	75,9852	0,675	77,534	3,5	1006,06	7,3	9,2	9	1	1	1	1	1	1	1	1	1	0	1	-46,159267	274,712485	276,761999	0
14.01.2021	20:29:16	0	0	4,519141	3,06375	80,154	0,671	77,525	3,5	1005,94	7,3	9,2	9	1	1	1	1	1	1	1	1	1	0	1	-45,172657	274,663253	277,517188	0
14.01.2021	20:29:17	0	0	4,519141	3,06525	81,9648	0,666	77,531	3,5	1005,96	7,3	9,2	9	1	1	1	1	1	1	1	1	1	0	1	-42,35377	274,536141	279,739135	0
14.01.2021	20:29:18	0	0	3,84127	3,06675	76,3704	0,677	77,542	3,5	1005,9	7,3	9,2	9	1	1	1	1	1	1	1	1	1	0	1	-44,256519	274,580459	278,044416	0
14.01.2021	20:29:19	0	0	3,05042	3,11025	72,6948	0,677	77,552	3,5	1006,02	7,2	9,2	9	1	1	1	1	1	1	1	1	1	0	1	-41,719521	274,540721	280,394878	0
14.01.2021	20:29:20	0	0	2,598506	3,07725	82,3572	0,674	77,532	3,5	1005,94	7,3	9,2	9	1	1	1	1	1	1	1	1	1	0	1	-46,934461	274,591172	275,416775	0
14.01.2021	20:29:21	0	0	2,711485	3,0165	80,1324	0,671	77,529	3,5	1005,94	7,3	9,2	9	1	1	1	1	1	1	1	1	1	0	1	-41,508104	274,540721	280,606295	0
14.01.2021	20:29:22	0	0	3,163399	2,98875	68,0184	0,672	77,565	3,5	1005,96	7,3	9,2	9	1	1	1	1	1	1	1	1	1	0	1	-42,847075	274,611082	279,597665	0
14.01.2021	20:29:23	0	0	2,937442	3,31575	67,6872	0,674	77,574	3,5	1005,9	7,3	9,2	9	1	1	1	1	1	1	1	1	1	0	1	-43,692741	274,540721	278,421658	0
14.01.2021	20:29:24	0	0	2,711485	3,4455	85,1904	0,67	77,573	3,5	1006,04	7,3	9,2	9	1	1	1	1	1	1	1	1	1	0	1	-41,36716	274,715566	281,568594	0
14.01.2021	20:29:25	0	0	4,067227	3,48825	72,2772	0,668	77,576	3,5	1006,1	7,3	9,2	9	1	1	1	1	1	1	1	1	1	0	1	-45,736434	274,608018	276,693913	0
14.01.2021	20:29:26	0	0	4,293184	3,639	95,8032	0,671	77,582	3,5	1005,98	7,3	9,2	9	1	1	1	1	1	1	1	1	1	0	1	-43,410853	274,720188	279,546637	0
14.01.2021	20:29:27	0	0	2,824463	3,402	73,836	0,67	77,595	3,5	1006	7,3	9,2	9	1	1	1	1	1	1	1	1	1	0	1	-42,142354	274,552939	280,029391	0
14.01.2021	20:29:28	0	0	3,954249	2,991	83,34	0,668	77,59	3,5	1006	7,3	9,2	9	1	1	1	1	1	1	1	1	1	0	1	-41,789993	274,678625	280,972095	0
14.01.2021	20:29:29	0	0	4,63212	2,52375	88,9416	0,666	77,568	3,5	1006,04	7,3	9,2	9	1	1	1	1	1	1	1	1	1	0	1	-43,551797	274,700165	279,311547	0
14.01.2021	20:29:30	0	0	3,163399	2,63325	92,6388	0,673	77,588	3,5	1005,92	7,3	9,2	9	1	1	1	1	1	1	1	1	1	0	1	-42,706131	274,6694	280,012603	0
14.01.2021	20:29:31	0	0	3,954249	2,811	93,33	0,668	77,587	3,5	1006,2	7,3	9,2	9	1	1	1	1	1	1	1	1	1	0	1	-48,484848	274,709404	274,421933	0
14.01.2021	20:29:32	0	0	3,163399	2,964	93,3336	0,666	77,595	3,5	1005,98	7,2	9,2	9	1	1	1	1	1	1	1	1	1	0	1	-43,97463	274,57587	278,304758	0
14.01.2021	20:29:33	0	0	4,406163	2,9415	59,094	0,666	77,618	3,5	1006,04	7,3	9,2	9	1	1	1	1	1	1	1	1	1	0	1	-42,847075	274,717106	280,095923	0
14.01.2021	20:29:34	0	0	5,084034	2,9415	77,1912	0,668	77,618	3,5	1006,02	7,3	9,2	9	1	1	1	1	1	1	1	1	1	0	1	-41,860465	274,677087	280,894395	0
14.01.2021	20:29:35	0	0	4,067227	2,9205	91,8756	0,668	77,632	3,5	1005,92	7,3	9,2	9	1	1	1	1	1	1	1	1	1	0	1	-44,890768	274,652501	277,748549	0
14.01.2021	20:29:36	0	0	3,84127	2,80425	77,5728	0,661	77,628	3,5	1005,92	7,3	9,2	9	1	1	1	1	1	1	1	1	1	0	1	-43,481325	274,694008	279,353075	0
14.01.2021	20:29:37	0	0	2,824463	2,721	92,2608	0,665	77,617	3,5	1005,86	7,2	9,2	9	1	1	1	1	1	1	1	1	1	0	1	-40,591966	274,709404	282,314815	0
14.01.2021	20:29:38	0	0	2,937442	2,73825	86,2884	0,667	77,63	3,5	1006,08	7,3	9,2	9	1	1	1	1	1	1	1	1	1	0	1	-38,407329	274,554467	283,771587	0
14.01.2021	20:29:39	0	0	2,824463	2,5965	77,5908	0,661	77,606	3,5	1006	7,3	9,2	9	1	1	1	1	1	1	1	1	1	0	1	-42,071882	274,58658	280,257792	0
14.01.2021	20:29:40	0	0	2,485528	2,715	85,9392	0,661	77,62	3,5	1005,96	7,3	9,2	9	1	1	1	1	1	1	1	1	1	0	1	-46,159267	274,704784	276,725792	0
14.01.2021	20:29:41	0	0	4,406163	2,7705	91,8864	0,665	77,633	3,5	1006	7,3	9,2	9	1	1	1	1	1	1	1	1	1	0	1	-44,256519	274,650965	278,375583	0
14.01.2021	20:29:42	0	0	3,84127	2,76825	74,5344	0,667	77,625	3,5	1006,02	7,3	9,2	9	1	1	1	1	1	1	1	1	1	0	1	-46,863989	274,57587	275,415399	0
14.01.2021	20:29:43	0	0	2,711485	2,7585	70,2072	0,657	77,622	3,5	1005,96	7,3	9,2	9	1	1	1	1	1	1	1	1	1	0	1	-45,454545	274,661717	277,228079	0
14.01.2021	20:29:44	0	0	5,197012	2,8575	95,832	0,665	77,606	3,5	1006,08	7,3	9,2	9	1	1	1	1	1	1	1	1	1	0	1	-42,98802	274,540721	279,126379	0
14.01.2021	20:29:45	0	0	4,971055	3,00375	99,5328	0,661	77,624	3,5	1005,94	7,3	9,2	9	1	1	1	1	1	1	1	1	1	0	1	-45,665962	274,644824	276,937284	0
14.01.2021	20:29:46	0	0	2,711485	3,07425	98,1756	0,663	77,619	3,5	1006,06	7,3	9,2	9	1	1	1	1	1	1	1	1	1	0	1	-43,269908	274,516308	278,72993	0
14.01.2021	20:29:47	0	0	4,406136	3,066	87,372	0,661	77,621	3,5	1005,88	7,3	9,2	9,1	1	1	1	1	1	1	1	1	1	0	1	-45,806906	274,583519	276,508397	0
14.01.2021	20:29:48	0	0	3,163399	2,9325	98,4852	0,66	77,607	3,5	1005,76	7,3	9,2	9	1	1	1	1	1	1	1	1	1	0	1	-49,964764	274,694008	272,869636	0
14.01.2021	20:29:49	0	0	2,824446	3,14325	99,5544	0,652	77,624	3,5	1006	7,3	9,2	9,1	1	1	1	1	1	1	1	1	1	0	1	-40,028189	274,591172	282,323047	0
14.01.2021	20:29:50	0	0	5,084034	3,2085	92,1996	0,661	77,615	3,5	1005,98	7,3	9,2	9	1	1	1	1	1	1	1	1	1	0	1	-45,525018	274,710944	277,389006	0
14.01.2021	20:29:51	0	0	3,05042	3,25125	86,2848	0,653	77,625	3,5	1005,94	7,3	9,2	9	1	1	1	1	1	1	1	1	1	0	1	-42,98802	274,578929	279,305732	0
14.01.2021	20:29:52	0	0	3,615291	3,17475	101,5128	0,66	77,616	3,5	1005,86	7,3	9,2	9,1	1	1	1	1	1	1	1	1	1	0	1	-43,551797	274,695547	279,289838	0
14.01.2021	20:29:53	0	0	3,05042	3,02925	84,06	0,656	77,611	3,5	1006,06	7,2	9,2	9	1	1	1	1	1	1	1	1	1	0	1	-41,508104	274,592702	280,85032	0
14.01.2021	20:29:54	0	0	4,632092	2,985	79,0524	0,658	77,63	3,5	1006,18	7,2	9,2	9,1	1	1	1	1	1	1	1	1	1	0	1	-46,934461	274,66479	275,762605	0
14.01.2021	20:29:55	0	0	4,971055	2,75025	86,9724	0,652	77,619	3,5	1006,1	7,3	9,2	9	1	1	1	1	1	1	1	1	1	0	1	-49,119098	274,670938	273,60686	0
14.01.2021	20:29:56	0	0	4,180206	2,5095	87,3828	0,655	77,62	3,5	1006,06	7,3	9,2	9	1	1	1	1	1	1	1	1	1	0	1	-49,260042	274,559051	272,940392	0
14.01.2021	20:29:57	0	0	3,276377	2,48025	81,2088	0,653	77,645	3,5	1005,98	7,3	9,2	9	1	1	1	1	1	1	1	1	1	0	1	-42,565187	274,543775	279,563545	0
14.01.2021	20:29:58	0	0	3,615313	2,4465	97,704	0,655	77,64	3,5	1006,24	7,3	9,2	9	1	1	1	1	1	1	1	1	1	0	1	-40,521494	274,589641	281,822554	0
14.01.2021	20:29:59	0	0	2,711485	2,52825	87,0048	0,653	77,666	3,5	1005,98	7,3	9,2	9	1	1	1	1	1	1	1	1	1	0	1	-44,326991	274,559051	277,873444	0
14.01.2021	20:30:00	0	0	4,067227	2,63175	103,7952	0,657	77,684	3,5	1005,98	7,3	9,2	9	1	1	1	1	1	1	1	1	1	0	1	-42,142354	274,640219	280,439258	0
14.01.2021	20:30:01	0	0	3,389356	2,59275	86,274	0,656	77,69	3,5	1006,16	7,3	9,2	9	1	1	1	1	1	1	1	1	1	0	1	-45,102185	274,52851	276,954912	0
14.01.2021	20:30:02	0	0	3,389356	2,59275	86,274	0,656	77,69	3,5	1006,16	7,3	9,2	9	1	1	1	1	1	1	1	1	1	0	1	-45,102185	274,52851	276,954912	0
14.01.2021	20:30:03	0	0	2,937442	2,598	92,6424	0,658	77,693	3,5	1006,02	7,3	9,2	9	1	1	1	1	1	1	1	1	1	0	1	-44,890768	274,655572	277,762982	0
14.01.2021	20:30:04	0	0	3,050402	3	104,0256	0,656	77,704	3,5	1006,1	7,3	9,2	9,1	1	1	1	1	1	1	1	1	1	0	1	-41,860465	274,513258	280,125066	0
14.01.2021	20:30:05	0	0	4,745098	3,29625	95,5188	0,651	77,709	3,5	1006,06	7,3	9,2	9	1	1	1	1	1	1	1	1	1	0	1	-42,35377	274,58658	279,975904	0
14.01.2021	20:30:06	0	0	3,389356	3,1905	79,4376	0,656	77,736	3,5	1005,98	7,3	9,2	9	1	1	1	1	1	1	1	1	1	0	1	-43,199436	274,683238	279,584338	0
14.01.2021	20:30:07	0	0	3,502334	2,961	89,7084	0,65	77,729	3,5	1006,12	7,3	9,2	9	1	1	1	1	1	1	1	1	1	0	1	-47,991543	274,658644	274,676643	0
14.01.2021	20:30:08	0	0	2,937442	2,81925	102,5604	0,66	77,737	3,5	1006	7,3	9,2	9	1	1	1	1	1	1	1	1	1	0	1	-42,283298	274,555995	279,902791	0
14.01.2021	20:30:09	0	0	3,16338	2,8185	73,4184	0,658	77,752	3,5	1005,94	7,3	9,2	9,1	1	1	1	1	1	1	1	1	1	0	1	-42,212826	274,546829	279,930241	0
14.01.2021	20:30:10	0	0	4,971055	2,66625	78,66	0,656	77,736	3,5	1005,86	7,3	9,2	9	1	1	1	1	1	1	1	1	1	0	1	-45,665962	274,6817	277,110582	0
14.01.2021	20:30:11	0	0	3,276377	2,46225	61,3116	0,646	77,75	3,5	1005,96	7,3	9,2	9	1	1	1	1	1	1	1	1	1	0	1	-44,326991	274,629479	278,204166	0
14.01.2021	20:30:12	0	0	2,824463	2,27775	71,5932	0,655	77,756	3,5	1006,06	7,3	9,2	9	1	1	1	1	1	1	1	1	1	0	1	-41,296688	274,511733	280,68169	0
14.01.2021	20:30:13	0	0	3,728292	2,22	81,2052	0,65	77,763	3,5	1006,08	7,3	9,2	9	1	1	1	1	1	1	1	1	1	0	1	-40,591966	274,617213	281,881569	0
14.01.2021	20:30:14	0	0	3,502313	2,2065	76,392	0,65	77,756	3,5	1005,76	7,3	9,2	9,1	1	1	1	1	1	1	1	1	1	0	1	-46,300211	274,6817	276,476333	0
14.01.2021	20:30:15	0	0	3,728269	2,24775	81,2196	0,648	77,766	3,5	1005,98	7,3	9,2	9,1	1	1	1	1	1	1	1	1	1	0	1	-43,481325	274,604954	278,934632	0
14.01.2021	20:30:16	0	0	4,406163	2,49	79,434	0,649	77,763	3,5	1006,04	7,3	9,2	9	1	1	1	1	1	1	1	1	1	0	1	-42,565187	274,683238	280,218587	0
14.01.2021	20:30:17	0	0	5,084003	2,77125	82,6128	0,654	77,774	3,5	1006,14	7,3	9,2	9,1	1	1	1	1	1	1	1	1	1	0	1	-46,511628	274,597296	275,868366	0
14.01.2021	20:30:18	0	0	3,615291	3,11325	81,2232	0,652	77,788	3,5	1006,02	7,3	9,2	9,1	1	1	1	1	1	1	1	1	1	0	1	-42,283298	274,520883	279,738007	0
14.01.2021	20:30:19	0	0	3,163399	3,42825	80,1504	0,653	77,793	3,5	1006,04	7,3	9,2	9	1	1	1	1	1	1	1	1	1	0	1	-44,326991	274,57587	277,952397	0
14.01.2021	20:30:20	0	0	2,372535	3,7935	80,5212	0,65	77,792	3,5	1006	7,3	9,2	9,1	1	1	1	1	1	1	1	1	1	0	1	-44,96124	274,687853	277,844226	0
14.01.2021	20:30:21	0	0	4,180181	4,1445	75,618	0,648	77,805	3,5	1006	7,3	9,2	9,1	1	1	1	1	1	1	1	1	1	0	1	-44,045102	274,634082	278,507674	0
14.01.2021	20:30:22	0	0	2,937442	4,3335	80,5212	0,649	77,816	3,5	1006,04	7,3	9,2	9	1	1	1	1	1	1	1	1	1	0	1	-49,541931	274,516308	272,457908	0
14.01.2021	20:30:23	0	0	4,63212	4,27875	91,1664	0,648	77,819	3,5	1005,94	7,3	9,2	9	1	1	1	1	1	1	1	1	1	0	1	-42,98802	274,57587	279,291368	0
14.01.2021	20:30:24	0	0	3,05042	4,10475	88,5708	0,643	77,819	3,5	1006,02	7,3	9,2	9	1	1	1	1	1	1	1	1	1	0	1	-40,098661	274,505636	281,851112	0
14.01.2021	20:30:25	0	0	3,841247	4,0455	83,7108	0,649	77,826	3,5	1005,92	7,3	9,2	9,1	1	1	1	1	1	1	1	1	1	0	1	-44,397463	274,559051	277,802972	0
14.01.2021	20:30:26	0	0	2,485513	4,18125	85,2372	0,657	77,848	3,5	1006,08	7,3	9,2	9,1	1	1	1	1	1	1	1	1	1	0	1	-43,269908	274,675549	279,477725	0
14.01.2021	20:30:27	0	0	3,050402	3,96375	85,536	0,638	77,85	3,5	1006,04	7,3	9,2	9,1	1	1	1	1	1	1	1	1	1	0	1	-45,806906	274,620279	276,68103	0
14.01.2021	20:30:28	0	0	2,824463	3,702	86,9868	0,645	77,875	3,5	1006,08	7,3	9,2	9	1	1	1	1	1	1	1	1	1	0	1	-45,384073	274,675549	277,36356	0
14.01.2021	20:30:29	0	0	2,485528	3,44175	90,0144	0,637	77,878	3,5	1005,88	7,3	9,2	9	1	1	1	1	1	1	1	1	1	0	1	-42,35377	274,52851	279,703327	0
14.01.2021	20:30:30	0	0	3,615313	3,30075	73,4256	0,646	77,891	3,5	1005,98	7,3	9,2	9	1	1	1	1	1	1	1	1	1	0	1	-45,59549	274,641754	276,993333	0
14.01.2021	20:30:31	0	0	4,745098	3,321	65,4768	0,64	77,901	3,5	1005,94	7,3	9,2	9	1	1	1	1	1	1	1	1	1	0	1	-44,679352	274,667863	278,032159	0
14.01.2021	20:30:32	0	0	3,389356	3,17475	55,5336	0,643	77,895	3,5	1005,84	7,3	9,2	9	1	1	1	1	1	1	1	1	1	0	1	-46,088795	274,60955	276,348749	0
14.01.2021	20:30:33	0	0	4,858048	3,23625	90,036	0,65	77,907	3,5	1006,18	7,3	9,2	9,1	1	1	1	1	1	1	1	1	1	0	1	-45,172657	274,675549	277,574977	0
14.01.2021	20:30:34	0	0	4,293184	3,27825	60,5628	0,647	77,914	3,5	1006	7,3	9,2	9	1	1	1	1	1	1	1	1	1	0	1	-44,467935	274,526985	277,582002	0
14.01.2021	20:30:35	0	0	4,067203	3,45375	60,2388	0,645	77,913	3,5	1006,1	7,3	9,2	9,1	1	1	1	1	1	1	1	1	1	0	1	-42,917548	274,660181	279,757858	0
14.01.2021	20:30:36	0	0	3,728292	3,5385	63,8676	0,646	77,919	3,5	1006,06	7,3	9,2	9	1	1	1	1	1	1	1	1	1	0	1	-50,81043	274,498018	271,103603	0
14.01.2021	20:30:37	0	0	4,519141	3,588	67,4604	0,639	77,915	3,5	1005,94	7,3	9,2	9	1	1	1	1	1	1	1	1	1	0	1	-48,20296	274,606486	274,220192	0
14.01.2021	20:30:38	0	0	4,067203	3,65925	65,9304	0,64	77,915	3,5	1005,76	7,3	9,2	9,1	1	1	1	1	1	1	1	1	1	0	1	-45,947851	274,485834	275,909033	0
14.01.2021	20:30:39	0	0	4,63212	3,73725	62,4132	0,642	77,919	3,5	1005,96	7,3	9,2	9	1	1	1	1	1	1	1	1	1	0	1	-44,115574	274,612615	278,336364	0
14.01.2021	20:30:40	0	0	4,632092	3,8595	80,5284	0,642	77,923	3,5	1005,98	7,3	9,2	9,1	1	1	1	1	1	1	1	1	1	0	1	-49,82382	274,496494	272,083067	0
14.01.2021	20:30:41	0	0	4,519114	3,72825	65,844	0,644	77,925	3,5	1005,92	7,3	9,2	9,1	1	1	1	1	1	1	1	1	1	0	1	-46,5821	274,626412	275,934647	0
14.01.2021	20:30:42	0	0	4,519141	3,3735	72,2988	0,646	77,928	3,5	1005,94	7,3	9,2	9	1	1	1	1	1	1	1	1	1	0	1	-41,789993	274,496494	280,116894	0
14.01.2021	20:30:43	0	0	3,050402	3,168	59,0976	0,642	77,938	3,5	1005,94	7,3	9,2	9,1	1	1	1	1	1	1	1	1	1	0	1	-47,850599	274,510209	274,120627	0
14.01.2021	20:30:44	0	0	2,824463	3,30225	59,8392	0,64	77,94	3,5	1005,96	7,3	9,2	9	1	1	1	1	1	1	1	1	1	0	1	-44,679352	274,64943	277,945535	0
14.01.2021	20:30:45	0	0	3,615291	3,57375	52,884	0,647	77,949	3,5	1006,02	7,3	9,2	9,1	1	1	1	1	1	1	1	1	1	0	1	-42,917548	274,667863	279,793963	0
14.01.2021	20:30:46	0	0	4,067203	3,67275	43,6752	0,646	77,967	3,5	1006,18	7,3	9,2	9,1	1	1	1	1	1	1	1	1	1	0	1	-47,56871	274,614147	274,890426	0
14.01.2021	20:30:47	0	0	2,711485	3,52425	94,0968	0,644	77,963	3,5	1006,06	7,3	9,2	9	1	1	1	1	1	1	1	1	1	0	1	-46,229739	274,66479	276,467327	0
14.01.2021	20:30:48	0	0	2,937424	3,381	91,8684	0,64	77,953	3,5	1005,98	7,3	9,2	9,1	1	1	1	1	1	1	1	1	1	0	1	-41,649049	274,516308	280,35079	0
14.01.2021	20:30:49	0	0	3,615291	3,966	64,2384	0,637	77,954	3,5	1005,86	7,3	9,2	9,1	1	1	1	1	1	1	1	1	1	0	1	-45,243129	274,52851	276,813968	0
14.01.2021	20:30:50	0	0	4,067203	5,5635	50,2776	0,635	77,927	3,5	1005,84	7,3	9,2	9,1	1	1	1	1	1	1	1	1	1	0	1	-46,229739	274,502589	275,705736	0
14.01.2021	20:30:51	0	0	3,05042	6,19725	58,4892	0,643	77,924	3,5	1005,9	7,3	9,2	9	1	1	1	1	1	1	1	1	1	0	1	-46,370684	274,60955	276,06686	0
14.01.2021	20:30:52	0	0	4,293158	6,165	61,3908	0,641	77,937	3,5	1005,9	7,3	9,2	9,1	1	1	1	1	1	1	1	1	1	0	1	-47,498238	274,6694	275,220496	0
14.01.2021	20:30:53	0	0	3,728269	6,06075	69,4584	0,639	77,925	3,5	1006,04	7,3	9,2	9,1	1	1	1	1	1	1	1	1	1	0	1	-41,155743	274,600359	281,238634	0
14.01.2021	20:30:54	0	0	4,180206	5,94975	65,4804	0,643	77,936	3,5	1005,96	7,3	9,2	9	1	1	1	1	1	1	1	1	1	0	1	-44,186047	274,663253	278,503799	0
14.01.2021	20:30:55	0	0	3,954225	5,67825	42,5988	0,643	77,924	3,5	1006,02	7,3	9,2	9,1	1	1	1	1	1	1	1	1	1	0	1	-43,622269	274,631013	278,916093	0
14.01.2021	20:30:56	0	0	2,711468	5,19675	90,414	0,645	77,929	3,5	1005,96	7,3	9,2	9,1	1	1	1	1	1	1	1	1	1	0	1	-42,001409	274,499541	279,91977	0
14.01.2021	20:30:57	0	0	4,406136	5,0895	67,6656	0,641	77,93	3,5	1006,12	7,3	9,2	9,1	1	1	1	1	1	1	1	1	1	0	1	-47,56871	274,627946	274,955241	0
14.01.2021	20:30:58	0	0	4,519114	5,3685	82,5876	0,641	77,93	3,5	1005,98	7,3	9,1	9,1	1	1	1	1	1	1	1	1	1	0	1	-44,679352	274,644824	277,923895	0
14.01.2021	20:30:59	0	0	4,293184	4,43025	63,8712	0,639	77,931	3,5	1005,86	7,3	9,2	9	1	1	1	1	1	1	1	1	1	0	1	-44,608879	274,496494	277,298007	0
14.01.2021	20:31:00	0	0	3,615291	3,96	87,354	0,638	77,931	3,5	1005,94	7,3	9,2	9,1	1	1	1	1	1	1	1	1	1	0	1	-43,199436	274,66479	279,49763	0
14.01.2021	20:31:01	0	0	3,16338	3,91575	78,6492	0,641	77,953	3,5	1005,94	7,3	9,2	9,1	1	1	1	1	1	1	1	1	1	0	1	-43,199436	274,66479	279,49763	0
14.01.2021	20:31:02	0	0	3,16338	3,91575	78,6492	0,641	77,953	3,5	1005,94	7,3	9,2	9,1	1	1	1	1	1	1	1	1	1	0	1	-46,5821	274,57434	275,690107	0
14.01.2021	20:31:03	0	0	2,711485	4,1085	90,4968	0,643	77,96	3,5	1005,92	7,3	9,2	9	1	1	1	1	1	1	1	1	1	0	1	-41,296688	274,50716	280,660236	0
14.01.2021	20:31:04	0	0	4,858048	4,161	74,9124	0,638	77,959	3,5	1006	7,3	9,2	9,1	1	1	1	1	1	1	1	1	1	0	1	-44,890768	274,667863	277,820743	0
14.01.2021	20:31:05	0	0	4,519114	3,97125	86,976	0,645	77,964	3,5	1005,82	7,3	9,2	9,1	1	1	1	1	1	1	1	1	1	0	1	-45,384073	274,589641	276,959974	0
14.01.2021	20:31:06	0	0	3,050402	3,816	94,0932	0,641	77,967	3,5	1005,86	7,3	9,2	9,1	1	1	1	1	1	1	1	1	1	0	1	-46,441156	274,660181	276,234249	0
14.01.2021	20:31:07	0	0	4,74507	3,741	92,97	0,636	77,957	3,5	1005,9	7,3	9,2	9,1	1	1	1	1	1	1	1	1	1	0	1	-46,511628	274,60955	275,925916	0
14.01.2021	20:31:08	0	0	2,372535	3,72525	100,7496	0,644	77,958	3,5	1006,04	7,3	9,2	9,1	1	1	1	1	1	1	1	1	1	0	1	-40,944327	274,491925	280,941126	0
14.01.2021	20:31:09	0	0	3,050402	3,7005	99,5256	0,641	77,967	3,5	1006,04	7,3	9,3	9,1	1	1	1	1	1	1	1	1	1	0	1	-43,481325	274,583519	278,833978	0
14.01.2021	20:31:10	0	0	5,084034	3,66675	84,042	0,642	77,961	3,5	1005,98	7,3	9,1	9	1	1	1	1	1	1	1	1	1	0	1	-43,340381	274,666327	279,363908	0
14.01.2021	20:31:11	0	0	3,502313	3,5535	87,714	0,644	77,961	3,5	1005,84	7,3	9,2	9,1	1	1	1	1	1	1	1	1	1	0	1	-45,947851	274,581989	276,360268	0
14.01.2021	20:31:12	0	0	3,389336	3,3675	94,068	0,635	77,965	3,5	1005,92	7,3	9,2	9,1	1	1	1	1	1	1	1	1	1	0	1	-42,917548	274,485834	278,939336	0
14.01.2021	20:31:13	0	0	4,519114	3,61575	71,982	0,641	77,962	3,5	1006,1	7,3	9,2	9,1	1	1	1	1	1	1	1	1	1	0	1	-48,484848	274,634082	274,067928	0
14.01.2021	20:31:14	0	0	4,858048	3,81675	86,6592	0,638	77,96	3,5	1006,06	7,3	9,2	9,1	1	1	1	1	1	1	1	1	1	0	1	-43,340381	274,666327	279,363908	0
14.01.2021	20:31:15	0	0	3,728292	3,82275	85,5432	0,642	77,939	3,5	1005,94	7,3	9,2	9	1	1	1	1	1	1	1	1	1	0	1	-42,847075	274,60189	279,554494	0
14.01.2021	20:31:16	0	0	3,841247	4,0065	90,7776	0,646	77,976	3,5	1006	7,3	9,2	9,1	1	1	1	1	1	1	1	1	1	0	1	-48,20296	274,670938	274,522998	0
14.01.2021	20:31:17	0	0	4,180181	4,3455	93,348	0,635	77,955	3,5	1006	7,3	9,2	9,1	1	1	1	1	1	1	1	1	1	0	1	-47,639183	274,555995	274,546906	0
14.01.2021	20:31:18	0	0	3,502313	4,33275	108,4752	0,639	77,976	3,5	1006	7,3	9,2	9,1	1	1	1	1	1	1	1	1	1	0	1	-45,172657	274,479745	276,655669	0
14.01.2021	20:31:19	0	0	4,406136	4,49475	111,078	0,643	77,98	3,5	1006,04	7,3	9,2	9,1	1	1	1	1	1	1	1	1	1	0	1	-40,310078	274,505636	281,639696	0
14.01.2021	20:31:20	0	0	3,276358	4,5435	99,162	0,641	77,981	3,5	1006	7,2	9,3	9,1	1	1	1	1	1	1	1	1	1	0	1	-41,508104	274,469094	280,270271	0
14.01.2021	20:31:21	0	0	3,84127	4,575	101,4948	0,643	77,976	3,5	1005,98	7,3	9,3	9	1	1	1	1	1	1	1	1	1	0	1	-44,608879	274,583519	277,706423	0
14.01.2021	20:31:22	0	0	3,16338	4,521	92,9556	0,641	77,975	3,5	1006,02	7,3	9,2	9,1	1	1	1	1	1	1	1	1	1	0	1	-43,763214	274,643289	278,832821	0
14.01.2021	20:31:23	0	0	4,067203	4,5075	90,7632	0,638	77,953	3,5	1005,92	7,2	9,2	9,1	1	1	1	1	1	1	1	1	1	0	1	-45,454545	274,626412	277,062202	0
14.01.2021	20:31:24	0	0	2,937424	4,5225	94,3668	0,636	77,952	3,5	1006,06	7,3	9,2	9,1	1	1	1	1	1	1	1	1	1	0	1	-47,639183	274,66479	275,057884	0
14.01.2021	20:31:25	0	0	4,74507	4,5615	73,3752	0,634	77,948	3,5	1005,76	7,3	9,3	9,1	1	1	1	1	1	1	1	1	1	0	1	-51,726568	274,591172	270,624667	0
14.01.2021	20:31:26	0	0	3,16338	4,848	66,9024	0,64	77,964	3,5	1005,92	7,3	9,2	9,1	1	1	1	1	1	1	1	1	1	0	1	-43,551797	274,519358	278,462352	0
14.01.2021	20:31:27	0	0	2,711468	4,986	87,3468	0,64	77,97	3,5	1006,04	7,2	9,2	9,1	1	1	1	1	1	1	1	1	1	0	1	-45,525018	274,6694	277,193716	0
14.01.2021	20:31:28	0	0	2,711468	4,8195	73,422	0,644	77,963	3,5	1005,96	7,3	9,2	9,1	1	1	1	1	1	1	1	1	1	0	1	-47,286822	274,537668	274,813248	0
14.01.2021	20:31:29	0	0	3,954225	4,58325	71,2116	0,645	77,962	3,5	1005,94	7,2	9,2	9,1	1	1	1	1	1	1	1	1	1	0	1	-42,98802	274,650965	279,644082	0
14.01.2021	20:31:30	0	0	4,74507	4,434	68,0004	0,638	77,954	3,5	1006,12	7,3	9,2	9,1	1	1	1	1	1	1	1	1	1	0	1	-42,494715	274,542248	279,62685	0
14.01.2021	20:31:31	0	0	4,180181	4,12575	80,4888	0,635	77,942	3,5	1005,98	7,3	9,2	9,1	1	1	1	1	1	1	1	1	1	0	1	-45,665962	274,641754	276,922861	0
14.01.2021	20:31:32	0	0	2,937424	3,9735	73,4148	0,641	77,949	3,5	1006,04	7,3	9,3	9,1	1	1	1	1	1	1	1	1	1	0	1	-50,317125	274,540721	271,797274	0
14.01.2021	20:31:33	0	0	4,632092	3,80025	68,7564	0,642	77,939	3,5	1006,02	7,2	9,2	9,1	1	1	1	1	1	1	1	1	1	0	1	-46,370684	274,646359	276,239775	0
14.01.2021	20:31:34	0	0	4,067203	3,516	70,8552	0,637	77,934	3,5	1005,96	7,3	9,3	9,1	1	1	1	1	1	1	1	1	1	0	1	-44,186047	274,611082	278,258694	0
14.01.2021	20:31:35	0	0	3,389336	3,48975	74,1564	0,641	77,922	3,5	1005,9	7,3	9,2	9,1	1	1	1	1	1	1	1	1	1	0	1	-46,934461	274,473658	274,865318	0
14.01.2021	20:31:36	0	0	2,937424	4,0035	79,4196	0,646	77,927	3,5	1006,14	7,2	9,2	9,1	1	1	1	1	1	1	1	1	1	0	1	-42,494715	274,597296	279,885279	0
14.01.2021	20:31:37	0	0	3,16338	4,24425	88,5636	0,639	77,899	3,5	1005,84	7,2	9,3	9,1	1	1	1	1	1	1	1	1	1	0	1	-45,454545	274,487357	276,40948	0
14.01.2021	20:31:38	0	0	3,954225	4,2435	87,354	0,64	77,894	3,5	1006	7,3	9,3	9,1	1	1	1	1	1	1	1	1	1	0	1	-41,508104	274,494971	280,391637	0
14.01.2021	20:31:39	0	0	3,954225	4,44225	89,82	0,646	77,895	3,5	1005,9	7,3	9,2	9,1	1	1	1	1	1	1	1	1	1	0	1	-49,260042	274,658644	273,408144	0
14.01.2021	20:31:40	0	0	3,16338	4,56675	90,0288	0,639	77,877	3,5	1005,82	7,3	9,2	9,1	1	1	1	1	1	1	1	1	1	0	1	-42,071882	274,531562	279,999537	0
14.01.2021	20:31:41	0	0	4,180181	4,67925	78,2712	0,643	77,879	3,5	1006,06	7,3	9,3	9,1	1	1	1	1	1	1	1	1	1	0	1	-44,96124	274,627946	277,562711	0
14.01.2021	20:31:42	0	0	4,406136	4,83975	66,2256	0,644	77,857	3,5	1006	7,2	9,2	9,1	1	1	1	1	1	1	1	1	1	0	1	-41,860465	274,466052	279,903645	0
14.01.2021	20:31:43	0	0	1,920624	5,20575	64,6164	0,641	77,861	3,5	1005,92	7,2	9,1	9,1	1	1	1	1	1	1	1	1	1	0	1	-47,075405	274,505636	274,874368	0
14.01.2021	20:31:44	0	0	3,728269	5,0625	77,5836	0,639	77,854	3,5	1006	7,3	9,1	9,1	1	1	1	1	1	1	1	1	1	0	1	-45,806906	274,522408	276,221556	0
14.01.2021	20:31:45	0	0	3,728269	4,86675	74,9376	0,64	77,866	3,5	1005,92	7,2	9,2	9,1	1	1	1	1	1	1	1	1	1	0	1	-48,20296	274,652501	274,436357	0
14.01.2021	20:31:46	0	0	4,632092	4,7805	73,1592	0,637	77,842	3,5	1005,82	7,2	9,2	9,1	1	1	1	1	1	1	1	1	1	0	1	-44,890768	274,569752	277,3599	0
14.01.2021	20:31:47	0	0	3,389336	4,7325	80,226	0,641	77,863	3,5	1005,94	7,3	9,2	9,1	1	1	1	1	1	1	1	1	1	0	1	-44,397463	274,496494	277,509424	0
14.01.2021	20:31:48	0	0	3,615291	4,6515	79,0236	0,644	77,869	3,5	1005,88	7,3	9,2	9,1	1	1	1	1	1	1	1	1	1	0	1	-43,904158	274,594233	278,461455	0
14.01.2021	20:31:49	0	0	4,858048	5,052	86,6088	0,64	77,861	3,5	1006,04	7,3	9,3	9,1	1	1	1	1	1	1	1	1	1	0	1	-44,326991	274,652501	278,312326	0
14.01.2021	20:31:50	0	0	4,067203	5,127	86,2596	0,643	77,836	3,5	1005,9	7,2	9,3	9,1	1	1	1	1	1	1	1	1	1	0	1	-48,978154	274,526985	273,071784	0
14.01.2021	20:31:51	0	0	4,180181	5,18775	71,9964	0,642	77,835	3,5	1005,88	7,2	9,2	9,1	1	1	1	1	1	1	1	1	1	0	1	-42,917548	274,504112	279,025076	0
14.01.2021	20:31:52	0	0	2,259557	5,106	82,602	0,64	77,833	3,5	1005,96	7,2	9,1	9,1	1	1	1	1	1	1	1	1	1	0	1	-42,283298	274,479745	279,545028	0
14.01.2021	20:31:53	0	0	2,259557	4,7445	73,7928	0,642	77,828	3,5	1005,92	7,2	9,3	9,1	1	1	1	1	1	1	1	1	1	0	1	-48,273432	274,479745	273,554894	0
14.01.2021	20:31:54	0	0	4,406136	4,4085	61,6824	0,644	77,824	3,5	1006,02	7,2	9,2	9,1	1	1	1	1	1	1	1	1	1	0	1	-45,877378	274,629479	276,653778	0
14.01.2021	20:31:55	0	0	3,389336	4,26525	75,2292	0,645	77,838	3,5	1005,92	7,2	9,2	9,1	1	1	1	1	1	1	1	1	1	0	1	-49,330514	274,537668	272,769555	0
14.01.2021	20:31:56	0	0	4,971026	4,248	52,128	0,639	77,829	3,5	1005,86	7,3	9,2	9,1	1	1	1	1	1	1	1	1	1	0	1	-45,172657	274,604954	277,2433	0
14.01.2021	20:31:57	0	0	4,632092	3,9045	66,5424	0,647	77,847	3,5	1006,08	7,3	9,2	9,1	1	1	1	1	1	1	1	1	1	0	1	-48,273432	274,626412	274,243315	0
14.01.2021	20:31:58	0	0	4,180181	3,65925	72,0648	0,639	77,833	3,5	1006	7,2	9,2	9,1	1	1	1	1	1	1	1	1	1	0	1	-42,565187	274,585049	279,757301	0
14.01.2021	20:31:59	0	0	2,598491	3,72375	63,1692	0,643	77,809	3,5	1006,12	7,2	9,2	9,1	1	1	1	1	1	1	1	1	1	0	1	-43,763214	274,467573	278,008029	0
14.01.2021	20:32:00	0	0	4,406136	4,19325	73,782	0,647	77,793	3,5	1006,1	7,2	9,3	9,1	1	1	1	1	1	1	1	1	1	0	1	-46,934461	274,473658	274,865318	0
14.01.2021	20:32:01	0	0	3,615291	4,2165	68,778	0,643	77,801	3,5	1005,94	7,2	9,2	9,1	1	1	1	1	1	1	1	1	1	0	1	-48,555321	274,600359	273,839056	0
14.01.2021	20:32:02	0	0	3,615291	4,2165	68,778	0,643	77,801	3,5	1005,94	7,2	9,2	9,1	1	1	1	1	1	1	1	1	1	0	1	-48,555321	274,600359	273,839056	0
14.01.2021	20:32:03	0	0	3,276358	3,97575	67,6512	0,641	77,806	3,5	1006,06	7,3	9,1	9,1	1	1	1	1	1	1	1	1	1	0	1	-44,326991	274,644824	278,276255	0
14.01.2021	20:32:04	0	0	3,954249	3,738	61,7076	0,646	77,794	3,5	1005,88	7,2	9,2	9	1	1	1	1	1	1	1	1	1	0	1	-43,410853	274,552939	278,760893	0
14.01.2021	20:32:05	0	0	3,276358	4,1445	71,9964	0,642	77,802	3,5	1006,04	7,2	9,3	9,1	1	1	1	1	1	1	1	1	1	0	1	-44,397463	274,487357	277,466562	0
14.01.2021	20:32:06	0	0	2,824446	4,665	60,2352	0,639	77,798	3,5	1005,92	7,2	9,3	9,1	1	1	1	1	1	1	1	1	1	0	1	-45,806906	274,600359	276,587471	0
14.01.2021	20:32:07	0	0	3,16338	4,917	70,218	0,645	77,788	3,5	1005,96	7,2	9,2	9,1	1	1	1	1	1	1	1	1	1	0	1	-52,713178	274,533089	269,365402	0
14.01.2021	20:32:08	0	0	2,824446	4,7805	74,1672	0,635	77,776	3,5	1006,06	7,3	9,3	9,1	1	1	1	1	1	1	1	1	1	0	1	-41,508104	274,47518	280,29881	0
14.01.2021	20:32:09	0	0	3,050402	4,6125	88,6392	0,64	77,774	3,5	1005,9	7,2	9,2	9,1	1	1	1	1	1	1	1	1	1	0	1	-44,326991	274,501065	277,601336	0
14.01.2021	20:32:10	0	0	2,485513	4,46175	89,7192	0,639	77,775	3,5	1006	7,2	9,3	9,1	1	1	1	1	1	1	1	1	1	0	1	-49,400987	274,643289	273,195048	0
14.01.2021	20:32:11	0	0	4,632092	4,3305	77,9724	0,635	77,77	3,5	1006	7,2	9,3	9,1	1	1	1	1	1	1	1	1	1	0	1	-48,132488	274,459969	273,603099	0
14.01.2021	20:32:12	0	0	2,598491	4,62525	77,2416	0,636	77,759	3,5	1006,24	7,2	9,3	9,1	1	1	1	1	1	1	1	1	1	0	1	-44,749824	274,56058	277,457785	0
14.01.2021	20:32:13	0	0	3,615313	4,55025	85,1688	0,641	77,779	3,5	1006,04	7,2	9,2	9	1	1	1	1	1	1	1	1	1	0	1	-46,723044	274,646359	275,887415	0
14.01.2021	20:32:14	0	0	2,824446	4,515	74,16	0,637	77,765	3,5	1005,94	7,2	9,1	9,1	1	1	1	1	1	1	1	1	1	0	1	-44,608879	274,540721	277,50552	0
14.01.2021	20:32:15	0	0	4,519114	4,57575	82,3392	0,637	77,767	3,5	1005,9	7,2	9,1	9,1	1	1	1	1	1	1	1	1	1	0	1	-46,934461	274,632547	275,611108	0
14.01.2021	20:32:16	0	0	4,406136	4,743	75,9672	0,636	77,763	3,5	1005,92	7,2	9,3	9,1	1	1	1	1	1	1	1	1	1	0	1	-48,555321	274,598827	273,831864	0
14.01.2021	20:32:17	0	0	4,858048	4,9725	75,978	0,628	77,766	3,5	1005,82	7,2	9,2	9,1	1	1	1	1	1	1	1	1	1	0	1	-45,665962	274,618746	276,814773	0
14.01.2021	20:32:18	0	0	4,519114	5,04525	71,5968	0,637	77,754	3,5	1006,08	7,2	9,2	9,1	1	1	1	1	1	1	1	1	1	0	1	-43,904158	274,478223	277,91703	0
14.01.2021	20:32:19	0	0	3,16338	4,98075	94,392	0,639	77,769	3,5	1005,88	7,3	9,1	9,1	1	1	1	1	1	1	1	1	1	0	1	-46,5821	274,623345	275,92024	0
14.01.2021	20:32:20	0	0	3,728269	4,7955	83,8584	0,639	77,764	3,5	1005,9	7,2	9,3	9,1	1	1	1	1	1	1	1	1	1	0	1	-44,96124	274,64943	277,663646	0
14.01.2021	20:32:21	0	0	3,728269	4,52625	85,1724	0,636	77,755	3,5	1006	7,2	9,3	9,1	1	1	1	1	1	1	1	1	1	0	1	-47,427766	274,481267	274,407698	0
14.01.2021	20:32:22	0	0	3,05042	4,12275	89,6904	0,633	77,769	3,5	1005,98	7,2	9,3	9	1	1	1	1	1	1	1	1	1	0	1	-46,934461	274,58811	275,402399	0
14.01.2021	20:32:23	0	0	3,276358	4,22025	80,5284	0,632	77,769	3,5	1006,08	7,2	9,1	9,1	1	1	1	1	1	1	1	1	1	0	1	-47,850599	274,643289	274,745435	0
14.01.2021	20:32:24	0	0	4,519114	4,20525	94,7772	0,637	77,766	3,5	1006,04	7,2	9,3	9,1	1	1	1	1	1	1	1	1	1	0	1	-46,793517	274,592702	275,564907	0
14.01.2021	20:32:25	0	0	2,598491	3,9705	91,152	0,643	77,768	3,5	1006	7,2	9,2	9,1	1	1	1	1	1	1	1	1	1	0	1	-46,229739	274,476701	275,584311	0
14.01.2021	20:32:26	0	0	4,406136	3,74475	97,3332	0,641	77,764	3,5	1005,9	7,2	9,3	9,1	1	1	1	1	1	1	1	1	1	0	1	-45,031712	274,525459	277,011066	0
14.01.2021	20:32:27	0	0	2,937442	3,561	100,8324	0,633	77,772	3,5	1006	7,2	9,3	9	1	1	1	1	1	1	1	1	1	0	1	-41,226216	274,657108	281,434752	0
14.01.2021	20:32:28	0	0	3,728269	3,4065	101,1312	0,638	77,777	3,5	1006,06	7,2	9,2	9,1	1	1	1	1	1	1	1	1	1	0	1	-44,045102	274,583519	278,270201	0
14.01.2021	20:32:29	0	0	3,841247	3,1965	91,1736	0,632	77,788	3,5	1005,96	7,2	9,2	9,1	1	1	1	1	1	1	1	1	1	0	1	-41,578576	274,455409	280,135626	0
14.01.2021	20:32:30	0	0	4,858048	2,9565	87,7212	0,637	77,795	3,5	1005,88	7,2	9,2	9,1	1	1	1	1	1	1	1	1	1	0	1	-45,384073	274,514783	276,608611	0
14.01.2021	20:32:31	0	0	4,632092	2,8815	89,3196	0,635	77,789	3,5	1005,98	7,2	9,3	9,1	1	1	1	1	1	1	1	1	1	0	1	-46,934461	274,646359	275,675998	0
14.01.2021	20:32:32	0	0	3,841247	2,86125	80,118	0,637	77,807	3,5	1006,06	7,2	9,3	9,1	1	1	1	1	1	1	1	1	1	0	1	-45,384073	274,568223	276,859416	0
14.01.2021	20:32:33	0	0	4,74507	2,9865	95,148	0,631	77,813	3,5	1005,9	7,2	9,2	9,1	1	1	1	1	1	1	1	1	1	0	1	-41,649049	274,491925	280,236404	0
14.01.2021	20:32:34	0	0	3,276358	2,87925	88,1172	0,631	77,826	3,5	1005,96	7,2	9,2	9,1	1	1	1	1	1	1	1	1	1	0	1	-44,820296	274,522408	277,208166	0
14.01.2021	20:32:35	0	0	2,824463	2,82375	97,6932	0,636	77,825	3,5	1006,06	7,2	9,2	9	1	1	1	1	1	1	1	1	1	0	1	-50,317125	274,652501	272,322192	0
14.01.2021	20:32:36	0	0	3,389356	2,8635	103,2948	0,633	77,842	3,5	1005,96	7,2	9,2	9	1	1	1	1	1	1	1	1	1	0	1	-44,045102	274,508685	277,918972	0
14.01.2021	20:32:37	0	0	4,74507	2,8425	87,7428	0,637	77,83	3,5	1005,98	7,2	9,2	9,1	1	1	1	1	1	1	1	1	1	0	1	-48,273432	274,525459	273,769346	0
14.01.2021	20:32:38	0	0	2,485513	2,85525	88,56	0,633	77,824	3,5	1005,84	7,2	9,2	9,1	1	1	1	1	1	1	1	1	1	0	1	-49,612403	274,493448	272,280194	0
14.01.2021	20:32:39	0	0	3,502313	2,83725	87,372	0,633	77,833	3,5	1006,04	7,2	9,2	9,1	1	1	1	1	1	1	1	1	1	0	1	-45,243129	274,606486	277,180023	0
14.01.2021	20:32:40	0	0	4,971055	2,9175	77,1912	0,633	77,813	3,5	1005,9	7,2	9,2	9	1	1	1	1	1	1	1	1	1	0	1	-47,004933	274,620279	275,483003	0
14.01.2021	20:32:41	0	0	3,05042	3,22275	81,1944	0,64	77,839	3,5	1006,1	7,2	9,2	9	1	1	1	1	1	1	1	1	1	0	1	-45,525018	274,508685	276,439057	0
14.01.2021	20:32:42	0	0	2,937424	3,47775	91,098	0,633	77,806	3,5	1006,04	7,2	9,2	9,1	1	1	1	1	1	1	1	1	1	0	1	-48,766737	274,484312	273,083006	0
14.01.2021	20:32:43	0	0	4,63212	3,7695	82,584	0,634	77,847	3,5	1006,04	7,2	9,2	9	1	1	1	1	1	1	1	1	1	0	1	-43,622269	274,559051	278,578166	0
14.01.2021	20:32:44	0	0	2,824446	3,903	82,98	0,631	77,819	3,5	1005,94	7,2	9,2	9,1	1	1	1	1	1	1	1	1	1	0	1	-43,269908	274,643289	279,326126	0
14.01.2021	20:32:45	0	0	4,519114	3,96675	84,7944	0,635	77,8	3,5	1006	7,2	9,2	9,1	1	1	1	1	1	1	1	1	1	0	1	-40,028189	274,552939	282,143556	0
14.01.2021	20:32:46	0	0	3,502313	3,81225	84,0384	0,635	77,8	3,5	1006,08	7,2	9,1	9,1	1	1	1	1	1	1	1	1	1	0	1	-47,21635	274,643289	275,379685	0
14.01.2021	20:32:47	0	0	3,163399	3,5415	81,576	0,631	77,795	3,5	1006,04	7,2	9,3	9	1	1	1	1	1	1	1	1	1	0	1	-48,766737	274,585049	273,555751	0
14.01.2021	20:32:48	0	0	2,598491	3,14325	71,9892	0,632	77,783	3,5	1005,9	7,2	9,2	9,1	1	1	1	1	1	1	1	1	1	0	1	-44,679352	274,464531	277,077626	0
14.01.2021	20:32:49	0	0	2,937424	2,89575	72,2844	0,628	77,771	3,5	1005,94	7,2	9,2	9,1	1	1	1	1	1	1	1	1	1	0	1	-45,525018	274,511733	276,45336	0
14.01.2021	20:32:50	0	0	2,824463	3,1215	97,7004	0,628	77,779	3,5	1005,96	7,2	9,2	9	1	1	1	1	1	1	1	1	1	0	1	-44,045102	274,63715	278,522091	0
14.01.2021	20:32:51	0	0	3,84127	3,7065	95,8464	0,632	77,784	3,5	1006,14	7,2	9,2	9	1	1	1	1	1	1	1	1	1	0	1	-45,031712	274,505636	276,918061	0
14.01.2021	20:32:52	0	0	4,858077	3,74325	84,0204	0,632	77,79	3,5	1006,1	7,2	9,2	9	1	1	1	1	1	1	1	1	1	0	1	-47,21635	274,47518	274,590565	0
14.01.2021	20:32:53	0	0	2,372549	3,7845	68,7852	0,625	77,778	3,5	1005,98	7,2	9,2	9	1	1	1	1	1	1	1	1	1	0	1	-44,608879	274,546829	277,534187	0
14.01.2021	20:32:54	0	0	3,502334	3,63075	81,2268	0,634	77,774	3,5	1006,1	7,3	9,3	9	1	1	1	1	1	1	1	1	1	0	1	-47,921071	274,484312	273,928672	0
14.01.2021	20:32:55	0	0	5,084003	3,29925	85,1868	0,623	77,777	3,5	1005,9	7,2	9,2	9,1	1	1	1	1	1	1	1	1	1	0	1	-49,964764	274,611082	272,479977	0
14.01.2021	20:32:56	0	0	4,406136	3,1365	90,7452	0,634	77,777	3,5	1006,04	7,2	9,1	9,1	1	1	1	1	1	1	1	1	1	0	1	-45,384073	274,620279	277,103863	0
14.01.2021	20:32:57	0	0	3,276377	3,35625	91,5084	0,629	77,777	3,5	1005,98	7,2	9,2	9	1	1	1	1	1	1	1	1	1	0	1	-48,484848	274,449329	273,20085	0
14.01.2021	20:32:58	0	0	3,502334	3,87075	90	0,629	77,772	3,5	1006,08	7,2	9,3	9	1	1	1	1	1	1	1	1	1	0	1	-46,018323	274,562108	276,196461	0
14.01.2021	20:32:59	0	0	2,033601	4,54425	88,9668	0,631	77,771	3,5	1006,06	7,2	9,2	9,1	1	1	1	1	1	1	1	1	1	0	1	-49,894292	274,647894	272,723381	0
14.01.2021	20:33:00	0	0	3,050402	5,685	92,6388	0,629	77,757	3,5	1006,02	7,2	9,2	9,1	1	1	1	1	1	1	1	1	1	0	1	-45,384073	274,469094	276,394302	0
14.01.2021	20:33:01	0	0	3,050402	5,685	92,6388	0,629	77,757	3,5	1006,02	7,2	9,2	9,1	1	1	1	1	1	1	1	1	1	0	1	-45,384073	274,469094	276,394302	0
14.01.2021	20:33:02	0	0	3,16338	5,80575	70,6068	0,628	77,778	3,5	1006,06	7,2	9,2	9,1	1	1	1	1	1	1	1	1	1	0	1	-45,031712	274,493448	276,860884	0
14.01.2021	20:33:03	0	0	3,728292	6,21975	86,688	0,623	77,778	3,5	1005,86	7,2	9,2	9	1	1	1	1	1	1	1	1	1	0	1	-45,172657	274,600359	277,22172	0
14.01.2021	20:33:04	0	0	4,293158	6,08775	85,1652	0,628	77,802	3,5	1006,02	7,2	9,2	9,1	1	1	1	1	1	1	1	1	1	0	1	-44,326991	274,476701	277,48706	0
14.01.2021	20:33:05	0	0	4,293158	5,76375	82,368	0,627	77,83	3,5	1006	7,2	9,1	9,1	1	1	1	1	1	1	1	1	1	0	1	-45,665962	274,479745	276,162364	0
14.01.2021	20:33:06	0	0	4,519141	5,6145	76,8096	0,625	77,835	3,5	1005,94	7,2	9,3	9	1	1	1	1	1	1	1	1	1	0	1	-43,340381	274,618746	279,140355	0
14.01.2021	20:33:07	0	0	4,858048	5,81625	74,1816	0,624	77,862	3,5	1006,04	7,2	9,2	9,1	1	1	1	1	1	1	1	1	1	0	1	-45,947851	274,620279	276,540086	0
14.01.2021	20:33:08	0	0	4,63212	6,363	70,8444	0,627	77,866	3,5	1006,02	7,2	9,2	9	1	1	1	1	1	1	1	1	1	0	1	-43,904158	274,464531	277,85282	0
14.01.2021	20:33:09	0	0	4,406136	6,6075	79,0344	0,626	77,874	3,5	1005,96	7,2	9,2	9,1	1	1	1	1	1	1	1	1	1	0	1	-48,132488	274,58658	274,197186	0
14.01.2021	20:33:10	0	0	3,615291	6,34725	76,3632	0,629	77,858	3,5	1005,96	7,2	9,1	9,1	1	1	1	1	1	1	1	1	1	0	1	-45,102185	274,459969	276,633402	0
14.01.2021	20:33:11	0	0	4,519114	6,342	82,3356	0,622	77,859	3,5	1005,96	7,2	9,3	9,1	1	1	1	1	1	1	1	1	1	0	1	-47,286822	274,608018	275,143526	0
14.01.2021	20:33:12	0	0	3,954225	6,258	80,8848	0,627	77,864	3,5	1006	7,2	9,2	9,1	1	1	1	1	1	1	1	1	1	0	1	-46,5821	274,652501	276,057217	0
14.01.2021	20:33:13	0	0	2,824446	6,591	82,9548	0,624	77,864	3,5	1005,94	7,2	9,2	9,1	1	1	1	1	1	1	1	1	1	0	1	-46,088795	274,565165	276,14034	0
14.01.2021	20:33:14	0	0	2,711468	6,97725	75,6108	0,628	77,878	3,5	1006,04	7,2	9,2	9,1	1	1	1	1	1	1	1	1	1	0	1	-50,739958	274,638685	271,834444	0
14.01.2021	20:33:15	0	0	3,389356	7,146	72,0036	0,625	77,886	3,5	1006,14	7,2	9,2	9	1	1	1	1	1	1	1	1	1	0	1	-47,357294	274,551412	274,807281	0
14.01.2021	20:33:16	0	0	4,406136	7,31475	66,2112	0,62	77,894	3,5	1006,04	7,2	9,2	9,1	1	1	1	1	1	1	1	1	1	0	1	-45,736434	274,650965	276,895667	0
14.01.2021	20:33:17	0	0	2,824463	7,11	68,3928	0,621	77,883	3,5	1006,02	7,2	9,2	9	1	1	1	1	1	1	1	1	1	0	1	-43,199436	274,581989	279,108682	0
14.01.2021	20:33:18	0	0	2,711468	6,5235	67,6692	0,632	77,911	3,5	1006,06	7,2	9,2	9,1	1	1	1	1	1	1	1	1	1	0	1	-49,048626	274,464531	272,708352	0
14.01.2021	20:33:19	0	0	4,406163	6,222	61,0128	0,622	77,911	3,5	1006,12	7,2	9,2	9	1	1	1	1	1	1	1	1	1	0	1	-47,991543	274,592702	274,366881	0
14.01.2021	20:33:20	0	0	2,711485	6,18225	63,8496	0,629	77,913	3,5	1005,94	7,2	9,2	9	1	1	1	1	1	1	1	1	1	0	1	-46,511628	274,652501	276,127689	0
14.01.2021	20:33:21	0	0	2,711485	6,039	63,8568	0,628	77,913	3,5	1005,98	7,2	9,2	9	1	1	1	1	1	1	1	1	1	0	1	-47,145877	274,600359	275,2485	0
14.01.2021	20:33:22	0	0	4,067227	6,147	61,2972	0,627	77,911	3,5	1005,98	7,2	9,2	9	1	1	1	1	1	1	1	1	1	0	1	-46,5821	274,658644	276,086086	0
14.01.2021	20:33:23	0	0	4,63212	5,99325	66,5316	0,624	77,928	3,5	1005,96	7,2	9,2	9	1	1	1	1	1	1	1	1	1	0	1	-43,058492	274,58811	279,278368	0
14.01.2021	20:33:24	0	0	4,858048	6,02025	58,0896	0,617	77,927	3,5	1005,92	7,2	9,2	9,1	1	1	1	1	1	1	1	1	1	0	1	-46,370684	274,657108	276,290284	0
14.01.2021	20:33:25	0	0	4,406163	5,958	57,7296	0,624	77,918	3,5	1006,06	7,2	9,2	9	1	1	1	1	1	1	1	1	1	0	1	-48,696265	274,554467	273,482652	0
14.01.2021	20:33:26	0	0	3,84127	5,70525	66,222	0,627	77,924	3,5	1006,02	7,2	9,2	9	1	1	1	1	1	1	1	1	1	0	1	-46,088795	274,660181	276,58661	0
14.01.2021	20:33:27	0	0	4,519141	5,27475	61,29	0,626	77,915	3,5	1005,92	7,2	9,2	9	1	1	1	1	1	1	1	1	1	0	1	-49,964764	274,629479	272,566393	0
14.01.2021	20:33:28	0	0	4,180206	5,68875	54,7848	0,627	77,911	3,5	1005,98	7,2	9,1	9	1	1	1	1	1	1	1	1	1	0	1	-43,481325	274,655572	279,172425	0
14.01.2021	20:33:29	0	0	4,180206	6,18225	62,784	0,621	77,92	3,5	1005,82	7,2	9,3	9	1	1	1	1	1	1	1	1	1	0	1	-47,075405	274,60189	275,326165	0
14.01.2021	20:33:30	0	0	2,711485	6,2595	62,7984	0,623	77,909	3,5	1006,06	7,2	9,2	9	1	1	1	1	1	1	1	1	1	0	1	-46,863989	274,516308	275,13585	0
14.01.2021	20:33:31	0	0	2,824463	6,069	59,49	0,621	77,913	3,5	1005,9	7,2	9,2	9	1	1	1	1	1	1	1	1	1	0	1	-52,008457	274,620279	270,479479	0
14.01.2021	20:33:32	0	0	3,163399	5,92125	57,4092	0,619	77,901	3,5	1005,94	7,2	9,2	9	1	1	1	1	1	1	1	1	1	0	1	-47,991543	274,502589	273,943932	0
14.01.2021	20:33:33	0	0	2,485528	5,70975	64,6308	0,624	77,911	3,5	1005,94	7,2	9,2	9	1	1	1	1	1	1	1	1	1	0	1	-47,075405	274,555995	275,110683	0
14.01.2021	20:33:34	0	0	3,276377	5,64225	63,8568	0,622	77,892	3,5	1006,1	7,2	9,2	9	1	1	1	1	1	1	1	1	1	0	1	-46,511628	274,514783	275,481056	0
14.01.2021	20:33:35	0	0	3,502334	5,59275	60,9336	0,626	77,927	3,5	1005,96	7,2	9,2	9	1	1	1	1	1	1	1	1	1	0	1	-47,780127	274,675549	274,967507	0
14.01.2021	20:33:36	0	0	4,293184	5,5785	77,598	0,629	77,932	3,5	1005,74	7,2	9,2	9	1	1	1	1	1	1	1	1	1	0	1	-49,048626	274,626412	273,468121	0
14.01.2021	20:33:37	0	0	2,598506	5,145	61,6644	0,624	77,954	3,5	1005,98	7,2	9,2	9	1	1	1	1	1	1	1	1	1	0	1	-49,330514	274,516308	272,669324	0
14.01.2021	20:33:38	0	0	2,259571	4,554	47,7432	0,623	77,962	3,5	1006,04	7,2	9,2	9	1	1	1	1	1	1	1	1	1	0	1	-52,008457	274,543775	270,120275	0
14.01.2021	20:33:39	0	0	4,293184	4,434	44,3916	0,624	77,952	3,5	1006,12	7,2	9,2	9	1	1	1	1	1	1	1	1	1	0	1	-48,273432	274,689392	274,539267	0
14.01.2021	20:33:40	0	0	2,598506	4,494	54,108	0,626	77,974	3,5	1005,82	7,2	9,2	9	1	1	1	1	1	1	1	1	1	0	1	-42,917548	274,606486	279,505605	0
14.01.2021	20:33:41	0	0	3,84127	5,337	48,1248	0,625	77,976	3,5	1006,02	7,2	9,2	9	1	1	1	1	1	1	1	1	1	0	1	-46,652572	274,536141	275,440333	0
14.01.2021	20:33:42	0	0	4,293158	4,923	48,8232	0,629	77,994	3,5	1006,06	7,2	9,2	9,1	1	1	1	1	1	1	1	1	1	0	1	-43,269908	274,670938	279,456049	0
14.01.2021	20:33:43	0	0	3,84127	4,53825	51,7248	0,627	77,996	3,5	1006,06	7,2	9,2	9	1	1	1	1	1	1	1	1	1	0	1	-46,088795	274,52851	275,968302	0
14.01.2021	20:33:44	0	0	2,485528	4,28925	57,1212	0,625	77,98	3,5	1006	7,3	9,2	9	1	1	1	1	1	1	1	1	1	0	1	-43,199436	274,57434	279,072771	0
14.01.2021	20:33:45	0	0	4,971055	3,873	66,9276	0,629	77,997	3,5	1005,92	7,2	9,3	9	1	1	1	1	1	1	1	1	1	0	1	-43,269908	274,684777	279,521096	0
14.01.2021	20:33:46	0	0	4,858077	3,79125	67,6656	0,627	77,991	3,5	1006,02	7,2	9,2	9	1	1	1	1	1	1	1	1	1	0	1	-51,726568	274,57587	270,55282	0
14.01.2021	20:33:47	0	0	4,519141	3,90225	58,4784	0,631	77,986	3,5	1005,98	7,2	9,2	9	1	1	1	1	1	1	1	1	1	0	1	-46,370684	274,505636	275,57909	0
14.01.2021	20:33:48	0	0	1,920624	4,14225	59,0868	0,63	77,992	3,5	1005,94	7,2	9,2	9,1	1	1	1	1	1	1	1	1	1	0	1	-44,397463	274,554467	277,781454	0
14.01.2021	20:33:49	0	0	4,858077	4,395	56,2788	0,627	77,982	3,5	1006	7,3	9,2	9	1	1	1	1	1	1	1	1	1	0	1	-46,723044	274,50716	275,233879	0
14.01.2021	20:33:50	0	0	4,74507	4,53375	58,4892	0,629	77,986	3,5	1006,02	7,2	9,2	9,1	1	1	1	1	1	1	1	1	1	0	1	-47,780127	274,674012	274,960281	0
14.01.2021	20:33:51	0	0	4,745098	4,52925	69,4728	0,637	77,969	3,5	1005,94	7,2	9,2	9	1	1	1	1	1	1	1	1	1	0	1	-47,56871	274,638685	275,005692	0
14.01.2021	20:33:52	0	0	4,519141	3,98025	73,0404	0,633	77,969	3,5	1006,12	7,2	9,2	9	1	1	1	1	1	1	1	1	1	0	1	-46,018323	274,692469	276,808842	0
14.01.2021	20:33:53	0	0	4,180181	3,492	82,3608	0,635	77,956	3,5	1006,04	7,2	9,3	9,1	1	1	1	1	1	1	1	1	1	0	1	-49,18957	274,566694	273,046742	0
14.01.2021	20:33:54	0	0	3,841247	3,30525	87,7428	0,629	77,941	3,5	1006,04	7,2	9,2	9,1	1	1	1	1	1	1	1	1	1	0	1	-47,921071	274,683238	274,862703	0
14.01.2021	20:33:55	0	0	2,937442	3,43725	68,0148	0,633	77,959	3,5	1006	7,2	9,2	9	1	1	1	1	1	1	1	1	1	0	1	-49,260042	274,551412	272,904532	0
14.01.2021	20:33:56	0	0	3,954249	3,63	70,8588	0,631	77,935	3,5	1006,04	7,2	9,2	9	1	1	1	1	1	1	1	1	1	0	1	-42,847075	274,6817	279,929469	0
14.01.2021	20:33:57	0	0	2,937442	3,72975	62,0352	0,623	77,935	3,5	1005,96	7,2	9,2	9	1	1	1	1	1	1	1	1	1	0	1	-44,256519	274,559051	277,943916	0
14.01.2021	20:33:58	0	0	4,293184	3,858	82,3572	0,63	77,917	3,5	1006,14	7,2	9,2	9	1	1	1	1	1	1	1	1	1	0	1	-47,921071	274,680162	274,848244	0
14.01.2021	20:33:59	0	0	3,728292	3,837	65,8224	0,631	77,882	3,5	1005,96	7,2	9,2	9	1	1	1	1	1	1	1	1	1	0	1	-47,21635	274,604954	275,199608	0
14.01.2021	20:34:00	0	0	3,16338	3,6345	63,1584	0,624	77,871	3,5	1005,82	7,3	9,2	9,1	1	1	1	1	1	1	1	1	1	0	1	-41,649049	274,548357	280,501187	0
14.01.2021	20:34:01	0	0	3,16338	3,6345	63,1584	0,624	77,871	3,5	1005,82	7,3	9,2	9,1	1	1	1	1	1	1	1	1	1	0	1	-41,649049	274,548357	280,501187	0
14.01.2021	20:34:02	0	0	2,824463	3,56775	72,666	0,627	77,879	3,5	1005,96	7,2	9,2	9	1	1	1	1	1	1	1	1	1	0	1	-45,877378	274,652501	276,761939	0
14.01.2021	20:34:03	0	0	4,067227	3,52875	81,9576	0,633	77,873	3,5	1006,1	7,2	9,2	9	1	1	1	1	1	1	1	1	1	0	1	-46,229739	274,689392	276,582959	0
14.01.2021	20:34:04	0	0	3,954249	3,48075	92,9844	0,627	77,853	3,5	1006,06	7,2	9,2	9	1	1	1	1	1	1	1	1	1	0	1	-48,062016	274,635616	274,497969	0
14.01.2021	20:34:05	0	0	4,519141	3,4455	69,462	0,635	77,843	3,5	1005,96	7,2	9,2	9	1	1	1	1	1	1	1	1	1	0	1	-43,269908	274,686315	279,528326	0
14.01.2021	20:34:06	0	0	3,05042	3,2895	67,4964	0,633	77,842	3,5	1006	7,3	9,2	9	1	1	1	1	1	1	1	1	1	0	1	-42,917548	274,61568	279,548788	0
14.01.2021	20:34:07	0	0	4,406163	3,00825	74,9304	0,628	77,829	3,5	1006	7,2	9,2	9	1	1	1	1	1	1	1	1	1	0	1	-46,370684	274,6817	276,405861	0
14.01.2021	20:34:08	0	0	5,084034	2,883	88,1424	0,63	77,791	3,5	1005,98	7,2	9,2	9	1	1	1	1	1	1	1	1	1	0	1	-43,692741	274,623345	278,809599	0
14.01.2021	20:34:09	0	0	2,598491	2,73825	90,774	0,63	77,796	3,5	1005,94	7,2	9,2	9,1	1	1	1	1	1	1	1	1	1	0	1	-46,018323	274,686315	276,779912	0
14.01.2021	20:34:10	0	0	3,05042	2,68875	78,066	0,628	77,793	3,5	1005,94	7,3	9,2	9	1	1	1	1	1	1	1	1	1	0	1	-48,907681	274,617213	273,565853	0
14.01.2021	20:34:11	0	0	4,519114	2,84625	83,34	0,626	77,784	3,5	1005,96	7,2	9,2	9,1	1	1	1	1	1	1	1	1	1	0	1	-46,723044	274,511733	275,255333	0
14.01.2021	20:34:12	0	0	3,05042	2,88	93,69	0,634	77,777	3,5	1006,08	7,2	9,2	9	1	1	1	1	1	1	1	1	1	0	1	-43,269908	274,549884	278,887496	0
14.01.2021	20:34:13	0	0	2,711485	2,91	88,578	0,64	77,769	3,5	1006,06	7,3	9,2	9	1	1	1	1	1	1	1	1	1	0	1	-48,484848	274,572811	273,780178	0
14.01.2021	20:34:14	0	0	2,937442	3,0285	91,17	0,635	77,749	3,5	1006,02	7,2	9,2	9	1	1	1	1	1	1	1	1	1	0	1	-42,565187	274,508685	279,398887	0
14.01.2021	20:34:15	0	0	3,389356	3,027	87,3612	0,628	77,747	3,5	1005,98	7,3	9,2	9	1	1	1	1	1	1	1	1	1	0	1	-43,904158	274,537668	278,195912	0
14.01.2021	20:34:16	0	0	3,954249	2,98575	89,3304	0,633	77,746	3,5	1005,96	7,2	9,2	9	1	1	1	1	1	1	1	1	1	0	1	-45,031712	274,670938	277,694245	0
14.01.2021	20:34:17	0	0	4,858048	2,91075	99,1512	0,633	77,742	3,5	1005,9	7,3	9,2	9,1	1	1	1	1	1	1	1	1	1	0	1	-51,021846	274,638685	271,552556	0
14.01.2021	20:34:18	0	0	4,519141	2,8995	86,6736	0,631	77,735	3,5	1006,08	7,2	9,2	9	1	1	1	1	1	1	1	1	1	0	1	-50,81043	274,658644	271,857756	0
14.01.2021	20:34:19	0	0	3,954249	2,7915	84,0456	0,629	77,73	3,5	1005,82	7,2	9,2	9	1	1	1	1	1	1	1	1	1	0	1	-46,793517	274,661717	275,889108	0
14.01.2021	20:34:20	0	0	3,728269	2,661	85,536	0,636	77,735	3,5	1005,98	7,3	9,2	9,1	1	1	1	1	1	1	1	1	1	0	1	-47,850599	274,499541	274,070581	0
14.01.2021	20:34:21	0	0	4,519141	2,595	66,5244	0,633	77,722	3,5	1006,18	7,2	9,2	9	1	1	1	1	1	1	1	1	1	0	1	-48,555321	274,629479	273,975836	0
14.01.2021	20:34:22	0	0	4,406163	2,5785	90,0108	0,633	77,709	3,5	1005,94	7,2	9,2	9	1	1	1	1	1	1	1	1	1	0	1	-44,397463	274,511733	277,580915	0
14.01.2021	20:34:23	0	0	3,728292	2,56125	84,0276	0,638	77,701	3,5	1006,08	7,2	9,2	9	1	1	1	1	1	1	1	1	1	0	1	-48,062016	274,502589	273,87346	0
14.01.2021	20:34:24	0	0	4,406163	2,445	82,3248	0,652	77,703	3,5	1006,2	7,3	9,2	9	1	1	1	1	1	1	1	1	1	0	1	-47,357294	274,614147	275,101842	0
14.01.2021	20:34:25	0	0	2,146592	2,43375	92,286	0,638	77,699	3,5	1006,04	7,2	9,2	9	1	1	1	1	1	1	1	1	1	0	1	-46,863989	274,663253	275,825857	0
14.01.2021	20:34:26	0	0	4,63212	2,46	77,5764	0,627	77,681	3,5	1006,1	7,2	9,2	9	1	1	1	1	1	1	1	1	1	0	1	-45,243129	274,542248	276,878436	0
14.01.2021	20:34:27	0	0	5,084034	2,595	79,7436	0,629	77,658	3,5	1006,12	7,2	9,2	9	1	1	1	1	1	1	1	1	1	0	1	-43,904158	274,678625	278,85793	0
14.01.2021	20:34:28	0	0	3,841247	3,01425	88,9524	0,632	77,665	3,5	1006	7,2	9,2	9,1	1	1	1	1	1	1	1	1	1	0	1	-52,008457	274,571281	270,24939	0
14.01.2021	20:34:29	0	0	2,711485	3,36225	75,2256	0,623	77,671	3,5	1005,96	7,2	9,2	9	1	1	1	1	1	1	1	1	1	0	1	-49,541931	274,505636	272,407842	0
14.01.2021	20:34:30	0	0	4,745098	3,6855	74,1564	0,63	77,659	3,5	1006	7,2	9,2	9	1	1	1	1	1	1	1	1	1	0	1	-46,723044	274,611082	275,721696	0
14.01.2021	20:34:31	0	0	4,519141	3,81675	79,4124	0,626	77,669	3,5	1006,06	7,2	9,2	9	1	1	1	1	1	1	1	1	1	0	1	-46,370684	274,684777	276,42032	0
14.01.2021	20:34:32	0	0	4,632092	3,77175	82,5984	0,629	77,681	3,5	1006,06	7,2	9,2	9,1	1	1	1	1	1	1	1	1	1	0	1	-47,286822	274,643289	275,309212	0
14.01.2021	20:34:33	0	0	2,485528	3,5355	79,0812	0,634	77,68	3,5	1005,92	7,2	9,2	9	1	1	1	1	1	1	1	1	1	0	1	-44,467935	274,654036	278,178598	0
14.01.2021	20:34:34	0	0	2,485528	3,243	60,2424	0,63	77,689	3,5	1006,08	7,2	9,3	9	1	1	1	1	1	1	1	1	1	0	1	-47,639183	274,657108	275,021785	0
14.01.2021	20:34:35	0	0	3,728292	3,21375	65,0628	0,629	77,704	3,5	1006,04	7,2	9,2	9	1	1	1	1	1	1	1	1	1	0	1	-46,088795	274,526985	275,961142	0
14.01.2021	20:34:36	0	0	2,711485	3,186	75,5964	0,629	77,7	3,5	1005,94	7,2	9,2	9	1	1	1	1	1	1	1	1	1	0	1	-50,317125	274,513258	271,668406	0
14.01.2021	20:34:37	0	0	4,293184	3,06525	75,978	0,628	77,725	3,5	1005,96	7,3	9,2	9	1	1	1	1	1	1	1	1	1	0	1	-47,991543	274,660181	274,683862	0
14.01.2021	20:34:38	0	0	2,711485	2,88825	80,1468	0,627	77,718	3,5	1005,86	7,2	9,2	9	1	1	1	1	1	1	1	1	1	0	1	-47,639183	274,516308	274,360656	0
14.01.2021	20:34:39	0	0	3,389356	2,6715	67,9824	0,631	77,747	3,5	1006,18	7,2	9,2	9	1	1	1	1	1	1	1	1	1	0	1	-47,56871	274,481267	274,266754	0
14.01.2021	20:34:40	0	0	2,824463	2,40075	78,2568	0,632	77,749	3,5	1006,06	7,2	9,2	9	1	1	1	1	1	1	1	1	1	0	1	-44,045102	274,624879	278,464441	0
14.01.2021	20:34:41	0	0	4,971055	2,43	70,5924	0,627	77,757	3,5	1006	7,2	9,2	9	1	1	1	1	1	1	1	1	1	0	1	-45,384073	274,501065	276,544254	0
14.01.2021	20:34:42	0	0	3,728292	2,508	65,4696	0,629	77,756	3,5	1006,2	7,3	9,2	9	1	1	1	1	1	1	1	1	1	0	1	-50,035236	274,552939	272,136509	0
14.01.2021	20:34:43	0	0	3,954249	2,5995	68,4288	0,628	77,763	3,5	1006,06	7,2	9,2	9	1	1	1	1	1	1	1	1	1	0	1	-49,119098	274,674012	273,62131	0
14.01.2021	20:34:44	0	0	2,598506	2,76825	64,242	0,629	77,77	3,5	1005,88	7,2	9,2	9	1	1	1	1	1	1	1	1	1	0	1	-45,806906	274,563637	276,415053	0
14.01.2021	20:34:45	0	0	3,389336	2,7555	59,8536	0,635	77,786	3,5	1006,08	7,2	9,2	9,1	1	1	1	1	1	1	1	1	1	0	1	-45,665962	274,650965	276,966139	0
14.01.2021	20:34:46	0	0	3,728292	2,69025	53,3556	0,627	77,771	3,5	1005,78	7,2	9,2	9	1	1	1	1	1	1	1	1	1	0	1	-40,803383	274,522408	281,22508	0
14.01.2021	20:34:47	0	0	4,180206	2,91375	50,3136	0,622	77,771	3,5	1005,84	7,2	9,2	9	1	1	1	1	1	1	1	1	1	0	1	-42,635659	274,536141	279,457247	0
14.01.2021	20:34:48	0	0	2,598491	3,0675	68,0256	0,626	77,779	3,5	1006,04	7,2	9,2	9,1	1	1	1	1	1	1	1	1	1	0	1	-48,132488	274,647894	274,485185	0
14.01.2021	20:34:49	0	0	4,293184	3,39675	66,906	0,632	77,78	3,5	1006,08	7,2	9,2	9	1	1	1	1	1	1	1	1	1	0	1	-46,793517	274,539194	275,313717	0
14.01.2021	20:34:50	0	0	3,502334	3,50175	74,5272	0,622	77,766	3,5	1005,98	7,2	9,2	9	1	1	1	1	1	1	1	1	1	0	1	-47,004933	274,674012	275,735475	0
14.01.2021	20:34:51	0	0	3,954249	3,41175	74,1852	0,622	77,748	3,5	1005,94	7,2	9,2	9	1	1	1	1	1	1	1	1	1	0	1	-51,092319	274,549884	271,065086	0
14.01.2021	20:34:52	0	0	3,502334	3,29625	69,4872	0,626	77,735	3,5	1005,92	7,2	9,2	9	1	1	1	1	1	1	1	1	1	0	1	-46,018323	274,655572	276,635427	0
14.01.2021	20:34:53	0	0	3,954249	3,15	70,596	0,623	77,747	3,5	1005,92	7,2	9,2	9	1	1	1	1	1	1	1	1	1	0	1	-44,538407	274,603422	277,870356	0
14.01.2021	20:34:54	0	0	2,937442	3,12525	76,824	0,628	77,746	3,5	1005,92	7,2	9,2	9	1	1	1	1	1	1	1	1	1	0	1	-44,467935	274,487357	277,39609	0
14.01.2021	20:34:55	0	0	4,63212	3,2445	72,6876	0,624	77,736	3,5	1006,16	7,2	9,2	9	1	1	1	1	1	1	1	1	1	0	1	-42,071882	274,635616	280,488103	0
14.01.2021	20:34:56	0	0	4,406163	3,693	66,9096	0,627	77,709	3,5	1006,06	7,2	9,2	9	1	1	1	1	1	1	1	1	1	0	1	-44,538407	274,672475	278,194775	0
14.01.2021	20:34:57	0	0	3,05042	3,82425	63,18	0,627	77,729	3,5	1006,12	7,2	9,2	9	1	1	1	1	1	1	1	1	1	0	1	-48,907681	274,502589	273,027794	0
14.01.2021	20:34:58	0	0	4,519141	3,6615	62,1036	0,631	77,718	3,5	1006,04	7,2	9,2	9	1	1	1	1	1	1	1	1	1	0	1	-46,159267	274,539194	275,947967	0
14.01.2021	20:34:59	0	0	4,63212	3,84825	62,7768	0,624	77,727	3,5	1005,82	7,2	9,2	9	1	1	1	1	1	1	1	1	1	0	1	-45,665962	274,479745	276,162364	0
14.01.2021	20:35:00	0	0	3,84127	3,67275	62,046	0,625	77,717	3,5	1005,96	7,2	9,2	9	1	1	1	1	1	1	1	1	1	0	1	-46,723044	274,646359	275,887415	0
14.01.2021	20:35:01	0	0	3,84127	3,67275	62,046	0,625	77,717	3,5	1005,96	7,2	9,2	9	1	1	1	1	1	1	1	1	1	0	1	-46,723044	274,646359	275,887415	0
14.01.2021	20:35:02	0	0	3,954249	3,222	85,1688	0,621	77,714	3,5	1006,02	7,2	9,2	9	1	1	1	1	1	1	1	1	1	0	1	-44,96124	274,549884	277,196164	0
14.01.2021	20:35:03	0	0	2,372549	2,93325	80,118	0,624	77,715	3,5	1005,88	7,2	9,2	9	1	1	1	1	1	1	1	1	1	0	1	-46,723044	274,485834	275,133839	0
14.01.2021	20:35:04	0	0	4,406163	2,7135	77,2236	0,625	77,702	3,5	1005,84	7,2	9,2	9	1	1	1	1	1	1	1	1	1	0	1	-44,820296	274,540721	277,294103	0
14.01.2021	20:35:05	0	0	3,84127	2,6355	81,5976	0,621	77,699	3,5	1006,02	7,2	9,2	9	1	1	1	1	1	1	1	1	1	0	1	-43,058492	274,470615	278,727017	0
14.01.2021	20:35:06	0	0	4,858077	2,72925	86,6916	0,619	77,678	3,5	1006,08	7,2	9,2	9	1	1	1	1	1	1	1	1	1	0	1	-46,441156	274,520883	275,58015	0
14.01.2021	20:35:07	0	0	2,824463	3,01425	86,6556	0,619	77,661	3,5	1005,98	7,2	9,2	9	1	1	1	1	1	1	1	1	1	0	1	-44,749824	274,641754	277,838999	0
14.01.2021	20:35:08	0	0	5,197012	2,982	84,0672	0,619	77,655	3,5	1005,96	7,2	9,2	9	1	1	1	1	1	1	1	1	1	0	1	-44,679352	274,611082	277,765389	0
14.01.2021	20:35:09	0	0	3,276358	2,8635	83,7432	0,617	77,668	3,5	1005,96	7,2	9,2	9,1	1	1	1	1	1	1	1	1	1	0	1	-49,18957	274,650965	273,442531	0
14.01.2021	20:35:10	0	0	2,598506	2,781	85,5324	0,619	77,651	3,5	1006,06	7,2	9,2	9	1	1	1	1	1	1	1	1	1	0	1	-46,723044	274,510209	275,248181	0
14.01.2021	20:35:11	0	0	4,519141	2,784	79,0128	0,613	77,632	3,5	1005,92	7,2	9,2	9	1	1	1	1	1	1	1	1	1	0	1	-44,326991	274,52851	277,730106	0
14.01.2021	20:35:12	0	0	2,937442	2,6985	98,784	0,621	77,642	3,5	1006,02	7,2	9,2	9	1	1	1	1	1	1	1	1	1	0	1	-44,890768	274,650965	277,741333	0
14.01.2021	20:35:13	0	0	3,05042	3,23775	96,9804	0,615	77,643	3,5	1005,9	7,2	9,2	9	1	1	1	1	1	1	1	1	1	0	1	-45,525018	274,57434	276,747189	0
14.01.2021	20:35:14	0	0	2,598506	3,72	97,7148	0,616	77,647	3,5	1006,1	7,2	9,2	9	1	1	1	1	1	1	1	1	1	0	1	-50,458069	274,632547	272,0875	0
14.01.2021	20:35:15	0	0	2,824463	3,825	94,0896	0,618	77,646	3,5	1006,1	7,2	9,2	9	1	1	1	1	1	1	1	1	1	0	1	-44,749824	274,548357	277,400411	0
14.01.2021	20:35:16	0	0	3,502313	4,01175	96,2172	0,62	77,658	3,5	1005,98	7,2	9,2	9,1	1	1	1	1	1	1	1	1	1	0	1	-47,004933	274,476701	274,809118	0
14.01.2021	20:35:17	0	0	2,598506	4,00275	89,3232	0,617	77,653	3,5	1006,14	7,2	9,2	9	1	1	1	1	1	1	1	1	1	0	1	-44,045102	274,525459	277,997676	0
14.01.2021	20:35:18	0	0	2,824463	3,74025	90,4104	0,611	77,68	3,5	1006,1	7,2	9,2	9	1	1	1	1	1	1	1	1	1	0	1	-45,525018	274,466052	276,239092	0
14.01.2021	20:35:19	0	0	4,067227	3,456	100,3644	0,614	77,689	3,5	1005,84	7,2	9,2	9	1	1	1	1	1	1	1	1	1	0	1	-52,360817	274,551412	269,803757	0
14.01.2021	20:35:20	0	0	3,502334	3,37575	89,4168	0,614	77,709	3,5	1005,88	7,2	9,2	9	1	1	1	1	1	1	1	1	1	0	1	-46,088795	274,640219	276,492817	0
14.01.2021	20:35:21	0	0	4,858077	3,4425	99,27	0,617	77,728	3,5	1006,12	7,2	9,2	9	1	1	1	1	1	1	1	1	1	0	1	-44,820296	274,557523	277,372965	0
14.01.2021	20:35:22	0	0	3,84127	3,591	101,8188	0,613	77,729	3,5	1006,14	7,2	9,2	9	1	1	1	1	1	1	1	1	1	0	1	-48,414376	274,647894	274,203296	0
14.01.2021	20:35:23	0	0	3,389356	3,7785	98,0928	0,617	77,761	3,5	1006,06	7,2	9,2	9	1	1	1	1	1	1	1	1	1	0	1	-45,525018	274,530036	276,53924	0
14.01.2021	20:35:24	0	0	2,824463	3,81375	85,1904	0,616	77,757	3,5	1005,84	7,2	9,2	9	1	1	1	1	1	1	1	1	1	0	1	-46,370684	274,473658	275,429095	0
14.01.2021	20:35:25	0	0	3,954249	3,7065	89,9928	0,602	77,759	3,5	1005,86	7,2	9,2	9	1	1	1	1	1	1	1	1	1	0	1	-47,21635	274,58811	275,120511	0
14.01.2021	20:35:26	0	0	4,63212	3,55725	93,366	0,61	77,781	3,5	1006	7,2	9,2	9	1	1	1	1	1	1	1	1	1	0	1	-47,56871	274,652501	275,070607	0
14.01.2021	20:35:27	0	0	3,502334	3,561	75,9708	0,615	77,802	3,5	1006	7,2	9,2	9	1	1	1	1	1	1	1	1	1	0	1	-48,273432	274,554467	273,905485	0
14.01.2021	20:35:28	0	0	4,406163	3,58725	80,1216	0,61	77,806	3,5	1006,06	7,2	9,2	9	1	1	1	1	1	1	1	1	1	0	1	-44,538407	274,641754	278,050415	0
14.01.2021	20:35:29	0	0	4,519141	3,56175	79,4304	0,607	77,799	3,5	1005,96	7,2	9,2	9	1	1	1	1	1	1	1	1	1	0	1	-49,753347	274,612615	272,698591	0
14.01.2021	20:35:30	0	0	3,502334	3,56325	77,5872	0,616	77,816	3,5	1006,14	7,2	9,2	9	1	1	1	1	1	1	1	1	1	0	1	-47,21635	274,47518	274,590565	0
14.01.2021	20:35:31	0	0	3,84127	3,56625	94,7844	0,611	77,81	3,5	1005,96	7,2	9,2	9	1	1	1	1	1	1	1	1	1	0	1	-47,004933	274,52851	275,052164	0
14.01.2021	20:35:32	0	0	4,406163	3,294	81,9612	0,613	77,815	3,5	1005,98	7,2	9,2	9	1	1	1	1	1	1	1	1	1	0	1	-48,062016	274,47518	273,744899	0
14.01.2021	20:35:33	0	0	4,293184	3,29175	90,0252	0,603	77,798	3,5	1005,92	7,2	9,2	9	1	1	1	1	1	1	1	1	1	0	1	-44,749824	274,63715	277,817369	0
14.01.2021	20:35:34	0	0	4,858077	3,31725	92,2572	0,612	77,802	3,5	1006,06	7,2	9,2	9	1	1	1	1	1	1	1	1	1	0	1	-49,048626	274,56058	273,158983	0
14.01.2021	20:35:35	0	0	3,84127	3,324	91,8936	0,614	77,793	3,5	1006,12	7,2	9,2	9	1	1	1	1	1	1	1	1	1	0	1	-47,709655	274,634082	274,843122	0
14.01.2021	20:35:36	0	0	3,276377	3,33525	83,376	0,611	77,794	3,5	1005,9	7,2	9,2	9	1	1	1	1	1	1	1	1	1	0	1	-46,934461	274,50716	275,022463	0
14.01.2021	20:35:37	0	0	2,598506	3,3735	81,5832	0,612	77,779	3,5	1005,92	7,2	9,2	9	1	1	1	1	1	1	1	1	1	0	1	-47,850599	274,482789	273,992004	0
14.01.2021	20:35:38	0	0	4,293184	3,57825	95,5332	0,602	77,785	3,5	1005,92	7,2	9,2	9	1	1	1	1	1	1	1	1	1	0	1	-49,260042	274,50716	272,696881	0
14.01.2021	20:35:39	0	0	2,824463	3,5145	98,4564	0,612	77,792	3,5	1006,04	7,2	9,2	9	1	1	1	1	1	1	1	1	1	0	1	-45,243129	274,641754	277,345694	0
14.01.2021	20:35:40	0	0	4,519141	3,4245	95,5368	0,609	77,777	3,5	1006,04	7,2	9,2	9	1	1	1	1	1	1	1	1	1	0	1	-47,921071	274,617213	274,552464	0
14.01.2021	20:35:41	0	0	3,389356	3,339	101,7828	0,612	77,781	3,5	1006,04	7,2	9,2	9	1	1	1	1	1	1	1	1	1	0	1	-46,511628	274,58658	275,818046	0
14.01.2021	20:35:42	0	0	3,163399	3,279	108,1224	0,619	77,774	3,5	1006,02	7,2	9,2	9	1	1	1	1	1	1	1	1	1	0	1	-50,317125	274,61568	272,14921	0
14.01.2021	20:35:43	0	0	4,63212	3,51	86,9832	0,606	77,814	3,5	1005,9	7,2	9,2	9	1	1	1	1	1	1	1	1	1	0	1	-42,212826	274,583519	280,102477	0
14.01.2021	20:35:44	0	0	4,519141	3,474	82,3536	0,611	77,759	3,5	1006	7,3	9,2	9	1	1	1	1	1	1	1	1	1	0	1	-47,850599	274,652501	274,788718	0
14.01.2021	20:35:45	0	0	3,276377	3,2085	68,7708	0,606	77,769	3,5	1005,98	7,2	9,2	9	1	1	1	1	1	1	1	1	1	0	1	-45,59549	274,491925	276,289963	0
14.01.2021	20:35:46	0	0	3,954249	3,183	90,8676	0,614	77,773	3,5	1006	7,2	9,2	9	1	1	1	1	1	1	1	1	1	0	1	-42,071882	274,46149	279,670835	0
14.01.2021	20:35:47	0	0	3,84127	3,18525	77,2092	0,609	77,779	3,5	1005,92	7,2	9,2	9	1	1	1	1	1	1	1	1	1	0	1	-45,806906	274,638685	276,767496	0
14.01.2021	20:35:48	0	0	3,163399	3,048	93,7296	0,607	77,786	3,5	1005,98	7,2	9,2	9	1	1	1	1	1	1	1	1	1	0	1	-45,454545	274,60955	276,982998	0
14.01.2021	20:35:49	0	0	4,63212	2,8665	79,3908	0,609	77,766	3,5	1005,92	7,2	9,2	9	1	1	1	1	1	1	1	1	1	0	1	-42,35377	274,449329	279,331928	0
14.01.2021	20:35:50	0	0	3,163399	2,8215	85,518	0,609	77,79	3,5	1006,1	7,2	9,2	9	1	1	1	1	1	1	1	1	1	0	1	-43,481325	274,490402	278,396985	0
14.01.2021	20:35:51	0	0	3,163399	2,88525	86,9796	0,605	77,78	3,5	1005,98	7,2	9,2	9	1	1	1	1	1	1	1	1	1	0	1	-47,850599	274,581989	274,45752	0
14.01.2021	20:35:52	0	0	2,711485	3,0885	81,5904	0,608	77,777	3,5	1005,9	7,2	9,2	9	1	1	1	1	1	1	1	1	1	0	1	-42,071882	274,449329	279,613817	0
14.01.2021	20:35:53	0	0	2,372549	3,46575	92,268	0,604	77,759	3,5	1005,94	7,2	9,2	9	1	1	1	1	1	1	1	1	1	0	1	-44,467935	274,552939	277,70381	0
14.01.2021	20:35:54	0	0	2,711485	3,552	86,6736	0,606	77,767	3,5	1006,1	7,2	9,2	9	1	1	1	1	1	1	1	1	1	0	1	-46,159267	274,638685	276,415135	0
14.01.2021	20:35:55	0	0	3,502334	3,42825	99,1476	0,615	77,765	3,5	1005,88	7,2	9,2	9	1	1	1	1	1	1	1	1	1	0	1	-50,458069	274,536141	271,634837	0
14.01.2021	20:35:56	0	0	4,406163	3,27675	91,8828	0,611	77,747	3,5	1005,98	7,2	9,2	9	1	1	1	1	1	1	1	1	1	0	1	-47,427766	274,634082	275,12501	0
14.01.2021	20:35:57	0	0	3,05042	3,16725	84,5172	0,613	77,764	3,5	1006,2	7,2	9,2	9	1	1	1	1	1	1	1	1	1	0	1	-45,525018	274,488879	276,346149	0
14.01.2021	20:35:58	0	0	3,389356	3,30675	82,6056	0,611	77,77	3,5	1006,04	7,3	9,2	9	1	1	1	1	1	1	1	1	1	0	1	-47,56871	274,565165	274,660425	0
14.01.2021	20:35:59	0	0	4,293184	3,849	69,8328	0,614	77,766	3,5	1006,06	7,2	9,2	9	1	1	1	1	1	1	1	1	1	0	1	-48,484848	274,530036	273,579409	0
14.01.2021	20:36:00	0	0	3,276377	3,834	72,6804	0,626	77,776	3,5	1006,1	7,2	9,2	9	1	1	1	1	1	1	1	1	1	0	1	-48,273432	274,577399	274,013137	0
14.01.2021	20:36:01	0	0	3,276377	3,834	72,6804	0,626	77,776	3,5	1006,1	7,2	9,2	9	1	1	1	1	1	1	1	1	1	0	1	-48,273432	274,577399	274,013137	0
14.01.2021	20:36:02	0	0	4,293184	3,918	87,75	0,604	77,747	3,5	1005,88	7,3	9,2	9	1	1	1	1	1	1	1	1	1	0	1	-47,427766	274,617213	275,045769	0
14.01.2021	20:36:03	0	0	3,05042	4,152	86,6556	0,609	77,757	3,5	1006	7,3	9,2	9	1	1	1	1	1	1	1	1	1	0	1	-45,031712	274,44629	276,639738	0
14.01.2021	20:36:04	0	0	3,389356	4,281	110,6856	0,598	77,74	3,5	1006,06	7,2	9,2	9	1	1	1	1	1	1	1	1	1	0	1	-44,749824	274,52851	277,307273	0
14.01.2021	20:36:05	0	0	2,372549	3,8535	114,8544	0,605	77,735	3,5	1006,06	7,2	9,2	9	1	1	1	1	1	1	1	1	1	0	1	-43,692741	274,458449	278,035717	0
14.01.2021	20:36:06	0	0	4,519141	3,4785	102,9456	0,601	77,719	3,5	1005,98	7,3	9,2	9	1	1	1	1	1	1	1	1	1	0	1	-47,709655	274,56058	274,497954	0
14.01.2021	20:36:07	0	0	3,163399	3,39375	114,4836	0,611	77,708	3,5	1005,96	7,3	9,2	9	1	1	1	1	1	1	1	1	1	0	1	-48,20296	274,431103	273,397292	0
14.01.2021	20:36:08	0	0	2,824463	3,59475	116,7228	0,608	77,692	3,5	1006,14	7,3	9,2	9	1	1	1	1	1	1	1	1	1	0	1	-45,806906	274,494971	276,092835	0
14.01.2021	20:36:09	0	0	3,389356	3,9225	113,0508	0,603	77,689	3,5	1005,92	7,2	9,2	9	1	1	1	1	1	1	1	1	1	0	1	-47,56871	274,623345	274,93363	0
14.01.2021	20:36:10	0	0	4,745098	3,9345	107,424	0,604	77,675	3,5	1005,86	7,3	9,2	9	1	1	1	1	1	1	1	1	1	0	1	-49,82382	274,598827	272,563366	0
14.01.2021	20:36:11	0	0	4,293184	4,12425	92,268	0,599	77,673	3,5	1005,88	7,3	9,2	9	1	1	1	1	1	1	1	1	1	0	1	-47,145877	274,478223	274,675311	0
14.01.2021	20:36:12	0	0	3,728292	4,2225	101,5092	0,594	77,664	3,5	1005,98	7,3	9,2	9	1	1	1	1	1	1	1	1	1	0	1	-46,441156	274,618746	276,039579	0
14.01.2021	20:36:13	0	0	3,389356	4,1865	95,1048	0,601	77,651	3,5	1005,92	7,2	9,2	9	1	1	1	1	1	1	1	1	1	0	1	-41,789993	274,499541	280,131187	0
14.01.2021	20:36:14	0	0	3,728292	4,12875	98,4672	0,6	77,677	3,5	1005,94	7,3	9,2	9	1	1	1	1	1	1	1	1	1	0	1	-45,384073	274,617213	277,089462	0
14.01.2021	20:36:15	0	0	2,711485	4,44075	105,9948	0,594	77,689	3,5	1005,98	7,2	9,2	9	1	1	1	1	1	1	1	1	1	0	1	-46,018323	274,46149	275,724394	0
14.01.2021	20:36:16	0	0	4,180206	4,26075	97,6968	0,601	77,72	3,5	1006,14	7,2	9,2	9	1	1	1	1	1	1	1	1	1	0	1	-48,273432	274,585049	274,049056	0
14.01.2021	20:36:17	0	0	4,180206	4,20675	88,0956	0,598	77,723	3,5	1005,86	7,3	9,2	9	1	1	1	1	1	1	1	1	1	0	1	-46,088795	274,459969	275,646792	0
14.01.2021	20:36:18	0	0	4,971055	4,4775	86,6556	0,592	77,727	3,5	1005,96	7,3	9,2	9	1	1	1	1	1	1	1	1	1	0	1	-43,692741	274,608018	278,737606	0
14.01.2021	20:36:19	0	0	3,05042	4,326	85,5036	0,598	77,755	3,5	1006,06	7,2	9,2	9	1	1	1	1	1	1	1	1	1	0	1	-46,441156	274,568223	275,802334	0
14.01.2021	20:36:20	0	0	4,745098	4,03425	87,3576	0,598	77,758	3,5	1005,98	7,2	9,2	9	1	1	1	1	1	1	1	1	1	0	1	-43,410853	274,432621	278,196516	0
14.01.2021	20:36:21	0	0	4,293184	3,819	88,578	0,59	77,755	3,5	1005,88	7,3	9,2	9	1	1	1	1	1	1	1	1	1	0	1	-47,850599	274,52851	274,206498	0
14.01.2021	20:36:22	0	0	4,067227	3,813	84,7908	0,597	77,759	3,5	1006,02	7,3	9,2	9	1	1	1	1	1	1	1	1	1	0	1	-47,780127	274,618746	274,700608	0
14.01.2021	20:36:23	0	0	3,615313	3,891	84,0636	0,599	77,791	3,5	1006,04	7,2	9,2	9	1	1	1	1	1	1	1	1	1	0	1	-43,904158	274,536141	278,188748	0
14.01.2021	20:36:24	0	0	2,372549	3,84375	76,8096	0,598	77,799	3,5	1005,94	7,3	9,2	9	1	1	1	1	1	1	1	1	1	0	1	-46,370684	274,437176	275,25804	0
14.01.2021	20:36:25	0	0	2,711485	3,86175	79,7436	0,591	77,813	3,5	1005,96	7,3	9,2	9	1	1	1	1	1	1	1	1	1	0	1	-41,930937	274,459969	279,80465	0
14.01.2021	20:36:26	0	0	3,84127	3,87825	68,4144	0,594	77,849	3,5	1005,98	7,3	9,2	9	1	1	1	1	1	1	1	1	1	0	1	-43,97463	274,562108	278,240154	0
14.01.2021	20:36:27	0	0	3,163399	3,95325	79,3908	0,594	77,875	3,5	1005,92	7	9,2	9	1	1	1	1	1	1	1	1	1	0	1	-47,145877	274,47518	274,661037	0
14.01.2021	20:36:28	0	0	2,711485	3,97575	93,3336	0,59	77,9	3,5	1005,98	7,3	9,2	9	1	1	1	1	1	1	1	1	1	0	1	-45,313601	274,470615	276,471908	0
14.01.2021	20:36:29	0	0	3,728292	3,864	84,4236	0,599	77,937	3,5	1006,04	7,3	9,2	9	1	1	1	1	1	1	1	1	1	0	1	-48,062016	274,437176	273,566708	0
14.01.2021	20:36:30	0	0	4,519141	3,66825	85,536	0,591	77,948	3,5	1005,74	7,3	9,2	9	1	1	1	1	1	1	1	1	1	0	1	-48,907681	274,516308	273,092157	0
14.01.2021	20:36:31	0	0	3,05042	3,65775	80,9028	0,594	77,966	3,5	1006,06	7,3	9,2	9	1	1	1	1	1	1	1	1	1	0	1	-49,82382	274,627946	272,700132	0
14.01.2021	20:36:32	0	0	4,858077	3,58875	79,7544	0,601	78,017	3,5	1005,68	7,1	9,2	9	1	1	1	1	1	1	1	1	1	0	1	-48,414376	274,554467	273,76454	0
14.01.2021	20:36:33	0	0	4,180206	3,4935	75,6216	0,6	78,035	3,5	1006,02	7,3	9,2	9	1	1	1	1	1	1	1	1	1	0	1	-44,749824	274,632547	277,795745	0
14.01.2021	20:36:34	0	0	2,937442	3,61275	79,758	0,595	78,037	3,5	1005,98	7,3	9,2	9	1	1	1	1	1	1	1	1	1	0	1	-49,753347	274,47518	272,053567	0
14.01.2021	20:36:35	0	0	2,937442	3,65475	80,5356	0,594	78,067	3,5	1006,04	7,3	9,2	9	1	1	1	1	1	1	1	1	1	0	1	-46,159267	274,623345	276,343073	0
14.01.2021	20:36:36	0	0	4,745098	3,59925	71,208	0,594	78,083	3,5	1006,02	7,3	9,2	9	1	1	1	1	1	1	1	1	1	0	1	-46,088795	274,548357	276,06144	0
14.01.2021	20:36:37	0	0	3,276377	3,56175	75,9924	0,596	78,079	3,5	1005,88	7,2	9,2	9	1	1	1	1	1	1	1	1	1	0	1	-45,172657	274,608018	277,257691	0
14.01.2021	20:36:38	0	0	2,711485	3,53625	74,9124	0,595	78,084	3,5	1006	7,3	9,2	9	1	1	1	1	1	1	1	1	1	0	1	-44,045102	274,60955	278,392442	0
14.01.2021	20:36:39	0	0	3,276377	3,4875	69,1704	0,596	78,082	3,5	1006,04	7,3	9,2	9	1	1	1	1	1	1	1	1	1	0	1	-48,484848	274,56058	273,72276	0
14.01.2021	20:36:40	0	0	2,485528	3,6435	75,978	0,598	78,089	3,5	1005,94	7,1	9,2	9	1	1	1	1	1	1	1	1	1	0	1	-46,088795	274,61568	276,37754	0
14.01.2021	20:36:41	0	0	4,858077	3,60675	72,2952	0,602	78,093	3,5	1005,82	7,1	9,2	9	1	1	1	1	1	1	1	1	1	0	1	-47,357294	274,58811	274,979566	0
14.01.2021	20:36:42	0	0	3,163399	3,48525	68,778	0,597	78,096	3,5	1006	7,3	9,2	9	1	1	1	1	1	1	1	1	1	0	1	-47,850599	274,491925	274,034854	0
14.01.2021	20:36:43	0	0	3,728292	3,31575	65,8368	0,6	78,106	3,5	1005,88	7,3	9,2	9	1	1	1	1	1	1	1	1	1	0	1	-46,018323	274,618746	276,462412	0
14.01.2021	20:36:44	0	0	4,519141	3,28575	60,2352	0,599	78,109	3,5	1006,08	7,2	9,2	9	1	1	1	1	1	1	1	1	1	0	1	-46,723044	274,617213	275,75049	0
14.01.2021	20:36:45	0	0	3,276377	3,21825	77,6664	0,603	78,099	3,5	1005,86	7,2	9,2	9	1	1	1	1	1	1	1	1	1	0	1	-45,031712	274,485834	276,825171	0
14.01.2021	20:36:46	0	0	3,502334	3,06975	67,3056	0,592	78,09	3,5	1005,84	7,3	9,2	9	1	1	1	1	1	1	1	1	1	0	1	-45,243129	274,563637	276,97883	0
14.01.2021	20:36:47	0	0	2,824463	2,94375	53,3376	0,603	78,087	3,5	1005,82	7,3	9,2	9	1	1	1	1	1	1	1	1	1	0	1	-44,749824	274,431103	276,850428	0
14.01.2021	20:36:48	0	0	4,293184	2,856	64,6128	0,604	78,066	3,5	1005,92	7,3	9,2	9	1	1	1	1	1	1	1	1	1	0	1	-44,749824	274,555995	277,436265	0
14.01.2021	20:36:49	0	0	2,711485	2,58825	52,1136	0,604	78,063	3,5	1006,12	7,3	9,2	9	1	1	1	1	1	1	1	1	1	0	1	-43,97463	274,623345	278,52771	0
14.01.2021	20:36:50	0	0	4,519141	2,457	54,1008	0,606	78,061	3,5	1006,16	7,3	9,2	9	1	1	1	1	1	1	1	1	1	0	1	-50,105708	274,525459	271,93707	0
14.01.2021	20:36:51	0	0	4,406163	2,2995	51,4368	0,605	78,044	3,5	1006,18	7,1	9,2	9	1	1	1	1	1	1	1	1	1	0	1	-44,115574	274,618746	278,365161	0
14.01.2021	20:36:52	0	0	3,05042	2,367	42,8868	0,603	78,043	3,5	1006,04	7,3	9,2	9	1	1	1	1	1	1	1	1	1	0	1	-51,233263	274,487357	270,630762	0
14.01.2021	20:36:53	0	0	4,406163	2,43225	58,086	0,599	78,014	3,5	1005,94	7,1	9,2	9	1	1	1	1	1	1	1	1	1	0	1	-47,850599	274,585049	274,471889	0
14.01.2021	20:36:54	0	0	2,937442	2,3775	55,9224	0,603	78,005	3,5	1005,9	7,3	9,2	9	1	1	1	1	1	1	1	1	1	0	1	-49,894292	274,501065	272,034035	0
14.01.2021	20:36:55	0	0	4,971055	2,442	73,6056	0,609	78,003	3,5	1005,92	7,3	9,2	9	1	1	1	1	1	1	1	1	1	0	1	-46,652572	274,603422	275,756191	0
14.01.2021	20:36:56	0	0	3,389356	2,4435	61,2828	0,603	77,975	3,5	1005,82	7,3	9,2	9	1	1	1	1	1	1	1	1	1	0	1	-44,608879	274,504112	277,333744	0
14.01.2021	20:36:57	0	0	4,067227	2,379	48,1248	0,601	77,977	3,5	1006,08	7,3	9,2	9	1	1	1	1	1	1	1	1	1	0	1	-48,273432	274,459969	273,462155	0
14.01.2021	20:36:58	0	0	2,824463	2,55075	43,6716	0,608	77,976	3,5	1006	7,3	9,2	9	1	1	1	1	1	1	1	1	1	0	1	-41,649049	274,44629	280,022402	0
14.01.2021	20:36:59	0	0	4,745098	2,5365	74,1492	0,608	77,967	3,5	1005,88	7,3	9,2	9	1	1	1	1	1	1	1	1	1	0	1	-48,273432	274,505636	273,676341	0
14.01.2021	20:37:00	0	0	2,711485	2,661	70,6104	0,603	77,952	3,5	1006,04	7,3	9,2	9	1	1	1	1	1	1	1	1	1	0	1	-45,947851	274,629479	276,583306	0
14.01.2021	20:37:01	0	0	4,519141	2,46	86,688	0,602	77,938	3,5	1005,94	7,3	9,2	9	1	1	1	1	1	1	1	1	1	0	1	-50,035236	274,536141	272,05767	0
14.01.2021	20:37:02	0	0	4,519141	2,46	86,688	0,602	77,938	3,5	1005,94	7,3	9,2	9	1	1	1	1	1	1	1	1	1	0	1	-45,877378	274,608018	276,552969	0
14.01.2021	20:37:03	0	0	5,197012	2,51325	88,9524	0,607	77,947	3,5	1005,94	7,3	9,2	9	1	1	1	1	1	1	1	1	1	0	1	-46,793517	274,56058	275,414092	0
14.01.2021	20:37:04	0	0	2,372549	2,65875	77,5764	0,608	77,946	3,5	1006,02	7,3	9,2	9	1	1	1	1	1	1	1	1	1	0	1	-49,541931	274,438695	272,093912	0
14.01.2021	20:37:05	0	0	2,824463	2,94075	105,1164	0,605	77,923	3,5	1005,94	7,3	9,2	9	1	1	1	1	1	1	1	1	1	0	1	-49,18957	274,565165	273,039565	0
14.01.2021	20:37:06	0	0	3,728292	2,886	85,5	0,608	77,915	3,5	1005,88	7,1	9,2	9	1	1	1	1	1	1	1	1	1	0	1	-47,780127	274,44629	273,891324	0
14.01.2021	20:37:07	0	0	2,711485	2,658	97,3296	0,608	77,91	3,5	1006,12	7,3	9,2	9	1	1	1	1	1	1	1	1	1	0	1	-46,370684	274,57434	275,901523	0
14.01.2021	20:37:08	0	0	4,971055	2,47875	89,2908	0,611	77,913	3,5	1005,94	7,1	9,2	9	1	1	1	1	1	1	1	1	1	0	1	-44,679352	274,632547	277,866217	0
14.01.2021	20:37:09	0	0	3,276377	2,2365	78,2928	0,612	77,894	3,5	1006,12	7,3	9,2	9	1	1	1	1	1	1	1	1	1	0	1	-45,806906	274,502589	276,128569	0
14.01.2021	20:37:10	0	0	2,824463	2,0535	44,406	0,605	77,861	3,5	1005,94	7,3	9,2	9	1	1	1	1	1	1	1	1	1	0	1	-44,467935	274,61568	277,9984	0
14.01.2021	20:37:11	0	0	3,502334	1,878	71,5896	0,611	77,852	3,5	1005,94	7,1	9,2	9	1	1	1	1	1	1	1	1	1	0	1	-46,652572	274,578929	275,64118	0
14.01.2021	20:37:12	0	0	3,615313	1,89225	29,5632	0,609	77,822	3,5	1005,62	7,3	9,2	9	1	1	1	1	1	1	1	1	1	0	1	-45,384073	274,443252	276,273132	0
14.01.2021	20:37:13	0	0	4,067227	2,25075	81,2016	0,613	77,822	3,5	1005,96	7,3	9,2	9	1	1	1	1	1	1	1	1	1	0	1	-51,303735	274,530036	270,760522	0
14.01.2021	20:37:14	0	0	3,728292	2,30325	52,8984	0,604	77,796	3,5	1005,92	7,3	9,2	9	1	1	1	1	1	1	1	1	1	0	1	-43,269908	274,632547	279,275661	0
14.01.2021	20:37:15	0	0	4,406163	2,265	52,506	0,611	77,792	3,5	1006,06	7,1	9,2	9	1	1	1	1	1	1	1	1	1	0	1	-46,793517	274,50716	275,163407	0
14.01.2021	20:37:16	0	0	2,711485	2,22975	61,308	0,612	77,772	3,5	1005,9	7,3	9,2	9	1	1	1	1	1	1	1	1	1	0	1	-48,273432	274,620279	274,214504	0
14.01.2021	20:37:17	0	0	4,180206	2,2305	47,4444	0,612	77,754	3,5	1005,96	7,1	9,2	9	1	1	1	1	1	1	1	1	1	0	1	-52,995067	274,562108	269,219717	0
14.01.2021	20:37:18	0	0	4,745098	2,4	58,482	0,614	77,756	3,5	1006,06	7,1	9,2	9	1	1	1	1	1	1	1	1	1	0	1	-48,273432	274,44629	273,398018	0
14.01.2021	20:37:19	0	0	2,485528	2,82075	66,5352	0,611	77,711	3,5	1005,94	7,3	9,2	9	1	1	1	1	1	1	1	1	1	0	1	-46,723044	274,469094	275,055331	0
14.01.2021	20:37:20	0	0	2,711485	3,18825	59,4864	0,605	77,707	3,5	1006,02	7,1	9,2	9	1	1	1	1	1	1	1	1	1	0	1	-44,890768	274,453888	276,816307	0
14.01.2021	20:37:21	0	0	3,05042	3,249	52,8876	0,609	77,69	3,5	1006	7,3	9,2	9	1	1	1	1	1	1	1	1	1	0	1	-45,102185	274,493448	276,790412	0
14.01.2021	20:37:22	0	0	3,84127	3,0825	69,138	0,604	77,692	3,5	1005,96	7,3	9,2	9	1	1	1	1	1	1	1	1	1	0	1	-46,793517	274,617213	275,680018	0
14.01.2021	20:37:23	0	0	2,937442	2,832	86,9688	0,607	77,67	3,5	1005,96	7,3	9,1	9	1	1	1	1	1	1	1	1	1	0	1	-44,326991	274,50716	277,629933	0
14.01.2021	20:37:24	0	0	4,406163	2,75325	69,93	0,611	77,677	3,5	1005,94	7,1	9,2	9	1	1	1	1	1	1	1	1	1	0	1	-47,427766	274,423513	274,136912	0
14.01.2021	20:37:25	0	0	4,971055	2,868	72,648	0,607	77,664	3,5	1005,96	7,3	9,2	9	1	1	1	1	1	1	1	1	1	0	1	-45,806906	274,498018	276,107127	0
14.01.2021	20:37:26	0	0	3,389356	3,09675	91,1664	0,61	77,676	3,5	1005,88	7,1	9,2	9	1	1	1	1	1	1	1	1	1	0	1	-44,186047	274,608018	278,244301	0
14.01.2021	20:37:27	0	0	4,067227	3,06	74,16	0,612	77,683	3,5	1005,94	7,1	9,2	9	1	1	1	1	1	1	1	1	1	0	1	-47,780127	274,563637	274,441832	0
14.01.2021	20:37:28	0	0	2,372549	2,95125	82,3464	0,612	77,693	3,5	1006,06	7,1	9,2	9	1	1	1	1	1	1	1	1	1	0	1	-50,317125	274,412893	271,197779	0
14.01.2021	20:37:29	0	0	3,84127	2,89575	82,3428	0,605	77,665	3,5	1005,94	7,3	9,2	9	1	1	1	1	1	1	1	1	1	0	1	-46,934461	274,508685	275,029613	0
14.01.2021	20:37:30	0	0	4,180206	3,28725	73,0296	0,609	77,679	3,5	1006,08	7,1	9,2	9	1	1	1	1	1	1	1	1	1	0	1	-45,384073	274,435658	276,237531	0
14.01.2021	20:37:31	0	0	3,954249	3,474	54,7848	0,612	77,688	3,5	1006,1	7,1	9,2	9	1	1	1	1	1	1	1	1	1	0	1	-46,793517	274,549884	275,363888	0
14.01.2021	20:37:32	0	0	3,84127	3,615	61,308	0,613	77,665	3,5	1006	7,3	9,2	9	1	1	1	1	1	1	1	1	1	0	1	-44,538407	274,597296	277,841586	0
14.01.2021	20:37:33	0	0	2,937442	3,9825	65,4696	0,603	77,644	3,5	1005,88	7,3	9,2	9	1	1	1	1	1	1	1	1	1	0	1	-46,5821	274,50716	275,374823	0
14.01.2021	20:37:34	0	0	4,971055	4,2915	72,2952	0,612	77,623	3,5	1005,86	7,3	9,2	9	1	1	1	1	1	1	1	1	1	0	1	-47,145877	274,612615	275,306061	0
14.01.2021	20:37:35	0	0	3,05042	4,659	72,6552	0,607	77,608	3,5	1005,9	7,1	9,2	9	1	1	1	1	1	1	1	1	1	0	1	-43,058492	274,472137	278,734151	0
14.01.2021	20:37:36	0	0	2,937442	5,01375	58,5432	0,611	77,607	3,5	1006,04	7,1	9,2	9	1	1	1	1	1	1	1	1	1	0	1	-49,471459	274,412893	272,043445	0
14.01.2021	20:37:37	0	0	4,180206	4,7205	77,9508	0,607	77,604	3,5	1005,96	7,1	9,2	9	1	1	1	1	1	1	1	1	1	0	1	-44,538407	274,476701	277,275643	0
14.01.2021	20:37:38	0	0	2,485528	4,24425	87,7068	0,607	77,6	3,5	1005,96	7,1	9,2	9	1	1	1	1	1	1	1	1	1	0	1	-44,467935	274,450849	277,224888	0
14.01.2021	20:37:39	0	0	3,389356	4,23525	95,8248	0,605	77,592	3,5	1005,94	7,1	9,1	9	1	1	1	1	1	1	1	1	1	0	1	-47,639183	274,569752	274,611485	0
14.01.2021	20:37:40	0	0	3,276377	4,8555	109,9728	0,598	77,572	3,5	1005,94	7,1	9,2	9	1	1	1	1	1	1	1	1	1	0	1	-49,18957	274,546829	272,953497	0
14.01.2021	20:37:41	0	0	3,954249	5,7105	84,3876	0,605	77,585	3,5	1006	7,1	9,2	9	1	1	1	1	1	1	1	1	1	0	1	-44,045102	274,562108	278,169681	0
14.01.2021	20:37:42	0	0	2,372549	6,2085	95,1516	0,61	77,597	3,5	1006,06	7,1	9,2	9	1	1	1	1	1	1	1	1	1	0	1	-45,243129	274,443252	276,414076	0
14.01.2021	20:37:43	0	0	3,615313	6,4275	85,536	0,605	77,594	3,5	1005,98	7,1	9,2	9	1	1	1	1	1	1	1	1	1	0	1	-48,273432	274,450849	273,419391	0
14.01.2021	20:37:44	0	0	4,180206	6,53475	82,9764	0,601	77,59	3,5	1005,76	7,1	9,2	9	1	1	1	1	1	1	1	1	1	0	1	-45,031712	274,583519	277,28359	0
14.01.2021	20:37:45	0	0	2,711485	6,65325	88,56	0,609	77,618	3,5	1006	7,1	9,2	9	1	1	1	1	1	1	1	1	1	0	1	-44,749824	274,60189	277,651746	0
14.01.2021	20:37:46	0	0	4,745098	6,50175	83,79	0,609	77,619	3,5	1006	7,1	9,2	9	1	1	1	1	1	1	1	1	1	0	1	-45,806906	274,488879	276,064261	0
14.01.2021	20:37:47	0	0	3,615313	6,40575	88,0884	0,607	77,619	3,5	1005,98	7,1	9,2	9	1	1	1	1	1	1	1	1	1	0	1	-46,441156	274,408343	275,052426	0
14.01.2021	20:37:48	0	0	5,084034	6,2955	84,402	0,608	77,613	3,5	1006,02	7,3	9,2	9	1	1	1	1	1	1	1	1	1	0	1	-46,370684	274,546829	275,772383	0
14.01.2021	20:37:49	0	0	4,63212	6,04875	80,5068	0,605	77,623	3,5	1005,94	7,1	9,2	9	1	1	1	1	1	1	1	1	1	0	1	-50,458069	274,604954	271,957888	0
14.01.2021	20:37:50	0	0	2,372549	6,2835	70,2324	0,603	77,617	3,5	1005,92	7,1	9,2	9	1	1	1	1	1	1	1	1	1	0	1	-47,145877	274,546829	274,997189	0
14.01.2021	20:37:51	0	0	4,519141	6,537	76,8276	0,628	77,621	3,5	1005,98	7,1	9,2	9	1	1	1	1	1	1	1	1	1	0	1	-45,454545	274,598827	276,93264	0
14.01.2021	20:37:52	0	0	2,711485	6,61575	75,6108	0,607	77,613	3,5	1005,98	7,1	9,2	9	1	1	1	1	1	1	1	1	1	0	1	-45,102185	274,473658	276,697594	0
14.01.2021	20:37:53	0	0	4,180206	6,74175	82,5804	0,605	77,608	3,5	1005,96	7,1	9,2	9	1	1	1	1	1	1	1	1	1	0	1	-45,736434	274,58811	276,600426	0
14.01.2021	20:37:54	0	0	3,05042	6,666	76,8276	0,602	77,592	3,5	1005,94	7,1	9,1	9	1	1	1	1	1	1	1	1	1	0	1	-47,498238	274,56058	274,709371	0
14.01.2021	20:37:55	0	0	3,389356	6,45825	75,9888	0,601	77,573	3,5	1005,92	7,1	9,2	9	1	1	1	1	1	1	1	1	1	0	1	-45,243129	274,594233	277,122484	0
14.01.2021	20:37:56	0	0	4,971055	6,2655	69,4764	0,604	77,587	3,5	1006,06	7,1	9,2	9	1	1	1	1	1	1	1	1	1	0	1	-44,538407	274,565165	277,690728	0
14.01.2021	20:37:57	0	0	2,598506	6,099	78,2856	0,601	77,567	3,5	1005,96	7,1	9,2	9	1	1	1	1	1	1	1	1	1	0	1	-47,498238	274,566694	274,738074	0
14.01.2021	20:37:58	0	0	2,485528	6,111	74,25	0,608	77,583	3,5	1006,06	7,1	9,2	9	1	1	1	1	1	1	1	1	1	0	1	-48,978154	274,606486	273,444998	0
14.01.2021	20:37:59	0	0	3,728292	6,17175	85,5252	0,601	77,59	3,5	1005,96	7,3	9,1	9	1	1	1	1	1	1	1	1	1	0	1	-49,330514	274,46301	272,419333	0
14.01.2021	20:38:00	0	0	3,954249	6,435	91,242	0,6	77,59	3,5	1005,94	7,1	9,2	9	1	1	1	1	1	1	1	1	1	0	1	-50,17618	274,551412	271,988394	0
14.01.2021	20:38:01	0	0	3,954249	6,435	91,242	0,6	77,59	3,5	1005,94	7,1	9,2	9	1	1	1	1	1	1	1	1	1	0	1	-50,17618	274,551412	271,988394	0
14.01.2021	20:38:02	0	0	2,711485	6,44625	88,578	0,607	77,59	3,5	1005,96	7,1	9,2	9	1	1	1	1	1	1	1	1	1	0	1	-41,930937	274,421996	279,626629	0
14.01.2021	20:38:03	0	0	4,067227	6,12675	71,2368	0,603	77,607	3,5	1005,94	7,1	9,2	9	1	1	1	1	1	1	1	1	1	0	1	-47,780127	274,555995	274,405962	0
14.01.2021	20:38:04	0	0	4,858077	5,63175	76,338	0,593	77,602	3,5	1005,94	7,1	9,2	9	1	1	1	1	1	1	1	1	1	0	1	-44,96124	274,444771	276,703087	0
14.01.2021	20:38:05	0	0	3,389356	5,30625	77,292	0,596	77,608	3,5	1005,98	7,1	9,2	9	1	1	1	1	1	1	1	1	1	0	1	-41,508104	274,510209	280,463121	0
14.01.2021	20:38:06	0	0	2,711485	5,22525	75,9636	0,599	77,594	3,5	1005,8	7,1	9,2	9	1	1	1	1	1	1	1	1	1	0	1	-46,159267	274,435658	275,462337	0
14.01.2021	20:38:07	0	0	3,502334	5,21625	73,0404	0,602	77,616	3,5	1005,86	7,1	9,2	9	1	1	1	1	1	1	1	1	1	0	1	-48,273432	274,554467	273,905485	0
14.01.2021	20:38:08	0	0	4,63212	5,3355	70,8444	0,602	77,629	3,5	1006,08	7,1	9,2	9	1	1	1	1	1	1	1	1	1	0	1	-45,736434	274,44629	275,935016	0
14.01.2021	20:38:09	0	0	4,406163	5,226	69,1524	0,6	77,62	3,5	1005,88	7,3	9,1	9	1	1	1	1	1	1	1	1	1	0	1	-46,863989	274,499541	275,057191	0
14.01.2021	20:38:10	0	0	3,728292	5,136	77,1948	0,606	77,618	3,5	1006,06	7,1	9,2	9	1	1	1	1	1	1	1	1	1	0	1	-45,59549	274,641754	276,993333	0
14.01.2021	20:38:11	0	0	2,937442	4,97025	73,7928	0,6	77,606	3,5	1005,96	7,1	9,1	9	1	1	1	1	1	1	1	1	1	0	1	-47,850599	274,551412	274,313976	0
14.01.2021	20:38:12	0	0	2,598506	4,86675	92,3688	0,604	77,609	3,5	1005,96	7,1	9,1	9	1	1	1	1	1	1	1	1	1	0	1	-42,98802	274,438695	278,647823	0
14.01.2021	20:38:13	0	0	4,519141	5,0055	93,7908	0,599	77,615	3,5	1005,8	7,1	9,2	9	1	1	1	1	1	1	1	1	1	0	1	-47,145877	274,510209	274,825348	0
14.01.2021	20:38:14	0	0	2,711485	4,5525	73,0656	0,604	77,614	3,5	1005,94	7,1	9,2	9	1	1	1	1	1	1	1	1	1	0	1	-48,837209	274,617213	273,636326	0
14.01.2021	20:38:15	0	0	5,422969	4,035	89,3196	0,6	77,614	3,5	1005,92	7,1	9,2	9	1	1	1	1	1	1	1	1	1	0	1	-47,709655	274,594233	274,655959	0
14.01.2021	20:38:16	0	0	3,728292	4,12125	91,152	0,595	77,614	3,5	1005,86	7,1	9,2	9	1	1	1	1	1	1	1	1	1	0	1	-46,511628	274,456929	275,209702	0
14.01.2021	20:38:17	0	0	2,598506	4,22475	89,6904	0,607	77,609	3,5	1006,06	7,1	9,1	9	1	1	1	1	1	1	1	1	1	0	1	-40,310078	274,494971	281,589664	0
14.01.2021	20:38:18	0	0	2,824463	3,768	81,9756	0,603	77,612	3,5	1006,14	7,1	9,2	9	1	1	1	1	1	1	1	1	1	0	1	-50,528541	274,621812	271,966597	0
14.01.2021	20:38:19	0	0	2,372549	3,71325	89,3196	0,6	77,601	3,5	1005,82	7,1	9,2	9	1	1	1	1	1	1	1	1	1	0	1	-47,21635	274,496494	274,690537	0
14.01.2021	20:38:20	0	0	3,05042	4,06125	92,664	0,603	77,626	3,5	1006	7,1	9,1	9	1	1	1	1	1	1	1	1	1	0	1	-45,031712	274,60189	277,369857	0
14.01.2021	20:38:21	0	0	3,954249	4,01625	74,1888	0,6	77,636	3,5	1005,88	7,1	9,1	9	1	1	1	1	1	1	1	1	1	0	1	-42,847075	274,473658	278,952703	0
14.01.2021	20:38:22	0	0	4,63212	4,1505	63,18	0,604	77,643	3,5	1005,9	7,1	9,1	9	1	1	1	1	1	1	1	1	1	0	1	-47,21635	274,631013	275,322013	0
14.01.2021	20:38:23	0	0	2,259571	4,2255	77,2056	0,612	77,648	3,5	1005,88	7,1	9,1	9	1	1	1	1	1	1	1	1	1	0	1	-44,115574	274,488879	277,755593	0
14.01.2021	20:38:24	0	0	2,824463	4,0995	78,2712	0,601	77,651	3,5	1005,86	7,3	9,2	9	1	1	1	1	1	1	1	1	1	0	1	-45,384073	274,604954	277,031884	0
14.01.2021	20:38:25	0	0	4,63212	3,924	74,5308	0,6	77,66	3,5	1005,88	7,1	9,2	9	1	1	1	1	1	1	1	1	1	0	1	-50,035236	274,591172	272,315999	0
14.01.2021	20:38:26	0	0	4,406163	4,0065	79,0452	0,6	77,676	3,5	1006,02	7,3	9,2	9	1	1	1	1	1	1	1	1	1	0	1	-42,917548	274,632547	279,628021	0
14.01.2021	20:38:27	0	0	3,389356	4,0365	81,972	0,6	77,677	3,5	1005,88	7,1	9,2	9	1	1	1	1	1	1	1	1	1	0	1	-43,904158	274,505636	278,045615	0
14.01.2021	20:38:28	0	0	4,745098	4,0215	70,2288	0,6	77,677	3,5	1005,94	7,1	9,2	9	1	1	1	1	1	1	1	1	1	0	1	-52,501762	274,459969	269,233825	0
14.01.2021	20:38:29	0	0	4,519141	4,00425	65,466	0,602	77,687	3,5	1006,04	7,3	9,2	9	1	1	1	1	1	1	1	1	1	0	1	-47,286822	274,600359	275,107555	0
14.01.2021	20:38:30	0	0	4,745098	3,92325	93,708	0,612	77,698	3,5	1005,96	7,1	9,2	9	1	1	1	1	1	1	1	1	1	0	1	-45,172657	274,473658	276,627122	0
14.01.2021	20:38:31	0	0	2,937442	4,0215	85,1616	0,598	77,683	3,5	1005,9	7,3	9,2	9	1	1	1	1	1	1	1	1	1	0	1	-48,273432	274,481267	273,562032	0
14.01.2021	20:38:32	0	0	4,293184	3,93525	80,154	0,596	77,676	3,5	1005,84	7,1	9,2	9	1	1	1	1	1	1	1	1	1	0	1	-44,538407	274,597296	277,841586	0
14.01.2021	20:38:33	0	0	2,711485	3,9375	77,994	0,609	77,679	3,5	1005,92	7,1	9,2	9	1	1	1	1	1	1	1	1	1	0	1	-47,498238	274,478223	274,32295	0
14.01.2021	20:38:34	0	0	4,63212	3,9285	79,0344	0,599	77,658	3,5	1005,88	7,1	9,2	9	1	1	1	1	1	1	1	1	1	0	1	-47,921071	274,572811	274,343955	0
14.01.2021	20:38:35	0	0	4,519141	3,82275	66,5352	0,603	77,659	3,5	1006,02	7,1	9,2	9	1	1	1	1	1	1	1	1	1	0	1	-47,56871	274,634082	274,984066	0
14.01.2021	20:38:36	0	0	3,84127	3,50775	67,2984	0,603	77,667	3,5	1005,88	7,1	9,1	9	1	1	1	1	1	1	1	1	1	0	1	-48,696265	274,589641	273,647783	0
14.01.2021	20:38:37	0	0	4,63212	3,38325	74,1564	0,603	77,649	3,5	1006,04	7,1	9,2	9	1	1	1	1	1	1	1	1	1	0	1	-46,511628	274,571281	275,746219	0
14.01.2021	20:38:38	0	0	2,937442	3,34875	71,2188	0,605	77,66	3,5	1005,82	7,3	9,1	9	1	1	1	1	1	1	1	1	1	0	1	-45,736434	274,470615	276,049075	0
14.01.2021	20:38:39	0	0	2,824463	3,53775	68,7708	0,6	77,649	3,5	1006,04	7,3	9,2	9	1	1	1	1	1	1	1	1	1	0	1	-50,17618	274,476701	271,63787	0
14.01.2021	20:38:40	0	0	2,824463	3,59775	76,3596	0,599	77,647	3,5	1005,88	7,3	9,2	9	1	1	1	1	1	1	1	1	1	0	1	-41,649049	274,493448	280,243548	0
14.01.2021	20:38:41	0	0	2,598522	3,525	69,5592	0,605	77,653	3,5	1005,84	7,1	9,2	8,9	1	1	1	1	1	1	1	1	1	0	1	-43,763214	274,598827	278,623972	0
14.01.2021	20:38:42	0	0	3,728292	3,3315	62,4132	0,605	77,66	3,5	1006	7,3	9,2	9	1	1	1	1	1	1	1	1	1	0	1	-46,934461	274,63715	275,632732	0
14.01.2021	20:38:43	0	0	3,615313	3,162	76,356	0,605	77,644	3,5	1005,92	7,3	9,2	9	1	1	1	1	1	1	1	1	1	0	1	-48,062016	274,562108	274,152768	0
14.01.2021	20:38:44	0	0	4,519141	2,98725	73,4472	0,604	77,673	3,5	1005,92	7,3	9,1	9	1	1	1	1	1	1	1	1	1	0	1	-47,357294	274,604954	275,058663	0
14.01.2021	20:38:45	0	0	4,067227	2,92425	79,3908	0,606	77,679	3,5	1006,04	7,1	9,1	9	1	1	1	1	1	1	1	1	1	0	1	-51,092319	274,44629	270,579132	0
14.01.2021	20:38:46	0	0	4,406163	2,826	80,5392	0,594	77,659	3,5	1005,86	7,3	9,1	9	1	1	1	1	1	1	1	1	1	0	1	-49,612403	274,554467	272,566513	0
14.01.2021	20:38:47	0	0	2,937442	2,77575	74,9448	0,6	77,657	3,5	1005,72	7,3	9,2	9	1	1	1	1	1	1	1	1	1	0	1	-46,5821	274,631013	275,956262	0
14.01.2021	20:38:48	0	0	3,502334	2,87775	67,2804	0,601	77,653	3,5	1006,2	7,3	9,2	9	1	1	1	1	1	1	1	1	1	0	1	-48,414376	274,502589	273,521099	0
14.01.2021	20:38:49	0	0	3,728292	2,913	68,022	0,605	77,655	3,5	1005,98	7,1	9,2	9	1	1	1	1	1	1	1	1	1	0	1	-47,709655	274,485834	274,147229	0
14.01.2021	20:38:50	0	0	4,067227	2,7585	70,8372	0,61	77,667	3,5	1006,02	7,1	9,1	9	1	1	1	1	1	1	1	1	1	0	1	-44,397463	274,580459	277,903472	0
14.01.2021	20:38:51	0	0	2,937442	2,44875	72,6768	0,604	77,659	3,5	1005,86	7,1	9,2	9	1	1	1	1	1	1	1	1	1	0	1	-47,427766	274,466052	274,336344	0
14.01.2021	20:38:52	0	0	2,937442	2,38125	68,0256	0,599	77,649	3,5	1006,1	7,1	9,2	9	1	1	1	1	1	1	1	1	1	0	1	-45,736434	274,482789	276,106169	0
14.01.2021	20:38:53	0	0	3,728292	2,4675	57,024	0,602	77,622	3,5	1005,76	7,1	9,1	9	1	1	1	1	1	1	1	1	1	0	1	-46,088795	274,499541	275,832385	0
14.01.2021	20:38:54	0	0	3,615313	2,56725	59,8572	0,608	77,635	3,5	1006	7,3	9,2	9	1	1	1	1	1	1	1	1	1	0	1	-46,934461	274,494971	274,965281	0
14.01.2021	20:38:55	0	0	2,937442	2,778	56,6532	0,609	77,624	3,5	1005,92	7,3	9,2	9	1	1	1	1	1	1	1	1	1	0	1	-48,625793	274,499541	273,295387	0
14.01.2021	20:38:56	0	0	2,824463	2,9985	57,0312	0,602	77,606	3,5	1006,06	7,1	9,1	9	1	1	1	1	1	1	1	1	1	0	1	-48,978154	274,466052	272,785956	0
14.01.2021	20:38:57	0	0	2,937442	2,988	64,6308	0,609	77,594	3,5	1005,88	7,3	9,1	9	1	1	1	1	1	1	1	1	1	0	1	-50,880902	274,514783	271,111782	0
14.01.2021	20:38:58	0	0	2,146592	2,81925	68,7816	0,604	77,589	3,5	1005,94	7,3	9,2	9	1	1	1	1	1	1	1	1	1	0	1	-46,652572	274,520883	275,368733	0
14.01.2021	20:38:59	0	0	4,745098	2,66325	70,8372	0,605	77,578	3,5	1005,92	7,1	9,1	9	1	1	1	1	1	1	1	1	1	0	1	-46,229739	274,652501	276,409578	0
14.01.2021	20:39:00	0	0	2,824463	2,4225	78,2784	0,606	77,586	3,5	1005,86	7,3	9,2	9	1	1	1	1	1	1	1	1	1	0	1	-49,612403	274,458449	272,116055	0
14.01.2021	20:39:01	0	0	4,293184	2,18925	89,73	0,602	77,584	3,5	1005,88	7,3	9,2	9	1	1	1	1	1	1	1	1	1	0	1	-46,5821	274,552939	275,589645	0
14.01.2021	20:39:02	0	0	4,293184	2,18925	89,73	0,602	77,584	3,5	1005,88	7,3	9,2	9	1	1	1	1	1	1	1	1	1	0	1	-46,5821	274,552939	275,589645	0
14.01.2021	20:39:03	0	0	4,858077	2,09775	98,0712	0,603	77,582	3,5	1005,94	7,3	9,2	9	1	1	1	1	1	1	1	1	1	0	1	-48,625793	274,481267	273,209671	0
14.01.2021	20:39:04	0	0	4,858077	1,95375	93,348	0,6	77,556	3,5	1005,92	7,3	9,2	9	1	1	1	1	1	1	1	1	1	0	1	-48,273432	274,554467	273,905485	0
14.01.2021	20:39:05	0	0	2,824463	2,1015	90,7848	0,603	77,572	3,5	1005,98	7,1	9,2	9	1	1	1	1	1	1	1	1	1	0	1	-43,622269	274,459969	278,113318	0
14.01.2021	20:39:06	0	0	2,372549	2,349	94,1004	0,608	77,577	3,5	1005,92	7,3	9,2	9	1	1	1	1	1	1	1	1	1	0	1	-50,17618	274,585049	272,146308	0
14.01.2021	20:39:07	0	0	2,598506	2,89275	90,3744	0,612	77,564	3,5	1005,92	7,3	9,2	9	1	1	1	1	1	1	1	1	1	0	1	-46,511628	274,452369	275,188321	0
14.01.2021	20:39:08	0	0	2,937442	3,483	90,0216	0,606	77,548	3,5	1005,92	7,3	9,2	9	1	1	1	1	1	1	1	1	1	0	1	-44,326991	274,58658	278,002683	0
14.01.2021	20:39:09	0	0	4,519141	3,62025	66,2328	0,603	77,518	3,5	1006,06	7,3	9,1	9	1	1	1	1	1	1	1	1	1	0	1	-49,330514	274,470615	272,454994	0
14.01.2021	20:39:10	0	0	3,05042	3,69975	62,3952	0,606	77,532	3,5	1005,72	7,3	9,1	9	1	1	1	1	1	1	1	1	1	0	1	-44,538407	274,501065	277,38992	0
14.01.2021	20:39:11	0	0	2,937442	3,9885	108,5328	0,607	77,511	3,5	1005,88	7,3	9,2	9	1	1	1	1	1	1	1	1	1	0	1	-47,004933	274,644824	275,598313	0
14.01.2021	20:39:12	0	0	3,615313	4,6005	92,2428	0,603	77,515	3,5	1005,92	7,3	9,2	9	1	1	1	1	1	1	1	1	1	0	1	-45,877378	274,490402	276,000931	0
14.01.2021	20:39:13	0	0	4,519141	4,81425	97,7112	0,606	77,512	3,5	1005,94	7,1	9,1	9	1	1	1	1	1	1	1	1	1	0	1	-44,820296	274,467573	276,950946	0
14.01.2021	20:39:14	0	0	2,598506	5,26875	92,2572	0,605	77,521	3,5	1006,02	7,1	9,1	9	1	1	1	1	1	1	1	1	1	0	1	-44,96124	274,472137	276,831403	0
14.01.2021	20:39:15	0	0	3,163399	5,4225	91,512	0,608	77,518	3,5	1006,08	7,1	9,2	9	1	1	1	1	1	1	1	1	1	0	1	-43,763214	274,635616	278,796771	0
14.01.2021	20:39:16	0	0	4,63212	5,5665	89,7156	0,606	77,504	3,5	1006	7,1	9,2	9	1	1	1	1	1	1	1	1	1	0	1	-45,384073	274,614147	277,075063	0
14.01.2021	20:39:17	0	0	3,84127	5,61	84,8196	0,605	77,509	3,5	1006,08	7,3	9,2	9	1	1	1	1	1	1	1	1	1	0	1	-47,639183	274,502589	274,296293	0
14.01.2021	20:39:18	0	0	4,067227	5,54625	83,3292	0,603	77,516	3,5	1006,06	7,3	9,2	9	1	1	1	1	1	1	1	1	1	0	1	-47,709655	274,650965	274,922447	0
14.01.2021	20:39:19	0	0	3,05042	5,5935	80,1504	0,604	77,559	3,5	1005,92	7,3	9,1	9	1	1	1	1	1	1	1	1	1	0	1	-43,692741	274,478223	278,128447	0
14.01.2021	20:39:20	0	0	4,293184	5,46225	77,958	0,603	77,569	3,5	1006,02	7,1	9,2	9	1	1	1	1	1	1	1	1	1	0	1	-47,639183	274,598827	274,748003	0
14.01.2021	20:39:21	0	0	3,163399	5,15775	72,3204	0,605	77,595	3,5	1006,02	7,3	9,2	9	1	1	1	1	1	1	1	1	1	0	1	-48,062016	274,603422	274,346748	0
14.01.2021	20:39:22	0	0	4,406163	4,9005	64,2384	0,594	77,607	3,5	1006,04	7,1	9,1	9	1	1	1	1	1	1	1	1	1	0	1	-49,471459	274,624879	273,038084	0
14.01.2021	20:39:23	0	0	4,406163	4,518	58,8672	0,605	77,64	3,5	1005,96	7,1	9,2	9	1	1	1	1	1	1	1	1	1	0	1	-47,850599	274,63715	274,716594	0
14.01.2021	20:39:24	0	0	4,519141	4,20075	59,4972	0,603	77,667	3,5	1006,04	7,1	9,2	9	1	1	1	1	1	1	1	1	1	0	1	-43,692741	274,566694	278,543571	0
14.01.2021	20:39:25	0	0	3,728314	3,8595	60,5448	0,604	77,674	3,5	1005,96	7,1	9,2	8,9	1	1	1	1	1	1	1	1	1	0	1	-45,947851	274,643289	276,648184	0
14.01.2021	20:39:26	0	0	2,598506	4,1205	74,6136	0,604	77,694	3,5	1005,94	7,1	9,1	9	1	1	1	1	1	1	1	1	1	0	1	-51,303735	274,50716	270,653188	0
14.01.2021	20:39:27	0	0	3,05042	4,29825	56,6856	0,604	77,71	3,5	1006,04	7,1	9,2	9	1	1	1	1	1	1	1	1	1	0	1	-48,696265	274,505636	273,253508	0
14.01.2021	20:39:28	0	0	4,293184	4,3875	62,4204	0,609	77,706	3,5	1005,86	7,1	9,1	9	1	1	1	1	1	1	1	1	1	0	1	-48,555321	274,647894	274,062352	0
14.01.2021	20:39:29	0	0	3,05042	4,31175	64,62	0,603	77,723	3,5	1005,9	7,3	9,2	9	1	1	1	1	1	1	1	1	1	0	1	-45,384073	274,513258	276,601457	0
14.01.2021	20:39:30	0	0	2,485528	3,948	55,1808	0,599	77,701	3,5	1006,1	7,1	9,2	9	1	1	1	1	1	1	1	1	1	0	1	-45,736434	274,517833	276,270559	0
14.01.2021	20:39:31	0	0	3,163418	3,59625	62,4312	0,605	77,708	3,5	1005,92	7,3	9,2	8,9	1	1	1	1	1	1	1	1	1	0	1	-48,837209	274,473658	272,962569	0
14.01.2021	20:39:32	0	0	4,519141	3,34725	82,9764	0,61	77,714	3,5	1005,78	7,1	9,1	9	1	1	1	1	1	1	1	1	1	0	1	-49,612403	274,513258	272,373128	0
14.01.2021	20:39:33	0	0	3,728292	3,411	83,358	0,602	77,711	3,5	1006,08	7,1	9,2	9	1	1	1	1	1	1	1	1	1	0	1	-48,343904	274,63715	274,223289	0
14.01.2021	20:39:34	0	0	2,711501	3,4395	85,5144	0,606	77,69	3,5	1006,04	7,1	9,1	8,9	1	1	1	1	1	1	1	1	1	0	1	-44,749824	274,536141	277,343082	0
14.01.2021	20:39:35	0	0	4,971055	3,36375	88,5852	0,608	77,682	3,5	1005,92	7,3	9,1	9	1	1	1	1	1	1	1	1	1	0	1	-47,21635	274,472137	274,576294	0
14.01.2021	20:39:36	0	0	4,293184	3,23325	77,58	0,604	77,648	3,5	1005,86	7,1	9,2	9	1	1	1	1	1	1	1	1	1	0	1	-46,652572	274,552939	275,519173	0
14.01.2021	20:39:37	0	0	3,728292	3,24975	83,7252	0,607	77,647	3,5	1005,94	7,3	9,2	9	1	1	1	1	1	1	1	1	1	0	1	-45,806906	274,481267	276,028558	0
14.01.2021	20:39:38	0	0	4,406163	3,2595	82,5768	0,606	77,642	3,5	1006,04	7,3	9,1	9	1	1	1	1	1	1	1	1	1	0	1	-46,793517	274,531562	275,277902	0
14.01.2021	20:39:39	0	0	3,615291	3,1845	76,3524	0,611	77,639	3,5	1006	7,3	9,2	9,1	1	1	1	1	1	1	1	1	1	0	1	-44,397463	274,469094	277,380912	0
14.01.2021	20:39:40	0	0	4,971055	3,28575	90,1044	0,605	77,622	3,5	1005,9	7,1	9,1	9	1	1	1	1	1	1	1	1	1	0	1	-46,511628	274,537668	275,588442	0
14.01.2021	20:39:41	0	0	3,389356	3,606	94,3992	0,609	77,612	3,5	1005,72	7,1	9,1	9	1	1	1	1	1	1	1	1	1	0	1	-43,128964	274,469094	278,649411	0
14.01.2021	20:39:42	0	0	3,728292	3,62325	100,368	0,612	77,621	3,5	1005,88	7,3	9,1	9	1	1	1	1	1	1	1	1	1	0	1	-44,538407	274,611082	277,906333	0
14.01.2021	20:39:43	0	0	4,067227	3,462	82,9836	0,606	77,607	3,5	1005,82	7,1	9,2	9	1	1	1	1	1	1	1	1	1	0	1	-41,930937	274,631013	280,607425	0
14.01.2021	20:39:44	0	0	3,502334	3,492	91,8936	0,603	77,585	3,5	1005,88	7,3	9,1	9	1	1	1	1	1	1	1	1	1	0	1	-43,551797	274,595765	278,821006	0
14.01.2021	20:39:45	0	0	4,180206	3,59475	88,5708	0,604	77,601	3,5	1005,92	7,1	9,1	9	1	1	1	1	1	1	1	1	1	0	1	-42,917548	274,459969	278,818039	0
14.01.2021	20:39:46	0	0	2,598506	3,58725	80,5176	0,609	77,573	3,5	1005,82	7,1	9,2	9	1	1	1	1	1	1	1	1	1	0	1	-49,18957	274,536141	272,903336	0
14.01.2021	20:39:47	0	0	5,422969	3,8415	85,896	0,607	77,569	3,5	1005,84	7,3	9,2	9	1	1	1	1	1	1	1	1	1	0	1	-47,921071	274,635616	274,638913	0
14.01.2021	20:39:48	0	0	5,084034	3,88425	87,8184	0,608	77,566	3,5	1005,9	7,1	9,2	9	1	1	1	1	1	1	1	1	1	0	1	-50,951374	274,589641	271,392673	0
14.01.2021	20:39:49	0	0	4,067227	3,80475	67,2876	0,609	77,56	3,5	1005,82	7,3	9,2	9	1	1	1	1	1	1	1	1	1	0	1	-41,789993	274,643289	280,806041	0
14.01.2021	20:39:50	0	0	4,067227	4,4505	80,1576	0,609	77,537	3,5	1006	7,3	9,1	9	1	1	1	1	1	1	1	1	1	0	1	-48,555321	274,52851	273,501776	0
14.01.2021	20:39:51	0	0	4,406163	4,8555	79,416	0,611	77,547	3,5	1006,14	7,1	9,2	9	1	1	1	1	1	1	1	1	1	0	1	-47,004933	274,635616	275,555051	0
14.01.2021	20:39:52	0	0	3,954249	4,842	83,3508	0,604	77,534	3,5	1005,9	7,1	9,2	9	1	1	1	1	1	1	1	1	1	0	1	-49,048626	274,543775	273,080106	0
14.01.2021	20:39:53	0	0	3,276377	4,74975	85,896	0,602	77,523	3,5	1005,88	7,3	9,2	9	1	1	1	1	1	1	1	1	1	0	1	-44,045102	274,635616	278,514882	0
14.01.2021	20:39:54	0	0	2,485528	4,66575	81,2052	0,611	77,516	3,5	1005,94	7,1	9,1	9	1	1	1	1	1	1	1	1	1	0	1	-45,736434	274,583519	276,578869	0
14.01.2021	20:39:55	0	0	3,163399	5,00175	81,9648	0,606	77,525	3,5	1005,94	7,3	9,1	9	1	1	1	1	1	1	1	1	1	0	1	-46,088795	274,644824	276,514451	0
14.01.2021	20:39:56	0	0	2,937442	5,115	88,9164	0,605	77,523	3,5	1005,9	7,1	9,1	9	1	1	1	1	1	1	1	1	1	0	1	-48,766737	274,533089	273,311843	0
14.01.2021	20:39:57	0	0	4,858077	4,97325	84,0204	0,604	77,517	3,5	1005,9	7,1	9,1	9	1	1	1	1	1	1	1	1	1	0	1	-47,921071	274,470615	273,864438	0
14.01.2021	20:39:58	0	0	2,598506	5,09775	85,518	0,603	77,522	3,5	1005,96	7,1	9,2	9	1	1	1	1	1	1	1	1	1	0	1	-47,286822	274,502589	274,648653	0
14.01.2021	20:39:59	0	0	3,502334	5,184	88,56	0,607	77,533	3,5	1006	7,1	9,2	9	1	1	1	1	1	1	1	1	1	0	1	-44,115574	274,473658	277,684204	0
14.01.2021	20:40:00	0	0	3,728292	4,866	82,368	0,607	77,518	3,5	1006,02	7,1	9,1	9	1	1	1	1	1	1	1	1	1	0	1	-46,5821	274,627946	275,941851	0
14.01.2021	20:40:01	0	0	3,728292	4,866	82,368	0,607	77,518	3,5	1006,02	7,1	9,1	9	1	1	1	1	1	1	1	1	1	0	1	-46,5821	274,627946	275,941851	0
14.01.2021	20:40:02	0	0	3,954249	4,7085	92,9448	0,597	77,489	3,5	1005,84	7,1	9,2	9	1	1	1	1	1	1	1	1	1	0	1	-46,088795	274,499541	275,832385	0
14.01.2021	20:40:03	0	0	3,84127	4,75275	95,8284	0,604	77,496	3,5	1005,82	7,1	9,1	9	1	1	1	1	1	1	1	1	1	0	1	-42,917548	274,456929	278,803782	0
14.01.2021	20:40:04	0	0	2,485528	4,64475	85,5288	0,606	77,472	3,5	1005,9	7,3	9,2	9	1	1	1	1	1	1	1	1	1	0	1	-45,877378	274,526985	276,172559	0
14.01.2021	20:40:05	0	0	4,180206	4,70325	88,5888	0,606	77,467	3,5	1005,78	7,1	9,1	9	1	1	1	1	1	1	1	1	1	0	1	-46,511628	274,452369	275,188321	0
14.01.2021	20:40:06	0	0	4,519141	4,6005	92,9628	0,605	77,448	3,5	1005,68	7,3	9,2	9	1	1	1	1	1	1	1	1	1	0	1	-43,410853	274,603422	278,997911	0
14.01.2021	20:40:07	0	0	3,615313	4,542	98,7768	0,604	77,445	3,5	1006,1	7,1	9,1	9	1	1	1	1	1	1	1	1	1	0	1	-48,766737	274,58811	273,570123	0
14.01.2021	20:40:08	0	0	3,728292	4,338	104,0112	0,603	77,435	3,5	1006,04	7,1	9,1	9	1	1	1	1	1	1	1	1	1	0	1	-44,749824	274,568223	277,493666	0
14.01.2021	20:40:09	0	0	3,728292	4,17525	99,216	0,603	77,41	3,5	1005,78	7,1	9,2	9	1	1	1	1	1	1	1	1	1	0	1	-51,515152	274,635616	271,044833	0
14.01.2021	20:40:10	0	0	4,519141	4,13025	83,3544	0,595	77,395	3,5	1005,8	7,3	9,2	9	1	1	1	1	1	1	1	1	1	0	1	-46,723044	274,57434	275,549162	0
14.01.2021	20:40:11	0	0	2,711485	4,06425	88,9596	0,601	77,388	3,5	1005,82	7,1	9,1	9	1	1	1	1	1	1	1	1	1	0	1	-46,088795	274,63715	276,478398	0
14.01.2021	20:40:12	0	0	2,711485	4,13325	102,1788	0,601	77,389	3,5	1006,04	7,1	9,1	9	1	1	1	1	1	1	1	1	1	0	1	-45,243129	274,511733	276,735249	0
14.01.2021	20:40:13	0	0	4,519141	4,47825	95,508	0,601	77,386	3,5	1005,96	7,1	9,1	9	1	1	1	1	1	1	1	1	1	0	1	-49,964764	274,467573	271,806478	0
14.01.2021	20:40:14	0	0	4,406189	4,68525	100,3608	0,602	77,382	3,5	1006,1	7,3	9,1	8,9	1	1	1	1	1	1	1	1	1	0	1	-45,665962	274,479745	276,162364	0
14.01.2021	20:40:15	0	0	4,745098	4,653	81,9612	0,596	77,372	3,5	1005,92	7,1	9,1	9	1	1	1	1	1	1	1	1	1	0	1	-43,269908	274,520883	278,751397	0
14.01.2021	20:40:16	0	0	4,180206	4,353	89,3052	0,6	77,4	3,5	1006,02	7,1	9,2	9	1	1	1	1	1	1	1	1	1	0	1	-40,944327	274,600359	281,45005	0
14.01.2021	20:40:17	0	0	2,82448	4,0815	102,2868	0,597	77,413	3,5	1005,82	7,1	9,2	8,9	1	1	1	1	1	1	1	1	1	0	1	-45,59549	274,510209	276,375736	0
14.01.2021	20:40:18	0	0	2,937442	4,08825	102,5964	0,597	77,421	3,5	1005,96	7,1	9,1	9	1	1	1	1	1	1	1	1	1	0	1	-44,186047	274,638685	278,388356	0
14.01.2021	20:40:19	0	0	3,954272	4,095	98,0712	0,598	77,445	3,5	1006,16	7,1	9,1	8,9	1	1	1	1	1	1	1	1	1	0	1	-43,97463	274,557523	278,218631	0
14.01.2021	20:40:20	0	0	4,63212	3,87525	94,0644	0,598	77,467	3,5	1006,04	7,1	9,2	9	1	1	1	1	1	1	1	1	1	0	1	-43,481325	274,624879	279,028218	0
14.01.2021	20:40:21	0	0	4,293184	3,79725	92,7288	0,602	77,46	3,5	1006	7,1	9,2	9	1	1	1	1	1	1	1	1	1	0	1	-43,97463	274,502589	277,960845	0
14.01.2021	20:40:22	0	0	2,146592	3,8325	84,0312	0,599	77,497	3,5	1005,86	7,1	9,1	9	1	1	1	1	1	1	1	1	1	0	1	-49,119098	274,450849	272,573725	0
14.01.2021	20:40:23	0	0	3,276377	3,79875	77,5692	0,592	77,491	3,5	1005,92	7,1	9,1	9	1	1	1	1	1	1	1	1	1	0	1	-47,709655	274,566694	274,526657	0
14.01.2021	20:40:24	0	0	4,858077	3,90525	84,4884	0,598	77,519	3,5	1005,78	7,1	9,2	9	1	1	1	1	1	1	1	1	1	0	1	-47,21635	274,449329	274,469349	0
14.01.2021	20:40:25	0	0	3,502334	4,01025	94,4028	0,593	77,511	3,5	1006,06	7,1	9,2	9	1	1	1	1	1	1	1	1	1	0	1	-43,692741	274,508685	278,271333	0
14.01.2021	20:40:26	0	0	2,937442	4,434	84,4272	0,591	77,53	3,5	1005,98	7,1	9,1	9	1	1	1	1	1	1	1	1	1	0	1	-48,766737	274,612615	273,685201	0
14.01.2021	20:40:27	0	0	3,84127	4,26825	91,1484	0,594	77,547	3,5	1005,96	7,1	9,2	9	1	1	1	1	1	1	1	1	1	0	1	-47,145877	274,505636	274,803896	0
14.01.2021	20:40:28	0	0	3,389376	3,90675	86,976	0,599	77,555	3,5	1005,8	7,1	9,1	8,9	1	1	1	1	1	1	1	1	1	0	1	-52,501762	274,44781	269,176812	0
14.01.2021	20:40:29	0	0	3,276377	4,2795	96,984	0,595	77,573	3,5	1005,9	7,1	9,1	9	1	1	1	1	1	1	1	1	1	0	1	-46,652572	274,50716	275,304351	0
14.01.2021	20:40:30	0	0	2,824463	4,90275	109,9836	0,595	77,58	3,5	1006,04	7,1	9,2	9	1	1	1	1	1	1	1	1	1	0	1	-46,088795	274,624879	276,420748	0
14.01.2021	20:40:31	0	0	2,598506	5,13	99,5292	0,594	77,59	3,5	1005,9	7,1	9,1	9	1	1	1	1	1	1	1	1	1	0	1	-45,454545	274,589641	276,889502	0
14.01.2021	20:40:32	0	0	4,858077	5,34075	99,5292	0,589	77,582	3,5	1006	7,1	9,2	9	1	1	1	1	1	1	1	1	1	0	1	-48,343904	274,565165	273,885231	0
14.01.2021	20:40:33	0	0	4,971055	5,208	107,7732	0,606	77,592	3,5	1005,96	7,1	9,1	9	1	1	1	1	1	1	1	1	1	0	1	-43,763214	274,581989	278,544905	0
14.01.2021	20:40:34	0	0	3,05042	4,87125	109,98	0,59	77,584	3,5	1005,94	7,1	9,2	9	1	1	1	1	1	1	1	1	1	0	1	-45,102185	274,481267	276,73328	0
14.01.2021	20:40:35	0	0	4,519141	4,368	87,7284	0,591	77,57	3,5	1005,92	7,1	9,1	9	1	1	1	1	1	1	1	1	1	0	1	-45,454545	274,608018	276,975802	0
14.01.2021	20:40:36	0	0	3,502313	4,3245	97,3368	0,594	77,575	3,5	1005,96	7,1	9,1	9,1	1	1	1	1	1	1	1	1	1	0	1	-43,763214	274,600359	278,631164	0
14.01.2021	20:40:37	0	0	3,502334	4,578	96,9552	0,601	77,585	3,5	1005,94	7,1	9,1	9	1	1	1	1	1	1	1	1	1	0	1	-45,59549	274,565165	276,633646	0
14.01.2021	20:40:38	0	0	3,502334	4,55025	96,9732	0,589	77,585	3,5	1005,9	7,1	9,1	9	1	1	1	1	1	1	1	1	1	0	1	-45,665962	274,491925	276,219491	0
14.01.2021	20:40:39	0	0	4,067227	4,82325	95,6232	0,595	77,6	3,5	1005,92	7,1	9,1	9	1	1	1	1	1	1	1	1	1	0	1	-46,088795	274,455409	275,625407	0
14.01.2021	20:40:40	0	0	3,276377	4,9965	98,0964	0,594	77,616	3,5	1005,84	7,1	9,1	9	1	1	1	1	1	1	1	1	1	0	1	-48,343904	274,562108	273,870879	0
14.01.2021	20:40:41	0	0	2,824463	5,1375	101,5092	0,598	77,642	3,5	1005,92	7,1	9,1	9	1	1	1	1	1	1	1	1	1	0	1	-44,256519	274,621812	278,238619	0
14.01.2021	20:40:42	0	0	3,728292	5,47275	96,5772	0,594	77,654	3,5	1005,9	7,1	9,2	9	1	1	1	1	1	1	1	1	1	0	1	-43,058492	274,523933	278,977128	0
14.01.2021	20:40:43	0	0	4,406163	5,3895	89,334	0,596	77,666	3,5	1005,82	7,1	9,2	9	1	1	1	1	1	1	1	1	1	0	1	-44,96124	274,441733	276,688844	0
14.01.2021	20:40:44	0	0	5,197012	5,1345	85,9248	0,593	77,69	3,5	1005,98	7,1	9,1	9	1	1	1	1	1	1	1	1	1	0	1	-51,374207	274,545302	270,761692	0
14.01.2021	20:40:45	0	0	3,615313	5,025	95,5296	0,596	77,686	3,5	1005,96	7,1	9,1	9	1	1	1	1	1	1	1	1	1	0	1	-43,833686	274,466052	277,930424	0
14.01.2021	20:40:46	0	0	3,050439	5,1405	91,5012	0,596	77,707	3,5	1006	7,1	9,1	8,9	1	1	1	1	1	1	1	1	1	0	1	-42,494715	274,484312	279,355029	0
14.01.2021	20:40:47	0	0	3,05042	4,91175	91,8864	0,596	77,722	3,5	1006,08	7,1	9,1	9	1	1	1	1	1	1	1	1	1	0	1	-45,665962	274,467573	276,10528	0
14.01.2021	20:40:48	0	0	2,711501	4,668	91,1628	0,597	77,729	3,5	1005,96	7,1	9,2	8,9	1	1	1	1	1	1	1	1	1	0	1	-45,243129	274,476701	276,570922	0
14.01.2021	20:40:49	0	0	4,519141	4,494	100,3644	0,598	77,729	3,5	1005,98	7,1	9,2	9	1	1	1	1	1	1	1	1	1	0	1	-44,115574	274,635616	278,44441	0
14.01.2021	20:40:50	0	0	3,502334	4,69275	97,686	0,598	77,731	3,5	1005,86	7,1	9,2	9	1	1	1	1	1	1	1	1	1	0	1	-50,105708	274,50716	271,851215	0
14.01.2021	20:40:51	0	0	2,711485	4,64025	96,588	0,601	77,721	3,5	1006,02	7,1	9,2	9	1	1	1	1	1	1	1	1	1	0	1	-47,498238	274,623345	275,004102	0
14.01.2021	20:40:52	0	0	4,858106	4,43175	105,1308	0,599	77,723	3,5	1005,9	7,1	9,1	8,9	1	1	1	1	1	1	1	1	1	0	1	-46,793517	274,508685	275,170558	0
14.01.2021	20:40:53	0	0	4,745098	4,49025	116,6616	0,595	77,72	3,5	1005,92	7,1	9,1	9	1	1	1	1	1	1	1	1	1	0	1	-43,692741	274,487357	278,171284	0
14.01.2021	20:40:54	0	0	4,858106	4,33875	118,7244	0,602	77,713	3,5	1005,76	7,1	9,1	8,9	1	1	1	1	1	1	1	1	1	0	1	-46,5821	274,611082	275,86264	0
14.01.2021	20:40:55	0	0	2,146592	4,2285	116,3088	0,596	77,7	3,5	1005,84	7,1	9,1	9	1	1	1	1	1	1	1	1	1	0	1	-45,525018	274,578929	276,768734	0
14.01.2021	20:40:56	0	0	3,728314	4,26225	106,3044	0,6	77,72	3,5	1006,12	7,1	9,1	8,9	1	1	1	1	1	1	1	1	1	0	1	-42,424242	274,585049	279,898246	0
14.01.2021	20:40:57	0	0	2,146579	4,395	106,8048	0,602	77,697	3,5	1005,9	7,1	9,1	9,1	1	1	1	1	1	1	1	1	1	0	1	-45,243129	274,459969	276,492458	0
14.01.2021	20:40:58	0	0	4,180231	4,6695	107,7444	0,601	77,695	3,5	1005,98	7,1	9,1	8,9	1	1	1	1	1	1	1	1	1	0	1	-45,525018	274,580459	276,775917	0
14.01.2021	20:40:59	0	0	2,372549	4,80225	112,266	0,598	77,673	3,5	1005,9	7,1	9,1	9	1	1	1	1	1	1	1	1	1	0	1	-47,498238	274,511733	274,48014	0
14.01.2021	20:41:00	0	0	2,824446	4,269	105,5052	0,596	77,674	3,5	1005,94	7,1	9,1	9,1	1	1	1	1	1	1	1	1	1	0	1	-47,427766	274,491925	274,457687	0
14.01.2021	20:41:01	0	0	2,824446	4,269	105,5052	0,596	77,674	3,5	1005,94	7,1	9,1	9,1	1	1	1	1	1	1	1	1	1	0	1	-47,427766	274,491925	274,457687	0
14.01.2021	20:41:02	0	0	3,163399	4,059	102,564	0,6	77,668	3,5	1005,9	7,1	9,1	9	1	1	1	1	1	1	1	1	1	0	1	-46,300211	274,434139	275,314275	0
14.01.2021	20:41:03	0	0	4,180181	3,9705	106,2792	0,594	77,659	3,5	1005,78	7,1	9,1	9,1	1	1	1	1	1	1	1	1	1	0	1	-48,978154	274,52851	273,078943	0
14.01.2021	20:41:04	0	0	2,937424	3,8595	88,5708	0,602	77,664	3,5	1006,08	7,1	9,1	9,1	1	1	1	1	1	1	1	1	1	0	1	-40,239605	274,44629	281,431845	0
14.01.2021	20:41:05	0	0	3,276358	3,7005	92,2572	0,595	77,65	3,5	1005,9	7,1	9,1	9,1	1	1	1	1	1	1	1	1	1	0	1	-45,877378	274,481267	275,958086	0
14.01.2021	20:41:06	0	0	3,050439	3,7365	106,6608	0,602	77,638	3,5	1005,86	7,1	9,1	8,9	1	1	1	1	1	1	1	1	1	0	1	-41,719521	274,464531	280,037457	0
14.01.2021	20:41:07	0	0	4,632092	4,11075	86,6736	0,591	77,621	3,5	1005,86	7,1	9,1	9,1	1	1	1	1	1	1	1	1	1	0	1	-47,850599	274,505636	274,099174	0
14.01.2021	20:41:08	0	0	3,954225	4,3035	79,1064	0,602	77,623	3,5	1006,02	7,1	9,1	9,1	1	1	1	1	1	1	1	1	1	0	1	-43,692741	274,623345	278,809599	0
14.01.2021	20:41:09	0	0	4,63212	4,87275	95,1516	0,604	77,62	3,5	1006,16	7,1	9,1	9	1	1	1	1	1	1	1	1	1	0	1	-44,890768	274,577399	277,395801	0
14.01.2021	20:41:10	0	0	4,180181	5,23425	97,6752	0,599	77,59	3,5	1005,96	7,1	9,1	9,1	1	1	1	1	1	1	1	1	1	0	1	-49,119098	274,589641	273,22495	0
14.01.2021	20:41:11	0	0	4,29321	5,63025	106,6932	0,596	77,569	3,5	1005,92	7,1	9,1	8,9	1	1	1	1	1	1	1	1	1	0	1	-43,763214	274,563637	278,458746	0
14.01.2021	20:41:12	0	0	3,16338	5,7015	89,4384	0,597	77,571	3,5	1005,92	7,1	9,1	9,1	1	1	1	1	1	1	1	1	1	0	1	-41,930937	274,571281	280,32691	0
14.01.2021	20:41:13	0	0	4,067227	5,59425	114,8652	0,602	77,564	3,5	1005,96	7,1	9,2	9	1	1	1	1	1	1	1	1	1	0	1	-43,622269	274,450849	278,070554	0
14.01.2021	20:41:14	0	0	5,084064	5,86125	104,0724	0,592	77,534	3,5	1005,88	7,1	9,1	8,9	1	1	1	1	1	1	1	1	1	0	1	-45,384073	274,606486	277,039079	0
14.01.2021	20:41:15	0	0	3,84127	5,61975	98,478	0,598	77,537	3,5	1005,92	7,1	9,1	9	1	1	1	1	1	1	1	1	1	0	1	-46,723044	274,549884	275,43436	0
14.01.2021	20:41:16	0	0	4,63212	5,0745	93,78	0,6	77,515	3,5	1006,16	7,1	9,1	9	1	1	1	1	1	1	1	1	1	0	1	-42,142354	274,632547	280,403215	0
14.01.2021	20:41:17	0	0	4,632092	5,2185	92,2572	0,6	77,527	3,5	1005,84	7,1	9,2	9,1	1	1	1	1	1	1	1	1	1	0	1	-45,172657	274,508685	276,791417	0
14.01.2021	20:41:18	0	0	3,163399	5,63175	94,7556	0,603	77,541	3,5	1005,94	7,1	9,1	9	1	1	1	1	1	1	1	1	1	0	1	-43,410853	274,44781	278,267721	0
14.01.2021	20:41:19	0	0	4,858077	5,18175	102,5784	0,597	77,517	3,5	1005,72	7,1	9,1	9	1	1	1	1	1	1	1	1	1	0	1	-43,833686	274,517833	278,173308	0
14.01.2021	20:41:20	0	0	3,841247	4,89525	96,2136	0,598	77,551	3,5	1006,02	7,1	9,1	9,1	1	1	1	1	1	1	1	1	1	0	1	-44,608879	274,626412	277,907868	0
14.01.2021	20:41:21	0	0	3,389356	4,87725	98,766	0,599	77,547	3,5	1005,92	7,1	9,1	9	1	1	1	1	1	1	1	1	1	0	1	-43,199436	274,50716	278,757487	0
14.01.2021	20:41:22	0	0	4,406189	4,86375	95,1372	0,599	77,542	3,5	1005,96	7,1	9,1	8,9	1	1	1	1	1	1	1	1	1	0	1	-45,806906	274,621812	276,688232	0
14.01.2021	20:41:23	0	0	4,406163	4,899	101,844	0,59	77,522	3,5	1005,8	7,1	9,1	9	1	1	1	1	1	1	1	1	1	0	1	-45,454545	274,499541	276,466634	0
14.01.2021	20:41:24	0	0	4,406136	5,034	91,1484	0,599	77,534	3,5	1006,02	7,1	9,1	9,1	1	1	1	1	1	1	1	1	1	0	1	-45,947851	274,620279	276,540086	0
14.01.2021	20:41:25	0	0	4,519141	4,95375	90,3996	0,6	77,528	3,5	1005,9	7,1	9,1	9	1	1	1	1	1	1	1	1	1	0	1	-47,075405	274,56058	275,132204	0
14.01.2021	20:41:26	0	0	4,406136	4,8	86,652	0,599	77,506	3,5	1005,98	7,1	9,3	9,1	1	1	1	1	1	1	1	1	1	0	1	-44,538407	274,621812	277,95673	0
14.01.2021	20:41:27	0	0	2,937424	4,79625	84,4308	0,601	77,528	3,5	1006,06	7,1	9,1	9,1	1	1	1	1	1	1	1	1	1	0	1	-46,441156	274,458449	275,287302	0
14.01.2021	20:41:28	0	0	2,711501	4,578	83,7396	0,601	77,537	3,5	1006	7,1	9,1	8,9	1	1	1	1	1	1	1	1	1	0	1	-44,679352	274,563637	277,542607	0
14.01.2021	20:41:29	0	0	4,293184	4,62825	83,7144	0,598	77,521	3,5	1005,9	7,1	9,1	9	1	1	1	1	1	1	1	1	1	0	1	-40,662438	274,60189	281,739131	0
14.01.2021	20:41:30	0	0	4,519141	5,00625	84,8268	0,596	77,52	3,5	1005,84	7,1	9,1	9	1	1	1	1	1	1	1	1	1	0	1	-44,96124	274,435658	276,660364	0
14.01.2021	20:41:31	0	0	3,502355	4,96425	82,7028	0,596	77,544	3,5	1005,88	7,1	9,1	8,9	1	1	1	1	1	1	1	1	1	0	1	-48,273432	274,603422	274,135331	0
14.01.2021	20:41:32	0	0	4,745098	5,00175	84,8088	0,6	77,551	3,5	1005,9	7,1	9,1	9	1	1	1	1	1	1	1	1	1	0	1	-42,847075	274,520883	279,17423	0
14.01.2021	20:41:33	0	0	2,711485	5,088	88,5852	0,603	77,546	3,5	1005,84	7,1	9,2	9	1	1	1	1	1	1	1	1	1	0	1	-43,128964	274,608018	279,301383	0
14.01.2021	20:41:34	0	0	5,084034	5,21475	90,0252	0,598	77,551	3,5	1005,86	7,1	9,1	9	1	1	1	1	1	1	1	1	1	0	1	-50,458069	274,58658	271,871605	0
14.01.2021	20:41:35	0	0	2,485528	5,43825	90,0324	0,596	77,552	3,5	1005,94	7,1	9,1	9	1	1	1	1	1	1	1	1	1	0	1	-45,806906	274,559051	276,393528	0
14.01.2021	20:41:36	0	0	3,841247	5,5095	89,7192	0,592	77,539	3,5	1005,86	7,1	9,1	9,1	1	1	1	1	1	1	1	1	1	0	1	-46,229739	274,452369	275,47021	0
14.01.2021	20:41:37	0	0	4,519141	5,40825	94,3812	0,597	77,523	3,5	1005,96	7,1	9,2	9	1	1	1	1	1	1	1	1	1	0	1	-42,212826	274,505636	279,736947	0
14.01.2021	20:41:38	0	0	3,841293	5,2335	95,13	0,598	77,544	3,5	1006,04	7,1	9,1	8,9	1	1	1	1	1	1	1	1	1	0	1	-48,696265	274,60955	273,741279	0
14.01.2021	20:41:39	0	0	4,971055	5,1315	104,7564	0,598	77,529	3,5	1005,86	7,1	9,1	9	1	1	1	1	1	1	1	1	1	0	1	-45,59549	274,504112	276,347134	0
14.01.2021	20:41:40	0	0	2,485543	5,169	94,4028	0,597	77,543	3,5	1006,04	7,1	9,1	8,9	1	1	1	1	1	1	1	1	1	0	1	-46,793517	274,635616	275,766468	0
14.01.2021	20:41:41	0	0	4,63212	5,061	105,8616	0,596	77,532	3,5	1005,96	7,1	9,1	9	1	1	1	1	1	1	1	1	1	0	1	-48,907681	274,459969	272,827905	0
14.01.2021	20:41:42	0	0	4,632092	5,0655	97,7328	0,59	77,535	3,5	1005,84	7,1	9,1	9,1	1	1	1	1	1	1	1	1	1	0	1	-44,749824	274,434139	276,864663	0
14.01.2021	20:41:43	0	0	3,05042	5,04525	96,5916	0,596	77,525	3,5	1005,96	7,1	9,1	9	1	1	1	1	1	1	1	1	1	0	1	-45,313601	274,571281	276,944246	0
14.01.2021	20:41:44	0	0	4,406163	5,11425	103,3092	0,595	77,547	3,5	1005,98	7,1	9,1	9	1	1	1	1	1	1	1	1	1	0	1	-43,128964	274,612615	279,322974	0
14.01.2021	20:41:45	0	0	4,745127	5,22675	92,2608	0,592	77,527	3,5	1005,9	7,1	9,1	8,9	1	1	1	1	1	1	1	1	1	0	1	-43,904158	274,583519	278,411145	0
14.01.2021	20:41:46	0	0	3,615313	5,1405	98,46	0,599	77,526	3,5	1005,88	7,1	9,1	9	1	1	1	1	1	1	1	1	1	0	1	-45,665962	274,511733	276,312416	0
14.01.2021	20:41:47	0	0	4,180206	5,27175	108,9	0,593	77,514	3,5	1005,88	7,1	9,1	9	1	1	1	1	1	1	1	1	1	0	1	-41,508104	274,44629	280,163346	0
14.01.2021	20:41:48	0	0	2,485528	5,48625	110,3652	0,596	77,535	3,5	1006,04	7,1	9,1	9	1	1	1	1	1	1	1	1	1	0	1	-49,682875	274,510209	272,28835	0
14.01.2021	20:41:49	0	0	3,05042	5,499	110,3796	0,599	77,547	3,5	1005,98	7,1	9,1	9	1	1	1	1	1	1	1	1	1	0	1	-46,793517	274,608018	275,636831	0
14.01.2021	20:41:50	0	0	2,937442	5,2635	96,9804	0,595	77,566	3,5	1005,78	7,1	9,1	9	1	1	1	1	1	1	1	1	1	0	1	-41,860465	274,467573	279,910777	0
14.01.2021	20:41:51	0	0	4,971055	4,7235	85,9356	0,599	77,595	3,5	1005,92	7,1	9,1	9	1	1	1	1	1	1	1	1	1	0	1	-40,944327	274,611082	281,500414	0
14.01.2021	20:41:52	0	0	3,276397	4,20975	91,9044	0,599	77,593	3,5	1005,88	7,1	9,1	8,9	1	1	1	1	1	1	1	1	1	0	1	-44,96124	274,569752	277,289428	0
14.01.2021	20:41:53	0	0	2,485513	4,224	83,3436	0,597	77,602	3,5	1005,96	7,1	9,1	9,1	1	1	1	1	1	1	1	1	1	0	1	-47,075405	274,485834	274,781479	0
14.01.2021	20:41:54	0	0	5,084034	4,0485	94,4028	0,601	77,612	3,5	1005,96	7,1	9,1	9	1	1	1	1	1	1	1	1	1	0	1	-49,18957	274,60955	273,247974	0
14.01.2021	20:41:55	0	0	3,615313	3,999	96,588	0,596	77,613	3,5	1005,86	7,1	9,2	9	1	1	1	1	1	1	1	1	1	0	1	-43,97463	274,533089	278,10395	0
14.01.2021	20:41:56	0	0	4,29321	3,59475	96,2064	0,602	77,604	3,5	1005,86	7,1	9,1	8,9	1	1	1	1	1	1	1	1	1	0	1	-48,978154	274,61568	273,488182	0
14.01.2021	20:41:57	0	0	3,841247	2,9715	100,764	0,6	77,614	3,5	1005,94	7,1	9,1	9,1	1	1	1	1	1	1	1	1	1	0	1	-43,97463	274,581989	278,333489	0
14.01.2021	20:41:58	0	0	4,29321	2,829	88,5924	0,601	77,625	3,5	1005,9	7,1	9,1	8,9	1	1	1	1	1	1	1	1	1	0	1	-42,494715	274,44781	279,183859	0
14.01.2021	20:41:59	0	0	4,745098	2,84925	95,8212	0,598	77,616	3,5	1005,92	7,1	9,1	9	1	1	1	1	1	1	1	1	1	0	1	-48,20296	274,523933	273,83266	0
14.01.2021	20:42:00	0	0	3,05042	2,79525	85,896	0,596	77,614	3,5	1005,96	7,1	9,1	9	1	1	1	1	1	1	1	1	1	0	1	-47,427766	274,464531	274,329212	0
14.01.2021	20:42:01	0	0	3,05042	2,79525	85,896	0,596	77,614	3,5	1005,96	7,1	9,1	9	1	1	1	1	1	1	1	1	1	0	1	-47,427766	274,464531	274,329212	0
14.01.2021	20:42:02	0	0	3,163399	2,9085	73,062	0,593	77,6	3,5	1005,84	7,1	9,1	9	1	1	1	1	1	1	1	1	1	0	1	-44,045102	274,552939	278,126643	0
14.01.2021	20:42:03	0	0	4,067227	2,90025	57,4236	0,596	77,6	3,5	1006,06	7,1	9,1	9	1	1	1	1	1	1	1	1	1	0	1	-41,508104	274,618746	280,972631	0
14.01.2021	20:42:04	0	0	3,502313	2,94825	65,4732	0,595	77,589	3,5	1006,06	7,1	9,1	9,1	1	1	1	1	1	1	1	1	1	0	1	-43,058492	274,552939	279,113253	0
14.01.2021	20:42:05	0	0	4,745098	2,97825	60,5376	0,599	77,574	3,5	1005,84	7,1	9,1	9	1	1	1	1	1	1	1	1	1	0	1	-44,749824	274,608018	277,680524	0
14.01.2021	20:42:06	0	0	3,276377	2,9415	70,8228	0,602	77,572	3,5	1006	7,1	9,2	9	1	1	1	1	1	1	1	1	1	0	1	-45,665962	274,526985	276,383975	0
14.01.2021	20:42:07	0	0	3,728292	2,7525	68,7888	0,592	77,571	3,5	1005,86	7,1	9,1	9	1	1	1	1	1	1	1	1	1	0	1	-48,343904	274,46301	273,405943	0
14.01.2021	20:42:08	0	0	4,293184	2,58225	68,4036	0,596	77,551	3,5	1005,88	7,1	9,1	9	1	1	1	1	1	1	1	1	1	0	1	-48,062016	274,57434	274,210191	0
14.01.2021	20:42:09	0	0	2,711501	2,4885	76,8348	0,596	77,557	3,5	1005,96	7,1	9,1	8,9	1	1	1	1	1	1	1	1	1	0	1	-49,964764	274,620279	272,523172	0
14.01.2021	20:42:10	0	0	4,858077	2,61975	66,5424	0,594	77,546	3,5	1005,9	7,1	9,1	9	1	1	1	1	1	1	1	1	1	0	1	-44,749824	274,530036	277,314433	0
14.01.2021	20:42:11	0	0	2,485513	3,051	88,5744	0,595	77,543	3,5	1005,96	7,1	9,1	9,1	1	1	1	1	1	1	1	1	1	0	1	-45,102185	274,44629	276,569266	0
14.01.2021	20:42:12	0	0	4,519141	3,6045	85,5144	0,596	77,518	3,5	1006,02	7,1	9,2	9	1	1	1	1	1	1	1	1	1	0	1	-40,591966	274,603422	281,816797	0
14.01.2021	20:42:13	0	0	5,084034	3,73575	75,2364	0,596	77,519	3,5	1006,04	7,1	9,1	9	1	1	1	1	1	1	1	1	1	0	1	-40,873855	274,611082	281,570886	0
14.01.2021	20:42:14	0	0	3,615335	3,7995	69,1416	0,598	77,51	3,5	1006,06	7,1	9,1	8,9	1	1	1	1	1	1	1	1	1	0	1	-44,608879	274,598827	277,778306	0
14.01.2021	20:42:15	0	0	4,74507	3,996	69,1704	0,594	77,482	3,5	1005,98	7,1	9,1	9,1	1	1	1	1	1	1	1	1	1	0	1	-50,17618	274,572811	272,088846	0
14.01.2021	20:42:16	0	0	4,971055	4,00275	70,8516	0,591	77,487	3,5	1005,98	7,1	9,2	9	1	1	1	1	1	1	1	1	1	0	1	-42,98802	274,591172	279,363216	0
14.01.2021	20:42:17	0	0	3,276377	3,999	75,6072	0,595	77,489	3,5	1005,96	7,1	9,2	9	1	1	1	1	1	1	1	1	1	0	1	-48,907681	274,510209	273,063544	0
14.01.2021	20:42:18	0	0	4,858077	3,8415	74,52	0,594	77,478	3,5	1006	7,1	9,1	9	1	1	1	1	1	1	1	1	1	0	1	-46,370684	274,591172	275,980552	0
14.01.2021	20:42:19	0	0	3,163399	3,5085	72,0108	0,59	77,474	3,5	1005,9	7,1	9,1	9	1	1	1	1	1	1	1	1	1	0	1	-47,21635	274,591172	275,134886	0
14.01.2021	20:42:20	0	0	3,05042	3,2625	61,3116	0,589	77,495	3,5	1005,96	7,1	9,1	9	1	1	1	1	1	1	1	1	1	0	1	-46,793517	274,46149	274,9492	0
14.01.2021	20:42:21	0	0	2,711485	3,126	63,8676	0,59	77,493	3,5	1005,96	7,1	9,1	9	1	1	1	1	1	1	1	1	1	0	1	-45,243129	274,47518	276,563785	0
14.01.2021	20:42:22	0	0	3,05042	3,18225	63,4968	0,593	77,491	3,5	1005,9	7,1	9,2	9	1	1	1	1	1	1	1	1	1	0	1	-43,833686	274,467573	277,937556	0
14.01.2021	20:42:23	0	0	5,197012	3,09	54,4896	0,584	77,477	3,5	1005,96	7,1	9,1	9	1	1	1	1	1	1	1	1	1	0	1	-48,062016	274,595765	274,310788	0
14.01.2021	20:42:24	0	0	2,711485	3,00975	46,5876	0,592	77,456	3,5	1006	7,1	9,2	9	1	1	1	1	1	1	1	1	1	0	1	-47,286822	274,549884	274,870583	0
14.01.2021	20:42:25	0	0	3,502334	2,87775	54,4896	0,589	77,458	3,5	1005,92	7,1	9,2	9	1	1	1	1	1	1	1	1	1	0	1	-42,424242	274,44781	279,254332	0
14.01.2021	20:42:26	0	0	2,937459	2,7405	60,5232	0,588	77,448	3,5	1005,92	7,1	9,1	8,9	1	1	1	1	1	1	1	1	1	0	1	-46,5821	274,498018	275,331933	0
14.01.2021	20:42:27	0	0	4,858077	2,787	75,6108	0,591	77,449	3,5	1005,98	7,1	9,1	9	1	1	1	1	1	1	1	1	1	0	1	-46,934461	274,58811	275,402399	0
14.01.2021	20:42:28	0	0	3,615313	3,02325	68,4072	0,593	77,434	3,5	1006,06	7,1	9,2	9	1	1	1	1	1	1	1	1	1	0	1	-45,172657	274,606486	277,250495	0
14.01.2021	20:42:29	0	0	4,406189	3,36975	63,8964	0,586	77,428	3,5	1005,78	7,1	9,1	8,9	1	1	1	1	1	1	1	1	1	0	1	-43,410853	274,438695	278,22499	0
14.01.2021	20:42:30	0	0	3,502334	3,621	60,93	0,587	77,442	3,5	1005,96	7,1	9,2	9	1	1	1	1	1	1	1	1	1	0	1	-44,890768	274,505636	277,059005	0
14.01.2021	20:42:31	0	0	3,389336	3,86175	80,9208	0,59	77,435	3,5	1005,94	7,1	9,2	9,1	1	1	1	1	1	1	1	1	1	0	1	-44,749824	274,614147	277,709312	0
14.01.2021	20:42:32	0	0	2,598491	3,78975	77,5872	0,592	77,434	3,5	1006,06	7,1	9,2	9,1	1	1	1	1	1	1	1	1	1	0	1	-43,199436	274,557523	278,993825	0
14.01.2021	20:42:33	0	0	3,05042	3,1515	87,7428	0,587	77,428	3,5	1005,8	7,1	9,2	9	1	1	1	1	1	1	1	1	1	0	1	-48,766737	274,453888	272,940338	0
14.01.2021	20:42:34	0	0	3,841293	2,95725	69,4764	0,59	77,442	3,5	1006	7,1	9,1	8,9	1	1	1	1	1	1	1	1	1	0	1	-48,978154	274,542248	273,143411	0
14.01.2021	20:42:35	0	0	2,937442	3,12825	69,858	0,584	77,43	3,5	1005,88	7,1	9,1	9	1	1	1	1	1	1	1	1	1	0	1	-45,384073	274,614147	277,075063	0
14.01.2021	20:42:36	0	0	4,858077	3,39975	82,5948	0,585	77,434	3,5	1005,86	7,1	9,2	9	1	1	1	1	1	1	1	1	1	0	1	-44,538407	274,491925	277,347046	0
14.01.2021	20:42:37	0	0	4,406163	3,65925	86,6844	0,587	77,459	3,5	1005,96	7,1	9,1	9	1	1	1	1	1	1	1	1	1	0	1	-43,481325	274,60955	278,956219	0
14.01.2021	20:42:38	0	0	3,276377	3,89625	83,7216	0,585	77,463	3,5	1005,86	7,1	9,2	9	1	1	1	1	1	1	1	1	1	0	1	-46,088795	274,549884	276,06861	0
14.01.2021	20:42:39	0	0	3,84127	4,37625	77,2092	0,589	77,469	3,5	1005,84	7,1	9,1	9	1	1	1	1	1	1	1	1	1	0	1	-43,833686	274,434139	277,780801	0
14.01.2021	20:42:40	0	0	4,293184	4,71225	82,8468	0,584	77,467	3,5	1005,92	7,1	9,2	9	1	1	1	1	1	1	1	1	1	0	1	-47,56871	274,453888	274,138365	0
14.01.2021	20:42:41	0	0	3,276358	4,74975	85,1904	0,585	77,479	3,5	1005,92	7,1	9,1	9,1	1	1	1	1	1	1	1	1	1	0	1	-45,665962	274,57587	276,613426	0
14.01.2021	20:42:42	0	0	4,067203	4,7025	81,612	0,584	77,478	3,5	1005,96	7,1	9,2	9,1	1	1	1	1	1	1	1	1	1	0	1	-44,538407	274,551412	277,626167	0
14.01.2021	20:42:43	0	0	3,84127	4,8465	65,4624	0,58	77,492	3,5	1005,96	7,1	9,1	9	1	1	1	1	1	1	1	1	1	0	1	-45,525018	274,533089	276,553562	0
14.01.2021	20:42:44	0	0	3,84127	5,22075	64,6128	0,587	77,492	3,5	1006,04	7,1	9,2	9	1	1	1	1	1	1	1	1	1	0	1	-41,789993	274,432621	279,817376	0
14.01.2021	20:42:45	0	0	4,745098	5,45475	69,1524	0,587	77,492	3,5	1005,96	7,1	9,2	9	1	1	1	1	1	1	1	1	1	0	1	-45,525018	274,466052	276,239092	0
14.01.2021	20:42:46	0	0	2,937442	5,17125	68,0148	0,587	77,499	3,5	1006	7,1	9,2	9	1	1	1	1	1	1	1	1	1	0	1	-45,454545	274,418961	276,088797	0
14.01.2021	20:42:47	0	0	3,05042	4,6035	57,4164	0,582	77,495	3,5	1005,96	7,1	9,1	9	1	1	1	1	1	1	1	1	1	0	1	-44,608879	274,533089	277,469701	0
14.01.2021	20:42:48	0	0	4,971055	4,2345	62,0316	0,584	77,512	3,5	1005,88	7,1	9,1	9	1	1	1	1	1	1	1	1	1	0	1	-42,635659	274,408343	278,857923	0
14.01.2021	20:42:49	0	0	4,971055	3,69	63,1692	0,585	77,502	3,5	1005,96	7,1	9,2	9	1	1	1	1	1	1	1	1	1	0	1	-39,7463	274,482789	282,096303	0
14.01.2021	20:42:50	0	0	2,824463	3,855	48,5064	0,582	77,495	3,5	1005,92	7,1	9,2	9	1	1	1	1	1	1	1	1	1	0	1	-48,837209	274,597296	273,542784	0
14.01.2021	20:42:51	0	0	4,067227	4,18875	57,8088	0,583	77,488	3,5	1006	7,1	9,2	9	1	1	1	1	1	1	1	1	1	0	1	-42,424242	274,57434	279,847964	0
14.01.2021	20:42:52	0	0	2,485528	4,79475	62,7768	0,578	77,477	3,5	1005,88	7,1	9,2	9	1	1	1	1	1	1	1	1	1	0	1	-47,427766	274,536141	274,66514	0
14.01.2021	20:42:53	0	0	4,180206	4,8105	73,0404	0,577	77,498	3,5	1006,02	7,1	9,2	9	1	1	1	1	1	1	1	1	1	0	1	-43,058492	274,606486	279,36466	0
14.01.2021	20:42:54	0	0	4,293184	4,302	66,8988	0,575	77,488	3,5	1005,96	7,1	9,1	9	1	1	1	1	1	1	1	1	1	0	1	-45,384073	274,493448	276,508524	0
14.01.2021	20:42:55	0	0	4,293184	4,19325	65,5776	0,574	77,489	3,5	1006,06	7	9,1	9	1	1	1	1	1	1	1	1	1	0	1	-43,692741	274,431103	277,907511	0
14.01.2021	20:42:56	0	0	3,502334	4,00725	54,4608	0,58	77,5	3,5	1005,9	7	9,2	9	1	1	1	1	1	1	1	1	1	0	1	-41,296688	274,554467	280,882229	0
14.01.2021	20:42:57	0	0	2,824463	3,80475	49,5756	0,58	77,49	3,5	1006,14	7,1	9,1	9	1	1	1	1	1	1	1	1	1	0	1	-45,384073	274,57587	276,895314	0
14.01.2021	20:42:58	0	0	4,745098	3,49725	56,6604	0,58	77,505	3,5	1005,9	7,1	9,1	9	1	1	1	1	1	1	1	1	1	0	1	-46,511628	274,600359	275,882749	0
14.01.2021	20:42:59	0	0	3,954249	3,2835	49,5684	0,578	77,515	3,5	1005,92	7,1	9,2	9	1	1	1	1	1	1	1	1	1	0	1	-42,565187	274,493448	279,32741	0
14.01.2021	20:43:00	0	0	5,084034	2,90625	65,8368	0,576	77,523	3,5	1005,84	7,1	9,2	9	1	1	1	1	1	1	1	1	1	0	1	-41,085271	274,522408	280,943191	0
14.01.2021	20:43:01	0	0	5,084034	2,90625	65,8368	0,576	77,523	3,5	1005,84	7,1	9,2	9	1	1	1	1	1	1	1	1	1	0	1	-41,085271	274,522408	280,943191	0
14.01.2021	20:43:02	0	0	3,954249	2,87175	55,9476	0,571	77,52	3,5	1005,88	7,1	9,2	9	1	1	1	1	1	1	1	1	1	0	1	-40,521494	274,60955	281,91605	0
14.01.2021	20:43:03	0	0	4,067252	3,2085	52,8912	0,58	77,521	3,5	1005,96	7	9,2	8,9	1	1	1	1	1	1	1	1	1	0	1	-42,706131	274,530036	279,358126	0
14.01.2021	20:43:04	0	0	4,519141	3,678	70,8444	0,579	77,525	3,5	1005,96	7,1	9,1	9	1	1	1	1	1	1	1	1	1	0	1	-43,058492	274,583519	279,256811	0
14.01.2021	20:43:05	0	0	3,163399	3,77925	49,2048	0,577	77,524	3,5	1005,88	7	9,2	9	1	1	1	1	1	1	1	1	1	0	1	-41,085271	274,426549	280,493635	0
14.01.2021	20:43:06	0	0	3,84127	3,62175	60,2532	0,575	77,517	3,5	1005,88	7,1	9,2	9	1	1	1	1	1	1	1	1	1	0	1	-46,723044	274,469094	275,055331	0
14.01.2021	20:43:07	0	0	3,163399	3,35925	69,1632	0,564	77,534	3,5	1005,92	7,1	9,2	9	1	1	1	1	1	1	1	1	1	0	1	-48,907681	274,403795	272,564585	0
14.01.2021	20:43:08	0	0	4,293184	3,07875	56,2788	0,576	77,536	3,5	1005,98	7,1	9,2	9	1	1	1	1	1	1	1	1	1	0	1	-42,142354	274,546829	280,000713	0
14.01.2021	20:43:09	0	0	4,632148	2,99475	69,2424	0,577	77,546	3,5	1006	7,1	9,2	8,9	1	1	1	1	1	1	1	1	1	0	1	-45,806906	274,594233	276,558707	0
14.01.2021	20:43:10	0	0	3,615313	2,86575	75,9888	0,575	77,54	3,5	1005,9	7,1	9,2	9	1	1	1	1	1	1	1	1	1	0	1	-40,803383	274,46301	280,946464	0
14.01.2021	20:43:11	0	0	4,180206	2,65875	68,7744	0,577	77,557	3,5	1005,94	7	9,2	9	1	1	1	1	1	1	1	1	1	0	1	-45,59549	274,600359	276,798887	0
14.01.2021	20:43:12	0	0	3,84127	2,382	74,9016	0,571	77,56	3,5	1005,86	7,1	9,2	9	1	1	1	1	1	1	1	1	1	0	1	-48,907681	274,555995	273,278407	0
14.01.2021	20:43:13	0	0	4,519141	2,2785	80,5284	0,578	77,568	3,5	1005,74	7,1	9,2	9	1	1	1	1	1	1	1	1	1	0	1	-41,226216	274,543775	280,902516	0
14.01.2021	20:43:14	0	0	3,954249	2,09775	103,6548	0,578	77,566	3,5	1006,02	7,1	9,2	9	1	1	1	1	1	1	1	1	1	0	1	-40,732911	274,428066	280,85311	0
14.01.2021	20:43:15	0	0	4,63212	2,10075	85,9104	0,575	77,565	3,5	1005,84	7,1	9,2	9	1	1	1	1	1	1	1	1	1	0	1	-44,749824	274,469094	277,028551	0
14.01.2021	20:43:16	0	0	2,485528	2,2665	85,9068	0,576	77,557	3,5	1005,98	7,1	9,2	9	1	1	1	1	1	1	1	1	1	0	1	-43,269908	274,591172	279,081327	0
14.01.2021	20:43:17	0	0	3,05042	2,77725	103,68	0,571	77,56	3,5	1005,92	7,1	9,2	9	1	1	1	1	1	1	1	1	1	0	1	-41,719521	274,473658	280,080258	0
14.01.2021	20:43:18	0	0	4,406163	3,234	94,7988	0,572	77,568	3,5	1006,14	7,1	9,2	9	1	1	1	1	1	1	1	1	1	0	1	-46,441156	274,56058	275,766453	0
14.01.2021	20:43:19	0	0	4,293184	3,3405	74,1528	0,575	77,566	3,5	1005,96	7	9,2	9	1	1	1	1	1	1	1	1	1	0	1	-41,860465	274,58658	280,469209	0
14.01.2021	20:43:20	0	0	2,937442	3,6585	73,8828	0,593	77,566	3,5	1006,12	7,1	9,2	9	1	1	1	1	1	1	1	1	1	0	1	-42,283298	274,449329	279,4024	0
14.01.2021	20:43:21	0	0	3,615313	4,1085	73,4652	0,574	77,583	3,5	1005,94	7	9,2	9	1	1	1	1	1	1	1	1	1	0	1	-44,186047	274,406827	277,300429	0
14.01.2021	20:43:22	0	0	4,745098	4,23225	79,4124	0,571	77,58	3,5	1005,84	7,1	9,2	9	1	1	1	1	1	1	1	1	1	0	1	-39,887245	274,58811	282,449616	0
14.01.2021	20:43:23	0	0	4,858077	4,1415	75,618	0,567	77,578	3,5	1006	7,1	9,2	9	1	1	1	1	1	1	1	1	1	0	1	-41,930937	274,546829	280,212129	0
14.01.2021	20:43:24	0	0	2,598506	4,08975	90,4824	0,567	77,579	3,5	1005,96	7,1	9,2	9	1	1	1	1	1	1	1	1	1	0	1	-42,142354	274,411376	279,365442	0
14.01.2021	20:43:25	0	0	4,519141	3,87075	90,396	0,572	77,587	3,5	1006	7,1	9,2	9	1	1	1	1	1	1	1	1	1	0	1	-40,732911	274,493448	281,159686	0
14.01.2021	20:43:26	0	0	2,937442	3,73125	74,556	0,571	77,596	3,5	1005,96	7,1	9,2	9	1	1	1	1	1	1	1	1	1	0	1	-43,269908	274,58811	279,066952	0
14.01.2021	20:43:27	0	0	4,180206	3,639	75,9636	0,567	77,592	3,5	1005,78	7,1	9,2	9	1	1	1	1	1	1	1	1	1	0	1	-44,820296	274,441733	276,829788	0
14.01.2021	20:43:28	0	0	3,615313	3,489	73,7784	0,566	77,593	3,5	1005,82	7,1	9,2	9	1	1	1	1	1	1	1	1	1	0	1	-42,424242	274,578929	279,869509	0
14.01.2021	20:43:29	0	0	3,502334	3,42675	79,758	0,574	77,602	3,5	1006,04	7	9,2	9	1	1	1	1	1	1	1	1	1	0	1	-42,98802	274,44781	278,690554	0
14.01.2021	20:43:30	0	0	3,502334	3,4605	69,84	0,569	77,603	3,5	1005,88	7	9,2	9	1	1	1	1	1	1	1	1	1	0	1	-42,424242	274,52851	279,632854	0
14.01.2021	20:43:31	0	0	2,598506	3,3225	74,9268	0,569	77,609	3,5	1006,06	7,1	9,2	9	1	1	1	1	1	1	1	1	1	0	1	-42,776603	274,41441	278,745409	0
14.01.2021	20:43:32	0	0	3,05042	3,25875	79,092	0,571	77,614	3,5	1006,18	7,1	9,2	9	1	1	1	1	1	1	1	1	1	0	1	-44,538407	274,533089	277,540173	0
14.01.2021	20:43:33	0	0	3,615313	3,09225	85,9212	0,566	77,619	3,5	1005,84	7	9,2	9	1	1	1	1	1	1	1	1	1	0	1	-46,793517	274,600359	275,600861	0
14.01.2021	20:43:34	0	0	4,293184	3,16725	84,8016	0,572	77,644	3,5	1005,84	7,1	9,2	9	1	1	1	1	1	1	1	1	1	0	1	-40,873855	274,523933	281,161765	0
14.01.2021	20:43:35	0	0	2,711485	3,07725	98,4564	0,57	77,662	3,5	1005,94	7,1	9,2	9	1	1	1	1	1	1	1	1	1	0	1	-43,904158	274,456929	277,817172	0
14.01.2021	20:43:36	0	0	4,406163	3,1305	110,0196	0,567	77,677	3,5	1005,96	7,1	9,2	9	1	1	1	1	1	1	1	1	1	0	1	-42,565187	274,441733	279,084897	0
14.01.2021	20:43:37	0	0	4,971055	3,08175	103,6872	0,564	77,665	3,5	1006	7	9,2	9	1	1	1	1	1	1	1	1	1	0	1	-41,437632	274,438695	280,198211	0
14.01.2021	20:43:38	0	0	3,05042	3,12525	95,166	0,568	77,68	3,5	1005,96	7,1	9,2	9	1	1	1	1	1	1	1	1	1	0	1	-46,018323	274,441733	275,631761	0
14.01.2021	20:43:39	0	0	2,485528	3,32625	100,3572	0,568	77,673	3,5	1005,86	7,1	9,2	9	1	1	1	1	1	1	1	1	1	0	1	-41,649049	274,608018	280,781299	0
14.01.2021	20:43:40	0	0	3,389356	3,21675	98,478	0,565	77,666	3,5	1005,98	7,1	9,2	9	1	1	1	1	1	1	1	1	1	0	1	-43,340381	274,526985	278,709557	0
14.01.2021	20:43:41	0	0	2,711485	3,141	103,2948	0,561	77,663	3,5	1005,88	7,1	9,2	9	1	1	1	1	1	1	1	1	1	0	1	-40,732911	274,44781	280,945664	0
14.01.2021	20:43:42	0	0	3,05042	3,003	92,9772	0,561	77,659	3,5	1005,78	7	9,2	9	1	1	1	1	1	1	1	1	1	0	1	-43,551797	274,533089	278,526783	0
14.01.2021	20:43:43	0	0	2,259571	2,811	93,3444	0,563	77,647	3,5	1005,74	7,1	9,2	9	1	1	1	1	1	1	1	1	1	0	1	-41,36716	274,585049	280,955328	0
14.01.2021	20:43:44	0	0	3,05042	2,54625	93,7224	0,557	77,658	3,5	1005,9	7	9,2	9	1	1	1	1	1	1	1	1	1	0	1	-43,692741	274,491925	278,192712	0
14.01.2021	20:43:45	0	0	4,858077	2,67525	87,372	0,563	77,665	3,5	1005,84	7	9,2	9	1	1	1	1	1	1	1	1	1	0	1	-40,803383	274,572811	281,461644	0
14.01.2021	20:43:46	0	0	4,293184	2,72325	83,0484	0,561	77,669	3,5	1005,98	7,1	9,2	9	1	1	1	1	1	1	1	1	1	0	1	-45,806906	274,57587	276,472481	0
14.01.2021	20:43:47	0	0	2,485528	2,96625	81,6048	0,564	77,678	3,5	1006,06	7	9,2	9	1	1	1	1	1	1	1	1	1	0	1	-45,947851	274,425031	275,623941	0
14.01.2021	20:43:48	0	0	2,937442	3,321	84,438	0,564	77,64	3,5	1005,96	7,1	9,2	9	1	1	1	1	1	1	1	1	1	0	1	-44,890768	274,58658	277,438906	0
14.01.2021	20:43:49	0	0	3,502334	3,4365	85,5504	0,557	77,646	3,5	1006,1	7,1	9,2	9	1	1	1	1	1	1	1	1	1	0	1	-42,001409	274,604954	280,414548	0
14.01.2021	20:43:50	0	0	3,163399	3,4575	73,1196	0,559	77,655	3,5	1005,76	7,1	9,2	9	1	1	1	1	1	1	1	1	1	0	1	-43,269908	274,456929	278,451421	0
14.01.2021	20:43:51	0	0	2,711485	3,5325	88,6104	0,553	77,656	3,5	1005,82	7,1	9,2	9	1	1	1	1	1	1	1	1	1	0	1	-43,97463	274,597296	278,405364	0
14.01.2021	20:43:52	0	0	2,824463	3,7935	83,3472	0,559	77,66	3,5	1005,84	7,1	9,2	9	1	1	1	1	1	1	1	1	1	0	1	-42,98802	274,44781	278,690554	0
14.01.2021	20:43:53	0	0	3,389356	3,80475	97,7148	0,562	77,668	3,5	1006,06	7,1	9,2	9	1	1	1	1	1	1	1	1	1	0	1	-45,947851	274,595765	276,424953	0
14.01.2021	20:43:54	0	0	3,728292	3,699	94,0968	0,559	77,665	3,5	1005,96	7,1	9,2	9	1	1	1	1	1	1	1	1	1	0	1	-43,199436	274,449329	278,486262	0
14.01.2021	20:43:55	0	0	2,711485	3,59025	90,7848	0,558	77,688	3,5	1005,96	7	9,2	9	1	1	1	1	1	1	1	1	1	0	1	-38,971106	274,585049	283,351382	0
14.01.2021	20:43:56	0	0	2,937442	3,429	83,34	0,56	77,7	3,5	1005,98	7,1	9,2	9	1	1	1	1	1	1	1	1	1	0	1	-40,803383	274,44629	280,868068	0
14.01.2021	20:43:57	0	0	3,05042	3,39675	91,8864	0,557	77,708	3,5	1005,84	7,1	9,2	9	1	1	1	1	1	1	1	1	1	0	1	-45,031712	274,577399	277,254857	0
14.01.2021	20:43:58	0	0	3,728292	3,35775	87,3396	0,56	77,704	3,5	1006,04	7,1	9,2	9	1	1	1	1	1	1	1	1	1	0	1	-41,296688	274,456929	280,424642	0
14.01.2021	20:43:59	0	0	4,519141	3,25125	95,544	0,559	77,703	3,5	1006,08	7,1	9,2	9	1	1	1	1	1	1	1	1	1	0	1	-40,169133	274,563637	282,052826	0
14.01.2021	20:44:00	0	0	2,598506	3,153	86,2884	0,558	77,705	3,5	1005,96	7	9,2	9	1	1	1	1	1	1	1	1	1	0	1	-45,736434	274,482789	276,106169	0
14.01.2021	20:44:01	0	0	2,598506	3,153	86,2884	0,558	77,705	3,5	1005,96	7	9,2	9	1	1	1	1	1	1	1	1	1	0	1	-45,736434	274,482789	276,106169	0
14.01.2021	20:44:02	0	0	4,293184	3,21	87,7428	0,559	77,704	3,5	1005,98	7	9,2	9	1	1	1	1	1	1	1	1	1	0	1	-44,749824	274,426549	276,829082	0
14.01.2021	20:44:03	0	0	4,293184	3,1455	74,9016	0,56	77,722	3,5	1006,06	7	9,2	9	1	1	1	1	1	1	1	1	1	0	1	-42,35377	274,543775	279,774961	0
14.01.2021	20:44:04	0	0	5,084034	3,03525	70,8732	0,561	77,716	3,5	1005,82	7	9,2	9	1	1	1	1	1	1	1	1	1	0	1	-38,900634	274,403795	282,571632	0
14.01.2021	20:44:05	0	0	3,728292	2,826	87,8436	0,559	77,724	3,5	1005,92	7	9,2	9	1	1	1	1	1	1	1	1	1	0	1	-42,142354	274,591172	280,208882	0
14.01.2021	20:44:06	0	0	4,63212	2,6655	87,7356	0,558	77,736	3,5	1005,84	7	9,2	9	1	1	1	1	1	1	1	1	1	0	1	-43,622269	274,57434	278,649938	0
14.01.2021	20:44:07	0	0	4,293184	2,658	91,5336	0,562	77,753	3,5	1005,98	7	9,2	9	1	1	1	1	1	1	1	1	1	0	1	-40,591966	274,452369	281,107983	0
14.01.2021	20:44:08	0	0	4,63212	2,71575	84,5244	0,561	77,743	3,5	1005,92	7	9,2	9	1	1	1	1	1	1	1	1	1	0	1	-44,186047	274,425031	277,385745	0
14.01.2021	20:44:09	0	0	3,84127	2,81175	92,6568	0,558	77,762	3,5	1006,04	7,1	9,2	9	1	1	1	1	1	1	1	1	1	0	1	-44,256519	274,542248	277,865046	0
14.01.2021	20:44:10	0	0	3,615313	2,8515	84,4272	0,558	77,767	3,5	1005,84	7,1	9,2	9	1	1	1	1	1	1	1	1	1	0	1	-41,085271	274,44781	280,593303	0
14.01.2021	20:44:11	0	0	3,163399	2,72325	84,4164	0,556	77,779	3,5	1005,9	7,1	9,2	9	1	1	1	1	1	1	1	1	1	0	1	-40,591966	274,420478	280,958488	0
14.01.2021	20:44:12	0	0	4,745098	2,5845	85,2192	0,554	77,761	3,5	1005,94	7	9,2	9	1	1	1	1	1	1	1	1	1	0	1	-43,269908	274,559051	278,930526	0
14.01.2021	20:44:13	0	0	4,180206	2,3805	85,2012	0,555	77,796	3,5	1005,84	7	9,2	9	1	1	1	1	1	1	1	1	1	0	1	-41,014799	274,604954	281,401158	0
14.01.2021	20:44:14	0	0	2,824463	2,2605	78,678	0,555	77,794	3,5	1006,02	7	9,2	9	1	1	1	1	1	1	1	1	1	0	1	-41,155743	274,531562	280,915675	0
14.01.2021	20:44:15	0	0	4,406163	2,28975	90,414	0,559	77,784	3,5	1006,08	7	9,2	9	1	1	1	1	1	1	1	1	1	0	1	-43,551797	274,41441	277,970215	0
14.01.2021	20:44:16	0	0	4,406163	2,33925	78,6636	0,558	77,78	3,5	1005,86	7,1	9,2	9	1	1	1	1	1	1	1	1	1	0	1	-46,441156	274,61568	276,025179	0
14.01.2021	20:44:17	0	0	3,389356	2,3475	95,8464	0,551	77,77	3,5	1005,94	7,1	9,2	9	1	1	1	1	1	1	1	1	1	0	1	-44,186047	274,417444	277,350185	0
14.01.2021	20:44:18	0	0	3,163399	2,4675	79,0452	0,551	77,774	3,5	1005,9	7	9,2	9	1	1	1	1	1	1	1	1	1	0	1	-44,045102	274,539194	278,062132	0
14.01.2021	20:44:19	0	0	4,180206	2,57475	91,26	0,55	77,774	3,5	1005,88	7,1	9,2	9	1	1	1	1	1	1	1	1	1	0	1	-41,719521	274,604954	280,696437	0
14.01.2021	20:44:20	0	0	4,971055	2,64	85,6224	0,554	77,775	3,5	1005,94	7	9,2	9	1	1	1	1	1	1	1	1	1	0	1	-38,75969	274,467573	283,011552	0
14.01.2021	20:44:21	0	0	2,937442	2,61375	90,7956	0,558	77,779	3,5	1006,06	7	9,2	9	1	1	1	1	1	1	1	1	1	0	1	-40,310078	274,595765	282,062726	0
14.01.2021	20:44:22	0	0	2,937442	2,667	90,4212	0,552	77,762	3,5	1005,88	7	9,2	9	1	1	1	1	1	1	1	1	1	0	1	-42,635659	274,441733	279,014425	0
14.01.2021	20:44:23	0	0	2,711485	2,754	64,2708	0,552	77,757	3,5	1006,12	7,1	9,2	9	1	1	1	1	1	1	1	1	1	0	1	-35,940803	274,554467	286,238113	0
14.01.2021	20:44:24	0	0	3,728292	2,66175	75,9888	0,554	77,761	3,5	1006	7	9,2	9	1	1	1	1	1	1	1	1	1	0	1	-40,591966	274,617213	281,881569	0
14.01.2021	20:44:25	0	0	3,954249	2,5875	79,0596	0,552	77,744	3,5	1005,92	7	9,2	9	1	1	1	1	1	1	1	1	1	0	1	-42,071882	274,539194	280,035352	0
14.01.2021	20:44:26	0	0	5,084034	2,571	75,9852	0,555	77,752	3,5	1005,92	7,1	9,2	9	1	1	1	1	1	1	1	1	1	0	1	-36,434109	274,417444	285,102123	0
14.01.2021	20:44:27	0	0	4,406163	2,54475	84,4308	0,549	77,749	3,5	1005,86	7	9,2	9	1	1	1	1	1	1	1	1	1	0	1	-42,494715	274,498018	279,419318	0
14.01.2021	20:44:28	0	0	3,954249	2,4345	91,5048	0,552	77,756	3,5	1005,96	7	9,2	9	1	1	1	1	1	1	1	1	1	0	1	-43,904158	274,604954	278,511799	0
14.01.2021	20:44:29	0	0	2,598506	2,2455	92,9736	0,555	77,741	3,5	1005,86	7,1	9,2	9	1	1	1	1	1	1	1	1	1	0	1	-39,605356	274,479745	282,22297	0
14.01.2021	20:44:30	0	0	2,824463	2,157	84,5244	0,553	77,73	3,5	1005,92	7,1	9,2	9	1	1	1	1	1	1	1	1	1	0	1	-42,917548	274,598827	279,469638	0
14.01.2021	20:44:31	0	0	4,971055	2,25225	93,7332	0,552	77,744	3,5	1006,04	7	9,2	9	1	1	1	1	1	1	1	1	1	0	1	-42,494715	274,539194	279,612519	0
14.01.2021	20:44:32	0	0	3,502334	2,4465	89,3556	0,554	77,735	3,5	1005,96	7,1	9,1	9	1	1	1	1	1	1	1	1	1	0	1	-38,266385	274,440214	283,376578	0
14.01.2021	20:44:33	0	0	4,293184	2,6145	59,868	0,552	77,74	3,5	1005,96	7	9,2	9	1	1	1	1	1	1	1	1	1	0	1	-42,847075	274,52851	279,210021	0
14.01.2021	20:44:34	0	0	4,63212	2,74125	79,038	0,551	77,745	3,5	1006,1	7,1	9,2	9	1	1	1	1	1	1	1	1	1	0	1	-41,930937	274,420478	279,619516	0
14.01.2021	20:44:35	0	0	2,937442	2,83875	92,2788	0,549	77,747	3,5	1006	7	9,2	9	1	1	1	1	1	1	1	1	1	0	1	-40,521494	274,530036	281,542763	0
14.01.2021	20:44:36	0	0	4,745098	2,85975	84,4452	0,549	77,74	3,5	1005,88	7	9,2	9	1	1	1	1	1	1	1	1	1	0	1	-37,13883	274,423513	284,425848	0
14.01.2021	20:44:37	0	0	4,519141	3,009	90,0216	0,552	77,747	3,5	1005,9	7	9,2	9	1	1	1	1	1	1	1	1	1	0	1	-45,736434	274,539194	276,3708	0
14.01.2021	20:44:38	0	0	4,293184	3,0825	81,9684	0,554	77,741	3,5	1005,92	7	9,2	9	1	1	1	1	1	1	1	1	1	0	1	-44,608879	274,456929	277,11245	0
14.01.2021	20:44:39	0	0	4,519141	3,426	77,2128	0,551	77,751	3,5	1005,96	7,1	9,2	9	1	1	1	1	1	1	1	1	1	0	1	-43,763214	274,549884	278,394191	0
14.01.2021	20:44:40	0	0	4,858077	3,525	89,712	0,55	77,741	3,5	1006,04	7	9,2	9	1	1	1	1	1	1	1	1	1	0	1	-41,930937	274,58658	280,398737	0
14.01.2021	20:44:41	0	0	4,858077	3,46875	97,704	0,548	77,739	3,5	1005,94	7,1	9,2	9	1	1	1	1	1	1	1	1	1	0	1	-41,226216	274,551412	280,938359	0
14.01.2021	20:44:42	0	0	3,163399	3,36675	86,6772	0,548	77,729	3,5	1006	7,1	9,2	9	1	1	1	1	1	1	1	1	1	0	1	-42,283298	274,519358	279,730851	0
14.01.2021	20:44:43	0	0	4,067227	3,4965	92,2536	0,548	77,756	3,5	1006,08	7	9,2	9	1	1	1	1	1	1	1	1	1	0	1	-39,816772	274,594233	282,548841	0
14.01.2021	20:44:44	0	0	3,389356	3,579	86,6592	0,541	77,748	3,5	1005,96	7,1	9,2	9	1	1	1	1	1	1	1	1	1	0	1	-38,548273	274,523933	283,487346	0
14.01.2021	20:44:45	0	0	3,276377	3,48975	97,7076	0,551	77,773	3,5	1006,06	7	9,2	9	1	1	1	1	1	1	1	1	1	0	1	-45,313601	274,387126	276,080559	0
14.01.2021	20:44:46	0	0	3,728292	3,2115	82,35	0,541	77,764	3,5	1005,78	7	9,2	9	1	1	1	1	1	1	1	1	1	0	1	-47,639183	274,456929	274,082147	0
14.01.2021	20:44:47	0	0	4,180206	3,07125	89,7012	0,549	77,771	3,5	1005,96	7	9,2	9	1	1	1	1	1	1	1	1	1	0	1	-44,115574	274,585049	278,206914	0
14.01.2021	20:44:48	0	0	3,163399	3,05325	70,2108	0,549	77,775	3,5	1006,08	7	9,2	9	1	1	1	1	1	1	1	1	1	0	1	-40,38055	274,470615	281,404959	0
14.01.2021	20:44:49	0	0	4,63212	2,934	74,5272	0,544	77,786	3,5	1006,04	7	9,2	9	1	1	1	1	1	1	1	1	1	0	1	-42,706131	274,578929	279,587621	0
14.01.2021	20:44:50	0	0	4,293184	2,706	78,2892	0,547	77,774	3,5	1005,9	7	9,2	9	1	1	1	1	1	1	1	1	1	0	1	-44,326991	274,534615	277,758752	0
14.01.2021	20:44:51	0	0	3,502334	2,4285	75,24	0,546	77,782	3,5	1005,8	7	9,2	9	1	1	1	1	1	1	1	1	1	0	1	-40,028189	274,580459	282,272746	0
14.01.2021	20:44:52	0	0	4,971055	2,36775	71,9676	0,545	77,77	3,5	1005,88	7	9,2	9	1	1	1	1	1	1	1	1	1	0	1	-42,071882	274,545302	280,064017	0
14.01.2021	20:44:53	0	0	3,84127	2,5875	70,2108	0,547	77,789	3,5	1005,98	7	9,2	9	1	1	1	1	1	1	1	1	1	0	1	-41,508104	274,408343	279,985478	0
14.01.2021	20:44:54	0	0	3,276377	2,6625	76,3524	0,538	77,778	3,5	1005,88	7,1	9,2	9	1	1	1	1	1	1	1	1	1	0	1	-43,058492	274,46149	278,684225	0
14.01.2021	20:44:55	0	0	2,485528	2,49375	73,0548	0,546	77,783	3,5	1006,08	7	9,2	9	1	1	1	1	1	1	1	1	1	0	1	-42,776603	274,40986	278,724085	0
14.01.2021	20:44:56	0	0	3,163399	2,41875	70,236	0,539	77,778	3,5	1005,92	7	9,2	9	1	1	1	1	1	1	1	1	1	0	1	-35,658915	274,525459	286,383863	0
14.01.2021	20:44:57	0	0	3,728292	2,60625	75,9888	0,544	77,777	3,5	1006	7	9,2	9	1	1	1	1	1	1	1	1	1	0	1	-36,434109	274,577399	285,852461	0
14.01.2021	20:44:58	0	0	4,745098	2,676	80,5176	0,546	77,776	3,5	1005,92	7	9,2	9	1	1	1	1	1	1	1	1	1	0	1	-42,706131	274,537668	279,393938	0
14.01.2021	20:44:59	0	0	4,858077	2,7885	92,6676	0,542	77,771	3,5	1006	7	9,2	9	1	1	1	1	1	1	1	1	1	0	1	-40,169133	274,40986	281,331555	0
14.01.2021	20:45:00	0	0	2,937442	3,1605	92,6532	0,537	77,777	3,5	1005,9	7	9,2	9	1	1	1	1	1	1	1	1	1	0	1	-43,058492	274,44781	278,620082	0
14.01.2021	20:45:01	0	0	2,937442	3,1605	92,6532	0,537	77,777	3,5	1005,9	7	9,2	9	1	1	1	1	1	1	1	1	1	0	1	-40,521494	274,57587	281,757894	0
14.01.2021	20:45:02	0	0	3,389356	3,219	94,374	0,541	77,782	3,5	1006	7,1	9,2	9	1	1	1	1	1	1	1	1	1	0	1	-42,001409	274,472137	279,791234	0
14.01.2021	20:45:03	0	0	2,937442	3,1005	80,136	0,543	77,779	3,5	1005,96	7,1	9,1	9	1	1	1	1	1	1	1	1	1	0	1	-41,226216	274,406827	280,26026	0
14.01.2021	20:45:04	0	0	2,937442	3,00825	91,8828	0,543	77,842	3,5	1005,82	7	9,1	9	1	1	1	1	1	1	1	1	1	0	1	-41,437632	274,438695	280,198211	0
14.01.2021	20:45:05	0	0	2,372549	3,0075	88,5924	0,542	77,792	3,5	1006,08	7	9,2	9	1	1	1	1	1	1	1	1	1	0	1	-40,521494	274,557523	281,671767	0
14.01.2021	20:45:06	0	0	3,05042	2,838	59,1048	0,541	77,788	3,5	1006,16	7	9,2	9	1	1	1	1	1	1	1	1	1	0	1	-37,420719	274,536141	284,672187	0
14.01.2021	20:45:07	0	0	3,389356	2,68575	101,502	0,536	77,776	3,5	1006,02	7	9,2	9	1	1	1	1	1	1	1	1	1	0	1	-44,256519	274,585049	278,065969	0
14.01.2021	20:45:08	0	0	3,389356	2,6325	63,864	0,541	77,797	3,5	1006,06	7,1	9,2	9	1	1	1	1	1	1	1	1	1	0	1	-41,508104	274,450849	280,184719	0
14.01.2021	20:45:09	0	0	2,937442	2,739	66,9024	0,54	77,772	3,5	1005,94	7	9,2	9	1	1	1	1	1	1	1	1	1	0	1	-45,877378	274,44629	275,794072	0
14.01.2021	20:45:10	0	0	3,389356	2,8755	75,24	0,542	77,788	3,5	1006,02	7	9,2	9	1	1	1	1	1	1	1	1	1	0	1	-46,229739	274,44781	275,448835	0
14.01.2021	20:45:11	0	0	3,615313	2,83275	75,6108	0,537	77,768	3,5	1005,88	7	9,1	9	1	1	1	1	1	1	1	1	1	0	1	-43,904158	274,581989	278,403961	0
14.01.2021	20:45:12	0	0	2,598506	2,7345	81,9576	0,543	77,791	3,5	1005,94	7	9,2	9	1	1	1	1	1	1	1	1	1	0	1	-43,199436	274,438695	278,436407	0
14.01.2021	20:45:13	0	0	3,163399	2,75025	76,3776	0,536	77,775	3,5	1005,88	7	9,2	9	1	1	1	1	1	1	1	1	1	0	1	-42,917548	274,393186	278,505005	0
14.01.2021	20:45:14	0	0	3,502334	2,871	86,6736	0,531	77,784	3,5	1005,82	7,1	9,2	9	1	1	1	1	1	1	1	1	1	0	1	-41,437632	274,504112	280,504992	0
14.01.2021	20:45:15	0	0	3,05042	2,83875	104,058	0,538	77,8	3,5	1005,9	7,1	9,2	9	1	1	1	1	1	1	1	1	1	0	1	-40,239605	274,562108	281,975178	0
14.01.2021	20:45:16	0	0	2,937442	2,7825	98,46	0,538	77,789	3,5	1005,92	7	9,2	9	1	1	1	1	1	1	1	1	1	0	1	-45,454545	274,533089	276,624035	0
14.01.2021	20:45:17	0	0	4,63212	2,745	104,436	0,534	77,79	3,5	1006,02	7	9,2	9	1	1	1	1	1	1	1	1	1	0	1	-39,534884	274,568223	282,708606	0
14.01.2021	20:45:18	0	0	3,389356	2,5605	95,2272	0,53	77,787	3,5	1005,96	7,1	9,2	9	1	1	1	1	1	1	1	1	1	0	1	-41,014799	274,453888	280,692276	0
14.01.2021	20:45:19	0	0	4,406163	2,31525	98,7768	0,536	77,814	3,5	1005,9	7,1	9,2	9	1	1	1	1	1	1	1	1	1	0	1	-42,98802	274,539194	279,119214	0
14.01.2021	20:45:20	0	0	4,63212	2,16075	113,0328	0,526	77,823	3,5	1005,94	7,1	9,2	9	1	1	1	1	1	1	1	1	1	0	1	-41,014799	274,530036	281,049458	0
14.01.2021	20:45:21	0	0	2,937442	2,0625	117,0324	0,534	77,824	3,5	1005,8	7,1	9,1	9	1	1	1	1	1	1	1	1	1	0	1	-39,112051	274,444771	282,552277	0
14.01.2021	20:45:22	0	0	3,276377	2,14275	100,8648	0,533	77,852	3,5	1006,04	7,1	9,2	9	1	1	1	1	1	1	1	1	1	0	1	-36,715997	274,396216	284,720756	0
14.01.2021	20:45:23	0	0	2,485528	2,232	98,4564	0,527	77,874	3,5	1005,9	7,1	9,1	9	1	1	1	1	1	1	1	1	1	0	1	-37,491191	274,455409	284,223011	0
14.01.2021	20:45:24	0	0	4,180206	2,15625	98,4672	0,533	77,883	3,5	1005,98	7,1	9,2	9	1	1	1	1	1	1	1	1	1	0	1	-39,957717	274,37804	281,393875	0
14.01.2021	20:45:25	0	0	4,858077	2,0865	95,1696	0,529	77,89	3,5	1005,86	7	9,2	9	1	1	1	1	1	1	1	1	1	0	1	-43,128964	274,458449	278,599494	0
14.01.2021	20:45:26	0	0	4,519141	2,157	96,5988	0,534	77,912	3,5	1006,02	7	9,2	9	1	1	1	1	1	1	1	1	1	0	1	-41,789993	274,557523	280,403268	0
14.01.2021	20:45:27	0	0	4,858077	2,205	86,274	0,529	77,912	3,5	1005,8	7,1	9,2	9	1	1	1	1	1	1	1	1	1	0	1	-42,917548	274,543775	279,211184	0
14.01.2021	20:45:28	0	0	2,033614	2,2725	82,3356	0,537	77,929	3,5	1005,92	7,1	9,1	9	1	1	1	1	1	1	1	1	1	0	1	-38,477801	274,443252	283,179404	0
14.01.2021	20:45:29	0	0	3,84127	2,2755	90,1152	0,53	77,934	3,5	1006,02	7,1	9,1	9	1	1	1	1	1	1	1	1	1	0	1	-40,732911	274,373498	280,597405	0
14.01.2021	20:45:30	0	0	3,728292	2,23425	70,866	0,526	77,939	3,5	1005,84	7,1	9,1	9	1	1	1	1	1	1	1	1	1	0	1	-43,058492	274,519358	278,955657	0
14.01.2021	20:45:31	0	0	2,259571	2,2545	75,9996	0,527	77,925	3,5	1006,04	7,1	9,2	9	1	1	1	1	1	1	1	1	1	0	1	-43,551797	274,555995	278,634292	0
14.01.2021	20:45:32	0	0	3,276377	2,24175	71,6076	0,522	77,934	3,5	1005,88	7,1	9,2	9	1	1	1	1	1	1	1	1	1	0	1	-40,662438	274,522408	281,366024	0
14.01.2021	20:45:33	0	0	2,711485	2,2065	67,6908	0,532	77,937	3,5	1006,04	7	9,1	9	1	1	1	1	1	1	1	1	1	0	1	-39,675828	274,557523	282,517433	0
14.01.2021	20:45:34	0	0	2,937442	2,11275	71,2512	0,521	77,932	3,5	1006,02	7,1	9,2	9	1	1	1	1	1	1	1	1	1	0	1	-38,195913	274,393186	283,22664	0
14.01.2021	20:45:35	0	0	4,63212	1,90725	82,3788	0,53	77,952	3,5	1006,08	7,1	9,2	9	1	1	1	1	1	1	1	1	1	0	1	-40,098661	274,402279	281,366501	0
14.01.2021	20:45:36	0	0	5,422969	1,905	91,1772	0,526	77,941	3,5	1006,08	7,1	9,2	9	1	1	1	1	1	1	1	1	1	0	1	-38,054968	274,537668	284,045101	0
14.01.2021	20:45:37	0	0	3,163399	1,91175	93,7188	0,528	77,931	3,5	1006,04	7,1	9,1	9	1	1	1	1	1	1	1	1	1	0	1	-43,199436	274,432621	278,407933	0
14.01.2021	20:45:38	0	0	5,197012	2,04075	90,0396	0,525	77,949	3,5	1005,94	7,1	9,2	9	1	1	1	1	1	1	1	1	1	0	1	-39,041579	274,557523	283,151683	0
14.01.2021	20:45:39	0	0	3,954249	2,307	98,7444	0,524	77,938	3,5	1005,9	7,1	9,1	9	1	1	1	1	1	1	1	1	1	0	1	-40,38055	274,50716	281,576374	0
14.01.2021	20:45:40	0	0	3,954249	2,37	90,522	0,524	77,951	3,5	1005,84	7,1	9,2	9	1	1	1	1	1	1	1	1	1	0	1	-42,565187	274,388641	278,836071	0
14.01.2021	20:45:41	0	0	3,615313	2,39475	96,9732	0,531	77,956	3,5	1005,96	7,1	9,1	9	1	1	1	1	1	1	1	1	1	0	1	-36,786469	274,452369	284,913479	0
14.01.2021	20:45:42	0	0	4,745098	2,583	99,162	0,528	77,97	3,5	1006,04	7,1	9,2	9	1	1	1	1	1	1	1	1	1	0	1	-40,944327	274,551412	281,220248	0
14.01.2021	20:45:43	0	0	2,937442	2,6355	99,144	0,529	77,974	3,5	1005,96	7,1	9,2	9	1	1	1	1	1	1	1	1	1	0	1	-40,944327	274,411376	280,563469	0
14.01.2021	20:45:44	0	0	3,05042	2,66325	89,334	0,527	77,963	3,5	1006,02	7,1	9,2	9	1	1	1	1	1	1	1	1	1	0	1	-38,689218	274,543775	283,439514	0
14.01.2021	20:45:45	0	0	4,745098	2,72025	99,162	0,526	77,971	3,5	1006,16	7,1	9,1	9	1	1	1	1	1	1	1	1	1	0	1	-39,112051	274,511733	282,866327	0
14.01.2021	20:45:46	0	0	2,711485	2,99325	86,9832	0,522	77,963	3,5	1005,92	7,1	9,1	9	1	1	1	1	1	1	1	1	1	0	1	-45,172657	274,555995	277,013432	0
14.01.2021	20:45:47	0	0	2,485528	3,7455	75,978	0,525	77,971	3,5	1006,2	7,1	9,1	9	1	1	1	1	1	1	1	1	1	0	1	-40,169133	274,431103	281,431119	0
14.01.2021	20:45:48	0	0	4,406163	4,04175	59,8536	0,526	77,981	3,5	1005,94	7,1	9,2	9	1	1	1	1	1	1	1	1	1	0	1	-44,538407	274,554467	277,640509	0
14.01.2021	20:45:49	0	0	4,745098	4,18725	71,9676	0,522	77,962	3,5	1005,96	7,1	9,1	9	1	1	1	1	1	1	1	1	1	0	1	-42,142354	274,496494	279,764533	0
14.01.2021	20:45:50	0	0	3,615313	5,00475	70,8588	0,522	77,965	3,5	1006,16	7,1	9,1	9	1	1	1	1	1	1	1	1	1	0	1	-42,98802	274,548357	279,162216	0
14.01.2021	20:45:51	0	0	2,711485	4,893	77,94	0,524	77,983	3,5	1006	7,1	9,2	9	1	1	1	1	1	1	1	1	1	0	1	-36,434109	274,415927	285,095013	0
14.01.2021	20:45:52	0	0	4,519141	4,46625	65,844	0,523	77,979	3,5	1005,88	7,1	9,1	9	1	1	1	1	1	1	1	1	1	0	1	-42,565187	274,530036	279,499071	0
14.01.2021	20:45:53	0	0	4,858077	3,9705	84,4092	0,521	77,996	3,5	1005,94	7,1	9,2	9	1	1	1	1	1	1	1	1	1	0	1	-41,719521	274,412893	279,795383	0
14.01.2021	20:45:54	0	0	4,519141	3,74775	75,2508	0,523	78,013	3,5	1005,94	7,1	9,1	9	1	1	1	1	1	1	1	1	1	0	1	-43,622269	274,40986	277,878419	0
14.01.2021	20:45:55	0	0	3,502334	3,30975	69,8688	0,526	78,025	3,5	1005,96	7,1	9,2	9	1	1	1	1	1	1	1	1	1	0	1	-42,847075	274,551412	279,317499	0
14.01.2021	20:45:56	0	0	3,163399	2,95725	58,4964	0,528	78,038	3,5	1005,9	7,1	9,1	9	1	1	1	1	1	1	1	1	1	0	1	-38,548273	274,508685	283,415801	0
14.01.2021	20:45:57	0	0	2,711485	2,673	57,0348	0,518	78,045	3,5	1005,74	7,1	9,1	9	1	1	1	1	1	1	1	1	1	0	1	-42,98802	274,551412	279,176555	0
14.01.2021	20:45:58	0	0	4,63212	2,51775	96,2316	0,521	78,042	3,5	1006	7,1	9,1	9	1	1	1	1	1	1	1	1	1	0	1	-37,350247	274,441733	284,299837	0
14.01.2021	20:45:59	0	0	2,485528	2,97975	61,704	0,522	78,061	3,5	1005,96	7,1	9,1	9	1	1	1	1	1	1	1	1	1	0	1	-39,887245	274,370471	281,428891	0
14.01.2021	20:46:00	0	0	3,163418	3,6855	51,768	0,519	78,065	3,5	1006	7,1	9,1	8,9	1	1	1	1	1	1	1	1	1	0	1	-42,494715	274,525459	279,548064	0
14.01.2021	20:46:01	0	0	2,937442	3,84525	44,7876	0,522	78,065	3,5	1005,94	7,1	9,1	9	1	1	1	1	1	1	1	1	1	0	1	-42,494715	274,525459	279,548064	0
14.01.2021	20:46:02	0	0	2,937442	3,84525	44,7876	0,522	78,065	3,5	1005,94	7,1	9,1	9	1	1	1	1	1	1	1	1	1	0	1	-47,780127	274,41441	273,741886	0
14.01.2021	20:46:03	0	0	2,598506	3,87825	49,2084	0,519	78,082	3,5	1005,92	7,1	9,1	9	1	1	1	1	1	1	1	1	1	0	1	-40,803383	274,502589	281,132092	0
14.01.2021	20:46:04	0	0	3,05042	3,69675	62,4096	0,519	78,081	3,5	1005,76	7,1	9,2	9	1	1	1	1	1	1	1	1	1	0	1	-44,749824	274,411376	276,757972	0
14.01.2021	20:46:05	0	0	3,05042	3,41325	63,4788	0,522	78,09	3,5	1005,9	7,1	9,1	9	1	1	1	1	1	1	1	1	1	0	1	-41,930937	274,423513	279,633741	0
14.01.2021	20:46:06	0	0	3,615313	3,20925	57,7296	0,524	78,112	3,5	1006,02	7,1	9,1	9	1	1	1	1	1	1	1	1	1	0	1	-45,736434	274,376526	275,608065	0
14.01.2021	20:46:07	0	0	4,858077	3,2025	53,7264	0,52	78,098	3,5	1005,98	7,1	9,2	9	1	1	1	1	1	1	1	1	1	0	1	-37,702607	274,491925	284,182845	0
14.01.2021	20:46:08	0	0	4,293184	3,2865	49,95	0,524	78,107	3,5	1005,74	7,1	9,1	9	1	1	1	1	1	1	1	1	1	0	1	-37,77308	274,552939	284,398666	0
14.01.2021	20:46:09	0	0	3,615313	3,21675	82,4508	0,522	78,113	3,5	1005,92	7,1	9,1	9	1	1	1	1	1	1	1	1	1	0	1	-41,226216	274,452369	280,473733	0
14.01.2021	20:46:10	0	0	3,05042	3,08025	51,1416	0,519	78,104	3,5	1006,14	7,1	9,1	9	1	1	1	1	1	1	1	1	1	0	1	-39,464412	274,371985	281,858814	0
14.01.2021	20:46:11	0	0	4,858077	2,997	34,3512	0,522	78,126	3,5	1005,9	7	9,1	9	1	1	1	1	1	1	1	1	1	0	1	-42,847075	274,432621	278,760294	0
14.01.2021	20:46:12	0	0	3,05042	2,6025	43,3152	0,528	78,129	3,5	1005,8	7,1	9,1	9	1	1	1	1	1	1	1	1	1	0	1	-38,195913	274,379554	283,162772	0
14.01.2021	20:46:13	0	0	2,146618	2,61225	62,7984	0,525	78,146	3,5	1006,1	7,1	9,1	8,8	1	1	1	1	1	1	1	1	1	0	1	-41,36716	274,415927	280,161962	0
14.01.2021	20:46:14	0	0	2,824463	2,70675	49,9752	0,52	78,148	3,5	1005,8	7,1	9,1	9	1	1	1	1	1	1	1	1	1	0	1	-46,652572	274,557523	275,540689	0
14.01.2021	20:46:15	0	0	2,372578	2,859	83,7396	0,523	78,168	3,5	1006,08	7,1	9,1	8,8	1	1	1	1	1	1	1	1	1	0	1	-42,283298	274,478223	279,53789	0
14.01.2021	20:46:16	0	0	3,615313	2,57175	67,3056	0,516	78,167	3,5	1005,86	7,1	9,1	9	1	1	1	1	1	1	1	1	1	0	1	-40,169133	274,562108	282,04565	0
14.01.2021	20:46:17	0	0	5,535948	2,40525	68,7852	0,525	78,177	3,5	1006	7,1	9,1	9	1	1	1	1	1	1	1	1	1	0	1	-44,467935	274,44629	277,203515	0
14.01.2021	20:46:18	0	0	3,615313	2,28075	96,2352	0,528	78,18	3,5	1006,02	7,1	9,1	9	1	1	1	1	1	1	1	1	1	0	1	-40,662438	274,394701	280,767214	0
14.01.2021	20:46:19	0	0	3,84127	2,142	69,4656	0,531	78,189	3,5	1005,82	7,1	9,1	9	1	1	1	1	1	1	1	1	1	0	1	-36,293164	274,543775	285,835567	0
14.01.2021	20:46:20	0	0	2,485528	2,109	88,1172	0,525	78,176	3,5	1006,1	7,1	9,1	9	1	1	1	1	1	1	1	1	1	0	1	-38,689218	274,470615	283,096291	0
14.01.2021	20:46:21	0	0	3,84127	2,12625	78,0768	0,521	78,189	3,5	1006,02	7,1	9,1	9	1	1	1	1	1	1	1	1	1	0	1	-42,424242	274,381068	278,941536	0
14.01.2021	20:46:22	0	0	5,197012	2,316	80,9028	0,527	78,175	3,5	1005,82	7,1	9,1	9	1	1	1	1	1	1	1	1	1	0	1	-40,310078	274,450849	281,382746	0
14.01.2021	20:46:23	0	0	2,598506	2,64	81,216	0,525	78,184	3,5	1006	7,1	9,1	9	1	1	1	1	1	1	1	1	1	0	1	-38,195913	274,545302	283,939986	0
14.01.2021	20:46:24	0	0	3,954249	2,868	82,3716	0,528	78,191	3,5	1006,04	7,1	9,1	9	1	1	1	1	1	1	1	1	1	0	1	-44,186047	274,514783	277,806638	0
14.01.2021	20:46:25	0	0	2,937442	3,04875	79,0344	0,526	78,183	3,5	1006,06	7,1	9,1	9	1	1	1	1	1	1	1	1	1	0	1	-36,927414	274,551412	285,237161	0
14.01.2021	20:46:26	0	0	4,745098	3,345	81,6012	0,521	78,176	3,5	1005,9	7,1	9,1	9	1	1	1	1	1	1	1	1	1	0	1	-41,36716	274,56058	280,840449	0
14.01.2021	20:46:27	0	0	4,180206	3,41475	86,9904	0,525	78,177	3,5	1006,02	7,1	9,1	9	1	1	1	1	1	1	1	1	1	0	1	-36,222692	274,56058	285,984917	0
14.01.2021	20:46:28	0	0	3,05042	3,4125	84,438	0,515	78,179	3,5	1006,02	7,1	9,1	9	1	1	1	1	1	1	1	1	1	0	1	-43,551797	274,418961	277,991545	0
14.01.2021	20:46:29	0	0	2,824463	3,71325	90,0216	0,525	78,192	3,5	1006,08	7,1	9,1	9	1	1	1	1	1	1	1	1	1	0	1	-42,635659	274,551412	279,528916	0
14.01.2021	20:46:30	0	0	2,598506	4,04325	116,6868	0,524	78,178	3,5	1005,94	7,1	9,1	9	1	1	1	1	1	1	1	1	1	0	1	-42,35377	274,534615	279,731972	0
14.01.2021	20:46:31	0	0	4,406189	3,8445	104,1552	0,524	78,17	3,5	1006,06	7,1	9,1	8,9	1	1	1	1	1	1	1	1	1	0	1	-41,649049	274,516308	280,35079	0
14.01.2021	20:46:32	0	0	4,63212	3,64725	85,1796	0,527	78,162	3,5	1006,02	7,1	9,1	9	1	1	1	1	1	1	1	1	1	0	1	-39,957717	274,44781	281,720857	0
14.01.2021	20:46:33	0	0	3,615313	3,59325	94,7736	0,528	78,158	3,5	1005,88	7,1	9,1	9	1	1	1	1	1	1	1	1	1	0	1	-39,7463	274,546829	282,396766	0
14.01.2021	20:46:34	0	0	3,615335	3,645	87,7104	0,525	78,157	3,5	1006,08	7,1	9,1	8,9	1	1	1	1	1	1	1	1	1	0	1	-36,15222	274,420478	285,398234	0
14.01.2021	20:46:35	0	0	3,728292	3,64275	84,4524	0,522	78,158	3,5	1006,02	7,1	9,2	9	1	1	1	1	1	1	1	1	1	0	1	-41,930937	274,376526	279,413562	0
14.01.2021	20:46:36	0	0	3,163399	3,63375	85,5432	0,52	78,144	3,5	1006,06	7,1	9,1	9	1	1	1	1	1	1	1	1	1	0	1	-42,917548	274,418961	278,625795	0
14.01.2021	20:46:37	0	0	3,163399	3,36525	92,9592	0,525	78,146	3,5	1006	7,1	9,1	9	1	1	1	1	1	1	1	1	1	0	1	-42,071882	274,543775	280,05685	0
14.01.2021	20:46:38	0	0	3,84127	3,39075	100,7424	0,525	78,136	3,5	1006,06	7,1	9,1	9	1	1	1	1	1	1	1	1	1	0	1	-37,77308	274,534615	284,312663	0
14.01.2021	20:46:39	0	0	4,858106	3,5055	80,5284	0,528	78,158	3,5	1006,04	7,1	9,1	8,9	1	1	1	1	1	1	1	1	1	0	1	-37,491191	274,494971	284,408551	0
14.01.2021	20:46:40	0	0	2,598506	3,48675	86,6736	0,513	78,142	3,5	1005,98	7,1	9,1	9	1	1	1	1	1	1	1	1	1	0	1	-41,296688	274,56058	280,910921	0
14.01.2021	20:46:41	0	0	4,293184	3,54825	75,996	0,517	78,141	3,5	1005,92	7,1	9,1	9	1	1	1	1	1	1	1	1	1	0	1	-43,128964	274,494971	278,770778	0
14.01.2021	20:46:42	0	0	3,163399	3,465	101,8332	0,526	78,15	3,5	1006,22	7,1	9,1	9	1	1	1	1	1	1	1	1	1	0	1	-44,186047	274,508685	277,778028	0
14.01.2021	20:46:43	0	0	4,29321	3,62325	92,97	0,516	78,161	3,5	1006,04	7,1	9,2	8,9	1	1	1	1	1	1	1	1	1	0	1	-42,917548	274,56058	279,290061	0
14.01.2021	20:46:44	0	0	3,84127	3,79425	103,3128	0,519	78,153	3,5	1005,86	7,1	9,1	9	1	1	1	1	1	1	1	1	1	0	1	-40,239605	274,479745	281,58872	0
14.01.2021	20:46:45	0	0	4,180206	3,8175	114,1128	0,529	78,183	3,5	1005,98	7,1	9,2	9	1	1	1	1	1	1	1	1	1	0	1	-34,813249	274,555995	287,37284	0
14.01.2021	20:46:46	0	0	3,728292	3,49275	86,3748	0,525	78,171	3,5	1006,02	7,1	9,2	9	1	1	1	1	1	1	1	1	1	0	1	-40,451022	274,514783	281,541662	0
14.01.2021	20:46:47	0	0	4,519141	3,483	66,9348	0,526	78,17	3,5	1005,96	7,1	9,1	9	1	1	1	1	1	1	1	1	1	0	1	-39,464412	274,387126	281,929749	0
14.01.2021	20:46:48	0	0	2,711485	3,80325	77,2236	0,523	78,162	3,5	1006,02	7,1	9,1	9	1	1	1	1	1	1	1	1	1	0	1	-42,776603	274,432621	278,830766	0
14.01.2021	20:46:49	0	0	3,954249	3,696	72,2952	0,528	78,146	3,5	1005,94	7,1	9,1	9	1	1	1	1	1	1	1	1	1	0	1	-40,098661	274,562108	282,116123	0
14.01.2021	20:46:50	0	0	4,067252	3,29175	62,118	0,527	78,162	3,5	1005,98	7,1	9,1	8,9	1	1	1	1	1	1	1	1	1	0	1	-40,098661	274,516308	281,901177	0
14.01.2021	20:46:51	0	0	3,502355	2,9175	70,2432	0,518	78,156	3,5	1005,96	7,1	9,1	8,9	1	1	1	1	1	1	1	1	1	0	1	-37,491191	274,525459	284,551587	0
14.01.2021	20:46:52	0	0	4,858077	2,46975	68,7816	0,531	78,169	3,5	1006,04	7,1	9,1	9	1	1	1	1	1	1	1	1	1	0	1	-41,860465	274,569752	280,390203	0
14.01.2021	20:46:53	0	0	2,711485	2,859	75,2544	0,528	78,144	3,5	1006	7,1	9,1	9	1	1	1	1	1	1	1	1	1	0	1	-39,041579	274,458449	282,686879	0
14.01.2021	20:46:54	0	0	4,406163	3,45375	83,736	0,534	78,149	3,5	1006,2	7,1	9,2	9	1	1	1	1	1	1	1	1	1	0	1	-41,155743	274,384097	280,224224	0
14.01.2021	20:46:55	0	0	4,293184	4,0485	78,6744	0,526	78,141	3,5	1006,06	7,1	9,1	9	1	1	1	1	1	1	1	1	1	0	1	-41,296688	274,491925	280,588765	0
14.01.2021	20:46:56	0	0	3,502334	4,30875	75,2436	0,527	78,119	3,5	1006	7,1	9,1	9	1	1	1	1	1	1	1	1	1	0	1	-41,508104	274,549884	280,6493	0
14.01.2021	20:46:57	0	0	2,598506	4,73025	83,7324	0,529	78,135	3,5	1006,04	7,1	9,1	9	1	1	1	1	1	1	1	1	1	0	1	-38,12544	274,491925	283,760013	0
14.01.2021	20:46:58	0	0	4,406163	5,175	89,7228	0,525	78,137	3,5	1005,98	7,1	9,1	9	1	1	1	1	1	1	1	1	1	0	1	-43,269908	274,565165	278,959227	0
14.01.2021	20:46:59	0	0	3,163399	5,39325	86,256	0,529	78,133	3,5	1006,08	7,1	9,1	9	1	1	1	1	1	1	1	1	1	0	1	-37,279774	274,540721	284,834625	0
14.01.2021	20:47:00	0	0	3,502334	5,37075	91,8864	0,526	78,138	3,5	1006,06	7,1	9,1	9	1	1	1	1	1	1	1	1	1	0	1	-37,491191	274,452369	284,208758	0
14.01.2021	20:47:01	0	0	3,05042	5,2845	93,3444	0,532	78,153	3,5	1006,04	7,1	9,1	9	1	1	1	1	1	1	1	1	1	0	1	-38,971106	274,552939	283,200639	0
14.01.2021	20:47:02	0	0	2,711485	5,03325	97,3512	0,528	78,154	3,5	1005,94	7,1	9,2	9	1	1	1	1	1	1	1	1	1	0	1	-40,521494	274,41441	281,000518	0
14.01.2021	20:47:03	0	0	4,406163	5,03475	96,2676	0,53	78,135	3,5	1005,88	7,1	9,1	9	1	1	1	1	1	1	1	1	1	0	1	-37,13883	274,533089	284,93975	0
14.01.2021	20:47:04	0	0	4,63212	4,98975	88,5672	0,521	78,142	3,5	1005,96	7,1	9,2	9	1	1	1	1	1	1	1	1	1	0	1	-39,182523	274,581989	283,125596	0
14.01.2021	20:47:05	0	0	3,389376	5,0355	88,9704	0,526	78,145	3,5	1005,94	7,1	9,1	8,9	1	1	1	1	1	1	1	1	1	0	1	-36,997886	274,425031	284,573906	0
14.01.2021	20:47:06	0	0	3,502334	4,91475	94,1076	0,533	78,201	3,5	1005,98	7,1	9,1	9	1	1	1	1	1	1	1	1	1	0	1	-38,75969	274,434139	282,854797	0
14.01.2021	20:47:07	0	0	4,858077	4,83675	92,9844	0,526	78,156	3,5	1005,94	7,1	9,1	9	1	1	1	1	1	1	1	1	1	0	1	-39,252995	274,517833	282,753998	0
14.01.2021	20:47:08	0	0	4,180206	4,8525	101,8224	0,527	78,141	3,5	1005,88	7,1	9,1	9	1	1	1	1	1	1	1	1	1	0	1	-36,15222	274,443252	285,504986	0
14.01.2021	20:47:09	0	0	2,598522	4,76325	104,4504	0,528	78,156	3,5	1005,96	7,1	9,1	8,9	1	1	1	1	1	1	1	1	1	0	1	-37,77308	274,57587	284,506308	0
14.01.2021	20:47:10	0	0	2,598506	4,326	94,7736	0,526	78,166	3,5	1005,9	7,1	9,1	9	1	1	1	1	1	1	1	1	1	0	1	-42,494715	274,499541	279,426465	0
14.01.2021	20:47:11	0	0	3,502334	4,17525	103,3164	0,533	78,163	3,5	1006,04	7,1	9,1	9	1	1	1	1	1	1	1	1	1	0	1	-39,182523	274,554467	282,996394	0
14.01.2021	20:47:12	0	0	4,067252	4,08	105,8832	0,532	78,145	3,5	1006,04	7,1	9,1	8,9	1	1	1	1	1	1	1	1	1	0	1	-43,551797	274,488879	278,31937	0
14.01.2021	20:47:13	0	0	4,858077	3,9765	96,5844	0,531	78,166	3,5	1006,06	7,1	9,1	9	1	1	1	1	1	1	1	1	1	0	1	-37,77308	274,566694	284,463233	0
14.01.2021	20:47:14	0	0	3,050439	3,762	95,8356	0,52	78,147	3,5	1005,88	7,1	9,1	8,9	1	1	1	1	1	1	1	1	1	0	1	-37,491191	274,496494	284,415696	0
14.01.2021	20:47:15	0	0	2,82448	3,576	100,7748	0,528	78,159	3,5	1006	7,1	9,1	8,9	1	1	1	1	1	1	1	1	1	0	1	-38,618746	274,370471	282,69739	0
14.01.2021	20:47:16	0	0	4,067252	3,40725	104,814	0,521	78,162	3,5	1005,9	7,1	9,1	8,9	1	1	1	1	1	1	1	1	1	0	1	-37,77308	274,482789	284,069524	0
14.01.2021	20:47:17	0	0	4,519141	3,16725	86,3064	0,523	78,164	3,5	1005,98	7,1	9,1	9	1	1	1	1	1	1	1	1	1	0	1	-38,195913	274,546829	283,947154	0
14.01.2021	20:47:18	0	0	2,598522	3,03525	84,4452	0,524	78,16	3,5	1006,02	7,1	9,1	8,9	1	1	1	1	1	1	1	1	1	0	1	-43,481325	274,394701	277,948328	0
14.01.2021	20:47:19	0	0	3,050457	2,88225	84,4236	0,537	78,22	3,5	1005,98	7,1	9,1	8,8	1	1	1	1	1	1	1	1	1	0	1	-40,873855	274,50716	281,083069	0
14.01.2021	20:47:20	0	0	2,485528	2,8725	67,2984	0,522	78,183	3,5	1006,1	7,1	9,1	9	1	1	1	1	1	1	1	1	1	0	1	-41,930937	274,569752	280,319731	0
14.01.2021	20:47:21	0	0	3,389376	2,8515	75,2436	0,528	78,168	3,5	1006,04	7,1	9,1	8,9	1	1	1	1	1	1	1	1	1	0	1	-39,887245	274,491925	281,998208	0
14.01.2021	20:47:22	0	0	2,824463	3,045	82,3788	0,531	78,171	3,5	1006,08	7,1	9,1	9	1	1	1	1	1	1	1	1	1	0	1	-37,279774	274,546829	284,863292	0
14.01.2021	20:47:23	0	0	5,197012	3,09525	86,958	0,532	78,154	3,5	1005,9	7,1	9,1	9	1	1	1	1	1	1	1	1	1	0	1	-36,15222	274,562108	286,062564	0
14.01.2021	20:47:24	0	0	3,05042	3,07575	91,8684	0,533	78,161	3,5	1005,84	7,1	9,1	9	1	1	1	1	1	1	1	1	1	0	1	-40,521494	274,426549	281,057412	0
14.01.2021	20:47:25	0	0	3,615335	2,9895	90,7776	0,523	78,162	3,5	1005,82	7,1	9,1	8,9	1	1	1	1	1	1	1	1	1	0	1	-35,870331	274,519358	286,143818	0
14.01.2021	20:47:26	0	0	2,711501	3,189	82,6236	0,53	78,161	3,5	1006,02	7,1	9,1	8,9	1	1	1	1	1	1	1	1	1	0	1	-38,266385	274,526985	283,783552	0
14.01.2021	20:47:27	0	0	3,954249	3,35925	87,732	0,534	78,159	3,5	1006,06	7,1	9,1	9	1	1	1	1	1	1	1	1	1	0	1	-37,209302	274,394701	284,22035	0
14.01.2021	20:47:28	0	0	2,598522	3,5685	75,9888	0,528	78,137	3,5	1005,86	7,1	9,1	8,9	1	1	1	1	1	1	1	1	1	0	1	-36,293164	274,41441	285,228848	0
14.01.2021	20:47:29	0	0	3,84127	3,7335	85,9032	0,533	78,133	3,5	1005,88	7,1	9,1	9	1	1	1	1	1	1	1	1	1	0	1	-34,742777	274,441733	286,907307	0
14.01.2021	20:47:30	0	0	4,180206	4,0065	79,7436	0,531	78,128	3,5	1005,9	7,1	9,1	9	1	1	1	1	1	1	1	1	1	0	1	-37,209302	274,519358	284,804847	0
14.01.2021	20:47:31	0	0	4,858106	3,91875	85,9212	0,531	78,121	3,5	1006,02	7,1	9,1	8,9	1	1	1	1	1	1	1	1	1	0	1	-40,591966	274,523933	281,443654	0
14.01.2021	20:47:32	0	0	4,745127	3,79725	85,9068	0,529	78,081	3,5	1006	7,1	9,1	8,9	1	1	1	1	1	1	1	1	1	0	1	-42,494715	274,516308	279,505124	0
14.01.2021	20:47:33	0	0	2,485543	3,60975	80,5356	0,526	78,093	3,5	1005,98	7,1	9,1	8,9	1	1	1	1	1	1	1	1	1	0	1	-38,75969	274,522408	283,268772	0
14.01.2021	20:47:34	0	0	4,745098	3,3435	72,7668	0,528	78,066	3,5	1005,94	7,1	9,1	9	1	1	1	1	1	1	1	1	1	0	1	-39,112051	274,375012	282,225356	0
14.01.2021	20:47:35	0	0	4,293184	3,21825	79,7832	0,533	78,073	3,5	1006,04	7,1	9,1	9	1	1	1	1	1	1	1	1	1	0	1	-33,403805	274,415927	288,125316	0
14.01.2021	20:47:36	0	0	3,615313	3,462	81,5904	0,536	78,055	3,5	1005,94	7,1	9,1	9	1	1	1	1	1	1	1	1	1	0	1	-37,350247	274,379554	284,008438	0
14.01.2021	20:47:37	0	0	2,372549	3,561	80,514	0,534	78,062	3,5	1006,06	7,1	9,1	9	1	1	1	1	1	1	1	1	1	0	1	-39,323467	274,487357	282,540558	0
14.01.2021	20:47:38	0	0	2,711501	3,5955	85,5432	0,53	78,058	3,5	1006,14	7,1	9,1	8,9	1	1	1	1	1	1	1	1	1	0	1	-35,447498	274,551412	286,717076	0
14.01.2021	20:47:39	0	0	4,632148	3,58125	81,2052	0,533	78,032	3,5	1005,88	7,1	9,1	8,9	1	1	1	1	1	1	1	1	1	0	1	-41,296688	274,522408	280,731774	0
14.01.2021	20:47:40	0	0	2,937459	3,3675	88,11	0,528	78,034	3,5	1006,02	7,1	9,1	8,9	1	1	1	1	1	1	1	1	1	0	1	-36,856942	274,513258	285,128589	0
14.01.2021	20:47:41	0	0	4,293184	2,93475	86,6628	0,534	78,044	3,5	1005,92	7,1	9,1	9	1	1	1	1	1	1	1	1	1	0	1	-37,068358	274,400763	284,389701	0
14.01.2021	20:47:42	0	0	3,954272	2,71125	88,1136	0,548	78,048	3,5	1006,1	7,1	9,1	8,9	1	1	1	1	1	1	1	1	1	0	1	-42,917548	274,394701	278,512105	0
14.01.2021	20:47:43	0	0	4,632148	2,73375	83,7432	0,535	78,04	3,5	1006,14	7,1	9,1	8,9	1	1	1	1	1	1	1	1	1	0	1	-41,085271	274,552939	281,086474	0
14.01.2021	20:47:44	0	0	4,067252	2,8905	77,292	0,525	78,015	3,5	1005,96	7,1	9,1	8,9	1	1	1	1	1	1	1	1	1	0	1	-39,182523	274,44629	282,488928	0
14.01.2021	20:47:45	0	0	4,067227	3,12375	66,9384	0,535	78,034	3,5	1006,06	7,1	9,1	9	1	1	1	1	1	1	1	1	1	0	1	-40,38055	274,552939	281,791196	0
14.01.2021	20:47:46	0	0	4,067252	3,36	60,5484	0,528	78,023	3,5	1006,06	7,1	9,1	8,9	1	1	1	1	1	1	1	1	1	0	1	-40,028189	274,450849	281,664634	0
14.01.2021	20:47:47	0	0	2,937459	3,432	79,776	0,533	78,058	3,5	1006,02	7,1	9,1	8,9	1	1	1	1	1	1	1	1	1	0	1	-38,689218	274,402279	282,775944	0
14.01.2021	20:47:48	0	0	4,971055	3,45075	65,4696	0,527	77,997	3,5	1005,9	7,1	9,1	9	1	1	1	1	1	1	1	1	1	0	1	-36,645525	274,450849	285,047298	0
14.01.2021	20:47:49	0	0	4,067252	3,67125	70,848	0,533	78,01	3,5	1005,98	7,1	9,1	8,9	1	1	1	1	1	1	1	1	1	0	1	-37,491191	274,536141	284,601715	0
14.01.2021	20:47:50	0	0	3,728314	3,5385	37,6884	0,531	77,996	3,5	1005,96	7,1	9,1	8,9	1	1	1	1	1	1	1	1	1	0	1	-40,169133	274,456929	281,552196	0
14.01.2021	20:47:51	0	0	2,598506	3,37725	68,0256	0,533	77,993	3,5	1006,04	7,1	9,1	9	1	1	1	1	1	1	1	1	1	0	1	-42,424242	274,375012	278,913165	0
14.01.2021	20:47:52	0	0	4,745127	3,2265	40,7088	0,521	77,974	3,5	1005,88	7,1	9,1	8,9	1	1	1	1	1	1	1	1	1	0	1	-43,199436	274,501065	278,728891	0
14.01.2021	20:47:53	0	0	2,598506	3,08475	60,948	0,525	77,979	3,5	1006,04	7,1	9,1	9	1	1	1	1	1	1	1	1	1	0	1	-36,363636	274,563637	285,858323	0
14.01.2021	20:47:54	0	0	3,163418	3,05475	58,1292	0,528	77,971	3,5	1006,1	7,1	9,1	8,9	1	1	1	1	1	1	1	1	1	0	1	-41,649049	274,510209	280,322177	0
14.01.2021	20:47:55	0	0	3,954272	2,964	62,7984	0,527	77,967	3,5	1006,1	7,1	9,1	8,9	1	1	1	1	1	1	1	1	1	0	1	-39,393939	274,568223	282,84955	0
14.01.2021	20:47:56	0	0	3,276377	2,93925	82,44	0,524	77,945	3,5	1005,9	7,1	9,1	9	1	1	1	1	1	1	1	1	1	0	1	-39,7463	274,452369	281,953649	0
14.01.2021	20:47:57	0	0	2,598522	2,97825	81,6156	0,533	77,958	3,5	1005,88	7,1	9,2	8,9	1	1	1	1	1	1	1	1	1	0	1	-38,75969	274,540721	283,354709	0
14.01.2021	20:47:58	0	0	3,615335	2,7555	73,7748	0,53	77,963	3,5	1006,08	7,1	9,1	8,9	1	1	1	1	1	1	1	1	1	0	1	-40,521494	274,513258	281,464037	0
14.01.2021	20:47:59	0	0	3,276397	2,625	65,8404	0,529	77,971	3,5	1005,98	7,1	9,1	8,9	1	1	1	1	1	1	1	1	1	0	1	-39,112051	274,391671	282,303403	0
14.01.2021	20:48:00	0	0	4,067252	2,68575	95,166	0,527	77,97	3,5	1006,02	7,1	9,1	8,9	1	1	1	1	1	1	1	1	1	0	1	-39,816772	274,552939	282,354973	0
14.01.2021	20:48:01	0	0	4,067252	2,68575	95,166	0,527	77,97	3,5	1006,02	7,1	9,1	8,9	1	1	1	1	1	1	1	1	1	0	1	-39,816772	274,552939	282,354973	0
14.01.2021	20:48:02	0	0	2,485543	2,74575	114,5304	0,53	77,966	3,5	1005,94	7,1	9,1	8,9	1	1	1	1	1	1	1	1	1	0	1	-43,128964	274,508685	278,83511	0
14.01.2021	20:48:03	0	0	2,937459	2,8635	100,7532	0,531	77,958	3,5	1005,98	7,1	9,1	8,9	1	1	1	1	1	1	1	1	1	0	1	-38,75969	274,542248	283,361875	0
14.01.2021	20:48:04	0	0	3,276397	2,8155	87,3792	0,53	77,962	3,5	1006,06	7	9,1	8,9	1	1	1	1	1	1	1	1	1	0	1	-41,649049	274,435658	279,972556	0
14.01.2021	20:48:05	0	0	4,632148	2,82525	78,6564	0,527	77,964	3,5	1006,02	7,1	9,1	8,9	1	1	1	1	1	1	1	1	1	0	1	-37,420719	274,554467	284,758198	0
14.01.2021	20:48:06	0	0	4,745127	3,042	101,52	0,531	77,963	3,5	1005,92	7,1	9,1	8,9	1	1	1	1	1	1	1	1	1	0	1	-36,645525	274,408343	284,848057	0
14.01.2021	20:48:07	0	0	4,067252	3,408	78,6708	0,529	77,966	3,5	1005,92	7,1	9,1	8,9	1	1	1	1	1	1	1	1	1	0	1	-37,491191	274,523933	284,544429	0
14.01.2021	20:48:08	0	0	4,745127	3,657	95,5296	0,532	77,937	3,5	1006,04	7,1	9,1	8,9	1	1	1	1	1	1	1	1	1	0	1	-34,954193	274,56058	287,253416	0
14.01.2021	20:48:09	0	0	4,745127	3,63	104,0616	0,525	77,953	3,5	1005,98	7,1	9,1	8,9	1	1	1	1	1	1	1	1	1	0	1	-37,279774	274,418961	284,263568	0
14.01.2021	20:48:10	0	0	3,502355	3,492	94,7484	0,523	77,941	3,5	1005,94	7,1	9,1	8,9	1	1	1	1	1	1	1	1	1	0	1	-36,575053	274,511733	285,403325	0
14.01.2021	20:48:11	0	0	4,519168	3,49125	91,9044	0,528	77,94	3,5	1005,92	7,1	9,1	8,9	1	1	1	1	1	1	1	1	1	0	1	-34,672304	274,555995	287,513784	0
14.01.2021	20:48:12	0	0	2,711501	3,4395	96,984	0,537	77,949	3,5	1006,02	7	9,1	8,9	1	1	1	1	1	1	1	1	1	0	1	-34,954193	274,396216	286,48256	0
14.01.2021	20:48:13	0	0	2,259584	3,22725	93,7044	0,528	77,96	3,5	1005,84	7,1	9,1	8,9	1	1	1	1	1	1	1	1	1	0	1	-38,830162	274,496494	283,076725	0
14.01.2021	20:48:14	0	0	2,598522	3,05925	90,8028	0,528	77,978	3,5	1005,9	7,1	9,1	8,9	1	1	1	1	1	1	1	1	1	0	1	-40,732911	274,557523	281,460351	0
14.01.2021	20:48:15	0	0	2,82448	2,90925	94,7628	0,526	77,981	3,5	1006	7	9,1	8,9	1	1	1	1	1	1	1	1	1	0	1	-42,001409	274,452369	279,698539	0
14.01.2021	20:48:16	0	0	4,180231	2,73825	113,7672	0,522	77,975	3,5	1005,92	7	9,1	8,9	1	1	1	1	1	1	1	1	1	0	1	-41,155743	274,368958	280,153303	0
14.01.2021	20:48:17	0	0	4,067252	2,6085	107,4168	0,524	77,988	3,5	1005,78	7,1	9,1	8,9	1	1	1	1	1	1	1	1	1	0	1	-37,702607	274,450849	283,990216	0
14.01.2021	20:48:18	0	0	4,067252	2,54175	125,766	0,525	77,995	3,5	1005,98	7,1	9,1	8,9	1	1	1	1	1	1	1	1	1	0	1	-40,521494	274,540721	281,592905	0
14.01.2021	20:48:19	0	0	2,937459	2,48775	111,7944	0,523	77,992	3,5	1005,84	7	9,1	8,9	1	1	1	1	1	1	1	1	1	0	1	-37,914024	274,411376	283,593772	0
14.01.2021	20:48:20	0	0	4,632148	2,5365	118,728	0,528	77,998	3,5	1006,02	7	9,1	8,9	1	1	1	1	1	1	1	1	1	0	1	-37,702607	274,488879	284,16856	0
14.01.2021	20:48:21	0	0	3,728292	2,4735	116,3412	0,525	78,01	3,5	1005,98	7,1	9,1	9	1	1	1	1	1	1	1	1	1	0	1	-31,782946	274,375012	289,554461	0
14.01.2021	20:48:22	0	0	4,971055	2,307	111,4344	0,525	78,018	3,5	1006	7,1	9,1	9	1	1	1	1	1	1	1	1	1	0	1	-36,645525	274,399247	284,805431	0
14.01.2021	20:48:23	0	0	4,632148	2,2935	117,4032	0,527	78,024	3,5	1006	7,1	9,1	8,9	1	1	1	1	1	1	1	1	1	0	1	-36,645525	274,364419	284,642258	0
14.01.2021	20:48:24	0	0	3,163418	2,48775	109,6092	0,522	78,031	3,5	1005,96	7,1	9,1	8,9	1	1	1	1	1	1	1	1	1	0	1	-39,7463	274,393186	281,676253	0
14.01.2021	20:48:25	0	0	3,389376	2,505	102,9528	0,525	78,088	3,5	1006,16	7	9,1	8,9	1	1	1	1	1	1	1	1	1	0	1	-40,239605	274,370471	281,07653	0
14.01.2021	20:48:26	0	0	4,632148	2,45175	106,3404	0,517	78,01	3,5	1005,84	7,1	9,1	8,9	1	1	1	1	1	1	1	1	1	0	1	-36,434109	274,533089	285,644472	0
14.01.2021	20:48:27	0	0	2,937459	2,826	106,3044	0,519	78,022	3,5	1005,88	7	9,1	8,9	1	1	1	1	1	1	1	1	1	0	1	-40,944327	274,548357	281,205908	0
14.01.2021	20:48:28	0	0	3,050439	3,20175	102,204	0,524	78,021	3,5	1005,9	7,1	9,1	8,9	1	1	1	1	1	1	1	1	1	0	1	-38,618746	274,381068	282,747033	0
14.01.2021	20:48:29	0	0	4,406189	3,16425	101,4984	0,518	78,011	3,5	1005,7	7,1	9,1	8,9	1	1	1	1	1	1	1	1	1	0	1	-37,209302	274,488879	284,661865	0
14.01.2021	20:48:30	0	0	4,180231	3,10725	101,8152	0,521	78,023	3,5	1005,9	7	9,1	8,9	1	1	1	1	1	1	1	1	1	0	1	-35,236082	274,362906	286,044615	0
14.01.2021	20:48:31	0	0	4,632148	3,45525	100,7496	0,523	78,022	3,5	1005,9	7	9,1	8,9	1	1	1	1	1	1	1	1	1	0	1	-35,236082	274,502589	286,699393	0
14.01.2021	20:48:32	0	0	3,954272	4,212	99,162	0,522	78,045	3,5	1006,1	7,1	9,1	8,9	1	1	1	1	1	1	1	1	1	0	1	-38,477801	274,367445	282,824157	0
14.01.2021	20:48:33	0	0	3,728314	4,5315	99,4788	0,52	78,033	3,5	1005,98	7	9,1	8,9	1	1	1	1	1	1	1	1	1	0	1	-37,702607	274,406827	283,783868	0
14.01.2021	20:48:34	0	0	2,937459	4,623	100,3788	0,523	78,064	3,5	1005,96	7,1	9,1	8,9	1	1	1	1	1	1	1	1	1	0	1	-35,51797	274,381068	285,847808	0
14.01.2021	20:48:35	0	0	4,29321	4,5165	92,934	0,519	78,067	3,5	1005,94	7,1	9,1	8,9	1	1	1	1	1	1	1	1	1	0	1	-40,591966	274,519358	281,422183	0
14.01.2021	20:48:36	0	0	3,050439	4,3755	94,0752	0,515	78,087	3,5	1006	7,1	9,1	8,9	1	1	1	1	1	1	1	1	1	0	1	-40,310078	274,478223	281,51111	0
14.01.2021	20:48:37	0	0	2,598522	4,2285	89,3376	0,513	78,091	3,5	1005,94	7,1	9,1	8,9	1	1	1	1	1	1	1	1	1	0	1	-38,75969	274,531562	283,311728	0
14.01.2021	20:48:38	0	0	4,180231	4,182	91,5084	0,52	78,123	3,5	1005,96	7,1	9,1	8,9	1	1	1	1	1	1	1	1	1	0	1	-38,900634	274,412893	282,614269	0
14.01.2021	20:48:39	0	0	2,598506	4,3275	96,5592	0,518	78,132	3,5	1006	7	9,1	9	1	1	1	1	1	1	1	1	1	0	1	-35,940803	274,526985	286,109134	0
14.01.2021	20:48:40	0	0	2,82448	4,31625	88,5888	0,52	78,141	3,5	1005,96	7	9,1	8,9	1	1	1	1	1	1	1	1	1	0	1	-39,323467	274,412893	282,191437	0
14.01.2021	20:48:41	0	0	3,389356	4,21575	80,1684	0,517	78,135	3,5	1005,86	7,1	9,1	9	1	1	1	1	1	1	1	1	1	0	1	-35,377026	274,498018	286,537007	0
14.01.2021	20:48:42	0	0	3,841293	4,05675	82,3356	0,52	78,146	3,5	1006,08	7	9,1	8,9	1	1	1	1	1	1	1	1	1	0	1	-35,16561	274,388641	286,235648	0
14.01.2021	20:48:43	0	0	2,82448	4,0365	83,7324	0,519	78,153	3,5	1006,12	7	9,1	8,9	1	1	1	1	1	1	1	1	1	0	1	-36,081748	274,502589	285,853727	0
14.01.2021	20:48:44	0	0	2,711501	4,21425	80,5356	0,518	78,175	3,5	1005,88	7,1	9,1	8,9	1	1	1	1	1	1	1	1	1	0	1	-34,601832	274,397732	286,842022	0
14.01.2021	20:48:45	0	0	2,82448	4,3215	69,1488	0,519	78,195	3,5	1006,04	7,1	9,1	8,9	1	1	1	1	1	1	1	1	1	0	1	-36,293164	274,397732	285,15069	0
14.01.2021	20:48:46	0	0	3,502334	4,18875	81,2268	0,517	78,196	3,5	1006,08	7	9,1	9	1	1	1	1	1	1	1	1	1	0	1	-42,071882	274,517833	279,935112	0
14.01.2021	20:48:47	0	0	4,858106	4,125	78,0696	0,522	78,195	3,5	1005,94	7	9,1	8,9	1	1	1	1	1	1	1	1	1	0	1	-40,310078	274,403795	281,162189	0
14.01.2021	20:48:48	0	0	3,954272	4,182	84,8304	0,523	78,219	3,5	1006,12	7	9,1	8,9	1	1	1	1	1	1	1	1	1	0	1	-39,7463	274,361393	281,527311	0
14.01.2021	20:48:49	0	0	3,050439	4,17375	78,2928	0,52	78,203	3,5	1005,98	7,1	9,1	8,9	1	1	1	1	1	1	1	1	1	0	1	-35,799859	274,425031	285,771933	0
14.01.2021	20:48:50	0	0	3,502355	3,888	94,374	0,526	78,233	3,5	1005,84	7	9,1	8,9	1	1	1	1	1	1	1	1	1	0	1	-38,548273	274,511733	283,430104	0
14.01.2021	20:48:51	0	0	4,632148	3,61725	89,3484	0,526	78,228	3,5	1005,98	7,1	9,1	8,9	1	1	1	1	1	1	1	1	1	0	1	-38,336857	274,347783	282,873013	0
14.01.2021	20:48:52	0	0	4,858077	3,65325	89,7192	0,526	78,218	3,5	1006	7	9,1	9	1	1	1	1	1	1	1	1	1	0	1	-37,209302	274,425031	284,36249	0
14.01.2021	20:48:53	0	0	2,485543	3,666	92,97	0,529	78,217	3,5	1006	7,1	9,1	8,9	1	1	1	1	1	1	1	1	1	0	1	-40,028189	274,531562	282,043229	0
14.01.2021	20:48:54	0	0	3,954249	3,375	83,3616	0,525	78,224	3,5	1006,12	7,1	9,1	9	1	1	1	1	1	1	1	1	1	0	1	-39,112051	274,46301	282,637796	0
14.01.2021	20:48:55	0	0	2,259584	3,273	85,9212	0,527	78,195	3,5	1005,92	7,1	9,1	8,9	1	1	1	1	1	1	1	1	1	0	1	-41,860465	274,531562	280,210953	0
14.01.2021	20:48:56	0	0	2,937459	3,27375	82,6056	0,523	78,194	3,5	1005,96	7	9,1	8,9	1	1	1	1	1	1	1	1	1	0	1	-35,447498	274,425031	286,124294	0
14.01.2021	20:48:57	0	0	2,485543	3,2805	88,9632	0,526	78,195	3,5	1006,04	7	9,1	8,9	1	1	1	1	1	1	1	1	1	0	1	-42,847075	274,540721	279,267324	0
14.01.2021	20:48:58	0	0	4,067252	3,1875	69,156	0,524	78,183	3,5	1005,9	7	9,1	8,9	1	1	1	1	1	1	1	1	1	0	1	-35,16561	274,406827	286,320866	0
14.01.2021	20:48:59	0	0	3,841293	3,252	81,9972	0,525	78,191	3,5	1006,08	7,1	9,1	8,9	1	1	1	1	1	1	1	1	1	0	1	-38,195913	274,349295	283,021037	0
14.01.2021	20:49:00	0	0	2,711501	3,34875	82,6308	0,531	78,179	3,5	1005,88	7	9,1	8,9	1	1	1	1	1	1	1	1	1	0	1	-36,222692	274,531562	285,848726	0
14.01.2021	20:49:01	0	0	2,711501	3,34875	82,6308	0,531	78,179	3,5	1005,88	7	9,1	8,9	1	1	1	1	1	1	1	1	1	0	1	-36,222692	274,531562	285,848726	0
14.01.2021	20:49:02	0	0	2,82448	3,2925	79,7508	0,526	78,164	3,5	1006,04	7	9,1	8,9	1	1	1	1	1	1	1	1	1	0	1	-34,390416	274,396216	287,046337	0
14.01.2021	20:49:03	0	0	3,163418	3,20325	64,6272	0,524	78,151	3,5	1005,96	7	9,1	8,9	1	1	1	1	1	1	1	1	1	0	1	-39,7463	274,491925	282,139153	0
14.01.2021	20:49:04	0	0	2,372563	3,10575	79,0344	0,531	78,144	3,5	1005,92	7	9,1	8,9	1	1	1	1	1	1	1	1	1	0	1	-38,336857	274,522408	283,691605	0
14.01.2021	20:49:05	0	0	3,389376	3,02475	85,9176	0,527	78,136	3,5	1005,84	7,1	9,1	8,9	1	1	1	1	1	1	1	1	1	0	1	-36,222692	274,470615	285,562817	0
14.01.2021	20:49:06	0	0	2,937459	3,14175	91,17	0,52	78,127	3,5	1006,04	7	9,1	8,9	1	1	1	1	1	1	1	1	1	0	1	-36,856942	274,533089	285,221639	0
14.01.2021	20:49:07	0	0	3,389376	3,2475	95,5404	0,518	78,113	3,5	1005,86	7,1	9,1	8,9	1	1	1	1	1	1	1	1	1	0	1	-42,212826	274,472137	279,579817	0
14.01.2021	20:49:08	0	0	3,389376	3,123	90,0252	0,53	78,098	3,5	1006,2	7	9,1	8,9	1	1	1	1	1	1	1	1	1	0	1	-38,900634	274,525459	283,142144	0
14.01.2021	20:49:09	0	0	4,858106	3,07875	93,3624	0,522	78,096	3,5	1005,96	7,1	9,1	8,9	1	1	1	1	1	1	1	1	1	0	1	-38,195913	274,484312	283,653831	0
14.01.2021	20:49:10	0	0	4,745127	3,09675	82,6128	0,527	78,086	3,5	1005,8	7	9,1	8,9	1	1	1	1	1	1	1	1	1	0	1	-36,011276	274,35988	285,255251	0
14.01.2021	20:49:11	0	0	3,163418	3,0315	97,704	0,528	78,081	3,5	1006	7,1	9,1	8,9	1	1	1	1	1	1	1	1	1	0	1	-37,13883	274,537668	284,961239	0
14.01.2021	20:49:12	0	0	3,389376	3,021	99,4428	0,528	78,048	3,5	1006,02	7	9,1	8,9	1	1	1	1	1	1	1	1	1	0	1	-37,914024	274,412893	283,60088	0
14.01.2021	20:49:13	0	0	3,841293	3,20175	94,3776	0,529	78,078	3,5	1006,04	7	9,1	8,9	1	1	1	1	1	1	1	1	1	0	1	-36,222692	274,353831	285,015501	0
14.01.2021	20:49:14	0	0	2,372563	3,3165	94,3848	0,527	78,049	3,5	1005,92	7	9,1	8,9	1	1	1	1	1	1	1	1	1	0	1	-38,336857	274,450849	283,355966	0
14.01.2021	20:49:15	0	0	3,841293	3,11775	77,202	0,523	78,047	3,5	1005,94	7	9,1	8,9	1	1	1	1	1	1	1	1	1	0	1	-36,927414	274,364419	284,36037	0
14.01.2021	20:49:16	0	0	2,711501	3,0705	84,0492	0,527	78,038	3,5	1005,86	7	9,1	8,9	1	1	1	1	1	1	1	1	1	0	1	-38,336857	274,375012	283,00055	0
14.01.2021	20:49:17	0	0	2,485543	2,9625	85,1796	0,529	78,033	3,5	1005,86	7	9,1	8,9	1	1	1	1	1	1	1	1	1	0	1	-35,588443	274,511733	286,389935	0
14.01.2021	20:49:18	0	0	4,067252	3,0585	97,3044	0,527	78,019	3,5	1005,98	7	9,1	8,9	1	1	1	1	1	1	1	1	1	0	1	-35,236082	274,499541	286,685098	0
14.01.2021	20:49:19	0	0	3,502355	3,5595	115,9704	0,529	78,023	3,5	1005,94	7	9,1	8,9	1	1	1	1	1	1	1	1	1	0	1	-36,363636	274,356855	284,888722	0
14.01.2021	20:49:20	0	0	3,389376	3,816	101,124	0,528	78,02	3,5	1005,92	7	9,1	8,9	1	1	1	1	1	1	1	1	1	0	1	-37,914024	274,337205	283,246307	0
14.01.2021	20:49:21	0	0	3,502355	3,885	102,5568	0,529	78,011	3,5	1006,08	7,1	9,1	8,9	1	1	1	1	1	1	1	1	1	0	1	-38,477801	274,47518	283,329113	0
14.01.2021	20:49:22	0	0	2,937459	3,867	103,3056	0,526	78,018	3,5	1005,88	7	9,1	8,9	1	1	1	1	1	1	1	1	1	0	1	-35,377026	274,34476	285,818687	0
14.01.2021	20:49:23	0	0	4,29321	4,06125	97,3548	0,523	78,005	3,5	1005,92	7	9,1	8,9	1	1	1	1	1	1	1	1	1	0	1	-34,390416	274,449329	287,295282	0
14.01.2021	20:49:24	0	0	3,050439	4,296	115,9668	0,526	78,006	3,5	1006,04	7	9,1	8,9	1	1	1	1	1	1	1	1	1	0	1	-35,236082	274,347783	285,973788	0
14.01.2021	20:49:25	0	0	2,485543	4,33575	100,404	0,525	78,017	3,5	1005,94	7	9,1	8,9	1	1	1	1	1	1	1	1	1	0	1	-37,420719	274,394701	284,008934	0
14.01.2021	20:49:26	0	0	2,485543	4,4115	99,144	0,524	78,025	3,5	1006,06	7,1	9,1	8,9	1	1	1	1	1	1	1	1	1	0	1	-40,38055	274,523933	281,65507	0
14.01.2021	20:49:27	0	0	3,389376	4,4955	97,6896	0,529	78,007	3,5	1006,06	7	9,1	8,9	1	1	1	1	1	1	1	1	1	0	1	-40,662438	274,364419	280,625345	0
14.01.2021	20:49:28	0	0	3,728314	4,551	101,4984	0,523	77,996	3,5	1005,9	7	9,1	8,9	1	1	1	1	1	1	1	1	1	0	1	-37,13883	274,423513	284,425848	0
14.01.2021	20:49:29	0	0	3,163418	4,74375	104,0436	0,525	77,995	3,5	1005,68	7	9,1	8,9	1	1	1	1	1	1	1	1	1	0	1	-37,209302	274,382582	284,16357	0
14.01.2021	20:49:30	0	0	4,745127	4,4895	101,5056	0,524	77,999	3,5	1005,9	7	9,1	8,9	1	1	1	1	1	1	1	1	1	0	1	-32,980973	274,526985	289,068965	0
14.01.2021	20:49:31	0	0	3,050439	4,308	96,9768	0,526	78,004	3,5	1005,86	7	9,1	8,9	1	1	1	1	1	1	1	1	1	0	1	-41,155743	274,387126	280,238417	0
14.01.2021	20:49:32	0	0	3,050439	3,837	99,1656	0,53	77,981	3,5	1005,88	7	9,1	8,9	1	1	1	1	1	1	1	1	1	0	1	-33,967583	274,505636	287,98219	0
14.01.2021	20:49:33	0	0	3,954272	3,16725	104,7384	0,523	77,983	3,5	1005,96	7	9,1	8,9	1	1	1	1	1	1	1	1	1	0	1	-38,266385	274,525459	283,776393	0
14.01.2021	20:49:34	0	0	2,82448	2,92875	87,7464	0,528	78,006	3,5	1006	7	9,1	8,9	1	1	1	1	1	1	1	1	1	0	1	-37,068358	274,435658	284,553247	0
14.01.2021	20:49:35	0	0	2,82448	3,40575	95,8752	0,527	77,999	3,5	1006,04	7,1	9,1	8,9	1	1	1	1	1	1	1	1	1	0	1	-33,262861	274,52851	288,794236	0
14.01.2021	20:49:36	0	0	2,485543	3,7275	112,2984	0,53	78,003	3,5	1006,04	7	9,1	8,9	1	1	1	1	1	1	1	1	1	0	1	-33,333333	274,490402	288,544976	0
14.01.2021	20:49:37	0	0	3,389356	3,87225	94,7556	0,523	78,005	3,5	1005,98	7	9,1	9	1	1	1	1	1	1	1	1	1	0	1	-37,561663	274,391671	283,85379	0
14.01.2021	20:49:38	0	0	4,29321	3,639	99,4968	0,525	77,987	3,5	1005,98	7	9,1	8,9	1	1	1	1	1	1	1	1	1	0	1	-37,491191	274,530036	284,573066	0
14.01.2021	20:49:39	0	0	3,954272	3,60225	110,1024	0,524	77,985	3,5	1005,98	7	9,1	8,9	1	1	1	1	1	1	1	1	1	0	1	-37,350247	274,429584	284,242889	0
14.01.2021	20:49:40	0	0	3,502355	3,675	94,4172	0,526	77,989	3,5	1005,96	7	9,1	8,9	1	1	1	1	1	1	1	1	1	0	1	-33,333333	274,526985	288,716604	0
14.01.2021	20:49:41	0	0	3,502355	3,882	92,9772	0,523	78,007	3,5	1006,02	7	9,1	8,9	1	1	1	1	1	1	1	1	1	0	1	-42,142354	274,415927	279,386768	0
14.01.2021	20:49:42	0	0	3,163399	3,92325	90,792	0,529	78,029	3,5	1006	7	9,1	9	1	1	1	1	1	1	1	1	1	0	1	-35,377026	274,355343	285,868249	0
14.01.2021	20:49:43	0	0	4,632148	3,648	92,988	0,52	78,003	3,5	1005,96	7	9,1	8,9	1	1	1	1	1	1	1	1	1	0	1	-35,588443	274,403795	285,883823	0
14.01.2021	20:49:44	0	0	4,406163	3,552	96,2136	0,527	78,023	3,5	1006,28	7	9,1	9	1	1	1	1	1	1	1	1	1	0	1	-34,038055	274,516308	287,961784	0
14.01.2021	20:49:45	0	0	4,406189	3,4725	94,104	0,532	78,012	3,5	1005,76	7	9,1	8,9	1	1	1	1	1	1	1	1	1	0	1	-34,53136	274,491925	287,354093	0
14.01.2021	20:49:46	0	0	3,615335	3,30225	94,7628	0,528	77,999	3,5	1006,06	7	9,1	8,9	1	1	1	1	1	1	1	1	1	0	1	-37,420719	274,352319	283,810392	0
14.01.2021	20:49:47	0	0	4,406189	3,42225	105,1452	0,525	78,021	3,5	1005,92	7	9,1	8,9	1	1	1	1	1	1	1	1	1	0	1	-34,954193	274,390156	286,454162	0
14.01.2021	20:49:48	0	0	3,050439	3,56925	88,5924	0,527	78,035	3,5	1006,16	7	9,1	8,9	1	1	1	1	1	1	1	1	1	0	1	-35,377026	274,337205	285,783305	0
14.01.2021	20:49:49	0	0	3,050439	3,5505	100,3788	0,528	78,043	3,5	1005,96	7	9,1	8,9	1	1	1	1	1	1	1	1	1	0	1	-33,54475	274,385611	287,842314	0
14.01.2021	20:49:50	0	0	4,29321	3,4485	87,3684	0,52	78,044	3,5	1005,92	7	9,1	8,9	1	1	1	1	1	1	1	1	1	0	1	-35,799859	274,525459	286,242919	0
14.01.2021	20:49:51	0	0	4,858106	3,29925	95,5296	0,526	78,061	3,5	1006,04	7	9,1	8,9	1	1	1	1	1	1	1	1	1	0	1	-36,293164	274,44629	285,378286	0
14.01.2021	20:49:52	0	0	2,711501	3,3945	90,414	0,526	78,054	3,5	1006	7	9,1	8,9	1	1	1	1	1	1	1	1	1	0	1	-35,377026	274,491925	286,508427	0
14.01.2021	20:49:53	0	0	3,502334	3,58575	93,33	0,519	78,056	3,5	1006,04	7	9,1	9	1	1	1	1	1	1	1	1	1	0	1	-33,967583	274,40986	287,533106	0
14.01.2021	20:49:54	0	0	3,05042	3,78225	94,0716	0,528	78,055	3,5	1006,12	7	9,1	9	1	1	1	1	1	1	1	1	1	0	1	-38,971106	274,522408	283,057356	0
14.01.2021	20:49:55	0	0	3,389376	3,7245	91,1952	0,524	78,053	3,5	1005,78	7	9,1	8,9	1	1	1	1	1	1	1	1	1	0	1	-37,209302	274,418961	284,33404	0
14.01.2021	20:49:56	0	0	3,728314	3,65025	86,2812	0,524	78,063	3,5	1005,82	7	9,1	8,9	1	1	1	1	1	1	1	1	1	0	1	-40,451022	274,533089	281,627558	0
14.01.2021	20:49:57	0	0	2,485528	3,417	78,6816	0,522	78,075	3,5	1005,94	7	9,1	9	1	1	1	1	1	1	1	1	1	0	1	-35,16561	274,464531	286,591368	0
14.01.2021	20:49:58	0	0	4,29321	3,027	86,2848	0,525	78,07	3,5	1005,96	7	9,1	8,9	1	1	1	1	1	1	1	1	1	0	1	-34,742777	274,34476	286,452936	0
14.01.2021	20:49:59	0	0	4,180231	2,838	95,1804	0,524	78,075	3,5	1005,98	7	9,1	8,9	1	1	1	1	1	1	1	1	1	0	1	-38,548273	274,443252	283,108932	0
14.01.2021	20:50:00	0	0	3,841293	2,7465	90,7956	0,528	78,079	3,5	1005,94	7	9,1	8,9	1	1	1	1	1	1	1	1	1	0	1	-32,9105	274,44629	288,76095	0
14.01.2021	20:50:01	0	0	3,841293	2,7465	90,7956	0,528	78,079	3,5	1005,94	7	9,1	8,9	1	1	1	1	1	1	1	1	1	0	1	-32,9105	274,44629	288,76095	0
14.01.2021	20:50:02	0	0	4,858106	2,78775	87,7356	0,521	78,078	3,5	1005,7	7	9,1	8,9	1	1	1	1	1	1	1	1	1	0	1	-34,038055	274,498018	287,875978	0
14.01.2021	20:50:03	0	0	4,971085	2,697	82,9872	0,521	78,087	3,5	1006	7	9,1	8,9	1	1	1	1	1	1	1	1	1	0	1	-33,897111	274,385611	287,489953	0
14.01.2021	20:50:04	0	0	3,276397	2,667	76,0032	0,52	78,074	3,5	1005,82	7	9,1	8,9	1	1	1	1	1	1	1	1	1	0	1	-37,491191	274,388641	283,910066	0
14.01.2021	20:50:05	0	0	2,485528	2,61075	85,5288	0,522	78,073	3,5	1005,96	7	9,1	9	1	1	1	1	1	1	1	1	1	0	1	-30,514447	274,356855	290,737911	0
14.01.2021	20:50:06	0	0	4,632148	2,60925	77,9616	0,522	78,069	3,5	1006	7	9,1	8,9	1	1	1	1	1	1	1	1	1	0	1	-38,548273	274,478223	283,272914	0
14.01.2021	20:50:07	0	0	2,485543	2,877	72,7848	0,515	78,086	3,5	1005,88	7	9,2	8,9	1	1	1	1	1	1	1	1	1	0	1	-33,897111	274,484312	287,952633	0
14.01.2021	20:50:08	0	0	3,615313	3,0045	88,9524	0,527	78,065	3,5	1006,02	7	9,1	9	1	1	1	1	1	1	1	1	1	0	1	-40,098661	274,490402	281,779649	0
14.01.2021	20:50:09	0	0	4,180231	3,5085	81,6012	0,527	78,075	3,5	1006	7	9,1	8,9	1	1	1	1	1	1	1	1	1	0	1	-32,417195	274,519358	289,596954	0
14.01.2021	20:50:10	0	0	4,63212	3,8475	80,91	0,52	78,051	3,5	1005,98	7	9,1	9	1	1	1	1	1	1	1	1	1	0	1	-36,434109	274,450849	285,258715	0
14.01.2021	20:50:11	0	0	4,293184	3,6855	85,1976	0,527	78,064	3,5	1006,02	7	9,1	9	1	1	1	1	1	1	1	1	1	0	1	-39,393939	274,50716	282,562984	0
14.01.2021	20:50:12	0	0	3,163399	3,67275	93,3336	0,527	78,045	3,5	1006	7	9,1	9	1	1	1	1	1	1	1	1	1	0	1	-30,796335	274,353831	290,441857	0
14.01.2021	20:50:13	0	0	5,309991	3,99525	70,8444	0,523	78,041	3,5	1005,98	7	9,1	9	1	1	1	1	1	1	1	1	1	0	1	-37,420719	274,490402	284,457591	0
14.01.2021	20:50:14	0	0	3,389356	4,086	66,5352	0,526	78,029	3,5	1006,14	7	9,1	9	1	1	1	1	1	1	1	1	1	0	1	-30,232558	274,335694	290,920699	0
14.01.2021	20:50:15	0	0	3,502334	4,0755	91,9116	0,518	78,021	3,5	1006,02	7	9,2	9	1	1	1	1	1	1	1	1	1	0	1	-34,108527	274,352319	287,122584	0
14.01.2021	20:50:16	0	0	3,615335	4,116	98,4744	0,526	78,01	3,5	1006,04	7	9,1	8,9	1	1	1	1	1	1	1	1	1	0	1	-34,53136	274,522408	287,497102	0
14.01.2021	20:50:17	0	0	4,519141	3,66525	94,7772	0,525	78	3,5	1006,04	7	9,1	9	1	1	1	1	1	1	1	1	1	0	1	-40,239605	274,396216	281,197148	0
14.01.2021	20:50:18	0	0	4,293184	3,28725	95,5188	0,521	77,999	3,5	1005,92	7	9,1	9	1	1	1	1	1	1	1	1	1	0	1	-40,098661	274,517833	281,908332	0
14.01.2021	20:50:19	0	0	3,84127	3,2445	75,0096	0,526	77,996	3,5	1005,98	7	9,1	9	1	1	1	1	1	1	1	1	1	0	1	-34,460888	274,443252	287,196317	0
14.01.2021	20:50:20	0	0	3,615335	3,33825	68,004	0,525	77,993	3,5	1006,02	7	9	8,9	1	1	1	1	1	1	1	1	1	0	1	-36,504581	274,482789	285,338023	0
14.01.2021	20:50:21	0	0	4,632148	3,6105	73,0872	0,526	77,969	3,5	1006,02	7	9,1	8,9	1	1	1	1	1	1	1	1	1	0	1	-34,813249	274,511733	287,165129	0
14.01.2021	20:50:22	0	0	4,63212	3,53325	87,0012	0,527	77,971	3,5	1006,08	7	9,1	9	1	1	1	1	1	1	1	1	1	0	1	-32,980973	274,481267	288,854492	0
14.01.2021	20:50:23	0	0	3,954249	3,33975	65,8512	0,522	77,961	3,5	1006,04	7	9,1	9	1	1	1	1	1	1	1	1	1	0	1	-35,51797	274,50716	286,438953	0
14.01.2021	20:50:24	0	0	4,745127	3,17925	87,0192	0,524	77,959	3,5	1005,86	7	9,1	8,9	1	1	1	1	1	1	1	1	1	0	1	-36,293164	274,464531	285,463814	0
14.01.2021	20:50:25	0	0	2,485528	3,27675	87,7464	0,52	77,949	3,5	1005,92	7	9,1	9	1	1	1	1	1	1	1	1	1	0	1	-35,16561	274,516308	286,834229	0
14.01.2021	20:50:26	0	0	3,05042	3,43725	86,6772	0,522	77,945	3,5	1006,08	7	9,1	9	1	1	1	1	1	1	1	1	1	0	1	-35,588443	274,361393	285,685169	0
14.01.2021	20:50:27	0	0	4,406189	3,60675	85,9356	0,523	77,947	3,5	1006,26	7	9,1	8,9	1	1	1	1	1	1	1	1	1	0	1	-36,081748	274,50716	285,875176	0
14.01.2021	20:50:28	0	0	4,858106	3,8235	86,9796	0,524	77,931	3,5	1006,08	7	9,1	8,9	1	1	1	1	1	1	1	1	1	0	1	-38,830162	274,472137	282,962481	0
14.01.2021	20:50:29	0	0	3,502334	3,60375	82,602	0,527	77,934	3,5	1005,92	7	9,1	9	1	1	1	1	1	1	1	1	1	0	1	-37,984496	274,499541	283,936684	0
14.01.2021	20:50:30	0	0	4,180231	3,41175	90,3852	0,525	77,908	3,5	1005,86	7	9,1	8,9	1	1	1	1	1	1	1	1	1	0	1	-39,534884	274,484312	282,31486	0
14.01.2021	20:50:31	0	0	4,293184	3,21075	85,1976	0,522	77,902	3,5	1005,9	7	9,1	9	1	1	1	1	1	1	1	1	1	0	1	-38,477801	274,402279	282,987361	0
14.01.2021	20:50:32	0	0	4,63212	2,96625	65,844	0,515	77,908	3,5	1005,88	7	9,1	9	1	1	1	1	1	1	1	1	1	0	1	-35,16561	274,464531	286,591368	0
14.01.2021	20:50:33	0	0	2,937459	2,97225	72,7056	0,517	77,904	3,5	1005,92	7	9,1	8,9	1	1	1	1	1	1	1	1	1	0	1	-34,108527	274,499541	287,812653	0
14.01.2021	20:50:34	0	0	4,632148	3,12525	70,2216	0,513	77,889	3,5	1005,86	7	9,1	8,9	1	1	1	1	1	1	1	1	1	0	1	-38,054968	274,390156	283,353387	0
14.01.2021	20:50:35	0	0	3,84127	3,27	85,9068	0,516	77,89	3,5	1005,92	7	9,1	9	1	1	1	1	1	1	1	1	1	0	1	-38,971106	274,494971	282,928635	0
14.01.2021	20:50:36	0	0	3,050439	3,0975	77,2164	0,512	77,9	3,5	1005,92	7	9,1	8,9	1	1	1	1	1	1	1	1	1	0	1	-37,068358	274,391671	284,347096	0
14.01.2021	20:50:37	0	0	2,711485	3,0165	84,06	0,523	77,908	3,5	1006	7	9,1	9	1	1	1	1	1	1	1	1	1	0	1	-34,883721	274,491925	287,001732	0
14.01.2021	20:50:38	0	0	2,937442	2,8755	68,4216	0,518	77,9	3,5	1005,9	7	9,1	9	1	1	1	1	1	1	1	1	1	0	1	-35,377026	274,368958	285,932021	0
14.01.2021	20:50:39	0	0	2,372549	2,89425	72,6912	0,52	77,902	3,5	1005,9	7	9,1	9	1	1	1	1	1	1	1	1	1	0	1	-35,658915	274,331163	285,473123	0
14.01.2021	20:50:40	0	0	3,615313	3,11175	72	0,519	77,91	3,5	1005,9	7	9,1	9	1	1	1	1	1	1	1	1	1	0	1	-32,417195	274,44629	289,254255	0
14.01.2021	20:50:41	0	0	3,502334	3,4695	79,4124	0,52	77,91	3,5	1005,9	7	9,1	9	1	1	1	1	1	1	1	1	1	0	1	-37,984496	274,325122	283,119259	0
14.01.2021	20:50:42	0	0	5,197044	3,786	77,2236	0,517	77,905	3,5	1005,94	7	9,1	8,9	1	1	1	1	1	1	1	1	1	0	1	-37,350247	274,391671	284,065207	0
14.01.2021	20:50:43	0	0	4,29321	3,9585	59,4972	0,514	77,92	3,5	1005,86	7	9,1	8,9	1	1	1	1	1	1	1	1	1	0	1	-34,108527	274,328142	287,009368	0
14.01.2021	20:50:44	0	0	4,180206	4,03875	83,7468	0,518	77,919	3,5	1005,92	7	9,1	9	1	1	1	1	1	1	1	1	1	0	1	-38,336857	274,415927	283,192265	0
14.01.2021	20:50:45	0	0	3,84127	3,972	79,0452	0,521	77,941	3,5	1005,94	7	9,2	9	1	1	1	1	1	1	1	1	1	0	1	-38,12544	274,501065	283,802887	0
14.01.2021	20:50:46	0	0	3,954249	3,7395	74,178	0,515	77,936	3,5	1006	7	9,1	9	1	1	1	1	1	1	1	1	1	0	1	-33,54475	274,349295	287,6722	0
14.01.2021	20:50:47	0	0	4,406189	3,8655	89,8056	0,521	77,945	3,5	1006	7	9,2	8,9	1	1	1	1	1	1	1	1	1	0	1	-33,474278	274,491925	288,411175	0
14.01.2021	20:50:48	0	0	4,971055	4,1505	70,8588	0,516	77,936	3,5	1005,98	7	9,1	9	1	1	1	1	1	1	1	1	1	0	1	-35,799859	274,394701	285,629794	0
14.01.2021	20:50:49	0	0	4,067227	4,4235	72,7812	0,517	77,946	3,5	1005,86	7	9,1	9	1	1	1	1	1	1	1	1	1	0	1	-34,672304	274,504112	287,270319	0
14.01.2021	20:50:50	0	0	2,259571	4,66425	64,2528	0,519	77,964	3,5	1006	7	9,1	9	1	1	1	1	1	1	1	1	1	0	1	-35,658915	274,437176	285,969809	0
14.01.2021	20:50:51	0	0	3,502334	4,6335	69,1632	0,515	77,979	3,5	1005,96	7	9,2	9	1	1	1	1	1	1	1	1	1	0	1	-34,108527	274,322103	286,981091	0
14.01.2021	20:50:52	0	0	3,276377	4,20825	62,5176	0,511	77,978	3,5	1005,98	7	9,1	9	1	1	1	1	1	1	1	1	1	0	1	-41,296688	274,371985	280,026538	0
14.01.2021	20:50:53	0	0	4,067227	4,1295	74,934	0,52	77,994	3,5	1005,84	7	9,1	9	1	1	1	1	1	1	1	1	1	0	1	-35,51797	274,326632	285,592855	0
14.01.2021	20:50:54	0	0	4,067227	3,89775	65,8548	0,512	78,013	3,5	1005,94	7	9,2	9	1	1	1	1	1	1	1	1	1	0	1	-34,742777	274,420478	286,807677	0
14.01.2021	20:50:55	0	0	2,711485	3,65475	81,2124	0,52	78,024	3,5	1006,04	7	9,1	9	1	1	1	1	1	1	1	1	1	0	1	-38,336857	274,505636	283,612916	0
14.01.2021	20:50:56	0	0	5,084034	3,7395	78,6744	0,515	78,042	3,5	1005,78	7	9,2	9	1	1	1	1	1	1	1	1	1	0	1	-36,856942	274,411376	284,650854	0
14.01.2021	20:50:57	0	0	4,63212	4,08	57,7296	0,515	78,048	3,5	1006	7	9,1	9	1	1	1	1	1	1	1	1	1	0	1	-37,843552	274,493448	284,049045	0
14.01.2021	20:50:58	0	0	3,84127	4,72125	49,5576	0,514	78,062	3,5	1005,96	7	9,2	9	1	1	1	1	1	1	1	1	1	0	1	-33,967583	274,412893	287,547321	0
14.01.2021	20:50:59	0	0	4,180206	4,74225	69,8904	0,517	78,067	3,5	1006,02	7	9,2	9	1	1	1	1	1	1	1	1	1	0	1	-35,447498	274,50716	286,509425	0
14.01.2021	20:51:00	0	0	3,615313	4,11225	67,6908	0,511	78,063	3,5	1006	7	9,2	9	1	1	1	1	1	1	1	1	1	0	1	-36,645525	274,332673	284,493585	0
14.01.2021	20:51:01	0	0	3,615313	4,11225	67,6908	0,511	78,063	3,5	1006	7	9,2	9	1	1	1	1	1	1	1	1	1	0	1	-36,645525	274,332673	284,493585	0
14.01.2021	20:51:02	0	0	2,937442	3,849	47,3868	0,51	78,059	3,5	1005,94	7	9,1	9	1	1	1	1	1	1	1	1	1	0	1	-39,605356	274,405311	281,874015	0
14.01.2021	20:51:03	0	0	3,841293	3,58575	51,768	0,514	78,057	3,5	1005,9	7	9,1	8,9	1	1	1	1	1	1	1	1	1	0	1	-34,53136	274,513258	287,454171	0
14.01.2021	20:51:04	0	0	4,519141	3,65325	42,6132	0,514	78,051	3,5	1006,08	7	9,1	9	1	1	1	1	1	1	1	1	1	0	1	-35,658915	274,44781	286,019659	0
14.01.2021	20:51:05	0	0	4,180206	3,60075	41,454	0,513	78,052	3,5	1005,9	7	9,1	9	1	1	1	1	1	1	1	1	1	0	1	-37,914024	274,514783	284,07866	0
14.01.2021	20:51:06	0	0	4,180206	3,492	45,9396	0,507	78,062	3,5	1006,04	7	9	9	1	1	1	1	1	1	1	1	1	0	1	-37,209302	274,390156	284,199053	0
14.01.2021	20:51:07	0	0	4,406163	3,22125	65,178	0,513	78,069	3,5	1005,92	7	9,1	9	1	1	1	1	1	1	1	1	1	0	1	-39,605356	274,505636	282,344417	0
14.01.2021	20:51:08	0	0	2,598506	3,3585	74,1816	0,51	78,055	3,5	1005,94	7	9,2	9	1	1	1	1	1	1	1	1	1	0	1	-36,927414	274,390156	284,480941	0
14.01.2021	20:51:09	0	0	4,067227	3,68775	72,3024	0,507	78,067	3,5	1005,96	7	9,1	9	1	1	1	1	1	1	1	1	1	0	1	-33,967583	274,319084	287,107901	0
14.01.2021	20:51:10	0	0	2,372549	3,642	71,622	0,508	78,061	3,5	1006,06	7	9,2	9	1	1	1	1	1	1	1	1	1	0	1	-35,236082	274,440214	286,406881	0
14.01.2021	20:51:11	0	0	3,502355	3,84075	68,4144	0,507	78,063	3,5	1006	7	9,2	8,9	1	1	1	1	1	1	1	1	1	0	1	-37,209302	274,50716	284,747621	0
14.01.2021	20:51:12	0	0	3,84127	3,6495	105,1596	0,508	78,067	3,5	1005,82	7	9	9	1	1	1	1	1	1	1	1	1	0	1	-38,477801	274,397732	282,966053	0
14.01.2021	20:51:13	0	0	3,163399	3,90825	102,5748	0,507	78,068	3,5	1005,78	7	9,1	9	1	1	1	1	1	1	1	1	1	0	1	-38,407329	274,347783	282,802541	0
14.01.2021	20:51:14	0	0	2,82448	4,17825	97,3368	0,509	78,079	3,5	1006	7	9,1	8,9	1	1	1	1	1	1	1	1	1	0	1	-33,615222	274,455409	288,09898	0
14.01.2021	20:51:15	0	0	4,293184	4,5495	84,42	0,51	78,072	3,5	1005,98	7	9,1	9	1	1	1	1	1	1	1	1	1	0	1	-35,588443	274,311538	285,451717	0
14.01.2021	20:51:16	0	0	4,971055	5,35875	98,7912	0,507	78,072	3,5	1005,98	7	9	9	1	1	1	1	1	1	1	1	1	0	1	-32,55814	274,388641	288,843118	0
14.01.2021	20:51:17	0	0	4,519141	5,238	109,9872	0,511	78,09	3,5	1006,02	7	9,2	9	1	1	1	1	1	1	1	1	1	0	1	-34,038055	274,337205	287,122276	0
14.01.2021	20:51:18	0	0	3,954249	4,74975	99,8928	0,51	78,092	3,5	1005,98	7	9,1	9	1	1	1	1	1	1	1	1	1	0	1	-35,51797	274,338716	285,649436	0
14.01.2021	20:51:19	0	0	4,519141	4,1295	68,0148	0,509	78,11	3,5	1006,02	7	9,2	9	1	1	1	1	1	1	1	1	1	0	1	-34,813249	274,456929	286,908081	0
14.01.2021	20:51:20	0	0	3,389356	4,14	66,2256	0,506	78,116	3,5	1005,92	7	9,2	9	1	1	1	1	1	1	1	1	1	0	1	-36,15222	274,358368	285,107222	0
14.01.2021	20:51:21	0	0	3,389356	4,383	89,7336	0,503	78,118	3,5	1006	7	9,2	9	1	1	1	1	1	1	1	1	1	0	1	-34,672304	274,476701	287,141746	0
14.01.2021	20:51:22	0	0	3,276377	4,60875	80,9136	0,504	78,144	3,5	1005,9	7	9	9	1	1	1	1	1	1	1	1	1	0	1	-32,840028	274,514783	289,152656	0
14.01.2021	20:51:23	0	0	4,63212	5,07675	72,3024	0,502	78,147	3,5	1006,02	7	9,1	9	1	1	1	1	1	1	1	1	1	0	1	-36,434109	274,466052	285,330001	0
14.01.2021	20:51:24	0	0	3,05042	4,72125	83,736	0,503	78,145	3,5	1006	7	9,2	9	1	1	1	1	1	1	1	1	1	0	1	-34,108527	274,340227	287,065955	0
14.01.2021	20:51:25	0	0	4,858077	4,42275	92,9232	0,505	78,163	3,5	1005,98	7	9,1	9	1	1	1	1	1	1	1	1	1	0	1	-36,222692	274,396216	285,214061	0
14.01.2021	20:51:26	0	0	3,502334	4,1985	98,0748	0,504	78,175	3,5	1006,02	7	9,1	9	1	1	1	1	1	1	1	1	1	0	1	-34,390416	274,349295	286,826534	0
14.01.2021	20:51:27	0	0	5,084034	3,98475	78,2748	0,501	78,181	3,5	1005,82	7	9,2	9	1	1	1	1	1	1	1	1	1	0	1	-38,12544	274,423513	283,439238	0
14.01.2021	20:51:28	0	0	3,615313	4,314	76,3812	0,506	78,187	3,5	1006,12	7,1	9,2	9	1	1	1	1	1	1	1	1	1	0	1	-34,460888	274,534615	287,624855	0
14.01.2021	20:51:29	0	0	4,971055	4,365	62,0352	0,506	78,174	3,5	1006,02	7	9,1	9	1	1	1	1	1	1	1	1	1	0	1	-35,377026	274,522408	286,651436	0
14.01.2021	20:51:30	0	0	4,180206	3,9705	94,104	0,503	78,198	3,5	1005,92	7	9,1	9	1	1	1	1	1	1	1	1	1	0	1	-34,108527	274,397732	287,335327	0
14.01.2021	20:51:31	0	0	2,485528	3,53175	100,3824	0,496	78,189	3,5	1005,94	7	9,2	9	1	1	1	1	1	1	1	1	1	0	1	-37,843552	274,514783	284,149132	0
14.01.2021	20:51:32	0	0	3,84127	3,76875	85,914	0,503	78,18	3,5	1005,94	7	9,1	9	1	1	1	1	1	1	1	1	1	0	1	-32,487667	274,349295	288,729282	0
14.01.2021	20:51:33	0	0	3,728292	3,86925	78,6456	0,506	78,193	3,5	1006,04	7	9,2	9	1	1	1	1	1	1	1	1	1	0	1	-34,108527	274,491925	287,776926	0
14.01.2021	20:51:34	0	0	4,293184	3,51225	87,732	0,507	78,206	3,5	1005,96	7	9,2	9	1	1	1	1	1	1	1	1	1	0	1	-36,786469	274,391671	284,628984	0
14.01.2021	20:51:35	0	0	4,858077	3,297	89,4276	0,502	78,204	3,5	1005,96	7	9,1	9	1	1	1	1	1	1	1	1	1	0	1	-32,55814	274,502589	289,377336	0
14.01.2021	20:51:36	0	0	3,954249	3,4215	100,7604	0,503	78,217	3,5	1005,96	7	9,2	9	1	1	1	1	1	1	1	1	1	0	1	-35,16561	274,341738	286,015949	0
14.01.2021	20:51:37	0	0	3,954249	3,543	90,3852	0,504	78,245	3,5	1005,8	7	9,2	9	1	1	1	1	1	1	1	1	1	0	1	-40,38055	274,473658	281,419229	0
14.01.2021	20:51:38	0	0	4,519141	3,70575	81,9792	0,506	78,253	3,5	1005,96	7	9,1	9	1	1	1	1	1	1	1	1	1	0	1	-34,672304	274,365932	286,622566	0
14.01.2021	20:51:39	0	0	4,519141	4,17375	84,4308	0,504	78,246	3,5	1005,98	7	9,1	9	1	1	1	1	1	1	1	1	1	0	1	-38,195913	274,472137	283,596731	0
14.01.2021	20:51:40	0	0	3,389356	4,34475	101,1204	0,503	78,266	3,5	1006,2	7	9,2	9	1	1	1	1	1	1	1	1	1	0	1	-30,725863	274,371985	290,597362	0
14.01.2021	20:51:41	0	0	2,372549	4,584	83,736	0,501	78,267	3,5	1005,98	7	9,1	9	1	1	1	1	1	1	1	1	1	0	1	-37,843552	274,517833	284,163442	0
14.01.2021	20:51:42	0	0	3,163399	4,563	105,1452	0,502	78,278	3,5	1006,04	7	9	9	1	1	1	1	1	1	1	1	1	0	1	-37,702607	274,41441	283,819405	0
14.01.2021	20:51:43	0	0	3,163399	4,452	102,1968	0,522	78,302	3,5	1006,2	7	9,2	9	1	1	1	1	1	1	1	1	1	0	1	-35,799859	274,514783	286,192825	0
14.01.2021	20:51:44	0	0	4,180206	4,73775	101,1024	0,501	78,3	3,5	1006,06	7	9,1	9	1	1	1	1	1	1	1	1	1	0	1	-36,222692	274,394701	285,206961	0
14.01.2021	20:51:45	0	0	4,745098	4,68975	92,268	0,502	78,312	3,5	1005,88	7	9,2	9	1	1	1	1	1	1	1	1	1	0	1	-31,994362	274,352319	289,236749	0
14.01.2021	20:51:46	0	0	2,937442	4,78575	92,9556	0,504	78,317	3,5	1006,04	7	9	9	1	1	1	1	1	1	1	1	1	0	1	-34,390416	274,397732	287,053439	0
14.01.2021	20:51:47	0	0	4,406163	5,02125	101,8116	0,503	78,322	3,5	1005,9	7,1	9,2	9	1	1	1	1	1	1	1	1	1	0	1	-39,323467	274,525459	282,719311	0
14.01.2021	20:51:48	0	0	4,293184	5,1345	90,0072	0,501	78,321	3,5	1005,96	7	9,2	9	1	1	1	1	1	1	1	1	1	0	1	-35,377026	274,485834	286,479858	0
14.01.2021	20:51:49	0	0	3,05042	5,5575	83,7324	0,501	78,328	3,5	1006,1	7	9,2	9	1	1	1	1	1	1	1	1	1	0	1	-33,897111	274,349295	287,319839	0
14.01.2021	20:51:50	0	0	3,276377	5,25225	85,5216	0,501	78,335	3,5	1005,84	7	9,2	9	1	1	1	1	1	1	1	1	1	0	1	-34,813249	274,376526	286,53125	0
14.01.2021	20:51:51	0	0	4,63212	4,63125	79,0416	0,5	78,346	3,5	1006,04	7	9,1	9	1	1	1	1	1	1	1	1	1	0	1	-40,662438	274,502589	281,273037	0
14.01.2021	20:51:52	0	0	3,728292	4,092	85,1796	0,494	78,362	3,5	1006,04	7	9,1	9	1	1	1	1	1	1	1	1	1	0	1	-40,098661	274,44629	281,572789	0
14.01.2021	20:51:53	0	0	2,824463	4,01325	93,7476	0,504	78,346	3,5	1005,98	7	9,1	9	1	1	1	1	1	1	1	1	1	0	1	-38,12544	274,516308	283,874398	0
14.01.2021	20:51:54	0	0	2,824463	4,16025	85,536	0,504	78,378	3,5	1005,98	7	9,2	9	1	1	1	1	1	1	1	1	1	0	1	-32,205779	274,394701	289,223874	0
14.01.2021	20:51:55	0	0	2,937442	4,0875	87,7356	0,499	78,371	3,5	1005,98	7	9,2	9	1	1	1	1	1	1	1	1	1	0	1	-31,712474	274,510209	290,258752	0
14.01.2021	20:51:56	0	0	3,954249	3,98625	74,5308	0,505	78,392	3,5	1005,84	7	9,2	9	1	1	1	1	1	1	1	1	1	0	1	-34,742777	274,364419	286,545007	0
14.01.2021	20:51:57	0	0	4,067227	3,80325	79,4376	0,505	78,409	3,5	1006,04	7	9,2	9	1	1	1	1	1	1	1	1	1	0	1	-39,464412	274,469094	282,313964	0
14.01.2021	20:51:58	0	0	4,745098	3,8565	66,564	0,504	78,421	3,5	1006,06	7	9,2	9	1	1	1	1	1	1	1	1	1	0	1	-34,954193	274,526985	287,095744	0
14.01.2021	20:51:59	0	0	3,05042	3,894	66,924	0,496	78,427	3,5	1006,06	7	9,2	9	1	1	1	1	1	1	1	1	1	0	1	-34,319944	274,367445	286,982015	0
14.01.2021	20:52:00	0	0	3,05042	4,002	72,4212	0,506	78,438	3,5	1005,96	7	9,2	9	1	1	1	1	1	1	1	1	1	0	1	-36,715997	274,531562	285,355421	0
14.01.2021	20:52:01	0	0	3,05042	4,002	72,4212	0,506	78,438	3,5	1005,96	7	9,2	9	1	1	1	1	1	1	1	1	1	0	1	-36,715997	274,531562	285,355421	0
14.01.2021	20:52:02	0	0	2,033614	3,99525	58,8492	0,51	78,42	3,5	1006,22	7	9,1	9	1	1	1	1	1	1	1	1	1	0	1	-36,786469	274,400763	284,67159	0
14.01.2021	20:52:03	0	0	3,502334	3,9435	65,826	0,505	78,431	3,5	1005,96	7	9,2	9	1	1	1	1	1	1	1	1	1	0	1	-36,856942	274,536141	285,235964	0
14.01.2021	20:52:04	0	0	3,389356	3,8145	86,6664	0,503	78,422	3,5	1005,98	7	9,2	9	1	1	1	1	1	1	1	1	1	0	1	-31,994362	274,482789	289,848241	0
14.01.2021	20:52:05	0	0	4,519141	3,7455	77,9796	0,505	78,387	3,5	1005,92	7	9,1	9	1	1	1	1	1	1	1	1	1	0	1	-33,685694	274,368958	287,623352	0
14.01.2021	20:52:06	0	0	5,309991	3,51075	86,976	0,506	78,404	3,5	1006,02	7	9,1	9	1	1	1	1	1	1	1	1	1	0	1	-36,222692	274,484312	285,627051	0
14.01.2021	20:52:07	0	0	3,615313	3,57375	62,4276	0,508	78,407	3,5	1006,04	7	9,1	9	1	1	1	1	1	1	1	1	1	0	1	-37,702607	274,526985	284,34733	0
14.01.2021	20:52:08	0	0	2,824463	3,75675	59,868	0,503	78,384	3,5	1006	7	9	9	1	1	1	1	1	1	1	1	1	0	1	-36,222692	274,47518	285,584222	0
14.01.2021	20:52:09	0	0	4,745098	3,96075	74,1708	0,506	78,395	3,5	1006,1	7	9,2	9	1	1	1	1	1	1	1	1	1	0	1	-36,222692	274,568223	286,020798	0
14.01.2021	20:52:10	0	0	3,615313	3,65925	69,8616	0,506	78,386	3,5	1005,96	7	9,2	9	1	1	1	1	1	1	1	1	1	0	1	-37,914024	274,505636	284,035749	0
14.01.2021	20:52:11	0	0	4,293184	3,17925	65,4696	0,508	78,385	3,5	1005,98	7	9,2	9	1	1	1	1	1	1	1	1	1	0	1	-34,954193	274,388641	286,447064	0
14.01.2021	20:52:12	0	0	5,197012	3,195	70,6248	0,512	78,386	3,5	1006,06	7	9,1	9	1	1	1	1	1	1	1	1	1	0	1	-35,447498	274,421996	286,110068	0
14.01.2021	20:52:13	0	0	2,598506	3,2865	73,0512	0,506	78,373	3,5	1005,88	7	9,1	9	1	1	1	1	1	1	1	1	1	0	1	-40,38055	274,368958	280,928497	0
14.01.2021	20:52:14	0	0	3,728292	3,42375	75,636	0,505	78,373	3,5	1006,04	7	9,1	9	1	1	1	1	1	1	1	1	1	0	1	-34,53136	274,405311	286,948011	0
14.01.2021	20:52:15	0	0	2,598506	3,57675	75,9888	0,51	78,372	3,5	1006,18	7	9,2	9	1	1	1	1	1	1	1	1	1	0	1	-33,967583	274,543775	288,161149	0
14.01.2021	20:52:16	0	0	2,372549	3,492	83,3544	0,509	78,365	3,5	1006,02	7	9,1	9	1	1	1	1	1	1	1	1	1	0	1	-33,54475	274,498018	288,369283	0
14.01.2021	20:52:17	0	0	2,485528	3,276	92,9736	0,511	78,371	3,5	1005,9	7	9	9	1	1	1	1	1	1	1	1	1	0	1	-35,799859	274,349295	285,417091	0
14.01.2021	20:52:18	0	0	4,180206	3,3315	92,988	0,505	78,35	3,5	1005,88	7	9,2	9	1	1	1	1	1	1	1	1	1	0	1	-37,068358	274,453888	284,638717	0
14.01.2021	20:52:19	0	0	3,276377	3,31725	91,2456	0,509	78,332	3,5	1006,02	7	9,1	9	1	1	1	1	1	1	1	1	1	0	1	-33,615222	274,365932	287,679649	0
14.01.2021	20:52:20	0	0	3,84127	3,23025	91,8864	0,51	78,337	3,5	1005,94	7	9,1	9	1	1	1	1	1	1	1	1	1	0	1	-32,135307	274,426549	289,443599	0
14.01.2021	20:52:21	0	0	3,05042	3,0075	76,3632	0,51	78,326	3,5	1005,9	7	9,1	9	1	1	1	1	1	1	1	1	1	0	1	-35,024665	274,408343	286,468917	0
14.01.2021	20:52:22	0	0	4,180206	3,258	78,2856	0,512	78,345	3,5	1006,02	7	9,1	9	1	1	1	1	1	1	1	1	1	0	1	-32,346723	274,470615	289,438786	0
14.01.2021	20:52:23	0	0	4,406163	3,3975	83,7396	0,504	78,331	3,5	1005,84	7	9,1	9	1	1	1	1	1	1	1	1	1	0	1	-36,715997	274,379554	284,642687	0
14.01.2021	20:52:24	0	0	3,163399	3,56475	80,1432	0,507	78,32	3,5	1005,96	7	9,2	9	1	1	1	1	1	1	1	1	1	0	1	-37,209302	274,415927	284,319819	0
14.01.2021	20:52:25	0	0	4,406163	3,87975	90,7884	0,51	78,325	3,5	1005,94	7	9,1	9	1	1	1	1	1	1	1	1	1	0	1	-34,601832	274,557523	287,591429	0
14.01.2021	20:52:26	0	0	3,615313	4,36125	90,4032	0,507	78,321	3,5	1005,9	7	9,2	9	1	1	1	1	1	1	1	1	1	0	1	-34,883721	274,429584	286,709415	0
14.01.2021	20:52:27	0	0	3,84127	4,38375	94,392	0,508	78,332	3,5	1005,86	7	9,1	9	1	1	1	1	1	1	1	1	1	0	1	-36,222692	274,519358	285,791457	0
14.01.2021	20:52:28	0	0	3,05042	4,10925	104,4576	0,511	78,342	3,5	1005,96	7	9,2	9	1	1	1	1	1	1	1	1	1	0	1	-33,756166	274,373498	287,57415	0
14.01.2021	20:52:29	0	0	4,519141	4,0485	66,9204	0,507	78,355	3,5	1005,98	7	9,2	9	1	1	1	1	1	1	1	1	1	0	1	-33,967583	274,513258	288,017948	0
14.01.2021	20:52:30	0	0	2,824463	3,954	75,24	0,508	78,375	3,5	1005,9	7	9,1	9	1	1	1	1	1	1	1	1	1	0	1	-38,477801	274,534615	283,607941	0
14.01.2021	20:52:31	0	0	3,276377	4,13325	66,6324	0,512	78,372	3,5	1006,04	7	9,2	9	1	1	1	1	1	1	1	1	1	0	1	-38,336857	274,420478	283,213597	0
14.01.2021	20:52:32	0	0	3,05042	4,4655	72,3096	0,508	78,384	3,5	1006,02	7	9,2	9	1	1	1	1	1	1	1	1	1	0	1	-38,548273	274,554467	283,630643	0
14.01.2021	20:52:33	0	0	2,937442	5,10525	73,4112	0,508	78,371	3,5	1005,9	7	9,1	9	1	1	1	1	1	1	1	1	1	0	1	-37,77308	274,469094	284,005296	0
14.01.2021	20:52:34	0	0	4,519141	5,292	77,2236	0,53	78,377	3,5	1005,98	7	9,1	9	1	1	1	1	1	1	1	1	1	0	1	-35,51797	274,381068	285,847808	0
14.01.2021	20:52:35	0	0	2,937442	5,26275	75,2472	0,507	78,382	3,5	1005,9	7	9,1	9	1	1	1	1	1	1	1	1	1	0	1	-36,081748	274,432621	285,525621	0
14.01.2021	20:52:36	0	0	4,519141	5,43675	74,9484	0,51	78,381	3,5	1005,96	7	9,2	9	1	1	1	1	1	1	1	1	1	0	1	-32,276251	274,543775	289,852481	0
14.01.2021	20:52:37	0	0	4,858077	5,568	75,9888	0,511	78,382	3,5	1006,06	7	9,2	9	1	1	1	1	1	1	1	1	1	0	1	-35,658915	274,438695	285,976928	0
14.01.2021	20:52:38	0	0	5,084034	5,26575	80,5284	0,51	78,38	3,5	1005,72	7	9,1	9	1	1	1	1	1	1	1	1	1	0	1	-39,393939	274,534615	282,691803	0
14.01.2021	20:52:39	0	0	4,180206	5,33625	75,9744	0,513	78,362	3,5	1005,84	7	9,1	9	1	1	1	1	1	1	1	1	1	0	1	-33,756166	274,511733	288,222212	0
14.01.2021	20:52:40	0	0	2,372549	5,4555	75,6144	0,516	78,394	3,5	1005,92	7	9,2	9	1	1	1	1	1	1	1	1	1	0	1	-37,350247	274,559051	284,850188	0
14.01.2021	20:52:41	0	0	3,954249	5,53125	97,326	0,513	78,382	3,5	1006,1	7	9,1	9	1	1	1	1	1	1	1	1	1	0	1	-32,276251	274,452369	289,423698	0
14.01.2021	20:52:42	0	0	3,163399	5,049	79,128	0,517	78,386	3,5	1006,1	7	9,1	9	1	1	1	1	1	1	1	1	1	0	1	-33,54475	274,375012	287,792657	0
14.01.2021	20:52:43	0	0	4,971055	5,592	75,6252	0,517	78,378	3,5	1005,94	7	9,1	9	1	1	1	1	1	1	1	1	1	0	1	-36,011276	274,397732	285,432579	0
14.01.2021	20:52:44	0	0	3,615313	6,06675	54,7884	0,514	78,373	3,5	1005,96	7	9,2	9	1	1	1	1	1	1	1	1	1	0	1	-38,195913	274,411376	283,311883	0
14.01.2021	20:52:45	0	0	2,259571	6,67275	54,0972	0,515	78,388	3,5	1006,16	7	9,1	9	1	1	1	1	1	1	1	1	1	0	1	-36,293164	274,545302	285,842735	0
14.01.2021	20:52:46	0	0	4,180206	6,95625	68,4792	0,516	78,366	3,5	1006,02	7	9,1	9	1	1	1	1	1	1	1	1	1	0	1	-30,796335	274,456929	290,924994	0
14.01.2021	20:52:47	0	0	2,372549	6,45825	58,5108	0,515	78,373	3,5	1006,06	7	9,2	9	1	1	1	1	1	1	1	1	1	0	1	-35,16561	274,559051	287,034825	0
14.01.2021	20:52:48	0	0	3,05042	5,93025	63,1728	0,515	78,366	3,5	1006,08	7	9,1	9	1	1	1	1	1	1	1	1	1	0	1	-31,92389	274,444771	289,740438	0
14.01.2021	20:52:49	0	0	4,745098	5,5935	77,9796	0,514	78,351	3,5	1006,02	7	9,2	9	1	1	1	1	1	1	1	1	1	0	1	-33,897111	274,37804	287,454481	0
14.01.2021	20:52:50	0	0	3,615313	5,50125	66,222	0,514	78,349	3,5	1006,1	7	9,1	9	1	1	1	1	1	1	1	1	1	0	1	-32,628612	274,499541	289,292568	0
14.01.2021	20:52:51	0	0	4,971055	5,094	79,416	0,515	78,326	3,5	1006,18	7	9,2	9	1	1	1	1	1	1	1	1	1	0	1	-31,501057	274,385611	289,886007	0
14.01.2021	20:52:52	0	0	4,067227	5,08725	88,6068	0,507	78,332	3,5	1006	7	9,2	9	1	1	1	1	1	1	1	1	1	0	1	-34,460888	274,50716	287,496035	0
14.01.2021	20:52:53	0	0	2,146592	5,178	92,6604	0,517	78,348	3,5	1005,72	7	9,1	9	1	1	1	1	1	1	1	1	1	0	1	-34,883721	274,402279	286,581441	0
14.01.2021	20:52:54	0	0	3,163399	5,7915	89,334	0,518	78,322	3,5	1005,98	7	9,1	9	1	1	1	1	1	1	1	1	1	0	1	-37,491191	274,504112	284,451433	0
14.01.2021	20:52:55	0	0	4,745098	5,619	84,0456	0,514	78,337	3,5	1006,04	7	9,1	9	1	1	1	1	1	1	1	1	1	0	1	-36,645525	274,578929	285,648227	0
14.01.2021	20:52:56	0	0	4,519141	5,7615	80,1468	0,519	78,357	3,5	1006,06	7	9,1	9	1	1	1	1	1	1	1	1	1	0	1	-38,900634	274,487357	282,963391	0
14.01.2021	20:52:57	0	0	2,824463	5,8005	82,4436	0,52	78,37	3,5	1006,04	7	9,2	9	1	1	1	1	1	1	1	1	1	0	1	-35,024665	274,566694	287,211647	0
14.01.2021	20:52:58	0	0	2,485528	5,53875	82,9872	0,517	78,394	3,5	1006,12	7	9,2	9	1	1	1	1	1	1	1	1	1	0	1	-30,866808	274,423513	290,697871	0
14.01.2021	20:52:59	0	0	5,084034	5,15325	90,7668	0,51	78,373	3,5	1005,92	7	9,2	9	1	1	1	1	1	1	1	1	1	0	1	-37,13883	274,555995	285,047258	0
14.01.2021	20:53:00	0	0	2,711485	4,66125	85,1652	0,524	78,401	3,5	1006,12	7	9,1	9	1	1	1	1	1	1	1	1	1	0	1	-36,011276	274,44781	285,667298	0
14.01.2021	20:53:01	0	0	2,711485	4,66125	85,1652	0,524	78,401	3,5	1006,12	7	9,1	9	1	1	1	1	1	1	1	1	1	0	1	-36,011276	274,44781	285,667298	0
14.01.2021	20:53:02	0	0	4,745098	4,62	82,62	0,513	78,407	3,5	1006,02	7	9,1	9	1	1	1	1	1	1	1	1	1	0	1	-37,068358	274,583519	285,246945	0
14.01.2021	20:53:03	0	0	4,858077	4,5915	80,1324	0,519	78,405	3,5	1006,2	7	9,1	9	1	1	1	1	1	1	1	1	1	0	1	-35,799859	274,543775	286,328872	0
14.01.2021	20:53:04	0	0	2,485528	4,6155	88,5636	0,517	78,397	3,5	1005,98	7	9,1	9	1	1	1	1	1	1	1	1	1	0	1	-34,742777	274,585049	287,579711	0
14.01.2021	20:53:05	0	0	4,293184	4,56525	79,7544	0,518	78,403	3,5	1005,98	7	9,1	9	1	1	1	1	1	1	1	1	1	0	1	-36,645525	274,482789	285,197078	0
14.01.2021	20:53:06	0	0	2,711485	4,506	84,7836	0,516	78,399	3,5	1006	7	9,2	9	1	1	1	1	1	1	1	1	1	0	1	-36,222692	274,585049	286,099796	0
14.01.2021	20:53:07	0	0	4,406163	4,467	66,2364	0,522	78,405	3,5	1005,98	7	9	9	1	1	1	1	1	1	1	1	1	0	1	-36,645525	274,469094	285,13285	0
14.01.2021	20:53:08	0	0	3,05042	4,413	75,2148	0,525	78,39	3,5	1006	7	9,2	9	1	1	1	1	1	1	1	1	1	0	1	-34,249471	274,420478	287,300982	0
14.01.2021	20:53:09	0	0	4,406163	4,476	74,5488	0,525	78,38	3,5	1005,86	7	9,1	9	1	1	1	1	1	1	1	1	1	0	1	-36,363636	274,432621	285,243733	0
14.01.2021	20:53:10	0	0	4,180206	4,3485	71,244	0,519	78,389	3,5	1006,04	7	9,2	9	1	1	1	1	1	1	1	1	1	0	1	-35,588443	274,592702	286,769981	0
14.01.2021	20:53:11	0	0	4,293184	4,3185	69,1632	0,523	78,386	3,5	1006,04	7	9	9	1	1	1	1	1	1	1	1	1	0	1	-36,715997	274,539194	285,391237	0
14.01.2021	20:53:12	0	0	3,84127	4,2	67,6764	0,528	78,382	3,5	1006,02	7	9,2	9	1	1	1	1	1	1	1	1	1	0	1	-36,222692	274,571281	286,035155	0
14.01.2021	20:53:13	0	0	3,05042	4,27725	70,2288	0,531	78,37	3,5	1006,08	7	9,2	9	1	1	1	1	1	1	1	1	1	0	1	-34,883721	274,411376	286,624075	0
14.01.2021	20:53:14	0	0	3,05042	4,3635	58,4676	0,522	78,368	3,5	1006,04	7	9,1	9	1	1	1	1	1	1	1	1	1	0	1	-35,51797	274,455409	286,196232	0
14.01.2021	20:53:15	0	0	4,293184	4,293	57,5064	0,527	78,349	3,5	1005,98	7	9,2	9	1	1	1	1	1	1	1	1	1	0	1	-34,813249	274,426549	286,765657	0
14.01.2021	20:53:16	0	0	3,05042	3,795	85,518	0,531	78,352	3,5	1006,22	7	9,1	9	1	1	1	1	1	1	1	1	1	0	1	-33,756166	274,455409	287,958036	0
14.01.2021	20:53:17	0	0	2,711485	3,29775	47,3796	0,526	78,317	3,5	1005,88	7	9,1	9	1	1	1	1	1	1	1	1	1	0	1	-35,729387	274,594233	286,636226	0
14.01.2021	20:53:18	0	0	4,745098	3,117	70,848	0,525	78,322	3,5	1006,02	7	9,2	9	1	1	1	1	1	1	1	1	1	0	1	-33,121917	274,545302	289,013982	0
14.01.2021	20:53:19	0	0	4,406163	3,07875	76,8024	0,53	78,311	3,5	1006,06	7	9,1	9	1	1	1	1	1	1	1	1	1	0	1	-35,870331	274,608018	286,560016	0
14.01.2021	20:53:20	0	0	4,745098	3,19875	68,7996	0,531	78,296	3,5	1006,16	7	9,2	9	1	1	1	1	1	1	1	1	1	0	1	-34,249471	274,493448	287,643125	0
14.01.2021	20:53:21	0	0	4,180206	3,5205	99,1404	0,529	78,297	3,5	1006,06	7	9,1	9	1	1	1	1	1	1	1	1	1	0	1	-35,447498	274,425031	286,124294	0
14.01.2021	20:53:22	0	0	5,197012	3,71625	97,7364	0,53	78,287	3,5	1005,98	7	9,1	9	1	1	1	1	1	1	1	1	1	0	1	-34,742777	274,548357	287,407459	0
14.01.2021	20:53:23	0	0	3,84127	3,59175	86,274	0,529	78,296	3,5	1006	7	9,1	9	1	1	1	1	1	1	1	1	1	0	1	-33,121917	274,554467	289,057	0
14.01.2021	20:53:24	0	0	4,293184	3,59925	94,3848	0,532	78,274	3,5	1006,16	7	9,1	9	1	1	1	1	1	1	1	1	1	0	1	-37,420719	274,566694	284,815593	0
14.01.2021	20:53:25	0	0	2,824463	3,66675	100,3788	0,536	78,277	3,5	1006,24	7	9,1	9	1	1	1	1	1	1	1	1	1	0	1	-38,477801	274,60189	283,923769	0
14.01.2021	20:53:26	0	0	2,711485	3,58275	94,3992	0,53	78,248	3,5	1006,24	7	9,1	9	1	1	1	1	1	1	1	1	1	0	1	-34,249471	274,470615	287,536037	0
14.01.2021	20:53:27	0	0	3,84127	3,40575	88,092	0,531	78,241	3,5	1005,94	7	9,1	9	1	1	1	1	1	1	1	1	1	0	1	-33,967583	274,438695	287,66826	0
14.01.2021	20:53:28	0	0	5,084034	3,42075	95,1048	0,535	78,24	3,5	1006,08	7	9,2	9	1	1	1	1	1	1	1	1	1	0	1	-35,377026	274,519358	286,637123	0
14.01.2021	20:53:29	0	0	3,502334	3,5355	87,7284	0,536	78,231	3,5	1006,06	7,1	9,2	9	1	1	1	1	1	1	1	1	1	0	1	-31,712474	274,597296	290,66752	0
14.01.2021	20:53:30	0	0	2,598506	3,6645	94,104	0,536	78,221	3,5	1006,08	7,1	9,2	9	1	1	1	1	1	1	1	1	1	0	1	-35,095137	274,543775	287,033594	0
14.01.2021	20:53:31	0	0	4,858077	3,56475	85,176	0,536	78,216	3,5	1006,14	7	9,2	9	1	1	1	1	1	1	1	1	1	0	1	-33,897111	274,598827	288,490074	0
14.01.2021	20:53:32	0	0	4,406163	3,37275	86,2704	0,535	78,181	3,5	1005,84	7,1	9,2	9	1	1	1	1	1	1	1	1	1	0	1	-35,588443	274,519358	286,425706	0
14.01.2021	20:53:33	0	0	4,180206	3,1935	67,3596	0,534	78,194	3,5	1006,02	7	9,2	9	1	1	1	1	1	1	1	1	1	0	1	-33,121917	274,612615	289,330021	0
14.01.2021	20:53:34	0	0	4,180206	3,11325	71,2224	0,537	78,181	3,5	1006,14	7	9,1	9	1	1	1	1	1	1	1	1	1	0	1	-36,856942	274,517833	285,150052	0
14.01.2021	20:53:35	0	0	4,293184	3,16575	71,6148	0,536	78,163	3,5	1006,08	7,1	9,2	9	1	1	1	1	1	1	1	1	1	0	1	-33,54475	274,44629	288,126701	0
14.01.2021	20:53:36	0	0	3,05042	3,59925	75,24	0,542	78,167	3,5	1006,06	7,1	9,2	9	1	1	1	1	1	1	1	1	1	0	1	-31,782946	274,440214	289,860017	0
14.01.2021	20:53:37	0	0	4,858077	3,795	70,9524	0,535	78,136	3,5	1006,04	7	9,2	9	1	1	1	1	1	1	1	1	1	0	1	-37,491191	274,57587	284,788197	0
14.01.2021	20:53:38	0	0	3,276377	3,7905	63,1764	0,536	78,143	3,5	1006,06	7,1	9,2	9	1	1	1	1	1	1	1	1	1	0	1	-37,209302	274,438695	284,426541	0
14.01.2021	20:53:39	0	0	2,598506	3,8325	70,614	0,537	78,121	3,5	1005,94	7	9,2	9	1	1	1	1	1	1	1	1	1	0	1	-38,336857	274,46301	283,41299	0
14.01.2021	20:53:40	0	0	4,067227	4,3515	72,666	0,537	78,123	3,5	1006,16	7	9,1	9	1	1	1	1	1	1	1	1	1	0	1	-39,112051	274,598827	283,275134	0
14.01.2021	20:53:41	0	0	3,615313	4,3005	71,5896	0,537	78,122	3,5	1005,92	7	9,2	9	1	1	1	1	1	1	1	1	1	0	1	-35,588443	274,44781	286,090131	0
14.01.2021	20:53:42	0	0	4,63212	4,479	62,4276	0,541	78,134	3,5	1006,16	7	9,2	9	1	1	1	1	1	1	1	1	1	0	1	-33,403805	274,60189	288,997764	0
14.01.2021	20:53:43	0	0	3,163399	4,73025	68,0004	0,535	78,125	3,5	1006,02	7	9,1	9	1	1	1	1	1	1	1	1	1	0	1	-34,178999	274,434139	287,435487	0
14.01.2021	20:53:44	0	0	3,954249	4,65975	71,9892	0,539	78,132	3,5	1006,06	7,1	9,2	9	1	1	1	1	1	1	1	1	1	0	1	-35,729387	274,438695	285,906456	0
14.01.2021	20:53:45	0	0	3,502334	4,96275	76,356	0,538	78,143	3,5	1006,04	7,1	9,2	9	1	1	1	1	1	1	1	1	1	0	1	-31,712474	274,481267	290,122991	0
14.01.2021	20:53:46	0	0	3,502334	4,794	73,782	0,54	78,155	3,5	1006,12	7	9,1	9	1	1	1	1	1	1	1	1	1	0	1	-30,93728	274,595765	291,435523	0
14.01.2021	20:53:47	0	0	4,519141	4,785	71,6076	0,544	78,156	3,5	1005,94	7,1	9,1	9	1	1	1	1	1	1	1	1	1	0	1	-36,856942	274,504112	285,085682	0
14.01.2021	20:53:48	0	0	4,293184	4,90725	76,0644	0,536	78,182	3,5	1006,04	7	9,1	9	1	1	1	1	1	1	1	1	1	0	1	-36,222692	274,589641	286,121356	0
14.01.2021	20:53:49	0	0	4,745098	4,746	80,8956	0,542	78,169	3,5	1005,98	7	9,2	9	1	1	1	1	1	1	1	1	1	0	1	-39,887245	274,559051	282,31319	0
14.01.2021	20:53:50	0	0	4,293184	4,806	87,7356	0,542	78,174	3,5	1005,9	7	9,1	9	1	1	1	1	1	1	1	1	1	0	1	-35,588443	274,600359	286,805935	0
14.01.2021	20:53:51	0	0	3,84127	4,94775	74,1492	0,538	78,196	3,5	1006,02	7,1	9,1	9	1	1	1	1	1	1	1	1	1	0	1	-37,702607	274,536141	284,390298	0
14.01.2021	20:53:52	0	0	2,824463	5,10075	61,6896	0,542	78,192	3,5	1006,06	7,1	9,1	9	1	1	1	1	1	1	1	1	1	0	1	-38,689218	274,621812	283,80592	0
14.01.2021	20:53:53	0	0	4,293184	5,3085	74,1528	0,54	78,192	3,5	1005,98	7,1	9,2	9	1	1	1	1	1	1	1	1	1	0	1	-34,672304	274,580459	287,62863	0
14.01.2021	20:53:54	0	0	4,63212	5,298	87,3468	0,542	78,189	3,5	1006,12	7,1	9,2	9	1	1	1	1	1	1	1	1	1	0	1	-36,786469	274,565165	285,442666	0
14.01.2021	20:53:55	0	0	2,711485	5,01	85,2012	0,551	78,202	3,5	1006,12	7	9,2	9	1	1	1	1	1	1	1	1	1	0	1	-36,715997	274,600359	285,67838	0
14.01.2021	20:53:56	0	0	2,598506	5,1495	73,8576	0,545	78,202	3,5	1005,98	7,1	9,2	9	1	1	1	1	1	1	1	1	1	0	1	-34,249471	274,571281	288,008375	0
14.01.2021	20:53:57	0	0	3,389356	5,14125	90,4104	0,546	78,194	3,5	1005,86	7	9,2	9	1	1	1	1	1	1	1	1	1	0	1	-37,914024	274,508685	284,05005	0
14.01.2021	20:53:58	0	0	4,63212	4,60725	60,5484	0,55	78,195	3,5	1005,9	7,1	9,2	9	1	1	1	1	1	1	1	1	1	0	1	-35,16561	274,458449	286,562848	0
14.01.2021	20:53:59	0	0	4,406163	4,356	80,1432	0,541	78,198	3,5	1006,06	7,1	9,1	9	1	1	1	1	1	1	1	1	1	0	1	-37,843552	274,568223	284,399938	0
14.01.2021	20:54:00	0	0	2,485528	4,62075	73,8072	0,55	78,171	3,5	1006,12	7,1	9,2	9	1	1	1	1	1	1	1	1	1	0	1	-37,13883	274,554467	285,040086	0
14.01.2021	20:54:01	0	0	2,485528	4,62075	73,8072	0,55	78,171	3,5	1006,12	7,1	9,2	9	1	1	1	1	1	1	1	1	1	0	1	-37,13883	274,554467	285,040086	0
14.01.2021	20:54:02	0	0	3,954249	4,863	69,1596	0,547	78,182	3,5	1006,14	7,1	9,1	9	1	1	1	1	1	1	1	1	1	0	1	-34,038055	274,617213	288,43548	0
14.01.2021	20:54:03	0	0	5,535948	4,80075	63,4932	0,549	78,162	3,5	1006,04	7	9,2	9	1	1	1	1	1	1	1	1	1	0	1	-39,534884	274,50716	282,42204	0
14.01.2021	20:54:04	0	0	4,63212	4,5645	73,4508	0,554	78,177	3,5	1006,08	7,1	9,1	9	1	1	1	1	1	1	1	1	1	0	1	-34,108527	274,438695	287,527316	0
14.01.2021	20:54:05	0	0	2,485528	4,55925	75,6288	0,552	78,136	3,5	1006,12	7,1	9,2	9	1	1	1	1	1	1	1	1	1	0	1	-33,685694	274,563637	288,536265	0
14.01.2021	20:54:06	0	0	3,276377	4,473	68,4144	0,551	78,132	3,5	1006,12	7,1	9,1	9	1	1	1	1	1	1	1	1	1	0	1	-40,098661	274,626412	282,418086	0
14.01.2021	20:54:07	0	0	5,084034	4,43925	70,2288	0,553	78,118	3,5	1006,16	7,1	9,2	9	1	1	1	1	1	1	1	1	1	0	1	-34,460888	274,531562	287,61053	0
14.01.2021	20:54:08	0	0	2,485528	4,554	68,022	0,548	78,106	3,5	1006,1	7,1	9,2	9	1	1	1	1	1	1	1	1	1	0	1	-36,434109	274,441733	285,215975	0
14.01.2021	20:54:09	0	0	2,711485	4,647	78,2856	0,547	78,08	3,5	1005,94	7,1	9,1	9	1	1	1	1	1	1	1	1	1	0	1	-33,54475	274,510209	288,426476	0
14.01.2021	20:54:10	0	0	3,389356	4,359	66,6396	0,547	78,08	3,5	1006,06	7,1	9,2	9	1	1	1	1	1	1	1	1	1	0	1	-36,222692	274,632547	286,322877	0
14.01.2021	20:54:11	0	0	3,502334	4,5465	54,5796	0,555	78,065	3,5	1006	7	9,2	9	1	1	1	1	1	1	1	1	1	0	1	-36,504581	274,565165	285,724555	0
14.01.2021	20:54:12	0	0	3,615313	4,27725	58,4892	0,554	78,073	3,5	1006,12	7,1	9,2	9	1	1	1	1	1	1	1	1	1	0	1	-35,870331	274,632547	286,675238	0
14.01.2021	20:54:13	0	0	5,084034	4,107	49,554	0,555	78,046	3,5	1006,18	7,1	9,2	9	1	1	1	1	1	1	1	1	1	0	1	-36,715997	274,525459	285,326781	0
14.01.2021	20:54:14	0	0	4,519141	4,173	35,082	0,559	78,04	3,5	1006,04	7,1	9,2	9	1	1	1	1	1	1	1	1	1	0	1	-34,038055	274,626412	288,478692	0
14.01.2021	20:54:15	0	0	4,745098	4,176	33,9768	0,56	78,051	3,5	1006,22	7,1	9,2	9	1	1	1	1	1	1	1	1	1	0	1	-36,504581	274,627946	286,019371	0
14.01.2021	20:54:16	0	0	3,954249	4,068	16,4952	0,56	78,024	3,5	1005,96	7,1	9,1	9	1	1	1	1	1	1	1	1	1	0	1	-33,403805	274,488879	288,467362	0
14.01.2021	20:54:17	0	0	4,067227	3,8445	20,6388	0,55	78,016	3,5	1005,96	7,1	9,2	9	1	1	1	1	1	1	1	1	1	0	1	-33,897111	274,57587	288,382277	0
14.01.2021	20:54:18	0	0	3,276377	3,45	39,5604	0,563	78,023	3,5	1006,2	7,1	9,2	9	1	1	1	1	1	1	1	1	1	0	1	-32,135307	274,449329	289,550392	0
14.01.2021	20:54:19	0	0	4,519141	3,17925	46,9908	0,552	78,012	3,5	1006,04	7,1	9,2	9	1	1	1	1	1	1	1	1	1	0	1	-34,742777	274,467573	287,028465	0
14.01.2021	20:54:20	0	0	2,711485	3,0795	52,1244	0,559	78,006	3,5	1005,98	7,1	9,1	9	1	1	1	1	1	1	1	1	1	0	1	-34,319944	274,504112	287,62268	0
14.01.2021	20:54:21	0	0	2,82448	3,03825	37,6704	0,557	78,002	3,5	1006,02	7,1	9,2	8,9	1	1	1	1	1	1	1	1	1	0	1	-32,769556	274,634082	289,78322	0
14.01.2021	20:54:22	0	0	2,937442	3,0645	58,8744	0,565	77,985	3,5	1005,96	7,1	9,2	9	1	1	1	1	1	1	1	1	1	0	1	-32,55814	274,572811	289,706887	0
14.01.2021	20:54:23	0	0	2,824463	2,95725	58,8744	0,568	77,982	3,5	1006,14	7,1	9,1	9	1	1	1	1	1	1	1	1	1	0	1	-35,024665	274,654036	287,621868	0
14.01.2021	20:54:24	0	0	2,937442	2,94975	76,8348	0,565	77,97	3,5	1005,98	7,1	9,1	9	1	1	1	1	1	1	1	1	1	0	1	-36,363636	274,557523	285,829625	0
14.01.2021	20:54:25	0	0	2,711485	2,802	63,5868	0,56	77,944	3,5	1005,92	7,1	9,1	9	1	1	1	1	1	1	1	1	1	0	1	-35,447498	274,473658	286,35228	0
14.01.2021	20:54:26	0	0	4,519141	2,937	71,2584	0,563	77,952	3,5	1006,12	7,1	9,1	9	1	1	1	1	1	1	1	1	1	0	1	-36,222692	274,514783	285,769992	0
14.01.2021	20:54:27	0	0	2,598506	2,754	79,4232	0,565	77,918	3,5	1005,98	7,1	9,1	9	1	1	1	1	1	1	1	1	1	0	1	-37,350247	274,631013	285,188116	0
14.01.2021	20:54:28	0	0	2,824463	2,445	98,442	0,563	77,921	3,5	1006,06	7,1	9,2	9	1	1	1	1	1	1	1	1	1	0	1	-35,940803	274,568223	286,302686	0
14.01.2021	20:54:29	0	0	2,372549	2,10225	75,2508	0,57	77,922	3,5	1006,02	7,1	9,1	9	1	1	1	1	1	1	1	1	1	0	1	-37,77308	274,654036	284,873454	0
14.01.2021	20:54:30	0	0	3,728292	2,08725	85,9176	0,566	77,903	3,5	1006,1	7,1	9,1	9	1	1	1	1	1	1	1	1	1	0	1	-31,853418	274,594233	290,512195	0
14.01.2021	20:54:31	0	0	2,598506	2,5335	55,1808	0,564	77,894	3,5	1006,12	7,1	9,1	9	1	1	1	1	1	1	1	1	1	0	1	-38,689218	274,641754	283,899605	0
14.01.2021	20:54:32	0	0	4,406163	3,10125	62,802	0,57	77,871	3,5	1006,06	7,1	9,2	9	1	1	1	1	1	1	1	1	1	0	1	-35,799859	274,530036	286,264398	0
14.01.2021	20:54:33	0	0	3,502355	3,17175	81,2052	0,568	77,872	3,5	1006,02	7,1	9,1	8,9	1	1	1	1	1	1	1	1	1	0	1	-35,236082	274,626412	287,280665	0
14.01.2021	20:54:34	0	0	4,180206	3,204	87,7464	0,57	77,86	3,5	1006,18	7,1	9,1	9	1	1	1	1	1	1	1	1	1	0	1	-38,407329	274,611082	284,037411	0
14.01.2021	20:54:35	0	0	3,954249	3,20925	94,7628	0,564	77,833	3,5	1005,92	7,1	9,1	9	1	1	1	1	1	1	1	1	1	0	1	-31,712474	274,511733	290,265904	0
14.01.2021	20:54:36	0	0	2,711485	3,339	87,84	0,569	77,822	3,5	1006,14	7,1	9,1	9	1	1	1	1	1	1	1	1	1	0	1	-33,685694	274,496494	288,221193	0
14.01.2021	20:54:37	0	0	3,728292	3,49275	89,3232	0,568	77,836	3,5	1005,94	7,1	9,1	9	1	1	1	1	1	1	1	1	1	0	1	-30,232558	274,513258	291,752973	0
14.01.2021	20:54:38	0	0	2,598506	3,62175	82,35	0,566	77,806	3,5	1006,12	7,1	9,2	9	1	1	1	1	1	1	1	1	1	0	1	-38,548273	274,661717	284,134351	0
14.01.2021	20:54:39	0	0	3,389356	3,3165	98,4636	0,565	77,816	3,5	1006,06	7,1	9,1	9	1	1	1	1	1	1	1	1	1	0	1	-33,474278	274,50716	288,482646	0
14.01.2021	20:54:40	0	0	4,971055	3,04425	96,984	0,568	77,807	3,5	1006,06	7,1	9,2	9	1	1	1	1	1	1	1	1	1	0	1	-31,571529	274,479745	290,256796	0
14.01.2021	20:54:41	0	0	4,858077	3,108	83,3364	0,565	77,783	3,5	1005,92	7,1	9,1	9	1	1	1	1	1	1	1	1	1	0	1	-32,840028	274,624879	289,669515	0
14.01.2021	20:54:42	0	0	4,971055	3,1245	88,11	0,571	77,786	3,5	1006,1	7,1	9,2	9	1	1	1	1	1	1	1	1	1	0	1	-35,588443	274,60955	286,849101	0
14.01.2021	20:54:43	0	0	4,632148	3,15075	109,2096	0,568	77,779	3,5	1006,1	7,1	9,2	8,9	1	1	1	1	1	1	1	1	1	0	1	-32,769556	274,661717	289,913069	0
14.01.2021	20:54:44	0	0	2,598506	2,75175	122,7168	0,572	77,761	3,5	1006,08	7,1	9,1	9	1	1	1	1	1	1	1	1	1	0	1	-33,615222	274,652501	289,024095	0
14.01.2021	20:54:45	0	0	2,372549	2,229	80,5176	0,563	77,75	3,5	1005,92	7,1	9,1	9	1	1	1	1	1	1	1	1	1	0	1	-33,262861	274,499541	288,658318	0
14.01.2021	20:54:46	0	0	2,598506	2,1765	101,8404	0,573	77,76	3,5	1006,06	7,1	9,2	9	1	1	1	1	1	1	1	1	1	0	1	-33,474278	274,660181	289,201127	0
14.01.2021	20:54:47	0	0	2,824463	2,25225	66,222	0,573	77,721	3,5	1005,96	7,1	9,2	9	1	1	1	1	1	1	1	1	1	0	1	-35,16561	274,520883	286,855696	0
14.01.2021	20:54:48	0	0	3,05042	2,60175	74,1708	0,573	77,739	3,5	1005,98	7,1	9,1	9	1	1	1	1	1	1	1	1	1	0	1	-36,081748	274,490402	285,796562	0
14.01.2021	20:54:49	0	0	3,728292	2,6535	80,514	0,573	77,737	3,5	1006,02	7,1	9,2	9	1	1	1	1	1	1	1	1	1	0	1	-33,756166	274,540721	288,358233	0
14.01.2021	20:54:50	0	0	3,163399	2,5845	78,3	0,575	77,714	3,5	1006,18	7,1	9,1	9	1	1	1	1	1	1	1	1	1	0	1	-35,306554	274,469094	286,471821	0
14.01.2021	20:54:51	0	0	4,293184	2,9235	82,3644	0,574	77,724	3,5	1006,08	7,1	9,1	9	1	1	1	1	1	1	1	1	1	0	1	-33,967583	274,552939	288,204162	0
14.01.2021	20:54:52	0	0	4,406163	3,10575	78,2856	0,577	77,702	3,5	1005,96	7,1	9,1	9	1	1	1	1	1	1	1	1	1	0	1	-33,756166	274,658644	288,91202	0
14.01.2021	20:54:53	0	0	3,389376	3,291	80,1756	0,573	77,696	3,5	1005,94	7,1	9,1	8,9	1	1	1	1	1	1	1	1	1	0	1	-34,108527	274,583519	288,206776	0
14.01.2021	20:54:54	0	0	2,82448	3,6435	76,374	0,576	77,696	3,5	1006,1	7,1	9,1	8,9	1	1	1	1	1	1	1	1	1	0	1	-38,548273	274,655572	284,105477	0
14.01.2021	20:54:55	0	0	3,050439	3,315	94,356	0,578	77,691	3,5	1006,02	7,1	9,1	8,9	1	1	1	1	1	1	1	1	1	0	1	-33,967583	274,63715	288,59961	0
14.01.2021	20:54:56	0	0	2,937442	2,8155	103,3092	0,574	77,662	3,5	1006,08	7,1	9,2	9	1	1	1	1	1	1	1	1	1	0	1	-34,813249	274,514783	287,179435	0
14.01.2021	20:54:57	0	0	3,615313	2,60625	89,7084	0,576	77,664	3,5	1006,14	7,1	9,1	9	1	1	1	1	1	1	1	1	1	0	1	-33,685694	274,63715	288,881499	0
14.01.2021	20:54:58	0	0	4,63212	2,44725	95,8428	0,574	77,656	3,5	1006,14	7,1	9,1	9	1	1	1	1	1	1	1	1	1	0	1	-37,350247	274,608018	285,080101	0
14.01.2021	20:54:59	0	0	2,598522	2,259	86,6772	0,578	77,662	3,5	1006,1	7,1	9,1	8,9	1	1	1	1	1	1	1	1	1	0	1	-34,672304	274,499541	287,248875	0
14.01.2021	20:55:00	0	0	3,954272	2,5155	89,7516	0,575	77,646	3,5	1006,04	7,1	9,2	8,9	1	1	1	1	1	1	1	1	1	0	1	-34,601832	274,657108	288,059136	0
14.01.2021	20:55:01	0	0	4,519141	2,595	90,7632	0,572	77,634	3,5	1005,94	7,1	9,2	9	1	1	1	1	1	1	1	1	1	0	1	-34,672304	274,63715	287,894888	0
14.01.2021	20:55:02	0	0	4,519141	2,595	90,7632	0,572	77,634	3,5	1005,94	7,1	9,2	9	1	1	1	1	1	1	1	1	1	0	1	-34,672304	274,63715	287,894888	0
14.01.2021	20:55:03	0	0	4,745098	2,9385	109,9764	0,577	77,625	3,5	1006,12	7,1	9,1	9	1	1	1	1	1	1	1	1	1	0	1	-35,377026	274,554467	286,801891	0
14.01.2021	20:55:04	0	0	3,615313	3,01125	74,1744	0,574	77,626	3,5	1006,12	7,1	9,1	9	1	1	1	1	1	1	1	1	1	0	1	-33,826638	274,658644	288,841548	0
14.01.2021	20:55:05	0	0	4,519141	3,0945	91,1412	0,573	77,601	3,5	1005,96	7,1	9,2	9	1	1	1	1	1	1	1	1	1	0	1	-34,249471	274,581989	288,058647	0
14.01.2021	20:55:06	0	0	3,276377	3,5865	75,6036	0,574	77,624	3,5	1006,06	7,1	9,2	9	1	1	1	1	1	1	1	1	1	0	1	-34,883721	274,643289	287,712313	0
14.01.2021	20:55:07	0	0	3,05042	3,81525	79,0488	0,577	77,604	3,5	1006,06	7,1	9,1	9	1	1	1	1	1	1	1	1	1	0	1	-35,236082	274,508685	286,727992	0
14.01.2021	20:55:08	0	0	2,485528	3,807	77,2128	0,576	77,6	3,5	1006,16	7,1	9,1	9	1	1	1	1	1	1	1	1	1	0	1	-35,16561	274,490402	286,7127	0
14.01.2021	20:55:09	0	0	3,728292	4,347	77,976	0,577	77,594	3,5	1006,08	7,1	9,1	9	1	1	1	1	1	1	1	1	1	0	1	-34,601832	274,537668	287,498237	0
14.01.2021	20:55:10	0	0	4,180231	4,632	68,7708	0,581	77,594	3,5	1006,12	7,1	9,1	8,9	1	1	1	1	1	1	1	1	1	0	1	-31,289641	274,644824	291,313606	0
14.01.2021	20:55:11	0	0	4,519141	5,8785	62,4024	0,571	77,593	3,5	1006	7,1	9,1	9	1	1	1	1	1	1	1	1	1	0	1	-30,725863	274,552939	291,445882	0
14.01.2021	20:55:12	0	0	4,63212	6,74775	73,062	0,58	77,59	3,5	1006,18	7,1	9,2	9	1	1	1	1	1	1	1	1	1	0	1	-32,55814	274,490402	289,32017	0
14.01.2021	20:55:13	0	0	3,954272	6,2205	84,762	0,58	77,579	3,5	1006,26	7,1	9,1	8,9	1	1	1	1	1	1	1	1	1	0	1	-35,658915	274,552939	286,51283	0
14.01.2021	20:55:14	0	0	3,502334	6,05475	98,7624	0,573	77,598	3,5	1006,24	7,1	9,1	9	1	1	1	1	1	1	1	1	1	0	1	-37,491191	274,663253	285,198654	0
14.01.2021	20:55:15	0	0	3,05042	5,6025	97,7184	0,582	77,608	3,5	1006,18	7,1	9,1	9	1	1	1	1	1	1	1	1	1	0	1	-36,081748	274,578929	286,212004	0
14.01.2021	20:55:16	0	0	5,197012	5,37525	95,526	0,578	77,604	3,5	1006,12	7,1	9,1	9	1	1	1	1	1	1	1	1	1	0	1	-34,53136	274,627946	287,992591	0
14.01.2021	20:55:17	0	0	4,067227	5,36925	95,8464	0,572	77,599	3,5	1006,08	7,1	9,1	9	1	1	1	1	1	1	1	1	1	0	1	-33,685694	274,510209	288,285532	0
14.01.2021	20:55:18	0	0	4,519141	6,078	92,9772	0,57	77,597	3,5	1006,04	7,1	9,1	9	1	1	1	1	1	1	1	1	1	0	1	-33,756166	274,591172	288,595069	0
14.01.2021	20:55:19	0	0	2,937442	5,934	89,424	0,581	77,602	3,5	1006,22	7,1	9,1	9	1	1	1	1	1	1	1	1	1	0	1	-32,628612	274,490402	289,249698	0
14.01.2021	20:55:20	0	0	2,711485	5,661	86,3532	0,575	77,592	3,5	1005,96	7,1	9,1	9	1	1	1	1	1	1	1	1	1	0	1	-31,148696	274,514783	290,843988	0
14.01.2021	20:55:21	0	0	4,63212	5,61675	81,954	0,581	77,571	3,5	1006,08	7,1	9,1	9	1	1	1	1	1	1	1	1	1	0	1	-29,739253	274,638685	292,835149	0
14.01.2021	20:55:22	0	0	4,519168	5,16825	82,3644	0,579	77,581	3,5	1006,14	7,1	9,1	8,9	1	1	1	1	1	1	1	1	1	0	1	-32,276251	274,589641	290,067797	0
14.01.2021	20:55:23	0	0	4,180206	4,5945	69,1704	0,585	77,584	3,5	1006,06	7,1	9,1	9	1	1	1	1	1	1	1	1	1	0	1	-32,417195	274,472137	289,375448	0
14.01.2021	20:55:24	0	0	3,050439	4,47225	78,2892	0,58	77,569	3,5	1005,94	7,1	9,2	8,9	1	1	1	1	1	1	1	1	1	0	1	-34,883721	274,594233	287,481892	0
14.01.2021	20:55:25	0	0	3,728314	4,2285	87,3612	0,581	77,584	3,5	1006,24	7,1	9,1	8,9	1	1	1	1	1	1	1	1	1	0	1	-34,460888	274,472137	287,331755	0
14.01.2021	20:55:26	0	0	2,82448	4,42575	78,2964	0,581	77,585	3,5	1006	7,1	9,1	8,9	1	1	1	1	1	1	1	1	1	0	1	-32,276251	274,63715	290,290942	0
14.01.2021	20:55:27	0	0	3,05042	4,33125	69,8472	0,579	77,565	3,5	1005,92	7,1	9,1	9	1	1	1	1	1	1	1	1	1	0	1	-36,927414	274,569752	285,323254	0
14.01.2021	20:55:28	0	0	3,05042	3,909	77,598	0,58	77,558	3,5	1006,14	7,1	9,1	9	1	1	1	1	1	1	1	1	1	0	1	-36,645525	274,638685	285,928877	0
14.01.2021	20:55:29	0	0	4,180231	3,75	85,5216	0,582	77,562	3,5	1006,06	7,1	9,1	8,9	1	1	1	1	1	1	1	1	1	0	1	-36,011276	274,597296	286,368718	0
14.01.2021	20:55:30	0	0	4,63212	3,84675	98,7408	0,582	77,547	3,5	1006,1	7,1	9,1	9	1	1	1	1	1	1	1	1	1	0	1	-33,121917	274,640219	289,459695	0
14.01.2021	20:55:31	0	0	3,163418	4,02225	98,7552	0,578	77,528	3,5	1006,04	7,1	9,1	8,9	1	1	1	1	1	1	1	1	1	0	1	-31,92389	274,612615	290,528048	0
14.01.2021	20:55:32	0	0	3,841293	4,39125	107,046	0,584	77,542	3,5	1006,16	7,1	9,1	8,9	1	1	1	1	1	1	1	1	1	0	1	-39,323467	274,64943	283,301419	0
14.01.2021	20:55:33	0	0	4,406163	4,82625	86,9796	0,576	77,527	3,5	1006	7,1	9,1	9	1	1	1	1	1	1	1	1	1	0	1	-37,279774	274,539194	284,827459	0
14.01.2021	20:55:34	0	0	4,180231	4,866	114,5052	0,583	77,519	3,5	1006,04	7,1	9,1	8,9	1	1	1	1	1	1	1	1	1	0	1	-35,870331	274,655572	286,783419	0
14.01.2021	20:55:35	0	0	4,971055	4,70025	92,9664	0,575	77,514	3,5	1006,12	7,1	9,1	9	1	1	1	1	1	1	1	1	1	0	1	-33,192389	274,46149	288,550328	0
14.01.2021	20:55:36	0	0	3,502355	4,7415	101,8116	0,577	77,504	3,5	1006	7,1	9,1	8,9	1	1	1	1	1	1	1	1	1	0	1	-33,333333	274,534615	288,752409	0
14.01.2021	20:55:37	0	0	4,406189	4,617	98,7552	0,588	77,509	3,5	1006,04	7,1	9,1	8,9	1	1	1	1	1	1	1	1	1	0	1	-33,897111	274,627946	288,626841	0
14.01.2021	20:55:38	0	0	3,728292	4,4895	80,1396	0,579	77,516	3,5	1006	7,1	9,1	9	1	1	1	1	1	1	1	1	1	0	1	-31,501057	274,496494	290,40583	0
14.01.2021	20:55:39	0	0	4,067252	4,06275	75,978	0,585	77,513	3,5	1006,08	7,1	9,1	8,9	1	1	1	1	1	1	1	1	1	0	1	-33,333333	274,60955	289,10421	0
14.01.2021	20:55:40	0	0	3,276377	3,80475	68,7744	0,577	77,53	3,5	1005,94	7,1	9,1	9	1	1	1	1	1	1	1	1	1	0	1	-32,064834	274,646359	290,545625	0
14.01.2021	20:55:41	0	0	4,293184	4,24125	86,3064	0,585	77,552	3,5	1006,04	7,1	9,2	9	1	1	1	1	1	1	1	1	1	0	1	-31,289641	274,592702	291,068783	0
14.01.2021	20:55:42	0	0	4,745098	4,6755	90,0288	0,584	77,572	3,5	1005,96	7,1	9,1	9	1	1	1	1	1	1	1	1	1	0	1	-29,809725	274,484312	292,040018	0
14.01.2021	20:55:43	0	0	3,84127	5,02275	84,0312	0,58	77,56	3,5	1006,12	7,1	9,1	9	1	1	1	1	1	1	1	1	1	0	1	-32,9105	274,499541	289,010679	0
14.01.2021	20:55:44	0	0	2,937442	4,92825	81,1872	0,583	77,577	3,5	1006,08	7,1	9,1	9	1	1	1	1	1	1	1	1	1	0	1	-34,390416	274,623345	288,111924	0
14.01.2021	20:55:45	0	0	2,82448	4,779	91,98	0,581	77,559	3,5	1006,06	7,1	9,1	8,9	1	1	1	1	1	1	1	1	1	0	1	-32,276251	274,64943	290,348636	0
14.01.2021	20:55:46	0	0	3,728292	4,4985	84,8232	0,579	77,572	3,5	1006,24	7,1	9,1	9	1	1	1	1	1	1	1	1	1	0	1	-34,460888	274,469094	287,317487	0
14.01.2021	20:55:47	0	0	3,05042	4,503	77,598	0,58	77,569	3,5	1006,1	7,1	9,1	9	1	1	1	1	1	1	1	1	1	0	1	-34,390416	274,481267	287,445048	0
14.01.2021	20:55:48	0	0	4,971055	4,563	83,736	0,577	77,568	3,5	1005,98	7,1	9,1	9	1	1	1	1	1	1	1	1	1	0	1	-38,054968	274,620279	284,432968	0
14.01.2021	20:55:49	0	0	3,163399	4,41225	84,7836	0,584	77,57	3,5	1005,94	7,1	9,1	9	1	1	1	1	1	1	1	1	1	0	1	-36,575053	274,510209	285,396173	0
14.01.2021	20:55:50	0	0	3,276397	4,14	70,8336	0,58	77,559	3,5	1006,14	7,1	9,1	8,9	1	1	1	1	1	1	1	1	1	0	1	-31,148696	274,626412	291,368051	0
14.01.2021	20:55:51	0	0	2,711485	4,26075	70,2468	0,584	77,579	3,5	1006,02	7,1	9,1	9	1	1	1	1	1	1	1	1	1	0	1	-33,333333	274,501065	288,594994	0
14.01.2021	20:55:52	0	0	4,067252	4,6845	70,614	0,581	77,575	3,5	1005,98	7,1	9,1	8,9	1	1	1	1	1	1	1	1	1	0	1	-31,642001	274,595765	290,730802	0
14.01.2021	20:55:53	0	0	4,745127	4,49025	74,9016	0,577	77,572	3,5	1006,08	7,1	9,1	8,9	1	1	1	1	1	1	1	1	1	0	1	-37,843552	274,484312	284,006192	0
14.01.2021	20:55:54	0	0	3,615335	4,19025	67,6836	0,581	77,576	3,5	1006,04	7,1	9,1	8,9	1	1	1	1	1	1	1	1	1	0	1	-37,632135	274,606486	284,791017	0
14.01.2021	20:55:55	0	0	3,615313	4,20675	63,2016	0,587	77,573	3,5	1006,02	7,1	9,1	9	1	1	1	1	1	1	1	1	1	0	1	-34,390416	274,47518	287,416498	0
14.01.2021	20:55:56	0	0	4,180231	4,15875	66,2256	0,585	77,564	3,5	1006	7,1	9,1	8,9	1	1	1	1	1	1	1	1	1	0	1	-40,521494	274,549884	281,635911	0
14.01.2021	20:55:57	0	0	3,728292	4,0605	69,8508	0,582	77,558	3,5	1006,12	7,1	9,1	9	1	1	1	1	1	1	1	1	1	0	1	-35,51797	274,638685	287,056432	0
14.01.2021	20:55:58	0	0	4,180231	3,87375	67,2768	0,578	77,564	3,5	1005,9	7,1	9,1	8,9	1	1	1	1	1	1	1	1	1	0	1	-35,658915	274,638685	286,915487	0
14.01.2021	20:55:59	0	0	4,293184	3,9855	69,8508	0,588	77,541	3,5	1006,16	7,1	9,1	9	1	1	1	1	1	1	1	1	1	0	1	-34,319944	274,526985	287,729994	0
14.01.2021	20:56:00	0	0	4,971055	4,3335	60,552	0,583	77,536	3,5	1006,3	7,1	9,1	9	1	1	1	1	1	1	1	1	1	0	1	-33,192389	274,525459	288,850389	0
14.01.2021	20:56:01	0	0	4,971055	4,3335	60,552	0,583	77,536	3,5	1006,3	7,1	9,1	9	1	1	1	1	1	1	1	1	1	0	1	-33,192389	274,525459	288,850389	0
14.01.2021	20:56:02	0	0	4,632148	4,2855	55,1736	0,588	77,526	3,5	1006,06	7,1	9,1	8,9	1	1	1	1	1	1	1	1	1	0	1	-34,108527	274,646359	288,501932	0
14.01.2021	20:56:03	0	0	3,954249	4,12125	54,7812	0,583	77,52	3,5	1006,08	7,1	9,1	9	1	1	1	1	1	1	1	1	1	0	1	-34,390416	274,592702	287,968008	0
14.01.2021	20:56:04	0	0	4,067227	4,03275	60,5664	0,577	77,508	3,5	1006,02	7,1	9,2	9	1	1	1	1	1	1	1	1	1	0	1	-33,262861	274,464531	288,494117	0
14.01.2021	20:56:05	0	0	4,406163	4,06725	51,4296	0,579	77,496	3,5	1006,08	7,1	9,1	9	1	1	1	1	1	1	1	1	1	0	1	-33,756166	274,530036	288,308091	0
14.01.2021	20:56:06	0	0	4,971055	4,3455	49,194	0,578	77,499	3,5	1006,18	7,1	9,2	9	1	1	1	1	1	1	1	1	1	0	1	-36,15222	274,482789	285,690384	0
14.01.2021	20:56:07	0	0	3,389356	4,20225	57,0276	0,587	77,51	3,5	1006,1	7,1	9,1	9	1	1	1	1	1	1	1	1	1	0	1	-36,575053	274,600359	285,819324	0
14.01.2021	20:56:08	0	0	4,180206	3,8655	66,51	0,581	77,49	3,5	1006,1	7,1	9,1	9	1	1	1	1	1	1	1	1	1	0	1	-33,121917	274,46149	288,6208	0
14.01.2021	20:56:09	0	0	2,485513	3,76125	86,9832	0,582	77,487	3,5	1006,12	7,1	9,1	9,1	1	1	1	1	1	1	1	1	1	0	1	-36,856942	274,598827	285,530244	0
14.01.2021	20:56:10	0	0	4,406189	3,56925	72,0144	0,581	77,476	3,5	1006,16	7,1	9,1	8,9	1	1	1	1	1	1	1	1	1	0	1	-33,333333	274,612615	289,118605	0
14.01.2021	20:56:11	0	0	3,050439	3,40275	64,2456	0,581	77,501	3,5	1006,14	7,1	9,1	8,9	1	1	1	1	1	1	1	1	1	0	1	-34,672304	274,479745	287,156021	0
14.01.2021	20:56:12	0	0	3,84127	3,1575	70,2144	0,58	77,486	3,5	1006,08	7,1	9,1	9	1	1	1	1	1	1	1	1	1	0	1	-37,914024	274,565165	284,315111	0
14.01.2021	20:56:13	0	0	4,632148	2,8995	90,0216	0,586	77,485	3,5	1005,88	7,1	9,1	8,9	1	1	1	1	1	1	1	1	1	0	1	-32,135307	274,47518	289,671608	0
14.01.2021	20:56:14	0	0	3,389356	3,0045	86,2812	0,582	77,503	3,5	1006,04	7,1	9,1	9	1	1	1	1	1	1	1	1	1	0	1	-35,799859	274,566694	286,436453	0
14.01.2021	20:56:15	0	0	3,050439	3,17025	82,674	0,573	77,498	3,5	1006	7,1	9,1	8,9	1	1	1	1	1	1	1	1	1	0	1	-30,162086	274,473658	291,637692	0
14.01.2021	20:56:16	0	0	3,841293	3,25275	95,85	0,574	77,486	3,5	1005,96	7,1	9,1	8,9	1	1	1	1	1	1	1	1	1	0	1	-32,699084	274,591172	289,652152	0
14.01.2021	20:56:17	0	0	3,954249	3,04125	67,6836	0,58	77,5	3,5	1006,02	7,1	9,1	9	1	1	1	1	1	1	1	1	1	0	1	-31,501057	274,652501	291,13826	0
14.01.2021	20:56:18	0	0	3,050439	2,823	78,2352	0,584	77,503	3,5	1006,02	7,1	9,1	8,9	1	1	1	1	1	1	1	1	1	0	1	-35,095137	274,61568	287,371198	0
14.01.2021	20:56:19	0	0	4,519141	2,631	105,498	0,564	77,504	3,5	1005,86	7,1	9,1	9	1	1	1	1	1	1	1	1	1	0	1	-35,236082	274,643289	287,359952	0
14.01.2021	20:56:20	0	0	3,954249	2,53125	94,3848	0,581	77,52	3,5	1006,02	7,1	9,1	9	1	1	1	1	1	1	1	1	1	0	1	-32,276251	274,641754	290,312572	0
14.01.2021	20:56:21	0	0	4,406189	2,412	89,298	0,581	77,527	3,5	1005,96	7,1	9,1	8,9	1	1	1	1	1	1	1	1	1	0	1	-34,390416	274,531562	287,681003	0
14.01.2021	20:56:22	0	0	4,406189	2,71575	79,5096	0,574	77,513	3,5	1006	7,1	9,1	8,9	1	1	1	1	1	1	1	1	1	0	1	-34,038055	274,476701	287,775996	0
14.01.2021	20:56:23	0	0	3,389376	2,9895	74,9268	0,58	77,519	3,5	1006,16	7,1	9,1	8,9	1	1	1	1	1	1	1	1	1	0	1	-36,293164	274,58658	286,03651	0
14.01.2021	20:56:24	0	0	4,067252	3,1515	74,9268	0,583	77,531	3,5	1006,2	7,1	9,1	8,9	1	1	1	1	1	1	1	1	1	0	1	-36,222692	274,640219	286,35892	0
14.01.2021	20:56:25	0	0	4,519168	3,0345	82,3536	0,578	77,514	3,5	1006,1	7,1	9,1	8,9	1	1	1	1	1	1	1	1	1	0	1	-33,756166	274,598827	288,631019	0
14.01.2021	20:56:26	0	0	3,841293	3,048	84,7908	0,579	77,536	3,5	1006,2	7,1	9,1	8,9	1	1	1	1	1	1	1	1	1	0	1	-31,994362	274,476701	289,819689	0
14.01.2021	20:56:27	0	0	2,259571	3,44625	99,2268	0,579	77,524	3,5	1006,04	7,1	9,1	9	1	1	1	1	1	1	1	1	1	0	1	-36,575053	274,498018	285,33898	0
14.01.2021	20:56:28	0	0	2,937442	3,7125	79,4124	0,579	77,53	3,5	1006,02	7,1	9,1	9	1	1	1	1	1	1	1	1	1	0	1	-35,447498	274,50716	286,509425	0
14.01.2021	20:56:29	0	0	2,711501	3,73425	73,0404	0,574	77,516	3,5	1006,2	7,1	9,1	8,9	1	1	1	1	1	1	1	1	1	0	1	-35,870331	274,641754	286,718492	0
14.01.2021	20:56:30	0	0	4,067227	3,52725	83,736	0,585	77,518	3,5	1006,22	7,1	9,1	9	1	1	1	1	1	1	1	1	1	0	1	-35,729387	274,488879	286,14178	0
14.01.2021	20:56:31	0	0	4,519141	3,2415	86,9904	0,579	77,509	3,5	1006,06	7,1	9,1	9	1	1	1	1	1	1	1	1	1	0	1	-32,769556	274,526985	289,280381	0
14.01.2021	20:56:32	0	0	4,63212	3,114	99,522	0,576	77,493	3,5	1006	7,1	9,1	9	1	1	1	1	1	1	1	1	1	0	1	-37,068358	274,617213	285,405177	0
14.01.2021	20:56:33	0	0	3,276397	2,94075	95,6088	0,572	77,504	3,5	1006,12	7,1	9,1	8,9	1	1	1	1	1	1	1	1	1	0	1	-34,460888	274,472137	287,331755	0
14.01.2021	20:56:34	0	0	4,858106	2,90175	101,826	0,581	77,499	3,5	1006,12	7,1	9,1	8,9	1	1	1	1	1	1	1	1	1	0	1	-34,883721	274,539194	287,223513	0
14.01.2021	20:56:35	0	0	2,937459	2,96325	99,9144	0,573	77,485	3,5	1006,12	7,1	9,1	8,9	1	1	1	1	1	1	1	1	1	0	1	-34,601832	274,641754	287,98699	0
14.01.2021	20:56:36	0	0	3,728314	2,86725	105,8868	0,578	77,483	3,5	1006,14	7,1	9,1	8,9	1	1	1	1	1	1	1	1	1	0	1	-38,336857	274,523933	283,698763	0
14.01.2021	20:56:37	0	0	3,276397	2,643	84,5136	0,574	77,483	3,5	1006,02	7,1	9,1	8,9	1	1	1	1	1	1	1	1	1	0	1	-33,615222	274,638685	288,95918	0
14.01.2021	20:56:38	0	0	4,745127	2,63025	92,2608	0,578	77,485	3,5	1006,14	7,1	9,1	8,9	1	1	1	1	1	1	1	1	1	0	1	-33,333333	274,594233	289,03228	0
14.01.2021	20:56:39	0	0	3,841293	2,7675	92,2428	0,574	77,484	3,5	1006,06	7,1	9,1	8,9	1	1	1	1	1	1	1	1	1	0	1	-34,601832	274,624879	287,907711	0
14.01.2021	20:56:40	0	0	2,937442	2,50725	123,102	0,582	77,482	3,5	1006,2	7,1	9,1	9	1	1	1	1	1	1	1	1	1	0	1	-35,16561	274,482789	286,676994	0
14.01.2021	20:56:41	0	0	3,728314	2,2635	85,194	0,58	77,484	3,5	1006,08	7,1	9,1	8,9	1	1	1	1	1	1	1	1	1	0	1	-34,178999	274,479745	287,649326	0
14.01.2021	20:56:42	0	0	4,29321	2,3115	95,5548	0,58	77,49	3,5	1006,08	7,1	9,1	8,9	1	1	1	1	1	1	1	1	1	0	1	-37,068358	274,603422	285,340405	0
14.01.2021	20:56:43	0	0	2,372549	2,3775	90,0108	0,575	77,493	3,5	1006,04	7,1	9,1	9	1	1	1	1	1	1	1	1	1	0	1	-36,081748	274,638685	286,492654	0
14.01.2021	20:56:44	0	0	2,937442	2,3715	101,5992	0,58	77,488	3,5	1006,14	7,1	9,1	9	1	1	1	1	1	1	1	1	1	0	1	-33,051445	274,640219	289,530167	0
14.01.2021	20:56:45	0	0	4,858106	2,499	82,9872	0,577	77,49	3,5	1006,14	7,1	9,1	8,9	1	1	1	1	1	1	1	1	1	0	1	-33,967583	274,598827	288,419602	0
14.01.2021	20:56:46	0	0	3,276397	2,52375	87,3828	0,576	77,487	3,5	1005,94	7,1	9,1	8,9	1	1	1	1	1	1	1	1	1	0	1	-35,870331	274,47518	285,936583	0
14.01.2021	20:56:47	0	0	2,146605	2,56275	83,3688	0,574	77,49	3,5	1006,14	7,1	9,1	8,9	1	1	1	1	1	1	1	1	1	0	1	-33,403805	274,498018	288,510227	0
14.01.2021	20:56:48	0	0	3,728292	2,79675	90,432	0,575	77,499	3,5	1006,18	7,1	9,1	9	1	1	1	1	1	1	1	1	1	0	1	-35,51797	274,627946	287,005981	0
14.01.2021	20:56:49	0	0	2,82448	2,988	115,9488	0,573	77,505	3,5	1006,04	7,1	9,1	8,9	1	1	1	1	1	1	1	1	1	0	1	-35,236082	274,52851	286,821015	0
14.01.2021	20:56:50	0	0	4,067227	2,96325	80,5356	0,578	77,515	3,5	1006,12	7,1	9,1	9	1	1	1	1	1	1	1	1	1	0	1	-39,182523	274,631013	283,35584	0
14.01.2021	20:56:51	0	0	4,632148	3,03525	72,6516	0,571	77,495	3,5	1006,06	7,1	9,1	8,9	1	1	1	1	1	1	1	1	1	0	1	-37,702607	274,519358	284,311542	0
14.01.2021	20:56:52	0	0	4,858106	3,303	88,6536	0,577	77,512	3,5	1006,14	7,1	9,1	8,9	1	1	1	1	1	1	1	1	1	0	1	-33,54475	274,627946	288,979202	0
14.01.2021	20:56:53	0	0	3,16338	3,6705	90,0216	0,577	77,505	3,5	1006,06	7,1	9,1	9,1	1	1	1	1	1	1	1	1	1	0	1	-35,658915	274,552939	286,51283	0
14.01.2021	20:56:54	0	0	3,615313	4,01775	82,3536	0,574	77,512	3,5	1006,12	7,1	9,1	9	1	1	1	1	1	1	1	1	1	0	1	-35,729387	274,623345	286,772953	0
14.01.2021	20:56:55	0	0	3,954272	4,1655	98,4456	0,574	77,501	3,5	1006,16	7,1	9,1	8,9	1	1	1	1	1	1	1	1	1	0	1	-37,209302	274,624879	285,300241	0
14.01.2021	20:56:56	0	0	2,711485	4,37475	88,5708	0,572	77,507	3,5	1006,02	7,1	9,1	9	1	1	1	1	1	1	1	1	1	0	1	-32,628612	274,494971	289,27113	0
14.01.2021	20:56:57	0	0	3,389376	4,482	88,1244	0,573	77,514	3,5	1006,14	7,1	9,1	8,9	1	1	1	1	1	1	1	1	1	0	1	-34,883721	274,624879	287,625822	0
14.01.2021	20:56:58	0	0	3,16338	4,56825	96,984	0,571	77,508	3,5	1006,02	7,1	9,1	9,1	1	1	1	1	1	1	1	1	1	0	1	-36,856942	274,469094	284,921434	0
14.01.2021	20:56:59	0	0	3,615335	4,23975	82,5768	0,574	77,521	3,5	1006,16	7,1	9,1	8,9	1	1	1	1	1	1	1	1	1	0	1	-33,403805	274,473658	288,395973	0
14.01.2021	20:57:00	0	0	4,632148	4,6365	93,3588	0,569	77,515	3,5	1006,1	7,1	9,1	8,9	1	1	1	1	1	1	1	1	1	0	1	-34,390416	274,60189	288,011154	0
14.01.2021	20:57:01	0	0	4,632148	4,6365	93,3588	0,569	77,515	3,5	1006,1	7,1	9,1	8,9	1	1	1	1	1	1	1	1	1	0	1	-34,390416	274,60189	288,011154	0
14.01.2021	20:57:02	0	0	3,276397	4,64775	87,7464	0,571	77,534	3,5	1006,16	7,1	9,1	8,9	1	1	1	1	1	1	1	1	1	0	1	-36,856942	274,635616	285,703043	0
14.01.2021	20:57:03	0	0	3,502313	4,58025	87,066	0,572	77,538	3,5	1006,1	7,1	9,1	9,1	1	1	1	1	1	1	1	1	1	0	1	-35,870331	274,612615	286,581607	0
14.01.2021	20:57:04	0	0	3,502334	4,5	83,7432	0,574	77,542	3,5	1006,16	7,1	9,1	9	1	1	1	1	1	1	1	1	1	0	1	-33,333333	274,470615	288,452176	0
14.01.2021	20:57:05	0	0	2,598522	4,49475	97,3476	0,577	77,557	3,5	1006,2	7,1	9,1	8,9	1	1	1	1	1	1	1	1	1	0	1	-37,350247	274,499541	284,570933	0
14.01.2021	20:57:06	0	0	3,050439	4,4985	96,6096	0,563	77,553	3,5	1006,04	7,1	9,1	8,9	1	1	1	1	1	1	1	1	1	0	1	-33,54475	274,620279	288,943186	0
14.01.2021	20:57:07	0	0	4,632148	4,40625	92,9628	0,573	77,551	3,5	1006,14	7,1	9,1	8,9	1	1	1	1	1	1	1	1	1	0	1	-35,729387	274,523933	286,306233	0
14.01.2021	20:57:08	0	0	2,711501	4,7235	95,166	0,571	77,559	3,5	1006,26	7,1	9,1	8,9	1	1	1	1	1	1	1	1	1	0	1	-32,487667	274,618746	289,993068	0
14.01.2021	20:57:09	0	0	2,82448	4,572	95,5404	0,569	77,573	3,5	1006,06	7,1	9,1	8,9	1	1	1	1	1	1	1	1	1	0	1	-36,856942	274,467573	284,914301	0
14.01.2021	20:57:10	0	0	3,276397	4,1025	91,9188	0,571	77,559	3,5	1006,14	7,1	9,1	8,9	1	1	1	1	1	1	1	1	1	0	1	-34,249471	274,459969	287,486115	0
14.01.2021	20:57:11	0	0	3,954249	3,90225	82,3356	0,572	77,575	3,5	1006,2	7,1	9,1	9	1	1	1	1	1	1	1	1	1	0	1	-34,178999	274,595765	288,193804	0
14.01.2021	20:57:12	0	0	2,485543	3,7665	81,9648	0,572	77,586	3,5	1006,1	7,1	9,1	8,9	1	1	1	1	1	1	1	1	1	0	1	-38,054968	274,641754	284,533854	0
14.01.2021	20:57:13	0	0	2,485528	4,00575	98,7804	0,571	77,585	3,5	1006,28	7,1	9,1	9	1	1	1	1	1	1	1	1	1	0	1	-36,786469	274,577399	285,5001	0
14.01.2021	20:57:14	0	0	3,841293	4,0245	105,1308	0,571	77,565	3,5	1006,08	7,1	9,1	8,9	1	1	1	1	1	1	1	1	1	0	1	-40,451022	274,631013	282,087341	0
14.01.2021	20:57:15	0	0	3,954249	3,969	99,5472	0,571	77,588	3,5	1006,08	7,1	9,1	9	1	1	1	1	1	1	1	1	1	0	1	-33,756166	274,569752	288,494502	0
14.01.2021	20:57:16	0	0	4,406189	3,576	93,7512	0,566	77,603	3,5	1006,3	7,1	9,1	8,9	1	1	1	1	1	1	1	1	1	0	1	-32,205779	274,63715	290,361414	0
14.01.2021	20:57:17	0	0	3,954272	3,297	99,9288	0,569	77,584	3,5	1005,9	7,1	9,1	8,9	1	1	1	1	1	1	1	1	1	0	1	-31,360113	274,502589	290,575362	0
14.01.2021	20:57:18	0	0	4,632148	3,2205	77,976	0,563	77,592	3,5	1006,06	7,1	9,1	8,9	1	1	1	1	1	1	1	1	1	0	1	-38,971106	274,638685	283,603296	0
14.01.2021	20:57:19	0	0	4,406189	2,96475	70,6032	0,56	77,59	3,5	1006	7,1	9,1	8,9	1	1	1	1	1	1	1	1	1	0	1	-37,420719	274,533089	284,657861	0
14.01.2021	20:57:20	0	0	4,971085	2,93025	94,4136	0,571	77,608	3,5	1006,06	7,1	9,1	8,9	1	1	1	1	1	1	1	1	1	0	1	-35,16561	274,626412	287,351137	0
14.01.2021	20:57:21	0	0	4,406189	3,11475	84,1428	0,568	77,62	3,5	1006,1	7,1	9,1	8,9	1	1	1	1	1	1	1	1	1	0	1	-35,729387	274,525459	286,313391	0
14.01.2021	20:57:22	0	0	3,841293	3,1635	91,5012	0,567	77,635	3,5	1006,16	7,1	9,1	8,9	1	1	1	1	1	1	1	1	1	0	1	-32,487667	274,626412	290,02908	0
14.01.2021	20:57:23	0	0	5,197044	3,354	101,5164	0,56	77,631	3,5	1006,1	7,1	9,1	8,9	1	1	1	1	1	1	1	1	1	0	1	-35,51797	274,542248	286,603595	0
14.01.2021	20:57:24	0	0	5,197044	3,456	91,9152	0,568	77,636	3,5	1006,22	7,1	9,1	8,9	1	1	1	1	1	1	1	1	1	0	1	-37,209302	274,60189	285,192267	0
14.01.2021	20:57:25	0	0	4,519168	3,282	79,0416	0,56	77,629	3,5	1005,98	7,1	9,1	8,9	1	1	1	1	1	1	1	1	1	0	1	-36,856942	274,498018	285,057091	0
14.01.2021	20:57:26	0	0	3,502355	3,10125	66,5532	0,57	77,638	3,5	1006,04	7,1	9,1	8,9	1	1	1	1	1	1	1	1	1	0	1	-37,984496	274,629479	284,54666	0
14.01.2021	20:57:27	0	0	2,824463	2,83425	65,4768	0,563	77,646	3,5	1006,04	7,1	9,1	9	1	1	1	1	1	1	1	1	1	0	1	-35,024665	274,531562	287,046753	0
14.01.2021	20:57:28	0	0	4,29321	2,7675	51,0588	0,568	77,653	3,5	1006,18	7,1	9,1	8,9	1	1	1	1	1	1	1	1	1	0	1	-33,826638	274,438695	287,809204	0
14.01.2021	20:57:29	0	0	2,711501	2,73675	62,4276	0,563	77,644	3,5	1006,18	7,1	9,1	8,9	1	1	1	1	1	1	1	1	1	0	1	-36,645525	274,484312	285,204218	0
14.01.2021	20:57:30	0	0	4,29321	2,94225	73,0584	0,564	77,653	3,5	1006,14	7,1	9,1	8,9	1	1	1	1	1	1	1	1	1	0	1	-34,53136	274,572811	287,733666	0
14.01.2021	20:57:31	0	0	4,519141	3,03675	88,9668	0,563	77,645	3,5	1006,14	7,1	9,1	9	1	1	1	1	1	1	1	1	1	0	1	-34,672304	274,444771	286,992023	0
14.01.2021	20:57:32	0	0	2,937459	3,0765	94,2192	0,562	77,651	3,5	1006,1	7,1	9,1	8,9	1	1	1	1	1	1	1	1	1	0	1	-33,685694	274,534615	288,400048	0
14.01.2021	20:57:33	0	0	2,82448	3,009	69,1632	0,566	77,658	3,5	1006,16	7,1	9,1	8,9	1	1	1	1	1	1	1	1	1	0	1	-35,306554	274,450849	286,386269	0
14.01.2021	20:57:34	0	0	5,084064	3,08625	80,1396	0,559	77,651	3,5	1006,14	7,1	9,1	8,9	1	1	1	1	1	1	1	1	1	0	1	-34,178999	274,52851	287,878098	0
14.01.2021	20:57:35	0	0	2,711501	2,8485	80,1396	0,56	77,631	3,5	1006,02	7,1	9,1	8,9	1	1	1	1	1	1	1	1	1	0	1	-35,658915	274,458449	286,069543	0
14.01.2021	20:57:36	0	0	4,067227	2,73975	69,8616	0,566	77,651	3,5	1006,12	7,1	9,1	9	1	1	1	1	1	1	1	1	1	0	1	-37,279774	274,592702	285,078649	0
14.01.2021	20:57:37	0	0	2,82448	2,619	77,9868	0,558	77,638	3,5	1006,02	7,1	9,1	8,9	1	1	1	1	1	1	1	1	1	0	1	-34,883721	274,632547	287,661848	0
14.01.2021	20:57:38	0	0	4,067252	2,57925	80,1684	0,556	77,645	3,5	1006,1	7,1	9,1	8,9	1	1	1	1	1	1	1	1	1	0	1	-36,927414	274,542248	285,194151	0
14.01.2021	20:57:39	0	0	3,615335	2,4885	91,5048	0,568	77,65	3,5	1006,16	7,1	9,1	8,9	1	1	1	1	1	1	1	1	1	0	1	-33,262861	274,617213	289,210674	0
14.01.2021	20:57:40	0	0	4,858077	2,475	71,2548	0,565	77,645	3,5	1006,16	7,1	9,1	9	1	1	1	1	1	1	1	1	1	0	1	-34,672304	274,537668	287,427765	0
14.01.2021	20:57:41	0	0	2,711501	2,667	81,6012	0,568	77,652	3,5	1006,14	7,1	9,1	8,9	1	1	1	1	1	1	1	1	1	0	1	-40,38055	274,623345	282,121791	0
14.01.2021	20:57:42	0	0	3,276377	3,02175	69,1668	0,557	77,637	3,5	1006,1	7,1	9,1	9	1	1	1	1	1	1	1	1	1	0	1	-35,588443	274,537668	286,511627	0
14.01.2021	20:57:43	0	0	4,29321	3,66975	72,6552	0,564	77,64	3,5	1006,04	7,1	9,1	8,9	1	1	1	1	1	1	1	1	1	0	1	-35,447498	274,423513	286,11718	0
14.01.2021	20:57:44	0	0	3,163399	3,95175	87,7464	0,565	77,654	3,5	1006,02	7,1	9,1	9	1	1	1	1	1	1	1	1	1	0	1	-33,54475	274,572811	288,720277	0
14.01.2021	20:57:45	0	0	3,615335	4,0515	71,604	0,568	77,667	3,5	1006,22	7,1	9,1	8,9	1	1	1	1	1	1	1	1	1	0	1	-36,222692	274,443252	285,434513	0
14.01.2021	20:57:46	0	0	3,276377	3,96975	60,93	0,562	77,656	3,5	1005,98	7,1	9,1	9	1	1	1	1	1	1	1	1	1	0	1	-33,967583	274,472137	287,825061	0
14.01.2021	20:57:47	0	0	2,711468	4,002	62,514	0,561	77,661	3,5	1006,14	7,1	9,1	9,1	1	1	1	1	1	1	1	1	1	0	1	-34,460888	274,449329	287,22481	0
14.01.2021	20:57:48	0	0	4,519168	4,3305	75,2328	0,562	77,651	3,5	1005,9	7,1	9,1	8,9	1	1	1	1	1	1	1	1	1	0	1	-37,068358	274,569752	285,18231	0
14.01.2021	20:57:49	0	0	3,841293	4,94025	69,1668	0,561	77,66	3,5	1006,16	7,1	9,1	8,9	1	1	1	1	1	1	1	1	1	0	1	-33,54475	274,543775	288,583982	0
14.01.2021	20:57:50	0	0	3,163399	5,211	57,3912	0,563	77,67	3,5	1006,04	7,1	9,1	9	1	1	1	1	1	1	1	1	1	0	1	-37,843552	274,429584	283,749584	0
14.01.2021	20:57:51	0	0	4,858106	5,03625	55,9584	0,562	77,656	3,5	1005,92	7,1	9,1	8,9	1	1	1	1	1	1	1	1	1	0	1	-31,782946	274,546829	290,360121	0
14.01.2021	20:57:52	0	0	3,841293	4,41675	68,0184	0,56	77,649	3,5	1006,04	7,1	9,1	8,9	1	1	1	1	1	1	1	1	1	0	1	-33,474278	274,58658	288,855396	0
14.01.2021	20:57:53	0	0	2,82448	4,25175	79,056	0,564	77,668	3,5	1006,2	7,1	9,1	8,9	1	1	1	1	1	1	1	1	1	0	1	-32,135307	274,589641	290,208741	0
14.01.2021	20:57:54	0	0	4,067227	4,3215	90,8748	0,557	77,665	3,5	1006,22	7,1	9,1	9	1	1	1	1	1	1	1	1	1	0	1	-32,276251	274,614147	290,182885	0
14.01.2021	20:57:55	0	0	2,598491	4,509	85,5684	0,554	77,651	3,5	1006,14	7,1	9,1	9,1	1	1	1	1	1	1	1	1	1	0	1	-35,729387	274,594233	286,636226	0
14.01.2021	20:57:56	0	0	4,971055	4,43775	94,086	0,554	77,673	3,5	1006,04	7,1	9,1	9	1	1	1	1	1	1	1	1	1	0	1	-34,178999	274,580459	288,121935	0
14.01.2021	20:57:57	0	0	2,711501	4,278	95,5404	0,556	77,684	3,5	1006,06	7,1	9,1	8,9	1	1	1	1	1	1	1	1	1	0	1	-34,249471	274,58658	288,080202	0
14.01.2021	20:57:58	0	0	4,858077	3,936	87,75	0,55	77,697	3,5	1006,08	7,1	9,1	9	1	1	1	1	1	1	1	1	1	0	1	-33,826638	274,580459	288,474296	0
14.01.2021	20:57:59	0	0	4,632148	3,654	72,2988	0,555	77,694	3,5	1006,04	7,1	9,1	8,9	1	1	1	1	1	1	1	1	1	0	1	-33,333333	274,428066	288,252687	0
14.01.2021	20:58:00	0	0	4,858077	3,69375	90,4788	0,56	77,717	3,5	1006,24	7,1	9,1	9	1	1	1	1	1	1	1	1	1	0	1	-31,853418	274,502589	290,082057	0
14.01.2021	20:58:01	0	0	4,858077	3,69375	90,4788	0,56	77,717	3,5	1006,24	7,1	9,1	9	1	1	1	1	1	1	1	1	1	0	1	-31,853418	274,502589	290,082057	0
14.01.2021	20:58:02	0	0	2,937442	3,678	77,5908	0,561	77,739	3,5	1006,14	7,1	9,1	9	1	1	1	1	1	1	1	1	1	0	1	-37,13883	274,426549	284,440076	0
14.01.2021	20:58:03	0	0	2,372549	3,8895	83,3688	0,566	77,793	3,5	1006,12	7,1	9,1	9	1	1	1	1	1	1	1	1	1	0	1	-33,897111	274,562108	288,317673	0
14.01.2021	20:58:04	0	0	4,745098	3,69825	82,3212	0,558	77,741	3,5	1006,18	7,1	9,1	9	1	1	1	1	1	1	1	1	1	0	1	-32,417195	274,589641	289,926852	0
14.01.2021	20:58:05	0	0	4,971085	3,531	76,3848	0,559	77,762	3,5	1006	7,1	9,1	8,9	1	1	1	1	1	1	1	1	1	0	1	-36,011276	274,484312	285,838468	0
14.01.2021	20:58:06	0	0	2,937459	3,12525	85,2156	0,557	77,776	3,5	1006,08	7,1	9,1	8,9	1	1	1	1	1	1	1	1	1	0	1	-37,632135	274,606486	284,791017	0
14.01.2021	20:58:07	0	0	5,197012	2,8005	77,58	0,557	77,778	3,5	1006,04	7,1	9,1	9	1	1	1	1	1	1	1	1	1	0	1	-34,53136	274,481267	287,304104	0
14.01.2021	20:58:08	0	0	3,954272	2,78625	75,9924	0,561	77,786	3,5	1006,2	7,1	9,1	8,9	1	1	1	1	1	1	1	1	1	0	1	-31,148696	274,428066	290,437324	0
14.01.2021	20:58:09	0	0	2,372563	2,6835	79,1676	0,553	77,789	3,5	1006,14	7	9,1	8,9	1	1	1	1	1	1	1	1	1	0	1	-34,460888	274,546829	287,682179	0
14.01.2021	20:58:10	0	0	4,858106	2,48175	91,4796	0,557	77,788	3,5	1006,02	7,1	9,1	8,9	1	1	1	1	1	1	1	1	1	0	1	-34,460888	274,606486	287,962264	0
14.01.2021	20:58:11	0	0	2,598491	2,17725	61,3008	0,557	77,784	3,5	1006,02	7,1	9,1	9,1	1	1	1	1	1	1	1	1	1	0	1	-37,350247	274,519358	284,663902	0
14.01.2021	20:58:12	0	0	2,711501	2,049	61,7688	0,564	77,81	3,5	1006,18	7,1	9,1	8,9	1	1	1	1	1	1	1	1	1	0	1	-36,504581	274,426549	285,074325	0
14.01.2021	20:58:13	0	0	4,293158	2,08425	57,0276	0,558	77,79	3,5	1005,98	7,1	9,1	9,1	1	1	1	1	1	1	1	1	1	0	1	-37,702607	274,469094	284,075768	0
14.01.2021	20:58:14	0	0	2,937459	2,30025	53,7408	0,562	77,805	3,5	1006	7,1	9,1	8,9	1	1	1	1	1	1	1	1	1	0	1	-35,51797	274,591172	286,833265	0
14.01.2021	20:58:15	0	0	3,841293	2,4765	38,4264	0,558	77,8	3,5	1006,14	7,1	9,1	8,9	1	1	1	1	1	1	1	1	1	0	1	-39,252995	274,540721	282,861404	0
14.01.2021	20:58:16	0	0	4,406189	2,5965	71,5824	0,557	77,811	3,5	1006,1	7,1	9,1	8,9	1	1	1	1	1	1	1	1	1	0	1	-36,434109	274,598827	285,953077	0
14.01.2021	20:58:17	0	0	2,937424	2,5245	66,222	0,554	77,803	3,5	1006,04	7,1	9,1	9,1	1	1	1	1	1	1	1	1	1	0	1	-34,319944	274,520883	287,701362	0
14.01.2021	20:58:18	0	0	3,841293	2,568	77,2272	0,558	77,818	3,5	1006,12	7,1	9,1	8,9	1	1	1	1	1	1	1	1	1	0	1	-32,980973	274,604954	289,434985	0
14.01.2021	20:58:19	0	0	3,954272	2,59575	65,8512	0,559	77,8	3,5	1005,94	7,1	9,1	8,9	1	1	1	1	1	1	1	1	1	0	1	-37,209302	274,523933	284,826318	0
14.01.2021	20:58:20	0	0	2,372549	2,5725	76,8636	0,566	77,813	3,5	1005,88	7,1	9,1	9	1	1	1	1	1	1	1	1	1	0	1	-33,262861	274,432621	288,344508	0
14.01.2021	20:58:21	0	0	3,502334	2,71275	85,5396	0,565	77,801	3,5	1006,08	7	9,1	9	1	1	1	1	1	1	1	1	1	0	1	-35,588443	274,545302	286,547456	0
14.01.2021	20:58:22	0	0	4,406136	2,937	90,0324	0,56	77,802	3,5	1006,06	7,1	9,1	9,1	1	1	1	1	1	1	1	1	1	0	1	-38,12544	274,426549	283,453466	0
14.01.2021	20:58:23	0	0	3,163399	3,10725	75,9996	0,561	77,802	3,5	1006,16	7,1	9,1	9	1	1	1	1	1	1	1	1	1	0	1	-37,068358	274,476701	284,745693	0
14.01.2021	20:58:24	0	0	4,180181	3,2805	103,2984	0,561	77,792	3,5	1006,12	7,1	9,1	9,1	1	1	1	1	1	1	1	1	1	0	1	-33,474278	274,411376	288,033518	0
14.01.2021	20:58:25	0	0	3,502355	3,35325	101,502	0,554	77,782	3,5	1006,16	7,1	9,2	8,9	1	1	1	1	1	1	1	1	1	0	1	-38,12544	274,542248	283,996125	0
14.01.2021	20:58:26	0	0	2,372549	3,2505	93,438	0,558	77,778	3,5	1006,08	7,1	9,1	9	1	1	1	1	1	1	1	1	1	0	1	-34,53136	274,585049	287,791128	0
14.01.2021	20:58:27	0	0	2,82448	2,99025	94,7664	0,553	77,759	3,5	1006,08	7,1	9,1	8,9	1	1	1	1	1	1	1	1	1	0	1	-36,504581	274,494971	285,395161	0
14.01.2021	20:58:28	0	0	2,937459	2,745	83,3616	0,558	77,758	3,5	1006,1	7,1	9,1	8,9	1	1	1	1	1	1	1	1	1	0	1	-29,809725	274,598827	292,57746	0
14.01.2021	20:58:29	0	0	2,82448	2,514	85,536	0,56	77,762	3,5	1006,08	7,1	9,1	8,9	1	1	1	1	1	1	1	1	1	0	1	-35,447498	274,441733	286,202586	0
14.01.2021	20:58:30	0	0	4,406189	2,4825	65,8404	0,56	77,754	3,5	1006,04	7,1	9,2	8,9	1	1	1	1	1	1	1	1	1	0	1	-33,121917	274,44781	288,556657	0
14.01.2021	20:58:31	0	0	3,954249	2,44575	54,81	0,556	77,753	3,5	1005,98	7,1	9,1	9	1	1	1	1	1	1	1	1	1	0	1	-35,095137	274,411376	286,412658	0
14.01.2021	20:58:32	0	0	3,050439	2,84475	69,4548	0,563	77,77	3,5	1006,16	7,1	9,1	8,9	1	1	1	1	1	1	1	1	1	0	1	-35,447498	274,444771	286,216829	0
14.01.2021	20:58:33	0	0	4,180231	3,2205	86,6664	0,556	77,758	3,5	1006,04	7,1	9,1	8,9	1	1	1	1	1	1	1	1	1	0	1	-34,954193	274,58658	287,375481	0
14.01.2021	20:58:34	0	0	4,406163	3,43125	88,128	0,555	77,759	3,5	1006,16	7,1	9,1	9	1	1	1	1	1	1	1	1	1	0	1	-33,403805	274,510209	288,56742	0
14.01.2021	20:58:35	0	0	2,485528	3,5445	108,8964	0,552	77,738	3,5	1006,12	7,1	9,1	9	1	1	1	1	1	1	1	1	1	0	1	-35,447498	274,406827	286,038978	0
14.01.2021	20:58:36	0	0	4,745098	3,4215	98,4672	0,561	77,748	3,5	1006,12	7,1	9,1	9	1	1	1	1	1	1	1	1	1	0	1	-34,249471	274,546829	287,893595	0
14.01.2021	20:58:37	0	0	2,824463	3,44025	87,7248	0,561	77,74	3,5	1006,12	7,1	9,1	9	1	1	1	1	1	1	1	1	1	0	1	-35,447498	274,598827	286,939687	0
14.01.2021	20:58:38	0	0	4,180206	4,21275	85,1904	0,56	77,741	3,5	1006,14	7,1	9,1	9	1	1	1	1	1	1	1	1	1	0	1	-35,16561	274,526985	286,884328	0
14.01.2021	20:58:39	0	0	2,485528	4,806	85,9212	0,561	77,734	3,5	1006,02	7,1	9,1	9	1	1	1	1	1	1	1	1	1	0	1	-36,575053	274,60189	285,826517	0
14.01.2021	20:58:40	0	0	2,146605	4,87425	79,7616	0,56	77,737	3,5	1006,02	7,1	9,1	8,9	1	1	1	1	1	1	1	1	1	0	1	-36,15222	274,536141	285,940686	0
14.01.2021	20:58:41	0	0	4,293158	4,87725	88,5636	0,559	77,732	3,5	1006,2	7,1	9,1	9,1	1	1	1	1	1	1	1	1	1	0	1	-33,051445	274,406827	288,435031	0
14.01.2021	20:58:42	0	0	2,711485	4,79025	98,4744	0,562	77,719	3,5	1006,02	7,1	9,1	9	1	1	1	1	1	1	1	1	1	0	1	-34,742777	274,499541	287,178403	0
14.01.2021	20:58:43	0	0	3,502334	4,902	95,5476	0,56	77,715	3,5	1005,96	7,1	9,1	9	1	1	1	1	1	1	1	1	1	0	1	-38,407329	274,420478	283,143125	0
14.01.2021	20:58:44	0	0	4,180206	4,9905	88,5708	0,561	77,704	3,5	1006,08	7	9,1	9	1	1	1	1	1	1	1	1	1	0	1	-36,15222	274,493448	285,740377	0
14.01.2021	20:58:45	0	0	2,598506	4,99425	84,4128	0,558	77,694	3,5	1006,1	7,1	9,1	9	1	1	1	1	1	1	1	1	1	0	1	-33,333333	274,408343	288,160249	0
14.01.2021	20:58:46	0	0	5,197012	4,94325	91,1736	0,554	77,68	3,5	1006,04	7,1	9,1	9	1	1	1	1	1	1	1	1	1	0	1	-38,336857	274,510209	283,634369	0
14.01.2021	20:58:47	0	0	2,485528	4,62375	88,578	0,557	77,695	3,5	1006,14	7,1	9,1	9	1	1	1	1	1	1	1	1	1	0	1	-36,15222	274,438695	285,483623	0
14.01.2021	20:58:48	0	0	2,711485	4,563	90,7992	0,556	77,698	3,5	1006,14	7	9,1	9	1	1	1	1	1	1	1	1	1	0	1	-35,024665	274,551412	287,139909	0
14.01.2021	20:58:49	0	0	3,728314	4,4355	89,4996	0,555	77,693	3,5	1006,12	7,1	9,1	8,9	1	1	1	1	1	1	1	1	1	0	1	-33,333333	274,425031	288,238459	0
14.01.2021	20:58:50	0	0	2,485543	4,3755	101,1204	0,555	77,706	3,5	1006	7,1	9,1	8,9	1	1	1	1	1	1	1	1	1	0	1	-36,081748	274,405311	285,397623	0
14.01.2021	20:58:51	0	0	4,067252	4,16325	96,5808	0,552	77,73	3,5	1006,04	7,1	9,1	8,9	1	1	1	1	1	1	1	1	1	0	1	-35,306554	274,530036	286,757703	0
14.01.2021	20:58:52	0	0	4,180231	4,0425	98,0712	0,551	77,742	3,5	1006,02	7,1	9,1	8,9	1	1	1	1	1	1	1	1	1	0	1	-34,319944	274,595765	288,05286	0
14.01.2021	20:58:53	0	0	4,745098	4,128	96,9912	0,551	77,74	3,5	1005,96	7,1	9,1	9	1	1	1	1	1	1	1	1	1	0	1	-34,601832	274,520883	287,419473	0
14.01.2021	20:58:54	0	0	4,632148	4,338	80,4924	0,557	77,762	3,5	1006,06	7,1	9,1	8,9	1	1	1	1	1	1	1	1	1	0	1	-33,826638	274,437176	287,802085	0
14.01.2021	20:58:55	0	0	3,276397	4,4055	83,3688	0,555	77,767	3,5	1006,04	7,1	9,1	8,9	1	1	1	1	1	1	1	1	1	0	1	-36,011276	274,581989	286,296843	0
14.01.2021	20:58:56	0	0	3,163418	4,443	79,4232	0,556	77,784	3,5	1006,08	7,1	9,1	8,9	1	1	1	1	1	1	1	1	1	0	1	-35,16561	274,466052	286,5985	0
14.01.2021	20:58:57	0	0	3,502334	4,40025	67,2912	0,55	77,779	3,5	1006,02	7,1	9,1	9	1	1	1	1	1	1	1	1	1	0	1	-39,534884	274,405311	281,944487	0
14.01.2021	20:58:58	0	0	3,276358	4,73925	74,1564	0,549	77,799	3,5	1006,12	7,1	9,2	9,1	1	1	1	1	1	1	1	1	1	0	1	-39,7463	274,554467	282,432616	0
14.01.2021	20:58:59	0	0	3,163399	4,656	62,7984	0,555	77,815	3,5	1006	7,1	9,1	9	1	1	1	1	1	1	1	1	1	0	1	-35,658915	274,540721	286,455484	0
14.01.2021	20:59:00	0	0	4,293184	4,67175	68,0364	0,553	77,816	3,5	1006,24	7,1	9,1	9	1	1	1	1	1	1	1	1	1	0	1	-39,182523	274,566694	283,053789	0
14.01.2021	20:59:01	0	0	4,293184	4,67175	68,0364	0,553	77,816	3,5	1006,24	7,1	9,1	9	1	1	1	1	1	1	1	1	1	0	1	-39,182523	274,566694	283,053789	0
14.01.2021	20:59:02	0	0	3,84127	4,75275	60,5484	0,558	77,832	3,5	1006,02	7	9,2	9	1	1	1	1	1	1	1	1	1	0	1	-34,813249	274,426549	286,765657	0
14.01.2021	20:59:03	0	0	2,937442	4,758	65,0844	0,557	77,834	3,5	1006,04	7,1	9,1	9	1	1	1	1	1	1	1	1	1	0	1	-37,984496	274,520883	284,036809	0
14.01.2021	20:59:04	0	0	3,163399	4,85475	82,9836	0,555	77,834	3,5	1006,12	7	9,1	9	1	1	1	1	1	1	1	1	1	0	1	-37,77308	274,415927	283,756042	0
14.01.2021	20:59:05	0	0	2,824463	5,196	73,7748	0,55	77,836	3,5	1006,1	7	9,1	9	1	1	1	1	1	1	1	1	1	0	1	-35,024665	274,523933	287,010955	0
14.01.2021	20:59:06	0	0	4,519141	5,15325	77,9688	0,555	77,831	3,5	1006,08	7,1	9,1	9	1	1	1	1	1	1	1	1	1	0	1	-35,799859	274,403795	285,672407	0
14.01.2021	20:59:07	0	0	4,406163	5,166	85,896	0,548	77,841	3,5	1006,04	7,1	9,1	9	1	1	1	1	1	1	1	1	1	0	1	-37,279774	274,46301	284,470072	0
14.01.2021	20:59:08	0	0	3,163418	5,1525	85,1868	0,555	77,837	3,5	1006,1	7,1	9,1	8,9	1	1	1	1	1	1	1	1	1	0	1	-33,897111	274,585049	288,425377	0
14.01.2021	20:59:09	0	0	4,067252	5,286	80,8884	0,551	77,826	3,5	1006,06	7	9,1	8,9	1	1	1	1	1	1	1	1	1	0	1	-35,940803	274,559051	286,259631	0
14.01.2021	20:59:10	0	0	2,824463	5,23575	74,1744	0,555	77,835	3,5	1006,18	7	9,2	9	1	1	1	1	1	1	1	1	1	0	1	-36,927414	274,581989	285,380705	0
14.01.2021	20:59:11	0	0	3,615335	5,06325	72,6876	0,554	77,843	3,5	1006,12	7,1	9,1	8,9	1	1	1	1	1	1	1	1	1	0	1	-36,293164	274,499541	285,628015	0
14.01.2021	20:59:12	0	0	4,067227	4,76475	69,4584	0,551	77,841	3,5	1006,06	7	9,1	9	1	1	1	1	1	1	1	1	1	0	1	-32,840028	274,589641	289,504019	0
14.01.2021	20:59:13	0	0	4,180206	4,68825	73,782	0,554	77,822	3,5	1006,04	7,1	9,1	9	1	1	1	1	1	1	1	1	1	0	1	-35,447498	274,467573	286,323744	0
14.01.2021	20:59:14	0	0	4,406163	4,155	63,198	0,553	77,833	3,5	1006	7,1	9,2	9	1	1	1	1	1	1	1	1	1	0	1	-39,464412	274,600359	282,929966	0
14.01.2021	20:59:15	0	0	4,971055	3,91875	71,2188	0,557	77,843	3,5	1006,04	7,1	9,1	9	1	1	1	1	1	1	1	1	1	0	1	-32,55814	274,536141	289,534766	0
14.01.2021	20:59:16	0	0	4,067227	3,91875	84,4416	0,555	77,837	3,5	1006	7	9,1	9	1	1	1	1	1	1	1	1	1	0	1	-36,222692	274,426549	285,356214	0
14.01.2021	20:59:17	0	0	4,406163	4,0575	82,638	0,552	77,826	3,5	1006,08	7,1	9,1	9	1	1	1	1	1	1	1	1	1	0	1	-37,420719	274,47518	284,386195	0
14.01.2021	20:59:18	0	0	4,406163	4,01625	80,9028	0,558	77,845	3,5	1006,02	7,1	9,1	9	1	1	1	1	1	1	1	1	1	0	1	-36,786469	274,595765	285,586334	0
14.01.2021	20:59:19	0	0	4,406163	4,22475	80,9208	0,547	77,834	3,5	1006,16	7	9,1	9	1	1	1	1	1	1	1	1	1	0	1	-36,363636	274,46301	285,386211	0
14.01.2021	20:59:20	0	0	3,163418	4,596	83,3544	0,556	77,837	3,5	1006	7,1	9,2	8,9	1	1	1	1	1	1	1	1	1	0	1	-35,306554	274,428066	286,279467	0
14.01.2021	20:59:21	0	0	5,084003	4,79625	93,3408	0,549	77,842	3,5	1005,94	7,1	9,1	9,1	1	1	1	1	1	1	1	1	1	0	1	-32,205779	274,450849	289,487044	0
14.01.2021	20:59:22	0	0	3,84127	4,4625	95,1408	0,549	77,851	3,5	1006,16	7,1	9,1	9	1	1	1	1	1	1	1	1	1	0	1	-35,799859	274,577399	286,48671	0
14.01.2021	20:59:23	0	0	5,309991	3,92025	86,9904	0,555	77,829	3,5	1006,18	7	9,1	9	1	1	1	1	1	1	1	1	1	0	1	-39,957717	274,485834	281,899167	0
14.01.2021	20:59:24	0	0	3,050439	3,846	73,4256	0,554	77,837	3,5	1006,08	7,1	9,1	8,9	1	1	1	1	1	1	1	1	1	0	1	-36,081748	274,431103	285,518505	0
14.01.2021	20:59:25	0	0	3,728292	3,71925	84,078	0,554	77,842	3,5	1006,14	7,1	9,1	9	1	1	1	1	1	1	1	1	1	0	1	-37,13883	274,450849	284,553993	0
14.01.2021	20:59:26	0	0	3,389376	3,77325	79,4304	0,555	77,841	3,5	1006	7,1	9,1	8,9	1	1	1	1	1	1	1	1	1	0	1	-37,420719	274,418961	284,122624	0
14.01.2021	20:59:27	0	0	4,63212	4,053	76,8312	0,548	77,824	3,5	1006,08	7,1	9,1	9	1	1	1	1	1	1	1	1	1	0	1	-36,434109	274,490402	285,444201	0
14.01.2021	20:59:28	0	0	4,971055	4,3305	92,2788	0,558	77,85	3,5	1006,1	7,1	9,1	9	1	1	1	1	1	1	1	1	1	0	1	-34,53136	274,60955	287,906184	0
14.01.2021	20:59:29	0	0	4,067252	4,323	83,3832	0,555	77,832	3,5	1006,06	7,1	9,2	8,9	1	1	1	1	1	1	1	1	1	0	1	-34,460888	274,551412	287,703687	0
14.01.2021	20:59:30	0	0	3,276397	4,5495	93,7152	0,557	77,834	3,5	1006,16	7,1	9,1	8,9	1	1	1	1	1	1	1	1	1	0	1	-36,715997	274,421996	284,841569	0
14.01.2021	20:59:31	0	0	3,276377	4,64775	106,3044	0,551	77,826	3,5	1006,14	7,1	9,1	9	1	1	1	1	1	1	1	1	1	0	1	-40,098661	274,554467	282,080256	0
14.01.2021	20:59:32	0	0	3,728292	4,37325	87,3648	0,554	77,831	3,5	1005,96	7,1	9,1	9	1	1	1	1	1	1	1	1	1	0	1	-36,645525	274,415927	284,883597	0
14.01.2021	20:59:33	0	0	4,971055	3,972	77,2272	0,556	77,832	3,5	1005,94	7,1	9,1	9	1	1	1	1	1	1	1	1	1	0	1	-36,434109	274,559051	285,766326	0
14.01.2021	20:59:34	0	0	4,406163	3,64725	86,3028	0,553	77,804	3,5	1006,02	7,1	9,1	9	1	1	1	1	1	1	1	1	1	0	1	-39,252995	274,443252	282,40421	0
14.01.2021	20:59:35	0	0	3,841293	3,6435	62,0316	0,549	77,829	3,5	1006,14	7	9,1	8,9	1	1	1	1	1	1	1	1	1	0	1	-34,813249	274,546829	287,329818	0
14.01.2021	20:59:36	0	0	3,276377	3,6375	74,2716	0,548	77,817	3,5	1006,14	7,1	9,1	9	1	1	1	1	1	1	1	1	1	0	1	-36,715997	274,438695	284,919846	0
14.01.2021	20:59:37	0	0	3,502334	3,75675	96,6096	0,551	77,827	3,5	1006,08	7,1	9,1	9	1	1	1	1	1	1	1	1	1	0	1	-35,940803	274,546829	286,202263	0
14.01.2021	20:59:38	0	0	4,63212	3,57825	91,5048	0,548	77,828	3,5	1005,74	7,1	9,1	9	1	1	1	1	1	1	1	1	1	0	1	-36,715997	274,617213	285,757538	0
14.01.2021	20:59:39	0	0	3,389356	3,35925	98,4816	0,553	77,813	3,5	1006,06	7,1	9,1	9	1	1	1	1	1	1	1	1	1	0	1	-36,222692	274,472137	285,569951	0
14.01.2021	20:59:40	0	0	4,406189	3,40875	84,0312	0,551	77,829	3,5	1006,18	7,1	9,1	8,9	1	1	1	1	1	1	1	1	1	0	1	-39,534884	274,612615	282,917054	0
14.01.2021	20:59:41	0	0	4,406163	3,66	85,1832	0,553	77,839	3,5	1006,06	7,1	9,2	9	1	1	1	1	1	1	1	1	1	0	1	-39,041579	274,569752	283,209089	0
14.01.2021	20:59:42	0	0	2,598506	3,5685	84,4272	0,552	77,831	3,5	1006,14	7,1	9,1	9	1	1	1	1	1	1	1	1	1	0	1	-38,618746	274,569752	283,631922	0
14.01.2021	20:59:43	0	0	4,293184	3,828	89,712	0,553	77,833	3,5	1006,22	7,1	9,1	9	1	1	1	1	1	1	1	1	1	0	1	-37,420719	274,598827	284,966466	0
14.01.2021	20:59:44	0	0	2,711485	4,35675	81,9648	0,555	77,835	3,5	1006,18	7,1	9,1	9	1	1	1	1	1	1	1	1	1	0	1	-35,095137	274,563637	287,126822	0
14.01.2021	20:59:45	0	0	4,406136	5,028	95,5512	0,547	77,837	3,5	1006,16	7,1	9,1	9,1	1	1	1	1	1	1	1	1	1	0	1	-36,011276	274,581989	286,296843	0
14.01.2021	20:59:46	0	0	3,502355	5,3955	80,1576	0,549	77,845	3,5	1006,06	7,1	9,1	8,9	1	1	1	1	1	1	1	1	1	0	1	-35,024665	274,455409	286,689537	0
14.01.2021	20:59:47	0	0	4,293184	4,84125	78,282	0,555	77,836	3,5	1006,1	7,1	9,2	9	1	1	1	1	1	1	1	1	1	0	1	-37,420719	274,597296	284,959275	0
14.01.2021	20:59:48	0	0	4,180206	4,806	69,174	0,559	77,821	3,5	1006,04	7,1	9,2	9	1	1	1	1	1	1	1	1	1	0	1	-35,024665	274,516308	286,975173	0
14.01.2021	20:59:49	0	0	2,937442	4,8885	79,4052	0,553	77,833	3,5	1006,06	7,1	9,1	9	1	1	1	1	1	1	1	1	1	0	1	-36,856942	274,597296	285,523052	0
14.01.2021	20:59:50	0	0	3,84127	4,968	81,2124	0,554	77,838	3,5	1005,98	7,1	9,1	9	1	1	1	1	1	1	1	1	1	0	1	-30,796335	274,502589	291,13914	0
14.01.2021	20:59:51	0	0	2,937442	5,11725	75,0276	0,551	77,824	3,5	1006,12	7,1	9,1	9	1	1	1	1	1	1	1	1	1	0	1	-37,350247	274,604954	285,065711	0
14.01.2021	20:59:52	0	0	4,293184	5,63325	87,3576	0,555	77,812	3,5	1006,04	7,1	9,1	9	1	1	1	1	1	1	1	1	1	0	1	-36,081748	274,519358	285,932401	0
14.01.2021	20:59:53	0	0	3,05042	5,61375	95,5368	0,552	77,823	3,5	1006,16	7,1	9,1	9	1	1	1	1	1	1	1	1	1	0	1	-36,927414	274,434139	284,687073	0
14.01.2021	20:59:54	0	0	3,389356	5,3055	87,7464	0,555	77,824	3,5	1006,04	7,1	9,1	9	1	1	1	1	1	1	1	1	1	0	1	-35,870331	274,531562	286,201087	0
14.01.2021	20:59:55	0	0	3,615291	5,3445	96,9804	0,546	77,826	3,5	1006,14	7,1	9,1	9,1	1	1	1	1	1	1	1	1	1	0	1	-34,742777	274,438695	286,893066	0
14.01.2021	20:59:56	0	0	4,971085	5,4945	85,5432	0,547	77,828	3,5	1006,14	7,1	9,1	8,9	1	1	1	1	1	1	1	1	1	0	1	-39,252995	274,577399	283,033574	0
14.01.2021	20:59:57	0	0	2,711485	5,466	84,4056	0,556	77,852	3,5	1006,18	7,1	9,1	9	1	1	1	1	1	1	1	1	1	0	1	-38,266385	274,626412	284,250362	0
14.01.2021	20:59:58	0	0	4,406163	5,7015	80,118	0,552	77,84	3,5	1006,12	7,1	9,1	9	1	1	1	1	1	1	1	1	1	0	1	-32,628612	274,484312	289,221132	0
14.01.2021	20:59:59	0	0	2,372549	5,7765	88,9524	0,551	77,869	3,5	1006,06	7,1	9,1	9	1	1	1	1	1	1	1	1	1	0	1	-36,645525	274,426549	284,933381	0
14.01.2021	21:00:00	0	0	4,293184	5,229	101,8008	0,551	77,891	3,5	1006,1	7,1	9,1	9	1	1	1	1	1	1	1	1	1	0	1	-37,491191	274,490402	284,387119	0
14.01.2021	21:00:01	0	0	4,293184	5,229	101,8008	0,551	77,891	3,5	1006,1	7,1	9,1	9	1	1	1	1	1	1	1	1	1	0	1	-37,491191	274,490402	284,387119	0
14.01.2021	21:00:02	0	0	2,372549	4,91025	108,972	0,558	77,902	3,5	1006,22	7,1	9,1	9	1	1	1	1	1	1	1	1	1	0	1	-35,658915	274,425031	285,912877	0
14.01.2021	21:00:03	0	0	3,615313	4,50525	111,0708	0,549	77,895	3,5	1006,16	7,1	9,1	9	1	1	1	1	1	1	1	1	1	0	1	-32,55814	274,536141	289,534766	0
14.01.2021	21:00:04	0	0	4,858077	4,116	93,7332	0,554	77,918	3,5	1006,16	7	9,1	9	1	1	1	1	1	1	1	1	1	0	1	-36,997886	274,604954	285,418071	0
14.01.2021	21:00:05	0	0	4,293184	4,314	100,764	0,553	77,919	3,5	1006,04	7,1	9,1	9	1	1	1	1	1	1	1	1	1	0	1	-36,011276	274,502589	285,9242	0
14.01.2021	21:00:06	0	0	4,971055	4,5615	88,1136	0,553	77,929	3,5	1006,08	7,1	9,1	9	1	1	1	1	1	1	1	1	1	0	1	-37,843552	274,606486	284,5796	0
14.01.2021	21:00:07	0	0	2,824463	4,4505	95,1336	0,548	77,907	3,5	1006,12	7	9,1	9	1	1	1	1	1	1	1	1	1	0	1	-36,856942	274,585049	285,465547	0
14.01.2021	21:00:08	0	0	4,293184	4,30575	95,5548	0,551	77,904	3,5	1006,1	7,1	9,2	9	1	1	1	1	1	1	1	1	1	0	1	-35,729387	274,494971	286,170355	0
14.01.2021	21:00:09	0	0	3,728292	4,27125	84,8088	0,548	77,912	3,5	1005,96	7,1	9,1	9	1	1	1	1	1	1	1	1	1	0	1	-31,782946	274,612615	290,668992	0
14.01.2021	21:00:10	0	0	4,858106	3,90825	81,6732	0,547	77,914	3,5	1005,92	7,1	9,1	8,9	1	1	1	1	1	1	1	1	1	0	1	-34,038055	274,514783	287,954629	0
14.01.2021	21:00:11	0	0	4,180206	3,912	84,0708	0,558	77,93	3,5	1006,02	7,1	9,1	9	1	1	1	1	1	1	1	1	1	0	1	-39,252995	274,604954	283,162962	0
14.01.2021	21:00:12	0	0	3,276377	4,185	88,9632	0,552	77,928	3,5	1006,18	7,1	9,1	9	1	1	1	1	1	1	1	1	1	0	1	-34,249471	274,580459	288,051463	0
14.01.2021	21:00:13	0	0	3,276397	4,10475	75,996	0,55	77,929	3,5	1006,1	7,1	9,1	8,9	1	1	1	1	1	1	1	1	1	0	1	-35,870331	274,57587	286,409056	0
14.01.2021	21:00:14	0	0	4,519141	4,10625	100,7172	0,552	77,927	3,5	1006,08	7,1	9,1	9	1	1	1	1	1	1	1	1	1	0	1	-33,121917	274,444771	288,542411	0
14.01.2021	21:00:15	0	0	2,598506	4,146	91,8684	0,556	77,931	3,5	1006,12	7,1	9,1	9	1	1	1	1	1	1	1	1	1	0	1	-38,548273	274,552939	283,623472	0
14.01.2021	21:00:16	0	0	4,406163	3,92475	93,8052	0,556	77,934	3,5	1005,9	7,1	9,1	9	1	1	1	1	1	1	1	1	1	0	1	-37,068358	274,606486	285,354794	0
14.01.2021	21:00:17	0	0	3,05042	3,80475	96,5952	0,558	77,934	3,5	1006,22	7,1	9,1	9	1	1	1	1	1	1	1	1	1	0	1	-36,293164	274,566694	285,943148	0
14.01.2021	21:00:18	0	0	4,745098	3,86775	83,7504	0,557	77,914	3,5	1006,08	7,1	9,1	9	1	1	1	1	1	1	1	1	1	0	1	-38,75969	274,435658	282,861915	0
14.01.2021	21:00:19	0	0	2,598506	4,03575	94,7556	0,556	77,918	3,5	1006,14	7,1	9,1	9	1	1	1	1	1	1	1	1	1	0	1	-36,293164	274,481267	285,5423	0
14.01.2021	21:00:20	0	0	2,711485	4,2825	102,204	0,554	77,91	3,5	1006,02	7,1	9,2	9	1	1	1	1	1	1	1	1	1	0	1	-38,830162	274,612615	283,621776	0
14.01.2021	21:00:21	0	0	4,519141	4,362	80,1216	0,555	77,91	3,5	1006,12	7,1	9,1	9	1	1	1	1	1	1	1	1	1	0	1	-37,914024	274,577399	284,372545	0
14.01.2021	21:00:22	0	0	2,937442	4,152	70,8552	0,556	77,907	3,5	1006,04	7,1	9,2	9	1	1	1	1	1	1	1	1	1	0	1	-37,068358	274,479745	284,759968	0
14.01.2021	21:00:23	0	0	3,05042	3,86025	94,1112	0,553	77,901	3,5	1006,2	7,1	9,1	9	1	1	1	1	1	1	1	1	1	0	1	-32,980973	274,611082	289,463768	0
14.01.2021	21:00:24	0	0	2,711485	3,86475	85,6044	0,552	77,913	3,5	1006,02	7,1	9,1	9	1	1	1	1	1	1	1	1	1	0	1	-40,732911	274,443252	280,924295	0
14.01.2021	21:00:25	0	0	2,937442	3,852	97,7292	0,556	77,912	3,5	1006,24	7,1	9,1	9	1	1	1	1	1	1	1	1	1	0	1	-40,803383	274,487357	281,060642	0
14.01.2021	21:00:26	0	0	3,05042	4,041	96,6276	0,554	77,896	3,5	1006,06	7,1	9,2	9	1	1	1	1	1	1	1	1	1	0	1	-37,914024	274,435658	283,707581	0
14.01.2021	21:00:27	0	0	4,406163	4,58325	105,894	0,554	77,889	3,5	1005,96	7,1	9,1	9	1	1	1	1	1	1	1	1	1	0	1	-35,377026	274,58811	286,959834	0
14.01.2021	21:00:28	0	0	3,389376	4,7955	103,6728	0,557	77,878	3,5	1005,98	7,1	9,2	8,9	1	1	1	1	1	1	1	1	1	0	1	-37,702607	274,542248	284,418957	0
14.01.2021	21:00:29	0	0	4,745098	4,70925	105,1308	0,552	77,884	3,5	1006,08	7,1	9,1	9	1	1	1	1	1	1	1	1	1	0	1	-33,403805	274,603422	289,004958	0
14.01.2021	21:00:30	0	0	3,615335	4,78725	107,748	0,555	77,873	3,5	1006,06	7,1	9,2	8,9	1	1	1	1	1	1	1	1	1	0	1	-37,702607	274,522408	284,325855	0
14.01.2021	21:00:31	0	0	3,502334	4,782	109,6884	0,556	77,859	3,5	1006,06	7,1	9,2	9	1	1	1	1	1	1	1	1	1	0	1	-37,350247	274,595765	285,022557	0
14.01.2021	21:00:32	0	0	3,615313	4,74375	95,8572	0,557	77,872	3,5	1006	7,1	9,1	9	1	1	1	1	1	1	1	1	1	0	1	-37,632135	274,620279	284,855801	0
14.01.2021	21:00:33	0	0	2,711485	5,355	114,1272	0,556	77,851	3,5	1006,24	7,1	9,1	9	1	1	1	1	1	1	1	1	1	0	1	-38,900634	274,565165	283,328501	0
14.01.2021	21:00:34	0	0	4,63212	5,29275	82,3536	0,561	77,867	3,5	1006,06	7,1	9,2	9	1	1	1	1	1	1	1	1	1	0	1	-37,702607	274,591172	284,648628	0
14.01.2021	21:00:35	0	0	3,163399	5,10975	88,1064	0,554	77,857	3,5	1006,08	7,1	9,1	9	1	1	1	1	1	1	1	1	1	0	1	-35,870331	274,431103	285,729921	0
14.01.2021	21:00:36	0	0	2,711485	4,95	88,974	0,558	77,852	3,5	1005,96	7,1	9,2	9	1	1	1	1	1	1	1	1	1	0	1	-30,655391	274,57587	291,623997	0
14.01.2021	21:00:37	0	0	3,84127	4,40925	88,9452	0,559	77,854	3,5	1006,16	7,1	9,2	9	1	1	1	1	1	1	1	1	1	0	1	-38,477801	274,617213	283,995734	0
14.01.2021	21:00:38	0	0	4,63212	4,0605	89,4384	0,557	77,858	3,5	1006,18	7,1	9,1	9	1	1	1	1	1	1	1	1	1	0	1	-40,732911	274,568223	281,510579	0
14.01.2021	21:00:39	0	0	2,259571	4,0695	81,6264	0,554	77,86	3,5	1005,96	7,1	9,1	9	1	1	1	1	1	1	1	1	1	0	1	-37,068358	274,501065	284,859969	0
14.01.2021	21:00:40	0	0	4,293184	4,51875	103,6656	0,565	77,869	3,5	1006,26	7,1	9,1	9	1	1	1	1	1	1	1	1	1	0	1	-35,940803	274,464531	285,816175	0
14.01.2021	21:00:41	0	0	3,615335	4,51875	98,4744	0,553	77,856	3,5	1006,04	7,1	9,1	8,9	1	1	1	1	1	1	1	1	1	0	1	-38,336857	274,421996	283,220709	0
14.01.2021	21:00:42	0	0	2,824446	4,7265	85,2948	0,553	77,853	3,5	1006,02	7,1	9,1	9,1	1	1	1	1	1	1	1	1	1	0	1	-36,434109	274,479745	285,394217	0
14.01.2021	21:00:43	0	0	5,084034	4,46325	108,9144	0,554	77,851	3,5	1006,1	7,1	9,2	9	1	1	1	1	1	1	1	1	1	0	1	-36,575053	274,435658	285,046552	0
14.01.2021	21:00:44	0	0	2,711485	4,29825	105,8796	0,553	77,85	3,5	1006,06	7	9,2	9	1	1	1	1	1	1	1	1	1	0	1	-36,786469	274,469094	284,991906	0
14.01.2021	21:00:45	0	0	3,615313	4,38075	107,4492	0,555	77,859	3,5	1006	7,1	9,1	9	1	1	1	1	1	1	1	1	1	0	1	-36,222692	274,488879	285,648475	0
14.01.2021	21:00:46	0	0	4,067227	4,587	94,392	0,565	77,859	3,5	1006,06	7,1	9,2	9	1	1	1	1	1	1	1	1	1	0	1	-32,205779	274,60955	290,231765	0
14.01.2021	21:00:47	0	0	2,824463	4,40025	103,3128	0,563	77,857	3,5	1006,28	7,1	9,1	9	1	1	1	1	1	1	1	1	1	0	1	-35,588443	274,498018	286,32559	0
14.01.2021	21:00:48	0	0	4,293184	3,95625	71,604	0,561	77,836	3,5	1006,12	7,1	9,2	9	1	1	1	1	1	1	1	1	1	0	1	-36,363636	274,60189	286,037933	0
14.01.2021	21:00:49	0	0	4,519141	3,7125	76,824	0,558	77,851	3,5	1006,14	7,1	9,1	9	1	1	1	1	1	1	1	1	1	0	1	-34,53136	274,441733	287,118724	0
14.01.2021	21:00:50	0	0	3,728292	3,2955	75,978	0,557	77,854	3,5	1006,02	7,1	9,1	9	1	1	1	1	1	1	1	1	1	0	1	-37,209302	274,612615	285,242636	0
14.01.2021	21:00:51	0	0	3,728292	2,8605	85,1724	0,557	77,854	3,5	1006	7,1	9,2	9	1	1	1	1	1	1	1	1	1	0	1	-34,813249	274,52851	287,243848	0
14.01.2021	21:00:52	0	0	3,84127	2,64525	74,538	0,559	77,837	3,5	1006,12	7,1	9,1	9	1	1	1	1	1	1	1	1	1	0	1	-36,011276	274,594233	286,354338	0
14.01.2021	21:00:53	0	0	4,971055	2,34825	78,3684	0,562	77,863	3,5	1005,96	7,1	9,1	9	1	1	1	1	1	1	1	1	1	0	1	-39,464412	274,565165	282,764724	0
14.01.2021	21:00:54	0	0	2,711501	2,361	86,2884	0,555	77,846	3,5	1006,04	7,1	9,1	8,9	1	1	1	1	1	1	1	1	1	0	1	-36,222692	274,452369	285,477257	0
14.01.2021	21:00:55	0	0	3,728292	2,44425	87,372	0,558	77,852	3,5	1006,16	7,1	9,1	9	1	1	1	1	1	1	1	1	1	0	1	-35,940803	274,425031	285,630989	0
14.01.2021	21:00:56	0	0	4,067203	2,8485	86,958	0,555	77,845	3,5	1006,04	7,1	9,1	9,1	1	1	1	1	1	1	1	1	1	0	1	-37,984496	274,571281	284,273351	0
14.01.2021	21:00:57	0	0	3,163399	3,411	85,1976	0,563	77,829	3,5	1006,02	7,1	9,1	9	1	1	1	1	1	1	1	1	1	0	1	-37,491191	274,618746	284,989544	0
14.01.2021	21:00:58	0	0	3,84127	3,71625	84,4308	0,558	77,818	3,5	1006,04	7,1	9,1	9	1	1	1	1	1	1	1	1	1	0	1	-33,967583	274,432621	287,639786	0
14.01.2021	21:00:59	0	0	4,406163	3,6585	83,7252	0,552	77,825	3,5	1006,18	7,1	9,1	9	1	1	1	1	1	1	1	1	1	0	1	-37,350247	274,562108	284,864537	0
14.01.2021	21:01:00	0	0	3,615313	3,61275	84,438	0,549	77,818	3,5	1005,94	7,1	9,1	9	1	1	1	1	1	1	1	1	1	0	1	-41,085271	274,606486	281,337881	0
14.01.2021	21:01:01	0	0	4,519141	3,459	80,514	0,557	77,824	3,5	1006,1	7,1	9,1	9	1	1	1	1	1	1	1	1	1	0	1	-41,085271	274,606486	281,337881	0
14.01.2021	21:01:02	0	0	4,519141	3,459	80,514	0,557	77,824	3,5	1006,1	7,1	9,1	9	1	1	1	1	1	1	1	1	1	0	1	-36,504581	274,57587	285,774807	0
14.01.2021	21:01:03	0	0	4,406163	3,62625	75,2256	0,561	77,821	3,5	1006,16	7,1	9,1	9	1	1	1	1	1	1	1	1	1	0	1	-36,856942	274,555995	285,329147	0
14.01.2021	21:01:04	0	0	3,728314	3,89475	69,2352	0,551	77,827	3,5	1006,16	7,1	9,1	8,9	1	1	1	1	1	1	1	1	1	0	1	-38,407329	274,438695	283,228514	0
14.01.2021	21:01:05	0	0	3,728292	3,98325	72,6768	0,558	77,834	3,5	1006,04	7,1	9,1	9	1	1	1	1	1	1	1	1	1	0	1	-37,702607	274,571281	284,555239	0
14.01.2021	21:01:06	0	0	3,954249	4,05675	77,976	0,559	77,818	3,5	1006,1	7,1	9,1	9	1	1	1	1	1	1	1	1	1	0	1	-38,75969	274,498018	283,154343	0
14.01.2021	21:01:07	0	0	4,745098	4,131	93,3408	0,549	77,813	3,5	1006,1	7,1	9,1	9	1	1	1	1	1	1	1	1	1	0	1	-39,393939	274,614147	283,065197	0
14.01.2021	21:01:08	0	0	4,180206	4,8045	96,5772	0,552	77,816	3,5	1006,08	7,1	9,1	9	1	1	1	1	1	1	1	1	1	0	1	-36,222692	274,418961	285,32065	0
14.01.2021	21:01:09	0	0	3,84127	5,238	75,6144	0,557	77,809	3,5	1006,1	7,1	9,2	9	1	1	1	1	1	1	1	1	1	0	1	-41,226216	274,549884	280,931189	0
14.01.2021	21:01:10	0	0	4,971055	5,283	77,5944	0,555	77,818	3,5	1006,14	7,1	9,2	9	1	1	1	1	1	1	1	1	1	0	1	-31,712474	274,565165	290,516662	0
14.01.2021	21:01:11	0	0	3,163399	4,9725	99,54	0,557	77,812	3,5	1005,98	7,1	9,1	9	1	1	1	1	1	1	1	1	1	0	1	-31,148696	274,434139	290,46579	0
14.01.2021	21:01:12	0	0	3,502334	5,03175	101,52	0,556	77,803	3,5	1005,92	7,1	9,1	9	1	1	1	1	1	1	1	1	1	0	1	-37,350247	274,50716	284,606677	0
14.01.2021	21:01:13	0	0	3,728292	4,50375	99,9108	0,556	77,806	3,5	1006,02	7,1	9,1	9	1	1	1	1	1	1	1	1	1	0	1	-40,38055	274,444771	281,283778	0
14.01.2021	21:01:14	0	0	2,259571	3,9885	91,5192	0,558	77,794	3,5	1005,98	7,1	9,1	9	1	1	1	1	1	1	1	1	1	0	1	-37,420719	274,431103	284,179533	0
14.01.2021	21:01:15	0	0	3,05042	3,927	89,7984	0,556	77,787	3,5	1006,12	7,1	9,1	9	1	1	1	1	1	1	1	1	1	0	1	-33,121917	274,490402	288,756393	0
14.01.2021	21:01:16	0	0	2,711485	4,1415	72,2916	0,556	77,779	3,5	1006,04	7,1	9,1	9	1	1	1	1	1	1	1	1	1	0	1	-33,121917	274,44629	288,549534	0
14.01.2021	21:01:17	0	0	3,163399	4,12725	77,5548	0,558	77,786	3,5	1006,24	7,1	9,1	9	1	1	1	1	1	1	1	1	1	0	1	-33,121917	274,467573	288,649325	0
14.01.2021	21:01:18	0	0	3,84127	4,4475	93,9672	0,556	77,768	3,5	1006,04	7,1	9,2	9	1	1	1	1	1	1	1	1	1	0	1	-35,024665	274,431103	286,575587	0
14.01.2021	21:01:19	0	0	4,519168	4,359	84,1284	0,556	77,788	3,5	1006,04	7,1	9,1	8,9	1	1	1	1	1	1	1	1	1	0	1	-37,632135	274,453888	284,07494	0
14.01.2021	21:01:20	0	0	3,05042	4,4145	76,374	0,556	77,759	3,5	1006,02	7,1	9,2	9	1	1	1	1	1	1	1	1	1	0	1	-38,407329	274,473658	283,392449	0
14.01.2021	21:01:21	0	0	3,615313	5,15325	90,3744	0,546	77,769	3,5	1006	7,1	9,2	9	1	1	1	1	1	1	1	1	1	0	1	-36,293164	274,501065	285,635163	0
14.01.2021	21:01:22	0	0	2,598506	5,541	80,5176	0,553	77,765	3,5	1006,06	7,1	9,1	9	1	1	1	1	1	1	1	1	1	0	1	-40,521494	274,604954	281,894463	0
14.01.2021	21:01:23	0	0	2,937442	5,5725	74,1744	0,557	77,769	3,5	1006,04	7,1	9,2	9	1	1	1	1	1	1	1	1	1	0	1	-39,605356	274,428066	281,980665	0
14.01.2021	21:01:24	0	0	3,954249	5,63925	70,8372	0,552	77,751	3,5	1006,08	7,1	9,2	9	1	1	1	1	1	1	1	1	1	0	1	-33,262861	274,581989	289,045257	0
14.01.2021	21:01:25	0	0	2,824463	5,6085	80,91	0,56	77,752	3,5	1006,1	7,1	9,1	9	1	1	1	1	1	1	1	1	1	0	1	-37,350247	274,597296	285,029747	0
14.01.2021	21:01:26	0	0	4,293184	5,52525	80,2404	0,549	77,73	3,5	1006,1	7,1	9,1	9	1	1	1	1	1	1	1	1	1	0	1	-36,363636	274,453888	285,343439	0
14.01.2021	21:01:27	0	0	4,293184	5,136	94,0968	0,562	77,731	3,5	1006,08	7,1	9,1	9	1	1	1	1	1	1	1	1	1	0	1	-38,830162	274,533089	283,248418	0
14.01.2021	21:01:28	0	0	2,711485	5,1405	75,996	0,56	77,726	3,5	1006,1	7,1	9,1	9	1	1	1	1	1	1	1	1	1	0	1	-36,15222	274,440214	285,490743	0
14.01.2021	21:01:29	0	0	3,728292	4,54725	86,6736	0,553	77,736	3,5	1006,12	7,1	9,2	9	1	1	1	1	1	1	1	1	1	0	1	-38,971106	274,456929	282,750223	0
14.01.2021	21:01:30	0	0	2,937442	4,16175	83,4336	0,55	77,737	3,5	1005,94	7,1	9,1	9	1	1	1	1	1	1	1	1	1	0	1	-33,474278	274,523933	288,561342	0
14.01.2021	21:01:31	0	0	4,293184	3,84525	80,136	0,554	77,747	3,5	1006	7,1	9,1	9	1	1	1	1	1	1	1	1	1	0	1	-40,239605	274,606486	282,183547	0
14.01.2021	21:01:32	0	0	4,858077	3,91125	96,9624	0,55	77,743	3,5	1005,9	7,1	9,1	9	1	1	1	1	1	1	1	1	1	0	1	-43,410853	274,595765	278,96195	0
14.01.2021	21:01:33	0	0	3,389356	3,8895	76,0788	0,555	77,761	3,5	1006,16	7,1	9,2	9	1	1	1	1	1	1	1	1	1	0	1	-35,447498	274,511733	286,53088	0
14.01.2021	21:01:34	0	0	2,711485	3,8355	94,3848	0,552	77,775	3,5	1006	7,1	9,1	9	1	1	1	1	1	1	1	1	1	0	1	-39,534884	274,429584	282,058252	0
14.01.2021	21:01:35	0	0	4,745098	3,615	79,3872	0,551	77,789	3,5	1006,22	7,1	9,1	9	1	1	1	1	1	1	1	1	1	0	1	-37,561663	274,548357	284,588572	0
14.01.2021	21:01:36	0	0	4,406163	3,5055	88,56	0,559	77,793	3,5	1006,04	7,1	9,2	9	1	1	1	1	1	1	1	1	1	0	1	-38,477801	274,453888	283,229274	0
14.01.2021	21:01:37	0	0	2,598506	3,6645	90,7848	0,559	77,803	3,5	1006,06	7	9,1	9	1	1	1	1	1	1	1	1	1	0	1	-39,534884	274,426549	282,044022	0
14.01.2021	21:01:38	0	0	3,728292	3,771	90,7704	0,554	77,803	3,5	1006	7,1	9,1	9	1	1	1	1	1	1	1	1	1	0	1	-34,883721	274,57434	287,388486	0
14.01.2021	21:01:39	0	0	4,067227	3,681	87,3612	0,554	77,822	3,5	1006,12	7,1	9,1	9	1	1	1	1	1	1	1	1	1	0	1	-40,732911	274,440214	280,910053	0
14.01.2021	21:01:40	0	0	4,63212	3,6495	77,2308	0,55	77,826	3,5	1006,14	7,1	9,2	9	1	1	1	1	1	1	1	1	1	0	1	-39,816772	274,426549	281,762134	0
14.01.2021	21:01:41	0	0	4,293184	3,62775	80,9064	0,551	77,817	3,5	1006,14	7,1	9,2	9	1	1	1	1	1	1	1	1	1	0	1	-32,417195	274,504112	289,525429	0
14.01.2021	21:01:42	0	0	2,259571	3,582	76,3812	0,553	77,804	3,5	1005,94	7,1	9,2	9	1	1	1	1	1	1	1	1	1	0	1	-37,561663	274,585049	284,760825	0
14.01.2021	21:01:43	0	0	3,163399	3,891	66,9276	0,558	77,818	3,5	1006,14	7,1	9,2	9	1	1	1	1	1	1	1	1	1	0	1	-36,786469	274,434139	284,828017	0
14.01.2021	21:01:44	0	0	3,954249	4,182	67,2696	0,553	77,797	3,5	1006	7,1	9,1	9	1	1	1	1	1	1	1	1	1	0	1	-36,856942	274,501065	285,071386	0
14.01.2021	21:01:45	0	0	4,519141	4,572	73,044	0,554	77,818	3,5	1006,12	7,1	9,2	9	1	1	1	1	1	1	1	1	1	0	1	-37,209302	274,426549	284,369604	0
14.01.2021	21:01:46	0	0	4,067227	4,22775	59,8752	0,55	77,825	3,5	1005,94	7,1	9,2	9	1	1	1	1	1	1	1	1	1	0	1	-36,222692	274,516308	285,777146	0
14.01.2021	21:01:47	0	0	3,502334	3,50325	71,9892	0,558	77,836	3,5	1006,08	7,1	9,2	9	1	1	1	1	1	1	1	1	1	0	1	-41,36716	274,562108	280,847624	0
14.01.2021	21:01:48	0	0	3,954249	3,53025	84,4128	0,547	77,824	3,5	1006	7,1	9,2	9	1	1	1	1	1	1	1	1	1	0	1	-36,15222	274,606486	286,270932	0
14.01.2021	21:01:49	0	0	4,293184	3,663	71,5896	0,553	77,835	3,5	1006,26	7,1	9,1	9	1	1	1	1	1	1	1	1	1	0	1	-35,799859	274,606486	286,623293	0
14.01.2021	21:01:50	0	0	4,63212	3,56775	87,3612	0,548	77,814	3,5	1006,02	7,1	9,1	9	1	1	1	1	1	1	1	1	1	0	1	-36,856942	274,485834	284,999942	0
14.01.2021	21:01:51	0	0	3,276377	3,1185	74,5524	0,55	77,812	3,5	1006,06	7,1	9,2	9	1	1	1	1	1	1	1	1	1	0	1	-40,38055	274,60955	282,056994	0
14.01.2021	21:01:52	0	0	3,615313	2,8815	80,5356	0,556	77,809	3,5	1006,1	7,1	9,2	9	1	1	1	1	1	1	1	1	1	0	1	-34,601832	274,438695	287,034011	0
14.01.2021	21:01:53	0	0	4,519141	3,0975	91,872	0,555	77,814	3,5	1006,1	7,1	9,1	9	1	1	1	1	1	1	1	1	1	0	1	-36,081748	274,519358	285,932401	0
14.01.2021	21:01:54	0	0	3,502334	3,54375	90,036	0,563	77,796	3,5	1006,1	7,1	9,2	9	1	1	1	1	1	1	1	1	1	0	1	-35,447498	274,438695	286,188345	0
14.01.2021	21:01:55	0	0	4,858077	4,34025	84,0636	0,555	77,804	3,5	1005,92	7,1	9,1	9	1	1	1	1	1	1	1	1	1	0	1	-36,081748	274,429584	285,511388	0
14.01.2021	21:01:56	0	0	3,05042	5,08725	82,9728	0,546	77,814	3,5	1006	7,1	9,2	9	1	1	1	1	1	1	1	1	1	0	1	-36,856942	274,534615	285,228801	0
14.01.2021	21:01:57	0	0	4,745098	5,17575	88,9308	0,556	77,81	3,5	1006	7,1	9,1	9	1	1	1	1	1	1	1	1	1	0	1	-38,900634	274,569752	283,350034	0
14.01.2021	21:01:58	0	0	3,163399	5,31525	82,6308	0,557	77,829	3,5	1006,18	7,1	9,1	9	1	1	1	1	1	1	1	1	1	0	1	-39,464412	274,608018	282,965936	0
14.01.2021	21:01:59	0	0	4,971055	5,271	86,2776	0,558	77,84	3,5	1006,1	7,1	9,2	9	1	1	1	1	1	1	1	1	1	0	1	-41,226216	274,467573	280,545026	0
14.01.2021	21:02:00	0	0	4,293184	5,4315	77,2164	0,555	77,85	3,5	1006,1	7,1	9,2	9	1	1	1	1	1	1	1	1	1	0	1	-36,504581	274,418961	285,038762	0
14.01.2021	21:02:01	0	0	2,937442	6,07875	81,5904	0,554	77,839	3,5	1006,18	7,1	9,2	9	1	1	1	1	1	1	1	1	1	0	1	-42,98802	274,494971	278,911722	0
14.01.2021	21:02:02	0	0	2,937442	6,07875	81,5904	0,554	77,839	3,5	1006,18	7,1	9,2	9	1	1	1	1	1	1	1	1	1	0	1	-42,98802	274,494971	278,911722	0
14.01.2021	21:02:03	0	0	3,728292	6,43725	73,4364	0,555	77,857	3,5	1006,16	7,1	9,1	9	1	1	1	1	1	1	1	1	1	0	1	-40,521494	274,542248	281,600071	0
14.01.2021	21:02:04	0	0	4,067227	6,354	88,1244	0,55	77,848	3,5	1006,12	7,1	9,1	9	1	1	1	1	1	1	1	1	1	0	1	-36,011276	274,606486	286,411877	0
14.01.2021	21:02:05	0	0	4,406163	6,1005	83,718	0,552	77,851	3,5	1006,04	7,1	9,1	9	1	1	1	1	1	1	1	1	1	0	1	-37,13883	274,438695	284,497013	0
14.01.2021	21:02:06	0	0	4,519141	6,012	85,1796	0,554	77,861	3,5	1006,14	7,1	9,2	9	1	1	1	1	1	1	1	1	1	0	1	-32,840028	274,514783	289,152656	0
14.01.2021	21:02:07	0	0	4,519141	5,7405	86,3064	0,547	77,865	3,5	1006,06	7,1	9,2	9	1	1	1	1	1	1	1	1	1	0	1	-41,578576	274,598827	280,808609	0
14.01.2021	21:02:08	0	0	2,937442	5,5035	81,2088	0,556	77,878	3,5	1006,12	7,1	9,2	9	1	1	1	1	1	1	1	1	1	0	1	-39,605356	274,458449	282,123102	0
14.01.2021	21:02:09	0	0	3,276377	5,55075	75,2256	0,558	77,876	3,5	1006,2	7,1	9,2	9	1	1	1	1	1	1	1	1	1	0	1	-41,085271	274,510209	280,885954	0
14.01.2021	21:02:10	0	0	2,598506	5,72325	80,1432	0,561	77,875	3,5	1006,2	7,1	9,1	9	1	1	1	1	1	1	1	1	1	0	1	-40,732911	274,440214	280,910053	0
14.01.2021	21:02:11	0	0	4,406163	5,4315	70,2252	0,551	77,859	3,5	1006,06	7,1	9,2	9	1	1	1	1	1	1	1	1	1	0	1	-38,830162	274,617213	283,643373	0
14.01.2021	21:02:12	0	0	2,937442	5,5755	70,6176	0,552	77,877	3,5	1006,08	7,1	9,2	9	1	1	1	1	1	1	1	1	1	0	1	-40,38055	274,565165	281,848586	0
14.01.2021	21:02:13	0	0	3,728292	5,52225	70,6104	0,56	77,866	3,5	1006,1	7,1	9,2	9	1	1	1	1	1	1	1	1	1	0	1	-39,393939	274,44629	282,277511	0
14.01.2021	21:02:14	0	0	4,406163	5,37075	65,0844	0,558	77,862	3,5	1006,1	7,1	9,2	9	1	1	1	1	1	1	1	1	1	0	1	-37,77308	274,437176	283,855644	0
14.01.2021	21:02:15	0	0	3,05042	5,028	77,6088	0,56	77,875	3,5	1006,24	7,1	9,1	9	1	1	1	1	1	1	1	1	1	0	1	-38,830162	274,536141	283,262744	0
14.01.2021	21:02:16	0	0	4,63212	5,02125	80,154	0,553	77,864	3,5	1006,2	7,1	9,1	9	1	1	1	1	1	1	1	1	1	0	1	-35,51797	274,428066	286,06805	0
14.01.2021	21:02:17	0	0	3,615313	5,0565	74,2536	0,557	77,863	3,5	1005,9	7,1	9,2	9	1	1	1	1	1	1	1	1	1	0	1	-39,957717	274,441733	281,692367	0
14.01.2021	21:02:18	0	0	4,63212	5,1675	74,5344	0,557	77,847	3,5	1006,14	7,1	9,2	9	1	1	1	1	1	1	1	1	1	0	1	-37,279774	274,513258	284,705756	0
14.01.2021	21:02:19	0	0	2,937442	5,2035	73,0836	0,563	77,862	3,5	1005,9	7,1	9,1	9	1	1	1	1	1	1	1	1	1	0	1	-35,588443	274,614147	286,870694	0
14.01.2021	21:02:20	0	0	3,84127	4,9065	73,4256	0,558	77,842	3,5	1005,88	7,1	9,2	9	1	1	1	1	1	1	1	1	1	0	1	-38,266385	274,620279	284,221551	0
14.01.2021	21:02:21	0	0	3,276377	4,8765	71,9784	0,557	77,841	3,5	1006,06	7,1	9,2	9	1	1	1	1	1	1	1	1	1	0	1	-38,477801	274,569752	283,772867	0
14.01.2021	21:02:22	0	0	3,163399	4,80225	78,6708	0,555	77,834	3,5	1006,02	7,1	9,2	9	1	1	1	1	1	1	1	1	1	0	1	-40,873855	274,449329	280,811843	0
14.01.2021	21:02:23	0	0	2,937442	4,79325	78,6528	0,557	77,824	3,5	1006,06	7,1	9,2	9	1	1	1	1	1	1	1	1	1	0	1	-38,266385	274,498018	283,647648	0
14.01.2021	21:02:24	0	0	3,389356	4,71825	74,9412	0,552	77,83	3,5	1006,06	7,1	9,1	9	1	1	1	1	1	1	1	1	1	0	1	-36,081748	274,490402	285,796562	0
14.01.2021	21:02:25	0	0	2,824463	4,686	74,6604	0,559	77,81	3,5	1006,02	7,1	9,2	9	1	1	1	1	1	1	1	1	1	0	1	-39,393939	274,618746	283,086796	0
14.01.2021	21:02:26	0	0	4,519141	4,8105	82,602	0,556	77,813	3,5	1006,12	7,1	9,1	9	1	1	1	1	1	1	1	1	1	0	1	-39,7463	274,479745	282,082026	0
14.01.2021	21:02:27	0	0	5,084034	4,6695	79,0164	0,555	77,805	3,5	1006,06	7,1	9,2	9	1	1	1	1	1	1	1	1	1	0	1	-41,014799	274,522408	281,013663	0
14.01.2021	21:02:28	0	0	3,954249	4,7925	77,2128	0,562	77,779	3,5	1006,04	7,1	9,2	9	1	1	1	1	1	1	1	1	1	0	1	-39,393939	274,627946	283,130012	0
14.01.2021	21:02:29	0	0	4,971055	4,7295	78,6636	0,556	77,782	3,5	1006,14	7,1	9,2	9	1	1	1	1	1	1	1	1	1	0	1	-40,38055	274,621812	282,114588	0
14.01.2021	21:02:30	0	0	4,745098	4,6185	81,954	0,558	77,777	3,5	1006,06	7,1	9,2	9	1	1	1	1	1	1	1	1	1	0	1	-41,085271	274,56058	281,122338	0
14.01.2021	21:02:31	0	0	4,180206	4,59	79,7616	0,56	77,776	3,5	1006,02	7,1	9,2	9	1	1	1	1	1	1	1	1	1	0	1	-36,434109	274,473658	285,36567	0
14.01.2021	21:02:32	0	0	3,05042	4,56375	75,3228	0,559	77,772	3,5	1005,92	7,1	9,1	9	1	1	1	1	1	1	1	1	1	0	1	-39,534884	274,617213	282,938651	0
14.01.2021	21:02:33	0	0	2,824463	4,44225	68,3892	0,555	77,763	3,5	1006,08	7,1	9,2	9	1	1	1	1	1	1	1	1	1	0	1	-39,957717	274,453888	281,749358	0
14.01.2021	21:02:34	0	0	3,502334	4,293	73,4436	0,56	77,747	3,5	1005,92	7,1	9,2	9	1	1	1	1	1	1	1	1	1	0	1	-40,451022	274,577399	281,835548	0
14.01.2021	21:02:35	0	0	2,711485	4,029	73,8576	0,566	77,75	3,5	1006,12	7,1	9,2	9	1	1	1	1	1	1	1	1	1	0	1	-41,719521	274,485834	280,137363	0
14.01.2021	21:02:36	0	0	3,163399	4,12425	69,4476	0,558	77,72	3,5	1006,04	7,1	9,2	9	1	1	1	1	1	1	1	1	1	0	1	-38,971106	274,481267	282,864358	0
14.01.2021	21:02:37	0	0	3,728292	4,14975	67,3236	0,556	77,739	3,5	1006,14	7,1	9,1	9	1	1	1	1	1	1	1	1	1	0	1	-41,296688	274,50716	280,660236	0
14.01.2021	21:02:38	0	0	2,033614	4,29825	95,1372	0,558	77,741	3,5	1005,98	7,1	9,2	9	1	1	1	1	1	1	1	1	1	0	1	-38,477801	274,638685	284,096601	0
14.01.2021	21:02:39	0	0	4,293184	4,305	88,9524	0,556	77,731	3,5	1006,04	7,1	9,2	9	1	1	1	1	1	1	1	1	1	0	1	-39,182523	274,494971	282,717219	0
14.01.2021	21:02:40	0	0	3,84127	4,299	82,62	0,555	77,727	3,5	1006,1	7,1	9,2	9	1	1	1	1	1	1	1	1	1	0	1	-41,296688	274,612615	281,15525	0
14.01.2021	21:02:41	0	0	2,824463	4,191	77,2164	0,561	77,725	3,5	1006,06	7,1	9,1	9	1	1	1	1	1	1	1	1	1	0	1	-38,477801	274,449329	283,207897	0
14.01.2021	21:02:42	0	0	4,067227	4,635	102,2328	0,56	77,714	3,5	1006,04	7,1	9,1	9	1	1	1	1	1	1	1	1	1	0	1	-40,169133	274,57434	282,103074	0
14.01.2021	21:02:43	0	0	2,711485	4,69875	91,1808	0,563	77,708	3,5	1006,3	7,1	9,1	9	1	1	1	1	1	1	1	1	1	0	1	-36,434109	274,459969	285,301478	0
14.01.2021	21:02:44	0	0	3,163399	4,62	100,7496	0,563	77,701	3,5	1006,1	7,1	9,2	9	1	1	1	1	1	1	1	1	1	0	1	-35,870331	274,504112	286,072293	0
14.01.2021	21:02:45	0	0	2,598506	4,6515	86,6772	0,564	77,692	3,5	1006,1	7,1	9,1	9	1	1	1	1	1	1	1	1	1	0	1	-41,437632	274,482789	280,404971	0
14.01.2021	21:02:46	0	0	3,05042	4,60875	83,3796	0,565	77,693	3,5	1006,06	7,1	9,2	9	1	1	1	1	1	1	1	1	1	0	1	-41,789993	274,634082	280,762783	0
14.01.2021	21:02:47	0	0	4,745098	4,36125	79,4088	0,559	77,686	3,5	1006,04	7,1	9,2	9	1	1	1	1	1	1	1	1	1	0	1	-42,706131	274,545302	279,429768	0
14.01.2021	21:02:48	0	0	2,598506	4,14225	90,0288	0,561	77,698	3,5	1006,18	7,1	9,2	9	1	1	1	1	1	1	1	1	1	0	1	-37,420719	274,635616	285,139265	0
14.01.2021	21:02:49	0	0	3,276377	4,15425	88,11	0,56	77,674	3,5	1006,1	7,1	9,1	9	1	1	1	1	1	1	1	1	1	0	1	-39,675828	274,466052	282,088282	0
14.01.2021	21:02:50	0	0	2,711485	4,3635	74,9232	0,564	77,669	3,5	1005,98	7,1	9,2	9	1	1	1	1	1	1	1	1	1	0	1	-43,692741	274,57434	278,579465	0
14.01.2021	21:02:51	0	0	2,711485	4,52175	85,9212	0,563	77,662	3,5	1006,1	7,1	9,2	9	1	1	1	1	1	1	1	1	1	0	1	-42,706131	274,634082	279,846645	0
14.01.2021	21:02:52	0	0	3,389356	4,77375	99,918	0,558	77,668	3,5	1006,18	7,1	9,2	9	1	1	1	1	1	1	1	1	1	0	1	-39,816772	274,476701	281,997278	0
14.01.2021	21:02:53	0	0	4,745098	4,69575	102,5748	0,563	77,677	3,5	1006,1	7,1	9,1	9	1	1	1	1	1	1	1	1	1	0	1	-38,618746	274,464531	283,138232	0
14.01.2021	21:02:54	0	0	3,615313	4,94925	103,3056	0,569	77,683	3,5	1006,06	7,1	9,2	9	1	1	1	1	1	1	1	1	1	0	1	-40,944327	274,641754	281,644496	0
14.01.2021	21:02:55	0	0	4,971055	5,0565	99,9468	0,564	77,667	3,5	1006,04	7,1	9,1	9	1	1	1	1	1	1	1	1	1	0	1	-38,689218	274,592702	283,669206	0
14.01.2021	21:02:56	0	0	3,389356	4,8225	97,3224	0,563	77,668	3,5	1006,08	7,1	9,1	9	1	1	1	1	1	1	1	1	1	0	1	-44,045102	274,624879	278,464441	0
14.01.2021	21:02:57	0	0	2,598506	4,23075	96,2388	0,568	77,687	3,5	1006,12	7,1	9,1	9	1	1	1	1	1	1	1	1	1	0	1	-39,252995	274,632547	283,292574	0
14.01.2021	21:02:58	0	0	4,519141	4,0935	104,4432	0,566	77,694	3,5	1006,16	7,1	9,1	9	1	1	1	1	1	1	1	1	1	0	1	-41,860465	274,592702	280,497959	0
14.01.2021	21:02:59	0	0	2,598506	4,05825	88,1172	0,568	77,697	3,5	1006,14	7,1	9,1	9	1	1	1	1	1	1	1	1	1	0	1	-39,887245	274,592702	282,471179	0
14.01.2021	21:03:00	0	0	3,84127	3,4335	84,8952	0,567	77,693	3,5	1006,1	7,1	9,2	9	1	1	1	1	1	1	1	1	1	0	1	-35,377026	274,549884	286,780379	0
14.01.2021	21:03:01	0	0	4,067227	3,384	91,5192	0,567	77,698	3,5	1006,1	7,1	9,1	9	1	1	1	1	1	1	1	1	1	0	1	-34,319944	274,490402	287,558366	0
14.01.2021	21:03:02	0	0	4,067227	3,384	91,5192	0,567	77,698	3,5	1006,1	7,1	9,1	9	1	1	1	1	1	1	1	1	1	0	1	-34,319944	274,490402	287,558366	0
14.01.2021	21:03:03	0	0	4,745098	3,4395	77,6052	0,569	77,694	3,5	1006,1	7,1	9,2	9	1	1	1	1	1	1	1	1	1	0	1	-38,618746	274,641754	283,970077	0
14.01.2021	21:03:04	0	0	3,276377	3,384	92,268	0,567	77,693	3,5	1006,08	7,1	9,2	9	1	1	1	1	1	1	1	1	1	0	1	-39,182523	274,534615	282,90322	0
14.01.2021	21:03:05	0	0	2,824463	3,64125	96,2136	0,57	77,692	3,5	1006,14	7,1	9,2	9	1	1	1	1	1	1	1	1	1	0	1	-36,15222	274,481267	285,683244	0
14.01.2021	21:03:06	0	0	4,632148	3,6105	86,9832	0,567	77,668	3,5	1006	7,1	9,1	8,9	1	1	1	1	1	1	1	1	1	0	1	-38,407329	274,473658	283,392449	0
14.01.2021	21:03:07	0	0	3,84127	3,4005	60,5556	0,563	77,674	3,5	1006,02	7,1	9,1	9	1	1	1	1	1	1	1	1	1	0	1	-43,763214	274,546829	278,379853	0
14.01.2021	21:03:08	0	0	2,937442	3,306	80,8704	0,563	77,679	3,5	1006,06	7,1	9,2	9	1	1	1	1	1	1	1	1	1	0	1	-36,645525	274,499541	285,275655	0
14.01.2021	21:03:09	0	0	5,197012	3,71925	90,0324	0,567	77,674	3,5	1006,26	7,1	9,2	9	1	1	1	1	1	1	1	1	1	0	1	-41,508104	274,623345	280,994236	0
14.01.2021	21:03:10	0	0	3,163399	3,7755	90,7884	0,565	77,67	3,5	1006,24	7,1	9,1	9	1	1	1	1	1	1	1	1	1	0	1	-40,873855	274,484312	280,975889	0
14.01.2021	21:03:11	0	0	3,502334	3,8565	89,7192	0,563	77,663	3,5	1006,18	7,1	9,2	9	1	1	1	1	1	1	1	1	1	0	1	-40,662438	274,591172	281,688797	0
14.01.2021	21:03:12	0	0	3,389356	4,164	103,3956	0,565	77,654	3,5	1005,84	7,1	9,1	9	1	1	1	1	1	1	1	1	1	0	1	-41,36716	274,63715	281,200033	0
14.01.2021	21:03:13	0	0	2,485528	4,76325	101,5092	0,56	77,644	3,5	1006,24	7,1	9,2	9	1	1	1	1	1	1	1	1	1	0	1	-38,336857	274,478223	283,484331	0
14.01.2021	21:03:14	0	0	4,180206	4,686	108,4968	0,56	77,629	3,5	1006,04	7,1	9,2	9	1	1	1	1	1	1	1	1	1	0	1	-39,464412	274,559051	282,736023	0
14.01.2021	21:03:15	0	0	4,858077	4,50075	104,7744	0,566	77,636	3,5	1006,02	7,1	9,2	9	1	1	1	1	1	1	1	1	1	0	1	-41,508104	274,478223	280,313084	0
14.01.2021	21:03:16	0	0	4,63212	4,542	107,7588	0,564	77,634	3,5	1006,1	7,1	9,1	9	1	1	1	1	1	1	1	1	1	0	1	-42,283298	274,623345	280,219042	0
14.01.2021	21:03:17	0	0	2,711485	4,842	98,1108	0,564	77,626	3,5	1006,04	7,1	9,1	9	1	1	1	1	1	1	1	1	1	0	1	-37,77308	274,565165	284,456056	0
14.01.2021	21:03:18	0	0	3,728292	5,0295	98,784	0,564	77,635	3,5	1006,02	7,1	9,2	9	1	1	1	1	1	1	1	1	1	0	1	-39,252995	274,624879	283,256548	0
14.01.2021	21:03:19	0	0	4,293184	4,8	78,0048	0,568	77,626	3,5	1006,04	7,1	9,2	9	1	1	1	1	1	1	1	1	1	0	1	-38,548273	274,464531	283,208705	0
14.01.2021	21:03:20	0	0	4,519141	4,49775	87,2784	0,563	77,614	3,5	1005,88	7,1	9,2	9	1	1	1	1	1	1	1	1	1	0	1	-38,12544	274,542248	283,996125	0
14.01.2021	21:03:21	0	0	3,05042	4,07175	83,718	0,562	77,626	3,5	1006,02	7,1	9,1	9	1	1	1	1	1	1	1	1	1	0	1	-35,306554	274,643289	287,28948	0
14.01.2021	21:03:22	0	0	2,485528	3,789	72,3024	0,563	77,619	3,5	1006,18	7,1	9,1	9	1	1	1	1	1	1	1	1	1	0	1	-39,464412	274,589641	282,879636	0
14.01.2021	21:03:23	0	0	3,954249	3,9105	78,0552	0,566	77,623	3,5	1006,08	7,1	9,2	9	1	1	1	1	1	1	1	1	1	0	1	-36,504581	274,591172	285,846655	0
14.01.2021	21:03:24	0	0	4,406163	3,6525	71,982	0,563	77,609	3,5	1005,96	7,1	9,2	9	1	1	1	1	1	1	1	1	1	0	1	-41,014799	274,643289	281,581235	0
14.01.2021	21:03:25	0	0	5,084034	3,30525	69,8436	0,562	77,609	3,5	1006,16	7,1	9,1	9	1	1	1	1	1	1	1	1	1	0	1	-43,340381	274,597296	279,039613	0
14.01.2021	21:03:26	0	0	4,745098	2,9355	96,2244	0,561	77,607	3,5	1006,04	7,1	9,1	9	1	1	1	1	1	1	1	1	1	0	1	-35,236082	274,482789	286,606522	0
14.01.2021	21:03:27	0	0	3,276377	2,967	89,3412	0,568	77,615	3,5	1006,16	7,1	9,1	9	1	1	1	1	1	1	1	1	1	0	1	-41,508104	274,464531	280,248874	0
14.01.2021	21:03:28	0	0	3,389356	3,2745	99,1836	0,564	77,597	3,5	1006,12	7,1	9,2	9	1	1	1	1	1	1	1	1	1	0	1	-39,534884	274,563637	282,687075	0
14.01.2021	21:03:29	0	0	3,615313	3,519	86,6592	0,565	77,601	3,5	1006,04	7,1	9,1	9	1	1	1	1	1	1	1	1	1	0	1	-37,632135	274,464531	284,124843	0
14.01.2021	21:03:30	0	0	3,276377	3,588	84,8232	0,564	77,59	3,5	1006,18	7,1	9,1	9	1	1	1	1	1	1	1	1	1	0	1	-40,873855	274,623345	281,628485	0
14.01.2021	21:03:31	0	0	3,05042	3,8565	90,7884	0,571	77,59	3,5	1006,02	7,1	9,1	9	1	1	1	1	1	1	1	1	1	0	1	-39,464412	274,57434	282,807795	0
14.01.2021	21:03:32	0	0	4,519141	3,96675	88,5996	0,564	77,583	3,5	1006,1	7,1	9,1	9	1	1	1	1	1	1	1	1	1	0	1	-42,212826	274,46149	279,529891	0
14.01.2021	21:03:33	0	0	3,502334	4,15125	85,1796	0,559	77,57	3,5	1006,04	7,1	9,1	9	1	1	1	1	1	1	1	1	1	0	1	-35,095137	274,498018	286,818896	0
14.01.2021	21:03:34	0	0	5,084034	4,36425	78,2784	0,561	77,558	3,5	1005,98	7,1	9,1	9	1	1	1	1	1	1	1	1	1	0	1	-39,675828	274,525459	282,36695	0
14.01.2021	21:03:35	0	0	3,502334	4,43925	91,53	0,562	77,553	3,5	1006,08	7,1	9,2	9	1	1	1	1	1	1	1	1	1	0	1	-41,508104	274,456929	280,213225	0
14.01.2021	21:03:36	0	0	4,858077	4,38525	90,0468	0,569	77,533	3,5	1005,94	7,1	9,1	9	1	1	1	1	1	1	1	1	1	0	1	-40,098661	274,449329	281,587037	0
14.01.2021	21:03:37	0	0	2,711485	4,59375	74,5344	0,568	77,529	3,5	1006,14	7,1	9,1	9	1	1	1	1	1	1	1	1	1	0	1	-41,36716	274,555995	280,818929	0
14.01.2021	21:03:38	0	0	4,180206	4,72425	83,3472	0,565	77,532	3,5	1006,16	7,1	9,1	9	1	1	1	1	1	1	1	1	1	0	1	-36,363636	274,458449	285,364822	0
14.01.2021	21:03:39	0	0	3,389356	4,914	97,6968	0,57	77,52	3,5	1006,28	7,1	9,2	9	1	1	1	1	1	1	1	1	1	0	1	-36,011276	274,618746	286,46946	0
14.01.2021	21:03:40	0	0	3,389356	5,469	94,3812	0,562	77,492	3,5	1006,04	7,1	9,1	9	1	1	1	1	1	1	1	1	1	0	1	-43,551797	274,511733	278,426581	0
14.01.2021	21:03:41	0	0	4,519141	5,646	82,962	0,564	77,506	3,5	1006,3	7,1	9,2	9	1	1	1	1	1	1	1	1	1	0	1	-42,001409	274,459969	279,734177	0
14.01.2021	21:03:42	0	0	3,84127	5,346	77,5656	0,565	77,513	3,5	1006,08	7,1	9,1	9	1	1	1	1	1	1	1	1	1	0	1	-39,112051	274,536141	282,980855	0
14.01.2021	21:03:43	0	0	4,406163	5,40075	68,778	0,564	77,515	3,5	1006,24	7,1	9,2	9	1	1	1	1	1	1	1	1	1	0	1	-37,209302	274,485834	284,647582	0
14.01.2021	21:03:44	0	0	2,711485	5,2455	74,9124	0,565	77,526	3,5	1006,08	7,1	9,2	9	1	1	1	1	1	1	1	1	1	0	1	-40,803383	274,459969	280,932204	0
14.01.2021	21:03:45	0	0	3,389356	5,0505	79,128	0,564	77,538	3,5	1006,06	7,1	9,1	9	1	1	1	1	1	1	1	1	1	0	1	-34,813249	274,516308	287,18659	0
14.01.2021	21:03:46	0	0	3,84127	4,86	70,2288	0,56	77,555	3,5	1006,02	7,1	9,1	9	1	1	1	1	1	1	1	1	1	0	1	-43,410853	274,514783	278,581832	0
14.01.2021	21:03:47	0	0	4,067227	4,8645	89,7192	0,565	77,566	3,5	1006,2	7,1	9,1	9	1	1	1	1	1	1	1	1	1	0	1	-36,293164	274,63715	286,274029	0
14.01.2021	21:03:48	0	0	3,502334	4,443	88,9668	0,556	77,569	3,5	1006,06	7,1	9,2	9	1	1	1	1	1	1	1	1	1	0	1	-38,75969	274,499541	283,16149	0
14.01.2021	21:03:49	0	0	2,824463	4,3875	88,5888	0,558	77,582	3,5	1005,96	7,1	9,1	9	1	1	1	1	1	1	1	1	1	0	1	-42,706131	274,611082	279,738609	0
14.01.2021	21:03:50	0	0	2,824463	5,202	81,5796	0,561	77,585	3,5	1005,98	7,1	9,1	9	1	1	1	1	1	1	1	1	1	0	1	-37,77308	274,494971	284,126662	0
14.01.2021	21:03:51	0	0	2,711485	5,56275	80,1648	0,568	77,593	3,5	1006,22	7,1	9,2	9	1	1	1	1	1	1	1	1	1	0	1	-38,548273	274,603422	283,86049	0
14.01.2021	21:03:52	0	0	3,05042	5,4465	85,9284	0,559	77,583	3,5	1006,12	7,1	9,1	9	1	1	1	1	1	1	1	1	1	0	1	-41,014799	274,638685	281,559603	0
14.01.2021	21:03:53	0	0	2,824463	5,4465	86,6376	0,559	77,598	3,5	1006,1	7,1	9,2	9	1	1	1	1	1	1	1	1	1	0	1	-39,605356	274,585049	282,717132	0
14.01.2021	21:03:54	0	0	4,067227	5,5215	83,736	0,564	77,583	3,5	1006,26	7,1	9,1	9	1	1	1	1	1	1	1	1	1	0	1	-38,407329	274,511733	283,571049	0
14.01.2021	21:03:55	0	0	4,067227	5,172	84,7908	0,566	77,587	3,5	1006,1	7,1	9,1	9	1	1	1	1	1	1	1	1	1	0	1	-39,605356	274,482789	282,237248	0
14.01.2021	21:03:56	0	0	3,502334	5,03775	85,5252	0,56	77,574	3,5	1006	7,1	9,1	9	1	1	1	1	1	1	1	1	1	0	1	-41,860465	274,525459	280,182313	0
14.01.2021	21:03:57	0	0	2,598506	5,277	86,9796	0,563	77,585	3,5	1005,98	7,1	9,2	9	1	1	1	1	1	1	1	1	1	0	1	-40,591966	274,626412	281,924781	0
14.01.2021	21:03:58	0	0	4,858077	5,45775	80,9028	0,564	77,586	3,5	1005,88	7,1	9,1	9	1	1	1	1	1	1	1	1	1	0	1	-42,424242	274,612615	280,027696	0
14.01.2021	21:03:59	0	0	4,180206	5,484	72,6984	0,565	77,575	3,5	1006,02	7,1	9,2	9	1	1	1	1	1	1	1	1	1	0	1	-42,917548	274,499541	279,003632	0
14.01.2021	21:04:00	0	0	4,519141	5,21775	73,026	0,564	77,577	3,5	1006,16	7,1	9,2	9	1	1	1	1	1	1	1	1	1	0	1	-37,77308	274,577399	284,51349	0
14.01.2021	21:04:01	0	0	4,519141	5,00475	82,35	0,561	77,559	3,5	1006,06	7,1	9,1	9	1	1	1	1	1	1	1	1	1	0	1	-39,464412	274,464531	282,292566	0
14.01.2021	21:04:02	0	0	4,519141	5,00475	82,35	0,561	77,559	3,5	1006,06	7,1	9,1	9	1	1	1	1	1	1	1	1	1	0	1	-39,464412	274,464531	282,292566	0
14.01.2021	21:04:03	0	0	4,067227	4,902	85,1832	0,562	77,562	3,5	1006,08	7,1	9,1	9	1	1	1	1	1	1	1	1	1	0	1	-39,393939	274,473658	282,405839	0
14.01.2021	21:04:04	0	0	2,372549	4,71	87,3576	0,56	77,565	3,5	1006,08	7,1	9,1	9	1	1	1	1	1	1	1	1	1	0	1	-41,226216	274,563637	280,995743	0
14.01.2021	21:04:05	0	0	3,163399	4,3305	86,2992	0,566	77,556	3,5	1006,16	7,1	9,1	9	1	1	1	1	1	1	1	1	1	0	1	-37,984496	274,470615	283,801013	0
14.01.2021	21:04:06	0	0	3,728292	4,1145	80,5356	0,564	77,549	3,5	1006,08	7,1	9,1	9	1	1	1	1	1	1	1	1	1	0	1	-39,957717	274,470615	281,827792	0
14.01.2021	21:04:07	0	0	2,937442	4,0545	72,3132	0,562	77,554	3,5	1006,14	7,1	9,1	9	1	1	1	1	1	1	1	1	1	0	1	-37,209302	274,572811	285,055724	0
14.01.2021	21:04:08	0	0	2,259571	4,0995	78,2928	0,566	77,551	3,5	1006,08	7,1	9,1	9	1	1	1	1	1	1	1	1	1	0	1	-39,393939	274,634082	283,158837	0
14.01.2021	21:04:09	0	0	4,406163	4,23525	82,9728	0,562	77,543	3,5	1006,06	7,1	9,2	9	1	1	1	1	1	1	1	1	1	0	1	-40,803383	274,536141	281,289523	0
14.01.2021	21:04:10	0	0	4,293184	4,3035	86,2812	0,556	77,555	3,5	1006,02	7,1	9,1	9	1	1	1	1	1	1	1	1	1	0	1	-36,15222	274,456929	285,56911	0
14.01.2021	21:04:11	0	0	3,615313	4,302	82,6992	0,56	77,546	3,5	1006,08	7,1	9,2	9	1	1	1	1	1	1	1	1	1	0	1	-39,887245	274,502589	282,048231	0
14.01.2021	21:04:12	0	0	2,711485	4,07775	76,842	0,559	77,53	3,5	1006,08	7,1	9,1	9	1	1	1	1	1	1	1	1	1	0	1	-38,195913	274,597296	284,184081	0
14.01.2021	21:04:13	0	0	4,858077	3,7695	88,1064	0,562	77,55	3,5	1006,04	7,1	9,1	9	1	1	1	1	1	1	1	1	1	0	1	-37,279774	274,592702	285,078649	0
14.01.2021	21:04:14	0	0	2,937442	3,72975	80,8956	0,564	77,536	3,5	1006,16	7,1	9,2	9	1	1	1	1	1	1	1	1	1	0	1	-39,7463	274,519358	282,267849	0
14.01.2021	21:04:15	0	0	3,728292	3,52275	75,2364	0,561	77,536	3,5	1006,2	7,1	9,1	9	1	1	1	1	1	1	1	1	1	0	1	-41,296688	274,453888	280,410387	0
14.01.2021	21:04:16	0	0	3,163399	3,64275	77,1984	0,558	77,533	3,5	1006,2	7,1	9,2	9	1	1	1	1	1	1	1	1	1	0	1	-42,001409	274,44781	279,677165	0
14.01.2021	21:04:17	0	0	4,63212	3,861	77,5656	0,559	77,521	3,5	1006,1	7,1	9,1	9	1	1	1	1	1	1	1	1	1	0	1	-41,014799	274,501065	280,913528	0
14.01.2021	21:04:18	0	0	4,63212	3,7485	80,244	0,56	77,533	3,5	1005,92	7,1	9,1	9	1	1	1	1	1	1	1	1	1	0	1	-43,128964	274,581989	279,179154	0
14.01.2021	21:04:19	0	0	4,406163	3,735	84,0456	0,561	77,533	3,5	1005,96	7,1	9,1	9	1	1	1	1	1	1	1	1	1	0	1	-40,662438	274,453888	281,044637	0
14.01.2021	21:04:20	0	0	3,728292	3,705	86,634	0,554	77,523	3,5	1005,98	7,1	9,1	9	1	1	1	1	1	1	1	1	1	0	1	-41,296688	274,554467	280,882229	0
14.01.2021	21:04:21	0	0	4,519141	3,813	86,31	0,555	77,534	3,5	1006,14	7,1	9,1	9	1	1	1	1	1	1	1	1	1	0	1	-41,860465	274,581989	280,447653	0
14.01.2021	21:04:22	0	0	3,05042	3,88125	71,604	0,556	77,524	3,5	1005,96	7,1	9,2	9	1	1	1	1	1	1	1	1	1	0	1	-42,142354	274,437176	279,48637	0
14.01.2021	21:04:23	0	0	2,711485	4,098	74,8872	0,559	77,521	3,5	1006,2	7,1	9,2	9	1	1	1	1	1	1	1	1	1	0	1	-37,209302	274,50716	284,747621	0
14.01.2021	21:04:24	0	0	3,615313	4,16775	82,5876	0,555	77,522	3,5	1006,12	7,1	9,2	9	1	1	1	1	1	1	1	1	1	0	1	-34,601832	274,624879	287,907711	0
14.01.2021	21:04:25	0	0	4,293184	4,38075	89,7372	0,558	77,521	3,5	1006,16	7,1	9,1	9	1	1	1	1	1	1	1	1	1	0	1	-35,940803	274,600359	286,453574	0
14.01.2021	21:04:26	0	0	2,598506	4,4055	80,154	0,561	77,525	3,5	1006,12	7,1	9,1	9	1	1	1	1	1	1	1	1	1	0	1	-38,407329	274,548357	283,742906	0
14.01.2021	21:04:27	0	0	2,937442	4,66725	84,0492	0,549	77,518	3,5	1006,16	7,1	9,2	9	1	1	1	1	1	1	1	1	1	0	1	-37,279774	274,631013	285,258588	0
14.01.2021	21:04:28	0	0	3,728292	4,96275	72,27	0,558	77,527	3,5	1006,16	7,1	9,1	9	1	1	1	1	1	1	1	1	1	0	1	-41,437632	274,624879	281,071911	0
14.01.2021	21:04:29	0	0	4,293184	5,06325	69,1128	0,555	77,52	3,5	1006,2	7,1	9,1	9	1	1	1	1	1	1	1	1	1	0	1	-44,256519	274,514783	277,736166	0
14.01.2021	21:04:30	0	0	4,406163	5,08425	80,5212	0,554	77,527	3,5	1006,08	7,1	9,2	9	1	1	1	1	1	1	1	1	1	0	1	-39,112051	274,455409	282,602151	0
14.01.2021	21:04:31	0	0	3,276377	5,20575	87,3648	0,557	77,535	3,5	1006,08	7,1	9,2	9	1	1	1	1	1	1	1	1	1	0	1	-42,283298	274,453888	279,423777	0
14.01.2021	21:04:32	0	0	3,276377	4,88025	74,1852	0,559	77,528	3,5	1006,22	7,1	9,1	9	1	1	1	1	1	1	1	1	1	0	1	-40,732911	274,485834	281,123973	0
14.01.2021	21:04:33	0	0	4,519141	4,6995	73,0548	0,542	77,519	3,5	1006	7,1	9,2	9	1	1	1	1	1	1	1	1	1	0	1	-39,7463	274,583519	282,569003	0
14.01.2021	21:04:34	0	0	3,954249	4,68375	70,6356	0,555	77,543	3,5	1006,08	7,1	9,2	9	1	1	1	1	1	1	1	1	1	0	1	-38,75969	274,431103	282,840562	0
14.01.2021	21:04:35	0	0	5,422969	4,5345	78,2784	0,557	77,538	3,5	1006	7,1	9,2	9	1	1	1	1	1	1	1	1	1	0	1	-40,521494	274,502589	281,413981	0
14.01.2021	21:04:36	0	0	3,954249	4,26	69,4944	0,558	77,568	3,5	1006,08	7,1	9,1	9	1	1	1	1	1	1	1	1	1	0	1	-37,914024	274,435658	283,707581	0
14.01.2021	21:04:37	0	0	4,971055	4,1865	71,6076	0,553	77,559	3,5	1006,08	7,1	9,1	9	1	1	1	1	1	1	1	1	1	0	1	-41,860465	274,539194	280,246769	0
14.01.2021	21:04:38	0	0	2,824463	4,02975	75,6432	0,557	77,579	3,5	1006,1	7,1	9,2	9	1	1	1	1	1	1	1	1	1	0	1	-40,38055	274,614147	282,078587	0
14.01.2021	21:04:39	0	0	2,372549	3,7935	88,9632	0,553	77,594	3,5	1005,96	7,1	9,2	9	1	1	1	1	1	1	1	1	1	0	1	-37,561663	274,459969	284,173924	0
14.01.2021	21:04:40	0	0	3,163399	3,8445	86,9688	0,557	77,594	3,5	1006,08	7,1	9,2	9	1	1	1	1	1	1	1	1	1	0	1	-42,706131	274,568223	279,537359	0
14.01.2021	21:04:41	0	0	4,745098	3,999	85,518	0,554	77,59	3,5	1006,04	7,1	9,2	9	1	1	1	1	1	1	1	1	1	0	1	-42,847075	274,620279	279,640861	0
14.01.2021	21:04:42	0	0	4,971055	3,9465	80,9172	0,556	77,58	3,5	1006,24	7,1	9,2	9	1	1	1	1	1	1	1	1	1	0	1	-37,420719	274,537668	284,679351	0
14.01.2021	21:04:43	0	0	3,615313	3,8805	71,6112	0,552	77,593	3,5	1006,02	7,1	9,2	9	1	1	1	1	1	1	1	1	1	0	1	-37,350247	274,606486	285,072905	0
14.01.2021	21:04:44	0	0	4,745098	3,62775	71,6076	0,552	77,616	3,5	1006,1	7,1	9,2	9	1	1	1	1	1	1	1	1	1	0	1	-42,212826	274,621812	280,282312	0
14.01.2021	21:04:45	0	0	4,971055	3,543	82,35	0,552	77,609	3,5	1006,1	7,1	9,2	9	1	1	1	1	1	1	1	1	1	0	1	-42,706131	274,581989	279,601987	0
14.01.2021	21:04:46	0	0	4,858077	3,5715	71,9892	0,556	77,612	3,5	1006,12	7,1	9,2	9	1	1	1	1	1	1	1	1	1	0	1	-44,679352	274,563637	277,542607	0
14.01.2021	21:04:47	0	0	2,824463	3,61725	73,8828	0,556	77,617	3,5	1006,12	7,1	9,2	9	1	1	1	1	1	1	1	1	1	0	1	-41,36716	274,443252	280,290045	0
14.01.2021	21:04:48	0	0	3,389356	3,5085	79,0236	0,553	77,632	3,5	1006	7,1	9,1	9	1	1	1	1	1	1	1	1	1	0	1	-35,377026	274,536141	286,71588	0
14.01.2021	21:04:49	0	0	2,824463	3,5085	72,27	0,556	77,649	3,5	1006,1	7,1	9,2	9	1	1	1	1	1	1	1	1	1	0	1	-35,447498	274,572811	286,817528	0
14.01.2021	21:04:50	0	0	4,63212	3,4425	84,4416	0,554	77,652	3,5	1006,06	7,1	9,1	9	1	1	1	1	1	1	1	1	1	0	1	-39,605356	274,608018	282,824992	0
14.01.2021	21:04:51	0	0	3,954249	3,4065	85,1832	0,556	77,66	3,5	1005,98	7,1	9,2	9	1	1	1	1	1	1	1	1	1	0	1	-38,548273	274,484312	283,30147	0
14.01.2021	21:04:52	0	0	2,711485	3,5835	84,0456	0,551	77,66	3,5	1006,1	7,1	9,2	9	1	1	1	1	1	1	1	1	1	0	1	-40,169133	274,534615	281,916609	0
14.01.2021	21:04:53	0	0	2,937442	3,64575	88,9452	0,571	77,661	3,5	1006,32	7,1	9,2	9	1	1	1	1	1	1	1	1	1	0	1	-38,548273	274,611082	283,896467	0
14.01.2021	21:04:54	0	0	3,389356	3,48525	72,2844	0,553	77,673	3,5	1006,02	7,1	9,2	9	1	1	1	1	1	1	1	1	1	0	1	-39,464412	274,437176	282,164312	0
14.01.2021	21:04:55	0	0	4,519141	3,4725	80,1324	0,555	77,655	3,5	1006,14	7,1	9,2	9	1	1	1	1	1	1	1	1	1	0	1	-41,649049	274,559051	280,551386	0
14.01.2021	21:04:56	0	0	4,519141	3,32175	70,2108	0,555	77,674	3,5	1006,26	7,1	9,2	9	1	1	1	1	1	1	1	1	1	0	1	-39,957717	274,444771	281,706611	0
14.01.2021	21:04:57	0	0	3,728292	3,20025	66,9204	0,551	77,664	3,5	1006,08	7,1	9,2	9	1	1	1	1	1	1	1	1	1	0	1	-41,860465	274,469094	279,91791	0
14.01.2021	21:04:58	0	0	3,276377	3,309	76,824	0,552	77,656	3,5	1006,02	7,1	9,2	9	1	1	1	1	1	1	1	1	1	0	1	-42,071882	274,485834	279,785002	0
14.01.2021	21:04:59	0	0	2,824463	3,50175	78,282	0,549	77,651	3,5	1005,98	7,1	9,2	9	1	1	1	1	1	1	1	1	1	0	1	-43,904158	274,623345	278,598182	0
14.01.2021	21:05:00	0	0	3,615313	3,4065	68,4036	0,557	77,648	3,5	1006,2	7,1	9,2	9	1	1	1	1	1	1	1	1	1	0	1	-36,927414	274,435658	284,694191	0
14.01.2021	21:05:01	0	0	3,615313	3,4065	68,4036	0,557	77,648	3,5	1006,2	7,1	9,2	9	1	1	1	1	1	1	1	1	1	0	1	-36,927414	274,435658	284,694191	0
14.01.2021	21:05:02	0	0	3,954249	3,3975	65,844	0,557	77,651	3,5	1006,1	7,1	9,2	9	1	1	1	1	1	1	1	1	1	0	1	-40,239605	274,60955	282,197938	0
14.01.2021	21:05:03	0	0	2,598506	3,4035	66,5352	0,552	77,651	3,5	1006,02	7,1	9,2	9	1	1	1	1	1	1	1	1	1	0	1	-36,504581	274,569752	285,746087	0
14.01.2021	21:05:04	0	0	3,84127	3,81225	75,222	0,552	77,65	3,5	1006,02	7,1	9,2	9	1	1	1	1	1	1	1	1	1	0	1	-40,38055	274,520883	281,640756	0
14.01.2021	21:05:05	0	0	2,824463	3,96975	74,9088	0,558	77,659	3,5	1006,26	7,1	9,1	9	1	1	1	1	1	1	1	1	1	0	1	-39,252995	274,431103	282,347257	0
14.01.2021	21:05:06	0	0	2,937442	3,78975	78,2568	0,549	77,656	3,5	1006,12	7,1	9,2	9	1	1	1	1	1	1	1	1	1	0	1	-39,534884	274,498018	282,379149	0
14.01.2021	21:05:07	0	0	2,824463	3,5955	76,8276	0,555	77,663	3,5	1006,14	7,1	9,2	9	1	1	1	1	1	1	1	1	1	0	1	-41,860465	274,600359	280,533912	0
14.01.2021	21:05:08	0	0	2,146592	3,4305	90,4284	0,549	77,653	3,5	1006,12	7,1	9,2	9	1	1	1	1	1	1	1	1	1	0	1	-42,212826	274,603422	280,195937	0
14.01.2021	21:05:09	0	0	2,598506	3,267	95,148	0,55	77,644	3,5	1005,88	7,1	9,2	9	1	1	1	1	1	1	1	1	1	0	1	-39,957717	274,435658	281,663888	0
14.01.2021	21:05:10	0	0	3,05042	2,90325	90,7632	0,548	77,631	3,5	1006	7,1	9,2	9	1	1	1	1	1	1	1	1	1	0	1	-39,252995	274,519358	282,761154	0
14.01.2021	21:05:11	0	0	3,728292	2,89575	87,336	0,552	77,637	3,5	1005,98	7,1	9,2	9	1	1	1	1	1	1	1	1	1	0	1	-41,014799	274,608018	281,415548	0
14.01.2021	21:05:12	0	0	2,824463	3,03825	89,7048	0,549	77,631	3,5	1006,04	7,1	9,2	9	1	1	1	1	1	1	1	1	1	0	1	-40,028189	274,459969	281,707398	0
14.01.2021	21:05:13	0	0	3,84127	3,05325	97,7112	0,55	77,61	3,5	1005,82	7,1	9,2	9	1	1	1	1	1	1	1	1	1	0	1	-41,296688	274,551412	280,867887	0
14.01.2021	21:05:14	0	0	2,711485	3,108	82,6128	0,555	77,634	3,5	1006,16	7,1	9,1	9	1	1	1	1	1	1	1	1	1	0	1	-37,843552	274,441733	283,806532	0
14.01.2021	21:05:15	0	0	3,502334	3,681	59,4648	0,555	77,623	3,5	1005,96	7,1	9,1	9	1	1	1	1	1	1	1	1	1	0	1	-44,326991	274,621812	278,168147	0
14.01.2021	21:05:16	0	0	2,937442	4,30875	70,5996	0,558	77,616	3,5	1006,14	7,1	9,2	9	1	1	1	1	1	1	1	1	1	0	1	-43,763214	274,554467	278,415703	0
14.01.2021	21:05:17	0	0	4,293184	4,45425	76,8348	0,556	77,625	3,5	1006,18	7,1	9,2	9	1	1	1	1	1	1	1	1	1	0	1	-43,269908	274,626412	279,246839	0
14.01.2021	21:05:18	0	0	4,519141	4,323	49,95	0,556	77,602	3,5	1006,08	7,1	9,1	9	1	1	1	1	1	1	1	1	1	0	1	-44,467935	274,513258	277,517596	0
14.01.2021	21:05:19	0	0	3,615313	3,94725	59,8644	0,555	77,593	3,5	1006,22	7,1	9,2	9	1	1	1	1	1	1	1	1	1	0	1	-40,873855	274,606486	281,549297	0
14.01.2021	21:05:20	0	0	4,519141	3,666	70,2288	0,551	77,601	3,5	1006,16	7,1	9,2	9	1	1	1	1	1	1	1	1	1	0	1	-41,437632	274,469094	280,340743	0
14.01.2021	21:05:21	0	0	4,180206	3,534	62,784	0,546	77,572	3,5	1005,96	7,1	9,1	9	1	1	1	1	1	1	1	1	1	0	1	-44,820296	274,563637	277,401663	0
14.01.2021	21:05:22	0	0	4,519141	4,22475	81,1908	0,555	77,582	3,5	1006,18	7,1	9,1	9	1	1	1	1	1	1	1	1	1	0	1	-40,873855	274,61568	281,59248	0
14.01.2021	21:05:23	0	0	2,598506	4,341	71,2332	0,554	77,588	3,5	1006,1	7,1	9,2	9	1	1	1	1	1	1	1	1	1	0	1	-40,38055	274,565165	281,848586	0
14.01.2021	21:05:24	0	0	4,971055	4,19175	68,8572	0,554	77,561	3,5	1006,1	7,1	9,2	9	1	1	1	1	1	1	1	1	1	0	1	-41,437632	274,428066	280,148389	0
14.01.2021	21:05:25	0	0	3,389356	4,2345	71,2368	0,554	77,577	3,5	1006,2	7,1	9,2	9	1	1	1	1	1	1	1	1	1	0	1	-42,283298	274,428066	279,302723	0
14.01.2021	21:05:26	0	0	3,389356	4,9725	79,0272	0,558	77,566	3,5	1006,12	7,1	9,2	9	1	1	1	1	1	1	1	1	1	0	1	-41,36716	274,472137	280,425483	0
14.01.2021	21:05:27	0	0	3,389356	4,9185	64,2456	0,559	77,564	3,5	1006,14	7,1	9,2	9	1	1	1	1	1	1	1	1	1	0	1	-40,803383	274,57434	281,468824	0
14.01.2021	21:05:28	0	0	4,63212	4,37775	58,0932	0,552	77,559	3,5	1006,14	7,1	9,1	9	1	1	1	1	1	1	1	1	1	0	1	-42,776603	274,606486	279,646549	0
14.01.2021	21:05:29	0	0	3,389356	4,15725	63,4716	0,552	77,559	3,5	1006,14	7,1	9,2	9	1	1	1	1	1	1	1	1	1	0	1	-39,041579	274,525459	283,0012	0
14.01.2021	21:05:30	0	0	3,954249	4,10775	74,5164	0,558	77,553	3,5	1006,18	7,1	9,2	9	1	1	1	1	1	1	1	1	1	0	1	-41,36716	274,435658	280,254445	0
14.01.2021	21:05:31	0	0	3,954249	3,924	60,2172	0,555	77,545	3,5	1005,92	7,1	9,2	9	1	1	1	1	1	1	1	1	1	0	1	-43,058492	274,595765	279,314311	0
14.01.2021	21:05:32	0	0	4,63212	3,573	56,6676	0,552	77,54	3,5	1006,2	7,1	9,2	9	1	1	1	1	1	1	1	1	1	0	1	-43,269908	274,52851	278,787188	0
14.01.2021	21:05:33	0	0	2,372549	3,366	62,4168	0,554	77,547	3,5	1006,06	7,1	9,2	9	1	1	1	1	1	1	1	1	1	0	1	-39,464412	274,438695	282,171431	0
14.01.2021	21:05:34	0	0	2,937442	3,3105	79,4268	0,552	77,534	3,5	1006,02	7,1	9,2	9	1	1	1	1	1	1	1	1	1	0	1	-41,508104	274,423513	280,056574	0
14.01.2021	21:05:35	0	0	2,711485	3,42375	90,7848	0,548	77,538	3,5	1006,12	7,1	9,1	9	1	1	1	1	1	1	1	1	1	0	1	-41,226216	274,456929	280,495114	0
14.01.2021	21:05:36	0	0	3,276377	3,627	101,5272	0,548	77,549	3,5	1006,06	7,1	9,2	9	1	1	1	1	1	1	1	1	1	0	1	-37,068358	274,484312	284,781385	0
14.01.2021	21:05:37	0	0	3,05042	3,426	89,6976	0,555	77,561	3,5	1006,1	7,1	9,2	9	1	1	1	1	1	1	1	1	1	0	1	-39,957717	274,595765	282,415086	0
14.01.2021	21:05:38	0	0	4,63212	3,41325	84,4236	0,554	77,553	3,5	1006,04	7,1	9,2	9	1	1	1	1	1	1	1	1	1	0	1	-42,917548	274,557523	279,275714	0
14.01.2021	21:05:39	0	0	2,824463	3,5115	85,518	0,549	77,571	3,5	1006,14	7,1	9,2	9	1	1	1	1	1	1	1	1	1	0	1	-40,521494	274,443252	281,135711	0
14.01.2021	21:05:40	0	0	4,858077	3,30375	70,8336	0,541	77,575	3,5	1006,1	7	9,2	9	1	1	1	1	1	1	1	1	1	0	1	-41,155743	274,606486	281,267409	0
14.01.2021	21:05:41	0	0	4,745098	3,67125	78,3	0,545	77,574	3,5	1006,28	7,1	9,2	9	1	1	1	1	1	1	1	1	1	0	1	-38,75969	274,530036	283,304567	0
14.01.2021	21:05:42	0	0	3,389356	4,37625	77,9724	0,549	77,562	3,5	1006,1	7,1	9,2	9	1	1	1	1	1	1	1	1	1	0	1	-43,904158	274,420478	277,646296	0
14.01.2021	21:05:43	0	0	3,276377	4,6425	76,3704	0,545	77,564	3,5	1006,18	7,1	9,2	9	1	1	1	1	1	1	1	1	1	0	1	-40,873855	274,466052	280,890255	0
14.01.2021	21:05:44	0	0	4,406163	4,8015	69,1632	0,548	77,561	3,5	1005,94	7,1	9,2	9	1	1	1	1	1	1	1	1	1	0	1	-41,578576	274,52851	280,47852	0
14.01.2021	21:05:45	0	0	3,163399	4,7895	69,4584	0,55	77,557	3,5	1006,14	7,1	9,2	9	1	1	1	1	1	1	1	1	1	0	1	-44,115574	274,432621	277,491795	0
14.01.2021	21:05:46	0	0	2,711485	4,779	67,2912	0,55	77,552	3,5	1006	7,1	9,2	9	1	1	1	1	1	1	1	1	1	0	1	-39,675828	274,481267	282,159636	0
14.01.2021	21:05:47	0	0	3,84127	4,74825	80,5212	0,543	77,542	3,5	1006,02	7,1	9,2	9	1	1	1	1	1	1	1	1	1	0	1	-43,128964	274,421996	278,428602	0
14.01.2021	21:05:48	0	0	3,728292	4,88925	72,2628	0,545	77,54	3,5	1006,12	7,1	9,2	9	1	1	1	1	1	1	1	1	1	0	1	-42,98802	274,533089	279,09056	0
14.01.2021	21:05:49	0	0	2,372549	4,758	79,8264	0,547	77,519	3,5	1006,18	7,1	9,2	9	1	1	1	1	1	1	1	1	1	0	1	-42,283298	274,466052	279,480812	0
14.01.2021	21:05:50	0	0	3,615313	4,51875	82,3644	0,55	77,52	3,5	1006,04	7,1	9,2	9	1	1	1	1	1	1	1	1	1	0	1	-43,481325	274,417444	278,054907	0
14.01.2021	21:05:51	0	0	4,406163	4,55625	73,0476	0,542	77,537	3,5	1006,02	7,1	9,2	9	1	1	1	1	1	1	1	1	1	0	1	-37,914024	274,455409	283,800178	0
14.01.2021	21:05:52	0	0	3,615313	4,42875	77,9832	0,546	77,514	3,5	1006,22	7,1	9,2	9	1	1	1	1	1	1	1	1	1	0	1	-40,662438	274,488879	281,208729	0
14.01.2021	21:05:53	0	0	2,711485	4,31025	81,2232	0,549	77,523	3,5	1006,14	7,1	9,2	9	1	1	1	1	1	1	1	1	1	0	1	-41,155743	274,578929	281,138008	0
14.01.2021	21:05:54	0	0	2,937442	4,10775	80,118	0,546	77,505	3,5	1006,02	7,1	9,2	9	1	1	1	1	1	1	1	1	1	0	1	-41,155743	274,455409	280,558459	0
14.01.2021	21:05:55	0	0	2,824463	3,624	65,4732	0,544	77,506	3,5	1006	7,1	9,2	9	1	1	1	1	1	1	1	1	1	0	1	-38,900634	274,482789	282,941969	0
14.01.2021	21:05:56	0	0	3,163399	3,324	74,1744	0,544	77,51	3,5	1006,18	7	9,2	9	1	1	1	1	1	1	1	1	1	0	1	-42,917548	274,58658	279,412126	0
14.01.2021	21:05:57	0	0	5,084034	3,2685	83,4084	0,543	77,503	3,5	1005,92	7,1	9,2	9	1	1	1	1	1	1	1	1	1	0	1	-43,551797	274,557523	278,641464	0
14.01.2021	21:05:58	0	0	3,389356	3,4065	89,712	0,543	77,508	3,5	1006,1	7,1	9,2	9	1	1	1	1	1	1	1	1	1	0	1	-41,860465	274,50716	280,096458	0
14.01.2021	21:05:59	0	0	2,711485	3,4365	110,6892	0,544	77,514	3,5	1006,16	7	9,2	9	1	1	1	1	1	1	1	1	1	0	1	-38,830162	274,417444	282,70607	0
14.01.2021	21:06:00	0	0	4,745098	3,50625	104,5332	0,544	77,504	3,5	1006,26	7	9,2	9	1	1	1	1	1	1	1	1	1	0	1	-44,397463	274,514783	277,595221	0
14.01.2021	21:06:01	0	0	4,745098	3,50625	104,5332	0,544	77,504	3,5	1006,26	7	9,2	9	1	1	1	1	1	1	1	1	1	0	1	-44,397463	274,514783	277,595221	0
14.01.2021	21:06:02	0	0	4,519141	3,56325	100,746	0,542	77,488	3,5	1006,1	7,1	9,2	9	1	1	1	1	1	1	1	1	1	0	1	-42,424242	274,397732	279,019612	0
14.01.2021	21:06:03	0	0	2,824463	3,60675	95,5188	0,546	77,488	3,5	1006,2	7,1	9,1	9	1	1	1	1	1	1	1	1	1	0	1	-44,326991	274,449329	277,358707	0
14.01.2021	21:06:04	0	0	4,971055	3,56475	88,9524	0,539	77,486	3,5	1006,2	7,1	9,2	9	1	1	1	1	1	1	1	1	1	0	1	-47,498238	274,523933	274,537382	0
14.01.2021	21:06:05	0	0	4,293184	3,4185	87,7284	0,538	77,488	3,5	1006,26	7,1	9,2	9	1	1	1	1	1	1	1	1	1	0	1	-37,420719	274,583519	284,894584	0
14.01.2021	21:06:06	0	0	4,293184	3,28275	85,1796	0,536	77,497	3,5	1006,22	7,1	9,1	9	1	1	1	1	1	1	1	1	1	0	1	-40,239605	274,431103	281,360647	0
14.01.2021	21:06:07	0	0	2,259571	3,20925	87,3684	0,541	77,501	3,5	1006,14	7,1	9,2	9	1	1	1	1	1	1	1	1	1	0	1	-39,182523	274,399247	282,268433	0
14.01.2021	21:06:08	0	0	2,372549	2,99025	94,3956	0,534	77,506	3,5	1006,1	7,1	9,2	9	1	1	1	1	1	1	1	1	1	0	1	-39,534884	274,434139	282,079603	0
14.01.2021	21:06:09	0	0	4,971055	3,04575	82,5984	0,539	77,512	3,5	1006,04	7,1	9,2	9	1	1	1	1	1	1	1	1	1	0	1	-41,789993	274,505636	280,15978	0
14.01.2021	21:06:10	0	0	4,745098	3,21525	97,7112	0,536	77,501	3,5	1006,18	7,1	9,2	9	1	1	1	1	1	1	1	1	1	0	1	-41,508104	274,568223	280,735385	0
14.01.2021	21:06:11	0	0	3,728292	3,34875	80,4852	0,539	77,529	3,5	1006,1	7,1	9,2	9	1	1	1	1	1	1	1	1	1	0	1	-43,199436	274,580459	279,101499	0
14.01.2021	21:06:12	0	0	2,937442	3,24525	92,9556	0,537	77,539	3,5	1006,1	7,1	9,2	9	1	1	1	1	1	1	1	1	1	0	1	-39,323467	274,531562	282,747951	0
14.01.2021	21:06:13	0	0	4,180206	2,997	73,458	0,533	77,536	3,5	1006,1	7	9,2	9	1	1	1	1	1	1	1	1	1	0	1	-42,071882	274,542248	280,049683	0
14.01.2021	21:06:14	0	0	2,937442	2,6865	97,308	0,534	77,557	3,5	1006,06	7	9,2	9	1	1	1	1	1	1	1	1	1	0	1	-41,789993	274,425031	279,781799	0
14.01.2021	21:06:15	0	0	5,084034	2,29875	91,1556	0,532	77,557	3,5	1006,04	7	9,2	9	1	1	1	1	1	1	1	1	1	0	1	-41,296688	274,453888	280,410387	0
14.01.2021	21:06:16	0	0	3,954249	2,307	91,1916	0,533	77,57	3,5	1006,1	7,1	9,2	9	1	1	1	1	1	1	1	1	1	0	1	-38,407329	274,555995	283,77876	0
14.01.2021	21:06:17	0	0	4,519141	2,43225	89,7012	0,533	77,576	3,5	1006,04	7,1	9,2	9	1	1	1	1	1	1	1	1	1	0	1	-45,102185	274,390156	276,30617	0
14.01.2021	21:06:18	0	0	2,937442	2,478	79,7688	0,534	77,598	3,5	1006,08	7	9,2	9	1	1	1	1	1	1	1	1	1	0	1	-39,041579	274,491925	282,843874	0
14.01.2021	21:06:19	0	0	4,519141	2,595	86,6664	0,535	77,603	3,5	1006,1	7,1	9,2	9	1	1	1	1	1	1	1	1	1	0	1	-40,803383	274,57587	281,476005	0
14.01.2021	21:06:20	0	0	4,519141	2,78475	92,9268	0,532	77,606	3,5	1005,88	7,1	9,2	9	1	1	1	1	1	1	1	1	1	0	1	-39,7463	274,493448	282,146297	0
14.01.2021	21:06:21	0	0	4,519141	3,0375	88,1244	0,528	77,612	3,5	1006,1	7	9,2	9	1	1	1	1	1	1	1	1	1	0	1	-39,041579	274,391671	282,373875	0
14.01.2021	21:06:22	0	0	4,519141	3,3135	78,6708	0,533	77,618	3,5	1006,1	7	9,2	9	1	1	1	1	1	1	1	1	1	0	1	-47,991543	274,405311	273,487827	0
14.01.2021	21:06:23	0	0	2,485528	3,31125	66,2184	0,535	77,612	3,5	1006,24	7	9,2	9	1	1	1	1	1	1	1	1	1	0	1	-45,59549	274,478223	276,225698	0
14.01.2021	21:06:24	0	0	3,954249	3,108	75,2256	0,536	77,621	3,5	1006,08	7,1	9,2	9	1	1	1	1	1	1	1	1	1	0	1	-36,222692	274,387126	285,171468	0
14.01.2021	21:06:25	0	0	4,067227	3,10275	84,4236	0,531	77,622	3,5	1006,18	7,1	9,2	9	1	1	1	1	1	1	1	1	1	0	1	-44,679352	274,522408	277,349111	0
14.01.2021	21:06:26	0	0	3,728292	3,06075	79,02	0,527	77,609	3,5	1006,14	7,1	9,2	9	1	1	1	1	1	1	1	1	1	0	1	-42,283298	274,548357	279,866937	0
14.01.2021	21:06:27	0	0	3,163399	2,83275	79,7436	0,527	77,611	3,5	1006,02	7	9,2	9	1	1	1	1	1	1	1	1	1	0	1	-37,702607	274,400763	283,755451	0
14.01.2021	21:06:28	0	0	3,163399	2,63925	77,9616	0,529	77,605	3,5	1005,96	7	9,2	9	1	1	1	1	1	1	1	1	1	0	1	-44,256519	274,499541	277,664661	0
14.01.2021	21:06:29	0	0	3,05042	2,8365	83,0772	0,531	77,621	3,5	1006,06	7	9,2	9	1	1	1	1	1	1	1	1	1	0	1	-42,847075	274,543775	279,281656	0
14.01.2021	21:06:30	0	0	4,406163	2,988	83,3652	0,531	77,621	3,5	1006,16	7,1	9,2	9	1	1	1	1	1	1	1	1	1	0	1	-41,649049	274,530036	280,415209	0
14.01.2021	21:06:31	0	0	3,276377	3,0105	78,2748	0,531	77,635	3,5	1006,12	7	9,2	9	1	1	1	1	1	1	1	1	1	0	1	-42,283298	274,373498	279,047018	0
14.01.2021	21:06:32	0	0	2,598506	3,09675	78,6708	0,528	77,639	3,5	1006,18	7	9,2	9	1	1	1	1	1	1	1	1	1	0	1	-42,917548	274,368958	278,391499	0
14.01.2021	21:06:33	0	0	3,05042	3,03225	86,9796	0,529	77,624	3,5	1006,24	7	9,2	9	1	1	1	1	1	1	1	1	1	0	1	-41,578576	274,437176	280,050147	0
14.01.2021	21:06:34	0	0	2,259571	2,93625	78,2892	0,534	77,63	3,5	1006,02	7	9,2	9	1	1	1	1	1	1	1	1	1	0	1	-40,944327	274,370471	280,371809	0
14.01.2021	21:06:35	0	0	3,615313	2,9505	63,486	0,528	77,647	3,5	1006,18	7	9,1	9	1	1	1	1	1	1	1	1	1	0	1	-43,97463	274,502589	277,960845	0
14.01.2021	21:06:36	0	0	5,309991	3,1065	76,8132	0,525	77,637	3,5	1006,16	7	9,2	9	1	1	1	1	1	1	1	1	1	0	1	-38,75969	274,455409	282,954512	0
14.01.2021	21:06:37	0	0	4,63212	2,93775	54,4896	0,524	77,642	3,5	1006,02	7	9,2	9	1	1	1	1	1	1	1	1	1	0	1	-38,336857	274,531562	283,734561	0
14.01.2021	21:06:38	0	0	3,05042	2,8665	68,3892	0,527	77,666	3,5	1006,14	7,1	9,1	9	1	1	1	1	1	1	1	1	1	0	1	-41,860465	274,411376	279,647331	0
14.01.2021	21:06:39	0	0	4,745098	2,8665	69,8508	0,526	77,677	3,5	1006,02	7	9,2	9	1	1	1	1	1	1	1	1	1	0	1	-41,014799	274,464531	280,742179	0
14.01.2021	21:06:40	0	0	4,406189	2,87175	84,0528	0,527	77,685	3,5	1006,06	7	9,1	8,9	1	1	1	1	1	1	1	1	1	0	1	-40,944327	274,385611	280,442737	0
14.01.2021	21:06:41	0	0	3,728292	2,916	80,9892	0,531	77,707	3,5	1006,06	7	9,2	9	1	1	1	1	1	1	1	1	1	0	1	-41,36716	274,520883	280,654145	0
14.01.2021	21:06:42	0	0	2,711485	3,0105	84,078	0,522	77,725	3,5	1006,1	7	9,2	9	1	1	1	1	1	1	1	1	1	0	1	-42,917548	274,536141	279,175358	0
14.01.2021	21:06:43	0	0	4,745098	2,9445	84,042	0,529	77,732	3,5	1006,16	7	9,1	9	1	1	1	1	1	1	1	1	1	0	1	-44,256519	274,516308	277,74332	0
14.01.2021	21:06:44	0	0	3,276417	2,8695	90,4356	0,524	77,735	3,5	1006,16	7	9,2	8,8	1	1	1	1	1	1	1	1	1	0	1	-41,578576	274,456929	280,142753	0
14.01.2021	21:06:45	0	0	4,858077	2,6745	85,5288	0,52	77,743	3,5	1006,16	7	9,2	9	1	1	1	1	1	1	1	1	1	0	1	-41,649049	274,539194	280,458185	0
14.01.2021	21:06:46	0	0	2,937442	2,646	84,4308	0,527	77,74	3,5	1006,14	7	9,1	9	1	1	1	1	1	1	1	1	1	0	1	-39,675828	274,37804	281,675763	0
14.01.2021	21:06:47	0	0	4,745098	2,75025	84,06	0,524	77,753	3,5	1006,12	7	9,1	9	1	1	1	1	1	1	1	1	1	0	1	-43,904158	274,482789	277,938446	0
14.01.2021	21:06:48	0	0	5,084034	2,94	84,0528	0,525	77,738	3,5	1006,12	7	9,2	9	1	1	1	1	1	1	1	1	1	0	1	-41,649049	274,381068	279,71673	0
14.01.2021	21:06:49	0	0	2,824463	3,0645	62,7876	0,523	77,775	3,5	1006,38	7	9,2	9	1	1	1	1	1	1	1	1	1	0	1	-43,763214	274,393186	277,659339	0
14.01.2021	21:06:50	0	0	4,180206	3,1845	95,1408	0,525	77,744	3,5	1006,12	7	9,2	9	1	1	1	1	1	1	1	1	1	0	1	-39,112051	274,484312	282,737693	0
14.01.2021	21:06:51	0	0	3,954296	3,27675	80,2404	0,525	77,74	3,5	1005,98	7	9,1	8,8	1	1	1	1	1	1	1	1	1	0	1	-41,226216	274,545302	280,909683	0
14.01.2021	21:06:52	0	0	3,05042	3,567	72,6732	0,523	77,753	3,5	1006,14	7	9,2	9	1	1	1	1	1	1	1	1	1	0	1	-41,085271	274,382582	280,287601	0
14.01.2021	21:06:53	0	0	2,598506	3,6645	83,3652	0,52	77,737	3,5	1006,2	7	9,2	9	1	1	1	1	1	1	1	1	1	0	1	-47,850599	274,513258	274,134932	0
14.01.2021	21:06:54	0	0	3,276377	3,63525	74,1564	0,519	77,746	3,5	1006,14	7	9,2	9	1	1	1	1	1	1	1	1	1	0	1	-45,525018	274,362906	275,755679	0
14.01.2021	21:06:55	0	0	4,180206	3,6555	87,3468	0,522	77,74	3,5	1006	7	9,1	9	1	1	1	1	1	1	1	1	1	0	1	-48,343904	274,508685	273,62017	0
14.01.2021	21:06:56	0	0	3,389356	3,708	85,536	0,525	77,75	3,5	1006,28	7	9,1	9	1	1	1	1	1	1	1	1	1	0	1	-41,649049	274,418961	279,894294	0
14.01.2021	21:06:57	0	0	4,293184	3,693	84,7872	0,524	77,753	3,5	1006,1	7	9,2	9	1	1	1	1	1	1	1	1	1	0	1	-48,273432	274,375012	273,063975	0
14.01.2021	21:06:58	0	0	4,519141	3,46575	87,714	0,518	77,735	3,5	1006,06	7	9,2	9	1	1	1	1	1	1	1	1	1	0	1	-38,971106	274,517833	283,035887	0
14.01.2021	21:06:59	0	0	4,63212	3,17475	94,7664	0,522	77,754	3,5	1006,14	7	9,2	9	1	1	1	1	1	1	1	1	1	0	1	-40,521494	274,494971	281,378248	0
14.01.2021	21:07:00	0	0	3,954272	2,967	93,7224	0,518	77,732	3,5	1005,86	7	9,2	8,9	1	1	1	1	1	1	1	1	1	0	1	-39,534884	274,519358	282,479265	0
14.01.2021	21:07:01	0	0	3,954272	2,967	93,7224	0,518	77,732	3,5	1005,86	7	9,2	8,9	1	1	1	1	1	1	1	1	1	0	1	-39,534884	274,519358	282,479265	0
14.01.2021	21:07:02	0	0	3,05042	3,1275	74,1636	0,519	77,745	3,5	1006,14	7	9,2	9	1	1	1	1	1	1	1	1	1	0	1	-41,649049	274,484312	280,200695	0
14.01.2021	21:07:03	0	0	2,598506	3,2895	82,6128	0,521	77,731	3,5	1006,04	7,1	9,1	9	1	1	1	1	1	1	1	1	1	0	1	-41,719521	274,536141	280,373385	0
14.01.2021	21:07:04	0	0	3,163399	3,2415	86,9868	0,521	77,748	3,5	1005,92	7,1	9,1	9	1	1	1	1	1	1	1	1	1	0	1	-45,384073	274,408343	276,109509	0
14.01.2021	21:07:05	0	0	2,711485	3,072	76,3632	0,516	77,734	3,5	1006,34	7	9,2	9	1	1	1	1	1	1	1	1	1	0	1	-40,662438	274,493448	281,230159	0
14.01.2021	21:07:06	0	0	2,485528	2,8575	79,4088	0,519	77,758	3,5	1006,14	7	9,1	9	1	1	1	1	1	1	1	1	1	0	1	-41,226216	274,557523	280,967046	0
14.01.2021	21:07:07	0	0	3,841293	2,6805	79,038	0,523	77,752	3,5	1006,06	7	9,1	8,9	1	1	1	1	1	1	1	1	1	0	1	-47,427766	274,476701	274,386285	0
14.01.2021	21:07:08	0	0	2,711485	2,709	66,1932	0,521	77,75	3,5	1006,1	7	9,1	9	1	1	1	1	1	1	1	1	1	0	1	-43,481325	274,551412	278,68325	0
14.01.2021	21:07:09	0	0	4,858077	2,751	67,6692	0,517	77,743	3,5	1006,16	7	9,2	9	1	1	1	1	1	1	1	1	1	0	1	-41,578576	274,505636	280,371197	0
14.01.2021	21:07:10	0	0	3,276377	2,62875	67,2624	0,516	77,752	3,5	1006,06	7	9,1	9	1	1	1	1	1	1	1	1	1	0	1	-44,397463	274,435658	277,224142	0
14.01.2021	21:07:11	0	0	4,745155	2,37975	70,5852	0,515	77,742	3,5	1006,1	7	9,2	8,8	1	1	1	1	1	1	1	1	1	0	1	-40,310078	274,406827	281,176398	0
14.01.2021	21:07:12	0	0	4,63212	2,44275	90,3816	0,519	77,759	3,5	1005,96	7	9,1	9	1	1	1	1	1	1	1	1	1	0	1	-43,058492	274,548357	279,091743	0
14.01.2021	21:07:13	0	0	4,519141	2,5755	81,594	0,523	77,746	3,5	1006,18	7,1	9,1	9	1	1	1	1	1	1	1	1	1	0	1	-43,410853	274,485834	278,446031	0
14.01.2021	21:07:14	0	0	4,180206	2,7015	91,1592	0,516	77,736	3,5	1006,1	7	9,1	9	1	1	1	1	1	1	1	1	1	0	1	-42,565187	274,540721	279,549212	0
14.01.2021	21:07:15	0	0	4,406163	2,7465	87,3648	0,518	77,743	3,5	1006,08	7,1	9,1	9	1	1	1	1	1	1	1	1	1	0	1	-44,186047	274,530036	277,878211	0
14.01.2021	21:07:16	0	0	4,406163	2,77275	85,914	0,518	77,739	3,5	1006,14	7	9,1	9	1	1	1	1	1	1	1	1	1	0	1	-39,112051	274,388641	282,289207	0
14.01.2021	21:07:17	0	0	2,372549	2,80125	87,3612	0,518	77,73	3,5	1006,12	7,1	9,1	9	1	1	1	1	1	1	1	1	1	0	1	-46,300211	274,361393	274,9734	0
14.01.2021	21:07:18	0	0	4,858077	3,282	83,3616	0,515	77,722	3,5	1006	7	9,2	9	1	1	1	1	1	1	1	1	1	0	1	-40,451022	274,418961	281,092321	0
14.01.2021	21:07:19	0	0	2,937442	3,489	85,1724	0,515	77,723	3,5	1006,22	7,1	9,2	9	1	1	1	1	1	1	1	1	1	0	1	-41,085271	274,406827	280,401205	0
14.01.2021	21:07:20	0	0	3,163399	3,29475	92,9664	0,515	77,718	3,5	1006,08	7	9,1	9	1	1	1	1	1	1	1	1	1	0	1	-42,98802	274,358368	278,271422	0
14.01.2021	21:07:21	0	0	3,728292	3,51825	82,3428	0,518	77,716	3,5	1006,18	7,1	9,1	9	1	1	1	1	1	1	1	1	1	0	1	-44,679352	274,437176	276,949372	0
14.01.2021	21:07:22	0	0	3,954249	3,7005	82,35	0,513	77,721	3,5	1006,06	7,1	9,2	9	1	1	1	1	1	1	1	1	1	0	1	-44,820296	274,371985	276,502929	0
14.01.2021	21:07:23	0	0	3,05042	3,63375	80,5176	0,514	77,71	3,5	1006,16	7,1	9,1	9	1	1	1	1	1	1	1	1	1	0	1	-42,776603	274,406827	278,709873	0
14.01.2021	21:07:24	0	0	4,519141	3,3495	64,638	0,503	77,711	3,5	1005,94	7	9,2	9	1	1	1	1	1	1	1	1	1	0	1	-42,283298	274,443252	279,373907	0
14.01.2021	21:07:25	0	0	4,632175	2,976	70,776	0,516	77,714	3,5	1006,02	7,1	9,1	8,8	1	1	1	1	1	1	1	1	1	0	1	-41,508104	274,542248	280,613461	0
14.01.2021	21:07:26	0	0	3,389397	2,8815	67,662	0,51	77,715	3,5	1006,02	7	9,1	8,8	1	1	1	1	1	1	1	1	1	0	1	-40,098661	274,406827	281,387815	0
14.01.2021	21:07:27	0	0	3,502376	2,89725	97,704	0,507	77,713	3,5	1006,2	7	9,1	8,8	1	1	1	1	1	1	1	1	1	0	1	-43,904158	274,526985	278,145779	0
14.01.2021	21:07:28	0	0	4,067227	3,20625	82,3464	0,516	77,716	3,5	1006,14	7,1	9,1	9	1	1	1	1	1	1	1	1	1	0	1	-45,243129	274,52851	276,813968	0
14.01.2021	21:07:29	0	0	4,745098	3,18225	90,7704	0,513	77,706	3,5	1006,24	7,1	9,1	9	1	1	1	1	1	1	1	1	1	0	1	-45,172657	274,470615	276,612852	0
14.01.2021	21:07:30	0	0	4,406163	3,15525	90,7848	0,508	77,703	3,5	1006,16	7,1	9,2	9	1	1	1	1	1	1	1	1	1	0	1	-44,397463	274,387126	276,996697	0
14.01.2021	21:07:31	0	0	2,598522	3,096	87,732	0,503	77,711	3,5	1006,12	7,1	9,1	8,9	1	1	1	1	1	1	1	1	1	0	1	-41,508104	274,52851	280,548993	0
14.01.2021	21:07:32	0	0	4,858077	3,14025	88,5708	0,514	77,717	3,5	1006,16	7,1	9,1	9	1	1	1	1	1	1	1	1	1	0	1	-45,454545	274,519358	276,559604	0
14.01.2021	21:07:33	0	0	3,163399	3,14475	80,5356	0,53	77,718	3,5	1006,3	7,1	9,1	9	1	1	1	1	1	1	1	1	1	0	1	-44,538407	274,415927	276,990714	0
14.01.2021	21:07:34	0	0	2,824463	2,93025	77,9472	0,507	77,709	3,5	1006,04	7	9,1	9	1	1	1	1	1	1	1	1	1	0	1	-46,652572	274,539194	275,454662	0
14.01.2021	21:07:35	0	0	3,163399	2,76	68,7528	0,51	77,729	3,5	1005,92	7,1	9,1	9	1	1	1	1	1	1	1	1	1	0	1	-42,142354	274,472137	279,65029	0
14.01.2021	21:07:36	0	0	2,598506	2,71425	80,5248	0,506	77,728	3,5	1006,04	7,1	9,2	9	1	1	1	1	1	1	1	1	1	0	1	-42,071882	274,365932	279,222989	0
14.01.2021	21:07:37	0	0	4,971085	2,8755	76,8384	0,512	77,737	3,5	1006,16	7	9,2	8,9	1	1	1	1	1	1	1	1	1	0	1	-43,410853	274,514783	278,581832	0
14.01.2021	21:07:38	0	0	4,858077	2,90475	81,9684	0,507	77,727	3,5	1006,1	7,1	9,1	9	1	1	1	1	1	1	1	1	1	0	1	-45,172657	274,485834	276,684227	0
14.01.2021	21:07:39	0	0	3,389356	2,87175	73,7928	0,506	77,748	3,5	1006,3	7	9,1	9	1	1	1	1	1	1	1	1	1	0	1	-43,622269	274,549884	278,535135	0
14.01.2021	21:07:40	0	0	4,519141	2,8485	75,9744	0,503	77,74	3,5	1006,1	7,1	9,1	9	1	1	1	1	1	1	1	1	1	0	1	-44,045102	274,421996	277,512464	0
14.01.2021	21:07:41	0	0	3,954296	2,805	74,1672	0,507	77,745	3,5	1006,1	7,1	9,1	8,8	1	1	1	1	1	1	1	1	1	0	1	-40,028189	274,531562	282,043229	0
14.01.2021	21:07:42	0	0	4,067252	2,71125	80,8668	0,5	77,759	3,5	1006,12	7	9,1	8,9	1	1	1	1	1	1	1	1	1	0	1	-42,776603	274,385611	278,61046	0
14.01.2021	21:07:43	0	0	4,519195	2,8395	78,6384	0,507	77,755	3,5	1006,1	7,1	9,1	8,8	1	1	1	1	1	1	1	1	1	0	1	-41,296688	274,530036	280,767569	0
14.01.2021	21:07:44	0	0	4,971085	3,12	89,3448	0,504	77,771	3,5	1006,12	7,1	9,1	8,9	1	1	1	1	1	1	1	1	1	0	1	-42,776603	274,545302	279,359296	0
14.01.2021	21:07:45	0	0	3,163437	3,219	90,7812	0,509	77,758	3,5	1006,16	7,1	9,1	8,8	1	1	1	1	1	1	1	1	1	0	1	-41,508104	274,470615	280,277405	0
14.01.2021	21:07:46	0	0	2,824497	3,11775	71,6184	0,505	77,773	3,5	1006,16	7,1	9,1	8,8	1	1	1	1	1	1	1	1	1	0	1	-42,283298	274,361393	278,990313	0
14.01.2021	21:07:47	0	0	5,197012	2,94975	80,5824	0,496	77,761	3,5	1006,16	7,1	9,1	9	1	1	1	1	1	1	1	1	1	0	1	-42,424242	274,484312	279,425501	0
14.01.2021	21:07:48	0	0	3,728292	2,79225	77,58	0,505	77,771	3,5	1006,14	7,1	9,1	9	1	1	1	1	1	1	1	1	1	0	1	-45,243129	274,523933	276,792491	0
14.01.2021	21:07:49	0	0	2,824497	2,72775	64,6236	0,504	77,76	3,5	1006,12	7	9,1	8,8	1	1	1	1	1	1	1	1	1	0	1	-48,062016	274,353831	273,176177	0
14.01.2021	21:07:50	0	0	3,502334	2,85	69,8328	0,502	77,776	3,5	1006	7,1	9,1	9	1	1	1	1	1	1	1	1	1	0	1	-44,820296	274,530036	277,243961	0
14.01.2021	21:07:51	0	0	4,63212	2,99775	69,2424	0,501	77,748	3,5	1006,16	7,1	9,1	9	1	1	1	1	1	1	1	1	1	0	1	-44,538407	274,358368	276,721035	0
14.01.2021	21:07:52	0	0	4,293184	3,05175	61,6896	0,505	77,748	3,5	1006,1	7	9,1	9	1	1	1	1	1	1	1	1	1	0	1	-48,062016	274,441733	273,588068	0
14.01.2021	21:07:53	0	0	2,372563	2,904	68,7672	0,505	77,761	3,5	1006,02	7,1	9,1	8,9	1	1	1	1	1	1	1	1	1	0	1	-45,313601	274,358368	275,945841	0
14.01.2021	21:07:54	0	0	4,63212	2,79525	52,1388	0,503	77,745	3,5	1006,1	7,1	9,1	9	1	1	1	1	1	1	1	1	1	0	1	-44,186047	274,525459	277,856732	0
14.01.2021	21:07:55	0	0	3,615356	3,09375	66,2256	0,494	77,753	3,5	1006,08	7,1	9,1	8,8	1	1	1	1	1	1	1	1	1	0	1	-48,555321	274,47518	273,251594	0
14.01.2021	21:07:56	0	0	2,033626	3,08325	90,0108	0,502	77,739	3,5	1006,08	7,1	9,1	8,9	1	1	1	1	1	1	1	1	1	0	1	-43,622269	274,539194	278,484965	0
14.01.2021	21:07:57	0	0	4,067276	2,98125	86,3064	0,503	77,719	3,5	1006,14	7	9,1	8,8	1	1	1	1	1	1	1	1	1	0	1	-46,088795	274,397732	275,35506	0
14.01.2021	21:07:58	0	0	2,485543	2,8635	70,2828	0,499	77,732	3,5	1006,24	7,1	9,1	8,9	1	1	1	1	1	1	1	1	1	0	1	-43,97463	274,373498	277,355686	0
14.01.2021	21:07:59	0	0	4,406189	2,9115	85,5468	0,502	77,731	3,5	1006,1	7,1	9,1	8,9	1	1	1	1	1	1	1	1	1	0	1	-40,732911	274,511733	281,245467	0
14.01.2021	21:08:00	0	0	4,745127	3,1755	62,7912	0,494	77,736	3,5	1006,1	7,1	9,1	8,9	1	1	1	1	1	1	1	1	1	0	1	-43,340381	274,46149	278,402336	0
14.01.2021	21:08:01	0	0	4,745127	3,1755	62,7912	0,494	77,736	3,5	1006,1	7,1	9,1	8,9	1	1	1	1	1	1	1	1	1	0	1	-45,384073	274,350807	275,839957	0
14.01.2021	21:08:02	0	0	2,598522	3,4215	65,4696	0,498	77,741	3,5	1006,18	7,1	9,1	8,9	1	1	1	1	1	1	1	1	1	0	1	-42,142354	274,356855	279,110004	0
14.01.2021	21:08:03	0	0	2,711501	3,555	49,194	0,5	77,738	3,5	1006,16	7,1	9,1	8,9	1	1	1	1	1	1	1	1	1	0	1	-45,59549	274,44629	276,075961	0
14.01.2021	21:08:04	0	0	4,632148	3,801	55,2024	0,496	77,74	3,5	1006,2	7,1	9,1	8,9	1	1	1	1	1	1	1	1	1	0	1	-43,481325	274,522408	278,547137	0
14.01.2021	21:08:05	0	0	4,519168	3,9915	58,86	0,496	77,728	3,5	1006,08	7,1	9,1	8,9	1	1	1	1	1	1	1	1	1	0	1	-47,21635	274,491925	274,669103	0
14.01.2021	21:08:06	0	0	4,406163	4,0815	71,604	0,499	77,732	3,5	1006,18	7,1	9,1	9	1	1	1	1	1	1	1	1	1	0	1	-47,639183	274,449329	274,046516	0
14.01.2021	21:08:07	0	0	3,276397	3,5745	75,636	0,491	77,72	3,5	1006,16	7,1	9,1	8,9	1	1	1	1	1	1	1	1	1	0	1	-47,709655	274,511733	274,268723	0
14.01.2021	21:08:08	0	0	4,519168	3,285	69,8328	0,496	77,722	3,5	1006,14	7,1	9,1	8,9	1	1	1	1	1	1	1	1	1	0	1	-45,313601	274,484312	276,536142	0
14.01.2021	21:08:09	0	0	4,745127	2,9745	66,2148	0,501	77,725	3,5	1006,2	7,1	9,1	8,9	1	1	1	1	1	1	1	1	1	0	1	-43,269908	274,353831	277,968284	0
14.01.2021	21:08:10	0	0	3,163399	2,75325	74,5452	0,496	77,715	3,5	1006,32	7,1	9,1	9	1	1	1	1	1	1	1	1	1	0	1	-47,639183	274,531562	274,432236	0
14.01.2021	21:08:11	0	0	4,858106	2,676	64,2492	0,494	77,731	3,5	1006,26	7,1	9,1	8,9	1	1	1	1	1	1	1	1	1	0	1	-45,877378	274,47518	275,929536	0
14.01.2021	21:08:12	0	0	4,519168	2,571	75,6468	0,496	77,719	3,5	1006,08	7,1	9,1	8,9	1	1	1	1	1	1	1	1	1	0	1	-46,018323	274,338716	275,149083	0
14.01.2021	21:08:13	0	0	3,389376	2,4165	63,8784	0,498	77,727	3,5	1006,2	7,1	9,1	8,9	1	1	1	1	1	1	1	1	1	0	1	-42,494715	274,47518	279,3122	0
14.01.2021	21:08:14	0	0	2,937459	2,214	60,9444	0,493	77,758	3,5	1006,48	7,1	9,1	8,9	1	1	1	1	1	1	1	1	1	0	1	-45,665962	274,367445	275,635996	0
14.01.2021	21:08:15	0	0	2,485558	2,30175	75,2256	0,497	77,746	3,5	1006,16	7,1	9,1	8,8	1	1	1	1	1	1	1	1	1	0	1	-45,172657	274,375012	276,16475	0
14.01.2021	21:08:16	0	0	4,632148	2,316	79,7544	0,49	77,769	3,5	1006,16	7,1	9,1	8,9	1	1	1	1	1	1	1	1	1	0	1	-44,467935	274,47518	277,338979	0
14.01.2021	21:08:17	0	0	3,050457	2,442	67,6836	0,489	77,764	3,5	1005,82	7,1	9,1	8,8	1	1	1	1	1	1	1	1	1	0	1	-45,243129	274,35988	276,023397	0
14.01.2021	21:08:18	0	0	4,858106	2,44575	62,0568	0,486	77,791	3,5	1006,06	7,1	9,1	8,9	1	1	1	1	1	1	1	1	1	0	1	-44,96124	274,44781	276,717334	0
14.01.2021	21:08:19	0	0	2,598522	2,3475	60,57	0,488	77,806	3,5	1006,18	7,1	9,1	8,9	1	1	1	1	1	1	1	1	1	0	1	-42,071882	274,514783	279,920803	0
14.01.2021	21:08:20	0	0	4,180231	2,5365	72,7524	0,481	77,821	3,5	1006,12	7,1	9,1	8,9	1	1	1	1	1	1	1	1	1	0	1	-41,36716	274,441733	280,282924	0
14.01.2021	21:08:21	0	0	3,954249	2,613	80,9028	0,489	77,842	3,5	1006,22	7,1	9,1	9	1	1	1	1	1	1	1	1	1	0	1	-40,239605	274,346272	280,963186	0
14.01.2021	21:08:22	0	0	4,971085	3,3495	81,9756	0,49	77,847	3,5	1006,2	7,1	9,1	8,9	1	1	1	1	1	1	1	1	1	0	1	-42,565187	274,496494	279,3417	0
14.01.2021	21:08:23	0	0	4,632148	3,957	75,9744	0,49	77,856	3,5	1006,08	7,1	9,1	8,9	1	1	1	1	1	1	1	1	1	0	1	-40,098661	274,438695	281,537182	0
14.01.2021	21:08:24	0	0	4,519168	4,1625	72,3024	0,487	77,836	3,5	1005,96	7,1	9,1	8,9	1	1	1	1	1	1	1	1	1	0	1	-41,649049	274,484312	280,200695	0
14.01.2021	21:08:25	0	0	4,180206	4,01475	65,8368	0,483	77,855	3,5	1006,32	7,1	9,1	9	1	1	1	1	1	1	1	1	1	0	1	-45,877378	274,478223	275,943809	0
14.01.2021	21:08:26	0	0	3,841293	3,69825	51,7572	0,487	77,878	3,5	1006,32	7,1	9,1	8,9	1	1	1	1	1	1	1	1	1	0	1	-45,736434	274,50716	276,220489	0
14.01.2021	21:08:27	0	0	2,259584	3,46875	70,2288	0,485	77,891	3,5	1006,2	7,1	9,1	8,9	1	1	1	1	1	1	1	1	1	0	1	-42,494715	274,34476	278,700998	0
14.01.2021	21:08:28	0	0	3,615335	3,21225	66,9348	0,488	77,895	3,5	1006,24	7,1	9,1	8,9	1	1	1	1	1	1	1	1	1	0	1	-45,384073	274,464531	276,372905	0
14.01.2021	21:08:29	0	0	2,937459	3,12975	65,8512	0,484	77,904	3,5	1006,08	7,1	9,1	8,9	1	1	1	1	1	1	1	1	1	0	1	-43,551797	274,343249	277,636838	0
14.01.2021	21:08:30	0	0	4,632148	3,0945	66,9132	0,486	77,919	3,5	1006,2	7,1	9,1	8,9	1	1	1	1	1	1	1	1	1	0	1	-45,877378	274,428066	275,708642	0
14.01.2021	21:08:31	0	0	4,858106	3,0105	82,9836	0,482	77,926	3,5	1006,18	7,1	9,1	8,9	1	1	1	1	1	1	1	1	1	0	1	-43,481325	274,352319	277,749786	0
14.01.2021	21:08:32	0	0	2,485543	3,0945	83,7324	0,484	77,932	3,5	1006,1	7,1	9,1	8,9	1	1	1	1	1	1	1	1	1	0	1	-47,850599	274,505636	274,099174	0
14.01.2021	21:08:33	0	0	2,259584	2,9295	79,0236	0,486	77,937	3,5	1006,24	7,1	9,1	8,9	1	1	1	1	1	1	1	1	1	0	1	-45,031712	274,388641	276,369545	0
14.01.2021	21:08:34	0	0	4,067252	2,7825	90,036	0,481	77,916	3,5	1006,06	7,1	9,1	8,9	1	1	1	1	1	1	1	1	1	0	1	-41,36716	274,523933	280,66846	0
14.01.2021	21:08:35	0	0	2,259584	3,05475	103,3056	0,489	77,936	3,5	1006,24	7,1	9,1	8,9	1	1	1	1	1	1	1	1	1	0	1	-40,944327	274,379554	280,414357	0
14.01.2021	21:08:36	0	0	4,406189	3,2055	93,3444	0,487	77,952	3,5	1006,1	7,1	9,1	8,9	1	1	1	1	1	1	1	1	1	0	1	-46,088795	274,347783	275,121075	0
14.01.2021	21:08:37	0	0	5,084064	3,60075	83,7288	0,488	77,946	3,5	1006,16	7,1	9,1	8,9	1	1	1	1	1	1	1	1	1	0	1	-43,199436	274,482789	278,643167	0
14.01.2021	21:08:38	0	0	4,519168	4,527	75,6144	0,484	77,937	3,5	1006,18	7,1	9,1	8,9	1	1	1	1	1	1	1	1	1	0	1	-46,300211	274,52851	275,756885	0
14.01.2021	21:08:39	0	0	4,745127	4,71375	86,9508	0,485	77,94	3,5	1006,12	7,1	9,1	8,9	1	1	1	1	1	1	1	1	1	0	1	-42,98802	274,403795	278,484246	0
14.01.2021	21:08:40	0	0	4,519168	4,65075	78,6672	0,488	77,932	3,5	1006,22	7,1	9,1	8,9	1	1	1	1	1	1	1	1	1	0	1	-39,393939	274,381068	281,971839	0
14.01.2021	21:08:41	0	0	3,050439	4,314	82,3392	0,485	77,929	3,5	1006,18	7,1	9,1	8,9	1	1	1	1	1	1	1	1	1	0	1	-47,498238	274,352319	273,732873	0
14.01.2021	21:08:42	0	0	4,406189	3,726	83,736	0,484	77,91	3,5	1006,14	7,1	9,1	8,9	1	1	1	1	1	1	1	1	1	0	1	-42,706131	274,476701	279,10792	0
14.01.2021	21:08:43	0	0	3,615335	3,276	63,8568	0,483	77,888	3,5	1006,18	7,1	9,1	8,9	1	1	1	1	1	1	1	1	1	0	1	-42,98802	274,35988	278,278507	0
14.01.2021	21:08:44	0	0	4,632148	3,05025	57,0312	0,48	77,887	3,5	1006,18	7,1	9,1	8,9	1	1	1	1	1	1	1	1	1	0	1	-42,776603	274,40986	278,724085	0
14.01.2021	21:08:45	0	0	3,276397	3,003	87,3648	0,486	77,892	3,5	1006,22	7,1	9,1	8,9	1	1	1	1	1	1	1	1	1	0	1	-48,062016	274,534615	274,023727	0
14.01.2021	21:08:46	0	0	4,632148	2,87775	73,7748	0,482	77,863	3,5	1006,14	7,1	9,1	8,9	1	1	1	1	1	1	1	1	1	0	1	-45,454545	274,470615	276,330963	0
14.01.2021	21:08:47	0	0	3,728314	2,715	75,996	0,48	77,871	3,5	1006,18	7,1	9,1	8,9	1	1	1	1	1	1	1	1	1	0	1	-42,847075	274,514783	279,145609	0
14.01.2021	21:08:48	0	0	4,745127	2,7555	84,4236	0,483	77,863	3,5	1006,22	7,1	9,1	8,9	1	1	1	1	1	1	1	1	1	0	1	-46,723044	274,476701	275,091006	0
14.01.2021	21:08:49	0	0	2,82448	2,637	76,3488	0,481	77,844	3,5	1006,1	7	9,1	8,9	1	1	1	1	1	1	1	1	1	0	1	-46,5821	274,356855	274,670258	0
14.01.2021	21:08:50	0	0	4,745127	2,61225	66,9384	0,483	77,847	3,5	1006,02	7,1	9,1	8,9	1	1	1	1	1	1	1	1	1	0	1	-46,441156	274,511733	275,537222	0
14.01.2021	21:08:51	0	0	3,163418	2,637	80,514	0,486	77,837	3,5	1006,08	7,1	9,1	8,9	1	1	1	1	1	1	1	1	1	0	1	-48,484848	274,403795	272,987418	0
14.01.2021	21:08:52	0	0	3,615335	2,601	66,5388	0,485	77,827	3,5	1006,24	7,1	9,1	8,9	1	1	1	1	1	1	1	1	1	0	1	-46,441156	274,350807	274,782874	0
14.01.2021	21:08:53	0	0	2,82448	2,71425	65,4624	0,48	77,836	3,5	1006,22	7,1	9,1	8,9	1	1	1	1	1	1	1	1	1	0	1	-47,850599	274,379554	273,508085	0
14.01.2021	21:08:54	0	0	2,937459	2,81025	81,5796	0,475	77,824	3,5	1006,16	7,1	9,1	8,9	1	1	1	1	1	1	1	1	1	0	1	-44,397463	274,469094	277,380912	0
14.01.2021	21:08:55	0	0	4,180231	3,20325	88,9596	0,483	77,823	3,5	1006,28	7,1	9,1	8,9	1	1	1	1	1	1	1	1	1	0	1	-45,454545	274,525459	276,588233	0
14.01.2021	21:08:56	0	0	4,632148	3,5145	92,6568	0,482	77,824	3,5	1006,06	7	9,1	8,9	1	1	1	1	1	1	1	1	1	0	1	-45,665962	274,432621	275,941407	0
14.01.2021	21:08:57	0	0	2,711501	3,633	85,1904	0,486	77,826	3,5	1006,16	7,1	9,1	8,9	1	1	1	1	1	1	1	1	1	0	1	-46,229739	274,458449	275,498719	0
14.01.2021	21:08:58	0	0	4,519168	4,1625	95,8788	0,481	77,808	3,5	1006,24	7,1	9,1	8,9	1	1	1	1	1	1	1	1	1	0	1	-46,300211	274,347783	274,909659	0
14.01.2021	21:08:59	0	0	4,406189	4,368	103,6476	0,482	77,831	3,5	1006,08	7,1	9,1	8,9	1	1	1	1	1	1	1	1	1	0	1	-44,326991	274,394701	277,102662	0
14.01.2021	21:09:00	0	0	2,937459	4,395	86,274	0,477	77,832	3,5	1006,08	7,1	9,1	8,9	1	1	1	1	1	1	1	1	1	0	1	-40,662438	274,428066	280,923582	0
14.01.2021	21:09:01	0	0	2,937459	4,395	86,274	0,477	77,832	3,5	1006,08	7,1	9,1	8,9	1	1	1	1	1	1	1	1	1	0	1	-40,662438	274,428066	280,923582	0
14.01.2021	21:09:02	0	0	4,971085	4,314	106,686	0,48	77,827	3,5	1006,22	7,1	9,1	8,9	1	1	1	1	1	1	1	1	1	0	1	-45,313601	274,46149	276,429115	0
14.01.2021	21:09:03	0	0	4,519168	4,26975	103,698	0,482	77,831	3,5	1006,28	7,1	9,1	8,9	1	1	1	1	1	1	1	1	1	0	1	-43,199436	274,511733	278,778942	0
14.01.2021	21:09:04	0	0	2,82448	4,1985	105,1272	0,476	77,831	3,5	1006,06	7	9,1	8,9	1	1	1	1	1	1	1	1	1	0	1	-43,199436	274,358368	278,060006	0
14.01.2021	21:09:05	0	0	4,406189	4,719	95,832	0,477	77,837	3,5	1006,34	7,1	9,1	8,9	1	1	1	1	1	1	1	1	1	0	1	-42,706131	274,514783	279,286553	0
14.01.2021	21:09:06	0	0	3,615335	5,214	90,7632	0,48	77,818	3,5	1006,16	7	9,1	8,9	1	1	1	1	1	1	1	1	1	0	1	-45,736434	274,441733	275,91365	0
14.01.2021	21:09:07	0	0	3,050439	4,9545	96,5952	0,476	77,837	3,5	1006,16	7,1	9,1	8,9	1	1	1	1	1	1	1	1	1	0	1	-47,004933	274,517833	275,00206	0
14.01.2021	21:09:08	0	0	4,745127	4,60875	84,5172	0,481	77,855	3,5	1006,28	7,1	9,1	8,9	1	1	1	1	1	1	1	1	1	0	1	-40,662438	274,355343	280,582837	0
14.01.2021	21:09:09	0	0	2,82448	4,20675	87,3828	0,478	77,855	3,5	1006,16	7,1	9,1	8,9	1	1	1	1	1	1	1	1	1	0	1	-41,36716	274,453888	280,339915	0
14.01.2021	21:09:10	0	0	2,033626	3,8865	105,5088	0,48	77,858	3,5	1006,18	7,1	9,1	8,9	1	1	1	1	1	1	1	1	1	0	1	-48,625793	274,523933	273,409827	0
14.01.2021	21:09:11	0	0	3,389376	3,4875	115,2252	0,476	77,852	3,5	1006,2	7	9,1	8,9	1	1	1	1	1	1	1	1	1	0	1	-43,97463	274,415927	277,554492	0
14.01.2021	21:09:12	0	0	2,485543	3,31725	104,4432	0,478	77,868	3,5	1006,24	7	9,1	8,9	1	1	1	1	1	1	1	1	1	0	1	-44,326991	274,337205	276,83334	0
14.01.2021	21:09:13	0	0	4,180231	3,38775	117,3996	0,474	77,875	3,5	1006,1	7,1	9,1	8,9	1	1	1	1	1	1	1	1	1	0	1	-44,96124	274,470615	276,824269	0
14.01.2021	21:09:14	0	0	3,163418	3,54075	117,1044	0,476	77,892	3,5	1006,18	7,1	9,1	8,9	1	1	1	1	1	1	1	1	1	0	1	-45,877378	274,453888	275,829697	0
14.01.2021	21:09:15	0	0	3,050439	3,41325	121,2732	0,475	77,911	3,5	1006,26	7,1	9,1	8,9	1	1	1	1	1	1	1	1	1	0	1	-46,793517	274,364419	274,494267	0
14.01.2021	21:09:16	0	0	2,598522	3,40425	107,0676	0,477	77,909	3,5	1006,1	7,1	9,1	8,9	1	1	1	1	1	1	1	1	1	0	1	-43,904158	274,390156	277,504197	0
14.01.2021	21:09:17	0	0	3,841293	3,08025	73,7892	0,48	77,919	3,5	1006,3	7,1	9,1	8,9	1	1	1	1	1	1	1	1	1	0	1	-42,35377	274,516308	279,646068	0
14.01.2021	21:09:18	0	0	2,82448	2,88	83,3688	0,479	77,91	3,5	1006,12	7,1	9,1	8,9	1	1	1	1	1	1	1	1	1	0	1	-44,326991	274,423513	277,237688	0
14.01.2021	21:09:19	0	0	3,615335	2,80575	84,1248	0,479	77,935	3,5	1006,1	7,1	9,1	8,9	1	1	1	1	1	1	1	1	1	0	1	-46,018323	274,325122	275,085433	0
14.01.2021	21:09:20	0	0	4,519168	2,78475	94,1184	0,48	77,952	3,5	1006,28	7	9,1	8,9	1	1	1	1	1	1	1	1	1	0	1	-45,806906	274,323613	275,28978	0
14.01.2021	21:09:21	0	0	4,519168	2,83125	103,3488	0,474	77,957	3,5	1006,1	7,1	9,1	8,9	1	1	1	1	1	1	1	1	1	0	1	-46,5821	274,438695	275,053743	0
14.01.2021	21:09:22	0	0	2,485543	2,79225	69,8364	0,472	77,968	3,5	1006,14	7,1	9,1	8,9	1	1	1	1	1	1	1	1	1	0	1	-42,283298	274,334184	278,862885	0
14.01.2021	21:09:23	0	0	2,711501	3,219	86,274	0,479	77,954	3,5	1006,16	7	9,1	8,9	1	1	1	1	1	1	1	1	1	0	1	-43,199436	274,358368	278,060006	0
14.01.2021	21:09:24	0	0	3,163418	3,70575	91,8972	0,481	77,935	3,5	1006,16	7,1	9,1	8,9	1	1	1	1	1	1	1	1	1	0	1	-45,806906	274,487357	276,057119	0
14.01.2021	21:09:25	0	0	2,937459	4,09725	85,1688	0,474	77,962	3,5	1006,06	7	9,1	8,9	1	1	1	1	1	1	1	1	1	0	1	-45,525018	274,337205	275,635314	0
14.01.2021	21:09:26	0	0	2,485543	4,158	94,3992	0,478	77,966	3,5	1006,18	7,1	9,1	8,9	1	1	1	1	1	1	1	1	1	0	1	-42,424242	274,382582	278,94863	0
14.01.2021	21:09:27	0	0	4,29321	4,0305	96,2064	0,475	77,982	3,5	1005,96	7,1	9,1	8,9	1	1	1	1	1	1	1	1	1	0	1	-43,340381	274,481267	278,495084	0
14.01.2021	21:09:28	0	0	4,180206	4,074	97,7112	0,479	77,961	3,5	1006,16	7,1	9,1	9	1	1	1	1	1	1	1	1	1	0	1	-46,5821	274,481267	275,253364	0
14.01.2021	21:09:29	0	0	4,519168	3,80925	87,39	0,48	77,96	3,5	1006,28	7	9,1	8,9	1	1	1	1	1	1	1	1	1	0	1	-48,132488	274,498018	273,781545	0
14.01.2021	21:09:30	0	0	3,276397	3,80625	102,9816	0,479	77,963	3,5	1006,14	7,1	9,1	8,9	1	1	1	1	1	1	1	1	1	0	1	-44,820296	274,456929	276,901034	0
14.01.2021	21:09:31	0	0	4,632148	4,212	74,538	0,48	77,972	3,5	1006,26	7	9,1	8,9	1	1	1	1	1	1	1	1	1	0	1	-43,340381	274,444771	278,323947	0
14.01.2021	21:09:32	0	0	2,711501	4,407	70,8552	0,477	77,955	3,5	1006,12	7	9,1	8,9	1	1	1	1	1	1	1	1	1	0	1	-45,806906	274,349295	275,410044	0
14.01.2021	21:09:33	0	0	4,745127	4,04925	77,274	0,478	77,944	3,5	1006,18	7	9,1	8,9	1	1	1	1	1	1	1	1	1	0	1	-47,850599	274,429584	273,742537	0
14.01.2021	21:09:34	0	0	4,519168	3,53925	86,274	0,473	77,935	3,5	1006,18	7,1	9,1	8,9	1	1	1	1	1	1	1	1	1	0	1	-47,145877	274,502589	274,789598	0
14.01.2021	21:09:35	0	0	3,502355	2,93025	66,9132	0,472	77,937	3,5	1006,1	7	9,1	8,9	1	1	1	1	1	1	1	1	1	0	1	-45,313601	274,356855	275,938757	0
14.01.2021	21:09:36	0	0	3,163418	2,61825	70,1964	0,475	77,921	3,5	1006,12	7	9,1	8,9	1	1	1	1	1	1	1	1	1	0	1	-46,934461	274,375012	274,402946	0
14.01.2021	21:09:37	0	0	4,29321	2,68575	88,1244	0,47	77,915	3,5	1006,02	7,1	9,1	8,9	1	1	1	1	1	1	1	1	1	0	1	-45,665962	274,319084	275,409522	0
14.01.2021	21:09:38	0	0	2,711501	2,70075	84,0312	0,472	77,907	3,5	1006,3	7,1	9,1	8,9	1	1	1	1	1	1	1	1	1	0	1	-46,652572	274,390156	274,755783	0
14.01.2021	21:09:39	0	0	4,632148	2,65425	80,8812	0,478	77,9	3,5	1006,12	7	9,1	8,9	1	1	1	1	1	1	1	1	1	0	1	-47,991543	274,470615	273,793966	0
14.01.2021	21:09:40	0	0	3,615335	2,7765	86,2992	0,474	77,886	3,5	1006,04	7	9,1	8,9	1	1	1	1	1	1	1	1	1	0	1	-47,004933	274,519358	275,009216	0
14.01.2021	21:09:41	0	0	4,29321	2,92275	88,0884	0,472	77,896	3,5	1006,14	7	9,1	8,9	1	1	1	1	1	1	1	1	1	0	1	-44,115574	274,412893	277,399329	0
14.01.2021	21:09:42	0	0	2,598522	2,934	58,4892	0,466	77,887	3,5	1006,02	7	9,1	8,9	1	1	1	1	1	1	1	1	1	0	1	-51,656096	274,508685	270,307978	0
14.01.2021	21:09:43	0	0	2,485543	2,87775	80,4996	0,474	77,892	3,5	1006,16	7	9,1	8,9	1	1	1	1	1	1	1	1	1	0	1	-43,269908	274,368958	278,039138	0
14.01.2021	21:09:44	0	0	2,711501	3,0525	81,5976	0,477	77,88	3,5	1006,06	7	9,1	8,9	1	1	1	1	1	1	1	1	1	0	1	-47,780127	274,335694	273,37313	0
14.01.2021	21:09:45	0	0	2,598522	3,6735	82,4184	0,474	77,881	3,5	1006,14	7	9,1	8,9	1	1	1	1	1	1	1	1	1	0	1	-46,863989	274,435658	274,757616	0
14.01.2021	21:09:46	0	0	2,711501	3,86325	78,678	0,474	77,876	3,5	1006,14	7	9,1	8,9	1	1	1	1	1	1	1	1	1	0	1	-46,018323	274,490402	275,859987	0
14.01.2021	21:09:47	0	0	2,598522	3,6735	69,8544	0,468	77,868	3,5	1006,18	7	9,1	8,9	1	1	1	1	1	1	1	1	1	0	1	-43,199436	274,349295	278,017514	0
14.01.2021	21:09:48	0	0	4,519168	3,30375	76,8096	0,474	77,863	3,5	1006,18	7	9,1	8,9	1	1	1	1	1	1	1	1	1	0	1	-43,763214	274,432621	277,844155	0
14.01.2021	21:09:49	0	0	3,954272	3,012	81,234	0,47	77,861	3,5	1006,14	7,1	9,1	8,9	1	1	1	1	1	1	1	1	1	0	1	-45,59549	274,484312	276,254254	0
14.01.2021	21:09:50	0	0	4,745127	3,0015	81,2016	0,473	77,858	3,5	1006,16	7	9,1	8,9	1	1	1	1	1	1	1	1	1	0	1	-46,934461	274,488879	274,936706	0
14.01.2021	21:09:51	0	0	2,598522	2,9565	77,2128	0,471	77,843	3,5	1006,2	7	9,1	8,9	1	1	1	1	1	1	1	1	1	0	1	-43,551797	274,435658	278,069808	0
14.01.2021	21:09:52	0	0	2,485543	3,06975	87,0876	0,472	77,855	3,5	1006,24	7,1	9,1	8,9	1	1	1	1	1	1	1	1	1	0	1	-46,863989	274,490402	275,014321	0
14.01.2021	21:09:53	0	0	4,519168	3,1815	86,292	0,468	77,835	3,5	1006,36	7	9,1	8,9	1	1	1	1	1	1	1	1	1	0	1	-49,82382	274,364419	271,463964	0
14.01.2021	21:09:54	0	0	4,29321	3,192	82,602	0,471	77,832	3,5	1006,32	7	9,1	8,9	1	1	1	1	1	1	1	1	1	0	1	-42,917548	274,332673	278,221563	0
14.01.2021	21:09:55	0	0	2,598522	3,28875	78,2568	0,471	77,822	3,5	1005,94	7	9,1	8,9	1	1	1	1	1	1	1	1	1	0	1	-42,706131	274,341738	278,475427	0
14.01.2021	21:09:56	0	0	2,937459	3,33	62,0316	0,469	77,799	3,5	1006,1	7	9,1	8,9	1	1	1	1	1	1	1	1	1	0	1	-44,467935	274,449329	277,217763	0
14.01.2021	21:09:57	0	0	3,502355	3,38175	65,484	0,473	77,815	3,5	1006,34	7	9,1	8,9	1	1	1	1	1	1	1	1	1	0	1	-42,565187	274,510209	279,406039	0
14.01.2021	21:09:58	0	0	4,632148	3,345	68,4216	0,465	77,809	3,5	1006,3	7	9,1	8,9	1	1	1	1	1	1	1	1	1	0	1	-42,847075	274,423513	278,717603	0
14.01.2021	21:09:59	0	0	2,711501	3,573	79,02	0,465	77,82	3,5	1006,28	7	9,1	8,9	1	1	1	1	1	1	1	1	1	0	1	-46,652572	274,485834	275,204312	0
14.01.2021	21:10:00	0	0	4,632148	3,7065	70,8444	0,468	77,836	3,5	1006,16	7	9,1	8,9	1	1	1	1	1	1	1	1	1	0	1	-45,243129	274,47518	276,563785	0
14.01.2021	21:10:01	0	0	4,632148	3,7065	70,8444	0,468	77,836	3,5	1006,16	7	9,1	8,9	1	1	1	1	1	1	1	1	1	0	1	-45,243129	274,47518	276,563785	0
14.01.2021	21:10:02	0	0	4,632148	3,582	81,2232	0,469	77,858	3,5	1006,2	7	9,1	8,9	1	1	1	1	1	1	1	1	1	0	1	-44,96124	274,488879	276,909927	0
14.01.2021	21:10:03	0	0	3,728314	3,38475	58,1076	0,47	77,881	3,5	1006,1	7	9,1	8,9	1	1	1	1	1	1	1	1	1	0	1	-46,863989	274,371985	274,459237	0
14.01.2021	21:10:04	0	0	4,519168	3,285	64,6128	0,469	77,892	3,5	1006,16	7	9,1	8,9	1	1	1	1	1	1	1	1	1	0	1	-42,565187	274,490402	279,313123	0
14.01.2021	21:10:05	0	0	3,163418	3,165	58,8636	0,471	77,922	3,5	1006,28	7	9,1	8,9	1	1	1	1	1	1	1	1	1	0	1	-43,97463	274,455409	277,739572	0
14.01.2021	21:10:06	0	0	4,632148	3,09075	70,9452	0,466	77,933	3,5	1006	7	9,1	8,9	1	1	1	1	1	1	1	1	1	0	1	-47,075405	274,34476	274,120308	0
14.01.2021	21:10:07	0	0	3,050439	2,9115	68,8284	0,462	77,953	3,5	1006,2	7	9,1	8,9	1	1	1	1	1	1	1	1	1	0	1	-46,863989	274,455409	274,850213	0
14.01.2021	21:10:08	0	0	4,632148	3,141	71,2152	0,47	77,974	3,5	1006,34	7	9,1	8,9	1	1	1	1	1	1	1	1	1	0	1	-44,115574	274,421996	277,441991	0
14.01.2021	21:10:09	0	0	3,502355	3,35925	80,5212	0,467	77,974	3,5	1006,24	7	9,1	8,9	1	1	1	1	1	1	1	1	1	0	1	-46,652572	274,487357	275,211453	0
14.01.2021	21:10:10	0	0	3,841293	3,22575	70,6212	0,464	77,995	3,5	1006,24	7	9	8,9	1	1	1	1	1	1	1	1	1	0	1	-44,115574	274,459969	277,620013	0
14.01.2021	21:10:11	0	0	4,745127	3,024	62,8092	0,466	77,988	3,5	1006,22	7	9,1	8,9	1	1	1	1	1	1	1	1	1	0	1	-48,273432	274,381068	273,092346	0
14.01.2021	21:10:12	0	0	3,050439	2,7675	79,4196	0,465	77,993	3,5	1006,18	7	9,1	8,9	1	1	1	1	1	1	1	1	1	0	1	-45,454545	274,322103	275,635073	0
14.01.2021	21:10:13	0	0	4,406163	2,643	81,972	0,467	77,986	3,5	1006,16	7	9,1	9	1	1	1	1	1	1	1	1	1	0	1	-46,300211	274,423513	275,264467	0
14.01.2021	21:10:14	0	0	4,519168	2,8365	95,1444	0,467	77,965	3,5	1006,16	7	9,1	8,9	1	1	1	1	1	1	1	1	1	0	1	-45,665962	274,341738	275,515596	0
14.01.2021	21:10:15	0	0	2,82448	2,98275	89,7156	0,468	77,977	3,5	1006	7	9,1	8,9	1	1	1	1	1	1	1	1	1	0	1	-42,001409	274,361393	279,272202	0
14.01.2021	21:10:16	0	0	3,050439	3,144	99,2016	0,467	77,963	3,5	1006,12	7	9,1	8,9	1	1	1	1	1	1	1	1	1	0	1	-43,763214	274,322103	277,326405	0
14.01.2021	21:10:17	0	0	3,163418	3,1755	84,0672	0,466	77,95	3,5	1006	7	9	8,9	1	1	1	1	1	1	1	1	1	0	1	-41,36716	274,341738	279,814398	0
14.01.2021	21:10:18	0	0	3,276397	3,2715	70,848	0,465	77,942	3,5	1006,06	7	9,1	8,9	1	1	1	1	1	1	1	1	1	0	1	-47,286822	274,459969	274,448765	0
14.01.2021	21:10:19	0	0	4,519168	3,35325	74,1744	0,466	77,947	3,5	1006,2	7	9,1	8,9	1	1	1	1	1	1	1	1	1	0	1	-48,696265	274,501065	273,232062	0
14.01.2021	21:10:20	0	0	4,632148	3,55425	60,246	0,458	77,945	3,5	1006,16	7	9,1	8,9	1	1	1	1	1	1	1	1	1	0	1	-42,635659	274,368958	278,673388	0
14.01.2021	21:10:21	0	0	4,29321	3,86175	70,866	0,468	77,922	3,5	1006,28	7	9,1	8,9	1	1	1	1	1	1	1	1	1	0	1	-45,102185	274,325122	276,001571	0
14.01.2021	21:10:22	0	0	4,180231	4,551	64,2348	0,463	77,912	3,5	1006,02	7	9,1	8,9	1	1	1	1	1	1	1	1	1	0	1	-48,414376	274,505636	273,535397	0
14.01.2021	21:10:23	0	0	4,067252	4,52175	73,0692	0,46	77,888	3,5	1006,22	7,1	9,1	8,9	1	1	1	1	1	1	1	1	1	0	1	-48,696265	274,429584	272,896871	0
14.01.2021	21:10:24	0	0	4,632148	4,32525	75,6252	0,462	77,896	3,5	1006,12	7	9,1	8,9	1	1	1	1	1	1	1	1	1	0	1	-44,890768	274,314556	276,163519	0
14.01.2021	21:10:25	0	0	2,937459	4,38375	72,306	0,464	77,883	3,5	1006,16	7	9	8,9	1	1	1	1	1	1	1	1	1	0	1	-43,833686	274,438695	277,802157	0
14.01.2021	21:10:26	0	0	4,971085	4,536	69,462	0,464	77,888	3,5	1006,26	7	9,1	8,9	1	1	1	1	1	1	1	1	1	0	1	-44,186047	274,44629	277,485404	0
14.01.2021	21:10:27	0	0	4,29321	4,86525	78,9768	0,457	77,865	3,5	1006,3	7	9	8,9	1	1	1	1	1	1	1	1	1	0	1	-44,890768	274,319084	276,184716	0
14.01.2021	21:10:28	0	0	3,841293	4,70175	75,5892	0,464	77,866	3,5	1006,14	7	9,1	8,9	1	1	1	1	1	1	1	1	1	0	1	-48,625793	274,384097	272,754175	0
14.01.2021	21:10:29	0	0	3,841293	4,65525	77,2128	0,461	77,895	3,5	1006,22	7	9	8,9	1	1	1	1	1	1	1	1	1	0	1	-46,018323	274,325122	275,085433	0
14.01.2021	21:10:30	0	0	4,745127	4,98075	98,0964	0,462	77,906	3,5	1006,2	7	9,1	8,9	1	1	1	1	1	1	1	1	1	0	1	-48,696265	274,314556	272,358022	0
14.01.2021	21:10:31	0	0	2,711501	4,97325	81,216	0,464	77,907	3,5	1006,2	7	9,1	8,9	1	1	1	1	1	1	1	1	1	0	1	-50,317125	274,437176	271,311599	0
14.01.2021	21:10:32	0	0	2,372563	4,8345	80,1432	0,456	77,913	3,5	1006,22	7	9,1	8,9	1	1	1	1	1	1	1	1	1	0	1	-46,088795	274,502589	275,84668	0
14.01.2021	21:10:33	0	0	4,067252	4,8555	88,9344	0,456	77,92	3,5	1006,06	7	9,1	8,9	1	1	1	1	1	1	1	1	1	0	1	-47,004933	274,384097	274,375035	0
14.01.2021	21:10:34	0	0	3,615313	5,00475	68,4072	0,459	77,94	3,5	1006	7	9,1	9	1	1	1	1	1	1	1	1	1	0	1	-45,665962	274,328142	275,451934	0
14.01.2021	21:10:35	0	0	4,745098	4,548	60,9372	0,46	77,948	3,5	1006,2	7	9,1	9	1	1	1	1	1	1	1	1	1	0	1	-44,186047	274,382582	277,186826	0
14.01.2021	21:10:36	0	0	2,372563	3,879	75,9888	0,458	77,96	3,5	1006,22	7	9,1	8,9	1	1	1	1	1	1	1	1	1	0	1	-43,692741	274,331163	277,439297	0
14.01.2021	21:10:37	0	0	2,82448	3,91125	88,9524	0,461	77,958	3,5	1006,16	7	9,1	8,9	1	1	1	1	1	1	1	1	1	0	1	-45,59549	274,349295	275,62146	0
14.01.2021	21:10:38	0	0	3,728314	4,39875	84,4272	0,462	77,964	3,5	1006,3	7	9	8,9	1	1	1	1	1	1	1	1	1	0	1	-47,357294	274,364419	273,93049	0
14.01.2021	21:10:39	0	0	2,598522	4,90425	91,8972	0,464	77,976	3,5	1006,1	7	9,1	8,9	1	1	1	1	1	1	1	1	1	0	1	-46,793517	274,501065	275,13481	0
14.01.2021	21:10:40	0	0	2,485543	5,08125	88,1244	0,461	77,992	3,5	1006,18	7	9,1	8,9	1	1	1	1	1	1	1	1	1	0	1	-47,357294	274,355343	273,887981	0
14.01.2021	21:10:41	0	0	2,598506	5,0265	92,2752	0,465	78,001	3,5	1006,18	7	9,1	9	1	1	1	1	1	1	1	1	1	0	1	-46,159267	274,311538	274,880892	0
14.01.2021	21:10:42	0	0	2,937459	5,19525	87,354	0,461	77,993	3,5	1006,18	7	9,1	8,9	1	1	1	1	1	1	1	1	1	0	1	-46,511628	274,362906	274,769069	0
14.01.2021	21:10:43	0	0	2,711501	5,28825	91,5156	0,46	77,992	3,5	1006,08	7	9,1	8,9	1	1	1	1	1	1	1	1	1	0	1	-48,766737	274,472137	273,025906	0
14.01.2021	21:10:44	0	0	4,067227	5,30925	89,6904	0,483	77,974	3,5	1006,26	7	9,1	9	1	1	1	1	1	1	1	1	1	0	1	-45,172657	274,494971	276,727085	0
14.01.2021	21:10:45	0	0	3,728292	5,3115	89,3232	0,46	77,967	3,5	1006,16	7	9,1	9	1	1	1	1	1	1	1	1	1	0	1	-46,370684	274,444771	275,293644	0
14.01.2021	21:10:46	0	0	3,502334	5,2965	82,3428	0,463	77,97	3,5	1006,1	7	9,1	9	1	1	1	1	1	1	1	1	1	0	1	-44,397463	274,319084	276,678021	0
14.01.2021	21:10:47	0	0	3,615313	5,43525	84,1068	0,462	77,962	3,5	1006,12	7	9,1	9	1	1	1	1	1	1	1	1	1	0	1	-48,907681	274,326632	272,203144	0
14.01.2021	21:10:48	0	0	4,067252	5,427	83,7216	0,462	77,953	3,5	1006,22	7	9,1	8,9	1	1	1	1	1	1	1	1	1	0	1	-43,763214	274,302488	277,234578	0
14.01.2021	21:10:49	0	0	4,745098	5,3595	87,7212	0,459	77,94	3,5	1006,3	7	9	9	1	1	1	1	1	1	1	1	1	0	1	-50,105708	274,458449	271,62275	0
14.01.2021	21:10:50	0	0	2,711501	5,445	93,3516	0,462	77,945	3,5	1006,28	7	9,1	8,9	1	1	1	1	1	1	1	1	1	0	1	-44,326991	274,459969	277,408596	0
14.01.2021	21:10:51	0	0	3,841293	5,289	90,0432	0,465	77,948	3,5	1006,12	7	9	8,9	1	1	1	1	1	1	1	1	1	0	1	-45,525018	274,311538	275,515142	0
14.01.2021	21:10:52	0	0	3,728314	5,0415	86,67	0,459	77,954	3,5	1006,22	7	9,2	8,9	1	1	1	1	1	1	1	1	1	0	1	-49,753347	274,432621	271,854022	0
14.01.2021	21:10:53	0	0	2,485543	4,90725	88,5672	0,457	77,95	3,5	1006,34	7	9,1	8,9	1	1	1	1	1	1	1	1	1	0	1	-46,863989	274,305504	274,147923	0
14.01.2021	21:10:54	0	0	4,519168	4,77525	94,1148	0,459	77,942	3,5	1006,28	7	9	8,9	1	1	1	1	1	1	1	1	1	0	1	-47,427766	274,431103	274,172486	0
14.01.2021	21:10:55	0	0	3,05042	4,71	77,5728	0,457	77,935	3,5	1006,2	7	9,1	9	1	1	1	1	1	1	1	1	1	0	1	-42,706131	274,479745	279,122195	0
14.01.2021	21:10:56	0	0	2,937459	4,794	81,5976	0,46	77,923	3,5	1006,2	7	9,1	8,9	1	1	1	1	1	1	1	1	1	0	1	-45,172657	274,353831	276,065536	0
14.01.2021	21:10:57	0	0	4,293184	4,73475	80,1468	0,461	77,917	3,5	1006,14	7	9,1	9	1	1	1	1	1	1	1	1	1	0	1	-42,494715	274,458449	279,233743	0
14.01.2021	21:10:58	0	0	3,84127	4,68375	90,7848	0,454	77,912	3,5	1006,16	7	9,2	9	1	1	1	1	1	1	1	1	1	0	1	-44,608879	274,469094	277,169496	0
14.01.2021	21:10:59	0	0	2,485543	4,6815	85,5144	0,458	77,931	3,5	1006,18	7	9	8,9	1	1	1	1	1	1	1	1	1	0	1	-44,820296	274,387126	276,573864	0
14.01.2021	21:11:00	0	0	3,728292	4,4535	75,9996	0,456	77,929	3,5	1006,26	7	9,1	9	1	1	1	1	1	1	1	1	1	0	1	-47,850599	274,432621	273,75677	0
14.01.2021	21:11:01	0	0	3,728292	4,4535	75,9996	0,456	77,929	3,5	1006,26	7	9,1	9	1	1	1	1	1	1	1	1	1	0	1	-47,850599	274,432621	273,75677	0
14.01.2021	21:11:02	0	0	2,485528	4,27425	77,976	0,458	77,925	3,5	1006,2	7	9,2	9	1	1	1	1	1	1	1	1	1	0	1	-50,669486	274,488879	271,201682	0
14.01.2021	21:11:03	0	0	3,615313	4,263	81,2124	0,46	77,899	3,5	1006,08	7	9	9	1	1	1	1	1	1	1	1	1	0	1	-43,97463	274,455409	277,739572	0
14.01.2021	21:11:04	0	0	4,406163	4,45275	93,7188	0,456	77,946	3,5	1006,34	7	9	9	1	1	1	1	1	1	1	1	1	0	1	-44,326991	274,313047	276,720232	0
14.01.2021	21:11:05	0	0	2,937442	4,407	77,958	0,457	77,889	3,5	1006,28	7	9,1	9	1	1	1	1	1	1	1	1	1	0	1	-45,243129	274,335694	275,910128	0
14.01.2021	21:11:06	0	0	3,502376	4,488	92,2716	0,459	77,888	3,5	1006,22	7	9,2	8,8	1	1	1	1	1	1	1	1	1	0	1	-45,313601	274,41441	276,208411	0
14.01.2021	21:11:07	0	0	2,598506	4,00125	79,4124	0,452	77,86	3,5	1005,96	7	9,1	9	1	1	1	1	1	1	1	1	1	0	1	-44,115574	274,316065	276,945778	0
14.01.2021	21:11:08	0	0	3,05042	3,79875	82,0512	0,452	77,853	3,5	1005,96	7	9	9	1	1	1	1	1	1	1	1	1	0	1	-44,186047	274,346272	277,016745	0
14.01.2021	21:11:09	0	0	2,485543	3,76575	81,594	0,454	77,832	3,5	1006,22	7	9	8,9	1	1	1	1	1	1	1	1	1	0	1	-48,062016	274,314556	272,992272	0
14.01.2021	21:11:10	0	0	4,180231	3,9435	75,6072	0,459	77,844	3,5	1006,22	7	9	8,9	1	1	1	1	1	1	1	1	1	0	1	-51,233263	274,441733	270,416821	0
14.01.2021	21:11:11	0	0	4,745098	3,93825	81,0792	0,46	77,834	3,5	1006,12	7	9	9	1	1	1	1	1	1	1	1	1	0	1	-47,004933	274,435658	274,616672	0
14.01.2021	21:11:12	0	0	4,63212	4,17	76,4388	0,455	77,808	3,5	1006,1	7	9,2	9	1	1	1	1	1	1	1	1	1	0	1	-46,370684	274,319084	274,7048	0
14.01.2021	21:11:13	0	0	2,937459	4,31475	87,7284	0,456	77,815	3,5	1006,22	7	9	8,9	1	1	1	1	1	1	1	1	1	0	1	-48,484848	274,365932	272,810022	0
14.01.2021	21:11:14	0	0	4,519141	4,42725	85,5396	0,455	77,816	3,5	1006,1	7	9,1	9	1	1	1	1	1	1	1	1	1	0	1	-46,441156	274,337205	274,719175	0
14.01.2021	21:11:15	0	0	3,954296	4,719	73,0332	0,458	77,81	3,5	1006,18	7	9	8,8	1	1	1	1	1	1	1	1	1	0	1	-47,709655	274,331163	273,422383	0
14.01.2021	21:11:16	0	0	4,293184	4,62375	77,6016	0,455	77,814	3,5	1006,28	7	9	9	1	1	1	1	1	1	1	1	1	0	1	-46,018323	274,440214	275,62464	0
14.01.2021	21:11:17	0	0	4,858077	4,578	79,056	0,461	77,815	3,5	1006,1	7	9	9	1	1	1	1	1	1	1	1	1	0	1	-43,340381	274,296456	277,62918	0
14.01.2021	21:11:18	0	0	3,954249	4,71525	70,8444	0,449	77,811	3,5	1006,08	7	9,1	9	1	1	1	1	1	1	1	1	1	0	1	-49,753347	274,397732	271,690507	0
14.01.2021	21:11:19	0	0	2,485528	4,7445	81,2232	0,454	77,82	3,5	1006,18	7	9	9	1	1	1	1	1	1	1	1	1	0	1	-47,357294	274,482789	274,48531	0
14.01.2021	21:11:20	0	0	4,180206	4,65075	72,2988	0,454	77,829	3,5	1006,18	7	9	9	1	1	1	1	1	1	1	1	1	0	1	-46,370684	274,453888	275,336391	0
14.01.2021	21:11:21	0	0	4,745098	4,878	70,8516	0,456	77,856	3,5	1006,22	7	9	9	1	1	1	1	1	1	1	1	1	0	1	-42,706131	274,311538	278,334028	0
14.01.2021	21:11:22	0	0	4,858106	4,91625	74,9052	0,457	77,854	3,5	1006,14	7	9	8,9	1	1	1	1	1	1	1	1	1	0	1	-46,5821	274,452369	275,117849	0
14.01.2021	21:11:23	0	0	4,519141	5,0205	76,8564	0,447	77,85	3,5	1006,02	7	9,1	9	1	1	1	1	1	1	1	1	1	0	1	-45,172657	274,334184	275,973526	0
14.01.2021	21:11:24	0	0	2,937442	4,7805	80,5212	0,444	77,862	3,5	1006,16	7	9,1	9	1	1	1	1	1	1	1	1	1	0	1	-46,863989	274,467573	274,907253	0
14.01.2021	21:11:25	0	0	2,485528	4,67325	75,9636	0,452	77,854	3,5	1006,2	7	9	9	1	1	1	1	1	1	1	1	1	0	1	-45,59549	274,428066	275,990531	0
14.01.2021	21:11:26	0	0	4,519195	4,863	80,1468	0,45	77,866	3,5	1006,2	7	9,1	8,8	1	1	1	1	1	1	1	1	1	0	1	-45,947851	274,485834	275,909033	0
14.01.2021	21:11:27	0	0	3,276377	5,00775	84,4488	0,455	77,882	3,5	1006,14	7	9	9	1	1	1	1	1	1	1	1	1	0	1	-46,441156	274,355343	274,804119	0
14.01.2021	21:11:28	0	0	3,05042	5,38125	74,16	0,45	77,87	3,5	1005,96	7	9,1	9	1	1	1	1	1	1	1	1	1	0	1	-46,159267	274,335694	274,99399	0
14.01.2021	21:11:29	0	0	4,067227	5,80275	73,0368	0,448	77,892	3,5	1006	7	9	9	1	1	1	1	1	1	1	1	1	0	1	-46,652572	274,472137	275,140071	0
14.01.2021	21:11:30	0	0	3,05042	5,559	73,4292	0,451	77,886	3,5	1006,12	7	9,1	9	1	1	1	1	1	1	1	1	1	0	1	-46,652572	274,420478	274,897882	0
14.01.2021	21:11:31	0	0	3,615313	5,202	71,9892	0,45	77,883	3,5	1006,08	7	9	9	1	1	1	1	1	1	1	1	1	0	1	-43,904158	274,305504	277,107754	0
14.01.2021	21:11:32	0	0	4,519195	5,3355	77,5656	0,446	77,89	3,5	1006,2	7	9	8,8	1	1	1	1	1	1	1	1	1	0	1	-48,766737	274,376526	272,577762	0
14.01.2021	21:11:33	0	0	4,63212	5,4435	74,1492	0,451	77,899	3,5	1005,98	7	9	9	1	1	1	1	1	1	1	1	1	0	1	-45,313601	274,459969	276,421986	0
14.01.2021	21:11:34	0	0	4,406163	5,32875	79,1424	0,444	77,916	3,5	1006,24	7	9,1	9	1	1	1	1	1	1	1	1	1	0	1	-46,511628	274,444771	275,1527	0
14.01.2021	21:11:35	0	0	4,63212	5,0595	93,312	0,451	77,914	3,5	1006,26	7	9,1	9	1	1	1	1	1	1	1	1	1	0	1	-47,427766	274,31003	273,60533	0
14.01.2021	21:11:36	0	0	4,406163	4,74825	88,938	0,448	77,927	3,5	1006,32	7	9	9	1	1	1	1	1	1	1	1	1	0	1	-46,229739	274,469094	275,548636	0
14.01.2021	21:11:37	0	0	4,858077	4,17225	73,0548	0,447	77,918	3,5	1006,2	7	9,1	9	1	1	1	1	1	1	1	1	1	0	1	-45,525018	274,365932	275,769853	0
14.01.2021	21:11:38	0	0	3,728336	3,8895	90,0468	0,446	77,936	3,5	1006,2	7	9,1	8,8	1	1	1	1	1	1	1	1	1	0	1	-50,599013	274,488879	271,272154	0
14.01.2021	21:11:39	0	0	2,372549	3,8595	91,152	0,451	77,945	3,5	1006,22	7	9,1	9	1	1	1	1	1	1	1	1	1	0	1	-43,128964	274,412893	278,38594	0
14.01.2021	21:11:40	0	0	3,728336	3,8895	86,9904	0,441	77,947	3,5	1006,28	7	9	8,8	1	1	1	1	1	1	1	1	1	0	1	-47,21635	274,316065	273,845002	0
14.01.2021	21:11:41	0	0	4,632175	3,996	86,2668	0,442	77,939	3,5	1006,08	7	9	8,8	1	1	1	1	1	1	1	1	1	0	1	-50,880902	274,459969	270,854685	0
14.01.2021	21:11:42	0	0	4,971115	4,08375	76,3776	0,444	77,953	3,5	1006,24	7	9,1	8,8	1	1	1	1	1	1	1	1	1	0	1	-45,031712	274,438695	276,60413	0
14.01.2021	21:11:43	0	0	3,728336	4,0185	59,85	0,444	77,978	3,5	1006,28	7	9,2	8,8	1	1	1	1	1	1	1	1	1	0	1	-45,031712	274,316065	276,02964	0
14.01.2021	21:11:44	0	0	4,632175	3,9495	68,4144	0,446	77,982	3,5	1006,38	7	9	8,8	1	1	1	1	1	1	1	1	1	0	1	-44,538407	274,437176	277,090316	0
14.01.2021	21:11:45	0	0	2,711485	4,25175	89,0352	0,444	77,987	3,5	1006,16	7	9,1	9	1	1	1	1	1	1	1	1	1	0	1	-46,370684	274,320593	274,711867	0
14.01.2021	21:11:46	0	0	2,824463	4,545	85,1796	0,441	78,001	3,5	1006,16	7	9,1	9	1	1	1	1	1	1	1	1	1	0	1	-45,806906	274,346272	275,395885	0
14.01.2021	21:11:47	0	0	4,745098	4,30725	91,1628	0,448	78,01	3,5	1006,1	7	9,1	9	1	1	1	1	1	1	1	1	1	0	1	-48,696265	274,444771	272,968063	0
14.01.2021	21:11:48	0	0	2,937477	4,077	88,9488	0,442	78,001	3,5	1006,14	7	9	8,8	1	1	1	1	1	1	1	1	1	0	1	-50,458069	274,331163	270,673969	0
14.01.2021	21:11:49	0	0	4,406163	3,70275	78,6456	0,448	78,018	3,5	1006,06	7	9	9	1	1	1	1	1	1	1	1	1	0	1	-46,088795	274,479745	275,739531	0
14.01.2021	21:11:50	0	0	4,293184	3,54825	74,1708	0,449	78,019	3,5	1006,24	7	9,1	9	1	1	1	1	1	1	1	1	1	0	1	-44,538407	274,488879	277,33276	0
14.01.2021	21:11:51	0	0	4,519195	3,31575	98,0496	0,444	78,006	3,5	1006,04	7	9,1	8,8	1	1	1	1	1	1	1	1	1	0	1	-45,384073	274,396216	276,05268	0
14.01.2021	21:11:52	0	0	4,632175	3,2745	90,4284	0,451	78,018	3,5	1006,12	7	9	8,8	1	1	1	1	1	1	1	1	1	0	1	-45,243129	274,505636	276,706644	0
14.01.2021	21:11:53	0	0	4,067276	3,69225	96,2352	0,445	78,033	3,5	1006,28	7	9,2	8,8	1	1	1	1	1	1	1	1	1	0	1	-44,115574	274,365932	277,179296	0
14.01.2021	21:11:54	0	0	3,389397	4,3635	76,3668	0,443	78,023	3,5	1006,18	7	9,1	8,8	1	1	1	1	1	1	1	1	1	0	1	-46,652572	274,435658	274,969032	0
14.01.2021	21:11:55	0	0	4,180256	4,8045	86,6484	0,443	78,038	3,5	1006,2	7	9,1	8,8	1	1	1	1	1	1	1	1	1	0	1	-47,709655	274,488879	274,161512	0
14.01.2021	21:11:56	0	0	2,711517	5,48325	80,1576	0,45	78,048	3,5	1006,18	7	9,1	8,8	1	1	1	1	1	1	1	1	1	0	1	-44,890768	274,405311	276,588602	0
14.01.2021	21:11:57	0	0	3,728292	5,88825	90,396	0,447	78,051	3,5	1006,18	7	9,1	9	1	1	1	1	1	1	1	1	1	0	1	-43,97463	274,487357	277,889395	0
14.01.2021	21:11:58	0	0	5,084095	6,06975	73,0656	0,444	78,067	3,5	1006,12	7	9,1	8,8	1	1	1	1	1	1	1	1	1	0	1	-47,075405	274,453888	274,63167	0
14.01.2021	21:11:59	0	0	3,502376	5,97975	64,242	0,452	78,083	3,5	1006,26	7	9,1	8,8	1	1	1	1	1	1	1	1	1	0	1	-47,286822	274,469094	274,491553	0
14.01.2021	21:12:00	0	0	4,293236	6,333	57,4128	0,448	78,092	3,5	1006,2	7	9,1	8,8	1	1	1	1	1	1	1	1	1	0	1	-47,075405	274,491925	274,810048	0
14.01.2021	21:12:01	0	0	5,084095	6,417	61,6824	0,442	78,084	3,5	1006,14	7	9,1	8,8	1	1	1	1	1	1	1	1	1	0	1	-47,075405	274,491925	274,810048	0
14.01.2021	21:12:02	0	0	5,084095	6,417	61,6824	0,442	78,084	3,5	1006,14	7	9,1	8,8	1	1	1	1	1	1	1	1	1	0	1	-47,004933	274,450849	274,68789	0
14.01.2021	21:12:03	0	0	4,293184	6,53175	68,8032	0,451	78,1	3,5	1006,2	7	9,1	9	1	1	1	1	1	1	1	1	1	0	1	-49,18957	274,334184	271,956613	0
14.01.2021	21:12:04	0	0	4,632175	6,531	75,258	0,449	78,086	3,5	1005,94	7	9	8,8	1	1	1	1	1	1	1	1	1	0	1	-45,172657	274,501065	276,75567	0
14.01.2021	21:12:05	0	0	4,406216	6,39675	61,7004	0,444	78,089	3,5	1006,12	7	9	8,8	1	1	1	1	1	1	1	1	1	0	1	-46,793517	274,453888	274,913558	0
14.01.2021	21:12:06	0	0	4,293236	6,357	65,4624	0,449	78,104	3,5	1006,28	7	9,1	8,8	1	1	1	1	1	1	1	1	1	0	1	-49,400987	274,510209	272,570239	0
14.01.2021	21:12:07	0	0	2,824497	6,162	69,1596	0,448	78,093	3,5	1006,06	7	9,1	8,8	1	1	1	1	1	1	1	1	1	0	1	-43,904158	274,391671	277,511296	0
14.01.2021	21:12:08	0	0	4,745098	5,91525	65,8476	0,444	78,094	3,5	1006,16	7	9,1	9	1	1	1	1	1	1	1	1	1	0	1	-45,665962	274,496494	276,240925	0
14.01.2021	21:12:09	0	0	2,711485	5,73075	59,112	0,448	78,098	3,5	1006,14	7	9,1	9	1	1	1	1	1	1	1	1	1	0	1	-43,481325	274,362906	277,799372	0
14.01.2021	21:12:10	0	0	3,502334	5,70675	71,226	0,449	78,12	3,5	1006,14	7	9,1	9	1	1	1	1	1	1	1	1	1	0	1	-44,820296	274,334184	276,325887	0
14.01.2021	21:12:11	0	0	4,406216	5,57025	75,0528	0,447	78,109	3,5	1006,18	7	9,1	8,8	1	1	1	1	1	1	1	1	1	0	1	-46,723044	274,493448	275,169553	0
14.01.2021	21:12:12	0	0	2,598537	5,484	75,2292	0,447	78,13	3,5	1006,14	7	9,1	8,8	1	1	1	1	1	1	1	1	1	0	1	-47,357294	274,350807	273,866736	0
14.01.2021	21:12:13	0	0	4,067276	5,727	75,2472	0,45	78,134	3,5	1006,18	7	9,1	8,8	1	1	1	1	1	1	1	1	1	0	1	-47,639183	274,498018	274,27485	0
14.01.2021	21:12:14	0	0	3,954249	5,8575	78,2856	0,448	78,105	3,5	1006	7	9,1	9	1	1	1	1	1	1	1	1	1	0	1	-52,219873	274,50716	269,73705	0
14.01.2021	21:12:15	0	0	3,954249	5,385	76,014	0,45	78,096	3,5	1006,2	7	9	9	1	1	1	1	1	1	1	1	1	0	1	-47,004933	274,387126	274,389227	0
14.01.2021	21:12:16	0	0	3,502376	4,584	80,9064	0,444	78,107	3,5	1006,16	7	9,1	8,8	1	1	1	1	1	1	1	1	1	0	1	-46,229739	274,508685	275,734335	0
14.01.2021	21:12:17	0	0	4,293184	4,1535	93,7368	0,452	78,106	3,5	1006,32	7	9	9	1	1	1	1	1	1	1	1	1	0	1	-52,924595	274,452369	268,775354	0
14.01.2021	21:12:18	0	0	3,728292	4,39875	97,7832	0,452	78,092	3,5	1006,06	7	9,1	9	1	1	1	1	1	1	1	1	1	0	1	-48,273432	274,508685	273,690642	0
14.01.2021	21:12:19	0	0	2,824497	4,683	99,5004	0,456	78,09	3,5	1006,08	7	9,1	8,8	1	1	1	1	1	1	1	1	1	0	1	-49,330514	274,379554	272,02817	0
14.01.2021	21:12:20	0	0	4,63212	4,43325	86,2596	0,457	78,084	3,5	1006,28	7	9	9	1	1	1	1	1	1	1	1	1	0	1	-50,880902	274,485834	270,975982	0
14.01.2021	21:12:21	0	0	3,728336	4,15275	93,7044	0,452	78,086	3,5	1006,22	7	9,1	8,8	1	1	1	1	1	1	1	1	1	0	1	-48,414376	274,355343	272,830899	0
14.01.2021	21:12:22	0	0	3,389397	4,15275	75,0024	0,455	78,064	3,5	1006,3	7	9,1	8,8	1	1	1	1	1	1	1	1	1	0	1	-47,427766	274,46149	274,314951	0
14.01.2021	21:12:23	0	0	4,858135	4,314	64,6272	0,447	78,061	3,5	1006,14	7	9,1	8,8	1	1	1	1	1	1	1	1	1	0	1	-42,635659	274,341738	278,545899	0
14.01.2021	21:12:24	0	0	4,632175	4,11	107,7444	0,446	78,034	3,5	1006,14	7	9,1	8,8	1	1	1	1	1	1	1	1	1	0	1	-47,075405	274,449329	274,610293	0
14.01.2021	21:12:25	0	0	3,276417	3,92025	81,2196	0,452	78,047	3,5	1006,16	7	9,1	8,8	1	1	1	1	1	1	1	1	1	0	1	-47,21635	274,488879	274,654818	0
14.01.2021	21:12:26	0	0	2,824497	3,78225	82,4364	0,455	78,04	3,5	1006,18	7	9,1	8,8	1	1	1	1	1	1	1	1	1	0	1	-46,229739	274,393186	275,192814	0
14.01.2021	21:12:27	0	0	4,745155	3,54225	77,9508	0,455	78,039	3,5	1006,28	7	9,1	8,8	1	1	1	1	1	1	1	1	1	0	1	-52,713178	274,338716	268,454228	0
14.01.2021	21:12:28	0	0	4,406216	3,67125	76,8168	0,453	78,025	3,5	1006,16	7	9,1	8,8	1	1	1	1	1	1	1	1	1	0	1	-50,669486	274,355343	270,57579	0
14.01.2021	21:12:29	0	0	3,728336	4,00275	71,5896	0,451	78,019	3,5	1006,06	7	9,1	8,8	1	1	1	1	1	1	1	1	1	0	1	-48,696265	274,473658	273,103513	0
14.01.2021	21:12:30	0	0	4,180256	3,7785	87,7356	0,458	78,019	3,5	1006	7	9	8,8	1	1	1	1	1	1	1	1	1	0	1	-46,018323	274,517833	275,988671	0
14.01.2021	21:12:31	0	0	3,954296	3,79275	72,702	0,456	78	3,5	1006,12	7	9	8,8	1	1	1	1	1	1	1	1	1	0	1	-46,793517	274,406827	274,692959	0
14.01.2021	21:12:32	0	0	3,502376	4,4115	50,706	0,456	77,989	3,5	1006,14	7	9,1	8,8	1	1	1	1	1	1	1	1	1	0	1	-46,441156	274,513258	275,544375	0
14.01.2021	21:12:33	0	0	2,711517	4,79775	52,5312	0,456	77,989	3,5	1006,06	7	9,1	8,8	1	1	1	1	1	1	1	1	1	0	1	-44,326991	274,376526	277,017508	0
14.01.2021	21:12:34	0	0	2,937477	5,178	58,122	0,458	77,984	3,5	1006,18	7	9,1	8,8	1	1	1	1	1	1	1	1	1	0	1	-49,682875	274,368958	271,626171	0
14.01.2021	21:12:35	0	0	3,050457	5,055	92,2752	0,454	77,988	3,5	1006,02	7	9,1	8,8	1	1	1	1	1	1	1	1	1	0	1	-46,863989	274,331163	274,268049	0
14.01.2021	21:12:36	0	0	4,632175	4,5225	92,6352	0,455	78,005	3,5	1006,2	7	9,1	8,8	1	1	1	1	1	1	1	1	1	0	1	-46,934461	274,440214	274,708502	0
14.01.2021	21:12:37	0	0	4,858135	4,16775	87,3504	0,456	78,009	3,5	1006,18	7	9,1	8,8	1	1	1	1	1	1	1	1	1	0	1	-48,273432	274,334184	272,872751	0
14.01.2021	21:12:38	0	0	4,745155	4,1835	85,1472	0,456	77,994	3,5	1006,16	7	9,1	8,8	1	1	1	1	1	1	1	1	1	0	1	-48,625793	274,470615	273,159716	0
14.01.2021	21:12:39	0	0	3,050457	3,963	82,9656	0,453	77,999	3,5	1006,12	7	9,1	8,8	1	1	1	1	1	1	1	1	1	0	1	-50,317125	274,396216	271,119628	0
14.01.2021	21:12:40	0	0	4,745155	3,837	90,666	0,456	78,018	3,5	1006,06	7	9	8,8	1	1	1	1	1	1	1	1	1	0	1	-47,56871	274,508685	274,395364	0
14.01.2021	21:12:41	0	0	3,050457	3,89025	94,1652	0,456	77,983	3,5	1006,04	7	9,1	8,8	1	1	1	1	1	1	1	1	1	0	1	-49,260042	274,456929	272,461287	0
14.01.2021	21:12:42	0	0	2,937442	4,134	90,7488	0,447	78,01	3,5	1006,06	7	9,1	9	1	1	1	1	1	1	1	1	1	0	1	-53,065539	274,347783	268,144331	0
14.01.2021	21:12:43	0	0	3,163437	4,08375	93,33	0,459	78,015	3,5	1006,28	7	9,1	8,8	1	1	1	1	1	1	1	1	1	0	1	-51,726568	274,361393	269,547043	0
14.01.2021	21:12:44	0	0	2,937477	3,87	87,3324	0,454	78,027	3,5	1005,98	7	9,1	8,8	1	1	1	1	1	1	1	1	1	0	1	-47,004933	274,453888	274,702142	0
14.01.2021	21:12:45	0	0	3,728336	3,71175	90,8064	0,458	78,043	3,5	1006	7	9,1	8,8	1	1	1	1	1	1	1	1	1	0	1	-43,340381	274,331163	277,791657	0
14.01.2021	21:12:46	0	0	4,067276	3,9675	57,4164	0,458	78,048	3,5	1006,28	7	9,1	8,8	1	1	1	1	1	1	1	1	1	0	1	-51,021846	274,493448	270,870751	0
14.01.2021	21:12:47	0	0	3,05042	4,2975	77,5728	0,462	78,048	3,5	1006,16	7	9,1	9	1	1	1	1	1	1	1	1	1	0	1	-49,894292	274,385611	271,492772	0
14.01.2021	21:12:48	0	0	3,502376	5,016	67,0176	0,453	78,073	3,5	1006,16	7	9,1	8,8	1	1	1	1	1	1	1	1	1	0	1	-50,17618	274,520883	271,845125	0
14.01.2021	21:12:49	0	0	4,745155	4,9245	63,1872	0,455	78,058	3,5	1006,04	7	9,1	8,8	1	1	1	1	1	1	1	1	1	0	1	-48,20296	274,396216	273,233793	0
14.01.2021	21:12:50	0	0	3,050457	4,27425	91,9188	0,454	78,08	3,5	1006,1	7	9,1	8,8	1	1	1	1	1	1	1	1	1	0	1	-50,528541	274,358368	270,730901	0
14.01.2021	21:12:51	0	0	2,485528	3,81525	91,1484	0,462	78,064	3,5	1005,92	7	9,1	9	1	1	1	1	1	1	1	1	1	0	1	-46,441156	274,381068	274,924622	0
14.01.2021	21:12:52	0	0	4,293236	3,822	90,3852	0,46	78,076	3,5	1006,3	7	9,1	8,8	1	1	1	1	1	1	1	1	1	0	1	-48,484848	274,358368	272,774593	0
14.01.2021	21:12:53	0	0	4,519195	3,9555	96,5952	0,461	78,079	3,5	1006,36	7	9,1	8,8	1	1	1	1	1	1	1	1	1	0	1	-45,806906	274,508685	276,157168	0
14.01.2021	21:12:54	0	0	4,745155	3,87	104,4648	0,454	78,066	3,5	1006,12	7	9,1	8,8	1	1	1	1	1	1	1	1	1	0	1	-46,863989	274,453888	274,843086	0
14.01.2021	21:12:55	0	0	3,954296	3,57525	91,9044	0,46	78,07	3,5	1006,2	7	9,1	8,8	1	1	1	1	1	1	1	1	1	0	1	-45,384073	274,522408	276,644389	0
14.01.2021	21:12:56	0	0	4,858135	3,4305	73,4328	0,463	78,058	3,5	1006,1	7	9,1	8,8	1	1	1	1	1	1	1	1	1	0	1	-46,511628	274,458449	275,21683	0
14.01.2021	21:12:57	0	0	3,276417	3,459	73,044	0,462	78,051	3,5	1006,2	7	9,1	8,8	1	1	1	1	1	1	1	1	1	0	1	-46,229739	274,499541	275,69144	0
14.01.2021	21:12:58	0	0	3,954296	3,60525	82,062	0,456	78,055	3,5	1006,2	7	9,1	8,8	1	1	1	1	1	1	1	1	1	0	1	-51,303735	274,479745	270,524591	0
14.01.2021	21:12:59	0	0	3,502376	3,45	71,6112	0,458	78,029	3,5	1006,12	7	9,1	8,8	1	1	1	1	1	1	1	1	1	0	1	-48,696265	274,479745	273,132061	0
14.01.2021	21:13:00	0	0	3,84127	3,57375	54,0936	0,466	78	3,5	1006,16	7	9,1	9	1	1	1	1	1	1	1	1	1	0	1	-45,384073	274,349295	275,832876	0
14.01.2021	21:13:01	0	0	3,84127	3,57375	54,0936	0,466	78	3,5	1006,16	7	9,1	9	1	1	1	1	1	1	1	1	1	0	1	-45,384073	274,349295	275,832876	0
14.01.2021	21:13:02	0	0	3,276417	3,93	54,9	0,465	77,977	3,5	1006,22	7	9,1	8,8	1	1	1	1	1	1	1	1	1	0	1	-47,004933	274,520883	275,016372	0
14.01.2021	21:13:03	0	0	2,598537	3,89775	55,9332	0,461	77,97	3,5	1006,18	7	9,1	8,8	1	1	1	1	1	1	1	1	1	0	1	-48,625793	274,485834	273,231091	0
14.01.2021	21:13:04	0	0	4,180256	3,57675	51,0696	0,472	77,955	3,5	1006,06	7	9,1	8,8	1	1	1	1	1	1	1	1	1	0	1	-45,243129	274,499541	276,678051	0
14.01.2021	21:13:05	0	0	2,824497	3,441	103,6908	0,466	77,935	3,5	1006,06	7	9,1	8,8	1	1	1	1	1	1	1	1	1	0	1	-47,921071	274,449329	273,764627	0
14.01.2021	21:13:06	0	0	2,485528	3,573	95,6232	0,469	77,931	3,5	1006,24	7	9,1	9	1	1	1	1	1	1	1	1	1	0	1	-44,749824	274,505636	277,199949	0
14.01.2021	21:13:07	0	0	3,954296	3,44025	75,9636	0,465	77,917	3,5	1006,14	7	9,1	8,8	1	1	1	1	1	1	1	1	1	0	1	-49,894292	274,406827	271,592184	0
14.01.2021	21:13:08	0	0	2,372578	2,97975	73,0512	0,469	77,904	3,5	1006,24	7	9,1	8,8	1	1	1	1	1	1	1	1	1	0	1	-45,665962	274,331163	275,466076	0
14.01.2021	21:13:09	0	0	4,293236	2,5665	73,7928	0,468	77,91	3,5	1006,18	7	9,1	8,8	1	1	1	1	1	1	1	1	1	0	1	-48,555321	274,384097	272,824647	0
14.01.2021	21:13:10	0	0	4,293236	2,32725	88,5528	0,47	77,883	3,5	1006,26	7	9,1	8,8	1	1	1	1	1	1	1	1	1	0	1	-48,978154	274,513258	273,007377	0
14.01.2021	21:13:11	0	0	4,632175	2,19825	74,5488	0,468	77,872	3,5	1006,2	7	9	8,8	1	1	1	1	1	1	1	1	1	0	1	-47,639183	274,456929	274,082147	0
14.01.2021	21:13:12	0	0	2,485558	2,2365	82,6164	0,469	77,871	3,5	1006,16	7	9,1	8,8	1	1	1	1	1	1	1	1	1	0	1	-47,850599	274,517833	274,156394	0
14.01.2021	21:13:13	0	0	3,615313	2,2485	83,3364	0,468	77,856	3,5	1006,04	7	9,1	9	1	1	1	1	1	1	1	1	1	0	1	-47,427766	274,467573	274,343476	0
14.01.2021	21:13:14	0	0	4,406216	2,27625	80,1468	0,47	77,844	3,5	1006,2	7	9,1	8,8	1	1	1	1	1	1	1	1	1	0	1	-50,669486	274,34476	270,526227	0
14.01.2021	21:13:15	0	0	4,180256	2,51325	82,9728	0,473	77,831	3,5	1006,24	7	9,1	8,8	1	1	1	1	1	1	1	1	1	0	1	-48,978154	274,396216	272,4586	0
14.01.2021	21:13:16	0	0	4,067276	2,85075	90,4104	0,473	77,792	3,5	1006,1	7	9,1	8,8	1	1	1	1	1	1	1	1	1	0	1	-52,501762	274,513258	269,483769	0
14.01.2021	21:13:17	0	0	4,067276	3,1155	79,4196	0,469	77,782	3,5	1006,02	7	9	8,8	1	1	1	1	1	1	1	1	1	0	1	-51,162791	274,361393	270,110821	0
14.01.2021	21:13:18	0	0	4,632175	3,34575	84,798	0,473	77,781	3,5	1006,2	7	9,1	8,8	1	1	1	1	1	1	1	1	1	0	1	-49,260042	274,498018	272,653991	0
14.01.2021	21:13:19	0	0	4,519195	3,8085	91,1304	0,466	77,745	3,5	1006,18	7	9,1	8,8	1	1	1	1	1	1	1	1	1	0	1	-47,075405	274,494971	274,824336	0
14.01.2021	21:13:20	0	0	3,954296	4,04025	95,5512	0,478	77,741	3,5	1006,24	7	9,1	8,8	1	1	1	1	1	1	1	1	1	0	1	-45,665962	274,46301	276,083885	0
14.01.2021	21:13:21	0	0	2,598537	4,41375	87,498	0,47	77,708	3,5	1006,26	7	9,1	8,8	1	1	1	1	1	1	1	1	1	0	1	-52,43129	274,520883	269,590016	0
14.01.2021	21:13:22	0	0	4,293236	4,18425	68,382	0,473	77,71	3,5	1006,08	7	9,1	8,8	1	1	1	1	1	1	1	1	1	0	1	-49,330514	274,415927	272,198607	0
14.01.2021	21:13:23	0	0	2,485558	3,92775	85,194	0,476	77,695	3,5	1006,3	7	9,1	8,8	1	1	1	1	1	1	1	1	1	0	1	-51,233263	274,517833	270,773731	0
14.01.2021	21:13:24	0	0	3,163399	3,717	84,4344	0,479	77,67	3,5	1006,24	7	9,1	9	1	1	1	1	1	1	1	1	1	0	1	-53,699789	274,379554	267,658896	0
14.01.2021	21:13:25	0	0	3,615356	3,93225	88,5636	0,472	77,678	3,5	1006,24	7	9,1	8,8	1	1	1	1	1	1	1	1	1	0	1	-51,867512	274,472137	269,925131	0
14.01.2021	21:13:26	0	0	3,502376	3,915	106,6824	0,481	77,666	3,5	1006,16	7	9,1	8,8	1	1	1	1	1	1	1	1	1	0	1	-45,525018	274,373498	275,805298	0
14.01.2021	21:13:27	0	0	4,632175	3,96075	99,162	0,468	77,655	3,5	1006,18	7	9,1	8,8	1	1	1	1	1	1	1	1	1	0	1	-50,81043	274,40986	270,690259	0
14.01.2021	21:13:28	0	0	2,711517	4,0935	99,5508	0,474	77,646	3,5	1006,06	7	9,1	8,8	1	1	1	1	1	1	1	1	1	0	1	-50,246653	274,343249	270,941983	0
14.01.2021	21:13:29	0	0	4,745155	4,20975	100,7604	0,477	77,635	3,5	1006,12	7	9,1	8,8	1	1	1	1	1	1	1	1	1	0	1	-48,062016	274,353831	273,176177	0
14.01.2021	21:13:30	0	0	4,745155	4,1145	91,8684	0,479	77,645	3,5	1006,3	7	9,1	8,8	1	1	1	1	1	1	1	1	1	0	1	-50,458069	274,440214	271,184894	0
14.01.2021	21:13:31	0	0	2,824497	4,065	96,3072	0,477	77,638	3,5	1006,04	7	9,1	8,8	1	1	1	1	1	1	1	1	1	0	1	-45,947851	274,341738	275,233708	0
14.01.2021	21:13:32	0	0	4,293236	4,18725	110,862	0,478	77,637	3,5	1006,26	7	9,1	8,8	1	1	1	1	1	1	1	1	1	0	1	-43,97463	274,467573	277,796612	0
14.01.2021	21:13:33	0	0	4,632175	4,122	68,7672	0,475	77,627	3,5	1006,22	7	9,1	8,8	1	1	1	1	1	1	1	1	1	0	1	-49,682875	274,361393	271,590736	0
14.01.2021	21:13:34	0	0	4,519195	3,76575	89,3268	0,473	77,635	3,5	1006,14	7	9,1	8,8	1	1	1	1	1	1	1	1	1	0	1	-48,132488	274,394701	273,297165	0
14.01.2021	21:13:35	0	0	3,05042	3,5265	69,9336	0,477	77,64	3,5	1006,2	7	9,1	9	1	1	1	1	1	1	1	1	1	0	1	-46,088795	274,352319	275,142316	0
14.01.2021	21:13:36	0	0	2,824497	3,54	81,2232	0,472	77,654	3,5	1006,2	7	9,1	8,8	1	1	1	1	1	1	1	1	1	0	1	-47,427766	274,379554	273,930918	0
14.01.2021	21:13:37	0	0	2,598537	3,71025	76,3596	0,48	77,667	3,5	1006,36	7	9,1	8,8	1	1	1	1	1	1	1	1	1	0	1	-46,511628	274,453888	275,195447	0
14.01.2021	21:13:38	0	0	5,084095	3,927	77,9796	0,477	77,658	3,5	1006,22	7	9,1	8,8	1	1	1	1	1	1	1	1	1	0	1	-50,387597	274,338716	270,779809	0
14.01.2021	21:13:39	0	0	4,519195	4,14225	75,708	0,478	77,651	3,5	1006,14	7	9,1	8,8	1	1	1	1	1	1	1	1	1	0	1	-49,048626	274,403795	272,42364	0
14.01.2021	21:13:40	0	0	2,711517	4,22475	79,434	0,476	77,637	3,5	1006,14	7	9,1	8,8	1	1	1	1	1	1	1	1	1	0	1	-44,749824	274,511733	277,228554	0
14.01.2021	21:13:41	0	0	2,033638	3,87975	96,6024	0,477	77,639	3,5	1006,18	7	9,1	8,8	1	1	1	1	1	1	1	1	1	0	1	-52,008457	274,368958	269,30059	0
14.01.2021	21:13:42	0	0	3,050457	3,65175	89,3268	0,476	77,629	3,5	1006,28	7	9,1	8,8	1	1	1	1	1	1	1	1	1	0	1	-48,907681	274,396216	272,529072	0
14.01.2021	21:13:43	0	0	5,197075	4,212	108,5256	0,472	77,624	3,5	1006,24	7	9,1	8,8	1	1	1	1	1	1	1	1	1	0	1	-46,5821	274,505636	275,367673	0
14.01.2021	21:13:44	0	0	4,180256	4,78575	114,1164	0,474	77,606	3,5	1006,14	7	9,1	8,8	1	1	1	1	1	1	1	1	1	0	1	-45,102185	274,340227	276,072297	0
14.01.2021	21:13:45	0	0	3,389397	5,07525	101,5128	0,47	77,587	3,5	1006,04	7	9,1	8,8	1	1	1	1	1	1	1	1	1	0	1	-49,82382	274,373498	271,506496	0
14.01.2021	21:13:46	0	0	4,406216	4,84575	107,3988	0,477	77,595	3,5	1006,24	7	9,1	8,8	1	1	1	1	1	1	1	1	1	0	1	-52,78365	274,470615	269,001858	0
14.01.2021	21:13:47	0	0	2,146618	4,49925	97,3152	0,474	77,584	3,5	1006,18	7	9,1	8,8	1	1	1	1	1	1	1	1	1	0	1	-47,921071	274,335694	273,232186	0
14.01.2021	21:13:48	0	0	4,745155	4,446	112,6404	0,468	77,578	3,5	1006,08	7	9,1	8,8	1	1	1	1	1	1	1	1	1	0	1	-49,330514	274,402279	272,134648	0
14.01.2021	21:13:49	0	0	4,293236	4,374	123,8508	0,476	77,574	3,5	1006,22	7	9,1	8,8	1	1	1	1	1	1	1	1	1	0	1	-45,454545	274,496494	276,452341	0
14.01.2021	21:13:50	0	0	3,615356	4,58625	117,4032	0,477	77,576	3,5	1006,14	7	9,1	8,8	1	1	1	1	1	1	1	1	1	0	1	-50,81043	274,415927	270,718692	0
14.01.2021	21:13:51	0	0	2,033638	4,311	134,9208	0,483	77,577	3,5	1006,16	7	9,1	8,8	1	1	1	1	1	1	1	1	1	0	1	-46,088795	274,319084	274,986689	0
14.01.2021	21:13:52	0	0	4,858135	3,77025	117,792	0,471	77,56	3,5	1006,18	7	9,1	8,8	1	1	1	1	1	1	1	1	1	0	1	-47,075405	274,371985	274,24782	0
14.01.2021	21:13:53	0	0	4,067276	3,6615	95,1624	0,477	77,563	3,5	1006,1	7	9,1	8,8	1	1	1	1	1	1	1	1	1	0	1	-47,427766	274,365932	273,867104	0
14.01.2021	21:13:54	0	0	4,406216	3,2475	108,9072	0,478	77,544	3,5	1006,08	7	9	8,8	1	1	1	1	1	1	1	1	1	0	1	-48,132488	274,452369	273,567461	0
14.01.2021	21:13:55	0	0	2,937477	2,83725	87,3648	0,477	77,528	3,5	1006,14	7	9,1	8,8	1	1	1	1	1	1	1	1	1	0	1	-50,599013	274,340227	270,575468	0
14.01.2021	21:13:56	0	0	4,745155	3,10425	78,2748	0,479	77,528	3,5	1006,24	7	9,1	8,8	1	1	1	1	1	1	1	1	1	0	1	-52,854123	274,329652	268,270844	0
14.01.2021	21:13:57	0	0	4,971115	3,64275	88,1208	0,476	77,503	3,5	1006,28	7	9,1	8,8	1	1	1	1	1	1	1	1	1	0	1	-46,934461	274,382582	274,438412	0
14.01.2021	21:13:58	0	0	3,841316	3,81975	96,9876	0,474	77,489	3,5	1006,2	7	9,1	8,8	1	1	1	1	1	1	1	1	1	0	1	-46,863989	274,498018	275,050044	0
14.01.2021	21:13:59	0	0	4,632175	3,7335	107,4456	0,472	77,486	3,5	1006,12	7	9,1	8,8	1	1	1	1	1	1	1	1	1	0	1	-50,317125	274,432621	271,290244	0
14.01.2021	21:14:00	0	0	2,937477	3,8655	86,0076	0,471	77,472	3,5	1006,26	7	9,1	8,8	1	1	1	1	1	1	1	1	1	0	1	-49,330514	274,367445	271,971444	0
14.01.2021	21:14:01	0	0	4,858135	3,837	79,7616	0,473	77,476	3,5	1006,2	7	9,1	8,8	1	1	1	1	1	1	1	1	1	0	1	-48,625793	274,453888	273,081282	0
14.01.2021	21:14:02	0	0	4,858135	3,837	79,7616	0,473	77,476	3,5	1006,2	7	9,1	8,8	1	1	1	1	1	1	1	1	1	0	1	-48,625793	274,453888	273,081282	0
14.01.2021	21:14:03	0	0	2,711517	3,43275	62,8056	0,472	77,475	3,5	1006,28	7	9,1	8,8	1	1	1	1	1	1	1	1	1	0	1	-45,313601	274,317575	275,754816	0
14.01.2021	21:14:04	0	0	4,406216	3,60825	87,7356	0,471	77,475	3,5	1006,24	7	9,1	8,8	1	1	1	1	1	1	1	1	1	0	1	-48,273432	274,385611	273,113632	0
14.01.2021	21:14:05	0	0	3,615356	3,8355	79,776	0,468	77,476	3,5	1006,16	7	9,1	8,8	1	1	1	1	1	1	1	1	1	0	1	-50,246653	274,328142	270,871243	0
14.01.2021	21:14:06	0	0	4,858135	3,71775	113,0508	0,47	77,455	3,5	1006,12	7	9,1	8,8	1	1	1	1	1	1	1	1	1	0	1	-48,555321	274,41441	272,966692	0
14.01.2021	21:14:07	0	0	4,745155	3,72825	109,9872	0,468	77,461	3,5	1006,12	7	9,1	8,8	1	1	1	1	1	1	1	1	1	0	1	-49,612403	274,473658	272,187375	0
14.01.2021	21:14:08	0	0	3,841316	3,7995	98,766	0,468	77,469	3,5	1006,22	7	9,1	8,8	1	1	1	1	1	1	1	1	1	0	1	-44,608879	274,340227	276,565602	0
14.01.2021	21:14:09	0	0	3,841316	3,87975	99,9	0,467	77,452	3,5	1006,14	7	9,1	8,8	1	1	1	1	1	1	1	1	1	0	1	-47,780127	274,373498	273,550189	0
14.01.2021	21:14:10	0	0	4,519195	4,14	102,1788	0,464	77,467	3,5	1006,18	7	9,1	8,8	1	1	1	1	1	1	1	1	1	0	1	-48,766737	274,490402	273,111573	0
14.01.2021	21:14:11	0	0	4,745155	4,43775	99,1296	0,468	77,459	3,5	1006,2	7	9,1	8,8	1	1	1	1	1	1	1	1	1	0	1	-48,484848	274,356855	272,76751	0
14.01.2021	21:14:12	0	0	3,615356	4,57275	115,2288	0,47	77,461	3,5	1006,1	6,9	9,1	8,8	1	1	1	1	1	1	1	1	1	0	1	-45,172657	274,44781	276,505917	0
14.01.2021	21:14:13	0	0	3,163437	4,44	117,7848	0,462	77,477	3,5	1005,98	7	9,1	8,8	1	1	1	1	1	1	1	1	1	0	1	-49,330514	274,291934	271,617879	0
14.01.2021	21:14:14	0	0	4,293236	4,08525	104,7348	0,462	77,476	3,5	1006,06	7	9,1	8,8	1	1	1	1	1	1	1	1	1	0	1	-46,793517	274,382582	274,579356	0
14.01.2021	21:14:15	0	0	3,615356	4,15425	97,7148	0,465	77,475	3,5	1006,18	7	9,1	8,8	1	1	1	1	1	1	1	1	1	0	1	-46,018323	274,476701	275,795728	0
14.01.2021	21:14:16	0	0	2,824497	4,4085	94,1112	0,467	77,482	3,5	1006,08	7	9,1	8,8	1	1	1	1	1	1	1	1	1	0	1	-51,867512	274,364419	269,420271	0
14.01.2021	21:14:17	0	0	2,824497	3,69525	85,176	0,467	77,496	3,5	1006,14	7	9,1	8,8	1	1	1	1	1	1	1	1	1	0	1	-45,665962	274,485834	276,190922	0
14.01.2021	21:14:18	0	0	2,937477	3,1305	99,1476	0,469	77,496	3,5	1006,18	7	9,1	8,8	1	1	1	1	1	1	1	1	1	0	1	-47,56871	274,418961	273,974632	0
14.01.2021	21:14:19	0	0	4,406216	3,03225	83,3652	0,467	77,503	3,5	1006,24	7	9,1	8,8	1	1	1	1	1	1	1	1	1	0	1	-48,414376	274,481267	273,421088	0
14.01.2021	21:14:20	0	0	3,615356	3,26025	86,2884	0,462	77,493	3,5	1006,14	7	9,1	8,8	1	1	1	1	1	1	1	1	1	0	1	-49,18957	274,426549	272,389336	0
14.01.2021	21:14:21	0	0	4,519195	3,498	74,1888	0,467	77,505	3,5	1006,16	7	9,1	8,8	1	1	1	1	1	1	1	1	1	0	1	-50,739958	274,476701	271,074093	0
14.01.2021	21:14:22	0	0	4,971115	3,6255	78,282	0,464	77,5	3,5	1006,1	7	9,1	8,8	1	1	1	1	1	1	1	1	1	0	1	-51,303735	274,456929	270,417595	0
14.01.2021	21:14:23	0	0	4,29321	3,453	69,1488	0,46	77,495	3,5	1006,2	6,9	9,1	8,9	1	1	1	1	1	1	1	1	1	0	1	-52,008457	274,362906	269,27224	0
14.01.2021	21:14:24	0	0	2,824497	3,009	59,1156	0,456	77,492	3,5	1006,16	7	9,1	8,8	1	1	1	1	1	1	1	1	1	0	1	-51,233263	274,488879	270,637904	0
14.01.2021	21:14:25	0	0	3,841316	2,88375	67,6512	0,462	77,499	3,5	1006,1	7	9,1	8,8	1	1	1	1	1	1	1	1	1	0	1	-50,458069	274,384097	270,921899	0
14.01.2021	21:14:26	0	0	4,858135	3,1065	75,9744	0,455	77,497	3,5	1006,14	6,9	9,1	8,8	1	1	1	1	1	1	1	1	1	0	1	-47,286822	274,478223	274,534366	0
14.01.2021	21:14:27	0	0	3,615356	3,252	75,6216	0,461	77,482	3,5	1006,2	6,9	9,1	8,8	1	1	1	1	1	1	1	1	1	0	1	-48,766737	274,34476	272,428976	0
14.01.2021	21:14:28	0	0	4,180256	3,288	68,0112	0,462	77,473	3,5	1006,24	7	9,1	8,8	1	1	1	1	1	1	1	1	1	0	1	-49,612403	274,431103	271,987849	0
14.01.2021	21:14:29	0	0	4,632175	3,27975	79,7616	0,459	77,488	3,5	1006,18	7,1	9,1	8,8	1	1	1	1	1	1	1	1	1	0	1	-50,528541	274,441733	271,121543	0
14.01.2021	21:14:30	0	0	2,259598	3,321	83,3364	0,46	77,479	3,5	1006,22	6,9	9,1	8,8	1	1	1	1	1	1	1	1	1	0	1	-50,599013	274,335694	270,554244	0
14.01.2021	21:14:31	0	0	2,711517	3,00825	59,4936	0,455	77,473	3,5	1006,18	7	9,1	8,8	1	1	1	1	1	1	1	1	1	0	1	-49,682875	274,472137	272,109768	0
14.01.2021	21:14:32	0	0	2,711517	2,817	90,036	0,463	77,468	3,5	1006,38	7	9,1	8,8	1	1	1	1	1	1	1	1	1	0	1	-49,541931	274,346272	271,66086	0
14.01.2021	21:14:33	0	0	2,824497	2,688	63,5868	0,456	77,464	3,5	1006,28	6,9	9,1	8,8	1	1	1	1	1	1	1	1	1	0	1	-48,907681	274,329652	272,217285	0
14.01.2021	21:14:34	0	0	2,598537	2,94	99,1692	0,457	77,45	3,5	1006,14	7	9,1	8,8	1	1	1	1	1	1	1	1	1	0	1	-47,21635	274,296456	273,753211	0
14.01.2021	21:14:35	0	0	4,180256	3,03675	68,7852	0,462	77,456	3,5	1006,2	7	9,1	8,8	1	1	1	1	1	1	1	1	1	0	1	-50,035236	274,387126	271,358924	0
14.01.2021	21:14:36	0	0	2,485558	2,97	94,7736	0,453	77,461	3,5	1006,14	7,1	9,1	8,8	1	1	1	1	1	1	1	1	1	0	1	-49,541931	274,472137	272,250712	0
14.01.2021	21:14:37	0	0	4,632175	3,174	90,4176	0,446	77,456	3,5	1006,18	6,9	9,1	8,8	1	1	1	1	1	1	1	1	1	0	1	-47,639183	274,434139	273,975304	0
14.01.2021	21:14:38	0	0	2,485558	3,17625	62,424	0,457	77,462	3,5	1006,14	7	9,1	8,8	1	1	1	1	1	1	1	1	1	0	1	-48,132488	274,328142	272,985408	0
14.01.2021	21:14:39	0	0	4,745155	3,01125	63,4752	0,454	77,465	3,5	1006,22	7	9,1	8,8	1	1	1	1	1	1	1	1	1	0	1	-48,555321	274,27988	272,336658	0
14.01.2021	21:14:40	0	0	4,406216	2,99625	57,042	0,451	77,444	3,5	1006,12	7	9,1	8,8	1	1	1	1	1	1	1	1	1	0	1	-54,40451	274,350807	266,81952	0
14.01.2021	21:14:41	0	0	2,711517	2,96475	85,194	0,457	77,468	3,5	1006,14	7	9,1	8,8	1	1	1	1	1	1	1	1	1	0	1	-46,5821	274,266328	274,246462	0
14.01.2021	21:14:42	0	0	2,937459	3,105	71,982	0,453	77,487	3,5	1006,34	7	9,1	8,9	1	1	1	1	1	1	1	1	1	0	1	-52,360817	274,379554	268,997867	0
14.01.2021	21:14:43	0	0	4,180231	3,129	72,7056	0,45	77,497	3,5	1006,16	7,1	9,1	8,9	1	1	1	1	1	1	1	1	1	0	1	-50,317125	274,28892	270,617161	0
14.01.2021	21:14:44	0	0	3,728336	2,871	81,9864	0,455	77,515	3,5	1006,14	7	9,1	8,8	1	1	1	1	1	1	1	1	1	0	1	-52,642706	274,467573	269,128536	0
14.01.2021	21:14:45	0	0	4,745155	2,69775	69,8472	0,449	77,513	3,5	1006,24	7	9,1	8,8	1	1	1	1	1	1	1	1	1	0	1	-50,528541	274,346272	270,67425	0
14.01.2021	21:14:46	0	0	2,259598	3,01125	68,0112	0,453	77,532	3,5	1006,3	7	9,1	8,8	1	1	1	1	1	1	1	1	1	0	1	-52,360817	274,276867	268,517064	0
14.01.2021	21:14:47	0	0	4,293236	3,498	57,042	0,448	77,539	3,5	1006,18	6,9	9,1	8,8	1	1	1	1	1	1	1	1	1	0	1	-46,793517	274,411376	274,714279	0
14.01.2021	21:14:48	0	0	3,163437	3,8145	61,74	0,441	77,547	3,5	1006,16	7	9,1	8,8	1	1	1	1	1	1	1	1	1	0	1	-51,303735	274,320593	269,778816	0
14.01.2021	21:14:49	0	0	4,519168	3,92625	60,5556	0,443	77,556	3,5	1006,1	7,1	9,1	8,9	1	1	1	1	1	1	1	1	1	0	1	-52,360817	274,437176	269,267906	0
14.01.2021	21:14:50	0	0	4,745155	3,72825	65,4876	0,448	77,568	3,5	1006,3	7	9,1	8,8	1	1	1	1	1	1	1	1	1	0	1	-49,119098	274,40986	272,381591	0
14.01.2021	21:14:51	0	0	3,615356	3,71025	77,9724	0,439	77,572	3,5	1006,32	7	9,1	8,8	1	1	1	1	1	1	1	1	1	0	1	-49,964764	274,27235	270,891977	0
14.01.2021	21:14:52	0	0	3,728314	3,711	73,9008	0,44	77,592	3,5	1006,32	7	9,1	8,9	1	1	1	1	1	1	1	1	1	0	1	-50,739958	274,297964	270,236659	0
14.01.2021	21:14:53	0	0	2,937477	3,759	71,2188	0,446	77,607	3,5	1006,1	7	9,1	8,8	1	1	1	1	1	1	1	1	1	0	1	-49,260042	274,450849	272,432781	0
14.01.2021	21:14:54	0	0	4,858135	3,6765	73,7748	0,436	77,593	3,5	1006,06	7	9,1	8,8	1	1	1	1	1	1	1	1	1	0	1	-49,894292	274,402279	271,57087	0
14.01.2021	21:14:55	0	0	4,632175	3,77925	83,3796	0,442	77,613	3,5	1006,22	7	9,1	8,8	1	1	1	1	1	1	1	1	1	0	1	-51,515152	274,27235	269,341589	0
14.01.2021	21:14:56	0	0	4,745155	3,7215	57,51	0,437	77,602	3,5	1006,34	7	9,1	8,8	1	1	1	1	1	1	1	1	1	0	1	-49,18957	274,40986	272,311118	0
14.01.2021	21:14:57	0	0	2,82448	3,471	71,2368	0,439	77,61	3,5	1006,3	7	9,1	8,9	1	1	1	1	1	1	1	1	1	0	1	-51,233263	274,441733	270,416821	0
14.01.2021	21:14:58	0	0	3,502376	3,20175	81,9504	0,436	77,599	3,5	1006,18	7	9	8,8	1	1	1	1	1	1	1	1	1	0	1	-50,17618	274,282893	270,729898	0
14.01.2021	21:14:59	0	0	4,858106	3,01875	73,7784	0,43	77,602	3,5	1006,1	7	9	8,9	1	1	1	1	1	1	1	1	1	0	1	-47,780127	274,335694	273,37313	0
14.01.2021	21:15:00	0	0	3,163418	2,586	79,0308	0,434	77,607	3,5	1006,24	7	9,1	8,9	1	1	1	1	1	1	1	1	1	0	1	-48,907681	274,365932	272,387189	0
14.01.2021	21:15:01	0	0	3,163418	2,586	79,0308	0,434	77,607	3,5	1006,24	7	9,1	8,9	1	1	1	1	1	1	1	1	1	0	1	-48,907681	274,365932	272,387189	0
14.01.2021	21:15:02	0	0	3,502355	2,379	85,1904	0,438	77,597	3,5	1006,16	7	9,1	8,9	1	1	1	1	1	1	1	1	1	0	1	-52,360817	274,269338	268,481833	0
14.01.2021	21:15:03	0	0	2,711517	2,10525	96,966	0,428	77,581	3,5	1006,44	7	9,1	8,8	1	1	1	1	1	1	1	1	1	0	1	-49,612403	274,385611	271,77466	0
14.01.2021	21:15:04	0	0	4,519195	1,9935	80,9136	0,431	77,588	3,5	1006,06	7	9,1	8,8	1	1	1	1	1	1	1	1	1	0	1	-53,4179	274,443252	268,239305	0
14.01.2021	21:15:05	0	0	2,711517	2,0205	82,566	0,437	77,597	3,5	1006,14	7	9,1	8,8	1	1	1	1	1	1	1	1	1	0	1	-51,021846	274,316065	270,039506	0
14.01.2021	21:15:06	0	0	2,372563	1,986	89,7408	0,433	77,607	3,5	1006,22	7	9,1	8,9	1	1	1	1	1	1	1	1	1	0	1	-49,048626	274,291934	271,899768	0
14.01.2021	21:15:07	0	0	2,372563	1,9365	59,1156	0,432	77,597	3,5	1006,22	7	9,1	8,9	1	1	1	1	1	1	1	1	1	0	1	-52,78365	274,441733	268,866433	0
14.01.2021	21:15:08	0	0	4,067276	1,9095	74,1528	0,436	77,594	3,5	1006	7	9,1	8,8	1	1	1	1	1	1	1	1	1	0	1	-51,937984	274,393186	269,484568	0
14.01.2021	21:15:09	0	0	2,485558	1,88625	77,9544	0,426	77,601	3,5	1006,16	7	9,1	8,8	1	1	1	1	1	1	1	1	1	0	1	-50,317125	274,41441	271,204888	0
14.01.2021	21:15:10	0	0	4,632148	1,97625	77,5872	0,43	77,602	3,5	1005,98	7	9	8,9	1	1	1	1	1	1	1	1	1	0	1	-48,766737	274,44629	272,904713	0
14.01.2021	21:15:11	0	0	4,519168	1,9545	84,5352	0,426	77,619	3,5	1006,24	7	9,1	8,9	1	1	1	1	1	1	1	1	1	0	1	-47,286822	274,397732	274,157033	0
14.01.2021	21:15:12	0	0	2,711517	1,90875	76,8276	0,43	77,629	3,5	1006,14	7	9,1	8,8	1	1	1	1	1	1	1	1	1	0	1	-48,907681	274,249777	271,843445	0
14.01.2021	21:15:13	0	0	4,971085	1,932	71,2188	0,424	77,619	3,5	1006,04	7	9	8,9	1	1	1	1	1	1	1	1	1	0	1	-53,981677	274,388641	267,41958	0
14.01.2021	21:15:14	0	0	2,485543	1,93875	78,6816	0,427	77,628	3,5	1006,2	7	9	8,9	1	1	1	1	1	1	1	1	1	0	1	-47,639183	274,282893	273,266896	0
14.01.2021	21:15:15	0	0	2,937477	2,0415	82,3464	0,426	77,633	3,5	1006,2	7	9,1	8,8	1	1	1	1	1	1	1	1	1	0	1	-57,787174	274,334184	263,359009	0
14.01.2021	21:15:16	0	0	4,632148	2,193	69,174	0,429	77,631	3,5	1006,12	7	9,1	8,9	1	1	1	1	1	1	1	1	1	0	1	-50,035236	274,264822	270,786283	0
14.01.2021	21:15:17	0	0	4,293236	2,53125	79,4412	0,425	77,647	3,5	1006,2	7	9,1	8,8	1	1	1	1	1	1	1	1	1	0	1	-48,484848	274,385611	272,902215	0
14.01.2021	21:15:18	0	0	3,276397	3,04425	83,3472	0,425	77,658	3,5	1006,26	7	9,1	8,9	1	1	1	1	1	1	1	1	1	0	1	-46,652572	274,429584	274,940564	0
14.01.2021	21:15:19	0	0	4,406189	3,55425	76,374	0,426	77,649	3,5	1006,2	7	9	8,9	1	1	1	1	1	1	1	1	1	0	1	-48,484848	274,40986	273,01584	0
14.01.2021	21:15:20	0	0	3,841293	3,9315	74,5416	0,422	77,664	3,5	1006,22	7,1	9	8,9	1	1	1	1	1	1	1	1	1	0	1	-55,602537	274,37804	265,749054	0
14.01.2021	21:15:21	0	0	3,050457	4,1985	75,9816	0,422	77,686	3,5	1006,14	7	9,1	8,8	1	1	1	1	1	1	1	1	1	0	1	-47,004933	274,285906	273,915248	0
14.01.2021	21:15:22	0	0	2,485543	4,434	73,4472	0,424	77,705	3,5	1006,24	7	9	8,9	1	1	1	1	1	1	1	1	1	0	1	-48,20296	274,332673	272,93615	0
14.01.2021	21:15:23	0	0	2,82448	4,38525	69,4404	0,427	77,699	3,5	1006,16	7	9	8,9	1	1	1	1	1	1	1	1	1	0	1	-48,343904	274,426549	273,235002	0
14.01.2021	21:15:24	0	0	2,711517	4,31625	65,088	0,428	77,703	3,5	1006,22	7	9	8,8	1	1	1	1	1	1	1	1	1	0	1	-50,669486	274,455409	271,044716	0
14.01.2021	21:15:25	0	0	3,389397	4,03125	67,2804	0,424	77,701	3,5	1006,18	7	9,1	8,8	1	1	1	1	1	1	1	1	1	0	1	-46,018323	274,317575	275,050095	0
14.01.2021	21:15:26	0	0	4,406189	3,7005	73,8072	0,422	77,701	3,5	1006,2	7	9	8,9	1	1	1	1	1	1	1	1	1	0	1	-50,81043	274,429584	270,782706	0
14.01.2021	21:15:27	0	0	3,050457	3,765	78,6636	0,414	77,678	3,5	1006,24	7	9	8,8	1	1	1	1	1	1	1	1	1	0	1	-48,555321	274,296456	272,41424	0
14.01.2021	21:15:28	0	0	4,745127	3,8385	84,4416	0,423	77,704	3,5	1006,14	7	9,1	8,9	1	1	1	1	1	1	1	1	1	0	1	-47,498238	274,440214	274,144725	0
14.01.2021	21:15:29	0	0	4,858106	4,01925	80,9028	0,417	77,699	3,5	1006,2	7	9,1	8,9	1	1	1	1	1	1	1	1	1	0	1	-48,555321	274,411376	272,952475	0
14.01.2021	21:15:30	0	0	4,632148	4,10025	95,1192	0,419	77,698	3,5	1006,2	7	9	8,9	1	1	1	1	1	1	1	1	1	0	1	-46,863989	274,387126	274,530171	0
14.01.2021	21:15:31	0	0	4,632148	4,329	91,1412	0,419	77,713	3,5	1006,16	7	9,1	8,9	1	1	1	1	1	1	1	1	1	0	1	-53,840733	274,260308	266,959662	0
14.01.2021	21:15:32	0	0	4,519168	4,24875	91,4868	0,417	77,709	3,5	1006,12	7	9,1	8,9	1	1	1	1	1	1	1	1	1	0	1	-49,964764	274,302488	271,033028	0
14.01.2021	21:15:33	0	0	4,632148	4,15275	80,5032	0,415	77,72	3,5	1006,26	7	9,1	8,9	1	1	1	1	1	1	1	1	1	0	1	-48,978154	274,384097	272,401814	0
14.01.2021	21:15:34	0	0	4,29321	3,945	69,4548	0,421	77,729	3,5	1006,26	7	9,1	8,9	1	1	1	1	1	1	1	1	1	0	1	-51,726568	274,431103	269,873684	0
14.01.2021	21:15:35	0	0	3,502355	3,84	54,1152	0,41	77,722	3,5	1006,16	7	9	8,9	1	1	1	1	1	1	1	1	1	0	1	-57,01198	274,293441	263,943468	0
14.01.2021	21:15:36	0	0	3,615335	3,91875	54,0864	0,417	77,727	3,5	1006,2	7	9,1	8,9	1	1	1	1	1	1	1	1	1	0	1	-46,5821	274,411376	274,925696	0
14.01.2021	21:15:37	0	0	4,519195	4,005	60,2352	0,418	77,74	3,5	1006,26	7	9,1	8,8	1	1	1	1	1	1	1	1	1	0	1	-51,092319	274,402279	270,372844	0
14.01.2021	21:15:38	0	0	2,937459	3,80925	54,4788	0,422	77,763	3,5	1006,36	7	9	8,9	1	1	1	1	1	1	1	1	1	0	1	-49,330514	274,305504	271,681397	0
14.01.2021	21:15:39	0	0	4,745127	3,62175	60,5556	0,42	77,788	3,5	1006,26	7	9	8,9	1	1	1	1	1	1	1	1	1	0	1	-49,612403	274,431103	271,987849	0
14.01.2021	21:15:40	0	0	3,389376	3,51375	63,18	0,412	77,805	3,5	1006,14	7	9	8,9	1	1	1	1	1	1	1	1	1	0	1	-50,951374	274,311538	270,088785	0
14.01.2021	21:15:41	0	0	2,82448	3,57	58,482	0,415	77,848	3,5	1006,22	7	9	8,9	1	1	1	1	1	1	1	1	1	0	1	-47,004933	274,287413	273,9223	0
14.01.2021	21:15:42	0	0	5,197075	3,20025	67,302	0,417	77,866	3,5	1006,3	7	9	8,8	1	1	1	1	1	1	1	1	1	0	1	-51,303735	274,426549	270,275171	0
14.01.2021	21:15:43	0	0	2,485543	3,033	84,4596	0,409	77,896	3,5	1006,1	7	9	8,9	1	1	1	1	1	1	1	1	1	0	1	-47,780127	274,328142	273,337769	0
14.01.2021	21:15:44	0	0	5,084064	2,832	76,8348	0,415	77,914	3,5	1006,22	7	9	8,9	1	1	1	1	1	1	1	1	1	0	1	-47,991543	274,263317	272,822934	0
14.01.2021	21:15:45	0	0	2,937459	2,9085	85,9176	0,419	77,927	3,5	1006,1	7	9	8,9	1	1	1	1	1	1	1	1	1	0	1	-51,515152	274,435658	270,106453	0
14.01.2021	21:15:46	0	0	4,067252	2,9265	76,8204	0,408	77,932	3,5	1006,18	7	9	8,9	1	1	1	1	1	1	1	1	1	0	1	-49,400987	274,358368	271,858455	0
14.01.2021	21:15:47	0	0	4,858106	2,96775	69,8508	0,418	77,943	3,5	1006,24	7	9	8,9	1	1	1	1	1	1	1	1	1	0	1	-51,726568	274,261812	269,080868	0
14.01.2021	21:15:48	0	0	3,841293	3,0195	77,1876	0,411	77,949	3,5	1006,2	7	9	8,9	1	1	1	1	1	1	1	1	1	0	1	-49,964764	274,449329	271,720934	0
14.01.2021	21:15:49	0	0	3,954272	2,865	99,1656	0,409	77,935	3,5	1006,14	7	9	8,9	1	1	1	1	1	1	1	1	1	0	1	-49,541931	274,302488	271,455861	0
14.01.2021	21:15:50	0	0	2,259584	3,0015	88,578	0,414	77,945	3,5	1006,18	7	9,1	8,9	1	1	1	1	1	1	1	1	1	0	1	-50,317125	274,435658	271,30448	0
14.01.2021	21:15:51	0	0	2,711501	3,039	99,954	0,417	77,948	3,5	1006,2	7	9	8,9	1	1	1	1	1	1	1	1	1	0	1	-45,806906	274,27988	275,085072	0
14.01.2021	21:15:52	0	0	5,084095	2,81625	84,0204	0,409	77,95	3,5	1006,08	7	9	8,8	1	1	1	1	1	1	1	1	1	0	1	-47,21635	274,319084	273,859134	0
14.01.2021	21:15:53	0	0	2,711501	2,58525	94,374	0,413	77,938	3,5	1006,16	7	9	8,9	1	1	1	1	1	1	1	1	1	0	1	-47,709655	274,432621	273,897714	0
14.01.2021	21:15:54	0	0	3,502355	2,4795	88,074	0,415	77,942	3,5	1006,18	7	9	8,9	1	1	1	1	1	1	1	1	1	0	1	-52,501762	274,299472	268,481913	0
14.01.2021	21:15:55	0	0	2,711501	2,481	91,8756	0,404	77,937	3,5	1006,12	7	9	8,9	1	1	1	1	1	1	1	1	1	0	1	-46,723044	274,423513	274,841634	0
14.01.2021	21:15:56	0	0	3,389376	2,59425	76,3632	0,417	77,962	3,5	1006,38	7	9	8,9	1	1	1	1	1	1	1	1	1	0	1	-52,008457	274,418961	269,534886	0
14.01.2021	21:15:57	0	0	4,632148	2,70825	81,6084	0,417	77,95	3,5	1006,14	7	9	8,9	1	1	1	1	1	1	1	1	1	0	1	-50,246653	274,365932	271,048218	0
14.01.2021	21:15:58	0	0	3,841293	2,8245	95,1408	0,408	77,941	3,5	1006,2	7	9	8,9	1	1	1	1	1	1	1	1	1	0	1	-52,78365	274,254289	267,988587	0
14.01.2021	21:15:59	0	0	2,82448	3,0465	85,5144	0,408	77,945	3,5	1006,36	7	9	8,9	1	1	1	1	1	1	1	1	1	0	1	-55,954898	274,284399	264,958231	0
14.01.2021	21:16:00	0	0	4,745127	3,38925	80,5284	0,41	77,945	3,5	1006,2	7	9	8,9	1	1	1	1	1	1	1	1	1	0	1	-53,699789	274,438695	267,936054	0
14.01.2021	21:16:01	0	0	3,276397	3,25125	99,9684	0,415	77,939	3,5	1006,26	7	9	8,9	1	1	1	1	1	1	1	1	1	0	1	-53,699789	274,438695	267,936054	0
14.01.2021	21:16:02	0	0	3,276397	3,25125	99,9684	0,415	77,939	3,5	1006,26	7	9	8,9	1	1	1	1	1	1	1	1	1	0	1	-49,682875	274,278374	271,202054	0
14.01.2021	21:16:03	0	0	3,954272	3,09825	110,6856	0,41	77,944	3,5	1006,12	7	9	8,9	1	1	1	1	1	1	1	1	1	0	1	-46,370684	274,350807	274,853347	0
14.01.2021	21:16:04	0	0	2,485543	2,89725	57,7368	0,406	77,933	3,5	1006,22	7	9	8,9	1	1	1	1	1	1	1	1	1	0	1	-48,20296	274,264822	272,61856	0
14.01.2021	21:16:05	0	0	3,502376	2,784	80,5248	0,41	77,922	3,5	1006,24	7	9	8,8	1	1	1	1	1	1	1	1	1	0	1	-47,780127	274,382582	273,592746	0
14.01.2021	21:16:06	0	0	2,82448	2,5815	80,1504	0,411	77,918	3,5	1006,32	7	9,1	8,9	1	1	1	1	1	1	1	1	1	0	1	-50,739958	274,415927	270,789164	0
14.01.2021	21:16:07	0	0	2,485543	2,57175	73,7712	0,408	77,912	3,5	1006,24	7	9	8,9	1	1	1	1	1	1	1	1	1	0	1	-47,145877	274,284399	273,767252	0
14.01.2021	21:16:08	0	0	3,050439	2,51175	80,1324	0,412	77,921	3,5	1006,28	7	9,1	8,9	1	1	1	1	1	1	1	1	1	0	1	-55,391121	274,313047	265,656102	0
14.01.2021	21:16:09	0	0	2,82448	2,4705	86,7564	0,407	77,916	3,5	1006,26	7	9	8,9	1	1	1	1	1	1	1	1	1	0	1	-48,343904	274,254289	272,428333	0
14.01.2021	21:16:10	0	0	4,29321	2,52	83,7252	0,409	77,906	3,5	1006,14	7	9	8,9	1	1	1	1	1	1	1	1	1	0	1	-52,290345	274,402279	269,174817	0
14.01.2021	21:16:11	0	0	2,82448	2,463	85,554	0,407	77,9	3,5	1006,12	7	9	8,9	1	1	1	1	1	1	1	1	1	0	1	-50,17618	274,364419	271,111603	0
14.01.2021	21:16:12	0	0	2,937459	2,4525	69,8508	0,412	77,906	3,5	1006,22	7	9	8,9	1	1	1	1	1	1	1	1	1	0	1	-52,360817	274,423513	269,203861	0
14.01.2021	21:16:13	0	0	4,858106	2,56125	82,6092	0,402	77,893	3,5	1006,2	7	9	8,9	1	1	1	1	1	1	1	1	1	0	1	-51,444679	274,358368	269,814763	0
14.01.2021	21:16:14	0	0	4,858106	2,718	73,7856	0,41	77,888	3,5	1006,16	7	9	8,9	1	1	1	1	1	1	1	1	1	0	1	-51,726568	274,415927	269,802554	0
14.01.2021	21:16:15	0	0	4,519168	2,95275	92,2932	0,406	77,936	3,5	1006,1	7	9	8,9	1	1	1	1	1	1	1	1	1	0	1	-47,991543	274,403795	273,480723	0
14.01.2021	21:16:16	0	0	3,615335	2,9445	77,994	0,413	77,879	3,5	1006,22	7	9	8,9	1	1	1	1	1	1	1	1	1	0	1	-48,414376	274,273855	272,44941	0
14.01.2021	21:16:17	0	0	3,050457	2,63625	67,2984	0,404	77,884	3,5	1006,26	7	9	8,8	1	1	1	1	1	1	1	1	1	0	1	-51,374207	274,420478	270,176247	0
14.01.2021	21:16:18	0	0	4,745127	2,34	91,1772	0,41	77,881	3,5	1006,38	7	9	8,9	1	1	1	1	1	1	1	1	1	0	1	-51,937984	274,365932	269,356886	0
14.01.2021	21:16:19	0	0	4,858135	2,172	81,9648	0,406	77,883	3,5	1006,08	7	9	8,8	1	1	1	1	1	1	1	1	1	0	1	-46,723044	274,41441	274,798968	0
14.01.2021	21:16:20	0	0	4,406189	2,226	90,9072	0,406	77,878	3,5	1006,22	7	9	8,9	1	1	1	1	1	1	1	1	1	0	1	-48,273432	274,278374	272,611497	0
14.01.2021	21:16:21	0	0	4,858135	2,463	77,9868	0,41	77,89	3,5	1006,34	7	9	8,8	1	1	1	1	1	1	1	1	1	0	1	-52,854123	274,393186	268,56843	0
14.01.2021	21:16:22	0	0	4,519195	2,5575	77,9616	0,405	77,878	3,5	1006,18	7	9	8,8	1	1	1	1	1	1	1	1	1	0	1	-49,541931	274,388641	271,859326	0
14.01.2021	21:16:23	0	0	2,937459	2,51025	78,282	0,406	77,893	3,5	1006,24	7	9	8,9	1	1	1	1	1	1	1	1	1	0	1	-49,682875	274,379554	271,675809	0
14.01.2021	21:16:24	0	0	4,519168	2,373	66,2364	0,408	77,88	3,5	1006,28	7	9	8,9	1	1	1	1	1	1	1	1	1	0	1	-50,317125	274,421996	271,240441	0
14.01.2021	21:16:25	0	0	2,598537	2,35275	65,0844	0,405	77,907	3,5	1006,08	7	9	8,8	1	1	1	1	1	1	1	1	1	0	1	-47,639183	274,270844	273,210512	0
14.01.2021	21:16:26	0	0	4,406189	2,30175	91,5084	0,414	77,916	3,5	1006,24	7	9	8,9	1	1	1	1	1	1	1	1	1	0	1	-48,837209	274,408343	272,656373	0
14.01.2021	21:16:27	0	0	5,084064	2,4	75,2292	0,411	77,907	3,5	1006,28	7	9	8,9	1	1	1	1	1	1	1	1	1	0	1	-51,374207	274,370471	269,941929	0
14.01.2021	21:16:28	0	0	3,502355	2,61975	91,512	0,41	77,895	3,5	1006,22	6,8	9	8,9	1	1	1	1	1	1	1	1	1	0	1	-52,360817	274,349295	268,856132	0
14.01.2021	21:16:29	0	0	2,937477	2,62575	78,2496	0,406	77,896	3,5	1006,16	7	9	8,8	1	1	1	1	1	1	1	1	1	0	1	-49,18957	274,251281	271,568593	0
14.01.2021	21:16:30	0	0	3,841316	2,607	84,0456	0,402	77,893	3,5	1006,12	7	9	8,8	1	1	1	1	1	1	1	1	1	0	1	-55,391121	274,317575	265,677297	0
14.01.2021	21:16:31	0	0	2,598537	2,77725	86,6664	0,409	77,893	3,5	1006,16	7	9	8,8	1	1	1	1	1	1	1	1	1	0	1	-48,132488	274,400763	273,325571	0
14.01.2021	21:16:32	0	0	3,276417	2,78925	94,1004	0,404	77,908	3,5	1006,28	7	9	8,8	1	1	1	1	1	1	1	1	1	0	1	-51,233263	274,394701	270,19639	0
14.01.2021	21:16:33	0	0	2,937477	2,8035	100,3788	0,408	77,912	3,5	1006,16	7	9	8,8	1	1	1	1	1	1	1	1	1	0	1	-45,806906	274,290427	275,134433	0
14.01.2021	21:16:34	0	0	4,745127	2,89425	94,1148	0,408	77,925	3,5	1006,28	6,8	9	8,9	1	1	1	1	1	1	1	1	1	0	1	-44,186047	274,221223	276,431518	0
14.01.2021	21:16:35	0	0	4,971085	3,045	93,348	0,408	77,942	3,5	1006,32	7	9	8,9	1	1	1	1	1	1	1	1	1	0	1	-50,17618	274,240755	270,532743	0
14.01.2021	21:16:36	0	0	2,82448	3,12225	85,5252	0,399	77,947	3,5	1006,18	7	9	8,9	1	1	1	1	1	1	1	1	1	0	1	-48,132488	274,291934	272,815906	0
14.01.2021	21:16:37	0	0	3,163418	3,0105	74,9232	0,407	77,965	3,5	1006,18	7	9	8,9	1	1	1	1	1	1	1	1	1	0	1	-48,766737	274,399247	272,684219	0
14.01.2021	21:16:38	0	0	2,711517	3,057	90,0036	0,404	77,96	3,5	1006,1	7	9	8,8	1	1	1	1	1	1	1	1	1	0	1	-49,330514	274,269338	271,512136	0
14.01.2021	21:16:39	0	0	3,276417	3,249	83,7108	0,405	77,954	3,5	1006,34	7	9	8,8	1	1	1	1	1	1	1	1	1	0	1	-50,387597	274,34476	270,808116	0
14.01.2021	21:16:40	0	0	3,050439	3,198	81,2232	0,405	77,947	3,5	1006,42	6,8	9	8,9	1	1	1	1	1	1	1	1	1	0	1	-48,978154	274,234743	271,702647	0
14.01.2021	21:16:41	0	0	2,711517	3,12225	90,7848	0,404	77,941	3,5	1006,16	7	9	8,8	1	1	1	1	1	1	1	1	1	0	1	-49,753347	274,343249	271,435288	0
14.01.2021	21:16:42	0	0	4,519195	2,85375	86,6844	0,404	77,941	3,5	1006,18	7	9	8,8	1	1	1	1	1	1	1	1	1	0	1	-48,907681	274,218219	271,695837	0
14.01.2021	21:16:43	0	0	3,389376	2,6295	63,8676	0,406	77,949	3,5	1006,32	7	9	8,9	1	1	1	1	1	1	1	1	1	0	1	-49,753347	274,346272	271,449444	0
14.01.2021	21:16:44	0	0	4,406216	2,48775	85,9068	0,405	77,957	3,5	1006	7	9	8,8	1	1	1	1	1	1	1	1	1	0	1	-44,538407	274,37804	276,813184	0
14.01.2021	21:16:45	0	0	3,389397	2,37	66,9132	0,406	77,926	3,5	1006,26	7	9	8,8	1	1	1	1	1	1	1	1	1	0	1	-52,642706	274,37804	268,708885	0
14.01.2021	21:16:46	0	0	3,050457	2,46	67,6656	0,404	77,923	3,5	1006,22	7	9	8,8	1	1	1	1	1	1	1	1	1	0	1	-50,669486	274,254289	270,102752	0
14.01.2021	21:16:47	0	0	3,389397	3,009	72,3024	0,411	77,953	3,5	1006,3	6,9	9	8,8	1	1	1	1	1	1	1	1	1	0	1	-45,384073	274,206211	275,163291	0
14.01.2021	21:16:48	0	0	4,180256	3,399	76,824	0,398	77,93	3,5	1006,14	6,9	9	8,8	1	1	1	1	1	1	1	1	1	0	1	-47,639183	274,314556	273,415105	0
14.01.2021	21:16:49	0	0	3,163437	3,53025	83,826	0,406	77,936	3,5	1006,32	6,9	9	8,8	1	1	1	1	1	1	1	1	1	0	1	-48,20296	274,393186	273,219593	0
14.01.2021	21:16:50	0	0	4,632175	3,606	86,6628	0,401	77,932	3,5	1006,18	6,9	9	8,8	1	1	1	1	1	1	1	1	1	0	1	-52,008457	274,361393	269,265155	0
14.01.2021	21:16:51	0	0	3,050457	3,56775	90,4068	0,402	77,903	3,5	1006,14	6,9	9	8,8	1	1	1	1	1	1	1	1	1	0	1	-44,538407	274,341738	276,643151	0
14.01.2021	21:16:52	0	0	3,163437	3,66075	89,73	0,396	77,901	3,5	1006,16	6,9	9	8,8	1	1	1	1	1	1	1	1	1	0	1	-52,854123	274,370471	268,462013	0
14.01.2021	21:16:53	0	0	3,841316	3,78375	90,7884	0,398	77,903	3,5	1006,2	6,9	9	8,8	1	1	1	1	1	1	1	1	1	0	1	-50,387597	274,328142	270,730299	0
14.01.2021	21:16:54	0	0	3,050457	3,76875	92,646	0,398	77,899	3,5	1006,2	7	9	8,8	1	1	1	1	1	1	1	1	1	0	1	-46,863989	274,219721	273,746553	0
14.01.2021	21:16:55	0	0	4,971115	3,7605	88,9596	0,395	77,877	3,5	1006,06	6,9	9	8,8	1	1	1	1	1	1	1	1	1	0	1	-51,444679	274,358368	269,814763	0
14.01.2021	21:16:56	0	0	3,389397	4,002	91,8684	0,397	77,873	3,5	1006,36	6,9	9	8,8	1	1	1	1	1	1	1	1	1	0	1	-47,357294	274,308521	273,66874	0
14.01.2021	21:16:57	0	0	3,728336	4,095	90,414	0,4	77,868	3,5	1006,2	6,9	9	8,8	1	1	1	1	1	1	1	1	1	0	1	-55,03876	274,403795	266,433506	0
14.01.2021	21:16:58	0	0	3,728336	4,1115	77,9544	0,399	77,866	3,5	1006,26	6,9	9	8,8	1	1	1	1	1	1	1	1	1	0	1	-47,639183	274,319084	273,436301	0
14.01.2021	21:16:59	0	0	3,841316	3,8445	92,2716	0,398	77,832	3,5	1006,1	6,9	9	8,8	1	1	1	1	1	1	1	1	1	0	1	-51,515152	274,215217	269,074325	0
14.01.2021	21:17:00	0	0	4,519195	3,32925	87,7248	0,396	77,849	3,5	1006,2	6,9	9	8,8	1	1	1	1	1	1	1	1	1	0	1	-50,17618	274,264822	270,645339	0
14.01.2021	21:17:01	0	0	4,519195	3,32925	87,7248	0,396	77,849	3,5	1006,2	6,9	9	8,8	1	1	1	1	1	1	1	1	1	0	1	-50,17618	274,264822	270,645339	0
14.01.2021	21:17:02	0	0	4,858135	3,22725	89,73	0,393	77,834	3,5	1006,22	7	9	8,8	1	1	1	1	1	1	1	1	1	0	1	-50,387597	274,390156	271,020758	0
14.01.2021	21:17:03	0	0	2,485558	3,00525	71,2296	0,393	77,844	3,5	1006,22	6,9	9	8,8	1	1	1	1	1	1	1	1	1	0	1	-55,602537	274,243762	265,120452	0
14.01.2021	21:17:04	0	0	3,728336	3,009	69,552	0,393	77,829	3,5	1006	6,9	9	8,8	1	1	1	1	1	1	1	1	1	0	1	-55,813953	274,328142	265,303942	0
14.01.2021	21:17:05	0	0	2,372578	2,895	77,1984	0,393	77,839	3,5	1006,22	6,9	9	8,8	1	1	1	1	1	1	1	1	1	0	1	-50,951374	274,387126	270,442786	0
14.01.2021	21:17:06	0	0	4,519195	2,913	65,826	0,397	77,842	3,5	1006,16	6,9	9	8,8	1	1	1	1	1	1	1	1	1	0	1	-46,229739	274,358368	275,029703	0
14.01.2021	21:17:07	0	0	2,711517	3,033	87,3432	0,389	77,833	3,5	1006,24	6,9	9	8,8	1	1	1	1	1	1	1	1	1	0	1	-53,699789	274,281386	267,199239	0
14.01.2021	21:17:08	0	0	3,502376	3,2115	98,4636	0,391	77,822	3,5	1006,34	6,9	9	8,8	1	1	1	1	1	1	1	1	1	0	1	-48,907681	274,381068	272,458097	0
14.01.2021	21:17:09	0	0	2,937477	3,42525	77,958	0,388	77,83	3,5	1006,26	7	9	8,8	1	1	1	1	1	1	1	1	1	0	1	-51,656096	274,297964	269,320521	0
14.01.2021	21:17:10	0	0	2,485558	3,549	83,0016	0,39	77,85	3,5	1006,04	6,9	9	8,8	1	1	1	1	1	1	1	1	1	0	1	-53,136011	274,204711	267,404337	0
14.01.2021	21:17:11	0	0	3,050457	3,591	93,3516	0,394	77,846	3,5	1006,34	6,9	9	8,8	1	1	1	1	1	1	1	1	1	0	1	-49,612403	274,215217	270,977073	0
14.01.2021	21:17:12	0	0	3,954296	3,69375	94,7448	0,388	77,856	3,5	1006,3	6,9	9	8,8	1	1	1	1	1	1	1	1	1	0	1	-52,78365	274,264822	268,037869	0
14.01.2021	21:17:13	0	0	4,745155	3,7785	88,9596	0,393	77,859	3,5	1006,22	7	9	8,8	1	1	1	1	1	1	1	1	1	0	1	-48,484848	274,206211	272,062516	0
14.01.2021	21:17:14	0	0	2,259598	3,4815	90,054	0,392	77,878	3,5	1006,22	6,9	9,1	8,8	1	1	1	1	1	1	1	1	1	0	1	-47,498238	274,237749	273,196623	0
14.01.2021	21:17:15	0	0	2,259598	3,26775	78,2712	0,39	77,869	3,5	1006,32	6,9	9	8,8	1	1	1	1	1	1	1	1	1	0	1	-51,937984	274,347783	269,271886	0
14.01.2021	21:17:16	0	0	3,389397	3,402	84,0492	0,387	77,882	3,5	1006,28	6,9	9	8,8	1	1	1	1	1	1	1	1	1	0	1	-51,79704	274,361393	269,476571	0
14.01.2021	21:17:17	0	0	3,728336	3,447	98,478	0,39	77,888	3,5	1006,28	6,9	9	8,8	1	1	1	1	1	1	1	1	1	0	1	-47,286822	274,28892	273,647464	0
14.01.2021	21:17:18	0	0	4,180256	3,18525	101,8296	0,386	77,894	3,5	1006,18	6,9	9	8,8	1	1	1	1	1	1	1	1	1	0	1	-50,880902	274,209212	269,680497	0
14.01.2021	21:17:19	0	0	4,745155	3,501	98,7804	0,386	77,92	3,5	1006,28	6,9	9	8,8	1	1	1	1	1	1	1	1	1	0	1	-53,558844	274,343249	267,629791	0
14.01.2021	21:17:20	0	0	3,163437	4,01025	99,5364	0,386	77,932	3,5	1006,26	6,9	9	8,8	1	1	1	1	1	1	1	1	1	0	1	-47,709655	274,358368	273,549787	0
14.01.2021	21:17:21	0	0	4,632175	3,99975	79,4268	0,392	77,958	3,5	1006,4	6,9	9	8,8	1	1	1	1	1	1	1	1	1	0	1	-52,642706	274,364419	268,645077	0
14.01.2021	21:17:22	0	0	3,389397	4,0065	77,9688	0,387	77,981	3,5	1006,26	6,9	9	8,8	1	1	1	1	1	1	1	1	1	0	1	-49,330514	274,257298	271,4558	0
14.01.2021	21:17:23	0	0	3,954296	4,0815	63,1872	0,387	78,008	3,5	1006,2	6,9	9	8,8	1	1	1	1	1	1	1	1	1	0	1	-48,837209	274,382582	272,535663	0
14.01.2021	21:17:24	0	0	3,954296	3,89775	72,2808	0,384	77,999	3,5	1006,1	6,9	9	8,8	1	1	1	1	1	1	1	1	1	0	1	-52,854123	274,349295	268,362827	0
14.01.2021	21:17:25	0	0	4,067276	3,67725	79,0308	0,381	78,03	3,5	1006,26	6,9	9	8,8	1	1	1	1	1	1	1	1	1	0	1	-50,387597	274,328142	270,730299	0
14.01.2021	21:17:26	0	0	3,841316	3,38775	68,778	0,385	78,038	3,5	1006,36	6,9	9	8,8	1	1	1	1	1	1	1	1	1	0	1	-47,921071	274,19721	272,584205	0
14.01.2021	21:17:27	0	0	3,050457	3,2085	73,4112	0,383	78,042	3,5	1006,24	6,9	9	8,8	1	1	1	1	1	1	1	1	1	0	1	-50,669486	274,249777	270,081641	0
14.01.2021	21:17:28	0	0	2,711517	3,02475	63,1764	0,384	78,062	3,5	1006,34	6,9	9	8,8	1	1	1	1	1	1	1	1	1	0	1	-49,260042	274,371985	272,063183	0
14.01.2021	21:17:29	0	0	3,841316	2,892	74,5308	0,386	78,069	3,5	1006,22	6,9	9,1	8,8	1	1	1	1	1	1	1	1	1	0	1	-46,934461	274,234743	273,74634	0
14.01.2021	21:17:30	0	0	3,050457	2,814	74,5308	0,387	78,072	3,5	1006,2	6,9	9	8,8	1	1	1	1	1	1	1	1	1	0	1	-49,964764	274,269338	270,877886	0
14.01.2021	21:17:31	0	0	2,372578	2,82675	68,004	0,385	78,07	3,5	1006,2	6,9	9	8,8	1	1	1	1	1	1	1	1	1	0	1	-49,048626	274,367445	272,253332	0
14.01.2021	21:17:32	0	0	4,745155	2,991	70,6032	0,379	78,045	3,5	1006,16	6,9	9	8,8	1	1	1	1	1	1	1	1	1	0	1	-50,035236	274,269338	270,807414	0
14.01.2021	21:17:33	0	0	4,971115	3,25125	63,4824	0,384	78,04	3,5	1006,18	6,9	9,1	8,8	1	1	1	1	1	1	1	1	1	0	1	-50,035236	274,364419	271,252547	0
14.01.2021	21:17:34	0	0	4,745155	3,531	73,5192	0,384	78,047	3,5	1006,46	6,9	9	8,8	1	1	1	1	1	1	1	1	1	0	1	-47,56871	274,188213	272,894501	0
14.01.2021	21:17:35	0	0	2,598537	3,75375	76,3704	0,388	78,048	3,5	1006,1	6,9	9	8,8	1	1	1	1	1	1	1	1	1	0	1	-48,766737	274,30098	272,223996	0
14.01.2021	21:17:36	0	0	4,406216	3,8055	76,8204	0,38	78,041	3,5	1006,32	6,9	9,1	8,8	1	1	1	1	1	1	1	1	1	0	1	-47,780127	274,182217	272,655055	0
14.01.2021	21:17:37	0	0	3,728336	3,8535	79,0128	0,376	78,019	3,5	1006,16	6,9	9,1	8,8	1	1	1	1	1	1	1	1	1	0	1	-45,384073	274,293441	275,571375	0
14.01.2021	21:17:38	0	0	4,293236	4,05	72,666	0,382	78,026	3,5	1006,22	6,9	8,9	8,8	1	1	1	1	1	1	1	1	1	0	1	-48,837209	274,373498	272,493107	0
14.01.2021	21:17:39	0	0	2,711517	3,924	79,02	0,377	78,008	3,5	1006	6,9	9,1	8,8	1	1	1	1	1	1	1	1	1	0	1	-48,484848	274,224226	272,146764	0
14.01.2021	21:17:40	0	0	4,745155	3,7425	73,7532	0,382	78,015	3,5	1006,32	6,9	9,1	8,8	1	1	1	1	1	1	1	1	1	0	1	-50,669486	274,30098	270,321247	0
14.01.2021	21:17:41	0	0	5,084095	3,5595	94,7736	0,377	78,01	3,5	1006,14	6,9	8,9	8,8	1	1	1	1	1	1	1	1	1	0	1	-49,400987	274,230235	271,258729	0
14.01.2021	21:17:42	0	0	4,745155	3,41625	89,3052	0,38	78,002	3,5	1006,22	6,9	9	8,8	1	1	1	1	1	1	1	1	1	0	1	-51,162791	274,371985	270,160435	0
14.01.2021	21:17:43	0	0	4,632175	3,81975	82,3536	0,372	77,997	3,5	1006,24	6,9	9,1	8,8	1	1	1	1	1	1	1	1	1	0	1	-46,088795	274,222724	274,535793	0
14.01.2021	21:17:44	0	0	3,728336	3,993	78,66	0,377	78,006	3,5	1006,4	6,9	9,1	8,8	1	1	1	1	1	1	1	1	1	0	1	-52,360817	274,356855	268,891541	0
14.01.2021	21:17:45	0	0	2,598537	4,14225	68,7708	0,368	78,004	3,5	1006,2	6,9	9,1	8,8	1	1	1	1	1	1	1	1	1	0	1	-46,793517	274,248273	273,950575	0
14.01.2021	21:17:46	0	0	2,485558	4,52325	63,4788	0,376	77,996	3,5	1006,04	6,9	9	8,8	1	1	1	1	1	1	1	1	1	0	1	-52,924595	274,218219	267,678924	0
14.01.2021	21:17:47	0	0	4,067276	4,95075	69,4764	0,384	77,991	3,5	1006,3	6,9	9	8,8	1	1	1	1	1	1	1	1	1	0	1	-51,726568	274,209212	268,834831	0
14.01.2021	21:17:48	0	0	2,598537	5,04825	68,0292	0,378	77,983	3,5	1006,06	6,9	9	8,8	1	1	1	1	1	1	1	1	1	0	1	-51,374207	274,299472	269,609467	0
14.01.2021	21:17:49	0	0	3,615356	5,04525	63,4716	0,38	77,995	3,5	1006,2	6,9	9	8,8	1	1	1	1	1	1	1	1	1	0	1	-52,219873	274,19871	268,292416	0
14.01.2021	21:17:50	0	0	3,841316	4,89675	59,8464	0,37	78,003	3,5	1006,16	6,9	9,1	8,8	1	1	1	1	1	1	1	1	1	0	1	-49,119098	274,224226	271,512514	0
14.01.2021	21:17:51	0	0	4,406216	4,76925	54,1116	0,374	78,025	3,5	1006,12	6,9	9,1	8,8	1	1	1	1	1	1	1	1	1	0	1	-50,105708	274,240755	270,603215	0
14.01.2021	21:17:52	0	0	2,372578	4,75125	52,4988	0,375	78,027	3,5	1006,14	6,9	9	8,8	1	1	1	1	1	1	1	1	1	0	1	-48,555321	274,182217	271,879861	0
14.01.2021	21:17:53	0	0	2,824497	4,566	64,2456	0,366	78,026	3,5	1006,2	6,9	9	8,8	1	1	1	1	1	1	1	1	1	0	1	-52,008457	274,246769	268,7286	0
14.01.2021	21:17:54	0	0	4,293236	4,0845	66,5604	0,372	78,041	3,5	1006,18	6,9	9	8,8	1	1	1	1	1	1	1	1	1	0	1	-51,233263	274,362906	270,047434	0
14.01.2021	21:17:55	0	0	3,163437	4,0275	65,088	0,372	78,035	3,5	1006,26	6,9	9,1	8,8	1	1	1	1	1	1	1	1	1	0	1	-53,206483	274,317575	267,861934	0
14.01.2021	21:17:56	0	0	4,180256	4,38975	70,8588	0,372	78,036	3,5	1006,16	6,9	9,1	8,8	1	1	1	1	1	1	1	1	1	0	1	-51,162791	274,332673	269,97632	0
14.01.2021	21:17:57	0	0	3,389397	4,695	77,9652	0,375	78,044	3,5	1006,28	6,9	9,1	8,8	1	1	1	1	1	1	1	1	1	0	1	-52,360817	274,340227	268,813664	0
14.01.2021	21:17:58	0	0	2,598537	4,701	75,618	0,371	78,05	3,5	1006,24	6,9	9,1	8,8	1	1	1	1	1	1	1	1	1	0	1	-51,021846	274,239252	269,680045	0
14.01.2021	21:17:59	0	0	3,276417	4,91175	77,202	0,371	78,042	3,5	1006,22	6,9	8,9	8,8	1	1	1	1	1	1	1	1	1	0	1	-49,330514	274,225728	271,308123	0
14.01.2021	21:18:00	0	0	4,745155	5,08875	69,4332	0,365	78,041	3,5	1006,16	6,9	9,1	8,8	1	1	1	1	1	1	1	1	1	0	1	-52,713178	274,343249	268,475457	0
14.01.2021	21:18:01	0	0	4,745155	5,08875	69,4332	0,365	78,041	3,5	1006,16	6,9	9,1	8,8	1	1	1	1	1	1	1	1	1	0	1	-52,713178	274,343249	268,475457	0
14.01.2021	21:18:02	0	0	3,954296	4,52625	83,754	0,367	78,063	3,5	1006,32	6,9	9	8,8	1	1	1	1	1	1	1	1	1	0	1	-47,427766	274,267833	273,40784	0
14.01.2021	21:18:03	0	0	2,824497	4,15725	101,4948	0,369	78,062	3,5	1006,26	6,9	9,1	8,8	1	1	1	1	1	1	1	1	1	0	1	-50,317125	274,37804	271,034467	0
14.01.2021	21:18:04	0	0	3,163437	3,89625	93,3372	0,366	78,07	3,5	1006,14	6,9	9,1	8,8	1	1	1	1	1	1	1	1	1	0	1	-52,924595	274,210713	267,643822	0
14.01.2021	21:18:05	0	0	2,937477	3,7695	91,5228	0,374	78,059	3,5	1006,24	7	9	8,8	1	1	1	1	1	1	1	1	1	0	1	-46,863989	274,335694	274,289268	0
14.01.2021	21:18:06	0	0	4,406216	3,645	72,6876	0,368	78,069	3,5	1006,18	6,9	9,1	8,8	1	1	1	1	1	1	1	1	1	0	1	-52,572234	274,329652	268,552732	0
14.01.2021	21:18:07	0	0	2,937477	3,8475	69,876	0,365	78,098	3,5	1006,18	6,9	9,1	8,8	1	1	1	1	1	1	1	1	1	0	1	-53,911205	274,311538	267,128954	0
14.01.2021	21:18:08	0	0	3,615356	3,91125	73,8036	0,368	78,108	3,5	1006,16	6,9	9	8,8	1	1	1	1	1	1	1	1	1	0	1	-50,599013	274,382582	270,773859	0
14.01.2021	21:18:09	0	0	3,163437	4,341	66,5388	0,369	78,132	3,5	1006,2	6,9	9	8,8	1	1	1	1	1	1	1	1	1	0	1	-48,273432	274,269338	272,569218	0
14.01.2021	21:18:10	0	0	2,937477	4,79025	68,8896	0,372	78,151	3,5	1006,34	6,9	9	8,8	1	1	1	1	1	1	1	1	1	0	1	-50,105708	274,379554	271,252976	0
14.01.2021	21:18:11	0	0	4,180256	5,01825	66,5388	0,368	78,159	3,5	1006,2	6,9	9	8,8	1	1	1	1	1	1	1	1	1	0	1	-50,599013	274,281386	270,300014	0
14.01.2021	21:18:12	0	0	4,519195	5,07225	63,4752	0,371	78,16	3,5	1006,22	6,9	9	8,8	1	1	1	1	1	1	1	1	1	0	1	-49,18957	274,20321	271,343762	0
14.01.2021	21:18:13	0	0	3,050457	4,9185	65,4732	0,372	78,173	3,5	1006,18	6,9	9,1	8,8	1	1	1	1	1	1	1	1	1	0	1	-49,964764	274,240755	270,744159	0
14.01.2021	21:18:14	0	0	4,180256	4,6035	55,2672	0,37	78,186	3,5	1006,32	6,9	9	8,8	1	1	1	1	1	1	1	1	1	0	1	-52,78365	274,365932	268,51122	0
14.01.2021	21:18:15	0	0	3,163437	4,23225	69,4872	0,365	78,183	3,5	1006,12	6,9	9	8,8	1	1	1	1	1	1	1	1	1	0	1	-52,642706	274,218219	267,960813	0
14.01.2021	21:18:16	0	0	3,615356	3,714	48,8124	0,369	78,195	3,5	1006,38	6,9	9	8,8	1	1	1	1	1	1	1	1	1	0	1	-53,347428	274,296456	267,622132	0
14.01.2021	21:18:17	0	0	4,519195	3,27075	58,4964	0,364	78,197	3,5	1006,18	7	9	8,8	1	1	1	1	1	1	1	1	1	0	1	-50,81043	274,215217	269,779046	0
14.01.2021	21:18:18	0	0	4,406216	3,1245	66,2148	0,368	78,199	3,5	1006,16	6,9	9	8,8	1	1	1	1	1	1	1	1	1	0	1	-51,374207	274,375012	269,9632	0
14.01.2021	21:18:19	0	0	2,824497	2,85225	61,6896	0,367	78,218	3,5	1006,34	7	9	8,8	1	1	1	1	1	1	1	1	1	0	1	-53,347428	274,257298	267,438887	0
14.01.2021	21:18:20	0	0	5,084095	2,565	74,5416	0,371	78,213	3,5	1006,18	6,9	9,1	8,8	1	1	1	1	1	1	1	1	1	0	1	-52,642706	274,365932	268,652164	0
14.01.2021	21:18:21	0	0	4,293236	2,61525	88,5888	0,365	78,21	3,5	1006,26	6,9	9	8,8	1	1	1	1	1	1	1	1	1	0	1	-47,004933	274,317575	274,063485	0
14.01.2021	21:18:22	0	0	4,067276	2,9955	88,938	0,364	78,204	3,5	1006,12	6,9	9,1	8,8	1	1	1	1	1	1	1	1	1	0	1	-49,119098	274,364419	272,168685	0
14.01.2021	21:18:23	0	0	2,937477	3,14325	91,1412	0,364	78,192	3,5	1006,16	7	9,1	8,8	1	1	1	1	1	1	1	1	1	0	1	-51,374207	274,239252	269,327685	0
14.01.2021	21:18:24	0	0	4,180256	3,087	79,398	0,362	78,189	3,5	1006,18	6,9	9	8,8	1	1	1	1	1	1	1	1	1	0	1	-48,766737	274,326632	272,344088	0
14.01.2021	21:18:25	0	0	4,406216	3,06225	85,5324	0,363	78,193	3,5	1006,2	6,9	9	8,8	1	1	1	1	1	1	1	1	1	0	1	-52,854123	274,381068	268,511656	0
14.01.2021	21:18:26	0	0	4,971115	2,9025	80,1432	0,369	78,183	3,5	1006,14	6,9	9	8,8	1	1	1	1	1	1	1	1	1	0	1	-47,145877	274,239252	273,556014	0
14.01.2021	21:18:27	0	0	3,502376	3,0375	95,5224	0,37	78,19	3,5	1006,2	6,9	9	8,8	1	1	1	1	1	1	1	1	1	0	1	-44,115574	274,209212	276,445825	0
14.01.2021	21:18:28	0	0	2,937477	3,0855	76,3956	0,365	78,179	3,5	1006,44	6,9	9	8,8	1	1	1	1	1	1	1	1	1	0	1	-50,458069	274,252785	270,307131	0
14.01.2021	21:18:29	0	0	4,180256	3,099	92,2716	0,37	78,175	3,5	1006,3	6,9	9,1	8,8	1	1	1	1	1	1	1	1	1	0	1	-48,625793	274,19571	271,872471	0
14.01.2021	21:18:30	0	0	4,180256	3,25275	96,5988	0,363	78,17	3,5	1006,28	7	9	8,8	1	1	1	1	1	1	1	1	1	0	1	-45,313601	274,254289	275,458637	0
14.01.2021	21:18:31	0	0	4,406242	3,435	94,7592	0,364	78,17	3,5	1006,2	6,9	9	8,7	1	1	1	1	1	1	1	1	1	0	1	-49,330514	274,353831	271,907678	0
14.01.2021	21:18:32	0	0	4,406216	3,72	94,8528	0,369	78,151	3,5	1006,22	6,9	9,1	8,8	1	1	1	1	1	1	1	1	1	0	1	-54,968288	274,186713	265,487915	0
14.01.2021	21:18:33	0	0	3,728336	3,738	95,4972	0,367	78,146	3,5	1006,26	6,9	9	8,8	1	1	1	1	1	1	1	1	1	0	1	-48,273432	274,30098	272,717301	0
14.01.2021	21:18:34	0	0	3,841316	3,31575	101,7936	0,366	78,148	3,5	1006,34	6,9	9	8,8	1	1	1	1	1	1	1	1	1	0	1	-50,035236	274,375012	271,302171	0
14.01.2021	21:18:35	0	0	4,180256	3,06	79,7868	0,37	78,139	3,5	1006,24	6,9	9,1	8,8	1	1	1	1	1	1	1	1	1	0	1	-48,837209	274,242259	271,878746	0
14.01.2021	21:18:36	0	0	3,615356	3,159	83,3472	0,365	78,125	3,5	1006,38	6,9	9	8,8	1	1	1	1	1	1	1	1	1	0	1	-50,669486	274,322103	270,420133	0
14.01.2021	21:18:37	0	0	3,050457	3,48375	85,1508	0,365	78,102	3,5	1006,32	6,9	9,1	8,8	1	1	1	1	1	1	1	1	1	0	1	-50,246653	274,381068	271,119126	0
14.01.2021	21:18:38	0	0	2,937477	3,777	81,594	0,363	78,104	3,5	1006,3	6,9	9	8,8	1	1	1	1	1	1	1	1	1	0	1	-50,951374	274,296456	270,018186	0
14.01.2021	21:18:39	0	0	2,485558	3,90225	82,458	0,366	78,085	3,5	1006,18	7	9	8,8	1	1	1	1	1	1	1	1	1	0	1	-50,528541	274,210713	270,039876	0
14.01.2021	21:18:40	0	0	4,519195	4,23375	85,896	0,361	78,088	3,5	1006,26	7	9	8,8	1	1	1	1	1	1	1	1	1	0	1	-50,105708	274,267833	270,729898	0
14.01.2021	21:18:41	0	0	4,519195	4,24275	88,5744	0,361	78,057	3,5	1006,28	7	9	8,8	1	1	1	1	1	1	1	1	1	0	1	-56,307259	274,382582	265,065614	0
14.01.2021	21:18:42	0	0	4,632175	4,19775	84,4344	0,366	78,06	3,5	1006,16	6,9	9	8,8	1	1	1	1	1	1	1	1	1	0	1	-51,585624	274,284399	269,327505	0
14.01.2021	21:18:43	0	0	3,389417	4,3095	96,3144	0,356	78,053	3,5	1006,2	6,9	9	8,7	1	1	1	1	1	1	1	1	1	0	1	-49,612403	274,20021	270,9069	0
14.01.2021	21:18:44	0	0	2,711517	4,61325	88,9488	0,362	78,051	3,5	1006,3	6,9	9	8,8	1	1	1	1	1	1	1	1	1	0	1	-48,978154	274,376526	272,366345	0
14.01.2021	21:18:45	0	0	3,841316	4,73325	77,6088	0,365	78,055	3,5	1006,3	6,9	9	8,8	1	1	1	1	1	1	1	1	1	0	1	-46,934461	274,31003	274,098635	0
14.01.2021	21:18:46	0	0	3,050475	4,653	74,1492	0,369	78,049	3,5	1006,2	7	9	8,7	1	1	1	1	1	1	1	1	1	0	1	-49,541931	274,209212	271,019468	0
14.01.2021	21:18:47	0	0	4,519195	4,5735	77,598	0,362	78,046	3,5	1006,24	7	9	8,8	1	1	1	1	1	1	1	1	1	0	1	-52,43129	274,249777	268,319837	0
14.01.2021	21:18:48	0	0	2,824497	4,7175	70,2324	0,362	78,041	3,5	1006,32	6,9	9	8,8	1	1	1	1	1	1	1	1	1	0	1	-48,132488	274,19571	272,365776	0
14.01.2021	21:18:49	0	0	4,858164	5,4255	84,7872	0,363	78,04	3,5	1006,24	7	9	8,7	1	1	1	1	1	1	1	1	1	0	1	-54,122622	274,267833	266,712984	0
14.01.2021	21:18:50	0	0	2,937477	5,7315	75,9816	0,364	78,042	3,5	1006,44	7	9	8,8	1	1	1	1	1	1	1	1	1	0	1	-46,5821	274,365932	274,71277	0
14.01.2021	21:18:51	0	0	3,389397	5,71875	69,156	0,362	78,039	3,5	1006,14	7	9	8,8	1	1	1	1	1	1	1	1	1	0	1	-47,56871	274,231738	273,098033	0
14.01.2021	21:18:52	0	0	2,598553	5,45025	60,9444	0,364	78,039	3,5	1006,34	7	9	8,7	1	1	1	1	1	1	1	1	1	0	1	-47,56871	274,371985	273,754515	0
14.01.2021	21:18:53	0	0	3,728336	4,94025	48,8124	0,357	78,043	3,5	1006,3	7	9	8,8	1	1	1	1	1	1	1	1	1	0	1	-46,441156	274,338716	274,72625	0
14.01.2021	21:18:54	0	0	4,406216	4,78275	57,7296	0,355	78,043	3,5	1006,18	6,9	9	8,8	1	1	1	1	1	1	1	1	1	0	1	-50,739958	274,231738	269,926786	0
14.01.2021	21:18:55	0	0	5,084125	4,9305	69,8472	0,359	78,037	3,5	1006,14	6,9	9	8,7	1	1	1	1	1	1	1	1	1	0	1	-46,793517	274,185214	273,655679	0
14.01.2021	21:18:56	0	0	2,372578	5,1015	58,4964	0,353	78,031	3,5	1006,16	6,8	9	8,8	1	1	1	1	1	1	1	1	1	0	1	-49,330514	274,284399	271,582615	0
14.01.2021	21:18:57	0	0	4,293236	5,3055	91,1808	0,355	78,026	3,5	1006,26	6,9	9	8,8	1	1	1	1	1	1	1	1	1	0	1	-51,374207	274,215217	269,215269	0
14.01.2021	21:18:58	0	0	2,598537	5,0985	90,0288	0,358	78,014	3,5	1006,28	7	9	8,8	1	1	1	1	1	1	1	1	1	0	1	-50,105708	274,231738	270,561035	0
14.01.2021	21:18:59	0	0	3,050457	5,067	79,7436	0,355	78,002	3,5	1006,12	7	9	8,8	1	1	1	1	1	1	1	1	1	0	1	-49,964764	274,257298	270,821551	0
14.01.2021	21:19:00	0	0	3,389397	5,50275	62,4132	0,359	78,02	3,5	1006,18	7	9	8,8	1	1	1	1	1	1	1	1	1	0	1	-48,696265	274,338716	272,471141	0
14.01.2021	21:19:01	0	0	3,389397	5,50275	62,4132	0,359	78,02	3,5	1006,18	7	9	8,8	1	1	1	1	1	1	1	1	1	0	1	-48,696265	274,338716	272,471141	0
14.01.2021	21:19:02	0	0	2,937477	5,73	52,8804	0,357	78,028	3,5	1006,24	6,9	9	8,8	1	1	1	1	1	1	1	1	1	0	1	-50,951374	274,28892	269,982911	0
14.01.2021	21:19:03	0	0	4,971145	5,04225	54,4932	0,351	78,035	3,5	1006,32	7	9	8,7	1	1	1	1	1	1	1	1	1	0	1	-49,400987	274,19571	271,097277	0
14.01.2021	21:19:04	0	0	4,0673	4,4415	52,8588	0,352	78,054	3,5	1006,18	6,9	9	8,7	1	1	1	1	1	1	1	1	1	0	1	-50,669486	274,334184	270,476698	0
14.01.2021	21:19:05	0	0	4,971115	3,825	65,898	0,354	78,07	3,5	1006,18	6,9	9	8,8	1	1	1	1	1	1	1	1	1	0	1	-50,528541	274,210713	270,039876	0
14.01.2021	21:19:06	0	0	4,632203	3,9675	75,6216	0,356	78,077	3,5	1006,14	6,9	9	8,7	1	1	1	1	1	1	1	1	1	0	1	-49,471459	274,391671	271,943995	0
14.01.2021	21:19:07	0	0	3,615356	4,122	74,1672	0,354	78,094	3,5	1006,18	7	9	8,8	1	1	1	1	1	1	1	1	1	0	1	-51,515152	274,28892	269,419134	0
14.01.2021	21:19:08	0	0	3,841316	4,23675	88,1208	0,354	78,088	3,5	1006,18	7	9	8,8	1	1	1	1	1	1	1	1	1	0	1	-50,317125	274,209212	270,244274	0
14.01.2021	21:19:09	0	0	2,372578	4,0695	93,8196	0,356	78,11	3,5	1006,2	7	9	8,8	1	1	1	1	1	1	1	1	1	0	1	-48,484848	274,308521	272,541186	0
14.01.2021	21:19:10	0	0	3,050475	3,8265	86,6736	0,353	78,113	3,5	1006,28	7	9	8,7	1	1	1	1	1	1	1	1	1	0	1	-48,555321	274,20321	271,978011	0
14.01.2021	21:19:11	0	0	2,485558	3,67275	78,6492	0,353	78,143	3,5	1006,32	7	9	8,8	1	1	1	1	1	1	1	1	1	0	1	-49,119098	274,246769	271,617958	0
14.01.2021	21:19:12	0	0	3,615356	4,00425	79,758	0,357	78,141	3,5	1006,42	7	9	8,8	1	1	1	1	1	1	1	1	1	0	1	-46,088795	274,358368	275,170647	0
14.01.2021	21:19:13	0	0	3,728359	4,25025	88,1244	0,354	78,141	3,5	1006,44	6,9	9	8,7	1	1	1	1	1	1	1	1	1	0	1	-48,062016	274,385611	273,325048	0
14.01.2021	21:19:14	0	0	4,067276	4,656	87,3576	0,357	78,162	3,5	1006,4	7	9	8,8	1	1	1	1	1	1	1	1	1	0	1	-49,753347	274,326632	271,357478	0
14.01.2021	21:19:15	0	0	2,824514	4,73325	75,9672	0,355	78,171	3,5	1006,22	6,9	9	8,7	1	1	1	1	1	1	1	1	1	0	1	-52,008457	274,381068	269,357321	0
14.01.2021	21:19:16	0	0	4,406242	4,5075	84,4272	0,352	78,163	3,5	1006,26	7	9	8,7	1	1	1	1	1	1	1	1	1	0	1	-48,273432	274,27235	272,583309	0
14.01.2021	21:19:17	0	0	4,519223	4,41225	79,0092	0,352	78,166	3,5	1006,4	7	9	8,7	1	1	1	1	1	1	1	1	1	0	1	-50,246653	274,335694	270,906604	0
14.01.2021	21:19:18	0	0	3,841316	4,467	82,368	0,358	78,172	3,5	1006,32	7	9	8,8	1	1	1	1	1	1	1	1	1	0	1	-48,837209	274,396216	272,599544	0
14.01.2021	21:19:19	0	0	3,163456	4,4895	85,1868	0,35	78,183	3,5	1006,3	6,9	9	8,7	1	1	1	1	1	1	1	1	1	0	1	-46,159267	274,276867	274,718614	0
14.01.2021	21:19:20	0	0	2,711517	4,317	85,5144	0,353	78,214	3,5	1006,36	6,8	9	8,8	1	1	1	1	1	1	1	1	1	0	1	-47,56871	274,219721	273,041831	0
14.01.2021	21:19:21	0	0	2,937495	4,0635	63,1728	0,345	78,19	3,5	1006,24	6,8	9	8,7	1	1	1	1	1	1	1	1	1	0	1	-49,753347	274,319084	271,322136	0
14.01.2021	21:19:22	0	0	4,406216	3,78375	52,8876	0,353	78,186	3,5	1006,2	7	9	8,8	1	1	1	1	1	1	1	1	1	0	1	-51,374207	274,370471	269,941929	0
14.01.2021	21:19:23	0	0	3,389417	3,62025	58,4784	0,343	78,199	3,5	1006,28	7	9	8,7	1	1	1	1	1	1	1	1	1	0	1	-49,964764	274,254289	270,807474	0
14.01.2021	21:19:24	0	0	2,711534	3,6315	66,5388	0,35	78,203	3,5	1006,18	7	9	8,7	1	1	1	1	1	1	1	1	1	0	1	-51,656096	274,258803	269,137259	0
14.01.2021	21:19:25	0	0	3,841316	3,76125	69,84	0,347	78,189	3,5	1006,24	7	9	8,8	1	1	1	1	1	1	1	1	1	0	1	-44,045102	274,379554	277,313582	0
14.01.2021	21:19:26	0	0	2,824514	3,639	72,306	0,344	78,199	3,5	1006,26	7	9	8,7	1	1	1	1	1	1	1	1	1	0	1	-49,330514	274,294949	271,631989	0
14.01.2021	21:19:27	0	0	4,293261	3,5865	77,9544	0,342	78,212	3,5	1006,04	6,8	9	8,7	1	1	1	1	1	1	1	1	1	0	1	-52,78365	274,370471	268,532485	0
14.01.2021	21:19:28	0	0	4,519223	3,51225	74,5272	0,35	78,232	3,5	1006,3	6,8	9	8,7	1	1	1	1	1	1	1	1	1	0	1	-47,639183	274,34476	273,55653	0
14.01.2021	21:19:29	0	0	2,711534	3,2145	70,6104	0,351	78,215	3,5	1006,4	6,9	9	8,7	1	1	1	1	1	1	1	1	1	0	1	-51,937984	274,335694	269,215272	0
14.01.2021	21:19:30	0	0	2,598553	3,1125	58,86	0,354	78,224	3,5	1006,3	7	9	8,7	1	1	1	1	1	1	1	1	1	0	1	-49,330514	274,19571	271,167749	0
14.01.2021	21:19:31	0	0	3,276397	3,16125	69,8508	0,342	78,227	3,5	1006,24	7	9	8,9	1	1	1	1	1	1	1	1	1	0	1	-47,21635	274,316065	273,845002	0
14.01.2021	21:19:32	0	0	3,615378	3,2415	71,9748	0,348	78,232	3,5	1006,28	7	9	8,7	1	1	1	1	1	1	1	1	1	0	1	-50,317125	274,206211	270,230239	0
14.01.2021	21:19:33	0	0	4,632203	3,243	67,662	0,348	78,234	3,5	1006,32	7	9	8,7	1	1	1	1	1	1	1	1	1	0	1	-50,17618	274,34476	271,019532	0
14.01.2021	21:19:34	0	0	4,519223	3,3315	82,5804	0,35	78,23	3,5	1006,26	7	9	8,7	1	1	1	1	1	1	1	1	1	0	1	-47,991543	274,316065	273,069809	0
14.01.2021	21:19:35	0	0	4,745155	3,5115	63,486	0,35	78,228	3,5	1006,2	7	9	8,8	1	1	1	1	1	1	1	1	1	0	1	-48,837209	274,379554	272,521475	0
14.01.2021	21:19:36	0	0	3,389397	3,44325	56,6676	0,349	78,235	3,5	1006,28	6,9	9	8,8	1	1	1	1	1	1	1	1	1	0	1	-51,79704	274,326632	269,313785	0
14.01.2021	21:19:37	0	0	5,084125	3,8745	43,6536	0,345	78,218	3,5	1006,2	7	9	8,7	1	1	1	1	1	1	1	1	1	0	1	-48,766737	274,371985	272,556488	0
14.01.2021	21:19:38	0	0	4,858164	3,8295	62,0424	0,348	78,224	3,5	1006,26	7	9	8,7	1	1	1	1	1	1	1	1	1	0	1	-51,374207	274,346272	269,828584	0
14.01.2021	21:19:39	0	0	2,824514	4,1325	80,1288	0,346	78,221	3,5	1006,34	7	9	8,7	1	1	1	1	1	1	1	1	1	0	1	-52,219873	274,27235	268,636867	0
14.01.2021	21:19:40	0	0	4,519223	4,25625	79,056	0,348	78,23	3,5	1006,42	7	9	8,7	1	1	1	1	1	1	1	1	1	0	1	-47,780127	274,365932	273,514744	0
14.01.2021	21:19:41	0	0	3,615356	3,68925	63,162	0,349	78,222	3,5	1006,28	6,8	9	8,8	1	1	1	1	1	1	1	1	1	0	1	-47,780127	274,325122	273,323629	0
14.01.2021	21:19:42	0	0	4,971145	3,2115	64,6272	0,347	78,223	3,5	1006,24	6,8	9	8,7	1	1	1	1	1	1	1	1	1	0	1	-49,18957	274,364419	272,098213	0
14.01.2021	21:19:43	0	0	3,954296	3,04875	85,9248	0,35	78,228	3,5	1006,3	6,8	9	8,8	1	1	1	1	1	1	1	1	1	0	1	-46,934461	274,294949	274,028043	0
14.01.2021	21:19:44	0	0	2,146631	3,2775	80,5032	0,346	78,216	3,5	1006,26	7	9	8,7	1	1	1	1	1	1	1	1	1	0	1	-52,360817	274,204711	268,17953	0
14.01.2021	21:19:45	0	0	3,954296	3,62775	74,9376	0,347	78,211	3,5	1006,2	7	9	8,8	1	1	1	1	1	1	1	1	1	0	1	-48,414376	274,361393	272,859235	0
14.01.2021	21:19:46	0	0	4,180281	3,6405	53,7372	0,34	78,2	3,5	1006,28	6,8	9	8,7	1	1	1	1	1	1	1	1	1	0	1	-48,062016	274,269338	272,780635	0
14.01.2021	21:19:47	0	0	3,389417	3,813	71,2332	0,344	78,196	3,5	1006,2	6,8	9	8,7	1	1	1	1	1	1	1	1	1	0	1	-53,4179	274,19721	267,087376	0
14.01.2021	21:19:48	0	0	4,858164	3,98025	64,6272	0,34	78,199	3,5	1006,24	6,8	9	8,7	1	1	1	1	1	1	1	1	1	0	1	-49,682875	274,219721	270,927666	0
14.01.2021	21:19:49	0	0	3,841339	3,8265	60,5556	0,344	78,187	3,5	1006,44	6,9	9	8,7	1	1	1	1	1	1	1	1	1	0	1	-48,625793	274,210713	271,942624	0
14.01.2021	21:19:50	0	0	4,0673	3,9015	79,4304	0,349	78,196	3,5	1006,46	7	9	8,7	1	1	1	1	1	1	1	1	1	0	1	-44,890768	274,257298	275,895547	0
14.01.2021	21:19:51	0	0	2,711534	4,6035	78,2964	0,351	78,195	3,5	1006,36	7	9	8,7	1	1	1	1	1	1	1	1	1	0	1	-43,551797	274,182217	276,883384	0
14.01.2021	21:19:52	0	0	4,180256	4,63575	83,718	0,344	78,196	3,5	1006,16	7	9	8,8	1	1	1	1	1	1	1	1	1	0	1	-45,313601	274,258803	275,479753	0
14.01.2021	21:19:53	0	0	3,728359	4,9065	82,5876	0,34	78,195	3,5	1006,36	7	9	8,7	1	1	1	1	1	1	1	1	1	0	1	-48,273432	274,35988	272,993094	0
14.01.2021	21:19:54	0	0	3,615378	5,142	73,7784	0,343	78,211	3,5	1006,28	6,8	9	8,7	1	1	1	1	1	1	1	1	1	0	1	-48,978154	274,313047	272,069069	0
14.01.2021	21:19:55	0	0	4,632148	5,3985	82,5948	0,339	78,22	3,5	1006,3	7	9	8,9	1	1	1	1	1	1	1	1	1	0	1	-53,136011	274,332673	268,003099	0
14.01.2021	21:19:56	0	0	3,163437	5,50875	72,0036	0,346	78,254	3,5	1006,4	6,8	9	8,8	1	1	1	1	1	1	1	1	1	0	1	-47,709655	274,340227	273,464827	0
14.01.2021	21:19:57	0	0	2,824497	5,53875	63,162	0,342	78,263	3,5	1006,22	7	9	8,8	1	1	1	1	1	1	1	1	1	0	1	-48,343904	274,206211	272,20346	0
14.01.2021	21:19:58	0	0	2,824497	5,46975	72,6696	0,334	78,267	3,5	1006,26	7	9	8,8	1	1	1	1	1	1	1	1	1	0	1	-49,260042	274,270844	271,589653	0
14.01.2021	21:19:59	0	0	2,937477	4,9275	82,35	0,339	78,284	3,5	1006,38	7	9	8,8	1	1	1	1	1	1	1	1	1	0	1	-46,088795	274,368958	275,220252	0
14.01.2021	21:20:00	0	0	2,824497	5,0205	79,4196	0,338	78,324	3,5	1006,3	6,8	9	8,8	1	1	1	1	1	1	1	1	1	0	1	-46,229739	274,370471	275,086396	0
14.01.2021	21:20:01	0	0	3,163456	5,172	89,3268	0,338	78,337	3,5	1006,28	6,8	9	8,7	1	1	1	1	1	1	1	1	1	0	1	-46,229739	274,370471	275,086396	0
14.01.2021	21:20:02	0	0	3,163456	5,172	89,3268	0,338	78,337	3,5	1006,28	6,8	9	8,7	1	1	1	1	1	1	1	1	1	0	1	-47,639183	274,251281	273,118981	0
14.01.2021	21:20:03	0	0	4,406242	5,067	84,456	0,336	78,341	3,5	1006,16	7	9	8,7	1	1	1	1	1	1	1	1	1	0	1	-54,615927	274,332673	266,523184	0
14.01.2021	21:20:04	0	0	3,050475	5,19825	79,416	0,343	78,354	3,5	1006,12	6,8	9	8,7	1	1	1	1	1	1	1	1	1	0	1	-51,585624	274,384097	269,794344	0
14.01.2021	21:20:05	0	0	3,841339	5,09325	79,7688	0,345	78,371	3,5	1006,28	7	9	8,7	1	1	1	1	1	1	1	1	1	0	1	-48,766737	274,278374	272,118192	0
14.01.2021	21:20:06	0	0	3,050457	5,067	72	0,341	78,38	3,5	1006,08	7	9	8,8	1	1	1	1	1	1	1	1	1	0	1	-47,56871	274,206211	272,978654	0
14.01.2021	21:20:07	0	0	4,519223	5,02275	55,566	0,346	78,397	3,5	1006,3	7	9	8,7	1	1	1	1	1	1	1	1	1	0	1	-47,991543	274,353831	273,246649	0
14.01.2021	21:20:08	0	0	4,293261	5,03175	59,8608	0,341	78,404	3,5	1006,32	7	9	8,7	1	1	1	1	1	1	1	1	1	0	1	-53,558844	274,355343	267,686431	0
14.01.2021	21:20:09	0	0	3,389417	4,755	56,2896	0,35	78,407	3,5	1006,2	7	9	8,7	1	1	1	1	1	1	1	1	1	0	1	-54,052149	274,396216	267,384604	0
14.01.2021	21:20:10	0	0	3,615378	4,4625	52,4952	0,34	78,407	3,5	1006,3	7	9	8,7	1	1	1	1	1	1	1	1	1	0	1	-51,374207	274,341738	269,807351	0
14.01.2021	21:20:11	0	0	2,937477	4,19025	53,4528	0,343	78,395	3,5	1006,22	7	9	8,8	1	1	1	1	1	1	1	1	1	0	1	-49,682875	274,249777	271,068252	0
14.01.2021	21:20:12	0	0	4,293236	3,87	52,5168	0,346	78,406	3,5	1006,26	6,8	9	8,8	1	1	1	1	1	1	1	1	1	0	1	-45,806906	274,335694	275,346351	0
14.01.2021	21:20:13	0	0	4,519195	3,834	58,4964	0,345	78,395	3,5	1006,2	6,8	9	8,8	1	1	1	1	1	1	1	1	1	0	1	-49,541931	274,20021	270,977372	0
14.01.2021	21:20:14	0	0	3,841339	4,143	51,0552	0,344	78,386	3,5	1006,32	6,8	9	8,7	1	1	1	1	1	1	1	1	1	0	1	-53,206483	274,326632	267,904342	0
14.01.2021	21:20:15	0	0	2,711517	4,28775	55,9404	0,344	78,366	3,5	1006,32	7	9	8,8	1	1	1	1	1	1	1	1	1	0	1	-49,964764	274,396216	271,471989	0
14.01.2021	21:20:16	0	0	2,937477	4,3035	66,546	0,344	78,375	3,5	1006,26	7	9	8,8	1	1	1	1	1	1	1	1	1	0	1	-52,219873	274,245266	268,510149	0
14.01.2021	21:20:17	0	0	4,745155	4,14975	66,5388	0,338	78,365	3,5	1006,26	7	9	8,8	1	1	1	1	1	1	1	1	1	0	1	-47,639183	274,240755	273,069741	0
14.01.2021	21:20:18	0	0	3,050457	4,44975	62,4276	0,34	78,365	3,5	1006,22	7	9	8,8	1	1	1	1	1	1	1	1	1	0	1	-53,4179	274,402279	268,047262	0
14.01.2021	21:20:19	0	0	4,632175	4,44525	61,2828	0,342	78,377	3,5	1006,34	7	9	8,8	1	1	1	1	1	1	1	1	1	0	1	-47,921071	274,323613	273,175615	0
14.01.2021	21:20:20	0	0	2,711534	4,4175	68,022	0,338	78,364	3,5	1006,24	6,8	9	8,7	1	1	1	1	1	1	1	1	1	0	1	-55,673009	274,240755	265,035914	0
14.01.2021	21:20:21	0	0	3,050475	4,35975	65,0952	0,348	78,374	3,5	1006,24	7	9	8,7	1	1	1	1	1	1	1	1	1	0	1	-49,894292	274,35988	271,372235	0
14.01.2021	21:20:22	0	0	4,745155	4,31625	70,8264	0,351	78,379	3,5	1006,4	6,8	9	8,8	1	1	1	1	1	1	1	1	1	0	1	-54,193094	274,34476	267,002619	0
14.01.2021	21:20:23	0	0	3,615356	4,05525	53,3448	0,348	78,376	3,5	1006,3	6,8	9	8,8	1	1	1	1	1	1	1	1	1	0	1	-47,427766	274,408343	274,065816	0
14.01.2021	21:20:24	0	0	3,050457	3,9105	73,7748	0,344	78,385	3,5	1006,2	7	9	8,8	1	1	1	1	1	1	1	1	1	0	1	-49,964764	274,331163	271,167274	0
14.01.2021	21:20:25	0	0	5,197075	3,8775	90,4968	0,346	78,367	3,5	1006,3	6,8	9	8,8	1	1	1	1	1	1	1	1	1	0	1	-51,726568	274,228733	268,926121	0
14.01.2021	21:20:26	0	0	3,841316	3,57	80,1576	0,34	78,376	3,5	1006,16	6,8	9	8,8	1	1	1	1	1	1	1	1	1	0	1	-52,43129	274,402279	269,033872	0
14.01.2021	21:20:27	0	0	4,971115	3,453	79,4232	0,341	78,376	3,5	1006,24	6,8	9	8,8	1	1	1	1	1	1	1	1	1	0	1	-45,243129	274,243762	275,47986	0
14.01.2021	21:20:28	0	0	4,745155	3,4635	78,66	0,344	78,365	3,5	1006,06	7	9	8,8	1	1	1	1	1	1	1	1	1	0	1	-49,119098	274,237749	271,575763	0
14.01.2021	21:20:29	0	0	3,954296	3,615	79,758	0,345	78,359	3,5	1006,08	7	9	8,8	1	1	1	1	1	1	1	1	1	0	1	-47,498238	274,364419	273,789545	0
14.01.2021	21:20:30	0	0	2,937495	3,801	73,4436	0,348	78,365	3,5	1006,22	7	9	8,7	1	1	1	1	1	1	1	1	1	0	1	-45,947851	274,400763	275,510208	0
14.01.2021	21:20:31	0	0	2,711534	3,885	87,7212	0,347	78,357	3,5	1006,18	6,8	9	8,7	1	1	1	1	1	1	1	1	1	0	1	-49,964764	274,251281	270,793399	0
14.01.2021	21:20:32	0	0	3,502376	3,81825	87,732	0,35	78,362	3,5	1006,28	7	9	8,8	1	1	1	1	1	1	1	1	1	0	1	-48,696265	274,291934	272,252128	0
14.01.2021	21:20:33	0	0	4,519195	3,67425	90,0396	0,35	78,361	3,5	1006,36	6,8	9	8,8	1	1	1	1	1	1	1	1	1	0	1	-50,880902	274,402279	270,58426	0
14.01.2021	21:20:34	0	0	3,502376	3,612	75,9708	0,344	78,358	3,5	1006,36	7	9	8,8	1	1	1	1	1	1	1	1	1	0	1	-48,625793	274,311538	272,414366	0
14.01.2021	21:20:35	0	0	3,163437	3,74475	80,1432	0,348	78,367	3,5	1006,22	7	9	8,8	1	1	1	1	1	1	1	1	1	0	1	-51,021846	274,264822	269,799673	0
14.01.2021	21:20:36	0	0	4,519195	3,74775	85,5108	0,34	78,376	3,5	1006,34	7	9	8,8	1	1	1	1	1	1	1	1	1	0	1	-52,642706	274,396216	268,794047	0
14.01.2021	21:20:37	0	0	4,293236	4,017	88,1316	0,339	78,38	3,5	1006,24	7	9	8,8	1	1	1	1	1	1	1	1	1	0	1	-46,300211	274,243762	274,422777	0
14.01.2021	21:20:38	0	0	3,163437	4,14525	93,33	0,349	78,39	3,5	1006,24	6,8	9	8,8	1	1	1	1	1	1	1	1	1	0	1	-49,260042	274,234743	271,420759	0
14.01.2021	21:20:39	0	0	3,163437	3,99975	82,5912	0,348	78,401	3,5	1006,1	7	9	8,8	1	1	1	1	1	1	1	1	1	0	1	-49,048626	274,313047	271,998597	0
14.01.2021	21:20:40	0	0	3,389397	3,726	80,1576	0,347	78,407	3,5	1006,3	7	9	8,8	1	1	1	1	1	1	1	1	1	0	1	-52,713178	274,387126	268,680982	0
14.01.2021	21:20:41	0	0	2,598537	3,56025	72,3096	0,351	78,393	3,5	1006,18	7	9	8,8	1	1	1	1	1	1	1	1	1	0	1	-45,243129	274,296456	275,726431	0
14.01.2021	21:20:42	0	0	3,615356	3,5565	79,794	0,345	78,409	3,5	1006,38	7	9	8,8	1	1	1	1	1	1	1	1	1	0	1	-52,290345	274,294949	268,672159	0
14.01.2021	21:20:43	0	0	4,406216	3,64425	86,2668	0,349	78,41	3,5	1006,2	6,8	9	8,8	1	1	1	1	1	1	1	1	1	0	1	-51,374207	274,399247	270,076749	0
14.01.2021	21:20:44	0	0	4,293236	3,88425	70,848	0,348	78,395	3,5	1006,22	7	9	8,8	1	1	1	1	1	1	1	1	1	0	1	-46,018323	274,367445	275,283635	0
14.01.2021	21:20:45	0	0	3,728336	3,8175	67,284	0,348	78,379	3,5	1006,34	6,8	9	8,8	1	1	1	1	1	1	1	1	1	0	1	-47,286822	274,227231	273,358841	0
14.01.2021	21:20:46	0	0	3,841316	3,489	82,3356	0,354	78,382	3,5	1006,06	6,8	9	8,8	1	1	1	1	1	1	1	1	1	0	1	-51,79704	274,364419	269,490743	0
14.01.2021	21:20:47	0	0	3,163437	3,22275	84,4164	0,349	78,375	3,5	1006,3	6,8	9	8,8	1	1	1	1	1	1	1	1	1	0	1	-49,541931	274,361393	271,73168	0
14.01.2021	21:20:48	0	0	4,293236	3,2355	92,6424	0,35	78,356	3,5	1006,12	7	9	8,8	1	1	1	1	1	1	1	1	1	0	1	-51,444679	274,396216	269,992074	0
14.01.2021	21:20:49	0	0	5,084095	3,22875	87,3504	0,349	78,351	3,5	1006,3	7	9	8,8	1	1	1	1	1	1	1	1	1	0	1	-50,669486	274,266328	270,159077	0
14.01.2021	21:20:50	0	0	3,502376	3,31425	96,9804	0,351	78,346	3,5	1006,4	6,8	9	8,8	1	1	1	1	1	1	1	1	1	0	1	-48,484848	274,27235	272,371892	0
14.01.2021	21:20:51	0	0	4,067276	3,96825	90,0324	0,347	78,327	3,5	1006,3	7	9	8,8	1	1	1	1	1	1	1	1	1	0	1	-48,766737	274,222724	271,857851	0
14.01.2021	21:20:52	0	0	4,519195	4,6245	87,462	0,351	78,317	3,5	1006,32	7	9	8,8	1	1	1	1	1	1	1	1	1	0	1	-46,511628	274,294949	274,450876	0
14.01.2021	21:20:53	0	0	4,519195	4,57425	83,3616	0,349	78,291	3,5	1006,38	7	9	8,8	1	1	1	1	1	1	1	1	1	0	1	-48,696265	274,236246	271,991566	0
14.01.2021	21:20:54	0	0	2,372578	4,1685	89,3412	0,355	78,274	3,5	1006,22	7	9	8,8	1	1	1	1	1	1	1	1	1	0	1	-49,612403	274,258803	271,180951	0
14.01.2021	21:20:55	0	0	4,180256	4,19325	70,6032	0,354	78,251	3,5	1006,38	7	9	8,8	1	1	1	1	1	1	1	1	1	0	1	-50,528541	274,349295	270,688409	0
14.01.2021	21:20:56	0	0	3,276417	4,455	86,9904	0,344	78,246	3,5	1006,28	7	9	8,8	1	1	1	1	1	1	1	1	1	0	1	-45,947851	274,221223	274,669714	0
14.01.2021	21:20:57	0	0	4,745155	4,52925	82,3356	0,355	78,249	3,5	1006,14	7	9	8,8	1	1	1	1	1	1	1	1	1	0	1	-58,210007	274,255794	262,569269	0
14.01.2021	21:20:58	0	0	3,954296	4,479	87,372	0,35	78,254	3,5	1006,22	6,8	9	8,8	1	1	1	1	1	1	1	1	1	0	1	-46,5821	274,23324	274,091672	0
14.01.2021	21:20:59	0	0	4,971115	4,99725	87,4224	0,346	78,24	3,5	1006,24	7	9	8,8	1	1	1	1	1	1	1	1	1	0	1	-50,458069	274,291934	270,490324	0
14.01.2021	21:21:00	0	0	2,372578	5,3775	65,8044	0,354	78,241	3,5	1006,2	7	9	8,8	1	1	1	1	1	1	1	1	1	0	1	-46,793517	274,332673	274,345594	0
14.01.2021	21:21:01	0	0	2,372578	5,3775	65,8044	0,354	78,241	3,5	1006,2	7	9	8,8	1	1	1	1	1	1	1	1	1	0	1	-46,793517	274,332673	274,345594	0
14.01.2021	21:21:02	0	0	3,502376	5,763	85,5252	0,348	78,227	3,5	1006,34	7	9	8,8	1	1	1	1	1	1	1	1	1	0	1	-52,219873	274,397732	269,223981	0
14.01.2021	21:21:03	0	0	4,632175	5,6895	82,4256	0,353	78,219	3,5	1006,22	6,8	9	8,8	1	1	1	1	1	1	1	1	1	0	1	-51,092319	274,273855	269,771468	0
14.01.2021	21:21:04	0	0	3,050457	5,60025	86,2884	0,354	78,214	3,5	1006,28	6,8	9	8,8	1	1	1	1	1	1	1	1	1	0	1	-47,850599	274,406827	273,635877	0
14.01.2021	21:21:05	0	0	2,937477	5,39475	89,7228	0,354	78,199	3,5	1006,32	6,8	9	8,8	1	1	1	1	1	1	1	1	1	0	1	-49,048626	274,252785	271,716574	0
14.01.2021	21:21:06	0	0	4,067276	5,10075	95,1156	0,351	78,192	3,5	1006,36	7	9	8,8	1	1	1	1	1	1	1	1	1	0	1	-50,951374	274,347783	270,258496	0
14.01.2021	21:21:07	0	0	4,632175	5,16225	88,56	0,349	78,163	3,5	1006,28	6,8	9	8,8	1	1	1	1	1	1	1	1	1	0	1	-48,484848	274,236246	272,202982	0
14.01.2021	21:21:08	0	0	3,954296	4,85475	94,1112	0,347	78,17	3,5	1006,28	7	9	8,8	1	1	1	1	1	1	1	1	1	0	1	-52,995067	274,308521	268,030967	0
14.01.2021	21:21:09	0	0	2,937477	4,851	96,5916	0,353	78,181	3,5	1006,26	6,8	9	8,8	1	1	1	1	1	1	1	1	1	0	1	-51,092319	274,230235	269,567398	0
14.01.2021	21:21:10	0	0	4,293236	4,491	96,966	0,345	78,181	3,5	1006,24	7	9	8,8	1	1	1	1	1	1	1	1	1	0	1	-52,219873	274,370471	269,096263	0
14.01.2021	21:21:11	0	0	4,632175	4,23525	83,7396	0,351	78,167	3,5	1006,24	6,8	9	8,8	1	1	1	1	1	1	1	1	1	0	1	-48,273432	274,284399	272,639697	0
14.01.2021	21:21:12	0	0	3,728336	4,0485	78,6672	0,354	78,179	3,5	1006,3	7	9	8,8	1	1	1	1	1	1	1	1	1	0	1	-50,81043	274,394701	270,619223	0
14.01.2021	21:21:13	0	0	3,163437	4,104	81,5868	0,353	78,195	3,5	1006,18	7	9	8,8	1	1	1	1	1	1	1	1	1	0	1	-47,21635	274,254289	273,555888	0
14.01.2021	21:21:14	0	0	4,067276	4,11675	93,3588	0,346	78,194	3,5	1006,4	6,8	9	8,8	1	1	1	1	1	1	1	1	1	0	1	-50,17618	274,228733	270,476509	0
14.01.2021	21:21:15	0	0	3,050457	3,94875	92,9376	0,352	78,187	3,5	1006,26	6,8	9	8,8	1	1	1	1	1	1	1	1	1	0	1	-44,045102	274,275361	276,825731	0
14.01.2021	21:21:16	0	0	3,163437	3,717	96,5808	0,348	78,196	3,5	1006,32	6,8	9	8,8	1	1	1	1	1	1	1	1	1	0	1	-47,709655	274,243762	273,013334	0
14.01.2021	21:21:17	0	0	3,163437	3,612	108,468	0,353	78,191	3,5	1006,3	6,8	9	8,8	1	1	1	1	1	1	1	1	1	0	1	-52,290345	274,216718	268,306152	0
14.01.2021	21:21:18	0	0	3,502376	3,522	93,33	0,351	78,182	3,5	1006,3	6,8	9	8,8	1	1	1	1	1	1	1	1	1	0	1	-45,454545	274,317575	275,613872	0
14.01.2021	21:21:19	0	0	2,937477	3,60525	101,4876	0,351	78,181	3,5	1006,2	6,8	9	8,8	1	1	1	1	1	1	1	1	1	0	1	-47,004933	274,391671	274,410521	0
14.01.2021	21:21:20	0	0	3,389397	3,48075	91,2384	0,344	78,173	3,5	1006,22	7	9	8,8	1	1	1	1	1	1	1	1	1	0	1	-44,326991	274,243762	276,395998	0
14.01.2021	21:21:21	0	0	3,163437	3,63	85,9212	0,35	78,186	3,5	1006,32	7	9	8,8	1	1	1	1	1	1	1	1	1	0	1	-46,511628	274,35988	274,754898	0
14.01.2021	21:21:22	0	0	2,824497	3,90975	80,8776	0,355	78,173	3,5	1006,16	6,8	9	8,8	1	1	1	1	1	1	1	1	1	0	1	-44,96124	274,234743	275,719561	0
14.01.2021	21:21:23	0	0	3,050457	4,341	85,5288	0,352	78,156	3,5	1006,18	7	9	8,8	1	1	1	1	1	1	1	1	1	0	1	-50,81043	274,347783	270,39944	0
14.01.2021	21:21:24	0	0	5,197075	4,7565	83,3508	0,351	78,167	3,5	1006,36	6,8	9	8,8	1	1	1	1	1	1	1	1	1	0	1	-45,59549	274,400763	275,862569	0
14.01.2021	21:21:25	0	0	2,485558	4,725	80,154	0,35	78,169	3,5	1006,34	6,8	9	8,8	1	1	1	1	1	1	1	1	1	0	1	-46,723044	274,249777	274,028083	0
14.01.2021	21:21:26	0	0	3,615356	4,515	81,972	0,343	78,158	3,5	1006,2	6,8	9	8,8	1	1	1	1	1	1	1	1	1	0	1	-47,498238	274,269338	273,344412	0
14.01.2021	21:21:27	0	0	3,163437	4,10325	69,4584	0,349	78,194	3,5	1006,34	7	9	8,8	1	1	1	1	1	1	1	1	1	0	1	-45,243129	274,240755	275,465794	0
14.01.2021	21:21:28	0	0	3,276417	3,86025	92,6424	0,345	78,198	3,5	1006,2	6,8	9	8,8	1	1	1	1	1	1	1	1	1	0	1	-48,132488	274,370471	273,183648	0
14.01.2021	21:21:29	0	0	3,050457	3,771	77,1948	0,35	78,209	3,5	1006,38	7	9	8,8	1	1	1	1	1	1	1	1	1	0	1	-48,484848	274,237749	272,210012	0
14.01.2021	21:21:30	0	0	4,293236	3,426	92,2788	0,341	78,208	3,5	1006,1	7	9	8,8	1	1	1	1	1	1	1	1	1	0	1	-48,625793	274,341738	272,555765	0
14.01.2021	21:21:31	0	0	3,389397	3,345	89,6796	0,345	78,205	3,5	1006,34	7	9	8,8	1	1	1	1	1	1	1	1	1	0	1	-50,035236	274,27235	270,821504	0
14.01.2021	21:21:32	0	0	3,502376	3,40725	94,392	0,348	78,208	3,5	1006,3	6,8	9	8,8	1	1	1	1	1	1	1	1	1	0	1	-46,652572	274,27988	274,239406	0
14.01.2021	21:21:33	0	0	4,632175	3,37275	89,7156	0,348	78,221	3,5	1006,24	6,8	9	8,8	1	1	1	1	1	1	1	1	1	0	1	-50,035236	274,399247	271,41572	0
14.01.2021	21:21:34	0	0	4,519195	3,56925	79,3908	0,34	78,216	3,5	1006,16	7	9	8,8	1	1	1	1	1	1	1	1	1	0	1	-47,850599	274,350807	273,373431	0
14.01.2021	21:21:35	0	0	2,146618	3,408	111,438	0,348	78,222	3,5	1006,18	7	9	8,8	1	1	1	1	1	1	1	1	1	0	1	-47,709655	274,269338	273,132995	0
14.01.2021	21:21:36	0	0	4,293236	3,069	76,3632	0,35	78,216	3,5	1006,22	6,8	9	8,8	1	1	1	1	1	1	1	1	1	0	1	-48,907681	274,368958	272,401365	0
14.01.2021	21:21:37	0	0	2,598537	2,95125	106,2936	0,348	78,231	3,5	1006,32	6,8	9	8,8	1	1	1	1	1	1	1	1	1	0	1	-46,441156	274,37804	274,910435	0
14.01.2021	21:21:38	0	0	4,858135	3,00225	88,5564	0,343	78,215	3,5	1006,18	7	9	8,8	1	1	1	1	1	1	1	1	1	0	1	-47,639183	274,403795	273,833084	0
14.01.2021	21:21:39	0	0	2,146618	3,25725	109,6236	0,343	78,222	3,5	1006,24	7	9	8,8	1	1	1	1	1	1	1	1	1	0	1	-47,498238	274,34476	273,697475	0
14.01.2021	21:21:40	0	0	3,615356	3,531	94,7592	0,345	78,222	3,5	1006,24	6,8	9	8,8	1	1	1	1	1	1	1	1	1	0	1	-50,105708	274,224226	270,525904	0
14.01.2021	21:21:41	0	0	3,163437	3,71325	90,3996	0,348	78,236	3,5	1006,4	6,8	9	8,8	1	1	1	1	1	1	1	1	1	0	1	-45,59549	274,269338	275,24716	0
14.01.2021	21:21:42	0	0	3,050457	3,74025	80,8668	0,348	78,244	3,5	1006,26	6,8	9	8,8	1	1	1	1	1	1	1	1	1	0	1	-48,555321	274,264822	272,266199	0
14.01.2021	21:21:43	0	0	4,745155	3,48225	58,1004	0,344	78,24	3,5	1006,22	6,8	9	8,8	1	1	1	1	1	1	1	1	1	0	1	-46,370684	274,270844	274,479011	0
14.01.2021	21:21:44	0	0	2,824497	3,64125	59,8536	0,347	78,243	3,5	1006,18	6,8	9	8,8	1	1	1	1	1	1	1	1	1	0	1	-49,400987	274,37804	271,950605	0
14.01.2021	21:21:45	0	0	4,406216	3,9975	73,7856	0,349	78,23	3,5	1006,28	6,8	9	8,8	1	1	1	1	1	1	1	1	1	0	1	-46,088795	274,382582	275,284078	0
14.01.2021	21:21:46	0	0	4,632175	4,06125	72,0036	0,353	78,24	3,5	1006,36	6,8	9	8,8	1	1	1	1	1	1	1	1	1	0	1	-48,132488	274,282893	272,77359	0
14.01.2021	21:21:47	0	0	4,067276	3,894	66,5244	0,348	78,228	3,5	1006,14	6,8	9	8,8	1	1	1	1	1	1	1	1	1	0	1	-47,709655	274,40986	273,791034	0
14.01.2021	21:21:48	0	0	2,824497	3,63675	58,1184	0,346	78,232	3,5	1006,38	6,8	9	8,8	1	1	1	1	1	1	1	1	1	0	1	-47,075405	274,337205	274,084926	0
14.01.2021	21:21:49	0	0	3,502376	3,7965	75,2364	0,349	78,229	3,5	1006,22	7	9	8,8	1	1	1	1	1	1	1	1	1	0	1	-50,105708	274,403795	271,366558	0
14.01.2021	21:21:50	0	0	4,067276	4,00575	71,3196	0,352	78,23	3,5	1006,2	7	9	8,8	1	1	1	1	1	1	1	1	1	0	1	-44,467935	274,353831	276,770258	0
14.01.2021	21:21:51	0	0	2,598537	3,9285	73,062	0,35	78,226	3,5	1006,36	6,8	9	8,8	1	1	1	1	1	1	1	1	1	0	1	-47,357294	274,388641	274,043963	0
14.01.2021	21:21:52	0	0	3,163437	3,7455	79,0308	0,348	78,233	3,5	1006,34	6,8	9	8,8	1	1	1	1	1	1	1	1	1	0	1	-50,951374	274,225728	269,687263	0
14.01.2021	21:21:53	0	0	2,937477	3,52125	74,5452	0,346	78,241	3,5	1006,24	6,8	9	8,8	1	1	1	1	1	1	1	1	1	0	1	-45,806906	274,331163	275,325132	0
14.01.2021	21:21:54	0	0	4,406216	3,6195	70,236	0,351	78,25	3,5	1006,26	6,8	9	8,8	1	1	1	1	1	1	1	1	1	0	1	-56,800564	274,41441	264,721449	0
14.01.2021	21:21:55	0	0	2,598537	3,768	62,7948	0,35	78,254	3,5	1006,22	7	9	8,8	1	1	1	1	1	1	1	1	1	0	1	-50,528541	274,343249	270,660094	0
14.01.2021	21:21:56	0	0	2,824497	3,675	70,6104	0,35	78,258	3,5	1006,22	7	9	8,8	1	1	1	1	1	1	1	1	1	0	1	-46,652572	274,224226	273,97904	0
14.01.2021	21:21:57	0	0	4,745155	3,53925	68,796	0,349	78,267	3,5	1006,34	6,8	9	8,8	1	1	1	1	1	1	1	1	1	0	1	-48,273432	274,313047	272,773791	0
14.01.2021	21:21:58	0	0	2,598537	3,363	67,2984	0,352	78,255	3,5	1006,36	6,8	9	8,8	1	1	1	1	1	1	1	1	1	0	1	-44,820296	274,224226	275,811316	0
14.01.2021	21:21:59	0	0	4,519195	3,22425	62,0208	0,347	78,257	3,5	1006,28	6,8	9	8,8	1	1	1	1	1	1	1	1	1	0	1	-46,088795	274,246769	274,648261	0
14.01.2021	21:22:00	0	0	3,502376	2,74125	86,274	0,353	78,272	3,5	1006,3	6,8	9	8,8	1	1	1	1	1	1	1	1	1	0	1	-43,904158	274,251281	276,854005	0
14.01.2021	21:22:01	0	0	3,502376	2,74125	86,274	0,353	78,272	3,5	1006,3	6,8	9	8,8	1	1	1	1	1	1	1	1	1	0	1	-43,904158	274,251281	276,854005	0
14.01.2021	21:22:02	0	0	3,841316	2,5935	93,348	0,35	78,265	3,5	1006,28	6,8	9	8,8	1	1	1	1	1	1	1	1	1	0	1	-46,300211	274,364419	274,987572	0
14.01.2021	21:22:03	0	0	2,937477	2,58075	93,3408	0,35	78,263	3,5	1006,32	7	9	8,8	1	1	1	1	1	1	1	1	1	0	1	-48,343904	274,246769	272,393152	0
14.01.2021	21:22:04	0	0	2,372578	2,71125	83,7432	0,349	78,257	3,5	1006,22	6,8	9	8,8	1	1	1	1	1	1	1	1	1	0	1	-48,132488	274,347783	273,077382	0
14.01.2021	21:22:05	0	0	2,598537	3,02925	91,8936	0,35	78,237	3,5	1006,32	6,8	9	8,8	1	1	1	1	1	1	1	1	1	0	1	-48,907681	274,400763	272,550377	0
14.01.2021	21:22:06	0	0	4,293236	3,21975	71,6256	0,351	78,242	3,5	1006,28	6,8	9	8,8	1	1	1	1	1	1	1	1	1	0	1	-45,172657	274,335694	275,9806	0
14.01.2021	21:22:07	0	0	2,485558	3,3375	72,684	0,348	78,226	3,5	1006,16	6,8	9	8,8	1	1	1	1	1	1	1	1	1	0	1	-47,286822	274,242259	273,429134	0
14.01.2021	21:22:08	0	0	3,615356	3,17625	80,6076	0,349	78,235	3,5	1006,2	6,8	9	8,8	1	1	1	1	1	1	1	1	1	0	1	-44,820296	274,261812	275,98714	0
14.01.2021	21:22:09	0	0	4,519195	3,1065	69,8436	0,339	78,232	3,5	1006,26	6,8	8,9	8,8	1	1	1	1	1	1	1	1	1	0	1	-45,806906	274,391671	275,608547	0
14.01.2021	21:22:10	0	0	5,536014	3,411	76,3416	0,342	78,216	3,5	1006,38	6,8	9	8,8	1	1	1	1	1	1	1	1	1	0	1	-51,162791	274,291934	269,785603	0
14.01.2021	21:22:11	0	0	2,824497	3,73275	78,2712	0,342	78,227	3,5	1006,26	6,8	8,9	8,8	1	1	1	1	1	1	1	1	1	0	1	-49,964764	274,243762	270,758225	0
14.01.2021	21:22:12	0	0	2,824497	3,91875	89,712	0,347	78,238	3,5	1006,26	6,8	9	8,8	1	1	1	1	1	1	1	1	1	0	1	-48,343904	274,281386	272,555124	0
14.01.2021	21:22:13	0	0	2,937477	3,81825	91,8864	0,34	78,217	3,5	1006,24	6,8	9	8,8	1	1	1	1	1	1	1	1	1	0	1	-46,5821	274,394701	274,847553	0
14.01.2021	21:22:14	0	0	3,276417	3,75225	93,7152	0,346	78,225	3,5	1006,38	6,8	9	8,8	1	1	1	1	1	1	1	1	1	0	1	-47,498238	274,335694	273,655019	0
14.01.2021	21:22:15	0	0	4,632175	3,66	81,2304	0,344	78,223	3,5	1006,22	6,8	9	8,8	1	1	1	1	1	1	1	1	1	0	1	-49,260042	274,400763	272,198017	0
14.01.2021	21:22:16	0	0	2,824497	3,5205	77,2164	0,344	78,199	3,5	1006,42	6,8	9	8,8	1	1	1	1	1	1	1	1	1	0	1	-45,384073	274,273855	275,479713	0
14.01.2021	21:22:17	0	0	4,858135	3,38925	89,3376	0,347	78,185	3,5	1006,28	6,8	9	8,8	1	1	1	1	1	1	1	1	1	0	1	-45,313601	274,393186	276,108952	0
14.01.2021	21:22:18	0	0	4,067276	3,19125	70,2144	0,345	78,196	3,5	1006,1	6,8	9	8,8	1	1	1	1	1	1	1	1	1	0	1	-48,273432	274,347783	272,936438	0
14.01.2021	21:22:19	0	0	2,824497	3,1455	62,7804	0,349	78,192	3,5	1006,34	6,8	9	8,8	1	1	1	1	1	1	1	1	1	0	1	-47,075405	274,225728	273,563232	0
14.01.2021	21:22:20	0	0	3,502376	3,105	66,9024	0,345	78,164	3,5	1006,24	6,8	9	8,8	1	1	1	1	1	1	1	1	1	0	1	-48,696265	274,225728	271,942372	0
14.01.2021	21:22:21	0	0	3,163437	3,072	73,4328	0,348	78,173	3,5	1006,22	6,8	8,9	8,8	1	1	1	1	1	1	1	1	1	0	1	-48,484848	274,251281	272,273315	0
14.01.2021	21:22:22	0	0	2,485558	3,045	78,2964	0,347	78,182	3,5	1006,38	6,8	9	8,8	1	1	1	1	1	1	1	1	1	0	1	-45,877378	274,19871	274,63491	0
14.01.2021	21:22:23	0	0	2,824497	3,0945	78,6744	0,35	78,173	3,5	1006,3	6,8	9	8,8	1	1	1	1	1	1	1	1	1	0	1	-46,370684	274,328142	274,747212	0
14.01.2021	21:22:24	0	0	2,598537	3,55275	79,7328	0,349	78,171	3,5	1006,22	6,8	9	8,8	1	1	1	1	1	1	1	1	1	0	1	-51,162791	274,254289	269,609447	0
14.01.2021	21:22:25	0	0	4,519195	4,278	80,4996	0,348	78,154	3,5	1006,28	6,8	8,9	8,8	1	1	1	1	1	1	1	1	1	0	1	-49,330514	274,245266	271,399508	0
14.01.2021	21:22:26	0	0	3,276417	5,03475	63,486	0,346	78,159	3,5	1006,4	6,8	9	8,8	1	1	1	1	1	1	1	1	1	0	1	-50,599013	274,402279	270,866149	0
14.01.2021	21:22:27	0	0	4,632175	5,7	74,9232	0,344	78,147	3,5	1006,26	6,8	9	8,8	1	1	1	1	1	1	1	1	1	0	1	-46,511628	274,287413	274,415605	0
14.01.2021	21:22:28	0	0	4,180256	5,733	63,4932	0,345	78,151	3,5	1006,28	6,8	9	8,8	1	1	1	1	1	1	1	1	1	0	1	-46,018323	274,370471	275,297813	0
14.01.2021	21:22:29	0	0	2,937477	5,69625	85,8924	0,343	78,15	3,5	1006,24	6,8	9	8,8	1	1	1	1	1	1	1	1	1	0	1	-48,414376	274,263317	272,400101	0
14.01.2021	21:22:30	0	0	4,067276	5,84625	78,6564	0,347	78,152	3,5	1006,1	6,8	8,9	8,8	1	1	1	1	1	1	1	1	1	0	1	-51,656096	274,381068	269,709682	0
14.01.2021	21:22:31	0	0	3,728336	6,0795	71,9928	0,345	78,141	3,5	1006,14	6,8	9	8,8	1	1	1	1	1	1	1	1	1	0	1	-48,132488	274,311538	272,907672	0
14.01.2021	21:22:32	0	0	2,711517	5,9115	74,9196	0,347	78,151	3,5	1006,38	6,8	9	8,8	1	1	1	1	1	1	1	1	1	0	1	-44,256519	274,20321	276,276813	0
14.01.2021	21:22:33	0	0	2,824497	5,29875	74,52	0,34	78,153	3,5	1006,06	6,8	9	8,8	1	1	1	1	1	1	1	1	1	0	1	-45,031712	274,234743	275,649088	0
14.01.2021	21:22:34	0	0	4,632175	5,20725	88,5816	0,34	78,163	3,5	1006,22	6,8	8,9	8,8	1	1	1	1	1	1	1	1	1	0	1	-44,679352	274,308521	276,346682	0
14.01.2021	21:22:35	0	0	4,858135	5,26575	77,2776	0,342	78,194	3,5	1006,32	6,8	9	8,8	1	1	1	1	1	1	1	1	1	0	1	-49,612403	274,20171	270,913914	0
14.01.2021	21:22:36	0	0	4,858135	5,18175	69,4584	0,345	78,2	3,5	1006,38	6,8	9	8,8	1	1	1	1	1	1	1	1	1	0	1	-49,82382	274,30098	271,166913	0
14.01.2021	21:22:37	0	0	4,519195	4,707	73,4004	0,34	78,196	3,5	1006,26	6,8	8,9	8,8	1	1	1	1	1	1	1	1	1	0	1	-46,018323	274,385611	275,368741	0
14.01.2021	21:22:38	0	0	3,276417	4,27575	65,8368	0,338	78,218	3,5	1006,28	6,8	8,9	8,8	1	1	1	1	1	1	1	1	1	0	1	-45,313601	274,245266	275,416421	0
14.01.2021	21:22:39	0	0	3,502376	3,71325	66,906	0,345	78,227	3,5	1006,24	6,8	8,9	8,8	1	1	1	1	1	1	1	1	1	0	1	-42,847075	274,385611	278,539988	0
14.01.2021	21:22:40	0	0	4,858135	2,988	70,8372	0,344	78,23	3,5	1006,24	6,8	9	8,8	1	1	1	1	1	1	1	1	1	0	1	-49,541931	274,364419	271,745852	0
14.01.2021	21:22:41	0	0	4,632175	2,57925	71,5896	0,341	78,227	3,5	1006,3	6,8	8,9	8,8	1	1	1	1	1	1	1	1	1	0	1	-45,525018	274,209212	275,036381	0
14.01.2021	21:22:42	0	0	4,406216	2,3745	85,9176	0,339	78,227	3,5	1006,3	6,8	9	8,8	1	1	1	1	1	1	1	1	1	0	1	-45,172657	274,388641	276,2286	0
14.01.2021	21:22:43	0	0	4,519195	2,28075	92,2716	0,343	78,213	3,5	1006,32	6,8	8,9	8,8	1	1	1	1	1	1	1	1	1	0	1	-49,82382	274,276867	271,054062	0
14.01.2021	21:22:44	0	0	2,485558	2,5845	111,42	0,34	78,205	3,5	1006,32	6,8	9	8,8	1	1	1	1	1	1	1	1	1	0	1	-49,119098	274,379554	272,239586	0
14.01.2021	21:22:45	0	0	2,598537	3,17475	109,5732	0,342	78,215	3,5	1006,28	6,8	9	8,8	1	1	1	1	1	1	1	1	1	0	1	-45,877378	274,303996	275,127473	0
14.01.2021	21:22:46	0	0	3,276417	3,624	106,7724	0,341	78,211	3,5	1006,36	6,8	8,9	8,8	1	1	1	1	1	1	1	1	1	0	1	-48,20296	274,219721	272,407581	0
14.01.2021	21:22:47	0	0	4,406216	3,79725	101,4984	0,337	78,19	3,5	1006,32	6,8	9	8,8	1	1	1	1	1	1	1	1	1	0	1	-49,119098	274,328142	271,998798	0
14.01.2021	21:22:48	0	0	3,954296	4,356	115,2	0,337	78,194	3,5	1006,24	6,9	8,9	8,8	1	1	1	1	1	1	1	1	1	0	1	-44,749824	274,20321	275,783508	0
14.01.2021	21:22:49	0	0	3,050457	4,8255	77,5872	0,341	78,174	3,5	1006,3	6,8	8,9	8,8	1	1	1	1	1	1	1	1	1	0	1	-49,18957	274,236246	271,49826	0
14.01.2021	21:22:50	0	0	4,067276	5,358	95,814	0,337	78,192	3,5	1006,24	6,8	9	8,8	1	1	1	1	1	1	1	1	1	0	1	-48,343904	274,212214	272,231532	0
14.01.2021	21:22:51	0	0	3,502376	5,47425	94,3992	0,346	78,171	3,5	1006,34	6,8	9	8,8	1	1	1	1	1	1	1	1	1	0	1	-45,947851	274,225728	274,690787	0
14.01.2021	21:22:52	0	0	3,502376	5,385	90,018	0,336	78,167	3,5	1006,28	6,8	9	8,8	1	1	1	1	1	1	1	1	1	0	1	-47,498238	274,362906	273,782459	0
14.01.2021	21:22:53	0	0	3,841316	5,217	79,0488	0,337	78,175	3,5	1006,24	6,9	9	8,8	1	1	1	1	1	1	1	1	1	0	1	-44,397463	274,242259	276,318493	0
14.01.2021	21:22:54	0	0	4,519195	4,704	89,3448	0,334	78,194	3,5	1006,36	6,8	9	8,8	1	1	1	1	1	1	1	1	1	0	1	-47,921071	274,347783	273,288799	0
14.01.2021	21:22:55	0	0	4,519195	4,5495	82,5912	0,336	78,199	3,5	1006,32	6,8	9	8,8	1	1	1	1	1	1	1	1	1	0	1	-48,978154	274,402279	272,487009	0
14.01.2021	21:22:56	0	0	3,954296	4,42725	60,9336	0,339	78,234	3,5	1006,28	6,8	9	8,8	1	1	1	1	1	1	1	1	1	0	1	-43,763214	274,302488	277,234578	0
14.01.2021	21:22:57	0	0	2,033638	4,1265	77,2452	0,343	78,235	3,5	1006,28	6,9	8,9	8,8	1	1	1	1	1	1	1	1	1	0	1	-44,538407	274,204711	276,00194	0
14.01.2021	21:22:58	0	0	4,858135	3,99825	69,4548	0,34	78,254	3,5	1006,34	6,8	9	8,8	1	1	1	1	1	1	1	1	1	0	1	-49,753347	274,337205	271,406984	0
14.01.2021	21:22:59	0	0	3,615356	4,2225	71,6256	0,339	78,257	3,5	1006,24	6,8	8,9	8,8	1	1	1	1	1	1	1	1	1	0	1	-47,498238	274,376526	273,846261	0
14.01.2021	21:23:00	0	0	3,389397	4,31625	73,7784	0,339	78,258	3,5	1006,2	6,8	8,9	8,8	1	1	1	1	1	1	1	1	1	0	1	-50,880902	274,376526	270,463597	0
14.01.2021	21:23:01	0	0	3,389397	4,31625	73,7784	0,339	78,258	3,5	1006,2	6,8	8,9	8,8	1	1	1	1	1	1	1	1	1	0	1	-50,880902	274,376526	270,463597	0
14.01.2021	21:23:02	0	0	3,502398	4,92375	79,4052	0,339	78,275	3,5	1006,3	6,8	9	8,7	1	1	1	1	1	1	1	1	1	0	1	-46,5821	274,263317	274,232377	0
14.01.2021	21:23:03	0	0	2,711517	5,11575	74,5416	0,343	78,276	3,5	1006,26	6,8	8,9	8,8	1	1	1	1	1	1	1	1	1	0	1	-45,525018	274,222724	275,09957	0
14.01.2021	21:23:04	0	0	3,502376	5,1225	88,9524	0,337	78,262	3,5	1006,32	6,8	8,9	8,8	1	1	1	1	1	1	1	1	1	0	1	-44,397463	274,353831	276,84073	0
14.01.2021	21:23:05	0	0	3,389397	5,1495	86,6772	0,342	78,251	3,5	1006,3	6,8	8,9	8,8	1	1	1	1	1	1	1	1	1	0	1	-50,17618	274,365932	271,11869	0
14.01.2021	21:23:06	0	0	3,841316	4,99575	91,1592	0,336	78,241	3,5	1006,28	6,8	8,9	8,8	1	1	1	1	1	1	1	1	1	0	1	-51,233263	274,350807	269,990767	0
14.01.2021	21:23:07	0	0	3,276436	4,91475	86,2632	0,34	78,225	3,5	1006,34	6,8	8,9	8,7	1	1	1	1	1	1	1	1	1	0	1	-47,639183	274,313047	273,40804	0
14.01.2021	21:23:08	0	0	4,406216	4,70475	87,7428	0,336	78,241	3,5	1006,2	6,9	8,9	8,8	1	1	1	1	1	1	1	1	1	0	1	-48,837209	274,382582	272,535663	0
14.01.2021	21:23:09	0	0	4,971115	4,62075	93,3228	0,336	78,218	3,5	1006,26	6,9	9	8,8	1	1	1	1	1	1	1	1	1	0	1	-45,243129	274,316065	275,818223	0
14.01.2021	21:23:10	0	0	4,519195	5,0475	80,8956	0,345	78,216	3,5	1006,42	6,9	9	8,8	1	1	1	1	1	1	1	1	1	0	1	-48,555321	274,367445	272,746638	0
14.01.2021	21:23:11	0	0	4,067276	5,23275	90,378	0,336	78,215	3,5	1006,4	6,8	9	8,8	1	1	1	1	1	1	1	1	1	0	1	-47,427766	274,257298	273,358549	0
14.01.2021	21:23:12	0	0	4,067276	4,96575	98,0892	0,336	78,222	3,5	1006,4	6,8	8,9	8,8	1	1	1	1	1	1	1	1	1	0	1	-44,538407	274,242259	276,177548	0
14.01.2021	21:23:13	0	0	3,841316	4,9395	90,7992	0,34	78,224	3,5	1006,4	6,9	8,9	8,8	1	1	1	1	1	1	1	1	1	0	1	-48,696265	274,379554	272,662419	0
14.01.2021	21:23:14	0	0	3,389397	4,96275	90,7704	0,336	78,217	3,5	1006,28	6,8	8,9	8,8	1	1	1	1	1	1	1	1	1	0	1	-48,484848	274,28892	272,449437	0
14.01.2021	21:23:15	0	0	3,841316	5,05125	95,526	0,338	78,219	3,5	1006,36	6,8	8,9	8,8	1	1	1	1	1	1	1	1	1	0	1	-48,20296	274,387126	273,1912	0
14.01.2021	21:23:16	0	0	4,180256	4,88025	92,9664	0,332	78,205	3,5	1006,32	6,9	8,9	8,8	1	1	1	1	1	1	1	1	1	0	1	-49,119098	274,285906	271,801083	0
14.01.2021	21:23:17	0	0	2,824497	4,79925	75,2508	0,335	78,215	3,5	1006,18	6,9	8,9	8,8	1	1	1	1	1	1	1	1	1	0	1	-47,004933	274,353831	274,23326	0
14.01.2021	21:23:18	0	0	4,745155	5,007	89,7156	0,336	78,198	3,5	1006,24	6,9	8,9	8,8	1	1	1	1	1	1	1	1	1	0	1	-45,736434	274,332673	275,402676	0
14.01.2021	21:23:19	0	0	3,502398	5,0445	91,998	0,339	78,2	3,5	1006,22	6,8	8,9	8,7	1	1	1	1	1	1	1	1	1	0	1	-45,877378	274,349295	275,339571	0
14.01.2021	21:23:20	0	0	3,615356	5,052	90,036	0,336	78,208	3,5	1006,32	6,8	8,9	8,8	1	1	1	1	1	1	1	1	1	0	1	-49,048626	274,396216	272,388127	0
14.01.2021	21:23:21	0	0	4,180281	5,2485	88,9848	0,332	78,199	3,5	1006,1	6,8	8,9	8,7	1	1	1	1	1	1	1	1	1	0	1	-51,162791	274,234743	269,51801	0
14.01.2021	21:23:22	0	0	4,180256	5,04525	92,2644	0,336	78,222	3,5	1006,34	6,8	8,9	8,8	1	1	1	1	1	1	1	1	1	0	1	-47,991543	274,375012	273,345864	0
14.01.2021	21:23:23	0	0	3,163437	5,10525	90,0072	0,332	78,223	3,5	1006,34	6,9	8,9	8,8	1	1	1	1	1	1	1	1	1	0	1	-48,484848	274,323613	272,611838	0
14.01.2021	21:23:24	0	0	2,824497	5,16375	87,7212	0,337	78,234	3,5	1006,36	6,9	9	8,8	1	1	1	1	1	1	1	1	1	0	1	-45,031712	274,20021	275,48759	0
14.01.2021	21:23:25	0	0	5,197106	5,16225	90,7668	0,332	78,219	3,5	1006,22	6,8	8,9	8,7	1	1	1	1	1	1	1	1	1	0	1	-44,256519	274,270844	276,593176	0
14.01.2021	21:23:26	0	0	4,858135	5,02725	85,6116	0,336	78,243	3,5	1006,34	6,9	8,9	8,8	1	1	1	1	1	1	1	1	1	0	1	-51,79704	274,376526	269,547459	0
14.01.2021	21:23:27	0	0	3,728336	4,67775	81,9612	0,333	78,245	3,5	1006,2	6,9	8,9	8,8	1	1	1	1	1	1	1	1	1	0	1	-49,119098	274,243762	271,603891	0
14.01.2021	21:23:28	0	0	2,937495	4,251	79,0128	0,338	78,264	3,5	1006,28	6,9	9	8,7	1	1	1	1	1	1	1	1	1	0	1	-47,427766	274,364419	273,860017	0
14.01.2021	21:23:29	0	0	3,841339	4,3305	76,3524	0,335	78,289	3,5	1006,32	6,8	8,9	8,7	1	1	1	1	1	1	1	1	1	0	1	-48,696265	274,382582	272,676608	0
14.01.2021	21:23:30	0	0	3,728336	4,3095	79,398	0,336	78,298	3,5	1006,48	6,8	8,9	8,8	1	1	1	1	1	1	1	1	1	0	1	-40,098661	274,257298	280,687654	0
14.01.2021	21:23:31	0	0	3,502398	4,38825	85,5288	0,33	78,315	3,5	1006,36	6,8	8,9	8,7	1	1	1	1	1	1	1	1	1	0	1	-49,541931	274,382582	271,830942	0
14.01.2021	21:23:32	0	0	2,937477	4,209	85,1652	0,334	78,318	3,5	1006,2	6,9	8,9	8,8	1	1	1	1	1	1	1	1	1	0	1	-45,947851	274,307013	275,071122	0
14.01.2021	21:23:33	0	0	4,519195	4,00875	88,1316	0,333	78,31	3,5	1006,2	6,9	8,9	8,8	1	1	1	1	1	1	1	1	1	0	1	-47,145877	274,387126	274,248283	0
14.01.2021	21:23:34	0	0	3,389397	3,54675	82,3644	0,34	78,326	3,5	1006,22	6,9	8,9	8,8	1	1	1	1	1	1	1	1	1	0	1	-45,454545	274,243762	275,268443	0
14.01.2021	21:23:35	0	0	3,954296	3,477	74,5416	0,33	78,329	3,5	1006,26	6,9	9	8,8	1	1	1	1	1	1	1	1	1	0	1	-47,004933	274,209212	273,556466	0
14.01.2021	21:23:36	0	0	4,745184	3,5565	81,2052	0,33	78,341	3,5	1006,26	6,8	8,9	8,7	1	1	1	1	1	1	1	1	1	0	1	-46,159267	274,331163	274,972771	0
14.01.2021	21:23:37	0	0	2,485572	3,76725	81,2124	0,332	78,346	3,5	1006,3	6,9	8,9	8,7	1	1	1	1	1	1	1	1	1	0	1	-48,766737	274,270844	272,082958	0
14.01.2021	21:23:38	0	0	5,310055	4,0695	67,6476	0,331	78,359	3,5	1006,16	6,9	8,9	8,8	1	1	1	1	1	1	1	1	1	0	1	-46,934461	274,361393	274,33915	0
14.01.2021	21:23:39	0	0	3,728336	4,2795	65,8368	0,332	78,371	3,5	1006,36	6,9	8,9	8,8	1	1	1	1	1	1	1	1	1	0	1	-47,991543	274,358368	273,267899	0
14.01.2021	21:23:40	0	0	2,937477	4,27425	78,2784	0,334	78,378	3,5	1006,36	6,9	9	8,8	1	1	1	1	1	1	1	1	1	0	1	-46,863989	274,204711	273,676359	0
14.01.2021	21:23:41	0	0	4,745155	4,21425	79,0236	0,333	78,386	3,5	1006,46	6,9	8,9	8,8	1	1	1	1	1	1	1	1	1	0	1	-52,713178	274,334184	268,433005	0
14.01.2021	21:23:42	0	0	2,824497	4,09875	77,2128	0,331	78,386	3,5	1006,38	6,8	8,9	8,8	1	1	1	1	1	1	1	1	1	0	1	-50,458069	274,379554	270,900615	0
14.01.2021	21:23:43	0	0	4,293261	4,029	81,558	0,325	78,389	3,5	1006,28	6,9	8,9	8,7	1	1	1	1	1	1	1	1	1	0	1	-47,921071	274,281386	272,977957	0
14.01.2021	21:23:44	0	0	4,067276	4,224	70,8444	0,335	78,381	3,5	1006,44	6,8	8,9	8,8	1	1	1	1	1	1	1	1	1	0	1	-47,145877	274,390156	274,262478	0
14.01.2021	21:23:45	0	0	5,084095	4,107	68,7888	0,336	78,402	3,5	1006,16	6,8	8,9	8,8	1	1	1	1	1	1	1	1	1	0	1	-43,763214	274,267833	277,072392	0
14.01.2021	21:23:46	0	0	3,841316	4,04175	69,5088	0,333	78,391	3,5	1006,32	6,9	9	8,8	1	1	1	1	1	1	1	1	1	0	1	-48,696265	274,20171	271,830052	0
14.01.2021	21:23:47	0	0	3,163456	4,062	80,8956	0,331	78,391	3,5	1006,26	6,8	8,9	8,7	1	1	1	1	1	1	1	1	1	0	1	-47,56871	274,331163	273,563328	0
14.01.2021	21:23:48	0	0	2,824497	4,0515	91,1736	0,331	78,394	3,5	1006,38	6,8	8,9	8,8	1	1	1	1	1	1	1	1	1	0	1	-47,21635	274,221223	273,401215	0
14.01.2021	21:23:49	0	0	3,502398	4,09725	78,2532	0,336	78,409	3,5	1006,26	6,9	8,9	8,7	1	1	1	1	1	1	1	1	1	0	1	-49,330514	274,322103	271,759104	0
14.01.2021	21:23:50	0	0	4,519223	4,27425	73,4364	0,329	78,412	3,5	1006,22	6,9	8,9	8,7	1	1	1	1	1	1	1	1	1	0	1	-47,145877	274,393186	274,276675	0
14.01.2021	21:23:51	0	0	5,084095	4,587	67,6728	0,333	78,395	3,5	1006,22	6,9	9	8,8	1	1	1	1	1	1	1	1	1	0	1	-47,498238	274,291934	273,450155	0
14.01.2021	21:23:52	0	0	3,841339	4,7745	61,2828	0,334	78,4	3,5	1006,34	6,9	8,9	8,7	1	1	1	1	1	1	1	1	1	0	1	-48,20296	274,212214	272,372476	0
14.01.2021	21:23:53	0	0	3,276436	4,52025	68,0364	0,324	78,41	3,5	1006,28	6,8	8,9	8,7	1	1	1	1	1	1	1	1	1	0	1	-47,004933	274,255794	273,774343	0
14.01.2021	21:23:54	0	0	2,598537	4,13175	77,9904	0,338	78,401	3,5	1006,24	6,9	8,9	8,8	1	1	1	1	1	1	1	1	1	0	1	-47,427766	274,376526	273,916733	0
14.01.2021	21:23:55	0	0	3,841339	3,91125	80,4996	0,331	78,395	3,5	1006,32	6,9	8,9	8,7	1	1	1	1	1	1	1	1	1	0	1	-49,400987	274,346272	271,801805	0
14.01.2021	21:23:56	0	0	4,180256	4,164	81,5976	0,332	78,413	3,5	1006,24	6,9	8,9	8,8	1	1	1	1	1	1	1	1	1	0	1	-44,045102	274,219721	276,565439	0
14.01.2021	21:23:57	0	0	4,406242	4,20225	74,1276	0,334	78,401	3,5	1006,28	6,9	8,9	8,7	1	1	1	1	1	1	1	1	1	0	1	-55,03876	274,338716	266,128647	0
14.01.2021	21:23:58	0	0	4,858164	4,28625	72,0072	0,335	78,391	3,5	1006,34	6,9	9	8,7	1	1	1	1	1	1	1	1	1	0	1	-47,357294	274,365932	273,937577	0
14.01.2021	21:23:59	0	0	2,937477	4,46025	75,978	0,339	78,405	3,5	1006,28	6,9	8,9	8,8	1	1	1	1	1	1	1	1	1	0	1	-45,031712	274,251281	275,726451	0
14.01.2021	21:24:00	0	0	4,067276	4,254	80,1396	0,338	78,404	3,5	1006,36	6,9	8,9	8,8	1	1	1	1	1	1	1	1	1	0	1	-47,639183	274,251281	273,118981	0
14.01.2021	21:24:01	0	0	4,067276	4,254	80,1396	0,338	78,404	3,5	1006,36	6,9	8,9	8,8	1	1	1	1	1	1	1	1	1	0	1	-47,639183	274,251281	273,118981	0
14.01.2021	21:24:02	0	0	3,841316	4,04775	80,8776	0,339	78,4	3,5	1006,36	6,9	9	8,8	1	1	1	1	1	1	1	1	1	0	1	-44,608879	274,257298	276,177435	0
14.01.2021	21:24:03	0	0	2,598553	3,98925	76,3776	0,337	78,403	3,5	1006,38	6,9	8,9	8,7	1	1	1	1	1	1	1	1	1	0	1	-45,877378	274,213715	274,705077	0
14.01.2021	21:24:04	0	0	4,632175	4,128	85,4964	0,337	78,407	3,5	1006,24	6,8	9,1	8,8	1	1	1	1	1	1	1	1	1	0	1	-43,692741	274,275361	277,178092	0
14.01.2021	21:24:05	0	0	2,259598	4,12275	88,1244	0,336	78,394	3,5	1006,34	6,9	8,9	8,8	1	1	1	1	1	1	1	1	1	0	1	-48,484848	274,204711	272,055499	0
14.01.2021	21:24:06	0	0	3,050475	3,97575	97,3116	0,339	78,403	3,5	1006,2	6,8	8,9	8,7	1	1	1	1	1	1	1	1	1	0	1	-47,145877	274,340227	274,028604	0
14.01.2021	21:24:07	0	0	4,067276	3,64875	92,3652	0,338	78,398	3,5	1006,26	6,9	8,9	8,8	1	1	1	1	1	1	1	1	1	0	1	-47,921071	274,20321	272,612261	0
14.01.2021	21:24:08	0	0	4,0673	3,57225	85,9284	0,332	78,395	3,5	1006,18	6,9	8,9	8,7	1	1	1	1	1	1	1	1	1	0	1	-44,186047	274,320593	276,896504	0
14.01.2021	21:24:09	0	0	2,259598	3,47925	84,78	0,341	78,41	3,5	1006,28	6,9	8,9	8,8	1	1	1	1	1	1	1	1	1	0	1	-46,018323	274,396216	275,41843	0
14.01.2021	21:24:10	0	0	3,276417	3,4785	95,1228	0,333	78,408	3,5	1006,52	6,9	8,9	8,8	1	1	1	1	1	1	1	1	1	0	1	-46,863989	274,255794	273,915287	0
14.01.2021	21:24:11	0	0	2,372592	3,40425	96,6024	0,342	78,389	3,5	1006,28	6,9	8,9	8,7	1	1	1	1	1	1	1	1	1	0	1	-47,145877	274,371985	274,177348	0
14.01.2021	21:24:12	0	0	3,728336	3,25575	91,1628	0,34	78,398	3,5	1006,28	6,8	8,9	8,8	1	1	1	1	1	1	1	1	1	0	1	-46,370684	274,30098	274,620049	0
14.01.2021	21:24:13	0	0	2,598537	3,1545	81,9756	0,333	78,39	3,5	1006,22	6,9	8,9	8,8	1	1	1	1	1	1	1	1	1	0	1	-45,806906	274,216718	274,789591	0
14.01.2021	21:24:14	0	0	3,95432	3,32025	109,6128	0,342	78,4	3,5	1006,36	6,8	9	8,7	1	1	1	1	1	1	1	1	1	0	1	-46,018323	274,236246	274,669508	0
14.01.2021	21:24:15	0	0	2,372592	3,65475	81,1836	0,336	78,375	3,5	1006,36	6,9	8,9	8,7	1	1	1	1	1	1	1	1	1	0	1	-46,793517	274,319084	274,281967	0
14.01.2021	21:24:16	0	0	3,163456	3,7545	87,7248	0,338	78,384	3,5	1006,4	6,9	8,9	8,7	1	1	1	1	1	1	1	1	1	0	1	-45,243129	274,237749	275,451732	0
14.01.2021	21:24:17	0	0	4,406242	3,75075	91,5804	0,336	78,392	3,5	1006,28	6,9	9	8,7	1	1	1	1	1	1	1	1	1	0	1	-46,5821	274,267833	274,253506	0
14.01.2021	21:24:18	0	0	4,745155	3,9945	84,4308	0,341	78,381	3,5	1006,44	6,9	9	8,8	1	1	1	1	1	1	1	1	1	0	1	-44,397463	274,215217	276,192013	0
14.01.2021	21:24:19	0	0	3,389397	3,90075	81,6156	0,34	78,373	3,5	1006,32	6,9	8,9	8,8	1	1	1	1	1	1	1	1	1	0	1	-50,739958	274,328142	270,377938	0
14.01.2021	21:24:20	0	0	4,180256	3,831	86,9688	0,34	78,358	3,5	1006,36	6,8	8,9	8,8	1	1	1	1	1	1	1	1	1	0	1	-47,357294	274,406827	274,129182	0
14.01.2021	21:24:21	0	0	2,259598	3,75075	74,1564	0,337	78,365	3,5	1006,22	6,9	8,9	8,8	1	1	1	1	1	1	1	1	1	0	1	-49,471459	274,243762	271,25153	0
14.01.2021	21:24:22	0	0	4,067276	3,54825	82,98	0,338	78,356	3,5	1006,36	6,9	8,9	8,8	1	1	1	1	1	1	1	1	1	0	1	-48,062016	274,242259	272,65394	0
14.01.2021	21:24:23	0	0	2,824514	3,552	79,4088	0,335	78,371	3,5	1006,36	6,9	9	8,7	1	1	1	1	1	1	1	1	1	0	1	-46,300211	274,405311	275,179159	0
14.01.2021	21:24:24	0	0	3,163456	3,78525	94,374	0,339	78,359	3,5	1006,3	6,8	8,9	8,7	1	1	1	1	1	1	1	1	1	0	1	-48,837209	274,276867	272,040672	0
14.01.2021	21:24:25	0	0	3,615378	4,08825	77,5692	0,34	78,358	3,5	1006,5	6,9	9	8,7	1	1	1	1	1	1	1	1	1	0	1	-45,243129	274,215217	275,346347	0
14.01.2021	21:24:26	0	0	4,293261	4,07025	67,6728	0,335	78,343	3,5	1006,36	6,9	8,9	8,7	1	1	1	1	1	1	1	1	1	0	1	-47,56871	274,281386	273,330318	0
14.01.2021	21:24:27	0	0	3,276436	4,33125	75,9852	0,339	78,353	3,5	1006,38	6,9	8,9	8,7	1	1	1	1	1	1	1	1	1	0	1	-44,045102	274,228733	276,607587	0
14.01.2021	21:24:28	0	0	4,180281	4,134	80,1288	0,335	78,32	3,5	1006,32	6,9	8,9	8,7	1	1	1	1	1	1	1	1	1	0	1	-46,5821	274,371985	274,741125	0
14.01.2021	21:24:29	0	0	3,163456	4,28175	72,2988	0,34	78,329	3,5	1006,44	6,9	8,9	8,7	1	1	1	1	1	1	1	1	1	0	1	-44,749824	274,267833	276,085782	0
14.01.2021	21:24:30	0	0	4,293261	4,52175	60,8688	0,348	78,317	3,5	1006,36	6,9	8,9	8,7	1	1	1	1	1	1	1	1	1	0	1	-47,709655	274,396216	273,727099	0
14.01.2021	21:24:31	0	0	2,824514	4,44675	65,0664	0,34	78,284	3,5	1006,34	6,9	8,9	8,7	1	1	1	1	1	1	1	1	1	0	1	-49,682875	274,347783	271,526995	0
14.01.2021	21:24:32	0	0	3,954296	4,737	63,8568	0,341	78,292	3,5	1006,3	6,9	9	8,8	1	1	1	1	1	1	1	1	1	0	1	-47,004933	274,388641	274,396324	0
14.01.2021	21:24:33	0	0	4,745184	5,199	69,1668	0,342	78,287	3,5	1006,36	6,8	9	8,7	1	1	1	1	1	1	1	1	1	0	1	-44,186047	274,337205	276,974285	0
14.01.2021	21:24:34	0	0	4,632203	5,793	71,9964	0,345	78,295	3,5	1006,24	6,9	9	8,7	1	1	1	1	1	1	1	1	1	0	1	-45,384073	274,358368	275,875369	0
14.01.2021	21:24:35	0	0	2,824514	6,4785	70,1964	0,331	78,29	3,5	1006,2	6,8	9	8,7	1	1	1	1	1	1	1	1	1	0	1	-46,229739	274,350807	274,994291	0
14.01.2021	21:24:36	0	0	4,858135	6,333	68,3316	0,34	78,316	3,5	1006,28	6,9	8,9	8,8	1	1	1	1	1	1	1	1	1	0	1	-45,525018	274,216718	275,07148	0
14.01.2021	21:24:37	0	0	3,728359	5,89125	70,8336	0,338	78,31	3,5	1006,16	6,9	8,9	8,7	1	1	1	1	1	1	1	1	1	0	1	-49,048626	274,399247	272,402331	0
14.01.2021	21:24:38	0	0	3,954296	5,6865	84,4236	0,339	78,326	3,5	1006,26	6,9	9	8,8	1	1	1	1	1	1	1	1	1	0	1	-47,498238	274,337205	273,662093	0
14.01.2021	21:24:39	0	0	4,406242	5,3415	87,3468	0,343	78,346	3,5	1006,32	6,9	9	8,7	1	1	1	1	1	1	1	1	1	0	1	-47,004933	274,384097	274,375035	0
14.01.2021	21:24:40	0	0	4,745184	5,9745	91,1592	0,345	78,346	3,5	1006,16	6,8	8,9	8,7	1	1	1	1	1	1	1	1	1	0	1	-47,075405	274,358368	274,184037	0
14.01.2021	21:24:41	0	0	4,745184	6,711	93,3552	0,342	78,34	3,5	1006,32	6,9	8,9	8,7	1	1	1	1	1	1	1	1	1	0	1	-47,075405	274,218219	273,528114	0
14.01.2021	21:24:42	0	0	3,502398	6,75525	92,2356	0,342	78,35	3,5	1006,34	6,9	9	8,7	1	1	1	1	1	1	1	1	1	0	1	-42,776603	274,269338	278,066047	0
14.01.2021	21:24:43	0	0	2,824514	6,396	89,7984	0,342	78,358	3,5	1006,32	6,9	9	8,7	1	1	1	1	1	1	1	1	1	0	1	-47,850599	274,218219	272,75292	0
14.01.2021	21:24:44	0	0	3,728359	6,1095	103,2732	0,34	78,347	3,5	1006,3	6,9	9	8,7	1	1	1	1	1	1	1	1	1	0	1	-42,283298	274,349295	278,933652	0
14.01.2021	21:24:45	0	0	3,389417	6,0195	99,8676	0,344	78,356	3,5	1006,28	6,8	9	8,7	1	1	1	1	1	1	1	1	1	0	1	-44,538407	274,338716	276,628999	0
14.01.2021	21:24:46	0	0	3,163456	5,763	88,5888	0,346	78,36	3,5	1006,32	6,9	9	8,7	1	1	1	1	1	1	1	1	1	0	1	-44,186047	274,230235	276,47367	0
14.01.2021	21:24:47	0	0	4,858164	5,703	85,518	0,343	78,343	3,5	1006,22	6,9	8,9	8,7	1	1	1	1	1	1	1	1	1	0	1	-42,071882	274,313047	278,975341	0
14.01.2021	21:24:48	0	0	3,389417	5,526	77,9616	0,349	78,357	3,5	1006,36	6,9	8,9	8,7	1	1	1	1	1	1	1	1	1	0	1	-47,991543	274,219721	272,618998	0
14.01.2021	21:24:49	0	0	3,276436	5,2245	82,5984	0,345	78,334	3,5	1006,24	6,9	8,9	8,7	1	1	1	1	1	1	1	1	1	0	1	-45,525018	274,293441	275,430431	0
14.01.2021	21:24:50	0	0	4,745184	5,48925	81,2052	0,342	78,349	3,5	1006,28	6,9	8,9	8,7	1	1	1	1	1	1	1	1	1	0	1	-45,384073	274,227231	275,261589	0
14.01.2021	21:24:51	0	0	3,276436	5,9715	86,2812	0,345	78,353	3,5	1006,34	6,9	8,9	8,7	1	1	1	1	1	1	1	1	1	0	1	-44,326991	274,237749	276,36787	0
14.01.2021	21:24:52	0	0	3,615378	5,71275	78,6528	0,344	78,359	3,5	1006,34	6,9	9	8,7	1	1	1	1	1	1	1	1	1	0	1	-47,850599	274,215217	272,738877	0
14.01.2021	21:24:53	0	0	3,841339	5,3265	91,5012	0,345	78,352	3,5	1006,36	6,9	8,9	8,7	1	1	1	1	1	1	1	1	1	0	1	-47,56871	274,337205	273,591621	0
14.01.2021	21:24:54	0	0	4,971145	5,154	104,418	0,344	78,337	3,5	1006,1	6,9	8,9	8,7	1	1	1	1	1	1	1	1	1	0	1	-47,004933	274,367445	274,297025	0
14.01.2021	21:24:55	0	0	2,824514	5,22975	95,814	0,349	78,339	3,5	1006,26	6,9	9	8,7	1	1	1	1	1	1	1	1	1	0	1	-47,075405	274,251281	273,682758	0
14.01.2021	21:24:56	0	0	3,389417	5,20125	94,7628	0,347	78,341	3,5	1006,14	6,9	8,9	8,7	1	1	1	1	1	1	1	1	1	0	1	-46,652572	274,209212	273,908827	0
14.01.2021	21:24:57	0	0	4,971145	4,692	104,742	0,35	78,322	3,5	1006,16	6,9	9	8,7	1	1	1	1	1	1	1	1	1	0	1	-45,59549	274,270844	275,254205	0
14.01.2021	21:24:58	0	0	5,197106	4,17675	64,6308	0,348	78,318	3,5	1006,3	6,8	9	8,7	1	1	1	1	1	1	1	1	1	0	1	-44,96124	274,405311	276,51813	0
14.01.2021	21:24:59	0	0	3,728359	3,83475	83,6928	0,357	78,311	3,5	1006,24	6,9	9	8,7	1	1	1	1	1	1	1	1	1	0	1	-43,269908	274,350807	277,954122	0
14.01.2021	21:25:00	0	0	4,406242	3,9075	90,3816	0,348	78,298	3,5	1006,22	6,9	9	8,7	1	1	1	1	1	1	1	1	1	0	1	-49,119098	274,367445	272,18286	0
14.01.2021	21:25:01	0	0	4,406242	3,9075	90,3816	0,348	78,298	3,5	1006,22	6,9	9	8,7	1	1	1	1	1	1	1	1	1	0	1	-49,119098	274,367445	272,18286	0
14.01.2021	21:25:02	0	0	2,937495	4,06725	102,1896	0,345	78,297	3,5	1006,18	6,9	9	8,7	1	1	1	1	1	1	1	1	1	0	1	-44,397463	274,334184	276,74872	0
14.01.2021	21:25:03	0	0	4,745184	4,548	95,1228	0,347	78,294	3,5	1006,24	6,9	8,9	8,7	1	1	1	1	1	1	1	1	1	0	1	-44,608879	274,37804	276,742712	0
14.01.2021	21:25:04	0	0	4,632203	5,088	96,5772	0,348	78,299	3,5	1006,24	6,9	9	8,7	1	1	1	1	1	1	1	1	1	0	1	-45,454545	274,343249	275,73409	0
14.01.2021	21:25:05	0	0	3,163456	5,56875	98,7552	0,352	78,296	3,5	1006,28	6,9	8,9	8,7	1	1	1	1	1	1	1	1	1	0	1	-44,115574	274,218219	276,487945	0
14.01.2021	21:25:06	0	0	4,0673	5,50875	104,0292	0,351	78,297	3,5	1006,3	6,9	9	8,7	1	1	1	1	1	1	1	1	1	0	1	-47,21635	274,332673	273,922761	0
14.01.2021	21:25:07	0	0	3,389417	5,325	107,0388	0,353	78,307	3,5	1006,4	6,9	9	8,7	1	1	1	1	1	1	1	1	1	0	1	-43,481325	274,396216	277,955428	0
14.01.2021	21:25:08	0	0	2,937495	5,12025	99,162	0,343	78,282	3,5	1006,24	6,9	9	8,7	1	1	1	1	1	1	1	1	1	0	1	-47,357294	274,254289	273,414944	0
14.01.2021	21:25:09	0	0	3,163456	5,34525	91,4724	0,352	78,288	3,5	1006,18	6,9	9	8,7	1	1	1	1	1	1	1	1	1	0	1	-51,092319	274,367445	270,20964	0
14.01.2021	21:25:10	0	0	3,728359	5,85225	94,7304	0,345	78,288	3,5	1006,26	6,9	8,9	8,7	1	1	1	1	1	1	1	1	1	0	1	-44,045102	274,347783	277,164768	0
14.01.2021	21:25:11	0	0	4,293261	5,6625	92,9484	0,348	78,282	3,5	1006,3	6,9	9	8,7	1	1	1	1	1	1	1	1	1	0	1	-46,229739	274,400763	275,22832	0
14.01.2021	21:25:12	0	0	3,615378	5,51925	86,9652	0,348	78,275	3,5	1006,24	6,9	8,9	8,7	1	1	1	1	1	1	1	1	1	0	1	-43,481325	274,254289	277,290913	0
14.01.2021	21:25:13	0	0	4,745184	4,9905	88,0812	0,35	78,302	3,5	1006,42	6,9	8,9	8,7	1	1	1	1	1	1	1	1	1	0	1	-45,736434	274,239252	274,965458	0
14.01.2021	21:25:14	0	0	4,180281	4,51125	86,2776	0,351	78,281	3,5	1006,36	6,9	9	8,7	1	1	1	1	1	1	1	1	1	0	1	-43,763214	274,260308	277,037181	0
14.01.2021	21:25:15	0	0	2,598553	3,996	88,5744	0,345	78,281	3,5	1006,14	6,9	9	8,7	1	1	1	1	1	1	1	1	1	0	1	-44,890768	274,406827	276,595708	0
14.01.2021	21:25:16	0	0	2,937495	4,21875	92,9664	0,349	78,264	3,5	1006,32	6,9	9	8,7	1	1	1	1	1	1	1	1	1	0	1	-46,441156	274,337205	274,719175	0
14.01.2021	21:25:17	0	0	2,598553	4,32975	98,0604	0,349	78,25	3,5	1006,22	6,9	9	8,7	1	1	1	1	1	1	1	1	1	0	1	-47,286822	274,227231	273,358841	0
14.01.2021	21:25:18	0	0	4,406242	4,72125	95,85	0,345	78,256	3,5	1006,24	6,9	9	8,7	1	1	1	1	1	1	1	1	1	0	1	-44,96124	274,340227	276,213242	0
14.01.2021	21:25:19	0	0	2,937495	4,51575	85,518	0,347	78,26	3,5	1006,32	6,9	9	8,7	1	1	1	1	1	1	1	1	1	0	1	-46,018323	274,388641	275,382934	0
14.01.2021	21:25:20	0	0	4,858164	4,437	79,416	0,345	78,261	3,5	1006,16	6,9	9	8,7	1	1	1	1	1	1	1	1	1	0	1	-47,004933	274,332673	274,134177	0
14.01.2021	21:25:21	0	0	4,406242	3,909	75,6072	0,344	78,247	3,5	1006,22	6,9	9	8,7	1	1	1	1	1	1	1	1	1	0	1	-46,793517	274,23324	273,880255	0
14.01.2021	21:25:22	0	0	3,615378	3,90675	79,7724	0,345	78,298	3,5	1006,38	6,8	9	8,7	1	1	1	1	1	1	1	1	1	0	1	-52,713178	274,329652	268,411788	0
14.01.2021	21:25:23	0	0	2,711534	3,8895	84,4272	0,343	78,245	3,5	1006,32	6,9	8,9	8,7	1	1	1	1	1	1	1	1	1	0	1	-48,062016	274,242259	272,65394	0
14.01.2021	21:25:24	0	0	3,95432	3,87825	87,0624	0,349	78,244	3,5	1006,36	6,9	9	8,7	1	1	1	1	1	1	1	1	1	0	1	-46,5821	274,285906	274,33808	0
14.01.2021	21:25:25	0	0	2,372592	4,11	85,1508	0,35	78,235	3,5	1006,3	6,9	9	8,7	1	1	1	1	1	1	1	1	1	0	1	-46,511628	274,40986	274,989061	0
14.01.2021	21:25:26	0	0	4,293261	4,6245	88,5852	0,349	78,226	3,5	1006,42	6,8	9	8,7	1	1	1	1	1	1	1	1	1	0	1	-49,400987	274,239252	271,300905	0
14.01.2021	21:25:27	0	0	4,406242	4,71075	79,4052	0,349	78,215	3,5	1006,38	6,9	8,9	8,7	1	1	1	1	1	1	1	1	1	0	1	-47,991543	274,341738	273,190015	0
14.01.2021	21:25:28	0	0	4,632203	4,398	76,7952	0,353	78,224	3,5	1006,48	6,9	8,9	8,7	1	1	1	1	1	1	1	1	1	0	1	-43,904158	274,388641	277,497099	0
14.01.2021	21:25:29	0	0	2,485572	4,3545	78,2676	0,343	78,215	3,5	1006,24	6,9	8,9	8,7	1	1	1	1	1	1	1	1	1	0	1	-45,59549	274,236246	275,092341	0
14.01.2021	21:25:30	0	0	4,858164	4,2525	80,514	0,348	78,232	3,5	1006,34	6,8	9	8,7	1	1	1	1	1	1	1	1	1	0	1	-45,665962	274,388641	275,735295	0
14.01.2021	21:25:31	0	0	4,971145	4,32975	70,9344	0,349	78,235	3,5	1006,4	6,9	9	8,7	1	1	1	1	1	1	1	1	1	0	1	-46,088795	274,291934	274,859599	0
14.01.2021	21:25:32	0	0	4,519223	4,599	89,9964	0,35	78,24	3,5	1006,12	6,9	9	8,7	1	1	1	1	1	1	1	1	1	0	1	-46,511628	274,400763	274,946431	0
14.01.2021	21:25:33	0	0	4,632203	4,72725	80,532	0,348	78,228	3,5	1006,16	6,9	8,9	8,7	1	1	1	1	1	1	1	1	1	0	1	-48,837209	274,307013	272,181763	0
14.01.2021	21:25:34	0	0	2,598553	4,25775	90,4068	0,344	78,246	3,5	1006,3	6,9	9	8,7	1	1	1	1	1	1	1	1	1	0	1	-46,370684	274,400763	275,087375	0
14.01.2021	21:25:35	0	0	3,389417	3,6945	87,7176	0,343	78,233	3,5	1006,2	6,8	9	8,7	1	1	1	1	1	1	1	1	1	0	1	-44,115574	274,368958	277,193472	0
14.01.2021	21:25:36	0	0	4,0673	3,41925	62,3988	0,346	78,231	3,5	1006,22	6,9	9	8,7	1	1	1	1	1	1	1	1	1	0	1	-41,860465	274,396216	279,576288	0
14.01.2021	21:25:37	0	0	2,372592	3,2115	91,1628	0,353	78,231	3,5	1006,28	6,9	8,9	8,7	1	1	1	1	1	1	1	1	1	0	1	-44,256519	274,258803	276,536836	0
14.01.2021	21:25:38	0	0	3,841339	3,0495	89,334	0,343	78,221	3,5	1006,22	6,9	9	8,7	1	1	1	1	1	1	1	1	1	0	1	-48,062016	274,225728	272,576622	0
14.01.2021	21:25:39	0	0	2,372592	3,14625	93,726	0,342	78,206	3,5	1006,32	6,9	9	8,7	1	1	1	1	1	1	1	1	1	0	1	-43,692741	274,31003	277,340355	0
14.01.2021	21:25:40	0	0	3,728359	3,444	88,5636	0,341	78,196	3,5	1006,14	6,9	9	8,7	1	1	1	1	1	1	1	1	1	0	1	-50,17618	274,227231	270,469482	0
14.01.2021	21:25:41	0	0	4,858164	4,00125	109,5876	0,344	78,193	3,5	1006,3	6,9	9	8,7	1	1	1	1	1	1	1	1	1	0	1	-49,048626	274,368958	272,260421	0
14.01.2021	21:25:42	0	0	2,485572	4,4685	81,5832	0,345	78,189	3,5	1006,32	6,9	9	8,7	1	1	1	1	1	1	1	1	1	0	1	-44,256519	274,27988	276,63546	0
14.01.2021	21:25:43	0	0	4,406242	4,2615	102,5892	0,339	78,17	3,5	1006,1	6,9	9	8,7	1	1	1	1	1	1	1	1	1	0	1	-42,494715	274,412893	279,020189	0
14.01.2021	21:25:44	0	0	3,163456	4,47825	100,7568	0,346	78,166	3,5	1006,34	6,9	9	8,7	1	1	1	1	1	1	1	1	1	0	1	-44,186047	274,341738	276,995512	0
14.01.2021	21:25:45	0	0	3,95432	4,3275	92,6568	0,346	78,164	3,5	1006,34	6,9	9	8,7	1	1	1	1	1	1	1	1	1	0	1	-46,229739	274,204711	274,310609	0
14.01.2021	21:25:46	0	0	4,180281	3,93225	80,5356	0,347	78,161	3,5	1006,24	6,9	9	8,7	1	1	1	1	1	1	1	1	1	0	1	-46,159267	274,370471	275,156869	0
14.01.2021	21:25:47	0	0	4,745184	3,70575	76,8312	0,345	78,157	3,5	1006,4	6,9	8,9	8,7	1	1	1	1	1	1	1	1	1	0	1	-46,511628	274,37804	274,839963	0
14.01.2021	21:25:48	0	0	4,632203	3,44925	78,264	0,349	78,149	3,5	1006,16	6,8	9	8,7	1	1	1	1	1	1	1	1	1	0	1	-46,441156	274,370471	274,87498	0
14.01.2021	21:25:49	0	0	4,858164	3,59775	94,0968	0,348	78,134	3,5	1006,38	6,9	9	8,7	1	1	1	1	1	1	1	1	1	0	1	-47,004933	274,375012	274,332474	0
14.01.2021	21:25:50	0	0	4,406242	3,9915	78,642	0,347	78,131	3,5	1006,22	6,9	9	8,7	1	1	1	1	1	1	1	1	1	0	1	-47,56871	274,245266	273,161312	0
14.01.2021	21:25:51	0	0	4,745184	4,44525	82,9692	0,344	78,121	3,5	1006,4	6,9	9	8,7	1	1	1	1	1	1	1	1	1	0	1	-48,273432	274,350807	272,950598	0
14.01.2021	21:25:52	0	0	4,745184	5,12625	94,3668	0,343	78,122	3,5	1006,24	6,9	9	8,7	1	1	1	1	1	1	1	1	1	0	1	-43,551797	274,399247	277,899159	0
14.01.2021	21:25:53	0	0	3,841316	6,17025	97,3152	0,345	78,118	3,5	1006,48	6,9	8,9	8,8	1	1	1	1	1	1	1	1	1	0	1	-45,877378	274,328142	275,240517	0
14.01.2021	21:25:54	0	0	3,841339	6,61125	99,882	0,347	78,107	3,5	1006,36	6,9	9	8,7	1	1	1	1	1	1	1	1	1	0	1	-43,410853	274,23324	277,262919	0
14.01.2021	21:25:55	0	0	2,711534	6,29625	97,3116	0,34	78,106	3,5	1006,34	6,9	9	8,7	1	1	1	1	1	1	1	1	1	0	1	-53,065539	274,320593	268,017012	0
14.01.2021	21:25:56	0	0	2,598553	5,86425	84,7908	0,343	78,102	3,5	1006,36	6,9	9	8,7	1	1	1	1	1	1	1	1	1	0	1	-47,780127	274,388641	273,62113	0
14.01.2021	21:25:57	0	0	3,050475	5,502	87,3684	0,342	78,11	3,5	1006,22	6,9	9	8,7	1	1	1	1	1	1	1	1	1	0	1	-50,035236	274,341738	271,146322	0
14.01.2021	21:25:58	0	0	2,711534	5,3175	95,5224	0,348	78,115	3,5	1006,42	6,9	9	8,7	1	1	1	1	1	1	1	1	1	0	1	-50,387597	274,402279	271,077565	0
14.01.2021	21:25:59	0	0	4,406242	5,27625	83,736	0,345	78,136	3,5	1006,3	6,9	9	8,7	1	1	1	1	1	1	1	1	1	0	1	-46,723044	274,316065	274,338308	0
14.01.2021	21:26:00	0	0	4,745184	4,7445	86,2812	0,34	78,18	3,5	1006,34	6,9	9	8,7	1	1	1	1	1	1	1	1	1	0	1	-44,538407	274,251281	276,219756	0
14.01.2021	21:26:01	0	0	4,745184	4,7445	86,2812	0,34	78,18	3,5	1006,34	6,9	9	8,7	1	1	1	1	1	1	1	1	1	0	1	-44,538407	274,251281	276,219756	0
14.01.2021	21:26:02	0	0	4,745184	4,3725	78,6528	0,344	78,199	3,5	1006,32	6,9	9	8,7	1	1	1	1	1	1	1	1	1	0	1	-49,471459	274,364419	271,816325	0
14.01.2021	21:26:03	0	0	4,971145	4,16625	87,3612	0,343	78,218	3,5	1006,36	6,9	9	8,7	1	1	1	1	1	1	1	1	1	0	1	-49,612403	274,282893	271,293675	0
14.01.2021	21:26:04	0	0	3,389417	4,03575	79,4808	0,339	78,22	3,5	1006,16	6,9	9	8,7	1	1	1	1	1	1	1	1	1	0	1	-46,723044	274,402279	274,742118	0
14.01.2021	21:26:05	0	0	4,519223	4,2915	93,3228	0,345	78,231	3,5	1006,28	6,9	9	8,7	1	1	1	1	1	1	1	1	1	0	1	-45,665962	274,291934	275,282432	0
14.01.2021	21:26:06	0	0	2,824514	4,641	80,8812	0,343	78,244	3,5	1006,44	6,9	9	8,7	1	1	1	1	1	1	1	1	1	0	1	-46,652572	274,385611	274,734491	0
14.01.2021	21:26:07	0	0	4,0673	4,5345	97,3332	0,342	78,241	3,5	1006,18	6,9	9	8,7	1	1	1	1	1	1	1	1	1	0	1	-43,269908	274,305504	277,742003	0
14.01.2021	21:26:08	0	0	2,259611	4,4295	93,3228	0,345	78,253	3,5	1006,42	6,9	9	8,7	1	1	1	1	1	1	1	1	1	0	1	-47,850599	274,391671	273,564855	0
14.01.2021	21:26:09	0	0	2,485572	4,4925	106,254	0,347	78,236	3,5	1006,42	6,9	9	8,7	1	1	1	1	1	1	1	1	1	0	1	-51,585624	274,316065	269,475728	0
14.01.2021	21:26:10	0	0	2,711534	4,61775	97,2936	0,344	78,23	3,5	1006,34	6,9	9	8,7	1	1	1	1	1	1	1	1	1	0	1	-47,921071	274,225728	272,717566	0
14.01.2021	21:26:11	0	0	2,711534	4,485	72,648	0,349	78,241	3,5	1006,34	6,9	9	8,7	1	1	1	1	1	1	1	1	1	0	1	-47,56871	274,326632	273,542115	0
14.01.2021	21:26:12	0	0	3,276436	4,167	70,614	0,344	78,222	3,5	1006,4	6,9	9	8,7	1	1	1	1	1	1	1	1	1	0	1	-46,229739	274,352319	275,001372	0
14.01.2021	21:26:13	0	0	4,180281	4,04325	84,7908	0,344	78,222	3,5	1006,32	6,9	9	8,7	1	1	1	1	1	1	1	1	1	0	1	-44,890768	274,224226	275,740844	0
14.01.2021	21:26:14	0	0	3,050475	4,044	82,3464	0,341	78,207	3,5	1006,26	6,9	9	8,7	1	1	1	1	1	1	1	1	1	0	1	-50,17618	274,352319	271,054931	0
14.01.2021	21:26:15	0	0	3,615378	4,1655	84,4272	0,346	78,214	3,5	1006,24	6,9	9	8,7	1	1	1	1	1	1	1	1	1	0	1	-50,528541	274,237749	270,16632	0
14.01.2021	21:26:16	0	0	3,728359	4,26375	69,8256	0,346	78,213	3,5	1006,16	6,9	9	8,7	1	1	1	1	1	1	1	1	1	0	1	-47,709655	274,243762	273,013334	0
14.01.2021	21:26:17	0	0	3,502398	4,4595	90,7596	0,339	78,204	3,5	1006,36	6,9	9	8,7	1	1	1	1	1	1	1	1	1	0	1	-49,964764	274,381068	271,401014	0
14.01.2021	21:26:18	0	0	4,858164	4,70625	87,3396	0,344	78,207	3,5	1006,36	6,9	9	8,7	1	1	1	1	1	1	1	1	1	0	1	-49,471459	274,313047	271,575764	0
14.01.2021	21:26:19	0	0	3,502398	4,611	77,5656	0,342	78,212	3,5	1006,34	6,9	9	8,7	1	1	1	1	1	1	1	1	1	0	1	-46,018323	274,405311	275,461048	0
14.01.2021	21:26:20	0	0	3,615378	4,0485	67,6692	0,346	78,198	3,5	1006,24	6,9	9	8,7	1	1	1	1	1	1	1	1	1	0	1	-45,59549	274,332673	275,543621	0
14.01.2021	21:26:21	0	0	4,293261	3,7905	84,4092	0,345	78,198	3,5	1006,3	6,9	9	8,7	1	1	1	1	1	1	1	1	1	0	1	-48,625793	274,213715	271,956663	0
14.01.2021	21:26:22	0	0	2,711534	3,9105	62,424	0,343	78,184	3,5	1006,26	6,9	9	8,7	1	1	1	1	1	1	1	1	1	0	1	-47,427766	274,251281	273,330397	0
14.01.2021	21:26:23	0	0	2,824514	3,89325	84,4092	0,347	78,184	3,5	1006,14	6,9	9	8,7	1	1	1	1	1	1	1	1	1	0	1	-45,243129	274,375012	276,094278	0
14.01.2021	21:26:24	0	0	5,423067	3,81675	77,5872	0,347	78,191	3,5	1006,28	6,9	9	8,7	1	1	1	1	1	1	1	1	1	0	1	-46,018323	274,329652	275,106644	0
14.01.2021	21:26:25	0	0	4,180281	3,78375	72,666	0,341	78,185	3,5	1006,32	6,9	9	8,7	1	1	1	1	1	1	1	1	1	0	1	-44,820296	274,390156	276,588059	0
14.01.2021	21:26:26	0	0	3,050475	3,73875	82,3248	0,346	78,163	3,5	1006,36	6,9	9	8,7	1	1	1	1	1	1	1	1	1	0	1	-47,921071	274,316065	273,140281	0
14.01.2021	21:26:27	0	0	3,502398	3,57825	81,9648	0,339	78,187	3,5	1006,24	6,9	9	8,7	1	1	1	1	1	1	1	1	1	0	1	-47,498238	274,397732	273,945616	0
14.01.2021	21:26:28	0	0	3,95432	3,30675	75,9924	0,345	78,178	3,5	1006,32	6,9	9	8,7	1	1	1	1	1	1	1	1	1	0	1	-44,538407	274,260308	276,261987	0
14.01.2021	21:26:29	0	0	3,95432	3,39375	75,6072	0,34	78,173	3,5	1006,34	6,9	9	8,7	1	1	1	1	1	1	1	1	1	0	1	-50,387597	274,230235	270,272119	0
14.01.2021	21:26:30	0	0	4,632203	3,51375	82,5912	0,342	78,157	3,5	1006,22	6,9	9	8,7	1	1	1	1	1	1	1	1	1	0	1	-50,458069	274,403795	271,014197	0
14.01.2021	21:26:31	0	0	4,745184	3,489	58,8672	0,343	78,172	3,5	1006,38	6,9	9	8,7	1	1	1	1	1	1	1	1	1	0	1	-45,947851	274,273855	274,915936	0
14.01.2021	21:26:32	0	0	3,163456	3,5985	77,1876	0,347	78,177	3,5	1006,34	6,9	9	8,7	1	1	1	1	1	1	1	1	1	0	1	-46,723044	274,23324	273,950728	0
14.01.2021	21:26:33	0	0	4,406242	3,67875	82,9872	0,343	78,182	3,5	1006,28	6,9	9	8,7	1	1	1	1	1	1	1	1	1	0	1	-54,193094	274,364419	267,09469	0
14.01.2021	21:26:34	0	0	2,711534	3,6705	83,7396	0,346	78,189	3,5	1006,52	6,9	9	8,7	1	1	1	1	1	1	1	1	1	0	1	-47,709655	274,394701	273,719998	0
14.01.2021	21:26:35	0	0	4,519223	3,4545	81,1692	0,34	78,173	3,5	1006,26	6,9	9	8,7	1	1	1	1	1	1	1	1	1	0	1	-51,162791	274,261812	269,644645	0
14.01.2021	21:26:36	0	0	2,372592	3,25125	75,978	0,334	78,173	3,5	1006,32	6,9	9	8,7	1	1	1	1	1	1	1	1	1	0	1	-47,921071	274,373498	273,409245	0
14.01.2021	21:26:37	0	0	4,632203	3,02025	78,6636	0,332	78,182	3,5	1006,12	6,9	9	8,7	1	1	1	1	1	1	1	1	1	0	1	-43,058492	274,352319	278,172619	0
14.01.2021	21:26:38	0	0	3,502398	2,92725	79,02	0,344	78,182	3,5	1006,38	6,9	9	8,7	1	1	1	1	1	1	1	1	1	0	1	-47,639183	274,23324	273,034589	0
14.01.2021	21:26:39	0	0	3,389417	3,021	79,7652	0,344	78,166	3,5	1006,4	6,9	9	8,7	1	1	1	1	1	1	1	1	1	0	1	-44,608879	274,264822	276,21264	0
14.01.2021	21:26:40	0	0	3,502398	2,9715	96,2244	0,339	78,165	3,5	1006,3	6,9	9	8,7	1	1	1	1	1	1	1	1	1	0	1	-50,951374	274,221223	269,66619	0
14.01.2021	21:26:41	0	0	3,841339	2,99475	107,4168	0,334	78,153	3,5	1006,14	6,9	8,9	8,7	1	1	1	1	1	1	1	1	1	0	1	-51,303735	274,275361	269,567099	0
14.01.2021	21:26:42	0	0	2,824514	2,9235	98,0712	0,343	78,173	3,5	1006,38	6,9	9	8,7	1	1	1	1	1	1	1	1	1	0	1	-52,572234	274,379554	268,78645	0
14.01.2021	21:26:43	0	0	3,276436	2,7345	100,3644	0,341	78,16	3,5	1006,3	6,9	9	8,7	1	1	1	1	1	1	1	1	1	0	1	-45,665962	274,264822	275,155557	0
14.01.2021	21:26:44	0	0	3,95432	2,589	86,9832	0,338	78,167	3,5	1006,5	6,9	9	8,7	1	1	1	1	1	1	1	1	1	0	1	-45,031712	274,399247	276,419244	0
14.01.2021	21:26:45	0	0	4,519223	2,60025	79,7724	0,338	78,157	3,5	1006,32	6,9	9	8,7	1	1	1	1	1	1	1	1	1	0	1	-47,639183	274,329652	273,485784	0
14.01.2021	21:26:46	0	0	3,502398	2,9595	94,3632	0,342	78,162	3,5	1006,4	6,9	9	8,7	1	1	1	1	1	1	1	1	1	0	1	-47,498238	274,399247	273,952718	0
14.01.2021	21:26:47	0	0	2,711534	3,22425	83,7144	0,341	78,15	3,5	1006,46	6,9	9	8,7	1	1	1	1	1	1	1	1	1	0	1	-45,665962	274,375012	275,671445	0
14.01.2021	21:26:48	0	0	2,711534	3,2745	87,7212	0,336	78,151	3,5	1006,18	6,9	9	8,7	1	1	1	1	1	1	1	1	1	0	1	-43,622269	274,246769	277,114787	0
14.01.2021	21:26:49	0	0	2,711534	3,36675	92,9376	0,335	78,147	3,5	1006,42	6,9	9	8,7	1	1	1	1	1	1	1	1	1	0	1	-49,471459	274,385611	271,915605	0
14.01.2021	21:26:50	0	0	4,858164	3,35175	85,1652	0,337	78,151	3,5	1006,38	6,9	9	8,7	1	1	1	1	1	1	1	1	1	0	1	-48,837209	274,335694	272,316048	0
14.01.2021	21:26:51	0	0	2,711534	3,2475	80,1432	0,335	78,153	3,5	1006,38	6,9	9	8,7	1	1	1	1	1	1	1	1	1	0	1	-47,498238	274,240755	273,210685	0
14.01.2021	21:26:52	0	0	2,711534	3,19275	85,1652	0,327	78,16	3,5	1006,32	6,9	9	8,7	1	1	1	1	1	1	1	1	1	0	1	-44,467935	274,297964	276,508682	0
14.01.2021	21:26:53	0	0	4,858164	3,31425	83,7324	0,337	78,152	3,5	1006,38	6,9	9	8,7	1	1	1	1	1	1	1	1	1	0	1	-47,004933	274,215217	273,584543	0
14.01.2021	21:26:54	0	0	2,937495	3,3645	95,1372	0,338	78,173	3,5	1006,32	6,9	9	8,7	1	1	1	1	1	1	1	1	1	0	1	-44,890768	274,236246	275,797062	0
14.01.2021	21:26:55	0	0	4,180281	3,41925	95,5656	0,332	78,171	3,5	1006,32	6,9	9	8,7	1	1	1	1	1	1	1	1	1	0	1	-47,286822	274,267833	273,548784	0
14.01.2021	21:26:56	0	0	4,180281	3,62925	91,116	0,336	78,18	3,5	1006,38	6,9	9	8,7	1	1	1	1	1	1	1	1	1	0	1	-49,471459	274,213715	271,110997	0
14.01.2021	21:26:57	0	0	3,276436	3,84675	84,7836	0,332	78,173	3,5	1006,18	6,9	9	8,7	1	1	1	1	1	1	1	1	1	0	1	-44,890768	274,303996	276,114083	0
14.01.2021	21:26:58	0	0	3,276436	3,9345	85,5288	0,333	78,177	3,5	1006,28	6,9	9	8,7	1	1	1	1	1	1	1	1	1	0	1	-45,384073	274,385611	276,00299	0
14.01.2021	21:26:59	0	0	2,598553	3,87825	86,2812	0,329	78,166	3,5	1006,02	6,9	9	8,7	1	1	1	1	1	1	1	1	1	0	1	-44,467935	274,264822	276,353584	0
14.01.2021	21:27:00	0	0	3,728359	3,19875	82,5732	0,337	78,198	3,5	1006,42	6,9	9	8,7	1	1	1	1	1	1	1	1	1	0	1	-46,229739	274,316065	274,831613	0
14.01.2021	21:27:01	0	0	4,632203	3,1125	74,5344	0,333	78,186	3,5	1006,32	6,9	9	8,7	1	1	1	1	1	1	1	1	1	0	1	-46,229739	274,316065	274,831613	0
14.01.2021	21:27:02	0	0	4,632203	3,1125	74,5344	0,333	78,186	3,5	1006,32	6,9	9	8,7	1	1	1	1	1	1	1	1	1	0	1	-45,806906	274,388641	275,594351	0
14.01.2021	21:27:03	0	0	3,050475	3,42975	80,1324	0,336	78,202	3,5	1006,22	6,9	9	8,7	1	1	1	1	1	1	1	1	1	0	1	-46,229739	274,267833	274,605867	0
14.01.2021	21:27:04	0	0	2,485572	3,66375	85,5504	0,333	78,196	3,5	1006,24	6,9	9	8,7	1	1	1	1	1	1	1	1	1	0	1	-45,243129	274,19721	275,262147	0
14.01.2021	21:27:05	0	0	4,406242	4,37325	86,2848	0,334	78,221	3,5	1006,28	6,9	9	8,7	1	1	1	1	1	1	1	1	1	0	1	-48,273432	274,27988	272,618546	0
14.01.2021	21:27:06	0	0	3,163456	4,62825	90,0108	0,329	78,206	3,5	1006,36	6,8	9	8,7	1	1	1	1	1	1	1	1	1	0	1	-48,132488	274,37804	273,219104	0
14.01.2021	21:27:07	0	0	4,519223	4,854	93,3084	0,332	78,202	3,5	1006,32	6,9	9	8,7	1	1	1	1	1	1	1	1	1	0	1	-50,739958	274,269338	270,102692	0
14.01.2021	21:27:08	0	0	4,406242	4,55175	78,6348	0,334	78,229	3,5	1006,48	6,9	9	8,7	1	1	1	1	1	1	1	1	1	0	1	-45,736434	274,376526	275,608065	0
14.01.2021	21:27:09	0	0	2,937495	4,1925	77,9688	0,33	78,237	3,5	1006,46	6,9	9	8,7	1	1	1	1	1	1	1	1	1	0	1	-43,763214	274,340227	277,411268	0
14.01.2021	21:27:10	0	0	4,632203	3,858	85,9032	0,327	78,217	3,5	1006,44	6,9	9	8,7	1	1	1	1	1	1	1	1	1	0	1	-44,820296	274,19871	275,691993	0
14.01.2021	21:27:11	0	0	3,841339	3,67875	74,9124	0,334	78,217	3,5	1006,12	6,8	9	8,7	1	1	1	1	1	1	1	1	1	0	1	-45,525018	274,311538	275,515142	0
14.01.2021	21:27:12	0	0	3,276436	3,71475	77,9616	0,324	78,206	3,5	1006,6	6,9	9	8,7	1	1	1	1	1	1	1	1	1	0	1	-48,555321	274,207712	271,999061	0
14.01.2021	21:27:13	0	0	3,615378	3,7875	73,7748	0,326	78,199	3,5	1006,18	6,8	9	8,7	1	1	1	1	1	1	1	1	1	0	1	-50,458069	274,328142	270,659826	0
14.01.2021	21:27:14	0	0	2,824514	3,687	68,0184	0,332	78,195	3,5	1006,44	6,9	9	8,7	1	1	1	1	1	1	1	1	1	0	1	-49,119098	274,368958	272,189949	0
14.01.2021	21:27:15	0	0	4,632203	3,48375	65,1024	0,326	78,176	3,5	1006,28	6,9	9	8,7	1	1	1	1	1	1	1	1	1	0	1	-48,696265	274,240755	272,012658	0
14.01.2021	21:27:16	0	0	2,711534	3,699	76,3668	0,33	78,196	3,5	1006,2	6,9	9	8,7	1	1	1	1	1	1	1	1	1	0	1	-51,162791	274,192711	269,32145	0
14.01.2021	21:27:17	0	0	2,711534	3,99825	73,0476	0,326	78,179	3,5	1006,26	6,9	9	8,7	1	1	1	1	1	1	1	1	1	0	1	-46,300211	274,249777	274,450915	0
14.01.2021	21:27:18	0	0	3,502398	4,49325	82,9728	0,328	78,172	3,5	1006,3	6,9	9	8,7	1	1	1	1	1	1	1	1	1	0	1	-45,806906	274,20021	274,712396	0
14.01.2021	21:27:19	0	0	4,745184	5,00025	76,3488	0,327	78,176	3,5	1006,28	6,9	9	8,7	1	1	1	1	1	1	1	1	1	0	1	-47,427766	274,255794	273,35151	0
14.01.2021	21:27:20	0	0	3,502398	5,4585	77,5764	0,33	78,178	3,5	1006,24	6,8	9	8,7	1	1	1	1	1	1	1	1	1	0	1	-46,229739	274,20171	274,296578	0
14.01.2021	21:27:21	0	0	3,841339	5,95125	83,0016	0,327	78,175	3,5	1006,4	6,8	8,7	8,7	1	1	1	1	1	1	1	1	1	0	1	-46,793517	274,349295	274,423433	0
14.01.2021	21:27:22	0	0	4,519223	6,2475	70,8552	0,328	78,194	3,5	1006,36	6,9	8,7	8,7	1	1	1	1	1	1	1	1	1	0	1	-48,625793	274,353831	272,6124	0
14.01.2021	21:27:23	0	0	2,598553	6,273	83,7216	0,326	78,215	3,5	1006,46	6,9	9	8,7	1	1	1	1	1	1	1	1	1	0	1	-41,789993	274,297964	279,186624	0
14.01.2021	21:27:24	0	0	4,519223	5,859	65,0808	0,33	78,217	3,5	1006,22	6,9	9	8,7	1	1	1	1	1	1	1	1	1	0	1	-45,59549	274,191211	274,88174	0
14.01.2021	21:27:25	0	0	4,632203	5,76525	56,6712	0,327	78,246	3,5	1006,4	7	9	8,7	1	1	1	1	1	1	1	1	1	0	1	-50,880902	274,270844	269,968793	0
14.01.2021	21:27:26	0	0	2,259611	6,27975	67,284	0,324	78,269	3,5	1006,4	6,9	9	8,7	1	1	1	1	1	1	1	1	1	0	1	-48,696265	274,35988	272,570261	0
14.01.2021	21:27:27	0	0	5,197106	5,898	54,7884	0,326	78,317	3,5	1006,44	6,8	9	8,7	1	1	1	1	1	1	1	1	1	0	1	-48,343904	274,260308	272,45649	0
14.01.2021	21:27:28	0	0	3,050475	5,523	53,7156	0,324	78,324	3,5	1006,32	7	9	8,7	1	1	1	1	1	1	1	1	1	0	1	-46,934461	274,352319	274,29665	0
14.01.2021	21:27:29	0	0	2,937495	4,773	94,3884	0,322	78,363	3,5	1006,3	7	9	8,7	1	1	1	1	1	1	1	1	1	0	1	-44,538407	274,291934	276,409986	0
14.01.2021	21:27:30	0	0	4,293261	4,76325	111,4272	0,319	78,374	3,5	1006,22	6,9	9	8,7	1	1	1	1	1	1	1	1	1	0	1	-43,269908	274,358368	277,989534	0
14.01.2021	21:27:31	0	0	3,728359	4,33425	68,0256	0,32	78,392	3,5	1006,4	6,9	9	8,7	1	1	1	1	1	1	1	1	1	0	1	-45,454545	274,302488	275,543246	0
14.01.2021	21:27:32	0	0	2,711517	4,25625	78,2712	0,324	78,397	3,5	1006,5	6,8	9	8,8	1	1	1	1	1	1	1	1	1	0	1	-46,088795	274,213715	274,493661	0
14.01.2021	21:27:33	0	0	3,163456	4,0995	82,5696	0,327	78,416	3,5	1006,44	6,9	9	8,7	1	1	1	1	1	1	1	1	1	0	1	-46,793517	274,255794	273,985759	0
14.01.2021	21:27:34	0	0	2,598553	3,8055	82,6056	0,327	78,435	3,5	1006,24	6,8	9	8,7	1	1	1	1	1	1	1	1	1	0	1	-47,357294	274,365932	273,937577	0
14.01.2021	21:27:35	0	0	4,406242	3,6225	100,7388	0,329	78,443	3,5	1006,28	6,9	9	8,7	1	1	1	1	1	1	1	1	1	0	1	-45,59549	274,285906	275,324691	0
14.01.2021	21:27:36	0	0	4,519223	3,756	98,7408	0,326	78,466	3,5	1006,3	6,8	9	8,7	1	1	1	1	1	1	1	1	1	0	1	-46,511628	274,183716	273,93056	0
14.01.2021	21:27:37	0	0	3,95432	4,04025	113,4252	0,325	78,45	3,5	1006,4	6,9	9	8,7	1	1	1	1	1	1	1	1	1	0	1	-45,384073	274,225728	275,254564	0
14.01.2021	21:27:38	0	0	2,485572	3,72975	105,12	0,325	78,46	3,5	1006,3	6,8	9	8,7	1	1	1	1	1	1	1	1	1	0	1	-44,96124	274,20171	275,565077	0
14.01.2021	21:27:39	0	0	4,632203	3,87525	107,7588	0,327	78,475	3,5	1006,28	6,9	8,7	8,7	1	1	1	1	1	1	1	1	1	0	1	-48,696265	274,278374	272,188664	0
14.01.2021	21:27:40	0	0	2,824514	3,98625	107,7012	0,318	78,482	3,5	1006,28	6,9	9	8,7	1	1	1	1	1	1	1	1	1	0	1	-47,850599	274,364419	273,437184	0
14.01.2021	21:27:41	0	0	2,485572	4,3335	103,6476	0,325	78,491	3,5	1006,38	6,8	9	8,7	1	1	1	1	1	1	1	1	1	0	1	-48,132488	274,222724	272,4921	0
14.01.2021	21:27:42	0	0	4,406242	4,50225	98,4528	0,328	78,494	3,5	1006,54	6,8	9	8,7	1	1	1	1	1	1	1	1	1	0	1	-48,132488	274,20171	272,393829	0
14.01.2021	21:27:43	0	0	2,824514	4,365	78,678	0,323	78,477	3,5	1006,18	6,8	9	8,7	1	1	1	1	1	1	1	1	1	0	1	-45,172657	274,234743	275,508144	0
14.01.2021	21:27:44	0	0	3,050475	4,2825	88,9524	0,324	78,475	3,5	1006,22	6,9	9	8,7	1	1	1	1	1	1	1	1	1	0	1	-48,132488	274,334184	273,013696	0
14.01.2021	21:27:45	0	0	4,519223	4,2345	95,8212	0,329	78,469	3,5	1006,52	6,8	9	8,7	1	1	1	1	1	1	1	1	1	0	1	-48,907681	274,326632	272,203144	0
14.01.2021	21:27:46	0	0	4,293261	3,9885	101,5884	0,322	78,458	3,5	1006,3	6,9	9	8,7	1	1	1	1	1	1	1	1	1	0	1	-41,085271	274,228733	279,567418	0
14.01.2021	21:27:47	0	0	3,276417	4,02	80,1252	0,328	78,446	3,5	1006,32	6,8	9	8,8	1	1	1	1	1	1	1	1	1	0	1	-45,806906	274,224226	274,824706	0
14.01.2021	21:27:48	0	0	2,937477	4,437	109,5876	0,327	78,444	3,5	1006,36	6,9	9	8,8	1	1	1	1	1	1	1	1	1	0	1	-49,260042	274,355343	271,985233	0
14.01.2021	21:27:49	0	0	3,389417	4,80375	101,1096	0,325	78,439	3,5	1006,46	7	9	8,7	1	1	1	1	1	1	1	1	1	0	1	-48,978154	274,222724	271,646434	0
14.01.2021	21:27:50	0	0	3,163456	5,15625	93,69	0,327	78,439	3,5	1006,34	6,9	9	8,7	1	1	1	1	1	1	1	1	1	0	1	-49,682875	274,182217	270,752306	0
14.01.2021	21:27:51	0	0	3,502398	5,18925	96,1848	0,327	78,434	3,5	1006,34	6,9	9	8,7	1	1	1	1	1	1	1	1	1	0	1	-46,793517	274,278374	274,091413	0
14.01.2021	21:27:52	0	0	4,293261	5,15175	100,7064	0,332	78,443	3,5	1006,46	7	8,7	8,7	1	1	1	1	1	1	1	1	1	0	1	-46,441156	274,19571	274,057108	0
14.01.2021	21:27:53	0	0	2,937495	5,088	89,6976	0,324	78,442	3,5	1006,28	6,8	9	8,7	1	1	1	1	1	1	1	1	1	0	1	-48,343904	274,31003	272,689192	0
14.01.2021	21:27:54	0	0	4,632203	5,07825	92,2464	0,328	78,454	3,5	1006,36	6,8	9	8,7	1	1	1	1	1	1	1	1	1	0	1	-45,947851	274,180718	274,480325	0
14.01.2021	21:27:55	0	0	2,937495	5,019	98,46	0,328	78,47	3,5	1006,3	6,9	8,7	8,7	1	1	1	1	1	1	1	1	1	0	1	-48,555321	274,252785	272,209879	0
14.01.2021	21:27:56	0	0	4,632203	4,8765	94,3524	0,332	78,459	3,5	1006,24	6,9	8,7	8,7	1	1	1	1	1	1	1	1	1	0	1	-46,863989	274,349295	274,352961	0
14.01.2021	21:27:57	0	0	4,180281	4,8225	94,0932	0,326	78,463	3,5	1006,36	7	9	8,7	1	1	1	1	1	1	1	1	1	0	1	-46,793517	274,335694	274,35974	0
14.01.2021	21:27:58	0	0	3,276436	4,56	93,3264	0,328	78,468	3,5	1006,32	6,9	8,7	8,7	1	1	1	1	1	1	1	1	1	0	1	-46,723044	274,314556	274,331243	0
14.01.2021	21:27:59	0	0	4,519223	4,58925	94,0896	0,333	78,471	3,5	1006,24	6,9	9	8,7	1	1	1	1	1	1	1	1	1	0	1	-49,753347	274,355343	271,491928	0
14.01.2021	21:28:00	0	0	3,728359	5,334	88,1172	0,333	78,517	3,5	1006,38	6,8	9	8,7	1	1	1	1	1	1	1	1	1	0	1	-45,031712	274,17922	275,389458	0
14.01.2021	21:28:01	0	0	3,728359	5,334	88,1172	0,333	78,517	3,5	1006,38	6,8	9	8,7	1	1	1	1	1	1	1	1	1	0	1	-45,031712	274,17922	275,389458	0
14.01.2021	21:28:02	0	0	2,937477	5,28525	91,1448	0,332	78,518	3,5	1006,48	6,8	8,7	8,8	1	1	1	1	1	1	1	1	1	0	1	-48,20296	274,294949	272,759544	0
14.01.2021	21:28:03	0	0	4,745184	5,3325	88,1172	0,33	78,538	3,5	1006,26	6,8	9	8,7	1	1	1	1	1	1	1	1	1	0	1	-52,78365	274,347783	268,42622	0
14.01.2021	21:28:04	0	0	3,954296	5,50875	90,036	0,332	78,541	3,5	1006,4	6,8	9	8,8	1	1	1	1	1	1	1	1	1	0	1	-45,525018	274,237749	275,169843	0
14.01.2021	21:28:05	0	0	2,372578	5,14725	91,8792	0,326	78,558	3,5	1006,36	6,8	9	8,8	1	1	1	1	1	1	1	1	1	0	1	-52,43129	274,361393	268,842322	0
14.01.2021	21:28:06	0	0	2,711534	4,7145	86,9652	0,33	78,558	3,5	1006,44	7	9	8,7	1	1	1	1	1	1	1	1	1	0	1	-46,863989	274,267833	273,971617	0
14.01.2021	21:28:07	0	0	2,711534	4,49325	86,6448	0,327	78,57	3,5	1006,34	6,9	9	8,7	1	1	1	1	1	1	1	1	1	0	1	-50,17618	274,174725	270,223979	0
14.01.2021	21:28:08	0	0	2,598553	4,461	89,7084	0,325	78,566	3,5	1006,36	6,9	9	8,7	1	1	1	1	1	1	1	1	1	0	1	-47,921071	274,296456	273,048489	0
14.01.2021	21:28:09	0	0	2,259598	4,35075	74,9232	0,338	78,581	3,5	1006,5	6,9	8,7	8,8	1	1	1	1	1	1	1	1	1	0	1	-50,81043	274,361393	270,463181	0
14.01.2021	21:28:10	0	0	3,276436	4,2765	88,0956	0,335	78,569	3,5	1006,34	6,8	8,7	8,7	1	1	1	1	1	1	1	1	1	0	1	-47,991543	274,230235	272,668173	0
14.01.2021	21:28:11	0	0	4,519223	4,2885	91,1808	0,338	78,56	3,5	1006,38	7	9	8,7	1	1	1	1	1	1	1	1	1	0	1	-46,018323	274,365932	275,276548	0
14.01.2021	21:28:12	0	0	2,824514	3,97275	97,6968	0,339	78,557	3,5	1006,54	6,8	8,7	8,7	1	1	1	1	1	1	1	1	1	0	1	-48,766737	274,236246	271,921093	0
14.01.2021	21:28:13	0	0	5,197075	3,6495	97,3008	0,333	78,543	3,5	1006,28	6,8	8,8	8,8	1	1	1	1	1	1	1	1	1	0	1	-48,555321	274,20171	271,970996	0
14.01.2021	21:28:14	0	0	2,485572	3,43575	88,9236	0,338	78,548	3,5	1006,32	6,9	9	8,7	1	1	1	1	1	1	1	1	1	0	1	-46,511628	274,319084	274,563856	0
14.01.2021	21:28:15	0	0	2,937477	3,2655	73,152	0,334	78,547	3,5	1006,28	6,8	9	8,8	1	1	1	1	1	1	1	1	1	0	1	-45,947851	274,364419	275,339933	0
14.01.2021	21:28:16	0	0	5,197106	3,291	84,4488	0,336	78,527	3,5	1006,32	6,8	8,7	8,7	1	1	1	1	1	1	1	1	1	0	1	-44,96124	274,251281	275,796923	0
14.01.2021	21:28:17	0	0	3,615356	3,3315	91,8648	0,342	78,538	3,5	1006,38	6,9	9	8,8	1	1	1	1	1	1	1	1	1	0	1	-46,370684	274,371985	274,952542	0
14.01.2021	21:28:18	0	0	4,067276	3,21225	73,0476	0,337	78,525	3,5	1006,22	6,8	9	8,8	1	1	1	1	1	1	1	1	1	0	1	-48,766737	274,358368	272,492705	0
14.01.2021	21:28:19	0	0	4,745184	2,86575	75,9996	0,34	78,531	3,5	1006,4	6,9	9	8,7	1	1	1	1	1	1	1	1	1	0	1	-46,300211	274,332673	274,838899	0
14.01.2021	21:28:20	0	0	3,163437	2,66625	83,7936	0,342	78,51	3,5	1006,32	6,8	9	8,8	1	1	1	1	1	1	1	1	1	0	1	-47,921071	274,358368	273,338371	0
14.01.2021	21:28:21	0	0	2,485572	2,5965	80,8812	0,339	78,516	3,5	1006,34	6,9	9	8,7	1	1	1	1	1	1	1	1	1	0	1	-47,286822	274,316065	273,77453	0
14.01.2021	21:28:22	0	0	2,711534	2,69025	85,158	0,342	78,489	3,5	1006,42	6,8	9	8,7	1	1	1	1	1	1	1	1	1	0	1	-48,696265	274,180718	271,731911	0
14.01.2021	21:28:23	0	0	2,711517	2,8275	72,666	0,342	78,494	3,5	1006,36	6,8	8,8	8,8	1	1	1	1	1	1	1	1	1	0	1	-46,793517	274,240755	273,915407	0
14.01.2021	21:28:24	0	0	3,954296	3,042	79,0344	0,344	78,472	3,5	1006,42	6,8	9	8,8	1	1	1	1	1	1	1	1	1	0	1	-48,273432	274,192711	272,210809	0
14.01.2021	21:28:25	0	0	4,858164	3,12525	77,1984	0,342	78,461	3,5	1006,26	6,8	9	8,7	1	1	1	1	1	1	1	1	1	0	1	-47,709655	274,243762	273,013334	0
14.01.2021	21:28:26	0	0	4,406242	3,21375	69,8472	0,336	78,458	3,5	1006,16	6,8	8,7	8,7	1	1	1	1	1	1	1	1	1	0	1	-44,890768	274,334184	276,255415	0
14.01.2021	21:28:27	0	0	4,406216	3,168	82,0224	0,34	78,444	3,5	1006,38	6,8	9	8,8	1	1	1	1	1	1	1	1	1	0	1	-45,243129	274,210713	275,325288	0
14.01.2021	21:28:28	0	0	3,276417	3,159	93,7188	0,34	78,432	3,5	1006,34	6,8	9	8,8	1	1	1	1	1	1	1	1	1	0	1	-46,793517	274,20321	273,739816	0
14.01.2021	21:28:29	0	0	3,95432	2,94825	98,4528	0,339	78,416	3,5	1006,24	6,8	8,7	8,7	1	1	1	1	1	1	1	1	1	0	1	-49,964764	274,314556	271,089523	0
14.01.2021	21:28:30	0	0	2,937512	2,78775	94,8384	0,346	78,407	3,5	1006,3	6,9	9	8,6	1	1	1	1	1	1	1	1	1	0	1	-45,59549	274,231738	275,071254	0
14.01.2021	21:28:31	0	0	3,502376	2,74275	99,8748	0,346	78,389	3,5	1006,46	6,8	9	8,8	1	1	1	1	1	1	1	1	1	0	1	-47,498238	274,362906	273,782459	0
14.01.2021	21:28:32	0	0	4,519195	2,895	90,4212	0,344	78,381	3,5	1006,52	6,9	8,7	8,8	1	1	1	1	1	1	1	1	1	0	1	-49,541931	274,228733	271,110758	0
14.01.2021	21:28:33	0	0	3,163437	3,0135	84,4236	0,345	78,359	3,5	1006,32	6,9	8,7	8,8	1	1	1	1	1	1	1	1	1	0	1	-44,890768	274,173227	275,502388	0
14.01.2021	21:28:34	0	0	4,180256	3,14175	85,9896	0,346	78,348	3,5	1006,48	6,9	8,7	8,8	1	1	1	1	1	1	1	1	1	0	1	-47,004933	274,31003	274,028163	0
14.01.2021	21:28:35	0	0	4,180256	3,1995	81,2016	0,338	78,329	3,5	1006,12	6,9	8,8	8,8	1	1	1	1	1	1	1	1	1	0	1	-50,880902	274,35988	270,385624	0
14.01.2021	21:28:36	0	0	4,180281	3,3135	93,3228	0,346	78,307	3,5	1006,36	6,9	8,7	8,7	1	1	1	1	1	1	1	1	1	0	1	-47,21635	274,282893	273,689729	0
14.01.2021	21:28:37	0	0	4,519223	3,3795	90,0288	0,342	78,312	3,5	1006,24	6,9	9	8,7	1	1	1	1	1	1	1	1	1	0	1	-45,102185	274,171729	275,28397	0
14.01.2021	21:28:38	0	0	3,163437	3,2535	85,536	0,348	78,301	3,5	1006,34	6,9	8,8	8,8	1	1	1	1	1	1	1	1	1	0	1	-46,018323	274,213715	274,564133	0
14.01.2021	21:28:39	0	0	4,745184	3,05925	77,1876	0,346	78,28	3,5	1006,28	6,8	9	8,7	1	1	1	1	1	1	1	1	1	0	1	-47,21635	274,350807	274,007681	0
14.01.2021	21:28:40	0	0	4,406242	2,9355	81,5832	0,345	78,271	3,5	1006,3	6,9	9	8,7	1	1	1	1	1	1	1	1	1	0	1	-43,551797	274,230235	277,107919	0
14.01.2021	21:28:41	0	0	3,954296	2,8185	82,5984	0,344	78,265	3,5	1006,4	6,9	8,7	8,8	1	1	1	1	1	1	1	1	1	0	1	-45,59549	274,189712	274,874731	0
14.01.2021	21:28:42	0	0	4,745155	2,69625	78,7572	0,348	78,243	3,5	1006,36	6,9	8,8	8,8	1	1	1	1	1	1	1	1	1	0	1	-47,56871	274,225728	273,069927	0
14.01.2021	21:28:43	0	0	3,841316	2,85525	102,9672	0,347	78,242	3,5	1006,4	7	8,7	8,8	1	1	1	1	1	1	1	1	1	0	1	-44,890768	274,17922	275,530402	0
14.01.2021	21:28:44	0	0	3,615356	2,94825	99,5076	0,341	78,218	3,5	1006,26	6,9	8,7	8,8	1	1	1	1	1	1	1	1	1	0	1	-47,780127	274,240755	272,928796	0
14.01.2021	21:28:45	0	0	3,728336	2,83575	79,1604	0,343	78,215	3,5	1006,34	6,8	9	8,8	1	1	1	1	1	1	1	1	1	0	1	-48,132488	274,358368	273,126954	0
14.01.2021	21:28:46	0	0	4,632203	2,75625	95,6196	0,343	78,193	3,5	1006,32	6,9	9	8,7	1	1	1	1	1	1	1	1	1	0	1	-46,300211	274,249777	274,450915	0
14.01.2021	21:28:47	0	0	2,824497	2,82675	79,0596	0,345	78,202	3,5	1006,18	6,9	8,7	8,8	1	1	1	1	1	1	1	1	1	0	1	-47,850599	274,364419	273,437184	0
14.01.2021	21:28:48	0	0	2,372592	2,976	90,0468	0,352	78,183	3,5	1006,12	6,8	9	8,7	1	1	1	1	1	1	1	1	1	0	1	-46,229739	274,299472	274,753935	0
14.01.2021	21:28:49	0	0	2,711534	3,17175	98,0892	0,351	78,169	3,5	1006,26	6,8	8,7	8,7	1	1	1	1	1	1	1	1	1	0	1	-46,723044	274,356855	274,529314	0
14.01.2021	21:28:50	0	0	3,841316	3,31875	84,3804	0,347	78,161	3,5	1006,46	6,9	9	8,8	1	1	1	1	1	1	1	1	1	0	1	-47,427766	274,317575	273,640652	0
14.01.2021	21:28:51	0	0	4,858135	3,345	81,2088	0,346	78,132	3,5	1006,32	6,8	8,8	8,8	1	1	1	1	1	1	1	1	1	0	1	-47,56871	274,347783	273,64116	0
14.01.2021	21:28:52	0	0	2,485558	3,20475	77,2128	0,346	78,147	3,5	1006,36	6,9	8,7	8,8	1	1	1	1	1	1	1	1	1	0	1	-47,145877	274,285906	273,774303	0
14.01.2021	21:28:53	0	0	3,502376	3,32775	89,028	0,348	78,139	3,5	1006,38	6,8	8,7	8,8	1	1	1	1	1	1	1	1	1	0	1	-43,199436	274,188213	277,263775	0
14.01.2021	21:28:54	0	0	2,937477	3,528	87,3432	0,35	78,132	3,5	1006,2	6,8	8,8	8,8	1	1	1	1	1	1	1	1	1	0	1	-44,538407	274,281386	276,360621	0
14.01.2021	21:28:55	0	0	3,163437	3,59475	83,376	0,348	78,12	3,5	1006,4	6,9	8,8	8,8	1	1	1	1	1	1	1	1	1	0	1	-48,766737	274,167235	271,598416	0
14.01.2021	21:28:56	0	0	4,293261	3,62925	85,518	0,348	78,112	3,5	1006,42	6,8	8,7	8,7	1	1	1	1	1	1	1	1	1	0	1	-43,058492	274,236246	277,629339	0
14.01.2021	21:28:57	0	0	4,180256	3,7005	80,1036	0,345	78,095	3,5	1006,32	6,9	8,8	8,8	1	1	1	1	1	1	1	1	1	0	1	-49,260042	274,19571	271,238221	0
14.01.2021	21:28:58	0	0	4,858135	3,681	82,3572	0,351	78,081	3,5	1006,34	6,8	8,8	8,8	1	1	1	1	1	1	1	1	1	0	1	-47,427766	274,325122	273,67599	0
14.01.2021	21:28:59	0	0	4,858135	3,56325	81,9684	0,35	78,098	3,5	1006,28	6,9	8,8	8,8	1	1	1	1	1	1	1	1	1	0	1	-51,021846	274,322103	270,067772	0
14.01.2021	21:29:00	0	0	3,389397	3,47775	91,5156	0,352	78,104	3,5	1006,4	6,9	8,7	8,8	1	1	1	1	1	1	1	1	1	0	1	-45,102185	274,221223	275,51538	0
14.01.2021	21:29:01	0	0	3,954296	3,51675	91,8756	0,352	78,113	3,5	1006,38	6,9	8,7	8,8	1	1	1	1	1	1	1	1	1	0	1	-45,102185	274,221223	275,51538	0
14.01.2021	21:29:02	0	0	3,954296	3,51675	91,8756	0,352	78,113	3,5	1006,38	6,9	8,7	8,8	1	1	1	1	1	1	1	1	1	0	1	-42,071882	274,185214	278,377313	0
14.01.2021	21:29:03	0	0	4,406242	3,4755	79,4232	0,348	78,115	3,5	1006,36	6,9	8,7	8,7	1	1	1	1	1	1	1	1	1	0	1	-45,806906	274,234743	274,873895	0
14.01.2021	21:29:04	0	0	2,372592	3,55275	84,4524	0,351	78,125	3,5	1006,38	6,9	8,8	8,7	1	1	1	1	1	1	1	1	1	0	1	-49,330514	274,185214	271,118681	0
14.01.2021	21:29:05	0	0	4,519195	3,56325	82,9692	0,349	78,113	3,5	1006,4	6,9	9	8,8	1	1	1	1	1	1	1	1	1	0	1	-45,384073	274,290427	275,557266	0
14.01.2021	21:29:06	0	0	3,841339	3,8745	107,7444	0,349	78,118	3,5	1006,48	6,9	8,7	8,7	1	1	1	1	1	1	1	1	1	0	1	-46,229739	274,353831	275,008454	0
14.01.2021	21:29:07	0	0	2,937477	4,30875	107,7516	0,343	78,116	3,5	1006,26	6,9	9	8,8	1	1	1	1	1	1	1	1	1	0	1	-48,837209	274,284399	272,07592	0
14.01.2021	21:29:08	0	0	3,502398	4,2945	88,1028	0,352	78,12	3,5	1006,26	6,8	8,7	8,7	1	1	1	1	1	1	1	1	1	0	1	-44,326991	274,182217	276,108191	0
14.01.2021	21:29:09	0	0	2,259598	3,89025	94,734	0,347	78,128	3,5	1006,38	6,8	8,7	8,8	1	1	1	1	1	1	1	1	1	0	1	-42,142354	274,245266	278,587668	0
14.01.2021	21:29:10	0	0	3,389397	3,66975	96,5772	0,347	78,116	3,5	1006,4	6,9	9	8,8	1	1	1	1	1	1	1	1	1	0	1	-45,172657	274,17922	275,248514	0
14.01.2021	21:29:11	0	0	4,180256	3,783	87,4368	0,347	78,131	3,5	1006,38	6,9	9	8,8	1	1	1	1	1	1	1	1	1	0	1	-48,484848	274,245266	272,245174	0
14.01.2021	21:29:12	0	0	3,615356	4,19625	91,8972	0,348	78,106	3,5	1006,4	6,8	9	8,8	1	1	1	1	1	1	1	1	1	0	1	-47,498238	274,353831	273,739955	0
14.01.2021	21:29:13	0	0	4,180256	4,46475	80,1504	0,35	78,123	3,5	1006,34	6,9	9	8,8	1	1	1	1	1	1	1	1	1	0	1	-42,283298	274,299472	278,700377	0
14.01.2021	21:29:14	0	0	3,841316	4,59075	81,2124	0,348	78,127	3,5	1006,3	6,9	8,8	8,8	1	1	1	1	1	1	1	1	1	0	1	-46,863989	274,171729	273,522166	0
14.01.2021	21:29:15	0	0	3,841316	4,6275	82,3428	0,347	78,113	3,5	1006,26	6,9	9	8,8	1	1	1	1	1	1	1	1	1	0	1	-44,045102	274,323613	277,051584	0
14.01.2021	21:29:16	0	0	4,745184	4,46925	91,8684	0,344	78,118	3,5	1006,32	6,8	8,7	8,7	1	1	1	1	1	1	1	1	1	0	1	-48,343904	274,20021	272,175398	0
14.01.2021	21:29:17	0	0	3,050457	4,73025	83,3184	0,347	78,115	3,5	1006,32	6,9	8,7	8,8	1	1	1	1	1	1	1	1	1	0	1	-44,679352	274,305504	276,33256	0
14.01.2021	21:29:18	0	0	3,502376	4,71825	89,316	0,344	78,122	3,5	1006,34	6,9	8,7	8,8	1	1	1	1	1	1	1	1	1	0	1	-46,793517	274,358368	274,465925	0
14.01.2021	21:29:19	0	0	2,485572	4,554	86,2416	0,344	78,121	3,5	1006,42	6,9	8,7	8,7	1	1	1	1	1	1	1	1	1	0	1	-43,904158	274,299472	277,079517	0
14.01.2021	21:29:20	0	0	4,0673	4,46925	86,958	0,351	78,122	3,5	1006,4	6,9	8,8	8,7	1	1	1	1	1	1	1	1	1	0	1	-43,269908	274,368958	278,039138	0
14.01.2021	21:29:21	0	0	3,163437	4,2255	92,2968	0,345	78,118	3,5	1006,2	6,8	8,7	8,8	1	1	1	1	1	1	1	1	1	0	1	-44,115574	274,302488	276,882217	0
14.01.2021	21:29:22	0	0	3,163437	3,87	94,086	0,347	78,13	3,5	1006,34	6,9	8,8	8,8	1	1	1	1	1	1	1	1	1	0	1	-45,806906	274,19421	274,684345	0
14.01.2021	21:29:23	0	0	4,971115	3,696	102,9384	0,346	78,127	3,5	1006,34	6,9	8,8	8,8	1	1	1	1	1	1	1	1	1	0	1	-41,930937	274,325122	279,172818	0
14.01.2021	21:29:24	0	0	3,163456	3,7455	108,4608	0,347	78,127	3,5	1006,34	6,9	8,7	8,7	1	1	1	1	1	1	1	1	1	0	1	-46,863989	274,19871	273,6483	0
14.01.2021	21:29:25	0	0	4,971115	3,8385	95,5116	0,345	78,129	3,5	1006,38	6,9	8,8	8,8	1	1	1	1	1	1	1	1	1	0	1	-46,229739	274,252785	274,535461	0
14.01.2021	21:29:26	0	0	2,485558	3,9435	108,8568	0,35	78,114	3,5	1006,16	6,9	8,8	8,8	1	1	1	1	1	1	1	1	1	0	1	-44,538407	274,182217	275,896774	0
14.01.2021	21:29:27	0	0	2,372592	4,01925	118,3104	0,342	78,109	3,5	1006,26	6,9	8,8	8,7	1	1	1	1	1	1	1	1	1	0	1	-45,384073	274,263317	275,430404	0
14.01.2021	21:29:28	0	0	4,293261	4,0935	112,6332	0,345	78,118	3,5	1006,48	6,9	8,8	8,7	1	1	1	1	1	1	1	1	1	0	1	-46,5821	274,365932	274,71277	0
14.01.2021	21:29:29	0	0	5,423035	4,14825	111,8772	0,344	78,111	3,5	1006,34	6,9	8,7	8,8	1	1	1	1	1	1	1	1	1	0	1	-46,300211	274,248273	274,44388	0
14.01.2021	21:29:30	0	0	2,598537	4,122	95,526	0,348	78,132	3,5	1006,42	6,9	8,7	8,8	1	1	1	1	1	1	1	1	1	0	1	-47,145877	274,350807	274,078153	0
14.01.2021	21:29:31	0	0	4,180256	3,84975	118,7424	0,345	78,127	3,5	1006,3	6,9	9	8,8	1	1	1	1	1	1	1	1	1	0	1	-44,397463	274,231738	276,269281	0
14.01.2021	21:29:32	0	0	3,276417	3,23925	71,9712	0,346	78,136	3,5	1006,24	6,9	8,8	8,8	1	1	1	1	1	1	1	1	1	0	1	-46,018323	274,340227	275,156159	0
14.01.2021	21:29:33	0	0	2,824497	2,7525	83,7144	0,343	78,133	3,5	1006,36	6,9	8,7	8,8	1	1	1	1	1	1	1	1	1	0	1	-47,850599	274,319084	273,224885	0
14.01.2021	21:29:34	0	0	4,0673	2,58975	86,274	0,348	78,14	3,5	1006,44	6,9	8,7	8,7	1	1	1	1	1	1	1	1	1	0	1	-48,062016	274,177721	272,352151	0
14.01.2021	21:29:35	0	0	4,406216	2,67675	108,126	0,345	78,14	3,5	1006,36	6,9	8,8	8,8	1	1	1	1	1	1	1	1	1	0	1	-45,665962	274,317575	275,402456	0
14.01.2021	21:29:36	0	0	3,615356	2,77125	75,618	0,347	78,129	3,5	1006,28	6,9	8,7	8,8	1	1	1	1	1	1	1	1	1	0	1	-49,964764	274,35988	271,301762	0
14.01.2021	21:29:37	0	0	2,259625	2,7765	101,7648	0,346	78,124	3,5	1006,38	6,8	8,8	8,6	1	1	1	1	1	1	1	1	1	0	1	-43,833686	274,347783	277,376184	0
14.01.2021	21:29:38	0	0	3,389397	2,85375	75,222	0,345	78,1	3,5	1006,24	6,9	8,7	8,8	1	1	1	1	1	1	1	1	1	0	1	-42,706131	274,215217	277,883345	0
14.01.2021	21:29:39	0	0	2,711517	2,65875	109,9764	0,35	78,109	3,5	1006,32	6,9	8,8	8,8	1	1	1	1	1	1	1	1	1	0	1	-52,43129	274,236246	268,256541	0
14.01.2021	21:29:40	0	0	3,615356	2,349	96,9624	0,347	78,109	3,5	1006,36	6,9	8,8	8,8	1	1	1	1	1	1	1	1	1	0	1	-46,652572	274,19871	273,859717	0
14.01.2021	21:29:41	0	0	4,180256	2,13675	79,038	0,343	78,111	3,5	1006,26	6,9	8,8	8,8	1	1	1	1	1	1	1	1	1	0	1	-46,370684	274,191211	274,106547	0
14.01.2021	21:29:42	0	0	2,824497	2,016	75,96	0,345	78,109	3,5	1006,28	6,9	8,8	8,8	1	1	1	1	1	1	1	1	1	0	1	-46,793517	274,319084	274,281967	0
14.01.2021	21:29:43	0	0	4,406216	2,049	109,9656	0,346	78,111	3,5	1006,34	6,9	8,7	8,8	1	1	1	1	1	1	1	1	1	0	1	-48,837209	274,356855	272,415149	0
14.01.2021	21:29:44	0	0	4,971145	2,1975	94,8168	0,343	78,087	3,5	1006,12	6,9	8,8	8,7	1	1	1	1	1	1	1	1	1	0	1	-47,498238	274,325122	273,605517	0
14.01.2021	21:29:45	0	0	3,050457	2,367	100,3644	0,344	78,093	3,5	1006,36	6,9	8,8	8,8	1	1	1	1	1	1	1	1	1	0	1	-47,56871	274,167235	272,796443	0
14.01.2021	21:29:46	0	0	4,519223	2,49975	103,6692	0,345	78,084	3,5	1006,26	6,9	8,8	8,7	1	1	1	1	1	1	1	1	1	0	1	-45,806906	274,216718	274,789591	0
14.01.2021	21:29:47	0	0	4,519223	2,51625	96,3288	0,346	78,081	3,5	1006,5	6,9	8,8	8,7	1	1	1	1	1	1	1	1	1	0	1	-43,410853	274,338716	277,756553	0
14.01.2021	21:29:48	0	0	4,632203	2,59875	99,5112	0,355	78,061	3,5	1006,32	6,9	8,7	8,7	1	1	1	1	1	1	1	1	1	0	1	-49,82382	274,290427	271,11752	0
14.01.2021	21:29:49	0	0	3,95432	2,781	91,4724	0,349	78,07	3,5	1006,4	6,9	8,8	8,7	1	1	1	1	1	1	1	1	1	0	1	-44,467935	274,350807	276,756095	0
14.01.2021	21:29:50	0	0	3,502376	2,91375	75,2004	0,343	78,056	3,5	1006,34	6,9	9	8,8	1	1	1	1	1	1	1	1	1	0	1	-48,555321	274,27988	272,336658	0
14.01.2021	21:29:51	0	0	2,711517	3,159	83,3868	0,344	78,052	3,5	1006,36	6,9	8,8	8,8	1	1	1	1	1	1	1	1	1	0	1	-42,776603	274,161246	277,560557	0
14.01.2021	21:29:52	0	0	4,180281	3,123	73,422	0,343	78,043	3,5	1006,38	6,9	8,8	8,7	1	1	1	1	1	1	1	1	1	0	1	-47,357294	274,28892	273,576992	0
14.01.2021	21:29:53	0	0	2,824514	3,468	70,2036	0,339	78,024	3,5	1006,3	6,9	8,7	8,7	1	1	1	1	1	1	1	1	1	0	1	-47,286822	274,353831	273,951371	0
14.01.2021	21:29:54	0	0	3,050457	3,63525	59,8284	0,341	78,016	3,5	1006,38	6,9	8,8	8,8	1	1	1	1	1	1	1	1	1	0	1	-47,004933	274,20321	273,528399	0
14.01.2021	21:29:55	0	0	2,824497	3,84525	73,0332	0,348	78,025	3,5	1006,3	6,9	8,8	8,8	1	1	1	1	1	1	1	1	1	0	1	-47,075405	274,168733	273,296748	0
14.01.2021	21:29:56	0	0	4,180256	3,927	79,7508	0,344	78,037	3,5	1006,34	6,9	8,8	8,8	1	1	1	1	1	1	1	1	1	0	1	-46,723044	274,284399	274,190085	0
14.01.2021	21:29:57	0	0	4,406242	4,2765	84,4236	0,344	78,044	3,5	1006,16	6,9	8,8	8,7	1	1	1	1	1	1	1	1	1	0	1	-45,454545	274,350807	275,769485	0
14.01.2021	21:29:58	0	0	3,389417	4,2135	97,0416	0,341	78,063	3,5	1006,46	6,9	8,8	8,7	1	1	1	1	1	1	1	1	1	0	1	-47,004933	274,322103	274,084685	0
14.01.2021	21:29:59	0	0	3,163437	4,1895	104,4216	0,341	78,063	3,5	1006,42	6,9	8,8	8,8	1	1	1	1	1	1	1	1	1	0	1	-43,904158	274,349295	277,312792	0
14.01.2021	21:30:00	0	0	4,745155	4,224	95,8212	0,344	78,073	3,5	1006,44	6,9	8,8	8,8	1	1	1	1	1	1	1	1	1	0	1	-44,608879	274,343249	276,579756	0
14.01.2021	21:30:01	0	0	4,745155	4,224	95,8212	0,344	78,073	3,5	1006,44	6,9	8,8	8,8	1	1	1	1	1	1	1	1	1	0	1	-44,608879	274,343249	276,579756	0
14.01.2021	21:30:02	0	0	4,858164	4,3755	94,1292	0,346	78,079	3,5	1006,38	6,9	8,8	8,7	1	1	1	1	1	1	1	1	1	0	1	-46,863989	274,228733	273,7887	0
14.01.2021	21:30:03	0	0	2,711517	4,27275	88,9488	0,348	78,065	3,5	1006,32	6,9	8,8	8,8	1	1	1	1	1	1	1	1	1	0	1	-45,947851	274,171729	274,438304	0
14.01.2021	21:30:04	0	0	3,728359	4,0815	93,3084	0,337	78,057	3,5	1006,34	6,9	8,8	8,7	1	1	1	1	1	1	1	1	1	0	1	-47,075405	274,276867	273,802476	0
14.01.2021	21:30:05	0	0	3,276436	4,0395	87,3576	0,339	78,058	3,5	1006,34	6,9	8,8	8,7	1	1	1	1	1	1	1	1	1	0	1	-45,454545	274,164241	274,89661	0
14.01.2021	21:30:06	0	0	5,084125	4,16025	85,5432	0,344	78,059	3,5	1006,32	6,9	9	8,7	1	1	1	1	1	1	1	1	1	0	1	-43,692741	274,275361	277,178092	0
14.01.2021	21:30:07	0	0	2,937495	4,14	88,9596	0,341	78,035	3,5	1006,4	6,9	8,8	8,7	1	1	1	1	1	1	1	1	1	0	1	-46,934461	274,358368	274,324981	0
14.01.2021	21:30:08	0	0	4,406242	4,06425	84,7836	0,335	78,044	3,5	1006,26	6,9	8,7	8,7	1	1	1	1	1	1	1	1	1	0	1	-44,538407	274,322103	276,551211	0
14.01.2021	21:30:09	0	0	3,615356	3,89025	85,518	0,344	78,025	3,5	1006,12	6,9	8,8	8,8	1	1	1	1	1	1	1	1	1	0	1	-46,511628	274,282893	274,39445	0
14.01.2021	21:30:10	0	0	3,728359	3,939	89,9964	0,341	78,011	3,5	1006,4	6,9	8,8	8,7	1	1	1	1	1	1	1	1	1	0	1	-47,004933	274,189712	273,465287	0
14.01.2021	21:30:11	0	0	4,632203	4,33875	84,4236	0,337	78,006	3,5	1006,36	6,9	8,8	8,7	1	1	1	1	1	1	1	1	1	0	1	-47,21635	274,323613	273,880337	0
14.01.2021	21:30:12	0	0	2,372578	4,7115	96,2244	0,342	78,008	3,5	1006,12	6,9	8,8	8,8	1	1	1	1	1	1	1	1	1	0	1	-48,062016	274,27988	272,829963	0
14.01.2021	21:30:13	0	0	3,615356	5,2005	90,3996	0,338	78,009	3,5	1006,44	6,9	8,8	8,8	1	1	1	1	1	1	1	1	1	0	1	-41,649049	274,192711	278,835192	0
14.01.2021	21:30:14	0	0	4,406268	5,3895	88,56	0,339	78,007	3,5	1006,34	6,9	8,7	8,6	1	1	1	1	1	1	1	1	1	0	1	-50,458069	274,299472	270,525606	0
14.01.2021	21:30:15	0	0	2,598553	5,49675	85,5144	0,335	78,001	3,5	1006,34	6,9	8,8	8,7	1	1	1	1	1	1	1	1	1	0	1	-48,273432	274,159749	272,056732	0
14.01.2021	21:30:16	0	0	4,180256	5,50575	83,7072	0,33	78,01	3,5	1006,32	6,9	8,8	8,8	1	1	1	1	1	1	1	1	1	0	1	-46,723044	274,307013	274,295928	0
14.01.2021	21:30:17	0	0	3,276436	5,33025	78,0444	0,34	78,013	3,5	1006,44	6,9	8,8	8,7	1	1	1	1	1	1	1	1	1	0	1	-46,511628	274,353831	274,726565	0
14.01.2021	21:30:18	0	0	2,711534	4,9395	75,9528	0,34	78,042	3,5	1006,36	6,9	8,8	8,7	1	1	1	1	1	1	1	1	1	0	1	-42,424242	274,285906	278,495938	0
14.01.2021	21:30:19	0	0	3,841339	5,12625	70,218	0,34	78,068	3,5	1006,38	6,9	8,8	8,7	1	1	1	1	1	1	1	1	1	0	1	-45,384073	274,170231	274,99508	0
14.01.2021	21:30:20	0	0	2,937495	5,58525	95,4936	0,349	78,063	3,5	1006,36	6,9	8,8	8,7	1	1	1	1	1	1	1	1	1	0	1	-47,21635	274,264822	273,60517	0
14.01.2021	21:30:21	0	0	4,293261	5,81925	94,752	0,337	78,075	3,5	1006,48	6,9	8,8	8,7	1	1	1	1	1	1	1	1	1	0	1	-44,749824	274,188213	275,713388	0
14.01.2021	21:30:22	0	0	3,841339	5,706	98,0532	0,341	78,075	3,5	1006,22	6,9	8,8	8,7	1	1	1	1	1	1	1	1	1	0	1	-48,484848	274,221223	272,132716	0
14.01.2021	21:30:23	0	0	2,937495	5,40675	89,3196	0,341	78,089	3,5	1006,46	6,9	8,8	8,7	1	1	1	1	1	1	1	1	1	0	1	-46,793517	274,186713	273,662686	0
14.01.2021	21:30:24	0	0	3,050457	4,81725	95,7996	0,34	78,098	3,5	1006,34	6,9	8,8	8,8	1	1	1	1	1	1	1	1	1	0	1	-44,820296	274,264822	276,001223	0
14.01.2021	21:30:25	0	0	2,598537	3,97575	79,398	0,336	78,094	3,5	1006,26	6,9	8,7	8,8	1	1	1	1	1	1	1	1	1	0	1	-42,212826	274,341738	278,968732	0
14.01.2021	21:30:26	0	0	3,050475	3,61275	84,0528	0,337	78,116	3,5	1006,36	6,9	8,8	8,7	1	1	1	1	1	1	1	1	1	0	1	-45,102185	274,311538	275,937975	0
14.01.2021	21:30:27	0	0	3,163456	3,44925	78,66	0,341	78,143	3,5	1006,34	6,9	8,8	8,7	1	1	1	1	1	1	1	1	1	0	1	-50,105708	274,356855	271,14665	0
14.01.2021	21:30:28	0	0	4,519223	4,02225	78,6528	0,339	78,163	3,5	1006,3	6,9	8,8	8,7	1	1	1	1	1	1	1	1	1	0	1	-45,877378	274,287413	275,049854	0
14.01.2021	21:30:29	0	0	2,598553	4,029	98,4276	0,337	78,175	3,5	1006,34	6,9	8,8	8,7	1	1	1	1	1	1	1	1	1	0	1	-47,850599	274,347783	273,359271	0
14.01.2021	21:30:30	0	0	3,050457	3,63075	86,6376	0,341	78,182	3,5	1006,3	6,9	8,8	8,8	1	1	1	1	1	1	1	1	1	0	1	-45,313601	274,335694	275,839656	0
14.01.2021	21:30:31	0	0	3,276436	3,6285	80,8992	0,335	78,185	3,5	1006,38	6,9	8,8	8,7	1	1	1	1	1	1	1	1	1	0	1	-46,934461	274,204711	273,605887	0
14.01.2021	21:30:32	0	0	3,841316	3,72375	89,334	0,333	78,202	3,5	1006,24	6,9	8,8	8,8	1	1	1	1	1	1	1	1	1	0	1	-50,458069	274,311538	270,58209	0
14.01.2021	21:30:33	0	0	4,406216	3,738	91,5048	0,343	78,209	3,5	1006,3	6,9	8,8	8,8	1	1	1	1	1	1	1	1	1	0	1	-42,424242	274,356855	278,828116	0
14.01.2021	21:30:34	0	0	2,598553	3,97125	105,12	0,337	78,193	3,5	1006,52	6,9	8,8	8,7	1	1	1	1	1	1	1	1	1	0	1	-48,414376	274,19571	272,083887	0
14.01.2021	21:30:35	0	0	2,824514	4,22175	91,26	0,341	78,224	3,5	1006,32	6,9	8,7	8,7	1	1	1	1	1	1	1	1	1	0	1	-45,665962	274,365932	275,628909	0
14.01.2021	21:30:36	0	0	4,293261	4,356	81,2088	0,334	78,208	3,5	1006,34	6,9	8,8	8,7	1	1	1	1	1	1	1	1	1	0	1	-45,947851	274,350807	275,27618	0
14.01.2021	21:30:37	0	0	2,711534	4,1955	81,5904	0,343	78,231	3,5	1006,36	6,9	8,8	8,7	1	1	1	1	1	1	1	1	1	0	1	-51,233263	274,337205	269,927068	0
14.01.2021	21:30:38	0	0	4,745184	4,25025	87,3684	0,342	78,235	3,5	1006,34	6,9	8,8	8,7	1	1	1	1	1	1	1	1	1	0	1	-47,639183	274,20171	272,887135	0
14.01.2021	21:30:39	0	0	5,310087	4,28625	90,7848	0,332	78,236	3,5	1006,3	6,9	8,8	8,7	1	1	1	1	1	1	1	1	1	0	1	-47,286822	274,252785	273,478378	0
14.01.2021	21:30:40	0	0	4,180281	4,50225	97,7004	0,334	78,23	3,5	1006,34	6,9	8,8	8,7	1	1	1	1	1	1	1	1	1	0	1	-48,837209	274,384097	272,542758	0
14.01.2021	21:30:41	0	0	3,502398	4,5705	93,2976	0,335	78,225	3,5	1006,36	6,9	8,8	8,7	1	1	1	1	1	1	1	1	1	0	1	-47,498238	274,251281	273,259925	0
14.01.2021	21:30:42	0	0	4,519223	4,54125	89,316	0,336	78,222	3,5	1006,34	6,9	8,8	8,7	1	1	1	1	1	1	1	1	1	0	1	-46,018323	274,367445	275,283635	0
14.01.2021	21:30:43	0	0	2,372578	4,5855	90,7848	0,341	78,234	3,5	1006,46	6,9	8,8	8,8	1	1	1	1	1	1	1	1	1	0	1	-49,048626	274,249777	271,702501	0
14.01.2021	21:30:44	0	0	2,937495	4,557	82,3248	0,35	78,224	3,5	1006,36	6,9	8,8	8,7	1	1	1	1	1	1	1	1	1	0	1	-50,458069	274,311538	270,58209	0
14.01.2021	21:30:45	0	0	2,485572	4,4805	82,3356	0,334	78,235	3,5	1006,34	6,9	8,8	8,7	1	1	1	1	1	1	1	1	1	0	1	-44,890768	274,373498	276,439548	0
14.01.2021	21:30:46	0	0	4,745155	4,398	80,1324	0,342	78,232	3,5	1006,38	6,9	8,8	8,8	1	1	1	1	1	1	1	1	1	0	1	-43,904158	274,322103	277,185461	0
14.01.2021	21:30:47	0	0	4,632175	4,29225	85,1688	0,34	78,234	3,5	1006,36	6,9	8,8	8,8	1	1	1	1	1	1	1	1	1	0	1	-48,484848	274,255794	272,294427	0
14.01.2021	21:30:48	0	0	2,711534	4,1475	88,1028	0,343	78,211	3,5	1006,42	6,9	8,8	8,7	1	1	1	1	1	1	1	1	1	0	1	-48,555321	274,367445	272,746638	0
14.01.2021	21:30:49	0	0	4,632203	4,134	86,6448	0,344	78,201	3,5	1006,42	6,9	8,8	8,7	1	1	1	1	1	1	1	1	1	0	1	-47,850599	274,212214	272,724837	0
14.01.2021	21:30:50	0	0	3,389397	4,01625	85,1724	0,342	78,216	3,5	1006,4	6,9	8,8	8,8	1	1	1	1	1	1	1	1	1	0	1	-47,21635	274,19571	273,281914	0
14.01.2021	21:30:51	0	0	4,971145	3,74325	85,8996	0,343	78,216	3,5	1006,34	6,9	8,8	8,7	1	1	1	1	1	1	1	1	1	0	1	-44,96124	274,334184	276,184943	0
14.01.2021	21:30:52	0	0	4,858164	3,54975	84,0384	0,345	78,198	3,5	1006,26	6,9	8,8	8,7	1	1	1	1	1	1	1	1	1	0	1	-46,723044	274,375012	274,614363	0
14.01.2021	21:30:53	0	0	2,598553	3,348	84,78	0,35	78,194	3,5	1006,4	6,9	8,8	8,7	1	1	1	1	1	1	1	1	1	0	1	-47,286822	274,296456	273,682738	0
14.01.2021	21:30:54	0	0	2,711517	3,1425	86,2632	0,344	78,208	3,5	1006,4	6,8	8,8	8,8	1	1	1	1	1	1	1	1	1	0	1	-46,229739	274,361393	275,043872	0
14.01.2021	21:30:55	0	0	3,389417	3,15075	69,8472	0,341	78,184	3,5	1006,32	6,9	8,8	8,7	1	1	1	1	1	1	1	1	1	0	1	-46,652572	274,358368	274,60687	0
14.01.2021	21:30:56	0	0	4,519223	3,2145	86,2596	0,338	78,158	3,5	1006,3	6,9	8,8	8,7	1	1	1	1	1	1	1	1	1	0	1	-45,877378	274,302488	275,120413	0
14.01.2021	21:30:57	0	0	5,084125	3,0735	90,7704	0,35	78,165	3,5	1006,46	6,9	8,7	8,7	1	1	1	1	1	1	1	1	1	0	1	-54,193094	274,379554	267,165591	0
14.01.2021	21:30:58	0	0	4,519223	2,883	87,3504	0,347	78,15	3,5	1006,38	6,9	8,8	8,7	1	1	1	1	1	1	1	1	1	0	1	-47,21635	274,266328	273,612213	0
14.01.2021	21:30:59	0	0	4,180281	2,9985	82,314	0,343	78,134	3,5	1006,34	6,9	8,8	8,7	1	1	1	1	1	1	1	1	1	0	1	-47,286822	274,382582	274,086051	0
14.01.2021	21:31:00	0	0	3,389417	3,09825	82,9692	0,352	78,107	3,5	1006,42	6,9	8,8	8,7	1	1	1	1	1	1	1	1	1	0	1	-47,780127	274,37804	273,571464	0
14.01.2021	21:31:01	0	0	3,389417	3,09825	82,9692	0,352	78,107	3,5	1006,42	6,9	8,8	8,7	1	1	1	1	1	1	1	1	1	0	1	-47,780127	274,37804	273,571464	0
14.01.2021	21:31:02	0	0	3,050457	3,207	71,2152	0,342	78,085	3,5	1006,36	6,9	8,8	8,8	1	1	1	1	1	1	1	1	1	0	1	-49,82382	274,311538	271,21634	0
14.01.2021	21:31:03	0	0	3,050457	3,51675	75,6	0,348	78,085	3,5	1006,4	6,9	8,8	8,8	1	1	1	1	1	1	1	1	1	0	1	-52,008457	274,189712	268,461764	0
14.01.2021	21:31:04	0	0	3,276436	3,57675	75,9744	0,345	78,068	3,5	1006,48	6,9	8,8	8,7	1	1	1	1	1	1	1	1	1	0	1	-48,696265	274,317575	272,372153	0
14.01.2021	21:31:05	0	0	3,163456	3,59625	86,2812	0,35	78,046	3,5	1006,4	6,9	8,8	8,7	1	1	1	1	1	1	1	1	1	0	1	-46,863989	274,186713	273,592214	0
14.01.2021	21:31:06	0	0	2,937477	3,6135	67,2768	0,339	78,041	3,5	1006,34	6,9	8,8	8,8	1	1	1	1	1	1	1	1	1	0	1	-43,904158	274,284399	277,008971	0
14.01.2021	21:31:07	0	0	3,502398	3,6885	62,4132	0,35	78,038	3,5	1006,42	6,9	8,8	8,7	1	1	1	1	1	1	1	1	1	0	1	-43,692741	274,361393	277,58087	0
14.01.2021	21:31:08	0	0	4,971145	3,9975	62,4024	0,34	78,019	3,5	1006,42	6,9	8,8	8,7	1	1	1	1	1	1	1	1	1	0	1	-49,260042	274,329652	271,864924	0
14.01.2021	21:31:09	0	0	4,632203	3,74775	70,6068	0,343	78,005	3,5	1006,46	6,9	8,8	8,7	1	1	1	1	1	1	1	1	1	0	1	-46,088795	274,356855	275,163563	0
14.01.2021	21:31:10	0	0	5,197106	3,5565	77,6016	0,343	77,997	3,5	1006,38	6,9	8,8	8,7	1	1	1	1	1	1	1	1	1	0	1	-47,921071	274,350807	273,302959	0
14.01.2021	21:31:11	0	0	2,937495	3,58875	61,362	0,35	78,013	3,5	1006,38	6,9	8,8	8,7	1	1	1	1	1	1	1	1	1	0	1	-44,820296	274,313047	276,226927	0
14.01.2021	21:31:12	0	0	3,502398	3,55125	71,6004	0,345	78,012	3,5	1006,32	6,9	8,8	8,7	1	1	1	1	1	1	1	1	1	0	1	-42,706131	274,192711	277,77811	0
14.01.2021	21:31:13	0	0	4,180281	3,41925	93,3408	0,348	78,004	3,5	1006,46	6,9	8,8	8,7	1	1	1	1	1	1	1	1	1	0	1	-48,20296	274,252785	272,56224	0
14.01.2021	21:31:14	0	0	2,259611	3,495	74,5236	0,344	77,999	3,5	1006,34	6,9	8,8	8,7	1	1	1	1	1	1	1	1	1	0	1	-44,186047	274,192711	276,298194	0
14.01.2021	21:31:15	0	0	3,615356	3,73275	83,7288	0,344	77,986	3,5	1006,34	6,9	8,8	8,8	1	1	1	1	1	1	1	1	1	0	1	-46,511628	274,30098	274,479105	0
14.01.2021	21:31:16	0	0	2,937495	4,53225	90,4032	0,347	77,989	3,5	1006,38	6,9	8,8	8,7	1	1	1	1	1	1	1	1	1	0	1	-44,608879	274,19571	275,889384	0
14.01.2021	21:31:17	0	0	2,598553	5,0145	93,3156	0,354	77,979	3,5	1006,36	6,9	8,8	8,7	1	1	1	1	1	1	1	1	1	0	1	-48,343904	274,236246	272,343926	0
14.01.2021	21:31:18	0	0	2,485558	5,2125	91,1736	0,348	77,98	3,5	1006,4	6,9	8,8	8,8	1	1	1	1	1	1	1	1	1	0	1	-47,145877	274,367445	274,156081	0
14.01.2021	21:31:19	0	0	4,180281	5,073	90,7632	0,352	77,97	3,5	1006,54	6,9	8,8	8,7	1	1	1	1	1	1	1	1	1	0	1	-47,21635	274,340227	273,958132	0
14.01.2021	21:31:20	0	0	3,95432	4,5615	90,0108	0,348	77,973	3,5	1006,38	6,9	8,8	8,7	1	1	1	1	1	1	1	1	1	0	1	-48,062016	274,240755	272,646908	0
14.01.2021	21:31:21	0	0	3,389417	4,49025	89,3448	0,347	77,964	3,5	1006,44	6,9	8,8	8,7	1	1	1	1	1	1	1	1	1	0	1	-50,599013	274,206211	269,948351	0
14.01.2021	21:31:22	0	0	2,598537	4,4505	90,774	0,345	77,942	3,5	1006,36	6,9	8,8	8,8	1	1	1	1	1	1	1	1	1	0	1	-45,806906	274,276867	275,070975	0
14.01.2021	21:31:23	0	0	4,519195	4,2255	91,8684	0,349	77,95	3,5	1006,3	6,9	8,8	8,8	1	1	1	1	1	1	1	1	1	0	1	-42,212826	274,368958	279,096221	0
14.01.2021	21:31:24	0	0	2,824514	4,2585	78,2676	0,347	77,934	3,5	1006,28	6,9	8,8	8,7	1	1	1	1	1	1	1	1	1	0	1	-44,820296	274,228733	275,832393	0
14.01.2021	21:31:25	0	0	4,0673	4,47825	85,8888	0,351	77,925	3,5	1006,48	6,9	8,8	8,7	1	1	1	1	1	1	1	1	1	0	1	-45,947851	274,35988	275,318676	0
14.01.2021	21:31:26	0	0	2,259611	4,84125	84,0456	0,342	77,927	3,5	1006,36	6,9	8,8	8,7	1	1	1	1	1	1	1	1	1	0	1	-45,877378	274,23324	274,796394	0
14.01.2021	21:31:27	0	0	3,615378	5,1795	77,22	0,351	77,923	3,5	1006,36	6,9	8,7	8,7	1	1	1	1	1	1	1	1	1	0	1	-47,427766	274,349295	273,789184	0
14.01.2021	21:31:28	0	0	4,519223	5,22	82,3536	0,351	77,927	3,5	1006,4	6,9	8,8	8,7	1	1	1	1	1	1	1	1	1	0	1	-46,300211	274,30098	274,690521	0
14.01.2021	21:31:29	0	0	4,971145	5,121	88,5564	0,348	77,921	3,5	1006,3	6,9	8,8	8,7	1	1	1	1	1	1	1	1	1	0	1	-48,20296	274,352319	273,028151	0
14.01.2021	21:31:30	0	0	3,728359	5,5005	93,7152	0,342	77,923	3,5	1006,34	6,9	8,8	8,7	1	1	1	1	1	1	1	1	1	0	1	-44,326991	274,325122	276,776765	0
14.01.2021	21:31:31	0	0	4,632203	5,33775	83,3292	0,339	77,921	3,5	1006,28	6,9	8,8	8,7	1	1	1	1	1	1	1	1	1	0	1	-47,850599	274,335694	273,302658	0
14.01.2021	21:31:32	0	0	4,858164	4,97025	86,2704	0,343	77,927	3,5	1006,42	6,9	8,8	8,7	1	1	1	1	1	1	1	1	1	0	1	-47,357294	274,361393	273,916317	0
14.01.2021	21:31:33	0	0	3,615356	4,8585	90,414	0,349	77,925	3,5	1006,4	6,9	8,8	8,8	1	1	1	1	1	1	1	1	1	0	1	-42,706131	274,227231	277,939532	0
14.01.2021	21:31:34	0	0	2,711534	4,9755	86,6844	0,343	77,932	3,5	1006,42	6,9	8,8	8,7	1	1	1	1	1	1	1	1	1	0	1	-47,709655	274,252785	273,055545	0
14.01.2021	21:31:35	0	0	3,502398	5,2695	94,3812	0,346	77,949	3,5	1006,56	6,9	8,8	8,7	1	1	1	1	1	1	1	1	1	0	1	-47,498238	274,182217	272,936943	0
14.01.2021	21:31:36	0	0	3,502398	5,45775	77,562	0,344	77,931	3,5	1006,4	6,9	8,8	8,7	1	1	1	1	1	1	1	1	1	0	1	-46,652572	274,30098	274,338161	0
14.01.2021	21:31:37	0	0	2,937495	5,214	84,4524	0,344	77,962	3,5	1006,44	6,9	8,8	8,7	1	1	1	1	1	1	1	1	1	0	1	-46,441156	274,376526	274,903343	0
14.01.2021	21:31:38	0	0	4,858164	4,90275	81,5724	0,345	77,963	3,5	1006,46	6,9	8,8	8,7	1	1	1	1	1	1	1	1	1	0	1	-47,357294	274,261812	273,450142	0
14.01.2021	21:31:39	0	0	4,406242	4,5615	83,7324	0,349	77,968	3,5	1006,36	6,9	8,8	8,7	1	1	1	1	1	1	1	1	1	0	1	-46,018323	274,204711	274,522025	0
14.01.2021	21:31:40	0	0	2,937495	4,36875	90,7704	0,343	77,953	3,5	1006,22	6,9	8,8	8,7	1	1	1	1	1	1	1	1	1	0	1	-46,511628	274,27988	274,38035	0
14.01.2021	21:31:41	0	0	3,95432	4,72125	96,57	0,347	77,969	3,5	1006,38	6,9	8,8	8,7	1	1	1	1	1	1	1	1	1	0	1	-49,964764	274,367445	271,337194	0
14.01.2021	21:31:42	0	0	2,598553	4,845	91,8936	0,349	77,958	3,5	1006,46	6,9	8,8	8,7	1	1	1	1	1	1	1	1	1	0	1	-47,639183	274,236246	273,048648	0
14.01.2021	21:31:43	0	0	4,406242	4,278	83,3436	0,347	77,951	3,5	1006,4	6,9	8,8	8,7	1	1	1	1	1	1	1	1	1	0	1	-46,793517	274,19571	273,704747	0
14.01.2021	21:31:44	0	0	2,824514	4,08075	88,5888	0,348	77,977	3,5	1006,32	6,9	8,8	8,7	1	1	1	1	1	1	1	1	1	0	1	-44,96124	274,365932	276,33363	0
14.01.2021	21:31:45	0	0	4,519223	4,446	83,7432	0,351	77,972	3,5	1006,3	6,9	8,8	8,7	1	1	1	1	1	1	1	1	1	0	1	-48,484848	274,331163	272,64719	0
14.01.2021	21:31:46	0	0	4,519223	4,3335	79,4304	0,34	77,978	3,5	1006,24	6,9	8,8	8,7	1	1	1	1	1	1	1	1	1	0	1	-43,833686	274,361393	277,439926	0
14.01.2021	21:31:47	0	0	4,406242	4,06725	95,832	0,346	77,992	3,5	1006,4	6,9	8,8	8,7	1	1	1	1	1	1	1	1	1	0	1	-49,541931	274,332673	271,597179	0
14.01.2021	21:31:48	0	0	2,824514	4,014	94,1004	0,351	77,993	3,5	1006,38	6,9	8,8	8,7	1	1	1	1	1	1	1	1	1	0	1	-44,96124	274,352319	276,269871	0
14.01.2021	21:31:49	0	0	4,519223	4,0005	86,6916	0,348	77,997	3,5	1006,38	6,9	8,8	8,7	1	1	1	1	1	1	1	1	1	0	1	-44,326991	274,332673	276,812119	0
14.01.2021	21:31:50	0	0	2,824514	3,96975	78,6744	0,351	78,031	3,5	1006,44	6,9	8,8	8,7	1	1	1	1	1	1	1	1	1	0	1	-45,877378	274,216718	274,719119	0
14.01.2021	21:31:51	0	0	3,841339	4,0095	82,5912	0,346	78,027	3,5	1006,46	6,9	8,8	8,7	1	1	1	1	1	1	1	1	1	0	1	-48,766737	274,364419	272,521046	0
14.01.2021	21:31:52	0	0	3,050475	3,79875	66,294	0,342	78,033	3,5	1006,46	6,9	8,8	8,7	1	1	1	1	1	1	1	1	1	0	1	-43,481325	274,31003	277,551771	0
14.01.2021	21:31:53	0	0	3,502398	3,6615	65,0808	0,345	78,054	3,5	1006,4	6,9	8,8	8,7	1	1	1	1	1	1	1	1	1	0	1	-45,59549	274,180718	274,832686	0
14.01.2021	21:31:54	0	0	3,728359	3,6285	79,7832	0,344	78,055	3,5	1006,34	6,9	8,8	8,7	1	1	1	1	1	1	1	1	1	0	1	-47,357294	274,343249	273,831341	0
14.01.2021	21:31:55	0	0	3,615378	3,6615	81,1908	0,352	78,057	3,5	1006,42	6,9	8,8	8,7	1	1	1	1	1	1	1	1	1	0	1	-44,256519	274,343249	276,932116	0
14.01.2021	21:31:56	0	0	3,389417	3,426	84,06	0,348	78,061	3,5	1006,34	6,9	8,8	8,7	1	1	1	1	1	1	1	1	1	0	1	-51,092319	274,356855	270,16004	0
14.01.2021	21:31:57	0	0	2,711534	3,06825	70,6068	0,35	78,041	3,5	1006,56	6,9	8,8	8,7	1	1	1	1	1	1	1	1	1	0	1	-49,682875	274,368958	271,626171	0
14.01.2021	21:31:58	0	0	4,519223	2,74725	76,374	0,346	78,05	3,5	1006,4	6,9	8,8	8,7	1	1	1	1	1	1	1	1	1	0	1	-46,018323	274,337205	275,142008	0
14.01.2021	21:31:59	0	0	2,711534	2,5725	58,8672	0,356	78,061	3,5	1006,38	6,9	8,8	8,7	1	1	1	1	1	1	1	1	1	0	1	-44,467935	274,364419	276,819848	0
14.01.2021	21:32:00	0	0	2,937495	2,742	68,4072	0,351	78,052	3,5	1006,3	6,9	8,8	8,7	1	1	1	1	1	1	1	1	1	0	1	-47,21635	274,185214	273,232846	0
14.01.2021	21:32:01	0	0	2,937495	2,742	68,4072	0,351	78,052	3,5	1006,3	6,9	8,8	8,7	1	1	1	1	1	1	1	1	1	0	1	-47,21635	274,185214	273,232846	0
14.01.2021	21:32:02	0	0	3,050457	2,853	64,2204	0,348	78,046	3,5	1006,28	6,9	8,8	8,8	1	1	1	1	1	1	1	1	1	0	1	-49,894292	274,270844	270,955403	0
14.01.2021	21:32:03	0	0	4,858164	2,916	68,8644	0,354	78,053	3,5	1006,4	6,9	8,8	8,7	1	1	1	1	1	1	1	1	1	0	1	-45,665962	274,358368	275,59348	0
14.01.2021	21:32:04	0	0	2,372578	2,87325	71,964	0,348	78,048	3,5	1006,42	6,9	8,8	8,8	1	1	1	1	1	1	1	1	1	0	1	-44,679352	274,237749	276,015509	0
14.01.2021	21:32:05	0	0	4,180281	2,82075	85,914	0,353	78,045	3,5	1006,4	6,9	8,8	8,7	1	1	1	1	1	1	1	1	1	0	1	-47,56871	274,361393	273,704901	0
14.01.2021	21:32:06	0	0	2,711534	2,59425	97,3332	0,351	78,057	3,5	1006,42	6,9	8,8	8,7	1	1	1	1	1	1	1	1	1	0	1	-48,907681	274,326632	272,203144	0
14.01.2021	21:32:07	0	0	3,95432	2,39025	80,9136	0,35	78,053	3,5	1006,6	6,9	8,8	8,7	1	1	1	1	1	1	1	1	1	0	1	-45,736434	274,19871	274,775855	0
14.01.2021	21:32:08	0	0	4,632175	2,2935	90,0036	0,349	78,044	3,5	1006,46	6,9	8,8	8,8	1	1	1	1	1	1	1	1	1	0	1	-47,427766	274,307013	273,591206	0
14.01.2021	21:32:09	0	0	3,502398	2,49825	76,3632	0,352	78,036	3,5	1006,38	6,9	8,8	8,7	1	1	1	1	1	1	1	1	1	0	1	-45,806906	274,19421	274,684345	0
14.01.2021	21:32:10	0	0	3,050475	2,4915	68,3928	0,352	78,044	3,5	1006,48	6,9	8,8	8,7	1	1	1	1	1	1	1	1	1	0	1	-46,300211	274,275361	274,570622	0
14.01.2021	21:32:11	0	0	4,632203	2,5785	80,8668	0,351	78,033	3,5	1006,36	6,9	8,8	8,7	1	1	1	1	1	1	1	1	1	0	1	-47,286822	274,373498	274,043494	0
14.01.2021	21:32:12	0	0	3,841339	2,87925	83,754	0,349	78,045	3,5	1006,4	6,9	8,8	8,7	1	1	1	1	1	1	1	1	1	0	1	-45,806906	274,263317	275,007571	0
14.01.2021	21:32:13	0	0	2,598553	3,207	91,1448	0,353	78,039	3,5	1006,36	6,9	8,8	8,7	1	1	1	1	1	1	1	1	1	0	1	-50,105708	274,37804	271,245883	0
14.01.2021	21:32:14	0	0	2,711534	3,5325	86,2848	0,349	78,032	3,5	1006,38	6,9	8,8	8,7	1	1	1	1	1	1	1	1	1	0	1	-46,5821	274,227231	274,063563	0
14.01.2021	21:32:15	0	0	3,95432	3,39	78,66	0,35	78,042	3,5	1006,4	6,9	8,8	8,7	1	1	1	1	1	1	1	1	1	0	1	-46,511628	274,316065	274,549724	0
14.01.2021	21:32:16	0	0	3,050475	3,18375	93,7188	0,345	78,002	3,5	1006,34	6,9	8,8	8,7	1	1	1	1	1	1	1	1	1	0	1	-43,763214	274,209212	276,798185	0
14.01.2021	21:32:17	0	0	4,293261	2,964	92,646	0,354	78,008	3,5	1006,42	6,9	8,8	8,7	1	1	1	1	1	1	1	1	1	0	1	-45,806906	274,338716	275,3605	0
14.01.2021	21:32:18	0	0	3,276436	2,68275	61,308	0,35	77,997	3,5	1006,4	6,9	8,8	8,7	1	1	1	1	1	1	1	1	1	0	1	-43,551797	274,225728	277,08684	0
14.01.2021	21:32:19	0	0	4,180281	2,439	79,002	0,35	77,995	3,5	1006,3	6,9	8,8	8,7	1	1	1	1	1	1	1	1	1	0	1	-46,229739	274,326632	274,881086	0
14.01.2021	21:32:20	0	0	4,971145	2,23875	77,5908	0,351	77,986	3,5	1006,38	6,9	8,8	8,7	1	1	1	1	1	1	1	1	1	0	1	-49,119098	274,381068	272,24668	0
14.01.2021	21:32:21	0	0	3,841339	2,2335	81,9612	0,349	77,974	3,5	1006,46	6,9	8,8	8,7	1	1	1	1	1	1	1	1	1	0	1	-48,978154	274,239252	271,723738	0
14.01.2021	21:32:22	0	0	2,937495	2,574	73,4472	0,352	77,967	3,5	1006,2	6,9	8,8	8,7	1	1	1	1	1	1	1	1	1	0	1	-45,877378	274,210713	274,691039	0
14.01.2021	21:32:23	0	0	3,95432	3,36825	80,1252	0,348	77,97	3,5	1006,44	6,9	8,8	8,7	1	1	1	1	1	1	1	1	1	0	1	-45,384073	274,278374	275,500856	0
14.01.2021	21:32:24	0	0	2,711534	3,72225	74,5128	0,351	77,983	3,5	1006,38	6,9	8,8	8,7	1	1	1	1	1	1	1	1	1	0	1	-47,639183	274,373498	273,691133	0
14.01.2021	21:32:25	0	0	3,389417	3,43125	84,8088	0,355	77,973	3,5	1006,34	6,9	8,8	8,7	1	1	1	1	1	1	1	1	1	0	1	-49,330514	274,19721	271,174761	0
14.01.2021	21:32:26	0	0	4,632203	3,1095	91,4868	0,353	77,97	3,5	1006,48	6,9	8,8	8,7	1	1	1	1	1	1	1	1	1	0	1	-46,088795	274,317575	274,979623	0
14.01.2021	21:32:27	0	0	3,502398	3,05175	86,9796	0,344	77,963	3,5	1006,42	6,9	8,8	8,7	1	1	1	1	1	1	1	1	1	0	1	-48,343904	274,255794	272,435372	0
14.01.2021	21:32:28	0	0	3,728359	3,129	84,4128	0,348	77,966	3,5	1006,32	6,9	8,8	8,7	1	1	1	1	1	1	1	1	1	0	1	-42,424242	274,382582	278,94863	0
14.01.2021	21:32:29	0	0	2,598553	3,33	81,5688	0,353	77,96	3,5	1006,36	6,9	8,8	8,7	1	1	1	1	1	1	1	1	1	0	1	-50,246653	274,225728	270,391985	0
14.01.2021	21:32:30	0	0	4,293261	3,15525	80,5032	0,349	77,962	3,5	1006,34	6,9	8,8	8,7	1	1	1	1	1	1	1	1	1	0	1	-46,229739	274,19571	274,268524	0
14.01.2021	21:32:31	0	0	2,598553	3,26925	81,2304	0,348	77,951	3,5	1006,46	6,9	8,8	8,7	1	1	1	1	1	1	1	1	1	0	1	-44,186047	274,30098	276,804686	0
14.01.2021	21:32:32	0	0	3,841339	3,49425	84,4128	0,352	77,94	3,5	1006,34	6,9	8,8	8,7	1	1	1	1	1	1	1	1	1	0	1	-53,206483	274,370471	268,109652	0
14.01.2021	21:32:33	0	0	2,937495	3,48675	68,0184	0,352	77,954	3,5	1006,36	6,9	8,8	8,7	1	1	1	1	1	1	1	1	1	0	1	-49,260042	274,246769	271,477014	0
14.01.2021	21:32:34	0	0	2,937495	3,38025	66,8988	0,352	77,946	3,5	1006,42	6,9	8,8	8,7	1	1	1	1	1	1	1	1	1	0	1	-47,639183	274,216718	272,957315	0
14.01.2021	21:32:35	0	0	3,050475	3,60225	75,2256	0,347	77,931	3,5	1006,32	6,9	8,8	8,7	1	1	1	1	1	1	1	1	1	0	1	-50,458069	274,219721	270,152472	0
14.01.2021	21:32:36	0	0	3,841339	3,6675	67,2876	0,352	77,94	3,5	1006,42	6,9	8,8	8,7	1	1	1	1	1	1	1	1	1	0	1	-48,343904	274,276867	272,533977	0
14.01.2021	21:32:37	0	0	4,293261	3,64875	68,7564	0,353	77,914	3,5	1006,5	6,9	8,8	8,7	1	1	1	1	1	1	1	1	1	0	1	-46,511628	274,381068	274,85415	0
14.01.2021	21:32:38	0	0	3,502398	3,65775	58,1148	0,354	77,919	3,5	1006,38	6,9	8,8	8,7	1	1	1	1	1	1	1	1	1	0	1	-44,96124	274,297964	276,015377	0
14.01.2021	21:32:39	0	0	2,711517	3,70575	61,6824	0,35	77,918	3,5	1006,48	6,9	8,8	8,8	1	1	1	1	1	1	1	1	1	0	1	-48,062016	274,225728	272,576622	0
14.01.2021	21:32:40	0	0	4,632203	3,55425	61,3008	0,347	77,913	3,5	1006,4	6,9	8,8	8,7	1	1	1	1	1	1	1	1	1	0	1	-43,763214	274,316065	277,298138	0
14.01.2021	21:32:41	0	0	3,728359	3,39	69,5052	0,345	77,907	3,5	1006,4	6,9	8,8	8,7	1	1	1	1	1	1	1	1	1	0	1	-44,749824	274,370471	276,566312	0
14.01.2021	21:32:42	0	0	3,276417	3,315	83,7108	0,346	77,889	3,5	1006,3	6,9	8,8	8,8	1	1	1	1	1	1	1	1	1	0	1	-49,400987	274,249777	271,35014	0
14.01.2021	21:32:43	0	0	2,711534	3,56775	98,154	0,346	77,882	3,5	1006,4	6,9	8,8	8,7	1	1	1	1	1	1	1	1	1	0	1	-47,427766	274,236246	273,260064	0
14.01.2021	21:32:44	0	0	3,615378	3,6735	83,3364	0,352	77,89	3,5	1006,26	6,9	8,8	8,7	1	1	1	1	1	1	1	1	1	0	1	-46,652572	274,230235	274,007144	0
14.01.2021	21:32:45	0	0	4,293261	3,522	77,2236	0,348	77,884	3,5	1006,38	6,9	8,8	8,7	1	1	1	1	1	1	1	1	1	0	1	-47,286822	274,326632	273,824003	0
14.01.2021	21:32:46	0	0	4,971115	3,222	73,4256	0,348	77,879	3,5	1006,5	6,9	8,8	8,8	1	1	1	1	1	1	1	1	1	0	1	-42,142354	274,381068	279,223424	0
14.01.2021	21:32:47	0	0	2,598553	2,85975	86,742	0,348	77,885	3,5	1006,3	6,9	8,8	8,7	1	1	1	1	1	1	1	1	1	0	1	-46,863989	274,325122	274,239767	0
14.01.2021	21:32:48	0	0	3,163456	2,721	62,7948	0,348	77,873	3,5	1006,42	6,9	8,8	8,7	1	1	1	1	1	1	1	1	1	0	1	-47,709655	274,206211	272,837709	0
14.01.2021	21:32:49	0	0	4,406242	2,43975	66,5136	0,346	77,86	3,5	1006,42	6,9	8,8	8,7	1	1	1	1	1	1	1	1	1	0	1	-45,243129	274,236246	275,444702	0
14.01.2021	21:32:50	0	0	4,745184	2,27475	73,4184	0,348	77,892	3,5	1006,38	6,9	8,8	8,7	1	1	1	1	1	1	1	1	1	0	1	-44,608879	274,368958	276,700167	0
14.01.2021	21:32:51	0	0	4,858164	2,13225	65,4444	0,341	77,886	3,5	1006,3	6,9	8,8	8,7	1	1	1	1	1	1	1	1	1	0	1	-49,541931	274,302488	271,455861	0
14.01.2021	21:32:52	0	0	2,259611	2,07975	68,4108	0,346	77,895	3,5	1006,54	6,9	8,8	8,7	1	1	1	1	1	1	1	1	1	0	1	-47,780127	274,384097	273,599841	0
14.01.2021	21:32:53	0	0	3,95432	2,037	74,1564	0,35	77,884	3,5	1006,44	6,9	8,8	8,7	1	1	1	1	1	1	1	1	1	0	1	-45,877378	274,349295	275,339571	0
14.01.2021	21:32:54	0	0	2,824514	2,10825	84,0564	0,35	77,89	3,5	1006,34	6,9	8,8	8,7	1	1	1	1	1	1	1	1	1	0	1	-46,018323	274,337205	275,142008	0
14.01.2021	21:32:55	0	0	3,728359	2,14875	70,2288	0,345	77,893	3,5	1006,5	6,9	8,8	8,7	1	1	1	1	1	1	1	1	1	0	1	-43,833686	274,379554	277,524999	0
14.01.2021	21:32:56	0	0	3,95432	2,508	78,642	0,349	77,878	3,5	1006,36	6,9	8,8	8,7	1	1	1	1	1	1	1	1	1	0	1	-47,145877	274,338716	274,021529	0
14.01.2021	21:32:57	0	0	3,276436	2,8845	74,1672	0,347	77,881	3,5	1006,42	6,9	8,8	8,7	1	1	1	1	1	1	1	1	1	0	1	-48,20296	274,379554	273,155725	0
14.01.2021	21:32:58	0	0	4,406242	3,11175	69,5592	0,346	77,876	3,5	1006,26	6,9	8,8	8,7	1	1	1	1	1	1	1	1	1	0	1	-44,96124	274,20171	275,565077	0
14.01.2021	21:32:59	0	0	5,197106	3,3405	69,1344	0,342	77,853	3,5	1006,42	6,9	8,8	8,7	1	1	1	1	1	1	1	1	1	0	1	-45,525018	274,261812	275,282418	0
14.01.2021	21:33:00	0	0	3,050475	3,44175	75,6216	0,339	77,854	3,5	1006,4	6,9	8,8	8,7	1	1	1	1	1	1	1	1	1	0	1	-46,723044	274,316065	274,338308	0
14.01.2021	21:33:01	0	0	3,050475	3,44175	75,6216	0,339	77,854	3,5	1006,4	6,9	8,8	8,7	1	1	1	1	1	1	1	1	1	0	1	-46,723044	274,316065	274,338308	0
14.01.2021	21:33:02	0	0	3,389417	3,72	73,4328	0,34	77,848	3,5	1006,22	6,9	8,8	8,7	1	1	1	1	1	1	1	1	1	0	1	-45,313601	274,382582	276,059272	0
14.01.2021	21:33:03	0	0	4,180281	3,912	80,8596	0,334	77,86	3,5	1006,36	6,9	8,8	8,7	1	1	1	1	1	1	1	1	1	0	1	-49,330514	274,323613	271,766172	0
14.01.2021	21:33:04	0	0	3,615378	4,08225	71,2296	0,344	77,864	3,5	1006,42	6,9	8,8	8,7	1	1	1	1	1	1	1	1	1	0	1	-44,96124	274,371985	276,361985	0
14.01.2021	21:33:05	0	0	2,824514	4,31325	76,8384	0,347	77,863	3,5	1006,34	6,9	8,8	8,7	1	1	1	1	1	1	1	1	1	0	1	-46,300211	274,237749	274,394649	0
14.01.2021	21:33:06	0	0	2,711534	4,3035	74,1564	0,341	77,868	3,5	1006,32	6,9	8,8	8,7	1	1	1	1	1	1	1	1	1	0	1	-45,59549	274,367445	275,706468	0
14.01.2021	21:33:07	0	0	3,728359	4,1235	67,2912	0,34	77,855	3,5	1006,42	6,9	8,8	8,7	1	1	1	1	1	1	1	1	1	0	1	-50,105708	274,350807	271,118322	0
14.01.2021	21:33:08	0	0	4,519223	4,5285	79,4232	0,34	77,868	3,5	1006,44	6,9	8,8	8,7	1	1	1	1	1	1	1	1	1	0	1	-49,330514	274,316065	271,730838	0
14.01.2021	21:33:09	0	0	4,858164	4,8765	88,9596	0,342	77,861	3,5	1006,4	6,9	8,8	8,7	1	1	1	1	1	1	1	1	1	0	1	-46,652572	274,352319	274,578539	0
14.01.2021	21:33:10	0	0	2,711534	4,554	97,3044	0,34	77,867	3,5	1006,38	6,9	8,8	8,7	1	1	1	1	1	1	1	1	1	0	1	-46,793517	274,269338	274,049133	0
14.01.2021	21:33:11	0	0	2,598553	4,00425	80,1108	0,341	77,868	3,5	1006,46	6,9	8,8	8,7	1	1	1	1	1	1	1	1	1	0	1	-47,286822	274,373498	274,043494	0
14.01.2021	21:33:12	0	0	3,502398	3,75525	85,5108	0,335	77,851	3,5	1006,34	6,9	8,8	8,7	1	1	1	1	1	1	1	1	1	0	1	-45,454545	274,313047	275,592677	0
14.01.2021	21:33:13	0	0	2,824514	3,81825	91,152	0,338	77,848	3,5	1006,38	6,9	8,8	8,7	1	1	1	1	1	1	1	1	1	0	1	-48,062016	274,368958	273,247031	0
14.01.2021	21:33:14	0	0	4,632203	4,0665	95,5116	0,344	77,855	3,5	1006,58	6,9	8,8	8,7	1	1	1	1	1	1	1	1	1	0	1	-44,820296	274,325122	276,28346	0
14.01.2021	21:33:15	0	0	3,728336	4,56075	78,2532	0,338	77,854	3,5	1006,44	6,9	8,8	8,8	1	1	1	1	1	1	1	1	1	0	1	-45,384073	274,237749	275,310788	0
14.01.2021	21:33:16	0	0	2,711534	4,90425	58,8528	0,339	77,858	3,5	1006,46	6,9	8,8	8,7	1	1	1	1	1	1	1	1	1	0	1	-49,612403	274,385611	271,77466	0
14.01.2021	21:33:17	0	0	2,937477	4,4565	73,1196	0,336	77,857	3,5	1006,16	6,9	8,8	8,8	1	1	1	1	1	1	1	1	1	0	1	-46,793517	274,281386	274,105511	0
14.01.2021	21:33:18	0	0	3,163456	4,0995	83,7396	0,342	77,851	3,5	1006,42	6,9	8,8	8,7	1	1	1	1	1	1	1	1	1	0	1	-48,625793	274,353831	272,6124	0
14.01.2021	21:33:19	0	0	4,858164	4,371	90,018	0,336	77,856	3,5	1006,46	6,9	8,8	8,7	1	1	1	1	1	1	1	1	1	0	1	-46,300211	274,325122	274,803544	0
14.01.2021	21:33:20	0	0	4,406242	5,109	91,5156	0,331	77,848	3,5	1006,56	6,9	8,8	8,7	1	1	1	1	1	1	1	1	1	0	1	-49,330514	274,358368	271,928927	0
14.01.2021	21:33:21	0	0	2,372592	5,76225	82,3464	0,335	77,855	3,5	1006,36	6,9	8,8	8,7	1	1	1	1	1	1	1	1	1	0	1	-46,088795	274,255794	274,690481	0
14.01.2021	21:33:22	0	0	2,711534	5,61525	92,6424	0,338	77,863	3,5	1006,46	6,9	8,8	8,7	1	1	1	1	1	1	1	1	1	0	1	-45,172657	274,19421	275,318595	0
14.01.2021	21:33:23	0	0	4,971115	5,68125	107,7084	0,335	77,858	3,5	1006,44	6,9	8,8	8,8	1	1	1	1	1	1	1	1	1	0	1	-42,635659	274,245266	278,094363	0
14.01.2021	21:33:24	0	0	3,841339	5,343	106,6824	0,338	77,867	3,5	1006,28	6,9	8,8	8,7	1	1	1	1	1	1	1	1	1	0	1	-48,273432	274,180718	272,154744	0
14.01.2021	21:33:25	0	0	2,711534	5,40075	86,2596	0,341	77,872	3,5	1006,54	6,9	8,8	8,7	1	1	1	1	1	1	1	1	1	0	1	-46,934461	274,177721	273,479705	0
14.01.2021	21:33:26	0	0	4,406242	5,52525	89,334	0,337	77,866	3,5	1006,36	6,9	8,8	8,7	1	1	1	1	1	1	1	1	1	0	1	-48,414376	274,255794	272,3649	0
14.01.2021	21:33:27	0	0	3,389417	5,49075	98,064	0,33	77,871	3,5	1006,4	6,9	8,8	8,7	1	1	1	1	1	1	1	1	1	0	1	-44,890768	274,219721	275,719773	0
14.01.2021	21:33:28	0	0	4,858164	5,36925	93,3372	0,336	77,892	3,5	1006,38	6,9	8,8	8,7	1	1	1	1	1	1	1	1	1	0	1	-45,454545	274,252785	275,310655	0
14.01.2021	21:33:29	0	0	3,841339	5,3955	80,1216	0,336	77,91	3,5	1006,5	6,9	8,8	8,7	1	1	1	1	1	1	1	1	1	0	1	-49,119098	274,206211	271,428266	0
14.01.2021	21:33:30	0	0	4,180281	5,652	90,7596	0,339	77,921	3,5	1006,44	6,9	8,8	8,7	1	1	1	1	1	1	1	1	1	0	1	-48,20296	274,320593	272,879591	0
14.01.2021	21:33:31	0	0	3,95432	5,52225	96,2028	0,334	77,937	3,5	1006,3	6,9	8,8	8,7	1	1	1	1	1	1	1	1	1	0	1	-47,56871	274,204711	272,971637	0
14.01.2021	21:33:32	0	0	4,406216	5,3955	98,0532	0,332	77,961	3,5	1006,4	6,9	8,8	8,8	1	1	1	1	1	1	1	1	1	0	1	-47,56871	274,267833	273,266895	0
14.01.2021	21:33:33	0	0	3,050475	5,2755	103,7016	0,337	77,997	3,5	1006,44	6,9	8,8	8,7	1	1	1	1	1	1	1	1	1	0	1	-48,766737	274,375012	272,57067	0
14.01.2021	21:33:34	0	0	4,180256	5,319	94,7808	0,329	78,021	3,5	1006,3	6,9	8,8	8,8	1	1	1	1	1	1	1	1	1	0	1	-44,538407	274,260308	276,261987	0
14.01.2021	21:33:35	0	0	4,745184	5,26575	99,1548	0,336	78,053	3,5	1006,26	6,9	8,8	8,7	1	1	1	1	1	1	1	1	1	0	1	-49,682875	274,376526	271,661624	0
14.01.2021	21:33:36	0	0	3,276436	5,406	101,5128	0,335	78,063	3,5	1006,48	6,9	8,8	8,7	1	1	1	1	1	1	1	1	1	0	1	-48,062016	274,341738	273,119543	0
14.01.2021	21:33:37	0	0	2,937495	5,47575	105,912	0,34	78,081	3,5	1006,32	6,9	8,8	8,7	1	1	1	1	1	1	1	1	1	0	1	-48,696265	274,37804	272,655326	0
14.01.2021	21:33:38	0	0	5,197106	5,8695	113,7096	0,33	78,105	3,5	1006,34	6,9	8,8	8,7	1	1	1	1	1	1	1	1	1	0	1	-45,172657	274,28892	275,761629	0
14.01.2021	21:33:39	0	0	4,632203	6,0915	118,728	0,338	78,106	3,5	1006,24	6,9	8,8	8,7	1	1	1	1	1	1	1	1	1	0	1	-44,608879	274,19421	275,882372	0
14.01.2021	21:33:40	0	0	3,502398	6,0135	77,9652	0,333	78,139	3,5	1006,38	6,9	8,8	8,7	1	1	1	1	1	1	1	1	1	0	1	-48,343904	274,27235	272,512836	0
14.01.2021	21:33:41	0	0	3,615378	5,583	80,1396	0,341	78,135	3,5	1006,3	6,9	8,8	8,7	1	1	1	1	1	1	1	1	1	0	1	-47,21635	274,206211	273,331015	0
14.01.2021	21:33:42	0	0	2,824514	5,094	84,42	0,339	78,135	3,5	1006,5	6,9	8,8	8,7	1	1	1	1	1	1	1	1	1	0	1	-45,031712	274,35988	276,234814	0
14.01.2021	21:33:43	0	0	2,598553	4,6905	87,3648	0,33	78,132	3,5	1006,36	6,9	8,8	8,7	1	1	1	1	1	1	1	1	1	0	1	-46,793517	274,215217	273,79596	0
14.01.2021	21:33:44	0	0	3,163456	4,23075	83,7108	0,339	78,119	3,5	1006,3	6,9	8,8	8,7	1	1	1	1	1	1	1	1	1	0	1	-46,370684	274,323613	274,726003	0
14.01.2021	21:33:45	0	0	4,293261	3,92325	81,5688	0,335	78,133	3,5	1006,34	6,9	8,8	8,7	1	1	1	1	1	1	1	1	1	0	1	-43,128964	274,375012	278,208443	0
14.01.2021	21:33:46	0	0	3,163456	3,627	89,6976	0,346	78,122	3,5	1006,34	6,9	8,8	8,7	1	1	1	1	1	1	1	1	1	0	1	-47,56871	274,27988	273,323268	0
14.01.2021	21:33:47	0	0	3,389417	3,61875	87,714	0,339	78,113	3,5	1006,58	6,9	8,8	8,7	1	1	1	1	1	1	1	1	1	0	1	-45,243129	274,204711	275,297219	0
14.01.2021	21:33:48	0	0	4,971145	3,54075	101,1024	0,34	78,096	3,5	1006,44	6,9	8,8	8,7	1	1	1	1	1	1	1	1	1	0	1	-46,511628	274,35988	274,754898	0
14.01.2021	21:33:49	0	0	3,728359	3,453	82,962	0,338	78,091	3,5	1006,42	6,9	8,8	8,7	1	1	1	1	1	1	1	1	1	0	1	-46,793517	274,216718	273,802981	0
14.01.2021	21:33:50	0	0	3,389417	3,4245	79,4376	0,338	78,071	3,5	1006,44	6,9	8,8	8,7	1	1	1	1	1	1	1	1	1	0	1	-43,481325	274,355343	277,76395	0
14.01.2021	21:33:51	0	0	4,519223	3,42825	77,5836	0,336	78,066	3,5	1006,3	6,9	8,8	8,7	1	1	1	1	1	1	1	1	1	0	1	-49,330514	274,222724	271,294073	0
14.01.2021	21:33:52	0	0	5,084125	3,61275	64,2276	0,339	78,06	3,5	1006,44	6,9	8,8	8,7	1	1	1	1	1	1	1	1	1	0	1	-46,5821	274,364419	274,705683	0
14.01.2021	21:33:53	0	0	4,745184	3,78975	62,4132	0,339	78,05	3,5	1006,34	6,9	8,8	8,7	1	1	1	1	1	1	1	1	1	0	1	-45,736434	274,331163	275,395604	0
14.01.2021	21:33:54	0	0	4,406242	3,82875	86,9724	0,342	78,042	3,5	1006,38	6,9	8,8	8,7	1	1	1	1	1	1	1	1	1	0	1	-46,088795	274,384097	275,291173	0
14.01.2021	21:33:55	0	0	3,163456	3,45675	85,5216	0,342	78,036	3,5	1006,42	6,9	8,8	8,7	1	1	1	1	1	1	1	1	1	0	1	-45,313601	274,297964	275,663016	0
14.01.2021	21:33:56	0	0	3,050475	3,22875	65,4588	0,339	78,015	3,5	1006,52	6,9	8,8	8,7	1	1	1	1	1	1	1	1	1	0	1	-49,894292	274,382582	271,478581	0
14.01.2021	21:33:57	0	0	3,163456	3,3135	58,8852	0,336	78,013	3,5	1006,42	6,9	8,8	8,7	1	1	1	1	1	1	1	1	1	0	1	-46,793517	274,379554	274,565168	0
14.01.2021	21:33:58	0	0	3,615378	3,87375	66,2004	0,341	78,015	3,5	1006,4	6,9	8,8	8,7	1	1	1	1	1	1	1	1	1	0	1	-44,749824	274,341738	276,431734	0
14.01.2021	21:33:59	0	0	3,276436	4,26825	67,2984	0,335	78,005	3,5	1006,26	6,9	8,8	8,7	1	1	1	1	1	1	1	1	1	0	1	-50,105708	274,215217	270,483768	0
14.01.2021	21:34:00	0	0	3,615378	4,55325	51,0732	0,345	77,984	3,5	1006,58	6,9	8,8	8,7	1	1	1	1	1	1	1	1	1	0	1	-48,062016	274,405311	273,417355	0
14.01.2021	21:34:01	0	0	3,615378	4,55325	51,0732	0,345	77,984	3,5	1006,58	6,9	8,8	8,7	1	1	1	1	1	1	1	1	1	0	1	-48,062016	274,405311	273,417355	0
14.01.2021	21:34:02	0	0	2,598553	4,887	55,1916	0,342	77,974	3,5	1006,18	6,9	8,8	8,7	1	1	1	1	1	1	1	1	1	0	1	-50,035236	274,340227	271,139246	0
14.01.2021	21:34:03	0	0	4,293261	4,911	75,2148	0,343	77,962	3,5	1006,44	6,9	8,8	8,7	1	1	1	1	1	1	1	1	1	0	1	-46,934461	274,402279	274,530701	0
14.01.2021	21:34:04	0	0	2,598553	4,71	73,0404	0,336	77,935	3,5	1006,16	6,9	8,8	8,7	1	1	1	1	1	1	1	1	1	0	1	-46,652572	274,27988	274,239406	0
14.01.2021	21:34:05	0	0	3,389417	4,21275	92,2716	0,341	77,949	3,5	1006,42	6,9	8,8	8,7	1	1	1	1	1	1	1	1	1	0	1	-42,917548	274,400763	278,540511	0
14.01.2021	21:34:06	0	0	2,259611	3,80025	81,216	0,347	77,933	3,5	1006,52	6,9	8,8	8,7	1	1	1	1	1	1	1	1	1	0	1	-46,229739	274,237749	274,465122	0
14.01.2021	21:34:07	0	0	3,050475	3,729	74,9196	0,342	77,92	3,5	1006,52	6,9	8,8	8,7	1	1	1	1	1	1	1	1	1	0	1	-47,780127	274,228733	272,872562	0
14.01.2021	21:34:08	0	0	3,728359	3,69525	75,9996	0,336	77,942	3,5	1006,56	6,9	8,8	8,7	1	1	1	1	1	1	1	1	1	0	1	-43,904158	274,255794	276,875118	0
14.01.2021	21:34:09	0	0	4,293261	4,09275	74,1636	0,342	77,936	3,5	1006,44	6,9	8,8	8,7	1	1	1	1	1	1	1	1	1	0	1	-45,384073	274,23324	275,289699	0
14.01.2021	21:34:10	0	0	4,971145	4,2135	81,2052	0,339	77,924	3,5	1006,32	6,9	8,8	8,7	1	1	1	1	1	1	1	1	1	0	1	-50,035236	274,362906	271,245461	0
14.01.2021	21:34:11	0	0	2,598553	3,9075	80,496	0,339	77,937	3,5	1006,38	6,9	8,8	8,7	1	1	1	1	1	1	1	1	1	0	1	-46,863989	274,388641	274,537269	0
14.01.2021	21:34:12	0	0	4,858164	3,507	92,7108	0,343	77,934	3,5	1006,44	6,9	8,8	8,7	1	1	1	1	1	1	1	1	1	0	1	-47,427766	274,368958	273,881281	0
14.01.2021	21:34:13	0	0	2,711534	3,1755	80,5176	0,342	77,933	3,5	1006,3	6,9	8,8	8,7	1	1	1	1	1	1	1	1	1	0	1	-46,441156	274,384097	274,938812	0
14.01.2021	21:34:14	0	0	2,824514	3,26475	75,5892	0,339	77,945	3,5	1006,34	6,9	8,8	8,7	1	1	1	1	1	1	1	1	1	0	1	-48,696265	274,361393	272,577346	0
14.01.2021	21:34:15	0	0	3,050475	3,4275	92,6352	0,343	77,94	3,5	1006,48	6,9	8,8	8,7	1	1	1	1	1	1	1	1	1	0	1	-44,256519	274,382582	277,116354	0
14.01.2021	21:34:16	0	0	5,084095	3,3555	88,9488	0,337	77,937	3,5	1006,4	6,9	8,8	8,8	1	1	1	1	1	1	1	1	1	0	1	-47,075405	274,370471	274,240731	0
14.01.2021	21:34:17	0	0	4,632203	3,32325	90,7704	0,345	77,941	3,5	1006,5	6,9	8,8	8,7	1	1	1	1	1	1	1	1	1	0	1	-47,639183	274,228733	273,013507	0
14.01.2021	21:34:18	0	0	2,485572	3,27	54,7776	0,341	77,945	3,5	1006,5	6,9	8,8	8,7	1	1	1	1	1	1	1	1	1	0	1	-48,343904	274,270844	272,505791	0
14.01.2021	21:34:19	0	0	2,598553	2,99175	77,958	0,345	77,938	3,5	1006,46	6,9	8,8	8,7	1	1	1	1	1	1	1	1	1	0	1	-51,79704	274,347783	269,41283	0
14.01.2021	21:34:20	0	0	3,163456	3,204	70,8264	0,348	77,926	3,5	1006,44	6,9	8,8	8,7	1	1	1	1	1	1	1	1	1	0	1	-43,269908	274,216718	277,326589	0
14.01.2021	21:34:21	0	0	3,615378	3,52275	79,0272	0,339	77,937	3,5	1006,4	6,9	8,8	8,7	1	1	1	1	1	1	1	1	1	0	1	-44,538407	274,270844	276,311288	0
14.01.2021	21:34:22	0	0	3,841339	3,58275	52,8876	0,343	77,915	3,5	1006,38	6,9	8,8	8,7	1	1	1	1	1	1	1	1	1	0	1	-44,608879	274,215217	275,980597	0
14.01.2021	21:34:23	0	0	3,276436	3,7365	80,8848	0,338	77,922	3,5	1006,1	6,9	8,8	8,7	1	1	1	1	1	1	1	1	1	0	1	-49,541931	274,296456	271,427629	0
14.01.2021	21:34:24	0	0	3,728359	4,02975	85,9248	0,338	77,941	3,5	1006,42	7	8,8	8,7	1	1	1	1	1	1	1	1	1	0	1	-46,793517	274,399247	274,65744	0
14.01.2021	21:34:25	0	0	2,711534	4,1355	75,2256	0,343	77,941	3,5	1006,28	6,9	8,8	8,7	1	1	1	1	1	1	1	1	1	0	1	-46,5821	274,27988	274,309878	0
14.01.2021	21:34:26	0	0	2,598553	3,97425	77,9112	0,343	77,938	3,5	1006,36	6,9	8,8	8,7	1	1	1	1	1	1	1	1	1	0	1	-40,169133	274,248273	280,574958	0
14.01.2021	21:34:27	0	0	2,937495	3,783	84,0276	0,342	77,935	3,5	1006,4	6,9	8,8	8,7	1	1	1	1	1	1	1	1	1	0	1	-50,739958	274,230235	269,919758	0
14.01.2021	21:34:28	0	0	2,937495	3,61425	94,3848	0,347	77,943	3,5	1006,5	6,9	8,8	8,7	1	1	1	1	1	1	1	1	1	0	1	-45,172657	274,362906	276,10804	0
14.01.2021	21:34:29	0	0	3,163456	3,42525	40,9968	0,344	77,913	3,5	1006,3	6,9	8,8	8,7	1	1	1	1	1	1	1	1	1	0	1	-44,608879	274,257298	276,177435	0
14.01.2021	21:34:30	0	0	3,163456	3,48825	49,2084	0,341	77,913	3,5	1006,42	6,9	8,8	8,7	1	1	1	1	1	1	1	1	1	0	1	-40,803383	274,329652	280,321584	0
14.01.2021	21:34:31	0	0	3,502398	3,543	59,0976	0,349	77,911	3,5	1006,28	6,9	8,8	8,7	1	1	1	1	1	1	1	1	1	0	1	-46,652572	274,411376	274,855224	0
14.01.2021	21:34:32	0	0	5,084125	3,9015	66,2148	0,35	77,922	3,5	1006,46	6,9	8,8	8,7	1	1	1	1	1	1	1	1	1	0	1	-48,273432	274,322103	272,816186	0
14.01.2021	21:34:33	0	0	2,485572	4,37775	67,2732	0,351	77,923	3,5	1006,5	6,9	8,8	8,7	1	1	1	1	1	1	1	1	1	0	1	-47,004933	274,23324	273,668839	0
14.01.2021	21:34:34	0	0	4,180281	4,392	74,1528	0,338	77,907	3,5	1006,22	6,9	8,8	8,7	1	1	1	1	1	1	1	1	1	0	1	-43,481325	274,329652	277,643642	0
14.01.2021	21:34:35	0	0	2,937495	4,20225	86,652	0,35	77,891	3,5	1006,44	6,9	8,8	8,7	1	1	1	1	1	1	1	1	1	0	1	-47,56871	274,391671	273,846743	0
14.01.2021	21:34:36	0	0	4,519223	3,9105	77,2128	0,349	77,916	3,5	1006,2	6,9	8,8	8,7	1	1	1	1	1	1	1	1	1	0	1	-47,780127	274,362906	273,50057	0
14.01.2021	21:34:37	0	0	2,372592	3,921	77,202	0,341	77,894	3,5	1006,34	6,9	8,8	8,7	1	1	1	1	1	1	1	1	1	0	1	-44,890768	274,261812	275,916667	0
14.01.2021	21:34:38	0	0	4,0673	3,94125	68,0076	0,344	77,911	3,5	1006,42	6,9	8,8	8,7	1	1	1	1	1	1	1	1	1	0	1	-43,410853	274,385611	277,976211	0
14.01.2021	21:34:39	0	0	5,084125	4,04775	65,8404	0,336	77,891	3,5	1006,38	6,9	8,8	8,7	1	1	1	1	1	1	1	1	1	0	1	-45,243129	274,332673	275,895981	0
14.01.2021	21:34:40	0	0	2,824514	3,9045	68,7888	0,345	77,898	3,5	1006,4	6,9	8,8	8,7	1	1	1	1	1	1	1	1	1	0	1	-45,031712	274,406827	276,454763	0
14.01.2021	21:34:41	0	0	3,615356	3,65775	74,2068	0,346	77,901	3,5	1006,42	6,9	8,8	8,8	1	1	1	1	1	1	1	1	1	0	1	-43,763214	274,314556	277,291074	0
14.01.2021	21:34:42	0	0	3,728359	3,5235	73,4472	0,346	77,885	3,5	1006,46	6,9	8,8	8,7	1	1	1	1	1	1	1	1	1	0	1	-49,260042	274,219721	271,350499	0
14.01.2021	21:34:43	0	0	3,728359	3,57075	77,9616	0,344	77,896	3,5	1006,38	6,9	8,8	8,7	1	1	1	1	1	1	1	1	1	0	1	-46,934461	274,322103	274,155157	0
14.01.2021	21:34:44	0	0	3,95432	3,77325	71,2296	0,345	77,912	3,5	1006,42	6,9	8,8	8,7	1	1	1	1	1	1	1	1	1	0	1	-46,793517	274,219721	273,817025	0
14.01.2021	21:34:45	0	0	3,841339	3,612	77,2056	0,348	77,895	3,5	1006,5	6,9	8,8	8,7	1	1	1	1	1	1	1	1	1	0	1	-46,793517	274,338716	274,37389	0
14.01.2021	21:34:46	0	0	2,485572	3,47175	74,1672	0,342	77,898	3,5	1006,24	6,9	8,8	8,7	1	1	1	1	1	1	1	1	1	0	1	-48,766737	274,218219	271,836782	0
14.01.2021	21:34:47	0	0	2,824514	3,32025	72,6768	0,346	77,889	3,5	1006,34	6,9	8,8	8,7	1	1	1	1	1	1	1	1	1	0	1	-47,56871	274,273855	273,295076	0
14.01.2021	21:34:48	0	0	4,519223	3,12975	95,5404	0,346	77,893	3,5	1006,32	6,9	8,8	8,7	1	1	1	1	1	1	1	1	1	0	1	-45,806906	274,221223	274,810658	0
14.01.2021	21:34:49	0	0	2,824514	2,8635	83,7216	0,352	77,868	3,5	1006,4	6,9	8,8	8,7	1	1	1	1	1	1	1	1	1	0	1	-48,907681	274,27988	271,984297	0
14.01.2021	21:34:50	0	0	4,406242	2,70375	86,2704	0,347	77,876	3,5	1006,6	6,9	8,8	8,7	1	1	1	1	1	1	1	1	1	0	1	-45,806906	274,224226	274,824706	0
14.01.2021	21:34:51	0	0	3,841339	2,74425	91,1448	0,347	77,874	3,5	1006,46	6,9	8,8	8,7	1	1	1	1	1	1	1	1	1	0	1	-46,511628	274,266328	274,316934	0
14.01.2021	21:34:52	0	0	3,502376	2,86425	86,6556	0,345	77,861	3,5	1006,42	6,9	8,8	8,8	1	1	1	1	1	1	1	1	1	0	1	-48,343904	274,37804	273,007687	0
14.01.2021	21:34:53	0	0	3,841339	2,95875	85,1724	0,344	77,846	3,5	1006,44	6,9	8,8	8,7	1	1	1	1	1	1	1	1	1	0	1	-44,96124	274,240755	275,747683	0
14.01.2021	21:34:54	0	0	3,389397	2,8155	84,0564	0,342	77,841	3,5	1006,38	6,9	8,8	8,8	1	1	1	1	1	1	1	1	1	0	1	-46,5821	274,245266	274,147922	0
14.01.2021	21:34:55	0	0	2,598553	2,775	80,5284	0,346	77,833	3,5	1006,34	6,9	8,8	8,7	1	1	1	1	1	1	1	1	1	0	1	-47,427766	274,388641	273,973491	0
14.01.2021	21:34:56	0	0	3,050475	2,81475	86,652	0,344	77,833	3,5	1006,42	6,9	8,8	8,7	1	1	1	1	1	1	1	1	1	0	1	-48,907681	274,291934	272,040712	0
14.01.2021	21:34:57	0	0	3,163437	2,99475	82,5984	0,34	77,809	3,5	1006,42	6,9	8,8	8,8	1	1	1	1	1	1	1	1	1	0	1	-46,229739	274,237749	274,465122	0
14.01.2021	21:34:58	0	0	4,519195	3,0855	91,872	0,348	77,82	3,5	1006,5	6,9	8,8	8,8	1	1	1	1	1	1	1	1	1	0	1	-43,622269	274,261812	277,185166	0
14.01.2021	21:34:59	0	0	3,276417	3,04125	74,1492	0,345	77,811	3,5	1006,48	6,9	8,8	8,8	1	1	1	1	1	1	1	1	1	0	1	-46,018323	274,379554	275,340362	0
14.01.2021	21:35:00	0	0	4,745155	2,91375	64,6236	0,347	77,783	3,5	1006,52	6,9	8,8	8,8	1	1	1	1	1	1	1	1	1	0	1	-45,806906	274,387126	275,587254	0
14.01.2021	21:35:01	0	0	4,745155	2,91375	64,6236	0,347	77,783	3,5	1006,52	6,9	8,8	8,8	1	1	1	1	1	1	1	1	1	0	1	-45,806906	274,387126	275,587254	0
14.01.2021	21:35:02	0	0	4,858164	3,126	73,4436	0,352	77,768	3,5	1006,4	6,9	8,8	8,7	1	1	1	1	1	1	1	1	1	0	1	-48,132488	274,267833	272,703118	0
14.01.2021	21:35:03	0	0	2,598553	3,59025	67,6692	0,349	77,753	3,5	1006,42	6,9	8,8	8,7	1	1	1	1	1	1	1	1	1	0	1	-47,004933	274,373498	274,325383	0
14.01.2021	21:35:04	0	0	3,276417	3,6855	56,6712	0,35	77,747	3,5	1006,42	6,9	8,8	8,8	1	1	1	1	1	1	1	1	1	0	1	-44,326991	274,326632	276,783834	0
14.01.2021	21:35:05	0	0	4,632175	3,681	54,8064	0,346	77,727	3,5	1006,66	6,9	8,8	8,8	1	1	1	1	1	1	1	1	1	0	1	-49,471459	274,388641	271,929798	0
14.01.2021	21:35:06	0	0	4,180281	3,56625	75,2076	0,347	77,745	3,5	1006,5	6,9	8,8	8,7	1	1	1	1	1	1	1	1	1	0	1	-49,330514	274,285906	271,589666	0
14.01.2021	21:35:07	0	0	2,711534	3,56625	86,6772	0,344	77,724	3,5	1006,3	6,9	8,8	8,7	1	1	1	1	1	1	1	1	1	0	1	-45,877378	274,210713	274,691039	0
14.01.2021	21:35:08	0	0	4,632203	3,7815	91,512	0,35	77,726	3,5	1006,36	6,9	8,8	8,7	1	1	1	1	1	1	1	1	1	0	1	-52,219873	274,263317	268,594604	0
14.01.2021	21:35:09	0	0	4,858164	3,61425	82,9692	0,343	77,727	3,5	1006,5	6,9	8,8	8,7	1	1	1	1	1	1	1	1	1	0	1	-45,172657	274,365932	276,122214	0
14.01.2021	21:35:10	0	0	4,632175	3,423	91,8576	0,339	77,721	3,5	1006,46	6,9	8,8	8,8	1	1	1	1	1	1	1	1	1	0	1	-43,692741	274,23324	276,981031	0
14.01.2021	21:35:11	0	0	2,937495	3,3195	86,6592	0,345	77,704	3,5	1006,36	6,9	8,8	8,7	1	1	1	1	1	1	1	1	1	0	1	-45,806906	274,20321	274,726426	0
14.01.2021	21:35:12	0	0	2,824514	3,4815	82,3536	0,345	77,716	3,5	1006,38	6,9	8,8	8,7	1	1	1	1	1	1	1	1	1	0	1	-47,427766	274,332673	273,711344	0
14.01.2021	21:35:13	0	0	3,502398	3,804	91,8828	0,347	77,703	3,5	1006,46	6,9	8,8	8,7	1	1	1	1	1	1	1	1	1	0	1	-46,018323	274,20171	274,507994	0
14.01.2021	21:35:14	0	0	3,276436	4,04625	87,3576	0,341	77,693	3,5	1006,38	6,9	8,8	8,7	1	1	1	1	1	1	1	1	1	0	1	-48,343904	274,276867	272,533977	0
14.01.2021	21:35:15	0	0	4,0673	4,0545	74,1708	0,338	77,698	3,5	1006,36	6,9	8,8	8,7	1	1	1	1	1	1	1	1	1	0	1	-44,326991	274,177721	276,087175	0
14.01.2021	21:35:16	0	0	3,502398	3,95925	71,2368	0,349	77,701	3,5	1006,4	6,9	8,8	8,7	1	1	1	1	1	1	1	1	1	0	1	-47,498238	274,316065	273,563114	0
14.01.2021	21:35:17	0	0	3,841339	3,71175	85,2768	0,342	77,682	3,5	1006,36	6,9	8,8	8,7	1	1	1	1	1	1	1	1	1	0	1	-43,410853	274,356855	277,841505	0
14.01.2021	21:35:18	0	0	4,632203	3,57225	89,0352	0,343	77,694	3,5	1006,44	6,9	8,8	8,7	1	1	1	1	1	1	1	1	1	0	1	-49,82382	274,28892	271,110466	0
14.01.2021	21:35:19	0	0	4,745184	3,498	75,9996	0,343	77,687	3,5	1006,38	6,9	8,8	8,7	1	1	1	1	1	1	1	1	1	0	1	-47,639183	274,185214	272,810013	0
14.01.2021	21:35:20	0	0	3,050475	3,3645	83,9988	0,347	77,679	3,5	1006,34	6,9	8,8	8,7	1	1	1	1	1	1	1	1	1	0	1	-46,300211	274,338716	274,867195	0
14.01.2021	21:35:21	0	0	3,050475	3,1965	81,9504	0,342	77,686	3,5	1006,48	6,9	8,8	8,7	1	1	1	1	1	1	1	1	1	0	1	-44,820296	274,352319	276,410815	0
14.01.2021	21:35:22	0	0	2,03365	3,129	81,5688	0,344	77,684	3,5	1006,42	6,9	8,8	8,7	1	1	1	1	1	1	1	1	1	0	1	-41,508104	274,225728	279,130533	0
14.01.2021	21:35:23	0	0	3,389417	3,10125	80,892	0,344	77,678	3,5	1006,36	6,9	8,8	8,7	1	1	1	1	1	1	1	1	1	0	1	-52,924595	274,355343	268,32068	0
14.01.2021	21:35:24	0	0	4,745184	3,054	85,518	0,339	77,689	3,5	1006,48	6,9	8,8	8,7	1	1	1	1	1	1	1	1	1	0	1	-46,793517	274,19721	273,711759	0
14.01.2021	21:35:25	0	0	2,711534	3,336	84,7836	0,345	77,691	3,5	1006,54	6,9	8,8	8,7	1	1	1	1	1	1	1	1	1	0	1	-46,300211	274,370471	275,015924	0
14.01.2021	21:35:26	0	0	3,502398	3,82575	87,372	0,342	77,695	3,5	1006,34	6,9	8,8	8,7	1	1	1	1	1	1	1	1	1	0	1	-47,427766	274,311538	273,612393	0
14.01.2021	21:35:27	0	0	2,598537	3,948	81,2016	0,343	77,679	3,5	1006,3	6,9	8,8	8,8	1	1	1	1	1	1	1	1	1	0	1	-45,313601	274,356855	275,938757	0
14.01.2021	21:35:28	0	0	4,0673	3,95625	72,3024	0,341	77,686	3,5	1006,44	6,9	8,8	8,7	1	1	1	1	1	1	1	1	1	0	1	-46,5821	274,343249	274,606535	0
14.01.2021	21:35:29	0	0	2,598553	3,99525	91,1484	0,343	77,684	3,5	1006,36	6,9	8,8	8,7	1	1	1	1	1	1	1	1	1	0	1	-48,062016	274,215217	272,527461	0
14.01.2021	21:35:30	0	0	3,389417	3,90525	96,948	0,345	77,678	3,5	1006,42	6,9	8,8	8,7	1	1	1	1	1	1	1	1	1	0	1	-45,172657	274,17922	275,248514	0
14.01.2021	21:35:31	0	0	4,519223	3,978	88,5672	0,337	77,684	3,5	1006,42	6,9	8,8	8,7	1	1	1	1	1	1	1	1	1	0	1	-46,793517	274,356855	274,458842	0
14.01.2021	21:35:32	0	0	4,519223	4,08375	90,3924	0,34	77,695	3,5	1006,54	6,9	8,8	8,7	1	1	1	1	1	1	1	1	1	0	1	-45,031712	274,308521	275,994322	0
14.01.2021	21:35:33	0	0	4,745184	4,14075	90,0288	0,34	77,703	3,5	1006,44	6,9	8,8	8,7	1	1	1	1	1	1	1	1	1	0	1	-45,877378	274,382582	275,495494	0
14.01.2021	21:35:34	0	0	3,615378	3,9465	79,0236	0,335	77,694	3,5	1006,38	6,9	8,8	8,7	1	1	1	1	1	1	1	1	1	0	1	-47,286822	274,249777	273,464305	0
14.01.2021	21:35:35	0	0	4,293261	4,00575	82,6056	0,342	77,69	3,5	1006,38	6,9	8,8	8,7	1	1	1	1	1	1	1	1	1	0	1	-45,736434	274,356855	275,515924	0
14.01.2021	21:35:36	0	0	3,389397	4,086	98,1864	0,337	77,697	3,5	1006,42	6,9	8,8	8,8	1	1	1	1	1	1	1	1	1	0	1	-44,045102	274,222724	276,579486	0
14.01.2021	21:35:37	0	0	4,180281	4,04625	95,8284	0,344	77,705	3,5	1006,48	6,9	8,8	8,7	1	1	1	1	1	1	1	1	1	0	1	-46,511628	274,182217	273,923554	0
14.01.2021	21:35:38	0	0	4,406242	4,0005	88,0848	0,335	77,695	3,5	1006,42	6,9	8,8	8,7	1	1	1	1	1	1	1	1	1	0	1	-46,652572	274,335694	274,500685	0
14.01.2021	21:35:39	0	0	4,519223	3,894	70,8336	0,335	77,693	3,5	1006,36	7	8,8	8,7	1	1	1	1	1	1	1	1	1	0	1	-45,947851	274,216718	274,648647	0
14.01.2021	21:35:40	0	0	2,598553	3,7155	65,8368	0,332	77,709	3,5	1006,44	6,9	8,8	8,7	1	1	1	1	1	1	1	1	1	0	1	-44,326991	274,171729	276,059164	0
14.01.2021	21:35:41	0	0	3,163456	3,74025	69,8472	0,342	77,721	3,5	1006,4	6,9	8,8	8,7	1	1	1	1	1	1	1	1	1	0	1	-42,706131	274,303996	278,29872	0
14.01.2021	21:35:42	0	0	3,276436	3,663	96,5916	0,341	77,709	3,5	1006,42	6,9	8,8	8,7	1	1	1	1	1	1	1	1	1	0	1	-47,004933	274,218219	273,598586	0
14.01.2021	21:35:43	0	0	3,728359	3,8445	91,1772	0,336	77,698	3,5	1006,46	6,9	8,8	8,7	1	1	1	1	1	1	1	1	1	0	1	-46,863989	274,325122	274,239767	0
14.01.2021	21:35:44	0	0	5,197075	3,9045	83,7324	0,338	77,712	3,5	1006,36	6,9	8,8	8,8	1	1	1	1	1	1	1	1	1	0	1	-45,031712	274,334184	276,114471	0
14.01.2021	21:35:45	0	0	4,0673	4,1235	92,2536	0,335	77,704	3,5	1006,42	6,8	8,8	8,7	1	1	1	1	1	1	1	1	1	0	1	-47,56871	274,332673	273,5704	0
14.01.2021	21:35:46	0	0	4,180281	4,46025	91,8828	0,331	77,697	3,5	1006,42	6,9	8,8	8,7	1	1	1	1	1	1	1	1	1	0	1	-50,599013	274,367445	270,702945	0
14.01.2021	21:35:47	0	0	2,711534	4,6665	86,3712	0,335	77,704	3,5	1006,36	6,9	8,8	8,7	1	1	1	1	1	1	1	1	1	0	1	-45,172657	274,273855	275,69113	0
14.01.2021	21:35:48	0	0	3,502398	4,6905	87,7248	0,335	77,702	3,5	1006,2	7	8,8	8,7	1	1	1	1	1	1	1	1	1	0	1	-47,991543	274,349295	273,225406	0
14.01.2021	21:35:49	0	0	4,406242	4,55925	91,5192	0,331	77,686	3,5	1006,2	7	8,8	8,7	1	1	1	1	1	1	1	1	1	0	1	-48,414376	274,251281	272,343787	0
14.01.2021	21:35:50	0	0	4,745155	4,46475	92,9772	0,335	77,697	3,5	1006,36	6,9	8,8	8,8	1	1	1	1	1	1	1	1	1	0	1	-45,454545	274,349295	275,762404	0
14.01.2021	21:35:51	0	0	4,745184	4,521	84,8124	0,337	77,687	3,5	1006,4	7	8,8	8,7	1	1	1	1	1	1	1	1	1	0	1	-47,004933	274,19571	273,49333	0
14.01.2021	21:35:52	0	0	4,293261	4,58175	83,3436	0,325	77,678	3,5	1006,48	6,9	8,8	8,7	1	1	1	1	1	1	1	1	1	0	1	-48,062016	274,322103	273,027603	0
14.01.2021	21:35:53	0	0	3,502398	4,5975	91,1556	0,334	77,673	3,5	1006,44	6,9	8,8	8,7	1	1	1	1	1	1	1	1	1	0	1	-41,226216	274,313047	279,821007	0
14.01.2021	21:35:54	0	0	2,711534	4,48575	90,7884	0,332	77,676	3,5	1006,38	6,9	8,8	8,7	1	1	1	1	1	1	1	1	1	0	1	-46,863989	274,212214	273,711448	0
14.01.2021	21:35:55	0	0	2,711534	4,31175	88,9776	0,326	77,679	3,5	1006,56	6,9	8,8	8,7	1	1	1	1	1	1	1	1	1	0	1	-46,5821	274,347783	274,62777	0
14.01.2021	21:35:56	0	0	3,050475	4,24425	85,536	0,331	77,683	3,5	1006,32	6,9	8,8	8,7	1	1	1	1	1	1	1	1	1	0	1	-47,427766	274,356855	273,824592	0
14.01.2021	21:35:57	0	0	2,824514	4,6785	81,9756	0,329	77,692	3,5	1006,52	6,9	8,8	8,7	1	1	1	1	1	1	1	1	1	0	1	-48,062016	274,291934	272,886378	0
14.01.2021	21:35:58	0	0	2,937495	4,49475	84,06	0,333	77,7	3,5	1006,42	6,9	8,8	8,7	1	1	1	1	1	1	1	1	1	0	1	-49,682875	274,180718	270,7453	0
14.01.2021	21:35:59	0	0	4,632203	4,5495	90,036	0,33	77,713	3,5	1006,5	6,9	8,8	8,7	1	1	1	1	1	1	1	1	1	0	1	-49,330514	274,20021	271,188788	0
14.01.2021	21:36:00	0	0	4,858135	4,5465	85,8708	0,329	77,734	3,5	1006,54	6,9	8,8	8,8	1	1	1	1	1	1	1	1	1	0	1	-43,410853	274,31003	277,622244	0
14.01.2021	21:36:01	0	0	4,858135	4,5465	85,8708	0,329	77,734	3,5	1006,54	6,9	8,8	8,8	1	1	1	1	1	1	1	1	1	0	1	-43,410853	274,31003	277,622244	0
14.01.2021	21:36:02	0	0	3,841339	4,73925	85,2696	0,328	77,734	3,5	1006,38	6,9	8,8	8,7	1	1	1	1	1	1	1	1	1	0	1	-47,850599	274,355343	273,394676	0
14.01.2021	21:36:03	0	0	4,971145	4,7595	83,3652	0,328	77,757	3,5	1006,54	7	8,8	8,7	1	1	1	1	1	1	1	1	1	0	1	-46,300211	274,287413	274,627021	0
14.01.2021	21:36:04	0	0	4,0673	4,8195	82,9656	0,327	77,768	3,5	1006,46	6,9	8,8	8,7	1	1	1	1	1	1	1	1	1	0	1	-43,481325	274,186713	276,974878	0
14.01.2021	21:36:05	0	0	2,146631	4,8165	91,5228	0,326	77,783	3,5	1006,46	7	8,8	8,7	1	1	1	1	1	1	1	1	1	0	1	-47,427766	274,273855	273,436021	0
14.01.2021	21:36:06	0	0	3,841339	4,6875	89,7372	0,326	77,798	3,5	1006,5	6,9	8,8	8,7	1	1	1	1	1	1	1	1	1	0	1	-46,088795	274,35988	275,177731	0
14.01.2021	21:36:07	0	0	3,95432	4,42275	75,9852	0,323	77,801	3,5	1006,46	6,9	8,8	8,7	1	1	1	1	1	1	1	1	1	0	1	-43,410853	274,218219	277,192666	0
14.01.2021	21:36:08	0	0	4,406242	4,19925	72,324	0,322	77,817	3,5	1006,6	6,9	8,8	8,7	1	1	1	1	1	1	1	1	1	0	1	-46,370684	274,17922	274,050487	0
14.01.2021	21:36:09	0	0	4,406242	4,04175	92,268	0,325	77,812	3,5	1006,44	6,9	8,8	8,7	1	1	1	1	1	1	1	1	1	0	1	-50,317125	274,319084	270,758359	0
14.01.2021	21:36:10	0	0	4,406242	4,164	87,3684	0,322	77,829	3,5	1006,5	6,9	8,8	8,7	1	1	1	1	1	1	1	1	1	0	1	-48,766737	274,316065	272,294615	0
14.01.2021	21:36:11	0	0	4,406242	4,314	74,9124	0,323	77,848	3,5	1006,46	7	8,8	8,7	1	1	1	1	1	1	1	1	1	0	1	-47,709655	274,325122	273,394101	0
14.01.2021	21:36:12	0	0	3,389417	4,251	71,9676	0,322	77,84	3,5	1006,38	6,9	8,8	8,7	1	1	1	1	1	1	1	1	1	0	1	-47,286822	274,17922	273,134349	0
14.01.2021	21:36:13	0	0	4,293261	4,05675	75,9528	0,321	77,862	3,5	1006,52	6,9	8,8	8,7	1	1	1	1	1	1	1	1	1	0	1	-44,326991	274,322103	276,762628	0
14.01.2021	21:36:14	0	0	4,0673	4,13925	76,0104	0,323	77,864	3,5	1006,6	6,9	8,8	8,7	1	1	1	1	1	1	1	1	1	0	1	-49,18957	274,182217	271,245611	0
14.01.2021	21:36:15	0	0	3,050475	4,14975	74,5416	0,324	77,878	3,5	1006,34	6,9	8,8	8,7	1	1	1	1	1	1	1	1	1	0	1	-44,96124	274,218219	275,642279	0
14.01.2021	21:36:16	0	0	2,711534	4,34775	72,288	0,322	77,882	3,5	1006,46	6,9	8,8	8,7	1	1	1	1	1	1	1	1	1	0	1	-47,427766	274,350807	273,796264	0
14.01.2021	21:36:17	0	0	3,728359	4,02375	68,4108	0,326	77,886	3,5	1006,42	7	8,8	8,7	1	1	1	1	1	1	1	1	1	0	1	-47,286822	274,311538	273,753338	0
14.01.2021	21:36:18	0	0	3,95432	3,72375	64,6308	0,319	77,865	3,5	1006,56	6,9	8,8	8,7	1	1	1	1	1	1	1	1	1	0	1	-44,890768	274,358368	276,368674	0
14.01.2021	21:36:19	0	0	4,406242	3,52425	74,9088	0,318	77,88	3,5	1006,52	6,9	8,8	8,7	1	1	1	1	1	1	1	1	1	0	1	-49,260042	274,260308	271,540352	0
14.01.2021	21:36:20	0	0	4,632203	3,39975	76,4532	0,318	77,874	3,5	1006,44	6,9	8,8	8,7	1	1	1	1	1	1	1	1	1	0	1	-49,964764	274,186713	270,491439	0
14.01.2021	21:36:21	0	0	4,406242	3,39375	81,5796	0,322	77,888	3,5	1006,52	6,9	8,8	8,7	1	1	1	1	1	1	1	1	1	0	1	-47,427766	274,307013	273,591206	0
14.01.2021	21:36:22	0	0	2,711534	3,7485	79,056	0,316	77,885	3,5	1006,38	6,9	8,8	8,7	1	1	1	1	1	1	1	1	1	0	1	-43,481325	274,171729	276,90483	0
14.01.2021	21:36:23	0	0	3,050457	3,954	77,1912	0,317	77,882	3,5	1006,52	6,9	8,8	8,8	1	1	1	1	1	1	1	1	1	0	1	-50,317125	274,225728	270,321512	0
14.01.2021	21:36:24	0	0	3,615378	4,08675	82,1988	0,318	77,887	3,5	1006,5	6,9	8,8	8,7	1	1	1	1	1	1	1	1	1	0	1	-45,59549	274,362906	275,685207	0
14.01.2021	21:36:25	0	0	3,050475	4,173	73,4256	0,324	77,89	3,5	1006,36	6,9	8,8	8,7	1	1	1	1	1	1	1	1	1	0	1	-45,102185	274,284399	275,810944	0
14.01.2021	21:36:26	0	0	3,615378	4,2015	81,594	0,313	77,895	3,5	1006,28	7	8,8	8,7	1	1	1	1	1	1	1	1	1	0	1	-47,004933	274,362906	274,275764	0
14.01.2021	21:36:27	0	0	4,406242	4,509	80,1684	0,316	77,889	3,5	1006,48	6,9	8,8	8,7	1	1	1	1	1	1	1	1	1	0	1	-48,062016	274,270844	272,787679	0
14.01.2021	21:36:28	0	0	4,632203	4,55775	83,736	0,319	77,9	3,5	1006,54	7	8,8	8,7	1	1	1	1	1	1	1	1	1	0	1	-45,031712	274,19421	275,459539	0
14.01.2021	21:36:29	0	0	3,502376	4,6845	86,9868	0,316	77,905	3,5	1006,36	6,9	8,8	8,8	1	1	1	1	1	1	1	1	1	0	1	-46,159267	274,236246	274,528563	0
14.01.2021	21:36:30	0	0	4,632203	4,54725	87,3648	0,316	77,917	3,5	1006,48	6,9	8,8	8,7	1	1	1	1	1	1	1	1	1	0	1	-46,723044	274,355343	274,522231	0
14.01.2021	21:36:31	0	0	4,406242	4,44075	79,776	0,312	77,901	3,5	1006,56	6,8	8,8	8,7	1	1	1	1	1	1	1	1	1	0	1	-42,706131	274,323613	278,390556	0
14.01.2021	21:36:32	0	0	2,598553	4,18125	83,7324	0,314	77,906	3,5	1006,46	6,9	8,8	8,7	1	1	1	1	1	1	1	1	1	0	1	-44,186047	274,20021	276,333256	0
14.01.2021	21:36:33	0	0	3,841339	3,81225	83,7288	0,316	77,932	3,5	1006,38	7	8,8	8,7	1	1	1	1	1	1	1	1	1	0	1	-46,652572	274,340227	274,52191	0
14.01.2021	21:36:34	0	0	3,050475	3,56775	76,8276	0,316	77,936	3,5	1006,4	7	8,8	8,7	1	1	1	1	1	1	1	1	1	0	1	-48,766737	274,20021	271,752565	0
14.01.2021	21:36:35	0	0	3,050475	3,429	76,464	0,313	77,949	3,5	1006,44	6,9	8,8	8,7	1	1	1	1	1	1	1	1	1	0	1	-44,820296	274,221223	275,797268	0
14.01.2021	21:36:36	0	0	2,485572	3,47325	76,842	0,314	77,952	3,5	1006,44	6,9	8,8	8,7	1	1	1	1	1	1	1	1	1	0	1	-45,313601	274,356855	275,938757	0
14.01.2021	21:36:37	0	0	3,050475	3,3915	84,42	0,31	77,956	3,5	1006,44	7	8,8	8,7	1	1	1	1	1	1	1	1	1	0	1	-48,625793	274,20321	271,907539	0
14.01.2021	21:36:38	0	0	4,632203	3,18	77,562	0,314	77,963	3,5	1006,4	6,9	8,8	8,7	1	1	1	1	1	1	1	1	1	0	1	-45,736434	274,19571	274,761829	0
14.01.2021	21:36:39	0	0	5,084125	3,144	80,1504	0,312	77,963	3,5	1006,5	6,8	8,8	8,7	1	1	1	1	1	1	1	1	1	0	1	-44,115574	274,263317	276,698903	0
14.01.2021	21:36:40	0	0	2,259611	3,129	77,5908	0,311	77,979	3,5	1006,6	6,9	8,8	8,7	1	1	1	1	1	1	1	1	1	0	1	-42,98802	274,353831	278,250173	0
14.01.2021	21:36:41	0	0	4,180281	3,159	79,056	0,31	77,992	3,5	1006,56	6,9	8,8	8,7	1	1	1	1	1	1	1	1	1	0	1	-45,454545	274,216718	275,141952	0
14.01.2021	21:36:42	0	0	4,0673	3,22125	83,7216	0,31	78,003	3,5	1006,3	6,9	8,8	8,7	1	1	1	1	1	1	1	1	1	0	1	-47,498238	274,19721	273,007038	0
14.01.2021	21:36:43	0	0	2,824514	3,01125	63,1692	0,308	77,99	3,5	1006,48	6,9	8,8	8,7	1	1	1	1	1	1	1	1	1	0	1	-45,525018	274,219721	275,085524	0
14.01.2021	21:36:44	0	0	2,824514	2,85375	75,9708	0,314	78,001	3,5	1006,5	6,9	8,8	8,7	1	1	1	1	1	1	1	1	1	0	1	-46,229739	274,341738	274,951819	0
14.01.2021	21:36:45	0	0	2,937495	2,934	69,1524	0,318	78,013	3,5	1006,38	7	8,8	8,7	1	1	1	1	1	1	1	1	1	0	1	-45,384073	274,227231	275,261589	0
14.01.2021	21:36:46	0	0	3,050475	2,91	66,5388	0,304	78,007	3,5	1006,44	6,9	8,8	8,7	1	1	1	1	1	1	1	1	1	0	1	-44,186047	274,343249	277,002589	0
14.01.2021	21:36:47	0	0	4,180281	2,81775	59,0904	0,309	78,016	3,5	1006,5	6,9	8,8	8,7	1	1	1	1	1	1	1	1	1	0	1	-46,793517	274,20021	273,725786	0
14.01.2021	21:36:48	0	0	3,615378	2,89425	71,9892	0,31	78,003	3,5	1006,54	6,8	8,8	8,7	1	1	1	1	1	1	1	1	1	0	1	-46,441156	274,334184	274,705028	0
14.01.2021	21:36:49	0	0	3,050475	2,98275	62,5392	0,307	78,009	3,5	1006,38	6,9	8,8	8,7	1	1	1	1	1	1	1	1	1	0	1	-48,132488	274,186713	272,323715	0
14.01.2021	21:36:50	0	0	2,711534	2,97825	71,5824	0,307	78,015	3,5	1006,52	7	8,8	8,7	1	1	1	1	1	1	1	1	1	0	1	-47,921071	274,328142	273,196824	0
14.01.2021	21:36:51	0	0	3,502398	3,19275	79,4052	0,306	77,996	3,5	1006,4	7	8,8	8,7	1	1	1	1	1	1	1	1	1	0	1	-43,692741	274,313047	277,354481	0
14.01.2021	21:36:52	0	0	4,519223	3,2355	73,0584	0,306	78,005	3,5	1006,48	7	8,8	8,7	1	1	1	1	1	1	1	1	1	0	1	-45,665962	274,230235	274,993754	0
14.01.2021	21:36:53	0	0	2,598553	3,186	86,67	0,31	78,005	3,5	1006,5	6,9	8,8	8,7	1	1	1	1	1	1	1	1	1	0	1	-44,749824	274,358368	276,509618	0
14.01.2021	21:36:54	0	0	2,711534	3,141	68,0148	0,312	77,995	3,5	1006,42	7	8,8	8,7	1	1	1	1	1	1	1	1	1	0	1	-45,59549	274,246769	275,141567	0
14.01.2021	21:36:55	0	0	2,598553	2,9715	86,6736	0,303	77,984	3,5	1006,46	7	8,8	8,7	1	1	1	1	1	1	1	1	1	0	1	-47,498238	274,183716	272,94395	0
14.01.2021	21:36:56	0	0	3,050475	2,89425	75,3012	0,303	77,981	3,5	1006,26	6,9	8,8	8,7	1	1	1	1	1	1	1	1	1	0	1	-45,525018	274,329652	275,599949	0
14.01.2021	21:36:57	0	0	4,858164	3,027	82,9944	0,31	77,981	3,5	1006,46	6,9	8,8	8,7	1	1	1	1	1	1	1	1	1	0	1	-45,102185	274,191211	275,375046	0
14.01.2021	21:36:58	0	0	3,050475	3,26175	70,2036	0,305	77,979	3,5	1006,44	6,9	8,8	8,7	1	1	1	1	1	1	1	1	1	0	1	-48,062016	274,249777	272,689111	0
14.01.2021	21:36:59	0	0	4,406242	3,546	73,4256	0,306	77,969	3,5	1006,44	6,9	8,8	8,7	1	1	1	1	1	1	1	1	1	0	1	-47,639183	274,364419	273,648601	0
14.01.2021	21:37:00	0	0	2,598553	3,36675	66,528	0,303	77,955	3,5	1006,3	6,8	8,8	8,7	1	1	1	1	1	1	1	1	1	0	1	-44,679352	274,349295	276,537598	0
14.01.2021	21:37:01	0	0	2,598553	3,36675	66,528	0,303	77,955	3,5	1006,3	6,8	8,8	8,7	1	1	1	1	1	1	1	1	1	0	1	-44,679352	274,349295	276,537598	0
14.01.2021	21:37:02	0	0	3,728359	3,0915	52,5168	0,305	77,955	3,5	1006,54	6,9	8,8	8,7	1	1	1	1	1	1	1	1	1	0	1	-46,5821	274,234743	274,098701	0
14.01.2021	21:37:03	0	0	3,276436	2,898	56,6676	0,301	77,954	3,5	1006,4	7	8,8	8,7	1	1	1	1	1	1	1	1	1	0	1	-43,833686	274,168733	276,538467	0
14.01.2021	21:37:04	0	0	4,406242	2,93775	55,2924	0,292	77,925	3,5	1006,38	7	8,8	8,7	1	1	1	1	1	1	1	1	1	0	1	-49,682875	274,27235	271,173865	0
14.01.2021	21:37:05	0	0	4,632203	2,97	56,2968	0,304	77,92	3,5	1006,36	7	8,8	8,7	1	1	1	1	1	1	1	1	1	0	1	-43,622269	274,19871	276,89002	0
14.01.2021	21:37:06	0	0	4,745184	3,2745	69,1488	0,305	77,924	3,5	1006,44	7	8,8	8,7	1	1	1	1	1	1	1	1	1	0	1	-43,763214	274,350807	277,460817	0
14.01.2021	21:37:07	0	0	3,502398	3,63525	67,6728	0,306	77,923	3,5	1006,5	6,9	8,8	8,7	1	1	1	1	1	1	1	1	1	0	1	-46,723044	274,227231	273,922618	0
14.01.2021	21:37:08	0	0	4,180281	4,071	66,924	0,301	77,914	3,5	1006,38	7	8,8	8,7	1	1	1	1	1	1	1	1	1	0	1	-47,357294	274,168733	273,014859	0
14.01.2021	21:37:09	0	0	3,163456	4,023	83,7288	0,299	77,927	3,5	1006,42	6,9	8,8	8,7	1	1	1	1	1	1	1	1	1	0	1	-41,36716	274,263317	279,447317	0
14.01.2021	21:37:10	0	0	4,180281	3,80475	80,9064	0,294	77,935	3,5	1006,44	7	8,8	8,7	1	1	1	1	1	1	1	1	1	0	1	-48,978154	274,347783	272,231716	0
14.01.2021	21:37:11	0	0	4,0673	3,60075	77,5944	0,299	77,935	3,5	1006,38	7	8,8	8,7	1	1	1	1	1	1	1	1	1	0	1	-43,058492	274,276867	277,819389	0
14.01.2021	21:37:12	0	0	2,824514	3,702	76,392	0,305	77,955	3,5	1006,62	7	8,8	8,7	1	1	1	1	1	1	1	1	1	0	1	-47,004933	274,188213	273,458278	0
14.01.2021	21:37:13	0	0	5,197106	3,77025	72,6624	0,302	77,965	3,5	1006,56	6,9	8,8	8,7	1	1	1	1	1	1	1	1	1	0	1	-45,031712	274,335694	276,121544	0
14.01.2021	21:37:14	0	0	2,598553	3,89625	80,1396	0,298	77,984	3,5	1006,72	7	8,8	8,7	1	1	1	1	1	1	1	1	1	0	1	-47,004933	274,347783	274,204937	0
14.01.2021	21:37:15	0	0	2,598553	3,90225	82,4724	0,304	77,994	3,5	1006,52	7	8,8	8,7	1	1	1	1	1	1	1	1	1	0	1	-47,075405	274,299472	273,908269	0
14.01.2021	21:37:16	0	0	4,406242	3,942	76,3596	0,299	77,999	3,5	1006,42	6,8	8,8	8,7	1	1	1	1	1	1	1	1	1	0	1	-45,031712	274,17922	275,389458	0
14.01.2021	21:37:17	0	0	4,745184	3,969	86,2956	0,294	78,005	3,5	1006,42	7	8,8	8,7	1	1	1	1	1	1	1	1	1	0	1	-45,031712	274,269338	275,810938	0
14.01.2021	21:37:18	0	0	4,406242	3,91275	81,594	0,297	78,005	3,5	1006,46	6,9	8,8	8,7	1	1	1	1	1	1	1	1	1	0	1	-46,300211	274,323613	274,796475	0
14.01.2021	21:37:19	0	0	3,615378	3,87825	75,9852	0,29	78,004	3,5	1006,32	6,9	8,8	8,7	1	1	1	1	1	1	1	1	1	0	1	-45,454545	274,255794	275,32473	0
14.01.2021	21:37:20	0	0	4,858164	3,88425	84,7836	0,291	78,018	3,5	1006,52	7	8,8	8,7	1	1	1	1	1	1	1	1	1	0	1	-46,652572	274,340227	274,52191	0
14.01.2021	21:37:21	0	0	2,711534	3,86175	90,7704	0,293	78,023	3,5	1006,48	6,9	8,8	8,7	1	1	1	1	1	1	1	1	1	0	1	-45,384073	274,239252	275,317818	0
14.01.2021	21:37:22	0	0	3,502398	3,8235	88,5312	0,291	78,033	3,5	1006,44	7	8,8	8,7	1	1	1	1	1	1	1	1	1	0	1	-44,749824	274,338716	276,417582	0
14.01.2021	21:37:23	0	0	3,276436	3,5625	87,7572	0,287	78,016	3,5	1006,32	7	8,8	8,7	1	1	1	1	1	1	1	1	1	0	1	-46,300211	274,224226	274,331401	0
14.01.2021	21:37:24	0	0	2,711534	3,318	89,2908	0,295	78,031	3,5	1006,46	6,9	8,8	8,7	1	1	1	1	1	1	1	1	1	0	1	-47,21635	274,174725	273,18381	0
14.01.2021	21:37:25	0	0	3,050475	3,0945	82,6272	0,297	78,02	3,5	1006,38	7	8,8	8,7	1	1	1	1	1	1	1	1	1	0	1	-42,98802	274,213715	277,594436	0
14.01.2021	21:37:26	0	0	2,711534	3,01425	103,7016	0,293	78,025	3,5	1006,44	6,8	8,8	8,7	1	1	1	1	1	1	1	1	1	0	1	-44,326991	274,19571	276,171273	0
14.01.2021	21:37:27	0	0	4,858164	2,8425	95,8284	0,297	78,017	3,5	1006,46	7	8,8	8,7	1	1	1	1	1	1	1	1	1	0	1	-45,384073	274,165738	274,974081	0
14.01.2021	21:37:28	0	0	3,163456	2,72025	94,104	0,291	78,004	3,5	1006,42	7	8,8	8,7	1	1	1	1	1	1	1	1	1	0	1	-47,850599	274,278374	273,03433	0
14.01.2021	21:37:29	0	0	3,050475	2,45925	71,1612	0,295	78,026	3,5	1006,4	7	8,8	8,7	1	1	1	1	1	1	1	1	1	0	1	-46,159267	274,174725	274,240892	0
14.01.2021	21:37:30	0	0	2,937495	2,22075	69,8328	0,289	78,017	3,5	1006,52	6,9	8,8	8,7	1	1	1	1	1	1	1	1	1	0	1	-49,18957	274,186713	271,266633	0
14.01.2021	21:37:31	0	0	4,632203	2,32425	68,0184	0,293	78,037	3,5	1006,44	6,8	8,8	8,7	1	1	1	1	1	1	1	1	1	0	1	-47,145877	274,338716	274,021529	0
14.01.2021	21:37:32	0	0	2,485572	2,59725	62,7804	0,293	78,033	3,5	1006,5	6,8	8,8	8,7	1	1	1	1	1	1	1	1	1	0	1	-43,622269	274,255794	277,157007	0
14.01.2021	21:37:33	0	0	4,519223	2,5755	66,222	0,284	78,038	3,5	1006,42	6,8	8,8	8,7	1	1	1	1	1	1	1	1	1	0	1	-44,397463	274,35988	276,869063	0
14.01.2021	21:37:34	0	0	4,745184	2,601	60,5484	0,285	78,03	3,5	1006,34	7	8,8	8,7	1	1	1	1	1	1	1	1	1	0	1	-49,330514	274,308521	271,69552	0
14.01.2021	21:37:35	0	0	2,937495	2,5785	63,8676	0,283	78,053	3,5	1006,36	6,9	8,8	8,7	1	1	1	1	1	1	1	1	1	0	1	-45,877378	274,307013	275,141594	0
14.01.2021	21:37:36	0	0	4,745184	2,89425	67,6548	0,287	78,032	3,5	1006,54	6,8	8,8	8,7	1	1	1	1	1	1	1	1	1	0	1	-46,300211	274,189712	274,170009	0
14.01.2021	21:37:37	0	0	3,95432	3,354	77,22	0,292	78,064	3,5	1006,48	6,8	8,8	8,7	1	1	1	1	1	1	1	1	1	0	1	-46,088795	274,347783	275,121075	0
14.01.2021	21:37:38	0	0	3,95432	4,13475	67,6656	0,29	78,056	3,5	1006,42	6,8	8,8	8,7	1	1	1	1	1	1	1	1	1	0	1	-49,964764	274,308521	271,06127	0
14.01.2021	21:37:39	0	0	3,502398	4,88325	69,858	0,291	78,065	3,5	1006,48	6,8	8,8	8,7	1	1	1	1	1	1	1	1	1	0	1	-43,692741	274,311538	277,347418	0
14.01.2021	21:37:40	0	0	5,084125	5,05575	69,4764	0,289	78,044	3,5	1006,48	6,9	8,8	8,7	1	1	1	1	1	1	1	1	1	0	1	-47,639183	274,311538	273,400977	0
14.01.2021	21:37:41	0	0	2,485572	4,8735	72,3024	0,292	78,063	3,5	1006,44	7	8,8	8,7	1	1	1	1	1	1	1	1	1	0	1	-44,96124	274,340227	276,213242	0
14.01.2021	21:37:42	0	0	4,519223	4,761	72,2808	0,283	78,053	3,5	1006,48	6,8	8,8	8,7	1	1	1	1	1	1	1	1	1	0	1	-47,145877	274,297964	273,83074	0
14.01.2021	21:37:43	0	0	3,615378	4,49775	67,2876	0,283	78,069	3,5	1006,38	7	8,8	8,7	1	1	1	1	1	1	1	1	1	0	1	-46,793517	274,189712	273,676704	0
14.01.2021	21:37:44	0	0	2,711534	4,22625	84,1356	0,285	78,069	3,5	1006,52	6,8	8,8	8,7	1	1	1	1	1	1	1	1	1	0	1	-48,907681	274,213715	271,674774	0
14.01.2021	21:37:45	0	0	2,937495	4,542	69,138	0,288	78,081	3,5	1006,44	6,8	8,8	8,7	1	1	1	1	1	1	1	1	1	0	1	-45,384073	274,284399	275,529056	0
14.01.2021	21:37:46	0	0	4,519223	4,64475	75,6468	0,286	78,086	3,5	1006,42	7	8,8	8,7	1	1	1	1	1	1	1	1	1	0	1	-45,736434	274,340227	275,438048	0
14.01.2021	21:37:47	0	0	3,163456	4,54425	83,8368	0,283	78,122	3,5	1006,38	7	8,8	8,7	1	1	1	1	1	1	1	1	1	0	1	-46,018323	274,222724	274,606265	0
14.01.2021	21:37:48	0	0	2,824514	4,062	86,6736	0,285	78,138	3,5	1006,36	6,8	8,7	8,7	1	1	1	1	1	1	1	1	1	0	1	-47,21635	274,189712	273,253871	0
14.01.2021	21:37:49	0	0	2,711534	3,78	86,2668	0,288	78,165	3,5	1006,52	6,8	8,8	8,7	1	1	1	1	1	1	1	1	1	0	1	-50,951374	274,322103	270,138244	0
14.01.2021	21:37:50	0	0	2,711534	4,0665	88,9668	0,288	78,172	3,5	1006,48	7	8,8	8,7	1	1	1	1	1	1	1	1	1	0	1	-42,424242	274,180718	278,003933	0
14.01.2021	21:37:51	0	0	4,0673	4,524	92,9592	0,282	78,186	3,5	1006,54	6,8	8,8	8,7	1	1	1	1	1	1	1	1	1	0	1	-42,071882	274,206211	278,475483	0
14.01.2021	21:37:52	0	0	2,485572	4,66125	94,8096	0,283	78,202	3,5	1006,34	7	8,8	8,7	1	1	1	1	1	1	1	1	1	0	1	-42,212826	274,156756	278,103346	0
14.01.2021	21:37:53	0	0	4,519223	4,60125	88,1352	0,276	78,226	3,5	1006,56	6,8	8,8	8,7	1	1	1	1	1	1	1	1	1	0	1	-47,850599	274,273855	273,013188	0
14.01.2021	21:37:54	0	0	5,423067	4,5855	92,2536	0,275	78,233	3,5	1006,4	7	8,8	8,7	1	1	1	1	1	1	1	1	1	0	1	-44,186047	274,31003	276,84705	0
14.01.2021	21:37:55	0	0	2,485572	4,314	80,532	0,288	78,254	3,5	1006,5	6,8	8,8	8,7	1	1	1	1	1	1	1	1	1	0	1	-47,498238	274,340227	273,676244	0
14.01.2021	21:37:56	0	0	4,632203	4,23975	73,7748	0,286	78,274	3,5	1006,58	7	8,8	8,7	1	1	1	1	1	1	1	1	1	0	1	-42,706131	274,338716	278,461275	0
14.01.2021	21:37:57	0	0	4,519223	4,17375	74,9484	0,289	78,277	3,5	1006,5	7	8,8	8,7	1	1	1	1	1	1	1	1	1	0	1	-43,692741	274,299472	277,290933	0
14.01.2021	21:37:58	0	0	3,728359	3,939	79,7472	0,288	78,282	3,5	1006,58	7	8,8	8,7	1	1	1	1	1	1	1	1	1	0	1	-47,56871	274,341738	273,612848	0
14.01.2021	21:37:59	0	0	4,858164	3,7815	76,3488	0,287	78,292	3,5	1006,54	6,8	8,8	8,7	1	1	1	1	1	1	1	1	1	0	1	-46,441156	274,334184	274,705028	0
14.01.2021	21:38:00	0	0	4,406242	3,48	96,2316	0,283	78,274	3,5	1006,5	6,8	8,8	8,7	1	1	1	1	1	1	1	1	1	0	1	-47,56871	274,331163	273,563328	0
14.01.2021	21:38:01	0	0	4,406242	3,48	96,2316	0,283	78,274	3,5	1006,5	6,8	8,8	8,7	1	1	1	1	1	1	1	1	1	0	1	-47,56871	274,331163	273,563328	0
14.01.2021	21:38:02	0	0	4,858164	3,654	85,5504	0,282	78,281	3,5	1006,48	7	8,8	8,7	1	1	1	1	1	1	1	1	1	0	1	-45,525018	274,313047	275,522205	0
14.01.2021	21:38:03	0	0	3,163456	3,7365	83,7324	0,286	78,281	3,5	1006,48	7	8,8	8,7	1	1	1	1	1	1	1	1	1	0	1	-47,357294	274,219721	273,253247	0
14.01.2021	21:38:04	0	0	2,824514	3,97275	79,4232	0,279	78,269	3,5	1006,46	7	8,8	8,7	1	1	1	1	1	1	1	1	1	0	1	-43,058492	274,147777	277,215723	0
14.01.2021	21:38:05	0	0	3,95432	4,21875	92,9592	0,287	78,275	3,5	1006,5	6,8	8,8	8,7	1	1	1	1	1	1	1	1	1	0	1	-49,894292	274,19871	270,617997	0
14.01.2021	21:38:06	0	0	3,615378	4,7835	88,9596	0,289	78,263	3,5	1006,4	6,8	8,8	8,7	1	1	1	1	1	1	1	1	1	0	1	-43,904158	274,177721	276,510008	0
14.01.2021	21:38:07	0	0	5,197106	5,05275	85,1652	0,281	78,244	3,5	1006,32	6,8	8,8	8,7	1	1	1	1	1	1	1	1	1	0	1	-46,5821	274,224226	274,049512	0
14.01.2021	21:38:08	0	0	4,519223	5,196	91,8936	0,29	78,256	3,5	1006,48	6,8	8,8	8,7	1	1	1	1	1	1	1	1	1	0	1	-45,454545	274,346272	275,748246	0
14.01.2021	21:38:09	0	0	3,615378	5,0355	84,0312	0,285	78,242	3,5	1006,42	7	8,8	8,7	1	1	1	1	1	1	1	1	1	0	1	-46,723044	274,285906	274,197136	0
14.01.2021	21:38:10	0	0	2,711534	4,8525	82,9764	0,288	78,255	3,5	1006,42	6,8	8,8	8,7	1	1	1	1	1	1	1	1	1	0	1	-48,766737	274,155259	271,542441	0
14.01.2021	21:38:11	0	0	2,824514	4,6695	74,5344	0,285	78,239	3,5	1006,46	6,8	8,8	8,7	1	1	1	1	1	1	1	1	1	0	1	-46,723044	274,158252	273,600123	0
14.01.2021	21:38:12	0	0	4,406242	4,0935	80,154	0,288	78,254	3,5	1006,48	6,8	8,8	8,7	1	1	1	1	1	1	1	1	1	0	1	-47,991543	274,338716	273,175863	0
14.01.2021	21:38:13	0	0	2,937495	3,963	87,7356	0,283	78,226	3,5	1006,42	6,8	8,8	8,7	1	1	1	1	1	1	1	1	1	0	1	-42,424242	274,282893	278,481836	0
14.01.2021	21:38:14	0	0	3,95432	4,5015	96,9912	0,282	78,238	3,5	1006,48	6,8	8,8	8,7	1	1	1	1	1	1	1	1	1	0	1	-46,652572	274,158252	273,670595	0
14.01.2021	21:38:15	0	0	3,389417	4,4265	95,1516	0,284	78,218	3,5	1006,38	6,8	8,8	8,7	1	1	1	1	1	1	1	1	1	0	1	-47,709655	274,264822	273,111865	0
14.01.2021	21:38:16	0	0	3,841339	4,4535	99,5256	0,282	78,221	3,5	1006,42	6,8	8,8	8,7	1	1	1	1	1	1	1	1	1	0	1	-47,004933	274,161246	273,332227	0
14.01.2021	21:38:17	0	0	4,406242	4,662	95,8572	0,288	78,224	3,5	1006,38	6,8	8,8	8,7	1	1	1	1	1	1	1	1	1	0	1	-48,907681	274,255794	271,871594	0
14.01.2021	21:38:18	0	0	4,293261	4,773	87,3504	0,283	78,218	3,5	1006,38	6,8	8,8	8,7	1	1	1	1	1	1	1	1	1	0	1	-47,780127	274,337205	273,380204	0
14.01.2021	21:38:19	0	0	2,711534	4,46175	75,996	0,282	78,213	3,5	1006,54	6,8	8,8	8,7	1	1	1	1	1	1	1	1	1	0	1	-43,340381	274,273855	277,523406	0
14.01.2021	21:38:20	0	0	4,406242	4,032	66,5244	0,281	78,226	3,5	1006,36	6,8	8,8	8,7	1	1	1	1	1	1	1	1	1	0	1	-48,132488	274,334184	273,013696	0
14.01.2021	21:38:21	0	0	3,276436	3,65175	80,1432	0,279	78,205	3,5	1006,54	6,8	8,8	8,7	1	1	1	1	1	1	1	1	1	0	1	-44,467935	274,188213	275,995276	0
14.01.2021	21:38:22	0	0	4,519223	3,59475	71,9964	0,285	78,209	3,5	1006,34	6,8	8,8	8,7	1	1	1	1	1	1	1	1	1	0	1	-45,243129	274,320593	275,839422	0
14.01.2021	21:38:23	0	0	3,95432	3,6405	71,2368	0,284	78,202	3,5	1006,36	6,8	8,8	8,7	1	1	1	1	1	1	1	1	1	0	1	-45,102185	274,188213	275,361027	0
14.01.2021	21:38:24	0	0	3,95432	3,92175	76,8276	0,284	78,2	3,5	1006,32	7	8,8	8,7	1	1	1	1	1	1	1	1	1	0	1	-43,269908	274,34476	277,925804	0
14.01.2021	21:38:25	0	0	4,745184	3,93375	87,3756	0,283	78,19	3,5	1006,3	6,8	8,8	8,7	1	1	1	1	1	1	1	1	1	0	1	-47,780127	274,30098	273,210606	0
14.01.2021	21:38:26	0	0	4,406242	3,69825	80,9028	0,287	78,19	3,5	1006,46	6,8	8,8	8,7	1	1	1	1	1	1	1	1	1	0	1	-47,004933	274,212214	273,570503	0
14.01.2021	21:38:27	0	0	3,728359	3,381	99,9036	0,288	78,199	3,5	1006,48	6,8	8,8	8,7	1	1	1	1	1	1	1	1	1	0	1	-47,004933	274,334184	274,14125	0
14.01.2021	21:38:28	0	0	3,502398	3,51225	96,6528	0,289	78,198	3,5	1006,3	7	8,8	8,7	1	1	1	1	1	1	1	1	1	0	1	-46,652572	274,20321	273,88076	0
14.01.2021	21:38:29	0	0	5,084125	3,62175	84,7836	0,286	78,177	3,5	1006,44	6,8	8,8	8,7	1	1	1	1	1	1	1	1	1	0	1	-50,035236	274,158252	270,287932	0
14.01.2021	21:38:30	0	0	3,050475	3,756	89,334	0,289	78,181	3,5	1006,5	6,8	8,7	8,7	1	1	1	1	1	1	1	1	1	0	1	-45,454545	274,282893	275,451533	0
14.01.2021	21:38:31	0	0	3,728359	3,67425	99,1476	0,281	78,172	3,5	1006,46	6,8	8,8	8,7	1	1	1	1	1	1	1	1	1	0	1	-44,186047	274,155259	276,123131	0
14.01.2021	21:38:32	0	0	3,163456	3,5115	77,2164	0,283	78,172	3,5	1006,44	6,8	8,8	8,7	1	1	1	1	1	1	1	1	1	0	1	-46,863989	274,192711	273,620252	0
14.01.2021	21:38:33	0	0	4,406242	3,39225	100,7568	0,281	78,176	3,5	1006,62	6,8	8,8	8,7	1	1	1	1	1	1	1	1	1	0	1	-48,625793	274,31003	272,407304	0
14.01.2021	21:38:34	0	0	2,711534	3,5025	80,1612	0,282	78,161	3,5	1006,52	6,8	8,8	8,7	1	1	1	1	1	1	1	1	1	0	1	-49,260042	274,320593	271,822508	0
14.01.2021	21:38:35	0	0	2,372592	3,8175	73,7856	0,278	78,141	3,5	1006,38	6,8	8,8	8,7	1	1	1	1	1	1	1	1	1	0	1	-43,199436	274,19571	277,298827	0
14.01.2021	21:38:36	0	0	4,406242	3,77775	76,3704	0,286	78,137	3,5	1006,4	6,8	8,8	8,7	1	1	1	1	1	1	1	1	1	0	1	-43,269908	274,293441	277,68554	0
14.01.2021	21:38:37	0	0	5,197106	3,68175	86,6844	0,28	78,132	3,5	1006,46	6,8	8,8	8,7	1	1	1	1	1	1	1	1	1	0	1	-47,709655	274,281386	273,189373	0
14.01.2021	21:38:38	0	0	4,519223	3,651	79,038	0,273	78,132	3,5	1006,52	7	8,8	8,7	1	1	1	1	1	1	1	1	1	0	1	-47,921071	274,308521	273,104963	0
14.01.2021	21:38:39	0	0	2,937495	4,0515	69,1488	0,274	78,126	3,5	1006,4	6,8	8,8	8,7	1	1	1	1	1	1	1	1	1	0	1	-44,326991	274,17922	276,09418	0
14.01.2021	21:38:40	0	0	4,180281	4,665	71,6112	0,282	78,109	3,5	1006,36	6,8	8,8	8,7	1	1	1	1	1	1	1	1	1	0	1	-46,018323	274,314556	275,035964	0
14.01.2021	21:38:41	0	0	2,711534	5,22675	70,83	0,284	78,126	3,5	1006,52	6,8	8,7	8,7	1	1	1	1	1	1	1	1	1	0	1	-49,541931	274,171729	270,844224	0
14.01.2021	21:38:42	0	0	3,841339	5,38125	79,4268	0,279	78,114	3,5	1006,38	6,8	8,8	8,7	1	1	1	1	1	1	1	1	1	0	1	-45,877378	274,258803	274,915976	0
14.01.2021	21:38:43	0	0	3,389417	5,18175	90,7812	0,283	78,123	3,5	1006,52	6,8	8,8	8,7	1	1	1	1	1	1	1	1	1	0	1	-44,397463	274,322103	276,692155	0
14.01.2021	21:38:44	0	0	4,632203	4,911	88,6068	0,281	78,11	3,5	1006,38	6,8	8,7	8,7	1	1	1	1	1	1	1	1	1	0	1	-48,132488	274,328142	272,985408	0
14.01.2021	21:38:45	0	0	3,728359	4,758	95,1516	0,281	78,13	3,5	1006,6	6,8	8,8	8,7	1	1	1	1	1	1	1	1	1	0	1	-47,850599	274,266328	272,977963	0
14.01.2021	21:38:46	0	0	4,858164	4,32825	84,8124	0,279	78,129	3,5	1006,44	6,8	8,8	8,7	1	1	1	1	1	1	1	1	1	0	1	-46,370684	274,275361	274,50015	0
14.01.2021	21:38:47	0	0	2,937495	3,71775	94,0932	0,28	78,13	3,5	1006,56	7	8,8	8,7	1	1	1	1	1	1	1	1	1	0	1	-47,145877	274,135813	273,07243	0
14.01.2021	21:38:48	0	0	4,519223	3,6195	78,2892	0,283	78,128	3,5	1006,56	6,8	8,7	8,7	1	1	1	1	1	1	1	1	1	0	1	-47,780127	274,267833	273,055479	0
14.01.2021	21:38:49	0	0	3,502398	3,52575	86,2812	0,279	78,124	3,5	1006,58	6,8	8,8	8,7	1	1	1	1	1	1	1	1	1	0	1	-47,991543	274,317575	273,076874	0
14.01.2021	21:38:50	0	0	4,180281	3,363	80,1288	0,277	78,127	3,5	1006,44	6,8	8,7	8,7	1	1	1	1	1	1	1	1	1	0	1	-48,132488	274,19421	272,358764	0
14.01.2021	21:38:51	0	0	4,519223	3,33375	96,9372	0,277	78,133	3,5	1006,4	6,8	8,8	8,7	1	1	1	1	1	1	1	1	1	0	1	-48,343904	274,191211	272,133326	0
14.01.2021	21:38:52	0	0	3,276436	3,22725	94,3992	0,282	78,144	3,5	1006,62	6,8	8,8	8,7	1	1	1	1	1	1	1	1	1	0	1	-45,172657	274,270844	275,677038	0
14.01.2021	21:38:53	0	0	4,632203	3,405	100,3788	0,28	78,144	3,5	1006,5	6,8	8,8	8,7	1	1	1	1	1	1	1	1	1	0	1	-45,877378	274,28892	275,056907	0
14.01.2021	21:38:54	0	0	4,519223	3,71175	91,8792	0,278	78,143	3,5	1006,44	6,8	8,8	8,7	1	1	1	1	1	1	1	1	1	0	1	-46,441156	274,19871	274,071133	0
14.01.2021	21:38:55	0	0	3,728359	4,0305	82,5876	0,281	78,151	3,5	1006,48	6,8	8,8	8,7	1	1	1	1	1	1	1	1	1	0	1	-48,907681	274,144785	271,352552	0
14.01.2021	21:38:56	0	0	3,95432	4,07925	98,4888	0,275	78,142	3,5	1006,54	6,8	8,7	8,7	1	1	1	1	1	1	1	1	1	0	1	-46,229739	274,19571	274,268524	0
14.01.2021	21:38:57	0	0	3,276436	4,02225	88,1316	0,273	78,153	3,5	1006,5	6,8	8,7	8,7	1	1	1	1	1	1	1	1	1	0	1	-49,541931	274,326632	271,568894	0
14.01.2021	21:38:58	0	0	4,293261	3,90075	101,8476	0,281	78,138	3,5	1006,62	6,8	8,8	8,7	1	1	1	1	1	1	1	1	1	0	1	-47,427766	274,228733	273,224923	0
14.01.2021	21:38:59	0	0	2,824514	3,93075	89,7084	0,281	78,152	3,5	1006,46	6,8	8,8	8,7	1	1	1	1	1	1	1	1	1	0	1	-46,229739	274,137308	273,995554	0
14.01.2021	21:39:00	0	0	2,598553	3,7515	83,376	0,278	78,132	3,5	1006,42	6,8	8,8	8,7	1	1	1	1	1	1	1	1	1	0	1	-45,031712	274,192711	275,452528	0
14.01.2021	21:39:01	0	0	2,598553	3,7515	83,376	0,278	78,132	3,5	1006,42	6,8	8,8	8,7	1	1	1	1	1	1	1	1	1	0	1	-45,736434	274,319084	275,33905	0
14.01.2021	21:39:02	0	0	4,519223	3,51825	83,7468	0,281	78,126	3,5	1006,4	6,8	8,8	8,7	1	1	1	1	1	1	1	1	1	0	1	-44,115574	274,273855	276,748212	0
14.01.2021	21:39:03	0	0	2,824514	3,1575	99,522	0,272	78,12	3,5	1006,44	6,8	8,7	8,7	1	1	1	1	1	1	1	1	1	0	1	-43,97463	274,313047	277,072593	0
14.01.2021	21:39:04	0	0	2,711534	2,90325	88,1172	0,281	78,118	3,5	1006,46	6,8	8,7	8,7	1	1	1	1	1	1	1	1	1	0	1	-45,877378	274,249777	274,873748	0
14.01.2021	21:39:05	0	0	3,95432	3,26925	82,4436	0,281	78,147	3,5	1006,36	6,8	8,8	8,7	1	1	1	1	1	1	1	1	1	0	1	-47,780127	274,31003	273,252969	0
14.01.2021	21:39:06	0	0	4,745184	3,744	78,6708	0,274	78,118	3,5	1006,5	6,8	8,7	8,7	1	1	1	1	1	1	1	1	1	0	1	-47,21635	274,186713	273,239853	0
14.01.2021	21:39:07	0	0	2,485572	4,02975	84,0384	0,279	78,116	3,5	1006,26	6,8	8,7	8,7	1	1	1	1	1	1	1	1	1	0	1	-46,863989	274,170231	273,515165	0
14.01.2021	21:39:08	0	0	3,502398	4,0845	86,274	0,273	78,124	3,5	1006,44	6,8	8,8	8,7	1	1	1	1	1	1	1	1	1	0	1	-46,229739	274,140298	274,009529	0
14.01.2021	21:39:09	0	0	4,519223	3,99075	88,9488	0,272	78,11	3,5	1006,42	6,8	8,7	8,7	1	1	1	1	1	1	1	1	1	0	1	-44,045102	274,183716	276,397086	0
14.01.2021	21:39:10	0	0	2,598553	3,78975	93,3516	0,276	78,111	3,5	1006,36	6,8	8,7	8,7	1	1	1	1	1	1	1	1	1	0	1	-44,538407	274,303996	276,466444	0
14.01.2021	21:39:11	0	0	3,163456	3,642	86,976	0,276	78,129	3,5	1006,56	6,9	8,8	8,7	1	1	1	1	1	1	1	1	1	0	1	-46,018323	274,156756	274,29785	0
14.01.2021	21:39:12	0	0	5,423067	3,57675	86,2812	0,275	78,127	3,5	1006,48	6,8	8,7	8,7	1	1	1	1	1	1	1	1	1	0	1	-47,850599	274,19871	272,66169	0
14.01.2021	21:39:13	0	0	3,728359	3,61275	85,932	0,275	78,129	3,5	1006,66	6,8	8,8	8,7	1	1	1	1	1	1	1	1	1	0	1	-45,736434	274,153762	274,56575	0
14.01.2021	21:39:14	0	0	2,146631	3,48525	88,1208	0,276	78,145	3,5	1006,42	6,8	8,8	8,7	1	1	1	1	1	1	1	1	1	0	1	-48,837209	274,261812	271,970226	0
14.01.2021	21:39:15	0	0	3,276436	3,5625	85,5612	0,271	78,141	3,5	1006,56	6,8	8,7	8,7	1	1	1	1	1	1	1	1	1	0	1	-49,260042	274,137308	270,965251	0
14.01.2021	21:39:16	0	0	2,711534	3,5445	80,154	0,274	78,14	3,5	1006,44	6,8	8,7	8,7	1	1	1	1	1	1	1	1	1	0	1	-46,018323	274,260308	274,782072	0
14.01.2021	21:39:17	0	0	4,0673	3,68175	81,9648	0,278	78,159	3,5	1006,56	6,8	8,8	8,7	1	1	1	1	1	1	1	1	1	0	1	-46,229739	274,320593	274,852812	0
14.01.2021	21:39:18	0	0	4,180281	3,66975	87,0192	0,276	78,153	3,5	1006,52	6,8	8,8	8,7	1	1	1	1	1	1	1	1	1	0	1	-46,863989	274,212214	273,711448	0
14.01.2021	21:39:19	0	0	2,598553	3,5265	76,3812	0,279	78,177	3,5	1006,44	6,8	8,7	8,7	1	1	1	1	1	1	1	1	1	0	1	-45,313601	274,317575	275,754816	0
14.01.2021	21:39:20	0	0	2,824514	3,56775	68,4972	0,281	78,187	3,5	1006,52	6,8	8,8	8,7	1	1	1	1	1	1	1	1	1	0	1	-45,454545	274,257298	275,331769	0
14.01.2021	21:39:21	0	0	3,050475	3,513	63,504	0,278	78,183	3,5	1006,58	6,9	8,8	8,7	1	1	1	1	1	1	1	1	1	0	1	-46,300211	274,12535	273,869212	0
14.01.2021	21:39:22	0	0	4,858164	3,5445	58,4892	0,274	78,182	3,5	1006,44	6,8	8,8	8,7	1	1	1	1	1	1	1	1	1	0	1	-43,199436	274,27235	277,657304	0
14.01.2021	21:39:23	0	0	4,406242	3,855	47,754	0,274	78,18	3,5	1006,36	6,8	8,8	8,7	1	1	1	1	1	1	1	1	1	0	1	-46,441156	274,290427	274,500183	0
14.01.2021	21:39:24	0	0	4,858164	3,70575	57,4164	0,275	78,189	3,5	1006,42	6,8	8,8	8,7	1	1	1	1	1	1	1	1	1	0	1	-42,494715	274,284399	278,418414	0
14.01.2021	21:39:25	0	0	3,615378	3,231	64,6308	0,272	78,19	3,5	1006,58	6,8	8,7	8,7	1	1	1	1	1	1	1	1	1	0	1	-47,498238	274,284399	273,414891	0
14.01.2021	21:39:26	0	0	3,163456	3,036	64,242	0,274	78,172	3,5	1006,58	6,8	8,7	8,7	1	1	1	1	1	1	1	1	1	0	1	-44,96124	274,314556	276,093047	0
14.01.2021	21:39:27	0	0	3,502398	3,0135	60,6132	0,274	78,188	3,5	1006,62	6,8	8,8	8,7	1	1	1	1	1	1	1	1	1	0	1	-42,917548	274,210713	277,65087	0
14.01.2021	21:39:28	0	0	3,95432	3,05025	65,4732	0,274	78,198	3,5	1006,52	6,8	8,7	8,7	1	1	1	1	1	1	1	1	1	0	1	-42,917548	274,128339	277,26584	0
14.01.2021	21:39:29	0	0	4,0673	2,925	59,0832	0,277	78,187	3,5	1006,62	6,8	8,7	8,7	1	1	1	1	1	1	1	1	1	0	1	-44,820296	274,287413	276,106937	0
14.01.2021	21:39:30	0	0	3,728359	3,051	71,5896	0,273	78,185	3,5	1006,56	6,8	8,7	8,7	1	1	1	1	1	1	1	1	1	0	1	-46,088795	274,255794	274,690481	0
14.01.2021	21:39:31	0	0	3,502398	3,117	77,6808	0,27	78,201	3,5	1006,56	6,9	8,7	8,7	1	1	1	1	1	1	1	1	1	0	1	-42,776603	274,144785	277,483631	0
14.01.2021	21:39:32	0	0	4,293261	3,04425	76,842	0,272	78,201	3,5	1006,54	6,8	8,7	8,7	1	1	1	1	1	1	1	1	1	0	1	-44,538407	274,255794	276,240869	0
14.01.2021	21:39:33	0	0	3,276436	2,85825	73,0404	0,269	78,2	3,5	1006,46	6,9	8,7	8,7	1	1	1	1	1	1	1	1	1	0	1	-51,374207	274,120867	268,774276	0
14.01.2021	21:39:34	0	0	4,745184	2,6535	85,59	0,266	78,192	3,5	1006,28	6,9	8,8	8,7	1	1	1	1	1	1	1	1	1	0	1	-45,172657	274,189712	275,297564	0
14.01.2021	21:39:35	0	0	2,824514	2,874	86,6772	0,271	78,199	3,5	1006,52	6,8	8,7	8,7	1	1	1	1	1	1	1	1	1	0	1	-47,991543	274,303996	273,013308	0
14.01.2021	21:39:36	0	0	3,389417	2,97375	78,6312	0,273	78,197	3,5	1006,58	6,8	8,7	8,7	1	1	1	1	1	1	1	1	1	0	1	-46,370684	274,307013	274,648289	0
14.01.2021	21:39:37	0	0	3,276436	3,06525	80,5284	0,269	78,185	3,5	1006,3	6,9	8,7	8,7	1	1	1	1	1	1	1	1	1	0	1	-45,243129	274,242259	275,472827	0
14.01.2021	21:39:38	0	0	3,276436	2,96025	86,2848	0,267	78,192	3,5	1006,44	6,8	8,7	8,7	1	1	1	1	1	1	1	1	1	0	1	-49,048626	274,302488	271,949166	0
14.01.2021	21:39:39	0	0	4,971145	3,02025	86,67	0,267	78,179	3,5	1006,4	6,8	8,8	8,7	1	1	1	1	1	1	1	1	1	0	1	-43,904158	274,224226	276,727454	0
14.01.2021	21:39:40	0	0	4,519223	3,585	90,0324	0,268	78,2	3,5	1006,42	6,8	8,8	8,7	1	1	1	1	1	1	1	1	1	0	1	-45,525018	274,290427	275,416322	0
14.01.2021	21:39:41	0	0	3,163456	4,131	99,1656	0,261	78,183	3,5	1006,4	6,9	8,7	8,7	1	1	1	1	1	1	1	1	1	0	1	-45,243129	274,230235	275,416587	0
14.01.2021	21:39:42	0	0	4,745184	4,491	81,6048	0,27	78,195	3,5	1006,56	6,8	8,7	8,7	1	1	1	1	1	1	1	1	1	0	1	-48,062016	274,275361	272,808818	0
14.01.2021	21:39:43	0	0	4,180281	4,55925	80,5104	0,268	78,198	3,5	1006,44	6,8	8,7	8,7	1	1	1	1	1	1	1	1	1	0	1	-46,793517	274,126844	273,382888	0
14.01.2021	21:39:44	0	0	3,95432	4,3605	83,3544	0,267	78,186	3,5	1006,44	6,8	8,7	8,7	1	1	1	1	1	1	1	1	1	0	1	-42,283298	274,141794	277,962958	0
14.01.2021	21:39:45	0	0	5,423067	4,3395	96,624	0,269	78,206	3,5	1006,58	6,9	8,7	8,7	1	1	1	1	1	1	1	1	1	0	1	-47,075405	274,281386	273,823623	0
14.01.2021	21:39:46	0	0	3,95432	4,2225	99,1728	0,268	78,206	3,5	1006,5	6,8	8,7	8,7	1	1	1	1	1	1	1	1	1	0	1	-44,749824	274,249777	276,001303	0
14.01.2021	21:39:47	0	0	4,406242	4,00725	73,7928	0,269	78,222	3,5	1006,5	6,8	8,7	8,7	1	1	1	1	1	1	1	1	1	0	1	-47,427766	274,302488	273,570026	0
14.01.2021	21:39:48	0	0	3,502398	4,21575	75,2436	0,269	78,216	3,5	1006,5	6,8	8,7	8,7	1	1	1	1	1	1	1	1	1	0	1	-48,414376	274,269338	272,428274	0
14.01.2021	21:39:49	0	0	2,937495	4,08825	92,268	0,269	78,237	3,5	1006,4	6,9	8,8	8,7	1	1	1	1	1	1	1	1	1	0	1	-50,669486	274,147777	269,604729	0
14.01.2021	21:39:50	0	0	2,937495	4,03875	92,6316	0,27	78,252	3,5	1006,58	6,8	8,7	8,7	1	1	1	1	1	1	1	1	1	0	1	-46,370684	274,176223	274,036479	0
14.01.2021	21:39:51	0	0	2,146631	4,30875	80,1576	0,265	78,241	3,5	1006,52	6,8	8,7	8,7	1	1	1	1	1	1	1	1	1	0	1	-43,692741	274,11788	276,441785	0
14.01.2021	21:39:52	0	0	4,632203	4,6215	76,4712	0,267	78,263	3,5	1006,5	6,9	8,7	8,7	1	1	1	1	1	1	1	1	1	0	1	-45,736434	274,248273	275,007657	0
14.01.2021	21:39:53	0	0	4,180281	5,3145	81,9792	0,265	78,302	3,5	1006,6	6,8	8,7	8,7	1	1	1	1	1	1	1	1	1	0	1	-43,269908	274,313047	277,777314	0
14.01.2021	21:39:54	0	0	3,163456	5,70975	84,4128	0,266	78,327	3,5	1006,58	6,8	8,7	8,7	1	1	1	1	1	1	1	1	1	0	1	-48,907681	274,303996	272,09717	0
14.01.2021	21:39:55	0	0	2,146631	5,958	98,0496	0,267	78,341	3,5	1006,54	6,8	8,7	8,7	1	1	1	1	1	1	1	1	1	0	1	-46,652572	274,177721	273,761594	0
14.01.2021	21:39:56	0	0	2,711534	6,099	100,7496	0,268	78,368	3,5	1006,52	6,8	8,7	8,7	1	1	1	1	1	1	1	1	1	0	1	-47,427766	274,138803	272,804514	0
14.01.2021	21:39:57	0	0	4,0673	5,6895	83,3472	0,267	78,39	3,5	1006,7	6,8	8,7	8,7	1	1	1	1	1	1	1	1	1	0	1	-46,159267	274,307013	274,859705	0
14.01.2021	21:39:58	0	0	3,841339	5,5815	86,2632	0,265	78,386	3,5	1006,56	6,9	8,7	8,7	1	1	1	1	1	1	1	1	1	0	1	-48,766737	274,260308	272,033657	0
14.01.2021	21:39:59	0	0	4,971145	5,526	88,956	0,264	78,411	3,5	1006,48	6,8	8,7	8,7	1	1	1	1	1	1	1	1	1	0	1	-50,599013	274,302488	270,398778	0
14.01.2021	21:40:00	0	0	4,293313	5,0205	77,9724	0,263	78,43	3,5	1006,5	6,9	8,7	8,5	1	1	1	1	1	1	1	1	1	0	1	-44,115574	274,270844	276,734121	0
14.01.2021	21:40:01	0	0	4,293313	5,0205	77,9724	0,263	78,43	3,5	1006,5	6,9	8,7	8,5	1	1	1	1	1	1	1	1	1	0	1	-44,115574	274,270844	276,734121	0
14.01.2021	21:40:02	0	0	3,276417	4,89675	84,4416	0,267	78,434	3,5	1006,52	6,8	8,7	8,8	1	1	1	1	1	1	1	1	1	0	1	-46,652572	274,282893	274,253506	0
14.01.2021	21:40:03	0	0	4,406242	5,08125	86,2812	0,261	78,437	3,5	1006,36	6,9	8,7	8,7	1	1	1	1	1	1	1	1	1	0	1	-49,541931	274,293441	271,413517	0
14.01.2021	21:40:04	0	0	2,711534	5,09625	85,2012	0,266	78,462	3,5	1006,54	6,8	8,7	8,7	1	1	1	1	1	1	1	1	1	0	1	-43,833686	274,325122	277,27007	0
14.01.2021	21:40:05	0	0	3,728359	4,86825	93,3408	0,268	78,456	3,5	1006,64	6,9	8,8	8,7	1	1	1	1	1	1	1	1	1	0	1	-46,370684	274,186713	274,085519	0
14.01.2021	21:40:06	0	0	4,293313	4,67775	91,9332	0,26	78,453	3,5	1006,5	6,8	8,7	8,5	1	1	1	1	1	1	1	1	1	0	1	-44,326991	274,313047	276,720232	0
14.01.2021	21:40:07	0	0	4,406242	4,64625	100,3428	0,269	78,44	3,5	1006,56	6,9	8,7	8,7	1	1	1	1	1	1	1	1	1	0	1	-47,427766	274,234743	273,253035	0
14.01.2021	21:40:08	0	0	2,711534	4,545	90,7668	0,264	78,422	3,5	1006,36	6,9	8,7	8,7	1	1	1	1	1	1	1	1	1	0	1	-47,21635	274,319084	273,859134	0
14.01.2021	21:40:09	0	0	2,485572	4,6695	89,7084	0,267	78,427	3,5	1006,44	6,9	8,7	8,7	1	1	1	1	1	1	1	1	1	0	1	-45,59549	274,261812	275,211946	0
14.01.2021	21:40:10	0	0	3,276436	4,923	107,4024	0,273	78,437	3,5	1006,72	6,8	8,8	8,7	1	1	1	1	1	1	1	1	1	0	1	-49,330514	274,325122	271,773241	0
14.01.2021	21:40:11	0	0	3,163456	4,4835	115,2144	0,263	78,398	3,5	1006,42	6,8	8,7	8,7	1	1	1	1	1	1	1	1	1	0	1	-45,243129	274,246769	275,493927	0
14.01.2021	21:40:12	0	0	2,372592	4,6965	108,1476	0,275	78,409	3,5	1006,6	6,8	8,7	8,7	1	1	1	1	1	1	1	1	1	0	1	-46,441156	274,308521	274,584878	0
14.01.2021	21:40:13	0	0	4,632203	4,78275	91,4976	0,267	78,399	3,5	1006,52	6,8	8,7	8,7	1	1	1	1	1	1	1	1	1	0	1	-43,340381	274,290427	277,600959	0
14.01.2021	21:40:14	0	0	3,728359	4,69725	91,1736	0,271	78,464	3,5	1006,54	6,9	8,7	8,7	1	1	1	1	1	1	1	1	1	0	1	-45,313601	274,159749	275,016562	0
14.01.2021	21:40:15	0	0	3,615378	4,53525	95,85	0,263	78,419	3,5	1006,56	6,8	8,7	8,7	1	1	1	1	1	1	1	1	1	0	1	-45,384073	274,323613	275,712613	0
14.01.2021	21:40:16	0	0	3,615421	4,24425	96,5736	0,269	78,441	3,5	1006,44	6,8	8,7	8,5	1	1	1	1	1	1	1	1	1	0	1	-44,256519	274,230235	276,403197	0
14.01.2021	21:40:17	0	0	4,293261	4,31325	88,9776	0,268	78,453	3,5	1006,54	6,8	8,7	8,7	1	1	1	1	1	1	1	1	1	0	1	-47,21635	274,144785	273,043884	0
14.01.2021	21:40:18	0	0	2,824514	4,4025	81,9504	0,267	78,475	3,5	1006,58	6,8	8,7	8,7	1	1	1	1	1	1	1	1	1	0	1	-45,102185	274,165738	275,255969	0
14.01.2021	21:40:19	0	0	2,598553	4,41225	85,518	0,269	78,484	3,5	1006,36	6,8	8,7	8,7	1	1	1	1	1	1	1	1	1	0	1	-47,004933	274,276867	273,872948	0
14.01.2021	21:40:20	0	0	4,519223	4,674	71,6184	0,27	78,537	3,5	1006,56	6,9	8,7	8,7	1	1	1	1	1	1	1	1	1	0	1	-43,833686	274,329652	277,291281	0
14.01.2021	21:40:21	0	0	4,519195	4,7925	75,9672	0,263	78,538	3,5	1006,48	6,8	8,8	8,8	1	1	1	1	1	1	1	1	1	0	1	-43,058492	274,207712	277,495889	0
14.01.2021	21:40:22	0	0	3,841339	4,653	85,5252	0,265	78,554	3,5	1006,5	6,9	8,7	8,7	1	1	1	1	1	1	1	1	1	0	1	-48,062016	274,156756	272,254157	0
14.01.2021	21:40:23	0	0	2,824514	4,6605	89,3376	0,284	78,553	3,5	1006,42	6,9	8,7	8,7	1	1	1	1	1	1	1	1	1	0	1	-47,850599	274,285906	273,069582	0
14.01.2021	21:40:24	0	0	4,745241	4,587	84,7764	0,272	78,568	3,5	1006,6	6,8	8,7	8,5	1	1	1	1	1	1	1	1	1	0	1	-43,97463	274,156756	276,341542	0
14.01.2021	21:40:25	0	0	3,163456	4,37175	85,9356	0,271	78,556	3,5	1006,54	6,9	8,7	8,7	1	1	1	1	1	1	1	1	1	0	1	-46,934461	274,30098	274,056272	0
14.01.2021	21:40:26	0	0	4,971145	3,96225	81,972	0,272	78,553	3,5	1006,38	6,8	8,7	8,7	1	1	1	1	1	1	1	1	1	0	1	-45,243129	274,167235	275,122024	0
14.01.2021	21:40:27	0	0	2,146656	4,125	79,7724	0,268	78,535	3,5	1006,52	6,8	8,7	8,5	1	1	1	1	1	1	1	1	1	0	1	-48,766737	274,209212	271,794662	0
14.01.2021	21:40:28	0	0	3,615378	3,92175	66,528	0,277	78,53	3,5	1006,6	6,8	8,7	8,7	1	1	1	1	1	1	1	1	1	0	1	-46,5821	274,242259	274,133856	0
14.01.2021	21:40:29	0	0	2,598584	3,699	78,6528	0,273	78,525	3,5	1006,48	6,8	8,7	8,5	1	1	1	1	1	1	1	1	1	0	1	-51,726568	274,341738	269,45499	0
14.01.2021	21:40:30	0	0	4,293261	3,76275	81,612	0,272	78,5	3,5	1006,54	6,8	8,8	8,7	1	1	1	1	1	1	1	1	1	0	1	-43,340381	274,293441	277,615068	0
14.01.2021	21:40:31	0	0	3,050512	3,71475	72,324	0,276	78,503	3,5	1006,44	6,8	8,7	8,5	1	1	1	1	1	1	1	1	1	0	1	-48,343904	274,337205	272,816427	0
14.01.2021	21:40:32	0	0	2,485572	3,3735	63,18	0,271	78,477	3,5	1006,44	6,8	8,7	8,7	1	1	1	1	1	1	1	1	1	0	1	-43,269908	274,215217	277,319568	0
14.01.2021	21:40:33	0	0	3,050475	3,141	82,3356	0,275	78,45	3,5	1006,48	6,8	8,7	8,7	1	1	1	1	1	1	1	1	1	0	1	-44,045102	274,164241	276,306053	0
14.01.2021	21:40:34	0	0	5,084125	3,1185	47,7648	0,277	78,438	3,5	1006,48	6,8	8,8	8,7	1	1	1	1	1	1	1	1	1	0	1	-48,555321	274,284399	272,357808	0
14.01.2021	21:40:35	0	0	2,598584	2,97975	72,6912	0,273	78,414	3,5	1006,44	6,8	8,7	8,5	1	1	1	1	1	1	1	1	1	0	1	-47,357294	274,185214	273,091901	0
14.01.2021	21:40:36	0	0	5,536048	3,051	94,7916	0,276	78,388	3,5	1006,48	6,8	8,8	8,7	1	1	1	1	1	1	1	1	1	0	1	-47,56871	274,303996	273,436141	0
14.01.2021	21:40:37	0	0	4,632203	3,1965	78,282	0,276	78,381	3,5	1006,48	6,8	8,7	8,7	1	1	1	1	1	1	1	1	1	0	1	-45,806906	274,341738	275,374652	0
14.01.2021	21:40:38	0	0	4,519223	3,72825	78,6672	0,276	78,377	3,5	1006,44	6,8	8,7	8,7	1	1	1	1	1	1	1	1	1	0	1	-45,172657	274,216718	275,42384	0
14.01.2021	21:40:39	0	0	3,050475	4,06575	84,4452	0,279	78,354	3,5	1006,54	6,8	8,7	8,7	1	1	1	1	1	1	1	1	1	0	1	-43,97463	274,155259	276,334548	0
14.01.2021	21:40:40	0	0	4,971145	4,10175	74,268	0,276	78,347	3,5	1006,52	6,8	8,8	8,7	1	1	1	1	1	1	1	1	1	0	1	-47,145877	274,23324	273,527895	0
14.01.2021	21:40:41	0	0	4,858135	4,24425	71,622	0,281	78,307	3,5	1006,58	6,8	8,7	8,8	1	1	1	1	1	1	1	1	1	0	1	-44,115574	274,340227	277,058907	0
14.01.2021	21:40:42	0	0	4,0673	4,266	71,2296	0,278	78,307	3,5	1006,46	6,8	8,7	8,7	1	1	1	1	1	1	1	1	1	0	1	-45,525018	274,19421	274,966234	0
14.01.2021	21:40:43	0	0	4,293313	4,10025	67,6692	0,278	78,279	3,5	1006,52	6,8	8,8	8,5	1	1	1	1	1	1	1	1	1	0	1	-49,330514	274,299472	271,65316	0
14.01.2021	21:40:44	0	0	2,485602	3,567	72,7812	0,277	78,278	3,5	1006,6	6,8	8,7	8,5	1	1	1	1	1	1	1	1	1	0	1	-43,97463	274,212214	276,600806	0
14.01.2021	21:40:45	0	0	4,067349	3,52425	75,6468	0,282	78,27	3,5	1006,62	6,8	8,7	8,5	1	1	1	1	1	1	1	1	1	0	1	-42,635659	274,319084	278,439825	0
14.01.2021	21:40:46	0	0	4,180281	3,8565	77,9976	0,277	78,244	3,5	1006,44	6,8	8,8	8,7	1	1	1	1	1	1	1	1	1	0	1	-51,233263	274,326632	269,877562	0
14.01.2021	21:40:47	0	0	2,485572	4,7355	74,9412	0,284	78,249	3,5	1006,64	6,9	8,7	8,7	1	1	1	1	1	1	1	1	1	0	1	-42,001409	274,290427	278,93993	0
14.01.2021	21:40:48	0	0	4,519223	4,95975	72,7308	0,279	78,242	3,5	1006,58	6,8	8,7	8,7	1	1	1	1	1	1	1	1	1	0	1	-48,062016	274,191211	272,415215	0
14.01.2021	21:40:49	0	0	3,276476	5,08575	71,244	0,28	78,219	3,5	1006,44	6,8	8,7	8,5	1	1	1	1	1	1	1	1	1	0	1	-45,454545	274,28892	275,47974	0
14.01.2021	21:40:50	0	0	3,276436	5,42475	72,6516	0,278	78,223	3,5	1006,54	6,8	8,7	8,7	1	1	1	1	1	1	1	1	1	0	1	-48,273432	274,204711	272,266916	0
14.01.2021	21:40:51	0	0	3,276476	5,598	73,8828	0,283	78,225	3,5	1006,5	6,8	8,7	8,5	1	1	1	1	1	1	1	1	1	0	1	-47,004933	274,341738	274,176625	0
14.01.2021	21:40:52	0	0	4,519277	5,36325	72,2952	0,281	78,207	3,5	1006,46	6,8	8,7	8,5	1	1	1	1	1	1	1	1	1	0	1	-47,286822	274,337205	273,87351	0
14.01.2021	21:40:53	0	0	4,632203	5,63625	75,222	0,281	78,213	3,5	1006,52	6,8	8,7	8,7	1	1	1	1	1	1	1	1	1	0	1	-51,162791	274,285906	269,75739	0
14.01.2021	21:40:54	0	0	2,598553	5,70975	74,5488	0,286	78,217	3,5	1006,52	6,8	8,7	8,7	1	1	1	1	1	1	1	1	1	0	1	-48,132488	274,355343	273,112788	0
14.01.2021	21:40:55	0	0	3,95432	5,655	68,7816	0,283	78,215	3,5	1006,5	6,9	8,7	8,7	1	1	1	1	1	1	1	1	1	0	1	-47,850599	274,221223	272,766965	0
14.01.2021	21:40:56	0	0	4,858164	5,583	67,6728	0,279	78,212	3,5	1006,62	6,8	8,7	8,7	1	1	1	1	1	1	1	1	1	0	1	-46,511628	274,338716	274,655778	0
14.01.2021	21:40:57	0	0	3,95432	5,5215	72,2916	0,28	78,215	3,5	1006,7	6,8	8,7	8,7	1	1	1	1	1	1	1	1	1	0	1	-47,357294	274,225728	273,281343	0
14.01.2021	21:40:58	0	0	4,406295	5,3325	70,2396	0,282	78,215	3,5	1006,42	6,8	8,7	8,5	1	1	1	1	1	1	1	1	1	0	1	-43,692741	274,167235	276,672412	0
14.01.2021	21:40:59	0	0	3,389417	5,2245	69,1452	0,28	78,213	3,5	1006,56	6,8	8,7	8,7	1	1	1	1	1	1	1	1	1	0	1	-46,863989	274,287413	274,063244	0
14.01.2021	21:41:00	0	0	4,632203	4,869	76,374	0,28	78,224	3,5	1006,54	6,9	8,8	8,7	1	1	1	1	1	1	1	1	1	0	1	-45,806906	274,174725	274,593253	0
14.01.2021	21:41:01	0	0	4,632203	4,869	76,374	0,28	78,224	3,5	1006,54	6,9	8,8	8,7	1	1	1	1	1	1	1	1	1	0	1	-45,806906	274,174725	274,593253	0
14.01.2021	21:41:02	0	0	4,293261	4,64175	78,2748	0,279	78,198	3,5	1006,58	6,8	8,7	8,7	1	1	1	1	1	1	1	1	1	0	1	-44,96124	274,311538	276,078919	0
14.01.2021	21:41:03	0	0	2,824514	4,791	75,2508	0,283	78,217	3,5	1006,62	6,9	8,7	8,7	1	1	1	1	1	1	1	1	1	0	1	-47,075405	274,183716	273,366783	0
14.01.2021	21:41:04	0	0	3,95432	4,80825	80,532	0,279	78,221	3,5	1006,54	6,9	8,7	8,7	1	1	1	1	1	1	1	1	1	0	1	-47,427766	274,19721	273,07751	0
14.01.2021	21:41:05	0	0	5,197106	4,956	86,292	0,282	78,203	3,5	1006,54	6,8	8,7	8,7	1	1	1	1	1	1	1	1	1	0	1	-43,199436	274,212214	277,376	0
14.01.2021	21:41:06	0	0	3,95432	5,21625	70,6068	0,278	78,203	3,5	1006,46	6,8	8,7	8,7	1	1	1	1	1	1	1	1	1	0	1	-44,467935	274,192711	276,016305	0
14.01.2021	21:41:07	0	0	4,971145	5,25675	74,9232	0,282	78,215	3,5	1006,64	6,8	8,7	8,7	1	1	1	1	1	1	1	1	1	0	1	-48,696265	274,240755	272,012658	0
14.01.2021	21:41:08	0	0	2,937477	4,86075	69,858	0,282	78,217	3,5	1006,46	6,8	8,7	8,8	1	1	1	1	1	1	1	1	1	0	1	-45,736434	274,152266	274,558756	0
14.01.2021	21:41:09	0	0	4,971205	4,74375	93,3444	0,277	78,203	3,5	1006,44	6,8	8,7	8,5	1	1	1	1	1	1	1	1	1	0	1	-47,56871	274,260308	273,231684	0
14.01.2021	21:41:10	0	0	4,519223	4,5885	74,5416	0,284	78,204	3,5	1006,54	6,8	8,7	8,7	1	1	1	1	1	1	1	1	1	0	1	-45,736434	274,177721	274,677732	0
14.01.2021	21:41:11	0	0	4,067276	4,49175	84,7908	0,277	78,199	3,5	1006,46	6,8	8,8	8,8	1	1	1	1	1	1	1	1	1	0	1	-44,679352	274,219721	275,93119	0
14.01.2021	21:41:12	0	0	2,485572	4,2915	89,406	0,282	78,2	3,5	1006,58	6,8	8,7	8,7	1	1	1	1	1	1	1	1	1	0	1	-45,102185	274,213715	275,480271	0
14.01.2021	21:41:13	0	0	2,598553	4,14	87,6924	0,279	78,197	3,5	1006,46	6,8	8,7	8,7	1	1	1	1	1	1	1	1	1	0	1	-46,159267	274,237749	274,535594	0
14.01.2021	21:41:14	0	0	3,050512	3,9465	70,2144	0,288	78,194	3,5	1006,66	6,8	8,7	8,5	1	1	1	1	1	1	1	1	1	0	1	-47,004933	274,183716	273,437255	0
14.01.2021	21:41:15	0	0	2,485602	3,84375	68,7672	0,282	78,177	3,5	1006,5	6,8	8,7	8,5	1	1	1	1	1	1	1	1	1	0	1	-47,357294	274,269338	273,485356	0
14.01.2021	21:41:16	0	0	3,276476	4,005	58,5648	0,285	78,195	3,5	1006,74	6,8	8,7	8,5	1	1	1	1	1	1	1	1	1	0	1	-44,749824	274,350807	276,474206	0
14.01.2021	21:41:17	0	0	2,598553	4,2225	72,0072	0,284	78,179	3,5	1006,5	6,8	8,7	8,7	1	1	1	1	1	1	1	1	1	0	1	-48,062016	274,218219	272,541503	0
14.01.2021	21:41:18	0	0	4,632203	4,43625	88,1208	0,283	78,168	3,5	1006,52	6,8	8,7	8,7	1	1	1	1	1	1	1	1	1	0	1	-42,001409	274,177721	278,412757	0
14.01.2021	21:41:19	0	0	3,728403	4,7385	83,7288	0,285	78,178	3,5	1006,54	6,8	8,7	8,5	1	1	1	1	1	1	1	1	1	0	1	-45,947851	274,305504	275,064061	0
14.01.2021	21:41:20	0	0	3,615378	4,63575	68,0292	0,282	78,161	3,5	1006,42	6,9	8,7	8,7	1	1	1	1	1	1	1	1	1	0	1	-44,749824	274,365932	276,545047	0
14.01.2021	21:41:21	0	0	4,858164	4,59825	84,4344	0,281	78,165	3,5	1006,62	6,9	8,7	8,7	1	1	1	1	1	1	1	1	1	0	1	-54,263566	274,254289	266,508672	0
14.01.2021	21:41:22	0	0	4,406295	4,7475	85,5144	0,275	78,163	3,5	1006,48	6,8	8,7	8,5	1	1	1	1	1	1	1	1	1	0	1	-42,494715	274,356855	278,757644	0
14.01.2021	21:41:23	0	0	4,745241	4,5495	89,316	0,282	78,161	3,5	1006,56	6,8	8,7	8,5	1	1	1	1	1	1	1	1	1	0	1	-42,706131	274,328142	278,411764	0
14.01.2021	21:41:24	0	0	2,824514	4,089	76,7988	0,287	78,155	3,5	1006,42	6,8	8,7	8,7	1	1	1	1	1	1	1	1	1	0	1	-45,102185	274,180718	275,325991	0
14.01.2021	21:41:25	0	0	2,937495	3,83775	62,0388	0,283	78,158	3,5	1006,52	6,8	8,7	8,7	1	1	1	1	1	1	1	1	1	0	1	-46,370684	274,207712	274,183698	0
14.01.2021	21:41:26	0	0	4,067349	3,75225	78,2748	0,277	78,153	3,5	1006,54	6,8	8,7	8,5	1	1	1	1	1	1	1	1	1	0	1	-45,877378	274,216718	274,719119	0
14.01.2021	21:41:27	0	0	3,389417	3,75825	64,2384	0,285	78,155	3,5	1006,6	6,8	8,7	8,7	1	1	1	1	1	1	1	1	1	0	1	-46,159267	274,210713	274,40915	0
14.01.2021	21:41:28	0	0	4,858164	3,76725	76,8492	0,284	78,168	3,5	1006,56	6,8	8,7	8,7	1	1	1	1	1	1	1	1	1	0	1	-46,652572	274,230235	274,007144	0
14.01.2021	21:41:29	0	0	3,389417	3,6045	69,1704	0,286	78,174	3,5	1006,64	6,8	8,7	8,7	1	1	1	1	1	1	1	1	1	0	1	-44,467935	274,189712	276,002285	0
14.01.2021	21:41:30	0	0	4,519277	3,612	77,9832	0,289	78,174	3,5	1006,7	6,8	8,7	8,5	1	1	1	1	1	1	1	1	1	0	1	-45,665962	274,317575	275,402456	0
14.01.2021	21:41:31	0	0	4,519277	3,6675	60,9336	0,286	78,171	3,5	1006,58	6,8	8,7	8,5	1	1	1	1	1	1	1	1	1	0	1	-45,243129	274,210713	275,325288	0
14.01.2021	21:41:32	0	0	5,084125	3,75075	77,9832	0,285	78,183	3,5	1006,58	6,8	8,7	8,7	1	1	1	1	1	1	1	1	1	0	1	-48,343904	274,248273	272,400187	0
14.01.2021	21:41:33	0	0	3,728359	3,9435	72,6696	0,285	78,188	3,5	1006,58	6,8	8,7	8,7	1	1	1	1	1	1	1	1	1	0	1	-48,907681	274,364419	272,380102	0
14.01.2021	21:41:34	0	0	3,95432	3,8055	82,3752	0,283	78,171	3,5	1006,7	6,9	8,7	8,7	1	1	1	1	1	1	1	1	1	0	1	-46,511628	274,31003	274,521468	0
14.01.2021	21:41:35	0	0	3,841339	3,9345	82,3644	0,288	78,201	3,5	1006,48	6,8	8,7	8,7	1	1	1	1	1	1	1	1	1	0	1	-46,723044	274,375012	274,614363	0
14.01.2021	21:41:36	0	0	5,084095	4,3005	76,8528	0,288	78,208	3,5	1006,54	6,8	8,7	8,8	1	1	1	1	1	1	1	1	1	0	1	-48,273432	274,246769	272,463624	0
14.01.2021	21:41:37	0	0	3,615378	4,15875	77,994	0,282	78,209	3,5	1006,54	6,8	8,7	8,7	1	1	1	1	1	1	1	1	1	0	1	-48,766737	274,375012	272,57067	0
14.01.2021	21:41:38	0	0	4,632203	4,11525	83,34	0,286	78,176	3,5	1006,6	6,8	8,7	8,7	1	1	1	1	1	1	1	1	1	0	1	-48,062016	274,260308	272,738379	0
14.01.2021	21:41:39	0	0	3,163437	3,78225	84,4308	0,283	78,19	3,5	1006,54	6,8	8,7	8,8	1	1	1	1	1	1	1	1	1	0	1	-46,370684	274,191211	274,106547	0
14.01.2021	21:41:40	0	0	3,728359	3,63675	102,186	0,285	78,171	3,5	1006,46	6,8	8,7	8,7	1	1	1	1	1	1	1	1	1	0	1	-46,018323	274,30098	274,97241	0
14.01.2021	21:41:41	0	0	3,615378	3,2925	75,6288	0,287	78,185	3,5	1006,58	6,8	8,7	8,7	1	1	1	1	1	1	1	1	1	0	1	-46,511628	274,384097	274,86834	0
14.01.2021	21:41:42	0	0	2,711517	3,17025	104,7096	0,281	78,162	3,5	1006,48	6,8	8,7	8,8	1	1	1	1	1	1	1	1	1	0	1	-47,780127	274,299472	273,203548	0
14.01.2021	21:41:43	0	0	4,406295	3,16575	77,2272	0,278	78,147	3,5	1006,52	6,8	8,7	8,5	1	1	1	1	1	1	1	1	1	0	1	-46,229739	274,376526	275,11476	0
14.01.2021	21:41:44	0	0	3,841339	3,22125	86,9868	0,284	78,152	3,5	1006,58	6,9	8,7	8,7	1	1	1	1	1	1	1	1	1	0	1	-45,665962	274,320593	275,416589	0
14.01.2021	21:41:45	0	0	2,824514	3,36225	82,6056	0,279	78,139	3,5	1006,46	6,8	8,7	8,7	1	1	1	1	1	1	1	1	1	0	1	-44,608879	274,391671	276,806574	0
14.01.2021	21:41:46	0	0	4,745184	3,5325	90,7848	0,285	78,141	3,5	1006,62	6,8	8,7	8,7	1	1	1	1	1	1	1	1	1	0	1	-49,330514	274,317575	271,737903	0
14.01.2021	21:41:47	0	0	4,858135	3,639	84,0348	0,281	78,134	3,5	1006,62	6,8	8,7	8,8	1	1	1	1	1	1	1	1	1	0	1	-47,145877	274,381068	274,219901	0
14.01.2021	21:41:48	0	0	3,050475	3,60375	89,7372	0,286	78,122	3,5	1006,5	6,8	8,7	8,7	1	1	1	1	1	1	1	1	1	0	1	-45,102185	274,326632	276,008641	0
14.01.2021	21:41:49	0	0	2,824497	3,528	88,596	0,288	78,127	3,5	1006,5	6,8	8,7	8,8	1	1	1	1	1	1	1	1	1	0	1	-44,538407	274,20021	275,980895	0
14.01.2021	21:41:50	0	0	2,598584	3,50925	75,2508	0,29	78,114	3,5	1006,4	6,8	8,7	8,5	1	1	1	1	1	1	1	1	1	0	1	-45,384073	274,260308	275,416321	0
14.01.2021	21:41:51	0	0	2,485572	3,56775	91,1592	0,289	78,108	3,5	1006,46	6,8	8,7	8,7	1	1	1	1	1	1	1	1	1	0	1	-48,696265	274,382582	272,676608	0
14.01.2021	21:41:52	0	0	4,519223	3,522	85,932	0,285	78,116	3,5	1006,6	6,8	8,8	8,7	1	1	1	1	1	1	1	1	1	0	1	-48,343904	274,326632	272,766921	0
14.01.2021	21:41:53	0	0	2,937495	3,57675	92,9556	0,279	78,1	3,5	1006,48	6,8	8,7	8,7	1	1	1	1	1	1	1	1	1	0	1	-45,59549	274,243762	275,127499	0
14.01.2021	21:41:54	0	0	4,519195	3,8145	89,7444	0,29	78,109	3,5	1006,6	6,8	8,7	8,8	1	1	1	1	1	1	1	1	1	0	1	-49,048626	274,358368	272,210816	0
14.01.2021	21:41:55	0	0	4,0673	4,00125	64,2024	0,284	78,102	3,5	1006,62	7	8,7	8,7	1	1	1	1	1	1	1	1	1	0	1	-46,723044	274,347783	274,486826	0
14.01.2021	21:41:56	0	0	4,0673	4,11075	67,6872	0,289	78,107	3,5	1006,62	6,8	8,7	8,7	1	1	1	1	1	1	1	1	1	0	1	-46,300211	274,255794	274,479064	0
14.01.2021	21:41:57	0	0	3,728359	4,224	73,7748	0,286	78,107	3,5	1006,46	6,8	8,7	8,7	1	1	1	1	1	1	1	1	1	0	1	-47,004933	274,376526	274,339566	0
14.01.2021	21:41:58	0	0	4,858164	4,39875	69,4476	0,285	78,094	3,5	1006,44	6,8	8,7	8,7	1	1	1	1	1	1	1	1	1	0	1	-46,5821	274,260308	274,218295	0
14.01.2021	21:41:59	0	0	4,632259	4,344	73,0584	0,287	78,086	3,5	1006,44	6,8	8,8	8,5	1	1	1	1	1	1	1	1	1	0	1	-47,498238	274,341738	273,68332	0
14.01.2021	21:42:00	0	0	3,728359	3,84375	57,0492	0,291	78,08	3,5	1006,64	6,8	8,7	8,7	1	1	1	1	1	1	1	1	1	0	1	-43,692741	274,381068	277,673037	0
14.01.2021	21:42:01	0	0	3,728359	3,84375	57,0492	0,291	78,08	3,5	1006,64	6,8	8,7	8,7	1	1	1	1	1	1	1	1	1	0	1	-43,692741	274,381068	277,673037	0
14.01.2021	21:42:02	0	0	3,050475	3,5385	54,1008	0,284	78,074	3,5	1006,54	6,8	8,7	8,7	1	1	1	1	1	1	1	1	1	0	1	-46,934461	274,302488	274,063331	0
14.01.2021	21:42:03	0	0	2,824514	3,4935	56,6676	0,287	78,054	3,5	1006,6	6,8	8,7	8,7	1	1	1	1	1	1	1	1	1	0	1	-51,303735	274,370471	270,012401	0
14.01.2021	21:42:04	0	0	2,711534	3,738	65,8728	0,285	78,065	3,5	1006,5	6,8	8,8	8,7	1	1	1	1	1	1	1	1	1	0	1	-46,652572	274,258803	274,140782	0
14.01.2021	21:42:05	0	0	3,276436	4,07325	71,5968	0,287	78,066	3,5	1006,48	6,8	8,7	8,7	1	1	1	1	1	1	1	1	1	0	1	-47,21635	274,368958	274,092697	0
14.01.2021	21:42:06	0	0	2,937495	4,31025	79,7868	0,292	78,056	3,5	1006,68	7	8,7	8,7	1	1	1	1	1	1	1	1	1	0	1	-51,162791	274,266328	269,665772	0
14.01.2021	21:42:07	0	0	3,050475	4,44675	86,2524	0,289	78,041	3,5	1006,34	6,8	8,7	8,7	1	1	1	1	1	1	1	1	1	0	1	-48,273432	274,19421	272,21782	0
14.01.2021	21:42:08	0	0	2,711534	4,49475	77,202	0,289	78,029	3,5	1006,5	6,8	8,7	8,7	1	1	1	1	1	1	1	1	1	0	1	-47,357294	274,293441	273,598155	0
14.01.2021	21:42:09	0	0	3,954367	4,8015	73,0404	0,282	78,049	3,5	1006,52	6,8	8,7	8,5	1	1	1	1	1	1	1	1	1	0	1	-47,004933	274,361393	274,268678	0
14.01.2021	21:42:10	0	0	4,0673	5,019	77,5728	0,29	78,062	3,5	1006,44	6,8	8,7	8,7	1	1	1	1	1	1	1	1	1	0	1	-41,789993	274,248273	278,954098	0
14.01.2021	21:42:11	0	0	4,180281	4,74525	73,7784	0,288	78,058	3,5	1006,56	6,8	8,7	8,7	1	1	1	1	1	1	1	1	1	0	1	-49,18957	274,384097	272,190398	0
14.01.2021	21:42:12	0	0	4,745241	4,61475	57,7548	0,291	78,057	3,5	1006,48	6,8	8,8	8,5	1	1	1	1	1	1	1	1	1	0	1	-52,854123	274,263317	267,960354	0
14.01.2021	21:42:13	0	0	4,406216	4,44675	66,9168	0,29	78,067	3,5	1006,56	6,8	8,7	8,8	1	1	1	1	1	1	1	1	1	0	1	-47,075405	274,375012	274,262002	0
14.01.2021	21:42:14	0	0	2,598553	4,509	70,8516	0,291	78,071	3,5	1006,56	6,8	8,7	8,7	1	1	1	1	1	1	1	1	1	0	1	-45,384073	274,260308	275,416321	0
14.01.2021	21:42:15	0	0	4,632203	4,88925	71,604	0,293	78,042	3,5	1006,4	6,8	8,8	8,7	1	1	1	1	1	1	1	1	1	0	1	-46,652572	274,373498	274,677744	0
14.01.2021	21:42:16	0	0	3,50244	5,40375	73,17	0,289	78,057	3,5	1006,6	6,8	8,7	8,5	1	1	1	1	1	1	1	1	1	0	1	-47,357294	274,30098	273,633439	0
14.01.2021	21:42:17	0	0	2,711534	5,3355	67,2912	0,293	78,071	3,5	1006,62	7	8,7	8,7	1	1	1	1	1	1	1	1	1	0	1	-45,736434	274,20171	274,789883	0
14.01.2021	21:42:18	0	0	3,50244	5,271	67,2948	0,287	78,059	3,5	1006,36	6,8	8,7	8,5	1	1	1	1	1	1	1	1	1	0	1	-44,186047	274,213715	276,396409	0
14.01.2021	21:42:19	0	0	4,971145	5,2545	69,1668	0,284	78,055	3,5	1006,32	7	8,7	8,7	1	1	1	1	1	1	1	1	1	0	1	-49,541931	274,207712	271,01245	0
14.01.2021	21:42:20	0	0	3,276417	5,31825	69,8436	0,292	78,049	3,5	1006,52	6,8	8,7	8,8	1	1	1	1	1	1	1	1	1	0	1	-49,400987	274,248273	271,343105	0
14.01.2021	21:42:21	0	0	3,954367	5,39475	72,6912	0,289	78,059	3,5	1006,68	6,8	8,7	8,5	1	1	1	1	1	1	1	1	1	0	1	-45,031712	274,375012	276,305695	0
14.01.2021	21:42:22	0	0	2,824548	5,26875	72,3132	0,294	78,057	3,5	1006,56	6,8	8,7	8,5	1	1	1	1	1	1	1	1	1	0	1	-49,964764	274,263317	270,849713	0
14.01.2021	21:42:23	0	0	2,485572	5,02725	71,6004	0,289	78,044	3,5	1006,64	6,8	8,7	8,7	1	1	1	1	1	1	1	1	1	0	1	-46,5821	274,255794	274,197176	0
14.01.2021	21:42:24	0	0	3,389417	4,806	72,2988	0,296	78,063	3,5	1006,48	6,8	8,7	8,7	1	1	1	1	1	1	1	1	1	0	1	-53,206483	274,37804	268,145108	0
14.01.2021	21:42:25	0	0	2,824514	4,50525	68,7636	0,289	78,05	3,5	1006,5	6,8	8,7	8,7	1	1	1	1	1	1	1	1	1	0	1	-46,652572	274,227231	273,993091	0
14.01.2021	21:42:26	0	0	3,163437	4,07925	63,504	0,289	78,054	3,5	1006,52	6,8	8,7	8,8	1	1	1	1	1	1	1	1	1	0	1	-44,608879	274,243762	276,114109	0
14.01.2021	21:42:27	0	0	3,050475	4,06275	59,85	0,287	78,05	3,5	1006,44	6,8	8,7	8,7	1	1	1	1	1	1	1	1	1	0	1	-47,709655	274,240755	272,999269	0
14.01.2021	21:42:28	0	0	3,389417	4,27125	71,2296	0,292	78,055	3,5	1006,48	6,8	8,7	8,7	1	1	1	1	1	1	1	1	1	0	1	-46,723044	274,367445	274,578914	0
14.01.2021	21:42:29	0	0	2,372592	3,963	59,1084	0,291	78,045	3,5	1006,6	6,8	8,7	8,7	1	1	1	1	1	1	1	1	1	0	1	-41,649049	274,270844	279,200646	0
14.01.2021	21:42:30	0	0	3,841339	3,71325	60,9444	0,29	78,05	3,5	1006,48	6,8	8,7	8,7	1	1	1	1	1	1	1	1	1	0	1	-46,511628	274,215217	274,077848	0
14.01.2021	21:42:31	0	0	4,406242	3,7635	77,2236	0,291	78,026	3,5	1006,56	6,8	8,7	8,7	1	1	1	1	1	1	1	1	1	0	1	-45,665962	274,270844	275,183733	0
14.01.2021	21:42:32	0	0	3,728359	3,62625	51,0588	0,287	78,041	3,5	1006,5	6,8	8,7	8,7	1	1	1	1	1	1	1	1	1	0	1	-44,820296	274,204711	275,720052	0
14.01.2021	21:42:33	0	0	4,406242	3,8625	64,2672	0,292	78,048	3,5	1006,48	6,8	8,7	8,7	1	1	1	1	1	1	1	1	1	0	1	-47,075405	274,325122	274,02835	0
14.01.2021	21:42:34	0	0	2,937495	4,01925	61,6932	0,292	78,05	3,5	1006,54	6,8	8,7	8,7	1	1	1	1	1	1	1	1	1	0	1	-45,384073	274,20021	275,135229	0
14.01.2021	21:42:35	0	0	4,858164	3,91425	60,2244	0,288	78,032	3,5	1006,56	6,8	8,7	8,7	1	1	1	1	1	1	1	1	1	0	1	-46,652572	274,264822	274,168947	0
14.01.2021	21:42:36	0	0	4,632203	3,858	76,8384	0,291	78,038	3,5	1006,5	6,8	8,8	8,7	1	1	1	1	1	1	1	1	1	0	1	-51,79704	274,204711	268,743308	0
14.01.2021	21:42:37	0	0	2,485572	3,61275	73,8684	0,292	78,031	3,5	1006,44	6,8	8,7	8,7	1	1	1	1	1	1	1	1	1	0	1	-45,736434	274,228733	274,916255	0
14.01.2021	21:42:38	0	0	4,745241	3,46875	88,5924	0,29	78,038	3,5	1006,58	6,8	8,8	8,5	1	1	1	1	1	1	1	1	1	0	1	-45,59549	274,328142	275,522406	0
14.01.2021	21:42:39	0	0	4,293261	3,171	71,2332	0,291	78,045	3,5	1006,72	7	8,7	8,7	1	1	1	1	1	1	1	1	1	0	1	-46,652572	274,191211	273,824658	0
14.01.2021	21:42:40	0	0	3,163456	3,0375	69,8724	0,293	78,024	3,5	1006,62	6,8	8,7	8,7	1	1	1	1	1	1	1	1	1	0	1	-44,467935	274,273855	276,395852	0
14.01.2021	21:42:41	0	0	2,824514	2,9355	91,5336	0,294	78,036	3,5	1006,78	7	8,8	8,7	1	1	1	1	1	1	1	1	1	0	1	-46,018323	274,212214	274,557113	0
14.01.2021	21:42:42	0	0	2,711517	2,877	79,4268	0,293	78,02	3,5	1006,5	6,8	8,7	8,8	1	1	1	1	1	1	1	1	1	0	1	-45,806906	274,260308	274,993488	0
14.01.2021	21:42:43	0	0	3,502398	2,9595	86,9616	0,292	78,011	3,5	1006,46	7	8,8	8,7	1	1	1	1	1	1	1	1	1	0	1	-45,102185	274,221223	275,51538	0
14.01.2021	21:42:44	0	0	3,502398	3,444	87,75	0,283	78,005	3,5	1006,46	6,8	8,8	8,7	1	1	1	1	1	1	1	1	1	0	1	-49,894292	274,323613	271,202395	0
14.01.2021	21:42:45	0	0	2,937495	4,21575	65,4588	0,298	77,996	3,5	1006,62	6,8	8,7	8,7	1	1	1	1	1	1	1	1	1	0	1	-43,058492	274,248273	277,685599	0
14.01.2021	21:42:46	0	0	4,971145	4,635	71,2548	0,289	77,988	3,5	1006,46	6,8	8,7	8,7	1	1	1	1	1	1	1	1	1	0	1	-50,669486	274,35988	270,597041	0
14.01.2021	21:42:47	0	0	2,598584	5,02275	70,218	0,294	78,005	3,5	1006,6	7	8,8	8,5	1	1	1	1	1	1	1	1	1	0	1	-46,511628	274,206211	274,035736	0
14.01.2021	21:42:48	0	0	2,93753	4,836	79,038	0,288	77,988	3,5	1006,5	6,8	8,8	8,5	1	1	1	1	1	1	1	1	1	0	1	-47,286822	274,260308	273,513573	0
14.01.2021	21:42:49	0	0	3,615378	4,4385	81,594	0,292	77,984	3,5	1006,54	6,8	8,7	8,7	1	1	1	1	1	1	1	1	1	0	1	-48,414376	274,385611	272,972687	0
14.01.2021	21:42:50	0	0	4,858164	4,323	70,2252	0,287	77,987	3,5	1006,66	6,8	8,7	8,7	1	1	1	1	1	1	1	1	1	0	1	-42,494715	274,284399	278,418414	0
14.01.2021	21:42:51	0	0	4,0673	4,46175	78,6456	0,294	77,989	3,5	1006,56	6,8	8,7	8,7	1	1	1	1	1	1	1	1	1	0	1	-49,541931	274,215217	271,047545	0
14.01.2021	21:42:52	0	0	3,163456	4,52025	96,2244	0,285	77,973	3,5	1006,4	7	8,8	8,7	1	1	1	1	1	1	1	1	1	0	1	-45,525018	274,245266	275,205005	0
14.01.2021	21:42:53	0	0	2,711534	4,83525	86,2956	0,291	77,987	3,5	1006,46	6,8	8,7	8,7	1	1	1	1	1	1	1	1	1	0	1	-45,031712	274,326632	276,079113	0
14.01.2021	21:42:54	0	0	4,858164	5,2485	82,5732	0,288	77,983	3,5	1006,68	6,8	8,7	8,7	1	1	1	1	1	1	1	1	1	0	1	-48,132488	274,396216	273,304266	0
14.01.2021	21:42:55	0	0	4,406268	5,41725	90,3708	0,29	77,988	3,5	1006,56	6,8	8,7	8,6	1	1	1	1	1	1	1	1	1	0	1	-48,484848	274,27235	272,371892	0
14.01.2021	21:42:56	0	0	4,406242	5,53575	86,2956	0,292	77,973	3,5	1006,5	6,8	8,7	8,7	1	1	1	1	1	1	1	1	1	0	1	-44,467935	274,399247	276,983021	0
14.01.2021	21:42:57	0	0	3,050475	5,709	87,732	0,282	77,992	3,5	1006,42	6,8	8,8	8,7	1	1	1	1	1	1	1	1	1	0	1	-46,088795	274,335694	275,064462	0
14.01.2021	21:42:58	0	0	2,598553	5,769	82,962	0,294	77,995	3,5	1006,62	7	8,7	8,7	1	1	1	1	1	1	1	1	1	0	1	-49,048626	274,393186	272,373927	0
14.01.2021	21:42:59	0	0	4,406295	5,691	85,5432	0,289	78,015	3,5	1006,46	6,8	8,8	8,5	1	1	1	1	1	1	1	1	1	0	1	-48,273432	274,266328	272,55513	0
14.01.2021	21:43:00	0	0	4,632203	5,841	91,89	0,284	78,009	3,5	1006,52	7	8,7	8,7	1	1	1	1	1	1	1	1	1	0	1	-49,260042	274,209212	271,301357	0
14.01.2021	21:43:01	0	0	4,632203	5,841	91,89	0,284	78,009	3,5	1006,52	7	8,7	8,7	1	1	1	1	1	1	1	1	1	0	1	-49,260042	274,209212	271,301357	0
14.01.2021	21:43:02	0	0	4,067325	5,88525	89,9928	0,294	78,022	3,5	1006,62	6,8	8,8	8,6	1	1	1	1	1	1	1	1	1	0	1	-45,384073	274,353831	275,85412	0
14.01.2021	21:43:03	0	0	3,050475	5,90325	88,128	0,292	78,023	3,5	1006,5	6,8	8,7	8,7	1	1	1	1	1	1	1	1	1	0	1	-44,820296	274,213715	275,76216	0
14.01.2021	21:43:04	0	0	2,824497	5,8575	89,316	0,288	78,018	3,5	1006,56	6,8	8,7	8,8	1	1	1	1	1	1	1	1	1	0	1	-45,313601	274,242259	275,402354	0
14.01.2021	21:43:05	0	0	3,502398	5,931	85,1688	0,287	78,008	3,5	1006,42	7	8,7	8,7	1	1	1	1	1	1	1	1	1	0	1	-48,696265	274,384097	272,683703	0
14.01.2021	21:43:06	0	0	3,95432	5,92875	84,7944	0,286	78,004	3,5	1006,56	6,8	8,7	8,7	1	1	1	1	1	1	1	1	1	0	1	-52,149401	274,225728	268,489236	0
14.01.2021	21:43:07	0	0	2,937495	5,70825	85,9032	0,289	78,005	3,5	1006,52	7	8,7	8,7	1	1	1	1	1	1	1	1	1	0	1	-46,511628	274,222724	274,11296	0
14.01.2021	21:43:08	0	0	5,310087	5,38425	84,42	0,291	77,99	3,5	1006,48	6,8	8,7	8,7	1	1	1	1	1	1	1	1	1	0	1	-49,119098	274,325122	271,984658	0
14.01.2021	21:43:09	0	0	4,632203	5,11125	85,5252	0,287	78,007	3,5	1006,6	7	8,7	8,7	1	1	1	1	1	1	1	1	1	0	1	-45,454545	274,376526	275,889953	0
14.01.2021	21:43:10	0	0	2,711566	4,81125	79,1316	0,295	77,997	3,5	1006,48	6,8	8,7	8,5	1	1	1	1	1	1	1	1	1	0	1	-47,075405	274,258803	273,717949	0
14.01.2021	21:43:11	0	0	3,841339	4,9875	87,7176	0,289	78,001	3,5	1006,44	6,8	8,7	8,7	1	1	1	1	1	1	1	1	1	0	1	-43,622269	274,19871	276,89002	0
14.01.2021	21:43:12	0	0	4,632203	5,06775	87,39	0,294	77,994	3,5	1006,62	6,8	8,8	8,7	1	1	1	1	1	1	1	1	1	0	1	-44,397463	274,263317	276,417014	0
14.01.2021	21:43:13	0	0	4,971145	5,13675	92,2644	0,294	78,006	3,5	1006,48	7	8,7	8,7	1	1	1	1	1	1	1	1	1	0	1	-47,21635	274,391671	274,199104	0
14.01.2021	21:43:14	0	0	3,389417	4,959	86,724	0,291	78,007	3,5	1006,5	6,8	8,7	8,7	1	1	1	1	1	1	1	1	1	0	1	-46,5821	274,364419	274,705683	0
14.01.2021	21:43:15	0	0	4,745184	4,71	81,954	0,29	77,997	3,5	1006,64	6,8	8,7	8,7	1	1	1	1	1	1	1	1	1	0	1	-50,035236	274,275361	270,835598	0
14.01.2021	21:43:16	0	0	4,519223	4,49475	75,6072	0,293	77,993	3,5	1006,56	6,8	8,7	8,7	1	1	1	1	1	1	1	1	1	0	1	-47,921071	274,19871	272,591218	0
14.01.2021	21:43:17	0	0	2,824514	4,38975	82,98	0,291	77,972	3,5	1006,52	6,8	8,7	8,7	1	1	1	1	1	1	1	1	1	0	1	-46,652572	274,294949	274,309932	0
14.01.2021	21:43:18	0	0	4,180281	4,3185	92,2536	0,294	77,982	3,5	1006,46	6,8	8,7	8,7	1	1	1	1	1	1	1	1	1	0	1	-48,555321	274,393186	272,867232	0
14.01.2021	21:43:19	0	0	2,711534	4,4205	83,7144	0,289	77,971	3,5	1006,62	7	8,8	8,7	1	1	1	1	1	1	1	1	1	0	1	-49,260042	274,350807	271,963988	0
14.01.2021	21:43:20	0	0	4,632203	4,482	86,652	0,292	77,969	3,5	1006,5	6,8	8,7	8,7	1	1	1	1	1	1	1	1	1	0	1	-48,837209	274,402279	272,627953	0
14.01.2021	21:43:21	0	0	3,050475	4,353	80,5932	0,293	77,988	3,5	1006,56	7	8,8	8,7	1	1	1	1	1	1	1	1	1	0	1	-50,880902	274,323613	270,215785	0
14.01.2021	21:43:22	0	0	2,824514	4,272	85,1724	0,29	77,99	3,5	1006,32	6,8	8,8	8,7	1	1	1	1	1	1	1	1	1	0	1	-44,820296	274,230235	275,83942	0
14.01.2021	21:43:23	0	0	2,711534	4,36125	87,7248	0,303	77,991	3,5	1006,62	6,8	8,7	8,7	1	1	1	1	1	1	1	1	1	0	1	-48,132488	274,34476	273,063225	0
14.01.2021	21:43:24	0	0	3,163456	4,4865	85,1688	0,291	77,984	3,5	1006,54	6,8	8,7	8,7	1	1	1	1	1	1	1	1	1	0	1	-45,736434	274,254289	275,035804	0
14.01.2021	21:43:25	0	0	2,824514	4,54725	82,584	0,295	78,007	3,5	1006,54	6,8	8,8	8,7	1	1	1	1	1	1	1	1	1	0	1	-47,639183	274,27988	273,252796	0
14.01.2021	21:43:26	0	0	4,632259	4,5645	80,4996	0,298	78,013	3,5	1006,44	7	8,7	8,5	1	1	1	1	1	1	1	1	1	0	1	-50,17618	274,243762	270,546808	0
14.01.2021	21:43:27	0	0	2,824514	4,41	86,9508	0,288	78,005	3,5	1006,36	7	8,7	8,7	1	1	1	1	1	1	1	1	1	0	1	-45,102185	274,373498	276,228131	0
14.01.2021	21:43:28	0	0	2,824514	4,10025	87,3576	0,299	78,017	3,5	1006,58	7	8,7	8,7	1	1	1	1	1	1	1	1	1	0	1	-47,21635	274,219721	273,394192	0
14.01.2021	21:43:29	0	0	4,745184	3,90075	86,2488	0,294	78,019	3,5	1006,64	7	8,7	8,7	1	1	1	1	1	1	1	1	1	0	1	-50,458069	274,293441	270,497379	0
14.01.2021	21:43:30	0	0	2,598553	4,10325	94,3812	0,295	78,001	3,5	1006,6	7	8,7	8,7	1	1	1	1	1	1	1	1	1	0	1	-47,850599	274,23324	272,823173	0
14.01.2021	21:43:31	0	0	4,632203	4,00125	84,042	0,298	78,016	3,5	1006,44	7	8,7	8,7	1	1	1	1	1	1	1	1	1	0	1	-47,921071	274,313047	273,126152	0
14.01.2021	21:43:32	0	0	4,971115	4,0035	85,1868	0,293	78,007	3,5	1006,58	7	8,7	8,8	1	1	1	1	1	1	1	1	1	0	1	-44,96124	274,230235	275,698476	0
14.01.2021	21:43:33	0	0	4,180281	4,0695	86,6664	0,296	78,025	3,5	1006,48	6,8	8,7	8,7	1	1	1	1	1	1	1	1	1	0	1	-45,172657	274,340227	276,001825	0
14.01.2021	21:43:34	0	0	2,937495	4,0185	93,3264	0,297	78,024	3,5	1006,6	6,8	8,8	8,7	1	1	1	1	1	1	1	1	1	0	1	-50,17618	274,399247	271,274776	0
14.01.2021	21:43:35	0	0	4,858164	3,993	83,7396	0,297	78,014	3,5	1006,5	6,8	8,7	8,7	1	1	1	1	1	1	1	1	1	0	1	-47,850599	274,293441	273,104849	0
14.01.2021	21:43:36	0	0	2,598553	4,07625	86,2524	0,295	78,022	3,5	1006,48	7	8,7	8,7	1	1	1	1	1	1	1	1	1	0	1	-48,132488	274,396216	273,304266	0
14.01.2021	21:43:37	0	0	4,971145	4,119	75,6288	0,297	78,026	3,5	1006,58	7	8,8	8,7	1	1	1	1	1	1	1	1	1	0	1	-45,877378	274,297964	275,099239	0
14.01.2021	21:43:38	0	0	3,050475	3,915	81,5904	0,298	78,019	3,5	1006,5	7	8,7	8,7	1	1	1	1	1	1	1	1	1	0	1	-47,709655	274,239252	272,992237	0
14.01.2021	21:43:39	0	0	2,372592	3,867	76,3632	0,294	78,001	3,5	1006,4	7	8,8	8,7	1	1	1	1	1	1	1	1	1	0	1	-46,511628	274,347783	274,698242	0
14.01.2021	21:43:40	0	0	2,485572	4,1865	83,736	0,3	77,993	3,5	1006,58	7	8,8	8,7	1	1	1	1	1	1	1	1	1	0	1	-43,692741	274,41441	277,829271	0
14.01.2021	21:43:41	0	0	4,519223	4,02225	65,0736	0,301	77,984	3,5	1006,64	7	8,7	8,7	1	1	1	1	1	1	1	1	1	0	1	-45,525018	274,340227	275,649464	0
14.01.2021	21:43:42	0	0	2,711534	3,9105	61,6896	0,302	77,967	3,5	1006,68	7	8,8	8,7	1	1	1	1	1	1	1	1	1	0	1	-48,132488	274,411376	273,375308	0
14.01.2021	21:43:43	0	0	4,0673	4,11	74,9196	0,3	77,967	3,5	1006,56	7	8,7	8,7	1	1	1	1	1	1	1	1	1	0	1	-43,904158	274,281386	276,99487	0
14.01.2021	21:43:44	0	0	4,293313	4,27275	65,0916	0,296	77,963	3,5	1006,66	7	8,7	8,5	1	1	1	1	1	1	1	1	1	0	1	-46,723044	274,248273	274,021047	0
14.01.2021	21:43:45	0	0	2,372592	4,43625	69,8328	0,299	77,954	3,5	1006,5	7	8,7	8,7	1	1	1	1	1	1	1	1	1	0	1	-46,300211	274,266328	274,528351	0
14.01.2021	21:43:46	0	0	2,372592	4,29675	70,8408	0,298	77,953	3,5	1006,56	7	8,7	8,7	1	1	1	1	1	1	1	1	1	0	1	-47,145877	274,263317	273,6686	0
14.01.2021	21:43:47	0	0	3,728359	4,25325	79,758	0,3	77,944	3,5	1006,54	6,8	8,7	8,7	1	1	1	1	1	1	1	1	1	0	1	-46,018323	274,275361	274,852511	0
14.01.2021	21:43:48	0	0	2,824514	4,38225	91,494	0,303	77,951	3,5	1006,46	7	8,7	8,7	1	1	1	1	1	1	1	1	1	0	1	-52,78365	274,269338	268,059	0
14.01.2021	21:43:49	0	0	2,598553	4,38975	69,1452	0,297	77,944	3,5	1006,56	7	8,8	8,7	1	1	1	1	1	1	1	1	1	0	1	-48,907681	274,276867	271,9702	0
14.01.2021	21:43:50	0	0	3,389417	4,176	84,0348	0,301	77,939	3,5	1006,74	7	8,8	8,7	1	1	1	1	1	1	1	1	1	0	1	-45,031712	274,385611	276,355351	0
14.01.2021	21:43:51	0	0	4,406242	3,98475	101,1096	0,298	77,946	3,5	1006,64	7	8,7	8,7	1	1	1	1	1	1	1	1	1	0	1	-45,59549	274,394701	275,834163	0
14.01.2021	21:43:52	0	0	2,711534	3,90975	78,2784	0,301	77,924	3,5	1006,7	6,8	8,8	8,7	1	1	1	1	1	1	1	1	1	0	1	-49,330514	274,368958	271,978532	0
14.01.2021	21:43:53	0	0	4,519195	3,36525	86,9652	0,306	77,958	3,5	1006,52	7	8,7	8,8	1	1	1	1	1	1	1	1	1	0	1	-51,937984	274,397732	269,50587	0
14.01.2021	21:43:54	0	0	3,050457	3,057	53,3556	0,298	77,947	3,5	1006,52	7	8,8	8,8	1	1	1	1	1	1	1	1	1	0	1	-45,525018	274,40986	275,975671	0
14.01.2021	21:43:55	0	0	4,406242	2,964	84,4236	0,302	77,957	3,5	1006,54	7	8,8	8,7	1	1	1	1	1	1	1	1	1	0	1	-49,119098	274,367445	272,18286	0
14.01.2021	21:43:56	0	0	3,050475	3,1755	81,5868	0,3	77,941	3,5	1006,76	7	8,7	8,7	1	1	1	1	1	1	1	1	1	0	1	-46,863989	274,246769	273,873068	0
14.01.2021	21:43:57	0	0	4,519223	3,549	78,6852	0,306	77,938	3,5	1006,56	7	8,7	8,7	1	1	1	1	1	1	1	1	1	0	1	-46,934461	274,338716	274,232945	0
14.01.2021	21:43:58	0	0	2,824514	3,876	84,0528	0,298	77,941	3,5	1006,5	7	8,7	8,7	1	1	1	1	1	1	1	1	1	0	1	-50,317125	274,249777	270,434002	0
14.01.2021	21:43:59	0	0	4,0673	3,89325	87,3684	0,302	77,95	3,5	1006,66	7	8,8	8,7	1	1	1	1	1	1	1	1	1	0	1	-46,441156	274,397732	275,002699	0
14.01.2021	21:44:00	0	0	2,598553	4,60575	84,8016	0,307	77,933	3,5	1006,66	7	8,7	8,7	1	1	1	1	1	1	1	1	1	0	1	-43,481325	274,341738	277,700233	0
14.01.2021	21:44:01	0	0	4,632203	5,2815	89,2476	0,306	77,91	3,5	1006,64	6,8	8,8	8,7	1	1	1	1	1	1	1	1	1	0	1	-43,481325	274,341738	277,700233	0
14.01.2021	21:44:02	0	0	4,632203	5,2815	89,2476	0,306	77,91	3,5	1006,64	6,8	8,8	8,7	1	1	1	1	1	1	1	1	1	0	1	-47,21635	274,399247	274,234607	0
14.01.2021	21:44:03	0	0	4,293261	5,7615	94,3704	0,304	77,91	3,5	1006,54	7	8,7	8,7	1	1	1	1	1	1	1	1	1	0	1	-44,397463	274,276867	276,480418	0
14.01.2021	21:44:04	0	0	2,485572	5,544	86,2668	0,304	77,895	3,5	1006,62	7	8,8	8,7	1	1	1	1	1	1	1	1	1	0	1	-48,132488	274,420478	273,417966	0
14.01.2021	21:44:05	0	0	4,858164	5,1345	93,3984	0,301	77,877	3,5	1006,5	7	8,7	8,7	1	1	1	1	1	1	1	1	1	0	1	-48,696265	274,30098	272,294468	0
14.01.2021	21:44:06	0	0	2,937495	5,08425	90,3996	0,304	77,867	3,5	1006,52	7	8,8	8,7	1	1	1	1	1	1	1	1	1	0	1	-48,625793	274,240755	272,083131	0
14.01.2021	21:44:07	0	0	3,95432	4,81875	84,4164	0,304	77,868	3,5	1006,56	6,8	8,7	8,7	1	1	1	1	1	1	1	1	1	0	1	-49,682875	274,415927	271,846246	0
14.01.2021	21:44:08	0	0	4,293261	4,71675	74,9232	0,306	77,877	3,5	1006,62	6,8	8,7	8,7	1	1	1	1	1	1	1	1	1	0	1	-44,749824	274,403795	276,722442	0
14.01.2021	21:44:09	0	0	2,937495	4,6995	87,3648	0,3	77,858	3,5	1006,62	7	8,7	8,7	1	1	1	1	1	1	1	1	1	0	1	-49,682875	274,225728	270,955762	0
14.01.2021	21:44:10	0	0	2,711534	4,236	93,3264	0,308	77,851	3,5	1006,62	7	8,8	8,7	1	1	1	1	1	1	1	1	1	0	1	-46,229739	274,415927	275,299382	0
14.01.2021	21:44:11	0	0	2,711534	4,07925	105,138	0,307	77,85	3,5	1006,44	7	8,8	8,7	1	1	1	1	1	1	1	1	1	0	1	-44,467935	274,270844	276,38176	0
14.01.2021	21:44:12	0	0	3,389417	4,065	77,6628	0,302	77,832	3,5	1006,46	7	8,7	8,7	1	1	1	1	1	1	1	1	1	0	1	-45,806906	274,314556	275,247381	0
14.01.2021	21:44:13	0	0	3,841339	4,0785	90,396	0,308	77,851	3,5	1006,58	7	8,7	8,7	1	1	1	1	1	1	1	1	1	0	1	-49,260042	274,240755	271,448881	0
14.01.2021	21:44:14	0	0	4,293261	4,1385	96,2388	0,304	77,846	3,5	1006,56	7	8,8	8,7	1	1	1	1	1	1	1	1	1	0	1	-44,679352	274,30098	276,311381	0
14.01.2021	21:44:15	0	0	2,485572	3,89475	96,1992	0,31	77,859	3,5	1006,74	7	8,8	8,7	1	1	1	1	1	1	1	1	1	0	1	-43,692741	274,41441	277,829271	0
14.01.2021	21:44:16	0	0	2,824514	3,94125	98,7912	0,304	77,853	3,5	1006,8	6,8	8,7	8,7	1	1	1	1	1	1	1	1	1	0	1	-45,384073	274,307013	275,634899	0
14.01.2021	21:44:17	0	0	3,95432	3,8835	91,17	0,307	77,852	3,5	1006,62	7	8,8	8,7	1	1	1	1	1	1	1	1	1	0	1	-47,780127	274,418961	273,763216	0
14.01.2021	21:44:18	0	0	5,310087	3,78225	78,642	0,304	77,856	3,5	1006,62	7	8,7	8,7	1	1	1	1	1	1	1	1	1	0	1	-50,951374	274,352319	270,279737	0
14.01.2021	21:44:19	0	0	3,502398	3,9165	90,7848	0,305	77,838	3,5	1006,5	7	8,8	8,7	1	1	1	1	1	1	1	1	1	0	1	-47,21635	274,255794	273,562926	0
14.01.2021	21:44:20	0	0	2,598553	4,0395	79,7976	0,305	77,855	3,5	1006,64	7	8,8	8,7	1	1	1	1	1	1	1	1	1	0	1	-53,699789	274,264822	267,121731	0
14.01.2021	21:44:21	0	0	3,728359	4,29675	84,8016	0,31	77,86	3,5	1006,54	7	8,8	8,7	1	1	1	1	1	1	1	1	1	0	1	-45,384073	274,246769	275,352983	0
14.01.2021	21:44:22	0	0	3,728336	4,383	78,2748	0,307	77,859	3,5	1006,56	7	8,8	8,8	1	1	1	1	1	1	1	1	1	0	1	-47,709655	274,332673	273,429456	0
14.01.2021	21:44:23	0	0	4,858164	4,4325	85,8996	0,302	77,851	3,5	1006,46	7	8,8	8,7	1	1	1	1	1	1	1	1	1	0	1	-48,555321	274,444771	273,109007	0
14.01.2021	21:44:24	0	0	4,745184	4,35825	77,9544	0,308	77,841	3,5	1006,62	7	8,7	8,7	1	1	1	1	1	1	1	1	1	0	1	-48,555321	274,379554	272,803364	0
14.01.2021	21:44:25	0	0	4,971145	4,1715	84,798	0,3	77,835	3,5	1006,54	7	8,7	8,7	1	1	1	1	1	1	1	1	1	0	1	-48,484848	274,431103	273,115404	0
14.01.2021	21:44:26	0	0	2,259611	3,954	92,9556	0,307	77,828	3,5	1006,5	7	8,8	8,7	1	1	1	1	1	1	1	1	1	0	1	-46,300211	274,270844	274,549484	0
14.01.2021	21:44:27	0	0	3,389417	3,91275	77,6556	0,308	77,822	3,5	1006,64	7	8,7	8,7	1	1	1	1	1	1	1	1	1	0	1	-46,300211	274,408343	275,19337	0
14.01.2021	21:44:28	0	0	5,197106	4,05075	76,374	0,312	77,807	3,5	1006,6	7	8,7	8,7	1	1	1	1	1	1	1	1	1	0	1	-48,907681	274,387126	272,486479	0
14.01.2021	21:44:29	0	0	4,0673	4,158	81,198	0,311	77,789	3,5	1006,42	7	8,8	8,7	1	1	1	1	1	1	1	1	1	0	1	-47,004933	274,270844	273,844762	0
14.01.2021	21:44:30	0	0	4,971145	4,0935	83,3724	0,31	77,789	3,5	1006,56	7	8,8	8,7	1	1	1	1	1	1	1	1	1	0	1	-53,840733	274,384097	267,539235	0
14.01.2021	21:44:31	0	0	4,632203	4,0545	81,234	0,313	77,79	3,5	1006,5	7	8,7	8,7	1	1	1	1	1	1	1	1	1	0	1	-48,625793	274,412893	272,889111	0
14.01.2021	21:44:32	0	0	3,615378	3,939	83,3472	0,312	77,772	3,5	1006,64	7	8,8	8,7	1	1	1	1	1	1	1	1	1	0	1	-46,793517	274,346272	274,409275	0
14.01.2021	21:44:33	0	0	3,841339	3,80025	88,5888	0,317	77,766	3,5	1006,6	7	8,8	8,7	1	1	1	1	1	1	1	1	1	0	1	-47,427766	274,242259	273,28819	0
14.01.2021	21:44:34	0	0	4,293261	3,65775	90,7596	0,311	77,757	3,5	1006,62	7	8,8	8,7	1	1	1	1	1	1	1	1	1	0	1	-49,894292	274,314556	271,159995	0
14.01.2021	21:44:35	0	0	4,293261	3,62325	80,5176	0,314	77,757	3,5	1006,78	7	8,8	8,7	1	1	1	1	1	1	1	1	1	0	1	-48,555321	274,245266	272,174701	0
14.01.2021	21:44:36	0	0	4,293261	3,744	83,7216	0,308	77,742	3,5	1006,5	7	8,7	8,7	1	1	1	1	1	1	1	1	1	0	1	-51,303735	274,362906	269,976962	0
14.01.2021	21:44:37	0	0	2,598553	3,8295	85,9104	0,304	77,755	3,5	1006,66	7	8,8	8,7	1	1	1	1	1	1	1	1	1	0	1	-48,625793	274,421996	272,931773	0
14.01.2021	21:44:38	0	0	2,598553	3,861	84,4092	0,309	77,747	3,5	1006,58	7	8,8	8,7	1	1	1	1	1	1	1	1	1	0	1	-47,56871	274,340227	273,605771	0
14.01.2021	21:44:39	0	0	3,841339	3,97425	84,4452	0,309	77,745	3,5	1006,6	7	8,8	8,7	1	1	1	1	1	1	1	1	1	0	1	-47,991543	274,41441	273,530469	0
14.01.2021	21:44:40	0	0	4,406242	3,81075	82,5948	0,311	77,739	3,5	1006,46	7	8,7	8,7	1	1	1	1	1	1	1	1	1	0	1	-45,806906	274,355343	275,438369	0
14.01.2021	21:44:41	0	0	3,389417	3,8955	107,4384	0,312	77,744	3,5	1006,58	7	8,8	8,7	1	1	1	1	1	1	1	1	1	0	1	-46,300211	274,411376	275,207584	0
14.01.2021	21:44:42	0	0	4,632203	3,88725	104,1192	0,304	77,743	3,5	1006,4	7	8,8	8,7	1	1	1	1	1	1	1	1	1	0	1	-49,541931	274,346272	271,66086	0
14.01.2021	21:44:43	0	0	3,276436	3,85875	107,7156	0,306	77,735	3,5	1006,62	7	8,8	8,7	1	1	1	1	1	1	1	1	1	0	1	-44,186047	274,418961	277,357296	0
14.01.2021	21:44:44	0	0	4,293261	3,7275	103,6944	0,307	77,732	3,5	1006,68	7	8,7	8,7	1	1	1	1	1	1	1	1	1	0	1	-45,384073	274,367445	275,917885	0
14.01.2021	21:44:45	0	0	2,824514	3,51375	97,7364	0,308	77,737	3,5	1006,48	7	8,8	8,7	1	1	1	1	1	1	1	1	1	0	1	-44,397463	274,437176	277,23126	0
14.01.2021	21:44:46	0	0	3,050475	3,465	92,934	0,305	77,744	3,5	1006,46	7	8,8	8,7	1	1	1	1	1	1	1	1	1	0	1	-42,283298	274,337205	278,877033	0
14.01.2021	21:44:47	0	0	3,95432	3,35775	84,7728	0,312	77,718	3,5	1006,54	7	8,8	8,7	1	1	1	1	1	1	1	1	1	0	1	-42,283298	274,254289	278,48894	0
14.01.2021	21:44:48	0	0	3,728359	3,4125	86,2632	0,31	77,711	3,5	1006,52	7	8,7	8,7	1	1	1	1	1	1	1	1	1	0	1	-49,330514	274,278374	271,554415	0
14.01.2021	21:44:49	0	0	3,728359	3,20475	93,042	0,31	77,734	3,5	1006,52	7	8,8	8,7	1	1	1	1	1	1	1	1	1	0	1	-45,665962	274,387126	275,728198	0
14.01.2021	21:44:50	0	0	3,841339	3,126	100,7208	0,312	77,725	3,5	1006,64	7	8,8	8,7	1	1	1	1	1	1	1	1	1	0	1	-47,145877	274,282893	273,760201	0
14.01.2021	21:44:51	0	0	3,841339	3,20025	84,438	0,311	77,719	3,5	1006,62	7	8,8	8,7	1	1	1	1	1	1	1	1	1	0	1	-49,260042	274,356855	271,992316	0
14.01.2021	21:44:52	0	0	4,632203	3,0825	91,4832	0,31	77,709	3,5	1006,6	7	8,8	8,7	1	1	1	1	1	1	1	1	1	0	1	-45,102185	274,423513	276,462494	0
14.01.2021	21:44:53	0	0	4,858164	3,0675	93,78	0,312	77,715	3,5	1006,52	6,8	8,8	8,7	1	1	1	1	1	1	1	1	1	0	1	-47,850599	274,257298	272,935716	0
14.01.2021	21:44:54	0	0	3,841339	3,066	88,974	0,314	77,703	3,5	1006,7	7	8,8	8,7	1	1	1	1	1	1	1	1	1	0	1	-44,186047	274,426549	277,392859	0
14.01.2021	21:44:55	0	0	4,971145	2,913	98,0604	0,312	77,686	3,5	1006,42	7	8,8	8,7	1	1	1	1	1	1	1	1	1	0	1	-45,736434	274,412893	275,77847	0
14.01.2021	21:44:56	0	0	2,598553	2,71125	92,2464	0,308	77,696	3,5	1006,44	7	8,7	8,7	1	1	1	1	1	1	1	1	1	0	1	-48,766737	274,388641	272,63452	0
14.01.2021	21:44:57	0	0	4,971145	2,784	93,708	0,311	77,694	3,5	1006,56	7	8,8	8,7	1	1	1	1	1	1	1	1	1	0	1	-45,454545	274,260308	275,345849	0
14.01.2021	21:44:58	0	0	2,711534	2,808	88,5816	0,314	77,698	3,5	1006,56	7	8,8	8,7	1	1	1	1	1	1	1	1	1	0	1	-47,004933	274,285906	273,915248	0
14.01.2021	21:44:59	0	0	4,519195	2,85525	88,5456	0,309	77,693	3,5	1006,52	7	8,7	8,8	1	1	1	1	1	1	1	1	1	0	1	-42,917548	274,240755	277,791376	0
14.01.2021	21:45:00	0	0	4,293261	3,00525	79,7724	0,315	77,69	3,5	1006,6	7	8,8	8,7	1	1	1	1	1	1	1	1	1	0	1	-47,427766	274,234743	273,253035	0
14.01.2021	21:45:01	0	0	4,293261	3,00525	79,7724	0,315	77,69	3,5	1006,6	7	8,8	8,7	1	1	1	1	1	1	1	1	1	0	1	-47,427766	274,234743	273,253035	0
14.01.2021	21:45:02	0	0	3,163456	3,05325	81,9648	0,309	77,677	3,5	1006,48	7	8,7	8,7	1	1	1	1	1	1	1	1	1	0	1	-47,286822	274,361393	273,98679	0
14.01.2021	21:45:03	0	0	3,615378	3,46875	92,6676	0,312	77,674	3,5	1006,56	7	8,7	8,7	1	1	1	1	1	1	1	1	1	0	1	-47,21635	274,23324	273,457422	0
14.01.2021	21:45:04	0	0	3,276436	3,58275	94,086	0,319	77,683	3,5	1006,54	7	8,8	8,7	1	1	1	1	1	1	1	1	1	0	1	-43,481325	274,287413	277,445908	0
14.01.2021	21:45:05	0	0	4,971145	3,786	97,7076	0,309	77,686	3,5	1006,58	7	8,8	8,7	1	1	1	1	1	1	1	1	1	0	1	-49,048626	274,415927	272,480496	0
14.01.2021	21:45:06	0	0	4,180281	4,062	95,1336	0,319	77,697	3,5	1006,56	7	8,8	8,7	1	1	1	1	1	1	1	1	1	0	1	-44,608879	274,261812	276,198556	0
14.01.2021	21:45:07	0	0	2,711534	3,9645	95,598	0,308	77,687	3,5	1006,56	7	8,8	8,7	1	1	1	1	1	1	1	1	1	0	1	-46,441156	274,239252	274,260736	0
14.01.2021	21:45:08	0	0	4,0673	4,01925	98,4528	0,312	77,687	3,5	1006,6	7	8,8	8,7	1	1	1	1	1	1	1	1	1	0	1	-48,343904	274,376526	273,000595	0
14.01.2021	21:45:09	0	0	4,971145	4,1295	84,4308	0,313	77,695	3,5	1006,62	7	8,8	8,7	1	1	1	1	1	1	1	1	1	0	1	-46,229739	274,228733	274,42295	0
14.01.2021	21:45:10	0	0	4,180281	4,25325	82,944	0,316	77,707	3,5	1006,6	7	8,8	8,7	1	1	1	1	1	1	1	1	1	0	1	-46,018323	274,370471	275,297813	0
14.01.2021	21:45:11	0	0	4,293261	4,0035	99,2628	0,313	77,713	3,5	1006,58	7	8,8	8,7	1	1	1	1	1	1	1	1	1	0	1	-43,551797	274,396216	277,884956	0
14.01.2021	21:45:12	0	0	4,971145	4,2795	111,0492	0,308	77,711	3,5	1006,62	7	8,8	8,7	1	1	1	1	1	1	1	1	1	0	1	-41,860465	274,417444	279,675767	0
14.01.2021	21:45:13	0	0	4,632203	4,002	90,3816	0,309	77,715	3,5	1006,58	7	8,8	8,7	1	1	1	1	1	1	1	1	1	0	1	-44,679352	274,296456	276,290209	0
14.01.2021	21:45:14	0	0	3,728359	3,37575	92,6244	0,312	77,712	3,5	1006,44	7	8,8	8,7	1	1	1	1	1	1	1	1	1	0	1	-44,256519	274,257298	276,529796	0
14.01.2021	21:45:15	0	0	4,0673	3,14625	73,7496	0,311	77,699	3,5	1006,56	7	8,8	8,7	1	1	1	1	1	1	1	1	1	0	1	-42,706131	274,282893	278,199947	0
14.01.2021	21:45:16	0	0	3,728359	3,26775	89,3088	0,315	77,711	3,5	1006,5	7	8,8	8,7	1	1	1	1	1	1	1	1	1	0	1	-45,384073	274,40986	276,116615	0
14.01.2021	21:45:17	0	0	2,937495	3,40575	88,0992	0,309	77,675	3,5	1006,48	6,8	8,8	8,7	1	1	1	1	1	1	1	1	1	0	1	-48,273432	274,302488	272,72436	0
14.01.2021	21:45:18	0	0	2,824514	3,14175	82,3464	0,311	77,675	3,5	1006,64	7	8,7	8,7	1	1	1	1	1	1	1	1	1	0	1	-49,18957	274,234743	271,491231	0
14.01.2021	21:45:19	0	0	4,632203	2,829	77,9724	0,309	77,677	3,5	1006,62	7	8,8	8,7	1	1	1	1	1	1	1	1	1	0	1	-47,427766	274,297964	273,548851	0
14.01.2021	21:45:20	0	0	4,858164	2,712	66,9276	0,312	77,672	3,5	1006,64	7	8,8	8,7	1	1	1	1	1	1	1	1	1	0	1	-48,273432	274,234743	272,407369	0
14.01.2021	21:45:21	0	0	2,598553	2,8725	82,3392	0,31	77,67	3,5	1006,58	7	8,7	8,7	1	1	1	1	1	1	1	1	1	0	1	-51,233263	274,28892	269,701023	0
14.01.2021	21:45:22	0	0	2,824514	3,078	76,9068	0,314	77,66	3,5	1006,62	6,8	8,8	8,7	1	1	1	1	1	1	1	1	1	0	1	-47,991543	274,246769	272,745513	0
14.01.2021	21:45:23	0	0	2,937495	3,2535	73,4112	0,312	77,646	3,5	1006,56	7	8,8	8,7	1	1	1	1	1	1	1	1	1	0	1	-48,766737	274,373498	272,563579	0
14.01.2021	21:45:24	0	0	3,163456	3,411	75,9852	0,315	77,641	3,5	1006,64	7	8,8	8,7	1	1	1	1	1	1	1	1	1	0	1	-46,370684	274,221223	274,246881	0
14.01.2021	21:45:25	0	0	4,519223	3,4965	69,4584	0,311	77,642	3,5	1006,62	7	8,8	8,7	1	1	1	1	1	1	1	1	1	0	1	-47,850599	274,341738	273,330959	0
14.01.2021	21:45:26	0	0	2,598553	3,702	76,0788	0,316	77,645	3,5	1006,5	7	8,8	8,7	1	1	1	1	1	1	1	1	1	0	1	-49,471459	274,216718	271,125038	0
14.01.2021	21:45:27	0	0	3,502398	3,84975	77,9436	0,303	77,636	3,5	1006,5	7	8,8	8,7	1	1	1	1	1	1	1	1	1	0	1	-46,159267	274,358368	275,100175	0
14.01.2021	21:45:28	0	0	3,050475	4,077	73,0512	0,314	77,642	3,5	1006,66	7	8,7	8,7	1	1	1	1	1	1	1	1	1	0	1	-45,806906	274,397732	275,636948	0
14.01.2021	21:45:29	0	0	3,276436	4,257	66,5208	0,314	77,63	3,5	1006,44	7	8,8	8,7	1	1	1	1	1	1	1	1	1	0	1	-53,840733	274,294949	267,121771	0
14.01.2021	21:45:30	0	0	2,937495	4,21125	70,9164	0,309	77,624	3,5	1006,82	6,8	8,7	8,7	1	1	1	1	1	1	1	1	1	0	1	-46,5821	274,255794	274,197176	0
14.01.2021	21:45:31	0	0	3,050475	4,06575	80,8992	0,305	77,63	3,5	1006,66	7	8,8	8,7	1	1	1	1	1	1	1	1	1	0	1	-43,481325	274,381068	277,884453	0
14.01.2021	21:45:32	0	0	3,841339	4,00425	77,2164	0,306	77,612	3,5	1006,66	7	8,8	8,7	1	1	1	1	1	1	1	1	1	0	1	-48,273432	274,221223	272,344132	0
14.01.2021	21:45:33	0	0	3,502398	3,759	60,9156	0,311	77,601	3,5	1006,54	7	8,8	8,7	1	1	1	1	1	1	1	1	1	0	1	-51,656096	274,285906	269,264085	0
14.01.2021	21:45:34	0	0	2,372592	3,52275	49,9464	0,304	77,605	3,5	1006,54	7	8,8	8,7	1	1	1	1	1	1	1	1	1	0	1	-48,062016	274,415927	273,467106	0
14.01.2021	21:45:35	0	0	4,0673	3,53025	53,7264	0,308	77,604	3,5	1006,66	7	8,8	8,7	1	1	1	1	1	1	1	1	1	0	1	-42,776603	274,347783	278,433267	0
14.01.2021	21:45:36	0	0	4,293261	3,46125	61,6608	0,307	77,613	3,5	1006,66	7	8,8	8,7	1	1	1	1	1	1	1	1	1	0	1	-45,806906	274,402279	275,658256	0
14.01.2021	21:45:37	0	0	4,180281	3,3135	51,444	0,309	77,623	3,5	1006,6	7	8,8	8,7	1	1	1	1	1	1	1	1	1	0	1	-47,991543	274,27235	272,865197	0
14.01.2021	21:45:38	0	0	4,745184	3,216	51,0552	0,311	77,631	3,5	1006,66	7	8,8	8,7	1	1	1	1	1	1	1	1	1	0	1	-49,400987	274,227231	271,244676	0
14.01.2021	21:45:39	0	0	4,293261	3,27225	62,0532	0,307	77,643	3,5	1006,66	7	8,8	8,7	1	1	1	1	1	1	1	1	1	0	1	-49,471459	274,338716	271,695947	0
14.01.2021	21:45:40	0	0	5,084125	3,5115	71,604	0,302	77,632	3,5	1006,48	7	8,8	8,7	1	1	1	1	1	1	1	1	1	0	1	-49,400987	274,41441	272,121026	0
14.01.2021	21:45:41	0	0	4,406242	3,67575	68,3964	0,306	77,642	3,5	1006,56	7	8,8	8,7	1	1	1	1	1	1	1	1	1	0	1	-45,031712	274,352319	276,199399	0
14.01.2021	21:45:42	0	0	2,372592	3,66975	58,122	0,309	77,652	3,5	1006,52	7	8,7	8,7	1	1	1	1	1	1	1	1	1	0	1	-49,119098	274,397732	272,324756	0
14.01.2021	21:45:43	0	0	4,406242	3,4995	59,5044	0,305	77,663	3,5	1006,62	7	8,8	8,7	1	1	1	1	1	1	1	1	1	0	1	-46,652572	274,341738	274,528986	0
14.01.2021	21:45:44	0	0	2,485572	3,74475	66,5316	0,308	77,678	3,5	1006,56	7	8,8	8,7	1	1	1	1	1	1	1	1	1	0	1	-46,018323	274,228733	274,634366	0
14.01.2021	21:45:45	0	0	3,276436	3,684	88,5924	0,307	77,666	3,5	1006,44	7	8,8	8,7	1	1	1	1	1	1	1	1	1	0	1	-48,625793	274,297964	272,350824	0
14.01.2021	21:45:46	0	0	2,937495	3,3975	79,0236	0,309	77,674	3,5	1006,72	6,8	8,7	8,7	1	1	1	1	1	1	1	1	1	0	1	-46,511628	274,261812	274,295808	0
14.01.2021	21:45:47	0	0	4,519223	3,18075	63,162	0,305	77,672	3,5	1006,64	7	8,8	8,7	1	1	1	1	1	1	1	1	1	0	1	-46,5821	274,349295	274,63485	0
14.01.2021	21:45:48	0	0	4,971145	3,06	77,6592	0,307	77,678	3,5	1006,48	7	8,8	8,7	1	1	1	1	1	1	1	1	1	0	1	-48,555321	274,403795	272,916945	0
14.01.2021	21:45:49	0	0	3,276436	2,787	71,9712	0,303	77,675	3,5	1006,5	7	8,8	8,7	1	1	1	1	1	1	1	1	1	0	1	-47,075405	274,252785	273,689795	0
14.01.2021	21:45:50	0	0	4,293261	2,664	68,0148	0,305	77,677	3,5	1006,5	7	8,8	8,7	1	1	1	1	1	1	1	1	1	0	1	-49,400987	274,385611	271,986077	0
14.01.2021	21:45:51	0	0	2,937495	2,751	61,6752	0,301	77,677	3,5	1006,46	6,8	8,8	8,7	1	1	1	1	1	1	1	1	1	0	1	-44,890768	274,245266	275,839254	0
14.01.2021	21:45:52	0	0	2,711534	2,9205	69,48	0,307	77,676	3,5	1006,46	7	8,8	8,7	1	1	1	1	1	1	1	1	1	0	1	-44,045102	274,343249	277,143533	0
14.01.2021	21:45:53	0	0	4,632203	2,90175	57,0348	0,307	77,678	3,5	1006,5	7	8,8	8,7	1	1	1	1	1	1	1	1	1	0	1	-45,525018	274,364419	275,762766	0
14.01.2021	21:45:54	0	0	2,711534	3,129	67,2876	0,307	77,658	3,5	1006,62	7	8,8	8,7	1	1	1	1	1	1	1	1	1	0	1	-49,119098	274,387126	272,275062	0
14.01.2021	21:45:55	0	0	2,485572	3,621	75,9816	0,307	77,673	3,5	1006,58	7	8,8	8,7	1	1	1	1	1	1	1	1	1	0	1	-42,424242	274,239252	278,277649	0
14.01.2021	21:45:56	0	0	2,485572	4,377	75,2364	0,309	77,67	3,5	1006,66	6,8	8,8	8,7	1	1	1	1	1	1	1	1	1	0	1	-44,397463	274,35988	276,869063	0
14.01.2021	21:45:57	0	0	4,0673	4,52475	74,5344	0,301	77,641	3,5	1006,56	6,8	8,8	8,7	1	1	1	1	1	1	1	1	1	0	1	-47,21635	274,379554	274,142335	0
14.01.2021	21:45:58	0	0	3,050475	4,36875	76,356	0,304	77,651	3,5	1006,6	7	8,8	8,7	1	1	1	1	1	1	1	1	1	0	1	-43,128964	274,391671	278,28649	0
14.01.2021	21:45:59	0	0	3,841339	4,46775	73,422	0,305	77,638	3,5	1006,54	6,8	8,8	8,7	1	1	1	1	1	1	1	1	1	0	1	-49,471459	274,361393	271,802153	0
14.01.2021	21:46:00	0	0	4,0673	4,69425	69,462	0,302	77,644	3,5	1006,64	6,8	8,8	8,7	1	1	1	1	1	1	1	1	1	0	1	-47,075405	274,234743	273,605396	0
14.01.2021	21:46:01	0	0	4,519223	4,9065	73,6812	0,297	77,64	3,5	1006,46	6,8	8,8	8,7	1	1	1	1	1	1	1	1	1	0	1	-45,172657	274,28892	275,761629	0
14.01.2021	21:46:02	0	0	4,519223	4,9065	73,6812	0,297	77,64	3,5	1006,46	6,8	8,8	8,7	1	1	1	1	1	1	1	1	1	0	1	-45,172657	274,28892	275,761629	0
14.01.2021	21:46:03	0	0	4,406242	5,0955	70,6284	0,302	77,663	3,5	1006,66	7	8,8	8,7	1	1	1	1	1	1	1	1	1	0	1	-42,776603	274,210713	277,791814	0
14.01.2021	21:46:04	0	0	4,0673	5,07975	85,9032	0,304	77,667	3,5	1006,5	7	8,8	8,7	1	1	1	1	1	1	1	1	1	0	1	-48,766737	274,251281	271,991426	0
14.01.2021	21:46:05	0	0	2,711534	4,842	74,9304	0,306	77,665	3,5	1006,72	6,8	8,8	8,7	1	1	1	1	1	1	1	1	1	0	1	-46,5821	274,397732	274,861754	0
14.01.2021	21:46:06	0	0	4,0673	4,51125	81,9504	0,304	77,666	3,5	1006,32	7	8,8	8,7	1	1	1	1	1	1	1	1	1	0	1	-46,652572	274,267833	274,183034	0
14.01.2021	21:46:07	0	0	3,050475	4,5945	69,8436	0,307	77,677	3,5	1006,4	7	8,7	8,7	1	1	1	1	1	1	1	1	1	0	1	-45,525018	274,221223	275,092547	0
14.01.2021	21:46:08	0	0	4,632203	4,60275	57,0312	0,305	77,674	3,5	1006,58	7	8,8	8,7	1	1	1	1	1	1	1	1	1	0	1	-45,877378	274,326632	275,233447	0
14.01.2021	21:46:09	0	0	4,519223	4,31025	74,16	0,304	77,672	3,5	1006,62	7	8,7	8,7	1	1	1	1	1	1	1	1	1	0	1	-49,964764	274,216718	270,631733	0
14.01.2021	21:46:10	0	0	4,971145	4,24575	82,9728	0,302	77,684	3,5	1006,54	7	8,8	8,7	1	1	1	1	1	1	1	1	1	0	1	-50,17618	274,281386	270,722847	0
14.01.2021	21:46:11	0	0	2,598553	4,14075	79,7544	0,3	77,679	3,5	1006,54	6,8	8,8	8,7	1	1	1	1	1	1	1	1	1	0	1	-49,964764	274,402279	271,500398	0
14.01.2021	21:46:12	0	0	4,293261	4,05525	74,9088	0,304	77,703	3,5	1006,66	7	8,8	8,7	1	1	1	1	1	1	1	1	1	0	1	-47,145877	274,361393	274,127734	0
14.01.2021	21:46:13	0	0	3,95432	3,801	101,826	0,298	77,702	3,5	1006,52	7	8,8	8,7	1	1	1	1	1	1	1	1	1	0	1	-47,357294	274,362906	273,923403	0
14.01.2021	21:46:14	0	0	4,632203	3,537	87,7068	0,304	77,729	3,5	1006,66	7	8,8	8,7	1	1	1	1	1	1	1	1	1	0	1	-47,639183	274,406827	273,847293	0
14.01.2021	21:46:15	0	0	5,197106	3,21225	103,662	0,306	77,719	3,5	1006,52	7	8,8	8,7	1	1	1	1	1	1	1	1	1	0	1	-44,186047	274,275361	276,684787	0
14.01.2021	21:46:16	0	0	4,180281	3,05175	62,7876	0,297	77,722	3,5	1006,56	7	8,8	8,7	1	1	1	1	1	1	1	1	1	0	1	-48,20296	274,397732	273,240895	0
14.01.2021	21:46:17	0	0	2,372592	3,04125	81,5832	0,301	77,702	3,5	1006,72	7	8,8	8,7	1	1	1	1	1	1	1	1	1	0	1	-44,820296	274,337205	276,340035	0
14.01.2021	21:46:18	0	0	3,615378	3,009	78,2676	0,304	77,711	3,5	1006,56	6,8	8,7	8,7	1	1	1	1	1	1	1	1	1	0	1	-47,075405	274,219721	273,535136	0
14.01.2021	21:46:19	0	0	4,0673	3,2295	90,0288	0,301	77,715	3,5	1006,58	7	8,8	8,7	1	1	1	1	1	1	1	1	1	0	1	-44,749824	274,296456	276,219736	0
14.01.2021	21:46:20	0	0	2,711534	3,54525	88,1208	0,298	77,704	3,5	1006,52	6,8	8,8	8,7	1	1	1	1	1	1	1	1	1	0	1	-42,142354	274,215217	278,447122	0
14.01.2021	21:46:21	0	0	3,502398	3,5955	80,9064	0,299	77,699	3,5	1006,54	7	8,8	8,7	1	1	1	1	1	1	1	1	1	0	1	-46,441156	274,242259	274,2748	0
14.01.2021	21:46:22	0	0	4,745184	3,6075	71,9964	0,296	77,691	3,5	1006,46	7	8,8	8,7	1	1	1	1	1	1	1	1	1	0	1	-46,511628	274,20021	274,007675	0
14.01.2021	21:46:23	0	0	4,632203	3,573	84,4308	0,307	77,688	3,5	1006,46	7	8,8	8,7	1	1	1	1	1	1	1	1	1	0	1	-47,427766	274,267833	273,40784	0
14.01.2021	21:46:24	0	0	2,711534	3,44475	65,8332	0,299	77,681	3,5	1006,68	7	8,8	8,7	1	1	1	1	1	1	1	1	1	0	1	-45,525018	274,387126	275,869142	0
14.01.2021	21:46:25	0	0	4,632203	3,3	78,2604	0,306	77,693	3,5	1006,66	6,8	8,8	8,7	1	1	1	1	1	1	1	1	1	0	1	-45,947851	274,341738	275,233708	0
14.01.2021	21:46:26	0	0	3,389417	3,7005	79,7472	0,294	77,702	3,5	1006,52	6,8	8,8	8,7	1	1	1	1	1	1	1	1	1	0	1	-44,96124	274,19721	275,544036	0
14.01.2021	21:46:27	0	0	3,502398	4,08675	80,1432	0,298	77,676	3,5	1006,52	7	8,8	8,7	1	1	1	1	1	1	1	1	1	0	1	-50,317125	274,307013	270,701848	0
14.01.2021	21:46:28	0	0	3,502398	4,2585	77,6088	0,302	77,694	3,5	1006,56	7	8,8	8,7	1	1	1	1	1	1	1	1	1	0	1	-41,437632	274,387126	279,956528	0
14.01.2021	21:46:29	0	0	3,841339	4,2795	77,9508	0,302	77,684	3,5	1006,68	6,8	8,8	8,7	1	1	1	1	1	1	1	1	1	0	1	-45,736434	274,251281	275,021729	0
14.01.2021	21:46:30	0	0	4,632203	4,22175	65,4732	0,298	77,676	3,5	1006,48	7	8,7	8,7	1	1	1	1	1	1	1	1	1	0	1	-44,397463	274,23324	276,276309	0
14.01.2021	21:46:31	0	0	3,050475	4,2045	50,688	0,301	77,674	3,5	1006,6	6,8	8,8	8,7	1	1	1	1	1	1	1	1	1	0	1	-46,441156	274,239252	274,260736	0
14.01.2021	21:46:32	0	0	4,406242	3,90375	68,112	0,297	77,673	3,5	1006,58	6,8	8,7	8,7	1	1	1	1	1	1	1	1	1	0	1	-40,38055	274,322103	280,709069	0
14.01.2021	21:46:33	0	0	3,95432	3,582	72,3024	0,296	77,655	3,5	1006,6	7	8,8	8,7	1	1	1	1	1	1	1	1	1	0	1	-42,917548	274,376526	278,426951	0
14.01.2021	21:46:34	0	0	4,632203	3,252	63,4932	0,298	77,664	3,5	1006,68	6,8	8,8	8,7	1	1	1	1	1	1	1	1	1	0	1	-47,780127	274,31003	273,252969	0
14.01.2021	21:46:35	0	0	4,293261	3,09675	66,546	0,297	77,659	3,5	1006,68	7	8,7	8,7	1	1	1	1	1	1	1	1	1	0	1	-45,525018	274,209212	275,036381	0
14.01.2021	21:46:36	0	0	4,0673	3,13275	66,2184	0,295	77,64	3,5	1006,56	7	8,8	8,7	1	1	1	1	1	1	1	1	1	0	1	-45,172657	274,293441	275,782792	0
14.01.2021	21:46:37	0	0	4,180281	3,225	72,6696	0,294	77,66	3,5	1006,6	6,8	8,8	8,7	1	1	1	1	1	1	1	1	1	0	1	-47,004933	274,387126	274,389227	0
14.01.2021	21:46:38	0	0	4,632203	3,51525	79,7796	0,302	77,67	3,5	1006,6	6,8	8,8	8,7	1	1	1	1	1	1	1	1	1	0	1	-48,978154	274,37804	272,373438	0
14.01.2021	21:46:39	0	0	5,310087	3,76875	78,4044	0,298	77,666	3,5	1006,68	6,8	8,8	8,7	1	1	1	1	1	1	1	1	1	0	1	-48,062016	274,381068	273,303763	0
14.01.2021	21:46:40	0	0	4,0673	3,726	79,0272	0,296	77,652	3,5	1006,72	6,8	8,8	8,7	1	1	1	1	1	1	1	1	1	0	1	-46,863989	274,215217	273,725488	0
14.01.2021	21:46:41	0	0	4,406242	3,5535	88,5744	0,299	77,642	3,5	1006,46	6,8	8,7	8,7	1	1	1	1	1	1	1	1	1	0	1	-47,145877	274,19871	273,366412	0
14.01.2021	21:46:42	0	0	4,632203	3,62625	96,5844	0,295	77,648	3,5	1006,6	6,8	8,8	8,7	1	1	1	1	1	1	1	1	1	0	1	-45,384073	274,353831	275,85412	0
14.01.2021	21:46:43	0	0	4,180281	3,5865	76,4532	0,302	77,64	3,5	1006,54	6,8	8,8	8,7	1	1	1	1	1	1	1	1	1	0	1	-49,541931	274,207712	271,01245	0
14.01.2021	21:46:44	0	0	3,163456	3,75675	75,6072	0,291	77,641	3,5	1006,66	6,8	8,8	8,7	1	1	1	1	1	1	1	1	1	0	1	-46,793517	274,261812	274,013919	0
14.01.2021	21:46:45	0	0	2,598537	4,04325	71,9892	0,298	77,636	3,5	1006,5	7	8,8	8,8	1	1	1	1	1	1	1	1	1	0	1	-44,397463	274,204711	276,142885	0
14.01.2021	21:46:46	0	0	3,615378	4,08	79,83	0,291	77,628	3,5	1006,46	6,8	8,8	8,7	1	1	1	1	1	1	1	1	1	0	1	-41,930937	274,266328	278,897625	0
14.01.2021	21:46:47	0	0	2,598553	4,233	81,99	0,294	77,633	3,5	1006,62	7	8,8	8,7	1	1	1	1	1	1	1	1	1	0	1	-45,454545	274,367445	275,847413	0
14.01.2021	21:46:48	0	0	3,615378	4,161	81,2052	0,3	77,65	3,5	1006,52	6,8	8,8	8,7	1	1	1	1	1	1	1	1	1	0	1	-47,850599	274,341738	273,330959	0
14.01.2021	21:46:49	0	0	4,632203	4,167	87,3792	0,293	77,665	3,5	1006,6	7	8,8	8,7	1	1	1	1	1	1	1	1	1	0	1	-45,384073	274,385611	276,00299	0
14.01.2021	21:46:50	0	0	4,745184	4,3305	89,3556	0,298	77,683	3,5	1006,56	6,8	8,8	8,7	1	1	1	1	1	1	1	1	1	0	1	-47,21635	274,281386	273,682678	0
14.01.2021	21:46:51	0	0	4,745184	4,497	84,798	0,297	77,673	3,5	1006,54	6,9	8,8	8,7	1	1	1	1	1	1	1	1	1	0	1	-44,397463	274,19421	276,093789	0
14.01.2021	21:46:52	0	0	4,971145	4,46175	94,392	0,291	77,699	3,5	1006,64	7	8,8	8,7	1	1	1	1	1	1	1	1	1	0	1	-49,541931	274,293441	271,413517	0
14.01.2021	21:46:53	0	0	2,372592	4,1985	99,918	0,292	77,724	3,5	1006,56	6,8	8,8	8,7	1	1	1	1	1	1	1	1	1	0	1	-43,410853	274,191211	277,066377	0
14.01.2021	21:46:54	0	0	2,598553	3,99225	95,5116	0,287	77,74	3,5	1006,54	6,8	8,8	8,7	1	1	1	1	1	1	1	1	1	0	1	-45,313601	274,316065	275,747751	0
14.01.2021	21:46:55	0	0	4,406216	3,7035	93,3372	0,297	77,743	3,5	1006,56	7	8,8	8,8	1	1	1	1	1	1	1	1	1	0	1	-46,934461	274,382582	274,438412	0
14.01.2021	21:46:56	0	0	5,197106	3,78675	96,5664	0,289	77,768	3,5	1006,64	6,8	8,7	8,7	1	1	1	1	1	1	1	1	1	0	1	-46,5821	274,317575	274,486318	0
14.01.2021	21:46:57	0	0	4,971145	3,768	84,4272	0,297	77,786	3,5	1006,42	6,8	8,8	8,7	1	1	1	1	1	1	1	1	1	0	1	-46,088795	274,20021	274,430508	0
14.01.2021	21:46:58	0	0	3,95432	4,014	91,8792	0,296	77,791	3,5	1006,5	6,8	8,7	8,7	1	1	1	1	1	1	1	1	1	0	1	-47,357294	274,264822	273,464225	0
14.01.2021	21:46:59	0	0	4,632203	4,09725	99,504	0,297	77,796	3,5	1006,62	6,8	8,8	8,7	1	1	1	1	1	1	1	1	1	0	1	-47,639183	274,192711	272,845058	0
14.01.2021	21:47:00	0	0	4,745184	4,185	88,6032	0,296	77,785	3,5	1006,62	6,8	8,8	8,7	1	1	1	1	1	1	1	1	1	0	1	-48,696265	274,19871	271,816024	0
14.01.2021	21:47:01	0	0	4,180281	4,27575	95,8392	0,295	77,786	3,5	1006,62	6,8	8,8	8,7	1	1	1	1	1	1	1	1	1	0	1	-42,565187	274,224226	278,066425	0
14.01.2021	21:47:02	0	0	4,180281	4,27575	95,8392	0,295	77,786	3,5	1006,62	6,8	8,8	8,7	1	1	1	1	1	1	1	1	1	0	1	-42,565187	274,224226	278,066425	0
14.01.2021	21:47:03	0	0	4,406242	4,3065	86,6628	0,298	77,787	3,5	1006,62	6,8	8,8	8,7	1	1	1	1	1	1	1	1	1	0	1	-50,669486	274,254289	270,102752	0
14.01.2021	21:47:04	0	0	4,0673	4,32675	82,9872	0,297	77,8	3,5	1006,72	6,8	8,8	8,7	1	1	1	1	1	1	1	1	1	0	1	-46,793517	274,385611	274,593547	0
14.01.2021	21:47:05	0	0	3,502398	4,164	84,7836	0,297	77,778	3,5	1006,66	6,8	8,8	8,7	1	1	1	1	1	1	1	1	1	0	1	-44,890768	274,252785	275,874432	0
14.01.2021	21:47:06	0	0	4,632203	4,1475	86,2812	0,297	77,775	3,5	1006,62	7	8,8	8,7	1	1	1	1	1	1	1	1	1	0	1	-45,806906	274,371985	275,516319	0
14.01.2021	21:47:07	0	0	3,276436	3,92475	83,3652	0,297	77,766	3,5	1006,72	6,8	8,8	8,7	1	1	1	1	1	1	1	1	1	0	1	-44,890768	274,249777	275,860359	0
14.01.2021	21:47:08	0	0	3,389417	3,66825	83,3652	0,292	77,769	3,5	1006,58	6,8	8,7	8,7	1	1	1	1	1	1	1	1	1	0	1	-45,736434	274,373498	275,593882	0
14.01.2021	21:47:09	0	0	4,858164	3,615	74,5272	0,298	77,765	3,5	1006,64	6,8	8,8	8,7	1	1	1	1	1	1	1	1	1	0	1	-49,541931	274,281386	271,357097	0
14.01.2021	21:47:10	0	0	4,180281	3,66075	77,238	0,299	77,762	3,5	1006,66	7	8,7	8,7	1	1	1	1	1	1	1	1	1	0	1	-48,837209	274,370471	272,478926	0
14.01.2021	21:47:11	0	0	4,745184	3,7935	87,732	0,298	77,747	3,5	1006,72	6,9	8,7	8,7	1	1	1	1	1	1	1	1	1	0	1	-48,625793	274,294949	272,336711	0
14.01.2021	21:47:12	0	0	3,841339	3,858	86,0004	0,29	77,733	3,5	1006,72	6,8	8,8	8,7	1	1	1	1	1	1	1	1	1	0	1	-42,494715	274,362906	278,785982	0
14.01.2021	21:47:13	0	0	3,728359	3,7305	77,958	0,295	77,74	3,5	1006,68	6,9	8,8	8,7	1	1	1	1	1	1	1	1	1	0	1	-46,088795	274,218219	274,514724	0
14.01.2021	21:47:14	0	0	4,745184	3,6045	82,9692	0,289	77,734	3,5	1006,64	6,8	8,7	8,7	1	1	1	1	1	1	1	1	1	0	1	-45,736434	274,308521	275,2896	0
14.01.2021	21:47:15	0	0	2,937495	3,831	82,3464	0,294	77,728	3,5	1006,62	6,8	8,7	8,7	1	1	1	1	1	1	1	1	1	0	1	-47,498238	274,370471	273,817898	0
14.01.2021	21:47:16	0	0	4,519223	3,8535	71,5932	0,298	77,726	3,5	1006,54	6,8	8,7	8,7	1	1	1	1	1	1	1	1	1	0	1	-47,075405	274,303996	273,929446	0
14.01.2021	21:47:17	0	0	4,632203	3,97125	86,9832	0,291	77,715	3,5	1006,6	6,8	8,8	8,7	1	1	1	1	1	1	1	1	1	0	1	-46,370684	274,368958	274,938363	0
14.01.2021	21:47:18	0	0	3,95432	4,07925	81,972	0,293	77,717	3,5	1006,64	7	8,7	8,7	1	1	1	1	1	1	1	1	1	0	1	-45,384073	274,258803	275,409281	0
14.01.2021	21:47:19	0	0	3,389417	4,0365	79,4052	0,298	77,701	3,5	1006,46	6,8	8,8	8,7	1	1	1	1	1	1	1	1	1	0	1	-49,048626	274,19721	271,45665	0
14.01.2021	21:47:20	0	0	3,163456	3,93825	82,3536	0,298	77,708	3,5	1006,58	6,8	8,8	8,7	1	1	1	1	1	1	1	1	1	0	1	-49,18957	274,350807	272,03446	0
14.01.2021	21:47:21	0	0	4,293261	3,91275	73,7784	0,295	77,71	3,5	1006,52	6,9	8,7	8,7	1	1	1	1	1	1	1	1	1	0	1	-46,229739	274,210713	274,338678	0
14.01.2021	21:47:22	0	0	2,937495	3,76575	70,2216	0,295	77,711	3,5	1006,66	6,9	8,8	8,7	1	1	1	1	1	1	1	1	1	0	1	-47,498238	274,341738	273,68332	0
14.01.2021	21:47:23	0	0	2,824514	3,61725	74,16	0,294	77,699	3,5	1006,62	6,8	8,7	8,7	1	1	1	1	1	1	1	1	1	0	1	-44,256519	274,326632	276,854307	0
14.01.2021	21:47:24	0	0	4,519223	3,6615	72,306	0,295	77,678	3,5	1006,74	6,9	8,7	8,7	1	1	1	1	1	1	1	1	1	0	1	-45,243129	274,361393	276,030482	0
14.01.2021	21:47:25	0	0	2,485572	3,5955	72,6804	0,291	77,684	3,5	1006,7	6,8	8,7	8,7	1	1	1	1	1	1	1	1	1	0	1	-44,679352	274,225728	275,959285	0
14.01.2021	21:47:26	0	0	2,598553	3,47175	64,2384	0,29	77,682	3,5	1006,68	6,8	8,8	8,7	1	1	1	1	1	1	1	1	1	0	1	-46,370684	274,204711	274,169664	0
14.01.2021	21:47:27	0	0	4,293261	3,35175	68,3964	0,286	77,669	3,5	1006,66	6,9	8,7	8,7	1	1	1	1	1	1	1	1	1	0	1	-47,639183	274,343249	273,549453	0
14.01.2021	21:47:28	0	0	3,841339	3,33375	65,4588	0,294	77,669	3,5	1006,62	6,8	8,7	8,7	1	1	1	1	1	1	1	1	1	0	1	-47,286822	274,290427	273,654518	0
14.01.2021	21:47:29	0	0	4,180281	3,1425	62,0352	0,296	77,672	3,5	1006,7	6,8	8,8	8,7	1	1	1	1	1	1	1	1	1	0	1	-48,555321	274,358368	272,704121	0
14.01.2021	21:47:30	0	0	2,598553	2,87175	69,138	0,285	77,659	3,5	1006,58	6,8	8,8	8,7	1	1	1	1	1	1	1	1	1	0	1	-48,20296	274,335694	272,950297	0
14.01.2021	21:47:31	0	0	4,180256	2,81775	73,764	0,294	77,637	3,5	1006,54	6,8	8,7	8,8	1	1	1	1	1	1	1	1	1	0	1	-45,031712	274,183716	275,410476	0
14.01.2021	21:47:32	0	0	4,632203	2,8395	64,6056	0,288	77,63	3,5	1006,66	6,9	8,8	8,7	1	1	1	1	1	1	1	1	1	0	1	-43,551797	274,227231	277,093866	0
14.01.2021	21:47:33	0	0	2,372592	2,949	74,5308	0,292	77,634	3,5	1006,5	6,9	8,7	8,7	1	1	1	1	1	1	1	1	1	0	1	-45,665962	274,362906	275,614735	0
14.01.2021	21:47:34	0	0	3,615378	3,0495	74,1636	0,289	77,632	3,5	1006,6	6,8	8,8	8,7	1	1	1	1	1	1	1	1	1	0	1	-48,907681	274,258803	271,885673	0
14.01.2021	21:47:35	0	0	2,824514	3,2295	79,4196	0,294	77,623	3,5	1006,56	6,8	8,7	8,7	1	1	1	1	1	1	1	1	1	0	1	-47,075405	274,365932	274,219465	0
14.01.2021	21:47:36	0	0	3,502398	3,399	72,2952	0,288	77,623	3,5	1006,62	6,8	8,8	8,7	1	1	1	1	1	1	1	1	1	0	1	-50,17618	274,293441	270,779268	0
14.01.2021	21:47:37	0	0	4,293261	3,57	66,222	0,291	77,634	3,5	1006,7	6,8	8,8	8,7	1	1	1	1	1	1	1	1	1	0	1	-44,256519	274,358368	277,002923	0
14.01.2021	21:47:38	0	0	2,824514	3,58275	65,466	0,287	77,634	3,5	1006,58	6,8	8,7	8,7	1	1	1	1	1	1	1	1	1	0	1	-44,890768	274,27988	276,00121	0
14.01.2021	21:47:39	0	0	3,502398	3,3375	59,094	0,292	77,63	3,5	1006,58	6,9	8,8	8,7	1	1	1	1	1	1	1	1	1	0	1	-44,608879	274,362906	276,671818	0
14.01.2021	21:47:40	0	0	4,745184	3,05625	60,9372	0,294	77,638	3,5	1006,66	6,9	8,8	8,7	1	1	1	1	1	1	1	1	1	0	1	-42,917548	274,313047	278,129675	0
14.01.2021	21:47:41	0	0	3,615378	3,147	72,288	0,287	77,628	3,5	1006,7	6,9	8,7	8,7	1	1	1	1	1	1	1	1	1	0	1	-47,780127	274,177721	272,634039	0
14.01.2021	21:47:42	0	0	4,519223	3,264	77,2128	0,287	77,636	3,5	1006,7	6,9	8,8	8,7	1	1	1	1	1	1	1	1	1	0	1	-45,736434	274,338716	275,430972	0
14.01.2021	21:47:43	0	0	4,858164	3,21975	69,8508	0,29	77,632	3,5	1006,66	6,8	8,7	8,7	1	1	1	1	1	1	1	1	1	0	1	-43,269908	274,174725	277,130251	0
14.01.2021	21:47:44	0	0	2,598553	3,45825	81,2016	0,293	77,628	3,5	1006,66	6,9	8,7	8,7	1	1	1	1	1	1	1	1	1	0	1	-50,458069	274,331163	270,673969	0
14.01.2021	21:47:45	0	0	3,050475	3,8295	79,4016	0,294	77,623	3,5	1006,64	6,9	8,7	8,7	1	1	1	1	1	1	1	1	1	0	1	-47,780127	274,332673	273,358983	0
14.01.2021	21:47:46	0	0	2,711534	3,93225	86,958	0,289	77,612	3,5	1006,66	6,9	8,8	8,7	1	1	1	1	1	1	1	1	1	0	1	-43,481325	274,353831	277,756868	0
14.01.2021	21:47:47	0	0	4,971145	3,98775	85,1616	0,292	77,622	3,5	1006,54	6,9	8,7	8,7	1	1	1	1	1	1	1	1	1	0	1	-43,058492	274,230235	277,601224	0
14.01.2021	21:47:48	0	0	2,824514	4,10775	77,2272	0,289	77,619	3,5	1006,52	6,9	8,8	8,7	1	1	1	1	1	1	1	1	1	0	1	-50,246653	274,362906	271,034044	0
14.01.2021	21:47:49	0	0	4,0673	4,19325	73,0404	0,282	77,621	3,5	1006,5	6,9	8,7	8,7	1	1	1	1	1	1	1	1	1	0	1	-46,300211	274,293441	274,655237	0
14.01.2021	21:47:50	0	0	4,293261	4,24275	73,0548	0,29	77,631	3,5	1006,62	6,9	8,7	8,7	1	1	1	1	1	1	1	1	1	0	1	-48,625793	274,34476	272,56992	0
14.01.2021	21:47:51	0	0	3,95432	4,5885	73,7892	0,287	77,629	3,5	1006,48	6,9	8,7	8,7	1	1	1	1	1	1	1	1	1	0	1	-45,59549	274,30098	275,395243	0
14.01.2021	21:47:52	0	0	4,519223	4,9005	82,3464	0,283	77,646	3,5	1006,68	6,9	8,7	8,7	1	1	1	1	1	1	1	1	1	0	1	-48,625793	274,191211	271,851437	0
14.01.2021	21:47:53	0	0	4,519223	5,1225	83,7324	0,281	77,645	3,5	1006,5	6,9	8,8	8,7	1	1	1	1	1	1	1	1	1	0	1	-51,79704	274,305504	269,214871	0
14.01.2021	21:47:54	0	0	2,937495	5,07975	79,0236	0,285	77,654	3,5	1006,6	6,9	8,7	8,7	1	1	1	1	1	1	1	1	1	0	1	-47,21635	274,171729	273,169805	0
14.01.2021	21:47:55	0	0	3,163456	5,058	73,7748	0,288	77,659	3,5	1006,82	6,9	8,7	8,7	1	1	1	1	1	1	1	1	1	0	1	-46,5821	274,216718	274,014397	0
14.01.2021	21:47:56	0	0	3,615378	4,8435	73,044	0,283	77,675	3,5	1006,68	6,9	8,7	8,7	1	1	1	1	1	1	1	1	1	0	1	-45,525018	274,171729	274,861137	0
14.01.2021	21:47:57	0	0	3,050457	4,54575	63,4752	0,279	77,676	3,5	1006,56	6,9	8,8	8,8	1	1	1	1	1	1	1	1	1	0	1	-43,128964	274,287413	277,798269	0
14.01.2021	21:47:58	0	0	4,406242	4,0425	64,2384	0,286	77,703	3,5	1006,64	6,9	8,7	8,7	1	1	1	1	1	1	1	1	1	0	1	-50,17618	274,355343	271,069095	0
14.01.2021	21:47:59	0	0	3,276436	3,5685	62,424	0,283	77,717	3,5	1006,56	6,9	8,7	8,7	1	1	1	1	1	1	1	1	1	0	1	-45,877378	274,273855	274,986408	0
14.01.2021	21:48:00	0	0	4,180256	3,34425	42,588	0,287	77,739	3,5	1006,6	6,9	8,8	8,8	1	1	1	1	1	1	1	1	1	0	1	-49,471459	274,313047	271,575764	0
14.01.2021	21:48:01	0	0	4,293261	3,294	54,4752	0,287	77,732	3,5	1006,76	6,9	8,7	8,7	1	1	1	1	1	1	1	1	1	0	1	-49,471459	274,313047	271,575764	0
14.01.2021	21:48:02	0	0	4,293261	3,294	54,4752	0,287	77,732	3,5	1006,76	6,9	8,7	8,7	1	1	1	1	1	1	1	1	1	0	1	-45,59549	274,352319	275,635621	0
14.01.2021	21:48:03	0	0	3,841339	3,15675	52,8732	0,286	77,745	3,5	1006,78	6,9	8,7	8,7	1	1	1	1	1	1	1	1	1	0	1	-47,991543	274,276867	272,886338	0
14.01.2021	21:48:04	0	0	3,841339	2,847	43,2972	0,282	77,76	3,5	1006,44	6,9	8,7	8,7	1	1	1	1	1	1	1	1	1	0	1	-50,317125	274,182217	270,118057	0
14.01.2021	21:48:05	0	0	4,971145	2,55975	60,2316	0,288	77,741	3,5	1006,6	6,9	8,7	8,7	1	1	1	1	1	1	1	1	1	0	1	-49,18957	274,275361	271,681264	0
14.01.2021	21:48:06	0	0	3,841316	2,238	48,5064	0,286	77,747	3,5	1006,6	6,8	8,7	8,8	1	1	1	1	1	1	1	1	1	0	1	-47,21635	274,19871	273,295939	0
14.01.2021	21:48:07	0	0	4,632203	2,106	61,6896	0,276	77,739	3,5	1006,56	6,9	8,8	8,7	1	1	1	1	1	1	1	1	1	0	1	-43,763214	274,314556	277,291074	0
14.01.2021	21:48:08	0	0	4,293261	2,18625	48,4992	0,28	77,738	3,5	1006,7	6,9	8,8	8,7	1	1	1	1	1	1	1	1	1	0	1	-53,629316	274,216718	266,967181	0
14.01.2021	21:48:09	0	0	4,858135	2,35425	62,4132	0,277	77,751	3,5	1006,74	6,9	8,8	8,8	1	1	1	1	1	1	1	1	1	0	1	-50,528541	274,20021	269,990761	0
14.01.2021	21:48:10	0	0	3,163456	2,67525	56,6604	0,283	77,758	3,5	1006,62	6,9	8,9	8,7	1	1	1	1	1	1	1	1	1	0	1	-48,414376	274,30098	272,576357	0
14.01.2021	21:48:11	0	0	2,598537	2,76525	51,0444	0,276	77,756	3,5	1006,42	6,9	8,8	8,8	1	1	1	1	1	1	1	1	1	0	1	-54,052149	274,364419	267,235634	0
14.01.2021	21:48:12	0	0	3,050475	3,00825	74,1564	0,285	77,766	3,5	1006,6	6,9	8,8	8,7	1	1	1	1	1	1	1	1	1	0	1	-50,317125	274,297964	270,659492	0
14.01.2021	21:48:13	0	0	4,745184	2,95575	80,9028	0,28	77,782	3,5	1006,64	6,9	8,7	8,7	1	1	1	1	1	1	1	1	1	0	1	-47,639183	274,353831	273,59901	0
14.01.2021	21:48:14	0	0	3,841339	3,10275	81,5976	0,281	77,785	3,5	1006,72	6,9	8,7	8,7	1	1	1	1	1	1	1	1	1	0	1	-47,145877	274,322103	273,943741	0
14.01.2021	21:48:15	0	0	4,519195	3,09825	96,9624	0,282	77,811	3,5	1006,72	6,9	8,8	8,8	1	1	1	1	1	1	1	1	1	0	1	-45,102185	274,206211	275,44518	0
14.01.2021	21:48:16	0	0	5,423067	2,754	88,1172	0,281	77,799	3,5	1006,66	6,8	8,8	8,7	1	1	1	1	1	1	1	1	1	0	1	-47,709655	274,329652	273,415312	0
14.01.2021	21:48:17	0	0	4,858164	2,49225	74,1888	0,281	77,812	3,5	1006,64	6,9	8,8	8,7	1	1	1	1	1	1	1	1	1	0	1	-44,115574	274,20171	276,410743	0
14.01.2021	21:48:18	0	0	5,084125	2,349	64,5984	0,284	77,822	3,5	1006,66	6,9	8,8	8,7	1	1	1	1	1	1	1	1	1	0	1	-52,78365	274,331163	268,348388	0
14.01.2021	21:48:19	0	0	2,937495	2,24175	77,9688	0,286	77,825	3,5	1006,56	6,9	8,7	8,7	1	1	1	1	1	1	1	1	1	0	1	-46,229739	274,322103	274,859879	0
14.01.2021	21:48:20	0	0	3,728359	2,25525	84,0348	0,281	77,828	3,5	1006,62	6,8	8,7	8,7	1	1	1	1	1	1	1	1	1	0	1	-50,951374	274,375012	270,386033	0
14.01.2021	21:48:21	0	0	3,615378	2,42025	76,8168	0,282	77,829	3,5	1006,56	6,9	8,8	8,7	1	1	1	1	1	1	1	1	1	0	1	-44,467935	274,293441	276,487513	0
14.01.2021	21:48:22	0	0	4,858164	2,53875	94,0968	0,282	77,837	3,5	1006,64	6,9	8,7	8,7	1	1	1	1	1	1	1	1	1	0	1	-45,59549	274,368958	275,713557	0
14.01.2021	21:48:23	0	0	3,050475	2,625	80,1396	0,28	77,841	3,5	1006,6	6,9	8,7	8,7	1	1	1	1	1	1	1	1	1	0	1	-44,397463	274,273855	276,466324	0
14.01.2021	21:48:24	0	0	4,406216	2,75325	73,0512	0,281	77,819	3,5	1006,62	6,9	8,7	8,8	1	1	1	1	1	1	1	1	1	0	1	-48,696265	274,343249	272,49237	0
14.01.2021	21:48:25	0	0	3,389417	2,53725	82,332	0,284	77,827	3,5	1006,58	6,9	8,7	8,7	1	1	1	1	1	1	1	1	1	0	1	-46,229739	274,239252	274,472152	0
14.01.2021	21:48:26	0	0	3,615378	2,47725	97,7004	0,283	77,817	3,5	1006,62	6,8	8,7	8,7	1	1	1	1	1	1	1	1	1	0	1	-46,5821	274,362906	274,698597	0
14.01.2021	21:48:27	0	0	3,050457	2,66325	92,9772	0,283	77,813	3,5	1006,74	6,9	8,7	8,8	1	1	1	1	1	1	1	1	1	0	1	-46,229739	274,222724	274,394849	0
14.01.2021	21:48:28	0	0	3,502376	2,8275	82,3464	0,281	77,815	3,5	1006,62	6,9	8,7	8,8	1	1	1	1	1	1	1	1	1	0	1	-48,132488	274,349295	273,084462	0
14.01.2021	21:48:29	0	0	3,728359	2,67975	75,9888	0,283	77,802	3,5	1006,64	6,9	8,7	8,7	1	1	1	1	1	1	1	1	1	0	1	-42,212826	274,242259	278,50313	0
14.01.2021	21:48:30	0	0	4,632203	2,47125	86,2848	0,288	77,801	3,5	1006,7	6,9	8,7	8,7	1	1	1	1	1	1	1	1	1	0	1	-46,441156	274,355343	274,804119	0
14.01.2021	21:48:31	0	0	4,180281	2,34375	82,9908	0,278	77,791	3,5	1006,68	6,9	8,7	8,7	1	1	1	1	1	1	1	1	1	0	1	-48,696265	274,364419	272,591518	0
14.01.2021	21:48:32	0	0	2,824497	2,3085	92,6532	0,281	77,793	3,5	1006,7	6,9	8,7	8,8	1	1	1	1	1	1	1	1	1	0	1	-45,384073	274,296456	275,585487	0
14.01.2021	21:48:33	0	0	4,180256	2,28225	93,7008	0,286	77,796	3,5	1006,78	6,9	8,7	8,8	1	1	1	1	1	1	1	1	1	0	1	-45,877378	274,174725	274,522781	0
14.01.2021	21:48:34	0	0	3,163456	2,31225	85,1832	0,281	77,776	3,5	1006,54	6,8	8,7	8,7	1	1	1	1	1	1	1	1	1	0	1	-48,484848	274,343249	272,703787	0
14.01.2021	21:48:35	0	0	4,745184	2,42775	96,9696	0,278	77,778	3,5	1006,66	6,9	8,7	8,7	1	1	1	1	1	1	1	1	1	0	1	-44,397463	274,343249	276,791172	0
14.01.2021	21:48:36	0	0	4,519223	2,5275	95,8428	0,274	77,766	3,5	1006,68	6,9	8,8	8,7	1	1	1	1	1	1	1	1	1	0	1	-50,528541	274,236246	270,159289	0
14.01.2021	21:48:37	0	0	3,502398	2,72775	99,1512	0,276	77,753	3,5	1006,58	6,8	8,7	8,7	1	1	1	1	1	1	1	1	1	0	1	-48,414376	274,17922	272,006794	0
14.01.2021	21:48:38	0	0	2,711517	2,73075	86,6628	0,278	77,751	3,5	1006,58	6,9	8,7	8,8	1	1	1	1	1	1	1	1	1	0	1	-47,21635	274,31003	273,816747	0
14.01.2021	21:48:39	0	0	4,180256	2,7	75,9708	0,284	77,764	3,5	1006,56	6,9	8,8	8,8	1	1	1	1	1	1	1	1	1	0	1	-46,793517	274,358368	274,465925	0
14.01.2021	21:48:40	0	0	4,519195	2,643	63,1728	0,281	77,753	3,5	1006,6	6,9	8,7	8,8	1	1	1	1	1	1	1	1	1	0	1	-47,850599	274,219721	272,759942	0
14.01.2021	21:48:41	0	0	4,519223	2,58225	73,0656	0,28	77,752	3,5	1006,72	6,8	8,7	8,7	1	1	1	1	1	1	1	1	1	0	1	-43,058492	274,358368	278,20095	0
14.01.2021	21:48:42	0	0	2,824514	2,64675	65,0592	0,285	77,751	3,5	1006,7	6,8	8,7	8,7	1	1	1	1	1	1	1	1	1	0	1	-42,635659	274,290427	278,30568	0
14.01.2021	21:48:43	0	0	4,745184	2,98125	66,2256	0,281	77,749	3,5	1006,76	6,9	8,8	8,7	1	1	1	1	1	1	1	1	1	0	1	-48,625793	274,182217	271,809389	0
14.01.2021	21:48:44	0	0	3,841339	3,165	63,1584	0,278	77,758	3,5	1006,68	6,9	8,8	8,7	1	1	1	1	1	1	1	1	1	0	1	-48,132488	274,278374	272,752442	0
14.01.2021	21:48:45	0	0	4,519223	3,15	74,5416	0,283	77,761	3,5	1006,78	6,9	8,8	8,7	1	1	1	1	1	1	1	1	1	0	1	-47,004933	274,337205	274,155398	0
14.01.2021	21:48:46	0	0	3,050475	3,0915	74,5272	0,282	77,76	3,5	1006,62	6,9	8,7	8,7	1	1	1	1	1	1	1	1	1	0	1	-49,119098	274,252785	271,646102	0
14.01.2021	21:48:47	0	0	4,293236	3,04125	65,4624	0,28	77,749	3,5	1006,62	6,9	8,7	8,8	1	1	1	1	1	1	1	1	1	0	1	-45,806906	274,159749	274,523257	0
14.01.2021	21:48:48	0	0	3,163437	2,9715	76,8384	0,283	77,736	3,5	1006,68	6,9	8,7	8,8	1	1	1	1	1	1	1	1	1	0	1	-45,59549	274,290427	275,345849	0
14.01.2021	21:48:49	0	0	4,519195	2,72475	64,26	0,281	77,728	3,5	1006,56	6,9	8,8	8,8	1	1	1	1	1	1	1	1	1	0	1	-51,656096	274,335694	269,497161	0
14.01.2021	21:48:50	0	0	4,519195	2,53725	60,534	0,281	77,731	3,5	1006,66	6,9	8,7	8,8	1	1	1	1	1	1	1	1	1	0	1	-46,5821	274,249777	274,169027	0
14.01.2021	21:48:51	0	0	3,502398	2,43525	51,462	0,286	77,736	3,5	1006,64	6,9	8,8	8,7	1	1	1	1	1	1	1	1	1	0	1	-46,300211	274,156756	274,015961	0
14.01.2021	21:48:52	0	0	2,937495	2,652	59,0868	0,274	77,713	3,5	1006,4	6,9	8,7	8,7	1	1	1	1	1	1	1	1	1	0	1	-45,031712	274,218219	275,571806	0
14.01.2021	21:48:53	0	0	5,197075	2,7585	60,5556	0,275	77,714	3,5	1006,62	6,8	8,8	8,8	1	1	1	1	1	1	1	1	1	0	1	-50,035236	274,332673	271,103874	0
14.01.2021	21:48:54	0	0	3,050475	2,5695	85,5432	0,276	77,713	3,5	1006,72	6,8	8,7	8,7	1	1	1	1	1	1	1	1	1	0	1	-45,243129	274,20321	275,290203	0
14.01.2021	21:48:55	0	0	5,084095	2,3685	100,3968	0,285	77,704	3,5	1006,66	6,8	8,8	8,8	1	1	1	1	1	1	1	1	1	0	1	-49,612403	274,204711	270,927945	0
14.01.2021	21:48:56	0	0	3,502398	2,3985	95,2524	0,282	77,707	3,5	1006,8	6,9	8,7	8,7	1	1	1	1	1	1	1	1	1	0	1	-45,102185	274,182217	275,332997	0
14.01.2021	21:48:57	0	0	2,372592	2,8365	91,17	0,279	77,693	3,5	1006,6	6,9	8,7	8,7	1	1	1	1	1	1	1	1	1	0	1	-46,511628	274,221223	274,105936	0
14.01.2021	21:48:58	0	0	3,954296	3,6	102,942	0,278	77,701	3,5	1006,62	6,9	8,7	8,8	1	1	1	1	1	1	1	1	1	0	1	-50,17618	274,320593	270,90637	0
14.01.2021	21:48:59	0	0	2,598553	4,10775	107,7408	0,28	77,699	3,5	1006,64	6,9	8,8	8,7	1	1	1	1	1	1	1	1	1	0	1	-49,82382	274,206211	270,723545	0
14.01.2021	21:49:00	0	0	2,824497	4,65075	100,3716	0,28	77,678	3,5	1006,5	6,9	8,8	8,8	1	1	1	1	1	1	1	1	1	0	1	-48,696265	274,212214	271,879171	0
14.01.2021	21:49:01	0	0	2,824497	4,65075	100,3716	0,28	77,678	3,5	1006,5	6,9	8,8	8,8	1	1	1	1	1	1	1	1	1	0	1	-48,696265	274,212214	271,879171	0
14.01.2021	21:49:02	0	0	3,389417	4,99125	95,832	0,273	77,661	3,5	1006,54	6,9	8,7	8,7	1	1	1	1	1	1	1	1	1	0	1	-48,555321	274,188213	271,907891	0
14.01.2021	21:49:03	0	0	2,259625	4,93575	100,8792	0,282	77,656	3,5	1006,58	6,9	8,7	8,6	1	1	1	1	1	1	1	1	1	0	1	-48,343904	274,19571	272,154359	0
14.01.2021	21:49:04	0	0	4,858164	4,7085	102,1824	0,275	77,664	3,5	1006,5	6,9	8,7	8,7	1	1	1	1	1	1	1	1	1	0	1	-46,934461	274,161246	273,402699	0
14.01.2021	21:49:05	0	0	4,180281	5,0535	98,7624	0,278	77,666	3,5	1006,68	6,9	8,7	8,7	1	1	1	1	1	1	1	1	1	0	1	-45,525018	274,219721	275,085524	0
14.01.2021	21:49:06	0	0	4,971205	5,2005	95,5512	0,278	77,669	3,5	1006,48	6,9	8,8	8,5	1	1	1	1	1	1	1	1	1	0	1	-45,59549	274,341738	275,586068	0
14.01.2021	21:49:07	0	0	4,858135	5,103	87,822	0,271	77,681	3,5	1006,66	6,9	8,7	8,8	1	1	1	1	1	1	1	1	1	0	1	-46,652572	274,270844	274,197123	0
14.01.2021	21:49:08	0	0	3,050475	5,30925	91,1448	0,277	77,696	3,5	1006,52	6,9	8,7	8,7	1	1	1	1	1	1	1	1	1	0	1	-47,004933	274,337205	274,155398	0
14.01.2021	21:49:09	0	0	3,050494	5,115	84,8304	0,281	77,707	3,5	1006,54	6,9	8,8	8,6	1	1	1	1	1	1	1	1	1	0	1	-46,088795	274,276867	274,789086	0
14.01.2021	21:49:10	0	0	3,502376	4,7505	83,736	0,271	77,726	3,5	1006,58	6,9	8,7	8,8	1	1	1	1	1	1	1	1	1	0	1	-47,427766	274,322103	273,661852	0
14.01.2021	21:49:11	0	0	2,485558	4,43775	65,5668	0,28	77,739	3,5	1006,48	6,9	8,8	8,8	1	1	1	1	1	1	1	1	1	0	1	-45,59549	274,19721	274,909786	0
14.01.2021	21:49:12	0	0	2,937477	4,13625	67,6836	0,273	77,736	3,5	1006,68	6,9	8,7	8,8	1	1	1	1	1	1	1	1	1	0	1	-46,088795	274,308521	274,937239	0
14.01.2021	21:49:13	0	0	4,858223	4,00425	68,0256	0,276	77,738	3,5	1006,54	6,9	8,7	8,5	1	1	1	1	1	1	1	1	1	0	1	-46,018323	274,305504	274,993589	0
14.01.2021	21:49:14	0	0	3,728336	3,6855	78,6528	0,271	77,731	3,5	1006,68	6,9	8,8	8,8	1	1	1	1	1	1	1	1	1	0	1	-45,525018	274,153762	274,777166	0
14.01.2021	21:49:15	0	0	3,276417	3,27825	75,6396	0,275	77,751	3,5	1006,58	6,9	8,7	8,8	1	1	1	1	1	1	1	1	1	0	1	-46,441156	274,173227	273,952001	0
14.01.2021	21:49:16	0	0	4,180281	3,10725	80,9028	0,278	77,745	3,5	1006,6	6,9	8,7	8,7	1	1	1	1	1	1	1	1	1	0	1	-46,793517	274,302488	274,204275	0
14.01.2021	21:49:17	0	0	2,711517	3,162	69,8544	0,274	77,761	3,5	1006,62	6,9	8,7	8,8	1	1	1	1	1	1	1	1	1	0	1	-45,806906	274,350807	275,417124	0
14.01.2021	21:49:18	0	0	4,180281	3,13875	77,2344	0,271	77,758	3,5	1006,72	6,9	8,8	8,7	1	1	1	1	1	1	1	1	1	0	1	-45,59549	274,254289	275,176748	0
14.01.2021	21:49:19	0	0	2,598537	3,738	73,782	0,27	77,73	3,5	1006,74	6,9	8,7	8,8	1	1	1	1	1	1	1	1	1	0	1	-47,56871	274,328142	273,549185	0
14.01.2021	21:49:20	0	0	4,406242	3,8535	80,91	0,273	77,736	3,5	1006,76	6,9	8,7	8,7	1	1	1	1	1	1	1	1	1	0	1	-51,303735	274,297964	269,672882	0
14.01.2021	21:49:21	0	0	3,728336	3,83475	70,632	0,278	77,735	3,5	1006,54	6,9	8,7	8,8	1	1	1	1	1	1	1	1	1	0	1	-43,904158	274,19871	276,608131	0
14.01.2021	21:49:22	0	0	4,406216	4,272	85,9068	0,267	77,707	3,5	1006,64	6,9	8,8	8,8	1	1	1	1	1	1	1	1	1	0	1	-46,5821	274,319084	274,493384	0
14.01.2021	21:49:23	0	0	2,711517	4,64025	84,4524	0,263	77,698	3,5	1006,64	6,9	8,8	8,8	1	1	1	1	1	1	1	1	1	0	1	-42,847075	274,225728	277,791562	0
14.01.2021	21:49:24	0	0	4,858135	4,599	99,5508	0,276	77,723	3,5	1006,84	6,9	8,8	8,8	1	1	1	1	1	1	1	1	1	0	1	-50,317125	274,27235	270,539616	0
14.01.2021	21:49:25	0	0	3,276417	4,16325	77,58	0,268	77,714	3,5	1006,68	6,9	8,8	8,8	1	1	1	1	1	1	1	1	1	0	1	-46,370684	274,338716	274,796723	0
14.01.2021	21:49:26	0	0	4,067276	3,48825	83,3616	0,269	77,706	3,5	1006,74	6,9	8,7	8,8	1	1	1	1	1	1	1	1	1	0	1	-45,806906	274,270844	275,042789	0
14.01.2021	21:49:27	0	0	4,745184	3,2325	76,8456	0,268	77,705	3,5	1006,68	6,9	8,8	8,7	1	1	1	1	1	1	1	1	1	0	1	-44,186047	274,134318	276,025276	0
14.01.2021	21:49:28	0	0	4,519223	3,30225	89,7336	0,265	77,699	3,5	1006,68	6,9	8,8	8,7	1	1	1	1	1	1	1	1	1	0	1	-45,172657	274,249777	275,57847	0
14.01.2021	21:49:29	0	0	4,406216	3,39075	85,1652	0,268	77,673	3,5	1006,52	6,9	8,8	8,8	1	1	1	1	1	1	1	1	1	0	1	-47,639183	274,319084	273,436301	0
14.01.2021	21:49:30	0	0	4,519195	3,639	69,1632	0,27	77,688	3,5	1006,52	6,9	8,8	8,8	1	1	1	1	1	1	1	1	1	0	1	-49,753347	274,281386	271,14568	0
14.01.2021	21:49:31	0	0	2,711534	3,83925	66,9276	0,27	77,681	3,5	1006,68	6,9	8,7	8,7	1	1	1	1	1	1	1	1	1	0	1	-49,119098	274,177721	271,295068	0
14.01.2021	21:49:32	0	0	3,615356	4,137	73,8288	0,264	77,666	3,5	1006,68	6,9	8,7	8,8	1	1	1	1	1	1	1	1	1	0	1	-47,427766	274,140298	272,811502	0
14.01.2021	21:49:33	0	0	3,615356	4,0845	81,2052	0,263	77,67	3,5	1006,54	6,9	8,7	8,8	1	1	1	1	1	1	1	1	1	0	1	-49,753347	274,257298	271,032967	0
14.01.2021	21:49:34	0	0	4,971115	3,80775	81,2016	0,27	77,666	3,5	1006,52	6,9	8,8	8,8	1	1	1	1	1	1	1	1	1	0	1	-44,467935	274,303996	276,536916	0
14.01.2021	21:49:35	0	0	2,485602	3,47175	73,7856	0,267	77,678	3,5	1006,54	6,9	8,8	8,5	1	1	1	1	1	1	1	1	1	0	1	-43,058492	274,14329	277,194753	0
14.01.2021	21:49:36	0	0	3,050457	3,26175	85,176	0,267	77,669	3,5	1006,6	6,9	8,8	8,8	1	1	1	1	1	1	1	1	1	0	1	-48,555321	274,287413	272,371912	0
14.01.2021	21:49:37	0	0	4,519195	3,29625	99,486	0,261	77,674	3,5	1006,68	6,9	8,8	8,8	1	1	1	1	1	1	1	1	1	0	1	-48,907681	274,320593	272,174869	0
14.01.2021	21:49:38	0	0	4,971115	3,3315	88,5708	0,264	77,671	3,5	1006,76	6,9	8,8	8,8	1	1	1	1	1	1	1	1	1	0	1	-45,947851	274,209212	274,613548	0
14.01.2021	21:49:39	0	0	4,519195	3,62775	77,2272	0,266	77,677	3,5	1006,66	6,9	8,8	8,8	1	1	1	1	1	1	1	1	1	0	1	-49,964764	274,313047	271,082459	0
14.01.2021	21:49:40	0	0	2,711517	3,70875	56,3004	0,266	77,688	3,5	1006,72	6,9	8,8	8,8	1	1	1	1	1	1	1	1	1	0	1	-46,370684	274,236246	274,317147	0
14.01.2021	21:49:41	0	0	2,824497	3,915	81,9684	0,267	77,707	3,5	1006,64	6,9	8,8	8,8	1	1	1	1	1	1	1	1	1	0	1	-48,20296	274,135813	272,015348	0
14.01.2021	21:49:42	0	0	4,971115	3,92625	90,0324	0,257	77,696	3,5	1006,74	6,8	8,8	8,8	1	1	1	1	1	1	1	1	1	0	1	-47,991543	274,28892	272,942742	0
14.01.2021	21:49:43	0	0	4,632175	3,87075	91,872	0,263	77,699	3,5	1006,5	6,9	8,7	8,8	1	1	1	1	1	1	1	1	1	0	1	-49,612403	274,255794	271,166873	0
14.01.2021	21:49:44	0	0	4,632231	3,63675	108,5148	0,266	77,707	3,5	1006,56	6,9	8,8	8,6	1	1	1	1	1	1	1	1	1	0	1	-48,132488	274,320593	272,950063	0
14.01.2021	21:49:45	0	0	3,954344	3,261	93,3156	0,263	77,675	3,5	1006,54	6,9	8,8	8,6	1	1	1	1	1	1	1	1	1	0	1	-49,400987	274,224226	271,230626	0
14.01.2021	21:49:46	0	0	2,824497	3,063	94,0896	0,262	77,69	3,5	1006,66	6,9	8,7	8,8	1	1	1	1	1	1	1	1	1	0	1	-47,427766	274,138803	272,804514	0
14.01.2021	21:49:47	0	0	4,406216	3,11175	76,3776	0,261	77,701	3,5	1006,68	6,9	8,7	8,8	1	1	1	1	1	1	1	1	1	0	1	-46,863989	274,27235	273,992752	0
14.01.2021	21:49:48	0	0	3,954296	3,321	69,1488	0,259	77,692	3,5	1006,58	6,9	8,8	8,8	1	1	1	1	1	1	1	1	1	0	1	-49,330514	274,260308	271,46988	0
14.01.2021	21:49:49	0	0	3,6154	3,3855	66,5424	0,267	77,71	3,5	1006,8	6,9	8,7	8,6	1	1	1	1	1	1	1	1	1	0	1	-50,246653	274,156756	270,06952	0
14.01.2021	21:49:50	0	0	3,389397	3,55125	74,9052	0,256	77,693	3,5	1006,7	6,9	8,8	8,8	1	1	1	1	1	1	1	1	1	0	1	-48,414376	274,174725	271,985783	0
14.01.2021	21:49:51	0	0	3,389397	3,59175	95,5296	0,26	77,71	3,5	1006,68	6,9	8,8	8,8	1	1	1	1	1	1	1	1	1	0	1	-49,119098	274,273855	271,744689	0
14.01.2021	21:49:52	0	0	4,632231	3,462	102,9672	0,254	77,72	3,5	1006,7	6,9	8,8	8,6	1	1	1	1	1	1	1	1	1	0	1	-48,555321	274,134318	271,656002	0
14.01.2021	21:49:53	0	0	2,824531	3,3465	78,2964	0,261	77,739	3,5	1006,68	6,9	8,8	8,6	1	1	1	1	1	1	1	1	1	0	1	-45,806906	274,207712	274,747475	0
14.01.2021	21:49:54	0	0	2,824531	3,43725	86,6988	0,257	77,76	3,5	1006,64	6,9	8,8	8,6	1	1	1	1	1	1	1	1	1	0	1	-44,679352	274,141794	275,566904	0
14.01.2021	21:49:55	0	0	4,067276	3,5505	82,9656	0,261	77,759	3,5	1006,68	6,9	8,8	8,8	1	1	1	1	1	1	1	1	1	0	1	-46,652572	274,20321	273,88076	0
14.01.2021	21:49:56	0	0	2,824497	3,53175	83,7216	0,26	77,786	3,5	1006,78	6,9	8,8	8,8	1	1	1	1	1	1	1	1	1	0	1	-46,652572	274,144785	273,607662	0
14.01.2021	21:49:57	0	0	3,389437	3,4665	77,9544	0,261	77,793	3,5	1006,66	6,9	8,8	8,6	1	1	1	1	1	1	1	1	1	0	1	-44,397463	274,173227	275,995694	0
14.01.2021	21:49:58	0	0	4,293287	3,6105	84,042	0,261	77,809	3,5	1006,68	6,8	8,8	8,6	1	1	1	1	1	1	1	1	1	0	1	-50,669486	274,182217	269,765696	0
14.01.2021	21:49:59	0	0	3,502419	3,7185	87,3756	0,253	77,792	3,5	1006,62	6,8	8,7	8,6	1	1	1	1	1	1	1	1	1	0	1	-46,511628	274,287413	274,415605	0
14.01.2021	21:50:00	0	0	3,502419	3,70425	74,5668	0,263	77,817	3,5	1006,7	6,9	8,8	8,6	1	1	1	1	1	1	1	1	1	0	1	-48,20296	274,137308	272,022334	0
14.01.2021	21:50:01	0	0	3,502419	3,70425	74,5668	0,263	77,817	3,5	1006,7	6,9	8,8	8,6	1	1	1	1	1	1	1	1	1	0	1	-48,20296	274,137308	272,022334	0
14.01.2021	21:50:02	0	0	3,276456	3,6465	72,0036	0,258	77,831	3,5	1006,7	6,9	8,8	8,6	1	1	1	1	1	1	1	1	1	0	1	-50,387597	274,243762	270,335392	0
14.01.2021	21:50:03	0	0	4,406268	3,66975	64,2348	0,26	77,832	3,5	1006,74	6,8	8,8	8,6	1	1	1	1	1	1	1	1	1	0	1	-47,780127	274,325122	273,323629	0
14.01.2021	21:50:04	0	0	3,615356	3,74325	62,46	0,253	77,821	3,5	1006,64	6,9	8,8	8,8	1	1	1	1	1	1	1	1	1	0	1	-48,132488	274,291934	272,815906	0
14.01.2021	21:50:05	0	0	2,824531	3,492	64,638	0,258	77,85	3,5	1006,74	6,9	8,8	8,6	1	1	1	1	1	1	1	1	1	0	1	-46,159267	274,320593	274,923284	0
14.01.2021	21:50:06	0	0	2,71155	3,36	70,6068	0,261	77,842	3,5	1006,76	6,9	8,8	8,6	1	1	1	1	1	1	1	1	1	0	1	-44,326991	274,237749	276,36787	0
14.01.2021	21:50:07	0	0	4,745212	3,27	70,866	0,262	77,847	3,5	1006,78	6,9	8,8	8,6	1	1	1	1	1	1	1	1	1	0	1	-47,357294	274,326632	273,753531	0
14.01.2021	21:50:08	0	0	2,711517	3,54525	69,8256	0,257	77,837	3,5	1006,66	6,9	8,8	8,8	1	1	1	1	1	1	1	1	1	0	1	-47,145877	274,186713	273,310326	0
14.01.2021	21:50:09	0	0	3,6154	3,93975	63,9504	0,255	77,822	3,5	1006,64	6,8	8,8	8,6	1	1	1	1	1	1	1	1	1	0	1	-45,665962	274,173227	274,727195	0
14.01.2021	21:50:10	0	0	2,71155	3,996	79,4304	0,261	77,825	3,5	1006,7	6,8	8,8	8,6	1	1	1	1	1	1	1	1	1	0	1	-50,669486	274,153762	269,632698	0
14.01.2021	21:50:11	0	0	2,485587	3,74175	70,2288	0,262	77,837	3,5	1006,62	6,9	8,8	8,6	1	1	1	1	1	1	1	1	1	0	1	-47,286822	274,192711	273,197419	0
14.01.2021	21:50:12	0	0	5,084095	3,71925	63,864	0,257	77,81	3,5	1006,72	6,8	8,8	8,8	1	1	1	1	1	1	1	1	1	0	1	-49,119098	274,131328	271,078255	0
14.01.2021	21:50:13	0	0	2,146644	3,5265	58,122	0,259	77,839	3,5	1006,64	6,8	8,8	8,6	1	1	1	1	1	1	1	1	1	0	1	-51,515152	274,282893	269,390927	0
14.01.2021	21:50:14	0	0	4,745212	3,55125	60,264	0,261	77,841	3,5	1006,66	6,9	8,8	8,6	1	1	1	1	1	1	1	1	1	0	1	-49,260042	274,132823	270,944295	0
14.01.2021	21:50:15	0	0	3,954296	3,6615	84,4452	0,255	77,841	3,5	1006,8	6,9	8,8	8,8	1	1	1	1	1	1	1	1	1	0	1	-49,048626	274,210713	271,519791	0
14.01.2021	21:50:16	0	0	2,711517	3,72825	77,9904	0,256	77,858	3,5	1006,7	6,9	8,8	8,8	1	1	1	1	1	1	1	1	1	0	1	-48,978154	274,14329	271,275091	0
14.01.2021	21:50:17	0	0	5,084156	3,77925	74,5416	0,255	77,855	3,5	1006,62	6,9	8,8	8,6	1	1	1	1	1	1	1	1	1	0	1	-44,749824	274,299472	276,233851	0
14.01.2021	21:50:18	0	0	3,728381	3,62925	74,1852	0,253	77,859	3,5	1006,6	6,9	8,8	8,6	1	1	1	1	1	1	1	1	1	0	1	-47,709655	274,158252	272,613513	0
14.01.2021	21:50:19	0	0	2,372606	3,657	78,6888	0,26	77,855	3,5	1006,68	7	8,8	8,6	1	1	1	1	1	1	1	1	1	0	1	-46,229739	274,273855	274,634047	0
14.01.2021	21:50:20	0	0	4,51925	3,591	101,9232	0,258	77,856	3,5	1006,54	6,9	8,8	8,6	1	1	1	1	1	1	1	1	1	0	1	-49,260042	274,316065	271,80131	0
14.01.2021	21:50:21	0	0	2,598569	3,546	79,0632	0,262	77,849	3,5	1006,74	6,9	8,8	8,6	1	1	1	1	1	1	1	1	1	0	1	-49,260042	274,278374	271,624887	0
14.01.2021	21:50:22	0	0	3,276456	3,63375	82,35	0,261	77,834	3,5	1006,72	6,8	8,8	8,6	1	1	1	1	1	1	1	1	1	0	1	-48,484848	274,276867	272,393033	0
14.01.2021	21:50:23	0	0	2,485587	3,816	71,2368	0,262	77,843	3,5	1006,68	6,8	8,8	8,6	1	1	1	1	1	1	1	1	1	0	1	-49,119098	274,294949	271,843406	0
14.01.2021	21:50:24	0	0	2,937512	3,57	71,9892	0,258	77,842	3,5	1006,7	6,9	8,8	8,6	1	1	1	1	1	1	1	1	1	0	1	-45,243129	274,156756	275,073043	0
14.01.2021	21:50:25	0	0	4,067276	3,2085	72	0,263	77,815	3,5	1006,6	6,9	8,8	8,8	1	1	1	1	1	1	1	1	1	0	1	-49,119098	274,255794	271,660178	0
14.01.2021	21:50:26	0	0	4,067325	3,11625	87,372	0,259	77,826	3,5	1006,74	6,9	8,8	8,6	1	1	1	1	1	1	1	1	1	0	1	-45,665962	274,305504	275,34595	0
14.01.2021	21:50:27	0	0	4,51925	2,99775	88,128	0,251	77,815	3,5	1006,74	6,9	8,8	8,6	1	1	1	1	1	1	1	1	1	0	1	-46,018323	274,171729	274,367832	0
14.01.2021	21:50:28	0	0	4,632231	3,054	92,97	0,255	77,817	3,5	1006,48	6,9	8,8	8,6	1	1	1	1	1	1	1	1	1	0	1	-45,665962	274,144785	274,594272	0
14.01.2021	21:50:29	0	0	2,485558	3,14475	85,5144	0,258	77,8	3,5	1006,5	6,8	8,8	8,8	1	1	1	1	1	1	1	1	1	0	1	-51,092319	274,177721	269,321848	0
14.01.2021	21:50:30	0	0	3,389397	3,261	78,2748	0,261	77,797	3,5	1006,48	6,8	8,8	8,8	1	1	1	1	1	1	1	1	1	0	1	-47,56871	274,30098	273,422023	0
14.01.2021	21:50:31	0	0	3,050494	3,19875	81,9468	0,257	77,797	3,5	1006,62	6,8	8,8	8,6	1	1	1	1	1	1	1	1	1	0	1	-46,5821	274,171729	273,804055	0
14.01.2021	21:50:32	0	0	3,163475	3,14625	78,2928	0,256	77,809	3,5	1006,68	6,9	8,8	8,6	1	1	1	1	1	1	1	1	1	0	1	-49,330514	274,27235	271,526226	0
14.01.2021	21:50:33	0	0	2,824531	3,336	81,2232	0,257	77,805	3,5	1006,7	6,9	8,8	8,6	1	1	1	1	1	1	1	1	1	0	1	-49,471459	274,296456	271,498101	0
14.01.2021	21:50:34	0	0	2,485587	3,5415	76,3884	0,257	77,781	3,5	1006,78	6,8	8,8	8,6	1	1	1	1	1	1	1	1	1	0	1	-50,458069	274,156756	269,858103	0
14.01.2021	21:50:35	0	0	3,050494	3,6945	84,7872	0,261	77,81	3,5	1006,8	6,8	8,8	8,6	1	1	1	1	1	1	1	1	1	0	1	-44,96124	274,132823	275,243097	0
14.01.2021	21:50:36	0	0	4,067325	3,90975	80,5284	0,252	77,816	3,5	1006,7	6,8	8,8	8,6	1	1	1	1	1	1	1	1	1	0	1	-45,525018	274,231738	275,141726	0
14.01.2021	21:50:37	0	0	3,050494	3,8475	82,602	0,253	77,84	3,5	1006,66	6,8	8,8	8,6	1	1	1	1	1	1	1	1	1	0	1	-47,357294	274,12535	272,81213	0
14.01.2021	21:50:38	0	0	2,937512	3,82875	89,3376	0,252	77,843	3,5	1006,42	6,9	8,8	8,6	1	1	1	1	1	1	1	1	1	0	1	-49,471459	274,246769	271,265598	0
14.01.2021	21:50:39	0	0	2,937512	3,40575	93,798	0,256	77,863	3,5	1006,58	6,8	8,8	8,6	1	1	1	1	1	1	1	1	1	0	1	-46,723044	274,30098	274,267688	0
14.01.2021	21:50:40	0	0	2,937512	3,14925	82,962	0,257	77,871	3,5	1006,68	6,8	8,8	8,6	1	1	1	1	1	1	1	1	1	0	1	-49,400987	274,212214	271,17445	0
14.01.2021	21:50:41	0	0	3,276456	2,97825	96,966	0,253	77,864	3,5	1006,6	6,9	8,8	8,6	1	1	1	1	1	1	1	1	1	0	1	-49,330514	274,320593	271,752036	0
14.01.2021	21:50:42	0	0	3,389397	2,8455	73,6272	0,257	77,892	3,5	1006,66	6,8	8,8	8,8	1	1	1	1	1	1	1	1	1	0	1	-48,132488	274,225728	272,506149	0
14.01.2021	21:50:43	0	0	3,841362	2,8755	78,2928	0,259	77,893	3,5	1006,74	6,8	8,8	8,6	1	1	1	1	1	1	1	1	1	0	1	-44,467935	274,293441	276,487513	0
14.01.2021	21:50:44	0	0	4,858193	2,95575	69,4548	0,255	77,912	3,5	1006,72	6,8	8,8	8,6	1	1	1	1	1	1	1	1	1	0	1	-47,780127	274,284399	273,133002	0
14.01.2021	21:50:45	0	0	4,51925	2,93175	60,9408	0,253	77,9	3,5	1006,72	7	8,8	8,6	1	1	1	1	1	1	1	1	1	0	1	-47,145877	274,135813	273,07243	0
14.01.2021	21:50:46	0	0	3,954344	3,29475	79,4592	0,259	77,907	3,5	1006,74	6,9	8,8	8,6	1	1	1	1	1	1	1	1	1	0	1	-47,004933	274,165738	273,353221	0
14.01.2021	21:50:47	0	0	4,180306	3,32625	86,274	0,255	77,898	3,5	1006,68	6,8	8,8	8,6	1	1	1	1	1	1	1	1	1	0	1	-46,441156	274,138803	273,791125	0
14.01.2021	21:50:48	0	0	4,406268	3,2055	102,2112	0,251	77,896	3,5	1006,68	6,8	8,8	8,6	1	1	1	1	1	1	1	1	1	0	1	-46,5821	274,282893	274,323978	0
14.01.2021	21:50:49	0	0	4,293287	3,2745	89,442	0,256	77,913	3,5	1006,64	6,8	8,8	8,6	1	1	1	1	1	1	1	1	1	0	1	-44,397463	274,161246	275,939697	0
14.01.2021	21:50:50	0	0	4,406268	3,7335	65,4588	0,256	77,909	3,5	1006,7	6,8	8,8	8,6	1	1	1	1	1	1	1	1	1	0	1	-48,766737	274,273855	272,09705	0
14.01.2021	21:50:51	0	0	3,050494	3,64425	68,0004	0,256	77,899	3,5	1006,66	6,8	8,8	8,6	1	1	1	1	1	1	1	1	1	0	1	-42,212826	274,144785	278,047408	0
14.01.2021	21:50:52	0	0	2,485587	3,42	70,8516	0,25	77,895	3,5	1006,62	6,8	8,8	8,6	1	1	1	1	1	1	1	1	1	0	1	-43,97463	274,146281	276,292594	0
14.01.2021	21:50:53	0	0	3,502419	3,36075	69,1776	0,252	77,889	3,5	1006,68	6,8	8,8	8,6	1	1	1	1	1	1	1	1	1	0	1	-53,558844	274,282893	267,347234	0
14.01.2021	21:50:54	0	0	5,197137	3,5505	81,198	0,258	77,908	3,5	1006,8	7	8,8	8,6	1	1	1	1	1	1	1	1	1	0	1	-50,387597	274,293441	270,567851	0
14.01.2021	21:50:55	0	0	3,502419	3,564	88,9524	0,253	77,916	3,5	1006,74	6,8	8,8	8,6	1	1	1	1	1	1	1	1	1	0	1	-48,343904	274,162743	272,000253	0
14.01.2021	21:50:56	0	0	4,293287	3,405	84,042	0,26	77,93	3,5	1006,76	6,8	8,8	8,6	1	1	1	1	1	1	1	1	1	0	1	-46,229739	274,31003	274,803357	0
14.01.2021	21:50:57	0	0	4,858193	3,64425	79,0344	0,254	77,928	3,5	1006,64	6,8	8,8	8,6	1	1	1	1	1	1	1	1	1	0	1	-52,924595	274,219721	267,685946	0
14.01.2021	21:50:58	0	0	4,971175	4,1445	69,8544	0,245	77,928	3,5	1006,64	6,8	8,8	8,6	1	1	1	1	1	1	1	1	1	0	1	-49,753347	274,307013	271,265625	0
14.01.2021	21:50:59	0	0	2,937512	4,19325	70,8372	0,254	77,926	3,5	1006,68	6,8	8,8	8,6	1	1	1	1	1	1	1	1	1	0	1	-49,048626	274,158252	271,274542	0
14.01.2021	21:51:00	0	0	2,824531	3,519	80,154	0,256	77,917	3,5	1006,68	6,8	8,8	8,6	1	1	1	1	1	1	1	1	1	0	1	-45,384073	274,116386	274,743475	0
14.01.2021	21:51:01	0	0	2,824531	3,519	80,154	0,256	77,917	3,5	1006,68	6,8	8,8	8,6	1	1	1	1	1	1	1	1	1	0	1	-45,384073	274,116386	274,743475	0
14.01.2021	21:51:02	0	0	2,598569	4,08375	73,08	0,255	77,915	3,5	1006,72	6,8	8,8	8,6	1	1	1	1	1	1	1	1	1	0	1	-45,172657	274,14329	275,080588	0
14.01.2021	21:51:03	0	0	4,858193	5,022	88,9632	0,253	77,898	3,5	1006,52	6,8	8,8	8,6	1	1	1	1	1	1	1	1	1	0	1	-46,159267	274,263317	274,65521	0
14.01.2021	21:51:04	0	0	3,954344	5,814	92,6784	0,252	77,883	3,5	1006,7	6,8	8,8	8,6	1	1	1	1	1	1	1	1	1	0	1	-48,414376	274,252785	272,350824	0
14.01.2021	21:51:05	0	0	2,71155	5,97075	92,6532	0,256	77,891	3,5	1006,76	6,8	8,8	8,6	1	1	1	1	1	1	1	1	1	0	1	-46,511628	274,128339	273,671759	0
14.01.2021	21:51:06	0	0	3,389437	5,82	93,33	0,259	77,886	3,5	1006,6	6,8	8,8	8,6	1	1	1	1	1	1	1	1	1	0	1	-44,256519	274,153762	276,045665	0
14.01.2021	21:51:07	0	0	2,485587	5,919	85,5612	0,252	77,877	3,5	1006,74	6,8	8,8	8,6	1	1	1	1	1	1	1	1	1	0	1	-46,5821	274,122361	273,573362	0
14.01.2021	21:51:08	0	0	3,050494	5,86125	87,3648	0,248	77,862	3,5	1006,68	6,8	8,8	8,6	1	1	1	1	1	1	1	1	1	0	1	-49,682875	274,240755	271,026048	0
14.01.2021	21:51:09	0	0	4,067325	5,60625	81,216	0,251	77,838	3,5	1006,7	6,8	8,8	8,6	1	1	1	1	1	1	1	1	1	0	1	-46,229739	274,114893	273,890832	0
14.01.2021	21:51:10	0	0	3,502419	5,53125	75,618	0,255	77,849	3,5	1006,7	6,8	8,8	8,6	1	1	1	1	1	1	1	1	1	0	1	-47,145877	274,168733	273,226276	0
14.01.2021	21:51:11	0	0	2,71155	5,51625	79,0344	0,256	77,846	3,5	1006,6	6,8	8,8	8,6	1	1	1	1	1	1	1	1	1	0	1	-44,96124	274,138803	275,27104	0
14.01.2021	21:51:12	0	0	4,745212	5,352	84,0024	0,255	77,849	3,5	1006,66	6,9	8,8	8,6	1	1	1	1	1	1	1	1	1	0	1	-45,877378	274,173227	274,515778	0
14.01.2021	21:51:13	0	0	4,51925	5,22375	78,2892	0,254	77,843	3,5	1006,7	6,8	8,8	8,6	1	1	1	1	1	1	1	1	1	0	1	-50,105708	274,140298	270,13356	0
14.01.2021	21:51:14	0	0	3,954344	5,25225	69,8616	0,258	77,842	3,5	1006,5	6,8	8,8	8,6	1	1	1	1	1	1	1	1	1	0	1	-46,511628	274,257298	274,274687	0
14.01.2021	21:51:15	0	0	4,632231	5,061	82,5984	0,249	77,854	3,5	1006,68	6,8	8,8	8,6	1	1	1	1	1	1	1	1	1	0	1	-47,639183	274,189712	272,831038	0
14.01.2021	21:51:16	0	0	3,163475	5,01675	79,4304	0,256	77,872	3,5	1006,52	6,9	8,8	8,6	1	1	1	1	1	1	1	1	1	0	1	-44,749824	274,132823	275,454514	0
14.01.2021	21:51:17	0	0	4,067325	4,998	84,3876	0,254	77,874	3,5	1006,74	6,8	8,8	8,6	1	1	1	1	1	1	1	1	1	0	1	-51,585624	274,185214	268,863571	0
14.01.2021	21:51:18	0	0	4,632231	4,89525	81,0036	0,254	77,881	3,5	1006,72	6,8	8,8	8,6	1	1	1	1	1	1	1	1	1	0	1	-54,756871	274,303996	266,24798	0
14.01.2021	21:51:19	0	0	2,824531	4,79475	83,7288	0,245	77,898	3,5	1006,74	7	8,8	8,6	1	1	1	1	1	1	1	1	1	0	1	-49,894292	274,263317	270,920185	0
14.01.2021	21:51:20	0	0	4,632231	4,69125	82,9872	0,252	77,921	3,5	1006,52	6,8	8,8	8,6	1	1	1	1	1	1	1	1	1	0	1	-49,471459	274,314556	271,582828	0
14.01.2021	21:51:21	0	0	3,728381	4,5405	81,5832	0,255	77,947	3,5	1006,52	6,8	8,8	8,6	1	1	1	1	1	1	1	1	1	0	1	-50,669486	274,270844	270,180209	0
14.01.2021	21:51:22	0	0	3,6154	4,52325	92,2752	0,253	77,955	3,5	1006,52	6,8	8,8	8,6	1	1	1	1	1	1	1	1	1	0	1	-48,132488	274,131328	272,064866	0
14.01.2021	21:51:23	0	0	5,084156	4,4415	81,9432	0,251	77,964	3,5	1006,38	6,8	8,8	8,6	1	1	1	1	1	1	1	1	1	0	1	-48,132488	274,282893	272,77359	0
14.01.2021	21:51:24	0	0	4,51925	4,40625	83,3652	0,257	78,004	3,5	1006,62	6,8	8,8	8,6	1	1	1	1	1	1	1	1	1	0	1	-50,105708	274,264822	270,715811	0
14.01.2021	21:51:25	0	0	2,824531	4,24875	75,24	0,254	78,02	3,5	1006,72	6,8	8,8	8,6	1	1	1	1	1	1	1	1	1	0	1	-48,20296	274,269338	272,63969	0
14.01.2021	21:51:26	0	0	4,745212	4,04025	79,758	0,251	78,016	3,5	1006,72	6,8	8,8	8,6	1	1	1	1	1	1	1	1	1	0	1	-51,726568	274,307013	269,292404	0
14.01.2021	21:51:27	0	0	4,971175	3,95025	79,02	0,252	78,023	3,5	1006,66	6,8	8,8	8,6	1	1	1	1	1	1	1	1	1	0	1	-51,79704	274,27235	269,0597	0
14.01.2021	21:51:28	0	0	4,067325	3,98775	70,2072	0,256	78,018	3,5	1006,62	6,8	8,8	8,6	1	1	1	1	1	1	1	1	1	0	1	-50,669486	274,308521	270,356549	0
14.01.2021	21:51:29	0	0	4,406268	3,90825	72,6876	0,255	78,038	3,5	1006,8	6,8	8,8	8,6	1	1	1	1	1	1	1	1	1	0	1	-49,400987	274,189712	271,069234	0
14.01.2021	21:51:30	0	0	4,406268	4,155	87,7212	0,256	78,031	3,5	1006,62	6,8	8,8	8,6	1	1	1	1	1	1	1	1	1	0	1	-48,132488	274,307013	272,886485	0
14.01.2021	21:51:31	0	0	3,841362	4,32375	77,9616	0,257	78,038	3,5	1006,64	6,8	8,8	8,6	1	1	1	1	1	1	1	1	1	0	1	-48,273432	274,31003	272,759664	0
14.01.2021	21:51:32	0	0	2,71155	4,3035	70,848	0,259	78,03	3,5	1006,62	6,9	8,8	8,6	1	1	1	1	1	1	1	1	1	0	1	-45,665962	274,161246	274,671198	0
14.01.2021	21:51:33	0	0	4,406268	4,18125	64,2384	0,263	78,029	3,5	1006,76	6,8	8,8	8,6	1	1	1	1	1	1	1	1	1	0	1	-50,880902	274,266328	269,94766	0
14.01.2021	21:51:34	0	0	3,050494	4,14525	73,4364	0,261	78,015	3,5	1006,58	6,9	8,8	8,6	1	1	1	1	1	1	1	1	1	0	1	-47,286822	274,156756	273,029351	0
14.01.2021	21:51:35	0	0	2,824531	4,22775	73,4256	0,261	78,014	3,5	1006,76	6,8	8,8	8,6	1	1	1	1	1	1	1	1	1	0	1	-48,625793	274,255794	272,153483	0
14.01.2021	21:51:36	0	0	4,632231	4,35675	75,24	0,265	78,011	3,5	1006,66	6,8	8,8	8,6	1	1	1	1	1	1	1	1	1	0	1	-47,427766	274,317575	273,640652	0
14.01.2021	21:51:37	0	0	4,971175	4,52175	78,6528	0,26	77,99	3,5	1006,56	6,8	8,8	8,6	1	1	1	1	1	1	1	1	1	0	1	-46,511628	274,266328	274,316934	0
14.01.2021	21:51:38	0	0	3,389437	4,3605	77,9544	0,258	77,979	3,5	1006,68	6,8	8,8	8,6	1	1	1	1	1	1	1	1	1	0	1	-44,890768	274,332673	276,248342	0
14.01.2021	21:51:39	0	0	3,6154	4,19925	76,8168	0,261	77,973	3,5	1006,72	6,8	8,8	8,6	1	1	1	1	1	1	1	1	1	0	1	-49,682875	274,263317	271,131602	0
14.01.2021	21:51:40	0	0	4,632231	4,22475	74,1744	0,26	77,958	3,5	1006,66	6,8	8,8	8,6	1	1	1	1	1	1	1	1	1	0	1	-44,326991	274,152266	275,9682	0
14.01.2021	21:51:41	0	0	2,937512	4,39575	70,8516	0,263	77,956	3,5	1006,7	6,8	8,8	8,6	1	1	1	1	1	1	1	1	1	0	1	-46,159267	274,260308	274,641128	0
14.01.2021	21:51:42	0	0	4,858193	4,49625	88,5852	0,261	77,945	3,5	1006,7	6,8	8,8	8,6	1	1	1	1	1	1	1	1	1	0	1	-49,82382	274,284399	271,089309	0
14.01.2021	21:51:43	0	0	3,389437	4,51875	79,4124	0,257	77,937	3,5	1006,64	6,9	8,8	8,6	1	1	1	1	1	1	1	1	1	0	1	-49,753347	274,308521	271,272687	0
14.01.2021	21:51:44	0	0	4,858193	4,27275	90,4104	0,261	77,908	3,5	1006,7	6,8	8,8	8,6	1	1	1	1	1	1	1	1	1	0	1	-50,317125	274,297964	270,659492	0
14.01.2021	21:51:45	0	0	4,858193	4,032	84,0636	0,265	77,914	3,5	1006,72	7	8,8	8,6	1	1	1	1	1	1	1	1	1	0	1	-49,400987	274,173227	270,99217	0
14.01.2021	21:51:46	0	0	2,937512	3,87825	79,3872	0,266	77,902	3,5	1006,68	6,8	8,8	8,6	1	1	1	1	1	1	1	1	1	0	1	-49,964764	274,171729	270,421391	0
14.01.2021	21:51:47	0	0	4,632231	3,8205	81,2232	0,264	77,893	3,5	1006,74	6,8	8,8	8,6	1	1	1	1	1	1	1	1	1	0	1	-49,894292	274,158252	270,428876	0
14.01.2021	21:51:48	0	0	3,6154	3,82425	89,7192	0,264	77,883	3,5	1006,64	6,9	8,8	8,6	1	1	1	1	1	1	1	1	1	0	1	-51,444679	274,260308	269,355715	0
14.01.2021	21:51:49	0	0	4,293287	3,873	86,67	0,267	77,897	3,5	1006,72	6,8	8,8	8,6	1	1	1	1	1	1	1	1	1	0	1	-46,652572	274,153762	273,649612	0
14.01.2021	21:51:50	0	0	3,954344	3,73875	75,6144	0,265	77,888	3,5	1006,68	6,9	8,8	8,6	1	1	1	1	1	1	1	1	1	0	1	-46,934461	274,305504	274,077451	0
14.01.2021	21:51:51	0	0	2,485587	3,61275	77,9688	0,268	77,88	3,5	1006,66	6,9	8,8	8,6	1	1	1	1	1	1	1	1	1	0	1	-48,625793	274,176223	271,781369	0
14.01.2021	21:51:52	0	0	4,406268	3,41025	79,0992	0,27	77,928	3,5	1006,58	6,8	8,8	8,6	1	1	1	1	1	1	1	1	1	0	1	-47,921071	274,317575	273,147346	0
14.01.2021	21:51:53	0	0	4,406268	3,28575	87,7248	0,263	77,861	3,5	1006,64	7	8,8	8,6	1	1	1	1	1	1	1	1	1	0	1	-51,585624	274,231738	269,08112	0
14.01.2021	21:51:54	0	0	4,51925	3,186	65,8368	0,264	77,875	3,5	1006,72	6,8	8,8	8,6	1	1	1	1	1	1	1	1	1	0	1	-50,105708	274,156756	270,210464	0
14.01.2021	21:51:55	0	0	3,728381	3,34425	92,6748	0,266	77,861	3,5	1006,58	6,9	8,8	8,6	1	1	1	1	1	1	1	1	1	0	1	-45,947851	274,216718	274,648647	0
14.01.2021	21:51:56	0	0	4,180306	3,2475	80,5428	0,268	77,859	3,5	1006,72	6,8	8,8	8,6	1	1	1	1	1	1	1	1	1	0	1	-48,696265	274,352319	272,534846	0
14.01.2021	21:51:57	0	0	4,858193	3,31875	80,1324	0,268	77,843	3,5	1006,7	6,9	8,8	8,6	1	1	1	1	1	1	1	1	1	0	1	-49,471459	274,207712	271,082922	0
14.01.2021	21:51:58	0	0	3,841362	3,53175	83,7252	0,27	77,851	3,5	1006,72	6,9	8,8	8,6	1	1	1	1	1	1	1	1	1	0	1	-46,229739	274,334184	274,916444	0
14.01.2021	21:51:59	0	0	4,180306	3,621	91,5156	0,264	77,83	3,5	1006,68	6,8	8,8	8,6	1	1	1	1	1	1	1	1	1	0	1	-49,119098	274,328142	271,998798	0
14.01.2021	21:52:00	0	0	4,406268	3,44475	77,6052	0,269	77,83	3,5	1006,64	6,8	8,8	8,6	1	1	1	1	1	1	1	1	1	0	1	-49,753347	274,287413	271,173885	0
14.01.2021	21:52:01	0	0	4,406268	3,44475	77,6052	0,269	77,83	3,5	1006,64	6,8	8,8	8,6	1	1	1	1	1	1	1	1	1	0	1	-49,753347	274,287413	271,173885	0
14.01.2021	21:52:02	0	0	3,728381	3,681	73,4436	0,273	77,831	3,5	1006,7	6,8	8,8	8,6	1	1	1	1	1	1	1	1	1	0	1	-50,951374	274,317575	270,117043	0
14.01.2021	21:52:03	0	0	2,824531	3,93825	71,2188	0,264	77,811	3,5	1006,72	6,8	8,8	8,6	1	1	1	1	1	1	1	1	1	0	1	-50,528541	274,284399	270,384588	0
14.01.2021	21:52:04	0	0	4,745212	3,95775	69,4512	0,26	77,813	3,5	1006,76	7	8,8	8,6	1	1	1	1	1	1	1	1	1	0	1	-49,119098	274,323613	271,977589	0
14.01.2021	21:52:05	0	0	3,050494	3,921	91,1412	0,266	77,815	3,5	1006,68	6,8	8,8	8,6	1	1	1	1	1	1	1	1	1	0	1	-47,850599	274,257298	272,935716	0
14.01.2021	21:52:06	0	0	3,163475	4,10325	98,0712	0,268	77,807	3,5	1006,7	6,8	8,8	8,6	1	1	1	1	1	1	1	1	1	0	1	-46,793517	274,322103	274,296102	0
14.01.2021	21:52:07	0	0	4,293287	4,188	96,2496	0,268	77,801	3,5	1006,56	6,8	8,8	8,6	1	1	1	1	1	1	1	1	1	0	1	-50,458069	274,171729	269,928086	0
14.01.2021	21:52:08	0	0	4,745212	3,95325	94,4064	0,264	77,816	3,5	1006,64	7	8,8	8,6	1	1	1	1	1	1	1	1	1	0	1	-50,17618	274,156756	270,139992	0
14.01.2021	21:52:09	0	0	4,745212	3,519	110,0052	0,269	77,79	3,5	1006,7	6,8	8,8	8,6	1	1	1	1	1	1	1	1	1	0	1	-46,229739	274,311538	274,81042	0
14.01.2021	21:52:10	0	0	3,728381	3,1785	102,2112	0,266	77,786	3,5	1006,64	6,8	8,8	8,6	1	1	1	1	1	1	1	1	1	0	1	-49,753347	274,273855	271,110439	0
14.01.2021	21:52:11	0	0	2,598569	2,9055	95,148	0,27	77,809	3,5	1006,76	6,8	8,8	8,6	1	1	1	1	1	1	1	1	1	0	1	-43,481325	274,135813	276,736983	0
14.01.2021	21:52:12	0	0	3,728381	2,895	79,0236	0,266	77,799	3,5	1006,64	6,8	8,8	8,6	1	1	1	1	1	1	1	1	1	0	1	-47,991543	274,207712	272,562838	0
14.01.2021	21:52:13	0	0	2,71155	2,946	99,5292	0,266	77,805	3,5	1006,66	6,9	8,8	8,6	1	1	1	1	1	1	1	1	1	0	1	-48,837209	274,316065	272,224143	0
14.01.2021	21:52:14	0	0	2,71155	2,88825	93,7188	0,259	77,803	3,5	1006,52	6,8	8,8	8,6	1	1	1	1	1	1	1	1	1	0	1	-45,313601	274,225728	275,325036	0
14.01.2021	21:52:15	0	0	3,954344	2,90625	85,1904	0,266	77,797	3,5	1006,66	6,8	8,8	8,6	1	1	1	1	1	1	1	1	1	0	1	-54,122622	274,322103	266,966997	0
14.01.2021	21:52:16	0	0	4,858193	3,126	92,9448	0,276	77,858	3,5	1006,8	6,8	8,8	8,6	1	1	1	1	1	1	1	1	1	0	1	-47,780127	274,185214	272,669068	0
14.01.2021	21:52:17	0	0	4,971175	3,2475	95,5476	0,264	77,808	3,5	1006,68	6,8	8,8	8,6	1	1	1	1	1	1	1	1	1	0	1	-48,696265	274,307013	272,322708	0
14.01.2021	21:52:18	0	0	2,485587	3,26325	82,3644	0,268	77,813	3,5	1006,7	6,8	8,8	8,6	1	1	1	1	1	1	1	1	1	0	1	-49,894292	274,275361	270,976542	0
14.01.2021	21:52:19	0	0	4,067325	3,26325	89,7192	0,267	77,814	3,5	1006,72	6,8	8,8	8,6	1	1	1	1	1	1	1	1	1	0	1	-50,669486	274,299472	270,314189	0
14.01.2021	21:52:20	0	0	3,6154	3,45375	92,268	0,268	77,802	3,5	1006,56	6,8	8,8	8,6	1	1	1	1	1	1	1	1	1	0	1	-53,558844	274,165738	266,79931	0
14.01.2021	21:52:21	0	0	4,745212	3,47625	70,8516	0,258	77,796	3,5	1006,58	6,8	8,8	8,6	1	1	1	1	1	1	1	1	1	0	1	-50,246653	274,281386	270,652375	0
14.01.2021	21:52:22	0	0	3,728381	3,40725	57,4272	0,271	77,798	3,5	1006,48	6,8	8,8	8,6	1	1	1	1	1	1	1	1	1	0	1	-49,894292	274,131328	270,303062	0
14.01.2021	21:52:23	0	0	2,937512	3,38775	64,602	0,265	77,788	3,5	1006,68	6,8	8,8	8,6	1	1	1	1	1	1	1	1	1	0	1	-48,062016	274,176223	272,345147	0
14.01.2021	21:52:24	0	0	2,824531	3,249	56,2932	0,269	77,789	3,5	1006,72	6,8	8,8	8,6	1	1	1	1	1	1	1	1	1	0	1	-50,035236	274,248273	270,708855	0
14.01.2021	21:52:25	0	0	4,745212	3,33675	53,7156	0,268	77,769	3,5	1006,68	6,8	8,8	8,6	1	1	1	1	1	1	1	1	1	0	1	-48,837209	274,134318	271,374113	0
14.01.2021	21:52:26	0	0	3,954344	3,2475	57,726	0,267	77,773	3,5	1006,6	7	8,8	8,6	1	1	1	1	1	1	1	1	1	0	1	-45,384073	274,19571	275,11419	0
14.01.2021	21:52:27	0	0	4,180306	3,36225	62,442	0,262	77,773	3,5	1006,66	6,8	8,7	8,6	1	1	1	1	1	1	1	1	1	0	1	-49,964764	274,323613	271,131923	0
14.01.2021	21:52:28	0	0	4,406268	3,37425	52,8912	0,27	77,77	3,5	1006,84	6,8	8,8	8,6	1	1	1	1	1	1	1	1	1	0	1	-54,122622	274,149273	266,158584	0
14.01.2021	21:52:29	0	0	4,180306	3,16875	60,552	0,266	77,756	3,5	1006,66	6,8	8,8	8,6	1	1	1	1	1	1	1	1	1	0	1	-46,159267	274,319084	274,916217	0
14.01.2021	21:52:30	0	0	4,858193	2,9265	63,1584	0,265	77,752	3,5	1006,74	6,8	8,8	8,6	1	1	1	1	1	1	1	1	1	0	1	-51,656096	274,20321	268,877236	0
14.01.2021	21:52:31	0	0	3,6154	2,8125	66,9096	0,266	77,744	3,5	1006,7	6,9	8,8	8,6	1	1	1	1	1	1	1	1	1	0	1	-47,780127	274,140298	272,459141	0
14.01.2021	21:52:32	0	0	2,937512	2,73225	76,806	0,266	77,734	3,5	1006,62	6,8	8,8	8,6	1	1	1	1	1	1	1	1	1	0	1	-48,343904	274,224226	272,287708	0
14.01.2021	21:52:33	0	0	4,632231	2,70375	60,5556	0,269	77,74	3,5	1006,78	6,8	8,8	8,6	1	1	1	1	1	1	1	1	1	0	1	-53,065539	274,126844	267,110866	0
14.01.2021	21:52:34	0	0	4,51925	2,81925	67,6656	0,267	77,746	3,5	1006,56	6,8	8,8	8,6	1	1	1	1	1	1	1	1	1	0	1	-52,572234	274,173227	267,820923	0
14.01.2021	21:52:35	0	0	4,858193	2,81175	58,8636	0,269	77,747	3,5	1006,54	6,8	8,8	8,6	1	1	1	1	1	1	1	1	1	0	1	-51,162791	274,252785	269,602409	0
14.01.2021	21:52:36	0	0	3,6154	2,709	82,3716	0,271	77,746	3,5	1006,78	6,8	8,8	8,6	1	1	1	1	1	1	1	1	1	0	1	-51,444679	274,313047	269,602543	0
14.01.2021	21:52:37	0	0	3,502419	2,63325	53,352	0,266	77,763	3,5	1006,68	7	8,8	8,6	1	1	1	1	1	1	1	1	1	0	1	-49,894292	274,243762	270,828697	0
14.01.2021	21:52:38	0	0	2,71155	2,6295	73,4436	0,264	77,745	3,5	1006,64	6,8	8,8	8,6	1	1	1	1	1	1	1	1	1	0	1	-50,81043	274,30098	270,180303	0
14.01.2021	21:52:39	0	0	3,389437	2,7195	76,8456	0,268	77,754	3,5	1006,74	6,8	8,8	8,6	1	1	1	1	1	1	1	1	1	0	1	-48,484848	274,186713	271,971354	0
14.01.2021	21:52:40	0	0	4,745212	2,823	57,51	0,271	77,771	3,5	1006,72	6,8	8,8	8,6	1	1	1	1	1	1	1	1	1	0	1	-49,541931	274,096979	270,494969	0
14.01.2021	21:52:41	0	0	4,51925	2,99925	73,422	0,27	77,775	3,5	1006,72	6,8	8,8	8,6	1	1	1	1	1	1	1	1	1	0	1	-56,166314	274,228733	264,486375	0
14.01.2021	21:52:42	0	0	3,050494	3,18	67,68	0,268	77,773	3,5	1006,74	6,8	8,8	8,6	1	1	1	1	1	1	1	1	1	0	1	-54,686399	274,278374	266,198531	0
14.01.2021	21:52:43	0	0	4,745212	3,30825	59,85	0,27	77,761	3,5	1006,52	6,8	8,7	8,6	1	1	1	1	1	1	1	1	1	0	1	-53,4179	274,161246	266,91926	0
14.01.2021	21:52:44	0	0	4,745212	3,276	70,8732	0,272	77,775	3,5	1006,68	6,8	8,7	8,6	1	1	1	1	1	1	1	1	1	0	1	-52,290345	274,173227	268,102811	0
14.01.2021	21:52:45	0	0	4,51925	3,28275	91,9188	0,268	77,764	3,5	1006,52	6,8	8,8	8,6	1	1	1	1	1	1	1	1	1	0	1	-52,149401	274,224226	268,482211	0
14.01.2021	21:52:46	0	0	4,745212	3,23175	73,7856	0,271	77,776	3,5	1006,66	6,8	8,8	8,6	1	1	1	1	1	1	1	1	1	0	1	-48,978154	274,120867	271,170329	0
14.01.2021	21:52:47	0	0	3,6154	3,2505	62,8128	0,272	77,761	3,5	1006,8	6,8	8,8	8,6	1	1	1	1	1	1	1	1	1	0	1	-46,5821	274,27988	274,309878	0
14.01.2021	21:52:48	0	0	4,632231	3,492	84,438	0,27	77,744	3,5	1006,74	6,8	8,8	8,6	1	1	1	1	1	1	1	1	1	0	1	-46,723044	274,123856	273,439398	0
14.01.2021	21:52:49	0	0	2,824531	3,861	75,9888	0,27	77,758	3,5	1006,58	6,8	8,8	8,6	1	1	1	1	1	1	1	1	1	0	1	-47,850599	274,188213	272,612612	0
14.01.2021	21:52:50	0	0	3,276456	4,0125	73,764	0,273	77,761	3,5	1006,76	6,8	8,8	8,6	1	1	1	1	1	1	1	1	1	0	1	-46,511628	274,290427	274,429711	0
14.01.2021	21:52:51	0	0	2,824531	3,996	71,2368	0,266	77,759	3,5	1006,6	6,8	8,8	8,6	1	1	1	1	1	1	1	1	1	0	1	-46,159267	274,242259	274,556689	0
14.01.2021	21:52:52	0	0	2,485587	3,77175	81,5796	0,269	77,765	3,5	1006,68	6,8	8,7	8,6	1	1	1	1	1	1	1	1	1	0	1	-45,877378	274,15077	274,410819	0
14.01.2021	21:52:53	0	0	2,372606	3,60225	84,8124	0,265	77,763	3,5	1006,74	6,8	8,8	8,6	1	1	1	1	1	1	1	1	1	0	1	-44,890768	274,116386	275,23678	0
14.01.2021	21:52:54	0	0	4,858193	3,36375	81,2124	0,276	77,757	3,5	1006,62	6,8	8,8	8,6	1	1	1	1	1	1	1	1	1	0	1	-50,81043	274,152266	269,484761	0
14.01.2021	21:52:55	0	0	3,502419	3,297	82,9764	0,277	77,752	3,5	1006,94	6,8	8,8	8,6	1	1	1	1	1	1	1	1	1	0	1	-48,343904	274,297964	272,632713	0
14.01.2021	21:52:56	0	0	2,937512	3,279	84,438	0,273	77,754	3,5	1006,56	6,8	8,7	8,6	1	1	1	1	1	1	1	1	1	0	1	-44,608879	274,221223	276,008685	0
14.01.2021	21:52:57	0	0	4,971175	3,30375	77,9616	0,268	77,735	3,5	1006,7	6,8	8,8	8,6	1	1	1	1	1	1	1	1	1	0	1	-49,894292	274,297964	271,082325	0
14.01.2021	21:52:58	0	0	3,163475	3,093	82,7028	0,268	77,723	3,5	1006,72	6,8	8,8	8,6	1	1	1	1	1	1	1	1	1	0	1	-48,766737	274,15077	271,521461	0
14.01.2021	21:52:59	0	0	4,632231	2,7705	76,8276	0,278	77,729	3,5	1006,88	6,8	8,7	8,6	1	1	1	1	1	1	1	1	1	0	1	-48,837209	274,28892	272,097076	0
14.01.2021	21:53:00	0	0	4,51925	2,50575	82,9872	0,275	77,697	3,5	1006,76	6,8	8,8	8,6	1	1	1	1	1	1	1	1	1	0	1	-48,837209	274,252785	271,927991	0
14.01.2021	21:53:01	0	0	4,51925	2,50575	82,9872	0,275	77,697	3,5	1006,76	6,8	8,8	8,6	1	1	1	1	1	1	1	1	1	0	1	-48,343904	274,159749	271,986259	0
14.01.2021	21:53:02	0	0	4,067325	2,7555	71,9928	0,269	77,707	3,5	1006,68	6,8	8,8	8,6	1	1	1	1	1	1	1	1	1	0	1	-45,454545	274,141794	274,79171	0
14.01.2021	21:53:03	0	0	4,745212	2,78325	58,8708	0,276	77,685	3,5	1006,74	6,8	8,7	8,6	1	1	1	1	1	1	1	1	1	0	1	-48,273432	274,285906	272,646749	0
14.01.2021	21:53:04	0	0	3,502419	2,8185	68,022	0,27	77,68	3,5	1006,78	6,8	8,8	8,6	1	1	1	1	1	1	1	1	1	0	1	-46,300211	274,162743	274,043946	0
14.01.2021	21:53:05	0	0	4,632231	2,568	77,9472	0,268	77,669	3,5	1006,78	6,8	8,8	8,6	1	1	1	1	1	1	1	1	1	0	1	-48,696265	274,111906	271,410355	0
14.01.2021	21:53:06	0	0	4,971175	2,49375	63,1836	0,277	77,69	3,5	1006,76	6,8	8,8	8,6	1	1	1	1	1	1	1	1	1	0	1	-52,290345	274,218219	268,313174	0
14.01.2021	21:53:07	0	0	4,293287	2,5365	74,5308	0,275	77,687	3,5	1006,84	6,8	8,8	8,6	1	1	1	1	1	1	1	1	1	0	1	-53,276956	274,266328	267,551607	0
14.01.2021	21:53:08	0	0	4,745212	2,535	70,2144	0,277	77,683	3,5	1006,8	6,8	8,7	8,6	1	1	1	1	1	1	1	1	1	0	1	-49,048626	274,20021	271,470677	0
14.01.2021	21:53:09	0	0	2,937512	2,50725	49,194	0,269	77,664	3,5	1006,7	6,8	8,7	8,6	1	1	1	1	1	1	1	1	1	0	1	-49,18957	274,092503	270,826426	0
14.01.2021	21:53:10	0	0	4,971175	2,43975	62,4312	0,273	77,677	3,5	1006,74	6,8	8,7	8,6	1	1	1	1	1	1	1	1	1	0	1	-52,713178	274,218219	267,890341	0
14.01.2021	21:53:11	0	0	4,180306	2,36775	87,7356	0,273	77,673	3,5	1006,72	6,8	8,8	8,6	1	1	1	1	1	1	1	1	1	0	1	-49,260042	274,098471	270,783827	0
14.01.2021	21:53:12	0	0	3,163475	2,68125	84,0564	0,269	77,665	3,5	1006,76	6,8	8,8	8,6	1	1	1	1	1	1	1	1	1	0	1	-51,867512	274,221223	268,750052	0
14.01.2021	21:53:13	0	0	3,276456	2,65275	85,1688	0,268	77,655	3,5	1006,82	6,8	8,7	8,6	1	1	1	1	1	1	1	1	1	0	1	-49,18957	274,134318	271,021752	0
14.01.2021	21:53:14	0	0	3,502419	2,4975	95,5332	0,272	77,654	3,5	1006,84	6,8	8,8	8,6	1	1	1	1	1	1	1	1	1	0	1	-48,132488	274,258803	272,660867	0
14.01.2021	21:53:15	0	0	4,971175	2,36925	95,5152	0,268	77,62	3,5	1006,62	6,8	8,8	8,6	1	1	1	1	1	1	1	1	1	0	1	-47,921071	274,228733	272,731618	0
14.01.2021	21:53:16	0	0	4,632231	2,31525	90,4176	0,268	77,626	3,5	1006,78	6,8	8,7	8,6	1	1	1	1	1	1	1	1	1	0	1	-52,572234	274,27988	268,319744	0
14.01.2021	21:53:17	0	0	4,067325	2,58225	92,2356	0,264	77,643	3,5	1006,72	6,8	8,8	8,6	1	1	1	1	1	1	1	1	1	0	1	-50,669486	274,19721	269,83579	0
14.01.2021	21:53:18	0	0	2,372606	2,772	72,6804	0,266	77,641	3,5	1006,72	6,8	8,7	8,6	1	1	1	1	1	1	1	1	1	0	1	-51,162791	274,27235	269,69395	0
14.01.2021	21:53:19	0	0	2,598569	3,0705	70,8552	0,268	77,643	3,5	1006,74	6,8	8,8	8,6	1	1	1	1	1	1	1	1	1	0	1	-49,541931	274,239252	271,159961	0
14.01.2021	21:53:20	0	0	3,502419	3,3285	85,536	0,265	77,633	3,5	1006,82	6,8	8,7	8,6	1	1	1	1	1	1	1	1	1	0	1	-52,149401	274,282893	268,756677	0
14.01.2021	21:53:21	0	0	3,728381	3,51375	71,2224	0,263	77,654	3,5	1006,8	6,8	8,8	8,6	1	1	1	1	1	1	1	1	1	0	1	-50,739958	274,237749	269,954903	0
14.01.2021	21:53:22	0	0	4,971175	3,96375	71,2296	0,266	77,65	3,5	1006,64	6,8	8,7	8,6	1	1	1	1	1	1	1	1	1	0	1	-47,21635	274,104441	272,855402	0
14.01.2021	21:53:23	0	0	4,745212	4,488	74,1672	0,266	77,64	3,5	1006,72	6,8	8,8	8,6	1	1	1	1	1	1	1	1	1	0	1	-49,119098	274,152266	271,176093	0
14.01.2021	21:53:24	0	0	2,259625	5,028	90,0396	0,27	77,632	3,5	1006,78	6,8	8,7	8,6	1	1	1	1	1	1	1	1	1	0	1	-49,119098	274,092503	270,896899	0
14.01.2021	21:53:25	0	0	3,728381	4,749	102,5856	0,266	77,631	3,5	1006,92	6,8	8,8	8,6	1	1	1	1	1	1	1	1	1	0	1	-50,105708	274,206211	270,441656	0
14.01.2021	21:53:26	0	0	2,485587	4,257	94,8096	0,266	77,619	3,5	1006,72	6,8	8,8	8,6	1	1	1	1	1	1	1	1	1	0	1	-51,585624	274,080573	268,37466	0
14.01.2021	21:53:27	0	0	3,276456	4,2795	93,7188	0,263	77,612	3,5	1006,76	6,8	8,7	8,6	1	1	1	1	1	1	1	1	1	0	1	-49,753347	274,219721	270,857194	0
14.01.2021	21:53:28	0	0	2,146644	4,58325	96,2064	0,267	77,609	3,5	1006,74	6,8	8,7	8,6	1	1	1	1	1	1	1	1	1	0	1	-48,978154	274,085046	271,003017	0
14.01.2021	21:53:29	0	0	3,389437	4,80825	84,7764	0,265	77,597	3,5	1006,7	6,8	8,7	8,6	1	1	1	1	1	1	1	1	1	0	1	-49,82382	274,20321	270,709512	0
14.01.2021	21:53:30	0	0	4,971175	4,698	81,5868	0,262	77,586	3,5	1006,72	6,8	8,7	8,6	1	1	1	1	1	1	1	1	1	0	1	-47,145877	274,216718	273,45062	0
14.01.2021	21:53:31	0	0	2,485587	4,76625	81,2196	0,268	77,58	3,5	1006,78	6,8	8,7	8,6	1	1	1	1	1	1	1	1	1	0	1	-50,17618	274,122361	269,979282	0
14.01.2021	21:53:32	0	0	4,51925	4,68975	96,228	0,266	77,554	3,5	1006,56	6,8	8,8	8,6	1	1	1	1	1	1	1	1	1	0	1	-48,907681	274,218219	271,695837	0
14.01.2021	21:53:33	0	0	2,824531	4,78725	88,5528	0,259	77,566	3,5	1006,68	6,8	8,7	8,6	1	1	1	1	1	1	1	1	1	0	1	-47,21635	274,252785	273,548851	0
14.01.2021	21:53:34	0	0	5,084156	4,69125	92,6424	0,265	77,55	3,5	1006,58	6,8	8,7	8,6	1	1	1	1	1	1	1	1	1	0	1	-48,907681	274,23324	271,76609	0
14.01.2021	21:53:35	0	0	4,293287	4,6185	92,6496	0,261	77,556	3,5	1006,74	6,8	8,7	8,6	1	1	1	1	1	1	1	1	1	0	1	-45,736434	274,242259	274,979522	0
14.01.2021	21:53:36	0	0	2,598569	4,28625	69,4692	0,26	77,548	3,5	1006,7	6,8	8,7	8,6	1	1	1	1	1	1	1	1	1	0	1	-47,850599	274,123856	272,311844	0
14.01.2021	21:53:37	0	0	4,406268	4,33875	77,598	0,263	77,542	3,5	1006,68	6,8	8,8	8,6	1	1	1	1	1	1	1	1	1	0	1	-47,004933	274,258803	273,788421	0
14.01.2021	21:53:38	0	0	4,51925	4,0065	71,2332	0,262	77,545	3,5	1006,7	6,8	8,7	8,6	1	1	1	1	1	1	1	1	1	0	1	-50,17618	274,174725	270,223979	0
14.01.2021	21:53:39	0	0	2,824531	3,7995	79,0524	0,259	77,543	3,5	1006,76	6,8	8,7	8,6	1	1	1	1	1	1	1	1	1	0	1	-52,149401	274,246769	268,587655	0
14.01.2021	21:53:40	0	0	3,954344	3,98925	77,9616	0,258	77,523	3,5	1006,74	6,8	8,7	8,6	1	1	1	1	1	1	1	1	1	0	1	-51,444679	274,146281	268,822545	0
14.01.2021	21:53:41	0	0	2,71155	4,488	65,4588	0,251	77,543	3,5	1006,72	6,8	8,7	8,6	1	1	1	1	1	1	1	1	1	0	1	-49,753347	274,258803	271,040007	0
14.01.2021	21:53:42	0	0	3,6154	4,77975	80,1252	0,259	77,524	3,5	1006,6	6,8	8,7	8,6	1	1	1	1	1	1	1	1	1	0	1	-51,092319	274,251281	269,665845	0
14.01.2021	21:53:43	0	0	4,51925	4,785	59,8644	0,253	77,54	3,5	1006,62	6,8	8,8	8,6	1	1	1	1	1	1	1	1	1	0	1	-46,441156	274,188213	274,022056	0
14.01.2021	21:53:44	0	0	4,406268	4,73625	73,7784	0,256	77,537	3,5	1006,56	6,8	8,7	8,6	1	1	1	1	1	1	1	1	1	0	1	-49,753347	274,249777	270,997779	0
14.01.2021	21:53:45	0	0	4,858193	4,914	68,5008	0,258	77,537	3,5	1006,8	6,8	8,7	8,6	1	1	1	1	1	1	1	1	1	0	1	-50,035236	274,149273	270,24597	0
14.01.2021	21:53:46	0	0	4,858193	4,92375	68,4144	0,259	77,545	3,5	1006,62	6,8	8,7	8,6	1	1	1	1	1	1	1	1	1	0	1	-51,233263	274,263317	269,581214	0
14.01.2021	21:53:47	0	0	2,937512	5,01225	82,3536	0,255	77,542	3,5	1006,66	6,8	8,7	8,6	1	1	1	1	1	1	1	1	1	0	1	-50,880902	274,128339	269,302485	0
14.01.2021	21:53:48	0	0	2,824531	5,088	83,3328	0,249	77,522	3,5	1006,68	6,8	8,7	8,6	1	1	1	1	1	1	1	1	1	0	1	-51,585624	274,131328	268,61173	0
14.01.2021	21:53:49	0	0	2,93753	5,0235	92,304	0,257	77,543	3,5	1006,78	6,8	8,8	8,5	1	1	1	1	1	1	1	1	1	0	1	-50,246653	274,257298	270,539662	0
14.01.2021	21:53:50	0	0	4,293287	4,605	81,9396	0,255	77,542	3,5	1006,82	6,8	8,7	8,6	1	1	1	1	1	1	1	1	1	0	1	-51,303735	274,114893	268,816836	0
14.01.2021	21:53:51	0	0	3,050512	4,3845	74,9304	0,25	77,546	3,5	1006,64	6,8	8,7	8,5	1	1	1	1	1	1	1	1	1	0	1	-50,105708	274,252785	270,659492	0
14.01.2021	21:53:52	0	0	3,276456	4,422	66,2076	0,253	77,54	3,5	1006,64	6,8	8,7	8,6	1	1	1	1	1	1	1	1	1	0	1	-53,840733	274,138803	266,391548	0
14.01.2021	21:53:53	0	0	4,745212	4,55475	66,2976	0,259	77,568	3,5	1006,74	6,8	8,7	8,6	1	1	1	1	1	1	1	1	1	0	1	-54,193094	274,082064	265,774151	0
14.01.2021	21:53:54	0	0	4,971175	4,5765	93,3552	0,251	77,551	3,5	1006,44	6,8	8,7	8,6	1	1	1	1	1	1	1	1	1	0	1	-45,877378	274,147777	274,396836	0
14.01.2021	21:53:55	0	0	4,067325	4,185	78,282	0,257	77,581	3,5	1006,74	6,8	8,7	8,6	1	1	1	1	1	1	1	1	1	0	1	-47,850599	274,248273	272,893492	0
14.01.2021	21:53:56	0	0	2,598569	3,99675	74,5416	0,253	77,585	3,5	1006,74	6,8	8,7	8,6	1	1	1	1	1	1	1	1	1	0	1	-48,766737	274,224226	271,864875	0
14.01.2021	21:53:57	0	0	4,632231	4,062	81,9684	0,252	77,593	3,5	1006,6	6,8	8,7	8,6	1	1	1	1	1	1	1	1	1	0	1	-49,048626	274,240755	271,660298	0
14.01.2021	21:53:58	0	0	2,598569	4,167	68,4036	0,251	77,612	3,5	1006,74	6,8	8,7	8,6	1	1	1	1	1	1	1	1	1	0	1	-49,048626	274,215217	271,54085	0
14.01.2021	21:53:59	0	0	4,632231	4,44075	79,0452	0,254	77,611	3,5	1006,72	6,8	8,7	8,6	1	1	1	1	1	1	1	1	1	0	1	-47,639183	274,213715	272,943273	0
14.01.2021	21:54:00	0	0	3,050494	4,6005	71,5968	0,252	77,642	3,5	1006,7	6,8	8,8	8,6	1	1	1	1	1	1	1	1	1	0	1	-47,639183	274,135813	272,579125	0
14.01.2021	21:54:01	0	0	3,050494	4,6005	71,5968	0,252	77,642	3,5	1006,7	6,8	8,8	8,6	1	1	1	1	1	1	1	1	1	0	1	-47,639183	274,135813	272,579125	0
14.01.2021	21:54:02	0	0	2,598569	4,3155	77,9616	0,252	77,647	3,5	1006,74	6,8	8,7	8,6	1	1	1	1	1	1	1	1	1	0	1	-53,065539	274,282893	267,840539	0
14.01.2021	21:54:03	0	0	4,180306	4,05075	73,0692	0,25	77,66	3,5	1006,74	6,8	8,7	8,6	1	1	1	1	1	1	1	1	1	0	1	-48,907681	274,159749	271,422482	0
14.01.2021	21:54:04	0	0	3,050512	3,9585	65,1888	0,249	77,667	3,5	1006,76	6,8	8,7	8,5	1	1	1	1	1	1	1	1	1	0	1	-53,347428	274,204711	267,19292	0
14.01.2021	21:54:05	0	0	4,180306	4,05825	63,1872	0,245	77,688	3,5	1006,76	6,8	8,7	8,6	1	1	1	1	1	1	1	1	1	0	1	-45,313601	274,273855	275,550186	0
14.01.2021	21:54:06	0	0	2,37262	4,1145	76,3812	0,253	77,695	3,5	1006,82	6,8	8,7	8,5	1	1	1	1	1	1	1	1	1	0	1	-52,854123	274,140298	267,385145	0
14.01.2021	21:54:07	0	0	3,954344	4,182	83,448	0,251	77,711	3,5	1006,68	6,8	8,8	8,6	1	1	1	1	1	1	1	1	1	0	1	-50,17618	274,270844	270,673515	0
14.01.2021	21:54:08	0	0	3,163475	4,134	67,2948	0,253	77,736	3,5	1006,64	6,8	8,7	8,6	1	1	1	1	1	1	1	1	1	0	1	-51,303735	274,212214	269,271701	0
14.01.2021	21:54:09	0	0	2,824531	4,194	84,1176	0,256	77,744	3,5	1006,64	6,8	8,7	8,6	1	1	1	1	1	1	1	1	1	0	1	-50,599013	274,269338	270,243637	0
14.01.2021	21:54:10	0	0	3,954344	4,65825	74,538	0,247	77,757	3,5	1006,78	6,8	8,7	8,6	1	1	1	1	1	1	1	1	1	0	1	-47,145877	274,140298	273,09339	0
14.01.2021	21:54:11	0	0	4,632231	4,512	62,9028	0,254	77,771	3,5	1006,74	6,8	8,7	8,6	1	1	1	1	1	1	1	1	1	0	1	-49,82382	274,08952	270,178245	0
14.01.2021	21:54:12	0	0	2,71155	4,18725	69,156	0,252	77,78	3,5	1006,66	6,8	8,7	8,6	1	1	1	1	1	1	1	1	1	0	1	-52,149401	274,174725	268,250758	0
14.01.2021	21:54:13	0	0	2,485587	3,78225	63,8748	0,25	77,795	3,5	1006,86	6,8	8,7	8,6	1	1	1	1	1	1	1	1	1	0	1	-50,81043	274,27988	270,081548	0
14.01.2021	21:54:14	0	0	3,954367	3,732	84,8232	0,247	77,778	3,5	1006,78	6,8	8,7	8,5	1	1	1	1	1	1	1	1	1	0	1	-51,092319	274,158252	269,230849	0
14.01.2021	21:54:15	0	0	4,293287	3,5685	60,6492	0,251	77,787	3,5	1006,78	6,8	8,7	8,6	1	1	1	1	1	1	1	1	1	0	1	-52,219873	274,107427	267,865824	0
14.01.2021	21:54:16	0	0	3,50244	3,642	84,8016	0,25	77,777	3,5	1006,76	6,8	8,7	8,5	1	1	1	1	1	1	1	1	1	0	1	-51,233263	274,20021	269,28604	0
14.01.2021	21:54:17	0	0	2,37262	3,75	92,6784	0,255	77,774	3,5	1006,76	6,8	8,7	8,5	1	1	1	1	1	1	1	1	1	0	1	-49,260042	274,276867	271,617839	0
14.01.2021	21:54:18	0	0	3,954344	3,67575	101,556	0,248	77,757	3,5	1006,72	6,8	8,7	8,6	1	1	1	1	1	1	1	1	1	0	1	-49,330514	274,209212	271,230884	0
14.01.2021	21:54:19	0	0	3,615421	3,6915	99,1908	0,246	77,752	3,5	1006,58	6,8	8,7	8,5	1	1	1	1	1	1	1	1	1	0	1	-49,753347	274,104441	270,318404	0
14.01.2021	21:54:20	0	0	2,824531	3,59025	79,4232	0,243	77,745	3,5	1006,78	6,8	8,7	8,6	1	1	1	1	1	1	1	1	1	0	1	-49,471459	274,17922	270,949712	0
14.01.2021	21:54:21	0	0	2,824548	3,687	70,6104	0,248	77,746	3,5	1006,82	6,8	8,7	8,5	1	1	1	1	1	1	1	1	1	0	1	-53,488372	274,099963	266,562466	0
14.01.2021	21:54:22	0	0	3,841362	4,20225	71,6904	0,248	77,739	3,5	1006,6	6,8	8,7	8,6	1	1	1	1	1	1	1	1	1	0	1	-50,035236	274,177721	270,37893	0
14.01.2021	21:54:23	0	0	3,841362	4,23225	80,1792	0,252	77,734	3,5	1006,82	6,8	8,7	8,6	1	1	1	1	1	1	1	1	1	0	1	-50,951374	274,102948	269,113406	0
14.01.2021	21:54:24	0	0	3,50244	4,06875	59,094	0,251	77,734	3,5	1006,64	6,8	8,7	8,5	1	1	1	1	1	1	1	1	1	0	1	-52,501762	274,171729	267,884393	0
14.01.2021	21:54:25	0	0	2,937512	3,90225	62,406	0,251	77,74	3,5	1006,62	6,8	8,7	8,6	1	1	1	1	1	1	1	1	1	0	1	-49,471459	274,267833	271,364147	0
14.01.2021	21:54:26	0	0	4,632231	3,68475	75,024	0,245	77,725	3,5	1006,66	6,8	8,7	8,6	1	1	1	1	1	1	1	1	1	0	1	-46,370684	274,219721	274,239858	0
14.01.2021	21:54:27	0	0	3,276456	3,687	90,7812	0,243	77,734	3,5	1006,78	6,8	8,7	8,6	1	1	1	1	1	1	1	1	1	0	1	-51,092319	274,275361	269,778515	0
14.01.2021	21:54:28	0	0	4,180331	3,435	72,6588	0,241	77,709	3,5	1006,6	6,8	8,7	8,5	1	1	1	1	1	1	1	1	1	0	1	-50,246653	274,207712	270,307729	0
14.01.2021	21:54:29	0	0	4,067325	3,39	82,602	0,244	77,709	3,5	1006,7	6,8	8,7	8,6	1	1	1	1	1	1	1	1	1	0	1	-49,753347	274,093995	270,269616	0
14.01.2021	21:54:30	0	0	4,858193	3,558	90,0252	0,245	77,722	3,5	1006,7	6,8	8,7	8,6	1	1	1	1	1	1	1	1	1	0	1	-53,629316	274,168733	266,742837	0
14.01.2021	21:54:31	0	0	3,50244	3,822	89,334	0,248	77,706	3,5	1006,72	6,9	8,7	8,5	1	1	1	1	1	1	1	1	1	0	1	-46,5821	274,27988	274,309878	0
14.01.2021	21:54:32	0	0	2,824531	4,04475	88,5672	0,239	77,734	3,5	1006,6	6,9	8,7	8,6	1	1	1	1	1	1	1	1	1	0	1	-50,951374	274,141794	269,294882	0
14.01.2021	21:54:33	0	0	4,858223	4,00725	96,1992	0,25	77,738	3,5	1006,76	6,8	8,7	8,5	1	1	1	1	1	1	1	1	1	0	1	-46,652572	274,260308	274,147822	0
14.01.2021	21:54:34	0	0	4,293287	3,77475	90,4248	0,243	77,711	3,5	1006,72	6,8	8,7	8,6	1	1	1	1	1	1	1	1	1	0	1	-47,21635	274,224226	273,415263	0
14.01.2021	21:54:35	0	0	3,502419	3,70125	79,4196	0,245	77,721	3,5	1006,46	6,8	8,7	8,6	1	1	1	1	1	1	1	1	1	0	1	-49,330514	274,27988	271,561464	0
14.01.2021	21:54:36	0	0	2,485602	3,498	64,2528	0,247	77,741	3,5	1006,76	6,8	8,7	8,5	1	1	1	1	1	1	1	1	1	0	1	-48,907681	274,249777	271,843445	0
14.01.2021	21:54:37	0	0	2,824548	3,59775	60,9264	0,246	77,725	3,5	1006,76	6,8	8,7	8,5	1	1	1	1	1	1	1	1	1	0	1	-49,260042	274,140298	270,979226	0
14.01.2021	21:54:38	0	0	3,502419	3,42075	66,222	0,247	77,736	3,5	1006,6	6,8	8,7	8,6	1	1	1	1	1	1	1	1	1	0	1	-44,749824	274,27235	276,106917	0
14.01.2021	21:54:39	0	0	2,711566	3,41925	61,6968	0,246	77,739	3,5	1006,68	6,8	8,7	8,5	1	1	1	1	1	1	1	1	1	0	1	-49,471459	274,140298	270,767809	0
14.01.2021	21:54:40	0	0	3,841362	3,30975	92,2428	0,245	77,749	3,5	1006,6	6,8	8,7	8,6	1	1	1	1	1	1	1	1	1	0	1	-47,56871	274,12535	272,600713	0
14.01.2021	21:54:41	0	0	3,615421	3,165	91,9044	0,247	77,766	3,5	1006,58	6,8	8,7	8,5	1	1	1	1	1	1	1	1	1	0	1	-51,021846	274,225728	269,616791	0
14.01.2021	21:54:42	0	0	3,728403	3,363	90,0432	0,249	77,763	3,5	1006,6	6,8	8,7	8,5	1	1	1	1	1	1	1	1	1	0	1	-47,780127	274,144785	272,480107	0
14.01.2021	21:54:43	0	0	2,711566	3,381	82,7064	0,246	77,775	3,5	1006,7	6,8	8,7	8,5	1	1	1	1	1	1	1	1	1	0	1	-50,951374	274,248273	269,792717	0
14.01.2021	21:54:44	0	0	4,067349	3,399	82,6056	0,245	77,751	3,5	1006,72	6,8	8,7	8,5	1	1	1	1	1	1	1	1	1	0	1	-49,119098	274,17922	271,302073	0
14.01.2021	21:54:45	0	0	3,050512	3,75675	100,7712	0,245	77,755	3,5	1006,8	6,8	8,7	8,5	1	1	1	1	1	1	1	1	1	0	1	-52,572234	274,273855	268,291553	0
14.01.2021	21:54:46	0	0	2,711566	4,04475	96,2352	0,24	77,732	3,5	1006,72	6,8	8,7	8,5	1	1	1	1	1	1	1	1	1	0	1	-51,585624	274,20171	268,940693	0
14.01.2021	21:54:47	0	0	2,37262	4,4205	84,4128	0,239	77,733	3,5	1006,8	6,8	8,7	8,5	1	1	1	1	1	1	1	1	1	0	1	-52,642706	274,096979	267,394194	0
14.01.2021	21:54:48	0	0	2,824548	4,48275	78,2856	0,241	77,733	3,5	1006,72	6,8	8,7	8,5	1	1	1	1	1	1	1	1	1	0	1	-50,951374	274,191211	269,525856	0
14.01.2021	21:54:49	0	0	4,180306	4,389	75,6252	0,241	77,727	3,5	1006,68	6,8	8,7	8,6	1	1	1	1	1	1	1	1	1	0	1	-51,656096	274,264822	269,165423	0
14.01.2021	21:54:50	0	0	3,50244	4,431	74,556	0,243	77,731	3,5	1006,64	6,8	8,7	8,5	1	1	1	1	1	1	1	1	1	0	1	-53,911205	274,153762	266,390979	0
14.01.2021	21:54:51	0	0	4,51925	4,44075	75,0456	0,24	77,734	3,5	1006,84	6,8	8,7	8,6	1	1	1	1	1	1	1	1	1	0	1	-52,854123	274,092503	267,161874	0
14.01.2021	21:54:52	0	0	2,033675	4,5885	90,09	0,246	77,715	3,5	1006,66	6,8	8,7	8,5	1	1	1	1	1	1	1	1	1	0	1	-48,484848	274,141794	271,761407	0
14.01.2021	21:54:53	0	0	3,728403	4,71	83,3796	0,239	77,743	3,5	1006,72	6,8	8,7	8,5	1	1	1	1	1	1	1	1	1	0	1	-50,951374	274,099963	269,099464	0
14.01.2021	21:54:54	0	0	4,51925	4,6185	100,3716	0,244	77,73	3,5	1006,74	6,8	8,7	8,6	1	1	1	1	1	1	1	1	1	0	1	-54,756871	274,219721	265,85367	0
14.01.2021	21:54:55	0	0	2,485602	4,26375	83,3544	0,24	77,731	3,5	1006,78	6,9	8,7	8,5	1	1	1	1	1	1	1	1	1	0	1	-47,286822	274,267833	273,548784	0
14.01.2021	21:54:56	0	0	3,276476	3,77475	108,9288	0,242	77,748	3,5	1006,74	6,8	8,7	8,5	1	1	1	1	1	1	1	1	1	0	1	-49,400987	274,164241	270,950169	0
14.01.2021	21:54:57	0	0	2,93753	3,69675	79,7508	0,24	77,768	3,5	1006,58	6,8	8,7	8,5	1	1	1	1	1	1	1	1	1	0	1	-51,092319	274,231738	269,574425	0
14.01.2021	21:54:58	0	0	3,163494	4,27425	80,154	0,239	77,783	3,5	1006,78	6,8	8,7	8,5	1	1	1	1	1	1	1	1	1	0	1	-52,149401	274,269338	268,693249	0
14.01.2021	21:54:59	0	0	3,954344	4,57275	86,994	0,242	77,779	3,5	1006,7	6,8	8,7	8,6	1	1	1	1	1	1	1	1	1	0	1	-47,991543	274,141794	272,254713	0
14.01.2021	21:55:00	0	0	4,519277	4,66725	105,8904	0,253	77,797	3,5	1006,82	6,8	8,7	8,5	1	1	1	1	1	1	1	1	1	0	1	-49,682875	274,099963	270,367963	0
14.01.2021	21:55:01	0	0	4,519277	4,66725	105,8904	0,253	77,797	3,5	1006,82	6,8	8,7	8,5	1	1	1	1	1	1	1	1	1	0	1	-50,105708	274,252785	270,659492	0
14.01.2021	21:55:02	0	0	3,615421	5,34825	83,4156	0,245	77,779	3,5	1006,88	6,9	8,7	8,5	1	1	1	1	1	1	1	1	1	0	1	-48,625793	274,273855	272,237994	0
14.01.2021	21:55:03	0	0	3,389458	5,62125	91,9908	0,236	77,775	3,5	1006,54	6,9	8,7	8,5	1	1	1	1	1	1	1	1	1	0	1	-50,317125	274,222724	270,307463	0
14.01.2021	21:55:04	0	0	3,615421	5,4465	90,7776	0,242	77,79	3,5	1006,76	6,8	8,7	8,5	1	1	1	1	1	1	1	1	1	0	1	-47,709655	274,101456	272,348154	0
14.01.2021	21:55:05	0	0	3,841385	5,07825	78,6456	0,244	77,786	3,5	1006,84	6,9	8,7	8,5	1	1	1	1	1	1	1	1	1	0	1	-52,360817	274,173227	268,032339	0
14.01.2021	21:55:06	0	0	4,519277	4,9155	86,6664	0,241	77,773	3,5	1006,62	6,8	8,7	8,5	1	1	1	1	1	1	1	1	1	0	1	-48,625793	274,104441	271,445959	0
14.01.2021	21:55:07	0	0	3,954367	4,8165	99,9072	0,241	77,78	3,5	1006,66	6,8	8,7	8,5	1	1	1	1	1	1	1	1	1	0	1	-50,246653	274,116386	269,880896	0
14.01.2021	21:55:08	0	0	3,163494	5,004	100,7352	0,239	77,773	3,5	1006,86	6,7	8,7	8,5	1	1	1	1	1	1	1	1	1	0	1	-52,713178	274,248273	268,030913	0
14.01.2021	21:55:09	0	0	3,050512	4,83075	94,086	0,233	77,782	3,5	1006,6	6,8	8,7	8,5	1	1	1	1	1	1	1	1	1	0	1	-47,850599	274,267833	272,985007	0
14.01.2021	21:55:10	0	0	4,293313	4,407	96,2964	0,24	77,793	3,5	1006,68	6,8	8,7	8,5	1	1	1	1	1	1	1	1	1	0	1	-51,162791	274,276867	269,71509	0
14.01.2021	21:55:11	0	0	4,180331	3,9855	83,772	0,236	77,792	3,5	1006,76	6,8	8,7	8,5	1	1	1	1	1	1	1	1	1	0	1	-49,541931	274,212214	271,033505	0
14.01.2021	21:55:12	0	0	3,615421	4,0155	82,9908	0,237	77,778	3,5	1006,76	6,8	8,7	8,5	1	1	1	1	1	1	1	1	1	0	1	-44,538407	274,257298	276,247907	0
14.01.2021	21:55:13	0	0	4,745241	4,03425	91,1772	0,238	77,779	3,5	1006,68	6,8	8,7	8,5	1	1	1	1	1	1	1	1	1	0	1	-50,599013	274,119373	269,542491	0
14.01.2021	21:55:14	0	0	3,728403	4,347	95,1336	0,243	77,793	3,5	1006,76	6,8	8,7	8,5	1	1	1	1	1	1	1	1	1	0	1	-55,109232	274,231738	265,557512	0
14.01.2021	21:55:15	0	0	2,824548	4,251	86,6628	0,242	77,807	3,5	1006,78	6,9	8,7	8,5	1	1	1	1	1	1	1	1	1	0	1	-48,132488	274,296456	272,837073	0
14.01.2021	21:55:16	0	0	4,51925	4,176	81,2196	0,243	77,795	3,5	1006,74	6,9	8,7	8,6	1	1	1	1	1	1	1	1	1	0	1	-54,263566	274,255794	266,51571	0
14.01.2021	21:55:17	0	0	3,841385	4,29225	80,892	0,241	77,798	3,5	1006,74	6,8	8,7	8,5	1	1	1	1	1	1	1	1	1	0	1	-46,088795	274,122361	274,066668	0
14.01.2021	21:55:18	0	0	4,858223	4,107	83,7288	0,237	77,796	3,5	1006,76	6,8	8,7	8,5	1	1	1	1	1	1	1	1	1	0	1	-46,159267	274,269338	274,683383	0
14.01.2021	21:55:19	0	0	4,293313	3,96075	75,9996	0,237	77,809	3,5	1006,74	6,9	8,7	8,5	1	1	1	1	1	1	1	1	1	0	1	-47,427766	274,119373	272,713738	0
14.01.2021	21:55:20	0	0	2,711566	3,8055	88,128	0,231	77,807	3,5	1006,68	6,8	8,7	8,5	1	1	1	1	1	1	1	1	1	0	1	-50,458069	274,234743	270,222732	0
14.01.2021	21:55:21	0	0	4,293313	3,60225	72,684	0,24	77,828	3,5	1006,84	6,8	8,7	8,5	1	1	1	1	1	1	1	1	1	0	1	-55,109232	274,302488	265,88856	0
14.01.2021	21:55:22	0	0	4,971205	3,70875	74,538	0,241	77,826	3,5	1006,74	6,8	8,7	8,5	1	1	1	1	1	1	1	1	1	0	1	-52,713178	274,189712	267,757042	0
14.01.2021	21:55:23	0	0	2,033662	3,95625	82,35	0,239	77,832	3,5	1006,74	6,8	8,7	8,6	1	1	1	1	1	1	1	1	1	0	1	-49,612403	274,303996	271,392448	0
14.01.2021	21:55:24	0	0	3,389458	3,90075	83,8224	0,242	77,854	3,5	1006,84	6,8	8,7	8,5	1	1	1	1	1	1	1	1	1	0	1	-47,850599	274,245266	272,879423	0
14.01.2021	21:55:25	0	0	2,93753	3,62175	77,976	0,237	77,876	3,5	1006,84	6,8	8,7	8,5	1	1	1	1	1	1	1	1	1	0	1	-49,260042	274,123856	270,9024	0
14.01.2021	21:55:26	0	0	3,050512	3,43125	75,9852	0,239	77,874	3,5	1006,66	6,8	8,7	8,5	1	1	1	1	1	1	1	1	1	0	1	-49,18957	274,192711	271,29467	0
14.01.2021	21:55:27	0	0	4,971205	3,48075	80,5032	0,236	77,896	3,5	1006,68	6,8	8,7	8,5	1	1	1	1	1	1	1	1	1	0	1	-55,250176	274,31003	265,78292	0
14.01.2021	21:55:28	0	0	2,711566	3,85425	82,6956	0,239	77,899	3,5	1006,72	6,8	8,7	8,5	1	1	1	1	1	1	1	1	1	0	1	-46,370684	274,227231	274,274979	0
14.01.2021	21:55:29	0	0	2,824548	4,101	77,5944	0,241	77,91	3,5	1006,82	6,8	8,7	8,5	1	1	1	1	1	1	1	1	1	0	1	-51,585624	274,129833	268,604746	0
14.01.2021	21:55:30	0	0	3,954367	4,2375	82,62	0,244	77,914	3,5	1006,72	6,8	8,7	8,5	1	1	1	1	1	1	1	1	1	0	1	-52,78365	274,243762	267,939338	0
14.01.2021	21:55:31	0	0	3,615421	4,38825	81,9684	0,238	77,91	3,5	1006,78	6,8	8,7	8,5	1	1	1	1	1	1	1	1	1	0	1	-48,837209	274,296456	272,132351	0
14.01.2021	21:55:32	0	0	2,485602	4,5255	78,2604	0,243	77,931	3,5	1006,78	6,9	8,7	8,5	1	1	1	1	1	1	1	1	1	0	1	-48,766737	274,180718	271,661439	0
14.01.2021	21:55:33	0	0	2,93753	4,39575	76,3596	0,246	77,95	3,5	1006,78	6,8	8,7	8,5	1	1	1	1	1	1	1	1	1	0	1	-53,136011	274,31003	267,897085	0
14.01.2021	21:55:34	0	0	3,050512	4,47	75,2184	0,24	77,93	3,5	1006,74	6,8	8,7	8,5	1	1	1	1	1	1	1	1	1	0	1	-53,347428	274,164241	267,003728	0
14.01.2021	21:55:35	0	0	3,841385	4,47525	79,4304	0,24	77,937	3,5	1006,64	6,8	8,7	8,5	1	1	1	1	1	1	1	1	1	0	1	-50,17618	274,147777	270,098034	0
14.01.2021	21:55:36	0	0	3,50244	4,49325	77,9868	0,243	77,941	3,5	1006,68	6,8	8,7	8,5	1	1	1	1	1	1	1	1	1	0	1	-48,978154	274,228733	271,674535	0
14.01.2021	21:55:37	0	0	2,711566	4,2915	65,4624	0,242	77,93	3,5	1006,72	6,8	8,7	8,5	1	1	1	1	1	1	1	1	1	0	1	-53,699789	274,31003	267,333308	0
14.01.2021	21:55:38	0	0	2,93753	4,06875	75,618	0,243	77,94	3,5	1006,7	6,8	8,7	8,5	1	1	1	1	1	1	1	1	1	0	1	-47,709655	274,237749	272,985206	0
14.01.2021	21:55:39	0	0	2,37262	3,87	75,6072	0,238	77,931	3,5	1006,56	6,8	8,7	8,5	1	1	1	1	1	1	1	1	1	0	1	-48,484848	274,302488	272,512943	0
14.01.2021	21:55:40	0	0	3,50244	3,9525	75,6216	0,245	77,919	3,5	1006,64	6,8	8,7	8,5	1	1	1	1	1	1	1	1	1	0	1	-49,753347	274,213715	270,829108	0
14.01.2021	21:55:41	0	0	2,824548	4,06425	82,998	0,247	77,927	3,5	1006,68	6,8	8,7	8,5	1	1	1	1	1	1	1	1	1	0	1	-46,441156	274,126844	273,735249	0
14.01.2021	21:55:42	0	0	2,485602	3,96225	77,202	0,245	77,923	3,5	1006,7	6,8	8,7	8,5	1	1	1	1	1	1	1	1	1	0	1	-51,444679	274,227231	269,200983	0
14.01.2021	21:55:43	0	0	2,824548	3,9975	69,8436	0,243	77,913	3,5	1006,76	6,8	8,7	8,5	1	1	1	1	1	1	1	1	1	0	1	-52,149401	274,31003	268,883695	0
14.01.2021	21:55:44	0	0	3,50244	3,9135	70,632	0,239	77,896	3,5	1006,68	6,9	8,7	8,5	1	1	1	1	1	1	1	1	1	0	1	-48,978154	274,224226	271,653459	0
14.01.2021	21:55:45	0	0	3,6154	3,78225	74,1816	0,246	77,908	3,5	1006,72	6,8	8,7	8,6	1	1	1	1	1	1	1	1	1	0	1	-50,317125	274,293441	270,638324	0
14.01.2021	21:55:46	0	0	3,728403	3,633	88,5852	0,243	77,889	3,5	1006,64	6,8	8,7	8,5	1	1	1	1	1	1	1	1	1	0	1	-54,052149	274,285906	266,868031	0
14.01.2021	21:55:47	0	0	3,954367	3,6525	86,6484	0,243	77,889	3,5	1006,68	6,8	8,7	8,5	1	1	1	1	1	1	1	1	1	0	1	-52,360817	274,138803	267,871463	0
14.01.2021	21:55:48	0	0	3,50244	3,57825	86,958	0,247	77,888	3,5	1006,88	6,8	8,7	8,5	1	1	1	1	1	1	1	1	1	0	1	-54,193094	274,221223	266,42447	0
14.01.2021	21:55:49	0	0	4,745241	3,54225	71,2152	0,249	77,879	3,5	1006,86	6,8	8,7	8,5	1	1	1	1	1	1	1	1	1	0	1	-47,357294	274,316065	273,704058	0
14.01.2021	21:55:50	0	0	3,50244	3,786	73,4436	0,25	77,868	3,5	1006,84	6,8	8,7	8,5	1	1	1	1	1	1	1	1	1	0	1	-52,360817	274,213715	268,221638	0
14.01.2021	21:55:51	0	0	2,711566	4,032	87,3684	0,247	77,843	3,5	1006,74	6,8	8,7	8,5	1	1	1	1	1	1	1	1	1	0	1	-51,374207	274,134318	268,837115	0
14.01.2021	21:55:52	0	0	3,163494	4,30125	84,8052	0,245	77,854	3,5	1006,74	6,8	8,7	8,5	1	1	1	1	1	1	1	1	1	0	1	-51,515152	274,236246	269,172679	0
14.01.2021	21:55:53	0	0	3,050512	4,0485	79,776	0,244	77,834	3,5	1006,7	6,8	8,7	8,5	1	1	1	1	1	1	1	1	1	0	1	-42,706131	274,170231	277,673022	0
14.01.2021	21:55:54	0	0	4,971205	4,002	78,678	0,244	77,841	3,5	1006,62	6,8	8,7	8,5	1	1	1	1	1	1	1	1	1	0	1	-46,511628	274,248273	274,232463	0
14.01.2021	21:55:55	0	0	4,745241	3,9615	72,0108	0,25	77,825	3,5	1006,78	6,8	8,7	8,5	1	1	1	1	1	1	1	1	1	0	1	-48,062016	274,123856	272,100427	0
14.01.2021	21:55:56	0	0	2,824531	3,93075	73,7964	0,243	77,814	3,5	1006,7	6,8	8,7	8,6	1	1	1	1	1	1	1	1	1	0	1	-49,541931	274,252785	271,223269	0
14.01.2021	21:55:57	0	0	4,067349	3,55125	80,8956	0,246	77,816	3,5	1006,66	6,8	8,7	8,5	1	1	1	1	1	1	1	1	1	0	1	-48,062016	274,313047	272,985207	0
14.01.2021	21:55:58	0	0	4,632259	3,282	56,2896	0,237	77,798	3,5	1006,82	6,8	8,7	8,5	1	1	1	1	1	1	1	1	1	0	1	-52,290345	274,254289	268,481892	0
14.01.2021	21:55:59	0	0	3,50244	3,1605	65,4696	0,248	77,779	3,5	1006,64	6,8	8,7	8,5	1	1	1	1	1	1	1	1	1	0	1	-47,498238	274,164241	272,852917	0
14.01.2021	21:56:00	0	0	3,163494	3,13875	66,6288	0,247	77,776	3,5	1006,62	6,8	8,7	8,5	1	1	1	1	1	1	1	1	1	0	1	-51,303735	274,168733	269,068418	0
14.01.2021	21:56:01	0	0	3,163494	3,13875	66,6288	0,247	77,776	3,5	1006,62	6,8	8,7	8,5	1	1	1	1	1	1	1	1	1	0	1	-51,303735	274,168733	269,068418	0
14.01.2021	21:56:02	0	0	5,084186	3,14775	72,6876	0,246	77,785	3,5	1006,82	6,8	8,7	8,5	1	1	1	1	1	1	1	1	1	0	1	-55,743481	274,314556	265,310806	0
14.01.2021	21:56:03	0	0	3,841385	3,37875	79,4448	0,247	77,755	3,5	1006,62	6,8	8,7	8,5	1	1	1	1	1	1	1	1	1	0	1	-55,250176	274,294949	265,712328	0
14.01.2021	21:56:04	0	0	3,50244	3,55875	79,776	0,254	77,773	3,5	1006,8	6,8	8,7	8,5	1	1	1	1	1	1	1	1	1	0	1	-50,105708	274,332673	271,033402	0
14.01.2021	21:56:05	0	0	4,067349	3,67725	71,5896	0,243	77,757	3,5	1006,66	6,8	8,7	8,5	1	1	1	1	1	1	1	1	1	0	1	-52,360817	274,285906	268,559363	0
14.01.2021	21:56:06	0	0	5,084186	3,738	79,038	0,243	77,745	3,5	1006,74	6,8	8,7	8,5	1	1	1	1	1	1	1	1	1	0	1	-47,357294	274,161246	272,979866	0
14.01.2021	21:56:07	0	0	2,598584	4,185	99,9144	0,244	77,734	3,5	1006,66	6,8	8,7	8,5	1	1	1	1	1	1	1	1	1	0	1	-51,021846	274,31003	270,01125	0
14.01.2021	21:56:08	0	0	2,033662	4,87125	92,3544	0,247	77,75	3,5	1006,8	6,8	8,7	8,6	1	1	1	1	1	1	1	1	1	0	1	-53,276956	274,255794	267,50232	0
14.01.2021	21:56:09	0	0	2,93753	5,21775	92,2572	0,244	77,732	3,5	1006,7	6,8	8,7	8,5	1	1	1	1	1	1	1	1	1	0	1	-47,56871	274,149273	272,712496	0
14.01.2021	21:56:10	0	0	3,841385	5,38575	93,3588	0,244	77,753	3,5	1006,76	6,8	8,7	8,5	1	1	1	1	1	1	1	1	1	0	1	-51,585624	274,153762	268,71656	0
14.01.2021	21:56:11	0	0	4,745241	5,403	90,0324	0,249	77,754	3,5	1006,7	6,8	8,7	8,5	1	1	1	1	1	1	1	1	1	0	1	-47,004933	274,140298	273,234335	0
14.01.2021	21:56:12	0	0	3,615421	5,46975	87,3648	0,247	77,764	3,5	1006,52	6,8	8,7	8,5	1	1	1	1	1	1	1	1	1	0	1	-51,585624	274,273855	269,278163	0
14.01.2021	21:56:13	0	0	3,615421	5,475	91,9152	0,245	77,765	3,5	1006,6	6,8	8,7	8,5	1	1	1	1	1	1	1	1	1	0	1	-48,414376	274,14329	271,838868	0
14.01.2021	21:56:14	0	0	3,728403	5,75175	84,42	0,241	77,774	3,5	1006,66	6,8	8,7	8,5	1	1	1	1	1	1	1	1	1	0	1	-52,360817	274,255794	268,418458	0
14.01.2021	21:56:15	0	0	4,293313	5,69325	92,6424	0,247	77,777	3,5	1006,68	6,8	8,7	8,5	1	1	1	1	1	1	1	1	1	0	1	-45,525018	274,144785	274,735216	0
14.01.2021	21:56:16	0	0	1,920693	5,2395	81,6804	0,248	77,807	3,5	1006,82	6,8	8,7	8,5	1	1	1	1	1	1	1	1	1	0	1	-51,021846	274,20171	269,504471	0
14.01.2021	21:56:17	0	0	3,050512	4,9605	75,6144	0,244	77,796	3,5	1006,72	6,8	8,7	8,5	1	1	1	1	1	1	1	1	1	0	1	-47,921071	274,162743	272,423086	0
14.01.2021	21:56:18	0	0	4,293313	4,908	74,538	0,246	77,818	3,5	1006,72	6,8	8,7	8,5	1	1	1	1	1	1	1	1	1	0	1	-51,374207	274,188213	269,089004	0
14.01.2021	21:56:19	0	0	4,067349	4,5015	64,6344	0,244	77,811	3,5	1006,82	6,8	8,7	8,5	1	1	1	1	1	1	1	1	1	0	1	-52,078929	274,138803	268,153352	0
14.01.2021	21:56:20	0	0	4,519277	4,0605	74,9016	0,241	77,807	3,5	1006,8	6,8	8,7	8,5	1	1	1	1	1	1	1	1	1	0	1	-52,924595	274,213715	267,657861	0
14.01.2021	21:56:21	0	0	3,050512	4,0125	87,7284	0,243	77,807	3,5	1006,7	6,8	8,7	8,5	1	1	1	1	1	1	1	1	1	0	1	-50,458069	274,137308	269,767225	0
14.01.2021	21:56:22	0	0	3,389458	4,45725	84,4344	0,249	77,798	3,5	1006,86	6,8	8,7	8,5	1	1	1	1	1	1	1	1	1	0	1	-45,031712	274,293441	275,923736	0
14.01.2021	21:56:23	0	0	3,728403	4,8855	71,9712	0,245	77,79	3,5	1006,64	6,8	8,7	8,5	1	1	1	1	1	1	1	1	1	0	1	-51,585624	274,171729	268,800531	0
14.01.2021	21:56:24	0	0	4,067349	4,72425	64,2276	0,244	77,793	3,5	1006,66	6,8	8,7	8,5	1	1	1	1	1	1	1	1	1	0	1	-52,078929	274,14329	268,174316	0
14.01.2021	21:56:25	0	0	3,954367	4,41075	79,4232	0,246	77,786	3,5	1006,68	6,8	8,7	8,5	1	1	1	1	1	1	1	1	1	0	1	-50,105708	274,188213	270,357503	0
14.01.2021	21:56:26	0	0	2,93753	4,1205	88,5744	0,245	77,789	3,5	1006,7	6,8	8,7	8,5	1	1	1	1	1	1	1	1	1	0	1	-47,21635	274,149273	273,064856	0
14.01.2021	21:56:27	0	0	3,389458	3,83625	60,9264	0,243	77,791	3,5	1006,7	6,8	8,7	8,5	1	1	1	1	1	1	1	1	1	0	1	-51,867512	274,225728	268,771125	0
14.01.2021	21:56:28	0	0	4,180306	3,753	56,3688	0,245	77,782	3,5	1006,62	6,8	8,7	8,6	1	1	1	1	1	1	1	1	1	0	1	-49,541931	274,308521	271,484103	0
14.01.2021	21:56:29	0	0	4,632259	3,6885	52,1316	0,242	77,774	3,5	1006,76	6,8	8,7	8,5	1	1	1	1	1	1	1	1	1	0	1	-51,233263	274,287413	269,69397	0
14.01.2021	21:56:30	0	0	4,971205	3,4545	52,884	0,244	77,775	3,5	1006,62	6,8	8,7	8,5	1	1	1	1	1	1	1	1	1	0	1	-52,290345	274,282893	268,615733	0
14.01.2021	21:56:31	0	0	2,824548	3,1485	60,9264	0,246	77,779	3,5	1006,68	6,8	8,7	8,5	1	1	1	1	1	1	1	1	1	0	1	-46,018323	274,180718	274,409853	0
14.01.2021	21:56:32	0	0	4,519277	3,003	60,5412	0,246	77,78	3,5	1006,76	6,8	8,7	8,5	1	1	1	1	1	1	1	1	1	0	1	-54,474982	274,137308	265,750311	0
14.01.2021	21:56:33	0	0	2,824548	3,18	74,9124	0,251	77,785	3,5	1006,54	6,8	8,7	8,5	1	1	1	1	1	1	1	1	1	0	1	-51,162791	274,293441	269,792658	0
14.01.2021	21:56:34	0	0	2,711566	3,23625	77,9472	0,246	77,788	3,5	1006,48	6,8	8,7	8,5	1	1	1	1	1	1	1	1	1	0	1	-55,179704	274,311538	265,860455	0
14.01.2021	21:56:35	0	0	2,485602	3,06	70,5996	0,246	77,777	3,5	1006,82	6,8	8,7	8,5	1	1	1	1	1	1	1	1	1	0	1	-53,981677	274,185214	266,467518	0
14.01.2021	21:56:36	0	0	4,180331	2,925	80,91	0,236	77,764	3,5	1006,68	6,8	8,7	8,5	1	1	1	1	1	1	1	1	1	0	1	-50,880902	274,140298	269,358366	0
14.01.2021	21:56:37	0	0	4,745241	2,8395	67,7592	0,242	77,776	3,5	1006,74	6,8	8,7	8,5	1	1	1	1	1	1	1	1	1	0	1	-52,008457	274,188213	268,454755	0
14.01.2021	21:56:38	0	0	3,728403	2,83425	66,2184	0,245	77,751	3,5	1006,64	6,8	8,7	8,5	1	1	1	1	1	1	1	1	1	0	1	-51,726568	274,164241	268,624587	0
14.01.2021	21:56:39	0	0	3,615421	2,7975	84,8016	0,245	77,756	3,5	1006,8	6,8	8,7	8,5	1	1	1	1	1	1	1	1	1	0	1	-48,766737	274,31003	272,266359	0
14.01.2021	21:56:40	0	0	3,954367	2,793	69,1596	0,243	77,754	3,5	1006,74	6,8	8,7	8,5	1	1	1	1	1	1	1	1	1	0	1	-48,484848	274,249777	272,266278	0
14.01.2021	21:56:41	0	0	2,485602	3,018	60,9552	0,248	77,759	3,5	1006,88	6,8	8,7	8,5	1	1	1	1	1	1	1	1	1	0	1	-53,065539	274,314556	267,988748	0
14.01.2021	21:56:42	0	0	3,050512	3,25875	85,2048	0,239	77,751	3,5	1006,56	6,8	8,7	8,5	1	1	1	1	1	1	1	1	1	0	1	-48,625793	274,240755	272,083131	0
14.01.2021	21:56:43	0	0	4,858223	3,11775	79,7616	0,248	77,759	3,5	1006,72	6,8	8,7	8,5	1	1	1	1	1	1	1	1	1	0	1	-49,18957	274,12535	270,979853	0
14.01.2021	21:56:44	0	0	4,180331	2,86275	76,3704	0,242	77,752	3,5	1006,62	6,8	8,7	8,5	1	1	1	1	1	1	1	1	1	0	1	-53,770261	274,243762	266,952728	0
14.01.2021	21:56:45	0	0	4,632259	2,69925	66,2292	0,244	77,762	3,5	1006,76	6,8	8,7	8,5	1	1	1	1	1	1	1	1	1	0	1	-49,894292	274,134318	270,31703	0
14.01.2021	21:56:46	0	0	2,711566	2,5935	71,2188	0,244	77,768	3,5	1006,72	6,8	8,7	8,5	1	1	1	1	1	1	1	1	1	0	1	-46,511628	274,19421	273,979624	0
14.01.2021	21:56:47	0	0	2,824531	2,62125	90,0612	0,237	77,769	3,5	1006,8	6,8	8,7	8,6	1	1	1	1	1	1	1	1	1	0	1	-50,246653	274,158252	270,076515	0
14.01.2021	21:56:48	0	0	4,745241	2,65875	104,7708	0,241	77,785	3,5	1006,72	6,8	8,7	8,5	1	1	1	1	1	1	1	1	1	0	1	-50,528541	274,237749	270,16632	0
14.01.2021	21:56:49	0	0	2,598584	2,40525	89,3592	0,245	77,797	3,5	1006,68	6,8	8,7	8,5	1	1	1	1	1	1	1	1	1	0	1	-49,119098	274,140298	271,12017	0
14.01.2021	21:56:50	0	0	3,389458	2,3595	95,958	0,243	77,8	3,5	1006,78	6,8	8,7	8,5	1	1	1	1	1	1	1	1	1	0	1	-51,303735	274,177721	269,110431	0
14.01.2021	21:56:51	0	0	3,276476	2,2455	79,0416	0,243	77,789	3,5	1006,64	6,9	8,7	8,5	1	1	1	1	1	1	1	1	1	0	1	-50,458069	274,144785	269,802165	0
14.01.2021	21:56:52	0	0	4,293313	2,26425	85,9068	0,241	77,78	3,5	1006,68	6,8	8,7	8,5	1	1	1	1	1	1	1	1	1	0	1	-51,656096	274,20321	268,877236	0
14.01.2021	21:56:53	0	0	5,197168	2,37525	69,4584	0,238	77,791	3,5	1006,66	6,8	8,7	8,5	1	1	1	1	1	1	1	1	1	0	1	-49,82382	274,270844	271,025875	0
14.01.2021	21:56:54	0	0	4,293313	2,2905	71,244	0,245	77,785	3,5	1006,92	6,8	8,7	8,5	1	1	1	1	1	1	1	1	1	0	1	-48,978154	274,305504	272,033758	0
14.01.2021	21:56:55	0	0	3,728403	2,226	81,1908	0,248	77,767	3,5	1006,82	6,8	8,7	8,5	1	1	1	1	1	1	1	1	1	0	1	-49,82382	274,290427	271,11752	0
14.01.2021	21:56:56	0	0	2,37262	2,72925	90,4212	0,237	77,776	3,5	1006,74	6,8	8,7	8,5	1	1	1	1	1	1	1	1	1	0	1	-50,739958	274,158252	269,58321	0
14.01.2021	21:56:57	0	0	3,615421	3,5805	76,842	0,242	77,768	3,5	1006,68	6,8	8,7	8,5	1	1	1	1	1	1	1	1	1	0	1	-51,937984	274,266328	268,890578	0
14.01.2021	21:56:58	0	0	4,293313	3,90375	80,1612	0,245	77,761	3,5	1006,74	6,8	8,7	8,5	1	1	1	1	1	1	1	1	1	0	1	-53,840733	274,328142	267,277163	0
14.01.2021	21:56:59	0	0	3,50244	3,98925	79,4088	0,242	77,77	3,5	1006,56	6,8	8,7	8,5	1	1	1	1	1	1	1	1	1	0	1	-52,995067	274,303996	268,009784	0
14.01.2021	21:57:00	0	0	4,180331	4,5525	71,2188	0,244	77,772	3,5	1006,74	6,8	8,7	8,5	1	1	1	1	1	1	1	1	1	0	1	-52,43129	274,291934	268,517104	0
14.01.2021	21:57:01	0	0	4,180331	4,5525	71,2188	0,244	77,772	3,5	1006,74	6,8	8,7	8,5	1	1	1	1	1	1	1	1	1	0	1	-52,43129	274,291934	268,517104	0
14.01.2021	21:57:02	0	0	4,858223	4,88175	68,778	0,242	77,79	3,5	1006,68	6,8	8,7	8,5	1	1	1	1	1	1	1	1	1	0	1	-53,840733	274,17922	266,580438	0
14.01.2021	21:57:03	0	0	2,598584	4,9275	73,7856	0,24	77,792	3,5	1006,76	6,8	8,7	8,5	1	1	1	1	1	1	1	1	1	0	1	-49,119098	274,168733	271,253055	0
14.01.2021	21:57:04	0	0	3,050494	4,74525	71,244	0,236	77,801	3,5	1006,88	6,8	8,7	8,6	1	1	1	1	1	1	1	1	1	0	1	-49,753347	274,319084	271,322136	0
14.01.2021	21:57:05	0	0	4,519277	4,722	71,2224	0,241	77,806	3,5	1006,76	6,8	8,7	8,5	1	1	1	1	1	1	1	1	1	0	1	-50,246653	274,180718	270,181523	0
14.01.2021	21:57:06	0	0	4,067349	4,692	84,0456	0,242	77,806	3,5	1006,8	6,8	8,7	8,5	1	1	1	1	1	1	1	1	1	0	1	-49,964764	274,307013	271,054209	0
14.01.2021	21:57:07	0	0	2,93753	4,41225	75,6288	0,239	77,818	3,5	1006,68	6,8	8,7	8,5	1	1	1	1	1	1	1	1	1	0	1	-52,290345	274,19571	268,207918	0
14.01.2021	21:57:08	0	0	4,180331	4,0785	79,0236	0,242	77,815	3,5	1006,8	6,8	8,7	8,5	1	1	1	1	1	1	1	1	1	0	1	-46,723044	274,149273	273,558162	0
14.01.2021	21:57:09	0	0	4,632231	4,43625	75,2508	0,238	77,812	3,5	1006,64	6,8	8,7	8,6	1	1	1	1	1	1	1	1	1	0	1	-48,837209	274,19721	271,668067	0
14.01.2021	21:57:10	0	0	2,146656	4,62	70,8552	0,241	77,811	3,5	1006,72	6,9	8,7	8,5	1	1	1	1	1	1	1	1	1	0	1	-53,911205	274,316065	267,150147	0
14.01.2021	21:57:11	0	0	3,841385	4,54425	69,1596	0,241	77,82	3,5	1006,8	6,8	8,7	8,5	1	1	1	1	1	1	1	1	1	0	1	-50,528541	274,19421	269,96271	0
14.01.2021	21:57:12	0	0	4,632259	4,3545	81,2232	0,241	77,808	3,5	1006,8	6,9	8,7	8,5	1	1	1	1	1	1	1	1	1	0	1	-51,233263	274,326632	269,877562	0
14.01.2021	21:57:13	0	0	2,824548	4,251	82,5912	0,239	77,8	3,5	1006,8	6,8	8,7	8,5	1	1	1	1	1	1	1	1	1	0	1	-54,40451	274,296456	266,56505	0
14.01.2021	21:57:14	0	0	2,824548	3,9375	65,0844	0,242	77,813	3,5	1006,46	6,8	8,7	8,5	1	1	1	1	1	1	1	1	1	0	1	-52,642706	274,171729	267,743449	0
14.01.2021	21:57:15	0	0	3,163494	3,92325	85,536	0,237	77,813	3,5	1006,72	6,8	8,7	8,5	1	1	1	1	1	1	1	1	1	0	1	-58,421424	274,258803	262,371931	0
14.01.2021	21:57:16	0	0	3,163494	3,57975	86,2704	0,243	77,802	3,5	1006,62	6,8	8,7	8,5	1	1	1	1	1	1	1	1	1	0	1	-49,471459	274,284399	271,44167	0
14.01.2021	21:57:17	0	0	4,858223	3,44925	89,694	0,242	77,801	3,5	1006,5	6,8	8,7	8,5	1	1	1	1	1	1	1	1	1	0	1	-52,219873	274,153762	268,082311	0
14.01.2021	21:57:18	0	0	2,37262	3,531	91,1448	0,245	77,802	3,5	1006,78	6,8	8,7	8,5	1	1	1	1	1	1	1	1	1	0	1	-49,82382	274,282893	271,082259	0
14.01.2021	21:57:19	0	0	2,598584	3,768	83,3544	0,244	77,786	3,5	1006,74	6,8	8,7	8,5	1	1	1	1	1	1	1	1	1	0	1	-52,078929	274,302488	268,918863	0
14.01.2021	21:57:20	0	0	4,632259	3,756	102,1716	0,244	77,779	3,5	1006,62	6,8	8,7	8,5	1	1	1	1	1	1	1	1	1	0	1	-49,964764	274,322103	271,124854	0
14.01.2021	21:57:21	0	0	2,93753	4,014	98,4456	0,239	77,781	3,5	1006,64	6,8	8,7	8,5	1	1	1	1	1	1	1	1	1	0	1	-53,065539	274,269338	267,777111	0
14.01.2021	21:57:22	0	0	2,033675	4,05225	84,7944	0,246	77,786	3,5	1006,68	6,8	8,7	8,5	1	1	1	1	1	1	1	1	1	0	1	-53,770261	274,313047	267,276962	0
14.01.2021	21:57:23	0	0	3,954367	4,03875	80,1648	0,24	77,764	3,5	1006,8	6,8	8,7	8,5	1	1	1	1	1	1	1	1	1	0	1	-53,206483	274,20171	267,319834	0
14.01.2021	21:57:24	0	0	2,37262	4,266	81,234	0,237	77,762	3,5	1006,78	6,8	8,7	8,5	1	1	1	1	1	1	1	1	1	0	1	-50,105708	274,325122	270,998047	0
14.01.2021	21:57:25	0	0	2,37262	4,3365	87,714	0,244	77,738	3,5	1006,64	6,8	8,7	8,5	1	1	1	1	1	1	1	1	1	0	1	-51,162791	274,240755	269,546133	0
14.01.2021	21:57:26	0	0	4,180331	4,54425	90,774	0,24	77,773	3,5	1006,84	6,8	8,7	8,5	1	1	1	1	1	1	1	1	1	0	1	-47,21635	274,141794	273,029906	0
14.01.2021	21:57:27	0	0	4,067349	4,89525	108,2484	0,243	77,768	3,5	1006,8	6,9	8,7	8,5	1	1	1	1	1	1	1	1	1	0	1	-50,880902	274,188213	269,582309	0
14.01.2021	21:57:28	0	0	5,084186	4,97625	99,5292	0,235	77,763	3,5	1006,62	6,8	8,7	8,5	1	1	1	1	1	1	1	1	1	0	1	-48,696265	274,138803	271,536015	0
14.01.2021	21:57:29	0	0	3,163494	4,629	118,314	0,238	77,769	3,5	1006,58	6,8	8,7	8,5	1	1	1	1	1	1	1	1	1	0	1	-50,387597	274,270844	270,462098	0
14.01.2021	21:57:30	0	0	4,632259	4,4445	109,5804	0,239	77,762	3,5	1006,64	6,8	8,7	8,5	1	1	1	1	1	1	1	1	1	0	1	-50,458069	274,316065	270,603283	0
14.01.2021	21:57:31	0	0	2,93753	4,08375	101,1996	0,242	77,765	3,5	1006,78	6,8	8,7	8,5	1	1	1	1	1	1	1	1	1	0	1	-48,907681	274,221223	271,709883	0
14.01.2021	21:57:32	0	0	3,841362	3,6975	92,6388	0,245	77,775	3,5	1006,7	6,8	8,7	8,6	1	1	1	1	1	1	1	1	1	0	1	-53,065539	274,31003	267,967557	0
14.01.2021	21:57:33	0	0	2,824548	3,13125	83,7216	0,24	77,774	3,5	1006,62	6,8	8,7	8,5	1	1	1	1	1	1	1	1	1	0	1	-50,246653	274,249777	270,504474	0
14.01.2021	21:57:34	0	0	4,519277	2,5605	64,2204	0,241	77,771	3,5	1006,7	6,8	8,7	8,5	1	1	1	1	1	1	1	1	1	0	1	-52,290345	274,137308	267,934948	0
14.01.2021	21:57:35	0	0	2,485602	2,15925	70,6932	0,237	77,77	3,5	1006,74	6,8	8,7	8,5	1	1	1	1	1	1	1	1	1	0	1	-51,515152	274,19421	268,9761	0
14.01.2021	21:57:36	0	0	3,728403	1,8405	105,1524	0,243	77,772	3,5	1006,64	6,9	8,7	8,5	1	1	1	1	1	1	1	1	1	0	1	-51,726568	274,138803	268,505712	0
14.01.2021	21:57:37	0	0	4,632231	1,75425	48,5172	0,24	77,768	3,5	1006,54	6,8	8,7	8,6	1	1	1	1	1	1	1	1	1	0	1	-56,236786	274,28892	264,697499	0
14.01.2021	21:57:38	0	0	3,389437	2,12775	82,5948	0,239	77,781	3,5	1006,78	6,8	8,7	8,6	1	1	1	1	1	1	1	1	1	0	1	-49,048626	274,132823	271,155712	0
14.01.2021	21:57:39	0	0	2,824531	2,59425	71,5716	0,239	77,771	3,5	1006,7	6,8	8,7	8,6	1	1	1	1	1	1	1	1	1	0	1	-51,867512	274,252785	268,897688	0
14.01.2021	21:57:40	0	0	3,276476	2,87175	68,0292	0,242	77,767	3,5	1006,72	6,8	8,7	8,5	1	1	1	1	1	1	1	1	1	0	1	-55,743481	274,313047	265,303741	0
14.01.2021	21:57:41	0	0	3,163494	2,90925	70,578	0,235	77,746	3,5	1006,64	6,8	8,7	8,5	1	1	1	1	1	1	1	1	1	0	1	-48,20296	274,240755	272,505964	0
14.01.2021	21:57:42	0	0	3,389458	3,00975	90,774	0,24	77,75	3,5	1006,68	6,8	8,7	8,5	1	1	1	1	1	1	1	1	1	0	1	-50,17618	274,313047	270,871042	0
14.01.2021	21:57:43	0	0	4,180331	3,2325	80,91	0,238	77,737	3,5	1006,8	6,8	8,7	8,5	1	1	1	1	1	1	1	1	1	0	1	-49,400987	274,218219	271,202532	0
14.01.2021	21:57:44	0	0	3,615421	3,477	68,3928	0,241	77,748	3,5	1006,62	6,8	8,7	8,5	1	1	1	1	1	1	1	1	1	0	1	-50,739958	274,128339	269,443429	0
14.01.2021	21:57:45	0	0	3,276456	3,62175	78,6672	0,236	77,718	3,5	1006,7	6,8	8,7	8,6	1	1	1	1	1	1	1	1	1	0	1	-48,766737	274,263317	272,04774	0
14.01.2021	21:57:46	0	0	2,711566	3,5535	72,2664	0,233	77,752	3,5	1006,66	6,8	8,7	8,5	1	1	1	1	1	1	1	1	1	0	1	-49,753347	274,131328	270,444006	0
14.01.2021	21:57:47	0	0	4,971205	3,60975	73,7784	0,234	77,73	3,5	1006,6	6,8	8,7	8,5	1	1	1	1	1	1	1	1	1	0	1	-50,17618	274,20321	270,357152	0
14.01.2021	21:57:48	0	0	4,180331	3,66525	71,6148	0,24	77,745	3,5	1006,8	6,9	8,7	8,5	1	1	1	1	1	1	1	1	1	0	1	-56,659619	274,313047	264,387603	0
14.01.2021	21:57:49	0	0	3,050512	3,52575	80,8956	0,237	77,743	3,5	1006,78	6,8	8,7	8,5	1	1	1	1	1	1	1	1	1	0	1	-55,179704	274,230235	265,480012	0
14.01.2021	21:57:50	0	0	2,824548	3,357	80,1252	0,238	77,737	3,5	1006,6	6,8	8,7	8,5	1	1	1	1	1	1	1	1	1	0	1	-53,065539	274,320593	268,017012	0
14.01.2021	21:57:51	0	0	2,824548	3,315	82,3608	0,24	77,748	3,5	1006,84	6,8	8,7	8,5	1	1	1	1	1	1	1	1	1	0	1	-51,092319	274,236246	269,595512	0
14.01.2021	21:57:52	0	0	4,406295	3,35175	88,5564	0,241	77,759	3,5	1006,72	6,8	8,7	8,5	1	1	1	1	1	1	1	1	1	0	1	-48,837209	274,297964	272,139408	0
14.01.2021	21:57:53	0	0	2,824548	3,4065	85,1868	0,234	77,738	3,5	1006,66	6,8	8,7	8,5	1	1	1	1	1	1	1	1	1	0	1	-48,062016	274,165738	272,296138	0
14.01.2021	21:57:54	0	0	4,519277	3,549	75,978	0,246	77,749	3,5	1006,7	6,8	8,7	8,5	1	1	1	1	1	1	1	1	1	0	1	-53,629316	274,176223	266,777846	0
14.01.2021	21:57:55	0	0	2,37262	3,5505	86,6844	0,244	77,736	3,5	1006,82	6,8	8,7	8,5	1	1	1	1	1	1	1	1	1	0	1	-48,696265	274,313047	272,350958	0
14.01.2021	21:57:56	0	0	4,858223	3,56775	75,24	0,234	77,736	3,5	1006,58	6,9	8,7	8,5	1	1	1	1	1	1	1	1	1	0	1	-52,290345	274,221223	268,327219	0
14.01.2021	21:57:57	0	0	3,841362	3,735	73,8036	0,241	77,735	3,5	1006,84	6,8	8,7	8,6	1	1	1	1	1	1	1	1	1	0	1	-47,427766	274,141794	272,81849	0
14.01.2021	21:57:58	0	0	3,841385	3,693	81,6012	0,234	77,721	3,5	1006,68	6,8	8,7	8,5	1	1	1	1	1	1	1	1	1	0	1	-53,488372	274,269338	267,354278	0
14.01.2021	21:57:59	0	0	2,259638	3,423	73,7928	0,238	77,708	3,5	1006,72	6,8	8,7	8,5	1	1	1	1	1	1	1	1	1	0	1	-53,206483	274,285906	267,713697	0
14.01.2021	21:58:00	0	0	2,824548	3,4935	85,9284	0,239	77,732	3,5	1006,86	6,8	8,7	8,5	1	1	1	1	1	1	1	1	1	0	1	-53,488372	274,314556	267,565915	0
14.01.2021	21:58:01	0	0	2,824548	3,4935	85,9284	0,239	77,732	3,5	1006,86	6,8	8,7	8,5	1	1	1	1	1	1	1	1	1	0	1	-53,488372	274,314556	267,565915	0
14.01.2021	21:58:02	0	0	2,711566	3,88425	66,5244	0,238	77,737	3,5	1006,62	6,8	8,7	8,5	1	1	1	1	1	1	1	1	1	0	1	-50,669486	274,164241	269,68167	0
14.01.2021	21:58:03	0	0	3,954367	4,04175	77,2164	0,236	77,736	3,5	1006,74	6,9	8,7	8,5	1	1	1	1	1	1	1	1	1	0	1	-50,880902	274,176223	269,52626	0
14.01.2021	21:58:04	0	0	2,824548	4,0575	76,4892	0,24	77,721	3,5	1006,66	6,8	8,7	8,5	1	1	1	1	1	1	1	1	1	0	1	-51,162791	274,317575	269,905627	0
14.01.2021	21:58:05	0	0	3,050512	3,882	69,4836	0,239	77,731	3,5	1006,64	6,8	8,7	8,5	1	1	1	1	1	1	1	1	1	0	1	-51,585624	274,212214	268,989813	0
14.01.2021	21:58:06	0	0	3,163494	3,561	71,2368	0,236	77,744	3,5	1006,66	6,8	8,7	8,5	1	1	1	1	1	1	1	1	1	0	1	-52,078929	274,137308	268,146365	0
14.01.2021	21:58:07	0	0	3,163494	3,32325	60,2388	0,23	77,741	3,5	1006,72	6,9	8,7	8,5	1	1	1	1	1	1	1	1	1	0	1	-55,813953	274,19871	264,698335	0
14.01.2021	21:58:08	0	0	4,293287	3,15975	56,3004	0,238	77,735	3,5	1006,76	6,8	8,7	8,6	1	1	1	1	1	1	1	1	1	0	1	-48,907681	274,314556	272,146606	0
14.01.2021	21:58:09	0	0	2,598584	3,00225	69,8652	0,242	77,736	3,5	1006,9	6,8	8,7	8,5	1	1	1	1	1	1	1	1	1	0	1	-51,867512	274,254289	268,904725	0
14.01.2021	21:58:10	0	0	2,93753	2,9115	72,6948	0,24	77,728	3,5	1006,74	6,8	8,7	8,5	1	1	1	1	1	1	1	1	1	0	1	-49,260042	274,138803	270,972238	0
14.01.2021	21:58:11	0	0	4,406295	2,8395	79,1388	0,24	77,738	3,5	1006,7	6,9	8,7	8,5	1	1	1	1	1	1	1	1	1	0	1	-52,924595	274,311538	268,115564	0
14.01.2021	21:58:12	0	0	3,050512	2,739	79,7364	0,24	77,73	3,5	1006,62	6,9	8,7	8,5	1	1	1	1	1	1	1	1	1	0	1	-53,276956	274,213715	267,3055	0
14.01.2021	21:58:13	0	0	2,598584	2,9025	75,618	0,242	77,714	3,5	1006,82	6,8	8,7	8,5	1	1	1	1	1	1	1	1	1	0	1	-50,387597	274,131328	269,809756	0
14.01.2021	21:58:14	0	0	3,615421	3,021	70,8624	0,237	77,707	3,5	1006,64	6,8	8,7	8,5	1	1	1	1	1	1	1	1	1	0	1	-53,840733	274,224226	266,790879	0
14.01.2021	21:58:15	0	0	2,711566	3,159	70,398	0,238	77,706	3,5	1006,8	6,8	8,7	8,5	1	1	1	1	1	1	1	1	1	0	1	-53,911205	274,314556	267,143082	0
14.01.2021	21:58:16	0	0	2,93753	3,516	60,5556	0,242	77,677	3,5	1006,82	6,8	8,7	8,5	1	1	1	1	1	1	1	1	1	0	1	-50,599013	274,212214	269,976423	0
14.01.2021	21:58:17	0	0	3,050512	3,88875	70,866	0,236	77,675	3,5	1006,58	6,8	8,7	8,5	1	1	1	1	1	1	1	1	1	0	1	-51,162791	274,316065	269,898561	0
14.01.2021	21:58:18	0	0	4,632231	4,059	58,1364	0,236	77,668	3,5	1006,74	6,8	8,7	8,6	1	1	1	1	1	1	1	1	1	0	1	-50,739958	274,287413	270,187275	0
14.01.2021	21:58:19	0	0	4,632259	3,9405	62,8812	0,238	77,656	3,5	1006,74	6,9	8,7	8,5	1	1	1	1	1	1	1	1	1	0	1	-52,219873	274,27235	268,636867	0
14.01.2021	21:58:20	0	0	4,858223	3,783	45,1692	0,235	77,651	3,5	1006,8	6,8	8,7	8,5	1	1	1	1	1	1	1	1	1	0	1	-53,347428	274,140298	266,89184	0
14.01.2021	21:58:21	0	0	3,276476	3,49275	48,8196	0,239	77,63	3,5	1006,7	6,8	8,7	8,5	1	1	1	1	1	1	1	1	1	0	1	-49,471459	274,218219	271,13206	0
14.01.2021	21:58:22	0	0	4,632259	3,33375	84,7908	0,239	77,622	3,5	1006,58	6,8	8,7	8,5	1	1	1	1	1	1	1	1	1	0	1	-47,498238	274,129833	272,692132	0
14.01.2021	21:58:23	0	0	4,406295	3,1455	80,5212	0,242	77,63	3,5	1006,74	6,8	8,7	8,5	1	1	1	1	1	1	1	1	1	0	1	-54,968288	274,228733	265,684402	0
14.01.2021	21:58:24	0	0	4,51925	3,14925	70,2396	0,241	77,629	3,5	1006,84	6,8	8,7	8,6	1	1	1	1	1	1	1	1	1	0	1	-47,427766	274,119373	272,713738	0
14.01.2021	21:58:25	0	0	3,615421	3,07575	58,0968	0,229	77,612	3,5	1006,64	6,7	8,7	8,5	1	1	1	1	1	1	1	1	1	0	1	-54,263566	274,242259	266,45239	0
14.01.2021	21:58:26	0	0	2,824548	2,8455	71,6904	0,239	77,607	3,5	1006,76	6,8	8,7	8,5	1	1	1	1	1	1	1	1	1	0	1	-51,374207	274,305504	269,637704	0
14.01.2021	21:58:27	0	0	4,067349	2,67675	81,2016	0,238	77,602	3,5	1006,72	6,8	8,7	8,5	1	1	1	1	1	1	1	1	1	0	1	-50,246653	274,27235	270,610088	0
14.01.2021	21:58:28	0	0	4,632259	2,73975	79,038	0,24	77,589	3,5	1006,8	6,8	8,7	8,5	1	1	1	1	1	1	1	1	1	0	1	-49,260042	274,261812	271,547393	0
14.01.2021	21:58:29	0	0	3,389458	2,90775	101,8224	0,24	77,572	3,5	1006,62	6,8	8,7	8,5	1	1	1	1	1	1	1	1	1	0	1	-50,81043	274,149273	269,470776	0
14.01.2021	21:58:30	0	0	2,711566	3,699	105,5124	0,239	77,58	3,5	1006,74	6,9	8,7	8,5	1	1	1	1	1	1	1	1	1	0	1	-51,515152	274,126844	268,661253	0
14.01.2021	21:58:31	0	0	2,598584	4,6095	100,7172	0,232	77,548	3,5	1006,7	6,9	8,7	8,5	1	1	1	1	1	1	1	1	1	0	1	-48,978154	274,162743	271,366004	0
14.01.2021	21:58:32	0	0	3,728381	4,641	64,638	0,235	77,559	3,5	1006,86	6,9	8,7	8,6	1	1	1	1	1	1	1	1	1	0	1	-49,82382	274,297964	271,152797	0
14.01.2021	21:58:33	0	0	3,389458	4,26375	90,8712	0,243	77,542	3,5	1006,86	6,7	8,7	8,5	1	1	1	1	1	1	1	1	1	0	1	-54,334038	274,144785	265,926196	0
14.01.2021	21:58:34	0	0	5,423132	4,149	96,5916	0,239	77,539	3,5	1006,64	6,8	8,7	8,5	1	1	1	1	1	1	1	1	1	0	1	-52,290345	274,224226	268,341267	0
14.01.2021	21:58:35	0	0	3,954367	4,6965	69,1488	0,238	77,53	3,5	1006,8	6,8	8,7	8,5	1	1	1	1	1	1	1	1	1	0	1	-52,078929	274,30098	268,911804	0
14.01.2021	21:58:36	0	0	3,389458	4,9455	74,1708	0,236	77,497	3,5	1006,74	6,9	8,7	8,5	1	1	1	1	1	1	1	1	1	0	1	-52,713178	274,264822	268,108341	0
14.01.2021	21:58:37	0	0	4,519277	4,9725	85,1796	0,227	77,485	3,5	1006,7	6,8	8,7	8,5	1	1	1	1	1	1	1	1	1	0	1	-53,276956	274,11788	266,85757	0
14.01.2021	21:58:38	0	0	5,197137	4,983	85,1652	0,233	77,488	3,5	1006,68	6,9	8,7	8,6	1	1	1	1	1	1	1	1	1	0	1	-51,585624	274,183716	268,856564	0
14.01.2021	21:58:39	0	0	3,615421	4,96575	75,2544	0,23	77,502	3,5	1006,76	6,8	8,7	8,5	1	1	1	1	1	1	1	1	1	0	1	-49,18957	274,102948	270,87521	0
14.01.2021	21:58:40	0	0	4,971205	4,76475	80,532	0,233	77,498	3,5	1006,62	6,8	8,7	8,5	1	1	1	1	1	1	1	1	1	0	1	-53,770261	274,191211	266,706969	0
14.01.2021	21:58:41	0	0	3,276476	4,656	69,1668	0,232	77,49	3,5	1006,8	6,9	8,7	8,5	1	1	1	1	1	1	1	1	1	0	1	-48,555321	274,134318	271,656002	0
14.01.2021	21:58:42	0	0	2,485602	4,707	75,618	0,237	77,503	3,5	1006,76	6,9	8,7	8,5	1	1	1	1	1	1	1	1	1	0	1	-49,471459	274,287413	271,455774	0
14.01.2021	21:58:43	0	0	3,389437	4,91175	69,1344	0,233	77,513	3,5	1006,9	6,9	8,7	8,6	1	1	1	1	1	1	1	1	1	0	1	-52,572234	274,15077	267,715964	0
14.01.2021	21:58:44	0	0	3,276476	4,986	70,704	0,235	77,518	3,5	1006,74	6,8	8,7	8,5	1	1	1	1	1	1	1	1	1	0	1	-51,162791	274,269338	269,679859	0
14.01.2021	21:58:45	0	0	5,084186	4,70775	73,4364	0,232	77,513	3,5	1006,86	6,9	8,7	8,5	1	1	1	1	1	1	1	1	1	0	1	-49,682875	274,275361	271,187958	0
14.01.2021	21:58:46	0	0	3,050512	4,659	69,1812	0,234	77,533	3,5	1006,74	6,8	8,7	8,5	1	1	1	1	1	1	1	1	1	0	1	-47,991543	274,177721	272,422623	0
14.01.2021	21:58:47	0	0	4,858223	4,719	73,4256	0,229	77,521	3,5	1006,78	6,8	8,7	8,5	1	1	1	1	1	1	1	1	1	0	1	-52,219873	274,270844	268,629822	0
14.01.2021	21:58:48	0	0	5,084186	4,68225	73,0692	0,228	77,538	3,5	1006,72	6,8	8,7	8,5	1	1	1	1	1	1	1	1	1	0	1	-53,4179	274,243762	267,305089	0
14.01.2021	21:58:49	0	0	2,711566	4,7385	70,8624	0,237	77,538	3,5	1006,62	6,8	8,7	8,5	1	1	1	1	1	1	1	1	1	0	1	-53,629316	274,111906	266,477303	0
14.01.2021	21:58:50	0	0	3,841385	4,578	80,1144	0,228	77,542	3,5	1006,9	6,7	8,7	8,5	1	1	1	1	1	1	1	1	1	0	1	-50,880902	274,182217	269,554279	0
14.01.2021	21:58:51	0	0	4,632259	4,4175	78,66	0,225	77,557	3,5	1006,72	6,9	8,7	8,5	1	1	1	1	1	1	1	1	1	0	1	-54,193094	274,302488	266,804698	0
14.01.2021	21:58:52	0	0	2,598569	4,20975	82,962	0,226	77,544	3,5	1006,66	6,9	8,7	8,6	1	1	1	1	1	1	1	1	1	0	1	-49,541931	274,228733	271,110758	0
14.01.2021	21:58:53	0	0	3,954367	4,1415	79,7616	0,23	77,558	3,5	1006,64	6,9	8,7	8,5	1	1	1	1	1	1	1	1	1	0	1	-52,924595	274,15077	267,363603	0
14.01.2021	21:58:54	0	0	2,711566	4,22475	79,7544	0,229	77,553	3,5	1006,8	6,7	8,7	8,5	1	1	1	1	1	1	1	1	1	0	1	-50,246653	274,243762	270,476336	0
14.01.2021	21:58:55	0	0	4,406295	4,29375	93,4128	0,223	77,548	3,5	1006,62	6,9	8,7	8,5	1	1	1	1	1	1	1	1	1	0	1	-50,458069	274,303996	270,546782	0
14.01.2021	21:58:56	0	0	4,067349	4,38675	81,5832	0,229	77,564	3,5	1006,76	6,8	8,8	8,5	1	1	1	1	1	1	1	1	1	0	1	-48,132488	274,189712	272,337733	0
14.01.2021	21:58:57	0	0	4,067349	4,3035	85,896	0,225	77,551	3,5	1006,7	6,9	8,7	8,5	1	1	1	1	1	1	1	1	1	0	1	-49,119098	274,291934	271,829296	0
14.01.2021	21:58:58	0	0	4,745212	3,93	93,708	0,22	77,565	3,5	1006,7	6,9	8,7	8,6	1	1	1	1	1	1	1	1	1	0	1	-52,078929	274,261812	268,728507	0
14.01.2021	21:58:59	0	0	2,824548	3,531	80,532	0,221	77,565	3,5	1006,8	6,9	8,7	8,5	1	1	1	1	1	1	1	1	1	0	1	-52,995067	274,297964	267,98155	0
14.01.2021	21:59:00	0	0	4,745241	3,43125	79,4016	0,22	77,556	3,5	1006,68	6,9	8,7	8,5	1	1	1	1	1	1	1	1	1	0	1	-52,008457	274,12535	268,160967	0
14.01.2021	21:59:01	0	0	4,745241	3,43125	79,4016	0,22	77,556	3,5	1006,68	6,9	8,7	8,5	1	1	1	1	1	1	1	1	1	0	1	-52,008457	274,12535	268,160967	0
14.01.2021	21:59:02	0	0	4,632259	3,6525	77,976	0,224	77,558	3,5	1006,76	6,9	8,7	8,5	1	1	1	1	1	1	1	1	1	0	1	-49,541931	274,278374	271,342998	0
14.01.2021	21:59:03	0	0	3,841385	3,852	89,7048	0,225	77,562	3,5	1006,64	6,8	8,7	8,5	1	1	1	1	1	1	1	1	1	0	1	-46,511628	274,251281	274,246535	0
14.01.2021	21:59:04	0	0	2,937512	3,71025	77,9616	0,22	77,563	3,5	1006,68	6,9	8,7	8,6	1	1	1	1	1	1	1	1	1	0	1	-51,79704	274,149273	268,484166	0
14.01.2021	21:59:05	0	0	4,858223	3,5445	80,91	0,221	77,56	3,5	1006,86	6,9	8,7	8,5	1	1	1	1	1	1	1	1	1	0	1	-47,991543	274,281386	272,907485	0
14.01.2021	21:59:06	0	0	4,632259	3,552	76,9212	0,213	77,559	3,5	1006,64	6,8	8,7	8,5	1	1	1	1	1	1	1	1	1	0	1	-46,441156	274,260308	274,359239	0
14.01.2021	21:59:07	0	0	3,954344	3,6525	73,4328	0,22	77,577	3,5	1006,76	6,8	8,7	8,6	1	1	1	1	1	1	1	1	1	0	1	-51,233263	274,243762	269,489726	0
14.01.2021	21:59:08	0	0	4,632259	3,65175	85,9032	0,219	77,588	3,5	1006,72	6,8	8,7	8,5	1	1	1	1	1	1	1	1	1	0	1	-50,17618	274,12535	269,993243	0
14.01.2021	21:59:09	0	0	2,033662	3,645	90,774	0,219	77,61	3,5	1006,7	6,9	8,7	8,6	1	1	1	1	1	1	1	1	1	0	1	-49,18957	274,243762	271,533418	0
14.01.2021	21:59:10	0	0	2,485587	3,561	80,1576	0,221	77,62	3,5	1006,72	6,8	8,7	8,6	1	1	1	1	1	1	1	1	1	0	1	-42,706131	274,116386	277,421417	0
14.01.2021	21:59:11	0	0	4,858223	3,516	79,02	0,213	77,619	3,5	1006,76	6,8	8,7	8,5	1	1	1	1	1	1	1	1	1	0	1	-53,699789	274,246769	267,037268	0
14.01.2021	21:59:12	0	0	4,745212	3,714	66,9384	0,216	77,647	3,5	1006,74	6,8	8,7	8,6	1	1	1	1	1	1	1	1	1	0	1	-50,458069	274,182217	269,977112	0
14.01.2021	21:59:13	0	0	4,971205	3,94125	82,9944	0,22	77,626	3,5	1006,72	6,9	8,7	8,5	1	1	1	1	1	1	1	1	1	0	1	-50,105708	274,12535	270,063715	0
14.01.2021	21:59:14	0	0	3,163494	3,801	79,4124	0,22	77,629	3,5	1006,74	6,8	8,7	8,5	1	1	1	1	1	1	1	1	1	0	1	-49,048626	274,237749	271,646235	0
14.01.2021	21:59:15	0	0	3,276456	3,537	69,1524	0,221	77,655	3,5	1006,78	6,9	8,7	8,6	1	1	1	1	1	1	1	1	1	0	1	-46,934461	274,287413	273,992772	0
14.01.2021	21:59:16	0	0	2,824531	3,504	75,6216	0,22	77,652	3,5	1006,82	6,8	8,7	8,6	1	1	1	1	1	1	1	1	1	0	1	-56,307259	274,246769	264,429798	0
14.01.2021	21:59:17	0	0	4,971205	3,44625	74,1636	0,217	77,672	3,5	1006,8	6,9	8,7	8,5	1	1	1	1	1	1	1	1	1	0	1	-49,330514	274,120867	270,817969	0
14.01.2021	21:59:18	0	0	4,180331	3,11025	85,1796	0,216	77,663	3,5	1006,68	6,9	8,7	8,5	1	1	1	1	1	1	1	1	1	0	1	-53,488372	274,159749	266,841792	0
14.01.2021	21:59:19	0	0	4,51925	2,98275	81,216	0,221	77,678	3,5	1006,8	6,9	8,7	8,6	1	1	1	1	1	1	1	1	1	0	1	-50,035236	274,128339	270,148151	0
14.01.2021	21:59:20	0	0	3,841362	3,19875	95,6088	0,216	77,663	3,5	1006,66	6,8	8,7	8,6	1	1	1	1	1	1	1	1	1	0	1	-51,585624	274,248273	269,158468	0
14.01.2021	21:59:21	0	0	3,163475	3,2955	91,8288	0,218	77,678	3,5	1006,68	6,8	8,7	8,6	1	1	1	1	1	1	1	1	1	0	1	-47,427766	274,123856	272,734677	0
14.01.2021	21:59:22	0	0	2,598584	2,99025	68,7636	0,216	77,696	3,5	1006,7	6,9	8,7	8,5	1	1	1	1	1	1	1	1	1	0	1	-49,753347	274,15077	270,53485	0
14.01.2021	21:59:23	0	0	4,745241	2,721	80,8812	0,22	77,7	3,5	1006,7	6,9	8,7	8,5	1	1	1	1	1	1	1	1	1	0	1	-53,065539	274,30098	267,925194	0
14.01.2021	21:59:24	0	0	4,632231	2,50575	81,9612	0,215	77,685	3,5	1006,62	6,9	8,7	8,6	1	1	1	1	1	1	1	1	1	0	1	-51,303735	274,284399	269,609394	0
14.01.2021	21:59:25	0	0	3,728381	2,526	84,4236	0,216	77,687	3,5	1006,68	6,8	8,8	8,6	1	1	1	1	1	1	1	1	1	0	1	-55,602537	274,227231	265,043126	0
14.01.2021	21:59:26	0	0	4,632259	2,77425	90,8136	0,219	77,684	3,5	1006,62	6,9	8,8	8,5	1	1	1	1	1	1	1	1	1	0	1	-50,81043	274,273855	270,053357	0
14.01.2021	21:59:27	0	0	3,841385	2,90775	85,5216	0,217	77,689	3,5	1006,72	6,9	8,7	8,5	1	1	1	1	1	1	1	1	1	0	1	-52,854123	274,159749	267,476041	0
14.01.2021	21:59:28	0	0	4,745212	3,087	82,5984	0,221	77,693	3,5	1006,7	6,9	8,7	8,6	1	1	1	1	1	1	1	1	1	0	1	-50,528541	274,129833	269,661829	0
14.01.2021	21:59:29	0	0	3,163475	3,04575	82,98	0,212	77,688	3,5	1006,74	6,8	8,7	8,6	1	1	1	1	1	1	1	1	1	0	1	-56,518675	274,19721	263,986601	0
14.01.2021	21:59:30	0	0	4,745212	2,88375	87,3684	0,216	77,669	3,5	1006,86	6,8	8,7	8,6	1	1	1	1	1	1	1	1	1	0	1	-51,303735	274,296456	269,665825	0
14.01.2021	21:59:31	0	0	3,050512	2,8005	92,2392	0,215	77,669	3,5	1006,84	6,8	8,7	8,5	1	1	1	1	1	1	1	1	1	0	1	-48,766737	274,209212	271,794662	0
14.01.2021	21:59:32	0	0	2,93753	2,73675	90,846	0,221	77,659	3,5	1006,82	6,8	8,7	8,5	1	1	1	1	1	1	1	1	1	0	1	-47,286822	274,28892	273,647464	0
14.01.2021	21:59:33	0	0	4,293287	2,72475	97,6824	0,21	77,665	3,5	1006,68	6,8	8,8	8,6	1	1	1	1	1	1	1	1	1	0	1	-50,739958	274,153762	269,562226	0
14.01.2021	21:59:34	0	0	4,858193	2,916	85,9176	0,211	77,659	3,5	1006,7	6,9	8,8	8,6	1	1	1	1	1	1	1	1	1	0	1	-47,21635	274,254289	273,555888	0
14.01.2021	21:59:35	0	0	4,519277	3,24975	81,9936	0,216	77,648	3,5	1006,74	6,9	8,7	8,5	1	1	1	1	1	1	1	1	1	0	1	-51,444679	274,303996	269,560172	0
14.01.2021	21:59:36	0	0	3,954344	3,573	87,354	0,214	77,643	3,5	1006,54	6,9	8,7	8,6	1	1	1	1	1	1	1	1	1	0	1	-53,699789	274,224226	266,931824	0
14.01.2021	21:59:37	0	0	4,745212	3,62775	88,56	0,218	77,638	3,5	1006,66	6,8	8,7	8,6	1	1	1	1	1	1	1	1	1	0	1	-54,193094	274,296456	266,776466	0
14.01.2021	21:59:38	0	0	4,745241	3,60675	101,4876	0,219	77,648	3,5	1006,76	6,9	8,7	8,5	1	1	1	1	1	1	1	1	1	0	1	-53,488372	274,165738	266,869782	0
14.01.2021	21:59:39	0	0	3,728381	3,6315	99,2988	0,211	77,633	3,5	1006,74	6,8	8,8	8,6	1	1	1	1	1	1	1	1	1	0	1	-52,290345	274,297964	268,686272	0
14.01.2021	21:59:40	0	0	2,598584	3,636	96,5916	0,21	77,637	3,5	1006,68	6,9	8,7	8,5	1	1	1	1	1	1	1	1	1	0	1	-46,229739	274,228733	274,42295	0
14.01.2021	21:59:41	0	0	2,71155	3,6255	97,3116	0,218	77,642	3,5	1006,68	6,8	8,7	8,6	1	1	1	1	1	1	1	1	1	0	1	-52,078929	274,299472	268,904746	0
14.01.2021	21:59:42	0	0	3,954367	3,936	92,988	0,219	77,643	3,5	1006,72	6,8	8,7	8,5	1	1	1	1	1	1	1	1	1	0	1	-53,770261	274,158252	266,552907	0
14.01.2021	21:59:43	0	0	3,841362	4,218	107,766	0,212	77,65	3,5	1006,76	6,9	8,7	8,6	1	1	1	1	1	1	1	1	1	0	1	-54,545455	274,261812	266,261981	0
14.01.2021	21:59:44	0	0	4,632231	4,04025	85,1724	0,213	77,654	3,5	1006,76	6,8	8,7	8,6	1	1	1	1	1	1	1	1	1	0	1	-55,884426	274,254289	264,887812	0
14.01.2021	21:59:45	0	0	2,937512	3,51525	91,1736	0,212	77,665	3,5	1006,72	6,8	8,7	8,6	1	1	1	1	1	1	1	1	1	0	1	-47,145877	274,222724	273,47871	0
14.01.2021	21:59:46	0	0	4,293287	3,23775	69,858	0,203	77,66	3,5	1006,48	6,8	8,7	8,6	1	1	1	1	1	1	1	1	1	0	1	-46,793517	274,107427	273,29218	0
14.01.2021	21:59:47	0	0	3,841362	3,0225	99,8964	0,214	77,673	3,5	1006,86	6,8	8,8	8,6	1	1	1	1	1	1	1	1	1	0	1	-55,391121	274,243762	265,331868	0
14.01.2021	21:59:48	0	0	4,51925	3,2205	86,994	0,211	77,661	3,5	1006,7	6,8	8,7	8,6	1	1	1	1	1	1	1	1	1	0	1	-51,585624	274,293441	269,369825	0
14.01.2021	21:59:49	0	0	4,745241	3,4215	95,148	0,21	77,678	3,5	1006,86	6,8	8,8	8,5	1	1	1	1	1	1	1	1	1	0	1	-49,753347	274,225728	270,88529	0
14.01.2021	21:59:50	0	0	3,389437	3,4365	74,178	0,213	77,672	3,5	1006,72	6,8	8,7	8,6	1	1	1	1	1	1	1	1	1	0	1	-51,092319	274,105934	268,986405	0
14.01.2021	21:59:51	0	0	3,6154	3,609	82,6128	0,216	77,673	3,5	1006,6	6,8	8,8	8,6	1	1	1	1	1	1	1	1	1	0	1	-52,008457	274,210713	268,559961	0
14.01.2021	21:59:52	0	0	2,259625	3,74175	86,994	0,211	77,686	3,5	1006,76	6,8	8,7	8,6	1	1	1	1	1	1	1	1	1	0	1	-52,008457	274,287413	268,918776	0
14.01.2021	21:59:53	0	0	5,084156	3,78075	87,3684	0,212	77,674	3,5	1006,76	6,8	8,8	8,6	1	1	1	1	1	1	1	1	1	0	1	-52,43129	274,113399	267,682306	0
14.01.2021	21:59:54	0	0	5,084156	3,92775	81,2268	0,211	77,689	3,5	1006,72	6,8	8,8	8,6	1	1	1	1	1	1	1	1	1	0	1	-49,82382	274,228733	270,828869	0
14.01.2021	21:59:55	0	0	2,372606	4,4235	61,6968	0,206	77,686	3,5	1006,68	6,8	8,7	8,6	1	1	1	1	1	1	1	1	1	0	1	-51,233263	274,114893	268,887309	0
14.01.2021	21:59:56	0	0	2,93753	4,55025	92,97	0,211	77,705	3,5	1006,82	6,8	8,8	8,5	1	1	1	1	1	1	1	1	1	0	1	-50,739958	274,176223	269,667205	0
14.01.2021	21:59:57	0	0	4,745212	4,7535	97,7004	0,207	77,683	3,5	1006,68	6,8	8,7	8,6	1	1	1	1	1	1	1	1	1	0	1	-55,03876	274,104441	265,032992	0
14.01.2021	21:59:58	0	0	2,71155	4,62525	94,104	0,211	77,688	3,5	1006,74	6,8	8,7	8,6	1	1	1	1	1	1	1	1	1	0	1	-50,880902	274,144785	269,379332	0
14.01.2021	21:59:59	0	0	3,389437	4,611	93,7188	0,206	77,692	3,5	1006,64	6,9	8,8	8,6	1	1	1	1	1	1	1	1	1	0	1	-51,656096	274,296456	269,313464	0
14.01.2021	22:00:00	0	0	2,485587	4,8	86,6448	0,216	77,703	3,5	1006,78	6,8	8,7	8,6	1	1	1	1	1	1	1	1	1	0	1	-49,753347	274,285906	271,166833	0
14.01.2021	22:00:01	0	0	2,485587	4,8	86,6448	0,216	77,703	3,5	1006,78	6,8	8,7	8,6	1	1	1	1	1	1	1	1	1	0	1	-49,753347	274,285906	271,166833	0
14.01.2021	22:00:02	0	0	4,180306	5,09025	75,9996	0,216	77,698	3,5	1006,76	6,8	8,8	8,6	1	1	1	1	1	1	1	1	1	0	1	-55,461593	274,28892	265,472693	0
14.01.2021	22:00:03	0	0	4,067349	5,12475	94,3992	0,209	77,7	3,5	1006,86	6,8	8,7	8,5	1	1	1	1	1	1	1	1	1	0	1	-50,669486	274,231738	269,997258	0
14.01.2021	22:00:04	0	0	2,598569	4,8435	80,1504	0,215	77,711	3,5	1006,86	6,8	8,8	8,6	1	1	1	1	1	1	1	1	1	0	1	-52,078929	274,101456	267,97888	0
14.01.2021	22:00:05	0	0	2,937512	4,38	75,6252	0,209	77,691	3,5	1006,68	6,9	8,7	8,6	1	1	1	1	1	1	1	1	1	0	1	-54,686399	274,144785	265,573835	0
14.01.2021	22:00:06	0	0	4,745212	3,91125	71,2224	0,202	77,693	3,5	1006,72	6,8	8,7	8,6	1	1	1	1	1	1	1	1	1	0	1	-47,498238	274,228733	273,154451	0
14.01.2021	22:00:07	0	0	2,71155	3,70125	88,578	0,208	77,692	3,5	1006,8	6,8	8,7	8,6	1	1	1	1	1	1	1	1	1	0	1	-52,642706	274,129833	267,547664	0
14.01.2021	22:00:08	0	0	2,598569	3,417	96,6888	0,207	77,71	3,5	1006,78	6,9	8,7	8,6	1	1	1	1	1	1	1	1	1	0	1	-49,541931	274,188213	270,92128	0
14.01.2021	22:00:09	0	0	4,632231	3,11775	94,086	0,205	77,696	3,5	1006,82	6,8	8,7	8,6	1	1	1	1	1	1	1	1	1	0	1	-50,951374	274,297964	270,025243	0
14.01.2021	22:00:10	0	0	4,632259	3,03075	90,7632	0,206	77,708	3,5	1006,82	6,9	8,8	8,5	1	1	1	1	1	1	1	1	1	0	1	-55,391121	274,245266	265,338902	0
14.01.2021	22:00:11	0	0	3,954344	2,97225	101,1132	0,207	77,7	3,5	1006,64	6,9	8,7	8,6	1	1	1	1	1	1	1	1	1	0	1	-53,136011	274,291934	267,812382	0
14.01.2021	22:00:12	0	0	2,824531	3,11475	100,3536	0,207	77,711	3,5	1006,64	6,8	8,8	8,6	1	1	1	1	1	1	1	1	1	0	1	-49,18957	274,245266	271,540452	0
14.01.2021	22:00:13	0	0	2,71155	3,10275	103,662	0,205	77,707	3,5	1006,86	6,9	8,7	8,6	1	1	1	1	1	1	1	1	1	0	1	-53,699789	274,297964	267,276828	0
14.01.2021	22:00:14	0	0	3,954344	3,294	108,8856	0,201	77,72	3,5	1006,88	6,8	8,8	8,6	1	1	1	1	1	1	1	1	1	0	1	-50,246653	274,132823	269,957685	0
14.01.2021	22:00:15	0	0	4,858193	3,213	98,4888	0,199	77,723	3,5	1006,76	6,8	8,8	8,6	1	1	1	1	1	1	1	1	1	0	1	-54,193094	274,228733	266,459595	0
14.01.2021	22:00:16	0	0	2,824531	3,32175	91,1736	0,201	77,722	3,5	1006,74	6,8	8,7	8,6	1	1	1	1	1	1	1	1	1	0	1	-51,374207	274,293441	269,581241	0
14.01.2021	22:00:17	0	0	4,293287	3,5715	94,1184	0,205	77,714	3,5	1006,78	6,8	8,7	8,6	1	1	1	1	1	1	1	1	1	0	1	-49,894292	274,104441	270,17746	0
14.01.2021	22:00:18	0	0	2,711566	4,074	94,4208	0,205	77,732	3,5	1006,74	6,9	8,7	8,5	1	1	1	1	1	1	1	1	1	0	1	-53,347428	274,129833	266,842942	0
14.01.2021	22:00:19	0	0	3,163475	4,188	96,2424	0,205	77,727	3,5	1006,8	6,8	8,8	8,6	1	1	1	1	1	1	1	1	1	0	1	-51,162791	274,12535	269,006633	0
14.01.2021	22:00:20	0	0	3,163475	4,15875	106,6752	0,205	77,754	3,5	1006,8	6,8	8,8	8,6	1	1	1	1	1	1	1	1	1	0	1	-50,528541	274,176223	269,878621	0
14.01.2021	22:00:21	0	0	4,293287	3,98175	107,7804	0,2	77,744	3,5	1006,76	6,9	8,8	8,6	1	1	1	1	1	1	1	1	1	0	1	-48,484848	274,230235	272,174868	0
14.01.2021	22:00:22	0	0	2,485602	4,0965	112,6584	0,206	77,756	3,5	1006,76	6,8	8,8	8,5	1	1	1	1	1	1	1	1	1	0	1	-58,139535	274,297964	262,837082	0
14.01.2021	22:00:23	0	0	2,937512	4,23075	99,522	0,203	77,777	3,5	1006,82	6,8	8,8	8,6	1	1	1	1	1	1	1	1	1	0	1	-52,219873	274,147777	268,054341	0
14.01.2021	22:00:24	0	0	3,6154	4,3965	88,128	0,203	77,812	3,5	1006,76	6,8	8,8	8,6	1	1	1	1	1	1	1	1	1	0	1	-50,387597	274,257298	270,398718	0
14.01.2021	22:00:25	0	0	2,824531	4,43475	86,6484	0,208	77,821	3,5	1006,76	6,8	8,8	8,6	1	1	1	1	1	1	1	1	1	0	1	-50,528541	274,282893	270,377537	0
14.01.2021	22:00:26	0	0	4,858193	4,36425	105,1452	0,204	77,82	3,5	1006,72	6,8	8,8	8,6	1	1	1	1	1	1	1	1	1	0	1	-53,911205	274,146281	266,356019	0
14.01.2021	22:00:27	0	0	3,276456	4,05375	94,8456	0,195	77,832	3,5	1006,84	6,8	8,7	8,6	1	1	1	1	1	1	1	1	1	0	1	-52,501762	274,149273	267,779444	0
14.01.2021	22:00:28	0	0	4,406268	3,98025	108,5004	0,203	77,848	3,5	1006,8	6,8	8,8	8,6	1	1	1	1	1	1	1	1	1	0	1	-51,656096	274,282893	269,249982	0
14.01.2021	22:00:29	0	0	4,971175	3,921	92,2716	0,205	77,858	3,5	1006,8	6,8	8,7	8,6	1	1	1	1	1	1	1	1	1	0	1	-54,897815	274,258803	265,895539	0
14.01.2021	22:00:30	0	0	2,937512	3,5085	74,178	0,205	77,871	3,5	1006,76	6,8	8,7	8,6	1	1	1	1	1	1	1	1	1	0	1	-53,981677	274,158252	266,34149	0
14.01.2021	22:00:31	0	0	2,372606	3,14025	88,9668	0,206	77,893	3,5	1006,78	6,8	8,8	8,6	1	1	1	1	1	1	1	1	1	0	1	-50,81043	274,098471	269,233439	0
14.01.2021	22:00:32	0	0	2,485587	3,0165	80,5068	0,199	77,897	3,5	1006,82	6,8	8,7	8,6	1	1	1	1	1	1	1	1	1	0	1	-48,273432	274,245266	272,45659	0
14.01.2021	22:00:33	0	0	4,406268	3,23025	79,794	0,203	77,92	3,5	1006,72	6,8	8,7	8,6	1	1	1	1	1	1	1	1	1	0	1	-52,78365	274,218219	267,819868	0
14.01.2021	22:00:34	0	0	2,711566	3,4515	84,1284	0,205	77,928	3,5	1006,66	6,8	8,8	8,5	1	1	1	1	1	1	1	1	1	0	1	-54,827343	274,287413	266,09989	0
14.01.2021	22:00:35	0	0	4,067325	3,777	83,4228	0,203	77,927	3,5	1006,64	6,8	8,7	8,6	1	1	1	1	1	1	1	1	1	0	1	-47,357294	274,185214	273,091901	0
14.01.2021	22:00:36	0	0	2,259625	4,113	85,194	0,203	77,93	3,5	1006,9	6,8	8,8	8,6	1	1	1	1	1	1	1	1	1	0	1	-52,360817	274,137308	267,864476	0
14.01.2021	22:00:37	0	0	3,276456	4,03125	77,5944	0,206	77,948	3,5	1006,7	6,8	8,7	8,6	1	1	1	1	1	1	1	1	1	0	1	-47,286822	274,107427	272,798875	0
14.01.2021	22:00:38	0	0	2,598569	3,6825	81,6696	0,206	77,945	3,5	1006,78	6,8	8,7	8,6	1	1	1	1	1	1	1	1	1	0	1	-53,770261	274,188213	266,692951	0
14.01.2021	22:00:39	0	0	2,146644	3,483	79,776	0,209	77,95	3,5	1006,82	6,8	8,8	8,6	1	1	1	1	1	1	1	1	1	0	1	-50,739958	274,134318	269,471365	0
14.01.2021	22:00:40	0	0	3,954344	3,351	79,0308	0,208	77,931	3,5	1006,82	6,8	8,8	8,6	1	1	1	1	1	1	1	1	1	0	1	-51,021846	274,114893	269,098725	0
14.01.2021	22:00:41	0	0	4,632231	3,51225	79,7652	0,207	77,921	3,5	1006,78	6,8	8,8	8,6	1	1	1	1	1	1	1	1	1	0	1	-50,458069	274,155259	269,851109	0
14.01.2021	22:00:42	0	0	4,067325	3,8535	87,336	0,2	77,911	3,5	1006,74	6,8	8,6	8,6	1	1	1	1	1	1	1	1	1	0	1	-51,867512	274,275361	269,003321	0
14.01.2021	22:00:43	0	0	2,71155	3,83025	74,9196	0,206	77,891	3,5	1006,64	6,8	8,8	8,6	1	1	1	1	1	1	1	1	1	0	1	-49,260042	274,122361	270,89542	0
14.01.2021	22:00:44	0	0	2,937512	3,61875	96,2244	0,21	77,903	3,5	1006,74	6,8	8,8	8,6	1	1	1	1	1	1	1	1	1	0	1	-50,599013	274,170231	269,78014	0
14.01.2021	22:00:45	0	0	4,406268	3,3045	80,1612	0,207	77,869	3,5	1006,76	6,8	8,8	8,6	1	1	1	1	1	1	1	1	1	0	1	-51,162791	274,111906	268,943829	0
14.01.2021	22:00:46	0	0	3,502419	2,97	81,6444	0,205	77,871	3,5	1006,68	6,8	8,7	8,6	1	1	1	1	1	1	1	1	1	0	1	-53,840733	274,101456	266,217076	0
14.01.2021	22:00:47	0	0	4,180306	2,89125	70,6104	0,211	77,886	3,5	1006,62	6,8	8,8	8,6	1	1	1	1	1	1	1	1	1	0	1	-49,753347	274,147777	270,520867	0
14.01.2021	22:00:48	0	0	2,485587	2,7045	69,9192	0,208	77,875	3,5	1006,82	6,8	8,7	8,6	1	1	1	1	1	1	1	1	1	0	1	-50,035236	274,092503	269,98076	0
14.01.2021	22:00:49	0	0	3,050494	2,706	69,876	0,21	77,863	3,5	1006,72	6,8	8,8	8,6	1	1	1	1	1	1	1	1	1	0	1	-52,008457	274,096979	268,028443	0
14.01.2021	22:00:50	0	0	4,745212	2,679	68,0184	0,207	77,857	3,5	1006,68	6,8	8,7	8,6	1	1	1	1	1	1	1	1	1	0	1	-48,978154	274,134318	271,233169	0
14.01.2021	22:00:51	0	0	4,406268	2,943	77,5944	0,21	77,854	3,5	1006,78	6,8	8,7	8,6	1	1	1	1	1	1	1	1	1	0	1	-55,673009	274,088029	264,32209	0
14.01.2021	22:00:52	0	0	3,050494	3,24375	70,8588	0,211	77,844	3,5	1006,6	6,8	8,8	8,6	1	1	1	1	1	1	1	1	1	0	1	-53,770261	274,132823	266,434077	0
14.01.2021	22:00:53	0	0	3,276456	3,59025	92,6568	0,209	77,85	3,5	1006,8	6,8	8,7	8,6	1	1	1	1	1	1	1	1	1	0	1	-53,4179	274,20321	267,115432	0
14.01.2021	22:00:54	0	0	3,841362	3,68325	73,0548	0,208	77,829	3,5	1006,72	6,8	8,8	8,6	1	1	1	1	1	1	1	1	1	0	1	-52,642706	274,101456	267,415103	0
14.01.2021	22:00:55	0	0	2,937512	3,33	58,1328	0,213	77,825	3,5	1006,68	6,8	8,7	8,6	1	1	1	1	1	1	1	1	1	0	1	-51,867512	274,120867	268,280971	0
14.01.2021	22:00:56	0	0	4,51925	2,9205	65,088	0,208	77,813	3,5	1006,64	6,8	8,8	8,6	1	1	1	1	1	1	1	1	1	0	1	-49,753347	274,215217	270,836129	0
14.01.2021	22:00:57	0	0	4,180306	2,763	79,4124	0,203	77,803	3,5	1006,64	6,8	8,8	8,6	1	1	1	1	1	1	1	1	1	0	1	-51,092319	274,266328	269,736244	0
14.01.2021	22:00:58	0	0	3,502419	3,1215	74,1708	0,205	77,804	3,5	1006,62	6,8	8,7	8,6	1	1	1	1	1	1	1	1	1	0	1	-48,062016	274,126844	272,114389	0
14.01.2021	22:00:59	0	0	3,389437	3,14925	70,6068	0,208	77,811	3,5	1006,6	6,8	8,7	8,6	1	1	1	1	1	1	1	1	1	0	1	-50,387597	274,147777	269,886618	0
14.01.2021	22:01:00	0	0	4,51925	3,62925	82,3572	0,211	77,797	3,5	1006,68	6,8	8,8	8,6	1	1	1	1	1	1	1	1	1	0	1	-50,317125	274,088029	269,677974	0
14.01.2021	22:01:01	0	0	4,51925	3,62925	82,3572	0,211	77,797	3,5	1006,68	6,8	8,8	8,6	1	1	1	1	1	1	1	1	1	0	1	-50,317125	274,088029	269,677974	0
14.01.2021	22:01:02	0	0	3,050494	3,522	89,6868	0,214	77,794	3,5	1006,72	6,8	8,8	8,6	1	1	1	1	1	1	1	1	1	0	1	-53,206483	274,131328	266,99087	0
14.01.2021	22:01:03	0	0	4,745212	3,23475	88,1244	0,199	77,783	3,5	1006,74	6,8	8,8	8,6	1	1	1	1	1	1	1	1	1	0	1	-50,17618	274,159749	270,153983	0
14.01.2021	22:01:04	0	0	3,276456	2,92125	77,5872	0,208	77,79	3,5	1006,82	6,8	8,8	8,6	1	1	1	1	1	1	1	1	1	0	1	-49,119098	274,261812	271,688338	0
14.01.2021	22:01:05	0	0	2,485587	2,76375	83,3508	0,207	77,767	3,5	1006,64	6,8	8,8	8,6	1	1	1	1	1	1	1	1	1	0	1	-50,81043	274,275361	270,060404	0
14.01.2021	22:01:06	0	0	2,824531	3,26775	81,2124	0,206	77,761	3,5	1006,46	6,8	8,8	8,6	1	1	1	1	1	1	1	1	1	0	1	-52,572234	274,120867	267,576249	0
14.01.2021	22:01:07	0	0	4,858193	3,51525	80,1468	0,214	77,758	3,5	1006,74	6,8	8,8	8,6	1	1	1	1	1	1	1	1	1	0	1	-48,696265	274,213715	271,886191	0
14.01.2021	22:01:08	0	0	2,146644	3,34875	82,9584	0,206	77,778	3,5	1006,66	6,8	8,8	8,6	1	1	1	1	1	1	1	1	1	0	1	-48,062016	274,261812	272,74542	0
14.01.2021	22:01:09	0	0	3,502419	3,54975	83,7396	0,206	77,768	3,5	1006,78	6,8	8,7	8,6	1	1	1	1	1	1	1	1	1	0	1	-53,488372	274,092503	266,527624	0
14.01.2021	22:01:10	0	0	4,293287	3,80775	94,3776	0,214	77,783	3,5	1006,62	6,8	8,8	8,6	1	1	1	1	1	1	1	1	1	0	1	-52,290345	274,135813	267,927962	0
14.01.2021	22:01:11	0	0	4,745212	3,546	91,548	0,206	77,782	3,5	1006,76	6,8	8,7	8,6	1	1	1	1	1	1	1	1	1	0	1	-50,387597	274,257298	270,398718	0
14.01.2021	22:01:12	0	0	5,084156	3,66675	88,5492	0,208	77,778	3,5	1006,8	6,8	8,8	8,6	1	1	1	1	1	1	1	1	1	0	1	-56,800564	274,261812	264,006872	0
14.01.2021	22:01:13	0	0	3,954344	3,8085	83,3508	0,209	77,768	3,5	1006,68	6,8	8,8	8,6	1	1	1	1	1	1	1	1	1	0	1	-52,078929	274,164241	268,272227	0
14.01.2021	22:01:14	0	0	3,728381	3,6975	96,5988	0,203	77,768	3,5	1006,76	6,8	8,7	8,6	1	1	1	1	1	1	1	1	1	0	1	-46,511628	274,083555	273,46258	0
14.01.2021	22:01:15	0	0	2,937512	4,03125	90,7524	0,21	77,764	3,5	1006,74	6,8	8,7	8,6	1	1	1	1	1	1	1	1	1	0	1	-49,82382	274,128339	270,359568	0
14.01.2021	22:01:16	0	0	2,598569	3,68175	85,1832	0,208	77,779	3,5	1006,78	6,8	8,7	8,6	1	1	1	1	1	1	1	1	1	0	1	-54,40451	274,076101	265,534891	0
14.01.2021	22:01:17	0	0	4,51925	3,58575	84,06	0,205	77,771	3,5	1006,64	6,8	8,8	8,6	1	1	1	1	1	1	1	1	1	0	1	-52,924595	274,260308	267,8758	0
14.01.2021	22:01:18	0	0	3,502419	3,684	80,532	0,209	77,765	3,5	1006,72	6,8	8,7	8,6	1	1	1	1	1	1	1	1	1	0	1	-52,078929	274,116386	268,04862	0
14.01.2021	22:01:19	0	0	2,824531	3,76575	84,0384	0,203	77,773	3,5	1006,7	6,8	8,7	8,6	1	1	1	1	1	1	1	1	1	0	1	-50,035236	274,098471	270,008633	0
14.01.2021	22:01:20	0	0	4,971175	3,6495	93,7296	0,205	77,771	3,5	1006,66	6,8	8,7	8,6	1	1	1	1	1	1	1	1	1	0	1	-55,03876	274,248273	265,705332	0
14.01.2021	22:01:21	0	0	3,841362	3,7785	95,5152	0,212	77,78	3,5	1006,72	6,8	8,7	8,6	1	1	1	1	1	1	1	1	1	0	1	-51,79704	274,207712	268,757341	0
14.01.2021	22:01:22	0	0	5,084156	4,095	88,1316	0,212	77,771	3,5	1006,78	6,8	8,7	8,6	1	1	1	1	1	1	1	1	1	0	1	-50,951374	274,255794	269,827902	0
14.01.2021	22:01:23	0	0	3,841362	4,38975	86,292	0,207	77,76	3,5	1006,74	6,8	8,8	8,6	1	1	1	1	1	1	1	1	1	0	1	-48,696265	274,131328	271,501088	0
14.01.2021	22:01:24	0	0	3,728381	4,479	80,8776	0,208	77,749	3,5	1006,76	6,8	8,8	8,6	1	1	1	1	1	1	1	1	1	0	1	-52,149401	274,221223	268,468163	0
14.01.2021	22:01:25	0	0	3,954344	4,218	90,0396	0,205	77,763	3,5	1006,68	6,8	8,8	8,6	1	1	1	1	1	1	1	1	1	0	1	-50,105708	274,07312	269,819775	0
14.01.2021	22:01:26	0	0	4,858193	4,0635	81,1944	0,206	77,772	3,5	1006,64	6,8	8,8	8,6	1	1	1	1	1	1	1	1	1	0	1	-50,528541	274,210713	270,039876	0
14.01.2021	22:01:27	0	0	2,824531	3,969	81,2088	0,211	77,779	3,5	1006,76	6,8	8,7	8,6	1	1	1	1	1	1	1	1	1	0	1	-51,374207	274,236246	269,313623	0
14.01.2021	22:01:28	0	0	3,841362	3,93075	67,6584	0,206	77,779	3,5	1006,82	6,8	8,8	8,6	1	1	1	1	1	1	1	1	1	0	1	-46,934461	274,255794	273,844815	0
14.01.2021	22:01:29	0	0	4,632231	3,94125	75,2256	0,205	77,78	3,5	1006,64	6,8	8,7	8,6	1	1	1	1	1	1	1	1	1	0	1	-46,5821	274,219721	274,028441	0
14.01.2021	22:01:30	0	0	3,163475	3,732	66,2184	0,207	77,774	3,5	1006,66	6,8	8,8	8,6	1	1	1	1	1	1	1	1	1	0	1	-51,021846	274,204711	269,518501	0
14.01.2021	22:01:31	0	0	3,050494	3,53625	77,2236	0,206	77,778	3,5	1006,8	6,8	8,7	8,6	1	1	1	1	1	1	1	1	1	0	1	-47,21635	274,088029	272,77875	0
14.01.2021	22:01:32	0	0	2,598569	3,516	83,3364	0,207	77,78	3,5	1006,7	6,8	8,7	8,6	1	1	1	1	1	1	1	1	1	0	1	-49,260042	274,108919	270,832628	0
14.01.2021	22:01:33	0	0	2,71155	3,66225	90,8064	0,204	77,782	3,5	1006,74	6,8	8,7	8,6	1	1	1	1	1	1	1	1	1	0	1	-50,458069	274,080573	269,502214	0
14.01.2021	22:01:34	0	0	3,276456	3,5505	87,3756	0,208	77,759	3,5	1006,68	6,8	8,7	8,6	1	1	1	1	1	1	1	1	1	0	1	-51,585624	274,254289	269,186614	0
14.01.2021	22:01:35	0	0	2,937512	3,66975	87,3252	0,21	77,762	3,5	1006,76	6,8	8,8	8,6	1	1	1	1	1	1	1	1	1	0	1	-45,806906	274,170231	274,572247	0
14.01.2021	22:01:36	0	0	4,406268	3,78825	63,1764	0,209	77,755	3,5	1006,78	6,8	8,8	8,6	1	1	1	1	1	1	1	1	1	0	1	-45,947851	274,110413	274,151794	0
14.01.2021	22:01:37	0	0	4,406268	3,56475	79,0344	0,21	77,756	3,5	1006,76	6,8	8,8	8,6	1	1	1	1	1	1	1	1	1	0	1	-47,21635	274,086537	272,771785	0
14.01.2021	22:01:38	0	0	4,632231	3,6765	84,0276	0,207	77,753	3,5	1006,78	6,8	8,7	8,6	1	1	1	1	1	1	1	1	1	0	1	-48,484848	274,128339	271,698539	0
14.01.2021	22:01:39	0	0	4,180306	3,56625	73,44	0,213	77,745	3,5	1006,74	6,8	8,7	8,6	1	1	1	1	1	1	1	1	1	0	1	-52,360817	274,252785	268,404383	0
14.01.2021	22:01:40	0	0	2,71155	3,49125	103,7052	0,205	77,73	3,5	1006,74	6,8	8,8	8,6	1	1	1	1	1	1	1	1	1	0	1	-52,360817	274,076101	267,578584	0
14.01.2021	22:01:41	0	0	4,858193	3,4635	77,1948	0,208	77,739	3,5	1006,88	6,8	8,8	8,6	1	1	1	1	1	1	1	1	1	0	1	-51,162791	274,227231	269,482872	0
14.01.2021	22:01:42	0	0	4,858193	3,38475	93,3372	0,211	77,74	3,5	1006,78	6,8	8,7	8,6	1	1	1	1	1	1	1	1	1	0	1	-49,541931	274,138803	270,69035	0
14.01.2021	22:01:43	0	0	5,197137	3,74325	89,334	0,21	77,74	3,5	1006,94	6,8	8,8	8,6	1	1	1	1	1	1	1	1	1	0	1	-47,075405	274,095487	272,954526	0
14.01.2021	22:01:44	0	0	4,858193	3,99225	71,6076	0,208	77,732	3,5	1006,7	6,8	8,8	8,6	1	1	1	1	1	1	1	1	1	0	1	-52,149401	274,20021	268,369902	0
14.01.2021	22:01:45	0	0	5,197137	3,903	90,054	0,209	77,732	3,5	1006,76	6,8	8,8	8,6	1	1	1	1	1	1	1	1	1	0	1	-50,81043	274,153762	269,491754	0
14.01.2021	22:01:46	0	0	2,824531	3,79575	91,1664	0,21	77,766	3,5	1006,62	6,8	8,8	8,6	1	1	1	1	1	1	1	1	1	0	1	-50,105708	274,230235	270,554008	0
14.01.2021	22:01:47	0	0	4,067325	3,8625	94,7556	0,21	77,708	3,5	1006,68	6,8	8,7	8,6	1	1	1	1	1	1	1	1	1	0	1	-53,347428	274,209212	267,213971	0
14.01.2021	22:01:48	0	0	2,824531	4,03575	98,082	0,206	77,714	3,5	1006,74	6,8	8,8	8,6	1	1	1	1	1	1	1	1	1	0	1	-50,739958	274,224226	269,891654	0
14.01.2021	22:01:49	0	0	4,858193	3,92025	95,1372	0,209	77,715	3,5	1006,88	6,8	8,7	8,6	1	1	1	1	1	1	1	1	1	0	1	-48,555321	274,270844	272,294374	0
14.01.2021	22:01:50	0	0	2,824531	3,65325	84,4272	0,213	77,721	3,5	1006,72	6,8	8,7	8,6	1	1	1	1	1	1	1	1	1	0	1	-49,541931	274,189712	270,928289	0
14.01.2021	22:01:51	0	0	3,276456	3,39	92,6244	0,206	77,71	3,5	1006,86	6,8	8,7	8,6	1	1	1	1	1	1	1	1	1	0	1	-53,206483	274,257298	267,579831	0
14.01.2021	22:01:52	0	0	3,276456	3,18525	85,5144	0,208	77,732	3,5	1006,72	6,8	8,7	8,6	1	1	1	1	1	1	1	1	1	0	1	-54,686399	274,240755	266,022524	0
14.01.2021	22:01:53	0	0	3,163475	2,9865	79,416	0,201	77,731	3,5	1006,72	6,8	8,7	8,6	1	1	1	1	1	1	1	1	1	0	1	-48,484848	274,17922	271,936322	0
14.01.2021	22:01:54	0	0	2,824531	2,8575	73,0944	0,208	77,715	3,5	1006,7	6,8	8,7	8,6	1	1	1	1	1	1	1	1	1	0	1	-50,105708	274,204711	270,43464	0
14.01.2021	22:01:55	0	0	4,406268	2,89725	90,7704	0,203	77,71	3,5	1006,66	6,8	8,7	8,6	1	1	1	1	1	1	1	1	1	0	1	-49,682875	274,07163	270,235651	0
14.01.2021	22:01:56	0	0	5,084156	3,11925	95,8464	0,206	77,714	3,5	1006,86	6,8	8,7	8,6	1	1	1	1	1	1	1	1	1	0	1	-52,713178	274,227231	267,932484	0
14.01.2021	22:01:57	0	0	2,598569	3,11325	85,2012	0,208	77,693	3,5	1006,74	6,8	8,7	8,6	1	1	1	1	1	1	1	1	1	0	1	-52,219873	274,204711	268,320475	0
14.01.2021	22:01:58	0	0	4,51925	2,96025	77,5728	0,202	77,702	3,5	1006,86	6,8	8,8	8,6	1	1	1	1	1	1	1	1	1	0	1	-49,753347	274,264822	271,068172	0
14.01.2021	22:01:59	0	0	2,033662	2,86725	78,3828	0,206	77,697	3,5	1006,68	6,8	8,8	8,6	1	1	1	1	1	1	1	1	1	0	1	-50,317125	274,062691	269,559667	0
14.01.2021	22:02:00	0	0	2,259625	3,1125	86,292	0,212	77,689	3,5	1006,78	6,8	8,7	8,6	1	1	1	1	1	1	1	1	1	0	1	-54,193094	274,061202	265,676745	0
14.01.2021	22:02:01	0	0	2,259625	3,1125	86,292	0,212	77,689	3,5	1006,78	6,8	8,7	8,6	1	1	1	1	1	1	1	1	1	0	1	-54,193094	274,061202	265,676745	0
14.01.2021	22:02:02	0	0	5,084156	3,23475	88,1028	0,204	77,669	3,5	1006,8	6,8	8,7	8,6	1	1	1	1	1	1	1	1	1	0	1	-49,612403	274,076101	270,326999	0
14.01.2021	22:02:03	0	0	4,406268	3,59775	87,0084	0,209	77,66	3,5	1006,76	6,8	8,8	8,6	1	1	1	1	1	1	1	1	1	0	1	-51,021846	274,138803	269,210434	0
14.01.2021	22:02:04	0	0	2,259625	3,64275	100,3572	0,203	77,656	3,5	1006,78	6,8	8,7	8,6	1	1	1	1	1	1	1	1	1	0	1	-52,924595	274,242259	267,791361	0
14.01.2021	22:02:05	0	0	4,406268	3,44325	107,7408	0,206	77,65	3,5	1006,78	6,8	8,8	8,6	1	1	1	1	1	1	1	1	1	0	1	-57,01198	274,248273	263,732111	0
14.01.2021	22:02:06	0	0	2,485587	3,24975	86,6628	0,208	77,651	3,5	1006,8	6,8	8,7	8,6	1	1	1	1	1	1	1	1	1	0	1	-51,444679	274,155259	268,864498	0
14.01.2021	22:02:07	0	0	2,598569	3,252	83,34	0,209	77,657	3,5	1006,72	6,8	8,7	8,6	1	1	1	1	1	1	1	1	1	0	1	-51,726568	274,06716	268,171088	0
14.01.2021	22:02:08	0	0	3,050494	3,1095	86,9652	0,208	77,671	3,5	1006,64	6,8	8,7	8,6	1	1	1	1	1	1	1	1	1	0	1	-51,021846	274,128339	269,161541	0
14.01.2021	22:02:09	0	0	3,502419	2,91	88,6572	0,209	77,676	3,5	1006,88	6,8	8,7	8,6	1	1	1	1	1	1	1	1	1	0	1	-51,585624	274,213715	268,996832	0
14.01.2021	22:02:10	0	0	4,293287	2,73825	84,7872	0,204	77,666	3,5	1006,62	6,8	8,7	8,6	1	1	1	1	1	1	1	1	1	0	1	-50,387597	274,23324	270,286175	0
14.01.2021	22:02:11	0	0	4,180306	2,63625	81,954	0,203	77,685	3,5	1006,66	6,8	8,8	8,6	1	1	1	1	1	1	1	1	1	0	1	-48,766737	274,192711	271,717503	0
14.01.2021	22:02:12	0	0	3,163475	2,685	94,7736	0,203	77,682	3,5	1006,68	6,8	8,7	8,6	1	1	1	1	1	1	1	1	1	0	1	-47,639183	274,12535	272,530241	0
14.01.2021	22:02:13	0	0	4,632231	2,75475	90,396	0,206	77,704	3,5	1006,88	6,8	8,7	8,6	1	1	1	1	1	1	1	1	1	0	1	-53,276956	274,242259	267,439	0
14.01.2021	22:02:14	0	0	4,51925	2,99325	80,8884	0,199	77,695	3,5	1006,76	6,8	8,7	8,6	1	1	1	1	1	1	1	1	1	0	1	-50,880902	274,061202	268,988936	0
14.01.2021	22:02:15	0	0	3,276456	3,4965	91,836	0,2	77,684	3,5	1006,46	6,8	8,7	8,6	1	1	1	1	1	1	1	1	1	0	1	-50,387597	274,215217	270,201879	0
14.01.2021	22:02:16	0	0	2,824531	3,52875	89,3376	0,199	77,695	3,5	1006,66	6,8	8,8	8,6	1	1	1	1	1	1	1	1	1	0	1	-51,585624	274,191211	268,891607	0
14.01.2021	22:02:17	0	0	2,824531	3,3675	92,6496	0,206	77,701	3,5	1006,82	6,8	8,8	8,6	1	1	1	1	1	1	1	1	1	0	1	-54,334038	274,06716	265,563618	0
14.01.2021	22:02:18	0	0	4,632231	3,0885	84,4272	0,2	77,699	3,5	1006,7	6,8	8,7	8,6	1	1	1	1	1	1	1	1	1	0	1	-50,951374	274,228733	269,701315	0
14.01.2021	22:02:19	0	0	4,971175	3,006	90,8028	0,202	77,691	3,5	1006,78	6,8	8,7	8,6	1	1	1	1	1	1	1	1	1	0	1	-53,4179	274,215217	267,171576	0
14.01.2021	22:02:20	0	0	2,937512	2,9715	90,4896	0,208	77,704	3,5	1006,74	6,8	8,7	8,6	1	1	1	1	1	1	1	1	1	0	1	-49,119098	274,212214	271,456338	0
14.01.2021	22:02:21	0	0	3,163475	2,94075	81,9684	0,207	77,672	3,5	1006,7	6,8	8,7	8,6	1	1	1	1	1	1	1	1	1	0	1	-51,867512	274,07163	268,051013	0
14.01.2021	22:02:22	0	0	2,71155	2,90025	80,892	0,197	77,694	3,5	1006,76	6,7	8,7	8,6	1	1	1	1	1	1	1	1	1	0	1	-49,471459	274,108919	270,621212	0
14.01.2021	22:02:23	0	0	3,389458	2,99325	81,2016	0,206	77,684	3,5	1006,74	6,8	8,7	8,5	1	1	1	1	1	1	1	1	1	0	1	-51,79704	274,107427	268,288657	0
14.01.2021	22:02:24	0	0	3,276456	3,189	82,9692	0,204	77,682	3,5	1006,88	6,8	8,7	8,6	1	1	1	1	1	1	1	1	1	0	1	-52,360817	274,107427	267,724879	0
14.01.2021	22:02:25	0	0	3,163475	3,25575	72,2844	0,203	77,652	3,5	1006,68	6,7	8,7	8,6	1	1	1	1	1	1	1	1	1	0	1	-52,360817	274,129833	267,829552	0
14.01.2021	22:02:26	0	0	5,084156	3,15225	91,1412	0,205	77,669	3,5	1006,64	6,8	8,8	8,6	1	1	1	1	1	1	1	1	1	0	1	-50,951374	274,062691	268,925418	0
14.01.2021	22:02:27	0	0	2,485602	2,886	71,9928	0,199	77,652	3,5	1006,78	6,8	8,7	8,5	1	1	1	1	1	1	1	1	1	0	1	-48,625793	274,210713	271,942624	0
14.01.2021	22:02:28	0	0	4,858193	2,76225	95,9076	0,203	77,655	3,5	1006,78	6,8	8,7	8,6	1	1	1	1	1	1	1	1	1	0	1	-51,162791	274,111906	268,943829	0
14.01.2021	22:02:29	0	0	3,502419	2,5815	83,718	0,203	77,643	3,5	1006,72	6,8	8,7	8,6	1	1	1	1	1	1	1	1	1	0	1	-53,629316	274,248273	267,114775	0
14.01.2021	22:02:30	0	0	4,51925	2,517	78,2568	0,199	77,627	3,5	1006,74	6,8	8,7	8,6	1	1	1	1	1	1	1	1	1	0	1	-50,528541	274,102948	269,536239	0
14.01.2021	22:02:31	0	0	4,745212	2,59425	79,7436	0,204	77,633	3,5	1006,86	6,7	8,7	8,6	1	1	1	1	1	1	1	1	1	0	1	-50,81043	274,138803	269,421851	0
14.01.2021	22:02:32	0	0	2,37262	2,65125	82,6128	0,2	77,63	3,5	1006,86	6,8	8,7	8,5	1	1	1	1	1	1	1	1	1	0	1	-49,894292	274,06865	270,01032	0
14.01.2021	22:02:33	0	0	4,406295	2,69175	85,518	0,203	77,613	3,5	1006,78	6,8	8,7	8,5	1	1	1	1	1	1	1	1	1	0	1	-50,105708	274,239252	270,596183	0
14.01.2021	22:02:34	0	0	3,050494	2,796	88,5852	0,195	77,609	3,5	1006,72	6,8	8,7	8,6	1	1	1	1	1	1	1	1	1	0	1	-49,612403	274,095487	270,417528	0
14.01.2021	22:02:35	0	0	2,824531	2,90775	88,56	0,205	77,627	3,5	1006,88	6,8	8,7	8,6	1	1	1	1	1	1	1	1	1	0	1	-51,162791	274,191211	269,314439	0
14.01.2021	22:02:36	0	0	2,598569	3,108	87,3576	0,198	77,619	3,5	1006,8	6,8	8,7	8,6	1	1	1	1	1	1	1	1	1	0	1	-46,229739	274,058223	273,626194	0
14.01.2021	22:02:37	0	0	4,51925	3,237	86,256	0,202	77,615	3,5	1006,72	6,8	8,7	8,6	1	1	1	1	1	1	1	1	1	0	1	-51,937984	274,20021	268,581318	0
14.01.2021	22:02:38	0	0	2,71155	3,22575	88,9704	0,203	77,622	3,5	1006,76	6,8	8,7	8,6	1	1	1	1	1	1	1	1	1	0	1	-51,444679	274,101456	268,613129	0
14.01.2021	22:02:39	0	0	4,632231	2,9895	69,4548	0,204	77,629	3,5	1006,9	6,8	8,7	8,6	1	1	1	1	1	1	1	1	1	0	1	-49,048626	274,061202	270,821213	0
14.01.2021	22:02:40	0	0	4,632231	2,96025	79,038	0,199	77,619	3,5	1006,68	6,8	8,7	8,6	1	1	1	1	1	1	1	1	1	0	1	-52,008457	274,228733	268,644232	0
14.01.2021	22:02:41	0	0	4,51925	3,02925	73,782	0,2	77,619	3,5	1006,8	6,8	8,7	8,6	1	1	1	1	1	1	1	1	1	0	1	-51,233263	274,228733	269,419426	0
14.01.2021	22:02:42	0	0	2,259638	3,114	74,916	0,202	77,627	3,5	1006,68	6,8	8,7	8,5	1	1	1	1	1	1	1	1	1	0	1	-52,008457	274,231738	268,658287	0
14.01.2021	22:02:43	0	0	2,598569	3,294	77,5908	0,198	77,617	3,5	1006,76	6,8	8,7	8,6	1	1	1	1	1	1	1	1	1	0	1	-51,585624	274,064181	268,298122	0
14.01.2021	22:02:44	0	0	3,502419	3,50025	73,0548	0,197	77,622	3,5	1006,76	6,7	8,7	8,6	1	1	1	1	1	1	1	1	1	0	1	-51,303735	274,088029	268,691364	0
14.01.2021	22:02:45	0	0	4,632231	3,5565	79,7544	0,202	77,628	3,5	1006,9	6,8	8,7	8,6	1	1	1	1	1	1	1	1	1	0	1	-53,558844	274,123856	266,603598	0
14.01.2021	22:02:46	0	0	3,050494	3,645	77,976	0,202	77,63	3,5	1006,76	6,8	8,7	8,6	1	1	1	1	1	1	1	1	1	0	1	-51,867512	274,105934	268,211212	0
14.01.2021	22:02:47	0	0	2,824531	3,82575	75,708	0,2	77,629	3,5	1006,82	6,8	8,7	8,6	1	1	1	1	1	1	1	1	1	0	1	-49,260042	274,07014	270,651526	0
14.01.2021	22:02:48	0	0	4,067325	3,96375	75,5748	0,195	77,62	3,5	1006,74	6,8	8,7	8,6	1	1	1	1	1	1	1	1	1	0	1	-49,894292	274,083555	270,079916	0
14.01.2021	22:02:49	0	0	2,71155	4,10625	79,416	0,199	77,615	3,5	1006,58	6,8	8,7	8,6	1	1	1	1	1	1	1	1	1	0	1	-55,602537	274,188213	264,860674	0
14.01.2021	22:02:50	0	0	2,71155	4,33275	79,7724	0,205	77,62	3,5	1006,74	6,8	8,7	8,6	1	1	1	1	1	1	1	1	1	0	1	-51,374207	274,085046	268,606964	0
14.01.2021	22:02:51	0	0	3,502419	4,7385	77,2092	0,194	77,611	3,5	1006,82	6,8	8,7	8,6	1	1	1	1	1	1	1	1	1	0	1	-49,612403	274,046314	270,187937	0
14.01.2021	22:02:52	0	0	4,293313	5,178	80,8812	0,199	77,616	3,5	1006,76	6,7	8,7	8,5	1	1	1	1	1	1	1	1	1	0	1	-48,766737	274,129833	271,423633	0
14.01.2021	22:02:53	0	0	3,728381	5,40225	81,234	0,201	77,609	3,5	1006,88	6,8	8,7	8,6	1	1	1	1	1	1	1	1	1	0	1	-51,374207	274,056734	268,474775	0
14.01.2021	22:02:54	0	0	3,728403	5,334	65,088	0,199	77,599	3,5	1006,8	6,8	8,7	8,5	1	1	1	1	1	1	1	1	1	0	1	-49,260042	274,228733	271,392647	0
14.01.2021	22:02:55	0	0	3,163494	4,7085	76,374	0,196	77,603	3,5	1006,74	6,8	8,7	8,5	1	1	1	1	1	1	1	1	1	0	1	-49,612403	274,185214	270,836792	0
14.01.2021	22:02:56	0	0	3,841385	4,24725	84,0492	0,192	77,591	3,5	1006,66	6,8	8,7	8,5	1	1	1	1	1	1	1	1	1	0	1	-49,048626	274,161246	271,288534	0
14.01.2021	22:02:57	0	0	4,067325	4,13175	94,3848	0,192	77,584	3,5	1006,76	6,8	8,7	8,6	1	1	1	1	1	1	1	1	1	0	1	-47,850599	274,049291	271,963636	0
14.01.2021	22:02:58	0	0	4,632231	4,08525	84,7944	0,192	77,563	3,5	1006,7	6,8	8,7	8,6	1	1	1	1	1	1	1	1	1	0	1	-49,964764	274,093995	270,0582	0
14.01.2021	22:02:59	0	0	4,519277	4,27575	79,7544	0,194	77,572	3,5	1006,74	6,8	8,7	8,5	1	1	1	1	1	1	1	1	1	0	1	-49,119098	274,129833	271,071272	0
14.01.2021	22:03:00	0	0	4,067325	4,61325	84,7908	0,193	77,565	3,5	1006,8	6,8	8,7	8,6	1	1	1	1	1	1	1	1	1	0	1	-50,81043	274,20171	269,715887	0
14.01.2021	22:03:01	0	0	4,067325	4,61325	84,7908	0,193	77,565	3,5	1006,8	6,8	8,7	8,6	1	1	1	1	1	1	1	1	1	0	1	-50,81043	274,20171	269,715887	0
14.01.2021	22:03:02	0	0	5,084156	4,9545	78,2856	0,198	77,574	3,5	1006,74	6,7	8,7	8,6	1	1	1	1	1	1	1	1	1	0	1	-48,766737	274,101456	271,291072	0
14.01.2021	22:03:03	0	0	3,728381	5,019	92,9592	0,198	77,572	3,5	1006,74	6,7	8,7	8,6	1	1	1	1	1	1	1	1	1	0	1	-51,092319	274,058223	268,763615	0
14.01.2021	22:03:04	0	0	3,6154	4,6755	92,6244	0,195	77,575	3,5	1006,78	6,7	8,7	8,6	1	1	1	1	1	1	1	1	1	0	1	-49,964764	274,122361	270,190699	0
14.01.2021	22:03:05	0	0	3,389437	4,59	90,7668	0,19	77,573	3,5	1006,76	6,8	8,7	8,6	1	1	1	1	1	1	1	1	1	0	1	-48,20296	274,237749	272,491901	0
14.01.2021	22:03:06	0	0	3,6154	4,42125	99,918	0,193	77,567	3,5	1006,8	6,7	8,7	8,6	1	1	1	1	1	1	1	1	1	0	1	-50,387597	274,20171	270,13872	0
14.01.2021	22:03:07	0	0	2,598569	4,1865	92,6388	0,192	77,572	3,5	1006,78	6,7	8,7	8,6	1	1	1	1	1	1	1	1	1	0	1	-50,458069	274,173227	269,935088	0
14.01.2021	22:03:08	0	0	2,598569	4,30425	85,5252	0,189	77,573	3,5	1006,76	6,7	8,7	8,6	1	1	1	1	1	1	1	1	1	0	1	-51,303735	274,231738	269,363009	0
14.01.2021	22:03:09	0	0	5,084156	4,1355	88,5528	0,186	77,592	3,5	1006,78	6,7	8,7	8,6	1	1	1	1	1	1	1	1	1	0	1	-51,374207	274,213715	269,208249	0
14.01.2021	22:03:10	0	0	4,858193	4,2195	85,5288	0,197	77,59	3,5	1006,78	6,7	8,7	8,6	1	1	1	1	1	1	1	1	1	0	1	-55,461593	274,177721	264,952573	0
14.01.2021	22:03:11	0	0	2,711566	4,20825	66,2256	0,188	77,599	3,5	1006,8	6,7	8,7	8,5	1	1	1	1	1	1	1	1	1	0	1	-52,572234	274,083555	267,401974	0
14.01.2021	22:03:12	0	0	4,519277	4,425	62,4132	0,189	77,591	3,5	1006,78	6,7	8,7	8,5	1	1	1	1	1	1	1	1	1	0	1	-52,219873	274,221223	268,397691	0
14.01.2021	22:03:13	0	0	2,485587	4,824	72,6552	0,19	77,62	3,5	1006,82	6,8	8,7	8,6	1	1	1	1	1	1	1	1	1	0	1	-51,515152	274,122361	268,640311	0
14.01.2021	22:03:14	0	0	4,51925	5,27025	68,7744	0,192	77,606	3,5	1006,8	6,8	8,7	8,6	1	1	1	1	1	1	1	1	1	0	1	-59,196617	274,07163	260,721908	0
14.01.2021	22:03:15	0	0	3,954344	5,30025	64,6272	0,185	77,623	3,5	1006,6	6,8	8,7	8,6	1	1	1	1	1	1	1	1	1	0	1	-47,004933	274,052268	272,823199	0
14.01.2021	22:03:16	0	0	5,197168	5,154	60,6384	0,197	77,659	3,5	1006,76	6,7	8,7	8,5	1	1	1	1	1	1	1	1	1	0	1	-48,273432	274,20321	272,2599	0
14.01.2021	22:03:17	0	0	4,858223	4,824	62,028	0,19	77,676	3,5	1006,84	6,7	8,7	8,5	1	1	1	1	1	1	1	1	1	0	1	-48,625793	274,146281	271,641431	0
14.01.2021	22:03:18	0	0	3,163494	4,91175	84,0456	0,183	77,704	3,5	1006,7	6,7	8,8	8,5	1	1	1	1	1	1	1	1	1	0	1	-53,206483	274,230235	267,453233	0
14.01.2021	22:03:19	0	0	2,824531	5,2155	80,5284	0,19	77,695	3,5	1006,88	6,7	8,7	8,6	1	1	1	1	1	1	1	1	1	0	1	-51,303735	274,055245	268,538296	0
14.01.2021	22:03:20	0	0	2,598584	4,9335	75,24	0,189	77,724	3,5	1006,74	6,7	8,7	8,5	1	1	1	1	1	1	1	1	1	0	1	-51,233263	274,182217	269,201919	0
14.01.2021	22:03:21	0	0	4,971205	4,35375	85,5252	0,18	77,719	3,5	1006,48	6,8	8,7	8,5	1	1	1	1	1	1	1	1	1	0	1	-51,374207	274,23324	269,299565	0
14.01.2021	22:03:22	0	0	3,050512	3,96975	79,0344	0,189	77,757	3,5	1006,54	6,7	8,7	8,5	1	1	1	1	1	1	1	1	1	0	1	-51,092319	274,079082	268,861004	0
14.01.2021	22:03:23	0	0	3,954344	4,3995	80,6112	0,185	77,767	3,5	1006,62	6,7	8,7	8,6	1	1	1	1	1	1	1	1	1	0	1	-52,219873	274,108919	267,872797	0
14.01.2021	22:03:24	0	0	2,824548	4,3275	84,4236	0,188	77,784	3,5	1006,88	6,7	8,7	8,5	1	1	1	1	1	1	1	1	1	0	1	-49,260042	274,167235	271,105111	0
14.01.2021	22:03:25	0	0	2,937512	4,13925	74,9088	0,189	77,801	3,5	1006,76	6,8	8,7	8,6	1	1	1	1	1	1	1	1	1	0	1	-53,4179	274,234743	267,262901	0
14.01.2021	22:03:26	0	0	3,163494	4,113	74,538	0,19	77,81	3,5	1006,74	6,7	8,7	8,5	1	1	1	1	1	1	1	1	1	0	1	-49,894292	274,239252	270,8076	0
14.01.2021	22:03:27	0	0	3,276456	4,059	58,1004	0,181	77,813	3,5	1006,62	6,8	8,7	8,6	1	1	1	1	1	1	1	1	1	0	1	-51,162791	274,174725	269,237368	0
14.01.2021	22:03:28	0	0	4,971175	4,038	45,5292	0,182	77,826	3,5	1006,68	6,8	8,7	8,6	1	1	1	1	1	1	1	1	1	0	1	-49,964764	274,180718	270,463412	0
14.01.2021	22:03:29	0	0	3,050512	4,32975	55,5552	0,192	77,843	3,5	1006,82	6,7	8,7	8,5	1	1	1	1	1	1	1	1	1	0	1	-48,555321	274,096979	271,481579	0
14.01.2021	22:03:30	0	0	3,389458	4,4985	59,5692	0,191	77,871	3,5	1007,02	6,7	8,7	8,5	1	1	1	1	1	1	1	1	1	0	1	-49,119098	274,230235	271,540618	0
14.01.2021	22:03:31	0	0	4,293287	4,401	59,4828	0,192	77,837	3,5	1006,66	6,8	8,8	8,6	1	1	1	1	1	1	1	1	1	0	1	-55,813953	274,20171	264,712364	0
14.01.2021	22:03:32	0	0	2,598584	4,0515	57,0168	0,191	77,838	3,5	1006,76	6,7	8,8	8,5	1	1	1	1	1	1	1	1	1	0	1	-53,770261	274,059713	266,092625	0
14.01.2021	22:03:33	0	0	4,519277	3,5175	79,4016	0,19	77,83	3,5	1006,66	6,8	8,7	8,5	1	1	1	1	1	1	1	1	1	0	1	-49,471459	274,225728	271,167178	0
14.01.2021	22:03:34	0	0	4,971205	3,327	94,788	0,183	77,817	3,5	1006,7	6,7	8,7	8,5	1	1	1	1	1	1	1	1	1	0	1	-49,682875	274,19421	270,808376	0
14.01.2021	22:03:35	0	0	3,841385	3,2655	77,958	0,188	77,845	3,5	1006,68	6,7	8,7	8,5	1	1	1	1	1	1	1	1	1	0	1	-46,723044	274,20321	273,810288	0
14.01.2021	22:03:36	0	0	3,841385	3,396	80,5176	0,186	77,846	3,5	1006,76	6,7	8,7	8,5	1	1	1	1	1	1	1	1	1	0	1	-53,558844	274,074611	266,373598	0
14.01.2021	22:03:37	0	0	3,163494	3,5535	82,3428	0,19	77,851	3,5	1006,78	6,7	8,7	8,5	1	1	1	1	1	1	1	1	1	0	1	-53,065539	274,213715	267,516917	0
14.01.2021	22:03:38	0	0	2,71155	3,48675	85,5108	0,195	77,833	3,5	1006,6	6,7	8,7	8,6	1	1	1	1	1	1	1	1	1	0	1	-51,867512	274,243762	268,855476	0
14.01.2021	22:03:39	0	0	4,971205	3,41025	89,6796	0,187	77,804	3,5	1006,78	6,8	8,8	8,5	1	1	1	1	1	1	1	1	1	0	1	-51,374207	274,228733	269,278482	0
14.01.2021	22:03:40	0	0	4,180331	3,4275	81,5652	0,188	77,831	3,5	1006,74	6,7	8,7	8,5	1	1	1	1	1	1	1	1	1	0	1	-51,162791	274,215217	269,426686	0
14.01.2021	22:03:41	0	0	2,824531	3,549	92,2644	0,192	77,835	3,5	1007,04	6,7	8,7	8,6	1	1	1	1	1	1	1	1	1	0	1	-51,515152	274,191211	268,962079	0
14.01.2021	22:03:42	0	0	2,824548	4,056	84,4164	0,193	77,822	3,5	1006,72	6,8	8,7	8,5	1	1	1	1	1	1	1	1	1	0	1	-51,162791	274,107427	268,922906	0
14.01.2021	22:03:43	0	0	4,745241	4,5825	90,3852	0,194	77,828	3,5	1006,78	6,8	8,8	8,5	1	1	1	1	1	1	1	1	1	0	1	-51,515152	274,258803	269,278203	0
14.01.2021	22:03:44	0	0	2,824548	4,9785	86,9868	0,19	77,821	3,5	1006,88	6,8	8,7	8,5	1	1	1	1	1	1	1	1	1	0	1	-48,978154	274,099963	271,072685	0
14.01.2021	22:03:45	0	0	4,293287	5,37225	75,618	0,19	77,814	3,5	1006,66	6,8	8,7	8,6	1	1	1	1	1	1	1	1	1	0	1	-50,81043	274,19871	269,701859	0
14.01.2021	22:03:46	0	0	4,858223	5,8995	77,9868	0,196	77,811	3,5	1006,76	6,7	8,7	8,5	1	1	1	1	1	1	1	1	1	0	1	-49,330514	274,079082	270,622808	0
14.01.2021	22:03:47	0	0	4,632259	5,94675	71,2152	0,196	77,789	3,5	1006,78	6,8	8,7	8,5	1	1	1	1	1	1	1	1	1	0	1	-48,20296	274,219721	272,407581	0
14.01.2021	22:03:48	0	0	4,180331	6,0345	74,1564	0,189	77,794	3,5	1006,7	6,7	8,8	8,5	1	1	1	1	1	1	1	1	1	0	1	-52,78365	274,126844	267,392755	0
14.01.2021	22:03:49	0	0	3,389458	6,31125	64,2456	0,19	77,795	3,5	1006,7	6,8	8,8	8,5	1	1	1	1	1	1	1	1	1	0	1	-50,81043	274,248273	269,933661	0
14.01.2021	22:03:50	0	0	4,632259	6,51525	59,85	0,196	77,81	3,5	1006,8	6,7	8,7	8,5	1	1	1	1	1	1	1	1	1	0	1	-50,458069	274,191211	270,019161	0
14.01.2021	22:03:51	0	0	2,37262	6,432	61,2936	0,195	77,817	3,5	1006,7	6,7	8,8	8,5	1	1	1	1	1	1	1	1	1	0	1	-51,444679	274,093995	268,578284	0
14.01.2021	22:03:52	0	0	2,711566	6,05175	83,3652	0,193	77,829	3,5	1006,66	6,7	8,7	8,5	1	1	1	1	1	1	1	1	1	0	1	-49,753347	274,06865	270,151264	0
14.01.2021	22:03:53	0	0	2,711566	5,85675	95,5332	0,197	77,84	3,5	1006,74	6,7	8,7	8,5	1	1	1	1	1	1	1	1	1	0	1	-49,682875	274,137308	270,542418	0
14.01.2021	22:03:54	0	0	2,93753	5,415	102,5784	0,191	77,84	3,5	1006,62	6,8	8,7	8,5	1	1	1	1	1	1	1	1	1	0	1	-50,739958	274,086537	269,248177	0
14.01.2021	22:03:55	0	0	4,971205	5,037	88,956	0,197	77,864	3,5	1006,76	6,8	8,7	8,5	1	1	1	1	1	1	1	1	1	0	1	-51,867512	274,234743	268,813289	0
14.01.2021	22:03:56	0	0	2,598584	4,4895	92,2392	0,201	77,876	3,5	1006,78	6,7	8,8	8,5	1	1	1	1	1	1	1	1	1	0	1	-54,827343	274,20021	265,691959	0
14.01.2021	22:03:57	0	0	4,632259	4,02	94,3992	0,199	77,877	3,5	1006,62	6,7	8,7	8,5	1	1	1	1	1	1	1	1	1	0	1	-48,20296	274,248273	272,541131	0
14.01.2021	22:03:58	0	0	4,519277	3,97125	93,7188	0,198	77,871	3,5	1006,78	6,7	8,7	8,5	1	1	1	1	1	1	1	1	1	0	1	-46,934461	274,242259	273,781495	0
14.01.2021	22:03:59	0	0	3,954367	4,16625	98,5608	0,197	77,861	3,5	1006,84	6,8	8,7	8,5	1	1	1	1	1	1	1	1	1	0	1	-51,374207	274,119373	268,767297	0
14.01.2021	22:04:00	0	0	4,745241	4,05975	94,0752	0,193	77,833	3,5	1006,7	6,7	8,7	8,5	1	1	1	1	1	1	1	1	1	0	1	-49,400987	274,23324	271,272785	0
14.01.2021	22:04:01	0	0	4,745241	4,05975	94,0752	0,193	77,833	3,5	1006,7	6,7	8,7	8,5	1	1	1	1	1	1	1	1	1	0	1	-49,400987	274,23324	271,272785	0
14.01.2021	22:04:02	0	0	4,293313	4,3275	91,1232	0,19	77,842	3,5	1006,88	6,8	8,7	8,5	1	1	1	1	1	1	1	1	1	0	1	-52,854123	274,126844	267,322282	0
14.01.2021	22:04:03	0	0	2,93753	4,7445	94,392	0,201	77,833	3,5	1006,94	6,7	8,7	8,5	1	1	1	1	1	1	1	1	1	0	1	-50,880902	274,209212	269,680497	0
14.01.2021	22:04:04	0	0	3,615421	4,5525	87,714	0,198	77,815	3,5	1006,9	6,7	8,8	8,5	1	1	1	1	1	1	1	1	1	0	1	-52,572234	274,077591	267,374128	0
14.01.2021	22:04:05	0	0	4,180331	4,3005	91,1556	0,197	77,807	3,5	1006,74	6,8	8,7	8,5	1	1	1	1	1	1	1	1	1	0	1	-48,766737	274,131328	271,430616	0
14.01.2021	22:04:06	0	0	2,598584	3,81	94,104	0,202	77,798	3,5	1006,82	6,8	8,7	8,5	1	1	1	1	1	1	1	1	1	0	1	-52,713178	274,08952	267,288886	0
14.01.2021	22:04:07	0	0	4,745241	3,387	73,0368	0,199	77,769	3,5	1006,62	6,8	8,7	8,5	1	1	1	1	1	1	1	1	1	0	1	-50,17618	274,085046	269,80499	0
14.01.2021	22:04:08	0	0	2,598584	3,1065	79,7688	0,201	77,783	3,5	1006,8	6,7	8,8	8,5	1	1	1	1	1	1	1	1	1	0	1	-50,458069	274,213715	270,124387	0
14.01.2021	22:04:09	0	0	4,632259	2,991	82,35	0,195	77,757	3,5	1006,76	6,8	8,7	8,5	1	1	1	1	1	1	1	1	1	0	1	-51,092319	274,20021	269,426984	0
14.01.2021	22:04:10	0	0	2,711566	2,9235	83,3472	0,198	77,756	3,5	1006,86	6,8	8,8	8,5	1	1	1	1	1	1	1	1	1	0	1	-52,008457	274,07312	267,917027	0
14.01.2021	22:04:11	0	0	4,971205	2,89125	76,3776	0,197	77,755	3,5	1006,76	6,8	8,7	8,5	1	1	1	1	1	1	1	1	1	0	1	-50,458069	274,210713	270,110348	0
14.01.2021	22:04:12	0	0	2,93753	3,0015	59,4864	0,196	77,74	3,5	1006,78	6,8	8,7	8,5	1	1	1	1	1	1	1	1	1	0	1	-52,78365	274,092503	267,232346	0
14.01.2021	22:04:13	0	0	4,406268	3,2115	87,7284	0,201	77,714	3,5	1006,74	6,8	8,7	8,6	1	1	1	1	1	1	1	1	1	0	1	-50,17618	274,219721	270,434361	0
14.01.2021	22:04:14	0	0	4,180331	3,114	95,5224	0,197	77,711	3,5	1006,8	6,8	8,7	8,5	1	1	1	1	1	1	1	1	1	0	1	-46,511628	274,183716	273,93056	0
14.01.2021	22:04:15	0	0	2,93753	2,9655	75,2184	0,2	77,705	3,5	1006,76	6,7	8,7	8,5	1	1	1	1	1	1	1	1	1	0	1	-48,978154	274,074611	270,954289	0
14.01.2021	22:04:16	0	0	3,389437	2,81025	85,5288	0,203	77,701	3,5	1006,68	6,8	8,8	8,6	1	1	1	1	1	1	1	1	1	0	1	-45,665962	274,140298	274,573306	0
14.01.2021	22:04:17	0	0	3,728403	2,77425	99,2304	0,202	77,683	3,5	1006,78	6,8	8,7	8,5	1	1	1	1	1	1	1	1	1	0	1	-52,43129	274,215217	268,158187	0
14.01.2021	22:04:18	0	0	3,050512	3,10275	78,6492	0,195	77,648	3,5	1006,64	6,8	8,7	8,5	1	1	1	1	1	1	1	1	1	0	1	-50,739958	274,254289	270,03228	0
14.01.2021	22:04:19	0	0	4,745241	3,066	87,768	0,195	77,663	3,5	1006,7	6,7	8,7	8,5	1	1	1	1	1	1	1	1	1	0	1	-49,964764	274,19721	270,540512	0
14.01.2021	22:04:20	0	0	2,711566	3,10725	94,3884	0,199	77,649	3,5	1006,7	6,8	8,7	8,5	1	1	1	1	1	1	1	1	1	0	1	-53,065539	274,258803	267,727815	0
14.01.2021	22:04:21	0	0	5,084186	3,30675	84,7944	0,205	77,633	3,5	1006,7	6,7	8,7	8,5	1	1	1	1	1	1	1	1	1	0	1	-51,444679	274,20021	269,074623	0
14.01.2021	22:04:22	0	0	4,293313	3,39	102,9348	0,197	77,611	3,5	1006,68	6,8	8,8	8,5	1	1	1	1	1	1	1	1	1	0	1	-50,739958	274,249777	270,011169	0
14.01.2021	22:04:23	0	0	3,389458	3,08475	94,3812	0,205	77,634	3,5	1006,8	6,7	8,8	8,5	1	1	1	1	1	1	1	1	1	0	1	-49,400987	274,168733	270,971166	0
14.01.2021	22:04:24	0	0	4,745241	2,76525	71,9964	0,201	77,622	3,5	1006,82	6,8	8,7	8,5	1	1	1	1	1	1	1	1	1	0	1	-48,20296	274,085046	271,778211	0
14.01.2021	22:04:25	0	0	3,841385	2,7	86,3064	0,203	77,619	3,5	1006,8	6,7	8,8	8,5	1	1	1	1	1	1	1	1	1	0	1	-52,219873	274,248273	268,524218	0
14.01.2021	22:04:26	0	0	3,6154	2,70975	91,1592	0,201	77,596	3,5	1006,78	6,7	8,8	8,6	1	1	1	1	1	1	1	1	1	0	1	-51,656096	274,123856	268,506347	0
14.01.2021	22:04:27	0	0	4,971205	3,1365	95,148	0,199	77,598	3,5	1006,58	6,8	8,7	8,5	1	1	1	1	1	1	1	1	1	0	1	-51,867512	274,251281	268,890651	0
14.01.2021	22:04:28	0	0	3,615421	3,46125	86,976	0,204	77,598	3,5	1006,8	6,8	8,8	8,5	1	1	1	1	1	1	1	1	1	0	1	-51,092319	274,249777	269,658808	0
14.01.2021	22:04:29	0	0	2,146656	3,5145	81,1944	0,2	77,582	3,5	1006,8	6,7	8,8	8,5	1	1	1	1	1	1	1	1	1	0	1	-46,934461	274,134318	273,276861	0
14.01.2021	22:04:30	0	0	3,050512	3,33225	79,0452	0,198	77,585	3,5	1006,82	6,7	8,7	8,5	1	1	1	1	1	1	1	1	1	0	1	-51,303735	274,076101	268,635667	0
14.01.2021	22:04:31	0	0	3,276476	3,267	82,3464	0,198	77,58	3,5	1006,8	6,8	8,7	8,5	1	1	1	1	1	1	1	1	1	0	1	-48,837209	274,242259	271,878746	0
14.01.2021	22:04:32	0	0	4,519277	3,1725	79,7508	0,196	77,578	3,5	1006,72	6,8	8,8	8,5	1	1	1	1	1	1	1	1	1	0	1	-52,008457	274,213715	268,573999	0
14.01.2021	22:04:33	0	0	4,858223	3,30825	87,7608	0,201	77,589	3,5	1006,84	6,7	8,8	8,5	1	1	1	1	1	1	1	1	1	0	1	-49,330514	274,192711	271,153726	0
14.01.2021	22:04:34	0	0	4,519277	3,62775	81,9576	0,2	77,586	3,5	1006,84	6,7	8,8	8,5	1	1	1	1	1	1	1	1	1	0	1	-50,105708	274,083555	269,868499	0
14.01.2021	22:04:35	0	0	2,485602	3,53925	85,8996	0,201	77,582	3,5	1006,76	6,8	8,7	8,5	1	1	1	1	1	1	1	1	1	0	1	-49,753347	274,161246	270,583813	0
14.01.2021	22:04:36	0	0	2,824548	3,81675	82,926	0,203	77,578	3,5	1006,8	6,7	8,7	8,5	1	1	1	1	1	1	1	1	1	0	1	-54,40451	274,242259	266,311445	0
14.01.2021	22:04:37	0	0	3,954344	3,87975	81,5868	0,199	77,566	3,5	1006,58	6,7	8,8	8,6	1	1	1	1	1	1	1	1	1	0	1	-47,56871	274,251281	273,189453	0
14.01.2021	22:04:38	0	0	4,067349	3,99525	82,584	0,2	77,558	3,5	1006,7	6,8	8,8	8,5	1	1	1	1	1	1	1	1	1	0	1	-46,159267	274,123856	274,003176	0
14.01.2021	22:04:39	0	0	3,841385	4,0575	86,76	0,198	77,568	3,5	1006,76	6,7	8,8	8,5	1	1	1	1	1	1	1	1	1	0	1	-51,867512	274,144785	268,392722	0
14.01.2021	22:04:40	0	0	2,824548	4,24275	92,8908	0,198	77,578	3,5	1006,78	6,8	8,8	8,5	1	1	1	1	1	1	1	1	1	0	1	-55,320648	274,260308	265,479746	0
14.01.2021	22:04:41	0	0	2,598584	4,25175	85,9176	0,2	77,566	3,5	1006,72	6,7	8,7	8,5	1	1	1	1	1	1	1	1	1	0	1	-51,162791	274,183716	269,279397	0
14.01.2021	22:04:42	0	0	4,519277	4,137	90,7812	0,194	77,593	3,5	1006,84	6,8	8,8	8,5	1	1	1	1	1	1	1	1	1	0	1	-53,347428	274,218219	267,256091	0
14.01.2021	22:04:43	0	0	3,615421	4,1205	89,3088	0,201	77,587	3,5	1006,72	6,7	8,7	8,5	1	1	1	1	1	1	1	1	1	0	1	-51,867512	274,261812	268,939923	0
14.01.2021	22:04:44	0	0	4,067349	4,22325	86,9868	0,206	77,604	3,5	1006,82	6,7	8,8	8,5	1	1	1	1	1	1	1	1	1	0	1	-50,387597	274,228733	270,265092	0
14.01.2021	22:04:45	0	0	3,728403	4,308	84,0456	0,204	77,606	3,5	1006,78	6,8	8,8	8,5	1	1	1	1	1	1	1	1	1	0	1	-51,726568	274,257298	269,059747	0
14.01.2021	22:04:46	0	0	3,389458	4,23375	87,7536	0,204	77,61	3,5	1006,74	6,7	8,8	8,5	1	1	1	1	1	1	1	1	1	0	1	-54,193094	274,258803	266,600261	0
14.01.2021	22:04:47	0	0	3,954367	4,25625	100,7784	0,196	77,613	3,5	1006,78	6,7	8,7	8,5	1	1	1	1	1	1	1	1	1	0	1	-48,978154	274,212214	271,597283	0
14.01.2021	22:04:48	0	0	3,954367	4,0635	90,7812	0,2	77,624	3,5	1006,68	6,7	8,8	8,5	1	1	1	1	1	1	1	1	1	0	1	-51,937984	274,252785	268,827216	0
14.01.2021	22:04:49	0	0	3,050512	3,85125	81,216	0,196	77,626	3,5	1006,76	6,7	8,8	8,5	1	1	1	1	1	1	1	1	1	0	1	-48,132488	274,168733	272,239665	0
14.01.2021	22:04:50	0	0	4,293313	3,942	85,1832	0,211	77,641	3,5	1006,84	6,8	8,8	8,5	1	1	1	1	1	1	1	1	1	0	1	-47,21635	274,086537	272,771785	0
14.01.2021	22:04:51	0	0	2,711566	4,04025	85,8492	0,207	77,635	3,5	1006,82	6,7	8,8	8,5	1	1	1	1	1	1	1	1	1	0	1	-51,233263	274,128339	268,950124	0
14.01.2021	22:04:52	0	0	3,050512	3,98775	87,3684	0,204	77,634	3,5	1006,8	6,7	8,8	8,5	1	1	1	1	1	1	1	1	1	0	1	-50,951374	274,146281	269,31585	0
14.01.2021	22:04:53	0	0	3,276476	4,16175	81,9648	0,199	77,622	3,5	1006,76	6,8	8,8	8,5	1	1	1	1	1	1	1	1	1	0	1	-51,162791	274,096979	268,874109	0
14.01.2021	22:04:54	0	0	3,50244	3,98025	75,2148	0,206	77,631	3,5	1006,68	6,8	8,8	8,5	1	1	1	1	1	1	1	1	1	0	1	-49,260042	274,174725	271,140117	0
14.01.2021	22:04:55	0	0	2,824548	4,023	94,1076	0,207	77,64	3,5	1006,86	6,8	8,8	8,5	1	1	1	1	1	1	1	1	1	0	1	-47,004933	274,261812	273,802502	0
14.01.2021	22:04:56	0	0	4,067349	4,0395	92,9376	0,205	77,633	3,5	1006,9	6,7	8,8	8,5	1	1	1	1	1	1	1	1	1	0	1	-49,471459	274,091012	270,537571	0
14.01.2021	22:04:57	0	0	4,971205	3,87	89,6796	0,198	77,644	3,5	1006,8	6,8	8,8	8,5	1	1	1	1	1	1	1	1	1	0	1	-52,290345	274,215217	268,299131	0
14.01.2021	22:04:58	0	0	2,93753	3,76725	77,976	0,202	77,644	3,5	1006,6	6,8	8,7	8,5	1	1	1	1	1	1	1	1	1	0	1	-50,669486	274,257298	270,116829	0
14.01.2021	22:04:59	0	0	2,711566	3,726	91,1808	0,205	77,645	3,5	1006,8	6,8	8,7	8,5	1	1	1	1	1	1	1	1	1	0	1	-49,119098	274,218219	271,484421	0
14.01.2021	22:05:00	0	0	5,084186	3,441	74,1564	0,205	77,651	3,5	1006,82	6,7	8,8	8,5	1	1	1	1	1	1	1	1	1	0	1	-50,246653	274,227231	270,39901	0
14.01.2021	22:05:01	0	0	5,084186	3,441	74,1564	0,205	77,651	3,5	1006,82	6,7	8,8	8,5	1	1	1	1	1	1	1	1	1	0	1	-50,246653	274,227231	270,39901	0
14.01.2021	22:05:02	0	0	3,728403	3,3135	80,5068	0,21	77,659	3,5	1006,66	6,7	8,8	8,5	1	1	1	1	1	1	1	1	1	0	1	-50,387597	274,212214	270,187839	0
14.01.2021	22:05:03	0	0	4,745241	3,40425	79,4052	0,197	77,656	3,5	1006,56	6,8	8,8	8,5	1	1	1	1	1	1	1	1	1	0	1	-47,145877	274,261812	273,661558	0
14.01.2021	22:05:04	0	0	3,50244	3,537	84,42	0,206	77,667	3,5	1006,86	6,7	8,8	8,5	1	1	1	1	1	1	1	1	1	0	1	-49,048626	274,14329	271,204619	0
14.01.2021	22:05:05	0	0	2,485602	3,4695	79,0524	0,203	77,663	3,5	1006,72	6,8	8,8	8,5	1	1	1	1	1	1	1	1	1	0	1	-52,501762	274,261812	268,305674	0
14.01.2021	22:05:06	0	0	2,485602	3,47775	69,1848	0,204	77,675	3,5	1006,78	6,8	8,8	8,5	1	1	1	1	1	1	1	1	1	0	1	-50,739958	274,093995	269,283006	0
14.01.2021	22:05:07	0	0	3,954367	3,5265	70,6176	0,205	77,7	3,5	1006,86	6,8	8,8	8,5	1	1	1	1	1	1	1	1	1	0	1	-49,612403	274,20021	270,9069	0
14.01.2021	22:05:08	0	0	4,971205	3,852	70,632	0,208	77,7	3,5	1006,8	6,8	8,8	8,5	1	1	1	1	1	1	1	1	1	0	1	-47,639183	274,085046	272,341988	0
14.01.2021	22:05:09	0	0	4,406295	3,987	67,662	0,205	77,692	3,5	1006,68	6,8	8,8	8,5	1	1	1	1	1	1	1	1	1	0	1	-48,414376	274,134318	271,796946	0
14.01.2021	22:05:10	0	0	2,37262	3,66525	75,2328	0,203	77,671	3,5	1006,76	6,8	8,8	8,5	1	1	1	1	1	1	1	1	1	0	1	-51,162791	274,260308	269,637604	0
14.01.2021	22:05:11	0	0	4,519277	3,483	69,462	0,204	77,677	3,5	1006,72	6,8	8,8	8,5	1	1	1	1	1	1	1	1	1	0	1	-49,330514	274,242259	271,385441	0
14.01.2021	22:05:12	0	0	3,050512	3,309	71,604	0,207	77,678	3,5	1006,62	6,8	8,8	8,5	1	1	1	1	1	1	1	1	1	0	1	-47,639183	274,210713	272,929235	0
14.01.2021	22:05:13	0	0	2,598584	3,26175	63,486	0,206	77,674	3,5	1006,76	6,8	8,8	8,5	1	1	1	1	1	1	1	1	1	0	1	-50,387597	274,098471	269,656272	0
14.01.2021	22:05:14	0	0	3,841385	3,28875	61,3152	0,205	77,653	3,5	1006,76	6,8	8,7	8,5	1	1	1	1	1	1	1	1	1	0	1	-51,374207	274,267833	269,461399	0
14.01.2021	22:05:15	0	0	3,728403	3,30225	62,4168	0,209	77,663	3,5	1006,8	6,8	8,8	8,5	1	1	1	1	1	1	1	1	1	0	1	-46,088795	274,156756	274,227377	0
14.01.2021	22:05:16	0	0	2,485602	3,3045	69,1704	0,208	77,663	3,5	1006,76	6,8	8,8	8,5	1	1	1	1	1	1	1	1	1	0	1	-51,79704	274,249777	268,954087	0
14.01.2021	22:05:17	0	0	4,519277	3,45975	68,8464	0,201	77,647	3,5	1006,72	6,7	8,7	8,5	1	1	1	1	1	1	1	1	1	0	1	-49,541931	274,110413	270,557714	0
14.01.2021	22:05:18	0	0	2,711566	3,288	73,764	0,21	77,648	3,5	1006,76	6,7	8,8	8,5	1	1	1	1	1	1	1	1	1	0	1	-49,18957	274,152266	271,10562	0
14.01.2021	22:05:19	0	0	2,93753	3,12975	72,2988	0,208	77,661	3,5	1006,78	6,8	8,7	8,5	1	1	1	1	1	1	1	1	1	0	1	-50,739958	274,126844	269,436447	0
14.01.2021	22:05:20	0	0	2,824548	3,19275	78,2784	0,211	77,652	3,5	1006,74	6,8	8,8	8,5	1	1	1	1	1	1	1	1	1	0	1	-46,652572	274,123856	273,50987	0
14.01.2021	22:05:21	0	0	4,180331	3,35925	86,9616	0,21	77,654	3,5	1006,7	6,8	8,8	8,5	1	1	1	1	1	1	1	1	1	0	1	-49,330514	274,173227	271,062642	0
14.01.2021	22:05:22	0	0	3,50244	3,3885	86,9832	0,208	77,633	3,5	1006,76	6,8	8,7	8,5	1	1	1	1	1	1	1	1	1	0	1	-52,43129	274,080573	267,528994	0
14.01.2021	22:05:23	0	0	3,954367	3,303	95,5116	0,21	77,64	3,5	1006,76	6,8	8,8	8,5	1	1	1	1	1	1	1	1	1	0	1	-45,806906	274,176223	274,600256	0
14.01.2021	22:05:24	0	0	3,841385	3,22125	95,13	0,214	77,604	3,5	1006,64	6,8	8,8	8,5	1	1	1	1	1	1	1	1	1	0	1	-51,79704	274,096979	268,23986	0
14.01.2021	22:05:25	0	0	3,954367	3,1155	107,7516	0,211	77,605	3,5	1006,58	6,8	8,8	8,5	1	1	1	1	1	1	1	1	1	0	1	-50,105708	274,234743	270,575093	0
14.01.2021	22:05:26	0	0	4,519277	3,13275	86,3028	0,215	77,601	3,5	1006,84	6,7	8,8	8,5	1	1	1	1	1	1	1	1	1	0	1	-51,937984	274,216718	268,658513	0
14.01.2021	22:05:27	0	0	2,93753	3,06975	106,686	0,212	77,591	3,5	1006,74	6,7	8,8	8,5	1	1	1	1	1	1	1	1	1	0	1	-49,400987	274,119373	270,740518	0
14.01.2021	22:05:28	0	0	3,728403	2,93025	74,9088	0,215	77,578	3,5	1006,66	6,8	8,8	8,5	1	1	1	1	1	1	1	1	1	0	1	-47,145877	274,147777	273,128337	0
14.01.2021	22:05:29	0	0	2,824548	2,79375	113,0292	0,211	77,587	3,5	1006,76	6,8	8,7	8,5	1	1	1	1	1	1	1	1	1	0	1	-47,286822	274,27235	273,569919	0
14.01.2021	22:05:30	0	0	2,485602	2,80875	93,3228	0,203	77,548	3,5	1006,66	6,8	8,8	8,5	1	1	1	1	1	1	1	1	1	0	1	-48,132488	274,161246	272,204673	0
14.01.2021	22:05:31	0	0	3,615421	2,838	94,392	0,211	77,565	3,5	1006,68	6,7	8,8	8,5	1	1	1	1	1	1	1	1	1	0	1	-51,726568	274,258803	269,066786	0
14.01.2021	22:05:32	0	0	2,824548	2,64825	91,5768	0,21	77,555	3,5	1006,68	6,8	8,8	8,5	1	1	1	1	1	1	1	1	1	0	1	-51,233263	274,219721	269,377278	0
14.01.2021	22:05:33	0	0	3,615421	2,553	90,396	0,202	77,551	3,5	1006,78	6,8	8,7	8,5	1	1	1	1	1	1	1	1	1	0	1	-47,498238	274,19721	273,007038	0
14.01.2021	22:05:34	0	0	2,485602	2,63025	76,9176	0,207	77,536	3,5	1006,78	6,8	8,7	8,5	1	1	1	1	1	1	1	1	1	0	1	-51,656096	274,093995	268,366868	0
14.01.2021	22:05:35	0	0	3,728403	2,811	85,1868	0,212	77,536	3,5	1006,58	6,7	8,8	8,5	1	1	1	1	1	1	1	1	1	0	1	-53,065539	274,234743	267,615262	0
14.01.2021	22:05:36	0	0	4,293313	3,06225	71,9784	0,214	77,53	3,5	1006,76	6,7	8,8	8,5	1	1	1	1	1	1	1	1	1	0	1	-50,669486	274,19421	269,821766	0
14.01.2021	22:05:37	0	0	5,084186	3,09525	98,478	0,211	77,521	3,5	1006,82	6,7	8,8	8,5	1	1	1	1	1	1	1	1	1	0	1	-52,501762	274,088029	267,493337	0
14.01.2021	22:05:38	0	0	3,389458	2,87775	74,5344	0,206	77,513	3,5	1006,78	6,8	8,8	8,5	1	1	1	1	1	1	1	1	1	0	1	-50,669486	274,129833	269,520884	0
14.01.2021	22:05:39	0	0	3,276476	2,80275	81,6048	0,209	77,524	3,5	1006,68	6,8	8,8	8,5	1	1	1	1	1	1	1	1	1	0	1	-52,995067	274,152266	267,300124	0
14.01.2021	22:05:40	0	0	3,954367	3,05175	81,9756	0,204	77,51	3,5	1006,6	6,8	8,7	8,5	1	1	1	1	1	1	1	1	1	0	1	-48,20296	274,261812	272,604476	0
14.01.2021	22:05:41	0	0	3,615421	3,6705	85,5432	0,21	77,51	3,5	1006,72	6,8	8,8	8,5	1	1	1	1	1	1	1	1	1	0	1	-53,699789	274,134318	266,511534	0
14.01.2021	22:05:42	0	0	4,971205	3,927	75,6864	0,209	77,508	3,5	1006,76	6,7	8,8	8,5	1	1	1	1	1	1	1	1	1	0	1	-50,669486	274,210713	269,898932	0
14.01.2021	22:05:43	0	0	2,711566	4,03425	98,0676	0,21	77,502	3,5	1006,64	6,8	8,8	8,5	1	1	1	1	1	1	1	1	1	0	1	-51,021846	274,088029	268,973253	0
14.01.2021	22:05:44	0	0	4,067349	3,88125	80,154	0,212	77,52	3,5	1006,82	6,7	8,7	8,5	1	1	1	1	1	1	1	1	1	0	1	-49,541931	274,28892	271,392355	0
14.01.2021	22:05:45	0	0	4,632259	3,918	74,1636	0,21	77,516	3,5	1006,68	6,7	8,8	8,5	1	1	1	1	1	1	1	1	1	0	1	-51,021846	274,15077	269,266352	0
14.01.2021	22:05:46	0	0	3,050512	3,98325	63,5076	0,204	77,528	3,5	1006,72	6,7	8,8	8,5	1	1	1	1	1	1	1	1	1	0	1	-50,458069	274,254289	270,314169	0
14.01.2021	22:05:47	0	0	4,971205	4,281	54,7992	0,21	77,535	3,5	1006,94	6,8	8,8	8,5	1	1	1	1	1	1	1	1	1	0	1	-50,387597	274,086537	269,600538	0
14.01.2021	22:05:48	0	0	3,276476	4,302	44,7876	0,21	77,551	3,5	1006,76	6,7	8,8	8,5	1	1	1	1	1	1	1	1	1	0	1	-47,145877	274,19721	273,359398	0
14.01.2021	22:05:49	0	0	3,841385	4,43325	40,248	0,211	77,562	3,5	1006,7	6,7	8,8	8,5	1	1	1	1	1	1	1	1	1	0	1	-53,488372	274,095487	266,541559	0
14.01.2021	22:05:50	0	0	3,841385	4,39575	61,6788	0,211	77,559	3,5	1006,62	6,7	8,8	8,5	1	1	1	1	1	1	1	1	1	0	1	-51,79704	274,234743	268,883761	0
14.01.2021	22:05:51	0	0	4,971205	3,99825	49,9464	0,209	77,587	3,5	1006,74	6,8	8,8	8,5	1	1	1	1	1	1	1	1	1	0	1	-51,303735	274,254289	269,468503	0
14.01.2021	22:05:52	0	0	3,615421	3,6165	44,0568	0,21	77,606	3,5	1006,68	6,7	8,8	8,5	1	1	1	1	1	1	1	1	1	0	1	-50,458069	274,266328	270,370493	0
14.01.2021	22:05:53	0	0	4,519277	3,15225	26,5356	0,214	77,608	3,5	1006,8	6,8	8,8	8,5	1	1	1	1	1	1	1	1	1	0	1	-49,612403	274,128339	270,570984	0
14.01.2021	22:05:54	0	0	3,50244	2,77575	83,7072	0,212	77,604	3,5	1006,62	6,8	8,7	8,5	1	1	1	1	1	1	1	1	1	0	1	-47,639183	274,261812	273,168253	0
14.01.2021	22:05:55	0	0	2,598584	2,805	70,218	0,21	77,616	3,5	1006,72	6,7	8,8	8,5	1	1	1	1	1	1	1	1	1	0	1	-47,427766	274,191211	273,049464	0
14.01.2021	22:05:56	0	0	3,50244	3,07425	85,5468	0,208	77,63	3,5	1006,84	6,8	8,8	8,5	1	1	1	1	1	1	1	1	1	0	1	-49,260042	274,252785	271,505158	0
14.01.2021	22:05:57	0	0	3,841385	3,3675	98,1828	0,21	77,65	3,5	1006,86	6,7	8,7	8,5	1	1	1	1	1	1	1	1	1	0	1	-47,921071	274,258803	272,872283	0
14.01.2021	22:05:58	0	0	3,50244	3,4275	88,11	0,213	77,654	3,5	1006,74	6,8	8,8	8,5	1	1	1	1	1	1	1	1	1	0	1	-53,558844	274,19871	266,953445	0
14.01.2021	22:05:59	0	0	4,180331	3,3735	71,9892	0,208	77,656	3,5	1006,78	6,7	8,8	8,5	1	1	1	1	1	1	1	1	1	0	1	-46,229739	274,113399	273,883856	0
14.01.2021	22:06:00	0	0	2,93753	3,447	79,038	0,216	77,674	3,5	1006,72	6,8	8,8	8,5	1	1	1	1	1	1	1	1	1	0	1	-45,947851	274,207712	274,606531	0
14.01.2021	22:06:01	0	0	2,93753	3,447	79,038	0,216	77,674	3,5	1006,72	6,8	8,8	8,5	1	1	1	1	1	1	1	1	1	0	1	-45,947851	274,207712	274,606531	0
14.01.2021	22:06:02	0	0	3,50244	3,54525	85,194	0,21	77,641	3,5	1006,7	6,8	8,7	8,5	1	1	1	1	1	1	1	1	1	0	1	-47,850599	274,093995	272,172365	0
14.01.2021	22:06:03	0	0	2,824548	3,7665	72,6588	0,211	77,637	3,5	1006,84	6,7	8,8	8,5	1	1	1	1	1	1	1	1	1	0	1	-48,555321	274,128339	271,628066	0
14.01.2021	22:06:04	0	0	3,389458	3,77625	69,5556	0,213	77,628	3,5	1006,62	6,7	8,8	8,5	1	1	1	1	1	1	1	1	1	0	1	-44,679352	274,204711	275,860996	0
14.01.2021	22:06:05	0	0	4,406295	3,69525	77,9508	0,218	77,618	3,5	1006,68	6,8	8,8	8,5	1	1	1	1	1	1	1	1	1	0	1	-50,246653	274,267833	270,588953	0
14.01.2021	22:06:06	0	0	2,93753	3,72825	85,1832	0,216	77,621	3,5	1006,72	6,7	8,8	8,5	1	1	1	1	1	1	1	1	1	0	1	-53,206483	274,281386	267,692544	0
14.01.2021	22:06:07	0	0	3,50244	3,48825	83,3148	0,215	77,62	3,5	1006,5	6,7	8,8	8,5	1	1	1	1	1	1	1	1	1	0	1	-45,172657	274,129833	275,017713	0
14.01.2021	22:06:08	0	0	4,067349	3,279	98,0568	0,211	77,605	3,5	1006,62	6,7	8,8	8,5	1	1	1	1	1	1	1	1	1	0	1	-49,048626	274,19721	271,45665	0
14.01.2021	22:06:09	0	0	2,93753	3,00375	62,7804	0,217	77,595	3,5	1006,9	6,8	8,8	8,5	1	1	1	1	1	1	1	1	1	0	1	-50,599013	274,270844	270,250682	0
14.01.2021	22:06:10	0	0	3,954367	2,82525	81,5796	0,21	77,566	3,5	1006,62	6,8	8,8	8,5	1	1	1	1	1	1	1	1	1	0	1	-49,612403	274,231738	271,054341	0
14.01.2021	22:06:11	0	0	5,084186	3,12075	84,5064	0,214	77,57	3,5	1006,62	6,8	8,8	8,5	1	1	1	1	1	1	1	1	1	0	1	-51,515152	274,207712	269,03923	0
14.01.2021	22:06:12	0	0	3,163494	3,3465	81,6696	0,214	77,553	3,5	1006,76	6,8	8,8	8,5	1	1	1	1	1	1	1	1	1	0	1	-50,387597	274,114893	269,732975	0
14.01.2021	22:06:13	0	0	3,728403	3,41025	82,5948	0,208	77,536	3,5	1006,8	6,7	8,8	8,5	1	1	1	1	1	1	1	1	1	0	1	-50,317125	274,158252	270,006043	0
14.01.2021	22:06:14	0	0	3,954367	3,069	73,782	0,212	77,507	3,5	1006,7	6,7	8,8	8,5	1	1	1	1	1	1	1	1	1	0	1	-49,471459	274,091012	270,537571	0
14.01.2021	22:06:15	0	0	3,50244	2,76225	87,804	0,218	77,521	3,5	1006,74	6,8	8,8	8,5	1	1	1	1	1	1	1	1	1	0	1	-51,79704	274,258803	268,996314	0
14.01.2021	22:06:16	0	0	4,293313	2,59725	87,3576	0,221	77,519	3,5	1006,78	6,7	8,8	8,5	1	1	1	1	1	1	1	1	1	0	1	-49,048626	274,213715	271,53383	0
14.01.2021	22:06:17	0	0	4,519277	2,62875	82,9584	0,215	77,489	3,5	1006,6	6,7	8,8	8,5	1	1	1	1	1	1	1	1	1	0	1	-49,330514	274,096979	270,706385	0
14.01.2021	22:06:18	0	0	3,954367	2,82675	85,9068	0,215	77,472	3,5	1006,82	6,7	8,7	8,5	1	1	1	1	1	1	1	1	1	0	1	-54,615927	274,206211	265,931437	0
14.01.2021	22:06:19	0	0	3,050512	2,92275	84,0528	0,216	77,462	3,5	1006,84	6,8	8,8	8,5	1	1	1	1	1	1	1	1	1	0	1	-48,555321	274,219721	272,055221	0
14.01.2021	22:06:20	0	0	5,084186	3,255	80,514	0,212	77,46	3,5	1006,76	6,7	8,7	8,5	1	1	1	1	1	1	1	1	1	0	1	-47,709655	274,102948	272,355125	0
14.01.2021	22:06:21	0	0	4,745241	3,50775	69,4584	0,21	77,45	3,5	1006,76	6,7	8,8	8,5	1	1	1	1	1	1	1	1	1	0	1	-47,427766	274,091012	272,581264	0
14.01.2021	22:06:22	0	0	2,37262	3,8655	68,0184	0,215	77,438	3,5	1006,6	6,7	8,8	8,5	1	1	1	1	1	1	1	1	1	0	1	-50,458069	274,218219	270,14545	0
14.01.2021	22:06:23	0	0	3,841385	3,88275	85,176	0,218	77,441	3,5	1006,9	6,8	8,7	8,5	1	1	1	1	1	1	1	1	1	0	1	-48,696265	274,261812	272,111171	0
14.01.2021	22:06:24	0	0	3,954367	3,6615	96,5844	0,214	77,429	3,5	1006,8	6,8	8,8	8,5	1	1	1	1	1	1	1	1	1	0	1	-52,219873	274,261812	268,587562	0
14.01.2021	22:06:25	0	0	4,519277	3,51	95,1192	0,217	77,411	3,5	1006,74	6,8	8,8	8,5	1	1	1	1	1	1	1	1	1	0	1	-52,078929	274,20171	268,447388	0
14.01.2021	22:06:26	0	0	4,632259	3,33	89,3232	0,215	77,408	3,5	1006,76	6,8	8,7	8,5	1	1	1	1	1	1	1	1	1	0	1	-48,484848	274,092503	271,531148	0
14.01.2021	22:06:27	0	0	4,858193	3,32925	84,0348	0,218	77,404	3,5	1006,76	6,7	8,8	8,6	1	1	1	1	1	1	1	1	1	0	1	-53,065539	274,230235	267,594177	0
14.01.2021	22:06:28	0	0	2,485602	3,45375	96,5916	0,216	77,399	3,5	1006,8	6,8	8,8	8,5	1	1	1	1	1	1	1	1	1	0	1	-48,484848	274,114893	271,635723	0
14.01.2021	22:06:29	0	0	4,971205	3,135	94,752	0,23	77,402	3,5	1006,82	6,8	8,8	8,5	1	1	1	1	1	1	1	1	1	0	1	-47,286822	274,237749	273,408039	0
14.01.2021	22:06:30	0	0	2,93753	3,13425	118,7856	0,213	77,39	3,5	1006,72	6,8	8,8	8,5	1	1	1	1	1	1	1	1	1	0	1	-52,290345	274,137308	267,934948	0
14.01.2021	22:06:31	0	0	2,485602	3,05775	106,2972	0,217	77,405	3,5	1006,7	6,8	8,8	8,5	1	1	1	1	1	1	1	1	1	0	1	-48,766737	274,261812	272,040698	0
14.01.2021	22:06:32	0	0	3,841385	3,02175	93,3336	0,217	77,4	3,5	1006,82	6,7	8,8	8,5	1	1	1	1	1	1	1	1	1	0	1	-51,374207	274,27235	269,482533	0
14.01.2021	22:06:33	0	0	4,632259	2,94975	85,5216	0,213	77,393	3,5	1006,76	6,7	8,8	8,5	1	1	1	1	1	1	1	1	1	0	1	-51,233263	274,131328	268,964091	0
14.01.2021	22:06:34	0	0	4,519277	3,0075	88,6104	0,216	77,407	3,5	1006,8	6,7	8,8	8,5	1	1	1	1	1	1	1	1	1	0	1	-47,427766	274,221223	273,189798	0
14.01.2021	22:06:35	0	0	4,745241	3,042	86,634	0,22	77,404	3,5	1006,74	6,8	8,8	8,5	1	1	1	1	1	1	1	1	1	0	1	-51,162791	274,234743	269,51801	0
14.01.2021	22:06:36	0	0	4,293313	2,98725	79,7688	0,218	77,407	3,5	1006,9	6,8	8,8	8,5	1	1	1	1	1	1	1	1	1	0	1	-48,907681	274,111906	271,198938	0
14.01.2021	22:06:37	0	0	2,485602	2,904	81,612	0,215	77,405	3,5	1006,74	6,8	8,8	8,5	1	1	1	1	1	1	1	1	1	0	1	-49,964764	274,255794	270,814512	0
14.01.2021	22:06:38	0	0	2,824548	2,92425	85,1868	0,217	77,394	3,5	1006,62	6,8	8,8	8,5	1	1	1	1	1	1	1	1	1	0	1	-47,709655	274,110413	272,38999	0
14.01.2021	22:06:39	0	0	2,259638	2,94825	104,76	0,217	77,39	3,5	1006,72	6,8	8,8	8,5	1	1	1	1	1	1	1	1	1	0	1	-47,850599	274,17922	272,570572	0
14.01.2021	22:06:40	0	0	3,389458	3,06675	91,5084	0,218	77,396	3,5	1006,68	6,7	8,8	8,5	1	1	1	1	1	1	1	1	1	0	1	-52,360817	274,091012	267,648213	0
14.01.2021	22:06:41	0	0	4,632259	3,2175	84,4308	0,214	77,391	3,5	1006,66	6,7	8,8	8,5	1	1	1	1	1	1	1	1	1	0	1	-48,555321	274,212214	272,020116	0
14.01.2021	22:06:42	0	0	3,841385	3,27	84,4308	0,219	77,398	3,5	1006,72	6,7	8,8	8,5	1	1	1	1	1	1	1	1	1	0	1	-48,132488	274,088029	271,862611	0
14.01.2021	22:06:43	0	0	4,745241	3,66075	75,2328	0,221	77,394	3,5	1006,64	6,7	8,8	8,5	1	1	1	1	1	1	1	1	1	0	1	-48,20296	274,246769	272,534097	0
14.01.2021	22:06:44	0	0	3,728403	4,2345	75,9708	0,21	77,407	3,5	1006,66	6,7	8,8	8,5	1	1	1	1	1	1	1	1	1	0	1	-47,850599	274,19871	272,66169	0
14.01.2021	22:06:45	0	0	4,632259	4,3635	75,9888	0,212	77,405	3,5	1006,74	6,7	8,8	8,5	1	1	1	1	1	1	1	1	1	0	1	-48,273432	274,23324	272,40034	0
14.01.2021	22:06:46	0	0	3,163494	4,40175	70,2324	0,216	77,418	3,5	1006,82	6,7	8,8	8,5	1	1	1	1	1	1	1	1	1	0	1	-54,827343	274,249777	265,923784	0
14.01.2021	22:06:47	0	0	4,745241	4,40475	77,5872	0,211	77,408	3,5	1006,78	6,7	8,8	8,5	1	1	1	1	1	1	1	1	1	0	1	-53,4179	274,149273	266,863306	0
14.01.2021	22:06:48	0	0	2,485602	4,3935	72,3096	0,217	77,426	3,5	1006,62	6,7	8,8	8,5	1	1	1	1	1	1	1	1	1	0	1	-48,696265	274,092503	271,319732	0
14.01.2021	22:06:49	0	0	4,971205	4,2555	71,9928	0,216	77,452	3,5	1006,76	6,7	8,8	8,5	1	1	1	1	1	1	1	1	1	0	1	-47,850599	274,219721	272,759942	0
14.01.2021	22:06:50	0	0	4,745241	4,04325	75,2436	0,214	77,461	3,5	1006,74	6,7	8,8	8,5	1	1	1	1	1	1	1	1	1	0	1	-48,696265	274,188213	271,766946	0
14.01.2021	22:06:51	0	0	4,519277	3,765	77,2056	0,209	77,471	3,5	1006,86	6,7	8,8	8,5	1	1	1	1	1	1	1	1	1	0	1	-51,021846	274,239252	269,680045	0
14.01.2021	22:06:52	0	0	3,276476	3,63675	80,8956	0,213	77,479	3,5	1006,74	6,8	8,8	8,5	1	1	1	1	1	1	1	1	1	0	1	-47,357294	274,116386	272,770255	0
14.01.2021	22:06:53	0	0	2,711566	3,56925	78,2784	0,218	77,489	3,5	1006,82	6,7	8,8	8,5	1	1	1	1	1	1	1	1	1	0	1	-48,625793	274,213715	271,956663	0
14.01.2021	22:06:54	0	0	3,728403	3,6	79,7616	0,216	77,494	3,5	1006,8	6,7	8,8	8,5	1	1	1	1	1	1	1	1	1	0	1	-48,414376	274,264822	272,407143	0
14.01.2021	22:06:55	0	0	4,745241	3,627	76,824	0,22	77,496	3,5	1006,84	6,7	8,8	8,5	1	1	1	1	1	1	1	1	1	0	1	-47,639183	274,206211	272,908182	0
14.01.2021	22:06:56	0	0	2,711566	3,68475	72,288	0,216	77,499	3,5	1006,66	6,7	8,8	8,5	1	1	1	1	1	1	1	1	1	0	1	-48,766737	274,146281	271,500487	0
14.01.2021	22:06:57	0	0	3,50244	3,7545	80,5176	0,218	77,49	3,5	1006,72	6,8	8,8	8,5	1	1	1	1	1	1	1	1	1	0	1	-49,753347	274,260308	271,047047	0
14.01.2021	22:06:58	0	0	4,406295	3,747	65,0952	0,214	77,485	3,5	1006,74	6,7	8,8	8,5	1	1	1	1	1	1	1	1	1	0	1	-46,018323	274,141794	274,227933	0
14.01.2021	22:06:59	0	0	2,146656	3,91125	69,858	0,22	77,479	3,5	1006,84	6,7	8,8	8,5	1	1	1	1	1	1	1	1	1	0	1	-46,018323	274,242259	274,697633	0
14.01.2021	22:07:00	0	0	2,598584	3,5625	79,02	0,214	77,455	3,5	1006,78	6,8	8,8	8,5	1	1	1	1	1	1	1	1	1	0	1	-48,696265	274,186713	271,759938	0
14.01.2021	22:07:01	0	0	2,598584	3,5625	79,02	0,214	77,455	3,5	1006,78	6,8	8,8	8,5	1	1	1	1	1	1	1	1	1	0	1	-48,696265	274,186713	271,759938	0
14.01.2021	22:07:02	0	0	3,389458	3,3795	81,5904	0,211	77,469	3,5	1006,86	6,7	8,8	8,5	1	1	1	1	1	1	1	1	1	0	1	-46,018323	274,231738	274,648421	0
14.01.2021	22:07:03	0	0	4,293313	3,2925	65,0736	0,214	77,439	3,5	1006,74	6,7	8,8	8,5	1	1	1	1	1	1	1	1	1	0	1	-46,723044	274,137308	273,502249	0
14.01.2021	22:07:04	0	0	4,858223	3,4155	78,6528	0,211	77,443	3,5	1006,78	6,7	8,8	8,5	1	1	1	1	1	1	1	1	1	0	1	-48,273432	274,231738	272,393312	0
14.01.2021	22:07:05	0	0	2,485602	3,29325	77,9364	0,213	77,457	3,5	1006,72	6,7	8,8	8,5	1	1	1	1	1	1	1	1	1	0	1	-49,682875	274,076101	270,256526	0
14.01.2021	22:07:06	0	0	2,259638	3,04575	81,6156	0,215	77,445	3,5	1006,68	6,7	8,8	8,5	1	1	1	1	1	1	1	1	1	0	1	-49,400987	274,17922	271,020184	0
14.01.2021	22:07:07	0	0	5,197168	2,7225	91,1772	0,209	77,438	3,5	1006,8	6,7	8,8	8,5	1	1	1	1	1	1	1	1	1	0	1	-51,374207	274,257298	269,412108	0
14.01.2021	22:07:08	0	0	4,745241	2,52525	92,9268	0,217	77,428	3,5	1006,78	6,7	8,8	8,5	1	1	1	1	1	1	1	1	1	0	1	-47,427766	274,116386	272,699782	0
14.01.2021	22:07:09	0	0	4,971205	2,52675	111,0564	0,212	77,42	3,5	1006,78	6,7	8,8	8,5	1	1	1	1	1	1	1	1	1	0	1	-46,793517	274,249777	273,95761	0
14.01.2021	22:07:10	0	0	4,067349	2,74875	101,1168	0,213	77,417	3,5	1006,74	6,7	8,8	8,5	1	1	1	1	1	1	1	1	1	0	1	-47,286822	274,204711	273,253526	0
14.01.2021	22:07:11	0	0	5,423132	3,0405	96,5916	0,215	77,397	3,5	1006,74	6,7	8,8	8,5	1	1	1	1	1	1	1	1	1	0	1	-50,880902	274,186713	269,575301	0
14.01.2021	22:07:12	0	0	4,632259	3,5085	102,9528	0,216	77,392	3,5	1006,72	6,7	8,8	8,5	1	1	1	1	1	1	1	1	1	0	1	-46,441156	274,058223	273,414778	0
14.01.2021	22:07:13	0	0	2,93753	3,8325	107,4312	0,213	77,385	3,5	1006,86	6,7	8,8	8,5	1	1	1	1	1	1	1	1	1	0	1	-47,286822	274,11788	272,847704	0
14.01.2021	22:07:14	0	0	2,485602	3,849	76,3848	0,214	77,376	3,5	1006,76	6,7	8,8	8,5	1	1	1	1	1	1	1	1	1	0	1	-52,501762	274,216718	268,094735	0
14.01.2021	22:07:15	0	0	2,259638	3,876	98,7588	0,204	77,396	3,5	1006,78	6,7	8,8	8,5	1	1	1	1	1	1	1	1	1	0	1	-50,81043	274,266328	270,018132	0
14.01.2021	22:07:16	0	0	4,858223	4,29975	87,7536	0,214	77,372	3,5	1006,74	6,7	8,8	8,5	1	1	1	1	1	1	1	1	1	0	1	-49,18957	274,153762	271,112614	0
14.01.2021	22:07:17	0	0	3,050512	4,71	88,5708	0,212	77,392	3,5	1006,84	6,7	8,8	8,5	1	1	1	1	1	1	1	1	1	0	1	-48,696265	274,212214	271,879171	0
14.01.2021	22:07:18	0	0	3,615421	4,8855	87,462	0,214	77,382	3,5	1006,56	6,7	8,7	8,5	1	1	1	1	1	1	1	1	1	0	1	-49,330514	274,082064	270,636731	0
14.01.2021	22:07:19	0	0	2,93753	4,8795	86,6736	0,211	77,398	3,5	1006,78	6,8	8,8	8,5	1	1	1	1	1	1	1	1	1	0	1	-47,427766	274,101456	272,630043	0
14.01.2021	22:07:20	0	0	4,745241	4,7535	85,9356	0,215	77,393	3,5	1006,88	6,7	8,8	8,5	1	1	1	1	1	1	1	1	1	0	1	-50,17618	274,095487	269,853751	0
14.01.2021	22:07:21	0	0	3,276476	4,5555	80,1504	0,213	77,396	3,5	1006,84	6,8	8,8	8,5	1	1	1	1	1	1	1	1	1	0	1	-46,5821	274,243762	274,140888	0
14.01.2021	22:07:22	0	0	4,067349	4,21875	85,1364	0,21	77,424	3,5	1006,8	6,7	8,8	8,5	1	1	1	1	1	1	1	1	1	0	1	-47,145877	274,231738	273,520866	0
14.01.2021	22:07:23	0	0	4,971205	3,79575	84,0204	0,209	77,427	3,5	1006,72	6,8	8,8	8,5	1	1	1	1	1	1	1	1	1	0	1	-47,357294	274,126844	272,819111	0
14.01.2021	22:07:24	0	0	2,93753	3,474	89,37	0,215	77,443	3,5	1006,78	6,8	8,8	8,5	1	1	1	1	1	1	1	1	1	0	1	-49,682875	274,239252	271,019016	0
14.01.2021	22:07:25	0	0	2,711566	3,393	89,0604	0,211	77,454	3,5	1006,78	6,7	8,8	8,5	1	1	1	1	1	1	1	1	1	0	1	-46,863989	274,248273	273,880103	0
14.01.2021	22:07:26	0	0	2,93753	3,33375	81,2016	0,212	77,476	3,5	1006,8	6,7	8,8	8,5	1	1	1	1	1	1	1	1	1	0	1	-48,907681	274,096979	271,129218	0
14.01.2021	22:07:27	0	0	4,180331	3,3525	67,6728	0,21	77,483	3,5	1006,74	6,7	8,8	8,5	1	1	1	1	1	1	1	1	1	0	1	-48,414376	274,251281	272,343787	0
14.01.2021	22:07:28	0	0	4,858223	3,40275	63,1872	0,209	77,489	3,5	1006,74	6,7	8,8	8,5	1	1	1	1	1	1	1	1	1	0	1	-49,119098	274,20321	271,414234	0
14.01.2021	22:07:29	0	0	4,632259	3,387	82,5984	0,212	77,493	3,5	1006,82	6,7	8,8	8,5	1	1	1	1	1	1	1	1	1	0	1	-46,5821	274,08952	273,419964	0
14.01.2021	22:07:30	0	0	3,050512	3,24675	91,152	0,211	77,489	3,5	1006,62	6,7	8,8	8,5	1	1	1	1	1	1	1	1	1	0	1	-49,541931	274,104441	270,529821	0
14.01.2021	22:07:31	0	0	2,824548	2,9805	78,6492	0,208	77,474	3,5	1006,86	6,8	8,8	8,5	1	1	1	1	1	1	1	1	1	0	1	-52,78365	274,188213	267,679561	0
14.01.2021	22:07:32	0	0	4,067349	3,294	84,0528	0,21	77,476	3,5	1006,78	6,8	8,8	8,5	1	1	1	1	1	1	1	1	1	0	1	-51,162791	274,246769	269,574266	0
14.01.2021	22:07:33	0	0	3,163494	3,34275	79,0308	0,208	77,461	3,5	1006,8	6,7	8,8	8,5	1	1	1	1	1	1	1	1	1	0	1	-51,79704	274,062691	268,079752	0
14.01.2021	22:07:34	0	0	2,93753	3,2985	69,8616	0,211	77,471	3,5	1006,82	6,8	8,8	8,5	1	1	1	1	1	1	1	1	1	0	1	-46,652572	274,15077	273,635626	0
14.01.2021	22:07:35	0	0	2,598584	3,4995	65,8404	0,202	77,451	3,5	1006,74	6,7	8,8	8,5	1	1	1	1	1	1	1	1	1	0	1	-44,467935	274,245266	276,262087	0
14.01.2021	22:07:36	0	0	2,93753	3,63	67,77	0,208	77,444	3,5	1006,8	6,7	8,8	8,5	1	1	1	1	1	1	1	1	1	0	1	-46,511628	274,243762	274,211361	0
14.01.2021	22:07:37	0	0	3,841385	3,612	63,1728	0,213	77,445	3,5	1006,82	6,8	8,8	8,5	1	1	1	1	1	1	1	1	1	0	1	-50,105708	274,119373	270,035796	0
14.01.2021	22:07:38	0	0	4,745241	3,858	70,2252	0,207	77,433	3,5	1006,76	6,7	8,8	8,5	1	1	1	1	1	1	1	1	1	0	1	-47,427766	274,07014	272,483802	0
14.01.2021	22:07:39	0	0	3,954367	4,0365	90,7848	0,201	77,409	3,5	1006,74	6,7	8,8	8,5	1	1	1	1	1	1	1	1	1	0	1	-48,978154	274,108919	271,114517	0
14.01.2021	22:07:40	0	0	4,180331	4,17975	86,2992	0,205	77,421	3,5	1006,78	6,7	8,8	8,5	1	1	1	1	1	1	1	1	1	0	1	-44,679352	274,186713	275,776851	0
14.01.2021	22:07:41	0	0	3,163494	4,245	88,9632	0,211	77,41	3,5	1006,86	6,7	8,8	8,5	1	1	1	1	1	1	1	1	1	0	1	-54,827343	274,260308	265,973051	0
14.01.2021	22:07:42	0	0	2,824548	4,473	77,9832	0,207	77,4	3,5	1006,78	6,7	8,8	8,5	1	1	1	1	1	1	1	1	1	0	1	-46,229739	274,107427	273,855958	0
14.01.2021	22:07:43	0	0	3,954344	4,9485	70,938	0,21	77,403	3,5	1006,84	6,7	8,8	8,6	1	1	1	1	1	1	1	1	1	0	1	-49,119098	274,07312	270,806386	0
14.01.2021	22:07:44	0	0	5,084186	5,2125	63,1728	0,201	77,41	3,5	1006,66	6,8	8,8	8,5	1	1	1	1	1	1	1	1	1	0	1	-48,907681	274,242259	271,808274	0
14.01.2021	22:07:45	0	0	5,197168	5,29725	77,616	0,204	77,424	3,5	1006,9	6,8	8,8	8,5	1	1	1	1	1	1	1	1	1	0	1	-45,877378	274,15077	274,410819	0
14.01.2021	22:07:46	0	0	3,50244	5,1645	73,8036	0,202	77,439	3,5	1006,72	6,7	8,8	8,5	1	1	1	1	1	1	1	1	1	0	1	-49,260042	274,248273	271,484049	0
14.01.2021	22:07:47	0	0	3,163494	5,23275	79,02	0,201	77,454	3,5	1006,96	6,8	8,8	8,5	1	1	1	1	1	1	1	1	1	0	1	-44,749824	274,099963	275,301015	0
14.01.2021	22:07:48	0	0	3,728403	5,07825	87,354	0,205	77,471	3,5	1006,68	6,8	8,8	8,5	1	1	1	1	1	1	1	1	1	0	1	-46,511628	274,12535	273,657796	0
14.01.2021	22:07:49	0	0	3,50244	5,0745	88,1244	0,208	77,493	3,5	1006,74	6,8	8,8	8,5	1	1	1	1	1	1	1	1	1	0	1	-46,088795	274,07014	273,822774	0
14.01.2021	22:07:50	0	0	3,841385	5,03925	91,8684	0,203	77,492	3,5	1006,76	6,8	8,8	8,5	1	1	1	1	1	1	1	1	1	0	1	-45,59549	274,215217	274,993986	0
14.01.2021	22:07:51	0	0	2,711566	4,6365	91,89	0,208	77,508	3,5	1006,78	6,8	8,8	8,5	1	1	1	1	1	1	1	1	1	0	1	-45,313601	274,206211	275,233763	0
14.01.2021	22:07:52	0	0	2,485602	4,5945	92,6604	0,202	77,515	3,5	1006,74	6,8	8,8	8,5	1	1	1	1	1	1	1	1	1	0	1	-51,162791	274,251281	269,595372	0
14.01.2021	22:07:53	0	0	4,293313	4,6755	105,8544	0,203	77,534	3,5	1006,6	6,7	8,8	8,5	1	1	1	1	1	1	1	1	1	0	1	-44,538407	274,126844	275,637998	0
14.01.2021	22:07:54	0	0	4,519277	4,8	94,0968	0,209	77,528	3,5	1006,96	6,7	8,8	8,5	1	1	1	1	1	1	1	1	1	0	1	-48,414376	274,252785	272,350824	0
14.01.2021	22:07:55	0	0	4,858223	4,845	92,9556	0,2	77,519	3,5	1006,84	6,8	8,8	8,5	1	1	1	1	1	1	1	1	1	0	1	-46,300211	274,131328	273,897142	0
14.01.2021	22:07:56	0	0	4,632259	4,8075	90,7884	0,21	77,512	3,5	1006,68	6,8	8,8	8,5	1	1	1	1	1	1	1	1	1	0	1	-46,511628	274,056734	273,337354	0
14.01.2021	22:07:57	0	0	3,50244	4,467	79,4268	0,201	77,503	3,5	1006,74	6,8	8,8	8,5	1	1	1	1	1	1	1	1	1	0	1	-45,454545	274,167235	274,910608	0
14.01.2021	22:07:58	0	0	4,858223	4,51875	83,7504	0,209	77,505	3,5	1006,84	6,7	8,8	8,5	1	1	1	1	1	1	1	1	1	0	1	-49,048626	274,059713	270,81426	0
14.01.2021	22:07:59	0	0	4,180331	4,91175	70,2252	0,206	77,522	3,5	1006,82	6,7	8,8	8,5	1	1	1	1	1	1	1	1	1	0	1	-48,978154	274,227231	271,667509	0
14.01.2021	22:08:00	0	0	3,050512	4,57425	66,2364	0,208	77,537	3,5	1006,86	6,7	8,8	8,5	1	1	1	1	1	1	1	1	1	0	1	-50,739958	274,240755	269,968966	0
14.01.2021	22:08:01	0	0	3,050512	4,57425	66,2364	0,208	77,537	3,5	1006,86	6,7	8,8	8,5	1	1	1	1	1	1	1	1	1	0	1	-50,739958	274,240755	269,968966	0
14.01.2021	22:08:02	0	0	3,163494	4,26	72,702	0,204	77,545	3,5	1006,76	6,8	8,8	8,5	1	1	1	1	1	1	1	1	1	0	1	-51,162791	274,058223	268,693143	0
14.01.2021	22:08:03	0	0	3,163494	4,044	74,5416	0,202	77,553	3,5	1006,76	6,8	8,8	8,5	1	1	1	1	1	1	1	1	1	0	1	-48,837209	274,173227	271,555947	0
14.01.2021	22:08:04	0	0	2,711566	4,1925	86,2992	0,203	77,546	3,5	1006,68	6,7	8,8	8,5	1	1	1	1	1	1	1	1	1	0	1	-48,696265	274,147777	271,57795	0
14.01.2021	22:08:05	0	0	4,406295	4,365	80,5428	0,208	77,546	3,5	1006,82	6,8	8,8	8,5	1	1	1	1	1	1	1	1	1	0	1	-45,243129	274,082064	274,724116	0
14.01.2021	22:08:06	0	0	3,728403	4,15275	88,1244	0,21	77,53	3,5	1006,78	6,8	8,8	8,5	1	1	1	1	1	1	1	1	1	0	1	-48,273432	274,19721	272,231844	0
14.01.2021	22:08:07	0	0	3,615421	3,97125	79,02	0,205	77,524	3,5	1006,68	6,7	8,7	8,5	1	1	1	1	1	1	1	1	1	0	1	-47,286822	274,129833	272,903548	0
14.01.2021	22:08:08	0	0	4,406295	4,305	99,9072	0,205	77,534	3,5	1006,7	6,8	8,8	8,5	1	1	1	1	1	1	1	1	1	0	1	-47,427766	274,243762	273,295223	0
14.01.2021	22:08:09	0	0	4,406295	4,48425	87,804	0,206	77,529	3,5	1006,72	6,7	8,8	8,5	1	1	1	1	1	1	1	1	1	0	1	-52,642706	274,227231	268,002957	0
14.01.2021	22:08:10	0	0	3,954367	4,674	102,5532	0,204	77,511	3,5	1006,66	6,8	8,8	8,5	1	1	1	1	1	1	1	1	1	0	1	-48,766737	274,183716	271,675451	0
14.01.2021	22:08:11	0	0	4,293313	4,44375	92,9304	0,201	77,536	3,5	1006,7	6,8	8,8	8,5	1	1	1	1	1	1	1	1	1	0	1	-49,119098	274,07163	270,799428	0
14.01.2021	22:08:12	0	0	4,293313	4,452	101,1456	0,203	77,525	3,5	1006,72	6,8	8,8	8,5	1	1	1	1	1	1	1	1	1	0	1	-46,5821	274,186713	273,874103	0
14.01.2021	22:08:13	0	0	4,745241	4,74675	90,8784	0,202	77,54	3,5	1006,74	6,7	8,8	8,5	1	1	1	1	1	1	1	1	1	0	1	-45,736434	274,122361	274,419028	0
14.01.2021	22:08:14	0	0	3,728403	5,145	79,7724	0,205	77,527	3,5	1006,74	6,7	8,8	8,5	1	1	1	1	1	1	1	1	1	0	1	-48,484848	274,252785	272,280352	0
14.01.2021	22:08:15	0	0	2,37262	4,914	77,9832	0,206	77,52	3,5	1006,9	6,7	8,8	8,5	1	1	1	1	1	1	1	1	1	0	1	-49,682875	274,074611	270,249567	0
14.01.2021	22:08:16	0	0	4,180331	4,7595	88,578	0,206	77,539	3,5	1006,78	6,8	8,8	8,5	1	1	1	1	1	1	1	1	1	0	1	-47,286822	274,155259	273,022356	0
14.01.2021	22:08:17	0	0	3,841385	4,5105	91,89	0,208	77,553	3,5	1006,78	6,8	8,8	8,5	1	1	1	1	1	1	1	1	1	0	1	-49,119098	274,245266	271,610924	0
14.01.2021	22:08:18	0	0	3,728403	4,35075	102,5568	0,206	77,565	3,5	1006,94	6,8	8,8	8,5	1	1	1	1	1	1	1	1	1	0	1	-44,749824	274,165738	275,60833	0
14.01.2021	22:08:19	0	0	2,259638	4,14525	102,2184	0,205	77,531	3,5	1006,88	6,8	8,8	8,5	1	1	1	1	1	1	1	1	1	0	1	-48,20296	274,074611	271,729483	0
14.01.2021	22:08:20	0	0	4,406295	4,0035	91,1484	0,201	77,518	3,5	1006,56	6,7	8,8	8,5	1	1	1	1	1	1	1	1	1	0	1	-49,541931	274,216718	271,054566	0
14.01.2021	22:08:21	0	0	5,084186	4,098	89,3016	0,206	77,525	3,5	1006,72	6,8	8,8	8,5	1	1	1	1	1	1	1	1	1	0	1	-46,793517	274,116386	273,334032	0
14.01.2021	22:08:22	0	0	4,519277	4,212	81,9792	0,206	77,535	3,5	1006,72	6,8	8,8	8,5	1	1	1	1	1	1	1	1	1	0	1	-46,441156	274,06567	273,449545	0
14.01.2021	22:08:23	0	0	4,293313	4,7145	85,5324	0,205	77,534	3,5	1006,84	6,8	8,8	8,5	1	1	1	1	1	1	1	1	1	0	1	-45,59549	274,192711	274,888751	0
14.01.2021	22:08:24	0	0	4,406295	4,74675	85,9032	0,206	77,534	3,5	1006,62	6,7	8,8	8,5	1	1	1	1	1	1	1	1	1	0	1	-45,59549	274,096979	274,44141	0
14.01.2021	22:08:25	0	0	2,824548	4,55625	96,9444	0,203	77,538	3,5	1006,8	6,7	8,8	8,5	1	1	1	1	1	1	1	1	1	0	1	-50,387597	274,225728	270,25104	0
14.01.2021	22:08:26	0	0	3,050512	4,19925	91,4904	0,204	77,55	3,5	1006,78	6,8	8,8	8,5	1	1	1	1	1	1	1	1	1	0	1	-51,656096	274,19421	268,835156	0
14.01.2021	22:08:27	0	0	3,841385	4,1805	97,4448	0,203	77,547	3,5	1006,68	6,8	8,8	8,5	1	1	1	1	1	1	1	1	1	0	1	-51,162791	274,053757	268,67229	0
14.01.2021	22:08:28	0	0	4,745241	4,206	99,9252	0,204	77,554	3,5	1006,58	6,8	8,8	8,5	1	1	1	1	1	1	1	1	1	0	1	-46,511628	274,131328	273,685725	0
14.01.2021	22:08:29	0	0	4,971205	4,14975	90,774	0,201	77,538	3,5	1006,66	6,8	8,8	8,5	1	1	1	1	1	1	1	1	1	0	1	-47,921071	274,074611	272,011371	0
14.01.2021	22:08:30	0	0	2,485602	4,31475	84,51	0,203	77,562	3,5	1006,64	6,8	8,8	8,5	1	1	1	1	1	1	1	1	1	0	1	-47,56871	274,251281	273,189453	0
14.01.2021	22:08:31	0	0	2,93753	4,53375	86,2884	0,207	77,574	3,5	1006,76	6,8	8,8	8,5	1	1	1	1	1	1	1	1	1	0	1	-45,947851	274,113399	274,165745	0
14.01.2021	22:08:32	0	0	3,389458	4,728	82,3464	0,212	77,571	3,5	1006,74	6,8	8,8	8,5	1	1	1	1	1	1	1	1	1	0	1	-48,555321	274,19571	271,942943	0
14.01.2021	22:08:33	0	0	4,406295	4,57725	82,3572	0,206	77,576	3,5	1006,8	6,8	8,8	8,5	1	1	1	1	1	1	1	1	1	0	1	-50,458069	274,252785	270,307131	0
14.01.2021	22:08:34	0	0	2,93753	4,557	80,172	0,207	77,577	3,5	1006,66	6,8	8,8	8,5	1	1	1	1	1	1	1	1	1	0	1	-47,21635	274,114893	272,904222	0
14.01.2021	22:08:35	0	0	2,146656	4,71375	91,9116	0,204	77,559	3,5	1006,72	6,8	8,8	8,5	1	1	1	1	1	1	1	1	1	0	1	-47,427766	274,242259	273,28819	0
14.01.2021	22:08:36	0	0	3,728403	4,4895	81,954	0,202	77,574	3,5	1006,72	6,8	8,8	8,5	1	1	1	1	1	1	1	1	1	0	1	-46,441156	274,249777	274,309971	0
14.01.2021	22:08:37	0	0	4,971205	4,31925	90,4392	0,204	77,568	3,5	1006,56	6,8	8,8	8,5	1	1	1	1	1	1	1	1	1	0	1	-51,79704	274,216718	268,799457	0
14.01.2021	22:08:38	0	0	4,406295	4,665	89,4312	0,205	77,556	3,5	1006,74	6,8	8,8	8,5	1	1	1	1	1	1	1	1	1	0	1	-45,454545	274,242259	275,26141	0
14.01.2021	22:08:39	0	0	3,615421	4,659	84,78	0,208	77,558	3,5	1006,82	6,8	8,8	8,5	1	1	1	1	1	1	1	1	1	0	1	-46,300211	274,242259	274,415744	0
14.01.2021	22:08:40	0	0	2,711566	4,65825	84,4344	0,202	77,552	3,5	1006,78	6,8	8,8	8,5	1	1	1	1	1	1	1	1	1	0	1	-48,20296	274,242259	272,512996	0
14.01.2021	22:08:41	0	0	5,084186	4,8105	98,442	0,203	77,555	3,5	1006,72	6,8	8,8	8,5	1	1	1	1	1	1	1	1	1	0	1	-47,286822	274,234743	273,393979	0
14.01.2021	22:08:42	0	0	3,050512	4,8915	105,1092	0,205	77,543	3,5	1006,74	6,8	8,8	8,5	1	1	1	1	1	1	1	1	1	0	1	-49,612403	274,153762	270,689781	0
14.01.2021	22:08:43	0	0	3,954367	4,98225	113,7528	0,21	77,551	3,5	1006,76	6,8	8,8	8,5	1	1	1	1	1	1	1	1	1	0	1	-50,458069	274,264822	270,36345	0
14.01.2021	22:08:44	0	0	3,615421	4,88025	128,3976	0,209	77,535	3,5	1006,82	6,8	8,8	8,5	1	1	1	1	1	1	1	1	1	0	1	-47,145877	274,260308	273,654517	0
14.01.2021	22:08:45	0	0	3,728403	4,54425	109,6992	0,206	77,54	3,5	1006,72	6,8	8,8	8,5	1	1	1	1	1	1	1	1	1	0	1	-44,045102	274,20171	276,481215	0
14.01.2021	22:08:46	0	0	2,824548	4,35375	114,8724	0,21	77,552	3,5	1006,92	6,8	8,8	8,5	1	1	1	1	1	1	1	1	1	0	1	-43,622269	274,091012	276,386761	0
14.01.2021	22:08:47	0	0	4,067349	4,1325	92,2464	0,205	77,546	3,5	1006,82	6,8	8,8	8,5	1	1	1	1	1	1	1	1	1	0	1	-45,736434	274,227231	274,909229	0
14.01.2021	22:08:48	0	0	4,519277	4,155	79,416	0,21	77,563	3,5	1006,9	6,8	8,8	8,5	1	1	1	1	1	1	1	1	1	0	1	-50,035236	274,099963	270,015602	0
14.01.2021	22:08:49	0	0	3,50244	3,95025	75,9852	0,211	77,567	3,5	1006,76	6,7	8,8	8,5	1	1	1	1	1	1	1	1	1	0	1	-52,290345	274,267833	268,54526	0
14.01.2021	22:08:50	0	0	2,485602	3,7905	85,9212	0,21	77,558	3,5	1006,84	6,8	8,8	8,5	1	1	1	1	1	1	1	1	1	0	1	-51,867512	274,168733	268,504641	0
14.01.2021	22:08:51	0	0	2,598584	3,714	104,7348	0,206	77,547	3,5	1006,7	6,8	8,8	8,5	1	1	1	1	1	1	1	1	1	0	1	-46,441156	274,254289	274,331082	0
14.01.2021	22:08:52	0	0	4,406295	3,891	91,5228	0,202	77,568	3,5	1006,84	6,8	8,8	8,5	1	1	1	1	1	1	1	1	1	0	1	-49,048626	274,213715	271,53383	0
14.01.2021	22:08:53	0	0	3,389458	4,02525	98,4564	0,212	77,558	3,5	1006,7	6,8	8,8	8,5	1	1	1	1	1	1	1	1	1	0	1	-48,132488	274,083555	271,84172	0
14.01.2021	22:08:54	0	0	3,389458	3,98625	90,4104	0,208	77,551	3,5	1006,74	6,7	8,8	8,5	1	1	1	1	1	1	1	1	1	0	1	-50,951374	274,123856	269,211068	0
14.01.2021	22:08:55	0	0	4,293313	4,02225	93,3228	0,213	77,535	3,5	1006,64	6,8	8,8	8,5	1	1	1	1	1	1	1	1	1	0	1	-48,273432	274,192711	272,210809	0
14.01.2021	22:08:56	0	0	3,728403	4,12875	96,588	0,214	77,558	3,5	1006,82	6,8	8,8	8,5	1	1	1	1	1	1	1	1	1	0	1	-50,528541	274,263317	270,285936	0
14.01.2021	22:08:57	0	0	2,93753	4,122	96,6708	0,211	77,541	3,5	1006,76	6,8	8,8	8,5	1	1	1	1	1	1	1	1	1	0	1	-47,991543	274,218219	272,611976	0
14.01.2021	22:08:58	0	0	2,93753	4,30425	93,726	0,206	77,555	3,5	1006,84	6,8	8,8	8,5	1	1	1	1	1	1	1	1	1	0	1	-43,904158	274,07312	276,021326	0
14.01.2021	22:08:59	0	0	2,711566	4,41825	92,9448	0,213	77,561	3,5	1006,76	6,8	8,8	8,5	1	1	1	1	1	1	1	1	1	0	1	-46,018323	274,273855	274,845464	0
14.01.2021	22:09:00	0	0	4,632259	4,25475	82,35	0,214	77,561	3,5	1006,64	6,8	8,8	8,5	1	1	1	1	1	1	1	1	1	0	1	-52,642706	274,108919	267,449964	0
14.01.2021	22:09:01	0	0	4,632259	4,25475	82,35	0,214	77,561	3,5	1006,64	6,8	8,8	8,5	1	1	1	1	1	1	1	1	1	0	1	-52,642706	274,108919	267,449964	0
14.01.2021	22:09:02	0	0	2,824548	4,07625	88,9776	0,207	77,551	3,5	1006,78	6,7	8,7	8,5	1	1	1	1	1	1	1	1	1	0	1	-48,837209	274,11788	271,297317	0
14.01.2021	22:09:03	0	0	4,971205	3,83325	83,0016	0,209	77,561	3,5	1006,86	6,8	8,8	8,5	1	1	1	1	1	1	1	1	1	0	1	-49,048626	274,119373	271,092878	0
14.01.2021	22:09:04	0	0	2,598584	3,7305	88,1208	0,215	77,567	3,5	1006,8	6,8	8,8	8,5	1	1	1	1	1	1	1	1	1	0	1	-46,934461	274,083555	273,039747	0
14.01.2021	22:09:05	0	0	5,084186	3,76725	102,9492	0,212	77,566	3,5	1006,78	6,8	8,8	8,5	1	1	1	1	1	1	1	1	1	0	1	-45,947851	274,120867	274,200632	0
14.01.2021	22:09:06	0	0	4,745241	3,69075	90,7848	0,215	77,559	3,5	1006,68	6,7	8,8	8,5	1	1	1	1	1	1	1	1	1	0	1	-49,119098	274,204711	271,42125	0
14.01.2021	22:09:07	0	0	3,841385	3,78	84,006	0,216	77,549	3,5	1006,84	6,8	8,8	8,5	1	1	1	1	1	1	1	1	1	0	1	-48,132488	274,141794	272,113768	0
14.01.2021	22:09:08	0	0	3,728403	3,64575	79,0452	0,216	77,552	3,5	1006,8	6,8	8,7	8,5	1	1	1	1	1	1	1	1	1	0	1	-45,243129	274,098471	274,80074	0
14.01.2021	22:09:09	0	0	4,519277	3,399	73,026	0,213	77,546	3,5	1006,78	6,8	8,8	8,5	1	1	1	1	1	1	1	1	1	0	1	-45,102185	274,155259	275,206993	0
14.01.2021	22:09:10	0	0	3,163494	3,39	78,0048	0,216	77,554	3,5	1006,84	6,8	8,8	8,5	1	1	1	1	1	1	1	1	1	0	1	-48,555321	274,107427	271,530376	0
14.01.2021	22:09:11	0	0	2,93753	3,46125	84,0456	0,22	77,534	3,5	1006,86	6,8	8,8	8,5	1	1	1	1	1	1	1	1	1	0	1	-46,793517	274,260308	274,006878	0
14.01.2021	22:09:12	0	0	4,745241	3,51075	77,958	0,218	77,512	3,5	1006,68	6,8	8,8	8,5	1	1	1	1	1	1	1	1	1	0	1	-53,206483	274,131328	266,99087	0
14.01.2021	22:09:13	0	0	4,971205	3,594	73,4112	0,212	77,501	3,5	1006,74	6,8	8,8	8,5	1	1	1	1	1	1	1	1	1	0	1	-50,035236	274,15077	270,252962	0
14.01.2021	22:09:14	0	0	4,858223	3,37275	88,9452	0,22	77,493	3,5	1006,68	6,8	8,8	8,5	1	1	1	1	1	1	1	1	1	0	1	-45,806906	274,252785	274,958294	0
14.01.2021	22:09:15	0	0	2,824548	3,09075	83,3868	0,212	77,486	3,5	1006,76	6,8	8,8	8,5	1	1	1	1	1	1	1	1	1	0	1	-49,048626	274,131328	271,148728	0
14.01.2021	22:09:16	0	0	4,406295	2,9115	82,3536	0,21	77,479	3,5	1006,74	6,7	8,8	8,5	1	1	1	1	1	1	1	1	1	0	1	-47,850599	274,122361	272,304863	0
14.01.2021	22:09:17	0	0	4,406295	3,16725	75,6072	0,222	77,475	3,5	1006,72	6,8	8,8	8,5	1	1	1	1	1	1	1	1	1	0	1	-46,370684	274,093995	273,65228	0
14.01.2021	22:09:18	0	0	4,971205	3,43725	72,306	0,218	77,481	3,5	1006,68	6,7	8,7	8,5	1	1	1	1	1	1	1	1	1	0	1	-46,018323	274,221223	274,599241	0
14.01.2021	22:09:19	0	0	4,180331	3,5325	75,6216	0,222	77,472	3,5	1006,74	6,8	8,8	8,5	1	1	1	1	1	1	1	1	1	0	1	-54,193094	274,156756	266,123079	0
14.01.2021	22:09:20	0	0	2,711566	3,4335	80,1684	0,216	77,465	3,5	1006,78	6,7	8,8	8,5	1	1	1	1	1	1	1	1	1	0	1	-48,273432	274,264822	272,548087	0
14.01.2021	22:09:21	0	0	3,050512	3,37275	81,6012	0,219	77,456	3,5	1006,7	6,7	8,8	8,5	1	1	1	1	1	1	1	1	1	0	1	-53,276956	274,14329	266,976289	0
14.01.2021	22:09:22	0	0	3,728403	3,3525	82,35	0,215	77,444	3,5	1006,76	6,8	8,8	8,5	1	1	1	1	1	1	1	1	1	0	1	-48,484848	274,152266	271,810342	0
14.01.2021	22:09:23	0	0	4,180331	3,222	103,6872	0,222	77,436	3,5	1006,74	6,7	8,8	8,5	1	1	1	1	1	1	1	1	1	0	1	-49,119098	274,080573	270,841185	0
14.01.2021	22:09:24	0	0	4,745241	3,102	87,7428	0,217	77,439	3,5	1006,8	6,8	8,8	8,5	1	1	1	1	1	1	1	1	1	0	1	-47,075405	274,230235	273,584311	0
14.01.2021	22:09:25	0	0	3,276476	3,1815	80,8956	0,221	77,428	3,5	1006,78	6,8	8,8	8,5	1	1	1	1	1	1	1	1	1	0	1	-48,484848	274,206211	272,062516	0
14.01.2021	22:09:26	0	0	3,276476	3,29625	75,9888	0,217	77,416	3,5	1006,78	6,8	8,7	8,5	1	1	1	1	1	1	1	1	1	0	1	-47,427766	274,249777	273,323361	0
14.01.2021	22:09:27	0	0	3,841385	3,43575	98,0712	0,221	77,411	3,5	1006,74	6,8	8,8	8,5	1	1	1	1	1	1	1	1	1	0	1	-48,555321	274,174725	271,844838	0
14.01.2021	22:09:28	0	0	2,711566	3,29925	80,1504	0,227	77,416	3,5	1006,74	6,7	8,8	8,5	1	1	1	1	1	1	1	1	1	0	1	-50,528541	274,267833	270,307065	0
14.01.2021	22:09:29	0	0	2,598584	3,26625	95,9292	0,22	77,38	3,5	1006,78	6,8	8,8	8,5	1	1	1	1	1	1	1	1	1	0	1	-47,991543	274,131328	272,20581	0
14.01.2021	22:09:30	0	0	4,632259	3,453	92,9736	0,222	77,398	3,5	1006,64	6,8	8,7	8,5	1	1	1	1	1	1	1	1	1	0	1	-47,850599	274,257298	272,935716	0
14.01.2021	22:09:31	0	0	4,858223	3,56025	87,3576	0,213	77,368	3,5	1006,72	6,8	8,8	8,5	1	1	1	1	1	1	1	1	1	0	1	-46,229739	274,251281	274,528424	0
14.01.2021	22:09:32	0	0	3,954367	3,50475	70,2504	0,216	77,381	3,5	1006,76	6,8	8,8	8,5	1	1	1	1	1	1	1	1	1	0	1	-49,753347	274,173227	270,639809	0
14.01.2021	22:09:33	0	0	3,163494	3,39825	65,0952	0,218	77,35	3,5	1006,72	6,8	8,7	8,5	1	1	1	1	1	1	1	1	1	0	1	-50,739958	274,248273	270,004134	0
14.01.2021	22:09:34	0	0	3,615421	3,19275	62,0388	0,214	77,355	3,5	1006,62	6,8	8,8	8,5	1	1	1	1	1	1	1	1	1	0	1	-49,82382	274,076101	270,115582	0
14.01.2021	22:09:35	0	0	5,197168	3,2115	67,6692	0,219	77,336	3,5	1006,72	6,8	8,8	8,5	1	1	1	1	1	1	1	1	1	0	1	-46,159267	274,176223	274,247895	0
14.01.2021	22:09:36	0	0	2,824548	3,264	80,1684	0,224	77,342	3,5	1006,86	6,8	8,8	8,5	1	1	1	1	1	1	1	1	1	0	1	-47,145877	274,239252	273,556014	0
14.01.2021	22:09:37	0	0	3,163494	3,48525	71,6652	0,221	77,328	3,5	1006,74	6,7	8,8	8,5	1	1	1	1	1	1	1	1	1	0	1	-43,128964	274,188213	277,334247	0
14.01.2021	22:09:38	0	0	2,485602	3,52875	74,9196	0,221	77,323	3,5	1006,76	6,8	8,8	8,5	1	1	1	1	1	1	1	1	1	0	1	-49,260042	274,146281	271,007182	0
14.01.2021	22:09:39	0	0	2,485602	3,49725	80,5212	0,213	77,312	3,5	1006,74	6,7	8,8	8,5	1	1	1	1	1	1	1	1	1	0	1	-47,357294	274,249777	273,393833	0
14.01.2021	22:09:40	0	0	4,745241	3,38625	73,7712	0,22	77,298	3,5	1006,8	6,7	8,8	8,5	1	1	1	1	1	1	1	1	1	0	1	-49,471459	274,218219	271,13206	0
14.01.2021	22:09:41	0	0	3,50244	3,4095	77,2128	0,221	77,296	3,5	1006,84	6,8	8,8	8,5	1	1	1	1	1	1	1	1	1	0	1	-48,484848	274,212214	272,090588	0
14.01.2021	22:09:42	0	0	2,598584	3,36825	83,7396	0,221	77,291	3,5	1006,74	6,8	8,8	8,5	1	1	1	1	1	1	1	1	1	0	1	-46,863989	274,129833	273,326381	0
14.01.2021	22:09:43	0	0	4,632259	3,73425	88,9488	0,216	77,287	3,5	1006,86	6,8	8,8	8,5	1	1	1	1	1	1	1	1	1	0	1	-48,625793	274,261812	272,181643	0
14.01.2021	22:09:44	0	0	3,954367	4,269	82,98	0,221	77,294	3,5	1006,84	6,8	8,8	8,5	1	1	1	1	1	1	1	1	1	0	1	-57,01198	274,123856	263,150462	0
14.01.2021	22:09:45	0	0	3,728403	4,4085	79,4124	0,225	77,269	3,5	1006,66	6,8	8,8	8,5	1	1	1	1	1	1	1	1	1	0	1	-45,525018	274,074611	274,407425	0
14.01.2021	22:09:46	0	0	2,824548	4,13175	81,9756	0,222	77,274	3,5	1006,8	6,8	8,8	8,5	1	1	1	1	1	1	1	1	1	0	1	-48,907681	274,164241	271,443474	0
14.01.2021	22:09:47	0	0	3,050512	3,705	81,2124	0,225	77,272	3,5	1006,7	6,8	8,8	8,5	1	1	1	1	1	1	1	1	1	0	1	-51,585624	274,258803	269,207731	0
14.01.2021	22:09:48	0	0	4,632259	3,3105	61,6968	0,219	77,266	3,5	1006,8	6,8	8,8	8,5	1	1	1	1	1	1	1	1	1	0	1	-42,847075	274,07312	277,078408	0
14.01.2021	22:09:49	0	0	2,146656	3,123	62,7912	0,22	77,265	3,5	1006,8	6,8	8,8	8,5	1	1	1	1	1	1	1	1	1	0	1	-51,303735	274,180718	269,124441	0
14.01.2021	22:09:50	0	0	3,050512	3,19875	79,3944	0,225	77,271	3,5	1006,84	6,8	8,8	8,5	1	1	1	1	1	1	1	1	1	0	1	-51,79704	274,260308	269,003354	0
14.01.2021	22:09:51	0	0	5,197168	3,5145	86,9724	0,219	77,26	3,5	1006,72	6,8	8,8	8,5	1	1	1	1	1	1	1	1	1	0	1	-50,317125	274,236246	270,370706	0
14.01.2021	22:09:52	0	0	4,858223	3,981	70,6032	0,219	77,26	3,5	1006,66	6,8	8,8	8,5	1	1	1	1	1	1	1	1	1	0	1	-48,696265	274,192711	271,787976	0
14.01.2021	22:09:53	0	0	2,824548	4,11975	83,34	0,222	77,248	3,5	1006,72	6,8	8,8	8,5	1	1	1	1	1	1	1	1	1	0	1	-45,877378	274,252785	274,887822	0
14.01.2021	22:09:54	0	0	2,824548	4,5405	74,9124	0,221	77,26	3,5	1006,8	6,8	8,8	8,5	1	1	1	1	1	1	1	1	1	0	1	-45,525018	274,102948	274,539762	0
14.01.2021	22:09:55	0	0	4,406295	5,0565	74,5488	0,22	77,247	3,5	1006,72	6,8	8,8	8,5	1	1	1	1	1	1	1	1	1	0	1	-45,806906	274,192711	274,677334	0
14.01.2021	22:09:56	0	0	3,163494	5,24625	80,1576	0,22	77,269	3,5	1006,8	6,7	8,8	8,5	1	1	1	1	1	1	1	1	1	0	1	-48,20296	274,082064	271,764285	0
14.01.2021	22:09:57	0	0	3,50244	4,926	75,9888	0,22	77,277	3,5	1006,72	6,8	8,8	8,5	1	1	1	1	1	1	1	1	1	0	1	-48,062016	274,135813	272,156292	0
14.01.2021	22:09:58	0	0	3,954367	4,665	80,892	0,221	77,279	3,5	1006,78	6,8	8,8	8,5	1	1	1	1	1	1	1	1	1	0	1	-52,149401	274,092503	267,866596	0
14.01.2021	22:09:59	0	0	3,389458	4,4145	80,1504	0,224	77,292	3,5	1006,84	6,8	8,8	8,5	1	1	1	1	1	1	1	1	1	0	1	-47,357294	274,06716	272,540362	0
14.01.2021	22:10:00	0	0	4,745241	4,36275	86,274	0,218	77,289	3,5	1006,8	6,8	8,8	8,5	1	1	1	1	1	1	1	1	1	0	1	-49,048626	274,101456	271,009183	0
14.01.2021	22:10:01	0	0	4,745241	4,36275	86,274	0,218	77,289	3,5	1006,8	6,8	8,8	8,5	1	1	1	1	1	1	1	1	1	0	1	-49,048626	274,101456	271,009183	0
14.01.2021	22:10:02	0	0	3,615421	4,48425	83,358	0,22	77,31	3,5	1006,9	6,7	8,8	8,5	1	1	1	1	1	1	1	1	1	0	1	-49,471459	274,091012	270,537571	0
14.01.2021	22:10:03	0	0	4,971205	4,59675	80,1504	0,217	77,323	3,5	1006,8	6,8	8,8	8,5	1	1	1	1	1	1	1	1	1	0	1	-46,229739	274,218219	274,37378	0
14.01.2021	22:10:04	0	0	2,824548	4,85025	73,7856	0,218	77,336	3,5	1006,84	6,8	8,8	8,5	1	1	1	1	1	1	1	1	1	0	1	-47,56871	274,252785	273,19649	0
14.01.2021	22:10:05	0	0	2,93753	4,80075	63,8604	0,22	77,349	3,5	1006,78	6,8	8,8	8,5	1	1	1	1	1	1	1	1	1	0	1	-51,233263	274,12535	268,936161	0
14.01.2021	22:10:06	0	0	4,406295	4,58175	80,5284	0,216	77,358	3,5	1006,84	6,8	8,8	8,5	1	1	1	1	1	1	1	1	1	0	1	-48,062016	274,08952	271,940049	0
14.01.2021	22:10:07	0	0	4,971205	4,64475	77,2128	0,219	77,352	3,5	1006,88	6,8	8,8	8,5	1	1	1	1	1	1	1	1	1	0	1	-46,793517	274,255794	273,985759	0
14.01.2021	22:10:08	0	0	4,293313	4,95	81,5796	0,217	77,372	3,5	1006,84	6,8	8,8	8,5	1	1	1	1	1	1	1	1	1	0	1	-49,048626	274,140298	271,190642	0
14.01.2021	22:10:09	0	0	3,954367	5,256	88,11	0,222	77,363	3,5	1006,88	6,8	8,7	8,5	1	1	1	1	1	1	1	1	1	0	1	-47,357294	274,255794	273,421982	0
14.01.2021	22:10:10	0	0	3,389458	5,286	91,242	0,22	77,387	3,5	1006,82	6,8	8,8	8,5	1	1	1	1	1	1	1	1	1	0	1	-49,048626	274,161246	271,288534	0
14.01.2021	22:10:11	0	0	3,389458	5,2725	104,0616	0,213	77,38	3,5	1006,78	6,8	8,8	8,5	1	1	1	1	1	1	1	1	1	0	1	-49,753347	274,237749	270,941513	0
14.01.2021	22:10:12	0	0	4,632259	4,9965	95,8464	0,213	77,389	3,5	1006,64	6,8	8,8	8,5	1	1	1	1	1	1	1	1	1	0	1	-48,20296	274,132823	272,001378	0
14.01.2021	22:10:13	0	0	3,276476	4,89675	84,0636	0,219	77,404	3,5	1006,82	6,8	8,8	8,5	1	1	1	1	1	1	1	1	1	0	1	-47,921071	274,092503	272,094925	0
14.01.2021	22:10:14	0	0	2,598584	4,887	97,3152	0,217	77,402	3,5	1006,84	6,8	8,8	8,5	1	1	1	1	1	1	1	1	1	0	1	-47,850599	274,083555	272,123609	0
14.01.2021	22:10:15	0	0	2,93753	4,53075	86,6808	0,213	77,409	3,5	1006,7	6,8	8,8	8,5	1	1	1	1	1	1	1	1	1	0	1	-47,709655	274,206211	272,837709	0
14.01.2021	22:10:16	0	0	4,971205	4,4025	87,8004	0,217	77,416	3,5	1006,84	6,8	8,7	8,5	1	1	1	1	1	1	1	1	1	0	1	-45,947851	274,269338	274,894799	0
14.01.2021	22:10:17	0	0	2,824548	4,70925	80,514	0,224	77,44	3,5	1006,86	6,8	8,8	8,5	1	1	1	1	1	1	1	1	1	0	1	-47,286822	274,149273	272,994384	0
14.01.2021	22:10:18	0	0	3,050512	4,896	85,1904	0,219	77,437	3,5	1006,72	6,8	8,8	8,5	1	1	1	1	1	1	1	1	1	0	1	-50,035236	274,206211	270,512128	0
14.01.2021	22:10:19	0	0	3,050512	4,8465	77,2164	0,218	77,451	3,5	1006,78	6,8	8,8	8,5	1	1	1	1	1	1	1	1	1	0	1	-48,907681	274,27988	271,984297	0
14.01.2021	22:10:20	0	0	2,824548	4,6995	62,4132	0,217	77,469	3,5	1006,84	6,8	8,8	8,5	1	1	1	1	1	1	1	1	1	0	1	-47,075405	274,123856	273,087037	0
14.01.2021	22:10:21	0	0	4,519277	4,938	76,0752	0,214	77,458	3,5	1006,72	6,8	8,8	8,5	1	1	1	1	1	1	1	1	1	0	1	-47,639183	274,209212	272,922216	0
14.01.2021	22:10:22	0	0	3,615421	4,69425	72,2952	0,221	77,469	3,5	1006,64	6,8	8,7	8,5	1	1	1	1	1	1	1	1	1	0	1	-47,639183	274,278374	273,245747	0
14.01.2021	22:10:23	0	0	3,954367	4,47525	86,2812	0,219	77,462	3,5	1006,74	6,8	8,8	8,5	1	1	1	1	1	1	1	1	1	0	1	-52,078929	274,111906	268,027691	0
14.01.2021	22:10:24	0	0	2,824548	4,21725	94,086	0,222	77,458	3,5	1006,82	6,8	8,8	8,5	1	1	1	1	1	1	1	1	1	0	1	-47,286822	274,11788	272,847704	0
14.01.2021	22:10:25	0	0	2,824548	3,92175	93,3372	0,219	77,467	3,5	1006,92	6,8	8,8	8,5	1	1	1	1	1	1	1	1	1	0	1	-46,441156	274,275361	274,429678	0
14.01.2021	22:10:26	0	0	5,084186	3,72	89,7048	0,219	77,459	3,5	1006,9	6,8	8,7	8,5	1	1	1	1	1	1	1	1	1	0	1	-47,427766	274,180718	273,00041	0
14.01.2021	22:10:27	0	0	3,50244	3,48525	93,3588	0,216	77,457	3,5	1006,84	6,8	8,8	8,5	1	1	1	1	1	1	1	1	1	0	1	-47,639183	274,14329	272,614062	0
14.01.2021	22:10:28	0	0	2,598584	3,1215	77,9688	0,216	77,462	3,5	1006,82	6,8	8,8	8,5	1	1	1	1	1	1	1	1	1	0	1	-47,498238	274,266328	273,330324	0
14.01.2021	22:10:29	0	0	3,276476	3,0705	81,2268	0,217	77,457	3,5	1006,9	6,8	8,8	8,5	1	1	1	1	1	1	1	1	1	0	1	-49,048626	274,155259	271,260552	0
14.01.2021	22:10:30	0	0	2,93753	3,471	78,2892	0,224	77,459	3,5	1006,68	6,8	8,8	8,5	1	1	1	1	1	1	1	1	1	0	1	-47,639183	274,114893	272,481389	0
14.01.2021	22:10:31	0	0	3,276476	3,72525	75,2112	0,219	77,446	3,5	1006,78	6,8	8,8	8,5	1	1	1	1	1	1	1	1	1	0	1	-51,162791	274,12535	269,006633	0
14.01.2021	22:10:32	0	0	4,067349	4,1745	73,0476	0,215	77,453	3,5	1006,66	6,8	8,8	8,5	1	1	1	1	1	1	1	1	1	0	1	-45,384073	274,185214	275,065122	0
14.01.2021	22:10:33	0	0	4,745241	4,40025	81,9684	0,215	77,454	3,5	1006,84	6,8	8,8	8,5	1	1	1	1	1	1	1	1	1	0	1	-46,229739	274,257298	274,556576	0
14.01.2021	22:10:34	0	0	4,519277	4,33575	84,816	0,217	77,452	3,5	1006,8	6,8	8,8	8,5	1	1	1	1	1	1	1	1	1	0	1	-50,669486	274,119373	269,472019	0
14.01.2021	22:10:35	0	0	3,050512	4,2675	85,5468	0,218	77,472	3,5	1006,7	6,8	8,8	8,5	1	1	1	1	1	1	1	1	1	0	1	-46,441156	274,147777	273,833059	0
14.01.2021	22:10:36	0	0	3,50244	3,90975	84,4308	0,215	77,459	3,5	1006,66	6,8	8,8	8,5	1	1	1	1	1	1	1	1	1	0	1	-45,313601	274,266328	275,514961	0
14.01.2021	22:10:37	0	0	3,954367	3,74925	77,958	0,22	77,467	3,5	1006,82	6,8	8,8	8,5	1	1	1	1	1	1	1	1	1	0	1	-48,484848	274,141794	271,761407	0
14.01.2021	22:10:38	0	0	2,598584	3,54075	89,712	0,222	77,46	3,5	1006,76	6,8	8,8	8,5	1	1	1	1	1	1	1	1	1	0	1	-48,696265	274,095487	271,333666	0
14.01.2021	22:10:39	0	0	3,050512	3,53475	93,3336	0,223	77,454	3,5	1006,84	6,8	8,8	8,5	1	1	1	1	1	1	1	1	1	0	1	-50,035236	274,111906	270,071384	0
14.01.2021	22:10:40	0	0	3,954367	3,78675	93,7368	0,222	77,45	3,5	1006,8	6,8	8,8	8,5	1	1	1	1	1	1	1	1	1	0	1	-47,21635	274,105934	272,862374	0
14.01.2021	22:10:41	0	0	3,728403	3,8985	85,1796	0,221	77,456	3,5	1006,82	6,8	8,8	8,5	1	1	1	1	1	1	1	1	1	0	1	-47,075405	274,122361	273,080057	0
14.01.2021	22:10:42	0	0	2,711566	3,85725	87,4584	0,218	77,441	3,5	1006,74	6,7	8,8	8,5	1	1	1	1	1	1	1	1	1	0	1	-48,625793	274,206211	271,921571	0
14.01.2021	22:10:43	0	0	5,197168	3,81675	74,5524	0,224	77,437	3,5	1006,64	6,8	8,8	8,5	1	1	1	1	1	1	1	1	1	0	1	-46,652572	274,083555	273,321635	0
14.01.2021	22:10:44	0	0	2,824548	3,879	80,154	0,222	77,423	3,5	1006,78	6,8	8,8	8,5	1	1	1	1	1	1	1	1	1	0	1	-45,102185	274,126844	275,07422	0
14.01.2021	22:10:45	0	0	4,632259	3,93975	79,4376	0,224	77,428	3,5	1006,6	6,8	8,8	8,5	1	1	1	1	1	1	1	1	1	0	1	-45,454545	274,240755	275,254378	0
14.01.2021	22:10:46	0	0	4,971205	4,014	85,5396	0,218	77,42	3,5	1006,58	6,8	8,8	8,5	1	1	1	1	1	1	1	1	1	0	1	-51,374207	274,240755	269,334716	0
14.01.2021	22:10:47	0	0	4,971205	3,9855	103,6836	0,222	77,429	3,5	1006,74	6,8	8,8	8,5	1	1	1	1	1	1	1	1	1	0	1	-47,709655	274,137308	272,515639	0
14.01.2021	22:10:48	0	0	3,615421	3,756	90,4212	0,216	77,422	3,5	1006,82	6,7	8,8	8,5	1	1	1	1	1	1	1	1	1	0	1	-48,484848	274,088029	271,510251	0
14.01.2021	22:10:49	0	0	3,050512	3,549	81,9828	0,217	77,419	3,5	1006,66	6,8	8,8	8,5	1	1	1	1	1	1	1	1	1	0	1	-46,652572	274,183716	273,789616	0
14.01.2021	22:10:50	0	0	3,841385	3,36075	95,5368	0,226	77,443	3,5	1006,8	6,8	8,8	8,5	1	1	1	1	1	1	1	1	1	0	1	-46,229739	274,270844	274,619956	0
14.01.2021	22:10:51	0	0	4,632259	3,249	85,8996	0,222	77,42	3,5	1006,94	6,8	8,8	8,5	1	1	1	1	1	1	1	1	1	0	1	-47,286822	274,236246	273,401009	0
14.01.2021	22:10:52	0	0	4,632259	3,3255	89,316	0,221	77,415	3,5	1006,82	6,7	8,8	8,5	1	1	1	1	1	1	1	1	1	0	1	-50,739958	274,20021	269,779345	0
14.01.2021	22:10:53	0	0	3,728403	3,258	76,3704	0,225	77,425	3,5	1006,64	6,8	8,8	8,5	1	1	1	1	1	1	1	1	1	0	1	-55,179704	274,275361	265,69113	0
14.01.2021	22:10:54	0	0	4,519277	3,08475	83,3616	0,218	77,432	3,5	1006,8	6,8	8,8	8,5	1	1	1	1	1	1	1	1	1	0	1	-46,934461	274,243762	273,788528	0
14.01.2021	22:10:55	0	0	2,485602	2,92275	98,0748	0,224	77,423	3,5	1006,7	6,7	8,7	8,5	1	1	1	1	1	1	1	1	1	0	1	-45,525018	274,236246	275,162813	0
14.01.2021	22:10:56	0	0	3,050512	2,84025	94,3956	0,217	77,431	3,5	1006,72	6,8	8,8	8,5	1	1	1	1	1	1	1	1	1	0	1	-48,696265	274,266328	272,132297	0
14.01.2021	22:10:57	0	0	4,519277	2,78175	81,5904	0,22	77,423	3,5	1006,82	6,8	8,8	8,5	1	1	1	1	1	1	1	1	1	0	1	-47,498238	274,128339	272,685149	0
14.01.2021	22:10:58	0	0	4,406295	2,7675	96,6096	0,227	77,444	3,5	1006,92	6,8	8,8	8,5	1	1	1	1	1	1	1	1	1	0	1	-49,260042	274,230235	271,399674	0
14.01.2021	22:10:59	0	0	4,632231	2,6625	85,8852	0,227	77,443	3,5	1006,76	6,8	8,8	8,6	1	1	1	1	1	1	1	1	1	0	1	-47,780127	274,269338	273,062523	0
14.01.2021	22:11:00	0	0	5,197168	2,85375	81,378	0,224	77,446	3,5	1006,76	6,8	8,8	8,5	1	1	1	1	1	1	1	1	1	0	1	-45,806906	274,147777	274,467308	0
14.01.2021	22:11:01	0	0	5,197168	2,85375	81,378	0,224	77,446	3,5	1006,76	6,8	8,8	8,5	1	1	1	1	1	1	1	1	1	0	1	-45,806906	274,147777	274,467308	0
14.01.2021	22:11:02	0	0	4,632259	3,018	81,9684	0,225	77,422	3,5	1006,74	6,8	8,8	8,5	1	1	1	1	1	1	1	1	1	0	1	-50,317125	274,085046	269,664046	0
14.01.2021	22:11:03	0	0	2,93753	3,04875	83,7252	0,223	77,418	3,5	1006,72	6,8	8,8	8,5	1	1	1	1	1	1	1	1	1	0	1	-44,679352	274,119373	275,462152	0
14.01.2021	22:11:04	0	0	4,293287	3,063	86,274	0,225	77,405	3,5	1006,7	6,8	8,8	8,6	1	1	1	1	1	1	1	1	1	0	1	-46,018323	274,120867	274,13016	0
14.01.2021	22:11:05	0	0	4,632259	3,06525	72,2988	0,22	77,415	3,5	1006,82	6,8	8,7	8,5	1	1	1	1	1	1	1	1	1	0	1	-45,243129	274,091012	274,765901	0
14.01.2021	22:11:06	0	0	3,50244	3,0525	82,9728	0,227	77,389	3,5	1006,74	6,8	8,7	8,5	1	1	1	1	1	1	1	1	1	0	1	-49,400987	274,077591	270,545375	0
14.01.2021	22:11:07	0	0	4,632259	3,01425	84,4164	0,217	77,389	3,5	1006,72	6,8	8,8	8,5	1	1	1	1	1	1	1	1	1	0	1	-53,629316	274,219721	266,981225	0
14.01.2021	22:11:08	0	0	2,711566	2,87325	90,4032	0,219	77,378	3,5	1006,82	6,8	8,8	8,5	1	1	1	1	1	1	1	1	1	0	1	-50,951374	274,146281	269,31585	0
14.01.2021	22:11:09	0	0	4,858223	2,88225	84,8016	0,227	77,368	3,5	1006,84	6,8	8,7	8,5	1	1	1	1	1	1	1	1	1	0	1	-51,585624	274,231738	269,08112	0
14.01.2021	22:11:10	0	0	4,51925	3,07275	84,0348	0,222	77,352	3,5	1006,74	6,8	8,8	8,6	1	1	1	1	1	1	1	1	1	0	1	-46,652572	274,20171	273,873745	0
14.01.2021	22:11:11	0	0	4,293313	3,36225	87,7356	0,224	77,342	3,5	1006,84	6,8	8,8	8,5	1	1	1	1	1	1	1	1	1	0	1	-46,5821	274,255794	274,197176	0
14.01.2021	22:11:12	0	0	2,71155	3,55425	92,9592	0,223	77,333	3,5	1006,8	6,8	8,8	8,6	1	1	1	1	1	1	1	1	1	0	1	-48,625793	274,257298	272,160522	0
14.01.2021	22:11:13	0	0	4,293313	3,459	101,8332	0,225	77,309	3,5	1006,74	6,8	8,8	8,5	1	1	1	1	1	1	1	1	1	0	1	-49,612403	274,182217	270,822778	0
14.01.2021	22:11:14	0	0	2,824548	3,2415	79,7616	0,228	77,32	3,5	1006,76	6,8	8,8	8,5	1	1	1	1	1	1	1	1	1	0	1	-49,964764	274,251281	270,793399	0
14.01.2021	22:11:15	0	0	4,180331	2,93325	88,9632	0,22	77,306	3,5	1006,86	6,7	8,8	8,5	1	1	1	1	1	1	1	1	1	0	1	-46,5821	274,146281	273,685124	0
14.01.2021	22:11:16	0	0	3,728403	2,802	82,35	0,222	77,292	3,5	1006,8	6,8	8,8	8,5	1	1	1	1	1	1	1	1	1	0	1	-55,250176	274,246769	265,48688	0
14.01.2021	22:11:17	0	0	3,163494	2,94075	85,9104	0,223	77,29	3,5	1006,82	6,8	8,8	8,5	1	1	1	1	1	1	1	1	1	0	1	-47,639183	274,111906	272,467437	0
14.01.2021	22:11:18	0	0	3,50244	2,967	72,2916	0,225	77,274	3,5	1006,88	6,8	8,8	8,5	1	1	1	1	1	1	1	1	1	0	1	-49,400987	274,185214	271,048208	0
14.01.2021	22:11:19	0	0	4,067349	2,736	80,1396	0,222	77,249	3,5	1006,8	6,8	8,8	8,5	1	1	1	1	1	1	1	1	1	0	1	-45,665962	274,249777	275,085165	0
14.01.2021	22:11:20	0	0	3,163494	2,76525	68,7888	0,225	77,256	3,5	1006,76	6,8	8,8	8,5	1	1	1	1	1	1	1	1	1	0	1	-44,820296	274,128339	275,363091	0
14.01.2021	22:11:21	0	0	4,519277	2,84775	62,0496	0,226	77,242	3,5	1006,86	6,8	8,8	8,5	1	1	1	1	1	1	1	1	1	0	1	-45,454545	274,258803	275,338809	0
14.01.2021	22:11:22	0	0	4,51925	2,75325	88,9632	0,225	77,25	3,5	1006,88	6,8	8,8	8,6	1	1	1	1	1	1	1	1	1	0	1	-47,991543	274,222724	272,633045	0
14.01.2021	22:11:23	0	0	3,728403	2,52525	92,2788	0,225	77,219	3,5	1006,84	6,8	8,8	8,5	1	1	1	1	1	1	1	1	1	0	1	-47,21635	274,20321	273,316983	0
14.01.2021	22:11:24	0	0	3,954367	2,5785	90,018	0,219	77,23	3,5	1006,84	6,8	8,8	8,5	1	1	1	1	1	1	1	1	1	0	1	-49,119098	274,249777	271,632029	0
14.01.2021	22:11:25	0	0	3,615421	2,83725	77,2128	0,228	77,229	3,5	1006,86	6,8	8,7	8,5	1	1	1	1	1	1	1	1	1	0	1	-53,206483	274,228733	267,446206	0
14.01.2021	22:11:26	0	0	4,180331	3,3555	95,8392	0,221	77,229	3,5	1006,66	6,8	8,7	8,5	1	1	1	1	1	1	1	1	1	0	1	-50,528541	274,080573	269,431742	0
14.01.2021	22:11:27	0	0	2,711566	3,66675	86,2776	0,227	77,219	3,5	1006,86	6,8	8,7	8,5	1	1	1	1	1	1	1	1	1	0	1	-49,753347	274,122361	270,402115	0
14.01.2021	22:11:28	0	0	3,050512	4,18425	75,6324	0,226	77,221	3,5	1006,92	6,8	8,8	8,5	1	1	1	1	1	1	1	1	1	0	1	-46,5821	274,101456	273,475709	0
14.01.2021	22:11:29	0	0	2,824548	4,52475	74,1852	0,224	77,202	3,5	1006,88	6,8	8,8	8,5	1	1	1	1	1	1	1	1	1	0	1	-47,780127	274,085046	272,201044	0
14.01.2021	22:11:30	0	0	2,598584	4,8585	77,7204	0,219	77,226	3,5	1006,86	6,8	8,8	8,5	1	1	1	1	1	1	1	1	1	0	1	-46,5821	274,120867	273,566383	0
14.01.2021	22:11:31	0	0	2,598584	4,87725	74,5416	0,224	77,208	3,5	1006,82	6,8	8,8	8,5	1	1	1	1	1	1	1	1	1	0	1	-48,696265	274,092503	271,319732	0
14.01.2021	22:11:32	0	0	3,728403	4,6725	64,2348	0,224	77,217	3,5	1006,86	6,8	8,8	8,5	1	1	1	1	1	1	1	1	1	0	1	-46,5821	274,091012	273,42693	0
14.01.2021	22:11:33	0	0	4,180331	4,47825	66,9204	0,224	77,222	3,5	1006,76	6,8	8,8	8,5	1	1	1	1	1	1	1	1	1	0	1	-52,008457	274,227231	268,637206	0
14.01.2021	22:11:34	0	0	5,197168	4,50975	68,4576	0,22	77,239	3,5	1006,72	6,8	8,8	8,5	1	1	1	1	1	1	1	1	1	0	1	-47,639183	274,07312	272,286301	0
14.01.2021	22:11:35	0	0	2,824531	4,31625	82,962	0,22	77,231	3,5	1006,76	6,8	8,8	8,6	1	1	1	1	1	1	1	1	1	0	1	-44,045102	274,138803	276,187178	0
14.01.2021	22:11:36	0	0	2,485602	4,116	65,8404	0,219	77,25	3,5	1006,78	6,8	8,8	8,5	1	1	1	1	1	1	1	1	1	0	1	-47,21635	274,266328	273,612213	0
14.01.2021	22:11:37	0	0	3,276476	3,9195	74,16	0,214	77,261	3,5	1006,86	6,8	8,7	8,5	1	1	1	1	1	1	1	1	1	0	1	-46,229739	274,111906	273,87688	0
14.01.2021	22:11:38	0	0	3,841385	3,4695	94,4064	0,216	77,282	3,5	1006,8	6,8	8,7	8,5	1	1	1	1	1	1	1	1	1	0	1	-47,004933	274,260308	273,795462	0
14.01.2021	22:11:39	0	0	4,858223	3,237	99,5256	0,223	77,3	3,5	1006,94	6,8	8,8	8,5	1	1	1	1	1	1	1	1	1	0	1	-51,585624	274,076101	268,353778	0
14.01.2021	22:11:40	0	0	3,841385	3,27975	91,854	0,217	77,319	3,5	1006,7	6,8	8,7	8,5	1	1	1	1	1	1	1	1	1	0	1	-45,172657	274,107427	274,91304	0
14.01.2021	22:11:41	0	0	2,598584	4,04175	82,4292	0,217	77,346	3,5	1006,74	6,8	8,8	8,5	1	1	1	1	1	1	1	1	1	0	1	-46,018323	274,19571	274,479941	0
14.01.2021	22:11:42	0	0	4,406295	4,518	73,4472	0,218	77,359	3,5	1006,86	6,8	8,7	8,5	1	1	1	1	1	1	1	1	1	0	1	-54,40451	274,257298	266,381805	0
14.01.2021	22:11:43	0	0	3,50244	4,09875	94,068	0,217	77,377	3,5	1006,66	6,8	8,8	8,5	1	1	1	1	1	1	1	1	1	0	1	-50,739958	274,161246	269,597202	0
14.01.2021	22:11:44	0	0	4,971205	3,8385	84,7908	0,224	77,392	3,5	1006,7	6,8	8,7	8,5	1	1	1	1	1	1	1	1	1	0	1	-49,330514	274,261812	271,476921	0
14.01.2021	22:11:45	0	0	3,276476	3,954	92,7072	0,218	77,404	3,5	1006,76	6,8	8,7	8,5	1	1	1	1	1	1	1	1	1	0	1	-47,780127	274,113399	272,333468	0
14.01.2021	22:11:46	0	0	3,841385	4,218	90,8028	0,219	77,408	3,5	1006,8	6,8	8,8	8,5	1	1	1	1	1	1	1	1	1	0	1	-41,014799	274,210713	279,553618	0
14.01.2021	22:11:47	0	0	4,406268	4,55625	86,274	0,223	77,41	3,5	1006,78	6,8	8,8	8,6	1	1	1	1	1	1	1	1	1	0	1	-47,145877	274,264822	273,675642	0
14.01.2021	22:11:48	0	0	3,728403	4,59	79,7472	0,219	77,397	3,5	1006,86	6,8	8,8	8,5	1	1	1	1	1	1	1	1	1	0	1	-43,481325	274,152266	276,813866	0
14.01.2021	22:11:49	0	0	2,71155	4,31625	81,2232	0,22	77,403	3,5	1006,92	6,8	8,8	8,6	1	1	1	1	1	1	1	1	1	0	1	-50,599013	274,111906	269,507606	0
14.01.2021	22:11:50	0	0	4,067349	4,2645	70,236	0,224	77,385	3,5	1006,8	6,8	8,7	8,5	1	1	1	1	1	1	1	1	1	0	1	-47,357294	274,083555	272,616914	0
14.01.2021	22:11:51	0	0	2,824548	4,11825	83,7288	0,219	77,387	3,5	1006,78	6,8	8,8	8,5	1	1	1	1	1	1	1	1	1	0	1	-48,555321	274,174725	271,844838	0
14.01.2021	22:11:52	0	0	4,632259	4,01475	78,3684	0,224	77,385	3,5	1006,9	6,8	8,8	8,5	1	1	1	1	1	1	1	1	1	0	1	-43,97463	274,093995	276,048334	0
14.01.2021	22:11:53	0	0	4,632259	4,371	75,996	0,223	77,387	3,5	1006,78	6,8	8,8	8,5	1	1	1	1	1	1	1	1	1	0	1	-51,233263	274,260308	269,567132	0
14.01.2021	22:11:54	0	0	4,180331	4,56	82,6236	0,225	77,381	3,5	1006,88	6,8	8,8	8,5	1	1	1	1	1	1	1	1	1	0	1	-46,088795	274,207712	274,465586	0
14.01.2021	22:11:55	0	0	3,728403	4,44975	74,1564	0,217	77,369	3,5	1006,94	6,8	8,8	8,5	1	1	1	1	1	1	1	1	1	0	1	-46,229739	274,080573	273,730544	0
14.01.2021	22:11:56	0	0	4,632259	4,22625	80,1792	0,22	77,354	3,5	1006,76	6,8	8,8	8,5	1	1	1	1	1	1	1	1	1	0	1	-51,021846	274,263317	269,792631	0
14.01.2021	22:11:57	0	0	4,067349	3,85425	75,6036	0,221	77,379	3,5	1006,9	6,8	8,8	8,5	1	1	1	1	1	1	1	1	1	0	1	-46,652572	274,245266	274,07745	0
14.01.2021	22:11:58	0	0	3,615421	3,5685	98,7768	0,222	77,378	3,5	1006,7	6,8	8,7	8,5	1	1	1	1	1	1	1	1	1	0	1	-50,951374	274,236246	269,736456	0
14.01.2021	22:11:59	0	0	3,6154	3,27375	83,7504	0,217	77,377	3,5	1006,58	6,8	8,8	8,6	1	1	1	1	1	1	1	1	1	0	1	-43,410853	274,098471	276,633016	0
14.01.2021	22:12:00	0	0	4,406295	2,96175	84,4416	0,222	77,375	3,5	1006,94	6,8	8,8	8,5	1	1	1	1	1	1	1	1	1	0	1	-52,924595	274,098471	267,119274	0
14.01.2021	22:12:01	0	0	4,406295	2,96175	84,4416	0,222	77,375	3,5	1006,94	6,8	8,8	8,5	1	1	1	1	1	1	1	1	1	0	1	-52,924595	274,098471	267,119274	0
14.01.2021	22:12:02	0	0	4,745241	3,02775	85,1832	0,227	77,371	3,5	1006,78	6,8	8,8	8,5	1	1	1	1	1	1	1	1	1	0	1	-48,978154	274,252785	271,787046	0
14.01.2021	22:12:03	0	0	4,519277	3,102	81,2196	0,226	77,376	3,5	1006,88	6,8	8,8	8,5	1	1	1	1	1	1	1	1	1	0	1	-44,397463	274,164241	275,953692	0
14.01.2021	22:12:04	0	0	4,519277	3,255	84,4308	0,215	77,381	3,5	1006,74	6,8	8,7	8,5	1	1	1	1	1	1	1	1	1	0	1	-48,696265	274,261812	272,111171	0
14.01.2021	22:12:05	0	0	5,197168	3,5835	82,6128	0,224	77,385	3,5	1006,76	6,8	8,8	8,5	1	1	1	1	1	1	1	1	1	0	1	-48,132488	274,23324	272,541284	0
14.01.2021	22:12:06	0	0	4,519277	3,68925	84,06	0,221	77,376	3,5	1006,76	6,8	8,8	8,5	1	1	1	1	1	1	1	1	1	0	1	-47,991543	274,146281	272,275681	0
14.01.2021	22:12:07	0	0	4,067349	3,723	80,8956	0,226	77,377	3,5	1006,8	6,8	8,7	8,5	1	1	1	1	1	1	1	1	1	0	1	-47,21635	274,281386	273,682678	0
14.01.2021	22:12:08	0	0	4,519277	3,609	88,578	0,227	77,382	3,5	1006,9	6,8	8,8	8,5	1	1	1	1	1	1	1	1	1	0	1	-48,343904	274,152266	271,951286	0
14.01.2021	22:12:09	0	0	3,163494	3,44925	84,7584	0,227	77,371	3,5	1007	6,8	8,8	8,5	1	1	1	1	1	1	1	1	1	0	1	-46,863989	274,123856	273,298454	0
14.01.2021	22:12:10	0	0	4,632259	3,15	79,4196	0,224	77,354	3,5	1006,88	6,8	8,8	8,5	1	1	1	1	1	1	1	1	1	0	1	-46,018323	274,219721	274,592218	0
14.01.2021	22:12:11	0	0	3,954367	2,892	88,956	0,227	77,346	3,5	1006,78	6,8	8,8	8,5	1	1	1	1	1	1	1	1	1	0	1	-46,511628	274,11788	273,622898	0
14.01.2021	22:12:12	0	0	3,954367	2,9175	77,1984	0,226	77,34	3,5	1006,78	6,8	8,8	8,5	1	1	1	1	1	1	1	1	1	0	1	-44,467935	274,273855	276,395852	0
14.01.2021	22:12:13	0	0	3,728403	3,0495	89,6832	0,222	77,323	3,5	1006,64	6,8	8,8	8,5	1	1	1	1	1	1	1	1	1	0	1	-47,357294	274,19571	273,14097	0
14.01.2021	22:12:14	0	0	3,6154	3,2865	95,5476	0,218	77,319	3,5	1006,74	6,8	8,8	8,6	1	1	1	1	1	1	1	1	1	0	1	-47,850599	274,263317	272,963878	0
14.01.2021	22:12:15	0	0	3,615421	3,36525	104,0688	0,224	77,303	3,5	1006,58	6,8	8,7	8,5	1	1	1	1	1	1	1	1	1	0	1	-44,256519	274,234743	276,424282	0
14.01.2021	22:12:16	0	0	2,71155	3,26625	94,374	0,222	77,293	3,5	1006,76	6,8	8,8	8,6	1	1	1	1	1	1	1	1	1	0	1	-49,541931	274,258803	271,251423	0
14.01.2021	22:12:17	0	0	2,824548	3,39225	93,402	0,228	77,297	3,5	1006,7	6,8	8,8	8,5	1	1	1	1	1	1	1	1	1	0	1	-48,696265	274,093995	271,326699	0
14.01.2021	22:12:18	0	0	3,728381	3,6105	73,4148	0,221	77,281	3,5	1006,8	6,8	8,7	8,6	1	1	1	1	1	1	1	1	1	0	1	-46,370684	274,224226	274,260929	0
14.01.2021	22:12:19	0	0	3,50244	3,64725	81,594	0,226	77,26	3,5	1006,72	6,8	8,7	8,5	1	1	1	1	1	1	1	1	1	0	1	-45,525018	274,098471	274,518851	0
14.01.2021	22:12:20	0	0	3,276456	3,56625	62,406	0,221	77,259	3,5	1006,72	6,8	8,8	8,6	1	1	1	1	1	1	1	1	1	0	1	-46,5821	274,164241	273,769055	0
14.01.2021	22:12:21	0	0	4,745241	3,324	79,7688	0,228	77,267	3,5	1006,8	6,7	8,7	8,5	1	1	1	1	1	1	1	1	1	0	1	-45,102185	274,108919	274,990486	0
14.01.2021	22:12:22	0	0	3,954367	3,21375	82,5768	0,227	77,249	3,5	1006,98	6,8	8,8	8,5	1	1	1	1	1	1	1	1	1	0	1	-48,343904	274,225728	272,294733	0
14.01.2021	22:12:23	0	0	3,615421	3,06	81,5904	0,223	77,239	3,5	1006,86	6,8	8,8	8,5	1	1	1	1	1	1	1	1	1	0	1	-47,56871	274,237749	273,12615	0
14.01.2021	22:12:24	0	0	3,389458	3,141	79,7472	0,228	77,237	3,5	1006,9	6,8	8,8	8,5	1	1	1	1	1	1	1	1	1	0	1	-46,5821	274,104441	273,489651	0
14.01.2021	22:12:25	0	0	4,519277	3,4785	79,416	0,226	77,23	3,5	1006,82	6,8	8,7	8,5	1	1	1	1	1	1	1	1	1	0	1	-45,243129	274,231738	275,423615	0
14.01.2021	22:12:26	0	0	4,745241	3,72975	83,3328	0,228	77,218	3,5	1006,9	6,8	8,8	8,5	1	1	1	1	1	1	1	1	1	0	1	-51,726568	274,221223	268,890996	0
14.01.2021	22:12:27	0	0	2,824531	3,5355	66,8916	0,217	77,21	3,5	1006,78	6,8	8,8	8,6	1	1	1	1	1	1	1	1	1	0	1	-46,088795	274,111906	274,017825	0
14.01.2021	22:12:28	0	0	3,276456	3,36225	77,5836	0,225	77,214	3,5	1006,82	6,8	8,8	8,6	1	1	1	1	1	1	1	1	1	0	1	-44,608879	274,224226	276,022733	0
14.01.2021	22:12:29	0	0	4,971175	3,234	66,9276	0,221	77,193	3,5	1006,8	6,8	8,8	8,6	1	1	1	1	1	1	1	1	1	0	1	-49,119098	274,263317	271,695379	0
14.01.2021	22:12:30	0	0	2,71155	3,5055	65,4588	0,226	77,205	3,5	1006,82	6,8	8,7	8,6	1	1	1	1	1	1	1	1	1	0	1	-45,525018	274,216718	275,07148	0
14.01.2021	22:12:31	0	0	2,598584	3,867	77,9616	0,223	77,19	3,5	1006,64	6,8	8,8	8,5	1	1	1	1	1	1	1	1	1	0	1	-49,682875	274,260308	271,117519	0
14.01.2021	22:12:32	0	0	4,745212	3,95175	77,1984	0,221	77,172	3,5	1006,74	6,8	8,8	8,6	1	1	1	1	1	1	1	1	1	0	1	-46,793517	274,266328	274,035046	0
14.01.2021	22:12:33	0	0	3,163494	4,1295	77,5872	0,224	77,17	3,5	1006,8	6,8	8,8	8,5	1	1	1	1	1	1	1	1	1	0	1	-48,978154	274,191211	271,499077	0
14.01.2021	22:12:34	0	0	4,406295	4,212	77,9652	0,226	77,176	3,5	1006,86	6,8	8,8	8,5	1	1	1	1	1	1	1	1	1	0	1	-45,806906	274,270844	275,042789	0
14.01.2021	22:12:35	0	0	4,745241	4,308	83,34	0,224	77,168	3,5	1006,84	6,8	8,7	8,5	1	1	1	1	1	1	1	1	1	0	1	-50,035236	274,131328	270,162117	0
14.01.2021	22:12:36	0	0	4,406295	4,2495	77,9436	0,23	77,163	3,5	1007,02	6,8	8,8	8,5	1	1	1	1	1	1	1	1	1	0	1	-47,850599	274,082064	272,116646	0
14.01.2021	22:12:37	0	0	4,858223	4,137	73,7712	0,221	77,148	3,5	1006,88	6,8	8,7	8,5	1	1	1	1	1	1	1	1	1	0	1	-52,642706	274,204711	267,897642	0
14.01.2021	22:12:38	0	0	4,406295	4,155	67,2804	0,226	77,131	3,5	1006,72	6,8	8,7	8,5	1	1	1	1	1	1	1	1	1	0	1	-49,048626	274,095487	270,981306	0
14.01.2021	22:12:39	0	0	4,858223	3,9915	68,7636	0,228	77,131	3,5	1006,9	6,8	8,8	8,5	1	1	1	1	1	1	1	1	1	0	1	-50,105708	274,23324	270,568064	0
14.01.2021	22:12:40	0	0	3,954344	4,01175	61,308	0,229	77,129	3,5	1006,82	6,8	8,8	8,6	1	1	1	1	1	1	1	1	1	0	1	-42,565187	274,102948	277,499593	0
14.01.2021	22:12:41	0	0	4,858223	4,11975	62,7768	0,225	77,128	3,5	1006,82	6,8	8,8	8,5	1	1	1	1	1	1	1	1	1	0	1	-44,608879	274,086537	275,379255	0
14.01.2021	22:12:42	0	0	4,519277	4,077	65,4732	0,221	77,123	3,5	1006,8	6,8	8,8	8,5	1	1	1	1	1	1	1	1	1	0	1	-47,709655	274,161246	272,627506	0
14.01.2021	22:12:43	0	0	2,711566	3,84075	62,7804	0,22	77,136	3,5	1006,82	6,8	8,8	8,5	1	1	1	1	1	1	1	1	1	0	1	-46,441156	274,096979	273,595744	0
14.01.2021	22:12:44	0	0	3,954367	3,85275	74,9268	0,221	77,151	3,5	1006,76	6,8	8,8	8,5	1	1	1	1	1	1	1	1	1	0	1	-44,96124	274,147777	275,312974	0
14.01.2021	22:12:45	0	0	3,50244	3,93075	63,846	0,225	77,127	3,5	1006,7	6,8	8,8	8,5	1	1	1	1	1	1	1	1	1	0	1	-46,159267	274,08952	273,842797	0
14.01.2021	22:12:46	0	0	2,824548	4,011	68,7996	0,22	77,117	3,5	1006,68	6,8	8,8	8,5	1	1	1	1	1	1	1	1	1	0	1	-45,384073	274,213715	275,198383	0
14.01.2021	22:12:47	0	0	4,293287	4,065	65,574	0,221	77,127	3,5	1006,72	6,8	8,7	8,6	1	1	1	1	1	1	1	1	1	0	1	-50,387597	274,245266	270,342425	0
14.01.2021	22:12:48	0	0	3,615421	4,18875	69,8472	0,222	77,128	3,5	1006,68	6,8	8,8	8,5	1	1	1	1	1	1	1	1	1	0	1	-47,21635	274,12535	272,953074	0
14.01.2021	22:12:49	0	0	4,067349	4,1115	66,9204	0,222	77,124	3,5	1006,78	6,8	8,8	8,5	1	1	1	1	1	1	1	1	1	0	1	-46,370684	274,216718	274,225814	0
14.01.2021	22:12:50	0	0	5,197168	3,9675	61,3008	0,226	77,153	3,5	1006,68	6,8	8,8	8,5	1	1	1	1	1	1	1	1	1	0	1	-49,330514	274,079082	270,622808	0
14.01.2021	22:12:51	0	0	4,406295	3,95025	66,2148	0,223	77,15	3,5	1006,8	6,8	8,8	8,5	1	1	1	1	1	1	1	1	1	0	1	-46,652572	274,171729	273,733582	0
14.01.2021	22:12:52	0	0	4,745212	3,61725	58,1292	0,22	77,139	3,5	1006,9	6,8	8,8	8,6	1	1	1	1	1	1	1	1	1	0	1	-48,978154	274,228733	271,674535	0
14.01.2021	22:12:53	0	0	4,519277	3,38475	75,9924	0,224	77,151	3,5	1006,72	6,8	8,8	8,5	1	1	1	1	1	1	1	1	1	0	1	-46,511628	274,086537	273,476507	0
14.01.2021	22:12:54	0	0	5,31015	3,30825	56,2752	0,222	77,161	3,5	1006,86	6,8	8,7	8,5	1	1	1	1	1	1	1	1	1	0	1	-46,723044	274,153762	273,579139	0
14.01.2021	22:12:55	0	0	2,485602	3,051	65,4804	0,226	77,156	3,5	1006,84	6,8	8,8	8,5	1	1	1	1	1	1	1	1	1	0	1	-46,229739	274,102948	273,835041	0
14.01.2021	22:12:56	0	0	5,310118	2,96025	101,4912	0,22	77,153	3,5	1006,74	6,8	8,8	8,6	1	1	1	1	1	1	1	1	1	0	1	-48,625793	274,216718	271,970704	0
14.01.2021	22:12:57	0	0	2,485587	2,91975	68,7924	0,225	77,151	3,5	1006,92	6,8	8,8	8,6	1	1	1	1	1	1	1	1	1	0	1	-48,062016	274,095487	271,967916	0
14.01.2021	22:12:58	0	0	5,197168	3,05025	80,532	0,221	77,157	3,5	1006,84	6,8	8,8	8,5	1	1	1	1	1	1	1	1	1	0	1	-47,427766	274,167235	272,937387	0
14.01.2021	22:12:59	0	0	3,728403	3,30225	84,798	0,227	77,154	3,5	1006,8	6,8	8,8	8,5	1	1	1	1	1	1	1	1	1	0	1	-47,004933	274,098471	273,038936	0
14.01.2021	22:13:00	0	0	3,502419	3,93375	75,3192	0,22	77,158	3,5	1006,86	6,8	8,8	8,6	1	1	1	1	1	1	1	1	1	0	1	-45,454545	274,091012	274,554485	0
14.01.2021	22:13:01	0	0	3,502419	3,93375	75,3192	0,22	77,158	3,5	1006,86	6,8	8,8	8,6	1	1	1	1	1	1	1	1	1	0	1	-45,454545	274,091012	274,554485	0
14.01.2021	22:13:02	0	0	2,93753	4,31925	82,584	0,224	77,155	3,5	1006,76	6,8	8,8	8,5	1	1	1	1	1	1	1	1	1	0	1	-43,904158	274,206211	276,643206	0
14.01.2021	22:13:03	0	0	2,93753	4,21425	83,3652	0,226	77,157	3,5	1006,86	6,8	8,7	8,5	1	1	1	1	1	1	1	1	1	0	1	-46,018323	274,099963	274,032516	0
14.01.2021	22:13:04	0	0	2,824548	3,8835	81,5724	0,223	77,163	3,5	1006,72	6,8	8,7	8,5	1	1	1	1	1	1	1	1	1	0	1	-44,467935	274,261812	276,3395	0
14.01.2021	22:13:05	0	0	2,598569	3,67575	81,9468	0,217	77,181	3,5	1006,82	6,8	8,8	8,6	1	1	1	1	1	1	1	1	1	0	1	-47,004933	274,135813	273,213375	0
14.01.2021	22:13:06	0	0	3,728403	3,249	80,6148	0,224	77,198	3,5	1006,86	6,8	8,8	8,5	1	1	1	1	1	1	1	1	1	0	1	-48,484848	274,267833	272,350757	0
14.01.2021	22:13:07	0	0	3,728403	2,961	87,3504	0,215	77,191	3,5	1006,76	6,8	8,8	8,5	1	1	1	1	1	1	1	1	1	0	1	-49,964764	274,210713	270,603653	0
14.01.2021	22:13:08	0	0	3,841385	2,727	84,06	0,219	77,203	3,5	1006,76	6,8	8,8	8,5	1	1	1	1	1	1	1	1	1	0	1	-50,317125	274,091012	269,691905	0
14.01.2021	22:13:09	0	0	3,954344	2,78625	87,3684	0,226	77,218	3,5	1006,88	6,8	8,8	8,6	1	1	1	1	1	1	1	1	1	0	1	-45,665962	274,19721	274,839314	0
14.01.2021	22:13:10	0	0	2,824548	2,949	90,8028	0,23	77,23	3,5	1006,82	6,8	8,7	8,5	1	1	1	1	1	1	1	1	1	0	1	-51,021846	274,275361	269,848987	0
14.01.2021	22:13:11	0	0	3,389458	3,0255	70,5996	0,229	77,235	3,5	1006,8	6,8	8,7	8,5	1	1	1	1	1	1	1	1	1	0	1	-47,991543	274,245266	272,738479	0
14.01.2021	22:13:12	0	0	4,745241	3,075	76,3668	0,226	77,243	3,5	1006,8	6,8	8,8	8,5	1	1	1	1	1	1	1	1	1	0	1	-51,162791	274,19871	269,349498	0
14.01.2021	22:13:13	0	0	2,71155	3,3165	76,8132	0,225	77,259	3,5	1006,96	6,8	8,8	8,6	1	1	1	1	1	1	1	1	1	0	1	-47,004933	274,096979	273,031967	0
14.01.2021	22:13:14	0	0	4,293287	3,6525	95,5188	0,221	77,245	3,5	1006,72	6,8	8,8	8,6	1	1	1	1	1	1	1	1	1	0	1	-50,528541	274,191211	269,948689	0
14.01.2021	22:13:15	0	0	3,389437	3,69375	79,0452	0,221	77,247	3,5	1006,8	6,8	8,7	8,6	1	1	1	1	1	1	1	1	1	0	1	-46,934461	274,098471	273,109408	0
14.01.2021	22:13:16	0	0	3,502419	3,6075	81,2016	0,223	77,244	3,5	1006,66	6,8	8,8	8,6	1	1	1	1	1	1	1	1	1	0	1	-44,186047	274,230235	276,47367	0
14.01.2021	22:13:17	0	0	3,841385	3,34575	63,8748	0,225	77,266	3,5	1006,92	6,8	8,8	8,5	1	1	1	1	1	1	1	1	1	0	1	-44,467935	274,085046	275,513236	0
14.01.2021	22:13:18	0	0	4,745241	3,219	63,1944	0,221	77,263	3,5	1006,78	6,8	8,8	8,5	1	1	1	1	1	1	1	1	1	0	1	-46,511628	274,237749	274,183233	0
14.01.2021	22:13:19	0	0	3,389458	3,08775	46,2348	0,224	77,285	3,5	1006,9	6,8	8,8	8,5	1	1	1	1	1	1	1	1	1	0	1	-48,555321	274,11788	271,579205	0
14.01.2021	22:13:20	0	0	4,406295	3,0465	58,122	0,221	77,283	3,5	1006,7	6,8	8,8	8,5	1	1	1	1	1	1	1	1	1	0	1	-45,806906	274,230235	274,85281	0
14.01.2021	22:13:21	0	0	4,745212	2,9475	66,2184	0,23	77,306	3,5	1006,98	6,8	8,8	8,6	1	1	1	1	1	1	1	1	1	0	1	-49,612403	274,252785	271,152797	0
14.01.2021	22:13:22	0	0	2,824548	2,7405	58,5	0,226	77,297	3,5	1006,82	6,8	8,7	8,5	1	1	1	1	1	1	1	1	1	0	1	-46,723044	274,114893	273,397527	0
14.01.2021	22:13:23	0	0	4,293313	2,9655	54,7956	0,219	77,301	3,5	1006,66	6,8	8,8	8,5	1	1	1	1	1	1	1	1	1	0	1	-45,59549	274,19421	274,895762	0
14.01.2021	22:13:24	0	0	4,632259	3,24825	59,8248	0,228	77,304	3,5	1006,74	6,8	8,7	8,5	1	1	1	1	1	1	1	1	1	0	1	-49,400987	274,091012	270,608043	0
14.01.2021	22:13:25	0	0	2,598569	3,51975	54,1116	0,226	77,281	3,5	1006,84	6,8	8,8	8,6	1	1	1	1	1	1	1	1	1	0	1	-43,97463	274,161246	276,36253	0
14.01.2021	22:13:26	0	0	3,728403	4,0005	42,912	0,229	77,28	3,5	1006,76	6,8	8,8	8,5	1	1	1	1	1	1	1	1	1	0	1	-44,115574	274,270844	276,734121	0
14.01.2021	22:13:27	0	0	2,71155	4,05675	49,1976	0,225	77,275	3,5	1006,78	6,8	8,7	8,6	1	1	1	1	1	1	1	1	1	0	1	-44,538407	274,207712	276,015974	0
14.01.2021	22:13:28	0	0	4,519277	4,473	59,5872	0,233	77,256	3,5	1006,9	6,8	8,7	8,5	1	1	1	1	1	1	1	1	1	0	1	-44,538407	274,248273	276,205684	0
14.01.2021	22:13:29	0	0	5,310118	4,272	88,9884	0,228	77,254	3,5	1006,92	6,8	8,7	8,6	1	1	1	1	1	1	1	1	1	0	1	-50,246653	274,213715	270,335803	0
14.01.2021	22:13:30	0	0	4,971205	3,8685	63,8676	0,229	77,295	3,5	1006,8	6,8	8,8	8,5	1	1	1	1	1	1	1	1	1	0	1	-48,484848	274,222724	272,139739	0
14.01.2021	22:13:31	0	0	3,841385	4,14	73,4472	0,231	77,241	3,5	1006,76	6,8	8,8	8,5	1	1	1	1	1	1	1	1	1	0	1	-45,59549	274,224226	275,036122	0
14.01.2021	22:13:32	0	0	3,050512	4,2855	57,834	0,233	77,22	3,5	1007,12	6,8	8,8	8,5	1	1	1	1	1	1	1	1	1	0	1	-50,387597	274,240755	270,321326	0
14.01.2021	22:13:33	0	0	3,389437	3,86775	71,982	0,231	77,21	3,5	1006,86	6,8	8,8	8,6	1	1	1	1	1	1	1	1	1	0	1	-44,538407	274,281386	276,360621	0
14.01.2021	22:13:34	0	0	2,824548	3,70125	96,2316	0,23	77,202	3,5	1006,78	6,8	8,8	8,5	1	1	1	1	1	1	1	1	1	0	1	-46,652572	274,20321	273,88076	0
14.01.2021	22:13:35	0	0	3,050512	3,918	114,0984	0,227	77,181	3,5	1006,72	6,8	8,8	8,5	1	1	1	1	1	1	1	1	1	0	1	-48,20296	274,266328	272,625602	0
14.01.2021	22:13:36	0	0	2,93753	3,513	70,5996	0,23	77,197	3,5	1006,8	6,8	8,8	8,5	1	1	1	1	1	1	1	1	1	0	1	-51,162791	274,170231	269,216363	0
14.01.2021	22:13:37	0	0	4,180306	3,68775	79,0524	0,23	77,17	3,5	1006,88	6,8	8,8	8,6	1	1	1	1	1	1	1	1	1	0	1	-49,119098	274,254289	271,65314	0
14.01.2021	22:13:38	0	0	4,293287	3,80925	84,4488	0,224	77,178	3,5	1006,86	6,8	8,8	8,6	1	1	1	1	1	1	1	1	1	0	1	-46,441156	274,156756	273,875017	0
14.01.2021	22:13:39	0	0	4,858193	4,0035	86,976	0,237	77,168	3,5	1006,68	6,8	8,8	8,6	1	1	1	1	1	1	1	1	1	0	1	-46,018323	274,27235	274,838418	0
14.01.2021	22:13:40	0	0	2,824531	4,01625	94,0968	0,235	77,168	3,5	1006,74	6,8	8,7	8,6	1	1	1	1	1	1	1	1	1	0	1	-47,075405	274,119373	273,066099	0
14.01.2021	22:13:41	0	0	3,163494	4,48875	70,5996	0,234	77,171	3,5	1006,74	6,8	8,8	8,5	1	1	1	1	1	1	1	1	1	0	1	-52,149401	274,237749	268,54546	0
14.01.2021	22:13:42	0	0	4,858193	4,50675	93,726	0,232	77,154	3,5	1006,68	6,8	8,7	8,6	1	1	1	1	1	1	1	1	1	0	1	-48,414376	274,242259	272,301579	0
14.01.2021	22:13:43	0	0	4,51925	4,28775	97,7148	0,232	77,18	3,5	1006,84	6,8	8,8	8,6	1	1	1	1	1	1	1	1	1	0	1	-49,048626	274,20021	271,470677	0
14.01.2021	22:13:44	0	0	2,71155	4,7205	90,7848	0,236	77,195	3,5	1006,82	6,8	8,8	8,6	1	1	1	1	1	1	1	1	1	0	1	-46,088795	274,285906	274,831386	0
14.01.2021	22:13:45	0	0	2,711566	4,9755	90,4248	0,231	77,187	3,5	1006,78	6,8	8,8	8,5	1	1	1	1	1	1	1	1	1	0	1	-48,907681	274,185214	271,541514	0
14.01.2021	22:13:46	0	0	4,632231	5,21775	91,8972	0,236	77,188	3,5	1006,96	6,8	8,8	8,6	1	1	1	1	1	1	1	1	1	0	1	-44,608879	274,105934	275,469844	0
14.01.2021	22:13:47	0	0	3,841385	4,98825	95,1336	0,23	77,19	3,5	1006,82	6,8	8,8	8,5	1	1	1	1	1	1	1	1	1	0	1	-45,877378	274,227231	274,768284	0
14.01.2021	22:13:48	0	0	4,632259	4,6185	66,9204	0,236	77,186	3,5	1006,8	6,8	8,8	8,5	1	1	1	1	1	1	1	1	1	0	1	-45,454545	274,099963	274,596293	0
14.01.2021	22:13:49	0	0	4,180331	4,5075	83,3724	0,233	77,182	3,5	1006,72	6,8	8,8	8,5	1	1	1	1	1	1	1	1	1	0	1	-47,498238	274,246769	273,238818	0
14.01.2021	22:13:50	0	0	3,050512	4,452	88,1208	0,235	77,158	3,5	1006,74	6,8	8,8	8,5	1	1	1	1	1	1	1	1	1	0	1	-46,159267	274,111906	273,947353	0
14.01.2021	22:13:51	0	0	3,954367	4,2375	85,5252	0,23	77,166	3,5	1006,74	6,8	8,7	8,5	1	1	1	1	1	1	1	1	1	0	1	-45,806906	274,287413	275,120327	0
14.01.2021	22:13:52	0	0	4,745212	4,38525	90,414	0,235	77,163	3,5	1006,9	6,8	8,8	8,6	1	1	1	1	1	1	1	1	1	0	1	-51,162791	274,224226	269,468821	0
14.01.2021	22:13:53	0	0	4,293287	4,20375	80,4996	0,232	77,168	3,5	1006,72	6,8	8,8	8,6	1	1	1	1	1	1	1	1	1	0	1	-43,340381	274,276867	277,537501	0
14.01.2021	22:13:54	0	0	4,745241	3,9255	88,5888	0,237	77,161	3,5	1006,9	6,8	8,8	8,5	1	1	1	1	1	1	1	1	1	0	1	-48,414376	274,104441	271,657375	0
14.01.2021	22:13:55	0	0	4,745212	3,7365	79,0272	0,237	77,148	3,5	1006,92	6,8	8,8	8,6	1	1	1	1	1	1	1	1	1	0	1	-47,286822	274,231738	273,379922	0
14.01.2021	22:13:56	0	0	4,293287	3,52425	72,6912	0,236	77,162	3,5	1006,8	6,8	8,8	8,6	1	1	1	1	1	1	1	1	1	0	1	-47,357294	274,131328	272,84006	0
14.01.2021	22:13:57	0	0	4,971205	3,429	80,172	0,234	77,151	3,5	1006,68	6,8	8,7	8,5	1	1	1	1	1	1	1	1	1	0	1	-46,441156	274,27235	274,415585	0
14.01.2021	22:13:58	0	0	4,519277	4,0215	51,4512	0,234	77,141	3,5	1006,72	6,8	8,8	8,5	1	1	1	1	1	1	1	1	1	0	1	-48,978154	274,158252	271,345014	0
14.01.2021	22:13:59	0	0	4,632259	4,137	58,8708	0,238	77,154	3,5	1006,86	6,8	8,8	8,5	1	1	1	1	1	1	1	1	1	0	1	-45,384073	274,27988	275,507905	0
14.01.2021	22:14:00	0	0	4,519277	4,0365	73,4328	0,24	77,136	3,5	1006,78	6,8	8,7	8,5	1	1	1	1	1	1	1	1	1	0	1	-45,806906	274,222724	274,817682	0
14.01.2021	22:14:01	0	0	4,519277	4,0365	73,4328	0,24	77,136	3,5	1006,78	6,8	8,7	8,5	1	1	1	1	1	1	1	1	1	0	1	-45,806906	274,222724	274,817682	0
14.01.2021	22:14:02	0	0	4,858223	4,31325	74,1672	0,241	77,125	3,5	1006,92	6,8	8,8	8,5	1	1	1	1	1	1	1	1	1	0	1	-48,484848	274,099963	271,56599	0
14.01.2021	22:14:03	0	0	4,067325	4,3215	67,6728	0,24	77,112	3,5	1006,82	6,8	8,8	8,6	1	1	1	1	1	1	1	1	1	0	1	-44,96124	274,12535	275,208183	0
14.01.2021	22:14:04	0	0	2,824531	4,3665	73,8072	0,243	77,097	3,5	1006,88	6,8	8,8	8,6	1	1	1	1	1	1	1	1	1	0	1	-46,5821	274,284399	274,331029	0
14.01.2021	22:14:05	0	0	3,841385	4,449	85,5216	0,241	77,072	3,5	1006,76	6,8	8,7	8,5	1	1	1	1	1	1	1	1	1	0	1	-47,145877	274,23324	273,527895	0
14.01.2021	22:14:06	0	0	3,615421	4,19175	80,1288	0,24	77,052	3,5	1006,82	6,8	8,8	8,5	1	1	1	1	1	1	1	1	1	0	1	-45,172657	274,258803	275,620698	0
14.01.2021	22:14:07	0	0	2,824548	4,35675	86,2848	0,244	77,055	3,5	1006,76	6,8	8,8	8,5	1	1	1	1	1	1	1	1	1	0	1	-43,481325	274,248273	277,262766	0
14.01.2021	22:14:08	0	0	2,372606	4,446	86,7168	0,236	77,04	3,5	1006,78	6,8	8,8	8,6	1	1	1	1	1	1	1	1	1	0	1	-47,427766	274,275361	273,443068	0
14.01.2021	22:14:09	0	0	4,632259	4,36725	79,0344	0,24	77,043	3,5	1006,78	6,8	8,8	8,5	1	1	1	1	1	1	1	1	1	0	1	-44,538407	274,212214	276,037029	0
14.01.2021	22:14:10	0	0	4,519277	4,16025	83,358	0,245	77,032	3,5	1006,8	6,8	8,7	8,5	1	1	1	1	1	1	1	1	1	0	1	-46,159267	274,278374	274,725662	0
14.01.2021	22:14:11	0	0	2,598569	3,99975	85,2048	0,241	77,015	3,5	1006,84	6,8	8,7	8,6	1	1	1	1	1	1	1	1	1	0	1	-45,384073	274,171729	275,002081	0
14.01.2021	22:14:12	0	0	4,745212	4,0905	79,8624	0,242	77,006	3,5	1006,68	6,8	8,7	8,6	1	1	1	1	1	1	1	1	1	0	1	-42,706131	274,098471	277,337738	0
14.01.2021	22:14:13	0	0	3,050512	3,933	79,02	0,245	76,998	3,5	1006,86	6,8	8,8	8,5	1	1	1	1	1	1	1	1	1	0	1	-48,484848	274,146281	271,782375	0
14.01.2021	22:14:14	0	0	4,51925	3,837	80,5392	0,243	76,981	3,5	1006,9	6,8	8,8	8,6	1	1	1	1	1	1	1	1	1	0	1	-44,397463	274,230235	276,262253	0
14.01.2021	22:14:15	0	0	3,841385	3,828	84,1464	0,249	76,994	3,5	1006,82	6,8	8,7	8,5	1	1	1	1	1	1	1	1	1	0	1	-47,145877	274,099963	272,904961	0
14.01.2021	22:14:16	0	0	5,084186	3,711	83,3544	0,24	76,974	3,5	1006,78	6,8	8,8	8,5	1	1	1	1	1	1	1	1	1	0	1	-49,260042	274,191211	271,217188	0
14.01.2021	22:14:17	0	0	2,93753	3,5445	95,8428	0,246	76,993	3,5	1006,68	6,8	8,8	8,5	1	1	1	1	1	1	1	1	1	0	1	-48,696265	274,291934	272,252128	0
14.01.2021	22:14:18	0	0	5,084156	3,3945	72,3204	0,242	76,976	3,5	1006,68	6,8	8,8	8,6	1	1	1	1	1	1	1	1	1	0	1	-43,692741	274,19421	276,79851	0
14.01.2021	22:14:19	0	0	4,632259	3,3555	97,3188	0,246	76,961	3,5	1006,88	6,8	8,7	8,5	1	1	1	1	1	1	1	1	1	0	1	-46,300211	274,282893	274,605867	0
14.01.2021	22:14:20	0	0	2,937512	3,71175	96,9732	0,245	76,954	3,5	1006,82	6,8	8,8	8,6	1	1	1	1	1	1	1	1	1	0	1	-47,004933	274,182217	273,430248	0
14.01.2021	22:14:21	0	0	3,389458	3,86475	102,942	0,243	76,96	3,5	1006,78	6,8	8,8	8,5	1	1	1	1	1	1	1	1	1	0	1	-48,414376	274,114893	271,706195	0
14.01.2021	22:14:22	0	0	4,971205	3,83475	96,5844	0,247	76,962	3,5	1006,82	6,8	8,8	8,5	1	1	1	1	1	1	1	1	1	0	1	-47,639183	274,17922	272,781988	0
14.01.2021	22:14:23	0	0	4,180306	3,69825	82,602	0,243	76,946	3,5	1006,8	6,8	8,8	8,6	1	1	1	1	1	1	1	1	1	0	1	-47,004933	274,287413	273,9223	0
14.01.2021	22:14:24	0	0	3,615421	3,13725	46,62	0,251	76,931	3,5	1006,84	6,8	8,8	8,5	1	1	1	1	1	1	1	1	1	0	1	-43,692741	274,282893	277,213337	0
14.01.2021	22:14:25	0	0	3,276456	2,7255	83,3616	0,245	76,931	3,5	1006,88	6,8	8,7	8,6	1	1	1	1	1	1	1	1	1	0	1	-46,5821	274,165738	273,776054	0
14.01.2021	22:14:26	0	0	4,519277	2,85525	95,1804	0,245	76,928	3,5	1006,8	6,8	8,8	8,5	1	1	1	1	1	1	1	1	1	0	1	-49,682875	274,147777	270,591339	0
14.01.2021	22:14:27	0	0	4,971205	3,408	88,5888	0,248	76,933	3,5	1006,78	6,8	8,8	8,5	1	1	1	1	1	1	1	1	1	0	1	-49,541931	274,260308	271,258464	0
14.01.2021	22:14:28	0	0	2,598584	3,69975	73,062	0,25	76,911	3,5	1006,86	6,8	8,7	8,5	1	1	1	1	1	1	1	1	1	0	1	-51,515152	274,296456	269,454409	0
14.01.2021	22:14:29	0	0	4,971175	4,00275	81,5832	0,241	76,909	3,5	1006,6	6,8	8,8	8,6	1	1	1	1	1	1	1	1	1	0	1	-47,850599	274,266328	272,977963	0
14.01.2021	22:14:30	0	0	4,519277	4,43025	78,2784	0,239	76,91	3,5	1006,76	6,8	8,8	8,5	1	1	1	1	1	1	1	1	1	0	1	-47,21635	274,222724	273,408238	0
14.01.2021	22:14:31	0	0	4,745241	4,38525	82,6164	0,249	76,929	3,5	1006,72	6,8	8,8	8,5	1	1	1	1	1	1	1	1	1	0	1	-46,018323	274,27988	274,873656	0
14.01.2021	22:14:32	0	0	3,389437	4,131	76,8168	0,257	76,926	3,5	1006,78	6,8	8,8	8,6	1	1	1	1	1	1	1	1	1	0	1	-46,229739	274,248273	274,514352	0
14.01.2021	22:14:33	0	0	4,632259	4,01475	72,6912	0,249	76,929	3,5	1006,9	6,8	8,8	8,5	1	1	1	1	1	1	1	1	1	0	1	-45,384073	274,126844	274,792332	0
14.01.2021	22:14:34	0	0	4,632231	3,8895	81,5976	0,248	76,93	3,5	1007,02	6,8	8,8	8,6	1	1	1	1	1	1	1	1	1	0	1	-50,105708	274,260308	270,694686	0
14.01.2021	22:14:35	0	0	2,71155	3,6615	93,7476	0,25	76,918	3,5	1006,8	6,8	8,8	8,6	1	1	1	1	1	1	1	1	1	0	1	-44,96124	274,242259	275,754715	0
14.01.2021	22:14:36	0	0	3,615421	3,55725	94,4028	0,26	76,925	3,5	1006,76	6,8	8,8	8,5	1	1	1	1	1	1	1	1	1	0	1	-43,551797	274,111906	276,554823	0
14.01.2021	22:14:37	0	0	2,711566	3,9555	101,1348	0,252	76,922	3,5	1006,78	6,8	8,8	8,5	1	1	1	1	1	1	1	1	1	0	1	-47,991543	274,224226	272,640069	0
14.01.2021	22:14:38	0	0	2,93753	4,3665	90,7416	0,256	76,922	3,5	1007,1	6,8	8,8	8,5	1	1	1	1	1	1	1	1	1	0	1	-48,062016	274,126844	272,114389	0
14.01.2021	22:14:39	0	0	5,084156	4,281	86,6556	0,252	76,904	3,5	1006,8	6,8	8,8	8,6	1	1	1	1	1	1	1	1	1	0	1	-44,538407	274,158252	275,78476	0
14.01.2021	22:14:40	0	0	2,824548	4,014	98,7624	0,256	76,9	3,5	1006,78	6,8	8,8	8,5	1	1	1	1	1	1	1	1	1	0	1	-46,018323	274,290427	274,923016	0
14.01.2021	22:14:41	0	0	4,745241	3,60375	104,8212	0,249	76,884	3,5	1006,78	6,8	8,8	8,5	1	1	1	1	1	1	1	1	1	0	1	-50,035236	274,252785	270,729964	0
14.01.2021	22:14:42	0	0	4,632259	3,2475	97,6932	0,255	76,867	3,5	1006,78	6,8	8,8	8,5	1	1	1	1	1	1	1	1	1	0	1	-48,062016	274,246769	272,675041	0
14.01.2021	22:14:43	0	0	4,519277	3,43725	82,584	0,255	76,86	3,5	1006,94	6,8	8,8	8,5	1	1	1	1	1	1	1	1	1	0	1	-45,313601	274,285906	275,606579	0
14.01.2021	22:14:44	0	0	5,084186	3,72075	84,0564	0,249	76,856	3,5	1006,68	6,8	8,8	8,5	1	1	1	1	1	1	1	1	1	0	1	-47,709655	274,191211	272,767576	0
14.01.2021	22:14:45	0	0	3,389437	3,717	90,1332	0,253	76,863	3,5	1006,86	6,9	8,7	8,6	1	1	1	1	1	1	1	1	1	0	1	-48,696265	274,116386	271,431283	0
14.01.2021	22:14:46	0	0	3,954367	3,57375	106,2972	0,252	76,862	3,5	1006,8	6,8	8,8	8,5	1	1	1	1	1	1	1	1	1	0	1	-43,058492	274,237749	277,636369	0
14.01.2021	22:14:47	0	0	3,50244	3,2175	93,3696	0,251	76,878	3,5	1006,78	6,9	8,8	8,5	1	1	1	1	1	1	1	1	1	0	1	-52,149401	274,123856	268,013042	0
14.01.2021	22:14:48	0	0	3,6154	3,38775	99,504	0,256	76,877	3,5	1006,82	6,8	8,8	8,6	1	1	1	1	1	1	1	1	1	0	1	-46,511628	274,305504	274,500284	0
14.01.2021	22:14:49	0	0	4,858193	3,86175	95,1444	0,251	76,868	3,5	1006,74	6,8	8,8	8,6	1	1	1	1	1	1	1	1	1	0	1	-46,511628	274,207712	274,042753	0
14.01.2021	22:14:50	0	0	3,728403	4,23525	92,9844	0,251	76,881	3,5	1006,86	6,8	8,8	8,5	1	1	1	1	1	1	1	1	1	0	1	-49,753347	274,275361	271,117486	0
14.01.2021	22:14:51	0	0	3,389458	4,11375	75,2364	0,258	76,876	3,5	1006,88	6,8	8,8	8,5	1	1	1	1	1	1	1	1	1	0	1	-44,186047	274,158252	276,137121	0
14.01.2021	22:14:52	0	0	3,050512	4,05675	76,86	0,255	76,882	3,5	1006,86	6,7	8,8	8,5	1	1	1	1	1	1	1	1	1	0	1	-49,753347	274,245266	270,976675	0
14.01.2021	22:14:53	0	0	5,084186	3,699	90,7956	0,25	76,872	3,5	1006,82	6,8	8,8	8,5	1	1	1	1	1	1	1	1	1	0	1	-48,555321	274,123856	271,607122	0
14.01.2021	22:14:54	0	0	3,728403	3,58725	90,0288	0,254	76,86	3,5	1006,66	6,8	8,7	8,5	1	1	1	1	1	1	1	1	1	0	1	-48,484848	274,263317	272,329629	0
14.01.2021	22:14:55	0	0	5,197168	3,5295	74,1636	0,259	76,847	3,5	1006,56	6,8	8,8	8,5	1	1	1	1	1	1	1	1	1	0	1	-44,397463	274,138803	275,834817	0
14.01.2021	22:14:56	0	0	3,841362	3,44475	75,5964	0,259	76,84	3,5	1006,82	6,8	8,7	8,6	1	1	1	1	1	1	1	1	1	0	1	-50,387597	274,294949	270,574907	0
14.01.2021	22:14:57	0	0	4,858223	3,27	62,4276	0,263	76,843	3,5	1006,72	6,8	8,8	8,5	1	1	1	1	1	1	1	1	1	0	1	-50,035236	274,149273	270,24597	0
14.01.2021	22:14:58	0	0	4,406295	3,06	58,8384	0,256	76,828	3,5	1006,88	6,8	8,8	8,5	1	1	1	1	1	1	1	1	1	0	1	-49,400987	274,275361	271,469847	0
14.01.2021	22:14:59	0	0	2,598569	2,9865	65,8512	0,259	76,812	3,5	1006,88	6,8	8,8	8,6	1	1	1	1	1	1	1	1	1	0	1	-44,608879	274,146281	275,658344	0
14.01.2021	22:15:00	0	0	2,711566	3,483	59,8536	0,252	76,795	3,5	1006,78	6,8	8,8	8,5	1	1	1	1	1	1	1	1	1	0	1	-47,56871	274,240755	273,140213	0
14.01.2021	22:15:01	0	0	2,711566	3,483	59,8536	0,252	76,795	3,5	1006,78	6,8	8,8	8,5	1	1	1	1	1	1	1	1	1	0	1	-47,56871	274,240755	273,140213	0
14.01.2021	22:15:02	0	0	4,632259	3,5235	69,462	0,254	76,784	3,5	1006,74	6,8	8,7	8,5	1	1	1	1	1	1	1	1	1	0	1	-48,484848	274,30098	272,505884	0
14.01.2021	22:15:03	0	0	3,728381	3,08175	87,732	0,262	76,786	3,5	1006,74	6,8	8,8	8,6	1	1	1	1	1	1	1	1	1	0	1	-48,062016	274,149273	272,21919	0
14.01.2021	22:15:04	0	0	4,519277	2,739	74,196	0,262	76,782	3,5	1006,68	6,8	8,8	8,5	1	1	1	1	1	1	1	1	1	0	1	-47,850599	274,186713	272,605604	0
14.01.2021	22:15:05	0	0	4,180331	2,50725	62,7876	0,26	76,78	3,5	1006,86	6,8	8,8	8,5	1	1	1	1	1	1	1	1	1	0	1	-50,317125	274,114893	269,803447	0
14.01.2021	22:15:06	0	0	4,406295	2,39775	77,2164	0,257	76,758	3,5	1006,72	6,9	8,8	8,5	1	1	1	1	1	1	1	1	1	0	1	-45,454545	274,228733	275,198144	0
14.01.2021	22:15:07	0	0	3,050512	2,53725	74,1672	0,261	76,745	3,5	1006,74	6,8	8,8	8,5	1	1	1	1	1	1	1	1	1	0	1	-46,370684	274,243762	274,352305	0
14.01.2021	22:15:08	0	0	3,728403	2,952	78,282	0,262	76,734	3,5	1006,82	6,8	8,8	8,5	1	1	1	1	1	1	1	1	1	0	1	-48,625793	274,293441	272,329656	0
14.01.2021	22:15:09	0	0	4,180331	3,12525	73,0476	0,264	76,738	3,5	1006,68	6,8	8,8	8,5	1	1	1	1	1	1	1	1	1	0	1	-49,541931	274,209212	271,019468	0
14.01.2021	22:15:10	0	0	2,711566	3,1305	65,0988	0,263	76,723	3,5	1006,74	6,8	8,8	8,5	1	1	1	1	1	1	1	1	1	0	1	-45,243129	274,293441	275,712319	0
14.01.2021	22:15:11	0	0	4,180331	3,1965	74,5668	0,258	76,729	3,5	1006,7	6,8	8,7	8,5	1	1	1	1	1	1	1	1	1	0	1	-44,397463	274,254289	276,374775	0
14.01.2021	22:15:12	0	0	3,728403	3,387	84,4272	0,263	76,72	3,5	1006,9	6,8	8,8	8,5	1	1	1	1	1	1	1	1	1	0	1	-49,964764	274,17922	270,456407	0
14.01.2021	22:15:13	0	0	2,824531	3,42975	70,6248	0,265	76,724	3,5	1006,86	6,8	8,8	8,6	1	1	1	1	1	1	1	1	1	0	1	-46,863989	274,138803	273,368292	0
14.01.2021	22:15:14	0	0	2,824548	3,32175	69,93	0,261	76,71	3,5	1006,72	6,8	8,8	8,5	1	1	1	1	1	1	1	1	1	0	1	-46,229739	274,173227	274,163417	0
14.01.2021	22:15:15	0	0	3,163494	3,126	77,2344	0,262	76,689	3,5	1006,74	6,8	8,8	8,5	1	1	1	1	1	1	1	1	1	0	1	-43,058492	274,27235	277,798249	0
14.01.2021	22:15:16	0	0	2,598584	2,874	50,6772	0,265	76,683	3,5	1006,7	6,8	8,8	8,5	1	1	1	1	1	1	1	1	1	0	1	-49,541931	274,113399	270,571664	0
14.01.2021	22:15:17	0	0	3,615421	2,62575	45,8532	0,258	76,676	3,5	1006,72	6,8	8,8	8,5	1	1	1	1	1	1	1	1	1	0	1	-47,145877	274,260308	273,654517	0
14.01.2021	22:15:18	0	0	4,180331	2,4405	51,4656	0,267	76,67	3,5	1006,94	6,7	8,8	8,5	1	1	1	1	1	1	1	1	1	0	1	-47,357294	274,176223	273,049868	0
14.01.2021	22:15:19	0	0	3,050512	2,31975	54,4932	0,257	76,668	3,5	1006,8	6,8	8,8	8,5	1	1	1	1	1	1	1	1	1	0	1	-50,599013	274,11788	269,535513	0
14.01.2021	22:15:20	0	0	4,858223	2,37375	65,0916	0,261	76,643	3,5	1006,84	6,8	8,8	8,5	1	1	1	1	1	1	1	1	1	0	1	-47,21635	274,254289	273,555888	0
14.01.2021	22:15:21	0	0	3,163475	2,53275	47,4444	0,267	76,628	3,5	1006,82	6,8	8,8	8,6	1	1	1	1	1	1	1	1	1	0	1	-45,525018	274,23324	275,148754	0
14.01.2021	22:15:22	0	0	4,293287	2,739	52,1424	0,266	76,631	3,5	1006,88	6,8	8,8	8,6	1	1	1	1	1	1	1	1	1	0	1	-46,511628	274,294949	274,450876	0
14.01.2021	22:15:23	0	0	4,406268	3,08925	68,0112	0,266	76,626	3,5	1006,74	6,9	8,8	8,6	1	1	1	1	1	1	1	1	1	0	1	-47,639183	274,260308	273,161212	0
14.01.2021	22:15:24	0	0	4,632259	3,36675	44,3988	0,266	76,607	3,5	1006,8	6,8	8,8	8,5	1	1	1	1	1	1	1	1	1	0	1	-45,59549	274,290427	275,345849	0
14.01.2021	22:15:25	0	0	2,598569	4,212	57,0492	0,263	76,607	3,5	1006,88	6,7	8,8	8,6	1	1	1	1	1	1	1	1	1	0	1	-47,075405	274,287413	273,851828	0
14.01.2021	22:15:26	0	0	2,711566	4,8195	56,664	0,264	76,597	3,5	1006,72	6,8	8,8	8,5	1	1	1	1	1	1	1	1	1	0	1	-46,863989	274,159749	273,466175	0
14.01.2021	22:15:27	0	0	3,389458	4,76175	61,6968	0,266	76,597	3,5	1006,8	6,9	8,8	8,5	1	1	1	1	1	1	1	1	1	0	1	-47,850599	274,126844	272,325806	0
14.01.2021	22:15:28	0	0	4,971205	4,71825	65,4768	0,267	76,592	3,5	1006,78	6,8	8,8	8,5	1	1	1	1	1	1	1	1	1	0	1	-49,612403	274,267833	271,223203	0
14.01.2021	22:15:29	0	0	2,598584	4,61475	70,2324	0,27	76,597	3,5	1007,02	6,8	8,8	8,5	1	1	1	1	1	1	1	1	1	0	1	-45,665962	274,164241	274,685193	0
14.01.2021	22:15:30	0	0	3,841385	4,40175	65,4732	0,261	76,582	3,5	1006,8	6,8	8,8	8,5	1	1	1	1	1	1	1	1	1	0	1	-47,498238	274,122361	272,657224	0
14.01.2021	22:15:31	0	0	4,406295	4,2795	66,9276	0,267	76,586	3,5	1006,88	6,8	8,8	8,5	1	1	1	1	1	1	1	1	1	0	1	-47,004933	274,189712	273,465287	0
14.01.2021	22:15:32	0	0	2,485602	4,134	80,154	0,264	76,558	3,5	1006,74	6,8	8,8	8,5	1	1	1	1	1	1	1	1	1	0	1	-43,692741	274,128339	276,490646	0
14.01.2021	22:15:33	0	0	2,485602	4,4415	73,0656	0,267	76,583	3,5	1006,92	6,8	8,7	8,5	1	1	1	1	1	1	1	1	1	0	1	-42,35377	274,138803	277,87851	0
14.01.2021	22:15:34	0	0	2,824548	4,52775	66,546	0,267	76,607	3,5	1006,82	6,7	8,8	8,5	1	1	1	1	1	1	1	1	1	0	1	-42,917548	274,188213	277,545664	0
14.01.2021	22:15:35	0	0	4,858223	4,91325	68,8752	0,263	76,607	3,5	1006,78	6,8	8,8	8,5	1	1	1	1	1	1	1	1	1	0	1	-47,709655	274,105934	272,369069	0
14.01.2021	22:15:36	0	0	2,824548	4,992	80,8992	0,267	76,617	3,5	1006,88	6,8	8,8	8,5	1	1	1	1	1	1	1	1	1	0	1	-44,749824	274,131328	275,44753	0
14.01.2021	22:15:37	0	0	4,406295	5,151	80,91	0,269	76,63	3,5	1006,84	6,8	8,7	8,5	1	1	1	1	1	1	1	1	1	0	1	-48,625793	274,122361	271,52967	0
14.01.2021	22:15:38	0	0	4,632259	4,989	79,0272	0,272	76,636	3,5	1006,84	6,8	8,8	8,5	1	1	1	1	1	1	1	1	1	0	1	-44,608879	274,249777	276,142247	0
14.01.2021	22:15:39	0	0	3,389458	4,88925	79,074	0,268	76,649	3,5	1006,9	6,8	8,8	8,5	1	1	1	1	1	1	1	1	1	0	1	-45,736434	274,155259	274,572744	0
14.01.2021	22:15:40	0	0	4,406295	4,9125	72,0828	0,267	76,663	3,5	1006,64	6,7	8,8	8,5	1	1	1	1	1	1	1	1	1	0	1	-44,326991	274,314556	276,727296	0
14.01.2021	22:15:41	0	0	4,519277	4,977	73,422	0,263	76,669	3,5	1006,82	6,8	8,8	8,5	1	1	1	1	1	1	1	1	1	0	1	-47,498238	274,231738	273,168505	0
14.01.2021	22:15:42	0	0	3,841385	5,0145	73,7928	0,264	76,661	3,5	1006,8	6,8	8,8	8,5	1	1	1	1	1	1	1	1	1	0	1	-45,665962	274,113399	274,447633	0
14.01.2021	22:15:43	0	0	3,728403	5,06025	104,0652	0,268	76,69	3,5	1006,9	6,8	8,8	8,5	1	1	1	1	1	1	1	1	1	0	1	-47,21635	274,257298	273,569965	0
14.01.2021	22:15:44	0	0	3,954344	4,76325	89,712	0,269	76,701	3,5	1006,82	6,8	8,8	8,6	1	1	1	1	1	1	1	1	1	0	1	-43,058492	274,276867	277,819389	0
14.01.2021	22:15:45	0	0	4,067349	4,7445	86,652	0,265	76,708	3,5	1006,82	6,8	8,8	8,5	1	1	1	1	1	1	1	1	1	0	1	-45,736434	274,308521	275,2896	0
14.01.2021	22:15:46	0	0	4,067349	4,7085	88,5672	0,269	76,712	3,5	1006,98	6,8	8,8	8,5	1	1	1	1	1	1	1	1	1	0	1	-47,639183	274,20021	272,88012	0
14.01.2021	22:15:47	0	0	3,728403	4,326	75,6144	0,273	76,719	3,5	1006,98	6,8	8,8	8,5	1	1	1	1	1	1	1	1	1	0	1	-47,004933	274,299472	273,978742	0
14.01.2021	22:15:48	0	0	3,163494	4,6155	78,2928	0,26	76,714	3,5	1006,88	6,7	8,8	8,5	1	1	1	1	1	1	1	1	1	0	1	-45,172657	274,254289	275,599581	0
14.01.2021	22:15:49	0	0	3,615421	4,60425	63,8748	0,27	76,713	3,5	1006,88	6,8	8,8	8,5	1	1	1	1	1	1	1	1	1	0	1	-47,56871	274,273855	273,295076	0
14.01.2021	22:15:50	0	0	3,050512	4,30425	91,908	0,27	76,725	3,5	1006,8	6,7	8,8	8,5	1	1	1	1	1	1	1	1	1	0	1	-49,119098	274,308521	271,906936	0
14.01.2021	22:15:51	0	0	4,067349	4,011	81,216	0,266	76,724	3,5	1006,84	6,8	8,8	8,5	1	1	1	1	1	1	1	1	1	0	1	-44,890768	274,224226	275,740844	0
14.01.2021	22:15:52	0	0	4,067349	3,6435	89,7228	0,273	76,722	3,5	1006,9	6,8	8,8	8,5	1	1	1	1	1	1	1	1	1	0	1	-47,991543	274,131328	272,20581	0
14.01.2021	22:15:53	0	0	3,615421	3,531	86,9976	0,272	76,709	3,5	1006,74	6,8	8,8	8,5	1	1	1	1	1	1	1	1	1	0	1	-43,763214	274,180718	276,664962	0
14.01.2021	22:15:54	0	0	4,632259	3,66675	80,5428	0,274	76,74	3,5	1006,74	6,9	8,8	8,5	1	1	1	1	1	1	1	1	1	0	1	-45,454545	274,12535	274,714878	0
14.01.2021	22:15:55	0	0	4,293313	3,49575	69,93	0,272	76,749	3,5	1006,84	6,8	8,8	8,5	1	1	1	1	1	1	1	1	1	0	1	-46,088795	274,224226	274,542817	0
14.01.2021	22:15:56	0	0	2,824548	3,27825	69,156	0,273	76,753	3,5	1006,92	6,8	8,8	8,5	1	1	1	1	1	1	1	1	1	0	1	-42,98802	274,294949	277,974484	0
14.01.2021	22:15:57	0	0	2,711566	3,1125	68,0256	0,275	76,752	3,5	1006,86	6,8	8,8	8,5	1	1	1	1	1	1	1	1	1	0	1	-47,991543	274,290427	272,949796	0
14.01.2021	22:15:58	0	0	3,050512	2,99775	84,8232	0,275	76,749	3,5	1006,58	6,8	8,8	8,5	1	1	1	1	1	1	1	1	1	0	1	-44,115574	274,212214	276,459862	0
14.01.2021	22:15:59	0	0	3,050512	2,92575	83,3544	0,268	76,757	3,5	1006,86	6,8	8,7	8,5	1	1	1	1	1	1	1	1	1	0	1	-48,132488	274,307013	272,886485	0
14.01.2021	22:16:00	0	0	3,841362	2,53575	85,2048	0,277	76,754	3,5	1006,92	6,8	8,8	8,6	1	1	1	1	1	1	1	1	1	0	1	-44,326991	274,189712	276,14323	0
14.01.2021	22:16:01	0	0	3,841362	2,53575	85,2048	0,277	76,754	3,5	1006,92	6,8	8,8	8,6	1	1	1	1	1	1	1	1	1	0	1	-44,326991	274,189712	276,14323	0
14.01.2021	22:16:02	0	0	2,598584	2,337	69,8508	0,28	76,746	3,5	1006,94	6,9	8,8	8,5	1	1	1	1	1	1	1	1	1	0	1	-47,56871	274,12535	272,600713	0
14.01.2021	22:16:03	0	0	2,93753	2,397	79,0308	0,276	76,75	3,5	1006,78	6,8	8,8	8,5	1	1	1	1	1	1	1	1	1	0	1	-46,652572	274,210713	273,915845	0
14.01.2021	22:16:04	0	0	4,745241	2,532	69,4584	0,279	76,732	3,5	1006,7	6,9	8,8	8,5	1	1	1	1	1	1	1	1	1	0	1	-47,145877	274,297964	273,83074	0
14.01.2021	22:16:05	0	0	4,406295	2,77875	66,6288	0,283	76,72	3,5	1006,86	6,8	8,8	8,5	1	1	1	1	1	1	1	1	1	0	1	-47,357294	274,204711	273,183054	0
14.01.2021	22:16:06	0	0	3,6154	2,85675	71,2296	0,28	76,704	3,5	1006,66	6,8	8,8	8,6	1	1	1	1	1	1	1	1	1	0	1	-47,639183	274,12535	272,530241	0
14.01.2021	22:16:07	0	0	2,824548	2,6475	73,7748	0,278	76,699	3,5	1006,84	6,8	8,8	8,5	1	1	1	1	1	1	1	1	1	0	1	-43,058492	274,149273	277,222714	0
14.01.2021	22:16:08	0	0	3,050512	2,55225	84,042	0,283	76,686	3,5	1006,84	6,7	8,8	8,5	1	1	1	1	1	1	1	1	1	0	1	-47,21635	274,284399	273,696779	0
14.01.2021	22:16:09	0	0	3,615421	2,424	85,2696	0,277	76,671	3,5	1006,82	6,8	8,8	8,5	1	1	1	1	1	1	1	1	1	0	1	-46,018323	274,322103	275,071296	0
14.01.2021	22:16:10	0	0	4,293313	2,25375	82,35	0,28	76,664	3,5	1006,96	6,8	8,8	8,5	1	1	1	1	1	1	1	1	1	0	1	-47,075405	274,251281	273,682758	0
14.01.2021	22:16:11	0	0	2,372606	2,08725	70,8444	0,28	76,645	3,5	1006,86	6,9	8,8	8,6	1	1	1	1	1	1	1	1	1	0	1	-45,59549	274,302488	275,402302	0
14.01.2021	22:16:12	0	0	4,406295	2,0685	88,9488	0,281	76,624	3,5	1006,92	6,8	8,8	8,5	1	1	1	1	1	1	1	1	1	0	1	-45,172657	274,278374	275,712273	0
14.01.2021	22:16:13	0	0	4,180331	2,217	75,9852	0,286	76,615	3,5	1006,94	6,8	8,8	8,5	1	1	1	1	1	1	1	1	1	0	1	-46,723044	274,167235	273,642109	0
14.01.2021	22:16:14	0	0	3,728403	2,33925	80,1576	0,274	76,597	3,5	1006,82	6,8	8,8	8,5	1	1	1	1	1	1	1	1	1	0	1	-47,075405	274,303996	273,929446	0
14.01.2021	22:16:15	0	0	4,971205	2,2935	74,178	0,283	76,59	3,5	1006,82	6,8	8,8	8,5	1	1	1	1	1	1	1	1	1	0	1	-48,20296	274,17922	272,218211	0
14.01.2021	22:16:16	0	0	3,728403	2,4405	80,1468	0,281	76,572	3,5	1006,9	6,8	8,8	8,5	1	1	1	1	1	1	1	1	1	0	1	-49,541931	274,116386	270,585617	0
14.01.2021	22:16:17	0	0	4,406295	2,56725	95,8392	0,284	76,55	3,5	1006,86	6,8	8,8	8,5	1	1	1	1	1	1	1	1	1	0	1	-54,052149	274,209212	266,509249	0
14.01.2021	22:16:18	0	0	3,6154	2,93175	101,5056	0,284	76,529	3,5	1006,72	6,8	8,8	8,6	1	1	1	1	1	1	1	1	1	0	1	-49,119098	274,297964	271,857519	0
14.01.2021	22:16:19	0	0	2,485602	2,979	93,33	0,283	76,531	3,5	1006,88	6,8	8,8	8,5	1	1	1	1	1	1	1	1	1	0	1	-43,410853	274,173227	276,982304	0
14.01.2021	22:16:20	0	0	3,163494	2,799	118,3428	0,28	76,514	3,5	1006,92	6,8	8,8	8,5	1	1	1	1	1	1	1	1	1	0	1	-47,780127	274,164241	272,571028	0
14.01.2021	22:16:21	0	0	3,050512	2,655	92,97	0,283	76,514	3,5	1006,9	6,8	8,7	8,5	1	1	1	1	1	1	1	1	1	0	1	-48,625793	274,303996	272,379059	0
14.01.2021	22:16:22	0	0	2,93753	2,57925	82,9872	0,286	76,51	3,5	1006,84	6,7	8,8	8,5	1	1	1	1	1	1	1	1	1	0	1	-42,283298	274,180718	278,144878	0
14.01.2021	22:16:23	0	0	2,485602	2,5275	94,1076	0,285	76,509	3,5	1006,84	6,8	8,8	8,5	1	1	1	1	1	1	1	1	1	0	1	-45,877378	274,11788	274,257147	0
14.01.2021	22:16:24	0	0	2,711566	2,3235	48,8196	0,288	76,503	3,5	1006,86	6,8	8,8	8,5	1	1	1	1	1	1	1	1	1	0	1	-43,269908	274,212214	277,305528	0
14.01.2021	22:16:25	0	0	4,406295	2,27475	65,4768	0,287	76,498	3,5	1006,94	6,9	8,8	8,5	1	1	1	1	1	1	1	1	1	0	1	-44,467935	274,120867	275,680548	0
14.01.2021	22:16:26	0	0	2,711566	2,26725	67,6764	0,287	76,486	3,5	1006,84	6,8	8,8	8,5	1	1	1	1	1	1	1	1	1	0	1	-41,085271	274,171729	279,300883	0
14.01.2021	22:16:27	0	0	4,293313	2,3085	68,4108	0,287	76,484	3,5	1006,84	6,8	8,8	8,5	1	1	1	1	1	1	1	1	1	0	1	-45,243129	274,137308	274,982165	0
14.01.2021	22:16:28	0	0	4,632259	2,364	59,8536	0,285	76,467	3,5	1006,9	6,8	8,8	8,5	1	1	1	1	1	1	1	1	1	0	1	-48,414376	274,261812	272,393059	0
14.01.2021	22:16:29	0	0	2,485602	2,39175	69,8544	0,286	76,471	3,5	1006,62	6,8	8,8	8,5	1	1	1	1	1	1	1	1	1	0	1	-47,075405	274,221223	273,542159	0
14.01.2021	22:16:30	0	0	4,180331	2,3415	57,7224	0,284	76,452	3,5	1006,86	6,8	8,8	8,5	1	1	1	1	1	1	1	1	1	0	1	-43,269908	274,296456	277,699652	0
14.01.2021	22:16:31	0	0	4,406295	2,2395	70,2144	0,285	76,456	3,5	1006,82	6,8	8,8	8,5	1	1	1	1	1	1	1	1	1	0	1	-46,370684	274,111906	273,735936	0
14.01.2021	22:16:32	0	0	4,067349	2,259	72,2844	0,292	76,445	3,5	1006,82	6,7	8,8	8,5	1	1	1	1	1	1	1	1	1	0	1	-44,96124	274,192711	275,523	0
14.01.2021	22:16:33	0	0	3,954367	2,27025	71,6112	0,29	76,437	3,5	1006,8	6,8	8,8	8,5	1	1	1	1	1	1	1	1	1	0	1	-46,229739	274,140298	274,009529	0
14.01.2021	22:16:34	0	0	3,954344	2,26575	83,7396	0,286	76,424	3,5	1007	6,9	8,8	8,6	1	1	1	1	1	1	1	1	1	0	1	-42,35377	274,153762	277,948414	0
14.01.2021	22:16:35	0	0	2,598584	2,31975	91,1736	0,28	76,41	3,5	1006,84	6,8	8,8	8,5	1	1	1	1	1	1	1	1	1	0	1	-46,229739	274,171729	274,156415	0
14.01.2021	22:16:36	0	0	3,389458	2,33925	76,8276	0,285	76,401	3,5	1006,96	6,8	8,8	8,5	1	1	1	1	1	1	1	1	1	0	1	-45,947851	274,132823	274,256487	0
14.01.2021	22:16:37	0	0	3,50244	2,44575	88,974	0,289	76,398	3,5	1006,96	6,8	8,8	8,5	1	1	1	1	1	1	1	1	1	0	1	-47,56871	274,234743	273,112091	0
14.01.2021	22:16:38	0	0	3,728403	2,64075	86,9724	0,288	76,369	3,5	1006,8	6,8	8,8	8,5	1	1	1	1	1	1	1	1	1	0	1	-45,384073	274,294949	275,578431	0
14.01.2021	22:16:39	0	0	4,406295	3,18375	91,1484	0,285	76,354	3,5	1006,84	6,8	8,8	8,5	1	1	1	1	1	1	1	1	1	0	1	-47,286822	274,242259	273,429134	0
14.01.2021	22:16:40	0	0	3,615421	3,52875	87,3792	0,282	76,361	3,5	1006,82	6,8	8,8	8,5	1	1	1	1	1	1	1	1	1	0	1	-48,132488	274,123856	272,029955	0
14.01.2021	22:16:41	0	0	3,163494	3,693	82,944	0,281	76,343	3,5	1006,94	6,8	8,8	8,5	1	1	1	1	1	1	1	1	1	0	1	-49,541931	274,144785	270,718303	0
14.01.2021	22:16:42	0	0	4,067325	3,6855	80,8956	0,288	76,336	3,5	1006,88	6,8	8,8	8,6	1	1	1	1	1	1	1	1	1	0	1	-46,652572	274,240755	274,056351	0
14.01.2021	22:16:43	0	0	4,745212	3,5895	81,9648	0,288	76,345	3,5	1006,86	6,8	8,8	8,6	1	1	1	1	1	1	1	1	1	0	1	-49,119098	274,282893	271,78698	0
14.01.2021	22:16:44	0	0	2,37262	3,2505	71,1972	0,278	76,332	3,5	1006,9	6,8	8,8	8,5	1	1	1	1	1	1	1	1	1	0	1	-45,877378	274,168733	274,494775	0
14.01.2021	22:16:45	0	0	4,632259	2,9655	69,4584	0,287	76,346	3,5	1006,86	6,8	8,8	8,5	1	1	1	1	1	1	1	1	1	0	1	-46,793517	274,126844	273,382888	0
14.01.2021	22:16:46	0	0	5,31015	3,237	82,9836	0,282	76,317	3,5	1006,86	6,8	8,8	8,5	1	1	1	1	1	1	1	1	1	0	1	-47,991543	274,258803	272,801811	0
14.01.2021	22:16:47	0	0	3,841362	3,50625	82,6344	0,288	76,327	3,5	1006,76	6,8	8,8	8,6	1	1	1	1	1	1	1	1	1	0	1	-50,669486	274,242259	270,04647	0
14.01.2021	22:16:48	0	0	4,745241	3,465	52,1316	0,286	76,327	3,5	1006,94	6,8	8,8	8,5	1	1	1	1	1	1	1	1	1	0	1	-44,256519	274,297964	276,720098	0
14.01.2021	22:16:49	0	0	3,728403	3,492	63,8748	0,289	76,33	3,5	1006,86	6,8	8,8	8,5	1	1	1	1	1	1	1	1	1	0	1	-40,944327	274,210713	279,62409	0
14.01.2021	22:16:50	0	0	2,824548	3,82275	80,5356	0,291	76,332	3,5	1006,96	6,8	8,8	8,5	1	1	1	1	1	1	1	1	1	0	1	-47,498238	274,281386	273,40079	0
14.01.2021	22:16:51	0	0	4,519277	4,0695	80,1324	0,288	76,328	3,5	1006,92	6,8	8,8	8,5	1	1	1	1	1	1	1	1	1	0	1	-45,877378	274,216718	274,719119	0
14.01.2021	22:16:52	0	0	3,050512	3,92925	70,2324	0,288	76,326	3,5	1006,88	6,8	8,8	8,5	1	1	1	1	1	1	1	1	1	0	1	-43,410853	274,147777	276,863362	0
14.01.2021	22:16:53	0	0	2,598584	3,85425	74,5236	0,286	76,298	3,5	1006,82	6,8	8,8	8,5	1	1	1	1	1	1	1	1	1	0	1	-49,18957	274,302488	271,808222	0
14.01.2021	22:16:54	0	0	4,067349	3,9345	54,1008	0,282	76,315	3,5	1006,94	6,8	8,8	8,5	1	1	1	1	1	1	1	1	1	0	1	-45,454545	274,245266	275,275477	0
14.01.2021	22:16:55	0	0	4,406295	4,23525	64,2456	0,287	76,288	3,5	1006,86	6,8	8,8	8,5	1	1	1	1	1	1	1	1	1	0	1	-44,115574	274,30098	276,875159	0
14.01.2021	22:16:56	0	0	4,632259	4,32975	77,5872	0,291	76,309	3,5	1006,96	6,8	8,8	8,5	1	1	1	1	1	1	1	1	1	0	1	-48,625793	274,290427	272,315546	0
14.01.2021	22:16:57	0	0	4,858223	4,0755	88,5744	0,287	76,292	3,5	1007,04	6,8	8,8	8,5	1	1	1	1	1	1	1	1	1	0	1	-45,454545	274,275361	275,416288	0
14.01.2021	22:16:58	0	0	3,276476	3,87825	84,0276	0,281	76,275	3,5	1006,78	6,8	8,8	8,5	1	1	1	1	1	1	1	1	1	0	1	-43,410853	274,183716	277,031335	0
14.01.2021	22:16:59	0	0	2,93753	3,9165	95,1264	0,285	76,278	3,5	1006,78	6,8	8,8	8,5	1	1	1	1	1	1	1	1	1	0	1	-46,441156	274,119373	273,700348	0
14.01.2021	22:17:00	0	0	2,711566	4,2975	93,33	0,29	76,246	3,5	1007,12	6,8	8,8	8,5	1	1	1	1	1	1	1	1	1	0	1	-42,847075	274,155259	277,462102	0
14.01.2021	22:17:01	0	0	2,711566	4,2975	93,33	0,29	76,246	3,5	1007,12	6,8	8,8	8,5	1	1	1	1	1	1	1	1	1	0	1	-38,548273	274,236246	282,139557	0
14.01.2021	22:17:02	0	0	3,276476	4,36125	87,7464	0,29	76,249	3,5	1006,84	6,8	8,8	8,5	1	1	1	1	1	1	1	1	1	0	1	-46,863989	274,110413	273,235656	0
14.01.2021	22:17:03	0	0	3,954367	4,1445	81,9612	0,286	76,238	3,5	1006,76	6,8	8,8	8,5	1	1	1	1	1	1	1	1	1	0	1	-46,5821	274,258803	274,211254	0
14.01.2021	22:17:04	0	0	3,841385	4,113	84,0672	0,286	76,239	3,5	1006,88	6,8	8,8	8,5	1	1	1	1	1	1	1	1	1	0	1	-45,313601	274,116386	274,813947	0
14.01.2021	22:17:05	0	0	2,93753	4,1205	81,1908	0,283	76,264	3,5	1006,82	6,8	8,8	8,5	1	1	1	1	1	1	1	1	1	0	1	-47,639183	274,146281	272,628041	0
14.01.2021	22:17:06	0	0	3,163494	4,38975	77,5728	0,278	76,276	3,5	1006,84	6,8	8,8	8,5	1	1	1	1	1	1	1	1	1	0	1	-48,273432	274,246769	272,463624	0
14.01.2021	22:17:07	0	0	3,389458	4,6065	78,336	0,285	76,279	3,5	1006,9	6,8	8,8	8,5	1	1	1	1	1	1	1	1	1	0	1	-45,736434	274,12535	274,432989	0
14.01.2021	22:17:08	0	0	4,406295	4,6605	80,7732	0,282	76,316	3,5	1006,92	6,8	8,8	8,5	1	1	1	1	1	1	1	1	1	0	1	-46,863989	274,237749	273,830872	0
14.01.2021	22:17:09	0	0	4,632259	4,87575	87,3468	0,285	76,352	3,5	1006,74	6,8	8,8	8,5	1	1	1	1	1	1	1	1	1	0	1	-51,303735	274,188213	269,159476	0
14.01.2021	22:17:10	0	0	3,728403	4,9425	74,5452	0,288	76,382	3,5	1006,92	6,8	8,8	8,5	1	1	1	1	1	1	1	1	1	0	1	-46,441156	274,294949	274,521348	0
14.01.2021	22:17:11	0	0	3,163494	4,611	64,2888	0,283	76,409	3,5	1006,66	6,8	8,8	8,5	1	1	1	1	1	1	1	1	1	0	1	-45,806906	274,153762	274,495278	0
14.01.2021	22:17:12	0	0	2,711566	4,35675	69,4764	0,285	76,427	3,5	1006,94	6,8	8,8	8,5	1	1	1	1	1	1	1	1	1	0	1	-49,119098	274,270844	271,730597	0
14.01.2021	22:17:13	0	0	2,93753	4,107	74,8836	0,284	76,428	3,5	1006,84	6,8	8,8	8,5	1	1	1	1	1	1	1	1	1	0	1	-42,917548	274,126844	277,258857	0
14.01.2021	22:17:14	0	0	4,067349	4,16475	80,4888	0,279	76,434	3,5	1006,86	6,8	8,8	8,5	1	1	1	1	1	1	1	1	1	0	1	-50,246653	274,204711	270,293695	0
14.01.2021	22:17:15	0	0	4,632259	4,515	84,0132	0,285	76,44	3,5	1006,86	6,8	8,7	8,5	1	1	1	1	1	1	1	1	1	0	1	-49,048626	274,282893	271,857452	0
14.01.2021	22:17:16	0	0	3,615421	4,311	78,2856	0,285	76,43	3,5	1006,88	6,8	8,8	8,5	1	1	1	1	1	1	1	1	1	0	1	-47,004933	274,30098	273,9858	0
14.01.2021	22:17:17	0	0	4,745241	4,16025	79,4052	0,285	76,438	3,5	1006,94	6,8	8,7	8,5	1	1	1	1	1	1	1	1	1	0	1	-40,732911	274,282893	280,173168	0
14.01.2021	22:17:18	0	0	4,406295	4,116	85,6044	0,284	76,431	3,5	1006,82	6,8	8,8	8,5	1	1	1	1	1	1	1	1	1	0	1	-43,97463	274,171729	276,411525	0
14.01.2021	22:17:19	0	0	3,50244	3,90225	81,2016	0,278	76,426	3,5	1006,7	6,8	8,8	8,5	1	1	1	1	1	1	1	1	1	0	1	-44,467935	274,137308	275,757359	0
14.01.2021	22:17:20	0	0	3,841385	3,54	71,604	0,28	76,412	3,5	1006,84	6,8	8,8	8,5	1	1	1	1	1	1	1	1	1	0	1	-44,820296	274,19721	275,68498	0
14.01.2021	22:17:21	0	0	3,163494	3,3765	71,5824	0,283	76,423	3,5	1006,68	6,8	8,7	8,5	1	1	1	1	1	1	1	1	1	0	1	-42,565187	274,294949	278,397317	0
14.01.2021	22:17:22	0	0	4,971205	3,68175	75,1968	0,28	76,425	3,5	1006,9	6,8	8,8	8,5	1	1	1	1	1	1	1	1	1	0	1	-41,860465	274,146281	278,406759	0
14.01.2021	22:17:23	0	0	4,745241	4,08225	78,6348	0,286	76,423	3,5	1006,92	6,8	8,8	8,5	1	1	1	1	1	1	1	1	1	0	1	-45,243129	274,140298	274,996139	0
14.01.2021	22:17:24	0	0	2,71155	4,09275	72,2916	0,282	76,419	3,5	1006,92	6,9	8,8	8,6	1	1	1	1	1	1	1	1	1	0	1	-46,723044	274,15077	273,565154	0
14.01.2021	22:17:25	0	0	3,276476	3,92325	76,7952	0,283	76,415	3,5	1006,86	6,8	8,8	8,5	1	1	1	1	1	1	1	1	1	0	1	-46,088795	274,137308	274,136499	0
14.01.2021	22:17:26	0	0	2,598584	3,819	82,0476	0,284	76,406	3,5	1006,9	6,7	8,8	8,5	1	1	1	1	1	1	1	1	1	0	1	-43,199436	274,284399	277,713693	0
14.01.2021	22:17:27	0	0	2,598584	3,525	72,6696	0,28	76,409	3,5	1006,98	6,8	8,8	8,5	1	1	1	1	1	1	1	1	1	0	1	-47,850599	274,20021	272,668704	0
14.01.2021	22:17:28	0	0	2,711566	3,25425	69,858	0,277	76,398	3,5	1006,86	6,8	8,8	8,5	1	1	1	1	1	1	1	1	1	0	1	-49,330514	274,30098	271,660218	0
14.01.2021	22:17:29	0	0	2,033675	3,10575	66,3192	0,284	76,395	3,5	1006,76	6,8	8,8	8,5	1	1	1	1	1	1	1	1	1	0	1	-43,199436	274,165738	277,158718	0
14.01.2021	22:17:30	0	0	2,824548	3,0525	75,7008	0,285	76,396	3,5	1006,94	6,8	8,8	8,5	1	1	1	1	1	1	1	1	1	0	1	-41,296688	274,297964	279,679929	0
14.01.2021	22:17:31	0	0	4,632259	3,35175	74,9268	0,28	76,387	3,5	1006,9	6,8	8,8	8,5	1	1	1	1	1	1	1	1	1	0	1	-42,635659	274,161246	277,701501	0
14.01.2021	22:17:32	0	0	3,615421	3,46575	82,5804	0,275	76,39	3,5	1006,82	6,8	8,8	8,5	1	1	1	1	1	1	1	1	1	0	1	-49,753347	274,189712	270,716873	0
14.01.2021	22:17:33	0	0	4,971205	3,2415	83,8548	0,284	76,398	3,5	1006,9	6,8	8,8	8,5	1	1	1	1	1	1	1	1	1	0	1	-45,665962	274,291934	275,282432	0
14.01.2021	22:17:34	0	0	4,971205	2,95725	89,7372	0,274	76,401	3,5	1006,92	6,7	8,8	8,5	1	1	1	1	1	1	1	1	1	0	1	-44,538407	274,168733	275,833746	0
14.01.2021	22:17:35	0	0	4,971205	2,88	86,6556	0,275	76,401	3,5	1006,76	6,8	8,8	8,5	1	1	1	1	1	1	1	1	1	0	1	-46,300211	274,162743	274,043946	0
14.01.2021	22:17:36	0	0	2,598584	2,79375	79,4016	0,273	76,407	3,5	1006,92	6,9	8,8	8,5	1	1	1	1	1	1	1	1	1	0	1	-45,172657	274,174725	275,227502	0
14.01.2021	22:17:37	0	0	5,31015	2,88075	82,35	0,272	76,398	3,5	1006,8	6,8	8,8	8,5	1	1	1	1	1	1	1	1	1	0	1	-46,5821	274,291934	274,366293	0
14.01.2021	22:17:38	0	0	4,632259	3,07875	83,3544	0,283	76,403	3,5	1006,92	6,8	8,8	8,5	1	1	1	1	1	1	1	1	1	0	1	-44,256519	274,122361	275,898944	0
14.01.2021	22:17:39	0	0	3,163494	3,4455	91,1628	0,277	76,404	3,5	1006,82	6,8	8,8	8,5	1	1	1	1	1	1	1	1	1	0	1	-43,058492	274,215217	277,530984	0
14.01.2021	22:17:40	0	0	4,858223	4,0605	88,1316	0,287	76,396	3,5	1006,8	6,8	8,8	8,5	1	1	1	1	1	1	1	1	1	0	1	-42,565187	274,123856	277,597256	0
14.01.2021	22:17:41	0	0	3,163494	4,407	71,9856	0,283	76,411	3,5	1006,84	6,8	8,8	8,5	1	1	1	1	1	1	1	1	1	0	1	-45,313601	274,15077	274,974597	0
14.01.2021	22:17:42	0	0	2,824548	4,4025	85,5468	0,285	76,411	3,5	1006,88	6,8	8,8	8,5	1	1	1	1	1	1	1	1	1	0	1	-47,286822	274,28892	273,647464	0
14.01.2021	22:17:43	0	0	4,745241	4,6065	70,8444	0,284	76,403	3,5	1006,88	6,8	8,8	8,5	1	1	1	1	1	1	1	1	1	0	1	-44,538407	274,291934	276,409986	0
14.01.2021	22:17:44	0	0	2,824548	4,758	66,2256	0,279	76,406	3,5	1006,78	6,8	8,8	8,5	1	1	1	1	1	1	1	1	1	0	1	-47,145877	274,245266	273,584145	0
14.01.2021	22:17:45	0	0	2,93753	4,524	78,2676	0,284	76,417	3,5	1007,06	6,8	8,8	8,5	1	1	1	1	1	1	1	1	1	0	1	-45,172657	274,132823	275,031681	0
14.01.2021	22:17:46	0	0	2,93753	4,17975	84,3984	0,287	76,408	3,5	1006,88	6,8	8,8	8,5	1	1	1	1	1	1	1	1	1	0	1	-45,384073	274,260308	275,416321	0
14.01.2021	22:17:47	0	0	3,615421	3,86325	91,5228	0,283	76,402	3,5	1006,82	6,8	8,8	8,5	1	1	1	1	1	1	1	1	1	0	1	-47,850599	274,162743	272,493558	0
14.01.2021	22:17:48	0	0	3,163494	3,8235	80,8992	0,282	76,412	3,5	1006,98	6,8	8,8	8,5	1	1	1	1	1	1	1	1	1	0	1	-49,541931	274,111906	270,564689	0
14.01.2021	22:17:49	0	0	3,163494	3,7035	86,2524	0,283	76,396	3,5	1006,84	6,8	8,8	8,5	1	1	1	1	1	1	1	1	1	0	1	-49,119098	274,230235	271,540618	0
14.01.2021	22:17:50	0	0	2,93753	3,55425	80,5212	0,287	76,408	3,5	1006,88	6,8	8,8	8,5	1	1	1	1	1	1	1	1	1	0	1	-44,538407	274,126844	275,637998	0
14.01.2021	22:17:51	0	0	4,406295	3,79425	87,3252	0,279	76,372	3,5	1006,78	6,9	8,8	8,5	1	1	1	1	1	1	1	1	1	0	1	-48,343904	274,284399	272,569225	0
14.01.2021	22:17:52	0	0	4,632259	3,86325	86,652	0,287	76,395	3,5	1006,84	6,8	8,8	8,5	1	1	1	1	1	1	1	1	1	0	1	-46,370684	274,174725	274,029475	0
14.01.2021	22:17:53	0	0	3,954367	4,18125	93,6972	0,279	76,379	3,5	1006,8	6,8	8,8	8,5	1	1	1	1	1	1	1	1	1	0	1	-43,692741	274,299472	277,290933	0
14.01.2021	22:17:54	0	0	4,293313	4,14675	81,576	0,286	76,395	3,5	1006,98	6,8	8,8	8,5	1	1	1	1	1	1	1	1	1	0	1	-43,269908	274,19871	277,242381	0
14.01.2021	22:17:55	0	0	4,745241	4,07175	84,7872	0,29	76,402	3,5	1006,88	6,8	8,8	8,5	1	1	1	1	1	1	1	1	1	0	1	-46,5821	274,30098	274,408633	0
14.01.2021	22:17:56	0	0	4,858223	3,97275	78,2892	0,284	76,392	3,5	1006,88	6,8	8,8	8,5	1	1	1	1	1	1	1	1	1	0	1	-46,229739	274,287413	274,697494	0
14.01.2021	22:17:57	0	0	3,615421	3,88875	80,5248	0,28	76,393	3,5	1006,86	6,8	8,8	8,5	1	1	1	1	1	1	1	1	1	0	1	-44,256519	274,249777	276,494608	0
14.01.2021	22:17:58	0	0	3,841385	4,05075	86,67	0,283	76,403	3,5	1007,02	6,8	8,8	8,5	1	1	1	1	1	1	1	1	1	0	1	-41,789993	274,119373	278,351511	0
14.01.2021	22:17:59	0	0	4,745241	4,60275	98,3124	0,279	76,398	3,5	1006,84	6,8	8,8	8,5	1	1	1	1	1	1	1	1	1	0	1	-47,780127	274,20321	272,753205	0
14.01.2021	22:18:00	0	0	4,745241	4,90275	88,5744	0,286	76,419	3,5	1006,88	6,8	8,8	8,5	1	1	1	1	1	1	1	1	1	0	1	-50,317125	274,293441	270,638324	0
14.01.2021	22:18:01	0	0	4,745241	4,90275	88,5744	0,286	76,419	3,5	1006,88	6,8	8,8	8,5	1	1	1	1	1	1	1	1	1	0	1	-50,317125	274,293441	270,638324	0
14.01.2021	22:18:02	0	0	5,536114	4,77375	101,808	0,285	76,432	3,5	1006,84	6,8	8,8	8,5	1	1	1	1	1	1	1	1	1	0	1	-49,330514	274,234743	271,350286	0
14.01.2021	22:18:03	0	0	3,615421	4,3515	94,7736	0,282	76,453	3,5	1006,88	6,8	8,8	8,5	1	1	1	1	1	1	1	1	1	0	1	-49,682875	274,31003	271,350221	0
14.01.2021	22:18:04	0	0	3,050512	4,221	86,2848	0,284	76,461	3,5	1006,88	6,8	8,8	8,5	1	1	1	1	1	1	1	1	1	0	1	-47,286822	274,182217	273,14836	0
14.01.2021	22:18:05	0	0	3,276476	4,3065	92,6352	0,283	76,458	3,5	1006,8	6,8	8,8	8,5	1	1	1	1	1	1	1	1	1	0	1	-47,850599	274,162743	272,493558	0
14.01.2021	22:18:06	0	0	2,824548	4,1295	96,4296	0,285	76,49	3,5	1006,88	6,8	8,8	8,5	1	1	1	1	1	1	1	1	1	0	1	-45,736434	274,31003	275,296662	0
14.01.2021	22:18:07	0	0	4,519277	3,88125	85,1796	0,283	76,491	3,5	1006,76	6,8	8,8	8,5	1	1	1	1	1	1	1	1	1	0	1	-42,98802	274,260308	277,812375	0
14.01.2021	22:18:08	0	0	4,971205	3,9645	98,0676	0,283	76,5	3,5	1006,96	6,8	8,8	8,5	1	1	1	1	1	1	1	1	1	0	1	-43,058492	274,299472	277,925183	0
14.01.2021	22:18:09	0	0	3,050512	3,99525	90,0072	0,285	76,523	3,5	1006,98	6,8	8,8	8,5	1	1	1	1	1	1	1	1	1	0	1	-46,5821	274,162743	273,762057	0
14.01.2021	22:18:10	0	0	3,728403	3,95325	88,1172	0,285	76,513	3,5	1006,96	6,8	8,8	8,5	1	1	1	1	1	1	1	1	1	0	1	-44,045102	274,135813	276,173205	0
14.01.2021	22:18:11	0	0	3,954367	3,7125	79,7724	0,28	76,511	3,5	1006,86	6,8	8,8	8,5	1	1	1	1	1	1	1	1	1	0	1	-46,511628	274,261812	274,295808	0
14.01.2021	22:18:12	0	0	2,485602	3,43275	86,292	0,289	76,528	3,5	1006,96	6,8	8,8	8,5	1	1	1	1	1	1	1	1	1	0	1	-42,706131	274,245266	278,023891	0
14.01.2021	22:18:13	0	0	4,293313	3,2535	90,0216	0,286	76,529	3,5	1006,84	6,8	8,8	8,5	1	1	1	1	1	1	1	1	1	0	1	-46,441156	274,287413	274,486077	0
14.01.2021	22:18:14	0	0	4,067349	3,1155	85,5432	0,284	76,528	3,5	1006,96	6,9	8,8	8,5	1	1	1	1	1	1	1	1	1	0	1	-44,256519	274,141794	275,989737	0
14.01.2021	22:18:15	0	0	5,31015	3,36375	84,8052	0,292	76,524	3,5	1006,8	6,8	8,8	8,5	1	1	1	1	1	1	1	1	1	0	1	-46,5821	274,251281	274,176063	0
14.01.2021	22:18:16	0	0	4,406295	3,38775	85,1724	0,287	76,516	3,5	1006,94	6,8	8,8	8,5	1	1	1	1	1	1	1	1	1	0	1	-47,780127	274,126844	272,396278	0
14.01.2021	22:18:17	0	0	4,632259	3,39675	81,9612	0,284	76,505	3,5	1006,9	6,8	8,8	8,5	1	1	1	1	1	1	1	1	1	0	1	-49,330514	274,15077	270,957683	0
14.01.2021	22:18:18	0	0	4,293287	3,39075	87,75	0,284	76,502	3,5	1006,8	6,8	8,8	8,6	1	1	1	1	1	1	1	1	1	0	1	-50,17618	274,135813	270,042127	0
14.01.2021	22:18:19	0	0	4,406268	3,55275	95,148	0,288	76,489	3,5	1006,94	6,8	8,8	8,6	1	1	1	1	1	1	1	1	1	0	1	-45,806906	274,311538	275,233253	0
14.01.2021	22:18:20	0	0	4,632259	3,77175	79,4232	0,288	76,477	3,5	1006,66	6,8	8,8	8,5	1	1	1	1	1	1	1	1	1	0	1	-44,467935	274,20021	276,051367	0
14.01.2021	22:18:21	0	0	2,711566	3,85875	55,9548	0,284	76,469	3,5	1006,8	6,8	8,8	8,5	1	1	1	1	1	1	1	1	1	0	1	-48,625793	274,316065	272,435559	0
14.01.2021	22:18:22	0	0	4,067349	3,633	88,5852	0,287	76,45	3,5	1006,72	6,8	8,8	8,5	1	1	1	1	1	1	1	1	1	0	1	-49,119098	274,258803	271,674256	0
14.01.2021	22:18:23	0	0	4,519277	3,264	66,2292	0,29	76,436	3,5	1006,92	6,8	8,8	8,5	1	1	1	1	1	1	1	1	1	0	1	-48,414376	274,252785	272,350824	0
14.01.2021	22:18:24	0	0	3,728403	3,204	83,3436	0,288	76,444	3,5	1006,86	6,8	8,8	8,5	1	1	1	1	1	1	1	1	1	0	1	-45,313601	274,111906	274,793019	0
14.01.2021	22:18:25	0	0	4,180331	3,2115	76,8168	0,288	76,44	3,5	1006,86	6,8	8,8	8,5	1	1	1	1	1	1	1	1	1	0	1	-47,21635	274,224226	273,415263	0
14.01.2021	22:18:26	0	0	4,293313	3,28425	82,6272	0,286	76,419	3,5	1006,8	6,8	8,8	8,5	1	1	1	1	1	1	1	1	1	0	1	-44,820296	274,303996	276,184555	0
14.01.2021	22:18:27	0	0	4,293313	3,7155	81,6084	0,287	76,424	3,5	1006,86	6,8	8,8	8,5	1	1	1	1	1	1	1	1	1	0	1	-45,877378	274,170231	274,501775	0
14.01.2021	22:18:28	0	0	3,163494	3,89925	101,1276	0,295	76,416	3,5	1006,9	6,8	8,8	8,5	1	1	1	1	1	1	1	1	1	0	1	-46,018323	274,131328	274,179031	0
14.01.2021	22:18:29	0	0	2,485602	3,68175	84,8124	0,291	76,413	3,5	1006,78	6,8	8,8	8,5	1	1	1	1	1	1	1	1	1	0	1	-49,400987	274,156756	270,915186	0
14.01.2021	22:18:30	0	0	4,406295	3,64725	91,5156	0,29	76,403	3,5	1006,78	6,8	8,8	8,5	1	1	1	1	1	1	1	1	1	0	1	-45,877378	274,230235	274,782338	0
14.01.2021	22:18:31	0	0	4,180331	3,72225	82,6128	0,292	76,391	3,5	1006,92	6,8	8,8	8,5	1	1	1	1	1	1	1	1	1	0	1	-45,313601	274,303996	275,69125	0
14.01.2021	22:18:32	0	0	4,067349	3,903	81,2952	0,293	76,39	3,5	1006,88	6,8	8,8	8,5	1	1	1	1	1	1	1	1	1	0	1	-46,934461	274,165738	273,423693	0
14.01.2021	22:18:33	0	0	2,824531	4,047	84,0384	0,282	76,4	3,5	1006,74	6,8	8,8	8,6	1	1	1	1	1	1	1	1	1	0	1	-45,031712	274,284399	275,881417	0
14.01.2021	22:18:34	0	0	4,745241	4,18125	90,7884	0,288	76,377	3,5	1006,86	6,8	8,8	8,5	1	1	1	1	1	1	1	1	1	0	1	-46,723044	274,123856	273,439398	0
14.01.2021	22:18:35	0	0	2,824548	4,155	84,4416	0,283	76,375	3,5	1006,94	6,8	8,8	8,5	1	1	1	1	1	1	1	1	1	0	1	-45,172657	274,257298	275,613658	0
14.01.2021	22:18:36	0	0	4,180331	3,97575	80,154	0,29	76,37	3,5	1006,7	6,8	8,8	8,5	1	1	1	1	1	1	1	1	1	0	1	-46,793517	274,296456	274,176044	0
14.01.2021	22:18:37	0	0	5,084186	3,6615	76,8384	0,284	76,363	3,5	1006,76	6,8	8,8	8,5	1	1	1	1	1	1	1	1	1	0	1	-50,17618	274,261812	270,631255	0
14.01.2021	22:18:38	0	0	2,598584	3,23625	68,0868	0,292	76,375	3,5	1006,92	6,9	8,8	8,5	1	1	1	1	1	1	1	1	1	0	1	-48,343904	274,155259	271,965274	0
14.01.2021	22:18:39	0	0	3,50244	2,8605	58,572	0,288	76,364	3,5	1006,8	6,8	8,8	8,5	1	1	1	1	1	1	1	1	1	0	1	-47,004933	274,258803	273,788421	0
14.01.2021	22:18:40	0	0	3,050512	2,7225	59,4864	0,287	76,347	3,5	1006,74	6,8	8,8	8,5	1	1	1	1	1	1	1	1	1	0	1	-42,706131	274,126844	277,470274	0
14.01.2021	22:18:41	0	0	3,389458	2,76	62,028	0,289	76,347	3,5	1006,9	6,7	8,8	8,5	1	1	1	1	1	1	1	1	1	0	1	-44,397463	274,152266	275,897728	0
14.01.2021	22:18:42	0	0	2,824548	3,15675	71,2404	0,285	76,345	3,5	1007,04	6,8	8,8	8,5	1	1	1	1	1	1	1	1	1	0	1	-44,538407	274,155259	275,77077	0
14.01.2021	22:18:43	0	0	4,971205	3,438	68,7708	0,283	76,324	3,5	1007,06	6,8	8,8	8,5	1	1	1	1	1	1	1	1	1	0	1	-48,696265	274,303996	272,308586	0
14.01.2021	22:18:44	0	0	3,163494	3,62175	67,6476	0,289	76,331	3,5	1006,72	6,8	8,8	8,5	1	1	1	1	1	1	1	1	1	0	1	-47,56871	274,23324	273,105062	0
14.01.2021	22:18:45	0	0	3,389458	3,58575	71,2512	0,29	76,331	3,5	1006,92	6,8	8,8	8,5	1	1	1	1	1	1	1	1	1	0	1	-46,441156	274,296456	274,528404	0
14.01.2021	22:18:46	0	0	4,858223	3,246	84,4236	0,288	76,321	3,5	1006,92	6,8	8,8	8,5	1	1	1	1	1	1	1	1	1	0	1	-41,296688	274,27235	279,560053	0
14.01.2021	22:18:47	0	0	3,954367	3,01575	70,5924	0,297	76,331	3,5	1006,96	6,8	8,8	8,5	1	1	1	1	1	1	1	1	1	0	1	-44,256519	274,171729	276,129636	0
14.01.2021	22:18:48	0	0	3,050512	2,784	60,9516	0,288	76,315	3,5	1006,72	6,8	8,8	8,5	1	1	1	1	1	1	1	1	1	0	1	-47,709655	274,307013	273,309318	0
14.01.2021	22:18:49	0	0	4,971205	2,652	63,18	0,283	76,331	3,5	1006,9	6,8	8,8	8,5	1	1	1	1	1	1	1	1	1	0	1	-46,370684	274,188213	274,092528	0
14.01.2021	22:18:50	0	0	2,711566	2,682	68,022	0,289	76,34	3,5	1006,84	6,8	8,8	8,5	1	1	1	1	1	1	1	1	1	0	1	-45,736434	274,116386	274,391114	0
14.01.2021	22:18:51	0	0	4,067349	2,48925	60,5592	0,285	76,316	3,5	1006,82	6,8	8,8	8,5	1	1	1	1	1	1	1	1	1	0	1	-43,410853	274,161246	276,926307	0
14.01.2021	22:18:52	0	0	3,615421	2,24925	63,486	0,284	76,334	3,5	1006,9	6,8	8,8	8,5	1	1	1	1	1	1	1	1	1	0	1	-42,917548	274,171729	277,468607	0
14.01.2021	22:18:53	0	0	3,954367	2,05575	66,5208	0,287	76,345	3,5	1006,84	6,8	8,8	8,5	1	1	1	1	1	1	1	1	1	0	1	-48,484848	274,307013	272,534124	0
14.01.2021	22:18:54	0	0	3,050512	2,0265	80,6076	0,283	76,355	3,5	1006,88	6,8	8,8	8,5	1	1	1	1	1	1	1	1	1	0	1	-47,357294	274,246769	273,379763	0
14.01.2021	22:18:55	0	0	3,728403	2,21475	58,104	0,289	76,363	3,5	1006,92	6,8	8,8	8,5	1	1	1	1	1	1	1	1	1	0	1	-48,555321	274,140298	271,683947	0
14.01.2021	22:18:56	0	0	3,163475	2,3055	49,9572	0,28	76,362	3,5	1006,94	6,8	8,8	8,6	1	1	1	1	1	1	1	1	1	0	1	-43,269908	274,123856	276,892534	0
14.01.2021	22:18:57	0	0	4,519277	2,5875	51,1344	0,288	76,379	3,5	1006,88	6,8	8,8	8,5	1	1	1	1	1	1	1	1	1	0	1	-47,498238	274,189712	272,971982	0
14.01.2021	22:18:58	0	0	3,276476	2,7675	63,1692	0,28	76,39	3,5	1006,96	6,8	8,8	8,5	1	1	1	1	1	1	1	1	1	0	1	-47,075405	274,116386	273,052143	0
14.01.2021	22:18:59	0	0	4,293313	2,96475	35,8704	0,282	76,388	3,5	1006,86	6,8	8,8	8,5	1	1	1	1	1	1	1	1	1	0	1	-46,793517	274,252785	273,971684	0
14.01.2021	22:19:00	0	0	3,276476	3,4515	47,3868	0,281	76,402	3,5	1006,94	6,8	8,8	8,5	1	1	1	1	1	1	1	1	1	0	1	-46,441156	274,260308	274,359239	0
14.01.2021	22:19:01	0	0	3,728403	3,3735	105,2424	0,286	76,42	3,5	1006,96	6,8	8,8	8,5	1	1	1	1	1	1	1	1	1	0	1	-51,444679	274,285906	269,475501	0
14.01.2021	22:19:02	0	0	2,37262	3,03225	82,5912	0,285	76,417	3,5	1006,92	6,8	8,8	8,5	1	1	1	1	1	1	1	1	1	0	1	-52,078929	274,131328	268,118425	0
14.01.2021	22:19:03	0	0	4,632259	2,70825	98,7624	0,285	76,435	3,5	1006,94	6,8	8,8	8,5	1	1	1	1	1	1	1	1	1	0	1	-48,484848	274,287413	272,442384	0
14.01.2021	22:19:04	0	0	3,276476	2,40375	107,7336	0,275	76,432	3,5	1006,8	6,8	8,8	8,5	1	1	1	1	1	1	1	1	1	0	1	-46,934461	274,19871	273,577828	0
14.01.2021	22:19:05	0	0	4,180331	2,19525	84,456	0,283	76,427	3,5	1006,98	6,8	8,8	8,5	1	1	1	1	1	1	1	1	1	0	1	-48,20296	274,113399	271,910635	0
14.01.2021	22:19:06	0	0	4,745212	2,031	75,6072	0,28	76,439	3,5	1006,92	6,8	8,8	8,6	1	1	1	1	1	1	1	1	1	0	1	-48,837209	274,273855	272,026577	0
14.01.2021	22:19:07	0	0	4,406295	2,07675	62,4348	0,282	76,467	3,5	1006,86	6,8	8,8	8,5	1	1	1	1	1	1	1	1	1	0	1	-46,441156	274,15077	273,847042	0
14.01.2021	22:19:08	0	0	3,728403	2,15925	67,2732	0,281	76,466	3,5	1006,76	6,8	8,8	8,5	1	1	1	1	1	1	1	1	1	0	1	-44,326991	274,281386	276,572037	0
14.01.2021	22:19:09	0	0	4,858223	2,36625	77,1984	0,28	76,475	3,5	1006,84	6,8	8,8	8,5	1	1	1	1	1	1	1	1	1	0	1	-47,004933	274,176223	273,402229	0
14.01.2021	22:19:10	0	0	4,745241	2,5215	59,85	0,28	76,461	3,5	1006,9	6,8	8,8	8,5	1	1	1	1	1	1	1	1	1	0	1	-46,018323	274,120867	274,13016	0
14.01.2021	22:19:11	0	0	4,971205	2,49	55,1736	0,28	76,455	3,5	1006,92	6,8	8,8	8,5	1	1	1	1	1	1	1	1	1	0	1	-43,481325	274,27235	277,375416	0
14.01.2021	22:19:12	0	0	4,745241	2,67225	78,282	0,278	76,452	3,5	1006,84	6,8	8,8	8,5	1	1	1	1	1	1	1	1	1	0	1	-44,749824	274,183716	275,692364	0
14.01.2021	22:19:13	0	0	2,711566	2,71725	88,1028	0,275	76,461	3,5	1006,94	6,8	8,8	8,5	1	1	1	1	1	1	1	1	1	0	1	-45,806906	274,284399	275,106223	0
14.01.2021	22:19:14	0	0	2,485602	2,793	77,6016	0,271	76,449	3,5	1006,84	6,8	8,8	8,5	1	1	1	1	1	1	1	1	1	0	1	-45,947851	274,165738	274,410303	0
14.01.2021	22:19:15	0	0	2,485602	2,89575	76,3668	0,279	76,455	3,5	1006,9	6,8	8,8	8,5	1	1	1	1	1	1	1	1	1	0	1	-50,246653	274,284399	270,666476	0
14.01.2021	22:19:16	0	0	2,259638	3,56325	72,0036	0,277	76,446	3,5	1006,94	6,8	8,8	8,5	1	1	1	1	1	1	1	1	1	0	1	-45,384073	274,284399	275,529056	0
14.01.2021	22:19:17	0	0	4,067349	4,047	78,2676	0,28	76,445	3,5	1006,88	6,8	8,8	8,5	1	1	1	1	1	1	1	1	1	0	1	-43,622269	274,149273	276,658937	0
14.01.2021	22:19:18	0	0	3,276476	4,2885	81,594	0,275	76,454	3,5	1007	6,8	8,8	8,5	1	1	1	1	1	1	1	1	1	0	1	-50,951374	274,098471	269,092495	0
14.01.2021	22:19:19	0	0	4,406295	4,2555	81,198	0,278	76,429	3,5	1006,86	6,8	8,8	8,5	1	1	1	1	1	1	1	1	1	0	1	-44,890768	274,138803	275,341512	0
14.01.2021	22:19:20	0	0	5,084186	4,1385	75,9924	0,272	76,455	3,5	1006,82	6,8	8,8	8,5	1	1	1	1	1	1	1	1	1	0	1	-50,317125	274,252785	270,448075	0
14.01.2021	22:19:21	0	0	2,598584	3,9765	75,2256	0,275	76,452	3,5	1006,98	6,8	8,8	8,5	1	1	1	1	1	1	1	1	1	0	1	-44,608879	274,285906	276,311301	0
14.01.2021	22:19:22	0	0	2,598584	3,86175	90,7704	0,271	76,465	3,5	1006,84	6,8	8,8	8,5	1	1	1	1	1	1	1	1	1	0	1	-50,17618	274,174725	270,223979	0
14.01.2021	22:19:23	0	0	4,745212	3,6255	86,6448	0,276	76,486	3,5	1006,96	6,8	8,8	8,6	1	1	1	1	1	1	1	1	1	0	1	-44,608879	274,122361	275,546583	0
14.01.2021	22:19:24	0	0	3,954367	3,61125	83,3508	0,274	76,487	3,5	1006,94	6,8	8,8	8,5	1	1	1	1	1	1	1	1	1	0	1	-47,145877	274,248273	273,598214	0
14.01.2021	22:19:25	0	0	4,632231	3,8355	91,1772	0,278	76,48	3,5	1006,9	6,8	8,8	8,6	1	1	1	1	1	1	1	1	1	0	1	-47,709655	274,19871	272,802634	0
14.01.2021	22:19:26	0	0	4,293313	3,94725	93,7476	0,272	76,48	3,5	1006,84	6,8	8,8	8,5	1	1	1	1	1	1	1	1	1	0	1	-45,947851	274,281386	274,951177	0
14.01.2021	22:19:27	0	0	3,050512	3,9525	76,3524	0,277	76,458	3,5	1006,9	6,8	8,8	8,5	1	1	1	1	1	1	1	1	1	0	1	-46,018323	274,258803	274,775032	0
14.01.2021	22:19:28	0	0	2,711566	4,065	72,2952	0,274	76,483	3,5	1006,9	6,8	8,8	8,5	1	1	1	1	1	1	1	1	1	0	1	-46,159267	274,219721	274,451274	0
14.01.2021	22:19:29	0	0	3,615421	4,13325	88,5924	0,265	76,468	3,5	1006,88	6,8	8,8	8,5	1	1	1	1	1	1	1	1	1	0	1	-47,427766	274,267833	273,40784	0
14.01.2021	22:19:30	0	0	3,615421	4,383	88,938	0,273	76,477	3,5	1006,88	6,8	8,8	8,5	1	1	1	1	1	1	1	1	1	0	1	-43,269908	274,111906	276,836711	0
14.01.2021	22:19:31	0	0	3,163494	4,86075	85,1832	0,275	76,463	3,5	1006,94	6,8	8,8	8,5	1	1	1	1	1	1	1	1	1	0	1	-47,56871	274,264822	273,252809	0
14.01.2021	22:19:32	0	0	5,084186	4,57575	77,562	0,269	76,452	3,5	1006,72	6,8	8,8	8,5	1	1	1	1	1	1	1	1	1	0	1	-46,793517	274,260308	274,006878	0
14.01.2021	22:19:33	0	0	4,858223	4,31925	77,184	0,271	76,454	3,5	1006,96	6,8	8,8	8,5	1	1	1	1	1	1	1	1	1	0	1	-50,317125	274,186713	270,139078	0
14.01.2021	22:19:34	0	0	4,293313	4,36575	77,7204	0,272	76,438	3,5	1006,96	6,8	8,8	8,5	1	1	1	1	1	1	1	1	1	0	1	-47,145877	274,290427	273,795462	0
14.01.2021	22:19:35	0	0	2,711566	4,34175	72,6948	0,272	76,458	3,5	1006,86	6,8	8,8	8,5	1	1	1	1	1	1	1	1	1	0	1	-47,921071	274,291934	273,027322	0
14.01.2021	22:19:36	0	0	2,93753	4,158	74,8908	0,272	76,446	3,5	1006,9	6,8	8,8	8,5	1	1	1	1	1	1	1	1	1	0	1	-40,591966	274,266328	280,236596	0
14.01.2021	22:19:37	0	0	5,197168	4,11075	78,6492	0,27	76,457	3,5	1006,9	6,8	8,8	8,5	1	1	1	1	1	1	1	1	1	0	1	-45,59549	274,284399	275,317639	0
14.01.2021	22:19:38	0	0	4,406295	4,17675	81,6192	0,273	76,448	3,5	1006,78	6,8	8,8	8,5	1	1	1	1	1	1	1	1	1	0	1	-44,538407	274,159749	275,791756	0
14.01.2021	22:19:39	0	0	2,824548	4,19175	81,5832	0,267	76,461	3,5	1006,84	6,8	8,8	8,5	1	1	1	1	1	1	1	1	1	0	1	-44,679352	274,110413	275,420293	0
14.01.2021	22:19:40	0	0	4,971205	3,92925	68,3856	0,266	76,452	3,5	1006,84	6,8	8,8	8,5	1	1	1	1	1	1	1	1	1	0	1	-48,555321	274,242259	272,160635	0
14.01.2021	22:19:41	0	0	3,728403	3,48975	79,758	0,267	76,458	3,5	1006,84	6,8	8,8	8,5	1	1	1	1	1	1	1	1	1	0	1	-43,692741	274,189712	276,777479	0
14.01.2021	22:19:42	0	0	4,632259	3,339	78,6636	0,264	76,473	3,5	1006,98	6,8	8,8	8,5	1	1	1	1	1	1	1	1	1	0	1	-44,045102	274,105934	276,033622	0
14.01.2021	22:19:43	0	0	4,971205	3,33225	75,6216	0,267	76,471	3,5	1007	6,8	8,8	8,5	1	1	1	1	1	1	1	1	1	0	1	-48,978154	274,231738	271,68859	0
14.01.2021	22:19:44	0	0	2,93753	3,1815	68,7924	0,263	76,484	3,5	1007,04	6,8	8,8	8,5	1	1	1	1	1	1	1	1	1	0	1	-46,5821	274,221223	274,035464	0
14.01.2021	22:19:45	0	0	4,632259	2,9805	62,406	0,269	76,51	3,5	1006,88	6,8	8,8	8,5	1	1	1	1	1	1	1	1	1	0	1	-42,283298	274,091012	277,725732	0
14.01.2021	22:19:46	0	0	4,067349	3,11775	78,2928	0,27	76,521	3,5	1007	6,8	8,8	8,5	1	1	1	1	1	1	1	1	1	0	1	-47,639183	274,213715	272,943273	0
14.01.2021	22:19:47	0	0	3,276476	3,20625	68,7888	0,26	76,541	3,5	1006,78	6,8	8,8	8,5	1	1	1	1	1	1	1	1	1	0	1	-43,833686	274,101456	276,224123	0
14.01.2021	22:19:48	0	0	3,050512	3,27525	69,4476	0,264	76,573	3,5	1006,84	6,8	8,8	8,5	1	1	1	1	1	1	1	1	1	0	1	-49,330514	274,131328	270,866839	0
14.01.2021	22:19:49	0	0	4,971205	3,2145	69,174	0,273	76,592	3,5	1006,8	6,8	8,8	8,5	1	1	1	1	1	1	1	1	1	0	1	-48,696265	274,207712	271,858116	0
14.01.2021	22:19:50	0	0	3,50244	2,93925	51,4512	0,271	76,61	3,5	1006,78	6,8	8,8	8,5	1	1	1	1	1	1	1	1	1	0	1	-48,343904	274,269338	272,498746	0
14.01.2021	22:19:51	0	0	2,598584	2,724	74,9124	0,267	76,62	3,5	1006,96	6,8	8,8	8,5	1	1	1	1	1	1	1	1	1	0	1	-47,709655	274,132823	272,494683	0
14.01.2021	22:19:52	0	0	3,50244	2,63625	68,076	0,273	76,632	3,5	1006,92	6,8	8,8	8,5	1	1	1	1	1	1	1	1	1	0	1	-43,199436	274,218219	277,404083	0
14.01.2021	22:19:53	0	0	4,067349	2,475	72,6876	0,265	76,632	3,5	1006,76	6,8	8,8	8,5	1	1	1	1	1	1	1	1	1	0	1	-47,709655	274,282893	273,196423	0
14.01.2021	22:19:54	0	0	2,711566	2,37225	68,4072	0,272	76,635	3,5	1006,78	6,8	8,8	8,5	1	1	1	1	1	1	1	1	1	0	1	-49,82382	274,215217	270,765657	0
14.01.2021	22:19:55	0	0	3,50244	2,388	69,1596	0,268	76,617	3,5	1007,08	6,8	8,8	8,5	1	1	1	1	1	1	1	1	1	0	1	-47,286822	274,269338	273,555828	0
14.01.2021	22:19:56	0	0	3,050494	2,5815	50,6772	0,265	76,617	3,5	1006,9	6,8	8,8	8,6	1	1	1	1	1	1	1	1	1	0	1	-49,400987	274,158252	270,922181	0
14.01.2021	22:19:57	0	0	4,519277	2,9055	74,1708	0,269	76,621	3,5	1006,88	6,8	8,8	8,5	1	1	1	1	1	1	1	1	1	0	1	-48,273432	274,105934	271,805292	0
14.01.2021	22:19:58	0	0	3,615421	2,898	70,6176	0,269	76,61	3,5	1006,88	6,8	8,8	8,5	1	1	1	1	1	1	1	1	1	0	1	-44,608879	274,095487	275,421052	0
14.01.2021	22:19:59	0	0	4,632259	2,87475	66,5856	0,275	76,606	3,5	1006,78	6,8	8,8	8,5	1	1	1	1	1	1	1	1	1	0	1	-44,679352	274,228733	275,973337	0
14.01.2021	22:20:00	0	0	3,841385	3,135	65,8224	0,262	76,577	3,5	1006,84	6,8	8,8	8,5	1	1	1	1	1	1	1	1	1	0	1	-49,048626	274,20321	271,484706	0
14.01.2021	22:20:01	0	0	3,841385	3,135	65,8224	0,262	76,577	3,5	1006,84	6,8	8,8	8,5	1	1	1	1	1	1	1	1	1	0	1	-49,048626	274,20321	271,484706	0
14.01.2021	22:20:02	0	0	4,406268	3,1185	87,354	0,269	76,568	3,5	1006,96	6,8	8,8	8,6	1	1	1	1	1	1	1	1	1	0	1	-43,763214	274,114893	276,357358	0
14.01.2021	22:20:03	0	0	5,084186	3,57825	96,2172	0,269	76,549	3,5	1006,92	6,8	8,8	8,5	1	1	1	1	1	1	1	1	1	0	1	-43,97463	274,248273	276,769461	0
14.01.2021	22:20:04	0	0	3,163494	4,1895	86,3712	0,269	76,547	3,5	1006,94	6,8	8,8	8,5	1	1	1	1	1	1	1	1	1	0	1	-46,088795	274,092503	273,927202	0
14.01.2021	22:20:05	0	0	3,728403	4,1655	88,5744	0,269	76,543	3,5	1006,88	6,8	8,8	8,5	1	1	1	1	1	1	1	1	1	0	1	-46,441156	274,276867	274,436725	0
14.01.2021	22:20:06	0	0	3,163494	3,69075	79,4124	0,269	76,523	3,5	1006,96	6,8	8,8	8,5	1	1	1	1	1	1	1	1	1	0	1	-43,833686	274,19721	276,67159	0
14.01.2021	22:20:07	0	0	2,146656	3,261	56,286	0,27	76,524	3,5	1006,92	6,8	8,8	8,5	1	1	1	1	1	1	1	1	1	0	1	-48,484848	274,276867	272,393033	0
14.01.2021	22:20:08	0	0	4,632259	3,00075	73,7928	0,271	76,518	3,5	1006,84	6,8	8,8	8,5	1	1	1	1	1	1	1	1	1	0	1	-49,964764	274,140298	270,274504	0
14.01.2021	22:20:09	0	0	2,711566	2,86875	73,0728	0,265	76,503	3,5	1006,9	6,8	8,8	8,5	1	1	1	1	1	1	1	1	1	0	1	-50,739958	274,252785	270,025242	0
14.01.2021	22:20:10	0	0	4,51925	2,68125	73,0728	0,268	76,51	3,5	1006,96	6,8	8,8	8,6	1	1	1	1	1	1	1	1	1	0	1	-46,793517	274,258803	273,999838	0
14.01.2021	22:20:11	0	0	5,31015	2,478	76,0716	0,27	76,489	3,5	1006,9	6,8	8,8	8,5	1	1	1	1	1	1	1	1	1	0	1	-46,441156	274,156756	273,875017	0
14.01.2021	22:20:12	0	0	4,519277	2,325	77,2056	0,271	76,487	3,5	1006,88	6,8	8,8	8,5	1	1	1	1	1	1	1	1	1	0	1	-42,142354	274,276867	278,735527	0
14.01.2021	22:20:13	0	0	3,954367	2,42325	77,2092	0,263	76,5	3,5	1006,92	6,8	8,8	8,5	1	1	1	1	1	1	1	1	1	0	1	-49,753347	274,239252	270,948544	0
14.01.2021	22:20:14	0	0	4,406295	2,571	76,0068	0,266	76,536	3,5	1006,84	6,8	8,8	8,5	1	1	1	1	1	1	1	1	1	0	1	-47,145877	274,212214	273,429559	0
14.01.2021	22:20:15	0	0	4,406295	2,61825	77,22	0,273	76,49	3,5	1006,92	6,8	8,8	8,5	1	1	1	1	1	1	1	1	1	0	1	-43,410853	274,104441	276,660899	0
14.01.2021	22:20:16	0	0	3,954367	2,649	75,9888	0,262	76,463	3,5	1006,82	6,8	8,8	8,5	1	1	1	1	1	1	1	1	1	0	1	-49,119098	274,135813	271,09921	0
14.01.2021	22:20:17	0	0	3,50244	2,5725	90,7812	0,27	76,489	3,5	1006,6	6,8	8,8	8,5	1	1	1	1	1	1	1	1	1	0	1	-41,36716	274,254289	279,405078	0
14.01.2021	22:20:18	0	0	2,71155	2,7135	98,082	0,269	76,486	3,5	1006,78	6,8	8,8	8,6	1	1	1	1	1	1	1	1	1	0	1	-50,528541	274,276867	270,34934	0
14.01.2021	22:20:19	0	0	4,632259	2,79675	75,6036	0,267	76,478	3,5	1006,94	6,8	8,8	8,5	1	1	1	1	1	1	1	1	1	0	1	-49,964764	274,159749	270,3654	0
14.01.2021	22:20:20	0	0	3,841385	2,79675	69,4872	0,263	76,469	3,5	1006,76	6,8	8,8	8,5	1	1	1	1	1	1	1	1	1	0	1	-45,384073	274,276867	275,493808	0
14.01.2021	22:20:21	0	0	2,711566	2,6835	77,9976	0,261	76,476	3,5	1006,9	6,8	8,8	8,5	1	1	1	1	1	1	1	1	1	0	1	-45,525018	274,20171	275,001299	0
14.01.2021	22:20:22	0	0	3,163494	2,7465	75,3264	0,263	76,485	3,5	1006,84	6,8	8,8	8,5	1	1	1	1	1	1	1	1	1	0	1	-47,498238	274,264822	273,323281	0
14.01.2021	22:20:23	0	0	4,293313	2,652	64,6236	0,263	76,494	3,5	1006,96	6,8	8,8	8,5	1	1	1	1	1	1	1	1	1	0	1	-49,119098	274,245266	271,610924	0
14.01.2021	22:20:24	0	0	4,745241	2,7135	72,2952	0,266	76,488	3,5	1007,06	6,8	8,8	8,5	1	1	1	1	1	1	1	1	1	0	1	-47,56871	274,210713	272,999707	0
14.01.2021	22:20:25	0	0	2,93753	2,7045	81,99	0,267	76,494	3,5	1006,8	6,8	8,8	8,5	1	1	1	1	1	1	1	1	1	0	1	-44,890768	274,080573	275,069515	0
14.01.2021	22:20:26	0	0	4,971205	2,5305	71,298	0,265	76,491	3,5	1006,78	6,8	8,8	8,5	1	1	1	1	1	1	1	1	1	0	1	-46,723044	274,188213	273,740167	0
14.01.2021	22:20:27	0	0	2,824548	2,5275	77,9616	0,268	76,51	3,5	1006,84	6,8	8,8	8,5	1	1	1	1	1	1	1	1	1	0	1	-46,088795	274,101456	273,969014	0
14.01.2021	22:20:28	0	0	4,406295	2,68575	80,8704	0,266	76,493	3,5	1006,74	6,8	8,8	8,5	1	1	1	1	1	1	1	1	1	0	1	-50,458069	274,189712	270,012151	0
14.01.2021	22:20:29	0	0	2,598584	2,75175	64,6272	0,269	76,516	3,5	1007,02	6,8	8,8	8,5	1	1	1	1	1	1	1	1	1	0	1	-47,850599	274,261812	272,956837	0
14.01.2021	22:20:30	0	0	3,728403	2,57625	94,3776	0,259	76,518	3,5	1006,92	6,8	8,8	8,5	1	1	1	1	1	1	1	1	1	0	1	-48,837209	274,270844	272,012486	0
14.01.2021	22:20:31	0	0	3,615421	2,54175	73,422	0,266	76,504	3,5	1006,92	6,8	8,8	8,5	1	1	1	1	1	1	1	1	1	0	1	-50,387597	274,212214	270,187839	0
14.01.2021	22:20:32	0	0	4,971205	2,64675	80,9172	0,264	76,52	3,5	1006,76	6,8	8,8	8,5	1	1	1	1	1	1	1	1	1	0	1	-51,233263	274,254289	269,538975	0
14.01.2021	22:20:33	0	0	3,841385	2,763	69,9516	0,266	76,51	3,5	1006,88	6,8	8,8	8,5	1	1	1	1	1	1	1	1	1	0	1	-43,97463	274,158252	276,348538	0
14.01.2021	22:20:34	0	0	3,841385	2,83575	73,7928	0,256	76,527	3,5	1006,94	6,8	8,8	8,5	1	1	1	1	1	1	1	1	1	0	1	-48,132488	274,249777	272,618639	0
14.01.2021	22:20:35	0	0	3,615421	2,75475	77,5836	0,259	76,525	3,5	1006,92	6,8	8,7	8,5	1	1	1	1	1	1	1	1	1	0	1	-42,635659	274,126844	277,540746	0
14.01.2021	22:20:36	0	0	2,485602	2,71425	70,2288	0,255	76,536	3,5	1007,04	6,8	8,8	8,5	1	1	1	1	1	1	1	1	1	0	1	-53,488372	274,140298	266,750896	0
14.01.2021	22:20:37	0	0	4,519277	2,80125	80,1252	0,261	76,527	3,5	1006,9	6,8	8,7	8,5	1	1	1	1	1	1	1	1	1	0	1	-46,793517	274,095487	273,236415	0
14.01.2021	22:20:38	0	0	4,971205	2,86275	69,8436	0,261	76,529	3,5	1006,96	6,8	8,8	8,5	1	1	1	1	1	1	1	1	1	0	1	-44,186047	274,20021	276,333256	0
14.01.2021	22:20:39	0	0	2,598584	2,92125	61,6968	0,258	76,52	3,5	1006,96	6,8	8,8	8,5	1	1	1	1	1	1	1	1	1	0	1	-45,102185	274,276867	275,775697	0
14.01.2021	22:20:40	0	0	3,050512	3,06975	69,4836	0,26	76,547	3,5	1006,98	6,8	8,8	8,5	1	1	1	1	1	1	1	1	1	0	1	-49,964764	274,123856	270,197679	0
14.01.2021	22:20:41	0	0	2,598584	3,04575	63,1728	0,266	76,55	3,5	1007	6,8	8,8	8,5	1	1	1	1	1	1	1	1	1	0	1	-45,243129	274,225728	275,395508	0
14.01.2021	22:20:42	0	0	4,745241	3,072	70,6104	0,26	76,552	3,5	1007,02	6,8	8,8	8,5	1	1	1	1	1	1	1	1	1	0	1	-47,21635	274,278374	273,66858	0
14.01.2021	22:20:43	0	0	2,485602	3,0345	60,534	0,261	76,552	3,5	1006,9	6,8	8,8	8,5	1	1	1	1	1	1	1	1	1	0	1	-43,269908	274,209212	277,29149	0
14.01.2021	22:20:44	0	0	4,971205	2,853	78,2892	0,264	76,552	3,5	1006,78	6,8	8,8	8,5	1	1	1	1	1	1	1	1	1	0	1	-48,273432	274,260308	272,526963	0
14.01.2021	22:20:45	0	0	2,711566	2,60025	73,7964	0,262	76,564	3,5	1007,06	6,8	8,8	8,5	1	1	1	1	1	1	1	1	1	0	1	-47,075405	274,128339	273,107982	0
14.01.2021	22:20:46	0	0	5,084186	2,3385	70,5924	0,263	76,554	3,5	1006,92	6,8	8,8	8,5	1	1	1	1	1	1	1	1	1	0	1	-51,233263	274,153762	269,068921	0
14.01.2021	22:20:47	0	0	3,615421	2,14575	70,6212	0,265	76,554	3,5	1006,94	6,8	8,8	8,5	1	1	1	1	1	1	1	1	1	0	1	-49,471459	274,263317	271,343018	0
14.01.2021	22:20:48	0	0	2,824531	2,25225	80,8812	0,262	76,552	3,5	1006,94	6,8	8,8	8,6	1	1	1	1	1	1	1	1	1	0	1	-45,384073	274,104441	274,687678	0
14.01.2021	22:20:49	0	0	4,406295	2,2725	71,6112	0,26	76,539	3,5	1006,88	6,8	8,8	8,5	1	1	1	1	1	1	1	1	1	0	1	-50,528541	274,215217	270,060935	0
14.01.2021	22:20:50	0	0	3,050512	2,27475	37,6956	0,265	76,55	3,5	1006,98	6,8	8,8	8,5	1	1	1	1	1	1	1	1	1	0	1	-48,132488	274,213715	272,449968	0
14.01.2021	22:20:51	0	0	3,050494	2,17725	64,2456	0,262	76,546	3,5	1006,88	6,8	8,8	8,6	1	1	1	1	1	1	1	1	1	0	1	-47,639183	274,254289	273,133055	0
14.01.2021	22:20:52	0	0	4,632259	2,18175	63,1764	0,26	76,534	3,5	1006,8	6,8	8,8	8,5	1	1	1	1	1	1	1	1	1	0	1	-51,021846	274,098471	269,022022	0
14.01.2021	22:20:53	0	0	4,519277	2,16075	58,1148	0,259	76,55	3,5	1006,88	6,8	8,8	8,5	1	1	1	1	1	1	1	1	1	0	1	-45,384073	274,191211	275,093157	0
14.01.2021	22:20:54	0	0	4,519277	2,12325	50,688	0,257	76,543	3,5	1006,92	6,8	8,8	8,5	1	1	1	1	1	1	1	1	1	0	1	-44,608879	274,086537	275,379255	0
14.01.2021	22:20:55	0	0	4,971205	2,1615	65,1888	0,277	76,558	3,5	1006,88	6,8	8,8	8,5	1	1	1	1	1	1	1	1	1	0	1	-48,766737	274,222724	271,857851	0
14.01.2021	22:20:56	0	0	3,050512	2,1735	62,4132	0,26	76,558	3,5	1007,06	6,8	8,8	8,5	1	1	1	1	1	1	1	1	1	0	1	-46,5821	274,092503	273,433896	0
14.01.2021	22:20:57	0	0	3,389458	2,2935	67,2768	0,257	76,536	3,5	1006,96	6,8	8,8	8,5	1	1	1	1	1	1	1	1	1	0	1	-47,56871	274,19421	272,922541	0
14.01.2021	22:20:58	0	0	3,163494	2,637	44,0424	0,256	76,54	3,5	1006,82	6,8	8,8	8,5	1	1	1	1	1	1	1	1	1	0	1	-44,467935	274,264822	276,353584	0
14.01.2021	22:20:59	0	0	3,276476	2,907	50,6844	0,259	76,551	3,5	1006,64	6,8	8,8	8,5	1	1	1	1	1	1	1	1	1	0	1	-48,625793	274,228733	272,026896	0
14.01.2021	22:21:00	0	0	2,711566	3,54675	70,5852	0,257	76,535	3,5	1006,92	6,8	8,7	8,5	1	1	1	1	1	1	1	1	1	0	1	-45,806906	274,174725	274,593253	0
14.01.2021	22:21:01	0	0	2,711566	3,54675	70,5852	0,257	76,535	3,5	1006,92	6,8	8,7	8,5	1	1	1	1	1	1	1	1	1	0	1	-45,806906	274,174725	274,593253	0
14.01.2021	22:21:02	0	0	3,050512	3,58425	60,9264	0,255	76,547	3,5	1006,9	6,8	8,8	8,5	1	1	1	1	1	1	1	1	1	0	1	-43,692741	274,074611	276,239701	0
14.01.2021	22:21:03	0	0	4,632259	3,74775	66,924	0,25	76,544	3,5	1006,72	6,8	8,8	8,5	1	1	1	1	1	1	1	1	1	0	1	-49,894292	274,120867	270,254191	0
14.01.2021	22:21:04	0	0	4,067349	3,7995	67,2804	0,249	76,539	3,5	1006,84	6,8	8,7	8,5	1	1	1	1	1	1	1	1	1	0	1	-48,766737	274,105934	271,311987	0
14.01.2021	22:21:05	0	0	3,050494	3,75975	68,0256	0,252	76,543	3,5	1006,96	6,8	8,8	8,6	1	1	1	1	1	1	1	1	1	0	1	-44,186047	274,101456	275,871762	0
14.01.2021	22:21:06	0	0	3,50244	3,5985	79,8588	0,258	76,528	3,5	1006,9	6,8	8,8	8,5	1	1	1	1	1	1	1	1	1	0	1	-49,119098	274,123856	271,043345	0
14.01.2021	22:21:07	0	0	3,50244	3,465	60,5556	0,26	76,529	3,5	1006,98	6,8	8,8	8,5	1	1	1	1	1	1	1	1	1	0	1	-42,565187	274,245266	278,164835	0
14.01.2021	22:21:08	0	0	4,519277	3,363	84,4272	0,259	76,517	3,5	1007,06	6,8	8,8	8,5	1	1	1	1	1	1	1	1	1	0	1	-46,088795	274,20171	274,437522	0
14.01.2021	22:21:09	0	0	4,180331	3,3495	74,1636	0,258	76,516	3,5	1006,98	6,8	8,8	8,5	1	1	1	1	1	1	1	1	1	0	1	-43,128964	274,095487	276,900967	0
14.01.2021	22:21:10	0	0	3,163494	3,4875	77,958	0,249	76,494	3,5	1006,88	6,8	8,8	8,5	1	1	1	1	1	1	1	1	1	0	1	-51,585624	274,231738	269,08112	0
14.01.2021	22:21:11	0	0	3,163475	3,4635	97,7292	0,253	76,506	3,5	1006,94	6,8	8,8	8,6	1	1	1	1	1	1	1	1	1	0	1	-48,343904	274,191211	272,133326	0
14.01.2021	22:21:12	0	0	2,598584	3,0915	101,1132	0,258	76,474	3,5	1006,8	6,8	8,8	8,5	1	1	1	1	1	1	1	1	1	0	1	-42,071882	274,079082	277,88144	0
14.01.2021	22:21:13	0	0	4,067349	2,76375	94,0896	0,26	76,479	3,5	1006,94	6,8	8,8	8,5	1	1	1	1	1	1	1	1	1	0	1	-41,860465	274,122361	278,294997	0
14.01.2021	22:21:14	0	0	2,824531	2,6265	96,9696	0,257	76,479	3,5	1007,04	6,8	8,8	8,6	1	1	1	1	1	1	1	1	1	0	1	-46,723044	274,076101	273,216357	0
14.01.2021	22:21:15	0	0	4,180331	2,76	84,42	0,256	76,469	3,5	1006,94	6,8	8,8	8,5	1	1	1	1	1	1	1	1	1	0	1	-47,357294	274,146281	272,90993	0
14.01.2021	22:21:16	0	0	2,372606	2,87325	94,7736	0,257	76,478	3,5	1006,96	6,8	8,8	8,6	1	1	1	1	1	1	1	1	1	0	1	-51,79704	274,240755	268,911883	0
14.01.2021	22:21:17	0	0	2,93753	2,763	70,2072	0,255	76,465	3,5	1007,02	6,8	8,8	8,5	1	1	1	1	1	1	1	1	1	0	1	-47,991543	274,077591	271,954818	0
14.01.2021	22:21:18	0	0	5,084186	2,6505	86,2956	0,256	76,473	3,5	1006,86	6,8	8,8	8,5	1	1	1	1	1	1	1	1	1	0	1	-44,467935	274,19421	276,023317	0
14.01.2021	22:21:19	0	0	4,745241	2,64225	84,4236	0,253	76,475	3,5	1007,04	6,8	8,8	8,5	1	1	1	1	1	1	1	1	1	0	1	-49,400987	274,248273	271,343105	0
14.01.2021	22:21:20	0	0	4,406295	2,685	109,9836	0,251	76,467	3,5	1006,96	6,8	8,8	8,5	1	1	1	1	1	1	1	1	1	0	1	-46,088795	274,131328	274,108558	0
14.01.2021	22:21:21	0	0	4,745241	2,72925	93,348	0,253	76,474	3,5	1006,98	6,8	8,8	8,5	1	1	1	1	1	1	1	1	1	0	1	-46,441156	274,07014	273,470413	0
14.01.2021	22:21:22	0	0	2,485602	3,00975	82,998	0,252	76,477	3,5	1006,92	6,8	8,8	8,5	1	1	1	1	1	1	1	1	1	0	1	-46,5821	274,252785	274,1831	0
14.01.2021	22:21:23	0	0	3,502419	3,09975	82,98	0,25	76,467	3,5	1006,84	6,8	8,8	8,6	1	1	1	1	1	1	1	1	1	0	1	-47,004933	274,234743	273,675868	0
14.01.2021	22:21:24	0	0	3,050512	3,1365	77,5872	0,25	76,47	3,5	1006,88	6,8	8,8	8,5	1	1	1	1	1	1	1	1	1	0	1	-51,233263	274,091012	268,775767	0
14.01.2021	22:21:25	0	0	5,197168	3,4935	83,3544	0,252	76,458	3,5	1006,8	6,8	8,7	8,5	1	1	1	1	1	1	1	1	1	0	1	-53,981677	274,138803	266,250603	0
14.01.2021	22:21:26	0	0	4,067325	3,906	69,1488	0,256	76,496	3,5	1006,96	6,8	8,8	8,6	1	1	1	1	1	1	1	1	1	0	1	-42,776603	274,23324	277,897169	0
14.01.2021	22:21:27	0	0	2,485602	4,29375	60,9372	0,249	76,49	3,5	1006,92	6,8	8,8	8,5	1	1	1	1	1	1	1	1	1	0	1	-47,780127	274,138803	272,452154	0
14.01.2021	22:21:28	0	0	3,615421	4,515	62,028	0,253	76,525	3,5	1006,96	6,8	8,7	8,5	1	1	1	1	1	1	1	1	1	0	1	-48,20296	274,242259	272,512996	0
14.01.2021	22:21:29	0	0	4,632259	4,491	81,954	0,249	76,537	3,5	1006,94	6,8	8,8	8,5	1	1	1	1	1	1	1	1	1	0	1	-46,229739	274,093995	273,793224	0
14.01.2021	22:21:30	0	0	4,406268	4,23525	75,6036	0,254	76,543	3,5	1006,92	6,7	8,8	8,6	1	1	1	1	1	1	1	1	1	0	1	-43,692741	274,06567	276,197959	0
14.01.2021	22:21:31	0	0	2,598584	3,89325	71,982	0,248	76,58	3,5	1006,92	6,8	8,8	8,5	1	1	1	1	1	1	1	1	1	0	1	-44,115574	274,102948	275,949206	0
14.01.2021	22:21:32	0	0	3,50244	3,4695	58,8708	0,255	76,582	3,5	1006,94	6,8	8,8	8,5	1	1	1	1	1	1	1	1	1	0	1	-46,159267	274,218219	274,444252	0
14.01.2021	22:21:33	0	0	2,598584	3,37725	61,3044	0,251	76,599	3,5	1006,98	6,7	8,8	8,5	1	1	1	1	1	1	1	1	1	0	1	-50,246653	274,23324	270,427119	0
14.01.2021	22:21:34	0	0	3,954367	3,52725	46,5948	0,252	76,599	3,5	1006,94	6,8	8,8	8,5	1	1	1	1	1	1	1	1	1	0	1	-45,736434	274,134318	274,474888	0
14.01.2021	22:21:35	0	0	4,067325	3,6675	55,1772	0,254	76,618	3,5	1006,88	6,8	8,8	8,6	1	1	1	1	1	1	1	1	1	0	1	-49,612403	274,248273	271,131688	0
14.01.2021	22:21:36	0	0	2,37262	3,6075	62,7876	0,251	76,629	3,5	1007	6,8	8,8	8,5	1	1	1	1	1	1	1	1	1	0	1	-48,484848	274,07163	271,433677	0
14.01.2021	22:21:37	0	0	4,858223	3,31875	52,4988	0,249	76,636	3,5	1006,86	6,8	8,8	8,5	1	1	1	1	1	1	1	1	1	0	1	-47,850599	274,224226	272,781013	0
14.01.2021	22:21:38	0	0	4,632231	2,94975	75,2544	0,249	76,636	3,5	1006,76	6,7	8,8	8,6	1	1	1	1	1	1	1	1	1	0	1	-49,541931	274,129833	270,648439	0
14.01.2021	22:21:39	0	0	2,93753	2,78025	70,3188	0,245	76,623	3,5	1006,92	6,8	8,8	8,5	1	1	1	1	1	1	1	1	1	0	1	-41,296688	274,07014	278,614881	0
14.01.2021	22:21:40	0	0	3,050512	2,97	72,6588	0,246	76,617	3,5	1006,9	6,8	8,8	8,5	1	1	1	1	1	1	1	1	1	0	1	-46,018323	274,102948	274,046457	0
14.01.2021	22:21:41	0	0	4,519277	3,3135	84,0492	0,245	76,619	3,5	1006,9	6,8	8,8	8,5	1	1	1	1	1	1	1	1	1	0	1	-47,56871	274,248273	273,175381	0
14.01.2021	22:21:42	0	0	4,067349	3,495	70,8372	0,251	76,605	3,5	1006,98	6,8	8,7	8,5	1	1	1	1	1	1	1	1	1	0	1	-47,004933	274,218219	273,598586	0
14.01.2021	22:21:43	0	0	3,728403	3,4305	73,7532	0,249	76,589	3,5	1006,84	6,8	8,8	8,5	1	1	1	1	1	1	1	1	1	0	1	-45,525018	274,176223	274,882145	0
14.01.2021	22:21:44	0	0	3,163494	3,477	64,6056	0,25	76,594	3,5	1006,94	6,8	8,8	8,5	1	1	1	1	1	1	1	1	1	0	1	-52,149401	274,080573	267,810882	0
14.01.2021	22:21:45	0	0	3,389437	3,78825	52,8876	0,247	76,573	3,5	1006,8	6,8	8,8	8,6	1	1	1	1	1	1	1	1	1	0	1	-46,793517	274,168733	273,578636	0
14.01.2021	22:21:46	0	0	4,51925	3,8655	68,4036	0,253	76,582	3,5	1007	6,8	8,8	8,6	1	1	1	1	1	1	1	1	1	0	1	-46,088795	274,07014	273,822774	0
14.01.2021	22:21:47	0	0	4,406268	4,28025	67,6764	0,249	76,572	3,5	1007	6,8	8,8	8,6	1	1	1	1	1	1	1	1	1	0	1	-47,56871	274,191211	272,90852	0
14.01.2021	22:21:48	0	0	4,632259	4,164	82,3644	0,245	76,554	3,5	1006,88	6,8	8,8	8,5	1	1	1	1	1	1	1	1	1	0	1	-47,075405	274,228733	273,577284	0
14.01.2021	22:21:49	0	0	4,745241	3,96975	91,2708	0,246	76,581	3,5	1006,98	6,8	8,8	8,5	1	1	1	1	1	1	1	1	1	0	1	-47,427766	274,264822	273,393753	0
14.01.2021	22:21:50	0	0	3,6154	3,66075	104,2164	0,252	76,59	3,5	1006,96	6,8	8,8	8,6	1	1	1	1	1	1	1	1	1	0	1	-45,736434	274,129833	274,453936	0
14.01.2021	22:21:51	0	0	4,745241	3,34425	90,0396	0,247	76,573	3,5	1006,9	6,8	8,8	8,5	1	1	1	1	1	1	1	1	1	0	1	-47,991543	274,249777	272,759584	0
14.01.2021	22:21:52	0	0	5,31015	3,16125	64,2564	0,244	76,574	3,5	1006,82	6,8	8,8	8,5	1	1	1	1	1	1	1	1	1	0	1	-48,766737	274,149273	271,514469	0
14.01.2021	22:21:53	0	0	3,615421	3,80325	66,5388	0,248	76,598	3,5	1006,9	6,8	8,7	8,5	1	1	1	1	1	1	1	1	1	0	1	-42,494715	274,246769	278,242342	0
14.01.2021	22:21:54	0	0	3,163494	4,1085	73,0548	0,248	76,586	3,5	1007	6,8	8,8	8,5	1	1	1	1	1	1	1	1	1	0	1	-43,269908	274,095487	276,760023	0
14.01.2021	22:21:55	0	0	4,406268	4,452	74,5524	0,246	76,59	3,5	1007,14	6,8	8,8	8,6	1	1	1	1	1	1	1	1	1	0	1	-47,56871	274,116386	272,558838	0
14.01.2021	22:21:56	0	0	3,954367	4,41075	50,6844	0,25	76,589	3,5	1007,02	6,8	8,8	8,5	1	1	1	1	1	1	1	1	1	0	1	-49,260042	274,242259	271,455913	0
14.01.2021	22:21:57	0	0	3,163475	4,137	77,3316	0,241	76,576	3,5	1006,82	6,8	8,7	8,6	1	1	1	1	1	1	1	1	1	0	1	-42,847075	274,17922	277,574095	0
14.01.2021	22:21:58	0	0	4,51925	3,60525	99,5184	0,241	76,577	3,5	1006,86	6,8	8,8	8,6	1	1	1	1	1	1	1	1	1	0	1	-44,820296	274,088029	275,174803	0
14.01.2021	22:21:59	0	0	4,971205	2,96325	95,5404	0,24	76,579	3,5	1006,9	6,8	8,8	8,5	1	1	1	1	1	1	1	1	1	0	1	-47,56871	274,228733	273,083979	0
14.01.2021	22:22:00	0	0	3,841385	2,91675	75,6036	0,245	76,587	3,5	1006,94	6,8	8,8	8,5	1	1	1	1	1	1	1	1	1	0	1	-50,246653	274,216718	270,349845	0
14.01.2021	22:22:01	0	0	3,841385	2,91675	75,6036	0,245	76,587	3,5	1006,94	6,8	8,8	8,5	1	1	1	1	1	1	1	1	1	0	1	-50,246653	274,216718	270,349845	0
14.01.2021	22:22:02	0	0	5,084156	2,93925	68,7744	0,246	76,608	3,5	1006,84	6,8	8,8	8,6	1	1	1	1	1	1	1	1	1	0	1	-49,330514	274,114893	270,790057	0
14.01.2021	22:22:03	0	0	4,51925	3,135	80,136	0,245	76,616	3,5	1006,88	6,8	8,8	8,6	1	1	1	1	1	1	1	1	1	0	1	-43,410853	274,252785	277,354347	0
14.01.2021	22:22:04	0	0	3,954367	2,8965	81,6804	0,24	76,595	3,5	1006,72	6,8	8,7	8,5	1	1	1	1	1	1	1	1	1	0	1	-44,96124	274,111906	275,145379	0
14.01.2021	22:22:05	0	0	4,745212	2,64075	69,4692	0,242	76,621	3,5	1006,94	6,8	8,8	8,6	1	1	1	1	1	1	1	1	1	0	1	-48,132488	274,129833	272,057882	0
14.01.2021	22:22:06	0	0	4,858193	2,517	69,84	0,243	76,621	3,5	1006,98	6,8	8,8	8,6	1	1	1	1	1	1	1	1	1	0	1	-48,555321	274,257298	272,230994	0
14.01.2021	22:22:07	0	0	3,050494	2,3775	45,1548	0,243	76,631	3,5	1006,82	6,8	8,8	8,6	1	1	1	1	1	1	1	1	1	0	1	-44,608879	274,15077	275,679318	0
14.01.2021	22:22:08	0	0	4,632231	2,3475	62,4096	0,244	76,648	3,5	1006,96	6,8	8,7	8,6	1	1	1	1	1	1	1	1	1	0	1	-45,877378	274,209212	274,68402	0
14.01.2021	22:22:09	0	0	2,93753	2,26875	70,8732	0,247	76,678	3,5	1006,94	6,8	8,7	8,5	1	1	1	1	1	1	1	1	1	0	1	-46,863989	274,07163	273,054537	0
14.01.2021	22:22:10	0	0	5,310118	2,39175	81,6012	0,246	76,643	3,5	1007,08	6,8	8,7	8,6	1	1	1	1	1	1	1	1	1	0	1	-47,427766	274,132823	272,776571	0
14.01.2021	22:22:11	0	0	4,632231	2,334	95,5296	0,24	76,649	3,5	1006,78	6,8	8,7	8,6	1	1	1	1	1	1	1	1	1	0	1	-45,243129	274,234743	275,437672	0
14.01.2021	22:22:12	0	0	3,389437	2,07525	85,1832	0,241	76,638	3,5	1006,9	6,7	8,7	8,6	1	1	1	1	1	1	1	1	1	0	1	-46,370684	274,122361	273,784779	0
14.01.2021	22:22:13	0	0	3,841362	2,0655	77,22	0,242	76,644	3,5	1006,74	6,8	8,7	8,6	1	1	1	1	1	1	1	1	1	0	1	-47,004933	274,216718	273,591564	0
14.01.2021	22:22:14	0	0	3,502419	1,938	74,556	0,237	76,644	3,5	1006,88	6,8	8,7	8,6	1	1	1	1	1	1	1	1	1	0	1	-45,736434	274,245266	274,993588	0
14.01.2021	22:22:15	0	0	3,163494	1,89825	79,8408	0,24	76,64	3,5	1006,94	6,8	8,7	8,5	1	1	1	1	1	1	1	1	1	0	1	-48,273432	274,20321	272,2599	0
14.01.2021	22:22:16	0	0	4,406268	1,893	101,4948	0,244	76,649	3,5	1006,76	6,8	8,7	8,6	1	1	1	1	1	1	1	1	1	0	1	-47,498238	274,249777	273,252889	0
14.01.2021	22:22:17	0	0	4,745212	1,9725	84,8124	0,244	76,655	3,5	1007,02	6,8	8,8	8,6	1	1	1	1	1	1	1	1	1	0	1	-46,511628	274,207712	274,042753	0
14.01.2021	22:22:18	0	0	4,180306	2,18475	85,1508	0,243	76,656	3,5	1006,94	6,8	8,7	8,6	1	1	1	1	1	1	1	1	1	0	1	-44,186047	274,138803	276,046234	0
14.01.2021	22:22:19	0	0	2,937512	2,3565	83,8224	0,234	76,63	3,5	1006,78	6,8	8,8	8,6	1	1	1	1	1	1	1	1	1	0	1	-47,21635	274,245266	273,513673	0
14.01.2021	22:22:20	0	0	2,937512	2,331	72,6876	0,242	76,62	3,5	1006,9	6,8	8,8	8,6	1	1	1	1	1	1	1	1	1	0	1	-46,793517	274,050779	273,027666	0
14.01.2021	22:22:21	0	0	2,824531	2,18475	80,9208	0,236	76,622	3,5	1006,9	6,8	8,8	8,6	1	1	1	1	1	1	1	1	1	0	1	-45,877378	274,230235	274,782338	0
14.01.2021	22:22:22	0	0	2,824531	2,24025	71,5968	0,244	76,633	3,5	1006,98	6,8	8,8	8,6	1	1	1	1	1	1	1	1	1	0	1	-45,384073	274,086537	274,604061	0
14.01.2021	22:22:23	0	0	2,824531	2,3835	77,2092	0,242	76,635	3,5	1007,04	6,8	8,8	8,6	1	1	1	1	1	1	1	1	1	0	1	-47,709655	274,204711	272,830693	0
14.01.2021	22:22:24	0	0	4,51925	2,38725	59,868	0,239	76,624	3,5	1006,98	6,8	8,8	8,6	1	1	1	1	1	1	1	1	1	0	1	-47,145877	274,23324	273,527895	0
14.01.2021	22:22:25	0	0	2,598584	2,38725	78,3036	0,243	76,627	3,5	1007,12	6,8	8,7	8,5	1	1	1	1	1	1	1	1	1	0	1	-48,132488	274,140298	272,10678	0
14.01.2021	22:22:26	0	0	4,406268	2,3535	48,5064	0,242	76,624	3,5	1006,86	6,8	8,8	8,6	1	1	1	1	1	1	1	1	1	0	1	-41,085271	274,237749	279,609589	0
14.01.2021	22:22:27	0	0	3,954344	2,18775	93,3444	0,238	76,619	3,5	1006,74	6,8	8,7	8,6	1	1	1	1	1	1	1	1	1	0	1	-46,863989	274,096979	273,172911	0
14.01.2021	22:22:28	0	0	2,485602	2,2125	68,4036	0,235	76,627	3,5	1006,86	6,8	8,8	8,5	1	1	1	1	1	1	1	1	1	0	1	-45,877378	274,080573	274,082905	0
14.01.2021	22:22:29	0	0	3,276456	2,28825	83,34	0,237	76,631	3,5	1006,88	6,8	8,7	8,6	1	1	1	1	1	1	1	1	1	0	1	-44,679352	274,062691	275,19744	0
14.01.2021	22:22:30	0	0	2,824548	2,34	41,8572	0,244	76,642	3,5	1006,96	6,8	8,8	8,5	1	1	1	1	1	1	1	1	1	0	1	-47,709655	274,206211	272,837709	0
14.01.2021	22:22:31	0	0	5,536081	2,682	60,9336	0,234	76,641	3,5	1006,88	6,8	8,7	8,6	1	1	1	1	1	1	1	1	1	0	1	-48,625793	274,149273	271,655413	0
14.01.2021	22:22:32	0	0	2,71155	3,132	79,4016	0,238	76,649	3,5	1006,8	6,8	8,8	8,6	1	1	1	1	1	1	1	1	1	0	1	-42,847075	274,222724	277,777512	0
14.01.2021	22:22:33	0	0	3,050494	3,01275	58,5	0,235	76,65	3,5	1006,98	6,8	8,8	8,6	1	1	1	1	1	1	1	1	1	0	1	-44,538407	274,096979	275,498492	0
14.01.2021	22:22:34	0	0	4,519277	3,1455	57,0564	0,241	76,652	3,5	1007,02	6,8	8,8	8,5	1	1	1	1	1	1	1	1	1	0	1	-47,145877	274,06567	272,744823	0
14.01.2021	22:22:35	0	0	5,197168	3,27	57,4164	0,239	76,674	3,5	1006,84	6,8	8,7	8,5	1	1	1	1	1	1	1	1	1	0	1	-49,541931	274,20021	270,977372	0
14.01.2021	22:22:36	0	0	4,858223	3,22275	96,6132	0,24	76,674	3,5	1006,92	6,8	8,8	8,5	1	1	1	1	1	1	1	1	1	0	1	-48,837209	274,095487	271,192722	0
14.01.2021	22:22:37	0	0	4,971175	3,00075	56,7396	0,241	76,698	3,5	1007,06	6,8	8,7	8,6	1	1	1	1	1	1	1	1	1	0	1	-43,904158	274,058223	275,951776	0
14.01.2021	22:22:38	0	0	4,745212	3,36675	82,3284	0,24	76,71	3,5	1006,94	6,8	8,8	8,6	1	1	1	1	1	1	1	1	1	0	1	-41,789993	274,213715	278,792463	0
14.01.2021	22:22:39	0	0	2,485587	3,38625	74,1672	0,245	76,734	3,5	1006,86	6,7	8,7	8,6	1	1	1	1	1	1	1	1	1	0	1	-42,142354	274,07312	277,78313	0
14.01.2021	22:22:40	0	0	4,180306	3,06075	63,4824	0,236	76,749	3,5	1007,1	6,8	8,8	8,6	1	1	1	1	1	1	1	1	1	0	1	-49,18957	274,222724	271,435018	0
14.01.2021	22:22:41	0	0	4,858223	2,8515	53,3448	0,238	76,762	3,5	1006,92	6,8	8,8	8,5	1	1	1	1	1	1	1	1	1	0	1	-41,860465	274,131328	278,336888	0
14.01.2021	22:22:42	0	0	3,050512	2,8845	59,112	0,239	76,76	3,5	1006,88	6,8	8,8	8,5	1	1	1	1	1	1	1	1	1	0	1	-43,763214	274,230235	276,896503	0
14.01.2021	22:22:43	0	0	3,502419	3,132	68,7708	0,241	76,753	3,5	1006,9	6,8	8,8	8,6	1	1	1	1	1	1	1	1	1	0	1	-43,410853	274,20021	277,10845	0
14.01.2021	22:22:44	0	0	3,050512	3,02925	70,6176	0,247	76,795	3,5	1006,98	6,7	8,8	8,5	1	1	1	1	1	1	1	1	1	0	1	-47,427766	274,228733	273,224923	0
14.01.2021	22:22:45	0	0	3,389437	2,99625	69,4872	0,241	76,764	3,5	1006,7	6,8	8,8	8,6	1	1	1	1	1	1	1	1	1	0	1	-47,075405	274,093995	272,947558	0
14.01.2021	22:22:46	0	0	2,824531	3,114	59,1012	0,24	76,762	3,5	1006,88	6,8	8,8	8,6	1	1	1	1	1	1	1	1	1	0	1	-46,159267	274,146281	274,107957	0
14.01.2021	22:22:47	0	0	3,050494	3,15375	58,482	0,242	76,744	3,5	1006,9	6,8	8,7	8,6	1	1	1	1	1	1	1	1	1	0	1	-45,525018	274,240755	275,183906	0
14.01.2021	22:22:48	0	0	4,745241	2,97975	61,2972	0,244	76,76	3,5	1006,84	6,7	8,7	8,5	1	1	1	1	1	1	1	1	1	0	1	-46,652572	274,209212	273,908827	0
14.01.2021	22:22:49	0	0	3,6154	2,71725	49,5828	0,246	76,761	3,5	1006,94	6,7	8,8	8,6	1	1	1	1	1	1	1	1	1	0	1	-47,780127	274,17922	272,641044	0
14.01.2021	22:22:50	0	0	4,406268	2,71425	65,0808	0,248	76,758	3,5	1006,98	6,8	8,7	8,6	1	1	1	1	1	1	1	1	1	0	1	-52,360817	274,213715	268,221638	0
14.01.2021	22:22:51	0	0	4,180331	2,89275	69,1596	0,246	76,75	3,5	1006,84	6,8	8,7	8,5	1	1	1	1	1	1	1	1	1	0	1	-42,847075	274,174725	277,553084	0
14.01.2021	22:22:52	0	0	2,71155	3,351	61,6716	0,245	76,739	3,5	1007	6,8	8,7	8,6	1	1	1	1	1	1	1	1	1	0	1	-44,186047	274,062691	275,690745	0
14.01.2021	22:22:53	0	0	4,067325	3,42	71,2368	0,236	76,73	3,5	1006,84	6,8	8,8	8,6	1	1	1	1	1	1	1	1	1	0	1	-50,387597	274,206211	270,159767	0
14.01.2021	22:22:54	0	0	2,71155	3,42975	63,18	0,246	76,738	3,5	1006,92	6,8	8,7	8,6	1	1	1	1	1	1	1	1	1	0	1	-44,186047	274,177721	276,22812	0
14.01.2021	22:22:55	0	0	4,745212	3,4245	53,388	0,244	76,721	3,5	1006,8	6,8	8,7	8,6	1	1	1	1	1	1	1	1	1	0	1	-47,921071	274,06567	271,969629	0
14.01.2021	22:22:56	0	0	3,502419	3,46575	75,2292	0,248	76,743	3,5	1006,84	6,7	8,8	8,6	1	1	1	1	1	1	1	1	1	0	1	-47,145877	274,159749	273,184286	0
14.01.2021	22:22:57	0	0	4,293287	3,41475	65,0808	0,242	76,743	3,5	1007	6,8	8,7	8,6	1	1	1	1	1	1	1	1	1	0	1	-45,59549	274,20321	274,937842	0
14.01.2021	22:22:58	0	0	5,197137	3,43125	68,7816	0,253	76,744	3,5	1006,82	6,7	8,7	8,6	1	1	1	1	1	1	1	1	1	0	1	-44,890768	274,221223	275,726796	0
14.01.2021	22:22:59	0	0	3,050512	3,42525	70,2	0,246	76,747	3,5	1006,88	6,8	8,7	8,5	1	1	1	1	1	1	1	1	1	0	1	-44,820296	274,126844	275,356109	0
14.01.2021	22:23:00	0	0	4,293313	3,56925	75,6108	0,243	76,729	3,5	1006,84	6,7	8,8	8,5	1	1	1	1	1	1	1	1	1	0	1	-48,907681	274,091012	271,101349	0
14.01.2021	22:23:01	0	0	4,293313	3,56925	75,6108	0,243	76,729	3,5	1006,84	6,7	8,8	8,5	1	1	1	1	1	1	1	1	1	0	1	-48,907681	274,091012	271,101349	0
14.01.2021	22:23:02	0	0	4,51925	3,81825	81,5904	0,242	76,729	3,5	1006,88	6,8	8,7	8,6	1	1	1	1	1	1	1	1	1	0	1	-49,119098	274,096979	270,917802	0
14.01.2021	22:23:03	0	0	3,954344	3,76875	95,8608	0,249	76,727	3,5	1006,86	6,8	8,7	8,6	1	1	1	1	1	1	1	1	1	0	1	-46,511628	274,236246	274,176203	0
14.01.2021	22:23:04	0	0	2,937512	3,735	97,6824	0,249	76,732	3,5	1006,92	6,8	8,8	8,6	1	1	1	1	1	1	1	1	1	0	1	-46,441156	274,19421	274,050096	0
14.01.2021	22:23:05	0	0	3,389458	3,70575	63,8568	0,246	76,725	3,5	1006,9	6,8	8,8	8,5	1	1	1	1	1	1	1	1	1	0	1	-50,035236	274,239252	270,666656	0
14.01.2021	22:23:06	0	0	2,937512	3,453	70,2216	0,247	76,725	3,5	1006,94	6,8	8,8	8,6	1	1	1	1	1	1	1	1	1	0	1	-44,820296	274,120867	275,328187	0
14.01.2021	22:23:07	0	0	3,050494	3,1515	69,8616	0,241	76,726	3,5	1006,88	6,7	8,7	8,6	1	1	1	1	1	1	1	1	1	0	1	-42,212826	274,239252	278,489066	0
14.01.2021	22:23:08	0	0	3,502419	3,0885	72,2988	0,251	76,741	3,5	1007	6,7	8,8	8,6	1	1	1	1	1	1	1	1	1	0	1	-46,723044	274,107427	273,362652	0
14.01.2021	22:23:09	0	0	4,632231	3,13725	76,8348	0,247	76,754	3,5	1006,96	6,7	8,8	8,6	1	1	1	1	1	1	1	1	1	0	1	-47,427766	274,102948	272,637014	0
14.01.2021	22:23:10	0	0	2,372606	3,13875	61,2972	0,249	76,755	3,5	1006,98	6,7	8,7	8,6	1	1	1	1	1	1	1	1	1	0	1	-47,498238	274,077591	272,448123	0
14.01.2021	22:23:11	0	0	3,050494	2,80125	66,2256	0,247	76,745	3,5	1006,96	6,8	8,7	8,6	1	1	1	1	1	1	1	1	1	0	1	-41,226216	274,192711	279,258025	0
14.01.2021	22:23:12	0	0	4,971175	2,8515	53,352	0,25	76,759	3,5	1006,86	6,7	8,8	8,6	1	1	1	1	1	1	1	1	1	0	1	-48,20296	274,213715	272,379496	0
14.01.2021	22:23:13	0	0	3,6154	3,11775	57,4128	0,246	76,745	3,5	1006,98	6,8	8,8	8,6	1	1	1	1	1	1	1	1	1	0	1	-46,793517	274,234743	273,887284	0
14.01.2021	22:23:14	0	0	3,841362	3,15375	54,1008	0,244	76,72	3,5	1006,72	6,7	8,7	8,6	1	1	1	1	1	1	1	1	1	0	1	-47,639183	274,177721	272,774984	0
14.01.2021	22:23:15	0	0	2,485587	3,555	54,8028	0,242	76,729	3,5	1006,94	6,8	8,7	8,6	1	1	1	1	1	1	1	1	1	0	1	-47,357294	274,053757	272,477787	0
14.01.2021	22:23:16	0	0	3,502419	3,89325	60,5556	0,248	76,729	3,5	1007,08	6,7	8,7	8,6	1	1	1	1	1	1	1	1	1	0	1	-38,75969	274,189712	281,710531	0
14.01.2021	22:23:17	0	0	3,050494	3,90975	65,1024	0,254	76,723	3,5	1006,94	6,7	8,8	8,6	1	1	1	1	1	1	1	1	1	0	1	-43,058492	274,120867	277,089991	0
14.01.2021	22:23:18	0	0	4,180306	3,84675	63,486	0,244	76,707	3,5	1006,9	6,7	8,7	8,6	1	1	1	1	1	1	1	1	1	0	1	-45,384073	274,19421	275,107178	0
14.01.2021	22:23:19	0	0	3,389437	3,7875	58,1076	0,248	76,714	3,5	1006,88	6,8	8,8	8,6	1	1	1	1	1	1	1	1	1	0	1	-48,132488	274,168733	272,239665	0
14.01.2021	22:23:20	0	0	2,824531	3,7605	63,2052	0,248	76,715	3,5	1006,9	6,7	8,7	8,6	1	1	1	1	1	1	1	1	1	0	1	-44,397463	274,23324	276,276309	0
14.01.2021	22:23:21	0	0	3,276456	3,88275	68,7744	0,247	76,71	3,5	1006,78	6,7	8,8	8,6	1	1	1	1	1	1	1	1	1	0	1	-44,890768	274,08952	275,111296	0
14.01.2021	22:23:22	0	0	4,858193	3,7515	62,7912	0,246	76,716	3,5	1006,84	6,8	8,7	8,6	1	1	1	1	1	1	1	1	1	0	1	-48,343904	274,161246	271,993256	0
14.01.2021	22:23:23	0	0	2,937512	4,11975	74,1636	0,253	76,731	3,5	1006,88	6,7	8,7	8,6	1	1	1	1	1	1	1	1	1	0	1	-47,498238	274,234743	273,182563	0
14.01.2021	22:23:24	0	0	3,728381	4,38675	75,9924	0,25	76,717	3,5	1006,88	6,7	8,7	8,6	1	1	1	1	1	1	1	1	1	0	1	-47,286822	274,206211	273,260542	0
14.01.2021	22:23:25	0	0	4,406268	4,353	80,5248	0,247	76,717	3,5	1006,98	6,7	8,7	8,6	1	1	1	1	1	1	1	1	1	0	1	-41,014799	274,17922	279,406371	0
14.01.2021	22:23:26	0	0	2,711566	4,26225	74,9376	0,256	76,713	3,5	1006,98	6,7	8,8	8,5	1	1	1	1	1	1	1	1	1	0	1	-47,427766	274,052268	272,400366	0
14.01.2021	22:23:27	0	0	4,067325	4,11975	72,702	0,25	76,708	3,5	1006,96	6,8	8,7	8,6	1	1	1	1	1	1	1	1	1	0	1	-48,907681	274,138803	271,324599	0
14.01.2021	22:23:28	0	0	4,51925	4,01775	78,282	0,255	76,712	3,5	1006,96	6,8	8,8	8,6	1	1	1	1	1	1	1	1	1	0	1	-45,313601	274,049291	274,500633	0
14.01.2021	22:23:29	0	0	3,841362	3,86775	69,8508	0,253	76,709	3,5	1006,94	6,8	8,7	8,6	1	1	1	1	1	1	1	1	1	0	1	-44,608879	274,213715	275,973576	0
14.01.2021	22:23:30	0	0	2,824531	3,756	68,7744	0,253	76,696	3,5	1006,78	6,7	8,7	8,6	1	1	1	1	1	1	1	1	1	0	1	-46,5821	274,108919	273,51057	0
14.01.2021	22:23:31	0	0	2,598569	3,94425	71,6292	0,255	76,701	3,5	1006,9	6,8	8,7	8,6	1	1	1	1	1	1	1	1	1	0	1	-45,384073	274,053757	274,451008	0
14.01.2021	22:23:32	0	0	4,067325	4,14225	73,4364	0,253	76,695	3,5	1006,86	6,7	8,7	8,6	1	1	1	1	1	1	1	1	1	0	1	-46,652572	274,11788	273,481954	0
14.01.2021	22:23:33	0	0	4,406268	4,40775	73,8036	0,262	76,699	3,5	1006,98	6,8	8,8	8,6	1	1	1	1	1	1	1	1	1	0	1	-49,682875	274,227231	270,962788	0
14.01.2021	22:23:34	0	0	4,858193	4,74825	67,302	0,257	76,696	3,5	1006,94	6,7	8,7	8,6	1	1	1	1	1	1	1	1	1	0	1	-45,59549	274,192711	274,888751	0
14.01.2021	22:23:35	0	0	3,050494	4,73475	66,2364	0,259	76,686	3,5	1006,98	6,7	8,7	8,6	1	1	1	1	1	1	1	1	1	0	1	-41,719521	274,06716	278,178135	0
14.01.2021	22:23:36	0	0	4,067325	4,5765	62,8092	0,252	76,679	3,5	1006,88	6,7	8,8	8,6	1	1	1	1	1	1	1	1	1	0	1	-49,964764	274,156756	270,351408	0
14.01.2021	22:23:37	0	0	2,598569	4,326	73,7928	0,253	76,671	3,5	1006,86	6,7	8,7	8,6	1	1	1	1	1	1	1	1	1	0	1	-45,665962	274,213715	274,916494	0
14.01.2021	22:23:38	0	0	3,389437	4,4505	83,3472	0,251	76,682	3,5	1006,92	6,7	8,7	8,6	1	1	1	1	1	1	1	1	1	0	1	-46,018323	274,061202	273,851516	0
14.01.2021	22:23:39	0	0	3,389437	4,93725	83,4624	0,258	76,684	3,5	1006,9	6,7	8,7	8,6	1	1	1	1	1	1	1	1	1	0	1	-44,538407	274,101456	275,519402	0
14.01.2021	22:23:40	0	0	4,293287	4,89975	81,9792	0,259	76,677	3,5	1006,98	6,7	8,8	8,6	1	1	1	1	1	1	1	1	1	0	1	-47,357294	274,242259	273,358662	0
14.01.2021	22:23:41	0	0	4,745241	4,64475	91,5192	0,257	76,687	3,5	1006,92	6,7	8,7	8,5	1	1	1	1	1	1	1	1	1	0	1	-42,565187	274,111906	277,541433	0
14.01.2021	22:23:42	0	0	2,937512	4,33275	79,7796	0,258	76,677	3,5	1006,94	6,7	8,7	8,6	1	1	1	1	1	1	1	1	1	0	1	-42,917548	274,111906	277,189072	0
14.01.2021	22:23:43	0	0	3,502419	4,0395	79,5276	0,255	76,686	3,5	1006,94	6,7	8,8	8,6	1	1	1	1	1	1	1	1	1	0	1	-50,246653	274,058223	269,609281	0
14.01.2021	22:23:44	0	0	4,180306	3,888	86,6844	0,259	76,697	3,5	1006,94	6,8	8,7	8,6	1	1	1	1	1	1	1	1	1	0	1	-48,20296	274,138803	272,029321	0
14.01.2021	22:23:45	0	0	3,841362	3,75675	67,662	0,25	76,704	3,5	1006,8	6,8	8,7	8,6	1	1	1	1	1	1	1	1	1	0	1	-48,978154	274,236246	271,709677	0
14.01.2021	22:23:46	0	0	4,858193	3,5265	66,924	0,258	76,71	3,5	1006,8	6,8	8,7	8,6	1	1	1	1	1	1	1	1	1	0	1	-48,625793	274,20321	271,907539	0
14.01.2021	22:23:47	0	0	4,745241	3,15225	58,4928	0,262	76,712	3,5	1006,8	6,7	8,7	8,5	1	1	1	1	1	1	1	1	1	0	1	-46,088795	274,083555	273,885413	0
14.01.2021	22:23:48	0	0	2,485587	2,9235	63,1764	0,264	76,719	3,5	1006,88	6,8	8,7	8,6	1	1	1	1	1	1	1	1	1	0	1	-48,20296	274,230235	272,456756	0
14.01.2021	22:23:49	0	0	4,745212	2,88225	74,9268	0,26	76,719	3,5	1006,82	6,7	8,7	8,6	1	1	1	1	1	1	1	1	1	0	1	-47,709655	274,20171	272,816662	0
14.01.2021	22:23:50	0	0	2,485587	2,853	68,0112	0,262	76,724	3,5	1006,94	6,8	8,8	8,6	1	1	1	1	1	1	1	1	1	0	1	-48,766737	274,056734	271,082245	0
14.01.2021	22:23:51	0	0	4,293287	2,79	57,4272	0,261	76,731	3,5	1006,84	6,8	8,7	8,6	1	1	1	1	1	1	1	1	1	0	1	-45,525018	274,182217	274,910164	0
14.01.2021	22:23:52	0	0	4,180306	3,08175	72,27	0,263	76,709	3,5	1006,9	6,8	8,7	8,6	1	1	1	1	1	1	1	1	1	0	1	-43,128964	274,249777	277,622163	0
14.01.2021	22:23:53	0	0	3,6154	3,23625	70,866	0,26	76,708	3,5	1006,94	6,7	8,7	8,6	1	1	1	1	1	1	1	1	1	0	1	-50,387597	274,185214	270,061598	0
14.01.2021	22:23:54	0	0	4,51925	2,91825	64,6236	0,261	76,686	3,5	1006,78	6,7	8,7	8,6	1	1	1	1	1	1	1	1	1	0	1	-50,317125	274,077591	269,629237	0
14.01.2021	22:23:55	0	0	3,954344	2,81925	68,4036	0,264	76,678	3,5	1006,8	6,7	8,7	8,6	1	1	1	1	1	1	1	1	1	0	1	-46,229739	274,246769	274,507317	0
14.01.2021	22:23:56	0	0	3,389437	3,10725	64,2384	0,263	76,671	3,5	1006,84	6,8	8,7	8,6	1	1	1	1	1	1	1	1	1	0	1	-46,652572	274,110413	273,447072	0
14.01.2021	22:23:57	0	0	3,050494	3,51675	63,8712	0,268	76,632	3,5	1006,88	6,8	8,8	8,6	1	1	1	1	1	1	1	1	1	0	1	-47,639183	274,231738	273,027561	0
14.01.2021	22:23:58	0	0	3,389437	4,02675	69,9192	0,267	76,641	3,5	1006,74	6,8	8,8	8,6	1	1	1	1	1	1	1	1	1	0	1	-46,441156	274,080573	273,519128	0
14.01.2021	22:23:59	0	0	4,180306	4,28625	77,6124	0,268	76,625	3,5	1006,9	6,7	8,8	8,6	1	1	1	1	1	1	1	1	1	0	1	-50,81043	274,19571	269,687834	0
14.01.2021	22:24:00	0	0	4,745212	3,9975	65,0988	0,266	76,586	3,5	1006,98	6,7	8,7	8,6	1	1	1	1	1	1	1	1	1	0	1	-48,132488	274,224226	272,499125	0
14.01.2021	22:24:01	0	0	4,745212	3,9975	65,0988	0,266	76,586	3,5	1006,98	6,7	8,7	8,6	1	1	1	1	1	1	1	1	1	0	1	-48,132488	274,224226	272,499125	0
14.01.2021	22:24:02	0	0	4,51925	3,72375	65,9268	0,273	76,583	3,5	1007,08	6,8	8,7	8,6	1	1	1	1	1	1	1	1	1	0	1	-42,776603	274,119373	277,364901	0
14.01.2021	22:24:03	0	0	4,519277	3,67275	73,818	0,27	76,583	3,5	1006,88	6,8	8,7	8,5	1	1	1	1	1	1	1	1	1	0	1	-43,410853	274,079082	276,542469	0
14.01.2021	22:24:04	0	0	2,598569	3,56625	74,52	0,267	76,547	3,5	1006,86	6,8	8,7	8,6	1	1	1	1	1	1	1	1	1	0	1	-43,622269	274,159749	276,707894	0
14.01.2021	22:24:05	0	0	2,146644	3,4515	82,476	0,271	76,552	3,5	1007,02	6,7	8,8	8,6	1	1	1	1	1	1	1	1	1	0	1	-50,739958	274,056734	269,109024	0
14.01.2021	22:24:06	0	0	4,632231	3,39375	85,9356	0,272	76,526	3,5	1006,84	6,7	8,7	8,6	1	1	1	1	1	1	1	1	1	0	1	-47,21635	274,168733	273,155803	0
14.01.2021	22:24:07	0	0	4,51925	3,45675	66,5316	0,269	76,516	3,5	1006,88	6,8	8,7	8,6	1	1	1	1	1	1	1	1	1	0	1	-48,625793	274,088029	271,369306	0
14.01.2021	22:24:08	0	0	4,745212	3,32475	82,6164	0,275	76,5	3,5	1006,94	6,8	8,7	8,6	1	1	1	1	1	1	1	1	1	0	1	-46,088795	274,227231	274,556868	0
14.01.2021	22:24:09	0	0	4,180306	3,48825	91,8828	0,274	76,48	3,5	1006,94	6,8	8,8	8,6	1	1	1	1	1	1	1	1	1	0	1	-43,551797	274,191211	276,925433	0
14.01.2021	22:24:10	0	0	4,067325	3,46125	81,6012	0,274	76,486	3,5	1006,9	6,8	8,7	8,6	1	1	1	1	1	1	1	1	1	0	1	-50,317125	274,251281	270,441038	0
14.01.2021	22:24:11	0	0	4,51925	3,393	82,9872	0,269	76,465	3,5	1006,78	6,8	8,7	8,6	1	1	1	1	1	1	1	1	1	0	1	-45,172657	274,189712	275,297564	0
14.01.2021	22:24:12	0	0	2,824531	3,16875	72,6804	0,27	76,468	3,5	1007,02	6,7	8,8	8,6	1	1	1	1	1	1	1	1	1	0	1	-45,665962	274,08952	274,336102	0
14.01.2021	22:24:13	0	0	3,6154	3,0255	84,8952	0,276	76,448	3,5	1006,84	6,7	8,7	8,6	1	1	1	1	1	1	1	1	1	0	1	-45,947851	274,108919	274,14482	0
14.01.2021	22:24:14	0	0	4,632231	2,78625	63,4896	0,265	76,441	3,5	1006,8	6,8	8,8	8,6	1	1	1	1	1	1	1	1	1	0	1	-48,20296	274,147777	272,071255	0
14.01.2021	22:24:15	0	0	2,71155	2,5305	97,7184	0,273	76,449	3,5	1006,84	6,8	8,8	8,6	1	1	1	1	1	1	1	1	1	0	1	-43,833686	274,248273	276,910406	0
14.01.2021	22:24:16	0	0	3,954344	2,7195	95,5512	0,269	76,432	3,5	1006,94	6,8	8,7	8,6	1	1	1	1	1	1	1	1	1	0	1	-46,159267	274,153762	274,142917	0
14.01.2021	22:24:17	0	0	2,824531	2,93325	80,1396	0,277	76,437	3,5	1006,92	6,8	8,7	8,6	1	1	1	1	1	1	1	1	1	0	1	-44,397463	274,257298	276,388852	0
14.01.2021	22:24:18	0	0	3,615421	3,04875	86,6844	0,27	76,435	3,5	1007	6,7	8,7	8,5	1	1	1	1	1	1	1	1	1	0	1	-48,555321	274,122361	271,600142	0
14.01.2021	22:24:19	0	0	3,163475	3,042	83,0016	0,272	76,416	3,5	1006,86	6,8	8,7	8,6	1	1	1	1	1	1	1	1	1	0	1	-43,481325	274,242259	277,234631	0
14.01.2021	22:24:20	0	0	4,745212	2,99775	73,7748	0,277	76,422	3,5	1006,92	6,7	8,8	8,6	1	1	1	1	1	1	1	1	1	0	1	-49,471459	274,230235	271,188257	0
14.01.2021	22:24:21	0	0	2,71155	2,76825	80,9244	0,276	76,419	3,5	1006,98	6,8	8,8	8,6	1	1	1	1	1	1	1	1	1	0	1	-45,736434	274,080573	274,223849	0
14.01.2021	22:24:22	0	0	3,954344	2,556	75,618	0,273	76,412	3,5	1006,86	6,8	8,7	8,6	1	1	1	1	1	1	1	1	1	0	1	-47,427766	274,234743	273,253035	0
14.01.2021	22:24:23	0	0	2,937512	2,22975	75,2112	0,279	76,405	3,5	1007,06	6,8	8,7	8,6	1	1	1	1	1	1	1	1	1	0	1	-44,538407	274,209212	276,022992	0
14.01.2021	22:24:24	0	0	4,180306	2,06175	68,4108	0,27	76,4	3,5	1006,82	6,8	8,7	8,6	1	1	1	1	1	1	1	1	1	0	1	-43,904158	274,06865	276,000454	0
14.01.2021	22:24:25	0	0	3,163494	1,989	89,712	0,274	76,396	3,5	1006,96	6,8	8,7	8,5	1	1	1	1	1	1	1	1	1	0	1	-43,97463	274,167235	276,390523	0
14.01.2021	22:24:26	0	0	2,71155	2,00925	61,7004	0,28	76,406	3,5	1006,96	6,7	8,7	8,6	1	1	1	1	1	1	1	1	1	0	1	-47,21635	274,254289	273,555888	0
14.01.2021	22:24:27	0	0	4,971175	2,40225	61,3872	0,274	76,392	3,5	1007,04	6,7	8,8	8,6	1	1	1	1	1	1	1	1	1	0	1	-45,877378	274,219721	274,733163	0
14.01.2021	22:24:28	0	0	4,293287	2,57025	58,8672	0,271	76,366	3,5	1006,82	6,8	8,8	8,6	1	1	1	1	1	1	1	1	1	0	1	-47,850599	274,20171	272,675718	0
14.01.2021	22:24:29	0	0	4,51925	2,6775	72,288	0,275	76,365	3,5	1006,84	6,8	8,8	8,6	1	1	1	1	1	1	1	1	1	0	1	-46,723044	274,230235	273,936672	0
14.01.2021	22:24:30	0	0	3,728381	2,98875	60,9372	0,279	76,369	3,5	1007,02	6,8	8,7	8,6	1	1	1	1	1	1	1	1	1	0	1	-46,5821	274,252785	274,1831	0
14.01.2021	22:24:31	0	0	2,937512	3,06975	65,9268	0,279	76,37	3,5	1006,96	6,8	8,7	8,6	1	1	1	1	1	1	1	1	1	0	1	-47,004933	274,254289	273,767305	0
14.01.2021	22:24:32	0	0	5,4231	2,93475	70,8516	0,275	76,37	3,5	1007,06	6,8	8,7	8,6	1	1	1	1	1	1	1	1	1	0	1	-45,877378	274,146281	274,389846	0
14.01.2021	22:24:33	0	0	4,632231	2,81925	70,8516	0,279	76,364	3,5	1006,96	6,8	8,7	8,6	1	1	1	1	1	1	1	1	1	0	1	-43,481325	274,252785	277,283875	0
14.01.2021	22:24:34	0	0	3,6154	2,68575	74,1492	0,275	76,344	3,5	1006,88	6,7	8,8	8,6	1	1	1	1	1	1	1	1	1	0	1	-44,256519	274,174725	276,14364	0
14.01.2021	22:24:35	0	0	4,293287	2,52975	74,5452	0,278	76,353	3,5	1007	6,8	8,7	8,6	1	1	1	1	1	1	1	1	1	0	1	-45,806906	274,243762	274,916082	0
14.01.2021	22:24:36	0	0	4,745212	2,3835	91,1268	0,274	76,334	3,5	1006,88	6,8	8,8	8,6	1	1	1	1	1	1	1	1	1	0	1	-47,286822	274,219721	273,32372	0
14.01.2021	22:24:37	0	0	4,51925	2,436	77,6016	0,276	76,338	3,5	1006,98	6,8	8,7	8,6	1	1	1	1	1	1	1	1	1	0	1	-48,343904	274,088029	271,651195	0
14.01.2021	22:24:38	0	0	4,858193	2,50275	96,6168	0,282	76,313	3,5	1006,96	6,8	8,7	8,6	1	1	1	1	1	1	1	1	1	0	1	-46,5821	274,140298	273,657168	0
14.01.2021	22:24:39	0	0	2,937512	2,50125	82,5912	0,279	76,298	3,5	1006,98	6,8	8,7	8,6	1	1	1	1	1	1	1	1	1	0	1	-43,833686	274,129833	276,356684	0
14.01.2021	22:24:40	0	0	4,406268	2,61675	95,5188	0,275	76,292	3,5	1006,86	6,8	8,7	8,6	1	1	1	1	1	1	1	1	1	0	1	-45,665962	274,270844	275,183733	0
14.01.2021	22:24:41	0	0	4,293287	2,57025	85,1688	0,281	76,29	3,5	1006,9	6,8	8,7	8,6	1	1	1	1	1	1	1	1	1	0	1	-45,525018	274,155259	274,78416	0
14.01.2021	22:24:42	0	0	3,163475	2,586	81,9792	0,274	76,282	3,5	1006,9	6,8	8,8	8,6	1	1	1	1	1	1	1	1	1	0	1	-48,696265	274,263317	272,118212	0
14.01.2021	22:24:43	0	0	3,841362	2,6025	94,392	0,276	76,279	3,5	1006,88	6,8	8,7	8,6	1	1	1	1	1	1	1	1	1	0	1	-47,498238	274,123856	272,664204	0
14.01.2021	22:24:44	0	0	2,598569	2,63325	86,274	0,28	76,261	3,5	1006,84	6,8	8,7	8,6	1	1	1	1	1	1	1	1	1	0	1	-44,538407	274,266328	276,290155	0
14.01.2021	22:24:45	0	0	2,598569	2,47275	77,9796	0,277	76,255	3,5	1006,98	6,7	8,7	8,6	1	1	1	1	1	1	1	1	1	0	1	-45,947851	274,261812	274,859585	0
14.01.2021	22:24:46	0	0	4,971175	2,349	95,1156	0,279	76,244	3,5	1006,94	6,8	8,7	8,6	1	1	1	1	1	1	1	1	1	0	1	-48,625793	274,170231	271,753361	0
14.01.2021	22:24:47	0	0	4,406295	2,2695	66,9132	0,272	76,228	3,5	1006,9	6,7	8,8	8,5	1	1	1	1	1	1	1	1	1	0	1	-45,736434	274,264822	275,085085	0
14.01.2021	22:24:48	0	0	4,745212	2,274	77,22	0,273	76,21	3,5	1006,84	6,8	8,8	8,6	1	1	1	1	1	1	1	1	1	0	1	-44,467935	274,19721	276,037341	0
14.01.2021	22:24:49	0	0	2,711566	2,199	65,8296	0,278	76,188	3,5	1006,74	6,8	8,7	8,5	1	1	1	1	1	1	1	1	1	0	1	-47,145877	274,255794	273,633399	0
14.01.2021	22:24:50	0	0	4,067325	2,148	62,7948	0,28	76,202	3,5	1006,94	6,8	8,7	8,6	1	1	1	1	1	1	1	1	1	0	1	-44,397463	274,104441	275,674289	0
14.01.2021	22:24:51	0	0	3,050494	2,10825	95,1336	0,276	76,207	3,5	1006,96	6,8	8,8	8,6	1	1	1	1	1	1	1	1	1	0	1	-48,273432	274,07014	271,638136	0
14.01.2021	22:24:52	0	0	4,971175	1,97925	86,634	0,269	76,18	3,5	1006,92	6,8	8,8	8,6	1	1	1	1	1	1	1	1	1	0	1	-43,058492	274,162743	277,285666	0
14.01.2021	22:24:53	0	0	2,598569	1,92375	59,8572	0,279	76,196	3,5	1006,96	6,8	8,8	8,6	1	1	1	1	1	1	1	1	1	0	1	-43,551797	274,06716	276,345859	0
14.01.2021	22:24:54	0	0	3,728381	1,9605	80,1576	0,274	76,165	3,5	1006,9	6,7	8,7	8,6	1	1	1	1	1	1	1	1	1	0	1	-43,481325	274,207712	277,073056	0
14.01.2021	22:24:55	0	0	4,406268	2,06175	94,7916	0,279	76,192	3,5	1006,88	6,8	8,8	8,6	1	1	1	1	1	1	1	1	1	0	1	-44,045102	274,255794	276,734174	0
14.01.2021	22:24:56	0	0	3,050494	2,27625	101,124	0,276	76,184	3,5	1006,98	6,8	8,7	8,6	1	1	1	1	1	1	1	1	1	0	1	-47,004933	274,113399	273,108662	0
14.01.2021	22:24:57	0	0	4,293287	2,802	100,3788	0,27	76,17	3,5	1006,9	6,7	8,8	8,6	1	1	1	1	1	1	1	1	1	0	1	-47,21635	274,096979	272,82055	0
14.01.2021	22:24:58	0	0	4,745212	3,081	94,3848	0,271	76,156	3,5	1006,94	6,8	8,8	8,6	1	1	1	1	1	1	1	1	1	0	1	-48,555321	274,07312	271,370163	0
14.01.2021	22:24:59	0	0	3,728381	3,02025	91,5264	0,278	76,152	3,5	1006,82	6,8	8,8	8,6	1	1	1	1	1	1	1	1	1	0	1	-42,776603	274,180718	277,651572	0
14.01.2021	22:25:00	0	0	4,858193	2,90475	97,326	0,272	76,136	3,5	1006,98	6,8	8,7	8,6	1	1	1	1	1	1	1	1	1	0	1	-46,370684	274,216718	274,225814	0
14.01.2021	22:25:01	0	0	4,858193	2,90475	97,326	0,272	76,136	3,5	1006,98	6,8	8,7	8,6	1	1	1	1	1	1	1	1	1	0	1	-46,370684	274,216718	274,225814	0
14.01.2021	22:25:02	0	0	2,485587	3,00975	63,4788	0,268	76,128	3,5	1006,96	6,8	8,7	8,6	1	1	1	1	1	1	1	1	1	0	1	-50,17618	274,240755	270,532743	0
14.01.2021	22:25:03	0	0	2,598569	2,93475	102,582	0,274	76,148	3,5	1007	6,8	8,7	8,6	1	1	1	1	1	1	1	1	1	0	1	-47,145877	274,23324	273,527895	0
14.01.2021	22:25:04	0	0	3,050494	3,32325	88,956	0,273	76,169	3,5	1006,92	6,8	8,7	8,6	1	1	1	1	1	1	1	1	1	0	1	-51,021846	274,183716	269,420342	0
14.01.2021	22:25:05	0	0	4,745212	3,72375	71,6004	0,275	76,176	3,5	1006,8	6,8	8,7	8,6	1	1	1	1	1	1	1	1	1	0	1	-47,286822	274,07163	272,631704	0
14.01.2021	22:25:06	0	0	4,067325	3,9525	70,83	0,268	76,199	3,5	1006,88	6,8	8,7	8,6	1	1	1	1	1	1	1	1	1	0	1	-46,088795	274,221223	274,528769	0
14.01.2021	22:25:07	0	0	2,598569	3,999	70,8372	0,267	76,204	3,5	1006,82	6,8	8,7	8,6	1	1	1	1	1	1	1	1	1	0	1	-46,863989	274,257298	273,922326	0
14.01.2021	22:25:08	0	0	2,485587	3,93825	65,8404	0,277	76,228	3,5	1007,12	6,8	8,8	8,6	1	1	1	1	1	1	1	1	1	0	1	-45,947851	274,104441	274,123901	0
14.01.2021	22:25:09	0	0	3,728381	3,8745	69,156	0,275	76,213	3,5	1006,9	6,8	8,7	8,6	1	1	1	1	1	1	1	1	1	0	1	-42,001409	274,176223	278,405753	0
14.01.2021	22:25:10	0	0	4,51925	3,75225	63,8712	0,274	76,247	3,5	1006,94	6,8	8,7	8,6	1	1	1	1	1	1	1	1	1	0	1	-44,890768	274,236246	275,797062	0
14.01.2021	22:25:11	0	0	5,310118	3,636	59,9652	0,267	76,235	3,5	1006,9	6,8	8,7	8,6	1	1	1	1	1	1	1	1	1	0	1	-47,709655	274,20321	272,823677	0
14.01.2021	22:25:12	0	0	2,598569	3,7215	63,882	0,275	76,238	3,5	1006,9	6,7	8,7	8,6	1	1	1	1	1	1	1	1	1	0	1	-45,59549	274,07014	274,316079	0
14.01.2021	22:25:13	0	0	5,310118	3,94125	52,8876	0,275	76,237	3,5	1006,94	6,8	8,7	8,6	1	1	1	1	1	1	1	1	1	0	1	-47,427766	274,159749	272,902398	0
14.01.2021	22:25:14	0	0	3,389437	3,92925	67,68	0,276	76,24	3,5	1006,94	6,7	8,7	8,6	1	1	1	1	1	1	1	1	1	0	1	-46,018323	274,242259	274,697633	0
14.01.2021	22:25:15	0	0	5,197137	4,008	58,8708	0,277	76,239	3,5	1007,04	6,7	8,7	8,6	1	1	1	1	1	1	1	1	1	0	1	-48,414376	274,245266	272,315646	0
14.01.2021	22:25:16	0	0	3,728381	4,07175	75,2364	0,27	76,234	3,5	1006,84	6,8	8,7	8,6	1	1	1	1	1	1	1	1	1	0	1	-45,665962	274,128339	274,517425	0
14.01.2021	22:25:17	0	0	4,971175	4,3875	69,8472	0,29	76,237	3,5	1006,96	6,7	8,7	8,6	1	1	1	1	1	1	1	1	1	0	1	-46,159267	274,06865	273,745345	0
14.01.2021	22:25:18	0	0	2,937512	4,57275	76,3596	0,271	76,216	3,5	1006,86	6,8	8,7	8,6	1	1	1	1	1	1	1	1	1	0	1	-41,860465	274,209212	278,700934	0
14.01.2021	22:25:19	0	0	3,389437	4,35	67,2768	0,275	76,223	3,5	1007,02	6,8	8,7	8,6	1	1	1	1	1	1	1	1	1	0	1	-49,260042	274,114893	270,860529	0
14.01.2021	22:25:20	0	0	2,598569	3,85575	65,4732	0,277	76,23	3,5	1006,94	6,8	8,8	8,6	1	1	1	1	1	1	1	1	1	0	1	-41,930937	274,07014	277,980631	0
14.01.2021	22:25:21	0	0	4,971175	3,5805	79,416	0,268	76,222	3,5	1006,78	6,8	8,7	8,6	1	1	1	1	1	1	1	1	1	0	1	-45,736434	274,183716	274,705754	0
14.01.2021	22:25:22	0	0	3,050494	3,43125	51,7716	0,274	76,234	3,5	1006,92	6,8	8,7	8,6	1	1	1	1	1	1	1	1	1	0	1	-47,427766	274,098471	272,616103	0
14.01.2021	22:25:23	0	0	2,598569	3,3075	61,29	0,275	76,227	3,5	1006,82	6,8	8,7	8,6	1	1	1	1	1	1	1	1	1	0	1	-46,934461	274,210713	273,633956	0
14.01.2021	22:25:24	0	0	3,728381	3,447	90,0396	0,269	76,208	3,5	1006,82	6,7	8,8	8,6	1	1	1	1	1	1	1	1	1	0	1	-46,441156	274,102948	273,623624	0
14.01.2021	22:25:25	0	0	3,502419	3,675	73,4256	0,27	76,202	3,5	1006,92	6,7	8,7	8,6	1	1	1	1	1	1	1	1	1	0	1	-45,877378	274,258803	274,915976	0
14.01.2021	22:25:26	0	0	4,632231	3,843	63,576	0,273	76,203	3,5	1006,92	6,8	8,7	8,6	1	1	1	1	1	1	1	1	1	0	1	-45,806906	274,131328	274,390447	0
14.01.2021	22:25:27	0	0	4,180306	3,77325	50,6916	0,268	76,196	3,5	1006,68	6,7	8,7	8,6	1	1	1	1	1	1	1	1	1	0	1	-45,454545	274,243762	275,268443	0
14.01.2021	22:25:28	0	0	4,180306	3,99225	64,2636	0,266	76,213	3,5	1006,86	6,8	8,7	8,6	1	1	1	1	1	1	1	1	1	0	1	-45,313601	274,218219	275,289918	0
14.01.2021	22:25:29	0	0	4,067325	3,8415	66,2184	0,269	76,199	3,5	1006,94	6,7	8,7	8,6	1	1	1	1	1	1	1	1	1	0	1	-46,511628	274,234743	274,169173	0
14.01.2021	22:25:30	0	0	3,389437	3,41925	54,7992	0,272	76,211	3,5	1007,08	6,8	8,7	8,6	1	1	1	1	1	1	1	1	1	0	1	-43,904158	274,083555	276,07005	0
14.01.2021	22:25:31	0	0	4,180306	3,40125	81,6264	0,272	76,204	3,5	1006,92	6,8	8,7	8,6	1	1	1	1	1	1	1	1	1	0	1	-46,159267	274,14329	274,093977	0
14.01.2021	22:25:32	0	0	3,841362	3,31125	67,6836	0,273	76,212	3,5	1007,04	6,7	8,7	8,6	1	1	1	1	1	1	1	1	1	0	1	-46,229739	274,08952	273,772325	0
14.01.2021	22:25:33	0	0	2,937512	3,03525	63,1764	0,271	76,206	3,5	1007,02	6,7	8,8	8,6	1	1	1	1	1	1	1	1	1	0	1	-43,904158	274,246769	276,832899	0
14.01.2021	22:25:34	0	0	3,6154	2,6745	64,2276	0,271	76,197	3,5	1007,02	6,7	8,7	8,6	1	1	1	1	1	1	1	1	1	0	1	-46,793517	274,186713	273,662686	0
14.01.2021	22:25:35	0	0	3,050494	2,64825	49,968	0,273	76,196	3,5	1007,02	6,8	8,8	8,6	1	1	1	1	1	1	1	1	1	0	1	-45,384073	274,255794	275,395203	0
14.01.2021	22:25:36	0	0	2,937512	2,67975	69,1452	0,267	76,179	3,5	1007,02	6,8	8,7	8,6	1	1	1	1	1	1	1	1	1	0	1	-47,21635	274,083555	272,757858	0
14.01.2021	22:25:37	0	0	2,485587	2,86875	68,04	0,272	76,161	3,5	1006,98	6,8	8,7	8,6	1	1	1	1	1	1	1	1	1	0	1	-44,115574	274,114893	276,004997	0
14.01.2021	22:25:38	0	0	4,406268	2,91075	86,6448	0,279	76,166	3,5	1006,92	6,7	8,7	8,6	1	1	1	1	1	1	1	1	1	0	1	-45,384073	274,07312	274,54141	0
14.01.2021	22:25:39	0	0	3,050494	3,159	58,5036	0,268	76,146	3,5	1007	6,7	8,8	8,6	1	1	1	1	1	1	1	1	1	0	1	-45,102185	274,207712	275,452197	0
14.01.2021	22:25:40	0	0	3,6154	3,279	68,3928	0,268	76,151	3,5	1007	6,7	8,7	8,6	1	1	1	1	1	1	1	1	1	0	1	-42,35377	274,204711	278,186578	0
14.01.2021	22:25:41	0	0	4,406268	3,9165	76,3776	0,273	76,145	3,5	1006,94	6,7	8,7	8,6	1	1	1	1	1	1	1	1	1	0	1	-47,780127	274,222724	272,844461	0
14.01.2021	22:25:42	0	0	3,389437	4,4205	88,6068	0,266	76,142	3,5	1006,82	6,7	8,7	8,6	1	1	1	1	1	1	1	1	1	0	1	-49,682875	274,173227	270,710281	0
14.01.2021	22:25:43	0	0	4,406268	4,56975	79,4196	0,268	76,137	3,5	1006,84	6,8	8,7	8,6	1	1	1	1	1	1	1	1	1	0	1	-45,454545	274,252785	275,310655	0
14.01.2021	22:25:44	0	0	2,937512	4,51125	73,8	0,271	76,146	3,5	1006,92	6,8	8,7	8,6	1	1	1	1	1	1	1	1	1	0	1	-49,400987	274,149273	270,880219	0
14.01.2021	22:25:45	0	0	2,937512	4,45725	62,0532	0,268	76,156	3,5	1007,04	6,7	8,8	8,6	1	1	1	1	1	1	1	1	1	0	1	-46,300211	274,096979	273,736688	0
14.01.2021	22:25:46	0	0	2,485587	4,3305	58,8816	0,268	76,152	3,5	1007,04	6,8	8,7	8,6	1	1	1	1	1	1	1	1	1	0	1	-45,243129	274,122361	274,912334	0
14.01.2021	22:25:47	0	0	2,598569	4,5885	71,9892	0,268	76,172	3,5	1007,02	6,7	8,7	8,6	1	1	1	1	1	1	1	1	1	0	1	-46,229739	274,07163	273,688787	0
14.01.2021	22:25:48	0	0	3,728381	4,19175	80,1504	0,264	76,164	3,5	1006,94	6,8	8,8	8,6	1	1	1	1	1	1	1	1	1	0	1	-44,749824	274,099963	275,301015	0
14.01.2021	22:25:49	0	0	4,632231	3,918	58,1076	0,262	76,17	3,5	1006,94	6,8	8,7	8,6	1	1	1	1	1	1	1	1	1	0	1	-46,5821	274,19571	273,916163	0
14.01.2021	22:25:50	0	0	4,971175	3,90375	63,8676	0,269	76,184	3,5	1006,9	6,7	8,7	8,6	1	1	1	1	1	1	1	1	1	0	1	-47,357294	274,260308	273,443101	0
14.01.2021	22:25:51	0	0	4,745212	3,807	68,7816	0,262	76,172	3,5	1006,9	6,8	8,7	8,6	1	1	1	1	1	1	1	1	1	0	1	-45,665962	274,20321	274,86737	0
14.01.2021	22:25:52	0	0	2,824531	3,6675	70,8516	0,262	76,183	3,5	1006,88	6,7	8,8	8,6	1	1	1	1	1	1	1	1	1	0	1	-44,186047	274,07163	275,732479	0
14.01.2021	22:25:53	0	0	3,163475	3,60825	74,5272	0,268	76,196	3,5	1006,96	6,7	8,7	8,6	1	1	1	1	1	1	1	1	1	0	1	-45,313601	274,222724	275,310987	0
14.01.2021	22:25:54	0	0	2,146644	3,801	73,7964	0,264	76,181	3,5	1006,88	6,8	8,7	8,6	1	1	1	1	1	1	1	1	1	0	1	-46,088795	274,228733	274,563894	0
14.01.2021	22:25:55	0	0	2,937512	3,84	75,3336	0,265	76,209	3,5	1006,94	6,7	8,7	8,6	1	1	1	1	1	1	1	1	1	0	1	-43,410853	274,077591	276,535509	0
14.01.2021	22:25:56	0	0	4,51925	3,756	84,042	0,267	76,205	3,5	1006,88	6,7	8,8	8,6	1	1	1	1	1	1	1	1	1	0	1	-49,330514	274,168733	271,041639	0
14.01.2021	22:25:57	0	0	4,745212	3,8025	61,6824	0,268	76,213	3,5	1006,88	6,8	8,7	8,6	1	1	1	1	1	1	1	1	1	0	1	-45,947851	274,092503	274,068146	0
14.01.2021	22:25:58	0	0	4,971175	3,76725	70,2108	0,27	76,228	3,5	1006,82	6,8	8,7	8,6	1	1	1	1	1	1	1	1	1	0	1	-46,934461	274,162743	273,409697	0
14.01.2021	22:25:59	0	0	4,51925	3,74175	71,9892	0,267	76,246	3,5	1007,08	6,8	8,8	8,6	1	1	1	1	1	1	1	1	1	0	1	-44,890768	274,088029	275,104331	0
14.01.2021	22:26:00	0	0	4,51925	4,20525	79,3836	0,268	76,273	3,5	1006,96	6,8	8,8	8,6	1	1	1	1	1	1	1	1	1	0	1	-45,59549	274,257298	275,190825	0
14.01.2021	22:26:01	0	0	4,51925	4,20525	79,3836	0,268	76,273	3,5	1006,96	6,8	8,8	8,6	1	1	1	1	1	1	1	1	1	0	1	-45,59549	274,257298	275,190825	0
14.01.2021	22:26:02	0	0	2,598569	4,43025	89,3592	0,265	76,26	3,5	1007,04	6,7	8,8	8,6	1	1	1	1	1	1	1	1	1	0	1	-43,904158	274,099963	276,146681	0
14.01.2021	22:26:03	0	0	4,51925	4,695	96,2532	0,267	76,27	3,5	1007,06	6,7	8,8	8,6	1	1	1	1	1	1	1	1	1	0	1	-43,551797	274,096979	276,485103	0
14.01.2021	22:26:04	0	0	4,067325	4,8165	86,6484	0,265	76,272	3,5	1006,96	6,8	8,7	8,6	1	1	1	1	1	1	1	1	1	0	1	-43,692741	274,249777	277,058386	0
14.01.2021	22:26:05	0	0	4,51925	4,647	94,0896	0,266	76,265	3,5	1006,96	6,8	8,8	8,6	1	1	1	1	1	1	1	1	1	0	1	-51,515152	274,20171	269,011166	0
14.01.2021	22:26:06	0	0	2,937512	4,5195	102,9816	0,27	76,29	3,5	1007,08	6,8	8,7	8,6	1	1	1	1	1	1	1	1	1	0	1	-44,186047	274,088029	275,809053	0
14.01.2021	22:26:07	0	0	3,050494	4,54425	83,3688	0,264	76,297	3,5	1006,82	6,8	8,7	8,6	1	1	1	1	1	1	1	1	1	0	1	-45,454545	274,137308	274,770748	0
14.01.2021	22:26:08	0	0	4,51925	4,65525	95,8248	0,262	76,279	3,5	1006,96	6,7	8,8	8,6	1	1	1	1	1	1	1	1	1	0	1	-49,753347	274,236246	270,934483	0
14.01.2021	22:26:09	0	0	3,276476	4,713	89,3376	0,265	76,287	3,5	1006,92	6,8	8,7	8,5	1	1	1	1	1	1	1	1	1	0	1	-43,481325	274,086537	276,50681	0
14.01.2021	22:26:10	0	0	3,841362	4,33725	84,798	0,271	76,28	3,5	1007,02	6,7	8,8	8,6	1	1	1	1	1	1	1	1	1	0	1	-43,833686	274,140298	276,405582	0
14.01.2021	22:26:11	0	0	3,389437	4,10475	82,962	0,271	76,28	3,5	1006,96	6,8	8,7	8,6	1	1	1	1	1	1	1	1	1	0	1	-46,863989	274,086537	273,124146	0
14.01.2021	22:26:12	0	0	4,180306	4,1115	86,958	0,268	76,259	3,5	1006,92	6,8	8,7	8,6	1	1	1	1	1	1	1	1	1	0	1	-47,639183	274,230235	273,020534	0
14.01.2021	22:26:13	0	0	4,293287	3,981	84,4416	0,269	76,245	3,5	1006,86	6,8	8,8	8,6	1	1	1	1	1	1	1	1	1	0	1	-44,820296	274,134318	275,391026	0
14.01.2021	22:26:14	0	0	4,971175	4,04625	100,3716	0,27	76,267	3,5	1007,06	6,8	8,7	8,6	1	1	1	1	1	1	1	1	1	0	1	-47,921071	274,080573	272,039212	0
14.01.2021	22:26:15	0	0	4,858193	3,98325	85,5216	0,264	76,232	3,5	1006,76	6,7	8,8	8,6	1	1	1	1	1	1	1	1	1	0	1	-42,847075	274,212214	277,728361	0
14.01.2021	22:26:16	0	0	2,598569	4,10175	86,9976	0,271	76,247	3,5	1007	6,8	8,7	8,6	1	1	1	1	1	1	1	1	1	0	1	-45,102185	274,086537	274,88595	0
14.01.2021	22:26:17	0	0	2,598569	4,08975	84,438	0,266	76,233	3,5	1006,98	6,8	8,7	8,6	1	1	1	1	1	1	1	1	1	0	1	-44,256519	274,167235	276,108634	0
14.01.2021	22:26:18	0	0	3,389437	3,85425	83,7216	0,267	76,227	3,5	1006,94	6,8	8,7	8,6	1	1	1	1	1	1	1	1	1	0	1	-44,749824	274,266328	276,078738	0
14.01.2021	22:26:19	0	0	2,485587	3,64875	69,858	0,266	76,23	3,5	1006,92	6,7	8,7	8,6	1	1	1	1	1	1	1	1	1	0	1	-47,004933	274,085046	272,976238	0
14.01.2021	22:26:20	0	0	3,050494	3,2985	73,0512	0,269	76,227	3,5	1006,88	6,8	8,8	8,6	1	1	1	1	1	1	1	1	1	0	1	-44,890768	274,170231	275,488385	0
14.01.2021	22:26:21	0	0	4,406268	3,162	86,9796	0,266	76,223	3,5	1006,96	6,8	8,7	8,6	1	1	1	1	1	1	1	1	1	0	1	-45,806906	274,255794	274,97237	0
14.01.2021	22:26:22	0	0	4,858193	3,0465	74,9196	0,27	76,211	3,5	1006,94	6,7	8,7	8,6	1	1	1	1	1	1	1	1	1	0	1	-49,330514	274,149273	270,950691	0
14.01.2021	22:26:23	0	0	3,276456	3,1155	101,4948	0,262	76,21	3,5	1006,92	6,8	8,7	8,6	1	1	1	1	1	1	1	1	1	0	1	-47,780127	274,082064	272,187118	0
14.01.2021	22:26:24	0	0	4,745212	3,3555	76,8276	0,26	76,205	3,5	1006,94	6,8	8,7	8,6	1	1	1	1	1	1	1	1	1	0	1	-46,229739	274,215217	274,359737	0
14.01.2021	22:26:25	0	0	3,389437	3,38775	73,4544	0,268	76,21	3,5	1006,86	6,8	8,8	8,6	1	1	1	1	1	1	1	1	1	0	1	-42,847075	274,257298	277,939239	0
14.01.2021	22:26:26	0	0	4,180306	3,279	61,6896	0,26	76,189	3,5	1006,9	6,7	8,8	8,6	1	1	1	1	1	1	1	1	1	0	1	-42,283298	274,258803	278,510056	0
14.01.2021	22:26:27	0	0	2,598569	3,054	58,8816	0,26	76,202	3,5	1006,88	6,8	8,8	8,6	1	1	1	1	1	1	1	1	1	0	1	-43,269908	274,236246	277,417922	0
14.01.2021	22:26:28	0	0	2,937512	2,949	62,046	0,271	76,206	3,5	1006,96	6,8	8,8	8,6	1	1	1	1	1	1	1	1	1	0	1	-43,410853	274,098471	276,633016	0
14.01.2021	22:26:29	0	0	4,971175	3,00975	76,0032	0,262	76,207	3,5	1006,84	6,7	8,7	8,6	1	1	1	1	1	1	1	1	1	0	1	-45,736434	274,209212	274,824965	0
14.01.2021	22:26:30	0	0	3,954344	3,13275	63,5076	0,265	76,217	3,5	1006,94	6,8	8,8	8,6	1	1	1	1	1	1	1	1	1	0	1	-46,511628	274,085046	273,469543	0
14.01.2021	22:26:31	0	0	2,937512	3,4935	73,4292	0,264	76,199	3,5	1006,84	6,8	8,7	8,6	1	1	1	1	1	1	1	1	1	0	1	-45,454545	274,19571	275,043718	0
14.01.2021	22:26:32	0	0	2,485587	3,76425	73,7964	0,268	76,224	3,5	1007,02	6,8	8,8	8,6	1	1	1	1	1	1	1	1	1	0	1	-46,441156	274,266328	274,387406	0
14.01.2021	22:26:33	0	0	2,71155	4,20075	73,7892	0,266	76,222	3,5	1006,94	6,8	8,8	8,6	1	1	1	1	1	1	1	1	1	0	1	-47,21635	274,167235	273,148804	0
14.01.2021	22:26:34	0	0	2,937512	4,04625	65,8584	0,265	76,238	3,5	1006,92	6,7	8,7	8,6	1	1	1	1	1	1	1	1	1	0	1	-47,639183	274,095487	272,390749	0
14.01.2021	22:26:35	0	0	2,71155	3,825	76,3848	0,267	76,233	3,5	1006,68	6,7	8,7	8,6	1	1	1	1	1	1	1	1	1	0	1	-41,719521	274,141794	278,526735	0
14.01.2021	22:26:36	0	0	3,163475	3,80775	65,0916	0,263	76,225	3,5	1007,04	6,8	8,7	8,6	1	1	1	1	1	1	1	1	1	0	1	-45,172657	274,248273	275,571435	0
14.01.2021	22:26:37	0	0	2,937512	3,63	60,5664	0,265	76,241	3,5	1006,9	6,8	8,8	8,6	1	1	1	1	1	1	1	1	1	0	1	-47,21635	274,212214	273,359087	0
14.01.2021	22:26:38	0	0	2,824531	3,52275	75,24	0,262	76,242	3,5	1006,88	6,8	8,8	8,6	1	1	1	1	1	1	1	1	1	0	1	-41,860465	274,086537	278,12767	0
14.01.2021	22:26:39	0	0	3,050494	3,43425	80,1432	0,258	76,246	3,5	1006,98	6,8	8,7	8,6	1	1	1	1	1	1	1	1	1	0	1	-47,004933	274,215217	273,584543	0
14.01.2021	22:26:40	0	0	4,406268	3,42075	79,7652	0,27	76,271	3,5	1006,86	6,8	8,8	8,6	1	1	1	1	1	1	1	1	1	0	1	-45,947851	274,096979	274,089049	0
14.01.2021	22:26:41	0	0	3,276456	3,45375	65,0808	0,272	76,275	3,5	1007,02	6,8	8,7	8,6	1	1	1	1	1	1	1	1	1	0	1	-47,991543	274,264822	272,829976	0
14.01.2021	22:26:42	0	0	2,824531	3,6165	74,5524	0,27	76,269	3,5	1006,98	6,8	8,8	8,6	1	1	1	1	1	1	1	1	1	0	1	-45,877378	274,168733	274,494775	0
14.01.2021	22:26:43	0	0	3,954344	3,47475	80,1468	0,269	76,281	3,5	1006,9	6,8	8,7	8,6	1	1	1	1	1	1	1	1	1	0	1	-42,635659	274,27235	278,221082	0
14.01.2021	22:26:44	0	0	4,067325	3,186	73,44	0,267	76,288	3,5	1006,9	6,8	8,7	8,6	1	1	1	1	1	1	1	1	1	0	1	-44,467935	274,182217	275,967246	0
14.01.2021	22:26:45	0	0	4,067325	3,01575	66,4992	0,262	76,277	3,5	1006,92	6,7	8,7	8,6	1	1	1	1	1	1	1	1	1	0	1	-47,921071	274,264822	272,900448	0
14.01.2021	22:26:46	0	0	3,502419	2,9295	73,062	0,269	76,297	3,5	1006,88	6,8	8,7	8,6	1	1	1	1	1	1	1	1	1	0	1	-46,793517	274,137308	273,431777	0
14.01.2021	22:26:47	0	0	4,51925	2,96925	61,3224	0,264	76,299	3,5	1006,96	6,8	8,8	8,6	1	1	1	1	1	1	1	1	1	0	1	-47,004933	274,27235	273,851807	0
14.01.2021	22:26:48	0	0	2,937512	3,2685	83,3436	0,262	76,305	3,5	1006,88	6,8	8,7	8,6	1	1	1	1	1	1	1	1	1	0	1	-45,877378	274,113399	274,236217	0
14.01.2021	22:26:49	0	0	2,71155	3,5535	85,5252	0,264	76,312	3,5	1006,86	6,8	8,8	8,6	1	1	1	1	1	1	1	1	1	0	1	-46,793517	274,129833	273,396853	0
14.01.2021	22:26:50	0	0	4,180306	3,64575	79,4412	0,268	76,313	3,5	1006,8	6,8	8,8	8,6	1	1	1	1	1	1	1	1	1	0	1	-43,481325	274,088029	276,513774	0
14.01.2021	22:26:51	0	0	3,954344	3,61125	77,2272	0,267	76,316	3,5	1006,94	6,8	8,7	8,6	1	1	1	1	1	1	1	1	1	0	1	-45,102185	274,19421	275,389067	0
14.01.2021	22:26:52	0	0	4,745212	3,43725	70,2252	0,262	76,314	3,5	1006,88	6,8	8,7	8,6	1	1	1	1	1	1	1	1	1	0	1	-49,471459	274,27988	271,42052	0
14.01.2021	22:26:53	0	0	4,745212	3,39	66,9132	0,267	76,314	3,5	1006,96	6,8	8,8	8,6	1	1	1	1	1	1	1	1	1	0	1	-47,004933	274,188213	273,458278	0
14.01.2021	22:26:54	0	0	4,067325	3,55125	85,5216	0,267	76,319	3,5	1006,84	6,8	8,8	8,6	1	1	1	1	1	1	1	1	1	0	1	-45,031712	274,261812	275,775723	0
14.01.2021	22:26:55	0	0	4,971175	3,52875	77,9652	0,263	76,318	3,5	1006,9	6,8	8,7	8,6	1	1	1	1	1	1	1	1	1	0	1	-46,088795	274,168733	274,283358	0
14.01.2021	22:26:56	0	0	4,406268	3,3585	82,9692	0,257	76,323	3,5	1006,9	6,8	8,7	8,6	1	1	1	1	1	1	1	1	1	0	1	-41,930937	274,088029	278,064162	0
14.01.2021	22:26:57	0	0	2,937512	3,2385	76,3704	0,263	76,322	3,5	1006,86	6,8	8,7	8,6	1	1	1	1	1	1	1	1	1	0	1	-43,269908	274,123856	276,892534	0
14.01.2021	22:26:58	0	0	3,276456	3,03	72,7092	0,262	76,321	3,5	1006,84	6,8	8,7	8,6	1	1	1	1	1	1	1	1	1	0	1	-44,96124	274,206211	275,586124	0
14.01.2021	22:26:59	0	0	4,406268	2,9595	71,2152	0,263	76,314	3,5	1007,04	6,8	8,7	8,6	1	1	1	1	1	1	1	1	1	0	1	-44,256519	274,095487	275,773413	0
14.01.2021	22:27:00	0	0	3,276456	3,114	76,8312	0,267	76,294	3,5	1006,86	6,8	8,8	8,6	1	1	1	1	1	1	1	1	1	0	1	-43,481325	274,282893	277,424753	0
14.01.2021	22:27:01	0	0	3,276456	3,114	76,8312	0,267	76,294	3,5	1006,86	6,8	8,8	8,6	1	1	1	1	1	1	1	1	1	0	1	-43,481325	274,282893	277,424753	0
14.01.2021	22:27:02	0	0	4,632231	3,07575	75,6144	0,266	76,291	3,5	1006,86	6,8	8,7	8,6	1	1	1	1	1	1	1	1	1	0	1	-44,326991	274,225728	276,311646	0
14.01.2021	22:27:03	0	0	4,067325	3,0075	81,2088	0,266	76,287	3,5	1007,06	6,8	8,8	8,6	1	1	1	1	1	1	1	1	1	0	1	-46,511628	274,227231	274,134035	0
14.01.2021	22:27:04	0	0	2,259625	2,9235	88,5888	0,261	76,289	3,5	1006,94	6,7	8,8	8,6	1	1	1	1	1	1	1	1	1	0	1	-48,837209	274,269338	272,005441	0
14.01.2021	22:27:05	0	0	3,276456	2,832	77,2128	0,267	76,282	3,5	1006,82	6,8	8,7	8,6	1	1	1	1	1	1	1	1	1	0	1	-43,340381	274,132823	276,863957	0
14.01.2021	22:27:06	0	0	2,937512	2,74875	89,73	0,264	76,268	3,5	1006,94	6,8	8,8	8,6	1	1	1	1	1	1	1	1	1	0	1	-46,441156	274,258803	274,352199	0
14.01.2021	22:27:07	0	0	2,71155	2,66325	101,8188	0,265	76,257	3,5	1006,92	6,8	8,8	8,6	1	1	1	1	1	1	1	1	1	0	1	-44,679352	274,093995	275,343612	0
14.01.2021	22:27:08	0	0	4,067325	2,5575	93,7368	0,26	76,267	3,5	1007	6,8	8,7	8,6	1	1	1	1	1	1	1	1	1	0	1	-44,397463	274,156756	275,918709	0
14.01.2021	22:27:09	0	0	3,728381	2,4045	97,4448	0,261	76,24	3,5	1006,86	6,7	8,8	8,6	1	1	1	1	1	1	1	1	1	0	1	-45,384073	274,264822	275,437446	0
14.01.2021	22:27:10	0	0	4,971175	2,4465	93,33	0,257	76,254	3,5	1006,84	6,8	8,8	8,6	1	1	1	1	1	1	1	1	1	0	1	-45,172657	274,212214	275,402779	0
14.01.2021	22:27:11	0	0	2,937512	2,5635	91,5012	0,261	76,247	3,5	1007	6,8	8,7	8,6	1	1	1	1	1	1	1	1	1	0	1	-48,343904	274,092503	271,672092	0
14.01.2021	22:27:12	0	0	2,937512	2,78025	89,712	0,254	76,244	3,5	1006,9	6,8	8,7	8,6	1	1	1	1	1	1	1	1	1	0	1	-44,96124	274,174725	275,438919	0
14.01.2021	22:27:13	0	0	2,937512	2,85075	95,814	0,26	76,244	3,5	1006,94	6,8	8,8	8,6	1	1	1	1	1	1	1	1	1	0	1	-43,410853	274,251281	277,34731	0
14.01.2021	22:27:14	0	0	2,937512	2,7675	98,7876	0,256	76,237	3,5	1006,88	6,8	8,7	8,6	1	1	1	1	1	1	1	1	1	0	1	-44,256519	274,245266	276,473503	0
14.01.2021	22:27:15	0	0	3,6154	2,6205	95,5512	0,259	76,24	3,5	1007	6,8	8,7	8,6	1	1	1	1	1	1	1	1	1	0	1	-46,018323	274,114893	274,102249	0
14.01.2021	22:27:16	0	0	4,51925	2,57925	87,372	0,261	76,224	3,5	1006,86	6,8	8,7	8,6	1	1	1	1	1	1	1	1	1	0	1	-43,481325	274,076101	276,458077	0
14.01.2021	22:27:17	0	0	2,824531	2,553	85,4928	0,257	76,207	3,5	1006,78	6,8	8,7	8,6	1	1	1	1	1	1	1	1	1	0	1	-48,062016	274,131328	272,135338	0
14.01.2021	22:27:18	0	0	2,598569	2,5335	80,514	0,257	76,202	3,5	1006,92	6,7	8,8	8,6	1	1	1	1	1	1	1	1	1	0	1	-46,370684	274,254289	274,401554	0
14.01.2021	22:27:19	0	0	2,71155	2,71725	75,6216	0,262	76,211	3,5	1007,02	6,7	8,7	8,6	1	1	1	1	1	1	1	1	1	0	1	-47,286822	274,102948	272,777958	0
14.01.2021	22:27:20	0	0	5,4231	2,77575	85,212	0,26	76,219	3,5	1006,76	6,8	8,7	8,6	1	1	1	1	1	1	1	1	1	0	1	-44,96124	274,158252	275,361927	0
14.01.2021	22:27:21	0	0	3,389437	2,76075	60,2244	0,26	76,226	3,5	1006,94	6,8	8,7	8,6	1	1	1	1	1	1	1	1	1	0	1	-44,820296	274,083555	275,153912	0
14.01.2021	22:27:22	0	0	4,51925	2,7615	66,9132	0,259	76,222	3,5	1007	6,8	8,8	8,6	1	1	1	1	1	1	1	1	1	0	1	-48,625793	274,189712	271,844428	0
14.01.2021	22:27:23	0	0	4,067325	2,72775	68,4	0,253	76,223	3,5	1006,9	6,8	8,7	8,6	1	1	1	1	1	1	1	1	1	0	1	-47,709655	274,077591	272,236707	0
14.01.2021	22:27:24	0	0	4,406268	2,6655	69,498	0,257	76,234	3,5	1006,88	6,7	8,7	8,6	1	1	1	1	1	1	1	1	1	0	1	-48,132488	274,128339	272,050899	0
14.01.2021	22:27:25	0	0	2,485587	2,66175	70,6104	0,259	76,235	3,5	1007,12	6,8	8,7	8,6	1	1	1	1	1	1	1	1	1	0	1	-41,860465	274,132823	278,343872	0
14.01.2021	22:27:26	0	0	4,180306	2,6505	84,4344	0,27	76,244	3,5	1006,98	6,7	8,7	8,6	1	1	1	1	1	1	1	1	1	0	1	-40,451022	274,243762	280,271967	0
14.01.2021	22:27:27	0	0	2,937512	2,6535	77,9544	0,254	76,239	3,5	1007,06	6,7	8,7	8,6	1	1	1	1	1	1	1	1	1	0	1	-45,59549	274,120867	274,552993	0
14.01.2021	22:27:28	0	0	3,389437	2,751	82,35	0,252	76,242	3,5	1007,1	6,7	8,8	8,6	1	1	1	1	1	1	1	1	1	0	1	-49,18957	274,254289	271,582668	0
14.01.2021	22:27:29	0	0	4,632231	3,03825	82,6056	0,256	76,243	3,5	1006,94	6,8	8,8	8,6	1	1	1	1	1	1	1	1	1	0	1	-43,269908	274,123856	276,892534	0
14.01.2021	22:27:30	0	0	4,632231	2,9415	58,1256	0,262	76,246	3,5	1006,94	6,8	8,7	8,6	1	1	1	1	1	1	1	1	1	0	1	-45,525018	274,096979	274,511882	0
14.01.2021	22:27:31	0	0	4,858193	2,7735	67,2984	0,256	76,267	3,5	1007	6,8	8,8	8,6	1	1	1	1	1	1	1	1	1	0	1	-47,21635	274,110413	272,883295	0
14.01.2021	22:27:32	0	0	2,937512	2,6295	61,704	0,263	76,276	3,5	1007,06	6,7	8,7	8,6	1	1	1	1	1	1	1	1	1	0	1	-47,56871	274,099963	272,482128	0
14.01.2021	22:27:33	0	0	2,824531	2,72625	75,6072	0,259	76,286	3,5	1006,94	6,8	8,8	8,6	1	1	1	1	1	1	1	1	1	0	1	-47,075405	274,260308	273,724989	0
14.01.2021	22:27:34	0	0	4,858193	2,93625	78,2928	0,256	76,292	3,5	1007	6,8	8,7	8,6	1	1	1	1	1	1	1	1	1	0	1	-48,273432	274,207712	272,280949	0
14.01.2021	22:27:35	0	0	4,51925	3,26325	90,792	0,258	76,295	3,5	1006,8	6,8	8,7	8,6	1	1	1	1	1	1	1	1	1	0	1	-47,427766	274,249777	273,323361	0
14.01.2021	22:27:36	0	0	4,406268	3,2835	70,2216	0,257	76,31	3,5	1006,96	6,7	8,7	8,6	1	1	1	1	1	1	1	1	1	0	1	-44,115574	274,212214	276,459862	0
14.01.2021	22:27:37	0	0	4,632231	3,35625	56,682	0,256	76,308	3,5	1006,94	6,8	8,7	8,6	1	1	1	1	1	1	1	1	1	0	1	-42,212826	274,239252	278,489066	0
14.01.2021	22:27:38	0	0	2,71155	3,37425	45,5436	0,254	76,317	3,5	1007	6,7	8,7	8,6	1	1	1	1	1	1	1	1	1	0	1	-41,719521	274,095487	278,310411	0
14.01.2021	22:27:39	0	0	5,084156	3,5265	75,2436	0,257	76,308	3,5	1006,96	6,7	8,8	8,6	1	1	1	1	1	1	1	1	1	0	1	-51,374207	274,146281	268,893017	0
14.01.2021	22:27:40	0	0	3,163475	3,73125	63,1836	0,256	76,316	3,5	1007,02	6,8	8,8	8,6	1	1	1	1	1	1	1	1	1	0	1	-43,97463	274,240755	276,734293	0
14.01.2021	22:27:41	0	0	3,276456	4,1115	80,1828	0,258	76,335	3,5	1006,94	6,7	8,7	8,6	1	1	1	1	1	1	1	1	1	0	1	-47,991543	274,191211	272,485687	0
14.01.2021	22:27:42	0	0	2,824531	4,24875	85,1904	0,251	76,345	3,5	1007,02	6,7	8,8	8,6	1	1	1	1	1	1	1	1	1	0	1	-43,340381	274,260308	277,460014	0
14.01.2021	22:27:43	0	0	3,6154	4,21725	80,5068	0,255	76,338	3,5	1006,92	6,7	8,7	8,6	1	1	1	1	1	1	1	1	1	0	1	-46,159267	274,212214	274,416169	0
14.01.2021	22:27:44	0	0	3,728381	4,2345	59,1084	0,253	76,367	3,5	1006,94	6,8	8,7	8,6	1	1	1	1	1	1	1	1	1	0	1	-46,5821	274,225728	274,056537	0
14.01.2021	22:27:45	0	0	3,728381	4,12425	55,5552	0,25	76,371	3,5	1006,9	6,7	8,7	8,6	1	1	1	1	1	1	1	1	1	0	1	-46,370684	274,252785	274,394516	0
14.01.2021	22:27:46	0	0	3,841362	4,1475	55,926	0,249	76,376	3,5	1006,98	6,7	8,7	8,6	1	1	1	1	1	1	1	1	1	0	1	-45,59549	274,246769	275,141567	0
14.01.2021	22:27:47	0	0	2,937512	4,254	61,2936	0,248	76,377	3,5	1007	6,8	8,7	8,6	1	1	1	1	1	1	1	1	1	0	1	-42,424242	274,07163	277,494283	0
14.01.2021	22:27:48	0	0	3,050494	4,17825	63,8532	0,245	76,385	3,5	1006,96	6,8	8,7	8,6	1	1	1	1	1	1	1	1	1	0	1	-44,115574	274,176223	276,291588	0
14.01.2021	22:27:49	0	0	4,971175	4,13175	62,0604	0,252	76,398	3,5	1006,92	6,7	8,7	8,6	1	1	1	1	1	1	1	1	1	0	1	-44,326991	274,07163	275,591535	0
14.01.2021	22:27:50	0	0	4,632231	4,5555	80,1468	0,251	76,408	3,5	1006,92	6,8	8,7	8,6	1	1	1	1	1	1	1	1	1	0	1	-49,330514	274,230235	271,329202	0
14.01.2021	22:27:51	0	0	3,841362	5,30925	82,3932	0,245	76,417	3,5	1006,84	6,8	8,7	8,6	1	1	1	1	1	1	1	1	1	0	1	-44,608879	274,20321	275,924453	0
14.01.2021	22:27:52	0	0	4,632231	5,406	84,0456	0,249	76,432	3,5	1006,92	6,7	8,7	8,6	1	1	1	1	1	1	1	1	1	0	1	-47,004933	274,231738	273,661811	0
14.01.2021	22:27:53	0	0	2,937512	5,241	99,1656	0,25	76,434	3,5	1006,82	6,7	8,7	8,6	1	1	1	1	1	1	1	1	1	0	1	-46,441156	274,180718	273,98702	0
14.01.2021	22:27:54	0	0	4,406268	4,75425	88,1136	0,246	76,458	3,5	1006,78	6,7	8,8	8,6	1	1	1	1	1	1	1	1	1	0	1	-43,410853	274,243762	277,312136	0
14.01.2021	22:27:55	0	0	4,180306	4,54425	82,5768	0,248	76,469	3,5	1006,9	6,8	8,7	8,6	1	1	1	1	1	1	1	1	1	0	1	-43,269908	274,165738	277,088246	0
14.01.2021	22:27:56	0	0	3,6154	5,2815	68,4144	0,247	76,477	3,5	1006,82	6,7	8,7	8,6	1	1	1	1	1	1	1	1	1	0	1	-49,612403	274,249777	271,138724	0
14.01.2021	22:27:57	0	0	3,389437	6,1005	70,8732	0,241	76,496	3,5	1006,88	6,8	8,8	8,6	1	1	1	1	1	1	1	1	1	0	1	-45,384073	274,116386	274,743475	0
14.01.2021	22:27:58	0	0	2,598569	5,77125	81,9612	0,253	76,522	3,5	1006,96	6,8	8,7	8,6	1	1	1	1	1	1	1	1	1	0	1	-45,665962	274,246769	275,071094	0
14.01.2021	22:27:59	0	0	5,084156	6,03975	78,6528	0,243	76,522	3,5	1006,96	6,7	8,8	8,6	1	1	1	1	1	1	1	1	1	0	1	-46,370684	274,168733	274,001469	0
14.01.2021	22:28:00	0	0	3,6154	6,28725	75,9708	0,249	76,553	3,5	1006,92	6,7	8,7	8,6	1	1	1	1	1	1	1	1	1	0	1	-45,172657	274,107427	274,91304	0
14.01.2021	22:28:01	0	0	3,6154	6,28725	75,9708	0,249	76,553	3,5	1006,92	6,7	8,7	8,6	1	1	1	1	1	1	1	1	1	0	1	-45,172657	274,107427	274,91304	0
14.01.2021	22:28:02	0	0	2,937512	6,49725	78,2604	0,249	76,578	3,5	1006,94	6,8	8,8	8,6	1	1	1	1	1	1	1	1	1	0	1	-45,877378	274,188213	274,585833	0
14.01.2021	22:28:03	0	0	4,745212	6,1365	77,958	0,247	76,575	3,5	1006,88	6,7	8,8	8,6	1	1	1	1	1	1	1	1	1	0	1	-45,806906	274,218219	274,796613	0
14.01.2021	22:28:04	0	0	2,598569	6,141	86,994	0,245	76,603	3,5	1006,98	6,7	8,7	8,6	1	1	1	1	1	1	1	1	1	0	1	-45,59549	274,20321	274,937842	0
14.01.2021	22:28:05	0	0	4,745212	6,18225	82,3608	0,249	76,625	3,5	1006,96	6,8	8,7	8,6	1	1	1	1	1	1	1	1	1	0	1	-46,934461	274,257298	273,851854	0
14.01.2021	22:28:06	0	0	3,163475	5,96775	95,148	0,248	76,613	3,5	1006,84	6,8	8,7	8,6	1	1	1	1	1	1	1	1	1	0	1	-43,692741	274,132823	276,511596	0
14.01.2021	22:28:07	0	0	2,937512	5,715	94,7952	0,253	76,628	3,5	1006,94	6,8	8,7	8,6	1	1	1	1	1	1	1	1	1	0	1	-50,528541	274,261812	270,278894	0
14.01.2021	22:28:08	0	0	3,728381	5,7	91,5048	0,253	76,623	3,5	1006,94	6,7	8,7	8,6	1	1	1	1	1	1	1	1	1	0	1	-47,639183	274,156756	272,67699	0
14.01.2021	22:28:09	0	0	2,824531	5,54025	91,1628	0,244	76,638	3,5	1006,98	6,7	8,7	8,6	1	1	1	1	1	1	1	1	1	0	1	-50,951374	274,092503	269,064622	0
14.01.2021	22:28:10	0	0	4,632231	5,73675	77,2128	0,25	76,643	3,5	1006,88	6,7	8,8	8,6	1	1	1	1	1	1	1	1	1	0	1	-44,256519	274,08952	275,745546	0
14.01.2021	22:28:11	0	0	4,180306	5,9685	77,5872	0,251	76,647	3,5	1006,9	6,8	8,8	8,6	1	1	1	1	1	1	1	1	1	0	1	-45,454545	274,236246	275,233285	0
14.01.2021	22:28:12	0	0	3,954344	5,88225	70,2324	0,25	76,63	3,5	1007	6,7	8,7	8,6	1	1	1	1	1	1	1	1	1	0	1	-44,538407	274,252785	276,226793	0
14.01.2021	22:28:13	0	0	3,502419	5,826	66,5352	0,251	76,622	3,5	1006,94	6,8	8,7	8,6	1	1	1	1	1	1	1	1	1	0	1	-46,300211	274,19571	274,198052	0
14.01.2021	22:28:14	0	0	3,841362	5,45325	63,1836	0,254	76,626	3,5	1007,02	6,8	8,7	8,6	1	1	1	1	1	1	1	1	1	0	1	-48,766737	274,255794	272,012539	0
14.01.2021	22:28:15	0	0	3,163475	4,8435	67,0212	0,251	76,6	3,5	1007	6,7	8,7	8,6	1	1	1	1	1	1	1	1	1	0	1	-46,370684	274,123856	273,791759	0
14.01.2021	22:28:16	0	0	4,180306	4,63575	68,7816	0,251	76,616	3,5	1006,94	6,7	8,7	8,6	1	1	1	1	1	1	1	1	1	0	1	-45,384073	274,07163	274,534452	0
14.01.2021	22:28:17	0	0	5,084156	4,24275	72,3276	0,252	76,615	3,5	1006,94	6,7	8,7	8,6	1	1	1	1	1	1	1	1	1	0	1	-46,723044	274,167235	273,642109	0
14.01.2021	22:28:18	0	0	2,824531	4,07325	62,424	0,254	76,616	3,5	1007	6,7	8,7	8,6	1	1	1	1	1	1	1	1	1	0	1	-48,062016	274,082064	271,90523	0
14.01.2021	22:28:19	0	0	4,51925	4,38825	75,9708	0,244	76,603	3,5	1006,64	6,8	8,7	8,6	1	1	1	1	1	1	1	1	1	0	1	-44,115574	274,119373	276,02593	0
14.01.2021	22:28:20	0	0	2,824531	4,86375	79,0272	0,245	76,594	3,5	1006,88	6,7	8,7	8,6	1	1	1	1	1	1	1	1	1	0	1	-49,682875	274,215217	270,906601	0
14.01.2021	22:28:21	0	0	4,51925	5,14875	81,5976	0,249	76,583	3,5	1006,98	6,8	8,7	8,6	1	1	1	1	1	1	1	1	1	0	1	-44,820296	274,239252	275,881596	0
14.01.2021	22:28:22	0	0	2,937512	5,154	72,7524	0,249	76,556	3,5	1006,92	6,8	8,7	8,6	1	1	1	1	1	1	1	1	1	0	1	-46,793517	274,14329	273,459728	0
14.01.2021	22:28:23	0	0	3,389437	5,25375	75,2328	0,251	76,559	3,5	1006,88	6,8	8,7	8,6	1	1	1	1	1	1	1	1	1	0	1	-49,048626	274,255794	271,73065	0
14.01.2021	22:28:24	0	0	4,745212	5,27925	72,288	0,244	76,554	3,5	1006,98	6,8	8,7	8,6	1	1	1	1	1	1	1	1	1	0	1	-49,18957	274,206211	271,357794	0
14.01.2021	22:28:25	0	0	4,067325	4,97475	66,9132	0,247	76,558	3,5	1006,92	6,8	8,7	8,6	1	1	1	1	1	1	1	1	1	0	1	-44,820296	274,083555	275,153912	0
14.01.2021	22:28:26	0	0	2,824531	4,66425	58,122	0,254	76,557	3,5	1006,92	6,8	8,8	8,6	1	1	1	1	1	1	1	1	1	0	1	-42,98802	274,138803	277,244261	0
14.01.2021	22:28:27	0	0	4,293287	4,386	62,802	0,25	76,551	3,5	1006,94	6,7	8,7	8,6	1	1	1	1	1	1	1	1	1	0	1	-48,696265	274,270844	272,15343	0
14.01.2021	22:28:28	0	0	4,293287	4,09875	70,2252	0,251	76,557	3,5	1006,98	6,7	8,7	8,6	1	1	1	1	1	1	1	1	1	0	1	-45,736434	274,19571	274,761829	0
14.01.2021	22:28:29	0	0	4,180306	3,813	64,2672	0,253	76,557	3,5	1006,9	6,8	8,7	8,6	1	1	1	1	1	1	1	1	1	0	1	-45,665962	274,104441	274,40579	0
14.01.2021	22:28:30	0	0	4,745212	3,48075	59,112	0,25	76,573	3,5	1006,9	6,8	8,7	8,6	1	1	1	1	1	1	1	1	1	0	1	-43,692741	274,270844	277,156954	0
14.01.2021	22:28:31	0	0	4,067325	3,27075	69,8652	0,251	76,583	3,5	1006,88	6,8	8,7	8,6	1	1	1	1	1	1	1	1	1	0	1	-46,018323	274,149273	274,262883	0
14.01.2021	22:28:32	0	0	3,728381	3,25725	68,436	0,253	76,575	3,5	1006,92	6,8	8,8	8,6	1	1	1	1	1	1	1	1	1	0	1	-47,850599	274,091012	272,158431	0
14.01.2021	22:28:33	0	0	3,276456	3,19275	79,7508	0,252	76,592	3,5	1006,96	6,8	8,8	8,6	1	1	1	1	1	1	1	1	1	0	1	-43,410853	274,221223	277,206712	0
14.01.2021	22:28:34	0	0	2,937512	3,06525	58,4928	0,251	76,594	3,5	1007,08	6,7	8,7	8,6	1	1	1	1	1	1	1	1	1	0	1	-45,525018	274,285906	275,395163	0
14.01.2021	22:28:35	0	0	4,51925	3,11325	70,2072	0,254	76,583	3,5	1006,88	6,8	8,8	8,6	1	1	1	1	1	1	1	1	1	0	1	-46,159267	274,185214	274,289928	0
14.01.2021	22:28:36	0	0	3,954344	3,4785	82,6344	0,248	76,58	3,5	1006,72	6,8	8,7	8,6	1	1	1	1	1	1	1	1	1	0	1	-44,820296	274,108919	275,272374	0
14.01.2021	22:28:37	0	0	3,502419	3,5325	65,4588	0,25	76,578	3,5	1006,78	6,8	8,7	8,6	1	1	1	1	1	1	1	1	1	0	1	-45,736434	274,20021	274,782869	0
14.01.2021	22:28:38	0	0	4,745212	3,67575	85,5252	0,252	76,593	3,5	1007	6,8	8,8	8,6	1	1	1	1	1	1	1	1	1	0	1	-46,018323	274,290427	274,923016	0
14.01.2021	22:28:39	0	0	4,971175	3,75675	82,9764	0,251	76,598	3,5	1006,9	6,7	8,7	8,6	1	1	1	1	1	1	1	1	1	0	1	-50,317125	274,228733	270,335564	0
14.01.2021	22:28:40	0	0	3,050494	3,70275	80,91	0,256	76,588	3,5	1007	6,8	8,7	8,6	1	1	1	1	1	1	1	1	1	0	1	-47,850599	274,285906	273,069582	0
14.01.2021	22:28:41	0	0	3,276456	3,8595	86,2848	0,253	76,585	3,5	1006,82	6,8	8,7	8,6	1	1	1	1	1	1	1	1	1	0	1	-46,229739	274,243762	274,493249	0
14.01.2021	22:28:42	0	0	4,51925	4,04775	84,0384	0,258	76,581	3,5	1006,84	6,8	8,8	8,6	1	1	1	1	1	1	1	1	1	0	1	-45,59549	274,27988	275,296489	0
14.01.2021	22:28:43	0	0	3,6154	4,335	74,1456	0,254	76,564	3,5	1006,92	6,8	8,7	8,6	1	1	1	1	1	1	1	1	1	0	1	-44,820296	274,236246	275,867535	0
14.01.2021	22:28:44	0	0	4,293287	4,7205	66,2148	0,257	76,568	3,5	1006,9	6,8	8,7	8,6	1	1	1	1	1	1	1	1	1	0	1	-46,229739	274,114893	273,890832	0
14.01.2021	22:28:45	0	0	4,293287	4,82775	73,4256	0,256	76,56	3,5	1006,82	6,8	8,7	8,6	1	1	1	1	1	1	1	1	1	0	1	-44,820296	274,261812	275,98714	0
14.01.2021	22:28:46	0	0	3,954344	4,66875	79,0596	0,25	76,56	3,5	1006,92	6,8	8,7	8,6	1	1	1	1	1	1	1	1	1	0	1	-46,863989	274,168733	273,508164	0
14.01.2021	22:28:47	0	0	3,163475	4,6215	69,1776	0,254	76,544	3,5	1006,96	6,8	8,7	8,6	1	1	1	1	1	1	1	1	1	0	1	-49,541931	274,294949	271,420573	0
14.01.2021	22:28:48	0	0	4,180306	4,608	60,2604	0,247	76,549	3,5	1006,92	6,8	8,7	8,6	1	1	1	1	1	1	1	1	1	0	1	-48,766737	274,228733	271,885952	0
14.01.2021	22:28:49	0	0	4,406295	4,71675	74,5632	0,257	76,537	3,5	1006,92	6,8	8,8	8,5	1	1	1	1	1	1	1	1	1	0	1	-46,5821	274,281386	274,316928	0
14.01.2021	22:28:50	0	0	3,276456	4,58625	88,5888	0,253	76,524	3,5	1006,88	6,8	8,7	8,6	1	1	1	1	1	1	1	1	1	0	1	-47,075405	274,290427	273,865934	0
14.01.2021	22:28:51	0	0	4,51925	4,65075	82,0368	0,257	76,526	3,5	1007,04	6,8	8,7	8,6	1	1	1	1	1	1	1	1	1	0	1	-44,749824	274,23324	275,923948	0
14.01.2021	22:28:52	0	0	3,954344	4,581	91,5228	0,258	76,521	3,5	1007	6,8	8,7	8,6	1	1	1	1	1	1	1	1	1	0	1	-47,21635	274,242259	273,499606	0
14.01.2021	22:28:53	0	0	2,824531	4,18575	80,1252	0,257	76,514	3,5	1006,96	6,8	8,8	8,6	1	1	1	1	1	1	1	1	1	0	1	-45,384073	274,30098	275,60666	0
14.01.2021	22:28:54	0	0	4,745212	4,038	90,7992	0,279	76,515	3,5	1007,16	6,8	8,7	8,6	1	1	1	1	1	1	1	1	1	0	1	-47,21635	274,173227	273,176807	0
14.01.2021	22:28:55	0	0	4,293287	3,91425	98,424	0,257	76,533	3,5	1006,96	6,8	8,7	8,6	1	1	1	1	1	1	1	1	1	0	1	-46,300211	274,302488	274,69758	0
14.01.2021	22:28:56	0	0	3,954344	3,819	87,3792	0,253	76,527	3,5	1006,78	6,8	8,7	8,6	1	1	1	1	1	1	1	1	1	0	1	-49,119098	274,188213	271,344113	0
14.01.2021	22:28:57	0	0	3,163475	3,87375	65,0952	0,258	76,511	3,5	1007	6,8	8,8	8,6	1	1	1	1	1	1	1	1	1	0	1	-45,736434	274,113399	274,377161	0
14.01.2021	22:28:58	0	0	4,632231	4,43175	71,6328	0,253	76,506	3,5	1006,94	6,8	8,7	8,6	1	1	1	1	1	1	1	1	1	0	1	-44,96124	274,269338	275,88141	0
14.01.2021	22:28:59	0	0	2,485587	4,45875	66,2292	0,254	76,522	3,5	1006,96	6,8	8,7	8,6	1	1	1	1	1	1	1	1	1	0	1	-48,696265	274,278374	272,188664	0
14.01.2021	22:29:00	0	0	2,71155	3,92775	69,8472	0,261	76,504	3,5	1006,92	6,8	8,7	8,6	1	1	1	1	1	1	1	1	1	0	1	-43,904158	274,149273	276,377048	0
14.01.2021	22:29:01	0	0	2,71155	3,92775	69,8472	0,261	76,504	3,5	1006,92	6,8	8,7	8,6	1	1	1	1	1	1	1	1	1	0	1	-43,904158	274,149273	276,377048	0
14.01.2021	22:29:02	0	0	4,745212	3,66225	81,9612	0,255	76,506	3,5	1007,08	6,8	8,7	8,6	1	1	1	1	1	1	1	1	1	0	1	-45,59549	274,281386	275,303538	0
14.01.2021	22:29:03	0	0	3,389437	3,53925	75,2292	0,257	76,513	3,5	1007,04	6,8	8,7	8,6	1	1	1	1	1	1	1	1	1	0	1	-45,172657	274,137308	275,052637	0
14.01.2021	22:29:04	0	0	3,6154	3,32775	81,6192	0,259	76,533	3,5	1006,84	6,8	8,7	8,6	1	1	1	1	1	1	1	1	1	0	1	-51,726568	274,291934	269,221825	0
14.01.2021	22:29:05	0	0	2,485587	3,162	86,994	0,261	76,517	3,5	1007,14	6,8	8,8	8,6	1	1	1	1	1	1	1	1	1	0	1	-46,300211	274,170231	274,078942	0
14.01.2021	22:29:06	0	0	2,824531	3,27975	80,91	0,255	76,522	3,5	1006,84	6,8	8,7	8,6	1	1	1	1	1	1	1	1	1	0	1	-48,766737	274,120867	271,381746	0
14.01.2021	22:29:07	0	0	4,632231	3,081	77,2272	0,259	76,514	3,5	1006,98	6,8	8,8	8,6	1	1	1	1	1	1	1	1	1	0	1	-48,696265	274,204711	271,844083	0
14.01.2021	22:29:08	0	0	2,372606	3,2025	85,9068	0,263	76,518	3,5	1007,06	6,8	8,7	8,6	1	1	1	1	1	1	1	1	1	0	1	-48,062016	274,120867	272,086467	0
14.01.2021	22:29:09	0	0	4,745212	3,186	96,2136	0,256	76,528	3,5	1006,8	6,8	8,7	8,6	1	1	1	1	1	1	1	1	1	0	1	-47,56871	274,225728	273,069927	0
14.01.2021	22:29:10	0	0	4,406268	3,3105	105,5376	0,259	76,511	3,5	1007,06	6,8	8,7	8,6	1	1	1	1	1	1	1	1	1	0	1	-44,045102	274,120867	276,103381	0
14.01.2021	22:29:11	0	0	5,084156	3,2415	96,228	0,263	76,522	3,5	1007,02	6,8	8,8	8,6	1	1	1	1	1	1	1	1	1	0	1	-47,921071	274,252785	272,844129	0
14.01.2021	22:29:12	0	0	3,163475	3,0165	92,9664	0,261	76,5	3,5	1007,04	6,8	8,7	8,6	1	1	1	1	1	1	1	1	1	0	1	-45,031712	274,294949	275,930791	0
14.01.2021	22:29:13	0	0	5,197137	3,08325	90,0504	0,263	76,515	3,5	1006,82	6,8	8,8	8,6	1	1	1	1	1	1	1	1	1	0	1	-42,494715	274,218219	278,108804	0
14.01.2021	22:29:14	0	0	4,51925	3,42975	63,8784	0,258	76,488	3,5	1006,96	6,8	8,8	8,6	1	1	1	1	1	1	1	1	1	0	1	-47,780127	274,273855	273,08366	0
14.01.2021	22:29:15	0	0	2,824531	3,94875	82,9836	0,267	76,493	3,5	1006,98	6,8	8,7	8,6	1	1	1	1	1	1	1	1	1	0	1	-45,736434	274,15077	274,551764	0
14.01.2021	22:29:16	0	0	2,71155	4,17375	97,7148	0,26	76,467	3,5	1006,9	6,8	8,7	8,6	1	1	1	1	1	1	1	1	1	0	1	-44,679352	274,281386	276,219676	0
14.01.2021	22:29:17	0	0	4,971175	4,12725	102,9528	0,266	76,458	3,5	1007,06	6,8	8,7	8,6	1	1	1	1	1	1	1	1	1	0	1	-45,172657	274,290427	275,768682	0
14.01.2021	22:29:18	0	0	4,293287	3,807	105,138	0,263	76,448	3,5	1006,94	6,8	8,8	8,6	1	1	1	1	1	1	1	1	1	0	1	-45,877378	274,284399	275,035751	0
14.01.2021	22:29:19	0	0	3,050494	3,62175	108,1512	0,266	76,435	3,5	1006,92	6,8	8,8	8,6	1	1	1	1	1	1	1	1	1	0	1	-46,370684	274,159749	273,95948	0
14.01.2021	22:29:20	0	0	4,406268	3,82875	95,1588	0,27	76,408	3,5	1006,78	6,8	8,7	8,6	1	1	1	1	1	1	1	1	1	0	1	-45,59549	274,176223	274,811672	0
14.01.2021	22:29:21	0	0	4,406268	3,6615	105,1308	0,266	76,395	3,5	1006,9	6,8	8,7	8,6	1	1	1	1	1	1	1	1	1	0	1	-48,062016	274,299472	272,921659	0
14.01.2021	22:29:22	0	0	3,050494	3,59475	92,2392	0,265	76,388	3,5	1006,86	6,8	8,8	8,6	1	1	1	1	1	1	1	1	1	0	1	-45,736434	274,173227	274,656722	0
14.01.2021	22:29:23	0	0	2,598569	3,7065	89,3448	0,261	76,37	3,5	1006,7	6,8	8,8	8,6	1	1	1	1	1	1	1	1	1	0	1	-43,904158	274,12535	276,265266	0
14.01.2021	22:29:24	0	0	4,293287	4,0245	80,5248	0,259	76,357	3,5	1006,86	6,8	8,8	8,6	1	1	1	1	1	1	1	1	1	0	1	-46,723044	274,167235	273,642109	0
14.01.2021	22:29:25	0	0	4,067325	3,918	65,8332	0,264	76,335	3,5	1006,88	6,8	8,8	8,6	1	1	1	1	1	1	1	1	1	0	1	-44,467935	274,135813	275,750372	0
14.01.2021	22:29:26	0	0	4,858193	3,9705	67,6728	0,266	76,341	3,5	1007,04	6,8	8,7	8,6	1	1	1	1	1	1	1	1	1	0	1	-47,357294	274,218219	273,246225	0
14.01.2021	22:29:27	0	0	2,824531	4,407	75,2472	0,262	76,327	3,5	1007,08	6,8	8,8	8,6	1	1	1	1	1	1	1	1	1	0	1	-44,608879	274,114893	275,511692	0
14.01.2021	22:29:28	0	0	2,824531	4,46775	67,3776	0,268	76,315	3,5	1007,02	6,8	8,7	8,6	1	1	1	1	1	1	1	1	1	0	1	-47,991543	274,297964	272,985074	0
14.01.2021	22:29:29	0	0	4,51925	4,4325	65,4804	0,266	76,323	3,5	1007,1	6,8	8,7	8,6	1	1	1	1	1	1	1	1	1	0	1	-44,115574	274,123856	276,046868	0
14.01.2021	22:29:30	0	0	4,180306	4,5855	65,07	0,267	76,307	3,5	1007,12	6,8	8,8	8,6	1	1	1	1	1	1	1	1	1	0	1	-47,780127	274,266328	273,048435	0
14.01.2021	22:29:31	0	0	4,51925	4,75425	66,2364	0,259	76,305	3,5	1007,06	6,8	8,7	8,6	1	1	1	1	1	1	1	1	1	0	1	-45,102185	274,245266	275,627837	0
14.01.2021	22:29:32	0	0	2,824531	5,14875	73,5264	0,261	76,305	3,5	1007,02	6,8	8,7	8,6	1	1	1	1	1	1	1	1	1	0	1	-47,639183	274,120867	272,5093	0
14.01.2021	22:29:33	0	0	3,954344	5,1015	61,6968	0,259	76,294	3,5	1006,84	6,8	8,8	8,6	1	1	1	1	1	1	1	1	1	0	1	-44,820296	274,132823	275,384041	0
14.01.2021	22:29:34	0	0	4,293287	5,31825	64,6164	0,267	76,3	3,5	1007	6,8	8,7	8,6	1	1	1	1	1	1	1	1	1	0	1	-46,793517	274,167235	273,571637	0
14.01.2021	22:29:35	0	0	2,937512	5,07975	78,2316	0,265	76,297	3,5	1006,98	6,8	8,7	8,6	1	1	1	1	1	1	1	1	1	0	1	-44,326991	274,31003	276,706105	0
14.01.2021	22:29:36	0	0	3,841362	4,87425	67,266	0,26	76,295	3,5	1006,88	6,8	8,8	8,6	1	1	1	1	1	1	1	1	1	0	1	-45,454545	274,177721	274,959621	0
14.01.2021	22:29:37	0	0	4,745212	4,6485	71,2332	0,266	76,304	3,5	1007,02	6,8	8,8	8,6	1	1	1	1	1	1	1	1	1	0	1	-41,789993	274,284399	279,123136	0
14.01.2021	22:29:38	0	0	3,728381	4,506	64,6164	0,269	76,306	3,5	1007	6,8	8,8	8,6	1	1	1	1	1	1	1	1	1	0	1	-43,551797	274,252785	277,213403	0
14.01.2021	22:29:39	0	0	4,293287	4,2675	71,9856	0,272	76,315	3,5	1006,9	6,8	8,8	8,6	1	1	1	1	1	1	1	1	1	0	1	-47,56871	274,308521	273,457324	0
14.01.2021	22:29:40	0	0	4,632231	3,93825	78,2604	0,26	76,298	3,5	1006,88	6,8	8,8	8,6	1	1	1	1	1	1	1	1	1	0	1	-46,511628	274,186713	273,944575	0
14.01.2021	22:29:41	0	0	4,632231	3,42675	73,4256	0,265	76,312	3,5	1006,98	6,8	8,7	8,6	1	1	1	1	1	1	1	1	1	0	1	-47,21635	274,308521	273,809685	0
14.01.2021	22:29:42	0	0	4,51925	3,303	79,3944	0,257	76,313	3,5	1006,76	6,8	8,7	8,6	1	1	1	1	1	1	1	1	1	0	1	-42,424242	274,191211	278,052988	0
14.01.2021	22:29:43	0	0	3,6154	3,22125	66,996	0,267	76,319	3,5	1006,98	6,8	8,7	8,6	1	1	1	1	1	1	1	1	1	0	1	-48,555321	274,290427	272,386019	0
14.01.2021	22:29:44	0	0	3,841362	3,2475	70,8588	0,267	76,322	3,5	1006,94	6,8	8,8	8,6	1	1	1	1	1	1	1	1	1	0	1	-47,921071	274,269338	272,921579	0
14.01.2021	22:29:45	0	0	3,6154	3,8205	57,4236	0,264	76,325	3,5	1006,96	6,8	8,8	8,6	1	1	1	1	1	1	1	1	1	0	1	-47,427766	274,30098	273,562967	0
14.01.2021	22:29:46	0	0	4,632231	4,2015	65,5488	0,265	76,324	3,5	1007,06	6,8	8,8	8,6	1	1	1	1	1	1	1	1	1	0	1	-42,142354	274,278374	278,742576	0
14.01.2021	22:29:47	0	0	4,293287	4,18125	84,4272	0,267	76,322	3,5	1006,94	6,8	8,7	8,6	1	1	1	1	1	1	1	1	1	0	1	-45,806906	274,282893	275,099172	0
14.01.2021	22:29:48	0	0	2,485587	4,79775	56,6748	0,263	76,317	3,5	1006,82	6,8	8,7	8,6	1	1	1	1	1	1	1	1	1	0	1	-46,934461	274,156756	273,381712	0
14.01.2021	22:29:49	0	0	4,632231	5,7705	51,7284	0,269	76,35	3,5	1007,06	6,8	8,7	8,6	1	1	1	1	1	1	1	1	1	0	1	-48,484848	274,251281	272,273315	0
14.01.2021	22:29:50	0	0	4,51925	6,4455	58,4856	0,258	76,34	3,5	1006,78	6,8	8,8	8,6	1	1	1	1	1	1	1	1	1	0	1	-45,525018	274,132823	274,67932	0
14.01.2021	22:29:51	0	0	4,406268	6,4125	60,9444	0,264	76,349	3,5	1006,84	6,8	8,8	8,6	1	1	1	1	1	1	1	1	1	0	1	-44,679352	274,281386	276,219676	0
14.01.2021	22:29:52	0	0	2,372606	6,02175	67,284	0,268	76,367	3,5	1007	6,8	8,7	8,6	1	1	1	1	1	1	1	1	1	0	1	-49,753347	274,132823	270,45099	0
14.01.2021	22:29:53	0	0	4,067325	5,90325	57,0312	0,262	76,374	3,5	1007,02	6,8	8,7	8,6	1	1	1	1	1	1	1	1	1	0	1	-51,726568	274,245266	269,003454	0
14.01.2021	22:29:54	0	0	2,485587	6,92475	70,2252	0,259	76,389	3,5	1006,82	6,8	8,8	8,6	1	1	1	1	1	1	1	1	1	0	1	-44,186047	274,294949	276,776457	0
14.01.2021	22:29:55	0	0	4,51925	7,2855	65,8512	0,268	76,394	3,5	1006,82	6,8	8,8	8,6	1	1	1	1	1	1	1	1	1	0	1	-41,226216	274,123856	278,936227	0
14.01.2021	22:29:56	0	0	4,745212	6,90375	55,566	0,262	76,405	3,5	1006,9	6,8	8,7	8,6	1	1	1	1	1	1	1	1	1	0	1	-43,269908	274,212214	277,305528	0
14.01.2021	22:29:57	0	0	3,6154	6,58125	51,8328	0,263	76,407	3,5	1006,96	6,8	8,8	8,6	1	1	1	1	1	1	1	1	1	0	1	-40,944327	274,134318	279,266995	0
14.01.2021	22:29:58	0	0	4,858193	5,727	55,9584	0,26	76,405	3,5	1006,92	6,8	8,8	8,6	1	1	1	1	1	1	1	1	1	0	1	-45,806906	274,188213	274,656305	0
14.01.2021	22:29:59	0	0	3,502419	5,16525	53,748	0,267	76,425	3,5	1007	6,8	8,8	8,6	1	1	1	1	1	1	1	1	1	0	1	-45,454545	274,294949	275,507958	0
14.01.2021	22:30:00	0	0	4,293287	3,85575	48,8268	0,27	76,439	3,5	1006,92	6,8	8,8	8,6	1	1	1	1	1	1	1	1	1	0	1	-45,313601	274,126844	274,862804	0
14.01.2021	22:30:01	0	0	3,841362	3,633	54,09	0,267	76,441	3,5	1006,86	6,8	8,8	8,6	1	1	1	1	1	1	1	1	1	0	1	-45,313601	274,126844	274,862804	0
14.01.2021	22:30:02	0	0	3,841362	3,633	54,09	0,267	76,441	3,5	1006,86	6,8	8,8	8,6	1	1	1	1	1	1	1	1	1	0	1	-48,343904	274,260308	272,45649	0
14.01.2021	22:30:03	0	0	2,824531	4,0545	70,848	0,264	76,459	3,5	1006,92	6,8	8,8	8,6	1	1	1	1	1	1	1	1	1	0	1	-47,21635	274,317575	273,852068	0
14.01.2021	22:30:04	0	0	4,406268	4,66725	86,9544	0,268	76,439	3,5	1006,84	6,8	8,7	8,6	1	1	1	1	1	1	1	1	1	0	1	-45,877378	274,183716	274,56481	0
14.01.2021	22:30:05	0	0	3,728381	5,3235	80,622	0,267	76,453	3,5	1007,16	6,8	8,7	8,6	1	1	1	1	1	1	1	1	1	0	1	-48,837209	274,311538	272,20295	0
14.01.2021	22:30:06	0	0	4,067325	5,23575	73,0584	0,271	76,447	3,5	1007,02	6,8	8,8	8,6	1	1	1	1	1	1	1	1	1	0	1	-46,088795	274,296456	274,880765	0
14.01.2021	22:30:07	0	0	3,276456	4,56375	81,9612	0,266	76,452	3,5	1006,94	6,8	8,8	8,6	1	1	1	1	1	1	1	1	1	0	1	-44,045102	274,275361	276,825731	0
14.01.2021	22:30:08	0	0	3,841385	4,125	91,5048	0,27	76,446	3,5	1006,9	6,8	8,8	8,5	1	1	1	1	1	1	1	1	1	0	1	-44,679352	274,134318	275,531971	0
14.01.2021	22:30:09	0	0	4,632231	3,7515	84,402	0,264	76,445	3,5	1006,94	6,8	8,7	8,6	1	1	1	1	1	1	1	1	1	0	1	-47,921071	274,255794	272,858205	0
14.01.2021	22:30:10	0	0	4,632231	3,378	106,2828	0,27	76,437	3,5	1007	6,8	8,7	8,6	1	1	1	1	1	1	1	1	1	0	1	-44,749824	274,248273	275,994267	0
14.01.2021	22:30:11	0	0	4,293287	3,045	73,0476	0,271	76,427	3,5	1006,88	6,8	8,8	8,6	1	1	1	1	1	1	1	1	1	0	1	-47,498238	274,296456	273,471322	0
14.01.2021	22:30:12	0	0	4,745212	2,9685	73,0548	0,264	76,402	3,5	1006,96	6,8	8,7	8,6	1	1	1	1	1	1	1	1	1	0	1	-45,313601	274,185214	275,135594	0
14.01.2021	22:30:13	0	0	2,71155	3,26025	80,91	0,271	76,413	3,5	1006,98	6,8	8,8	8,6	1	1	1	1	1	1	1	1	1	0	1	-44,326991	274,302488	276,670801	0
14.01.2021	22:30:14	0	0	3,276456	3,489	70,8732	0,263	76,382	3,5	1006,86	6,8	8,7	8,6	1	1	1	1	1	1	1	1	1	0	1	-44,890768	274,167235	275,474385	0
14.01.2021	22:30:15	0	0	3,050494	4,068	86,9904	0,267	76,391	3,5	1007	6,8	8,8	8,6	1	1	1	1	1	1	1	1	1	0	1	-45,102185	274,134318	275,109138	0
14.01.2021	22:30:16	0	0	4,067325	4,34325	94,482	0,272	76,374	3,5	1006,92	6,8	8,7	8,6	1	1	1	1	1	1	1	1	1	0	1	-46,300211	274,27988	274,591767	0
14.01.2021	22:30:17	0	0	4,067325	4,1985	92,9412	0,269	76,363	3,5	1006,96	6,8	8,8	8,6	1	1	1	1	1	1	1	1	1	0	1	-46,5821	274,249777	274,169027	0
14.01.2021	22:30:18	0	0	4,745212	4,3515	82,3392	0,274	76,354	3,5	1006,92	6,8	8,8	8,6	1	1	1	1	1	1	1	1	1	0	1	-44,115574	274,114893	276,004997	0
14.01.2021	22:30:19	0	0	2,259625	4,5495	79,0092	0,27	76,353	3,5	1006,98	6,8	8,8	8,6	1	1	1	1	1	1	1	1	1	0	1	-46,441156	274,158252	273,882012	0
14.01.2021	22:30:20	0	0	4,745212	4,43175	88,9524	0,274	76,348	3,5	1007,04	6,8	8,8	8,6	1	1	1	1	1	1	1	1	1	0	1	-43,481325	274,290427	277,460014	0
14.01.2021	22:30:21	0	0	4,971175	4,311	90,396	0,27	76,351	3,5	1007,02	6,8	8,8	8,6	1	1	1	1	1	1	1	1	1	0	1	-42,494715	274,30098	278,496018	0
14.01.2021	22:30:22	0	0	2,485587	3,909	104,4252	0,267	76,364	3,5	1006,82	6,8	8,8	8,6	1	1	1	1	1	1	1	1	1	0	1	-43,833686	274,158252	276,489482	0
14.01.2021	22:30:23	0	0	3,050494	3,97575	102,9312	0,269	76,353	3,5	1006,76	6,8	8,8	8,6	1	1	1	1	1	1	1	1	1	0	1	-44,749824	274,155259	275,559354	0
14.01.2021	22:30:24	0	0	3,841362	4,49625	88,9524	0,272	76,377	3,5	1006,92	6,8	8,7	8,6	1	1	1	1	1	1	1	1	1	0	1	-47,639183	274,251281	273,118981	0
14.01.2021	22:30:25	0	0	4,745212	4,7175	94,1076	0,271	76,369	3,5	1006,9	6,8	8,7	8,6	1	1	1	1	1	1	1	1	1	0	1	-42,494715	274,137308	277,730579	0
14.01.2021	22:30:26	0	0	3,050494	4,401	93,7116	0,294	76,38	3,5	1007,06	6,8	8,8	8,6	1	1	1	1	1	1	1	1	1	0	1	-41,860465	274,260308	278,93993	0
14.01.2021	22:30:27	0	0	4,632231	4,04775	111,8412	0,271	76,396	3,5	1006,9	6,8	8,8	8,6	1	1	1	1	1	1	1	1	1	0	1	-40,803383	274,12535	279,366041	0
14.01.2021	22:30:28	0	0	3,389437	3,83625	125,0532	0,27	76,4	3,5	1007,02	6,8	8,8	8,6	1	1	1	1	1	1	1	1	1	0	1	-42,917548	274,180718	277,510628	0
14.01.2021	22:30:29	0	0	4,971175	3,6675	104,0688	0,273	76,41	3,5	1006,84	6,8	8,7	8,6	1	1	1	1	1	1	1	1	1	0	1	-43,340381	274,290427	277,600959	0
14.01.2021	22:30:30	0	0	3,954344	3,58725	88,5456	0,273	76,393	3,5	1007	6,8	8,7	8,6	1	1	1	1	1	1	1	1	1	0	1	-44,538407	274,147777	275,735807	0
14.01.2021	22:30:31	0	0	3,502419	3,65775	122,0184	0,27	76,403	3,5	1006,96	6,8	8,8	8,6	1	1	1	1	1	1	1	1	1	0	1	-45,172657	274,248273	275,571435	0
14.01.2021	22:30:32	0	0	3,502419	3,81375	102,5712	0,27	76,389	3,5	1006,9	6,8	8,8	8,6	1	1	1	1	1	1	1	1	1	0	1	-46,229739	274,258803	274,563615	0
14.01.2021	22:30:33	0	0	4,858193	4,002	105,1416	0,272	76,374	3,5	1007,04	6,8	8,8	8,6	1	1	1	1	1	1	1	1	1	0	1	-43,551797	274,159749	276,778367	0
14.01.2021	22:30:34	0	0	4,745212	3,82875	105,1524	0,27	76,37	3,5	1006,92	6,8	8,8	8,6	1	1	1	1	1	1	1	1	1	0	1	-46,652572	274,293441	274,302876	0
14.01.2021	22:30:35	0	0	3,841362	3,5865	108,1224	0,267	76,367	3,5	1006,92	6,8	8,7	8,6	1	1	1	1	1	1	1	1	1	0	1	-46,723044	274,260308	274,07735	0
14.01.2021	22:30:36	0	0	3,389437	3,6555	102,942	0,27	76,367	3,5	1007,16	6,8	8,8	8,6	1	1	1	1	1	1	1	1	1	0	1	-44,326991	274,305504	276,684921	0
14.01.2021	22:30:37	0	0	3,502419	3,68025	95,5152	0,271	76,354	3,5	1006,98	6,8	8,7	8,6	1	1	1	1	1	1	1	1	1	0	1	-46,511628	274,191211	273,965602	0
14.01.2021	22:30:38	0	0	4,180306	3,741	108,1296	0,274	76,355	3,5	1006,84	6,8	8,8	8,6	1	1	1	1	1	1	1	1	1	0	1	-45,59549	274,30098	275,395243	0
14.01.2021	22:30:39	0	0	4,293287	3,5865	101,7936	0,271	76,344	3,5	1006,9	6,8	8,8	8,6	1	1	1	1	1	1	1	1	1	0	1	-43,904158	274,108919	276,188513	0
14.01.2021	22:30:40	0	0	3,6154	3,17325	78,0012	0,274	76,336	3,5	1006,9	6,8	8,8	8,6	1	1	1	1	1	1	1	1	1	0	1	-45,59549	274,212214	274,979946	0
14.01.2021	22:30:41	0	0	2,824531	3,32025	81,5868	0,272	76,331	3,5	1007,08	6,8	8,8	8,6	1	1	1	1	1	1	1	1	1	0	1	-45,172657	274,293441	275,782792	0
14.01.2021	22:30:42	0	0	4,293287	3,705	81,198	0,273	76,335	3,5	1007,14	6,8	8,8	8,6	1	1	1	1	1	1	1	1	1	0	1	-44,256519	274,242259	276,459437	0
14.01.2021	22:30:43	0	0	4,632231	4,233	81,9612	0,278	76,328	3,5	1006,9	6,8	8,7	8,6	1	1	1	1	1	1	1	1	1	0	1	-42,424242	274,297964	278,552375	0
14.01.2021	22:30:44	0	0	2,824531	4,35375	94,086	0,276	76,341	3,5	1007,02	6,8	8,8	8,6	1	1	1	1	1	1	1	1	1	0	1	-40,098661	274,158252	280,224507	0
14.01.2021	22:30:45	0	0	4,745212	4,52175	87,4368	0,271	76,33	3,5	1007,18	6,8	8,8	8,6	1	1	1	1	1	1	1	1	1	0	1	-45,313601	274,122361	274,841861	0
14.01.2021	22:30:46	0	0	4,858193	4,47225	82,3464	0,27	76,318	3,5	1006,8	6,8	8,8	8,6	1	1	1	1	1	1	1	1	1	0	1	-46,934461	274,260308	273,865934	0
14.01.2021	22:30:47	0	0	3,163475	4,188	84,4488	0,276	76,323	3,5	1006,96	6,8	8,8	8,6	1	1	1	1	1	1	1	1	1	0	1	-42,071882	274,110413	278,027763	0
14.01.2021	22:30:48	0	0	4,51925	3,9345	77,1876	0,271	76,331	3,5	1007,08	6,8	8,8	8,6	1	1	1	1	1	1	1	1	1	0	1	-44,186047	274,282893	276,720032	0
14.01.2021	22:30:49	0	0	3,6154	3,72225	79,1532	0,271	76,327	3,5	1006,74	6,8	8,8	8,6	1	1	1	1	1	1	1	1	1	0	1	-44,397463	274,293441	276,557985	0
14.01.2021	22:30:50	0	0	4,51925	3,6465	79,7652	0,273	76,334	3,5	1006,84	6,8	8,8	8,6	1	1	1	1	1	1	1	1	1	0	1	-47,427766	274,294949	273,534738	0
14.01.2021	22:30:51	0	0	4,858193	3,45	81,2232	0,271	76,341	3,5	1007,04	6,8	8,7	8,6	1	1	1	1	1	1	1	1	1	0	1	-46,370684	274,180718	274,057492	0
14.01.2021	22:30:52	0	0	3,163475	3,25425	86,9688	0,274	76,321	3,5	1007,04	6,8	8,8	8,6	1	1	1	1	1	1	1	1	1	0	1	-45,525018	274,119373	274,616487	0
14.01.2021	22:30:53	0	0	3,276456	2,973	71,9712	0,272	76,329	3,5	1006,72	6,8	8,8	8,6	1	1	1	1	1	1	1	1	1	0	1	-45,384073	274,156756	274,932099	0
14.01.2021	22:30:54	0	0	4,51925	2,961	75,9996	0,268	76,322	3,5	1007,04	6,8	8,8	8,6	1	1	1	1	1	1	1	1	1	0	1	-47,427766	274,285906	273,492415	0
14.01.2021	22:30:55	0	0	4,745212	3,17325	76,842	0,271	76,341	3,5	1007,04	6,8	8,8	8,6	1	1	1	1	1	1	1	1	1	0	1	-50,669486	274,260308	270,130909	0
14.01.2021	22:30:56	0	0	4,180306	3,525	70,2252	0,269	76,347	3,5	1007,02	6,8	8,7	8,6	1	1	1	1	1	1	1	1	1	0	1	-44,608879	274,113399	275,504716	0
14.01.2021	22:30:57	0	0	2,598569	3,5895	70,6068	0,271	76,347	3,5	1007	6,8	8,8	8,6	1	1	1	1	1	1	1	1	1	0	1	-42,847075	274,246769	277,889981	0
14.01.2021	22:30:58	0	0	4,51925	3,63675	71,2404	0,272	76,358	3,5	1006,88	6,8	8,8	8,6	1	1	1	1	1	1	1	1	1	0	1	-44,326991	274,273855	276,536796	0
14.01.2021	22:30:59	0	0	3,954344	3,684	70,6212	0,268	76,345	3,5	1006,94	6,8	8,8	8,6	1	1	1	1	1	1	1	1	1	0	1	-44,256519	274,269338	276,586131	0
14.01.2021	22:31:00	0	0	4,180306	3,65175	70,5888	0,275	76,373	3,5	1007,1	6,8	8,8	8,6	1	1	1	1	1	1	1	1	1	0	1	-42,98802	274,122361	277,167443	0
14.01.2021	22:31:01	0	0	4,745212	3,441	70,8408	0,274	76,385	3,5	1006,96	6,8	8,7	8,6	1	1	1	1	1	1	1	1	1	0	1	-44,96124	274,213715	275,621216	0
14.01.2021	22:31:02	0	0	4,745212	3,441	70,8408	0,274	76,385	3,5	1006,96	6,8	8,7	8,6	1	1	1	1	1	1	1	1	1	0	1	-44,96124	274,213715	275,621216	0
14.01.2021	22:31:03	0	0	3,163475	3,23775	86,274	0,277	76,397	3,5	1006,98	6,8	8,8	8,6	1	1	1	1	1	1	1	1	1	0	1	-44,326991	274,107427	275,758706	0
14.01.2021	22:31:04	0	0	3,954344	3,00225	86,6592	0,275	76,392	3,5	1006,98	6,8	8,7	8,6	1	1	1	1	1	1	1	1	1	0	1	-42,847075	274,182217	277,588106	0
14.01.2021	22:31:05	0	0	2,824531	2,97975	77,2308	0,272	76,389	3,5	1006,9	6,8	8,8	8,6	1	1	1	1	1	1	1	1	1	0	1	-48,484848	274,108919	271,607822	0
14.01.2021	22:31:06	0	0	2,033662	3,00975	81,2124	0,273	76,404	3,5	1006,98	6,8	8,7	8,6	1	1	1	1	1	1	1	1	1	0	1	-42,847075	274,170231	277,532078	0
14.01.2021	22:31:07	0	0	2,485587	3,09825	79,4196	0,269	76,402	3,5	1006,9	6,8	8,8	8,6	1	1	1	1	1	1	1	1	1	0	1	-44,256519	274,267833	276,579087	0
14.01.2021	22:31:08	0	0	2,824531	3,1155	81,5976	0,272	76,406	3,5	1007,04	6,8	8,7	8,6	1	1	1	1	1	1	1	1	1	0	1	-44,890768	274,141794	275,355488	0
14.01.2021	22:31:09	0	0	4,067325	3,01575	60,9336	0,271	76,402	3,5	1007,04	6,8	8,8	8,6	1	1	1	1	1	1	1	1	1	0	1	-47,850599	274,153762	272,451585	0
14.01.2021	22:31:10	0	0	4,632231	2,95125	67,284	0,269	76,397	3,5	1006,94	6,8	8,8	8,6	1	1	1	1	1	1	1	1	1	0	1	-40,803383	274,098471	279,240486	0
14.01.2021	22:31:11	0	0	3,163475	3,02925	60,2316	0,274	76,4	3,5	1007,14	6,8	8,8	8,6	1	1	1	1	1	1	1	1	1	0	1	-45,384073	274,210713	275,184344	0
14.01.2021	22:31:12	0	0	2,259625	3,069	55,9368	0,273	76,405	3,5	1006,82	6,8	8,8	8,6	1	1	1	1	1	1	1	1	1	0	1	-45,525018	274,098471	274,518851	0
14.01.2021	22:31:13	0	0	2,937512	3,1035	60,2244	0,269	76,392	3,5	1006,98	6,8	8,7	8,6	1	1	1	1	1	1	1	1	1	0	1	-50,951374	274,19871	269,560915	0
14.01.2021	22:31:14	0	0	4,745212	3,168	61,3044	0,266	76,391	3,5	1007,04	6,8	8,8	8,6	1	1	1	1	1	1	1	1	1	0	1	-47,21635	274,296456	273,753211	0
14.01.2021	22:31:15	0	0	2,937512	3,36975	50,3244	0,263	76,397	3,5	1006,9	6,8	8,7	8,6	1	1	1	1	1	1	1	1	1	0	1	-44,115574	274,219721	276,494967	0
14.01.2021	22:31:16	0	0	3,954344	3,3435	48,5064	0,263	76,382	3,5	1006,92	6,8	8,7	8,6	1	1	1	1	1	1	1	1	1	0	1	-43,763214	274,278374	277,121716	0
14.01.2021	22:31:17	0	0	2,598569	3,2445	64,2384	0,271	76,375	3,5	1006,92	6,8	8,7	8,6	1	1	1	1	1	1	1	1	1	0	1	-42,212826	274,165738	278,145328	0
14.01.2021	22:31:18	0	0	3,6154	3,108	61,326	0,273	76,38	3,5	1006,88	6,8	8,8	8,6	1	1	1	1	1	1	1	1	1	0	1	-42,917548	274,27988	277,974431	0
14.01.2021	22:31:19	0	0	4,180306	3,03375	59,1048	0,263	76,366	3,5	1007,04	6,8	8,8	8,6	1	1	1	1	1	1	1	1	1	0	1	-43,058492	274,204711	277,481856	0
14.01.2021	22:31:20	0	0	4,632231	3,051	55,9152	0,272	76,36	3,5	1006,9	6,8	8,8	8,6	1	1	1	1	1	1	1	1	1	0	1	-47,427766	274,108919	272,664904	0
14.01.2021	22:31:21	0	0	4,293287	3,183	63,1656	0,269	76,362	3,5	1006,98	6,8	8,7	8,6	1	1	1	1	1	1	1	1	1	0	1	-44,186047	274,261812	276,621389	0
14.01.2021	22:31:22	0	0	4,51925	3,13875	74,5488	0,268	76,372	3,5	1007,1	6,8	8,8	8,6	1	1	1	1	1	1	1	1	1	0	1	-42,776603	274,204711	277,763745	0
14.01.2021	22:31:23	0	0	4,858193	3,06975	65,0916	0,265	76,353	3,5	1007	6,8	8,8	8,6	1	1	1	1	1	1	1	1	1	0	1	-43,551797	274,255794	277,227479	0
14.01.2021	22:31:24	0	0	2,824531	2,95575	71,9784	0,29	76,354	3,5	1007,04	6,8	8,7	8,6	1	1	1	1	1	1	1	1	1	0	1	-44,679352	274,15077	275,608846	0
14.01.2021	22:31:25	0	0	3,6154	2,80725	68,004	0,263	76,344	3,5	1006,92	6,8	8,7	8,6	1	1	1	1	1	1	1	1	1	0	1	-48,343904	274,282893	272,562174	0
14.01.2021	22:31:26	0	0	4,745212	2,75925	70,2288	0,264	76,332	3,5	1006,96	6,8	8,8	8,6	1	1	1	1	1	1	1	1	1	0	1	-45,947851	274,161246	274,38931	0
14.01.2021	22:31:27	0	0	4,067325	2,69175	75,9852	0,27	76,315	3,5	1006,9	6,8	8,8	8,6	1	1	1	1	1	1	1	1	1	0	1	-42,494715	274,086537	277,49342	0
14.01.2021	22:31:28	0	0	4,858193	2,613	88,1352	0,267	76,309	3,5	1007,06	6,8	8,8	8,6	1	1	1	1	1	1	1	1	1	0	1	-44,256519	274,140298	275,982749	0
14.01.2021	22:31:29	0	0	2,824531	2,74125	88,9776	0,268	76,328	3,5	1007,04	6,8	8,8	8,6	1	1	1	1	1	1	1	1	1	0	1	-44,96124	274,083555	275,012967	0
14.01.2021	22:31:30	0	0	4,180306	2,9505	88,1136	0,264	76,31	3,5	1007	6,8	8,7	8,6	1	1	1	1	1	1	1	1	1	0	1	-41,930937	274,207712	278,623444	0
14.01.2021	22:31:31	0	0	3,276456	2,97225	91,4904	0,269	76,301	3,5	1006,74	6,8	8,8	8,6	1	1	1	1	1	1	1	1	1	0	1	-48,484848	274,267833	272,350757	0
14.01.2021	22:31:32	0	0	4,858193	3,03825	99,9036	0,265	76,304	3,5	1006,96	6,8	8,7	8,6	1	1	1	1	1	1	1	1	1	0	1	-43,833686	274,17922	276,587485	0
14.01.2021	22:31:33	0	0	2,372606	2,997	89,676	0,262	76,301	3,5	1006,94	6,8	8,7	8,6	1	1	1	1	1	1	1	1	1	0	1	-45,877378	274,108919	274,215292	0
14.01.2021	22:31:34	0	0	4,632231	2,919	91,4976	0,264	76,305	3,5	1007,1	6,8	8,8	8,6	1	1	1	1	1	1	1	1	1	0	1	-43,128964	274,140298	277,110304	0
14.01.2021	22:31:35	0	0	4,406268	3,03	81,9684	0,262	76,286	3,5	1007,02	6,8	8,7	8,6	1	1	1	1	1	1	1	1	1	0	1	-45,947851	274,086537	274,040284	0
14.01.2021	22:31:36	0	0	5,310118	3,06825	82,3464	0,261	76,286	3,5	1006,94	6,8	8,8	8,6	1	1	1	1	1	1	1	1	1	0	1	-44,96124	274,206211	275,586124	0
14.01.2021	22:31:37	0	0	3,6154	3,015	87,7464	0,26	76,281	3,5	1007	6,8	8,8	8,6	1	1	1	1	1	1	1	1	1	0	1	-45,384073	274,104441	274,687678	0
14.01.2021	22:31:38	0	0	3,728381	3,07425	61,3116	0,262	76,272	3,5	1007,04	6,8	8,7	8,6	1	1	1	1	1	1	1	1	1	0	1	-43,410853	274,245266	277,319169	0
14.01.2021	22:31:39	0	0	3,6154	3,252	71,2332	0,26	76,277	3,5	1006,84	6,8	8,7	8,6	1	1	1	1	1	1	1	1	1	0	1	-42,98802	274,264822	277,8335	0
14.01.2021	22:31:40	0	0	4,858193	3,0465	69,426	0,261	76,256	3,5	1006,9	6,8	8,7	8,6	1	1	1	1	1	1	1	1	1	0	1	-46,370684	274,218219	274,232835	0
14.01.2021	22:31:41	0	0	3,954344	3,01125	78,6636	0,256	76,275	3,5	1006,98	6,8	8,8	8,6	1	1	1	1	1	1	1	1	1	0	1	-45,665962	274,219721	274,944579	0
14.01.2021	22:31:42	0	0	4,632231	3,0975	74,1852	0,255	76,279	3,5	1006,92	6,8	8,8	8,6	1	1	1	1	1	1	1	1	1	0	1	-40,803383	274,104441	279,268369	0
14.01.2021	22:31:43	0	0	4,971175	3,3855	87,3612	0,26	76,289	3,5	1006,98	6,8	8,7	8,6	1	1	1	1	1	1	1	1	1	0	1	-45,172657	274,132823	275,031681	0
14.01.2021	22:31:44	0	0	3,389437	4,11975	75,9996	0,264	76,3	3,5	1007	6,8	8,7	8,6	1	1	1	1	1	1	1	1	1	0	1	-45,665962	274,079082	274,28736	0
14.01.2021	22:31:45	0	0	5,084156	4,51725	76,3596	0,261	76,293	3,5	1006,92	6,8	8,8	8,6	1	1	1	1	1	1	1	1	1	0	1	-42,706131	274,180718	277,722045	0
14.01.2021	22:31:46	0	0	4,971175	4,644	66,5316	0,254	76,277	3,5	1007,04	6,8	8,8	8,6	1	1	1	1	1	1	1	1	1	0	1	-43,97463	274,231738	276,692114	0
14.01.2021	22:31:47	0	0	2,259625	4,374	63,2628	0,254	76,271	3,5	1007	6,8	8,8	8,6	1	1	1	1	1	1	1	1	1	0	1	-44,045102	274,110413	276,054543	0
14.01.2021	22:31:48	0	0	3,954344	4,19175	69,4656	0,258	76,272	3,5	1007,1	6,8	8,7	8,6	1	1	1	1	1	1	1	1	1	0	1	-47,991543	274,261812	272,815892	0
14.01.2021	22:31:49	0	0	5,197137	3,94575	77,976	0,258	76,279	3,5	1007,04	6,7	8,8	8,6	1	1	1	1	1	1	1	1	1	0	1	-44,186047	274,134318	276,025276	0
14.01.2021	22:31:50	0	0	4,406268	3,606	77,9544	0,257	76,278	3,5	1006,88	6,8	8,7	8,6	1	1	1	1	1	1	1	1	1	0	1	-43,340381	274,077591	276,605981	0
14.01.2021	22:31:51	0	0	2,485587	3,42225	74,2464	0,256	76,286	3,5	1006,96	6,8	8,7	8,6	1	1	1	1	1	1	1	1	1	0	1	-41,789993	274,171729	278,596162	0
14.01.2021	22:31:52	0	0	2,937512	3,48825	74,916	0,25	76,279	3,5	1006,94	6,8	8,7	8,6	1	1	1	1	1	1	1	1	1	0	1	-44,890768	274,120867	275,257715	0
14.01.2021	22:31:53	0	0	3,050494	3,417	66,9132	0,254	76,284	3,5	1006,96	6,8	8,7	8,6	1	1	1	1	1	1	1	1	1	0	1	-49,964764	274,114893	270,155808	0
14.01.2021	22:31:54	0	0	2,71155	3,52875	85,1832	0,253	76,286	3,5	1007,1	6,8	8,7	8,6	1	1	1	1	1	1	1	1	1	0	1	-48,273432	274,092503	271,742565	0
14.01.2021	22:31:55	0	0	2,71155	3,546	88,9488	0,251	76,303	3,5	1006,98	6,8	8,8	8,6	1	1	1	1	1	1	1	1	1	0	1	-41,296688	274,192711	279,187553	0
14.01.2021	22:31:56	0	0	4,632231	3,4185	62,7948	0,255	76,303	3,5	1007,04	6,8	8,8	8,6	1	1	1	1	1	1	1	1	1	0	1	-43,058492	274,082064	276,908753	0
14.01.2021	22:31:57	0	0	3,841362	3,456	70,6284	0,252	76,308	3,5	1007,04	6,8	8,7	8,6	1	1	1	1	1	1	1	1	1	0	1	-51,303735	274,159749	269,026429	0
14.01.2021	22:31:58	0	0	3,841362	3,49725	66,2292	0,245	76,317	3,5	1006,92	6,8	8,7	8,6	1	1	1	1	1	1	1	1	1	0	1	-46,088795	274,246769	274,648261	0
14.01.2021	22:31:59	0	0	2,824531	3,294	85,8672	0,247	76,318	3,5	1006,98	6,8	8,7	8,6	1	1	1	1	1	1	1	1	1	0	1	-42,283298	274,11788	277,851228	0
14.01.2021	22:32:00	0	0	4,51925	3,2265	92,9808	0,249	76,363	3,5	1006,94	6,8	8,7	8,6	1	1	1	1	1	1	1	1	1	0	1	-45,384073	274,219721	275,226468	0
14.01.2021	22:32:01	0	0	4,51925	3,2265	92,9808	0,249	76,363	3,5	1006,94	6,8	8,7	8,6	1	1	1	1	1	1	1	1	1	0	1	-45,384073	274,219721	275,226468	0
14.01.2021	22:32:02	0	0	2,598569	2,919	82,9656	0,251	76,378	3,5	1006,96	6,8	8,7	8,6	1	1	1	1	1	1	1	1	1	0	1	-43,622269	274,209212	276,93913	0
14.01.2021	22:32:03	0	0	3,841362	3,00375	75,9708	0,25	76,372	3,5	1006,9	6,7	8,8	8,6	1	1	1	1	1	1	1	1	1	0	1	-44,115574	274,23324	276,558198	0
14.01.2021	22:32:04	0	0	3,502419	3,297	68,022	0,247	76,407	3,5	1006,94	6,8	8,7	8,6	1	1	1	1	1	1	1	1	1	0	1	-42,776603	274,113399	277,336992	0
14.01.2021	22:32:05	0	0	2,824531	3,43125	73,0476	0,248	76,417	3,5	1006,96	6,8	8,7	8,6	1	1	1	1	1	1	1	1	1	0	1	-45,59549	274,101456	274,462319	0
14.01.2021	22:32:06	0	0	4,067325	3,32775	73,0548	0,251	76,434	3,5	1006,98	6,8	8,7	8,6	1	1	1	1	1	1	1	1	1	0	1	-46,300211	274,119373	273,841293	0
14.01.2021	22:32:07	0	0	2,71155	3,13575	62,7948	0,252	76,448	3,5	1007,02	6,8	8,7	8,6	1	1	1	1	1	1	1	1	1	0	1	-46,300211	274,242259	274,415744	0
14.01.2021	22:32:08	0	0	4,858193	3,07125	73,7748	0,247	76,455	3,5	1006,98	6,8	8,7	8,6	1	1	1	1	1	1	1	1	1	0	1	-45,172657	274,104441	274,899095	0
14.01.2021	22:32:09	0	0	4,180306	2,96625	59,8608	0,245	76,463	3,5	1007,02	6,8	8,8	8,6	1	1	1	1	1	1	1	1	1	0	1	-43,692741	274,228733	276,959948	0
14.01.2021	22:32:10	0	0	4,180306	2,85675	74,1528	0,248	76,467	3,5	1006,98	6,8	8,7	8,6	1	1	1	1	1	1	1	1	1	0	1	-45,947851	274,131328	274,249503	0
14.01.2021	22:32:11	0	0	3,050494	2,72025	74,5308	0,248	76,474	3,5	1006,94	6,7	8,7	8,6	1	1	1	1	1	1	1	1	1	0	1	-45,806906	274,237749	274,887955	0
14.01.2021	22:32:12	0	0	2,937512	2,83275	77,9724	0,243	76,467	3,5	1007,02	6,8	8,7	8,6	1	1	1	1	1	1	1	1	1	0	1	-47,004933	274,098471	273,038936	0
14.01.2021	22:32:13	0	0	4,406268	2,907	65,502	0,242	76,466	3,5	1006,9	6,8	8,7	8,6	1	1	1	1	1	1	1	1	1	0	1	-39,887245	274,180718	280,540931	0
14.01.2021	22:32:14	0	0	3,276456	2,979	74,1708	0,243	76,488	3,5	1006,96	6,8	8,7	8,6	1	1	1	1	1	1	1	1	1	0	1	-47,709655	274,231738	272,957089	0
14.01.2021	22:32:15	0	0	2,485587	3,0045	76,824	0,243	76,49	3,5	1007,26	6,7	8,8	8,6	1	1	1	1	1	1	1	1	1	0	1	-44,679352	274,132823	275,524986	0
14.01.2021	22:32:16	0	0	3,728381	3,10725	66,528	0,242	76,485	3,5	1006,8	6,7	8,8	8,6	1	1	1	1	1	1	1	1	1	0	1	-43,692741	274,240755	277,016182	0
14.01.2021	22:32:17	0	0	4,406268	3,06975	63,8748	0,245	76,512	3,5	1006,98	6,8	8,7	8,6	1	1	1	1	1	1	1	1	1	0	1	-47,357294	274,158252	272,965874	0
14.01.2021	22:32:18	0	0	2,485587	3,01125	73,7856	0,242	76,518	3,5	1007,06	6,8	8,7	8,6	1	1	1	1	1	1	1	1	1	0	1	-44,679352	274,06865	275,22526	0
14.01.2021	22:32:19	0	0	4,632231	3,09825	66,9168	0,242	76,535	3,5	1006,98	6,7	8,7	8,6	1	1	1	1	1	1	1	1	1	0	1	-41,296688	274,209212	279,264711	0
14.01.2021	22:32:20	0	0	2,824531	3,276	81,3204	0,247	76,541	3,5	1007,02	6,8	8,7	8,6	1	1	1	1	1	1	1	1	1	0	1	-43,269908	274,236246	277,417922	0
14.01.2021	22:32:21	0	0	5,084156	3,30975	68,0364	0,243	76,535	3,5	1007	6,8	8,7	8,6	1	1	1	1	1	1	1	1	1	0	1	-47,56871	274,215217	273,020766	0
14.01.2021	22:32:22	0	0	2,598569	3,393	83,3544	0,247	76,538	3,5	1007,1	6,8	8,7	8,6	1	1	1	1	1	1	1	1	1	0	1	-46,511628	274,20171	274,014689	0
14.01.2021	22:32:23	0	0	4,406268	3,46575	74,5236	0,241	76,52	3,5	1006,92	6,8	8,8	8,6	1	1	1	1	1	1	1	1	1	0	1	-44,96124	274,07163	274,957285	0
14.01.2021	22:32:24	0	0	3,6154	3,558	71,9892	0,243	76,537	3,5	1006,96	6,8	8,8	8,6	1	1	1	1	1	1	1	1	1	0	1	-49,260042	274,129833	270,930328	0
14.01.2021	22:32:25	0	0	4,180306	3,45675	77,9796	0,245	76,547	3,5	1006,94	6,8	8,7	8,6	1	1	1	1	1	1	1	1	1	0	1	-44,397463	274,231738	276,269281	0
14.01.2021	22:32:26	0	0	4,745212	3,43575	81,9396	0,24	76,564	3,5	1006,92	6,7	8,8	8,6	1	1	1	1	1	1	1	1	1	0	1	-46,300211	274,15077	273,987986	0
14.01.2021	22:32:27	0	0	4,293287	3,40575	69,4548	0,239	76,548	3,5	1006,92	6,8	8,7	8,6	1	1	1	1	1	1	1	1	1	0	1	-44,96124	274,239252	275,740651	0
14.01.2021	22:32:28	0	0	4,858193	3,318	79,7616	0,234	76,54	3,5	1006,94	6,8	8,7	8,6	1	1	1	1	1	1	1	1	1	0	1	-43,833686	274,099963	276,217153	0
14.01.2021	22:32:29	0	0	4,406268	3,14325	90,432	0,243	76,559	3,5	1007,22	6,7	8,7	8,6	1	1	1	1	1	1	1	1	1	0	1	-47,21635	274,228733	273,43634	0
14.01.2021	22:32:30	0	0	4,858193	3,09	80,9064	0,239	76,558	3,5	1007,02	6,8	8,8	8,6	1	1	1	1	1	1	1	1	1	0	1	-48,062016	274,20021	272,457287	0
14.01.2021	22:32:31	0	0	3,276456	3,26475	81,6012	0,243	76,557	3,5	1006,96	6,8	8,7	8,6	1	1	1	1	1	1	1	1	1	0	1	-44,890768	274,191211	275,586462	0
14.01.2021	22:32:32	0	0	4,067325	3,2715	93,7152	0,241	76,531	3,5	1007,08	6,7	8,7	8,6	1	1	1	1	1	1	1	1	1	0	1	-47,145877	274,189712	273,324343	0
14.01.2021	22:32:33	0	0	3,6154	3,087	70,8696	0,247	76,546	3,5	1006,92	6,8	8,7	8,6	1	1	1	1	1	1	1	1	1	0	1	-42,283298	274,061202	277,58654	0
14.01.2021	22:32:34	0	0	2,71155	3,012	71,2368	0,239	76,525	3,5	1006,96	6,8	8,7	8,6	1	1	1	1	1	1	1	1	1	0	1	-42,071882	274,088029	277,923218	0
14.01.2021	22:32:35	0	0	4,632231	2,86425	65,8512	0,244	76,532	3,5	1006,94	6,8	8,7	8,6	1	1	1	1	1	1	1	1	1	0	1	-49,400987	274,164241	270,950169	0
14.01.2021	22:32:36	0	0	3,050494	2,658	73,0296	0,238	76,53	3,5	1006,84	6,8	8,7	8,6	1	1	1	1	1	1	1	1	1	0	1	-43,340381	274,056734	276,508601	0
14.01.2021	22:32:37	0	0	4,632231	2,6865	76,3776	0,236	76,518	3,5	1007,14	6,8	8,7	8,6	1	1	1	1	1	1	1	1	1	0	1	-46,5821	274,095487	273,447831	0
14.01.2021	22:32:38	0	0	4,51925	2,604	52,1352	0,246	76,528	3,5	1007,06	6,7	8,7	8,6	1	1	1	1	1	1	1	1	1	0	1	-41,930937	274,111906	278,175682	0
14.01.2021	22:32:39	0	0	4,519277	2,55525	78,6528	0,24	76,543	3,5	1006,98	6,7	8,7	8,5	1	1	1	1	1	1	1	1	1	0	1	-42,776603	274,237749	277,918258	0
14.01.2021	22:32:40	0	0	4,632231	2,72775	75,9816	0,233	76,528	3,5	1007,1	6,7	8,7	8,6	1	1	1	1	1	1	1	1	1	0	1	-45,877378	274,107427	274,208318	0
14.01.2021	22:32:41	0	0	2,937512	3,00225	63,4896	0,243	76,54	3,5	1006,92	6,8	8,7	8,6	1	1	1	1	1	1	1	1	1	0	1	-42,142354	274,23324	278,531418	0
14.01.2021	22:32:42	0	0	2,71155	3,42675	65,8584	0,239	76,549	3,5	1006,96	6,7	8,7	8,6	1	1	1	1	1	1	1	1	1	0	1	-42,001409	274,191211	278,475821	0
14.01.2021	22:32:43	0	0	4,067325	3,678	74,1564	0,236	76,547	3,5	1006,86	6,8	8,7	8,6	1	1	1	1	1	1	1	1	1	0	1	-44,115574	274,043338	275,670874	0
14.01.2021	22:32:44	0	0	4,293287	4,4745	74,5236	0,238	76,548	3,5	1006,96	6,7	8,7	8,6	1	1	1	1	1	1	1	1	1	0	1	-48,20296	274,20321	272,330372	0
14.01.2021	22:32:45	0	0	3,502419	4,62975	70,6176	0,234	76,568	3,5	1006,98	6,7	8,7	8,6	1	1	1	1	1	1	1	1	1	0	1	-44,538407	274,176223	275,868755	0
14.01.2021	22:32:46	0	0	3,728381	4,65975	70,2504	0,23	76,58	3,5	1006,82	6,7	8,7	8,6	1	1	1	1	1	1	1	1	1	0	1	-43,128964	274,059713	276,733922	0
14.01.2021	22:32:47	0	0	2,598569	4,8465	70,2252	0,237	76,603	3,5	1007	6,7	8,7	8,6	1	1	1	1	1	1	1	1	1	0	1	-44,326991	274,07014	275,584578	0
14.01.2021	22:32:48	0	0	2,485587	4,92675	68,7744	0,241	76,614	3,5	1006,98	6,7	8,7	8,6	1	1	1	1	1	1	1	1	1	0	1	-44,397463	274,177721	276,016703	0
14.01.2021	22:32:49	0	0	2,485587	4,89	69,9336	0,234	76,6	3,5	1006,94	6,8	8,7	8,6	1	1	1	1	1	1	1	1	1	0	1	-44,679352	274,240755	276,029572	0
14.01.2021	22:32:50	0	0	2,71155	4,8345	68,7852	0,235	76,621	3,5	1006,98	6,7	8,7	8,6	1	1	1	1	1	1	1	1	1	0	1	-44,256519	274,159749	276,073645	0
14.01.2021	22:32:51	0	0	2,824531	4,74675	58,4856	0,24	76,648	3,5	1007	6,8	8,7	8,6	1	1	1	1	1	1	1	1	1	0	1	-47,921071	274,058223	271,934862	0
14.01.2021	22:32:52	0	0	3,50244	4,50825	69,1596	0,232	76,635	3,5	1006,88	6,7	8,7	8,5	1	1	1	1	1	1	1	1	1	0	1	-44,045102	274,177721	276,369064	0
14.01.2021	22:32:53	0	0	4,632231	4,389	62,064	0,233	76,65	3,5	1006,92	6,7	8,7	8,6	1	1	1	1	1	1	1	1	1	0	1	-45,313601	274,212214	275,261835	0
14.01.2021	22:32:54	0	0	2,485587	4,12875	43,2972	0,236	76,654	3,5	1006,9	6,7	8,7	8,6	1	1	1	1	1	1	1	1	1	0	1	-50,035236	274,146281	270,231988	0
14.01.2021	22:32:55	0	0	4,067325	3,858	57,7404	0,232	76,653	3,5	1007,02	6,7	8,7	8,6	1	1	1	1	1	1	1	1	1	0	1	-44,96124	274,237749	275,73362	0
14.01.2021	22:32:56	0	0	4,067325	3,846	82,5948	0,235	76,651	3,5	1006,9	6,7	8,7	8,6	1	1	1	1	1	1	1	1	1	0	1	-46,018323	274,171729	274,367832	0
14.01.2021	22:32:57	0	0	5,084156	4,28775	88,5888	0,237	76,644	3,5	1006,92	6,7	8,7	8,6	1	1	1	1	1	1	1	1	1	0	1	-45,384073	274,059713	274,478812	0
14.01.2021	22:32:58	0	0	4,406268	4,044	80,5284	0,233	76,657	3,5	1007,04	6,7	8,7	8,6	1	1	1	1	1	1	1	1	1	0	1	-44,326991	274,129833	275,863379	0
14.01.2021	22:32:59	0	0	3,841362	3,62025	84,4308	0,233	76,656	3,5	1006,88	6,7	8,7	8,6	1	1	1	1	1	1	1	1	1	0	1	-44,679352	274,059713	275,183534	0
14.01.2021	22:33:00	0	0	2,71155	3,6195	60,9372	0,232	76,634	3,5	1006,98	6,7	8,7	8,6	1	1	1	1	1	1	1	1	1	0	1	-45,59549	274,059713	274,267396	0
14.01.2021	22:33:01	0	0	2,71155	3,6195	60,9372	0,232	76,634	3,5	1006,98	6,7	8,7	8,6	1	1	1	1	1	1	1	1	1	0	1	-45,59549	274,059713	274,267396	0
14.01.2021	22:33:02	0	0	4,745212	3,86475	57,042	0,234	76,644	3,5	1006,96	6,7	8,7	8,6	1	1	1	1	1	1	1	1	1	0	1	-43,763214	274,19421	276,728038	0
14.01.2021	22:33:03	0	0	2,485587	4,60575	78,2856	0,235	76,649	3,5	1007,1	6,7	8,7	8,6	1	1	1	1	1	1	1	1	1	0	1	-43,410853	274,216718	277,185645	0
14.01.2021	22:33:04	0	0	2,824531	5,02275	76,3812	0,236	76,658	3,5	1006,94	6,7	8,7	8,6	1	1	1	1	1	1	1	1	1	0	1	-44,397463	274,053757	275,437618	0
14.01.2021	22:33:05	0	0	3,954344	5,2155	56,6712	0,232	76,646	3,5	1006,96	6,8	8,7	8,6	1	1	1	1	1	1	1	1	1	0	1	-45,525018	274,102948	274,539762	0
14.01.2021	22:33:06	0	0	2,598569	5,2665	65,1024	0,228	76,668	3,5	1006,98	6,7	8,7	8,6	1	1	1	1	1	1	1	1	1	0	1	-43,97463	274,040363	275,797929	0
14.01.2021	22:33:07	0	0	3,389437	5,1525	68,3964	0,234	76,676	3,5	1006,96	6,7	8,7	8,6	1	1	1	1	1	1	1	1	1	0	1	-43,904158	274,171729	276,481997	0
14.01.2021	22:33:08	0	0	4,293287	5,38875	77,9652	0,238	76,693	3,5	1007,12	6,8	8,7	8,6	1	1	1	1	1	1	1	1	1	0	1	-45,736434	274,056734	274,112548	0
14.01.2021	22:33:09	0	0	3,389437	5,124	62,7984	0,239	76,685	3,5	1006,86	6,7	8,7	8,6	1	1	1	1	1	1	1	1	1	0	1	-42,071882	274,077591	277,87448	0
14.01.2021	22:33:10	0	0	2,937512	4,554	52,1316	0,23	76,68	3,5	1006,98	6,7	8,7	8,6	1	1	1	1	1	1	1	1	1	0	1	-42,494715	274,104441	277,577037	0
14.01.2021	22:33:11	0	0	4,406268	4,29975	75,996	0,234	76,684	3,5	1007	6,7	8,7	8,6	1	1	1	1	1	1	1	1	1	0	1	-46,511628	274,225728	274,127009	0
14.01.2021	22:33:12	0	0	3,389437	3,936	68,7744	0,233	76,666	3,5	1007,08	6,7	8,7	8,6	1	1	1	1	1	1	1	1	1	0	1	-45,877378	274,174725	274,522781	0
14.01.2021	22:33:13	0	0	4,745212	3,5715	86,9688	0,234	76,661	3,5	1007,02	6,7	8,7	8,6	1	1	1	1	1	1	1	1	1	0	1	-42,98802	274,227231	277,657643	0
14.01.2021	22:33:14	0	0	2,937512	3,06525	99,504	0,235	76,652	3,5	1006,92	6,7	8,7	8,6	1	1	1	1	1	1	1	1	1	0	1	-41,296688	274,120867	278,851795	0
14.01.2021	22:33:15	0	0	4,180306	2,94675	75,9816	0,232	76,644	3,5	1006,9	6,7	8,7	8,6	1	1	1	1	1	1	1	1	1	0	1	-43,763214	274,219721	276,847328	0
14.01.2021	22:33:16	0	0	3,50244	3,39075	82,566	0,233	76,649	3,5	1007,02	6,7	8,7	8,5	1	1	1	1	1	1	1	1	1	0	1	-44,96124	274,053757	274,873841	0
14.01.2021	22:33:17	0	0	3,502419	4,13775	78,66	0,227	76,636	3,5	1006,98	6,7	8,7	8,6	1	1	1	1	1	1	1	1	1	0	1	-45,59549	274,207712	274,958891	0
14.01.2021	22:33:18	0	0	3,728381	4,91325	80,1648	0,232	76,636	3,5	1007,06	6,7	8,7	8,6	1	1	1	1	1	1	1	1	1	0	1	-40,732911	274,23324	279,940861	0
14.01.2021	22:33:19	0	0	4,406268	5,457	90,7704	0,233	76,635	3,5	1006,98	6,7	8,7	8,6	1	1	1	1	1	1	1	1	1	0	1	-45,947851	274,152266	274,34734	0
14.01.2021	22:33:20	0	0	3,728381	5,56575	85,536	0,227	76,633	3,5	1006,86	6,7	8,7	8,6	1	1	1	1	1	1	1	1	1	0	1	-46,793517	274,228733	273,859173	0
14.01.2021	22:33:21	0	0	4,632231	5,5785	70,2252	0,233	76,625	3,5	1006,98	6,7	8,7	8,6	1	1	1	1	1	1	1	1	1	0	1	-43,340381	274,086537	276,647754	0
14.01.2021	22:33:22	0	0	3,502419	5,33025	86,6772	0,228	76,625	3,5	1006,96	6,7	8,7	8,6	1	1	1	1	1	1	1	1	1	0	1	-45,102185	274,053757	274,732896	0
14.01.2021	22:33:23	0	0	4,293287	4,82625	72,702	0,231	76,626	3,5	1006,98	6,7	8,7	8,6	1	1	1	1	1	1	1	1	1	0	1	-45,877378	274,140298	274,361889	0
14.01.2021	22:33:24	0	0	3,841362	4,93275	78,6744	0,23	76,613	3,5	1006,92	6,7	8,7	8,6	1	1	1	1	1	1	1	1	1	0	1	-47,004933	274,052268	272,823199	0
14.01.2021	22:33:25	0	0	3,615421	5,23275	58,4784	0,233	76,618	3,5	1006,94	6,7	8,7	8,5	1	1	1	1	1	1	1	1	1	0	1	-51,092319	274,168733	269,279834	0
14.01.2021	22:33:26	0	0	2,937512	5,973	57,42	0,23	76,622	3,5	1007	6,8	8,7	8,6	1	1	1	1	1	1	1	1	1	0	1	-51,303735	274,032925	268,434112	0
14.01.2021	22:33:27	0	0	3,389437	6,29625	54,4824	0,229	76,623	3,5	1007	6,7	8,7	8,6	1	1	1	1	1	1	1	1	1	0	1	-42,283298	274,168733	278,088855	0
14.01.2021	22:33:28	0	0	4,293287	5,93625	48,8124	0,235	76,638	3,5	1006,94	6,7	8,7	8,6	1	1	1	1	1	1	1	1	1	0	1	-43,551797	274,212214	277,023639	0
14.01.2021	22:33:29	0	0	3,841362	5,0355	60,9264	0,229	76,625	3,5	1006,94	6,7	8,7	8,6	1	1	1	1	1	1	1	1	1	0	1	-48,484848	274,20171	272,041469	0
14.01.2021	22:33:30	0	0	3,502419	4,86075	60,2532	0,236	76,63	3,5	1006,86	6,8	8,7	8,6	1	1	1	1	1	1	1	1	1	0	1	-42,283298	274,164241	278,067857	0
14.01.2021	22:33:31	0	0	4,180306	4,8105	68,7708	0,228	76,619	3,5	1006,9	6,7	8,7	8,6	1	1	1	1	1	1	1	1	1	0	1	-43,481325	274,228733	277,171364	0
14.01.2021	22:33:32	0	0	3,954367	5,67	61,3116	0,233	76,643	3,5	1007,06	6,7	8,7	8,5	1	1	1	1	1	1	1	1	1	0	1	-44,679352	274,058223	275,176582	0
14.01.2021	22:33:33	0	0	3,502419	6,45525	76,3812	0,232	76,633	3,5	1006,98	6,7	8,7	8,6	1	1	1	1	1	1	1	1	1	0	1	-47,004933	274,058223	272,851	0
14.01.2021	22:33:34	0	0	4,406268	6,5085	72,054	0,231	76,641	3,5	1006,98	6,7	8,7	8,6	1	1	1	1	1	1	1	1	1	0	1	-44,256519	274,231738	276,410225	0
14.01.2021	22:33:35	0	0	3,954344	6,14025	67,6692	0,232	76,632	3,5	1007	6,7	8,7	8,6	1	1	1	1	1	1	1	1	1	0	1	-45,384073	274,077591	274,562288	0
14.01.2021	22:33:36	0	0	4,632231	5,8935	67,6764	0,231	76,634	3,5	1006,98	6,7	8,7	8,6	1	1	1	1	1	1	1	1	1	0	1	-46,088795	274,095487	273,941136	0
14.01.2021	22:33:37	0	0	3,050494	5,85825	73,062	0,233	76,631	3,5	1007	6,7	8,7	8,6	1	1	1	1	1	1	1	1	1	0	1	-46,018323	274,050779	273,80286	0
14.01.2021	22:33:38	0	0	3,276456	5,823	60,9516	0,224	76,634	3,5	1006,92	6,7	8,7	8,6	1	1	1	1	1	1	1	1	1	0	1	-44,820296	274,164241	275,530859	0
14.01.2021	22:33:39	0	0	4,858223	5,88525	76,824	0,227	76,627	3,5	1006,86	6,7	8,7	8,5	1	1	1	1	1	1	1	1	1	0	1	-45,947851	274,058223	273,908083	0
14.01.2021	22:33:40	0	0	4,632231	6,138	52,1388	0,225	76,631	3,5	1006,94	6,7	8,7	8,6	1	1	1	1	1	1	1	1	1	0	1	-42,35377	274,099963	277,697068	0
14.01.2021	22:33:41	0	0	4,180306	6,28425	56,2968	0,233	76,642	3,5	1006,92	6,7	8,7	8,6	1	1	1	1	1	1	1	1	1	0	1	-45,243129	274,059713	274,619757	0
14.01.2021	22:33:42	0	0	3,728381	5,9895	67,662	0,232	76,639	3,5	1006,98	6,7	8,7	8,6	1	1	1	1	1	1	1	1	1	0	1	-44,326991	274,19571	276,171273	0
14.01.2021	22:33:43	0	0	3,163475	5,6925	71,982	0,23	76,657	3,5	1006,88	6,7	8,7	8,6	1	1	1	1	1	1	1	1	1	0	1	-47,991543	274,231738	272,6752	0
14.01.2021	22:33:44	0	0	3,728403	5,715	70,2108	0,228	76,669	3,5	1006,98	6,7	8,7	8,5	1	1	1	1	1	1	1	1	1	0	1	-44,890768	274,204711	275,64958	0
14.01.2021	22:33:45	0	0	4,067325	5,4915	79,3908	0,223	76,672	3,5	1006,92	6,7	8,7	8,6	1	1	1	1	1	1	1	1	1	0	1	-45,243129	274,110413	274,856516	0
14.01.2021	22:33:46	0	0	3,6154	5,16675	78,2676	0,23	76,683	3,5	1006,84	6,7	8,7	8,6	1	1	1	1	1	1	1	1	1	0	1	-50,387597	274,219721	270,222944	0
14.01.2021	22:33:47	0	0	3,050494	5,09025	95,5188	0,227	76,695	3,5	1006,88	6,7	8,7	8,6	1	1	1	1	1	1	1	1	1	0	1	-47,004933	274,07312	272,920551	0
14.01.2021	22:33:48	0	0	2,372606	5,289	92,3724	0,224	76,688	3,5	1006,88	6,7	8,7	8,6	1	1	1	1	1	1	1	1	1	0	1	-47,639183	274,132823	272,565155	0
14.01.2021	22:33:49	0	0	2,824548	4,94775	92,2824	0,22	76,698	3,5	1006,94	6,8	8,7	8,5	1	1	1	1	1	1	1	1	1	0	1	-46,511628	274,064181	273,372118	0
14.01.2021	22:33:50	0	0	4,858193	4,45725	81,2232	0,224	76,701	3,5	1006,98	6,7	8,7	8,6	1	1	1	1	1	1	1	1	1	0	1	-46,934461	274,213715	273,647995	0
14.01.2021	22:33:51	0	0	4,971205	4,176	64,6236	0,225	76,718	3,5	1007,02	6,7	8,7	8,5	1	1	1	1	1	1	1	1	1	0	1	-46,370684	274,242259	274,345272	0
14.01.2021	22:33:52	0	0	4,858223	4,6245	72,3852	0,227	76,726	3,5	1006,88	6,7	8,7	8,5	1	1	1	1	1	1	1	1	1	0	1	-47,145877	274,207712	273,408504	0
14.01.2021	22:33:53	0	0	2,71155	4,87875	74,1708	0,229	76,718	3,5	1007,02	6,7	8,7	8,6	1	1	1	1	1	1	1	1	1	0	1	-45,947851	274,104441	274,123901	0
14.01.2021	22:33:54	0	0	3,163475	4,92975	76,8312	0,232	76,724	3,5	1007,08	6,7	8,7	8,6	1	1	1	1	1	1	1	1	1	0	1	-43,904158	274,242259	276,811798	0
14.01.2021	22:33:55	0	0	3,163475	4,938	80,2116	0,23	76,712	3,5	1007,08	6,7	8,7	8,6	1	1	1	1	1	1	1	1	1	0	1	-41,860465	274,165738	278,497689	0
14.01.2021	22:33:56	0	0	3,728381	5,0475	73,4436	0,228	76,711	3,5	1006,86	6,7	8,7	8,6	1	1	1	1	1	1	1	1	1	0	1	-42,001409	274,254289	278,770828	0
14.01.2021	22:33:57	0	0	5,084156	5,3805	88,1064	0,225	76,714	3,5	1006,86	6,7	8,7	8,6	1	1	1	1	1	1	1	1	1	0	1	-46,018323	274,141794	274,227933	0
14.01.2021	22:33:58	0	0	4,51925	5,535	68,796	0,229	76,707	3,5	1007,06	6,8	8,7	8,6	1	1	1	1	1	1	1	1	1	0	1	-49,119098	274,251281	271,639065	0
14.01.2021	22:33:59	0	0	3,6154	5,4915	69,462	0,226	76,694	3,5	1006,92	6,8	8,7	8,6	1	1	1	1	1	1	1	1	1	0	1	-48,062016	274,19721	272,44326	0
14.01.2021	22:34:00	0	0	2,93753	4,77075	65,4768	0,233	76,704	3,5	1006,98	6,8	8,7	8,5	1	1	1	1	1	1	1	1	1	0	1	-47,075405	274,252785	273,689795	0
14.01.2021	22:34:01	0	0	2,93753	4,77075	65,4768	0,233	76,704	3,5	1006,98	6,8	8,7	8,5	1	1	1	1	1	1	1	1	1	0	1	-47,075405	274,252785	273,689795	0
14.01.2021	22:34:02	0	0	3,615421	5,016	69,8544	0,233	76,708	3,5	1006,8	6,7	8,7	8,5	1	1	1	1	1	1	1	1	1	0	1	-39,675828	274,129833	280,514542	0
14.01.2021	22:34:03	0	0	4,406295	5,283	73,476	0,228	76,711	3,5	1007	6,7	8,7	8,5	1	1	1	1	1	1	1	1	1	0	1	-43,128964	274,052268	276,699168	0
14.01.2021	22:34:04	0	0	4,293287	5,55375	70,6104	0,224	76,687	3,5	1006,9	6,7	8,7	8,6	1	1	1	1	1	1	1	1	1	0	1	-46,5821	274,215217	274,007376	0
14.01.2021	22:34:05	0	0	3,841385	5,75025	68,7852	0,232	76,698	3,5	1007	6,7	8,7	8,5	1	1	1	1	1	1	1	1	1	0	1	-44,96124	274,189712	275,50898	0
14.01.2021	22:34:06	0	0	4,406295	5,3805	60,2424	0,232	76,701	3,5	1007,04	6,7	8,7	8,5	1	1	1	1	1	1	1	1	1	0	1	-44,890768	274,252785	275,874432	0
14.01.2021	22:34:07	0	0	3,728403	5,226	62,7912	0,226	76,692	3,5	1007,08	6,8	8,7	8,5	1	1	1	1	1	1	1	1	1	0	1	-42,001409	274,14329	278,251835	0
14.01.2021	22:34:08	0	0	3,163475	5,127	66,24	0,226	76,691	3,5	1006,88	6,7	8,8	8,6	1	1	1	1	1	1	1	1	1	0	1	-44,608879	274,098471	275,434989	0
14.01.2021	22:34:09	0	0	3,841385	4,7805	70,5888	0,227	76,668	3,5	1006,92	6,8	8,7	8,5	1	1	1	1	1	1	1	1	1	0	1	-47,004933	274,219721	273,605608	0
14.01.2021	22:34:10	0	0	3,050494	4,7055	74,5416	0,237	76,681	3,5	1007,06	6,7	8,7	8,6	1	1	1	1	1	1	1	1	1	0	1	-48,907681	274,245266	271,822341	0
14.01.2021	22:34:11	0	0	3,841385	4,63425	71,244	0,23	76,683	3,5	1007,02	6,7	8,8	8,5	1	1	1	1	1	1	1	1	1	0	1	-48,978154	274,228733	271,674535	0
14.01.2021	22:34:12	0	0	2,71155	4,34325	71,2512	0,233	76,693	3,5	1007,04	6,8	8,7	8,6	1	1	1	1	1	1	1	1	1	0	1	-44,608879	274,251281	276,149284	0
14.01.2021	22:34:13	0	0	4,406268	4,14375	70,6104	0,223	76,68	3,5	1006,9	6,8	8,7	8,6	1	1	1	1	1	1	1	1	1	0	1	-46,159267	274,254289	274,612971	0
14.01.2021	22:34:14	0	0	2,93753	4,209	67,302	0,236	76,718	3,5	1007	6,7	8,7	8,5	1	1	1	1	1	1	1	1	1	0	1	-46,018323	274,209212	274,543076	0
14.01.2021	22:34:15	0	0	2,598569	4,4595	79,4232	0,231	76,724	3,5	1007,02	6,7	8,7	8,6	1	1	1	1	1	1	1	1	1	0	1	-45,243129	274,077591	274,703233	0
14.01.2021	22:34:16	0	0	3,163494	4,83825	71,2476	0,232	76,724	3,5	1006,94	6,8	8,7	8,5	1	1	1	1	1	1	1	1	1	0	1	-46,723044	274,131328	273,474309	0
14.01.2021	22:34:17	0	0	2,146644	4,95375	68,8644	0,234	76,733	3,5	1006,9	6,7	8,7	8,6	1	1	1	1	1	1	1	1	1	0	1	-50,105708	274,076101	269,833693	0
14.01.2021	22:34:18	0	0	4,858223	4,62375	76,464	0,232	76,709	3,5	1006,88	6,7	8,7	8,5	1	1	1	1	1	1	1	1	1	0	1	-45,59549	274,236246	275,092341	0
14.01.2021	22:34:19	0	0	3,6154	4,3785	83,718	0,233	76,743	3,5	1007,04	6,7	8,7	8,6	1	1	1	1	1	1	1	1	1	0	1	-45,877378	274,20021	274,641924	0
14.01.2021	22:34:20	0	0	3,389437	4,50525	97,308	0,236	76,737	3,5	1007,18	6,8	8,7	8,6	1	1	1	1	1	1	1	1	1	0	1	-44,045102	274,255794	276,734174	0
14.01.2021	22:34:21	0	0	3,6154	4,79025	87,7212	0,234	76,734	3,5	1007,04	6,7	8,7	8,6	1	1	1	1	1	1	1	1	1	0	1	-43,481325	274,20321	277,052007	0
14.01.2021	22:34:22	0	0	4,745212	4,96125	73,4508	0,238	76,743	3,5	1006,72	6,8	8,7	8,6	1	1	1	1	1	1	1	1	1	0	1	-44,679352	274,095487	275,35058	0
14.01.2021	22:34:23	0	0	2,598584	4,96425	86,6628	0,236	76,75	3,5	1006,82	6,8	8,7	8,5	1	1	1	1	1	1	1	1	1	0	1	-47,286822	274,258803	273,506533	0
14.01.2021	22:34:24	0	0	4,971175	5,08125	95,8248	0,233	76,742	3,5	1006,92	6,8	8,8	8,6	1	1	1	1	1	1	1	1	1	0	1	-46,793517	274,224226	273,838096	0
14.01.2021	22:34:25	0	0	5,197137	4,71825	95,5116	0,241	76,764	3,5	1007	6,8	8,7	8,6	1	1	1	1	1	1	1	1	1	0	1	-44,96124	274,266328	275,867322	0
14.01.2021	22:34:26	0	0	4,067349	4,42275	83,3544	0,238	76,759	3,5	1006,76	6,7	8,7	8,5	1	1	1	1	1	1	1	1	1	0	1	-48,837209	274,176223	271,569953	0
14.01.2021	22:34:27	0	0	4,971175	3,94575	85,1688	0,239	76,747	3,5	1006,94	6,7	8,7	8,6	1	1	1	1	1	1	1	1	1	0	1	-44,608879	274,260308	276,191515	0
14.01.2021	22:34:28	0	0	3,389417	3,72525	70,8588	0,242	76,771	3,5	1006,96	6,7	8,7	8,7	1	1	1	1	1	1	1	1	1	0	1	-42,071882	274,219721	278,53866	0
14.01.2021	22:34:29	0	0	2,824548	3,74175	80,874	0,236	76,745	3,5	1006,8	6,8	8,7	8,5	1	1	1	1	1	1	1	1	1	0	1	-52,008457	274,273855	268,85533	0
14.01.2021	22:34:30	0	0	2,71155	3,7095	68,3928	0,242	76,734	3,5	1007	6,8	8,7	8,6	1	1	1	1	1	1	1	1	1	0	1	-44,538407	274,111906	275,568212	0
14.01.2021	22:34:31	0	0	2,485602	4,11225	86,9832	0,251	76,797	3,5	1007,08	6,8	8,7	8,5	1	1	1	1	1	1	1	1	1	0	1	-42,635659	274,126844	277,540746	0
14.01.2021	22:34:32	0	0	4,971175	3,924	51,4404	0,24	76,73	3,5	1006,94	6,7	8,7	8,6	1	1	1	1	1	1	1	1	1	0	1	-42,494715	274,267833	278,340891	0
14.01.2021	22:34:33	0	0	5,197106	4,071	60,2244	0,244	76,709	3,5	1006,94	6,7	8,7	8,7	1	1	1	1	1	1	1	1	1	0	1	-47,145877	274,120867	273,002606	0
14.01.2021	22:34:34	0	0	2,71155	4,16475	65,8476	0,247	76,701	3,5	1007,04	6,7	8,7	8,6	1	1	1	1	1	1	1	1	1	0	1	-42,98802	274,261812	277,819416	0
14.01.2021	22:34:35	0	0	3,050494	4,149	67,2912	0,243	76,69	3,5	1006,92	6,7	8,7	8,6	1	1	1	1	1	1	1	1	1	0	1	-46,018323	274,088029	273,976776	0
14.01.2021	22:34:36	0	0	3,389437	4,23075	69,1632	0,246	76,659	3,5	1006,94	6,8	8,7	8,6	1	1	1	1	1	1	1	1	1	0	1	-42,917548	274,204711	277,6228	0
14.01.2021	22:34:37	0	0	4,858223	4,32525	78,66	0,25	76,65	3,5	1007,02	6,8	8,7	8,5	1	1	1	1	1	1	1	1	1	0	1	-47,004933	274,252785	273,760267	0
14.01.2021	22:34:38	0	0	4,180331	4,596	70,8408	0,247	76,631	3,5	1006,78	6,8	8,7	8,5	1	1	1	1	1	1	1	1	1	0	1	-45,172657	274,218219	275,430862	0
14.01.2021	22:34:39	0	0	2,485587	4,67025	81,6012	0,243	76,618	3,5	1006,96	6,8	8,7	8,6	1	1	1	1	1	1	1	1	1	0	1	-46,5821	274,101456	273,475709	0
14.01.2021	22:34:40	0	0	3,163494	4,326	97,65	0,248	76,595	3,5	1006,94	6,8	8,7	8,5	1	1	1	1	1	1	1	1	1	0	1	-46,300211	274,182217	274,13497	0
14.01.2021	22:34:41	0	0	4,51925	3,9975	91,5552	0,246	76,587	3,5	1006,82	6,7	8,7	8,6	1	1	1	1	1	1	1	1	1	0	1	-48,062016	274,111906	272,044604	0
14.01.2021	22:34:42	0	0	4,406268	3,468	82,5732	0,25	76,563	3,5	1006,98	6,8	8,7	8,6	1	1	1	1	1	1	1	1	1	0	1	-44,467935	274,132823	275,736402	0
14.01.2021	22:34:43	0	0	2,71155	3,64575	78,2748	0,25	76,557	3,5	1006,96	6,8	8,7	8,6	1	1	1	1	1	1	1	1	1	0	1	-46,088795	274,227231	274,556868	0
14.01.2021	22:34:44	0	0	3,954344	3,82575	82,9944	0,253	76,542	3,5	1007	6,8	8,7	8,6	1	1	1	1	1	1	1	1	1	0	1	-45,454545	274,091012	274,554485	0
14.01.2021	22:34:45	0	0	3,502419	3,8145	76,8312	0,25	76,533	3,5	1006,98	6,8	8,8	8,6	1	1	1	1	1	1	1	1	1	0	1	-47,991543	274,191211	272,485687	0
14.01.2021	22:34:46	0	0	4,971205	3,65775	85,1652	0,256	76,521	3,5	1007,04	6,8	8,7	8,5	1	1	1	1	1	1	1	1	1	0	1	-41,296688	274,27235	279,560053	0
14.01.2021	22:34:47	0	0	3,050494	3,459	87,354	0,252	76,506	3,5	1007,04	6,8	8,7	8,6	1	1	1	1	1	1	1	1	1	0	1	-49,048626	274,126844	271,127779	0
14.01.2021	22:34:48	0	0	2,485572	3,39825	88,974	0,254	76,499	3,5	1007,02	6,8	8,7	8,7	1	1	1	1	1	1	1	1	1	0	1	-43,410853	274,134318	276,80047	0
14.01.2021	22:34:49	0	0	3,954367	3,38775	87,3504	0,253	76,487	3,5	1007,08	6,8	8,7	8,5	1	1	1	1	1	1	1	1	1	0	1	-43,904158	274,140298	276,33511	0
14.01.2021	22:34:50	0	0	3,050512	3,3855	82,98	0,248	76,477	3,5	1006,94	6,8	8,7	8,5	1	1	1	1	1	1	1	1	1	0	1	-44,397463	274,243762	276,325526	0
14.01.2021	22:34:51	0	0	2,93753	3,50775	88,5348	0,255	76,462	3,5	1006,94	6,8	8,7	8,5	1	1	1	1	1	1	1	1	1	0	1	-44,890768	274,108919	275,201902	0
14.01.2021	22:34:52	0	0	2,598584	3,61725	89,712	0,244	76,456	3,5	1006,82	6,8	8,7	8,5	1	1	1	1	1	1	1	1	1	0	1	-43,128964	274,119373	277,01254	0
14.01.2021	22:34:53	0	0	3,163494	3,5655	84,42	0,255	76,45	3,5	1007,14	6,8	8,7	8,5	1	1	1	1	1	1	1	1	1	0	1	-43,481325	274,228733	277,171364	0
14.01.2021	22:34:54	0	0	2,711534	3,5745	76,086	0,256	76,435	3,5	1006,88	6,8	8,7	8,7	1	1	1	1	1	1	1	1	1	0	1	-44,749824	274,102948	275,314956	0
14.01.2021	22:34:55	0	0	2,485602	3,47625	75,0348	0,258	76,421	3,5	1006,88	6,8	8,7	8,5	1	1	1	1	1	1	1	1	1	0	1	-52,008457	274,185214	268,440738	0
14.01.2021	22:34:56	0	0	4,971205	3,30525	70,8732	0,258	76,415	3,5	1007,04	6,8	8,7	8,5	1	1	1	1	1	1	1	1	1	0	1	-48,625793	274,270844	272,223902	0
14.01.2021	22:34:57	0	0	3,163475	3,47175	87,7356	0,259	76,397	3,5	1006,94	6,8	8,7	8,6	1	1	1	1	1	1	1	1	1	0	1	-43,199436	274,206211	277,347928	0
14.01.2021	22:34:58	0	0	4,971205	3,87525	80,1504	0,255	76,395	3,5	1006,94	6,8	8,8	8,5	1	1	1	1	1	1	1	1	1	0	1	-44,749824	274,270844	276,099871	0
14.01.2021	22:34:59	0	0	3,389437	4,2255	84,042	0,258	76,383	3,5	1006,98	6,8	8,7	8,6	1	1	1	1	1	1	1	1	1	0	1	-48,555321	274,221223	272,062244	0
14.01.2021	22:35:00	0	0	3,841385	4,11225	75,6036	0,256	76,342	3,5	1006,88	6,8	8,8	8,5	1	1	1	1	1	1	1	1	1	0	1	-47,075405	274,243762	273,647583	0
14.01.2021	22:35:01	0	0	3,841385	4,11225	75,6036	0,256	76,342	3,5	1006,88	6,8	8,8	8,5	1	1	1	1	1	1	1	1	1	0	1	-47,075405	274,243762	273,647583	0
14.01.2021	22:35:02	0	0	4,971175	4,0335	84,51	0,254	76,337	3,5	1007,1	6,8	8,7	8,6	1	1	1	1	1	1	1	1	1	0	1	-43,622269	274,170231	276,756884	0
14.01.2021	22:35:03	0	0	2,711566	3,9855	87,7284	0,258	76,345	3,5	1007,02	6,8	8,7	8,5	1	1	1	1	1	1	1	1	1	0	1	-51,021846	274,281386	269,877181	0
14.01.2021	22:35:04	0	0	3,163494	3,87675	90,3744	0,258	76,342	3,5	1007	6,8	8,7	8,5	1	1	1	1	1	1	1	1	1	0	1	-49,330514	274,222724	271,294073	0
14.01.2021	22:35:05	0	0	4,406268	3,786	94,374	0,259	76,335	3,5	1007,08	6,8	8,7	8,6	1	1	1	1	1	1	1	1	1	0	1	-41,226216	274,114893	278,894356	0
14.01.2021	22:35:06	0	0	4,858223	3,50475	71,6112	0,259	76,319	3,5	1006,9	6,8	8,8	8,5	1	1	1	1	1	1	1	1	1	0	1	-45,172657	274,216718	275,42384	0
14.01.2021	22:35:07	0	0	2,598569	3,38925	72,6696	0,26	76,329	3,5	1007,06	6,8	8,7	8,6	1	1	1	1	1	1	1	1	1	0	1	-46,018323	274,284399	274,894806	0
14.01.2021	22:35:08	0	0	4,293313	3,24975	84,0384	0,26	76,328	3,5	1007	6,8	8,7	8,5	1	1	1	1	1	1	1	1	1	0	1	-42,917548	274,218219	277,685971	0
14.01.2021	22:35:09	0	0	2,485587	3,26175	65,4696	0,265	76,328	3,5	1006,98	6,8	8,7	8,6	1	1	1	1	1	1	1	1	1	0	1	-46,441156	274,287413	274,486077	0
14.01.2021	22:35:10	0	0	4,406295	3,28125	80,478	0,259	76,317	3,5	1006,92	6,8	8,7	8,5	1	1	1	1	1	1	1	1	1	0	1	-47,075405	274,251281	273,682758	0
14.01.2021	22:35:11	0	0	2,485587	3,363	88,5744	0,262	76,335	3,5	1007,02	6,8	8,7	8,6	1	1	1	1	1	1	1	1	1	0	1	-44,608879	274,101456	275,448929	0
14.01.2021	22:35:12	0	0	3,841362	3,28275	73,062	0,259	76,304	3,5	1007	6,8	8,7	8,6	1	1	1	1	1	1	1	1	1	0	1	-42,494715	274,129833	277,695655	0
14.01.2021	22:35:13	0	0	2,824531	3,186	81,2016	0,256	76,312	3,5	1007,06	6,8	8,7	8,6	1	1	1	1	1	1	1	1	1	0	1	-51,162791	274,213715	269,419665	0
14.01.2021	22:35:14	0	0	2,598569	3,18	74,9304	0,257	76,318	3,5	1006,94	6,8	8,7	8,6	1	1	1	1	1	1	1	1	1	0	1	-43,692741	274,096979	276,344158	0
14.01.2021	22:35:15	0	0	3,389458	3,18375	78,6456	0,262	76,307	3,5	1007,02	6,8	8,8	8,5	1	1	1	1	1	1	1	1	1	0	1	-48,132488	274,245266	272,597534	0
14.01.2021	22:35:16	0	0	4,067325	3,2145	75,9924	0,254	76,305	3,5	1006,9	6,8	8,7	8,6	1	1	1	1	1	1	1	1	1	0	1	-46,370684	274,251281	274,38748	0
14.01.2021	22:35:17	0	0	3,389458	3,171	79,056	0,257	76,304	3,5	1006,98	6,8	8,7	8,5	1	1	1	1	1	1	1	1	1	0	1	-44,538407	274,239252	276,163484	0
14.01.2021	22:35:18	0	0	3,6154	3,231	76,8348	0,264	76,297	3,5	1007,02	6,8	8,7	8,6	1	1	1	1	1	1	1	1	1	0	1	-47,21635	274,110413	272,883295	0
14.01.2021	22:35:19	0	0	4,519277	3,41475	75,9816	0,258	76,287	3,5	1006,98	6,8	8,7	8,5	1	1	1	1	1	1	1	1	1	0	1	-45,806906	274,249777	274,944221	0
14.01.2021	22:35:20	0	0	2,711566	3,4665	72,7848	0,261	76,281	3,5	1007	6,8	8,7	8,5	1	1	1	1	1	1	1	1	1	0	1	-46,229739	274,165738	274,128415	0
14.01.2021	22:35:21	0	0	2,711566	3,38325	73,0512	0,256	76,277	3,5	1006,84	6,8	8,7	8,5	1	1	1	1	1	1	1	1	1	0	1	-46,018323	274,096979	274,018577	0
14.01.2021	22:35:22	0	0	4,632259	3,48825	73,7856	0,255	76,266	3,5	1006,92	6,8	8,7	8,5	1	1	1	1	1	1	1	1	1	0	1	-50,105708	274,218219	270,497811	0
14.01.2021	22:35:23	0	0	4,406295	3,39075	80,9064	0,263	76,259	3,5	1007,1	6,8	8,7	8,5	1	1	1	1	1	1	1	1	1	0	1	-43,269908	274,285906	277,650272	0
14.01.2021	22:35:24	0	0	3,954367	3,29475	83,7864	0,263	76,254	3,5	1006,94	6,8	8,7	8,5	1	1	1	1	1	1	1	1	1	0	1	-44,045102	274,153762	276,257082	0
14.01.2021	22:35:25	0	0	2,598553	3,11175	77,5944	0,263	76,249	3,5	1007,02	6,8	8,7	8,7	1	1	1	1	1	1	1	1	1	0	1	-42,917548	274,104441	277,154204	0
14.01.2021	22:35:26	0	0	3,95432	3,0975	75,6216	0,263	76,237	3,5	1007,08	6,8	8,7	8,7	1	1	1	1	1	1	1	1	1	0	1	-48,555321	274,219721	272,055221	0
14.01.2021	22:35:27	0	0	3,163494	3,15525	68,3964	0,263	76,228	3,5	1006,98	6,8	8,8	8,5	1	1	1	1	1	1	1	1	1	0	1	-42,847075	274,255794	277,9322	0
14.01.2021	22:35:28	0	0	3,728403	3,372	69,8688	0,257	76,213	3,5	1006,96	6,8	8,8	8,5	1	1	1	1	1	1	1	1	1	0	1	-44,679352	274,266328	276,149211	0
14.01.2021	22:35:29	0	0	3,6154	3,69375	72,666	0,261	76,227	3,5	1007,06	6,8	8,7	8,6	1	1	1	1	1	1	1	1	1	0	1	-45,172657	274,237749	275,522204	0
14.01.2021	22:35:30	0	0	3,6154	4,09425	75,2436	0,267	76,223	3,5	1007,06	6,8	8,7	8,6	1	1	1	1	1	1	1	1	1	0	1	-46,018323	274,095487	274,011609	0
14.01.2021	22:35:31	0	0	3,728359	4,176	77,2272	0,26	76,227	3,5	1007	6,8	8,7	8,7	1	1	1	1	1	1	1	1	1	0	1	-45,665962	274,14329	274,587283	0
14.01.2021	22:35:32	0	0	3,50244	4,446	69,156	0,261	76,225	3,5	1007	6,8	8,7	8,5	1	1	1	1	1	1	1	1	1	0	1	-42,283298	274,120867	277,865185	0
14.01.2021	22:35:33	0	0	5,4231	4,5765	82,5876	0,263	76,232	3,5	1006,94	6,8	8,7	8,6	1	1	1	1	1	1	1	1	1	0	1	-47,286822	274,260308	273,513573	0
14.01.2021	22:35:34	0	0	4,745184	4,7085	79,7652	0,262	76,219	3,5	1007,12	6,8	8,7	8,7	1	1	1	1	1	1	1	1	1	0	1	-46,5821	274,101456	273,475709	0
14.01.2021	22:35:35	0	0	2,824531	4,5525	77,5764	0,261	76,212	3,5	1006,96	6,8	8,7	8,6	1	1	1	1	1	1	1	1	1	0	1	-46,934461	274,266328	273,894101	0
14.01.2021	22:35:36	0	0	2,598569	4,3785	82,3428	0,264	76,216	3,5	1007	6,8	8,8	8,6	1	1	1	1	1	1	1	1	1	0	1	-45,172657	274,222724	275,451931	0
14.01.2021	22:35:37	0	0	3,6154	3,879	58,4856	0,257	76,218	3,5	1006,92	6,8	8,7	8,6	1	1	1	1	1	1	1	1	1	0	1	-45,59549	274,096979	274,44141	0
14.01.2021	22:35:38	0	0	4,293287	3,549	67,7592	0,263	76,214	3,5	1006,9	6,8	8,7	8,6	1	1	1	1	1	1	1	1	1	0	1	-47,780127	274,251281	272,978036	0
14.01.2021	22:35:39	0	0	3,954367	3,369	54,1152	0,264	76,184	3,5	1006,86	6,8	8,7	8,5	1	1	1	1	1	1	1	1	1	0	1	-46,5821	274,153762	273,720084	0
14.01.2021	22:35:40	0	0	2,598584	3,39525	70,8336	0,261	76,191	3,5	1007,02	6,8	8,7	8,5	1	1	1	1	1	1	1	1	1	0	1	-48,414376	274,132823	271,789961	0
14.01.2021	22:35:41	0	0	2,71155	3,549	69,1632	0,261	76,191	3,5	1007	6,8	8,7	8,6	1	1	1	1	1	1	1	1	1	0	1	-51,515152	274,15077	268,773046	0
14.01.2021	22:35:42	0	0	4,067325	3,618	73,0584	0,259	76,211	3,5	1007,1	6,8	8,7	8,6	1	1	1	1	1	1	1	1	1	0	1	-49,330514	274,281386	271,568513	0
14.01.2021	22:35:43	0	0	2,711534	3,5835	70,848	0,259	76,195	3,5	1007	6,8	8,7	8,7	1	1	1	1	1	1	1	1	1	0	1	-45,806906	274,20021	274,712396	0
14.01.2021	22:35:44	0	0	4,180281	3,52275	80,9028	0,258	76,199	3,5	1006,98	6,8	8,8	8,7	1	1	1	1	1	1	1	1	1	0	1	-44,256519	274,27988	276,63546	0
14.01.2021	22:35:45	0	0	4,067325	3,444	82,5912	0,263	76,207	3,5	1007	6,8	8,7	8,6	1	1	1	1	1	1	1	1	1	0	1	-44,467935	274,249777	276,283192	0
14.01.2021	22:35:46	0	0	4,51925	3,49575	79,4016	0,256	76,207	3,5	1006,92	6,8	8,7	8,6	1	1	1	1	1	1	1	1	1	0	1	-47,145877	274,276867	273,732004	0
14.01.2021	22:35:47	0	0	3,389437	3,29625	84,024	0,26	76,205	3,5	1007	6,8	8,7	8,6	1	1	1	1	1	1	1	1	1	0	1	-43,551797	274,101456	276,506012	0
14.01.2021	22:35:48	0	0	2,598584	3,09675	86,9832	0,264	76,197	3,5	1006,84	6,8	8,7	8,5	1	1	1	1	1	1	1	1	1	0	1	-46,934461	274,228733	273,718228	0
14.01.2021	22:35:49	0	0	2,93753	2,8455	60,5808	0,265	76,218	3,5	1006,96	6,8	8,7	8,5	1	1	1	1	1	1	1	1	1	0	1	-51,726568	274,290427	269,214771	0
14.01.2021	22:35:50	0	0	4,067349	2,73525	69,4764	0,26	76,213	3,5	1006,9	6,8	8,7	8,5	1	1	1	1	1	1	1	1	1	0	1	-48,555321	274,129833	271,635049	0
14.01.2021	22:35:51	0	0	2,598569	2,6295	87,3432	0,262	76,198	3,5	1006,94	6,7	8,7	8,6	1	1	1	1	1	1	1	1	1	0	1	-47,991543	274,101456	272,066266	0
14.01.2021	22:35:52	0	0	2,598569	2,44725	87,3468	0,262	76,229	3,5	1007	6,8	8,7	8,6	1	1	1	1	1	1	1	1	1	0	1	-46,159267	274,159749	274,170897	0
14.01.2021	22:35:53	0	0	3,502419	2,3355	86,2776	0,266	76,223	3,5	1007,02	6,8	8,8	8,6	1	1	1	1	1	1	1	1	1	0	1	-45,525018	274,11788	274,609508	0
14.01.2021	22:35:54	0	0	2,824548	2,83425	92,646	0,259	76,214	3,5	1007,02	6,8	8,7	8,5	1	1	1	1	1	1	1	1	1	0	1	-45,313601	274,096979	274,723299	0
14.01.2021	22:35:55	0	0	3,502419	3,43125	91,1736	0,266	76,227	3,5	1006,92	6,8	8,7	8,6	1	1	1	1	1	1	1	1	1	0	1	-46,511628	274,161246	273,825532	0
14.01.2021	22:35:56	0	0	4,519277	3,75	94,3488	0,265	76,225	3,5	1006,94	6,8	8,7	8,5	1	1	1	1	1	1	1	1	1	0	1	-45,454545	274,111906	274,652074	0
14.01.2021	22:35:57	0	0	3,276476	3,90825	93,4308	0,263	76,231	3,5	1007	6,8	8,7	8,5	1	1	1	1	1	1	1	1	1	0	1	-47,004933	274,120867	273,14355	0
14.01.2021	22:35:58	0	0	4,180306	3,79125	84,0348	0,263	76,225	3,5	1006,92	6,8	8,7	8,6	1	1	1	1	1	1	1	1	1	0	1	-44,96124	274,20321	275,572092	0
14.01.2021	22:35:59	0	0	2,711566	3,81825	93,7116	0,262	76,241	3,5	1007,1	6,8	8,7	8,5	1	1	1	1	1	1	1	1	1	0	1	-47,498238	274,137308	272,727056	0
14.01.2021	22:36:00	0	0	5,084156	3,25425	88,1352	0,27	76,234	3,5	1006,9	6,8	8,7	8,6	1	1	1	1	1	1	1	1	1	0	1	-50,317125	274,162743	270,027033	0
14.01.2021	22:36:01	0	0	5,084156	3,25425	88,1352	0,27	76,234	3,5	1006,9	6,8	8,7	8,6	1	1	1	1	1	1	1	1	1	0	1	-50,317125	274,162743	270,027033	0
14.01.2021	22:36:02	0	0	2,598584	3,16725	86,2884	0,262	76,225	3,5	1007	6,8	8,7	8,5	1	1	1	1	1	1	1	1	1	0	1	-48,555321	274,113399	271,558275	0
14.01.2021	22:36:03	0	0	3,841385	2,8845	62,7948	0,267	76,219	3,5	1007,12	6,8	8,7	8,5	1	1	1	1	1	1	1	1	1	0	1	-42,283298	274,228733	278,369391	0
14.01.2021	22:36:04	0	0	4,971175	2,82675	72,3168	0,26	76,219	3,5	1007	6,8	8,7	8,6	1	1	1	1	1	1	1	1	1	0	1	-50,599013	274,282893	270,307065	0
14.01.2021	22:36:05	0	0	3,163475	2,62875	59,1156	0,261	76,209	3,5	1006,92	6,8	8,7	8,6	1	1	1	1	1	1	1	1	1	0	1	-44,538407	274,207712	276,015974	0
14.01.2021	22:36:06	0	0	2,598584	2,33475	56,6604	0,262	76,201	3,5	1007,06	6,8	8,8	8,5	1	1	1	1	1	1	1	1	1	0	1	-48,132488	274,276867	272,745394	0
14.01.2021	22:36:07	0	0	2,711566	2,21925	43,6644	0,267	76,201	3,5	1007,02	6,8	8,7	8,5	1	1	1	1	1	1	1	1	1	0	1	-49,612403	274,132823	270,591934	0
14.01.2021	22:36:08	0	0	3,276436	2,34525	70,5852	0,26	76,194	3,5	1007,08	6,8	8,7	8,7	1	1	1	1	1	1	1	1	1	0	1	-45,384073	274,225728	275,254564	0
14.01.2021	22:36:09	0	0	3,728381	2,544	75,6288	0,26	76,186	3,5	1006,96	6,8	8,7	8,6	1	1	1	1	1	1	1	1	1	0	1	-46,863989	274,285906	274,056192	0
14.01.2021	22:36:10	0	0	3,276436	2,52075	82,3428	0,262	76,193	3,5	1007,04	6,8	8,8	8,7	1	1	1	1	1	1	1	1	1	0	1	-43,622269	274,132823	276,582068	0
14.01.2021	22:36:11	0	0	2,824531	2,421	65,4444	0,265	76,175	3,5	1006,96	6,8	8,7	8,6	1	1	1	1	1	1	1	1	1	0	1	-47,709655	274,225728	272,928982	0
14.01.2021	22:36:12	0	0	4,971175	2,36925	68,0112	0,261	76,175	3,5	1006,76	6,8	8,7	8,6	1	1	1	1	1	1	1	1	1	0	1	-48,20296	274,28892	272,731326	0
14.01.2021	22:36:13	0	0	2,598569	2,298	71,9712	0,265	76,164	3,5	1006,96	6,8	8,7	8,6	1	1	1	1	1	1	1	1	1	0	1	-46,863989	274,171729	273,522166	0
14.01.2021	22:36:14	0	0	5,310118	2,15025	68,778	0,257	76,147	3,5	1007,08	6,8	8,7	8,6	1	1	1	1	1	1	1	1	1	0	1	-49,119098	274,116386	271,00845	0
14.01.2021	22:36:15	0	0	2,937512	2,0145	68,3964	0,263	76,149	3,5	1006,98	6,8	8,7	8,6	1	1	1	1	1	1	1	1	1	0	1	-49,119098	274,135813	271,09921	0
14.01.2021	22:36:16	0	0	4,51925	1,98675	53,7408	0,261	76,137	3,5	1007,04	6,8	8,7	8,6	1	1	1	1	1	1	1	1	1	0	1	-48,766737	274,231738	271,900007	0
14.01.2021	22:36:17	0	0	2,711566	2,031	69,4764	0,257	76,138	3,5	1007,06	6,8	8,8	8,5	1	1	1	1	1	1	1	1	1	0	1	-47,498238	274,270844	273,351457	0
14.01.2021	22:36:18	0	0	4,293287	2,19675	69,8508	0,259	76,14	3,5	1006,94	6,8	8,7	8,6	1	1	1	1	1	1	1	1	1	0	1	-48,555321	274,242259	272,160635	0
14.01.2021	22:36:19	0	0	4,406268	2,34825	54,1116	0,261	76,14	3,5	1007,04	6,8	8,7	8,6	1	1	1	1	1	1	1	1	1	0	1	-49,119098	274,155259	271,19008	0
14.01.2021	22:36:20	0	0	3,954344	2,352	62,0316	0,265	76,142	3,5	1007,02	6,8	8,7	8,6	1	1	1	1	1	1	1	1	1	0	1	-45,59549	274,260308	275,204905	0
14.01.2021	22:36:21	0	0	2,485602	2,25525	75,2292	0,256	76,134	3,5	1006,96	6,7	8,7	8,5	1	1	1	1	1	1	1	1	1	0	1	-45,454545	274,213715	275,12791	0
14.01.2021	22:36:22	0	0	3,615421	2,26275	66,3156	0,263	76,147	3,5	1007,06	6,8	8,7	8,5	1	1	1	1	1	1	1	1	1	0	1	-46,229739	274,270844	274,619956	0
14.01.2021	22:36:23	0	0	2,937512	2,37975	83,34	0,254	76,142	3,5	1006,84	6,8	8,7	8,6	1	1	1	1	1	1	1	1	1	0	1	-48,766737	274,156756	271,549435	0
14.01.2021	22:36:24	0	0	3,50244	2,40825	70,2252	0,261	76,146	3,5	1007,12	6,8	8,7	8,5	1	1	1	1	1	1	1	1	1	0	1	-48,273432	274,252785	272,491768	0
14.01.2021	22:36:25	0	0	2,485587	2,64	80,136	0,263	76,149	3,5	1007	6,8	8,7	8,6	1	1	1	1	1	1	1	1	1	0	1	-45,102185	274,246769	275,634872	0
14.01.2021	22:36:26	0	0	2,372606	2,90025	70,2072	0,262	76,148	3,5	1007,04	6,8	8,7	8,6	1	1	1	1	1	1	1	1	1	0	1	-46,441156	274,114893	273,679416	0
14.01.2021	22:36:27	0	0	3,615421	3,114	71,9892	0,263	76,158	3,5	1007,06	6,8	8,7	8,5	1	1	1	1	1	1	1	1	1	0	1	-42,565187	274,285906	278,354994	0
14.01.2021	22:36:28	0	0	3,050494	3,29625	72,2808	0,256	76,146	3,5	1006,96	6,8	8,7	8,6	1	1	1	1	1	1	1	1	1	0	1	-47,498238	274,215217	273,091238	0
14.01.2021	22:36:29	0	0	3,389437	3,3825	82,3212	0,254	76,16	3,5	1007	6,8	8,7	8,6	1	1	1	1	1	1	1	1	1	0	1	-45,172657	274,111906	274,933963	0
14.01.2021	22:36:30	0	0	4,406268	3,62175	77,616	0,254	76,149	3,5	1007,08	6,8	8,7	8,6	1	1	1	1	1	1	1	1	1	0	1	-48,343904	274,129833	271,846466	0
14.01.2021	22:36:31	0	0	2,937512	3,6855	83,34	0,255	76,157	3,5	1006,88	6,8	8,7	8,6	1	1	1	1	1	1	1	1	1	0	1	-49,753347	274,091012	270,255683	0
14.01.2021	22:36:32	0	0	3,954367	3,666	81,9828	0,259	76,146	3,5	1006,82	6,8	8,7	8,5	1	1	1	1	1	1	1	1	1	0	1	-48,837209	274,222724	271,787379	0
14.01.2021	22:36:33	0	0	2,937512	3,31125	87,3648	0,261	76,15	3,5	1007,02	6,8	8,7	8,6	1	1	1	1	1	1	1	1	1	0	1	-45,59549	274,140298	274,643778	0
14.01.2021	22:36:34	0	0	4,293313	2,7825	71,9928	0,259	76,143	3,5	1006,96	6,8	8,7	8,5	1	1	1	1	1	1	1	1	1	0	1	-46,018323	274,258803	274,775032	0
14.01.2021	22:36:35	0	0	4,519277	2,44275	60,2532	0,262	76,142	3,5	1006,88	6,8	8,8	8,5	1	1	1	1	1	1	1	1	1	0	1	-51,726568	274,183716	268,71562	0
14.01.2021	22:36:36	0	0	2,711566	2,4105	83,7324	0,258	76,121	3,5	1007,1	6,7	8,7	8,5	1	1	1	1	1	1	1	1	1	0	1	-48,766737	274,257298	272,019578	0
14.01.2021	22:36:37	0	0	2,485587	2,71125	82,3536	0,256	76,121	3,5	1006,92	6,7	8,7	8,6	1	1	1	1	1	1	1	1	1	0	1	-45,736434	274,182217	274,698747	0
14.01.2021	22:36:38	0	0	2,937512	2,86575	59,1048	0,259	76,111	3,5	1007,06	6,8	8,7	8,6	1	1	1	1	1	1	1	1	1	0	1	-48,062016	274,275361	272,808818	0
14.01.2021	22:36:39	0	0	3,954344	2,77725	59,85	0,259	76,114	3,5	1006,86	6,8	8,7	8,6	1	1	1	1	1	1	1	1	1	0	1	-46,511628	274,243762	274,211361	0
14.01.2021	22:36:40	0	0	3,389437	2,643	53,7444	0,264	76,117	3,5	1006,96	6,8	8,7	8,6	1	1	1	1	1	1	1	1	1	0	1	-44,467935	274,11788	275,666591	0
14.01.2021	22:36:41	0	0	4,745241	2,6355	90,0432	0,253	76,137	3,5	1006,94	6,8	8,7	8,5	1	1	1	1	1	1	1	1	1	0	1	-50,246653	274,27235	270,610088	0
14.01.2021	22:36:42	0	0	4,180306	2,93475	56,2752	0,259	76,14	3,5	1007,06	6,8	8,7	8,6	1	1	1	1	1	1	1	1	1	0	1	-44,115574	274,234743	276,565227	0
14.01.2021	22:36:43	0	0	3,050475	2,949	66,5172	0,256	76,128	3,5	1006,86	6,8	8,7	8,7	1	1	1	1	1	1	1	1	1	0	1	-48,20296	274,276867	272,674921	0
14.01.2021	22:36:44	0	0	3,389437	3,0465	68,3748	0,263	76,149	3,5	1006,96	6,8	8,8	8,6	1	1	1	1	1	1	1	1	1	0	1	-48,273432	274,19721	272,231844	0
14.01.2021	22:36:45	0	0	4,858193	2,94225	72	0,251	76,142	3,5	1006,84	6,8	8,7	8,6	1	1	1	1	1	1	1	1	1	0	1	-49,753347	274,091012	270,255683	0
14.01.2021	22:36:46	0	0	2,485602	2,89275	81,594	0,263	76,146	3,5	1006,9	6,8	8,7	8,5	1	1	1	1	1	1	1	1	1	0	1	-45,243129	274,167235	275,122024	0
14.01.2021	22:36:47	0	0	2,485587	3,10575	78,7608	0,254	76,148	3,5	1006,9	6,8	8,8	8,6	1	1	1	1	1	1	1	1	1	0	1	-48,907681	274,254289	271,864556	0
14.01.2021	22:36:48	0	0	4,858223	3,048	76,068	0,255	76,151	3,5	1007,04	6,7	8,7	8,5	1	1	1	1	1	1	1	1	1	0	1	-50,17618	274,228733	270,476509	0
14.01.2021	22:36:49	0	0	3,6154	2,9325	77,9832	0,251	76,127	3,5	1006,7	6,8	8,7	8,6	1	1	1	1	1	1	1	1	1	0	1	-49,894292	274,219721	270,716249	0
14.01.2021	22:36:50	0	0	2,824514	2,65575	81,2196	0,261	76,134	3,5	1006,94	6,8	8,7	8,7	1	1	1	1	1	1	1	1	1	0	1	-46,300211	274,28892	274,634074	0
14.01.2021	22:36:51	0	0	3,6154	2,42025	67,6584	0,255	76,141	3,5	1006,98	6,8	8,7	8,6	1	1	1	1	1	1	1	1	1	0	1	-47,004933	274,19871	273,507356	0
14.01.2021	22:36:52	0	0	2,485587	2,51475	83,3472	0,256	76,15	3,5	1006,98	6,8	8,7	8,6	1	1	1	1	1	1	1	1	1	0	1	-44,820296	274,293441	276,135152	0
14.01.2021	22:36:53	0	0	2,711566	2,76	75,24	0,256	76,14	3,5	1006,98	6,8	8,8	8,5	1	1	1	1	1	1	1	1	1	0	1	-52,219873	274,132823	267,984464	0
14.01.2021	22:36:54	0	0	3,728403	2,81775	88,1064	0,251	76,133	3,5	1006,86	6,8	8,8	8,5	1	1	1	1	1	1	1	1	1	0	1	-44,326991	274,213715	276,255465	0
14.01.2021	22:36:55	0	0	2,71155	2,77125	83,3616	0,259	76,113	3,5	1006,9	6,8	8,7	8,6	1	1	1	1	1	1	1	1	1	0	1	-50,317125	274,287413	270,610108	0
14.01.2021	22:36:56	0	0	4,406268	2,75775	74,5452	0,257	76,125	3,5	1006,98	6,8	8,7	8,6	1	1	1	1	1	1	1	1	1	0	1	-49,119098	274,237749	271,575763	0
14.01.2021	22:36:57	0	0	4,745212	2,73525	70,8408	0,258	76,125	3,5	1007,08	6,8	8,7	8,6	1	1	1	1	1	1	1	1	1	0	1	-46,159267	274,287413	274,767966	0
14.01.2021	22:36:58	0	0	3,163456	2,84475	79,056	0,254	76,117	3,5	1006,64	6,8	8,7	8,7	1	1	1	1	1	1	1	1	1	0	1	-45,313601	274,19571	275,184662	0
14.01.2021	22:36:59	0	0	3,163494	2,91	103,2912	0,258	76,142	3,5	1007	6,8	8,7	8,5	1	1	1	1	1	1	1	1	1	0	1	-50,17618	274,281386	270,722847	0
14.01.2021	22:37:00	0	0	3,728381	2,7915	94,0968	0,257	76,151	3,5	1006,94	6,8	8,7	8,6	1	1	1	1	1	1	1	1	1	0	1	-47,991543	274,287413	272,935689	0
14.01.2021	22:37:01	0	0	3,728381	2,7915	94,0968	0,257	76,151	3,5	1006,94	6,8	8,7	8,6	1	1	1	1	1	1	1	1	1	0	1	-47,991543	274,287413	272,935689	0
14.01.2021	22:37:02	0	0	4,067349	2,751	70,3224	0,257	76,164	3,5	1006,96	6,8	8,8	8,5	1	1	1	1	1	1	1	1	1	0	1	-48,766737	274,192711	271,717503	0
14.01.2021	22:37:03	0	0	4,180306	2,733	86,6448	0,253	76,161	3,5	1007,06	6,8	8,8	8,6	1	1	1	1	1	1	1	1	1	0	1	-50,81043	274,269338	270,03222	0
14.01.2021	22:37:04	0	0	4,293287	2,5455	72,2916	0,254	76,18	3,5	1007,04	6,8	8,7	8,6	1	1	1	1	1	1	1	1	1	0	1	-49,119098	274,141794	271,127158	0
14.01.2021	22:37:05	0	0	2,824548	2,19975	60,9336	0,261	76,203	3,5	1007,02	6,8	8,7	8,5	1	1	1	1	1	1	1	1	1	0	1	-49,964764	274,281386	270,934264	0
14.01.2021	22:37:06	0	0	2,711566	2,0565	73,1592	0,256	76,213	3,5	1006,94	6,8	8,7	8,5	1	1	1	1	1	1	1	1	1	0	1	-49,048626	274,119373	271,092878	0
14.01.2021	22:37:07	0	0	3,050512	2,13075	71,9856	0,251	76,228	3,5	1007	6,8	8,7	8,5	1	1	1	1	1	1	1	1	1	0	1	-46,088795	274,227231	274,556868	0
14.01.2021	22:37:08	0	0	2,824531	2,27325	88,9704	0,257	76,213	3,5	1006,98	6,8	8,7	8,6	1	1	1	1	1	1	1	1	1	0	1	-46,018323	274,28892	274,915963	0
14.01.2021	22:37:09	0	0	3,841385	2,2785	62,028	0,256	76,226	3,5	1006,96	6,8	8,7	8,5	1	1	1	1	1	1	1	1	1	0	1	-46,018323	274,140298	274,220945	0
14.01.2021	22:37:10	0	0	4,293313	2,30775	75,2544	0,258	76,234	3,5	1006,96	6,8	8,7	8,5	1	1	1	1	1	1	1	1	1	0	1	-46,229739	274,114893	273,890832	0
14.01.2021	22:37:11	0	0	4,971145	2,27625	77,2308	0,253	76,227	3,5	1007	6,8	8,7	8,7	1	1	1	1	1	1	1	1	1	0	1	-49,18957	274,252785	271,57563	0
14.01.2021	22:37:12	0	0	2,485587	2,23875	77,9616	0,255	76,225	3,5	1006,98	6,8	8,7	8,6	1	1	1	1	1	1	1	1	1	0	1	-47,850599	274,282893	273,055479	0
14.01.2021	22:37:13	0	0	4,51925	2,36025	84,0348	0,253	76,23	3,5	1007,04	6,8	8,7	8,6	1	1	1	1	1	1	1	1	1	0	1	-44,045102	274,243762	276,677886	0
14.01.2021	22:37:14	0	0	3,728403	2,43825	76,8204	0,257	76,23	3,5	1006,98	6,8	8,7	8,5	1	1	1	1	1	1	1	1	1	0	1	-46,088795	274,204711	274,451553	0
14.01.2021	22:37:15	0	0	2,71155	2,6985	87,3684	0,251	76,226	3,5	1007	6,8	8,7	8,6	1	1	1	1	1	1	1	1	1	0	1	-52,149401	274,101456	267,908408	0
14.01.2021	22:37:16	0	0	2,93753	2,88225	88,1136	0,256	76,224	3,5	1006,88	6,8	8,7	8,5	1	1	1	1	1	1	1	1	1	0	1	-47,004933	274,12535	273,16449	0
14.01.2021	22:37:17	0	0	3,841385	3,09675	92,6316	0,257	76,218	3,5	1007,04	6,8	8,7	8,5	1	1	1	1	1	1	1	1	1	0	1	-44,96124	274,275361	275,909593	0
14.01.2021	22:37:18	0	0	2,598569	3,09675	81,9792	0,252	76,205	3,5	1007,08	6,8	8,7	8,6	1	1	1	1	1	1	1	1	1	0	1	-49,682875	274,215217	270,906601	0
14.01.2021	22:37:19	0	0	2,824531	2,9895	81,2016	0,248	76,199	3,5	1006,9	6,8	8,7	8,6	1	1	1	1	1	1	1	1	1	0	1	-47,145877	274,281386	273,75315	0
14.01.2021	22:37:20	0	0	3,389458	3,0165	71,9784	0,252	76,185	3,5	1006,98	6,8	8,7	8,5	1	1	1	1	1	1	1	1	1	0	1	-49,048626	274,270844	271,801069	0
14.01.2021	22:37:21	0	0	2,598569	2,9625	63,5652	0,252	76,195	3,5	1007,08	6,8	8,8	8,6	1	1	1	1	1	1	1	1	1	0	1	-51,867512	274,188213	268,595699	0
14.01.2021	22:37:22	0	0	2,937512	2,9235	73,062	0,252	76,187	3,5	1007,02	6,8	8,8	8,6	1	1	1	1	1	1	1	1	1	0	1	-48,273432	274,278374	272,611497	0
14.01.2021	22:37:23	0	0	2,598569	2,9295	69,4944	0,251	76,172	3,5	1006,96	6,8	8,8	8,6	1	1	1	1	1	1	1	1	1	0	1	-49,612403	274,183716	270,829785	0
14.01.2021	22:37:24	0	0	4,293287	2,87775	65,8332	0,258	76,192	3,5	1006,86	6,8	8,7	8,6	1	1	1	1	1	1	1	1	1	0	1	-50,105708	274,282893	270,80037	0
14.01.2021	22:37:25	0	0	4,519223	3,027	76,0068	0,254	76,168	3,5	1006,7	6,8	8,7	8,7	1	1	1	1	1	1	1	1	1	0	1	-50,458069	274,170231	269,921084	0
14.01.2021	22:37:26	0	0	4,406268	3,23175	64,2312	0,252	76,159	3,5	1006,9	6,8	8,7	8,6	1	1	1	1	1	1	1	1	1	0	1	-47,427766	274,278374	273,457163	0
14.01.2021	22:37:27	0	0	3,389458	3,32325	59,076	0,255	76,167	3,5	1007,08	6,8	8,8	8,5	1	1	1	1	1	1	1	1	1	0	1	-47,357294	274,237749	273,337567	0
14.01.2021	22:37:28	0	0	4,632259	3,41025	60,6672	0,247	76,157	3,5	1006,96	6,8	8,7	8,5	1	1	1	1	1	1	1	1	1	0	1	-47,427766	274,126844	272,748639	0
14.01.2021	22:37:29	0	0	3,163456	3,47775	69,8544	0,251	76,139	3,5	1007,04	6,8	8,7	8,7	1	1	1	1	1	1	1	1	1	0	1	-45,102185	274,099963	274,948654	0
14.01.2021	22:37:30	0	0	5,197137	3,699	73,0584	0,25	76,137	3,5	1007,04	6,8	8,7	8,6	1	1	1	1	1	1	1	1	1	0	1	-42,494715	274,174725	277,905444	0
14.01.2021	22:37:31	0	0	2,937512	3,726	70,6212	0,255	76,137	3,5	1006,96	6,8	8,7	8,6	1	1	1	1	1	1	1	1	1	0	1	-49,541931	274,275361	271,328903	0
14.01.2021	22:37:32	0	0	3,954344	3,84525	73,44	0,25	76,122	3,5	1007,06	6,8	8,8	8,6	1	1	1	1	1	1	1	1	1	0	1	-45,172657	274,104441	274,899095	0
14.01.2021	22:37:33	0	0	2,372606	3,7185	66,924	0,254	76,132	3,5	1007,1	6,8	8,7	8,6	1	1	1	1	1	1	1	1	1	0	1	-50,458069	274,161246	269,879091	0
14.01.2021	22:37:34	0	0	4,519223	3,4005	70,8588	0,251	76,12	3,5	1006,96	6,8	8,7	8,7	1	1	1	1	1	1	1	1	1	0	1	-49,18957	274,264822	271,631949	0
14.01.2021	22:37:35	0	0	4,745184	3,21825	66,2256	0,254	76,116	3,5	1007,02	6,8	8,7	8,7	1	1	1	1	1	1	1	1	1	0	1	-50,105708	274,228733	270,546981	0
14.01.2021	22:37:36	0	0	4,51925	3,19425	67,6656	0,251	76,111	3,5	1006,94	6,8	8,7	8,6	1	1	1	1	1	1	1	1	1	0	1	-49,964764	274,152266	270,330427	0
14.01.2021	22:37:37	0	0	2,937512	3,087	68,3928	0,253	76,11	3,5	1007,04	6,8	8,7	8,6	1	1	1	1	1	1	1	1	1	0	1	-48,273432	274,105934	271,805292	0
14.01.2021	22:37:38	0	0	2,71155	3,02025	72,6624	0,264	76,121	3,5	1007,02	6,8	8,8	8,6	1	1	1	1	1	1	1	1	1	0	1	-44,749824	274,189712	275,720397	0
14.01.2021	22:37:39	0	0	3,502419	2,98725	86,2704	0,255	76,112	3,5	1007,06	6,8	8,7	8,6	1	1	1	1	1	1	1	1	1	0	1	-46,511628	274,092503	273,504369	0
14.01.2021	22:37:40	0	0	2,37262	2,98275	88,1136	0,257	76,114	3,5	1007,1	6,8	8,7	8,5	1	1	1	1	1	1	1	1	1	0	1	-45,806906	274,168733	274,565247	0
14.01.2021	22:37:41	0	0	4,51925	2,988	96,9948	0,251	76,114	3,5	1006,98	6,8	8,7	8,6	1	1	1	1	1	1	1	1	1	0	1	-46,159267	274,276867	274,718614	0
14.01.2021	22:37:42	0	0	4,858164	2,88825	98,7732	0,256	76,122	3,5	1007	6,8	8,7	8,7	1	1	1	1	1	1	1	1	1	0	1	-48,20296	274,249777	272,548167	0
14.01.2021	22:37:43	0	0	3,615421	2,988	99,522	0,253	76,135	3,5	1006,94	6,8	8,7	8,5	1	1	1	1	1	1	1	1	1	0	1	-49,18957	274,224226	271,442042	0
14.01.2021	22:37:44	0	0	4,293287	3,00225	96,228	0,249	76,151	3,5	1006,86	6,8	8,8	8,6	1	1	1	1	1	1	1	1	1	0	1	-47,639183	274,108919	272,453488	0
14.01.2021	22:37:45	0	0	3,163456	2,71425	95,5404	0,253	76,155	3,5	1006,98	6,8	8,8	8,7	1	1	1	1	1	1	1	1	1	0	1	-49,18957	274,207712	271,364811	0
14.01.2021	22:37:46	0	0	2,598569	2,5575	91,9044	0,255	76,178	3,5	1007,1	6,8	8,8	8,6	1	1	1	1	1	1	1	1	1	0	1	-48,696265	274,146281	271,570959	0
14.01.2021	22:37:47	0	0	3,389437	2,4825	107,0352	0,248	76,185	3,5	1007,1	6,8	8,7	8,6	1	1	1	1	1	1	1	1	1	0	1	-52,008457	274,281386	268,890571	0
14.01.2021	22:37:48	0	0	3,163475	2,3925	89,3448	0,253	76,19	3,5	1007	6,8	8,7	8,6	1	1	1	1	1	1	1	1	1	0	1	-46,934461	274,17922	273,48671	0
14.01.2021	22:37:49	0	0	3,276456	2,424	92,6172	0,256	76,208	3,5	1007,16	6,8	8,7	8,6	1	1	1	1	1	1	1	1	1	0	1	-41,36716	274,270844	279,482535	0
14.01.2021	22:37:50	0	0	3,389437	2,376	83,4372	0,25	76,195	3,5	1007,04	6,8	8,7	8,6	1	1	1	1	1	1	1	1	1	0	1	-47,709655	274,28892	273,224631	0
14.01.2021	22:37:51	0	0	3,050494	2,25525	88,1028	0,254	76,203	3,5	1006,9	6,8	8,7	8,6	1	1	1	1	1	1	1	1	1	0	1	-46,159267	274,246769	274,577789	0
14.01.2021	22:37:52	0	0	2,93753	2,17575	86,2632	0,251	76,202	3,5	1006,98	6,8	8,7	8,5	1	1	1	1	1	1	1	1	1	0	1	-47,004933	274,111906	273,101687	0
14.01.2021	22:37:53	0	0	3,615421	2,1015	87,3216	0,258	76,191	3,5	1007	6,8	8,8	8,5	1	1	1	1	1	1	1	1	1	0	1	-49,753347	274,215217	270,836129	0
14.01.2021	22:37:54	0	0	4,067349	2,1765	81,5868	0,249	76,174	3,5	1006,94	6,8	8,7	8,5	1	1	1	1	1	1	1	1	1	0	1	-45,806906	274,27235	275,049834	0
14.01.2021	22:37:55	0	0	2,824548	2,57175	75,9924	0,25	76,172	3,5	1007,08	6,8	8,9	8,5	1	1	1	1	1	1	1	1	1	0	1	-45,172657	274,258803	275,620698	0
14.01.2021	22:37:56	0	0	4,293313	3,18	82,9728	0,253	76,172	3,5	1007,1	6,7	8,7	8,5	1	1	1	1	1	1	1	1	1	0	1	-45,806906	274,177721	274,60726	0
14.01.2021	22:37:57	0	0	4,745241	3,7185	83,7252	0,253	76,145	3,5	1006,96	6,8	8,7	8,5	1	1	1	1	1	1	1	1	1	0	1	-48,696265	274,260308	272,10413	0
14.01.2021	22:37:58	0	0	3,050494	3,8895	84,7836	0,248	76,13	3,5	1007,04	6,8	8,7	8,6	1	1	1	1	1	1	1	1	1	0	1	-49,119098	274,120867	271,029385	0
14.01.2021	22:37:59	0	0	4,745212	4,1115	85,9176	0,254	76,15	3,5	1007,04	6,7	8,8	8,6	1	1	1	1	1	1	1	1	1	0	1	-48,343904	274,231738	272,32284	0
14.01.2021	22:38:00	0	0	2,93753	4,17075	89,8128	0,251	76,134	3,5	1006,98	6,8	8,7	8,5	1	1	1	1	1	1	1	1	1	0	1	-48,696265	274,242259	272,019691	0
14.01.2021	22:38:01	0	0	2,93753	4,17075	89,8128	0,251	76,134	3,5	1006,98	6,8	8,7	8,5	1	1	1	1	1	1	1	1	1	0	1	-48,132488	274,162743	272,21167	0
14.01.2021	22:38:02	0	0	3,50244	4,002	94,3812	0,256	76,116	3,5	1007,02	6,7	8,7	8,5	1	1	1	1	1	1	1	1	1	0	1	-46,159267	274,083555	273,814941	0
14.01.2021	22:38:03	0	0	3,163475	3,86175	90,4032	0,246	76,107	3,5	1007	6,8	8,7	8,6	1	1	1	1	1	1	1	1	1	0	1	-44,679352	274,19721	275,825924	0
14.01.2021	22:38:04	0	0	4,180281	3,76275	65,8368	0,248	76,096	3,5	1006,96	6,7	8,7	8,7	1	1	1	1	1	1	1	1	1	0	1	-47,639183	274,251281	273,118981	0
14.01.2021	22:38:05	0	0	3,841339	3,93825	74,5344	0,248	76,103	3,5	1007,06	6,8	8,7	8,7	1	1	1	1	1	1	1	1	1	0	1	-44,397463	274,12535	275,771961	0
14.01.2021	22:38:06	0	0	2,711566	3,83175	71,2332	0,254	76,072	3,5	1006,98	6,8	8,7	8,5	1	1	1	1	1	1	1	1	1	0	1	-47,991543	274,237749	272,703317	0
14.01.2021	22:38:07	0	0	3,728381	3,648	82,9836	0,25	76,081	3,5	1007,02	6,8	8,7	8,6	1	1	1	1	1	1	1	1	1	0	1	-48,062016	274,239252	272,639876	0
14.01.2021	22:38:08	0	0	4,180306	3,432	83,7144	0,255	76,08	3,5	1007	6,8	8,7	8,6	1	1	1	1	1	1	1	1	1	0	1	-46,652572	274,128339	273,530815	0
14.01.2021	22:38:09	0	0	2,485587	3,3	83,3688	0,252	76,081	3,5	1007,06	6,8	8,8	8,6	1	1	1	1	1	1	1	1	1	0	1	-51,162791	274,263317	269,651686	0
14.01.2021	22:38:10	0	0	3,502398	3,20325	79,4016	0,248	76,093	3,5	1006,98	6,8	8,8	8,7	1	1	1	1	1	1	1	1	1	0	1	-51,233263	274,096979	268,803637	0
14.01.2021	22:38:11	0	0	2,485602	3,1725	78,2748	0,247	76,099	3,5	1007,06	6,8	8,7	8,5	1	1	1	1	1	1	1	1	1	0	1	-46,229739	274,113399	273,883856	0
14.01.2021	22:38:12	0	0	3,276456	3,3495	80,9316	0,252	76,096	3,5	1006,94	6,8	8,8	8,6	1	1	1	1	1	1	1	1	1	0	1	-45,313601	274,06716	274,584055	0
14.01.2021	22:38:13	0	0	2,146644	3,387	64,2492	0,251	76,111	3,5	1007,06	6,7	8,7	8,6	1	1	1	1	1	1	1	1	1	0	1	-46,018323	274,164241	274,332833	0
14.01.2021	22:38:14	0	0	2,71155	3,07875	72,288	0,252	76,111	3,5	1007,02	6,7	8,7	8,6	1	1	1	1	1	1	1	1	1	0	1	-45,736434	274,079082	274,216888	0
14.01.2021	22:38:15	0	0	3,163456	2,94225	79,0164	0,247	76,108	3,5	1007,02	6,7	8,7	8,7	1	1	1	1	1	1	1	1	1	0	1	-45,454545	274,14329	274,798699	0
14.01.2021	22:38:16	0	0	2,824531	2,84925	60,2604	0,252	76,115	3,5	1007,06	6,8	8,7	8,6	1	1	1	1	1	1	1	1	1	0	1	-47,709655	274,248273	273,034437	0
14.01.2021	22:38:17	0	0	3,389437	2,7495	75,9924	0,251	76,117	3,5	1007,08	6,7	8,7	8,6	1	1	1	1	1	1	1	1	1	0	1	-49,119098	274,07163	270,799428	0
14.01.2021	22:38:18	0	0	2,711534	2,655	70,6104	0,243	76,116	3,5	1006,98	6,8	8,7	8,7	1	1	1	1	1	1	1	1	1	0	1	-48,696265	274,131328	271,501088	0
14.01.2021	22:38:19	0	0	2,598569	2,6205	84,4992	0,254	76,122	3,5	1007,06	6,8	8,8	8,6	1	1	1	1	1	1	1	1	1	0	1	-52,43129	274,251281	268,326874	0
14.01.2021	22:38:20	0	0	3,841362	2,51175	61,6788	0,252	76,133	3,5	1007	6,7	8,7	8,6	1	1	1	1	1	1	1	1	1	0	1	-48,062016	274,113399	272,05158	0
14.01.2021	22:38:21	0	0	3,163475	2,45175	75,6324	0,252	76,141	3,5	1006,94	6,8	8,7	8,6	1	1	1	1	1	1	1	1	1	0	1	-50,246653	274,230235	270,413063	0
14.01.2021	22:38:22	0	0	2,598584	2,39475	71,9892	0,253	76,145	3,5	1006,9	6,8	8,8	8,5	1	1	1	1	1	1	1	1	1	0	1	-46,159267	274,260308	274,641128	0
14.01.2021	22:38:23	0	0	2,372606	2,3445	73,7964	0,254	76,14	3,5	1007,02	6,8	8,7	8,6	1	1	1	1	1	1	1	1	1	0	1	-49,682875	274,141794	270,563381	0
14.01.2021	22:38:24	0	0	2,711566	2,2695	80,5284	0,25	76,128	3,5	1006,84	6,8	8,7	8,5	1	1	1	1	1	1	1	1	1	0	1	-49,330514	274,212214	271,244922	0
14.01.2021	22:38:25	0	0	3,163494	2,307	70,5924	0,252	76,129	3,5	1007	6,8	8,7	8,5	1	1	1	1	1	1	1	1	1	0	1	-46,229739	274,239252	274,472152	0
14.01.2021	22:38:26	0	0	2,824548	2,361	48,8232	0,247	76,139	3,5	1007,02	6,8	8,8	8,5	1	1	1	1	1	1	1	1	1	0	1	-45,313601	274,186713	275,142602	0
14.01.2021	22:38:27	0	0	3,163475	2,39175	48,5856	0,252	76,133	3,5	1007,08	6,7	8,7	8,6	1	1	1	1	1	1	1	1	1	0	1	-50,951374	274,249777	269,799753	0
14.01.2021	22:38:28	0	0	5,197106	2,20275	33,642	0,249	76,113	3,5	1007,12	6,7	8,8	8,7	1	1	1	1	1	1	1	1	1	0	1	-47,991543	274,239252	272,710348	0
14.01.2021	22:38:29	0	0	4,406242	2,121	69,1416	0,253	76,124	3,5	1007,1	6,7	8,7	8,7	1	1	1	1	1	1	1	1	1	0	1	-46,370684	274,134318	273,840639	0
14.01.2021	22:38:30	0	0	3,954367	1,95825	53,7264	0,252	76,125	3,5	1007,26	6,7	8,8	8,5	1	1	1	1	1	1	1	1	1	0	1	-43,692741	274,07312	276,232742	0
14.01.2021	22:38:31	0	0	4,632259	1,79175	72,6696	0,253	76,124	3,5	1007,1	6,8	8,7	8,5	1	1	1	1	1	1	1	1	1	0	1	-44,820296	274,212214	275,75514	0
14.01.2021	22:38:32	0	0	3,728381	1,719	63,1908	0,252	76,107	3,5	1007,08	6,7	8,8	8,6	1	1	1	1	1	1	1	1	1	0	1	-50,458069	274,260308	270,342326	0
14.01.2021	22:38:33	0	0	5,084125	2,025	69,4692	0,248	76,121	3,5	1007,06	6,7	8,8	8,7	1	1	1	1	1	1	1	1	1	0	1	-47,075405	274,17922	273,345765	0
14.01.2021	22:38:34	0	0	3,276476	2,53725	74,5416	0,249	76,111	3,5	1006,86	6,8	8,8	8,5	1	1	1	1	1	1	1	1	1	0	1	-48,625793	274,08952	271,376271	0
14.01.2021	22:38:35	0	0	2,711566	2,80875	75,6144	0,253	76,116	3,5	1007,1	6,7	8,7	8,5	1	1	1	1	1	1	1	1	1	0	1	-46,441156	274,07312	273,484328	0
14.01.2021	22:38:36	0	0	4,067349	2,88825	71,2512	0,251	76,113	3,5	1007,08	6,7	8,8	8,5	1	1	1	1	1	1	1	1	1	0	1	-49,964764	274,14329	270,288481	0
14.01.2021	22:38:37	0	0	3,954344	2,8305	79,398	0,255	76,108	3,5	1007	6,8	8,7	8,6	1	1	1	1	1	1	1	1	1	0	1	-43,833686	274,248273	276,910406	0
14.01.2021	22:38:38	0	0	3,728381	2,8215	70,2108	0,247	76,112	3,5	1006,9	6,7	8,7	8,6	1	1	1	1	1	1	1	1	1	0	1	-47,357294	274,20171	273,169023	0
14.01.2021	22:38:39	0	0	3,163475	2,83575	84,8088	0,249	76,1	3,5	1007,04	6,7	8,7	8,6	1	1	1	1	1	1	1	1	1	0	1	-43,763214	274,086537	276,224921	0
14.01.2021	22:38:40	0	0	2,711566	2,77125	67,2768	0,25	76,109	3,5	1007,04	6,8	8,7	8,5	1	1	1	1	1	1	1	1	1	0	1	-49,682875	274,092503	270,333121	0
14.01.2021	22:38:41	0	0	3,95432	2,592	62,4096	0,248	76,105	3,5	1007,04	6,7	8,7	8,7	1	1	1	1	1	1	1	1	1	0	1	-44,467935	274,138803	275,764345	0
14.01.2021	22:38:42	0	0	4,51925	2,3925	51,7644	0,247	76,122	3,5	1007,06	6,7	8,8	8,6	1	1	1	1	1	1	1	1	1	0	1	-45,665962	274,086537	274,322173	0
14.01.2021	22:38:43	0	0	2,937512	2,2635	55,1736	0,239	76,111	3,5	1006,9	6,8	8,8	8,6	1	1	1	1	1	1	1	1	1	0	1	-49,260042	274,213715	271,322414	0
14.01.2021	22:38:44	0	0	2,937512	2,1945	63,8604	0,245	76,101	3,5	1006,92	6,8	8,8	8,6	1	1	1	1	1	1	1	1	1	0	1	-46,793517	274,12535	273,375907	0
14.01.2021	22:38:45	0	0	3,163456	2,33775	66,9168	0,242	76,112	3,5	1007,04	6,8	8,7	8,7	1	1	1	1	1	1	1	1	1	0	1	-48,273432	274,242259	272,442524	0
14.01.2021	22:38:46	0	0	3,954344	2,6445	71,9928	0,251	76,113	3,5	1006,98	6,7	8,7	8,6	1	1	1	1	1	1	1	1	1	0	1	-47,56871	274,173227	272,824446	0
14.01.2021	22:38:47	0	0	4,406295	3,177	63,468	0,248	76,101	3,5	1007	6,7	8,8	8,5	1	1	1	1	1	1	1	1	1	0	1	-44,326991	274,249777	276,424136	0
14.01.2021	22:38:48	0	0	3,163475	3,63675	57,7332	0,25	76,116	3,5	1007,08	6,7	8,8	8,6	1	1	1	1	1	1	1	1	1	0	1	-51,79704	274,19421	268,694212	0
14.01.2021	22:38:49	0	0	2,598553	3,97275	57,4128	0,244	76,114	3,5	1007,04	6,7	8,7	8,7	1	1	1	1	1	1	1	1	1	0	1	-46,018323	274,248273	274,725769	0
14.01.2021	22:38:50	0	0	3,389458	4,035	64,6128	0,244	76,101	3,5	1007	6,7	8,7	8,5	1	1	1	1	1	1	1	1	1	0	1	-49,330514	274,240755	271,378409	0
14.01.2021	22:38:51	0	0	4,745184	4,017	58,1076	0,244	76,104	3,5	1007,02	6,7	8,8	8,7	1	1	1	1	1	1	1	1	1	0	1	-49,330514	274,153762	270,971669	0
14.01.2021	22:38:52	0	0	2,37262	3,858	54,792	0,246	76,104	3,5	1007,02	6,8	8,8	8,5	1	1	1	1	1	1	1	1	1	0	1	-47,21635	274,237749	273,478511	0
14.01.2021	22:38:53	0	0	4,632259	3,354	50,274	0,245	76,112	3,5	1007,02	6,7	8,8	8,5	1	1	1	1	1	1	1	1	1	0	1	-51,303735	274,156756	269,012437	0
14.01.2021	22:38:54	0	0	3,389437	3,07425	71,6076	0,242	76,114	3,5	1006,94	6,7	8,8	8,6	1	1	1	1	1	1	1	1	1	0	1	-47,56871	274,237749	273,12615	0
14.01.2021	22:38:55	0	0	4,858193	2,73975	75,6108	0,245	76,117	3,5	1007,04	6,8	8,8	8,6	1	1	1	1	1	1	1	1	1	0	1	-49,400987	274,113399	270,712609	0
14.01.2021	22:38:56	0	0	2,824531	2,64375	87,3612	0,244	76,114	3,5	1006,96	6,7	8,8	8,6	1	1	1	1	1	1	1	1	1	0	1	-46,5821	274,06865	273,322512	0
14.01.2021	22:38:57	0	0	3,050494	2,55825	82,584	0,239	76,114	3,5	1007,06	6,7	8,7	8,6	1	1	1	1	1	1	1	1	1	0	1	-45,877378	274,216718	274,719119	0
14.01.2021	22:38:58	0	0	4,858193	2,54025	81,99	0,244	76,102	3,5	1007,06	6,7	8,8	8,6	1	1	1	1	1	1	1	1	1	0	1	-49,330514	274,08952	270,67155	0
14.01.2021	22:38:59	0	0	4,745212	2,3085	77,9796	0,238	76,107	3,5	1006,96	6,8	8,8	8,6	1	1	1	1	1	1	1	1	1	0	1	-45,736434	274,210713	274,831983	0
14.01.2021	22:39:00	0	0	3,163456	2,535	77,9724	0,243	76,115	3,5	1006,9	6,7	8,8	8,7	1	1	1	1	1	1	1	1	1	0	1	-49,330514	274,240755	271,378409	0
14.01.2021	22:39:01	0	0	3,163456	2,535	77,9724	0,243	76,115	3,5	1006,9	6,7	8,8	8,7	1	1	1	1	1	1	1	1	1	0	1	-49,330514	274,240755	271,378409	0
14.01.2021	22:39:02	0	0	3,276456	3,147	80,1396	0,247	76,117	3,5	1006,98	6,8	8,8	8,6	1	1	1	1	1	1	1	1	1	0	1	-51,233263	274,171729	269,152892	0
14.01.2021	22:39:03	0	0	3,050512	3,87075	84,8124	0,251	76,109	3,5	1007,16	6,7	8,8	8,5	1	1	1	1	1	1	1	1	1	0	1	-47,075405	274,215217	273,514071	0
14.01.2021	22:39:04	0	0	4,406268	4,52625	70,8588	0,245	76,088	3,5	1007,18	6,7	8,8	8,6	1	1	1	1	1	1	1	1	1	0	1	-48,766737	274,234743	271,914064	0
14.01.2021	22:39:05	0	0	4,632259	4,92075	83,3544	0,244	76,099	3,5	1006,9	6,7	8,8	8,5	1	1	1	1	1	1	1	1	1	0	1	-49,330514	274,116386	270,797034	0
14.01.2021	22:39:06	0	0	2,711566	5,02575	78,6456	0,246	76,093	3,5	1007	6,8	8,7	8,5	1	1	1	1	1	1	1	1	1	0	1	-47,075405	274,058223	272,780528	0
14.01.2021	22:39:07	0	0	5,310118	4,94925	62,7732	0,237	76,092	3,5	1006,98	6,7	8,7	8,6	1	1	1	1	1	1	1	1	1	0	1	-49,682875	274,128339	270,500512	0
14.01.2021	22:39:08	0	0	3,050494	5,1015	54,4788	0,244	76,108	3,5	1007,08	6,8	8,7	8,6	1	1	1	1	1	1	1	1	1	0	1	-47,21635	274,248273	273,527742	0
14.01.2021	22:39:09	0	0	2,485572	4,626	54,4896	0,242	76,096	3,5	1006,9	6,7	8,8	8,7	1	1	1	1	1	1	1	1	1	0	1	-47,709655	274,249777	273,041472	0
14.01.2021	22:39:10	0	0	4,519223	4,04775	68,0256	0,24	76,11	3,5	1006,9	6,7	8,8	8,7	1	1	1	1	1	1	1	1	1	0	1	-48,062016	274,177721	272,352151	0
14.01.2021	22:39:11	0	0	2,93753	3,58425	58,1256	0,245	76,115	3,5	1007,1	6,7	8,8	8,5	1	1	1	1	1	1	1	1	1	0	1	-47,498238	274,062691	272,378554	0
14.01.2021	22:39:12	0	0	3,389458	3,279	65,8296	0,246	76,108	3,5	1006,98	6,7	8,8	8,5	1	1	1	1	1	1	1	1	1	0	1	-49,18957	274,168733	271,182583	0
14.01.2021	22:39:13	0	0	3,954344	3,063	62,0244	0,244	76,104	3,5	1006,9	6,7	8,8	8,6	1	1	1	1	1	1	1	1	1	0	1	-52,149401	274,246769	268,587655	0
14.01.2021	22:39:14	0	0	3,502398	3,051	76,3812	0,244	76,114	3,5	1006,8	6,7	8,8	8,7	1	1	1	1	1	1	1	1	1	0	1	-44,608879	274,114893	275,511692	0
14.01.2021	22:39:15	0	0	4,406295	2,84925	58,1184	0,243	76,114	3,5	1007	6,7	8,8	8,5	1	1	1	1	1	1	1	1	1	0	1	-49,612403	274,228733	271,040286	0
14.01.2021	22:39:16	0	0	2,37262	2,39925	65,4804	0,241	76,106	3,5	1006,94	6,7	8,7	8,5	1	1	1	1	1	1	1	1	1	0	1	-47,004933	274,113399	273,108662	0
14.01.2021	22:39:17	0	0	4,067325	2,193	69,8652	0,242	76,116	3,5	1007,1	6,7	8,7	8,6	1	1	1	1	1	1	1	1	1	0	1	-48,132488	274,251281	272,625675	0
14.01.2021	22:39:18	0	0	3,841385	2,32275	82,5912	0,244	76,104	3,5	1007,02	6,7	8,8	8,5	1	1	1	1	1	1	1	1	1	0	1	-47,21635	274,053757	272,618732	0
14.01.2021	22:39:19	0	0	2,71155	2,5965	74,916	0,239	76,108	3,5	1007,02	6,7	8,7	8,6	1	1	1	1	1	1	1	1	1	0	1	-42,35377	274,168733	278,018383	0
14.01.2021	22:39:20	0	0	2,598569	2,769	92,6532	0,243	76,105	3,5	1007,16	6,7	8,8	8,6	1	1	1	1	1	1	1	1	1	0	1	-48,837209	274,263317	271,977268	0
14.01.2021	22:39:21	0	0	3,502419	2,937	84,42	0,241	76,107	3,5	1006,92	6,7	8,8	8,6	1	1	1	1	1	1	1	1	1	0	1	-47,991543	274,177721	272,422623	0
14.01.2021	22:39:22	0	0	4,632259	2,88975	95,562	0,24	76,092	3,5	1007,1	6,7	8,7	8,5	1	1	1	1	1	1	1	1	1	0	1	-48,343904	274,07014	271,567664	0
14.01.2021	22:39:23	0	0	2,937512	2,8845	95,8392	0,243	76,112	3,5	1007,04	6,8	8,8	8,6	1	1	1	1	1	1	1	1	1	0	1	-47,075405	274,120867	273,073078	0
14.01.2021	22:39:24	0	0	2,71155	2,7705	79,4268	0,242	76,108	3,5	1006,88	6,7	8,7	8,6	1	1	1	1	1	1	1	1	1	0	1	-47,004933	274,243762	273,718055	0
14.01.2021	22:39:25	0	0	2,824548	2,75175	81,2196	0,243	76,113	3,5	1007,1	6,7	8,7	8,5	1	1	1	1	1	1	1	1	1	0	1	-48,20296	274,20021	272,316343	0
14.01.2021	22:39:26	0	0	3,6154	3,0015	90,3996	0,244	76,118	3,5	1007,06	6,8	8,8	8,6	1	1	1	1	1	1	1	1	1	0	1	-43,692741	274,082064	276,274504	0
14.01.2021	22:39:27	0	0	4,858164	3,342	60,552	0,241	76,117	3,5	1007,02	6,8	8,8	8,7	1	1	1	1	1	1	1	1	1	0	1	-46,088795	274,243762	274,634194	0
14.01.2021	22:39:28	0	0	2,937512	3,05175	79,4268	0,238	76,089	3,5	1006,86	6,7	8,8	8,6	1	1	1	1	1	1	1	1	1	0	1	-50,105708	274,162743	270,238449	0
14.01.2021	22:39:29	0	0	2,485602	2,92125	98,4528	0,244	76,108	3,5	1006,9	6,7	8,8	8,5	1	1	1	1	1	1	1	1	1	0	1	-47,991543	274,266328	272,837019	0
14.01.2021	22:39:30	0	0	3,954344	2,89125	54,792	0,237	76,107	3,5	1007,12	6,8	8,8	8,6	1	1	1	1	1	1	1	1	1	0	1	-47,21635	274,104441	272,855402	0
14.01.2021	22:39:31	0	0	4,632259	3,0885	61,3116	0,242	76,098	3,5	1007,04	6,7	8,7	8,5	1	1	1	1	1	1	1	1	1	0	1	-49,964764	274,246769	270,772292	0
14.01.2021	22:39:32	0	0	4,745212	3,228	65,4732	0,237	76,108	3,5	1006,92	6,7	8,8	8,6	1	1	1	1	1	1	1	1	1	0	1	-53,488372	274,19721	267,016904	0
14.01.2021	22:39:33	0	0	2,824531	3,34275	66,2256	0,243	76,098	3,5	1006,8	6,7	8,8	8,6	1	1	1	1	1	1	1	1	1	0	1	-51,303735	274,12535	268,865688	0
14.01.2021	22:39:34	0	0	4,632231	3,4995	67,2876	0,243	76,109	3,5	1007	6,7	8,8	8,6	1	1	1	1	1	1	1	1	1	0	1	-51,092319	274,095487	268,937613	0
14.01.2021	22:39:35	0	0	2,259625	3,435	58,4928	0,243	76,101	3,5	1007,06	6,7	8,8	8,6	1	1	1	1	1	1	1	1	1	0	1	-48,837209	274,128339	271,346178	0
14.01.2021	22:39:36	0	0	4,406268	3,3765	67,68	0,235	76,097	3,5	1006,98	6,7	8,8	8,6	1	1	1	1	1	1	1	1	1	0	1	-51,374207	274,06716	268,523449	0
14.01.2021	22:39:37	0	0	5,310118	3,1875	60,642	0,239	76,091	3,5	1007	6,7	8,8	8,6	1	1	1	1	1	1	1	1	1	0	1	-46,370684	274,153762	273,9315	0
14.01.2021	22:39:38	0	0	4,51925	3,291	70,6104	0,242	76,113	3,5	1006,98	6,7	8,8	8,6	1	1	1	1	1	1	1	1	1	0	1	-47,850599	274,237749	272,844262	0
14.01.2021	22:39:39	0	0	3,954344	3,285	80,5356	0,234	76,098	3,5	1006,96	6,7	8,8	8,6	1	1	1	1	1	1	1	1	1	0	1	-49,119098	274,20021	271,400205	0
14.01.2021	22:39:40	0	0	2,937512	3,2625	76,014	0,235	76,117	3,5	1007,1	6,7	8,8	8,6	1	1	1	1	1	1	1	1	1	0	1	-49,119098	274,12535	271,050326	0
14.01.2021	22:39:41	0	0	4,293287	3,564	92,2788	0,237	76,121	3,5	1006,92	6,8	8,7	8,6	1	1	1	1	1	1	1	1	1	0	1	-47,709655	274,227231	272,936008	0
14.01.2021	22:39:42	0	0	3,841339	3,84225	83,3364	0,236	76,129	3,5	1006,98	6,8	8,8	8,7	1	1	1	1	1	1	1	1	1	0	1	-49,682875	274,19721	270,822401	0
14.01.2021	22:39:43	0	0	2,824531	3,90825	74,1708	0,242	76,148	3,5	1007,04	6,7	8,7	8,6	1	1	1	1	1	1	1	1	1	0	1	-46,5821	274,242259	274,133856	0
14.01.2021	22:39:44	0	0	3,954344	4,25325	85,9068	0,241	76,154	3,5	1007,06	6,8	8,8	8,6	1	1	1	1	1	1	1	1	1	0	1	-48,696265	274,128339	271,487122	0
14.01.2021	22:39:45	0	0	4,745184	4,7505	71,9784	0,233	76,152	3,5	1006,74	6,8	8,8	8,7	1	1	1	1	1	1	1	1	1	0	1	-48,414376	274,251281	272,343787	0
14.01.2021	22:39:46	0	0	2,71155	4,59525	70,6212	0,237	76,162	3,5	1007,14	6,8	8,8	8,6	1	1	1	1	1	1	1	1	1	0	1	-45,313601	274,095487	274,71633	0
14.01.2021	22:39:47	0	0	2,598569	4,0905	77,4756	0,24	76,183	3,5	1007,02	6,7	8,8	8,6	1	1	1	1	1	1	1	1	1	0	1	-47,004933	274,165738	273,353221	0
14.01.2021	22:39:48	0	0	3,728381	3,49125	78,2856	0,24	76,183	3,5	1006,94	6,8	8,8	8,6	1	1	1	1	1	1	1	1	1	0	1	-48,625793	274,077591	271,320569	0
14.01.2021	22:39:49	0	0	3,163475	3,19725	83,0052	0,237	76,188	3,5	1007,04	6,7	8,8	8,6	1	1	1	1	1	1	1	1	1	0	1	-53,488372	274,080573	266,471911	0
14.01.2021	22:39:50	0	0	2,598569	3,12075	75,2328	0,241	76,195	3,5	1007,08	6,8	8,8	8,6	1	1	1	1	1	1	1	1	1	0	1	-44,256519	274,079082	275,696803	0
14.01.2021	22:39:51	0	0	4,180306	2,97225	75,6072	0,243	76,197	3,5	1007	6,7	8,8	8,6	1	1	1	1	1	1	1	1	1	0	1	-47,357294	274,138803	272,874987	0
14.01.2021	22:39:52	0	0	3,954344	2,8785	83,7216	0,244	76,209	3,5	1006,98	6,7	8,8	8,6	1	1	1	1	1	1	1	1	1	0	1	-48,696265	274,091012	271,312765	0
14.01.2021	22:39:53	0	0	3,502419	2,7075	96,984	0,235	76,205	3,5	1006,86	6,7	8,8	8,6	1	1	1	1	1	1	1	1	1	0	1	-47,850599	274,06865	272,054013	0
14.01.2021	22:39:54	0	0	3,389437	2,5095	96,5952	0,237	76,194	3,5	1007,04	6,7	8,8	8,6	1	1	1	1	1	1	1	1	1	0	1	-47,21635	274,158252	273,106818	0
14.01.2021	22:39:55	0	0	2,937495	2,32425	90,7884	0,24	76,201	3,5	1006,94	6,7	8,8	8,7	1	1	1	1	1	1	1	1	1	0	1	-48,907681	274,061202	270,962157	0
14.01.2021	22:39:56	0	0	3,502419	2,229	74,9232	0,24	76,204	3,5	1007	6,7	8,8	8,6	1	1	1	1	1	1	1	1	1	0	1	-52,078929	274,17922	268,342242	0
14.01.2021	22:39:57	0	0	3,50244	2,4285	82,6092	0,244	76,196	3,5	1006,94	6,8	8,8	8,5	1	1	1	1	1	1	1	1	1	0	1	-51,374207	274,249777	269,37692	0
14.01.2021	22:39:58	0	0	3,276436	2,47725	76,3668	0,243	76,189	3,5	1007,02	6,7	8,8	8,7	1	1	1	1	1	1	1	1	1	0	1	-44,890768	274,110413	275,208877	0
14.01.2021	22:39:59	0	0	4,406295	3,13575	81,234	0,236	76,183	3,5	1006,9	6,7	8,8	8,5	1	1	1	1	1	1	1	1	1	0	1	-48,696265	274,170231	271,682889	0
14.01.2021	22:40:00	0	0	3,050494	3,909	74,5452	0,241	76,19	3,5	1007,04	6,7	8,8	8,6	1	1	1	1	1	1	1	1	1	0	1	-48,696265	274,07163	271,222261	0
14.01.2021	22:40:01	0	0	3,050494	3,909	74,5452	0,241	76,19	3,5	1007,04	6,7	8,8	8,6	1	1	1	1	1	1	1	1	1	0	1	-45,454545	274,074611	274,477897	0
14.01.2021	22:40:02	0	0	4,067325	3,69975	67,662	0,241	76,176	3,5	1006,94	6,7	8,8	8,6	1	1	1	1	1	1	1	1	1	0	1	-48,907681	274,082064	271,059564	0
14.01.2021	22:40:03	0	0	4,067325	3,74625	66,2184	0,241	76,194	3,5	1006,92	6,8	8,8	8,6	1	1	1	1	1	1	1	1	1	0	1	-51,867512	274,237749	268,827348	0
14.01.2021	22:40:04	0	0	2,485587	3,71325	81,6192	0,24	76,181	3,5	1006,94	6,7	8,8	8,6	1	1	1	1	1	1	1	1	1	0	1	-47,709655	274,20321	272,823677	0
14.01.2021	22:40:05	0	0	4,632231	3,4665	78,3144	0,243	76,179	3,5	1007,02	6,7	8,8	8,6	1	1	1	1	1	1	1	1	1	0	1	-49,753347	274,234743	270,927453	0
14.01.2021	22:40:06	0	0	3,728381	3,3915	72,0036	0,243	76,166	3,5	1007,12	6,8	8,8	8,6	1	1	1	1	1	1	1	1	1	0	1	-46,863989	274,245266	273,866033	0
14.01.2021	22:40:07	0	0	2,824531	3,43725	70,6032	0,246	76,154	3,5	1007,02	6,7	8,8	8,6	1	1	1	1	1	1	1	1	1	0	1	-51,162791	274,134318	269,048532	0
14.01.2021	22:40:08	0	0	4,180306	3,4245	79,0416	0,244	76,151	3,5	1006,84	6,7	8,8	8,6	1	1	1	1	1	1	1	1	1	0	1	-48,20296	274,246769	272,534097	0
14.01.2021	22:40:09	0	0	3,6154	3,64725	82,998	0,239	76,14	3,5	1006,92	6,7	8,8	8,6	1	1	1	1	1	1	1	1	1	0	1	-50,669486	274,091012	269,339545	0
14.01.2021	22:40:10	0	0	2,259625	3,8295	75,2508	0,243	76,142	3,5	1007,02	6,8	8,8	8,6	1	1	1	1	1	1	1	1	1	0	1	-51,79704	274,06567	268,09366	0
14.01.2021	22:40:11	0	0	3,502419	4,017	74,1816	0,235	76,125	3,5	1007,1	6,9	8,8	8,6	1	1	1	1	1	1	1	1	1	0	1	-45,59549	274,218219	275,008029	0
14.01.2021	22:40:12	0	0	5,084156	4,08	71,622	0,239	76,111	3,5	1006,94	6,7	8,8	8,6	1	1	1	1	1	1	1	1	1	0	1	-44,820296	274,170231	275,558858	0
14.01.2021	22:40:13	0	0	4,067349	4,20075	70,6032	0,24	76,117	3,5	1007	6,7	8,8	8,5	1	1	1	1	1	1	1	1	1	0	1	-45,736434	274,20171	274,789883	0
14.01.2021	22:40:14	0	0	5,084156	3,981	54,792	0,243	76,111	3,5	1007	6,8	8,8	8,6	1	1	1	1	1	1	1	1	1	0	1	-48,062016	274,19721	272,44326	0
14.01.2021	22:40:15	0	0	2,598569	3,945	53,7264	0,242	76,121	3,5	1007,12	6,8	8,8	8,6	1	1	1	1	1	1	1	1	1	0	1	-47,075405	274,155259	273,233773	0
14.01.2021	22:40:16	0	0	2,259625	3,9345	52,884	0,238	76,103	3,5	1006,9	6,7	8,8	8,6	1	1	1	1	1	1	1	1	1	0	1	-48,484848	274,239252	272,217043	0
14.01.2021	22:40:17	0	0	4,406268	3,90525	54,126	0,239	76,098	3,5	1007,04	6,7	8,8	8,6	1	1	1	1	1	1	1	1	1	0	1	-47,357294	274,098471	272,686575	0
14.01.2021	22:40:18	0	0	2,824514	3,9045	74,16	0,24	76,095	3,5	1007,12	6,7	8,8	8,7	1	1	1	1	1	1	1	1	1	0	1	-49,048626	274,219721	271,561915	0
14.01.2021	22:40:19	0	0	2,485587	3,69525	71,9964	0,239	76,088	3,5	1007,06	6,8	8,8	8,6	1	1	1	1	1	1	1	1	1	0	1	-48,062016	274,080573	271,898268	0
14.01.2021	22:40:20	0	0	4,745212	3,79725	69,1668	0,24	76,098	3,5	1007,06	6,7	8,7	8,6	1	1	1	1	1	1	1	1	1	0	1	-47,145877	274,107427	272,939819	0
14.01.2021	22:40:21	0	0	2,598569	3,9285	84,0456	0,241	76,071	3,5	1007	6,7	8,8	8,6	1	1	1	1	1	1	1	1	1	0	1	-45,525018	274,044826	274,268376	0
14.01.2021	22:40:22	0	0	4,180306	4,278	84,42	0,242	76,081	3,5	1007,02	6,7	8,8	8,6	1	1	1	1	1	1	1	1	1	0	1	-47,639183	274,134318	272,57214	0
14.01.2021	22:40:23	0	0	3,050494	4,062	74,1744	0,234	76,088	3,5	1007,04	6,8	8,8	8,6	1	1	1	1	1	1	1	1	1	0	1	-50,880902	274,228733	269,771787	0
14.01.2021	22:40:24	0	0	4,632231	3,594	62,7804	0,234	76,069	3,5	1006,96	6,8	8,8	8,6	1	1	1	1	1	1	1	1	1	0	1	-47,286822	274,215217	273,302655	0
14.01.2021	22:40:25	0	0	4,293287	3,20025	68,7492	0,239	76,098	3,5	1006,84	6,7	8,8	8,6	1	1	1	1	1	1	1	1	1	0	1	-46,652572	274,113399	273,461023	0
14.01.2021	22:40:26	0	0	4,51925	3,0855	71,6076	0,24	76,101	3,5	1007,08	6,7	8,8	8,6	1	1	1	1	1	1	1	1	1	0	1	-47,991543	274,050779	271,829639	0
14.01.2021	22:40:27	0	0	4,51925	2,97975	90,0072	0,239	76,108	3,5	1006,98	6,8	8,8	8,6	1	1	1	1	1	1	1	1	1	0	1	-44,256519	274,210713	276,311899	0
14.01.2021	22:40:28	0	0	4,745212	2,79675	82,7028	0,236	76,09	3,5	1006,98	6,8	8,8	8,6	1	1	1	1	1	1	1	1	1	0	1	-45,172657	274,14329	275,080588	0
14.01.2021	22:40:29	0	0	3,6154	2,67225	84,4164	0,241	76,095	3,5	1007,04	6,8	8,8	8,6	1	1	1	1	1	1	1	1	1	0	1	-49,612403	274,19871	270,899886	0
14.01.2021	22:40:30	0	0	4,51925	2,6055	65,4372	0,242	76,117	3,5	1007,02	6,7	8,8	8,6	1	1	1	1	1	1	1	1	1	0	1	-47,145877	274,04185	272,633626	0
14.01.2021	22:40:31	0	0	2,824531	2,56125	59,1084	0,244	76,107	3,5	1006,86	6,8	8,8	8,6	1	1	1	1	1	1	1	1	1	0	1	-46,441156	274,092503	273,574841	0
14.01.2021	22:40:32	0	0	4,067325	2,51175	59,868	0,237	76,105	3,5	1007,04	6,8	8,8	8,6	1	1	1	1	1	1	1	1	1	0	1	-47,991543	274,056734	271,857439	0
14.01.2021	22:40:33	0	0	4,858193	2,457	75,6252	0,24	76,114	3,5	1006,96	6,8	8,8	8,6	1	1	1	1	1	1	1	1	1	0	1	-49,612403	274,20171	270,913914	0
14.01.2021	22:40:34	0	0	2,824531	2,57325	74,5308	0,24	76,112	3,5	1006,98	6,7	8,8	8,6	1	1	1	1	1	1	1	1	1	0	1	-48,625793	274,114893	271,494779	0
14.01.2021	22:40:35	0	0	4,180306	2,601	72,4284	0,234	76,111	3,5	1006,98	6,8	8,8	8,6	1	1	1	1	1	1	1	1	1	0	1	-47,427766	274,234743	273,253035	0
14.01.2021	22:40:36	0	0	4,858193	2,51025	83,3508	0,236	76,119	3,5	1007,02	6,8	8,8	8,6	1	1	1	1	1	1	1	1	1	0	1	-47,427766	274,098471	272,616103	0
14.01.2021	22:40:37	0	0	4,180306	2,79825	89,7048	0,263	76,119	3,5	1007,26	6,8	8,8	8,6	1	1	1	1	1	1	1	1	1	0	1	-47,709655	274,04185	272,069849	0
14.01.2021	22:40:38	0	0	3,6154	3,2535	79,4052	0,241	76,133	3,5	1007	6,8	8,8	8,6	1	1	1	1	1	1	1	1	1	0	1	-45,031712	274,189712	275,438508	0
14.01.2021	22:40:39	0	0	2,71155	3,1275	92,2752	0,236	76,116	3,5	1007,16	6,8	8,8	8,6	1	1	1	1	1	1	1	1	1	0	1	-49,260042	274,212214	271,315394	0
14.01.2021	22:40:40	0	0	4,51925	3,00675	86,2668	0,24	76,121	3,5	1007,04	6,7	8,7	8,6	1	1	1	1	1	1	1	1	1	0	1	-49,18957	274,219721	271,420971	0
14.01.2021	22:40:41	0	0	3,841362	2,90625	86,6808	0,24	76,122	3,5	1007	6,8	8,8	8,6	1	1	1	1	1	1	1	1	1	0	1	-48,343904	274,140298	271,895364	0
14.01.2021	22:40:42	0	0	4,406268	2,736	89,712	0,242	76,13	3,5	1007,1	6,8	8,8	8,6	1	1	1	1	1	1	1	1	1	0	1	-49,753347	274,218219	270,850171	0
14.01.2021	22:40:43	0	0	3,841362	2,493	67,6692	0,237	76,124	3,5	1007	6,8	8,8	8,6	1	1	1	1	1	1	1	1	1	0	1	-50,458069	274,165738	269,900085	0
14.01.2021	22:40:44	0	0	2,598569	2,2995	80,1504	0,24	76,114	3,5	1006,84	6,8	8,8	8,6	1	1	1	1	1	1	1	1	1	0	1	-48,273432	274,191211	272,203798	0
14.01.2021	22:40:45	0	0	3,841362	2,076	64,62	0,238	76,104	3,5	1006,98	6,7	8,8	8,6	1	1	1	1	1	1	1	1	1	0	1	-50,528541	274,245266	270,201481	0
14.01.2021	22:40:46	0	0	2,485587	1,91775	74,9628	0,242	76,116	3,5	1007,18	6,7	8,7	8,6	1	1	1	1	1	1	1	1	1	0	1	-49,964764	274,153762	270,33742	0
14.01.2021	22:40:47	0	0	3,163475	1,7115	65,0664	0,238	76,088	3,5	1007,06	6,8	8,8	8,6	1	1	1	1	1	1	1	1	1	0	1	-47,991543	274,062691	271,885248	0
14.01.2021	22:40:48	0	0	4,745212	1,875	65,4732	0,244	76,104	3,5	1007,12	6,7	8,8	8,6	1	1	1	1	1	1	1	1	1	0	1	-47,21635	274,079082	272,736973	0
14.01.2021	22:40:49	0	0	3,841362	2,2545	63,4752	0,236	76,096	3,5	1007,12	6,8	8,8	8,6	1	1	1	1	1	1	1	1	1	0	1	-47,498238	274,209212	273,063161	0
14.01.2021	22:40:50	0	0	3,502419	2,57025	72,6696	0,244	76,085	3,5	1007	6,7	8,8	8,6	1	1	1	1	1	1	1	1	1	0	1	-46,300211	274,096979	273,736688	0
14.01.2021	22:40:51	0	0	4,971175	2,52825	62,4096	0,237	76,08	3,5	1007,04	6,8	8,8	8,6	1	1	1	1	1	1	1	1	1	0	1	-50,951374	274,050779	268,869809	0
14.01.2021	22:40:52	0	0	2,485587	2,532	66,528	0,237	76,088	3,5	1006,82	6,8	8,8	8,6	1	1	1	1	1	1	1	1	1	0	1	-46,018323	274,07014	273,893246	0
14.01.2021	22:40:53	0	0	4,51925	2,45475	62,4348	0,245	76,086	3,5	1007,02	6,8	8,8	8,6	1	1	1	1	1	1	1	1	1	0	1	-51,092319	274,152266	269,202872	0
14.01.2021	22:40:54	0	0	3,163475	2,505	75,9924	0,234	76,072	3,5	1006,96	6,8	8,7	8,6	1	1	1	1	1	1	1	1	1	0	1	-50,81043	274,043338	268,976018	0
14.01.2021	22:40:55	0	0	4,180306	2,41725	66,2292	0,24	76,081	3,5	1007	6,8	8,8	8,6	1	1	1	1	1	1	1	1	1	0	1	-47,21635	274,128339	272,967038	0
14.01.2021	22:40:56	0	0	4,293287	2,37525	70,9596	0,235	76,085	3,5	1007,02	6,8	8,8	8,6	1	1	1	1	1	1	1	1	1	0	1	-46,5821	274,04185	273,197403	0
14.01.2021	22:40:57	0	0	3,502419	2,5185	77,2056	0,236	76,073	3,5	1006,98	6,8	8,8	8,6	1	1	1	1	1	1	1	1	1	0	1	-47,427766	274,212214	273,14767	0
14.01.2021	22:40:58	0	0	4,632231	2,7255	72,306	0,239	76,071	3,5	1007,06	6,8	8,8	8,6	1	1	1	1	1	1	1	1	1	0	1	-51,374207	274,15077	268,913991	0
14.01.2021	22:40:59	0	0	3,954344	2,8425	65,4732	0,237	76,058	3,5	1006,92	6,8	8,8	8,6	1	1	1	1	1	1	1	1	1	0	1	-50,035236	274,034413	269,709552	0
14.01.2021	22:41:00	0	0	4,180306	2,83725	69,1452	0,234	76,062	3,5	1006,88	6,7	8,8	8,6	1	1	1	1	1	1	1	1	1	0	1	-49,964764	274,025491	269,738388	0
14.01.2021	22:41:01	0	0	4,180306	2,83725	69,1452	0,234	76,062	3,5	1006,88	6,7	8,8	8,6	1	1	1	1	1	1	1	1	1	0	1	-49,964764	274,025491	269,738388	0
14.01.2021	22:41:02	0	0	3,389437	2,86275	68,3964	0,239	76,066	3,5	1007,06	6,8	8,8	8,6	1	1	1	1	1	1	1	1	1	0	1	-43,622269	274,04185	276,157234	0
14.01.2021	22:41:03	0	0	4,745212	2,9865	70,2396	0,239	76,064	3,5	1007,08	6,8	8,8	8,6	1	1	1	1	1	1	1	1	1	0	1	-52,713178	274,156756	267,602994	0
14.01.2021	22:41:04	0	0	3,276456	2,997	65,1168	0,233	76,054	3,5	1006,98	6,8	8,8	8,6	1	1	1	1	1	1	1	1	1	0	1	-47,145877	274,08952	272,856187	0
14.01.2021	22:41:05	0	0	4,745212	2,697	68,0904	0,241	76,063	3,5	1007	6,8	8,8	8,6	1	1	1	1	1	1	1	1	1	0	1	-46,018323	274,191211	274,458907	0
14.01.2021	22:41:06	0	0	2,824531	2,421	60,5412	0,241	76,065	3,5	1007,04	6,8	8,8	8,6	1	1	1	1	1	1	1	1	1	0	1	-49,82382	274,147777	270,450395	0
14.01.2021	22:41:07	0	0	3,502419	2,37225	52,5096	0,238	76,062	3,5	1007	6,8	8,8	8,6	1	1	1	1	1	1	1	1	1	0	1	-48,273432	274,192711	272,210809	0
14.01.2021	22:41:08	0	0	3,276456	2,41725	69,1452	0,239	76,073	3,5	1006,96	6,8	8,8	8,6	1	1	1	1	1	1	1	1	1	0	1	-49,682875	274,06716	270,214781	0
14.01.2021	22:41:09	0	0	4,180306	2,48175	59,4684	0,24	76,067	3,5	1006,9	6,8	8,8	8,6	1	1	1	1	1	1	1	1	1	0	1	-46,300211	274,050779	273,520971	0
14.01.2021	22:41:10	0	0	3,954344	2,532	77,6016	0,246	76,067	3,5	1006,98	6,8	8,8	8,6	1	1	1	1	1	1	1	1	1	0	1	-47,427766	274,19721	273,07751	0
14.01.2021	22:41:11	0	0	3,389437	2,508	70,6248	0,236	76,092	3,5	1007,22	6,8	8,8	8,6	1	1	1	1	1	1	1	1	1	0	1	-47,639183	274,08952	272,362882	0
14.01.2021	22:41:12	0	0	4,51925	2,33325	66,5568	0,241	76,062	3,5	1007,06	6,8	8,8	8,6	1	1	1	1	1	1	1	1	1	0	1	-44,679352	274,01806	274,989121	0
14.01.2021	22:41:13	0	0	4,858193	2,17875	65,4696	0,236	76,086	3,5	1006,72	6,8	8,8	8,6	1	1	1	1	1	1	1	1	1	0	1	-47,780127	274,026978	271,929963	0
14.01.2021	22:41:14	0	0	4,51925	2,121	65,8296	0,237	76,081	3,5	1007,04	6,8	8,8	8,6	1	1	1	1	1	1	1	1	1	0	1	-52,924595	274,11788	267,209931	0
14.01.2021	22:41:15	0	0	2,71155	2,21775	68,3928	0,238	76,092	3,5	1007,02	6,8	8,8	8,6	1	1	1	1	1	1	1	1	1	0	1	-46,441156	274,186713	274,015047	0
14.01.2021	22:41:16	0	0	4,745212	2,54475	66,924	0,243	76,082	3,5	1007,04	6,8	8,8	8,6	1	1	1	1	1	1	1	1	1	0	1	-46,793517	274,158252	273,529651	0
14.01.2021	22:41:17	0	0	2,824531	2,6115	64,6344	0,234	76,079	3,5	1006,86	6,8	8,8	8,6	1	1	1	1	1	1	1	1	1	0	1	-50,387597	274,049291	269,426638	0
14.01.2021	22:41:18	0	0	2,937512	2,343	42,9228	0,234	76,072	3,5	1007,02	6,8	8,8	8,6	1	1	1	1	1	1	1	1	1	0	1	-48,766737	274,010631	270,867072	0
14.01.2021	22:41:19	0	0	4,067325	2,1315	67,0104	0,239	76,066	3,5	1006,92	6,8	8,8	8,6	1	1	1	1	1	1	1	1	1	0	1	-51,585624	274,077591	268,360738	0
14.01.2021	22:41:20	0	0	4,971175	2,0985	66,2004	0,231	76,057	3,5	1007,04	6,8	8,8	8,6	1	1	1	1	1	1	1	1	1	0	1	-47,21635	274,015088	272,438256	0
14.01.2021	22:41:21	0	0	4,180306	2,07525	59,472	0,237	76,06	3,5	1007	6,8	8,8	8,6	1	1	1	1	1	1	1	1	1	0	1	-52,219873	274,102948	267,844907	0
14.01.2021	22:41:22	0	0	4,406268	2,04	46,6092	0,236	76,069	3,5	1007,06	6,8	8,8	8,6	1	1	1	1	1	1	1	1	1	0	1	-43,692741	274,01806	275,975731	0
14.01.2021	22:41:23	0	0	3,841362	2,034	59,1876	0,227	76,056	3,5	1007	6,8	8,8	8,6	1	1	1	1	1	1	1	1	1	0	1	-44,890768	274,162743	275,453389	0
14.01.2021	22:41:24	0	0	4,180306	1,95375	61,3152	0,239	76,056	3,5	1006,9	6,8	8,8	8,6	1	1	1	1	1	1	1	1	1	0	1	-48,696265	274,161246	271,640895	0
14.01.2021	22:41:25	0	0	3,6154	1,90875	58,4676	0,236	76,059	3,5	1006,98	6,8	8,8	8,6	1	1	1	1	1	1	1	1	1	0	1	-46,018323	274,024005	273,677892	0
14.01.2021	22:41:26	0	0	4,067325	2,02575	49,9464	0,235	76,035	3,5	1007,04	6,8	8,8	8,6	1	1	1	1	1	1	1	1	1	0	1	-48,062016	274,098471	271,981853	0
14.01.2021	22:41:27	0	0	4,406268	2,0295	68,0112	0,24	76,048	3,5	1006,96	6,8	8,8	8,6	1	1	1	1	1	1	1	1	1	0	1	-52,642706	274,183716	267,799482	0
14.01.2021	22:41:28	0	0	3,389437	2,17425	52,8804	0,236	76,047	3,5	1007,08	6,8	8,8	8,6	1	1	1	1	1	1	1	1	1	0	1	-51,726568	274,083555	268,24764	0
14.01.2021	22:41:29	0	0	2,485587	2,2785	55,5516	0,237	76,025	3,5	1007,12	6,8	8,8	8,6	1	1	1	1	1	1	1	1	1	0	1	-49,541931	274,191211	270,935299	0
14.01.2021	22:41:30	0	0	3,050494	2,26125	63,1872	0,228	76,027	3,5	1007	6,8	8,8	8,6	1	1	1	1	1	1	1	1	1	0	1	-47,427766	274,062691	272,449026	0
14.01.2021	22:41:31	0	0	4,632231	2,27775	58,8744	0,235	76,026	3,5	1007,08	6,8	8,8	8,6	1	1	1	1	1	1	1	1	1	0	1	-48,132488	274,188213	272,330724	0
14.01.2021	22:41:32	0	0	4,293287	2,5185	63,4788	0,235	76,031	3,5	1007,06	6,8	8,8	8,6	1	1	1	1	1	1	1	1	1	0	1	-50,317125	274,135813	269,901183	0
14.01.2021	22:41:33	0	0	4,293287	3,1605	66,5316	0,229	76,032	3,5	1006,92	6,8	8,8	8,6	1	1	1	1	1	1	1	1	1	0	1	-45,384073	274,149273	274,897133	0
14.01.2021	22:41:34	0	0	4,745212	3,39825	95,5764	0,231	76,027	3,5	1006,94	6,8	8,8	8,6	1	1	1	1	1	1	1	1	1	0	1	-46,159267	274,174725	274,240892	0
14.01.2021	22:41:35	0	0	3,163475	3,7755	82,6092	0,225	76,015	3,5	1006,98	6,8	8,7	8,6	1	1	1	1	1	1	1	1	1	0	1	-48,555321	274,132823	271,649017	0
14.01.2021	22:41:36	0	0	3,163475	4,086	87,7572	0,234	76,015	3,5	1007,08	6,8	8,8	8,6	1	1	1	1	1	1	1	1	1	0	1	-49,400987	274,046314	270,399353	0
14.01.2021	22:41:37	0	0	2,937512	4,1925	71,2296	0,231	76,006	3,5	1007,06	6,8	8,8	8,6	1	1	1	1	1	1	1	1	1	0	1	-52,995067	274,000236	266,590241	0
14.01.2021	22:41:38	0	0	2,824531	3,93225	70,1964	0,23	76,015	3,5	1007,14	6,8	8,8	8,6	1	1	1	1	1	1	1	1	1	0	1	-47,075405	274,08952	272,926659	0
14.01.2021	22:41:39	0	0	4,293287	3,95025	85,1652	0,235	76,028	3,5	1007,04	6,8	8,8	8,6	1	1	1	1	1	1	1	1	1	0	1	-51,79704	274,185214	268,652155	0
14.01.2021	22:41:40	0	0	2,824531	3,711	73,7748	0,232	76,037	3,5	1007,02	6,8	8,8	8,6	1	1	1	1	1	1	1	1	1	0	1	-49,400987	274,113399	270,712609	0
14.01.2021	22:41:41	0	0	3,276456	3,4755	66,2148	0,229	76,041	3,5	1006,98	6,8	8,8	8,6	1	1	1	1	1	1	1	1	1	0	1	-52,360817	274,158252	267,96235	0
14.01.2021	22:41:42	0	0	3,728381	3,2295	69,1524	0,235	76,047	3,5	1007,14	6,7	8,8	8,6	1	1	1	1	1	1	1	1	1	0	1	-48,062016	274,00469	271,544075	0
14.01.2021	22:41:43	0	0	3,163475	3,033	71,5932	0,232	76,067	3,5	1006,96	6,8	8,8	8,6	1	1	1	1	1	1	1	1	1	0	1	-49,753347	274,131328	270,444006	0
14.01.2021	22:41:44	0	0	3,050494	2,94075	76,3632	0,231	76,075	3,5	1007	6,8	8,8	8,6	1	1	1	1	1	1	1	1	1	0	1	-47,56871	274,00469	272,03738	0
14.01.2021	22:41:45	0	0	3,276456	2,79975	81,6804	0,229	76,086	3,5	1007,02	6,8	8,8	8,6	1	1	1	1	1	1	1	1	1	0	1	-53,136011	274,021032	266,546331	0
14.01.2021	22:41:46	0	0	2,71155	2,568	76,3704	0,239	76,096	3,5	1007,1	6,8	8,8	8,6	1	1	1	1	1	1	1	1	1	0	1	-49,612403	274,11788	270,522123	0
14.01.2021	22:41:47	0	0	3,954344	2,589	71,9604	0,228	76,114	3,5	1007	6,8	8,8	8,6	1	1	1	1	1	1	1	1	1	0	1	-50,880902	274,167235	269,484251	0
14.01.2021	22:41:48	0	0	3,050494	2,61825	75,9816	0,232	76,125	3,5	1007,06	6,8	8,8	8,6	1	1	1	1	1	1	1	1	1	0	1	-50,528541	274,047803	269,278746	0
14.01.2021	22:41:49	0	0	3,050494	2,679	61,704	0,233	76,149	3,5	1007,06	6,8	8,7	8,6	1	1	1	1	1	1	1	1	1	0	1	-47,850599	274,173227	272,542558	0
14.01.2021	22:41:50	0	0	4,067325	2,754	61,3116	0,234	76,151	3,5	1006,94	6,7	8,8	8,6	1	1	1	1	1	1	1	1	1	0	1	-49,119098	274,158252	271,20407	0
14.01.2021	22:41:51	0	0	3,6154	2,658	73,0476	0,231	76,145	3,5	1007,1	6,8	8,7	8,6	1	1	1	1	1	1	1	1	1	0	1	-49,682875	274,168733	270,689278	0
14.01.2021	22:41:52	0	0	4,51925	2,5155	74,916	0,229	76,157	3,5	1007,1	6,7	8,7	8,6	1	1	1	1	1	1	1	1	1	0	1	-44,608879	274,165738	275,749274	0
14.01.2021	22:41:53	0	0	3,841362	2,36175	71,9784	0,232	76,142	3,5	1007,02	6,8	8,8	8,6	1	1	1	1	1	1	1	1	1	0	1	-50,528541	274,022518	269,160737	0
14.01.2021	22:41:54	0	0	4,406268	2,124	45,1764	0,226	76,145	3,5	1006,94	6,8	8,8	8,6	1	1	1	1	1	1	1	1	1	0	1	-50,105708	274,105934	269,973016	0
14.01.2021	22:41:55	0	0	2,937512	2,01	62,8056	0,233	76,138	3,5	1007	6,8	8,7	8,6	1	1	1	1	1	1	1	1	1	0	1	-45,59549	273,985395	273,920586	0
14.01.2021	22:41:56	0	0	4,971175	1,93875	52,9056	0,235	76,127	3,5	1007	6,8	8,8	8,6	1	1	1	1	1	1	1	1	1	0	1	-51,444679	274,123856	268,717763	0
14.01.2021	22:41:57	0	0	3,276456	1,986	60,9192	0,234	76,119	3,5	1007	6,8	8,7	8,6	1	1	1	1	1	1	1	1	1	0	1	-47,56871	274,015088	272,085895	0
14.01.2021	22:41:58	0	0	3,050494	2,1345	52,8156	0,231	76,101	3,5	1006,9	6,8	8,8	8,6	1	1	1	1	1	1	1	1	1	0	1	-48,343904	274,050779	271,477279	0
14.01.2021	22:41:59	0	0	3,050494	2,19	55,5588	0,23	76,097	3,5	1007,12	6,8	8,8	8,6	1	1	1	1	1	1	1	1	1	0	1	-49,541931	274,003205	270,057231	0
14.01.2021	22:42:00	0	0	4,406268	2,01525	59,0976	0,233	76,102	3,5	1006,94	6,7	8,8	8,6	1	1	1	1	1	1	1	1	1	0	1	-53,347428	274,00469	266,258663	0
14.01.2021	22:42:01	0	0	4,406268	2,01525	59,0976	0,233	76,102	3,5	1006,94	6,7	8,8	8,6	1	1	1	1	1	1	1	1	1	0	1	-53,347428	274,00469	266,258663	0
14.01.2021	22:42:02	0	0	3,502419	2,0085	73,7712	0,233	76,089	3,5	1006,96	6,7	8,8	8,6	1	1	1	1	1	1	1	1	1	0	1	-50,880902	274,111906	269,225718	0
14.01.2021	22:42:03	0	0	2,485587	2,19225	68,7744	0,234	76,097	3,5	1007,14	6,8	8,7	8,6	1	1	1	1	1	1	1	1	1	0	1	-49,400987	273,986879	270,122009	0
14.01.2021	22:42:04	0	0	3,841362	2,3205	67,6656	0,233	76,079	3,5	1007,02	6,7	8,7	8,6	1	1	1	1	1	1	1	1	1	0	1	-48,484848	274,061202	271,38499	0
14.01.2021	22:42:05	0	0	2,372606	2,349	83,7432	0,233	76,077	3,5	1007,12	6,7	8,8	8,6	1	1	1	1	1	1	1	1	1	0	1	-50,458069	274,141794	269,788187	0
14.01.2021	22:42:06	0	0	4,51925	2,34975	73,4328	0,232	76,08	3,5	1006,96	6,8	8,7	8,6	1	1	1	1	1	1	1	1	1	0	1	-48,766737	274,132823	271,4376	0
14.01.2021	22:42:07	0	0	4,180306	2,4075	74,5236	0,231	76,063	3,5	1006,96	6,8	8,7	8,6	1	1	1	1	1	1	1	1	1	0	1	-49,330514	274,146281	270,936709	0
14.01.2021	22:42:08	0	0	3,728381	2,70825	79,0488	0,227	76,084	3,5	1007,02	6,7	8,7	8,6	1	1	1	1	1	1	1	1	1	0	1	-47,498238	274,170231	272,880915	0
14.01.2021	22:42:09	0	0	5,310118	2,8395	59,868	0,23	76,074	3,5	1006,98	6,7	8,7	8,6	1	1	1	1	1	1	1	1	1	0	1	-49,541931	274,080573	270,418352	0
14.01.2021	22:42:10	0	0	2,71155	2,769	69,4692	0,237	76,091	3,5	1007,08	6,7	8,8	8,6	1	1	1	1	1	1	1	1	1	0	1	-52,078929	274,159749	268,251235	0
14.01.2021	22:42:11	0	0	4,51925	2,66175	81,2376	0,228	76,079	3,5	1006,94	6,7	8,7	8,6	1	1	1	1	1	1	1	1	1	0	1	-50,17618	274,164241	270,174975	0
14.01.2021	22:42:12	0	0	4,971175	2,87625	94,1112	0,234	76,077	3,5	1007,04	6,7	8,8	8,6	1	1	1	1	1	1	1	1	1	0	1	-52,149401	274,079082	267,803921	0
14.01.2021	22:42:13	0	0	2,937512	3,07725	89,7372	0,232	76,077	3,5	1007	6,8	8,7	8,6	1	1	1	1	1	1	1	1	1	0	1	-46,723044	273,977979	272,758439	0
14.01.2021	22:42:14	0	0	2,71155	2,829	79,0416	0,231	76,074	3,5	1007,1	6,7	8,8	8,6	1	1	1	1	1	1	1	1	1	0	1	-48,484848	274,032925	271,252999	0
14.01.2021	22:42:15	0	0	2,824531	2,66025	70,6212	0,233	76,076	3,5	1007,04	6,7	8,8	8,6	1	1	1	1	1	1	1	1	1	0	1	-45,243129	274,147777	275,031086	0
14.01.2021	22:42:16	0	0	4,971175	2,65125	71,9604	0,229	76,056	3,5	1007,08	6,7	8,7	8,6	1	1	1	1	1	1	1	1	1	0	1	-45,877378	274,149273	274,403827	0
14.01.2021	22:42:17	0	0	2,824531	2,58	65,8368	0,224	76,061	3,5	1007	6,7	8,7	8,6	1	1	1	1	1	1	1	1	1	0	1	-46,229739	274,053757	273,605342	0
14.01.2021	22:42:18	0	0	4,067325	2,52	80,1396	0,229	76,065	3,5	1007,04	6,7	8,7	8,6	1	1	1	1	1	1	1	1	1	0	1	-53,911205	274,146281	266,356019	0
14.01.2021	22:42:19	0	0	4,51925	2,637	71,2008	0,232	76,046	3,5	1007,02	6,8	8,7	8,6	1	1	1	1	1	1	1	1	1	0	1	-47,145877	274,038875	272,619738	0
14.01.2021	22:42:20	0	0	4,632231	2,886	74,8944	0,23	76,051	3,5	1006,96	6,7	8,7	8,6	1	1	1	1	1	1	1	1	1	0	1	-46,088795	273,964638	273,330463	0
14.01.2021	22:42:21	0	0	3,276456	3,26625	61,704	0,231	76,047	3,5	1007,04	6,7	8,8	8,6	1	1	1	1	1	1	1	1	1	0	1	-48,273432	274,07163	271,645094	0
14.01.2021	22:42:22	0	0	4,293287	3,47925	63,1692	0,227	76,022	3,5	1007	6,7	8,7	8,6	1	1	1	1	1	1	1	1	1	0	1	-49,471459	274,146281	270,795765	0
14.01.2021	22:42:23	0	0	3,954344	3,74775	65,4624	0,228	76,033	3,5	1007,02	6,7	8,7	8,6	1	1	1	1	1	1	1	1	1	0	1	-47,709655	274,152266	272,585536	0
14.01.2021	22:42:24	0	0	4,632231	3,69675	67,2984	0,23	76,027	3,5	1006,96	6,7	8,7	8,6	1	1	1	1	1	1	1	1	1	0	1	-51,656096	274,034413	268,088692	0
14.01.2021	22:42:25	0	0	3,502419	3,453	65,8332	0,227	76,034	3,5	1007,12	6,7	8,7	8,6	1	1	1	1	1	1	1	1	1	0	1	-50,317125	273,961674	269,088313	0
14.01.2021	22:42:26	0	0	4,293287	3,438	56,6784	0,229	76,017	3,5	1007,16	6,7	8,7	8,6	1	1	1	1	1	1	1	1	1	0	1	-52,149401	274,012117	267,49134	0
14.01.2021	22:42:27	0	0	2,824531	3,48825	57,0348	0,227	76,015	3,5	1007,04	6,7	8,8	8,6	1	1	1	1	1	1	1	1	1	0	1	-46,793517	274,122361	273,361946	0
14.01.2021	22:42:28	0	0	4,51925	3,49125	54,7992	0,227	76,003	3,5	1007,12	6,7	8,7	8,6	1	1	1	1	1	1	1	1	1	0	1	-50,81043	274,141794	269,435826	0
14.01.2021	22:42:29	0	0	4,180306	3,405	54,8676	0,227	75,997	3,5	1007	6,7	8,8	8,6	1	1	1	1	1	1	1	1	1	0	1	-53,558844	274,015088	266,095761	0
14.01.2021	22:42:30	0	0	2,598569	3,50475	60,9372	0,227	75,987	3,5	1006,88	6,7	8,7	8,6	1	1	1	1	1	1	1	1	1	0	1	-49,119098	274,149273	271,162108	0
14.01.2021	22:42:31	0	0	3,276456	3,585	64,638	0,226	75,991	3,5	1007,06	6,7	8,7	8,6	1	1	1	1	1	1	1	1	1	0	1	-51,444679	274,058223	268,411254	0
14.01.2021	22:42:32	0	0	4,51925	3,4515	69,4548	0,225	75,976	3,5	1006,96	6,7	8,7	8,6	1	1	1	1	1	1	1	1	1	0	1	-51,374207	273,964638	268,045051	0
14.01.2021	22:42:33	0	0	3,728381	3,32175	71,6148	0,223	75,969	3,5	1007,06	6,7	8,7	8,6	1	1	1	1	1	1	1	1	1	0	1	-46,511628	274,116386	273,61592	0
14.01.2021	22:42:34	0	0	3,728381	3,09525	88,974	0,23	75,97	3,5	1006,94	6,7	8,7	8,6	1	1	1	1	1	1	1	1	1	0	1	-50,105708	274,000236	269,4796	0
14.01.2021	22:42:35	0	0	2,937512	2,8515	89,7012	0,223	75,955	3,5	1006,96	6,7	8,7	8,6	1	1	1	1	1	1	1	1	1	0	1	-49,682875	273,982429	269,819361	0
14.01.2021	22:42:36	0	0	3,276476	2,7195	78,7716	0,224	75,959	3,5	1006,98	6,7	8,7	8,5	1	1	1	1	1	1	1	1	1	0	1	-50,035236	274,14329	270,218008	0
14.01.2021	22:42:37	0	0	4,51925	2,6775	82,584	0,225	75,954	3,5	1006,94	6,7	8,7	8,6	1	1	1	1	1	1	1	1	1	0	1	-50,387597	274,120867	269,760886	0
14.01.2021	22:42:38	0	0	2,71155	2,81325	73,44	0,222	75,951	3,5	1006,92	6,7	8,7	8,6	1	1	1	1	1	1	1	1	1	0	1	-44,115574	273,963156	275,296773	0
14.01.2021	22:42:39	0	0	3,050494	3,177	85,1688	0,223	75,949	3,5	1007,06	6,7	8,7	8,6	1	1	1	1	1	1	1	1	1	0	1	-47,427766	274,000236	272,157542	0
14.01.2021	22:42:40	0	0	4,745241	3,16425	72,684	0,218	75,945	3,5	1006,98	6,7	8,7	8,5	1	1	1	1	1	1	1	1	1	0	1	-49,119098	274,104441	270,952654	0
14.01.2021	22:42:41	0	0	4,067325	2,898	83,3652	0,216	75,939	3,5	1007	6,7	8,7	8,6	1	1	1	1	1	1	1	1	1	0	1	-49,894292	274,138803	270,337989	0
14.01.2021	22:42:42	0	0	3,728381	2,718	71,2584	0,221	75,961	3,5	1007,1	6,7	8,7	8,6	1	1	1	1	1	1	1	1	1	0	1	-46,018323	273,994298	273,539284	0
14.01.2021	22:42:43	0	0	4,067325	2,826	89,7156	0,219	75,937	3,5	1007,02	6,7	8,7	8,6	1	1	1	1	1	1	1	1	1	0	1	-47,991543	273,955749	271,386261	0
14.01.2021	22:42:44	0	0	2,824531	2,8185	86,2848	0,22	75,959	3,5	1007,02	6,7	8,7	8,6	1	1	1	1	1	1	1	1	1	0	1	-52,713178	274,024005	266,983036	0
14.01.2021	22:42:45	0	0	4,180306	2,69025	81,9576	0,226	75,951	3,5	1006,96	6,7	8,7	8,6	1	1	1	1	1	1	1	1	1	0	1	-44,256519	273,954267	275,114378	0
14.01.2021	22:42:46	0	0	5,084156	2,565	72,2844	0,215	75,946	3,5	1006,88	6,7	8,7	8,6	1	1	1	1	1	1	1	1	1	0	1	-50,035236	274,012117	269,605504	0
14.01.2021	22:42:47	0	0	3,276456	2,2605	56,2896	0,219	75,959	3,5	1007,04	6,7	8,7	8,6	1	1	1	1	1	1	1	1	1	0	1	-52,78365	274,123856	267,378792	0
14.01.2021	22:42:48	0	0	3,728381	2,19825	54,7992	0,223	75,964	3,5	1007,02	6,7	8,7	8,6	1	1	1	1	1	1	1	1	1	0	1	-48,132488	273,967602	271,300594	0
14.01.2021	22:42:49	0	0	3,050494	2,079	60,246	0,216	75,972	3,5	1006,96	6,7	8,7	8,6	1	1	1	1	1	1	1	1	1	0	1	-48,062016	273,963156	271,350332	0
14.01.2021	22:42:50	0	0	3,954344	1,99575	77,5692	0,217	75,972	3,5	1007,08	6,7	8,7	8,6	1	1	1	1	1	1	1	1	1	0	1	-46,511628	274,095487	273,518303	0
14.01.2021	22:42:51	0	0	4,067325	1,9155	62,7984	0,216	75,97	3,5	1007,06	6,7	8,7	8,6	1	1	1	1	1	1	1	1	1	0	1	-49,119098	274,095487	270,910833	0
14.01.2021	22:42:52	0	0	2,598569	1,9575	59,868	0,215	76,001	3,5	1006,94	6,7	8,7	8,6	1	1	1	1	1	1	1	1	1	0	1	-46,723044	274,129833	273,467326	0
14.01.2021	22:42:53	0	0	3,163475	2,019	51,0732	0,223	76,026	3,5	1006,92	6,7	8,7	8,6	1	1	1	1	1	1	1	1	1	0	1	-52,43129	273,980945	267,064029	0
14.01.2021	22:42:54	0	0	2,485587	2,05875	84,798	0,219	76,04	3,5	1007	6,7	8,7	8,6	1	1	1	1	1	1	1	1	1	0	1	-56,307259	274,12535	263,862165	0
14.01.2021	22:42:55	0	0	4,745241	2,12925	57,4056	0,212	76,032	3,5	1006,96	6,7	8,7	8,5	1	1	1	1	1	1	1	1	1	0	1	-49,048626	274,080573	270,911658	0
14.01.2021	22:42:56	0	0	3,502419	2,36475	55,9512	0,216	76,059	3,5	1007	6,7	8,7	8,6	1	1	1	1	1	1	1	1	1	0	1	-49,612403	274,08952	270,389661	0
14.01.2021	22:42:57	0	0	5,084156	2,50725	59,0868	0,209	76,071	3,5	1006,92	6,7	8,7	8,6	1	1	1	1	1	1	1	1	1	0	1	-45,59549	274,096979	274,44141	0
14.01.2021	22:42:58	0	0	2,937512	2,5695	65,8548	0,216	76,07	3,5	1006,94	6,7	8,7	8,6	1	1	1	1	1	1	1	1	1	0	1	-49,400987	274,058223	270,454947	0
14.01.2021	22:42:59	0	0	2,485587	2,57925	66,2472	0,214	76,085	3,5	1007,1	6,7	8,7	8,6	1	1	1	1	1	1	1	1	1	0	1	-47,498238	274,114893	272,622333	0
14.01.2021	22:43:00	0	0	3,389437	2,83425	50,6736	0,217	76,08	3,5	1006,98	6,7	8,7	8,6	1	1	1	1	1	1	1	1	1	0	1	-50,739958	273,948344	268,603319	0
14.01.2021	22:43:01	0	0	3,389437	2,83425	50,6736	0,217	76,08	3,5	1006,98	6,7	8,7	8,6	1	1	1	1	1	1	1	1	1	0	1	-50,739958	273,948344	268,603319	0
14.01.2021	22:43:02	0	0	2,937512	3,18825	51,8256	0,213	76,104	3,5	1006,98	6,7	8,7	8,6	1	1	1	1	1	1	1	1	1	0	1	-46,300211	273,983912	273,208944	0
14.01.2021	22:43:03	0	0	4,745241	3,129	46,224	0,214	76,111	3,5	1006,86	6,7	8,7	8,5	1	1	1	1	1	1	1	1	1	0	1	-45,172657	274,116386	274,954892	0
14.01.2021	22:43:04	0	0	4,51925	3,0765	51,7392	0,216	76,12	3,5	1007	6,7	8,7	8,6	1	1	1	1	1	1	1	1	1	0	1	-49,753347	273,964638	269,665911	0
14.01.2021	22:43:05	0	0	3,163494	2,823	39,1824	0,211	76,107	3,5	1006,96	6,7	8,7	8,5	1	1	1	1	1	1	1	1	1	0	1	-49,682875	274,055245	270,159156	0
14.01.2021	22:43:06	0	0	2,937512	2,637	42,9228	0,21	76,135	3,5	1007,08	6,7	8,7	8,6	1	1	1	1	1	1	1	1	1	0	1	-49,260042	273,946863	270,07633	0
14.01.2021	22:43:07	0	0	2,71155	2,66775	58,482	0,209	76,134	3,5	1006,86	6,7	8,7	8,6	1	1	1	1	1	1	1	1	1	0	1	-49,894292	273,988363	269,635625	0
14.01.2021	22:43:08	0	0	2,93753	2,71875	42,354	0,209	76,137	3,5	1007,04	6,7	8,7	8,5	1	1	1	1	1	1	1	1	1	0	1	-48,978154	274,082064	270,989092	0
14.01.2021	22:43:09	0	0	2,937512	2,87475	56,6424	0,213	76,159	3,5	1007,08	6,7	8,7	8,6	1	1	1	1	1	1	1	1	1	0	1	-51,233263	273,967602	268,199819	0
14.01.2021	22:43:10	0	0	3,841362	2,841	49,5792	0,213	76,186	3,5	1006,9	6,7	8,7	8,6	1	1	1	1	1	1	1	1	1	0	1	-50,17618	274,08952	269,825884	0
14.01.2021	22:43:11	0	0	4,406295	2,85375	58,4748	0,212	76,207	3,5	1006,98	6,7	8,7	8,5	1	1	1	1	1	1	1	1	1	0	1	-45,525018	274,123856	274,637425	0
14.01.2021	22:43:12	0	0	4,067325	2,94075	51,444	0,212	76,207	3,5	1006,98	6,7	8,7	8,6	1	1	1	1	1	1	1	1	1	0	1	-49,260042	274,049291	270,554192	0
14.01.2021	22:43:13	0	0	4,293287	2,93925	53,7336	0,215	76,219	3,5	1007,02	6,7	8,7	8,6	1	1	1	1	1	1	1	1	1	0	1	-46,5821	274,110413	273,517545	0
14.01.2021	22:43:14	0	0	4,745212	2,67825	70,8624	0,216	76,236	3,5	1007,02	6,7	8,7	8,6	1	1	1	1	1	1	1	1	1	0	1	-45,59549	274,022518	274,093788	0
14.01.2021	22:43:15	0	0	4,745241	2,34225	64,6056	0,211	76,248	3,5	1006,98	6,7	8,7	8,5	1	1	1	1	1	1	1	1	1	0	1	-45,947851	274,119373	274,193654	0
14.01.2021	22:43:16	0	0	3,615421	2,22525	75,9636	0,212	76,263	3,5	1007,08	6,7	8,7	8,5	1	1	1	1	1	1	1	1	1	0	1	-47,004933	274,044826	272,788461	0
14.01.2021	22:43:17	0	0	4,293313	2,166	68,4	0,206	76,256	3,5	1006,96	6,7	8,7	8,5	1	1	1	1	1	1	1	1	1	0	1	-47,56871	274,088029	272,426389	0
14.01.2021	22:43:18	0	0	2,824548	2,09775	61,686	0,211	76,266	3,5	1007,02	6,7	8,7	8,5	1	1	1	1	1	1	1	1	1	0	1	-49,894292	273,935023	269,386875	0
14.01.2021	22:43:19	0	0	4,519277	1,998	80,5464	0,209	76,263	3,5	1007,2	6,7	8,7	8,5	1	1	1	1	1	1	1	1	1	0	1	-48,273432	273,992814	271,277252	0
14.01.2021	22:43:20	0	0	4,293313	2,211	69,8652	0,215	76,273	3,5	1007,2	6,7	8,7	8,5	1	1	1	1	1	1	1	1	1	0	1	-49,612403	273,954267	269,758494	0
14.01.2021	22:43:21	0	0	2,824548	2,853	81,9648	0,208	76,258	3,5	1007,02	6,7	8,7	8,5	1	1	1	1	1	1	1	1	1	0	1	-55,109232	273,964638	264,310027	0
14.01.2021	22:43:22	0	0	4,971205	3,24825	71,6112	0,213	76,256	3,5	1007	6,6	8,7	8,5	1	1	1	1	1	1	1	1	1	0	1	-44,890768	274,111906	275,215852	0
14.01.2021	22:43:23	0	0	4,51925	3,4725	68,778	0,209	76,241	3,5	1007,02	6,7	8,7	8,6	1	1	1	1	1	1	1	1	1	0	1	-51,444679	274,061202	268,425159	0
14.01.2021	22:43:24	0	0	2,824548	3,51075	48,1392	0,212	76,228	3,5	1006,98	6,7	8,7	8,5	1	1	1	1	1	1	1	1	1	0	1	-50,035236	274,079082	269,918086	0
14.01.2021	22:43:25	0	0	2,146644	3,59775	49,5684	0,212	76,23	3,5	1007,1	6,7	8,7	8,6	1	1	1	1	1	1	1	1	1	0	1	-47,004933	274,093995	273,018031	0
14.01.2021	22:43:26	0	0	3,502419	3,6075	65,844	0,21	76,218	3,5	1006,94	6,7	8,7	8,6	1	1	1	1	1	1	1	1	1	0	1	-44,256519	274,056734	275,592463	0
14.01.2021	22:43:27	0	0	4,406295	3,4665	65,4696	0,21	76,196	3,5	1006,8	6,7	8,7	8,5	1	1	1	1	1	1	1	1	1	0	1	-49,541931	274,06716	270,355725	0
14.01.2021	22:43:28	0	0	3,163475	3,24075	74,16	0,21	76,197	3,5	1007,08	6,7	8,7	8,6	1	1	1	1	1	1	1	1	1	0	1	-48,555321	274,099963	271,495518	0
14.01.2021	22:43:29	0	0	4,971205	3,23625	70,2288	0,218	76,203	3,5	1007,1	6,7	8,7	8,5	1	1	1	1	1	1	1	1	1	0	1	-50,246653	274,113399	269,866943	0
14.01.2021	22:43:30	0	0	4,858223	3,3555	65,4768	0,206	76,201	3,5	1007,04	6,7	8,7	8,5	1	1	1	1	1	1	1	1	1	0	1	-49,119098	273,983912	270,390058	0
14.01.2021	22:43:31	0	0	3,728403	3,414	76,8096	0,214	76,201	3,5	1007,04	6,7	8,7	8,5	1	1	1	1	1	1	1	1	1	0	1	-47,357294	273,924668	271,875602	0
14.01.2021	22:43:32	0	0	2,93753	3,195	66,5424	0,211	76,196	3,5	1007,06	6,7	8,7	8,5	1	1	1	1	1	1	1	1	1	0	1	-51,79704	273,958711	267,594579	0
14.01.2021	22:43:33	0	0	2,711566	3,19875	72,3132	0,214	76,218	3,5	1007,22	6,7	8,7	8,5	1	1	1	1	1	1	1	1	1	0	1	-53,206483	274,105934	266,87224	0
14.01.2021	22:43:34	0	0	3,163494	3,35025	77,202	0,205	76,205	3,5	1006,86	6,7	8,7	8,5	1	1	1	1	1	1	1	1	1	0	1	-47,004933	273,970566	272,441974	0
14.01.2021	22:43:35	0	0	4,519277	3,2685	81,6228	0,208	76,233	3,5	1006,96	6,6	8,7	8,5	1	1	1	1	1	1	1	1	1	0	1	-48,062016	274,077591	271,884346	0
14.01.2021	22:43:36	0	0	2,824548	2,94225	67,6584	0,207	76,233	3,5	1006,96	6,7	8,7	8,5	1	1	1	1	1	1	1	1	1	0	1	-50,951374	273,954267	268,419523	0
14.01.2021	22:43:37	0	0	2,93753	2,67675	53,37	0,211	76,226	3,5	1007	6,7	8,7	8,5	1	1	1	1	1	1	1	1	1	0	1	-46,793517	273,963156	272,618831	0
14.01.2021	22:43:38	0	0	3,954367	2,73825	51,8436	0,216	76,21	3,5	1007,04	6,7	8,7	8,5	1	1	1	1	1	1	1	1	1	0	1	-50,17618	273,952786	269,187811	0
14.01.2021	22:43:39	0	0	4,067349	3,14475	60,3108	0,215	76,213	3,5	1007,08	6,7	8,7	8,5	1	1	1	1	1	1	1	1	1	0	1	-45,806906	274,113399	274,306689	0
14.01.2021	22:43:40	0	0	4,067325	3,57675	70,2144	0,215	76,194	3,5	1007,08	6,7	8,7	8,6	1	1	1	1	1	1	1	1	1	0	1	-48,414376	273,979462	271,074024	0
14.01.2021	22:43:41	0	0	3,276476	3,708	69,48	0,209	76,187	3,5	1006,9	6,7	8,7	8,5	1	1	1	1	1	1	1	1	1	0	1	-47,004933	274,091012	273,004097	0
14.01.2021	22:43:42	0	0	3,389458	3,9585	68,0004	0,212	76,181	3,5	1007,1	6,7	8,7	8,5	1	1	1	1	1	1	1	1	1	0	1	-47,357294	274,098471	272,686575	0
14.01.2021	22:43:43	0	0	5,197168	4,01925	69,48	0,214	76,186	3,5	1007,14	6,7	8,7	8,5	1	1	1	1	1	1	1	1	1	0	1	-46,018323	273,997267	273,553134	0
14.01.2021	22:43:44	0	0	2,598584	3,93975	71,6076	0,208	76,182	3,5	1007,02	6,6	8,7	8,5	1	1	1	1	1	1	1	1	1	0	1	-52,995067	274,107427	267,09063	0
14.01.2021	22:43:45	0	0	4,067349	3,78975	69,8472	0,21	76,168	3,5	1007,04	6,7	8,7	8,5	1	1	1	1	1	1	1	1	1	0	1	-50,951374	274,04185	268,828129	0
14.01.2021	22:43:46	0	0	3,954367	3,7905	72,666	0,215	76,163	3,5	1007,08	6,7	8,7	8,5	1	1	1	1	1	1	1	1	1	0	1	-48,273432	274,104441	271,79832	0
14.01.2021	22:43:47	0	0	4,180331	3,7755	77,9832	0,214	76,163	3,5	1007,1	6,7	8,7	8,5	1	1	1	1	1	1	1	1	1	0	1	-48,414376	274,025491	271,288775	0
14.01.2021	22:43:48	0	0	4,632259	3,69075	75,618	0,21	76,152	3,5	1006,82	6,7	8,7	8,5	1	1	1	1	1	1	1	1	1	0	1	-46,863989	273,91432	272,320667	0
14.01.2021	22:43:49	0	0	4,858223	3,74625	68,4144	0,207	76,151	3,5	1006,98	6,7	8,7	8,5	1	1	1	1	1	1	1	1	1	0	1	-47,004933	274,076101	272,934469	0
14.01.2021	22:43:50	0	0	3,050512	3,68325	61,308	0,208	76,16	3,5	1006,96	6,6	8,7	8,5	1	1	1	1	1	1	1	1	1	0	1	-47,004933	274,093995	273,018031	0
14.01.2021	22:43:51	0	0	4,745241	3,387	48,51	0,214	76,154	3,5	1006,98	6,7	8,7	8,5	1	1	1	1	1	1	1	1	1	0	1	-46,018323	274,044826	273,775071	0
14.01.2021	22:43:52	0	0	3,050512	3,10875	63,4896	0,202	76,138	3,5	1006,94	6,7	8,7	8,5	1	1	1	1	1	1	1	1	1	0	1	-49,894292	274,096979	270,142608	0
14.01.2021	22:43:53	0	0	3,728403	2,76	58,824	0,207	76,151	3,5	1006,9	6,7	8,7	8,5	1	1	1	1	1	1	1	1	1	0	1	-51,656096	274,06567	268,234605	0
14.01.2021	22:43:54	0	0	4,406295	2,811	70,866	0,212	76,135	3,5	1006,86	6,6	8,7	8,5	1	1	1	1	1	1	1	1	1	0	1	-48,978154	273,92319	270,247849	0
14.01.2021	22:43:55	0	0	2,93753	3,05325	51,0516	0,207	76,149	3,5	1006,88	6,7	8,7	8,5	1	1	1	1	1	1	1	1	1	0	1	-49,753347	273,933543	269,520922	0
14.01.2021	22:43:56	0	0	3,389458	3,147	55,1988	0,207	76,125	3,5	1007,04	6,7	8,6	8,5	1	1	1	1	1	1	1	1	1	0	1	-48,484848	274,046314	271,315492	0
14.01.2021	22:43:57	0	0	2,485602	3,16275	57,7332	0,209	76,132	3,5	1006,98	6,7	8,7	8,5	1	1	1	1	1	1	1	1	1	0	1	-47,075405	273,961674	272,330032	0
14.01.2021	22:43:58	0	0	5,197168	3,28575	67,2912	0,21	76,119	3,5	1007,04	6,6	8,7	8,5	1	1	1	1	1	1	1	1	1	0	1	-45,806906	273,970566	273,640001	0
14.01.2021	22:43:59	0	0	4,632259	3,38025	60,5304	0,21	76,125	3,5	1007,06	6,6	8,7	8,5	1	1	1	1	1	1	1	1	1	0	1	-48,20296	273,929105	271,05062	0
14.01.2021	22:44:00	0	0	2,711566	3,2655	37,674	0,208	76,137	3,5	1006,8	6,7	8,7	8,5	1	1	1	1	1	1	1	1	1	0	1	-47,850599	274,111906	272,256021	0
14.01.2021	22:44:01	0	0	2,711566	3,2655	37,674	0,208	76,137	3,5	1006,8	6,7	8,7	8,5	1	1	1	1	1	1	1	1	1	0	1	-47,850599	274,111906	272,256021	0
14.01.2021	22:44:02	0	0	3,615421	3,2505	48,816	0,208	76,155	3,5	1007,18	6,6	8,7	8,5	1	1	1	1	1	1	1	1	1	0	1	-51,79704	273,96612	267,62913	0
14.01.2021	22:44:03	0	0	2,824548	3,4485	82,5804	0,208	76,167	3,5	1007,14	6,6	8,7	8,5	1	1	1	1	1	1	1	1	1	0	1	-52,290345	274,08952	267,711719	0
14.01.2021	22:44:04	0	0	4,632259	3,35325	67,662	0,207	76,172	3,5	1007,04	6,7	8,7	8,5	1	1	1	1	1	1	1	1	1	0	1	-49,964764	274,111906	270,141856	0
14.01.2021	22:44:05	0	0	3,841385	3,20625	75,9816	0,205	76,166	3,5	1006,98	6,7	8,7	8,5	1	1	1	1	1	1	1	1	1	0	1	-52,219873	273,998751	267,358509	0
14.01.2021	22:44:06	0	0	2,146656	3,105	75,6396	0,212	76,178	3,5	1007	6,6	8,7	8,5	1	1	1	1	1	1	1	1	1	0	1	-49,400987	274,093995	270,621977	0
14.01.2021	22:44:07	0	0	3,050512	3,0555	74,9232	0,209	76,201	3,5	1006,94	6,6	8,7	8,5	1	1	1	1	1	1	1	1	1	0	1	-44,256519	274,046314	275,543821	0
14.01.2021	22:44:08	0	0	4,971205	3,08175	78,6744	0,2	76,202	3,5	1007,06	6,8	8,7	8,5	1	1	1	1	1	1	1	1	1	0	1	-51,092319	274,111906	269,014301	0
14.01.2021	22:44:09	0	0	4,180331	3,06975	77,2308	0,202	76,208	3,5	1006,96	6,7	8,7	8,5	1	1	1	1	1	1	1	1	1	0	1	-49,471459	273,998751	270,106923	0
14.01.2021	22:44:10	0	0	5,31015	3,087	72,6768	0,204	76,247	3,5	1006,98	6,6	8,7	8,5	1	1	1	1	1	1	1	1	1	0	1	-51,021846	274,088029	268,973253	0
14.01.2021	22:44:11	0	0	3,50244	3,19275	76,9356	0,203	76,243	3,5	1007,08	6,6	8,7	8,5	1	1	1	1	1	1	1	1	1	0	1	-52,43129	274,058223	267,424644	0
14.01.2021	22:44:12	0	0	4,406295	3,25725	79,4268	0,201	76,246	3,5	1007,06	6,6	8,7	8,5	1	1	1	1	1	1	1	1	1	0	1	-47,004933	273,943903	272,317634	0
14.01.2021	22:44:13	0	0	2,598584	3,18375	70,2144	0,201	76,263	3,5	1006,94	6,8	8,7	8,5	1	1	1	1	1	1	1	1	1	0	1	-52,501762	274,110413	267,597883	0
14.01.2021	22:44:14	0	0	4,745241	3,18675	76,3632	0,205	76,256	3,5	1007,1	6,6	8,7	8,5	1	1	1	1	1	1	1	1	1	0	1	-48,414376	273,972049	271,039445	0
14.01.2021	22:44:15	0	0	4,406295	3,189	68,778	0,2	76,24	3,5	1006,84	6,6	8,7	8,5	1	1	1	1	1	1	1	1	1	0	1	-45,313601	274,064181	274,570145	0
14.01.2021	22:44:16	0	0	3,841385	3,3285	72,306	0,204	76,256	3,5	1006,92	6,6	8,7	8,5	1	1	1	1	1	1	1	1	1	0	1	-48,484848	274,101456	271,57296	0
14.01.2021	22:44:17	0	0	3,389458	3,291	72,3132	0,203	76,248	3,5	1006,92	6,7	8,7	8,5	1	1	1	1	1	1	1	1	1	0	1	-51,726568	273,975014	267,741083	0
14.01.2021	22:44:18	0	0	4,067349	3,13725	76,3704	0,207	76,244	3,5	1006,98	6,7	8,7	8,5	1	1	1	1	1	1	1	1	1	0	1	-51,162791	273,936503	268,125275	0
14.01.2021	22:44:19	0	0	2,93753	3,11325	72,3132	0,2	76,233	3,5	1007,06	6,6	8,7	8,5	1	1	1	1	1	1	1	1	1	0	1	-49,894292	273,997267	269,677165	0
14.01.2021	22:44:20	0	0	2,93753	3,2205	79,4304	0,197	76,229	3,5	1007,1	6,7	8,7	8,5	1	1	1	1	1	1	1	1	1	0	1	-45,384073	274,105934	274,694651	0
14.01.2021	22:44:21	0	0	2,93753	3,2985	92,2608	0,205	76,23	3,5	1006,94	6,7	8,7	8,5	1	1	1	1	1	1	1	1	1	0	1	-48,696265	274,044826	271,097129	0
14.01.2021	22:44:22	0	0	3,50244	3,2475	79,1352	0,199	76,222	3,5	1006,96	6,7	8,7	8,5	1	1	1	1	1	1	1	1	1	0	1	-50,81043	273,948344	268,532846	0
14.01.2021	22:44:23	0	0	2,824548	3,07575	90,7992	0,209	76,227	3,5	1007,02	6,6	8,6	8,5	1	1	1	1	1	1	1	1	1	0	1	-48,273432	274,031438	271,457475	0
14.01.2021	22:44:24	0	0	3,276476	2,9085	91,5228	0,2	76,211	3,5	1006,94	6,6	8,7	8,5	1	1	1	1	1	1	1	1	1	0	1	-52,995067	274,110413	267,104578	0
14.01.2021	22:44:25	0	0	4,180331	2,91975	85,9248	0,206	76,212	3,5	1007,08	6,8	8,7	8,5	1	1	1	1	1	1	1	1	1	0	1	-49,330514	274,056734	270,518468	0
14.01.2021	22:44:26	0	0	3,615421	3,39825	85,194	0,201	76,203	3,5	1007	6,7	8,6	8,5	1	1	1	1	1	1	1	1	1	0	1	-48,414376	274,107427	271,67132	0
14.01.2021	22:44:27	0	0	4,858223	3,7545	88,9668	0,201	76,181	3,5	1006,96	6,7	8,7	8,5	1	1	1	1	1	1	1	1	1	0	1	-48,837209	273,983912	270,671946	0
14.01.2021	22:44:28	0	0	3,615421	3,81075	82,6056	0,205	76,199	3,5	1007,06	6,7	8,7	8,5	1	1	1	1	1	1	1	1	1	0	1	-47,357294	274,11788	272,777232	0
14.01.2021	22:44:29	0	0	4,406295	3,747	84,06	0,204	76,191	3,5	1007,02	6,6	8,7	8,5	1	1	1	1	1	1	1	1	1	0	1	-47,850599	274,032925	271,887248	0
14.01.2021	22:44:30	0	0	4,406295	3,4905	80,8956	0,204	76,186	3,5	1006,94	6,6	8,7	8,5	1	1	1	1	1	1	1	1	1	0	1	-47,639183	274,105934	272,439541	0
14.01.2021	22:44:31	0	0	3,276476	3,34125	82,3572	0,202	76,166	3,5	1007	6,6	8,7	8,5	1	1	1	1	1	1	1	1	1	0	1	-47,709655	274,038875	272,055961	0
14.01.2021	22:44:32	0	0	2,711566	3,36675	77,976	0,199	76,198	3,5	1006,96	6,7	8,7	8,5	1	1	1	1	1	1	1	1	1	0	1	-50,317125	274,111906	269,789495	0
14.01.2021	22:44:33	0	0	3,954367	3,46875	75,2436	0,199	76,178	3,5	1006,88	6,6	8,7	8,5	1	1	1	1	1	1	1	1	1	0	1	-49,541931	274,047803	270,265356	0
14.01.2021	22:44:34	0	0	2,711566	3,3075	64,2492	0,207	76,199	3,5	1007,04	6,6	8,7	8,5	1	1	1	1	1	1	1	1	1	0	1	-48,343904	274,108919	271,748766	0
14.01.2021	22:44:35	0	0	2,033675	3,14625	71,5932	0,205	76,2	3,5	1007	6,7	8,6	8,5	1	1	1	1	1	1	1	1	1	0	1	-48,414376	273,980945	271,080942	0
14.01.2021	22:44:36	0	0	4,293313	2,75325	77,22	0,197	76,201	3,5	1006,94	6,6	8,7	8,5	1	1	1	1	1	1	1	1	1	0	1	-48,273432	273,917276	270,925003	0
14.01.2021	22:44:37	0	0	2,93753	2,51475	59,4864	0,196	76,209	3,5	1006,8	6,6	8,7	8,5	1	1	1	1	1	1	1	1	1	0	1	-50,17618	274,00766	269,443768	0
14.01.2021	22:44:38	0	0	2,93753	2,418	85,2048	0,198	76,218	3,5	1007,06	6,7	8,7	8,5	1	1	1	1	1	1	1	1	1	0	1	-49,471459	274,095487	270,558473	0
14.01.2021	22:44:39	0	0	2,598584	2,436	102,5928	0,199	76,228	3,5	1007,12	6,6	8,7	8,5	1	1	1	1	1	1	1	1	1	0	1	-48,343904	274,000236	271,241404	0
14.01.2021	22:44:40	0	0	4,067349	2,91825	94,1976	0,195	76,222	3,5	1006,92	6,7	8,7	8,5	1	1	1	1	1	1	1	1	1	0	1	-47,21635	274,113399	272,897246	0
14.01.2021	22:44:41	0	0	3,050512	3,0975	92,9628	0,199	76,23	3,5	1006,82	6,7	8,7	8,5	1	1	1	1	1	1	1	1	1	0	1	-45,806906	274,058223	274,049027	0
14.01.2021	22:44:42	0	0	4,745241	3,084	74,916	0,197	76,237	3,5	1007,2	6,6	8,7	8,5	1	1	1	1	1	1	1	1	1	0	1	-47,991543	273,937982	271,303421	0
14.01.2021	22:44:43	0	0	4,745241	3,20775	75,96	0,198	76,215	3,5	1007	6,6	8,7	8,5	1	1	1	1	1	1	1	1	1	0	1	-51,79704	274,064181	268,086706	0
14.01.2021	22:44:44	0	0	3,389458	3,582	65,0916	0,201	76,224	3,5	1007,22	6,7	8,7	8,5	1	1	1	1	1	1	1	1	1	0	1	-50,387597	274,050779	269,433586	0
14.01.2021	22:44:45	0	0	3,954367	3,588	68,3856	0,205	76,23	3,5	1007,1	6,6	8,7	8,5	1	1	1	1	1	1	1	1	1	0	1	-47,286822	274,099963	272,764017	0
14.01.2021	22:44:46	0	0	4,180331	3,48675	64,224	0,193	76,236	3,5	1007,04	6,7	8,6	8,5	1	1	1	1	1	1	1	1	1	0	1	-48,907681	273,977979	270,573802	0
14.01.2021	22:44:47	0	0	3,389458	3,378	71,9856	0,195	76,253	3,5	1007,02	6,7	8,7	8,5	1	1	1	1	1	1	1	1	1	0	1	-44,326991	274,101456	275,730818	0
14.01.2021	22:44:48	0	0	4,971205	3,5355	71,5788	0,2	76,23	3,5	1007	6,6	8,7	8,5	1	1	1	1	1	1	1	1	1	0	1	-46,370684	274,015088	273,283922	0
14.01.2021	22:44:49	0	0	4,519277	3,6105	80,5248	0,2	76,233	3,5	1007,06	6,6	8,7	8,5	1	1	1	1	1	1	1	1	1	0	1	-48,20296	273,930585	271,057516	0
14.01.2021	22:44:50	0	0	3,954367	3,8235	62,0208	0,201	76,224	3,5	1007,1	6,6	8,7	8,5	1	1	1	1	1	1	1	1	1	0	1	-52,149401	274,059713	267,713485	0
14.01.2021	22:44:51	0	0	2,93753	3,85875	80,1468	0,202	76,235	3,5	1007	6,7	8,7	8,5	1	1	1	1	1	1	1	1	1	0	1	-49,82382	273,949825	269,526361	0
14.01.2021	22:44:52	0	0	4,519277	3,70275	89,6976	0,195	76,223	3,5	1007,04	6,7	8,6	8,5	1	1	1	1	1	1	1	1	1	0	1	-48,696265	274,116386	271,431283	0
14.01.2021	22:44:53	0	0	4,293313	3,4965	80,154	0,195	76,239	3,5	1007,06	6,7	8,7	8,5	1	1	1	1	1	1	1	1	1	0	1	-45,736434	274,047803	274,070853	0
14.01.2021	22:44:54	0	0	3,954367	3,26475	65,4696	0,198	76,231	3,5	1007,02	6,7	8,7	8,5	1	1	1	1	1	1	1	1	1	0	1	-44,326991	274,098471	275,716878	0
14.01.2021	22:44:55	0	0	2,598584	2,92725	65,8548	0,196	76,262	3,5	1006,9	6,6	8,7	8,5	1	1	1	1	1	1	1	1	1	0	1	-50,880902	273,99133	268,662859	0
14.01.2021	22:44:56	0	0	3,841385	2,757	58,8888	0,198	76,273	3,5	1007,1	6,7	8,7	8,5	1	1	1	1	1	1	1	1	1	0	1	-49,260042	273,942422	270,055623	0
14.01.2021	22:44:57	0	0	4,858223	2,56275	70,6068	0,195	76,27	3,5	1007,06	6,6	8,6	8,5	1	1	1	1	1	1	1	1	1	0	1	-48,837209	273,994298	270,720398	0
14.01.2021	22:44:58	0	0	4,632259	2,49	75,9852	0,197	76,288	3,5	1007,12	6,7	8,7	8,5	1	1	1	1	1	1	1	1	1	0	1	-44,890768	273,915798	274,300777	0
14.01.2021	22:44:59	0	0	4,971205	2,415	77,2272	0,197	76,282	3,5	1006,98	6,7	8,7	8,5	1	1	1	1	1	1	1	1	1	0	1	-48,766737	273,99133	270,777024	0
14.01.2021	22:45:00	0	0	5,084186	2,298	74,5632	0,197	76,284	3,5	1007,06	6,6	8,7	8,5	1	1	1	1	1	1	1	1	1	0	1	-52,924595	273,994298	266,633012	0
14.01.2021	22:45:01	0	0	5,084186	2,298	74,5632	0,197	76,284	3,5	1007,06	6,6	8,7	8,5	1	1	1	1	1	1	1	1	1	0	1	-52,924595	273,994298	266,633012	0
14.01.2021	22:45:02	0	0	4,067349	2,27925	67,2912	0,189	76,278	3,5	1007	6,7	8,7	8,5	1	1	1	1	1	1	1	1	1	0	1	-51,162791	273,927626	268,083894	0
14.01.2021	22:45:03	0	0	2,598584	2,22825	63,162	0,189	76,281	3,5	1007	6,6	8,7	8,5	1	1	1	1	1	1	1	1	1	0	1	-48,907681	273,946863	270,428691	0
14.01.2021	22:45:04	0	0	3,276476	2,18025	57,438	0,19	76,294	3,5	1007,02	6,6	8,6	8,5	1	1	1	1	1	1	1	1	1	0	1	-50,035236	273,921711	269,183874	0
14.01.2021	22:45:05	0	0	3,841362	2,082	79,7616	0,197	76,301	3,5	1007,1	6,6	8,6	8,6	1	1	1	1	1	1	1	1	1	0	1	-50,17618	273,960193	269,222348	0
14.01.2021	22:45:06	0	0	3,163494	2,0535	60,9192	0,192	76,302	3,5	1007	6,7	8,6	8,5	1	1	1	1	1	1	1	1	1	0	1	-48,343904	273,946863	270,992469	0
14.01.2021	22:45:07	0	0	3,050512	2,12925	86,688	0,191	76,305	3,5	1007,02	6,6	8,6	8,5	1	1	1	1	1	1	1	1	1	0	1	-47,21635	274,092503	272,799647	0
14.01.2021	22:45:08	0	0	4,971205	2,10075	75,9924	0,195	76,312	3,5	1007,18	6,7	8,7	8,5	1	1	1	1	1	1	1	1	1	0	1	-47,780127	273,994298	271,77748	0
14.01.2021	22:45:09	0	0	2,93753	2,02575	69,1488	0,192	76,306	3,5	1007,1	6,6	8,6	8,5	1	1	1	1	1	1	1	1	1	0	1	-48,484848	273,945383	270,844621	0
14.01.2021	22:45:10	0	0	3,954367	1,9305	68,0148	0,194	76,304	3,5	1007,04	6,7	8,6	8,5	1	1	1	1	1	1	1	1	1	0	1	-50,951374	273,933543	268,322895	0
14.01.2021	22:45:11	0	0	4,180331	1,9245	69,4548	0,189	76,319	3,5	1007,08	6,7	8,7	8,5	1	1	1	1	1	1	1	1	1	0	1	-50,81043	273,967602	268,622652	0
14.01.2021	22:45:12	0	0	3,50244	2,00325	61,2936	0,187	76,29	3,5	1006,98	6,7	8,6	8,5	1	1	1	1	1	1	1	1	1	0	1	-50,81043	273,908408	268,346674	0
14.01.2021	22:45:13	0	0	3,615421	2,13525	66,9132	0,194	76,311	3,5	1007,12	6,6	8,7	8,5	1	1	1	1	1	1	1	1	1	0	1	-50,528541	273,948344	268,814735	0
14.01.2021	22:45:14	0	0	3,954367	2,19075	61,3116	0,192	76,319	3,5	1007,02	6,7	8,6	8,5	1	1	1	1	1	1	1	1	1	0	1	-49,541931	274,059713	270,320955	0
14.01.2021	22:45:15	0	0	4,180331	2,46675	52,5024	0,187	76,294	3,5	1007,02	6,7	8,6	8,5	1	1	1	1	1	1	1	1	1	0	1	-47,639183	274,108919	272,453488	0
14.01.2021	22:45:16	0	0	2,598584	2,95125	54,7992	0,183	76,314	3,5	1007,02	6,8	8,7	8,5	1	1	1	1	1	1	1	1	1	0	1	-48,062016	273,946863	271,274357	0
14.01.2021	22:45:17	0	0	2,711566	3,17175	59,49	0,185	76,315	3,5	1007,02	6,7	8,7	8,5	1	1	1	1	1	1	1	1	1	0	1	-49,894292	274,107427	270,191405	0
14.01.2021	22:45:18	0	0	4,519277	3,21825	59,1084	0,188	76,296	3,5	1007,02	6,7	8,6	8,5	1	1	1	1	1	1	1	1	1	0	1	-49,471459	274,003205	270,127704	0
14.01.2021	22:45:19	0	0	3,276476	3,3765	61,2792	0,186	76,307	3,5	1007,08	6,6	8,6	8,5	1	1	1	1	1	1	1	1	1	0	1	-49,612403	273,936503	269,675662	0
14.01.2021	22:45:20	0	0	3,50244	3,312	55,9224	0,185	76,319	3,5	1006,98	6,7	8,8	8,5	1	1	1	1	1	1	1	1	1	0	1	-48,414376	273,986879	271,10862	0
14.01.2021	22:45:21	0	0	3,728403	3,25275	60,5448	0,186	76,321	3,5	1007,08	6,7	8,7	8,5	1	1	1	1	1	1	1	1	1	0	1	-52,43129	274,098471	267,612579	0
14.01.2021	22:45:22	0	0	4,858193	2,9835	49,1796	0,189	76,312	3,5	1007,18	6,7	8,6	8,6	1	1	1	1	1	1	1	1	1	0	1	-46,511628	274,016574	273,149911	0
14.01.2021	22:45:23	0	0	4,51925	2,85375	73,4436	0,187	76,325	3,5	1007,04	6,6	8,7	8,6	1	1	1	1	1	1	1	1	1	0	1	-48,696265	274,119373	271,445239	0
14.01.2021	22:45:24	0	0	4,519277	2,65275	84,7944	0,188	76,321	3,5	1007,08	6,7	8,7	8,5	1	1	1	1	1	1	1	1	1	0	1	-48,484848	273,985395	271,031227	0
14.01.2021	22:45:25	0	0	3,6154	2,35875	74,9268	0,19	76,33	3,5	1006,98	6,7	8,7	8,6	1	1	1	1	1	1	1	1	1	0	1	-51,515152	274,079082	268,438171	0
14.01.2021	22:45:26	0	0	4,971205	2,097	77,5872	0,181	76,338	3,5	1007,04	6,7	8,8	8,5	1	1	1	1	1	1	1	1	1	0	1	-45,59549	274,061202	274,274349	0
14.01.2021	22:45:27	0	0	4,745241	1,9665	68,4036	0,183	76,334	3,5	1007,14	6,7	8,7	8,5	1	1	1	1	1	1	1	1	1	0	1	-48,696265	274,064181	271,187481	0
14.01.2021	22:45:28	0	0	5,084186	1,90425	62,7948	0,184	76,359	3,5	1007,06	6,7	8,6	8,5	1	1	1	1	1	1	1	1	1	0	1	-46,723044	274,096979	273,313855	0
14.01.2021	22:45:29	0	0	2,711566	1,93125	65,4696	0,185	76,348	3,5	1007,02	6,7	8,6	8,5	1	1	1	1	1	1	1	1	1	0	1	-49,260042	273,958711	270,131577	0
14.01.2021	22:45:30	0	0	4,632259	2,2965	61,308	0,183	76,364	3,5	1007,04	6,7	8,7	8,5	1	1	1	1	1	1	1	1	1	0	1	-47,498238	273,963156	271,914109	0
14.01.2021	22:45:31	0	0	4,519277	2,57175	72,6696	0,196	76,387	3,5	1007,06	6,7	8,6	8,5	1	1	1	1	1	1	1	1	1	0	1	-47,357294	273,92319	271,868709	0
14.01.2021	22:45:32	0	0	4,745212	2,742	81,6336	0,182	76,368	3,5	1006,92	6,7	8,6	8,6	1	1	1	1	1	1	1	1	1	0	1	-49,612403	273,997267	269,959053	0
14.01.2021	22:45:33	0	0	3,841385	2,78475	74,178	0,186	76,385	3,5	1006,96	6,7	8,8	8,5	1	1	1	1	1	1	1	1	1	0	1	-46,863989	273,933543	272,41028	0
14.01.2021	22:45:34	0	0	3,389437	2,5815	86,2956	0,185	76,409	3,5	1006,94	6,6	8,7	8,6	1	1	1	1	1	1	1	1	1	0	1	-45,384073	273,955749	273,993731	0
14.01.2021	22:45:35	0	0	2,598584	2,39625	86,2884	0,184	76,408	3,5	1007,08	6,7	8,7	8,5	1	1	1	1	1	1	1	1	1	0	1	-49,753347	274,101456	270,304461	0
14.01.2021	22:45:36	0	0	3,954367	2,283	91,5912	0,174	76,42	3,5	1007,08	6,7	8,8	8,5	1	1	1	1	1	1	1	1	1	0	1	-46,863989	274,062691	273,012803	0
14.01.2021	22:45:37	0	0	4,067325	2,205	92,2824	0,185	76,417	3,5	1007	6,7	8,6	8,6	1	1	1	1	1	1	1	1	1	0	1	-47,780127	274,0359	271,971603	0
14.01.2021	22:45:38	0	0	2,711566	1,9875	80,5032	0,182	76,42	3,5	1006,96	6,7	8,6	8,5	1	1	1	1	1	1	1	1	1	0	1	-47,850599	274,104441	272,221153	0
14.01.2021	22:45:39	0	0	4,632259	2,02275	86,9616	0,179	76,428	3,5	1006,92	6,7	8,6	8,5	1	1	1	1	1	1	1	1	1	0	1	-48,907681	273,985395	270,608394	0
14.01.2021	22:45:40	0	0	4,51925	2,12025	90,4068	0,183	76,432	3,5	1007,02	6,7	8,6	8,6	1	1	1	1	1	1	1	1	1	0	1	-49,541931	274,06865	270,362681	0
14.01.2021	22:45:41	0	0	4,406295	2,18025	84,798	0,182	76,44	3,5	1007,1	6,7	8,6	8,5	1	1	1	1	1	1	1	1	1	0	1	-49,048626	273,979462	270,439775	0
14.01.2021	22:45:42	0	0	2,824531	2,184	83,3544	0,177	76,441	3,5	1007,02	6,7	8,7	8,6	1	1	1	1	1	1	1	1	1	0	1	-48,978154	274,082064	270,989092	0
14.01.2021	22:45:43	0	0	3,615421	2,16375	76,914	0,179	76,425	3,5	1006,92	6,7	8,6	8,5	1	1	1	1	1	1	1	1	1	0	1	-48,978154	274,003205	270,621009	0
14.01.2021	22:45:44	0	0	4,067349	2,229	81,2268	0,184	76,421	3,5	1006,98	6,7	8,7	8,5	1	1	1	1	1	1	1	1	1	0	1	-48,696265	274,098471	271,347604	0
14.01.2021	22:45:45	0	0	3,276476	2,33625	89,7228	0,181	76,409	3,5	1006,8	6,7	8,7	8,5	1	1	1	1	1	1	1	1	1	0	1	-48,625793	273,95723	270,758919	0
14.01.2021	22:45:46	0	0	4,858193	2,40375	86,6664	0,18	76,409	3,5	1007,16	6,7	8,6	8,6	1	1	1	1	1	1	1	1	1	0	1	-46,018323	274,07014	273,893246	0
14.01.2021	22:45:47	0	0	4,858223	2,48175	87,3612	0,181	76,404	3,5	1007	6,7	8,7	8,5	1	1	1	1	1	1	1	1	1	0	1	-49,18957	274,06567	270,70113	0
14.01.2021	22:45:48	0	0	4,519277	2,6055	88,974	0,187	76,404	3,5	1007,04	6,7	8,7	8,5	1	1	1	1	1	1	1	1	1	0	1	-44,820296	274,029951	274,903671	0
14.01.2021	22:45:49	0	0	3,163494	2,72925	83,7072	0,176	76,363	3,5	1006,82	6,7	8,7	8,5	1	1	1	1	1	1	1	1	1	0	1	-48,907681	274,082064	271,059564	0
14.01.2021	22:45:50	0	0	2,71155	2,7645	84,5244	0,183	76,368	3,5	1007,02	6,7	8,7	8,6	1	1	1	1	1	1	1	1	1	0	1	-48,837209	274,04185	270,942294	0
14.01.2021	22:45:51	0	0	2,598584	2,6835	74,1888	0,183	76,351	3,5	1007,08	6,7	8,7	8,5	1	1	1	1	1	1	1	1	1	0	1	-48,414376	274,093995	271,608587	0
14.01.2021	22:45:52	0	0	4,858223	2,52825	71,2188	0,182	76,341	3,5	1007	6,7	8,7	8,5	1	1	1	1	1	1	1	1	1	0	1	-46,229739	274,046314	273,570601	0
14.01.2021	22:45:53	0	0	4,858223	2,388	89,6832	0,179	76,335	3,5	1007,04	6,7	8,7	8,5	1	1	1	1	1	1	1	1	1	0	1	-49,612403	273,908408	269,544701	0
14.01.2021	22:45:54	0	0	2,937512	2,2545	75,978	0,18	76,318	3,5	1007,02	6,7	8,6	8,6	1	1	1	1	1	1	1	1	1	0	1	-48,766737	273,926147	270,473053	0
14.01.2021	22:45:55	0	0	4,51925	2,1225	79,4052	0,18	76,33	3,5	1007,06	6,7	8,7	8,6	1	1	1	1	1	1	1	1	1	0	1	-46,723044	273,926147	272,516745	0
14.01.2021	22:45:56	0	0	4,51925	2,18625	63,864	0,175	76,309	3,5	1007,02	6,7	8,6	8,6	1	1	1	1	1	1	1	1	1	0	1	-46,723044	273,927626	272,52364	0
14.01.2021	22:45:57	0	0	4,745241	2,2845	61,3116	0,181	76,31	3,5	1007,02	6,7	8,6	8,5	1	1	1	1	1	1	1	1	1	0	1	-46,863989	274,076101	273,075413	0
14.01.2021	22:45:58	0	0	3,728381	2,28375	87,3612	0,179	76,31	3,5	1007	6,7	8,7	8,6	1	1	1	1	1	1	1	1	1	0	1	-50,317125	273,911364	268,853754	0
14.01.2021	22:45:59	0	0	2,93753	2,3055	86,31	0,177	76,313	3,5	1006,88	6,7	8,6	8,5	1	1	1	1	1	1	1	1	1	0	1	-48,484848	274,028464	271,232179	0
14.01.2021	22:46:00	0	0	4,745212	3,0045	77,5944	0,176	76,305	3,5	1007,04	6,7	8,7	8,6	1	1	1	1	1	1	1	1	1	0	1	-48,766737	274,01806	270,901735	0
14.01.2021	22:46:01	0	0	4,745212	3,0045	77,5944	0,176	76,305	3,5	1007,04	6,7	8,7	8,6	1	1	1	1	1	1	1	1	1	0	1	-48,766737	274,01806	270,901735	0
14.01.2021	22:46:02	0	0	3,163475	3,039	88,5564	0,175	76,301	3,5	1007,02	6,7	8,7	8,6	1	1	1	1	1	1	1	1	1	0	1	-47,427766	274,080573	272,532517	0
14.01.2021	22:46:03	0	0	3,50244	3,0135	79,7436	0,182	76,309	3,5	1006,96	6,7	8,6	8,5	1	1	1	1	1	1	1	1	1	0	1	-47,498238	274,050779	272,322945	0
14.01.2021	22:46:04	0	0	3,163494	3,1185	83,7324	0,172	76,329	3,5	1007,04	6,7	8,8	8,5	1	1	1	1	1	1	1	1	1	0	1	-47,850599	274,010631	271,78321	0
14.01.2021	22:46:05	0	0	5,197137	3,18825	74,934	0,178	76,325	3,5	1007,06	6,7	8,7	8,6	1	1	1	1	1	1	1	1	1	0	1	-47,004933	273,905453	272,138399	0
14.01.2021	22:46:06	0	0	4,180306	3,1125	87,7032	0,177	76,319	3,5	1007,06	6,7	8,6	8,6	1	1	1	1	1	1	1	1	1	0	1	-52,572234	273,989846	266,964605	0
14.01.2021	22:46:07	0	0	3,615421	3,174	76,842	0,172	76,317	3,5	1007,12	6,7	8,6	8,5	1	1	1	1	1	1	1	1	1	0	1	-46,793517	273,912842	272,38425	0
14.01.2021	22:46:08	0	0	2,71155	3,2535	81,1908	0,173	76,314	3,5	1007,02	6,7	8,7	8,6	1	1	1	1	1	1	1	1	1	0	1	-45,877378	273,924668	273,355517	0
14.01.2021	22:46:09	0	0	2,937512	3,1905	74,898	0,178	76,305	3,5	1006,84	6,7	8,7	8,6	1	1	1	1	1	1	1	1	1	0	1	-48,625793	274,009146	271,001086	0
14.01.2021	22:46:10	0	0	4,632231	3,24525	71,2152	0,18	76,316	3,5	1007,08	6,7	8,6	8,6	1	1	1	1	1	1	1	1	1	0	1	-43,833686	273,883306	275,206439	0
14.01.2021	22:46:11	0	0	4,180306	3,2775	68,0148	0,176	76,324	3,5	1007,04	6,7	8,6	8,6	1	1	1	1	1	1	1	1	1	0	1	-46,159267	274,006175	273,453752	0
14.01.2021	22:46:12	0	0	3,389458	3,13725	57,4056	0,167	76,303	3,5	1007	6,7	8,7	8,5	1	1	1	1	1	1	1	1	1	0	1	-50,17618	274,082064	269,791065	0
14.01.2021	22:46:13	0	0	2,937512	2,95575	60,5412	0,164	76,302	3,5	1007	6,7	8,7	8,6	1	1	1	1	1	1	1	1	1	0	1	-50,105708	273,964638	269,31355	0
14.01.2021	22:46:14	0	0	4,180306	2,946	67,2984	0,165	76,301	3,5	1007,04	6,7	8,7	8,6	1	1	1	1	1	1	1	1	1	0	1	-46,723044	274,074611	273,209398	0
14.01.2021	22:46:15	0	0	4,406268	3,08775	65,4624	0,174	76,292	3,5	1006,98	6,7	8,6	8,6	1	1	1	1	1	1	1	1	1	0	1	-46,441156	274,050779	273,380027	0
14.01.2021	22:46:16	0	0	4,745212	3,432	63,9792	0,174	76,29	3,5	1007,14	6,7	8,7	8,6	1	1	1	1	1	1	1	1	1	0	1	-47,709655	274,003205	271,889508	0
14.01.2021	22:46:17	0	0	4,180331	3,58425	64,602	0,173	76,277	3,5	1007,22	6,7	8,7	8,5	1	1	1	1	1	1	1	1	1	0	1	-47,780127	274,07163	272,138399	0
14.01.2021	22:46:18	0	0	3,389437	3,73425	61,3008	0,172	76,287	3,5	1007,02	6,7	8,7	8,6	1	1	1	1	1	1	1	1	1	0	1	-49,400987	273,997267	270,17047	0
14.01.2021	22:46:19	0	0	3,276456	3,75975	71,9784	0,171	76,255	3,5	1007,02	6,7	8,7	8,6	1	1	1	1	1	1	1	1	1	0	1	-49,18957	274,031438	270,541337	0
14.01.2021	22:46:20	0	0	4,293287	3,74025	54,1044	0,165	76,261	3,5	1007	6,7	8,7	8,6	1	1	1	1	1	1	1	1	1	0	1	-52,149401	274,062691	267,727391	0
14.01.2021	22:46:21	0	0	4,51925	3,47175	62,7948	0,168	76,262	3,5	1007,02	6,7	8,7	8,6	1	1	1	1	1	1	1	1	1	0	1	-44,608879	273,954267	274,762018	0
14.01.2021	22:46:22	0	0	3,6154	3,3105	59,8608	0,168	76,261	3,5	1006,86	6,7	8,7	8,6	1	1	1	1	1	1	1	1	1	0	1	-45,806906	273,899545	273,30889	0
14.01.2021	22:46:23	0	0	4,180306	3,183	69,4512	0,165	76,254	3,5	1007,04	6,7	8,7	8,6	1	1	1	1	1	1	1	1	1	0	1	-51,162791	274,034413	268,581998	0
14.01.2021	22:46:24	0	0	4,293313	3,3075	69,9228	0,167	76,259	3,5	1007	6,7	8,7	8,5	1	1	1	1	1	1	1	1	1	0	1	-47,780127	273,893638	271,308143	0
14.01.2021	22:46:25	0	0	4,632231	3,30975	63,162	0,162	76,263	3,5	1006,96	6,7	8,7	8,6	1	1	1	1	1	1	1	1	1	0	1	-51,656096	274,034413	268,088692	0
14.01.2021	22:46:26	0	0	2,937512	3,2895	64,6452	0,162	76,252	3,5	1007,1	6,7	8,7	8,6	1	1	1	1	1	1	1	1	1	0	1	-45,736434	274,003205	273,862728	0
14.01.2021	22:46:27	0	0	3,841362	3,30075	65,9268	0,163	76,241	3,5	1007	6,7	8,7	8,6	1	1	1	1	1	1	1	1	1	0	1	-46,652572	274,058223	273,203361	0
14.01.2021	22:46:28	0	0	3,050494	3,55875	76,824	0,165	76,261	3,5	1006,96	6,7	8,7	8,6	1	1	1	1	1	1	1	1	1	0	1	-48,696265	274,001721	270,89597	0
14.01.2021	22:46:29	0	0	3,389437	3,54675	82,35	0,166	76,27	3,5	1007,02	6,7	8,7	8,6	1	1	1	1	1	1	1	1	1	0	1	-48,907681	273,901022	270,214998	0
14.01.2021	22:46:30	0	0	4,519277	3,7695	68,4	0,164	76,261	3,5	1007,04	6,7	8,7	8,5	1	1	1	1	1	1	1	1	1	0	1	-51,303735	274,019546	268,371672	0
14.01.2021	22:46:31	0	0	2,824531	3,86175	79,0236	0,156	76,256	3,5	1006,9	6,7	8,7	8,6	1	1	1	1	1	1	1	1	1	0	1	-49,330514	274,034413	270,414274	0
14.01.2021	22:46:32	0	0	3,728403	3,67875	86,2776	0,161	76,266	3,5	1007,12	6,7	8,7	8,5	1	1	1	1	1	1	1	1	1	0	1	-46,793517	274,056734	273,055465	0
14.01.2021	22:46:33	0	0	4,406268	3,34725	89,334	0,161	76,255	3,5	1007,02	6,7	8,7	8,6	1	1	1	1	1	1	1	1	1	0	1	-45,172657	273,960193	274,225871	0
14.01.2021	22:46:34	0	0	3,163494	3,192	55,926	0,161	76,281	3,5	1006,98	6,7	8,7	8,5	1	1	1	1	1	1	1	1	1	0	1	-48,625793	274,055245	271,216238	0
14.01.2021	22:46:35	0	0	2,71155	3,34575	70,884	0,159	76,297	3,5	1007,06	6,7	8,7	8,6	1	1	1	1	1	1	1	1	1	0	1	-45,031712	273,942422	274,283953	0
14.01.2021	22:46:36	0	0	3,6154	3,384	74,9124	0,159	76,319	3,5	1007,06	6,7	8,7	8,6	1	1	1	1	1	1	1	1	1	0	1	-46,441156	273,875929	272,564598	0
14.01.2021	22:46:37	0	0	4,519277	3,48975	74,1456	0,161	76,339	3,5	1007	6,7	8,7	8,5	1	1	1	1	1	1	1	1	1	0	1	-47,709655	274,025491	271,993497	0
14.01.2021	22:46:38	0	0	3,163475	3,74925	65,8512	0,154	76,337	3,5	1006,96	6,7	8,7	8,6	1	1	1	1	1	1	1	1	1	0	1	-47,21635	274,009146	272,410529	0
14.01.2021	22:46:39	0	0	2,71155	3,90975	58,1148	0,16	76,374	3,5	1007,14	6,6	8,7	8,6	1	1	1	1	1	1	1	1	1	0	1	-48,484848	273,874454	270,514033	0
14.01.2021	22:46:40	0	0	2,259625	4,0575	76,8276	0,156	76,401	3,5	1007,08	6,6	8,7	8,6	1	1	1	1	1	1	1	1	1	0	1	-50,317125	273,989846	269,219714	0
14.01.2021	22:46:41	0	0	4,632231	4,0035	72,0468	0,172	76,415	3,5	1007,14	6,7	8,7	8,6	1	1	1	1	1	1	1	1	1	0	1	-50,317125	274,056734	269,531857	0
14.01.2021	22:46:42	0	0	4,406268	3,9465	87,7212	0,154	76,426	3,5	1007,08	6,6	8,7	8,6	1	1	1	1	1	1	1	1	1	0	1	-53,840733	273,935023	265,440434	0
14.01.2021	22:46:43	0	0	3,050512	3,6765	75,9816	0,155	76,456	3,5	1007,02	6,6	8,7	8,5	1	1	1	1	1	1	1	1	1	0	1	-51,867512	273,912842	267,310255	0
14.01.2021	22:46:44	0	0	4,971205	3,396	76,3776	0,146	76,471	3,5	1006,98	6,6	8,7	8,5	1	1	1	1	1	1	1	1	1	0	1	-42,917548	273,982429	276,584689	0
14.01.2021	22:46:45	0	0	4,632259	3,2475	77,2128	0,156	76,482	3,5	1006,96	6,7	8,7	8,5	1	1	1	1	1	1	1	1	1	0	1	-45,313601	273,884782	273,733399	0
14.01.2021	22:46:46	0	0	5,31015	3,15975	82,3392	0,155	76,493	3,5	1007	6,6	8,7	8,5	1	1	1	1	1	1	1	1	1	0	1	-43,904158	273,986879	275,618838	0
14.01.2021	22:46:47	0	0	2,824548	3,26325	87,3576	0,157	76,514	3,5	1006,78	6,7	8,7	8,5	1	1	1	1	1	1	1	1	1	0	1	-48,978154	274,049291	270,836081	0
14.01.2021	22:46:48	0	0	4,632231	3,24975	70,5996	0,153	76,517	3,5	1007,04	6,6	8,7	8,6	1	1	1	1	1	1	1	1	1	0	1	-50,387597	273,895115	268,707554	0
14.01.2021	22:46:49	0	0	2,937512	3,366	68,4036	0,155	76,524	3,5	1007	6,7	8,7	8,6	1	1	1	1	1	1	1	1	1	0	1	-44,186047	273,920233	275,026171	0
14.01.2021	22:46:50	0	0	3,6154	3,6435	68,418	0,146	76,507	3,5	1007,04	6,6	8,7	8,6	1	1	1	1	1	1	1	1	1	0	1	-44,186047	274,058223	275,669887	0
14.01.2021	22:46:51	0	0	2,824548	3,71325	85,5288	0,153	76,531	3,5	1007,12	6,7	8,7	8,5	1	1	1	1	1	1	1	1	1	0	1	-49,682875	273,930585	269,5776	0
14.01.2021	22:46:52	0	0	4,180331	3,606	69,4764	0,151	76,534	3,5	1007,08	6,6	8,7	8,5	1	1	1	1	1	1	1	1	1	0	1	-51,021846	274,038875	268,743769	0
14.01.2021	22:46:53	0	0	3,163475	3,31125	61,3872	0,152	76,544	3,5	1007,06	6,6	8,7	8,6	1	1	1	1	1	1	1	1	1	0	1	-50,458069	273,92319	268,767933	0
14.01.2021	22:46:54	0	0	4,067349	3,40425	62,4024	0,147	76,538	3,5	1007,04	6,6	8,7	8,5	1	1	1	1	1	1	1	1	1	0	1	-45,59549	273,87003	273,382779	0
14.01.2021	22:46:55	0	0	4,519277	3,5385	77,22	0,149	76,545	3,5	1007,1	6,6	8,7	8,5	1	1	1	1	1	1	1	1	1	0	1	-46,018323	273,853816	272,884414	0
14.01.2021	22:46:56	0	0	3,389458	3,489	72,288	0,152	76,558	3,5	1007,1	6,7	8,7	8,5	1	1	1	1	1	1	1	1	1	0	1	-46,793517	273,963156	272,618831	0
14.01.2021	22:46:57	0	0	2,711566	3,5565	54,1044	0,152	76,567	3,5	1007,14	6,6	8,7	8,5	1	1	1	1	1	1	1	1	1	0	1	-46,229739	273,872979	272,762271	0
14.01.2021	22:46:58	0	0	3,050512	3,41775	63,8784	0,145	76,571	3,5	1007	6,7	8,7	8,5	1	1	1	1	1	1	1	1	1	0	1	-47,21635	273,902499	271,913213	0
14.01.2021	22:46:59	0	0	4,406295	3,501	58,4676	0,154	76,595	3,5	1007,1	6,6	8,7	8,5	1	1	1	1	1	1	1	1	1	0	1	-44,608879	273,975014	274,858772	0
14.01.2021	22:47:00	0	0	3,50244	3,21825	62,3988	0,139	76,591	3,5	1007,06	6,6	8,7	8,5	1	1	1	1	1	1	1	1	1	0	1	-46,793517	273,975014	272,674135	0
14.01.2021	22:47:01	0	0	3,50244	3,21825	62,3988	0,139	76,591	3,5	1007,06	6,6	8,7	8,5	1	1	1	1	1	1	1	1	1	0	1	-46,793517	273,975014	272,674135	0
14.01.2021	22:47:02	0	0	4,632231	2,8335	76,3704	0,143	76,598	3,5	1006,98	6,6	8,7	8,6	1	1	1	1	1	1	1	1	1	0	1	-49,541931	273,874454	269,45695	0
14.01.2021	22:47:03	0	0	3,276476	2,37	86,9832	0,152	76,606	3,5	1007,12	6,6	8,7	8,5	1	1	1	1	1	1	1	1	1	0	1	-47,21635	273,871505	271,768789	0
14.01.2021	22:47:04	0	0	3,615421	2,1885	113,7348	0,145	76,584	3,5	1006,84	6,6	8,7	8,5	1	1	1	1	1	1	1	1	1	0	1	-47,639183	273,92319	271,58682	0
14.01.2021	22:47:05	0	0	2,598584	1,99875	97,6932	0,142	76,593	3,5	1006,98	6,6	8,7	8,5	1	1	1	1	1	1	1	1	1	0	1	-47,21635	274,00469	272,389741	0
14.01.2021	22:47:06	0	0	4,858223	1,94175	94,7412	0,148	76,597	3,5	1006,96	6,6	8,7	8,5	1	1	1	1	1	1	1	1	1	0	1	-49,964764	274,00469	269,641326	0
14.01.2021	22:47:07	0	0	2,71155	2,0925	70,308	0,148	76,588	3,5	1006,94	6,6	8,7	8,6	1	1	1	1	1	1	1	1	1	0	1	-45,947851	273,886258	273,106027	0
14.01.2021	22:47:08	0	0	2,598584	2,046	106,2828	0,146	76,6	3,5	1007,1	6,6	8,7	8,5	1	1	1	1	1	1	1	1	1	0	1	-49,682875	274,049291	270,131359	0
14.01.2021	22:47:09	0	0	3,276456	1,95225	66,2004	0,148	76,586	3,5	1007,1	6,6	8,7	8,6	1	1	1	1	1	1	1	1	1	0	1	-43,763214	273,976497	275,711353	0
14.01.2021	22:47:10	0	0	4,632259	1,938	81,5904	0,149	76,59	3,5	1006,98	6,6	8,7	8,5	1	1	1	1	1	1	1	1	1	0	1	-49,682875	273,872979	269,309135	0
14.01.2021	22:47:11	0	0	2,824548	2,175	74,9124	0,145	76,594	3,5	1007,18	6,6	8,7	8,5	1	1	1	1	1	1	1	1	1	0	1	-45,947851	273,958711	273,443769	0
14.01.2021	22:47:12	0	0	4,519277	2,33325	61,308	0,148	76,615	3,5	1007,1	6,6	8,7	8,5	1	1	1	1	1	1	1	1	1	0	1	-51,303735	274,026978	268,406354	0
14.01.2021	22:47:13	0	0	3,954367	2,2665	68,3892	0,145	76,605	3,5	1007,06	6,6	8,7	8,5	1	1	1	1	1	1	1	1	1	0	1	-43,763214	273,939462	275,538651	0
14.01.2021	22:47:14	0	0	3,163494	2,29725	53,3412	0,143	76,614	3,5	1006,98	6,6	8,7	8,5	1	1	1	1	1	1	1	1	1	0	1	-48,837209	273,862658	270,106717	0
14.01.2021	22:47:15	0	0	2,711566	2,301	57,7188	0,145	76,615	3,5	1006,98	6,6	8,7	8,5	1	1	1	1	1	1	1	1	1	0	1	-47,427766	273,896591	271,674266	0
14.01.2021	22:47:16	0	0	2,824548	2,265	68,0148	0,148	76,613	3,5	1007,02	6,6	8,7	8,5	1	1	1	1	1	1	1	1	1	0	1	-46,018323	274,032925	273,719524	0
14.01.2021	22:47:17	0	0	2,93753	2,43	64,2564	0,147	76,626	3,5	1007	6,6	8,7	8,5	1	1	1	1	1	1	1	1	1	0	1	-49,682875	273,983912	269,826281	0
14.01.2021	22:47:18	0	0	5,084186	2,412	63,8964	0,146	76,632	3,5	1007,16	6,6	8,7	8,5	1	1	1	1	1	1	1	1	1	0	1	-49,894292	273,899545	269,221504	0
14.01.2021	22:47:19	0	0	5,423132	2,39475	42,228	0,144	76,637	3,5	1006,92	6,6	8,7	8,5	1	1	1	1	1	1	1	1	1	0	1	-52,290345	274,00766	267,329603	0
14.01.2021	22:47:20	0	0	4,293313	2,56425	42,9264	0,145	76,644	3,5	1006,94	6,6	8,7	8,5	1	1	1	1	1	1	1	1	1	0	1	-51,79704	273,982429	267,705197	0
14.01.2021	22:47:21	0	0	4,067349	2,535	39,8664	0,141	76,642	3,5	1006,94	6,6	8,7	8,5	1	1	1	1	1	1	1	1	1	0	1	-47,991543	273,985395	271,524532	0
14.01.2021	22:47:22	0	0	3,050512	2,49525	72,6804	0,143	76,653	3,5	1007,14	6,6	8,7	8,5	1	1	1	1	1	1	1	1	1	0	1	-46,088795	274,032925	273,649052	0
14.01.2021	22:47:23	0	0	3,50244	2,277	62,4312	0,143	76,656	3,5	1007,1	6,6	8,7	8,5	1	1	1	1	1	1	1	1	1	0	1	-42,706131	274,028464	277,010897	0
14.01.2021	22:47:24	0	0	4,406295	2,1765	62,4168	0,142	76,66	3,5	1007,04	6,6	8,7	8,5	1	1	1	1	1	1	1	1	1	0	1	-49,330514	273,921711	269,888595	0
14.01.2021	22:47:25	0	0	3,050512	2,3475	58,2192	0,148	76,678	3,5	1007,3	6,6	8,7	8,5	1	1	1	1	1	1	1	1	1	0	1	-51,021846	274,021032	268,660496	0
14.01.2021	22:47:26	0	0	3,728403	2,589	76,8024	0,142	76,69	3,5	1006,92	6,6	8,7	8,5	1	1	1	1	1	1	1	1	1	0	1	-48,484848	273,951305	270,872237	0
14.01.2021	22:47:27	0	0	4,745241	2,64	74,1924	0,147	76,693	3,5	1006,98	6,6	8,7	8,5	1	1	1	1	1	1	1	1	1	0	1	-46,511628	274,024005	273,184587	0
14.01.2021	22:47:28	0	0	2,711566	2,58825	71,2152	0,149	76,714	3,5	1007,06	6,6	8,7	8,5	1	1	1	1	1	1	1	1	1	0	1	-48,343904	274,028464	271,373124	0
14.01.2021	22:47:29	0	0	3,841385	2,57025	78,6672	0,148	76,71	3,5	1006,96	6,6	8,7	8,5	1	1	1	1	1	1	1	1	1	0	1	-46,018323	273,961674	273,387115	0
14.01.2021	22:47:30	0	0	4,519277	2,60025	78,3072	0,149	76,707	3,5	1007,26	6,6	8,7	8,5	1	1	1	1	1	1	1	1	1	0	1	-49,682875	273,856763	269,233589	0
14.01.2021	22:47:31	0	0	2,93753	2,604	69,8796	0,14	76,693	3,5	1007,02	6,6	8,7	8,5	1	1	1	1	1	1	1	1	1	0	1	-54,334038	273,918754	264,871288	0
14.01.2021	22:47:32	0	0	2,598584	2,85675	59,4828	0,143	76,698	3,5	1007,1	6,6	8,6	8,5	1	1	1	1	1	1	1	1	1	0	1	-47,427766	273,85971	271,502428	0
14.01.2021	22:47:33	0	0	3,728403	3,04575	70,596	0,143	76,696	3,5	1007,06	6,6	8,7	8,5	1	1	1	1	1	1	1	1	1	0	1	-50,387597	273,951305	268,969489	0
14.01.2021	22:47:34	0	0	2,824548	3,2085	69,4692	0,146	76,704	3,5	1007,1	6,6	8,7	8,5	1	1	1	1	1	1	1	1	1	0	1	-51,233263	274,026978	268,476827	0
14.01.2021	22:47:35	0	0	2,824548	3,27	50,6952	0,146	76,701	3,5	1006,98	6,6	8,7	8,5	1	1	1	1	1	1	1	1	1	0	1	-47,498238	273,893638	271,590032	0
14.01.2021	22:47:36	0	0	4,406295	3,363	50,6736	0,139	76,693	3,5	1007,06	6,6	8,6	8,5	1	1	1	1	1	1	1	1	1	0	1	-50,17618	273,877405	268,836446	0
14.01.2021	22:47:37	0	0	4,745241	3,495	48,4992	0,141	76,702	3,5	1007,14	6,6	8,7	8,5	1	1	1	1	1	1	1	1	1	0	1	-43,97463	273,85971	274,955564	0
14.01.2021	22:47:38	0	0	4,519277	3,6435	55,9548	0,145	76,716	3,5	1007,08	6,6	8,7	8,5	1	1	1	1	1	1	1	1	1	0	1	-46,159267	273,983912	273,349889	0
14.01.2021	22:47:39	0	0	5,197168	3,375	44,0352	0,137	76,705	3,5	1006,92	6,6	8,7	8,5	1	1	1	1	1	1	1	1	1	0	1	-44,96124	274,037387	274,797432	0
14.01.2021	22:47:40	0	0	4,067349	3,16875	47,7612	0,135	76,707	3,5	1006,9	6,6	8,7	8,5	1	1	1	1	1	1	1	1	1	0	1	-47,21635	273,969084	272,223645	0
14.01.2021	22:47:41	0	0	4,180331	3,32175	30,3264	0,139	76,699	3,5	1006,98	6,6	8,7	8,5	1	1	1	1	1	1	1	1	1	0	1	-45,59549	274,026978	274,1146	0
14.01.2021	22:47:42	0	0	4,519277	3,60675	46,5876	0,141	76,708	3,5	1007,12	6,6	8,7	8,5	1	1	1	1	1	1	1	1	1	0	1	-48,062016	273,982429	271,440221	0
14.01.2021	22:47:43	0	0	4,067349	3,8385	46,9836	0,141	76,704	3,5	1007,06	6,6	8,7	8,5	1	1	1	1	1	1	1	1	1	0	1	-48,062016	274,010631	271,571794	0
14.01.2021	22:47:44	0	0	4,632259	3,849	46,674	0,139	76,692	3,5	1007,04	6,6	8,7	8,5	1	1	1	1	1	1	1	1	1	0	1	-46,441156	273,901022	272,681524	0
14.01.2021	22:47:45	0	0	4,180331	3,83475	54,126	0,144	76,691	3,5	1007,16	6,6	8,7	8,5	1	1	1	1	1	1	1	1	1	0	1	-45,665962	273,864132	273,284832	0
14.01.2021	22:47:46	0	0	3,50244	4,0095	59,4936	0,134	76,69	3,5	1007,14	6,6	8,7	8,5	1	1	1	1	1	1	1	1	1	0	1	-42,494715	273,976497	276,979852	0
14.01.2021	22:47:47	0	0	4,745241	4,3455	53,3412	0,139	76,693	3,5	1007,14	6,6	8,7	8,5	1	1	1	1	1	1	1	1	1	0	1	-46,018323	273,96612	273,407847	0
14.01.2021	22:47:48	0	0	5,084186	4,58925	60,9408	0,14	76,688	3,5	1007,06	6,6	8,7	8,5	1	1	1	1	1	1	1	1	1	0	1	-46,934461	274,015088	272,720144	0
14.01.2021	22:47:49	0	0	3,50244	4,43625	54,4968	0,147	76,682	3,5	1006,96	6,6	8,7	8,5	1	1	1	1	1	1	1	1	1	0	1	-47,639183	273,967602	271,793899	0
14.01.2021	22:47:50	0	0	2,485602	4,077	62,0352	0,142	76,689	3,5	1007,16	6,6	8,7	8,5	1	1	1	1	1	1	1	1	1	0	1	-45,243129	273,843505	273,611583	0
14.01.2021	22:47:51	0	0	4,406295	3,69225	55,9224	0,137	76,677	3,5	1006,94	6,6	8,7	8,5	1	1	1	1	1	1	1	1	1	0	1	-53,840733	273,952786	265,523258	0
14.01.2021	22:47:52	0	0	2,598584	3,50475	66,9276	0,14	76,693	3,5	1007,06	6,6	8,7	8,5	1	1	1	1	1	1	1	1	1	0	1	-50,528541	274,016574	269,132997	0
14.01.2021	22:47:53	0	0	3,954367	3,399	80,5284	0,139	76,68	3,5	1007,06	6,6	8,7	8,5	1	1	1	1	1	1	1	1	1	0	1	-49,612403	273,945383	269,717067	0
14.01.2021	22:47:54	0	0	3,615421	3,3045	84,5316	0,144	76,691	3,5	1007,1	6,6	8,7	8,5	1	1	1	1	1	1	1	1	1	0	1	-45,665962	273,842033	273,181891	0
14.01.2021	22:47:55	0	0	4,406295	3,1725	83,3364	0,139	76,688	3,5	1006,84	6,6	8,7	8,5	1	1	1	1	1	1	1	1	1	0	1	-47,850599	273,911364	271,32028	0
14.01.2021	22:47:56	0	0	2,93753	3,186	90,4068	0,142	76,718	3,5	1006,92	6,6	8,6	8,5	1	1	1	1	1	1	1	1	1	0	1	-47,709655	273,856763	271,20681	0
14.01.2021	22:47:57	0	0	3,050512	3,489	91,4868	0,137	76,727	3,5	1006,94	6,6	8,7	8,5	1	1	1	1	1	1	1	1	1	0	1	-45,947851	273,874454	273,051031	0
14.01.2021	22:47:58	0	0	2,93753	3,79125	71,244	0,142	76,739	3,5	1007,06	6,6	8,6	8,5	1	1	1	1	1	1	1	1	1	0	1	-46,370684	273,850869	272,518329	0
14.01.2021	22:47:59	0	0	3,050512	3,9345	68,022	0,144	76,74	3,5	1006,98	6,6	8,6	8,5	1	1	1	1	1	1	1	1	1	0	1	-49,82382	274,000236	269,761488	0
14.01.2021	22:48:00	0	0	4,632259	3,97125	70,8264	0,144	76,791	3,5	1006,98	6,6	8,7	8,5	1	1	1	1	1	1	1	1	1	0	1	-42,706131	273,886258	276,347746	0
14.01.2021	22:48:01	0	0	4,632259	3,97125	70,8264	0,144	76,791	3,5	1006,98	6,6	8,7	8,5	1	1	1	1	1	1	1	1	1	0	1	-42,706131	273,886258	276,347746	0
14.01.2021	22:48:02	0	0	2,033675	4,1475	79,7904	0,142	76,812	3,5	1007,12	6,6	8,6	8,5	1	1	1	1	1	1	1	1	1	0	1	-47,709655	273,933543	271,564615	0
14.01.2021	22:48:03	0	0	4,067349	4,1265	86,2812	0,139	76,81	3,5	1006,86	6,6	8,6	8,5	1	1	1	1	1	1	1	1	1	0	1	-49,119098	274,037387	270,639574	0
14.01.2021	22:48:04	0	0	3,841385	3,864	72,0036	0,146	76,806	3,5	1007,08	6,6	8,6	8,5	1	1	1	1	1	1	1	1	1	0	1	-48,555321	273,905453	270,588012	0
14.01.2021	22:48:05	0	0	4,293313	3,82275	73,8576	0,147	76,8	3,5	1007,06	6,6	8,7	8,5	1	1	1	1	1	1	1	1	1	0	1	-49,330514	274,031438	270,400392	0
14.01.2021	22:48:06	0	0	2,37262	3,675	81,5904	0,147	76,799	3,5	1007,06	6,6	8,6	8,5	1	1	1	1	1	1	1	1	1	0	1	-47,427766	273,943903	271,894801	0
14.01.2021	22:48:07	0	0	4,519277	3,4635	71,9712	0,15	76,807	3,5	1007,12	6,6	8,7	8,5	1	1	1	1	1	1	1	1	1	0	1	-48,696265	273,855289	270,213335	0
14.01.2021	22:48:08	0	0	4,858223	3,3225	73,0296	0,144	76,774	3,5	1006,98	6,6	8,7	8,5	1	1	1	1	1	1	1	1	1	0	1	-45,877378	274,00469	273,728712	0
14.01.2021	22:48:09	0	0	3,276476	3,24225	82,9728	0,138	76,778	3,5	1006,84	6,6	8,7	8,5	1	1	1	1	1	1	1	1	1	0	1	-44,538407	273,980945	274,956911	0
14.01.2021	22:48:10	0	0	2,93753	3,2505	87,354	0,145	76,783	3,5	1006,96	6,6	8,7	8,5	1	1	1	1	1	1	1	1	1	0	1	-48,414376	273,864132	270,536417	0
14.01.2021	22:48:11	0	0	3,050512	3,2625	84,4164	0,146	76,765	3,5	1007,04	6,6	8,7	8,5	1	1	1	1	1	1	1	1	1	0	1	-48,696265	273,945383	270,633205	0
14.01.2021	22:48:12	0	0	2,93753	3,28875	83,7144	0,145	76,767	3,5	1007,04	6,6	8,7	8,5	1	1	1	1	1	1	1	1	1	0	1	-43,904158	274,050779	275,917025	0
14.01.2021	22:48:13	0	0	4,293313	3,31575	79,506	0,147	76,787	3,5	1007,02	6,6	8,6	8,5	1	1	1	1	1	1	1	1	1	0	1	-49,119098	273,983912	270,390058	0
14.01.2021	22:48:14	0	0	2,598584	3,32925	91,1664	0,14	76,783	3,5	1007,08	6,6	8,6	8,5	1	1	1	1	1	1	1	1	1	0	1	-51,021846	274,04185	268,757657	0
14.01.2021	22:48:15	0	0	4,971205	3,333	83,7072	0,151	76,783	3,5	1006,94	6,6	8,6	8,5	1	1	1	1	1	1	1	1	1	0	1	-50,246653	274,028464	269,470375	0
14.01.2021	22:48:16	0	0	4,180331	3,3585	80,532	0,148	76,787	3,5	1006,96	6,6	8,7	8,5	1	1	1	1	1	1	1	1	1	0	1	-43,622269	273,887734	275,438485	0
14.01.2021	22:48:17	0	0	4,858223	3,22875	80,5104	0,144	76,818	3,5	1007,04	6,6	8,7	8,5	1	1	1	1	1	1	1	1	1	0	1	-46,934461	274,00766	272,685488	0
14.01.2021	22:48:18	0	0	2,824548	3,3135	85,5324	0,152	76,837	3,5	1007,06	6,6	8,6	8,5	1	1	1	1	1	1	1	1	1	0	1	-46,934461	273,872979	272,057549	0
14.01.2021	22:48:19	0	0	3,615421	3,4095	72,666	0,147	76,833	3,5	1007,22	6,6	8,7	8,5	1	1	1	1	1	1	1	1	1	0	1	-49,82382	274,040363	269,948739	0
14.01.2021	22:48:20	0	0	4,632259	3,5685	74,538	0,151	76,852	3,5	1007,14	6,6	8,7	8,5	1	1	1	1	1	1	1	1	1	0	1	-48,343904	273,940942	270,964861	0
14.01.2021	22:48:21	0	0	2,824548	3,459	73,4256	0,15	76,871	3,5	1007,02	6,6	8,7	8,5	1	1	1	1	1	1	1	1	1	0	1	-46,934461	273,87888	272,085039	0
14.01.2021	22:48:22	0	0	3,728403	3,41625	84,0276	0,15	76,843	3,5	1007	6,6	8,7	8,5	1	1	1	1	1	1	1	1	1	0	1	-49,753347	273,930585	269,507128	0
14.01.2021	22:48:23	0	0	2,824548	3,276	65,8296	0,147	76,855	3,5	1007	6,6	8,6	8,5	1	1	1	1	1	1	1	1	1	0	1	-48,484848	274,052268	271,343283	0
14.01.2021	22:48:24	0	0	3,050512	3,1005	79,0416	0,15	76,861	3,5	1007,02	6,6	8,7	8,5	1	1	1	1	1	1	1	1	1	0	1	-51,515152	273,973531	267,945584	0
14.01.2021	22:48:25	0	0	3,954367	3,12825	91,8756	0,153	76,844	3,5	1007,16	6,6	8,7	8,5	1	1	1	1	1	1	1	1	1	0	1	-49,330514	273,887734	269,73024	0
14.01.2021	22:48:26	0	0	5,084186	2,9955	70,6176	0,152	76,844	3,5	1007,12	6,6	8,6	8,5	1	1	1	1	1	1	1	1	1	0	1	-50,035236	274,01806	269,633236	0
14.01.2021	22:48:27	0	0	5,197168	3,02925	73,0404	0,153	76,835	3,5	1007,1	6,6	8,6	8,5	1	1	1	1	1	1	1	1	1	0	1	-49,894292	273,940942	269,414473	0
14.01.2021	22:48:28	0	0	3,841385	2,9655	86,9796	0,149	76,82	3,5	1007,02	6,6	8,6	8,5	1	1	1	1	1	1	1	1	1	0	1	-50,458069	274,061202	269,411769	0
14.01.2021	22:48:29	0	0	4,519277	2,829	81,6012	0,148	76,821	3,5	1007	6,6	8,6	8,5	1	1	1	1	1	1	1	1	1	0	1	-46,934461	273,945383	272,395009	0
14.01.2021	22:48:30	0	0	2,485602	2,87475	74,9088	0,155	76,8	3,5	1007,1	6,6	8,6	8,5	1	1	1	1	1	1	1	1	1	0	1	-46,793517	273,898068	272,315397	0
14.01.2021	22:48:31	0	0	4,632259	2,886	81,9684	0,15	76,814	3,5	1007,32	6,6	8,7	8,5	1	1	1	1	1	1	1	1	1	0	1	-48,484848	274,06716	271,412807	0
14.01.2021	22:48:32	0	0	3,841385	2,81025	69,48	0,158	76,774	3,5	1007,18	6,6	8,7	8,5	1	1	1	1	1	1	1	1	1	0	1	-46,863989	274,032925	272,873859	0
14.01.2021	22:48:33	0	0	5,084186	2,75325	75,2256	0,15	76,76	3,5	1007,02	6,6	8,6	8,5	1	1	1	1	1	1	1	1	1	0	1	-49,541931	274,055245	270,3001	0
14.01.2021	22:48:34	0	0	3,050512	2,6445	69,1632	0,159	76,753	3,5	1007,12	6,6	8,6	8,5	1	1	1	1	1	1	1	1	1	0	1	-47,004933	274,010631	272,628876	0
14.01.2021	22:48:35	0	0	3,050512	2,436	51,7572	0,155	76,727	3,5	1007,18	6,6	8,6	8,5	1	1	1	1	1	1	1	1	1	0	1	-50,387597	274,061202	269,482241	0
14.01.2021	22:48:36	0	0	4,519277	2,178	62,4384	0,158	76,747	3,5	1007,34	6,6	8,7	8,5	1	1	1	1	1	1	1	1	1	0	1	-50,880902	274,025491	268,82225	0
14.01.2021	22:48:37	0	0	4,293313	1,93125	43,65	0,152	76,717	3,5	1007,06	6,6	8,6	8,5	1	1	1	1	1	1	1	1	1	0	1	-48,978154	273,893638	270,110117	0
14.01.2021	22:48:38	0	0	5,084186	1,7865	52,506	0,158	76,707	3,5	1007,1	6,6	8,7	8,5	1	1	1	1	1	1	1	1	1	0	1	-48,273432	274,07014	271,638136	0
14.01.2021	22:48:39	0	0	4,180331	1,74525	62,0172	0,154	76,675	3,5	1007,06	6,6	8,7	8,5	1	1	1	1	1	1	1	1	1	0	1	-44,397463	273,951305	274,959622	0
14.01.2021	22:48:40	0	0	3,50244	1,63125	52,5024	0,154	76,667	3,5	1007,08	6,6	8,6	8,5	1	1	1	1	1	1	1	1	1	0	1	-46,370684	273,887734	272,690071	0
14.01.2021	22:48:41	0	0	4,180331	1,599	57,4128	0,161	76,662	3,5	1007,14	6,6	8,6	8,5	1	1	1	1	1	1	1	1	1	0	1	-47,004933	274,012117	272,635808	0
14.01.2021	22:48:42	0	0	4,745241	1,458	54,792	0,156	76,648	3,5	1007,1	6,6	8,6	8,5	1	1	1	1	1	1	1	1	1	0	1	-47,145877	274,06865	272,758734	0
14.01.2021	22:48:43	0	0	3,050512	1,419	44,7876	0,156	76,627	3,5	1006,92	6,6	8,6	8,5	1	1	1	1	1	1	1	1	1	0	1	-47,921071	273,998751	271,657311	0
14.01.2021	22:48:44	0	0	4,406295	1,464	60,2496	0,159	76,624	3,5	1007,04	6,6	8,6	8,5	1	1	1	1	1	1	1	1	1	0	1	-49,753347	273,896591	269,348685	0
14.01.2021	22:48:45	0	0	3,389458	1,57725	73,4472	0,161	76,615	3,5	1007,08	6,6	8,7	8,5	1	1	1	1	1	1	1	1	1	0	1	-47,004933	274,076101	272,934469	0
14.01.2021	22:48:46	0	0	4,180331	1,683	67,6584	0,153	76,603	3,5	1007,02	6,6	8,6	8,5	1	1	1	1	1	1	1	1	1	0	1	-46,441156	273,975014	273,026495	0
14.01.2021	22:48:47	0	0	2,824548	1,791	64,62	0,158	76,595	3,5	1006,96	6,6	8,7	8,5	1	1	1	1	1	1	1	1	1	0	1	-45,59549	273,893638	273,49278	0
14.01.2021	22:48:48	0	0	4,067349	1,8525	90,018	0,156	76,582	3,5	1007,06	6,6	8,6	8,5	1	1	1	1	1	1	1	1	1	0	1	-48,20296	274,025491	271,500192	0
14.01.2021	22:48:49	0	0	3,050512	1,8225	71,6112	0,16	76,586	3,5	1006,98	6,6	8,7	8,5	1	1	1	1	1	1	1	1	1	0	1	-47,075405	274,049291	272,738829	0
14.01.2021	22:48:50	0	0	2,711566	1,896	54,4896	0,154	76,561	3,5	1007,08	6,6	8,6	8,5	1	1	1	1	1	1	1	1	1	0	1	-50,81043	274,07312	269,115054	0
14.01.2021	22:48:51	0	0	4,519277	1,809	62,424	0,16	76,539	3,5	1006,96	6,6	8,6	8,5	1	1	1	1	1	1	1	1	1	0	1	-49,18957	274,021032	270,492772	0
14.01.2021	22:48:52	0	0	4,180331	1,7805	58,4928	0,157	76,548	3,5	1007,08	6,6	8,7	8,5	1	1	1	1	1	1	1	1	1	0	1	-47,427766	274,064181	272,45598	0
14.01.2021	22:48:53	0	0	4,858223	1,821	60,5484	0,161	76,541	3,5	1007,06	6,6	8,7	8,5	1	1	1	1	1	1	1	1	1	0	1	-49,894292	273,924668	269,338604	0
14.01.2021	22:48:54	0	0	2,824548	1,9935	71,604	0,16	76,528	3,5	1006,84	6,6	8,7	8,5	1	1	1	1	1	1	1	1	1	0	1	-45,384073	274,037387	274,374599	0
14.01.2021	22:48:55	0	0	2,711566	2,037	58,8708	0,163	76,527	3,5	1007,2	6,6	8,6	8,5	1	1	1	1	1	1	1	1	1	0	1	-47,850599	273,906931	271,299619	0
14.01.2021	22:48:56	0	0	2,711566	1,899	56,6928	0,164	76,532	3,5	1007,12	6,6	8,7	8,5	1	1	1	1	1	1	1	1	1	0	1	-48,20296	274,019546	271,472447	0
14.01.2021	22:48:57	0	0	4,632259	1,8225	41,9328	0,156	76,517	3,5	1007,16	6,6	8,7	8,5	1	1	1	1	1	1	1	1	1	0	1	-47,56871	273,930585	271,691765	0
14.01.2021	22:48:58	0	0	3,615421	1,81725	55,9152	0,164	76,507	3,5	1006,94	6,6	8,6	8,5	1	1	1	1	1	1	1	1	1	0	1	-47,004933	274,062691	272,871859	0
14.01.2021	22:48:59	0	0	4,519277	1,88775	46,962	0,16	76,503	3,5	1006,98	6,6	8,6	8,5	1	1	1	1	1	1	1	1	1	0	1	-50,035236	273,901022	269,087443	0
14.01.2021	22:49:00	0	0	2,93753	1,998	42,2172	0,165	76,485	3,5	1007,14	6,6	8,6	8,5	1	1	1	1	1	1	1	1	1	0	1	-50,317125	274,064181	269,566621	0
14.01.2021	22:49:01	0	0	2,93753	1,998	42,2172	0,165	76,485	3,5	1007,14	6,6	8,6	8,5	1	1	1	1	1	1	1	1	1	0	1	-50,317125	274,064181	269,566621	0
14.01.2021	22:49:02	0	0	4,632259	2,13525	57,4236	0,164	76,494	3,5	1007,02	6,6	8,7	8,5	1	1	1	1	1	1	1	1	1	0	1	-44,890768	274,021032	274,791574	0
14.01.2021	22:49:03	0	0	2,485602	2,2155	78,678	0,156	76,471	3,5	1007,04	6,6	8,7	8,5	1	1	1	1	1	1	1	1	1	0	1	-46,5821	273,937982	272,712865	0
14.01.2021	22:49:04	0	0	2,824548	2,11725	63,9288	0,165	76,49	3,5	1007,08	6,6	8,6	8,5	1	1	1	1	1	1	1	1	1	0	1	-46,863989	274,06865	273,040623	0
14.01.2021	22:49:05	0	0	4,067349	1,95225	54,8028	0,159	76,469	3,5	1007,12	6,6	8,6	8,5	1	1	1	1	1	1	1	1	1	0	1	-44,608879	274,031438	275,122027	0
14.01.2021	22:49:06	0	0	4,632259	1,8375	62,0352	0,158	76,464	3,5	1006,98	6,6	8,7	8,5	1	1	1	1	1	1	1	1	1	0	1	-48,696265	273,932064	270,571107	0
14.01.2021	22:49:07	0	0	4,293313	1,73775	54,4716	0,157	76,442	3,5	1006,86	6,6	8,7	8,5	1	1	1	1	1	1	1	1	1	0	1	-43,058492	274,037387	276,70018	0
14.01.2021	22:49:08	0	0	2,37262	1,78875	78,0228	0,162	76,459	3,5	1007,08	6,6	8,6	8,5	1	1	1	1	1	1	1	1	1	0	1	-48,555321	274,06716	271,342335	0
14.01.2021	22:49:09	0	0	3,954367	1,872	62,7912	0,158	76,44	3,5	1007,14	6,6	8,6	8,5	1	1	1	1	1	1	1	1	1	0	1	-52,290345	274,003205	267,308817	0
14.01.2021	22:49:10	0	0	4,971205	2,06925	61,7076	0,162	76,434	3,5	1007,02	6,6	8,6	8,5	1	1	1	1	1	1	1	1	1	0	1	-52,219873	274,062691	267,656919	0
14.01.2021	22:49:11	0	0	2,711566	2,29275	62,8416	0,161	76,434	3,5	1007,12	6,6	8,7	8,5	1	1	1	1	1	1	1	1	1	0	1	-45,384073	274,021032	274,298269	0
14.01.2021	22:49:12	0	0	5,31015	2,4765	62,7948	0,157	76,42	3,5	1006,86	6,6	8,7	8,5	1	1	1	1	1	1	1	1	1	0	1	-47,21635	274,040363	272,556209	0
14.01.2021	22:49:13	0	0	3,050512	2,8545	69,4692	0,16	76,414	3,5	1007,06	6,6	8,6	8,5	1	1	1	1	1	1	1	1	1	0	1	-50,739958	273,912842	268,437809	0
14.01.2021	22:49:14	0	0	4,406295	2,952	45,5328	0,159	76,424	3,5	1006,96	6,6	8,6	8,5	1	1	1	1	1	1	1	1	1	0	1	-50,246653	273,909886	268,917339	0
14.01.2021	22:49:15	0	0	4,519277	3,32625	42,9084	0,153	76,416	3,5	1007,1	6,6	8,6	8,5	1	1	1	1	1	1	1	1	1	0	1	-48,484848	274,056734	271,364134	0
14.01.2021	22:49:16	0	0	3,841385	3,7125	48,5028	0,153	76,403	3,5	1007	6,6	8,7	8,5	1	1	1	1	1	1	1	1	1	0	1	-46,300211	274,010631	273,333598	0
14.01.2021	22:49:17	0	0	3,050512	4,0845	45,5436	0,163	76,422	3,5	1007,08	6,6	8,7	8,5	1	1	1	1	1	1	1	1	1	0	1	-48,907681	274,06567	270,983019	0
14.01.2021	22:49:18	0	0	3,728403	4,539	48,4956	0,16	76,418	3,5	1007,1	6,6	8,6	8,5	1	1	1	1	1	1	1	1	1	0	1	-51,021846	273,908408	268,135258	0
14.01.2021	22:49:19	0	0	4,519277	4,4445	53,3412	0,161	76,426	3,5	1007,06	6,6	8,6	8,5	1	1	1	1	1	1	1	1	1	0	1	-48,132488	274,010631	271,501322	0
14.01.2021	22:49:20	0	0	2,93753	4,44375	59,868	0,152	76,419	3,5	1006,84	6,6	8,6	8,5	1	1	1	1	1	1	1	1	1	0	1	-43,481325	273,927626	275,765359	0
14.01.2021	22:49:21	0	0	2,93753	4,4415	91,9116	0,165	76,42	3,5	1007,12	6,6	8,7	8,5	1	1	1	1	1	1	1	1	1	0	1	-49,682875	273,912842	269,494892	0
14.01.2021	22:49:22	0	0	2,259638	4,48575	88,6464	0,155	76,417	3,5	1007,04	6,6	8,7	8,5	1	1	1	1	1	1	1	1	1	0	1	-46,300211	273,875929	272,705542	0
14.01.2021	22:49:23	0	0	4,745241	4,10475	73,7712	0,153	76,405	3,5	1006,84	6,6	8,6	8,5	1	1	1	1	1	1	1	1	1	0	1	-48,837209	273,92319	270,388793	0
14.01.2021	22:49:24	0	0	3,050512	4,158	71,604	0,155	76,415	3,5	1007,08	6,6	8,7	8,5	1	1	1	1	1	1	1	1	1	0	1	-44,608879	274,058223	275,247054	0
14.01.2021	22:49:25	0	0	4,632259	4,53375	79,7688	0,156	76,406	3,5	1006,84	6,6	8,6	8,5	1	1	1	1	1	1	1	1	1	0	1	-47,639183	274,01806	272,02929	0
14.01.2021	22:49:26	0	0	2,93753	4,494	64,2744	0,16	76,426	3,5	1006,98	6,6	8,6	8,5	1	1	1	1	1	1	1	1	1	0	1	-42,917548	274,00469	276,688543	0
14.01.2021	22:49:27	0	0	3,050512	4,5045	61,2936	0,155	76,443	3,5	1006,96	6,6	8,7	8,5	1	1	1	1	1	1	1	1	1	0	1	-47,21635	273,886258	271,837528	0
14.01.2021	22:49:28	0	0	2,598584	4,2045	71,2188	0,158	76,448	3,5	1007,02	6,6	8,7	8,5	1	1	1	1	1	1	1	1	1	0	1	-47,921071	273,983912	271,588085	0
14.01.2021	22:49:29	0	0	4,858223	3,70125	78,2928	0,157	76,435	3,5	1007,06	6,6	8,6	8,5	1	1	1	1	1	1	1	1	1	0	1	-49,753347	273,898068	269,355566	0
14.01.2021	22:49:30	0	0	4,632259	3,83925	78,6852	0,157	76,418	3,5	1007,2	6,6	8,6	8,5	1	1	1	1	1	1	1	1	1	0	1	-47,21635	273,951305	272,140736	0
14.01.2021	22:49:31	0	0	4,519277	3,91275	77,9472	0,162	76,438	3,5	1007,22	6,6	8,6	8,5	1	1	1	1	1	1	1	1	1	0	1	-46,088795	274,04185	273,690708	0
14.01.2021	22:49:32	0	0	4,858223	3,91575	57,0204	0,164	76,437	3,5	1007,16	6,6	8,6	8,5	1	1	1	1	1	1	1	1	1	0	1	-50,035236	273,980945	269,460082	0
14.01.2021	22:49:33	0	0	3,728403	4,107	61,3044	0,152	76,432	3,5	1007,02	6,6	8,6	8,5	1	1	1	1	1	1	1	1	1	0	1	-47,780127	273,877405	271,2325	0
14.01.2021	22:49:34	0	0	3,389458	4,45275	65,826	0,151	76,418	3,5	1007,18	6,6	8,7	8,5	1	1	1	1	1	1	1	1	1	0	1	-47,709655	273,927626	271,53703	0
14.01.2021	22:49:35	0	0	3,389458	4,41225	66,5424	0,156	76,447	3,5	1007,06	6,6	8,6	8,5	1	1	1	1	1	1	1	1	1	0	1	-49,471459	273,895115	269,623692	0
14.01.2021	22:49:36	0	0	3,389458	4,26675	65,0916	0,156	76,457	3,5	1007,04	6,6	8,6	8,5	1	1	1	1	1	1	1	1	1	0	1	-45,384073	274,056734	274,464909	0
14.01.2021	22:49:37	0	0	3,276476	4,3845	63,4896	0,159	76,474	3,5	1007,12	6,6	8,6	8,5	1	1	1	1	1	1	1	1	1	0	1	-49,18957	273,969084	270,250424	0
14.01.2021	22:49:38	0	0	4,180331	4,2975	69,8472	0,16	76,491	3,5	1007,12	6,6	8,7	8,5	1	1	1	1	1	1	1	1	1	0	1	-52,501762	273,88921	266,565871	0
14.01.2021	22:49:39	0	0	3,615421	4,39275	71,2404	0,156	76,543	3,5	1007,02	6,6	8,6	8,5	1	1	1	1	1	1	1	1	1	0	1	-44,326991	273,906931	274,823227	0
14.01.2021	22:49:40	0	0	4,745241	4,497	82,3464	0,161	76,503	3,5	1007,04	6,6	8,7	8,5	1	1	1	1	1	1	1	1	1	0	1	-46,088795	273,99133	273,454966	0
14.01.2021	22:49:41	0	0	4,067349	4,37625	79,416	0,153	76,485	3,5	1007	6,6	8,6	8,5	1	1	1	1	1	1	1	1	1	0	1	-50,951374	274,052268	268,876757	0
14.01.2021	22:49:42	0	0	4,632259	4,272	76,842	0,156	76,519	3,5	1006,96	6,6	8,7	8,5	1	1	1	1	1	1	1	1	1	0	1	-44,115574	273,881831	274,917675	0
14.01.2021	22:49:43	0	0	4,293313	4,365	72,27	0,151	76,513	3,5	1007,06	6,6	8,6	8,5	1	1	1	1	1	1	1	1	1	0	1	-50,387597	273,909886	268,776394	0
14.01.2021	22:49:44	0	0	4,745241	4,52175	71,2404	0,15	76,512	3,5	1007	6,6	8,7	8,5	1	1	1	1	1	1	1	1	1	0	1	-45,665962	273,997267	273,905494	0
14.01.2021	22:49:45	0	0	4,293313	4,39725	79,7688	0,157	76,523	3,5	1007,18	6,6	8,6	8,5	1	1	1	1	1	1	1	1	1	0	1	-46,5821	273,887734	272,478654	0
14.01.2021	22:49:46	0	0	2,824548	4,251	79,7724	0,157	76,522	3,5	1007,08	6,6	8,6	8,5	1	1	1	1	1	1	1	1	1	0	1	-43,199436	273,918754	276,00589	0
14.01.2021	22:49:47	0	0	2,93753	4,45875	76,842	0,147	76,512	3,5	1007	6,6	8,7	8,5	1	1	1	1	1	1	1	1	1	0	1	-49,82382	274,043338	269,962629	0
14.01.2021	22:49:48	0	0	3,728403	4,50825	86,292	0,155	76,507	3,5	1007,12	6,6	8,6	8,5	1	1	1	1	1	1	1	1	1	0	1	-48,132488	274,003205	271,466675	0
14.01.2021	22:49:49	0	0	2,485602	4,6335	81,972	0,159	76,5	3,5	1007,12	6,6	8,6	8,5	1	1	1	1	1	1	1	1	1	0	1	-44,749824	273,898068	274,35909	0
14.01.2021	22:49:50	0	0	4,293313	4,90725	80,1252	0,16	76,47	3,5	1007	6,6	8,6	8,5	1	1	1	1	1	1	1	1	1	0	1	-49,541931	274,043338	270,244517	0
14.01.2021	22:49:51	0	0	4,971205	5,3895	71,2296	0,155	76,473	3,5	1007,08	6,6	8,6	8,5	1	1	1	1	1	1	1	1	1	0	1	-51,374207	274,019546	268,3012	0
14.01.2021	22:49:52	0	0	3,728403	5,337	72,6948	0,154	76,455	3,5	1007,06	6,7	8,7	8,5	1	1	1	1	1	1	1	1	1	0	1	-46,793517	273,868555	272,177882	0
14.01.2021	22:49:53	0	0	2,485602	5,19225	71,6004	0,15	76,436	3,5	1006,98	6,6	8,7	8,5	1	1	1	1	1	1	1	1	1	0	1	-43,97463	273,896591	275,127402	0
14.01.2021	22:49:54	0	0	3,276476	5,2095	79,3872	0,161	76,443	3,5	1007,18	6,6	8,6	8,5	1	1	1	1	1	1	1	1	1	0	1	-48,062016	274,040363	271,710543	0
14.01.2021	22:49:55	0	0	2,37262	5,36025	79,038	0,157	76,416	3,5	1007,1	6,6	8,6	8,5	1	1	1	1	1	1	1	1	1	0	1	-47,427766	273,96612	271,998404	0
14.01.2021	22:49:56	0	0	3,50244	5,43075	78,2712	0,152	76,42	3,5	1007,12	6,6	8,6	8,5	1	1	1	1	1	1	1	1	1	0	1	-49,82382	274,053757	270,011261	0
14.01.2021	22:49:57	0	0	2,93753	5,3205	78,2748	0,156	76,415	3,5	1007,1	6,6	8,6	8,5	1	1	1	1	1	1	1	1	1	0	1	-47,498238	273,899545	271,617558	0
14.01.2021	22:49:58	0	0	3,050512	5,32875	76,3668	0,157	76,422	3,5	1007,08	6,6	8,6	8,5	1	1	1	1	1	1	1	1	1	0	1	-49,682875	274,029951	270,041092	0
14.01.2021	22:49:59	0	0	4,519277	5,29575	79,0308	0,156	76,425	3,5	1007,12	6,6	8,6	8,5	1	1	1	1	1	1	1	1	1	0	1	-47,21635	274,059713	272,646536	0
14.01.2021	22:50:00	0	0	4,406295	4,743	84,0348	0,149	76,42	3,5	1006,98	6,6	8,6	8,5	1	1	1	1	1	1	1	1	1	0	1	-48,273432	273,935023	271,007735	0
14.01.2021	22:50:01	0	0	4,406295	4,743	84,0348	0,149	76,42	3,5	1006,98	6,6	8,6	8,5	1	1	1	1	1	1	1	1	1	0	1	-48,273432	273,935023	271,007735	0
14.01.2021	22:50:02	0	0	3,728403	4,7025	77,9652	0,16	76,422	3,5	1007,12	6,7	8,6	8,5	1	1	1	1	1	1	1	1	1	0	1	-46,229739	273,896591	272,872293	0
14.01.2021	22:50:03	0	0	4,971205	4,557	70,83	0,157	76,424	3,5	1007	6,6	8,6	8,5	1	1	1	1	1	1	1	1	1	0	1	-51,021846	274,0359	268,729884	0
14.01.2021	22:50:04	0	0	3,163494	4,52625	76,3776	0,159	76,442	3,5	1007,04	6,6	8,6	8,5	1	1	1	1	1	1	1	1	1	0	1	-50,739958	273,905453	268,403375	0
14.01.2021	22:50:05	0	0	3,50244	4,2945	73,0404	0,155	76,449	3,5	1007,02	6,6	8,6	8,5	1	1	1	1	1	1	1	1	1	0	1	-49,260042	274,059713	270,602843	0
14.01.2021	22:50:06	0	0	2,711566	4,03575	74,1564	0,163	76,471	3,5	1007,2	6,6	8,6	8,5	1	1	1	1	1	1	1	1	1	0	1	-52,854123	274,0359	266,897607	0
14.01.2021	22:50:07	0	0	4,858223	4,134	73,4184	0,156	76,482	3,5	1007,1	6,6	8,6	8,5	1	1	1	1	1	1	1	1	1	0	1	-48,978154	274,049291	270,836081	0
14.01.2021	22:50:08	0	0	4,406295	4,23075	90,0432	0,162	76,517	3,5	1007,14	6,6	8,6	8,5	1	1	1	1	1	1	1	1	1	0	1	-50,739958	273,909886	268,424034	0
14.01.2021	22:50:09	0	0	3,728403	3,9285	74,4876	0,158	76,519	3,5	1007,12	6,6	8,6	8,5	1	1	1	1	1	1	1	1	1	0	1	-44,538407	273,896591	274,563625	0
14.01.2021	22:50:10	0	0	3,615421	4,02975	92,6208	0,151	76,529	3,5	1007	6,6	8,6	8,5	1	1	1	1	1	1	1	1	1	0	1	-51,515152	274,013602	268,132521	0
14.01.2021	22:50:11	0	0	2,824548	3,981	88,1172	0,155	76,541	3,5	1007,1	6,6	8,6	8,5	1	1	1	1	1	1	1	1	1	0	1	-50,739958	273,88921	268,327675	0
14.01.2021	22:50:12	0	0	4,406295	3,9105	91,89	0,154	76,544	3,5	1007,02	6,6	8,6	8,5	1	1	1	1	1	1	1	1	1	0	1	-49,400987	273,896591	269,701045	0
14.01.2021	22:50:13	0	0	2,824548	3,6975	88,578	0,161	76,545	3,5	1007	6,6	8,6	8,5	1	1	1	1	1	1	1	1	1	0	1	-48,273432	273,911364	270,897447	0
14.01.2021	22:50:14	0	0	3,276476	3,4395	80,5032	0,163	76,559	3,5	1007,08	6,6	8,6	8,5	1	1	1	1	1	1	1	1	1	0	1	-49,330514	273,932064	269,936858	0
14.01.2021	22:50:15	0	0	3,276476	3,3255	78,6528	0,161	76,543	3,5	1007,06	6,6	8,6	8,5	1	1	1	1	1	1	1	1	1	0	1	-47,780127	273,908408	271,376977	0
14.01.2021	22:50:16	0	0	4,293313	3,4695	80,5104	0,16	76,551	3,5	1007,1	6,6	8,7	8,5	1	1	1	1	1	1	1	1	1	0	1	-46,5821	274,044826	273,211294	0
14.01.2021	22:50:17	0	0	3,954367	3,90375	81,2124	0,163	76,541	3,5	1006,98	6,6	8,6	8,5	1	1	1	1	1	1	1	1	1	0	1	-49,119098	274,06716	270,778558	0
14.01.2021	22:50:18	0	0	4,632259	4,341	90,0108	0,161	76,517	3,5	1007,06	6,6	8,6	8,5	1	1	1	1	1	1	1	1	1	0	1	-53,840733	274,059713	266,022153	0
14.01.2021	22:50:19	0	0	2,711566	4,92825	88,1244	0,156	76,534	3,5	1007,1	6,6	8,6	8,5	1	1	1	1	1	1	1	1	1	0	1	-50,458069	274,021032	269,224273	0
14.01.2021	22:50:20	0	0	3,276476	5,21325	80,1468	0,165	76,516	3,5	1007	6,6	8,6	8,5	1	1	1	1	1	1	1	1	1	0	1	-48,484848	273,896591	270,617183	0
14.01.2021	22:50:21	0	0	3,615421	5,466	79,4196	0,165	76,511	3,5	1006,98	6,6	8,6	8,5	1	1	1	1	1	1	1	1	1	0	1	-53,065539	273,948344	266,277737	0
14.01.2021	22:50:22	0	0	4,632259	5,19675	85,1724	0,155	76,498	3,5	1007,02	6,6	8,6	8,5	1	1	1	1	1	1	1	1	1	0	1	-51,515152	274,059713	268,347734	0
14.01.2021	22:50:23	0	0	2,824548	4,96275	57,7368	0,163	76,5	3,5	1007,1	6,6	8,6	8,5	1	1	1	1	1	1	1	1	1	0	1	-47,498238	273,942422	271,817428	0
14.01.2021	22:50:24	0	0	3,050512	4,4505	72,6732	0,164	76,488	3,5	1007,02	6,6	8,6	8,5	1	1	1	1	1	1	1	1	1	0	1	-46,229739	273,92319	272,996263	0
14.01.2021	22:50:25	0	0	3,841385	4,026	73,044	0,166	76,47	3,5	1007,28	6,6	8,6	8,5	1	1	1	1	1	1	1	1	1	0	1	-50,035236	273,960193	269,363292	0
14.01.2021	22:50:26	0	0	5,084186	3,68025	65,4552	0,161	76,458	3,5	1007,02	6,6	8,6	8,5	1	1	1	1	1	1	1	1	1	0	1	-50,951374	273,88921	268,116258	0
14.01.2021	22:50:27	0	0	4,632259	3,8925	56,2716	0,164	76,476	3,5	1007,04	6,6	8,6	8,5	1	1	1	1	1	1	1	1	1	0	1	-49,260042	273,977979	270,221441	0
14.01.2021	22:50:28	0	0	2,37262	3,801	54,8928	0,159	76,477	3,5	1006,94	6,6	8,6	8,5	1	1	1	1	1	1	1	1	1	0	1	-49,400987	274,080573	270,559297	0
14.01.2021	22:50:29	0	0	3,163494	3,92025	60,9516	0,166	76,491	3,5	1007,04	6,6	8,6	8,5	1	1	1	1	1	1	1	1	1	0	1	-49,753347	273,945383	269,576122	0
14.01.2021	22:50:30	0	0	2,598584	4,2615	65,106	0,158	76,503	3,5	1007,04	6,6	8,6	8,5	1	1	1	1	1	1	1	1	1	0	1	-48,696265	274,012117	270,944476	0
14.01.2021	22:50:31	0	0	4,180331	4,3395	71,2512	0,169	76,507	3,5	1007,08	6,6	8,6	8,5	1	1	1	1	1	1	1	1	1	0	1	-48,837209	274,08952	271,164855	0
14.01.2021	22:50:32	0	0	3,389458	4,3665	65,178	0,161	76,522	3,5	1007,06	6,6	8,6	8,5	1	1	1	1	1	1	1	1	1	0	1	-47,004933	274,024005	272,691281	0
14.01.2021	22:50:33	0	0	3,389458	4,11075	63,486	0,167	76,525	3,5	1007,08	6,6	8,6	8,5	1	1	1	1	1	1	1	1	1	0	1	-47,21635	274,040363	272,556209	0
14.01.2021	22:50:34	0	0	2,824548	4,03725	63,8712	0,169	76,502	3,5	1007,06	6,6	8,6	8,5	1	1	1	1	1	1	1	1	1	0	1	-46,018323	274,04185	273,761181	0
14.01.2021	22:50:35	0	0	4,293313	4,03875	66,5352	0,172	76,512	3,5	1006,88	6,6	8,6	8,5	1	1	1	1	1	1	1	1	1	0	1	-53,488372	273,927626	265,758312	0
14.01.2021	22:50:36	0	0	3,954367	3,97725	62,7876	0,172	76,509	3,5	1007,18	6,6	8,7	8,5	1	1	1	1	1	1	1	1	1	0	1	-51,162791	274,082064	268,804454	0
14.01.2021	22:50:37	0	0	3,728403	3,80625	62,0568	0,169	76,514	3,5	1007,08	6,6	8,6	8,5	1	1	1	1	1	1	1	1	1	0	1	-50,17618	274,01806	269,492292	0
14.01.2021	22:50:38	0	0	2,711566	3,73575	61,6896	0,169	76,498	3,5	1007,16	6,6	8,6	8,5	1	1	1	1	1	1	1	1	1	0	1	-46,723044	274,093995	273,299919	0
14.01.2021	22:50:39	0	0	3,050512	3,5745	51,048	0,169	76,489	3,5	1007,24	6,6	8,6	8,5	1	1	1	1	1	1	1	1	1	0	1	-43,199436	273,955749	276,178368	0
14.01.2021	22:50:40	0	0	2,259638	3,105	64,2564	0,173	76,48	3,5	1007,06	6,6	8,6	8,5	1	1	1	1	1	1	1	1	1	0	1	-48,978154	273,909886	270,185838	0
14.01.2021	22:50:41	0	0	4,632259	2,85675	63,1656	0,171	76,486	3,5	1007,08	6,6	8,6	8,5	1	1	1	1	1	1	1	1	1	0	1	-46,300211	273,939462	273,001653	0
14.01.2021	22:50:42	0	0	5,423132	2,79	55,566	0,173	76,48	3,5	1007,04	6,6	8,6	8,5	1	1	1	1	1	1	1	1	1	0	1	-50,035236	273,99133	269,508525	0
14.01.2021	22:50:43	0	0	4,745241	3,048	58,8888	0,176	76,483	3,5	1007,18	6,6	8,6	8,5	1	1	1	1	1	1	1	1	1	0	1	-48,273432	274,098471	271,770437	0
14.01.2021	22:50:44	0	0	3,389458	3,17625	61,6752	0,168	76,461	3,5	1007,02	6,6	8,6	8,5	1	1	1	1	1	1	1	1	1	0	1	-48,062016	273,967602	271,371066	0
14.01.2021	22:50:45	0	0	3,163513	3,36525	68,04	0,174	76,451	3,5	1007,14	6,6	8,6	8,4	1	1	1	1	1	1	1	1	1	0	1	-48,978154	274,092503	271,037843	0
14.01.2021	22:50:46	0	0	3,50244	3,6255	63,1656	0,168	76,429	3,5	1007,12	6,6	8,6	8,5	1	1	1	1	1	1	1	1	1	0	1	-49,682875	274,00766	269,937073	0
14.01.2021	22:50:47	0	0	3,050512	3,61125	66,9132	0,171	76,417	3,5	1006,98	6,6	8,6	8,5	1	1	1	1	1	1	1	1	1	0	1	-50,105708	274,085046	269,875463	0
14.01.2021	22:50:48	0	0	4,519277	3,549	78,6528	0,172	76,392	3,5	1007,14	6,6	8,7	8,5	1	1	1	1	1	1	1	1	1	0	1	-48,907681	274,056734	270,941301	0
14.01.2021	22:50:49	0	0	3,50244	3,5295	74,9268	0,18	76,392	3,5	1007,16	6,6	8,6	8,5	1	1	1	1	1	1	1	1	1	0	1	-51,656096	273,903976	267,480352	0
14.01.2021	22:50:50	0	0	3,50244	3,58575	67,6728	0,178	76,373	3,5	1007,04	6,6	8,6	8,5	1	1	1	1	1	1	1	1	1	0	1	-49,048626	274,061202	270,821213	0
14.01.2021	22:50:51	0	0	3,728403	3,3285	74,9376	0,177	76,373	3,5	1007,08	6,6	8,6	8,5	1	1	1	1	1	1	1	1	1	0	1	-49,612403	274,091012	270,396627	0
14.01.2021	22:50:52	0	0	2,93753	3,23475	86,6844	0,178	76,359	3,5	1007	6,6	8,6	8,5	1	1	1	1	1	1	1	1	1	0	1	-52,572234	273,952786	266,791757	0
14.01.2021	22:50:53	0	0	3,050512	3,12075	70,8516	0,179	76,364	3,5	1006,94	6,6	8,6	8,5	1	1	1	1	1	1	1	1	1	0	1	-51,656096	274,074611	268,276347	0
14.01.2021	22:50:54	0	0	4,971205	3,2145	74,5128	0,176	76,349	3,5	1007,08	6,6	8,6	8,5	1	1	1	1	1	1	1	1	1	0	1	-46,652572	274,111906	273,454047	0
14.01.2021	22:50:55	0	0	2,824548	3,26025	74,538	0,18	76,35	3,5	1007,06	6,6	8,6	8,5	1	1	1	1	1	1	1	1	1	0	1	-45,384073	274,031438	274,346834	0
14.01.2021	22:50:56	0	0	4,406295	3,3435	75,24	0,178	76,33	3,5	1007,2	6,6	8,7	8,5	1	1	1	1	1	1	1	1	1	0	1	-48,273432	273,908408	270,883672	0
14.01.2021	22:50:57	0	0	2,93753	3,261	73,4616	0,183	76,327	3,5	1007,22	6,6	8,6	8,5	1	1	1	1	1	1	1	1	1	0	1	-45,384073	274,031438	274,346834	0
14.01.2021	22:50:58	0	0	2,598584	3,3705	77,2056	0,181	76,331	3,5	1007,1	6,6	8,6	8,5	1	1	1	1	1	1	1	1	1	0	1	-51,092319	273,933543	268,181951	0
14.01.2021	22:50:59	0	0	4,180331	3,4425	66,9204	0,181	76,338	3,5	1007,08	6,6	8,6	8,5	1	1	1	1	1	1	1	1	1	0	1	-50,458069	274,053757	269,377012	0
14.01.2021	22:51:00	0	0	2,824548	3,80475	77,976	0,18	76,304	3,5	1007,04	6,6	8,6	8,5	1	1	1	1	1	1	1	1	1	0	1	-50,669486	273,918754	268,535841	0
14.01.2021	22:51:01	0	0	2,824548	3,80475	77,976	0,18	76,304	3,5	1007,04	6,6	8,6	8,5	1	1	1	1	1	1	1	1	1	0	1	-50,669486	273,918754	268,535841	0
14.01.2021	22:51:02	0	0	2,711566	3,696	63,1836	0,18	76,279	3,5	1007,06	6,6	8,6	8,5	1	1	1	1	1	1	1	1	1	0	1	-48,132488	274,050779	271,688695	0
14.01.2021	22:51:03	0	0	4,632259	3,60675	65,8476	0,174	76,259	3,5	1006,98	6,6	8,6	8,5	1	1	1	1	1	1	1	1	1	0	1	-52,219873	274,096979	267,817027	0
14.01.2021	22:51:04	0	0	4,067349	3,47625	76,8312	0,184	76,245	3,5	1007,08	6,6	8,6	8,5	1	1	1	1	1	1	1	1	1	0	1	-47,991543	273,95723	271,393168	0
14.01.2021	22:51:05	0	0	3,389458	3,46125	63,8928	0,181	76,247	3,5	1007,02	6,6	8,6	8,5	1	1	1	1	1	1	1	1	1	0	1	-48,20296	273,935023	271,078207	0
14.01.2021	22:51:06	0	0	2,485602	3,3135	51,444	0,18	76,231	3,5	1007,04	6,6	8,7	8,5	1	1	1	1	1	1	1	1	1	0	1	-46,863989	273,935023	272,417178	0
14.01.2021	22:51:07	0	0	2,598584	3,33225	46,998	0,185	76,19	3,5	1007	6,6	8,6	8,5	1	1	1	1	1	1	1	1	1	0	1	-50,317125	273,985395	269,198951	0
14.01.2021	22:51:08	0	0	3,841385	3,30375	45,5616	0,175	76,208	3,5	1007,06	6,6	8,6	8,5	1	1	1	1	1	1	1	1	1	0	1	-52,572234	273,933543	266,702035	0
14.01.2021	22:51:09	0	0	3,163494	3,2025	55,1916	0,183	76,2	3,5	1007,08	6,6	8,6	8,5	1	1	1	1	1	1	1	1	1	0	1	-49,119098	274,016574	270,54244	0
14.01.2021	22:51:10	0	0	2,598584	3,141	62,0496	0,183	76,199	3,5	1007,14	6,6	8,6	8,5	1	1	1	1	1	1	1	1	1	0	1	-49,119098	273,937982	270,175867	0
14.01.2021	22:51:11	0	0	4,971205	2,93175	71,2476	0,181	76,177	3,5	1007,18	6,6	8,6	8,5	1	1	1	1	1	1	1	1	1	0	1	-50,951374	274,052268	268,876757	0
14.01.2021	22:51:12	0	0	4,406295	2,7135	68,0076	0,191	76,17	3,5	1007,12	6,6	8,6	8,5	1	1	1	1	1	1	1	1	1	0	1	-47,075405	274,095487	272,954526	0
14.01.2021	22:51:13	0	0	4,971205	2,66625	71,2296	0,182	76,151	3,5	1007,1	6,6	8,6	8,5	1	1	1	1	1	1	1	1	1	0	1	-51,585624	274,053757	268,249457	0
14.01.2021	22:51:14	0	0	4,632259	2,54325	75,2292	0,188	76,144	3,5	1007,26	6,6	8,7	8,5	1	1	1	1	1	1	1	1	1	0	1	-48,766737	274,101456	271,291072	0
14.01.2021	22:51:15	0	0	3,954367	2,391	90,0468	0,181	76,119	3,5	1007,16	6,6	8,6	8,5	1	1	1	1	1	1	1	1	1	0	1	-52,43129	273,977979	267,050194	0
14.01.2021	22:51:16	0	0	4,406295	2,4705	81,234	0,182	76,104	3,5	1007,02	6,6	8,6	8,5	1	1	1	1	1	1	1	1	1	0	1	-50,669486	273,903976	268,466962	0
14.01.2021	22:51:17	0	0	4,858223	2,65725	70,2216	0,187	76,117	3,5	1007,14	6,6	8,6	8,5	1	1	1	1	1	1	1	1	1	0	1	-51,937984	274,062691	267,938807	0
14.01.2021	22:51:18	0	0	2,711566	3,1035	74,5596	0,187	76,092	3,5	1007,04	6,6	8,6	8,5	1	1	1	1	1	1	1	1	1	0	1	-47,850599	273,940942	271,458166	0
14.01.2021	22:51:19	0	0	3,615421	3,195	80,5248	0,191	76,098	3,5	1007,08	6,6	8,6	8,5	1	1	1	1	1	1	1	1	1	0	1	-47,850599	274,098471	272,19327	0
14.01.2021	22:51:20	0	0	3,050512	3,23475	77,976	0,18	76,084	3,5	1007,06	6,6	8,7	8,5	1	1	1	1	1	1	1	1	1	0	1	-44,326991	273,946863	275,009382	0
14.01.2021	22:51:21	0	0	3,50244	3,09075	71,2404	0,182	76,072	3,5	1007,12	6,6	8,6	8,5	1	1	1	1	1	1	1	1	1	0	1	-49,119098	274,064181	270,764648	0
14.01.2021	22:51:22	0	0	4,180331	3,0555	85,8924	0,185	76,065	3,5	1007,04	6,6	8,6	8,5	1	1	1	1	1	1	1	1	1	0	1	-51,162791	274,01806	268,505682	0
14.01.2021	22:51:23	0	0	2,824548	2,925	88,0992	0,189	76,075	3,5	1007,2	6,6	8,7	8,5	1	1	1	1	1	1	1	1	1	0	1	-49,260042	274,105934	270,818682	0
14.01.2021	22:51:24	0	0	2,824548	2,71575	82,5948	0,188	76,053	3,5	1007,04	6,6	8,6	8,5	1	1	1	1	1	1	1	1	1	0	1	-47,639183	273,986879	271,883813	0
14.01.2021	22:51:25	0	0	4,180331	2,55225	80,8812	0,188	76,052	3,5	1007,1	6,6	8,6	8,5	1	1	1	1	1	1	1	1	1	0	1	-48,273432	273,951305	271,083653	0
14.01.2021	22:51:26	0	0	3,389458	2,511	74,556	0,193	76,019	3,5	1007,16	6,6	8,6	8,5	1	1	1	1	1	1	1	1	1	0	1	-51,092319	274,093995	268,930645	0
14.01.2021	22:51:27	0	0	3,050512	2,5185	78,4908	0,189	76,036	3,5	1007,22	6,6	8,6	8,5	1	1	1	1	1	1	1	1	1	0	1	-50,528541	273,920233	268,683676	0
14.01.2021	22:51:28	0	0	4,519277	2,51475	72,2988	0,18	76,024	3,5	1007,1	6,6	8,6	8,5	1	1	1	1	1	1	1	1	1	0	1	-48,555321	274,04185	271,224183	0
14.01.2021	22:51:29	0	0	4,858223	2,4165	80,8848	0,188	76,005	3,5	1007,04	6,6	8,6	8,5	1	1	1	1	1	1	1	1	1	0	1	-49,330514	273,912842	269,847253	0
14.01.2021	22:51:30	0	0	2,824548	2,3085	78,7392	0,188	76,002	3,5	1007,12	6,6	8,6	8,5	1	1	1	1	1	1	1	1	1	0	1	-44,538407	274,037387	275,220265	0
14.01.2021	22:51:31	0	0	2,93753	2,15325	76,8456	0,182	75,975	3,5	1007,08	6,6	8,6	8,5	1	1	1	1	1	1	1	1	1	0	1	-48,132488	273,92319	271,093515	0
14.01.2021	22:51:32	0	0	3,615421	2,19675	83,3652	0,19	75,982	3,5	1007,04	6,6	8,7	8,5	1	1	1	1	1	1	1	1	1	0	1	-50,105708	273,995783	269,458823	0
14.01.2021	22:51:33	0	0	2,598584	2,4285	81,5652	0,191	75,974	3,5	1007,24	6,6	8,7	8,5	1	1	1	1	1	1	1	1	1	0	1	-50,458069	273,920233	268,754149	0
14.01.2021	22:51:34	0	0	3,615421	2,46975	87,7212	0,18	75,959	3,5	1007,2	6,6	8,6	8,5	1	1	1	1	1	1	1	1	1	0	1	-47,427766	273,988363	272,102151	0
14.01.2021	22:51:35	0	0	4,519277	2,5605	94,0896	0,185	75,973	3,5	1007,02	6,6	8,6	8,5	1	1	1	1	1	1	1	1	1	0	1	-47,427766	273,92319	271,798236	0
14.01.2021	22:51:36	0	0	2,93753	2,60175	80,1396	0,193	75,971	3,5	1007,1	6,6	8,6	8,5	1	1	1	1	1	1	1	1	1	0	1	-50,951374	274,04185	268,828129	0
14.01.2021	22:51:37	0	0	4,858223	2,72025	85,5288	0,187	75,959	3,5	1007,14	6,6	8,6	8,5	1	1	1	1	1	1	1	1	1	0	1	-50,246653	274,079082	269,70667	0
14.01.2021	22:51:38	0	0	4,519277	2,75775	78,9156	0,19	75,971	3,5	1007,08	6,6	8,7	8,5	1	1	1	1	1	1	1	1	1	0	1	-51,585624	273,977979	267,89586	0
14.01.2021	22:51:39	0	0	3,615421	2,69625	79,0308	0,19	75,969	3,5	1007,12	6,6	8,6	8,5	1	1	1	1	1	1	1	1	1	0	1	-49,612403	274,107427	270,473294	0
14.01.2021	22:51:40	0	0	4,745241	2,65275	84,42	0,186	75,968	3,5	1007	6,6	8,6	8,5	1	1	1	1	1	1	1	1	1	0	1	-50,599013	273,985395	268,917062	0
14.01.2021	22:51:41	0	0	3,276476	2,6595	75,9636	0,19	75,971	3,5	1006,98	6,6	8,6	8,5	1	1	1	1	1	1	1	1	1	0	1	-49,612403	274,096979	270,424497	0
14.01.2021	22:51:42	0	0	3,276476	2,61525	84,42	0,193	75,966	3,5	1007,26	6,6	8,6	8,5	1	1	1	1	1	1	1	1	1	0	1	-50,458069	274,034413	269,286719	0
14.01.2021	22:51:43	0	0	4,858223	2,46975	89,3304	0,191	75,955	3,5	1007,06	6,6	8,6	8,5	1	1	1	1	1	1	1	1	1	0	1	-51,092319	274,096979	268,944581	0
14.01.2021	22:51:44	0	0	3,050512	2,32575	107,7336	0,189	75,958	3,5	1007,1	6,6	8,6	8,5	1	1	1	1	1	1	1	1	1	0	1	-50,105708	274,031438	269,625199	0
14.01.2021	22:51:45	0	0	3,389458	2,21625	111,5136	0,189	75,948	3,5	1007,02	6,6	8,7	8,5	1	1	1	1	1	1	1	1	1	0	1	-51,937984	274,093995	268,084979	0
14.01.2021	22:51:46	0	0	5,423132	2,13375	104,4252	0,185	75,933	3,5	1006,98	6,6	8,6	8,5	1	1	1	1	1	1	1	1	1	0	1	-48,766737	274,00469	270,839353	0
14.01.2021	22:51:47	0	0	4,519277	2,058	105,8868	0,187	75,937	3,5	1007,02	6,6	8,6	8,5	1	1	1	1	1	1	1	1	1	0	1	-49,894292	274,107427	270,191405	0
14.01.2021	22:51:48	0	0	3,050512	1,92225	90,3744	0,19	75,93	3,5	1007,08	6,6	8,7	8,5	1	1	1	1	1	1	1	1	1	0	1	-50,599013	274,053757	269,236068	0
14.01.2021	22:51:49	0	0	4,858223	1,90575	84,8952	0,188	75,938	3,5	1007,08	6,6	8,6	8,5	1	1	1	1	1	1	1	1	1	0	1	-49,260042	273,939462	270,041822	0
14.01.2021	22:51:50	0	0	5,084186	1,8645	85,9212	0,184	75,935	3,5	1007	6,6	8,7	8,5	1	1	1	1	1	1	1	1	1	0	1	-47,709655	274,038875	272,055961	0
14.01.2021	22:51:51	0	0	2,485602	1,788	65,0808	0,183	75,94	3,5	1006,96	6,6	8,6	8,5	1	1	1	1	1	1	1	1	1	0	1	-52,219873	274,092503	267,796123	0
14.01.2021	22:51:52	0	0	4,406295	1,737	65,8224	0,185	75,939	3,5	1007,14	6,6	8,6	8,5	1	1	1	1	1	1	1	1	1	0	1	-53,065539	274,047803	266,741748	0
14.01.2021	22:51:53	0	0	4,180331	1,75575	55,5624	0,189	75,941	3,5	1007,18	6,6	8,7	8,5	1	1	1	1	1	1	1	1	1	0	1	-52,078929	274,095487	267,951003	0
14.01.2021	22:51:54	0	0	3,954367	2,3145	65,0736	0,181	75,929	3,5	1007,14	6,6	8,6	8,5	1	1	1	1	1	1	1	1	1	0	1	-49,612403	273,994298	269,945204	0
14.01.2021	22:51:55	0	0	3,954367	3,099	74,16	0,189	75,922	3,5	1007,22	6,6	8,7	8,5	1	1	1	1	1	1	1	1	1	0	1	-48,273432	273,924668	270,959464	0
14.01.2021	22:51:56	0	0	5,197168	3,57825	77,9616	0,186	75,928	3,5	1007,16	6,6	8,6	8,5	1	1	1	1	1	1	1	1	1	0	1	-51,515152	273,949825	267,835029	0
14.01.2021	22:51:57	0	0	4,632259	4,08975	82,5804	0,186	75,93	3,5	1007,08	6,7	8,7	8,5	1	1	1	1	1	1	1	1	1	0	1	-51,585624	274,038875	268,179992	0
14.01.2021	22:51:58	0	0	4,745241	4,4835	86,3028	0,183	75,914	3,5	1007,08	6,6	8,7	8,5	1	1	1	1	1	1	1	1	1	0	1	-50,317125	274,06716	269,580531	0
14.01.2021	22:51:59	0	0	2,598584	4,49625	92,664	0,186	75,936	3,5	1007,12	6,6	8,6	8,5	1	1	1	1	1	1	1	1	1	0	1	-50,246653	274,095487	269,783279	0
14.01.2021	22:52:00	0	0	2,824548	4,524	78,66	0,188	75,916	3,5	1007,14	6,6	8,7	8,5	1	1	1	1	1	1	1	1	1	0	1	-50,317125	273,952786	269,046866	0
14.01.2021	22:52:01	0	0	2,824548	4,524	78,66	0,188	75,916	3,5	1007,14	6,6	8,7	8,5	1	1	1	1	1	1	1	1	1	0	1	-50,317125	273,952786	269,046866	0
14.01.2021	22:52:02	0	0	2,711566	4,17675	79,038	0,183	75,916	3,5	1007,1	6,6	8,6	8,5	1	1	1	1	1	1	1	1	1	0	1	-48,625793	274,058223	271,230141	0
14.01.2021	22:52:03	0	0	4,293313	3,84	73,0296	0,186	75,906	3,5	1007,1	6,6	8,6	8,5	1	1	1	1	1	1	1	1	1	0	1	-50,528541	274,022518	269,160737	0
14.01.2021	22:52:04	0	0	2,93753	3,624	66,2148	0,182	75,897	3,5	1007,18	6,6	8,7	8,5	1	1	1	1	1	1	1	1	1	0	1	-47,921071	273,920233	271,291146	0
14.01.2021	22:52:05	0	0	4,745241	3,77925	70,5996	0,186	75,897	3,5	1007,08	6,6	8,6	8,5	1	1	1	1	1	1	1	1	1	0	1	-49,753347	274,032925	269,9845	0
14.01.2021	22:52:06	0	0	3,276476	3,77625	64,2492	0,183	75,908	3,5	1007,12	6,6	8,6	8,5	1	1	1	1	1	1	1	1	1	0	1	-45,877378	274,08952	274,124686	0
14.01.2021	22:52:07	0	0	5,084186	3,75675	74,5272	0,183	75,892	3,5	1006,96	6,6	8,6	8,5	1	1	1	1	1	1	1	1	1	0	1	-48,273432	274,086537	271,714703	0
14.01.2021	22:52:08	0	0	3,954367	3,66	75,9744	0,184	75,932	3,5	1007,08	6,6	8,6	8,5	1	1	1	1	1	1	1	1	1	0	1	-49,330514	273,967602	270,102567	0
14.01.2021	22:52:09	0	0	4,519277	3,36	62,4204	0,181	75,906	3,5	1006,98	6,6	8,6	8,5	1	1	1	1	1	1	1	1	1	0	1	-51,233263	274,083555	268,740945	0
14.01.2021	22:52:10	0	0	3,841385	3,16125	63,8496	0,189	75,917	3,5	1007,12	6,6	8,6	8,5	1	1	1	1	1	1	1	1	1	0	1	-51,726568	274,009146	267,900311	0
14.01.2021	22:52:11	0	0	4,858223	3,13875	44,496	0,187	75,899	3,5	1007,16	6,6	8,7	8,5	1	1	1	1	1	1	1	1	1	0	1	-50,035236	274,096979	270,001664	0
14.01.2021	22:52:12	0	0	4,067349	3,2265	51,048	0,183	75,909	3,5	1006,92	6,6	8,6	8,5	1	1	1	1	1	1	1	1	1	0	1	-48,062016	274,025491	271,641136	0
14.01.2021	22:52:13	0	0	2,824548	3,36675	46,6056	0,182	75,905	3,5	1007,22	6,6	8,6	8,5	1	1	1	1	1	1	1	1	1	0	1	-53,4179	274,095487	266,612031	0
14.01.2021	22:52:14	0	0	2,485602	3,41325	48,1212	0,193	75,907	3,5	1007,12	6,6	8,6	8,5	1	1	1	1	1	1	1	1	1	0	1	-48,062016	274,047803	271,745271	0
14.01.2021	22:52:15	0	0	3,163494	3,2715	43,6644	0,189	75,915	3,5	1007,04	6,6	8,6	8,5	1	1	1	1	1	1	1	1	1	0	1	-48,20296	273,929105	271,05062	0
14.01.2021	22:52:16	0	0	2,598584	3,1095	43,6536	0,191	75,905	3,5	1007	6,6	8,7	8,5	1	1	1	1	1	1	1	1	1	0	1	-53,770261	274,043338	266,016188	0
14.01.2021	22:52:17	0	0	4,519277	2,9655	37,6776	0,184	75,903	3,5	1006,98	6,6	8,6	8,5	1	1	1	1	1	1	1	1	1	0	1	-51,585624	274,101456	268,472185	0
14.01.2021	22:52:18	0	0	2,93753	2,78925	38,0628	0,178	75,889	3,5	1007,12	6,6	8,6	8,5	1	1	1	1	1	1	1	1	1	0	1	-45,525018	274,032925	274,21283	0
14.01.2021	22:52:19	0	0	3,841385	2,721	51,4512	0,187	75,934	3,5	1007,38	6,6	8,6	8,5	1	1	1	1	1	1	1	1	1	0	1	-48,907681	273,930585	270,352794	0
14.01.2021	22:52:20	0	0	4,632259	2,448	47,3724	0,185	75,893	3,5	1007,12	6,6	8,7	8,5	1	1	1	1	1	1	1	1	1	0	1	-47,145877	273,986879	272,377118	0
14.01.2021	22:52:21	0	0	4,519277	2,39625	54,09	0,189	75,896	3,5	1006,88	6,6	8,7	8,5	1	1	1	1	1	1	1	1	1	0	1	-51,656096	273,912842	267,521671	0
14.01.2021	22:52:22	0	0	3,276476	2,3265	55,1592	0,179	75,886	3,5	1007,06	6,6	8,6	8,5	1	1	1	1	1	1	1	1	1	0	1	-50,317125	274,037387	269,441548	0
14.01.2021	22:52:23	0	0	4,293313	2,421	68,7672	0,186	75,895	3,5	1007,06	6,6	8,7	8,5	1	1	1	1	1	1	1	1	1	0	1	-51,303735	273,939462	267,998129	0
14.01.2021	22:52:24	0	0	4,745241	2,52825	61,6716	0,187	75,898	3,5	1007,02	6,6	8,6	8,5	1	1	1	1	1	1	1	1	1	0	1	-51,162791	273,948344	268,180486	0
14.01.2021	22:52:25	0	0	2,93753	2,607	63,8532	0,19	75,892	3,5	1007,14	6,6	8,6	8,5	1	1	1	1	1	1	1	1	1	0	1	-49,330514	273,915798	269,861031	0
14.01.2021	22:52:26	0	0	3,615421	2,43675	45,9144	0,192	75,889	3,5	1007,02	6,6	8,6	8,5	1	1	1	1	1	1	1	1	1	0	1	-52,43129	274,019546	267,244117	0
14.01.2021	22:52:27	0	0	3,050512	2,28675	40,2408	0,189	75,884	3,5	1007	6,6	8,6	8,5	1	1	1	1	1	1	1	1	1	0	1	-52,854123	274,107427	267,231574	0
14.01.2021	22:52:28	0	0	4,858223	2,20425	42,5916	0,186	75,881	3,5	1006,98	6,6	8,6	8,5	1	1	1	1	1	1	1	1	1	0	1	-49,260042	274,01806	270,40843	0
14.01.2021	22:52:29	0	0	2,033675	2,4405	58,4748	0,186	75,891	3,5	1007,12	6,6	8,7	8,5	1	1	1	1	1	1	1	1	1	0	1	-54,827343	273,915798	264,364202	0
14.01.2021	22:52:30	0	0	2,485602	2,62725	51,1488	0,184	75,876	3,5	1007,06	6,6	8,6	8,5	1	1	1	1	1	1	1	1	1	0	1	-50,81043	273,960193	268,588098	0
14.01.2021	22:52:31	0	0	2,146656	2,763	45,8568	0,187	75,881	3,5	1007,18	6,6	8,6	8,5	1	1	1	1	1	1	1	1	1	0	1	-46,229739	273,918754	272,975587	0
14.01.2021	22:52:32	0	0	2,711566	2,89125	46,9656	0,182	75,888	3,5	1007,18	6,6	8,6	8,5	1	1	1	1	1	1	1	1	1	0	1	-50,317125	273,970566	269,129783	0
14.01.2021	22:52:33	0	0	3,615421	2,8305	48,8052	0,18	75,899	3,5	1007,14	6,6	8,6	8,5	1	1	1	1	1	1	1	1	1	0	1	-51,937984	273,936503	267,350081	0
14.01.2021	22:52:34	0	0	3,389458	2,73525	63,8604	0,185	75,906	3,5	1007,22	6,6	8,6	8,5	1	1	1	1	1	1	1	1	1	0	1	-47,357294	273,983912	272,151862	0
14.01.2021	22:52:35	0	0	4,745241	2,6295	46,602	0,18	75,927	3,5	1007,1	6,6	8,6	8,5	1	1	1	1	1	1	1	1	1	0	1	-48,978154	274,096979	271,058746	0
14.01.2021	22:52:36	0	0	4,858223	2,5485	42,9084	0,184	75,92	3,5	1007,1	6,6	8,7	8,5	1	1	1	1	1	1	1	1	1	0	1	-47,921071	273,985395	271,595004	0
14.01.2021	22:52:37	0	0	4,406295	2,6655	37,674	0,187	75,924	3,5	1007,16	6,6	8,7	8,5	1	1	1	1	1	1	1	1	1	0	1	-51,79704	274,092503	268,218956	0
14.01.2021	22:52:38	0	0	4,971205	2,73	54,0972	0,187	75,914	3,5	1007,26	6,6	8,7	8,5	1	1	1	1	1	1	1	1	1	0	1	-47,286822	274,029951	272,437145	0
14.01.2021	22:52:39	0	0	2,146656	2,83125	59,4936	0,185	75,933	3,5	1007,12	6,6	8,6	8,5	1	1	1	1	1	1	1	1	1	0	1	-52,854123	273,948344	266,489154	0
14.01.2021	22:52:40	0	0	4,406295	2,9295	58,5612	0,189	75,926	3,5	1007,3	6,6	8,6	8,5	1	1	1	1	1	1	1	1	1	0	1	-51,233263	274,034413	268,511525	0
14.01.2021	22:52:41	0	0	3,05053	2,87025	62,0532	0,178	75,911	3,5	1006,9	6,6	8,6	8,4	1	1	1	1	1	1	1	1	1	0	1	-53,347428	274,098471	266,696441	0
14.01.2021	22:52:42	0	0	4,971205	2,73675	68,7888	0,185	75,915	3,5	1007,08	6,6	8,7	8,5	1	1	1	1	1	1	1	1	1	0	1	-50,317125	274,047803	269,490162	0
14.01.2021	22:52:43	0	0	3,050512	2,6025	82,9764	0,189	75,895	3,5	1006,86	6,6	8,6	8,5	1	1	1	1	1	1	1	1	1	0	1	-55,461593	273,899545	263,654204	0
14.01.2021	22:52:44	0	0	3,728403	2,2755	58,2084	0,182	75,897	3,5	1007,04	6,6	8,6	8,5	1	1	1	1	1	1	1	1	1	0	1	-55,813953	273,961674	263,591484	0
14.01.2021	22:52:45	0	0	4,180331	2,05275	59,886	0,186	75,902	3,5	1007,08	6,6	8,6	8,5	1	1	1	1	1	1	1	1	1	0	1	-45,806906	273,902499	273,322657	0
14.01.2021	22:52:46	0	0	2,93753	1,9485	58,8672	0,182	75,895	3,5	1006,9	6,6	8,6	8,5	1	1	1	1	1	1	1	1	1	0	1	-52,78365	274,0359	266,96808	0
14.01.2021	22:52:47	0	0	3,50244	1,923	62,0424	0,188	75,908	3,5	1007,04	6,6	8,7	8,5	1	1	1	1	1	1	1	1	1	0	1	-49,400987	274,080573	270,559297	0
14.01.2021	22:52:48	0	0	4,406295	1,9665	66,9996	0,179	75,893	3,5	1007,08	6,6	8,6	8,5	1	1	1	1	1	1	1	1	1	0	1	-51,726568	273,943903	267,595999	0
14.01.2021	22:52:49	0	0	2,711566	2,07675	61,7076	0,18	75,886	3,5	1007,16	6,6	8,6	8,5	1	1	1	1	1	1	1	1	1	0	1	-47,004933	274,091012	273,004097	0
14.01.2021	22:52:50	0	0	4,406295	2,14725	66,888	0,179	75,885	3,5	1007,06	6,6	8,6	8,5	1	1	1	1	1	1	1	1	1	0	1	-51,79704	274,058223	268,058893	0
14.01.2021	22:52:51	0	0	4,632259	2,30775	74,5452	0,184	75,887	3,5	1007	6,6	8,6	8,5	1	1	1	1	1	1	1	1	1	0	1	-50,317125	274,096979	269,719775	0
14.01.2021	22:52:52	0	0	4,519277	2,41275	69,8508	0,18	75,88	3,5	1007,12	6,7	8,6	8,5	1	1	1	1	1	1	1	1	1	0	1	-50,599013	274,006175	269,014006	0
14.01.2021	22:52:53	0	0	3,615421	2,4015	67,302	0,186	75,886	3,5	1007,06	6,6	8,6	8,5	1	1	1	1	1	1	1	1	1	0	1	-51,444679	274,08952	268,557385	0
14.01.2021	22:52:54	0	0	4,632259	2,244	55,1808	0,179	75,895	3,5	1006,86	6,6	8,6	8,5	1	1	1	1	1	1	1	1	1	0	1	-51,374207	274,049291	268,440027	0
14.01.2021	22:52:55	0	0	2,93753	2,142	58,1112	0,19	75,882	3,5	1007,16	6,6	8,6	8,5	1	1	1	1	1	1	1	1	1	0	1	-52,290345	273,980945	267,204973	0
14.01.2021	22:52:56	0	0	4,632259	2,25075	42,9264	0,185	75,87	3,5	1007,12	6,7	8,7	8,5	1	1	1	1	1	1	1	1	1	0	1	-49,260042	274,095487	270,769889	0
14.01.2021	22:52:57	0	0	4,745241	2,7345	40,2444	0,186	75,873	3,5	1007,1	6,6	8,7	8,5	1	1	1	1	1	1	1	1	1	0	1	-53,4179	273,969084	266,022094	0
14.01.2021	22:52:58	0	0	4,519277	3,141	43,2684	0,184	75,876	3,5	1007,2	6,6	8,6	8,5	1	1	1	1	1	1	1	1	1	0	1	-50,387597	273,918754	268,817729	0
14.01.2021	22:52:59	0	0	4,406295	3,6345	47,3832	0,185	75,878	3,5	1007,1	6,6	8,7	8,5	1	1	1	1	1	1	1	1	1	0	1	-49,82382	274,038875	269,941796	0
14.01.2021	22:53:00	0	0	3,841385	3,8895	40,2336	0,188	75,861	3,5	1007,2	6,7	8,7	8,5	1	1	1	1	1	1	1	1	1	0	1	-49,119098	273,955749	270,258706	0
14.01.2021	22:53:01	0	0	3,841385	3,8895	40,2336	0,188	75,861	3,5	1007,2	6,7	8,7	8,5	1	1	1	1	1	1	1	1	1	0	1	-49,119098	273,955749	270,258706	0
14.01.2021	22:53:02	0	0	3,954367	3,9795	46,9872	0,189	75,873	3,5	1007	6,6	8,7	8,5	1	1	1	1	1	1	1	1	1	0	1	-56,800564	273,911364	262,370315	0
14.01.2021	22:53:03	0	0	3,841385	3,804	57,0204	0,179	75,849	3,5	1007,04	6,6	8,6	8,5	1	1	1	1	1	1	1	1	1	0	1	-48,696265	274,046314	271,104075	0
14.01.2021	22:53:04	0	0	2,485602	4,02375	59,1012	0,182	75,86	3,5	1006,96	6,7	8,6	8,5	1	1	1	1	1	1	1	1	1	0	1	-53,699789	274,088029	266,295311	0
14.01.2021	22:53:05	0	0	3,50244	4,0335	64,6128	0,187	75,854	3,5	1007,08	6,6	8,6	8,5	1	1	1	1	1	1	1	1	1	0	1	-51,162791	274,085046	268,81838	0
14.01.2021	22:53:06	0	0	3,163494	3,87375	59,112	0,19	75,863	3,5	1007,18	6,6	8,7	8,5	1	1	1	1	1	1	1	1	1	0	1	-49,682875	274,046314	270,117465	0
14.01.2021	22:53:07	0	0	4,519277	3,5145	48,8124	0,184	75,853	3,5	1006,92	6,6	8,6	8,5	1	1	1	1	1	1	1	1	1	0	1	-48,273432	274,08952	271,728632	0
14.01.2021	22:53:08	0	0	2,711566	3,375	67,6728	0,185	75,843	3,5	1007,06	6,6	8,6	8,5	1	1	1	1	1	1	1	1	1	0	1	-47,427766	273,946863	271,908607	0
14.01.2021	22:53:09	0	0	4,858223	3,243	68,7708	0,186	75,85	3,5	1007,24	6,6	8,6	8,5	1	1	1	1	1	1	1	1	1	0	1	-49,753347	274,092503	270,262649	0
14.01.2021	22:53:10	0	0	4,971205	3,07275	62,0568	0,186	75,869	3,5	1007,22	6,6	8,6	8,5	1	1	1	1	1	1	1	1	1	0	1	-52,008457	273,96612	267,417713	0
14.01.2021	22:53:11	0	0	3,050512	2,8485	78,6744	0,18	75,848	3,5	1007,1	6,6	8,6	8,5	1	1	1	1	1	1	1	1	1	0	1	-53,629316	273,92319	265,596686	0
14.01.2021	22:53:12	0	0	4,632259	2,6265	66,5424	0,187	75,863	3,5	1007,1	6,6	8,6	8,5	1	1	1	1	1	1	1	1	1	0	1	-53,770261	274,043338	266,016188	0
14.01.2021	22:53:13	0	0	4,406295	2,439	67,284	0,186	75,861	3,5	1007,1	6,6	8,7	8,5	1	1	1	1	1	1	1	1	1	0	1	-47,427766	274,077591	272,518595	0
14.01.2021	22:53:14	0	0	3,50244	2,388	73,7712	0,187	75,871	3,5	1007,08	6,6	8,6	8,5	1	1	1	1	1	1	1	1	1	0	1	-52,219873	274,003205	267,379289	0
14.01.2021	22:53:15	0	0	4,745241	2,19075	66,9312	0,179	75,886	3,5	1007	6,6	8,6	8,5	1	1	1	1	1	1	1	1	1	0	1	-54,474982	274,080573	265,485301	0
14.01.2021	22:53:16	0	0	2,824548	2,076	77,9616	0,183	75,898	3,5	1007,06	6,7	8,6	8,5	1	1	1	1	1	1	1	1	1	0	1	-49,400987	273,933543	269,873283	0
14.01.2021	22:53:17	0	0	4,858223	1,94625	40,2408	0,187	75,906	3,5	1007,1	6,7	8,6	8,5	1	1	1	1	1	1	1	1	1	0	1	-49,964764	273,988363	269,565153	0
14.01.2021	22:53:18	0	0	2,824548	1,8615	52,8876	0,186	75,913	3,5	1007,14	6,6	8,6	8,5	1	1	1	1	1	1	1	1	1	0	1	-46,5821	273,915798	272,609445	0
14.01.2021	22:53:19	0	0	3,50244	1,7835	52,128	0,182	75,931	3,5	1007,16	6,6	8,6	8,5	1	1	1	1	1	1	1	1	1	0	1	-49,894292	274,085046	270,086879	0
14.01.2021	22:53:20	0	0	2,485602	1,818	25,8048	0,181	75,941	3,5	1007,06	6,6	8,7	8,5	1	1	1	1	1	1	1	1	1	0	1	-50,17618	274,000236	269,409128	0
14.01.2021	22:53:21	0	0	3,050512	2,0835	77,976	0,19	75,942	3,5	1007,16	6,6	8,6	8,5	1	1	1	1	1	1	1	1	1	0	1	-49,400987	274,082064	270,566259	0
14.01.2021	22:53:22	0	0	4,745241	2,3265	74,8944	0,189	75,956	3,5	1006,98	6,6	8,6	8,5	1	1	1	1	1	1	1	1	1	0	1	-51,79704	274,015088	267,857565	0
14.01.2021	22:53:23	0	0	2,711566	2,523	80,5212	0,19	75,947	3,5	1007,08	6,7	8,7	8,5	1	1	1	1	1	1	1	1	1	0	1	-50,880902	273,929105	268,372678	0
14.01.2021	22:53:24	0	0	3,163494	2,6715	67,9968	0,193	75,957	3,5	1007,12	6,7	8,7	8,5	1	1	1	1	1	1	1	1	1	0	1	-53,558844	273,930585	265,701631	0
14.01.2021	22:53:25	0	0	2,598584	2,66625	92,9484	0,184	75,944	3,5	1007,18	6,7	8,7	8,5	1	1	1	1	1	1	1	1	1	0	1	-53,276956	273,927626	265,969729	0
14.01.2021	22:53:26	0	0	4,519277	2,493	63,864	0,187	75,932	3,5	1007,12	6,6	8,6	8,5	1	1	1	1	1	1	1	1	1	0	1	-51,233263	274,099963	268,817576	0
14.01.2021	22:53:27	0	0	4,971205	2,30925	88,1028	0,186	75,93	3,5	1007,1	6,6	8,7	8,5	1	1	1	1	1	1	1	1	1	0	1	-48,132488	274,01806	271,535985	0
14.01.2021	22:53:28	0	0	2,824548	2,03625	71,226	0,192	75,929	3,5	1007,12	6,6	8,6	8,5	1	1	1	1	1	1	1	1	1	0	1	-48,132488	273,909886	271,031504	0
14.01.2021	22:53:29	0	0	3,954367	1,7805	69,8328	0,183	75,934	3,5	1007,12	6,6	8,6	8,5	1	1	1	1	1	1	1	1	1	0	1	-54,122622	273,952786	265,241369	0
14.01.2021	22:53:30	0	0	3,615421	1,72275	100,3608	0,19	75,94	3,5	1007,2	6,6	8,6	8,5	1	1	1	1	1	1	1	1	1	0	1	-54,40451	273,920233	264,807707	0
14.01.2021	22:53:31	0	0	4,858223	1,71225	80,9064	0,187	75,931	3,5	1007,06	6,6	8,6	8,5	1	1	1	1	1	1	1	1	1	0	1	-50,317125	274,028464	269,399903	0
14.01.2021	22:53:32	0	0	4,293313	1,668	70,5996	0,192	75,928	3,5	1007,16	6,6	8,6	8,5	1	1	1	1	1	1	1	1	1	0	1	-47,286822	274,07312	272,638662	0
14.01.2021	22:53:33	0	0	3,163494	1,6695	57,0384	0,191	75,912	3,5	1007,08	6,7	8,7	8,5	1	1	1	1	1	1	1	1	1	0	1	-53,981677	273,920233	265,23054	0
14.01.2021	22:53:34	0	0	2,711566	1,803	85,1976	0,19	75,932	3,5	1007,04	6,7	8,7	8,5	1	1	1	1	1	1	1	1	1	0	1	-52,149401	273,940942	267,159364	0
14.01.2021	22:53:35	0	0	2,37262	1,995	78,6528	0,187	75,932	3,5	1007,06	6,7	8,6	8,5	1	1	1	1	1	1	1	1	1	0	1	-52,078929	273,911364	267,09195	0
14.01.2021	22:53:36	0	0	4,293313	2,24325	82,3284	0,194	75,92	3,5	1007,12	6,7	8,6	8,5	1	1	1	1	1	1	1	1	1	0	1	-51,79704	273,958711	267,594579	0
14.01.2021	22:53:37	0	0	2,37262	2,5605	79,0416	0,189	75,9	3,5	1007,02	6,6	8,6	8,5	1	1	1	1	1	1	1	1	1	0	1	-49,119098	274,085046	270,862073	0
14.01.2021	22:53:38	0	0	4,293313	2,8365	77,6448	0,189	75,911	3,5	1007,16	6,6	8,6	8,5	1	1	1	1	1	1	1	1	1	0	1	-50,035236	273,976497	269,439331	0
14.01.2021	22:53:39	0	0	3,163494	3,05025	77,6052	0,193	75,917	3,5	1007,1	6,6	8,6	8,5	1	1	1	1	1	1	1	1	1	0	1	-51,585624	274,076101	268,353778	0
14.01.2021	22:53:40	0	0	3,389458	3,14925	88,9632	0,187	75,896	3,5	1007,1	6,6	8,6	8,5	1	1	1	1	1	1	1	1	1	0	1	-49,048626	273,961674	270,356812	0
14.01.2021	22:53:41	0	0	4,632259	3,07875	75,5928	0,194	75,899	3,5	1007,1	6,6	8,6	8,5	1	1	1	1	1	1	1	1	1	0	1	-47,850599	273,896591	271,251433	0
14.01.2021	22:53:42	0	0	2,598584	3,0765	69,444	0,191	75,905	3,5	1006,96	6,6	8,6	8,5	1	1	1	1	1	1	1	1	1	0	1	-55,602537	273,946863	263,733836	0
14.01.2021	22:53:43	0	0	3,389458	2,946	65,0844	0,187	75,883	3,5	1007,14	6,7	8,6	8,5	1	1	1	1	1	1	1	1	1	0	1	-52,854123	273,88921	266,21351	0
14.01.2021	22:53:44	0	0	4,180331	2,81925	59,0904	0,192	75,881	3,5	1007,06	6,6	8,7	8,5	1	1	1	1	1	1	1	1	1	0	1	-54,827343	274,026978	264,882746	0
14.01.2021	22:53:45	0	0	2,711566	2,67075	49,1868	0,19	75,878	3,5	1007,24	6,7	8,6	8,5	1	1	1	1	1	1	1	1	1	0	1	-48,343904	274,082064	271,623341	0
14.01.2021	22:53:46	0	0	3,050512	2,6085	60,948	0,185	75,859	3,5	1007	6,6	8,7	8,5	1	1	1	1	1	1	1	1	1	0	1	-51,303735	274,058223	268,552198	0
14.01.2021	22:53:47	0	0	2,259638	2,64975	56,6712	0,189	75,869	3,5	1007,06	6,6	8,6	8,5	1	1	1	1	1	1	1	1	1	0	1	-57,505285	274,06567	262,385415	0
14.01.2021	22:53:48	0	0	4,293313	2,5245	52,4916	0,192	75,873	3,5	1007,18	6,7	8,6	8,5	1	1	1	1	1	1	1	1	1	0	1	-51,162791	274,044826	268,630603	0
14.01.2021	22:53:49	0	0	5,084186	2,42025	56,2932	0,19	75,898	3,5	1007,1	6,6	8,6	8,5	1	1	1	1	1	1	1	1	1	0	1	-52,501762	274,074611	267,430681	0
14.01.2021	22:53:50	0	0	4,067349	2,30025	54,8892	0,19	75,91	3,5	1007,18	6,7	8,6	8,5	1	1	1	1	1	1	1	1	1	0	1	-48,414376	273,945383	270,915093	0
14.01.2021	22:53:51	0	0	2,93753	2,193	58,8492	0,188	75,925	3,5	1007,22	6,7	8,6	8,5	1	1	1	1	1	1	1	1	1	0	1	-46,441156	274,009146	273,185723	0
14.01.2021	22:53:52	0	0	3,163494	2,199	60,5556	0,193	75,952	3,5	1007,16	6,7	8,7	8,5	1	1	1	1	1	1	1	1	1	0	1	-55,884426	273,921711	263,334684	0
14.01.2021	22:53:53	0	0	2,711566	2,17725	59,0904	0,19	75,948	3,5	1007,08	6,6	8,6	8,5	1	1	1	1	1	1	1	1	1	0	1	-52,008457	273,970566	267,438451	0
14.01.2021	22:53:54	0	0	2,485602	2,05875	71,2224	0,192	75,966	3,5	1007,08	6,6	8,6	8,5	1	1	1	1	1	1	1	1	1	0	1	-49,612403	274,095487	270,417528	0
14.01.2021	22:53:55	0	0	4,745241	1,98825	80,514	0,195	75,967	3,5	1007,18	6,7	8,6	8,5	1	1	1	1	1	1	1	1	1	0	1	-53,840733	273,985395	265,675343	0
14.01.2021	22:53:56	0	0	3,841385	1,9545	80,136	0,198	75,972	3,5	1007,2	6,6	8,6	8,5	1	1	1	1	1	1	1	1	1	0	1	-52,360817	273,905453	266,782515	0
14.01.2021	22:53:57	0	0	3,050512	1,899	77,9436	0,193	75,972	3,5	1007,18	6,7	8,6	8,5	1	1	1	1	1	1	1	1	1	0	1	-48,696265	274,006175	270,916754	0
14.01.2021	22:53:58	0	0	3,841385	1,86075	70,8552	0,196	75,984	3,5	1007,18	6,7	8,6	8,5	1	1	1	1	1	1	1	1	1	0	1	-51,867512	273,926147	267,372277	0
14.01.2021	22:53:59	0	0	4,067349	1,8255	60,9156	0,197	75,983	3,5	1007,28	6,6	8,6	8,5	1	1	1	1	1	1	1	1	1	0	1	-53,4179	274,055245	266,424131	0
14.01.2021	22:54:00	0	0	3,050512	2,21475	67,3668	0,194	75,956	3,5	1007,1	6,7	8,6	8,5	1	1	1	1	1	1	1	1	1	0	1	-52,008457	274,07163	267,910069	0
14.01.2021	22:54:01	0	0	3,050512	2,21475	67,3668	0,194	75,956	3,5	1007,1	6,7	8,6	8,5	1	1	1	1	1	1	1	1	1	0	1	-52,008457	274,07163	267,910069	0
14.01.2021	22:54:02	0	0	3,389458	2,26875	70,8336	0,194	75,951	3,5	1007,1	6,6	8,6	8,5	1	1	1	1	1	1	1	1	1	0	1	-53,206483	274,024005	266,489731	0
14.01.2021	22:54:03	0	0	3,050512	2,28375	69,1452	0,194	75,953	3,5	1007,16	6,7	8,7	8,5	1	1	1	1	1	1	1	1	1	0	1	-52,149401	273,917276	267,049035	0
14.01.2021	22:54:04	0	0	4,067349	2,24325	51,7644	0,195	75,95	3,5	1007,14	6,6	8,6	8,5	1	1	1	1	1	1	1	1	1	0	1	-54,615927	273,975014	264,851724	0
14.01.2021	22:54:05	0	0	4,745241	2,187	54,6336	0,196	75,933	3,5	1007,14	6,7	8,6	8,5	1	1	1	1	1	1	1	1	1	0	1	-49,260042	274,091012	270,748988	0
14.01.2021	22:54:06	0	0	4,519277	2,223	51,7464	0,195	75,932	3,5	1007,24	6,7	8,6	8,5	1	1	1	1	1	1	1	1	1	0	1	-52,854123	274,056734	266,994859	0
14.01.2021	22:54:07	0	0	2,93753	2,256	51,7644	0,195	75,907	3,5	1007,12	6,7	8,6	8,5	1	1	1	1	1	1	1	1	1	0	1	-51,092319	274,092503	268,923678	0
14.01.2021	22:54:08	0	0	4,519277	2,1765	48,51	0,197	75,918	3,5	1007,16	6,6	8,6	8,5	1	1	1	1	1	1	1	1	1	0	1	-52,572234	274,055245	267,269797	0
14.01.2021	22:54:09	0	0	3,50244	2,09925	38,7972	0,195	75,901	3,5	1007,18	6,7	8,6	8,5	1	1	1	1	1	1	1	1	1	0	1	-54,474982	274,096979	265,561917	0
14.01.2021	22:54:10	0	0	2,485602	1,96575	48,816	0,193	75,896	3,5	1007,16	6,7	8,6	8,5	1	1	1	1	1	1	1	1	1	0	1	-52,360817	273,963156	267,05153	0
14.01.2021	22:54:11	0	0	3,50244	1,85625	51,75	0,199	75,882	3,5	1007,12	6,6	8,6	8,5	1	1	1	1	1	1	1	1	1	0	1	-47,498238	274,083555	272,475969	0
14.01.2021	22:54:12	0	0	4,180331	1,9515	41,8356	0,198	75,881	3,5	1007,16	6,7	8,6	8,5	1	1	1	1	1	1	1	1	1	0	1	-51,303735	273,982429	268,198502	0
14.01.2021	22:54:13	0	0	2,711566	1,911	68,7636	0,196	75,867	3,5	1007,18	6,7	8,6	8,5	1	1	1	1	1	1	1	1	1	0	1	-49,612403	274,082064	270,354842	0
14.01.2021	22:54:14	0	0	3,841385	1,9065	75,6036	0,193	75,857	3,5	1007,06	6,7	8,7	8,5	1	1	1	1	1	1	1	1	1	0	1	-52,854123	273,936503	266,433943	0
14.01.2021	22:54:15	0	0	5,084186	1,9815	74,5416	0,193	75,854	3,5	1007,08	6,5	8,7	8,5	1	1	1	1	1	1	1	1	1	0	1	-49,260042	273,961674	270,145395	0
14.01.2021	22:54:16	0	0	5,084186	2,0055	65,0988	0,203	75,862	3,5	1007,08	6,7	8,6	8,5	1	1	1	1	1	1	1	1	1	0	1	-45,172657	273,901022	273,950022	0
14.01.2021	22:54:17	0	0	3,728403	1,9455	63,4896	0,198	75,849	3,5	1007,08	6,7	8,6	8,5	1	1	1	1	1	1	1	1	1	0	1	-52,78365	274,053757	267,051431	0
14.01.2021	22:54:18	0	0	3,163494	1,98825	72,2952	0,203	75,85	3,5	1007,12	6,6	8,7	8,5	1	1	1	1	1	1	1	1	1	0	1	-53,911205	273,908408	265,245899	0
14.01.2021	22:54:19	0	0	4,067349	2,09025	56,6676	0,195	75,849	3,5	1007,02	6,7	8,6	8,5	1	1	1	1	1	1	1	1	1	0	1	-54,334038	274,037387	265,424634	0
14.01.2021	22:54:20	0	0	3,389458	2,07075	48,1284	0,196	75,836	3,5	1007,14	6,6	8,6	8,5	1	1	1	1	1	1	1	1	1	0	1	-52,149401	273,908408	267,007703	0
14.01.2021	22:54:21	0	0	2,711566	2,07	48,114	0,203	75,848	3,5	1007,16	6,6	8,6	8,5	1	1	1	1	1	1	1	1	1	0	1	-51,233263	273,96612	268,192907	0
14.01.2021	22:54:22	0	0	3,50244	2,19525	57,7512	0,202	75,83	3,5	1007,06	6,6	8,6	8,5	1	1	1	1	1	1	1	1	1	0	1	-53,065539	274,082064	266,901706	0
14.01.2021	22:54:23	0	0	3,163494	2,343	47,3796	0,2	75,853	3,5	1007,14	6,7	8,6	8,5	1	1	1	1	1	1	1	1	1	0	1	-51,726568	273,96612	267,699602	0
14.01.2021	22:54:24	0	0	4,745241	2,4615	58,8744	0,202	75,863	3,5	1007,06	6,7	8,6	8,5	1	1	1	1	1	1	1	1	1	0	1	-47,991543	273,92319	271,234459	0
14.01.2021	22:54:25	0	0	4,406295	2,44875	45,1656	0,204	75,87	3,5	1007,24	6,7	8,6	8,5	1	1	1	1	1	1	1	1	1	0	1	-52,360817	274,064181	267,522928	0
14.01.2021	22:54:26	0	0	4,858223	2,367	52,1244	0,206	75,881	3,5	1007,12	6,6	8,6	8,5	1	1	1	1	1	1	1	1	1	0	1	-53,065539	273,909886	266,098452	0
14.01.2021	22:54:27	0	0	4,406295	2,28075	69,4512	0,199	75,875	3,5	1007,02	6,7	8,7	8,5	1	1	1	1	1	1	1	1	1	0	1	-50,458069	274,056734	269,390913	0
14.01.2021	22:54:28	0	0	2,259638	2,187	66,2328	0,205	75,882	3,5	1007,2	6,6	8,6	8,5	1	1	1	1	1	1	1	1	1	0	1	-53,699789	274,083555	266,274419	0
14.01.2021	22:54:29	0	0	2,711566	2,022	66,5316	0,2	75,867	3,5	1007,26	6,7	8,6	8,5	1	1	1	1	1	1	1	1	1	0	1	-51,937984	273,91432	267,246671	0
14.01.2021	22:54:30	0	0	2,598584	1,89	65,5524	0,2	75,87	3,5	1007,04	6,6	8,7	8,5	1	1	1	1	1	1	1	1	1	0	1	-52,572234	274,091012	267,436796	0
14.01.2021	22:54:31	0	0	3,615421	1,8825	75,6324	0,197	75,872	3,5	1007,36	6,6	8,6	8,5	1	1	1	1	1	1	1	1	1	0	1	-47,498238	274,083555	272,475969	0
14.01.2021	22:54:32	0	0	4,293313	1,968	69,1308	0,198	75,872	3,5	1007,2	6,6	8,6	8,5	1	1	1	1	1	1	1	1	1	0	1	-48,555321	273,96612	270,870849	0
14.01.2021	22:54:33	0	0	4,293313	2,0025	79,4232	0,203	75,862	3,5	1007,08	6,6	8,6	8,5	1	1	1	1	1	1	1	1	1	0	1	-49,894292	273,918754	269,311035	0
14.01.2021	22:54:34	0	0	5,197168	1,9815	64,2312	0,198	75,855	3,5	1007,08	6,6	8,6	8,5	1	1	1	1	1	1	1	1	1	0	1	-52,149401	273,960193	267,249127	0
14.01.2021	22:54:35	0	0	4,632259	2,019	69,8544	0,194	75,858	3,5	1007,14	6,6	8,6	8,5	1	1	1	1	1	1	1	1	1	0	1	-47,56871	274,079082	272,384612	0
14.01.2021	22:54:36	0	0	2,824548	2,0445	59,8608	0,201	75,861	3,5	1007,1	6,7	8,6	8,5	1	1	1	1	1	1	1	1	1	0	1	-53,770261	274,019546	265,905146	0
14.01.2021	22:54:37	0	0	3,615421	2,02725	63,8748	0,195	75,854	3,5	1007,18	6,7	8,6	8,5	1	1	1	1	1	1	1	1	1	0	1	-49,753347	273,908408	269,403757	0
14.01.2021	22:54:38	0	0	4,745241	2,04975	65,0952	0,203	75,849	3,5	1007,02	6,7	8,6	8,5	1	1	1	1	1	1	1	1	1	0	1	-50,17618	273,973531	269,284556	0
14.01.2021	22:54:39	0	0	3,389458	1,96875	57,7404	0,202	75,841	3,5	1007,32	6,7	8,6	8,5	1	1	1	1	1	1	1	1	1	0	1	-49,894292	274,082064	270,072953	0
14.01.2021	22:54:40	0	0	2,37262	1,85325	70,254	0,199	75,832	3,5	1007,16	6,6	8,7	8,5	1	1	1	1	1	1	1	1	1	0	1	-49,330514	273,95723	270,054197	0
14.01.2021	22:54:41	0	0	4,519277	1,8195	68,0256	0,202	75,809	3,5	1007,08	6,6	8,6	8,5	1	1	1	1	1	1	1	1	1	0	1	-54,263566	274,080573	265,696717	0
14.01.2021	22:54:42	0	0	3,615421	1,8525	69,48	0,201	75,798	3,5	1007,08	6,7	8,6	8,5	1	1	1	1	1	1	1	1	1	0	1	-52,219873	274,050779	267,60131	0
14.01.2021	22:54:43	0	0	2,711566	1,941	57,7332	0,195	75,785	3,5	1007,12	6,6	8,6	8,5	1	1	1	1	1	1	1	1	1	0	1	-52,995067	273,977979	266,486416	0
14.01.2021	22:54:44	0	0	4,632259	2,085	74,52	0,193	75,785	3,5	1007,1	6,7	8,6	8,5	1	1	1	1	1	1	1	1	1	0	1	-50,17618	273,892162	268,90521	0
14.01.2021	22:54:45	0	0	2,824548	2,19375	66,9348	0,194	75,771	3,5	1007,08	6,6	8,6	8,5	1	1	1	1	1	1	1	1	1	0	1	-50,458069	274,01806	269,210403	0
14.01.2021	22:54:46	0	0	2,485602	2,2755	72,0108	0,202	75,771	3,5	1006,96	6,7	8,7	8,5	1	1	1	1	1	1	1	1	1	0	1	-48,273432	273,895115	270,821719	0
14.01.2021	22:54:47	0	0	2,711566	2,2095	63,882	0,195	75,746	3,5	1007,26	6,5	8,6	8,5	1	1	1	1	1	1	1	1	1	0	1	-49,260042	274,021032	270,4223	0
14.01.2021	22:54:48	0	0	2,37262	2,21175	61,3152	0,194	75,748	3,5	1006,98	6,7	8,7	8,5	1	1	1	1	1	1	1	1	1	0	1	-51,233263	274,07014	268,678306	0
14.01.2021	22:54:49	0	0	3,389458	2,07825	61,3008	0,205	75,757	3,5	1007,1	6,7	8,6	8,5	1	1	1	1	1	1	1	1	1	0	1	-51,515152	273,995783	268,04938	0
14.01.2021	22:54:50	0	0	4,632259	1,95525	68,4036	0,202	75,755	3,5	1007,1	6,7	8,6	8,5	1	1	1	1	1	1	1	1	1	0	1	-48,132488	273,892162	270,948903	0
14.01.2021	22:54:51	0	0	4,971205	1,9095	62,8056	0,201	75,75	3,5	1006,98	6,7	8,7	8,5	1	1	1	1	1	1	1	1	1	0	1	-51,585624	273,998751	267,992758	0
14.01.2021	22:54:52	0	0	2,711566	1,84425	79,1136	0,201	75,752	3,5	1007,02	6,7	8,6	8,5	1	1	1	1	1	1	1	1	1	0	1	-51,021846	273,901022	268,100833	0
14.01.2021	22:54:53	0	0	4,745241	1,71	69,4836	0,2	75,755	3,5	1007,02	6,6	8,6	8,5	1	1	1	1	1	1	1	1	1	0	1	-50,739958	273,992814	268,810726	0
14.01.2021	22:54:54	0	0	3,841385	1,572	75,2508	0,199	75,742	3,5	1007,06	6,7	8,6	8,5	1	1	1	1	1	1	1	1	1	0	1	-51,79704	273,893638	267,29123	0
14.01.2021	22:54:55	0	0	3,50244	1,54575	77,22	0,2	75,754	3,5	1007,12	6,6	8,6	8,5	1	1	1	1	1	1	1	1	1	0	1	-48,766737	273,920233	270,445481	0
14.01.2021	22:54:56	0	0	2,711566	1,55325	71,982	0,2	75,753	3,5	1007,16	6,7	8,6	8,5	1	1	1	1	1	1	1	1	1	0	1	-54,052149	274,06567	265,838551	0
14.01.2021	22:54:57	0	0	4,632259	1,50975	56,6712	0,198	75,742	3,5	1007,06	6,6	8,6	8,5	1	1	1	1	1	1	1	1	1	0	1	-53,276956	273,932064	265,990416	0
14.01.2021	22:54:58	0	0	4,519277	1,52775	39,87	0,197	75,761	3,5	1007,08	6,7	8,6	8,5	1	1	1	1	1	1	1	1	1	0	1	-49,612403	273,887734	269,448351	0
14.01.2021	22:54:59	0	0	3,50244	1,644	52,8984	0,199	75,81	3,5	1007,14	6,7	8,6	8,5	1	1	1	1	1	1	1	1	1	0	1	-50,246653	274,01806	269,42182	0
14.01.2021	22:55:00	0	0	3,841385	1,84875	53,3592	0,194	75,778	3,5	1007,1	6,6	8,7	8,5	1	1	1	1	1	1	1	1	1	0	1	-52,995067	274,06716	266,902589	0
14.01.2021	22:55:01	0	0	3,841385	1,84875	53,3592	0,194	75,778	3,5	1007,1	6,6	8,7	8,5	1	1	1	1	1	1	1	1	1	0	1	-52,995067	274,06716	266,902589	0
14.01.2021	22:55:02	0	0	4,406295	1,91475	31,0212	0,197	75,781	3,5	1007,14	6,6	8,6	8,5	1	1	1	1	1	1	1	1	1	0	1	-56,166314	274,000236	263,418994	0
14.01.2021	22:55:03	0	0	2,37262	1,9815	43,7328	0,199	75,777	3,5	1007	6,7	8,6	8,5	1	1	1	1	1	1	1	1	1	0	1	-52,360817	274,059713	267,502068	0
14.01.2021	22:55:04	0	0	3,954367	2,06175	39,5676	0,199	75,779	3,5	1007,14	6,7	8,6	8,5	1	1	1	1	1	1	1	1	1	0	1	-53,699789	273,937982	265,595176	0
14.01.2021	22:55:05	0	0	3,615421	2,016	31,4136	0,197	75,778	3,5	1007,1	6,7	8,6	8,5	1	1	1	1	1	1	1	1	1	0	1	-49,048626	273,883306	269,991499	0
14.01.2021	22:55:06	0	0	3,954367	1,8975	32,5008	0,196	75,775	3,5	1007,1	6,7	8,6	8,5	1	1	1	1	1	1	1	1	1	0	1	-48,766737	274,021032	270,915605	0
14.01.2021	22:55:07	0	0	4,632259	1,82175	31,4172	0,202	75,79	3,5	1007,16	6,6	8,6	8,5	1	1	1	1	1	1	1	1	1	0	1	-47,498238	273,892162	271,583152	0
14.01.2021	22:55:08	0	0	3,728403	1,794	33,6492	0,198	75,782	3,5	1007,12	6,6	8,6	8,5	1	1	1	1	1	1	1	1	1	0	1	-49,753347	273,964638	269,665911	0
14.01.2021	22:55:09	0	0	4,067349	1,6845	39,5532	0,197	75,792	3,5	1007,16	6,7	8,6	8,5	1	1	1	1	1	1	1	1	1	0	1	-53,136011	273,880355	265,890363	0
14.01.2021	22:55:10	0	0	3,954367	1,55775	36,2376	0,196	75,782	3,5	1006,84	6,6	8,7	8,5	1	1	1	1	1	1	1	1	1	0	1	-54,40451	274,009146	265,222368	0
14.01.2021	22:55:11	0	0	4,180331	1,464	42,9264	0,197	75,787	3,5	1007,28	6,6	8,6	8,5	1	1	1	1	1	1	1	1	1	0	1	-53,840733	274,037387	265,917939	0
14.01.2021	22:55:12	0	0	3,615421	1,4205	53,7336	0,199	75,8	3,5	1007,1	6,7	8,6	8,5	1	1	1	1	1	1	1	1	1	0	1	-48,625793	274,059713	271,237093	0
14.01.2021	22:55:13	0	0	3,841385	1,455	56,2752	0,199	75,784	3,5	1007,2	6,6	8,6	8,5	1	1	1	1	1	1	1	1	1	0	1	-49,330514	274,006175	270,282505	0
14.01.2021	22:55:14	0	0	3,163494	1,413	53,7156	0,198	75,801	3,5	1007,14	6,6	8,6	8,5	1	1	1	1	1	1	1	1	1	0	1	-48,696265	274,013602	270,951408	0
14.01.2021	22:55:15	0	0	2,598584	1,40925	41,0148	0,192	75,796	3,5	1007,12	6,6	8,6	8,5	1	1	1	1	1	1	1	1	1	0	1	-51,79704	274,031438	267,933867	0
14.01.2021	22:55:16	0	0	2,824548	1,4355	48,1428	0,195	75,79	3,5	1007,22	6,6	8,6	8,5	1	1	1	1	1	1	1	1	1	0	1	-50,599013	274,053757	269,236068	0
14.01.2021	22:55:17	0	0	2,824548	1,40625	42,9156	0,196	75,806	3,5	1007,3	6,6	8,6	8,5	1	1	1	1	1	1	1	1	1	0	1	-49,541931	273,935023	269,739236	0
14.01.2021	22:55:18	0	0	4,293313	1,338	15,0444	0,199	75,812	3,5	1007,2	6,6	8,6	8,5	1	1	1	1	1	1	1	1	1	0	1	-52,572234	274,053757	267,262847	0
14.01.2021	22:55:19	0	0	2,485602	1,26375	39,8592	0,198	75,8	3,5	1007,14	6,6	8,6	8,5	1	1	1	1	1	1	1	1	1	0	1	-53,276956	273,936503	266,01111	0
14.01.2021	22:55:20	0	0	2,824548	1,2435	51,4476	0,201	75,81	3,5	1007	6,7	8,7	8,5	1	1	1	1	1	1	1	1	1	0	1	-51,726568	273,868555	267,244831	0
14.01.2021	22:55:21	0	0	4,406295	1,1985	36,6156	0,198	75,795	3,5	1007,12	6,7	8,7	8,5	1	1	1	1	1	1	1	1	1	0	1	-53,4179	274,001721	266,174335	0
14.01.2021	22:55:22	0	0	4,858223	1,128	35,8128	0,189	75,812	3,5	1006,98	6,6	8,7	8,5	1	1	1	1	1	1	1	1	1	0	1	-49,330514	274,040363	270,442045	0
14.01.2021	22:55:23	0	0	4,180356	1,11225	54,4824	0,196	75,816	3,5	1006,98	6,6	8,6	8,4	1	1	1	1	1	1	1	1	1	0	1	-51,374207	273,929105	267,879372	0
14.01.2021	22:55:24	0	0	4,858223	1,1775	68,4072	0,194	75,801	3,5	1007,1	6,6	8,6	8,5	1	1	1	1	1	1	1	1	1	0	1	-52,219873	274,037387	267,538799	0
14.01.2021	22:55:25	0	0	4,180331	1,13625	49,5756	0,197	75,832	3,5	1006,98	6,6	8,6	8,5	1	1	1	1	1	1	1	1	1	0	1	-53,488372	273,872979	265,503638	0
14.01.2021	22:55:26	0	0	2,598584	1,16625	44,0244	0,196	75,82	3,5	1007,1	6,6	8,6	8,5	1	1	1	1	1	1	1	1	1	0	1	-58,562368	273,91432	260,622288	0
14.01.2021	22:55:27	0	0	4,745241	1,395	69,1524	0,196	75,832	3,5	1007,1	6,6	8,6	8,5	1	1	1	1	1	1	1	1	1	0	1	-47,991543	273,924668	271,241352	0
14.01.2021	22:55:28	0	0	2,598584	1,60425	51,4512	0,201	75,848	3,5	1007,16	6,6	8,6	8,5	1	1	1	1	1	1	1	1	1	0	1	-49,82382	273,861184	269,11324	0
14.01.2021	22:55:29	0	0	3,163494	1,77225	48,2004	0,198	75,83	3,5	1007,08	6,6	8,6	8,5	1	1	1	1	1	1	1	1	1	0	1	-49,964764	273,980945	269,530554	0
14.01.2021	22:55:30	0	0	4,180331	1,85625	57,4128	0,197	75,84	3,5	1007,06	6,6	8,6	8,5	1	1	1	1	1	1	1	1	1	0	1	-53,065539	274,053757	266,769542	0
14.01.2021	22:55:31	0	0	4,745241	1,875	62,0244	0,195	75,838	3,5	1007,14	6,6	8,6	8,5	1	1	1	1	1	1	1	1	1	0	1	-51,515152	273,937982	267,779813	0
14.01.2021	22:55:32	0	0	4,971205	1,848	55,17	0,202	75,853	3,5	1007,12	6,7	8,6	8,5	1	1	1	1	1	1	1	1	1	0	1	-50,105708	274,059713	269,757177	0
14.01.2021	22:55:33	0	0	2,824548	1,94025	41,0076	0,2	75,842	3,5	1007,1	6,6	8,6	8,5	1	1	1	1	1	1	1	1	1	0	1	-47,921071	274,022518	271,768207	0
14.01.2021	22:55:34	0	0	5,084186	2,139	55,944	0,202	75,851	3,5	1007,12	6,6	8,6	8,5	1	1	1	1	1	1	1	1	1	0	1	-52,149401	273,927626	267,097283	0
14.01.2021	22:55:35	0	0	2,824548	2,40075	58,482	0,204	75,845	3,5	1007,18	6,6	8,6	8,5	1	1	1	1	1	1	1	1	1	0	1	-54,615927	274,047803	265,19136	0
14.01.2021	22:55:36	0	0	3,954367	2,694	55,9188	0,198	75,839	3,5	1007,08	6,6	8,6	8,5	1	1	1	1	1	1	1	1	1	0	1	-50,528541	273,963156	268,883806	0
14.01.2021	22:55:37	0	0	4,745241	2,71725	45,5472	0,197	75,866	3,5	1007,26	6,6	8,6	8,5	1	1	1	1	1	1	1	1	1	0	1	-56,659619	274,053757	263,175462	0
14.01.2021	22:55:38	0	0	3,163494	2,742	50,67	0,197	75,86	3,5	1007,14	6,6	8,7	8,5	1	1	1	1	1	1	1	1	1	0	1	-53,699789	273,970566	265,747119	0
14.01.2021	22:55:39	0	0	4,406295	2,66625	32,1588	0,201	75,874	3,5	1007,16	6,6	8,6	8,5	1	1	1	1	1	1	1	1	1	0	1	-54,686399	274,028464	265,030629	0
14.01.2021	22:55:40	0	0	4,406295	2,59425	40,6944	0,192	75,875	3,5	1007,22	6,6	8,6	8,5	1	1	1	1	1	1	1	1	1	0	1	-52,360817	273,935023	266,92035	0
14.01.2021	22:55:41	0	0	3,163494	2,6235	65,466	0,2	75,878	3,5	1007,22	6,6	8,6	8,5	1	1	1	1	1	1	1	1	1	0	1	-54,545455	273,865607	264,412207	0
14.01.2021	22:55:42	0	0	4,067349	2,74725	54,7956	0,2	75,885	3,5	1007,08	6,6	8,6	8,5	1	1	1	1	1	1	1	1	1	0	1	-54,686399	273,952786	264,677592	0
14.01.2021	22:55:43	0	0	4,406295	2,72175	51,768	0,197	75,877	3,5	1007,12	6,6	8,6	8,5	1	1	1	1	1	1	1	1	1	0	1	-50,528541	273,853816	268,374196	0
14.01.2021	22:55:44	0	0	3,954367	2,43	79,4088	0,196	75,862	3,5	1007,12	6,6	8,6	8,5	1	1	1	1	1	1	1	1	1	0	1	-50,458069	273,985395	269,058006	0
14.01.2021	22:55:45	0	0	3,389458	2,21175	68,7744	0,198	75,872	3,5	1007,12	6,6	8,7	8,5	1	1	1	1	1	1	1	1	1	0	1	-49,753347	274,043338	270,033101	0
14.01.2021	22:55:46	0	0	3,615421	2,18025	63,18	0,197	75,849	3,5	1007,04	6,6	8,6	8,5	1	1	1	1	1	1	1	1	1	0	1	-53,065539	273,969084	266,374455	0
14.01.2021	22:55:47	0	0	2,711566	2,22825	80,8848	0,2	75,86	3,5	1007,12	6,6	8,6	8,5	1	1	1	1	1	1	1	1	1	0	1	-51,233263	274,037387	268,525409	0
14.01.2021	22:55:48	0	0	2,485602	2,44425	80,136	0,198	75,854	3,5	1007,1	6,6	8,6	8,5	1	1	1	1	1	1	1	1	1	0	1	-49,048626	273,884782	269,998375	0
14.01.2021	22:55:49	0	0	2,598584	2,55675	80,9316	0,2	75,858	3,5	1007,32	6,6	8,6	8,5	1	1	1	1	1	1	1	1	1	0	1	-56,236786	274,043338	263,549662	0
14.01.2021	22:55:50	0	0	3,728403	2,73	79,4124	0,197	75,863	3,5	1007,12	6,6	8,6	8,5	1	1	1	1	1	1	1	1	1	0	1	-55,743481	273,853816	263,159256	0
14.01.2021	22:55:51	0	0	4,406295	2,78325	70,2144	0,198	75,844	3,5	1006,98	6,6	8,6	8,5	1	1	1	1	1	1	1	1	1	0	1	-49,048626	273,903976	270,087822	0
14.01.2021	22:55:52	0	0	4,180331	3,04425	102,5568	0,193	75,869	3,5	1007,14	6,6	8,6	8,5	1	1	1	1	1	1	1	1	1	0	1	-49,260042	273,87003	269,718226	0
14.01.2021	22:55:53	0	0	4,745241	3,1635	98,7552	0,202	75,88	3,5	1007,2	6,6	8,6	8,5	1	1	1	1	1	1	1	1	1	0	1	-54,968288	274,016574	264,693251	0
14.01.2021	22:55:54	0	0	3,954367	3,13125	95,5116	0,201	75,879	3,5	1007,16	6,6	8,6	8,5	1	1	1	1	1	1	1	1	1	0	1	-49,682875	274,029951	270,041092	0
14.01.2021	22:55:55	0	0	4,971205	3,16425	87,3972	0,199	75,863	3,5	1007,08	6,6	8,6	8,5	1	1	1	1	1	1	1	1	1	0	1	-52,360817	273,924668	266,872078	0
14.01.2021	22:55:56	0	0	3,050512	3,53175	93,348	0,2	75,839	3,5	1007,3	6,6	8,6	8,5	1	1	1	1	1	1	1	1	1	0	1	-52,078929	273,846451	266,789501	0
14.01.2021	22:55:57	0	0	2,711566	3,984	71,6004	0,199	75,797	3,5	1007,2	6,6	8,6	8,5	1	1	1	1	1	1	1	1	1	0	1	-52,854123	273,946863	266,48225	0
14.01.2021	22:55:58	0	0	4,745241	3,90975	57,5136	0,198	75,794	3,5	1007,28	6,6	8,6	8,5	1	1	1	1	1	1	1	1	1	0	1	-48,766737	273,847923	270,108553	0
14.01.2021	22:55:59	0	0	2,824548	3,80625	83,3688	0,192	75,763	3,5	1007,16	6,6	8,6	8,5	1	1	1	1	1	1	1	1	1	0	1	-48,766737	273,921711	270,452373	0
14.01.2021	22:56:00	0	0	4,180331	3,59025	94,4136	0,2	75,758	3,5	1007,1	6,6	8,6	8,5	1	1	1	1	1	1	1	1	1	0	1	-50,81043	273,976497	268,664137	0
14.01.2021	22:56:01	0	0	4,180331	3,59025	94,4136	0,2	75,758	3,5	1007,1	6,6	8,6	8,5	1	1	1	1	1	1	1	1	1	0	1	-50,81043	273,976497	268,664137	0
14.01.2021	22:56:02	0	0	3,389458	3,60975	80,55	0,198	75,787	3,5	1007,24	6,6	8,6	8,5	1	1	1	1	1	1	1	1	1	0	1	-50,105708	274,016574	269,55583	0
14.01.2021	22:56:03	0	0	4,406295	3,813	86,6808	0,198	75,795	3,5	1007,18	6,6	8,6	8,5	1	1	1	1	1	1	1	1	1	0	1	-53,206483	274,038875	266,559132	0
14.01.2021	22:56:04	0	0	3,615421	3,91425	96,5988	0,191	75,805	3,5	1007,04	6,6	8,6	8,5	1	1	1	1	1	1	1	1	1	0	1	-52,360817	273,932064	266,906555	0
14.01.2021	22:56:05	0	0	3,615421	4,19475	91,9008	0,203	75,826	3,5	1007,08	6,6	8,6	8,5	1	1	1	1	1	1	1	1	1	0	1	-48,907681	273,846451	269,960749	0
14.01.2021	22:56:06	0	0	4,745241	3,888	80,1396	0,198	75,825	3,5	1007,06	6,6	8,6	8,5	1	1	1	1	1	1	1	1	1	0	1	-50,528541	273,933543	268,745728	0
14.01.2021	22:56:07	0	0	2,93753	3,702	68,022	0,2	75,851	3,5	1007,04	6,6	8,6	8,5	1	1	1	1	1	1	1	1	1	0	1	-53,629316	274,009146	265,997562	0
14.01.2021	22:56:08	0	0	4,632259	3,429	71,2332	0,196	75,847	3,5	1007,28	6,6	8,6	8,5	1	1	1	1	1	1	1	1	1	0	1	-48,273432	274,00766	271,346517	0
14.01.2021	22:56:09	0	0	2,93753	3,07425	59,4936	0,189	75,836	3,5	1007	6,6	8,6	8,5	1	1	1	1	1	1	1	1	1	0	1	-46,088795	273,912842	273,088972	0
14.01.2021	22:56:10	0	0	3,163494	2,76975	64,2456	0,201	75,871	3,5	1007,12	6,6	8,6	8,5	1	1	1	1	1	1	1	1	1	0	1	-51,515152	273,850869	267,373861	0
14.01.2021	22:56:11	0	0	4,745241	2,5215	37,6848	0,194	75,852	3,5	1007,18	6,6	8,6	8,5	1	1	1	1	1	1	1	1	1	0	1	-49,260042	273,915798	269,931503	0
14.01.2021	22:56:12	0	0	2,824548	2,346	23,9832	0,2	75,867	3,5	1007,08	6,6	8,6	8,5	1	1	1	1	1	1	1	1	1	0	1	-47,427766	274,029951	272,296201	0
14.01.2021	22:56:13	0	0	4,632287	2,33025	46,9908	0,196	75,852	3,5	1006,96	6,6	8,6	8,4	1	1	1	1	1	1	1	1	1	0	1	-51,726568	273,927626	267,520116	0
14.01.2021	22:56:14	0	0	4,067349	2,6565	54,7956	0,198	75,88	3,5	1007,14	6,6	8,6	8,5	1	1	1	1	1	1	1	1	1	0	1	-47,498238	274,028464	272,21879	0
14.01.2021	22:56:15	0	0	2,711582	3,033	56,2572	0,2	75,892	3,5	1007,14	6,6	8,6	8,4	1	1	1	1	1	1	1	1	1	0	1	-53,065539	273,980945	266,429779	0
14.01.2021	22:56:16	0	0	2,485602	3,35325	51,0552	0,197	75,871	3,5	1007,04	6,6	8,6	8,5	1	1	1	1	1	1	1	1	1	0	1	-50,951374	274,028464	268,765654	0
14.01.2021	22:56:17	0	0	3,728403	3,57225	48,1284	0,201	75,862	3,5	1007,24	6,6	8,6	8,5	1	1	1	1	1	1	1	1	1	0	1	-53,4179	273,88921	265,649733	0
14.01.2021	22:56:18	0	0	4,519304	3,71775	53,7192	0,195	75,862	3,5	1007,06	6,6	8,6	8,4	1	1	1	1	1	1	1	1	1	0	1	-49,753347	274,026978	269,956742	0
14.01.2021	22:56:19	0	0	4,632259	3,51225	61,6788	0,202	75,852	3,5	1007,14	6,6	8,6	8,5	1	1	1	1	1	1	1	1	1	0	1	-50,951374	273,95723	268,433337	0
14.01.2021	22:56:20	0	0	2,824548	3,3555	63,972	0,199	75,834	3,5	1007,08	6,6	8,6	8,5	1	1	1	1	1	1	1	1	1	0	1	-53,558844	273,850869	265,330168	0
14.01.2021	22:56:21	0	0	3,615421	3,29625	61,6788	0,199	75,835	3,5	1007,14	6,6	8,6	8,5	1	1	1	1	1	1	1	1	1	0	1	-53,770261	274,003205	265,828902	0
14.01.2021	22:56:22	0	0	2,598584	3,22875	52,8768	0,204	75,837	3,5	1007,16	6,6	8,6	8,5	1	1	1	1	1	1	1	1	1	0	1	-52,995067	273,864132	265,955727	0
14.01.2021	22:56:23	0	0	2,5986	3,453	45,5364	0,199	75,823	3,5	1007,14	6,6	8,6	8,4	1	1	1	1	1	1	1	1	1	0	1	-49,541931	273,887734	269,518824	0
14.01.2021	22:56:24	0	0	3,954391	3,73725	39,8736	0,194	75,794	3,5	1007,08	6,6	8,6	8,4	1	1	1	1	1	1	1	1	1	0	1	-55,884426	273,970566	263,562482	0
14.01.2021	22:56:25	0	0	4,858223	3,7875	48,1464	0,191	75,814	3,5	1007,1	6,6	8,6	8,5	1	1	1	1	1	1	1	1	1	0	1	-52,43129	274,029951	267,292677	0
14.01.2021	22:56:26	0	0	4,971205	3,63075	58,1184	0,198	75,827	3,5	1007,02	6,6	8,6	8,5	1	1	1	1	1	1	1	1	1	0	1	-54,968288	273,980945	264,527031	0
14.01.2021	22:56:27	0	0	2,824548	3,56475	56,6604	0,201	75,842	3,5	1007,26	6,6	8,6	8,5	1	1	1	1	1	1	1	1	1	0	1	-51,092319	274,031438	268,638588	0
14.01.2021	22:56:28	0	0	4,067374	3,42075	55,5444	0,204	75,834	3,5	1007,2	6,6	8,6	8,4	1	1	1	1	1	1	1	1	1	0	1	-53,840733	273,901022	265,281946	0
14.01.2021	22:56:29	0	0	2,372635	3,228	53,748	0,199	75,824	3,5	1006,86	6,6	8,6	8,4	1	1	1	1	1	1	1	1	1	0	1	-53,699789	274,024005	265,996426	0
14.01.2021	22:56:30	0	0	4,971205	2,96625	69,8436	0,202	75,833	3,5	1007,1	6,6	8,6	8,5	1	1	1	1	1	1	1	1	1	0	1	-52,219873	273,995783	267,344658	0
14.01.2021	22:56:31	0	0	3,728403	3,04125	85,9032	0,201	75,844	3,5	1007,08	6,6	8,6	8,5	1	1	1	1	1	1	1	1	1	0	1	-48,484848	273,862658	270,459078	0
14.01.2021	22:56:32	0	0	3,728426	3,1335	75,9888	0,2	75,847	3,5	1007,08	6,6	8,6	8,4	1	1	1	1	1	1	1	1	1	0	1	-47,709655	273,877405	271,302972	0
14.01.2021	22:56:33	0	0	4,745241	2,9655	122,4072	0,199	75,825	3,5	1007,1	6,6	8,6	8,5	1	1	1	1	1	1	1	1	1	0	1	-48,414376	273,988363	271,115541	0
14.01.2021	22:56:34	0	0	4,180331	2,7045	86,6628	0,196	75,826	3,5	1007,06	6,6	8,6	8,5	1	1	1	1	1	1	1	1	1	0	1	-52,572234	274,034413	267,172554	0
14.01.2021	22:56:35	0	0	2,711582	2,42625	109,6452	0,202	75,844	3,5	1007,12	6,6	8,6	8,4	1	1	1	1	1	1	1	1	1	0	1	-54,263566	273,961674	265,141872	0
14.01.2021	22:56:36	0	0	4,293339	2,2815	94,3992	0,197	75,829	3,5	1007,12	6,6	8,6	8,4	1	1	1	1	1	1	1	1	1	0	1	-51,585624	274,031438	268,145283	0
14.01.2021	22:56:37	0	0	3,728403	2,16075	104,7276	0,194	75,818	3,5	1007,1	6,6	8,6	8,5	1	1	1	1	1	1	1	1	1	0	1	-52,290345	273,902499	266,839218	0
14.01.2021	22:56:38	0	0	3,841408	2,019	88,686	0,202	75,807	3,5	1007,2	6,6	8,6	8,4	1	1	1	1	1	1	1	1	1	0	1	-49,82382	273,856763	269,092645	0
14.01.2021	22:56:39	0	0	4,180331	2,046	109,2348	0,206	75,79	3,5	1007,18	6,6	8,6	8,5	1	1	1	1	1	1	1	1	1	0	1	-54,052149	273,95723	265,332562	0
14.01.2021	22:56:40	0	0	3,954391	2,10075	90,0324	0,198	75,757	3,5	1007,14	6,6	8,6	8,4	1	1	1	1	1	1	1	1	1	0	1	-52,290345	273,853816	266,612392	0
14.01.2021	22:56:41	0	0	3,389458	2,4	109,224	0,201	75,739	3,5	1007,2	6,6	8,6	8,5	1	1	1	1	1	1	1	1	1	0	1	-53,488372	273,868555	265,483027	0
14.01.2021	22:56:42	0	0	4,067374	2,47575	103,3164	0,201	75,716	3,5	1007,1	6,6	8,6	8,4	1	1	1	1	1	1	1	1	1	0	1	-53,840733	273,989846	265,696106	0
14.01.2021	22:56:43	0	0	2,937548	2,3835	95,13	0,202	75,688	3,5	1007,1	6,6	8,6	8,4	1	1	1	1	1	1	1	1	1	0	1	-47,780127	273,84056	271,060869	0
14.01.2021	22:56:44	0	0	3,954367	2,2245	84,8052	0,199	75,654	3,5	1007,2	6,6	8,6	8,5	1	1	1	1	1	1	1	1	1	0	1	-51,444679	273,970566	268,002228	0
14.01.2021	22:56:45	0	0	2,598584	2,2755	102,2148	0,202	75,647	3,5	1007,02	6,6	8,6	8,5	1	1	1	1	1	1	1	1	1	0	1	-53,488372	274,021032	266,19397	0
14.01.2021	22:56:46	0	0	4,745241	2,33625	74,9412	0,198	75,62	3,5	1007,18	6,6	8,6	8,5	1	1	1	1	1	1	1	1	1	0	1	-50,105708	273,911364	269,065171	0
14.01.2021	22:56:47	0	0	2,937548	2,3685	67,6692	0,2	75,612	3,5	1007,06	6,6	8,6	8,4	1	1	1	1	1	1	1	1	1	0	1	-48,343904	273,85971	270,58629	0
14.01.2021	22:56:48	0	0	3,841385	2,70975	70,866	0,197	75,584	3,5	1007,04	6,5	8,6	8,5	1	1	1	1	1	1	1	1	1	0	1	-50,035236	273,862658	268,90869	0
14.01.2021	22:56:49	0	0	2,485602	2,853	92,9628	0,195	75,583	3,5	1007,12	6,6	8,6	8,5	1	1	1	1	1	1	1	1	1	0	1	-53,981677	273,901022	265,141002	0
14.01.2021	22:56:50	0	0	5,31015	2,7525	85,9284	0,202	75,574	3,5	1007,14	6,6	8,6	8,5	1	1	1	1	1	1	1	1	1	0	1	-51,585624	273,855289	267,323977	0
14.01.2021	22:56:51	0	0	4,293313	2,40225	65,844	0,199	75,564	3,5	1007,22	6,6	8,6	8,5	1	1	1	1	1	1	1	1	1	0	1	-53,770261	273,856763	265,146204	0
14.01.2021	22:56:52	0	0	2,937548	2,472	80,892	0,203	75,559	3,5	1007,06	6,6	8,7	8,4	1	1	1	1	1	1	1	1	1	0	1	-53,488372	273,88921	265,57926	0
14.01.2021	22:56:53	0	0	4,180356	2,75475	71,2404	0,195	75,571	3,5	1007,02	6,6	8,6	8,4	1	1	1	1	1	1	1	1	1	0	1	-56,095842	273,883306	262,944282	0
14.01.2021	22:56:54	0	0	3,163494	3,1095	81,198	0,193	75,571	3,5	1007,06	6,6	8,6	8,5	1	1	1	1	1	1	1	1	1	0	1	-50,17618	273,865607	268,781481	0
14.01.2021	22:56:55	0	0	4,293313	3,1665	81,5832	0,197	75,589	3,5	1007,16	6,6	8,6	8,5	1	1	1	1	1	1	1	1	1	0	1	-52,290345	273,906931	266,859873	0
14.01.2021	22:56:56	0	0	4,745269	3,08025	81,5868	0,199	75,57	3,5	1007,06	6,6	8,7	8,4	1	1	1	1	1	1	1	1	1	0	1	-50,880902	273,909886	268,283089	0
14.01.2021	22:56:57	0	0	4,858252	2,94975	72,7056	0,198	75,568	3,5	1007,06	6,6	8,6	8,4	1	1	1	1	1	1	1	1	1	0	1	-52,290345	274,022518	267,398933	0
14.01.2021	22:56:58	0	0	4,745212	2,75475	77,5908	0,198	75,571	3,5	1006,92	6,6	8,6	8,6	1	1	1	1	1	1	1	1	1	0	1	-51,021846	273,91432	268,16281	0
14.01.2021	22:56:59	0	0	2,5986	2,544	68,7564	0,197	75,572	3,5	1007,04	6,6	8,6	8,4	1	1	1	1	1	1	1	1	1	0	1	-48,766737	274,022518	270,922541	0
14.01.2021	22:57:00	0	0	3,050512	2,403	68,76	0,204	75,555	3,5	1007,14	6,6	8,6	8,5	1	1	1	1	1	1	1	1	1	0	1	-54,052149	273,997267	265,519307	0
14.01.2021	22:57:01	0	0	3,050512	2,403	68,76	0,204	75,555	3,5	1007,14	6,6	8,6	8,5	1	1	1	1	1	1	1	1	1	0	1	-57,293869	274,022518	262,395409	0
14.01.2021	22:57:02	0	0	4,519277	2,361	63,8748	0,196	75,56	3,5	1007,16	6,6	8,6	8,5	1	1	1	1	1	1	1	1	1	0	1	-56,659619	273,903976	262,476828	0
14.01.2021	22:57:03	0	0	4,745269	2,32275	72,2916	0,19	75,551	3,5	1007,04	6,6	8,6	8,4	1	1	1	1	1	1	1	1	1	0	1	-53,206483	273,847923	265,668807	0
14.01.2021	22:57:04	0	0	4,293313	2,2635	65,826	0,197	75,543	3,5	1007,14	6,6	8,6	8,5	1	1	1	1	1	1	1	1	1	0	1	-53,981677	273,867081	264,982853	0
14.01.2021	22:57:05	0	0	4,519304	2,1975	57,042	0,193	75,533	3,5	1007,06	6,6	8,6	8,4	1	1	1	1	1	1	1	1	1	0	1	-51,374207	273,855289	267,535393	0
14.01.2021	22:57:06	0	0	2,37262	2,169	60,9552	0,194	75,537	3,5	1007,18	6,6	8,6	8,5	1	1	1	1	1	1	1	1	1	0	1	-53,699789	273,893638	265,388482	0
14.01.2021	22:57:07	0	0	4,293287	2,349	47,376	0,194	75,532	3,5	1007,18	6,6	8,6	8,6	1	1	1	1	1	1	1	1	1	0	1	-52,501762	274,001721	267,090473	0
14.01.2021	22:57:08	0	0	5,1972	2,955	57,0384	0,193	75,515	3,5	1007,18	6,6	8,7	8,4	1	1	1	1	1	1	1	1	1	0	1	-52,149401	273,896591	266,952631	0
14.01.2021	22:57:09	0	0	3,728426	3,3495	55,5516	0,2	75,509	3,5	1007,1	6,6	8,7	8,4	1	1	1	1	1	1	1	1	1	0	1	-55,250176	273,85971	263,680018	0
14.01.2021	22:57:10	0	0	3,728426	3,504	65,8296	0,196	75,476	3,5	1007,16	6,6	8,6	8,4	1	1	1	1	1	1	1	1	1	0	1	-52,713178	273,970566	266,733729	0
14.01.2021	22:57:11	0	0	2,93753	3,67125	55,1772	0,191	75,489	3,5	1007,04	6,6	8,6	8,5	1	1	1	1	1	1	1	1	1	0	1	-55,743481	274,026978	263,966608	0
14.01.2021	22:57:12	0	0	3,841385	3,6405	64,0944	0,198	75,475	3,5	1007,38	6,6	8,6	8,5	1	1	1	1	1	1	1	1	1	0	1	-50,035236	273,980945	269,460082	0
14.01.2021	22:57:13	0	0	3,728403	3,597	54,792	0,188	75,465	3,5	1007,1	6,6	8,7	8,5	1	1	1	1	1	1	1	1	1	0	1	-54,263566	274,01806	265,404906	0
14.01.2021	22:57:14	0	0	2,93753	3,606	54,81	0,192	75,483	3,5	1007,18	6,6	8,6	8,5	1	1	1	1	1	1	1	1	1	0	1	-52,290345	273,924668	266,94255	0
14.01.2021	22:57:15	0	0	3,728403	3,48675	53,424	0,193	75,493	3,5	1007,02	6,6	8,7	8,5	1	1	1	1	1	1	1	1	1	0	1	-50,739958	273,842033	268,107896	0
14.01.2021	22:57:16	0	0	4,293313	3,27	51,7536	0,188	75,494	3,5	1007,16	6,6	8,6	8,5	1	1	1	1	1	1	1	1	1	0	1	-52,924595	273,995783	266,639937	0
14.01.2021	22:57:17	0	0	2,711566	2,94525	62,028	0,193	75,499	3,5	1007,1	6,6	8,6	8,5	1	1	1	1	1	1	1	1	1	0	1	-54,968288	274,024005	264,727927	0
14.01.2021	22:57:18	0	0	3,502461	2,93775	57,0168	0,188	75,505	3,5	1007,1	6,6	8,6	8,4	1	1	1	1	1	1	1	1	1	0	1	-51,374207	273,874454	267,624674	0
14.01.2021	22:57:19	0	0	4,519277	3,348	67,2732	0,19	75,507	3,5	1007,16	6,6	8,6	8,5	1	1	1	1	1	1	1	1	1	0	1	-52,642706	274,021032	267,039636	0
14.01.2021	22:57:20	0	0	3,728426	3,80925	80,9028	0,191	75,514	3,5	1007,16	6,6	8,6	8,4	1	1	1	1	1	1	1	1	1	0	1	-48,484848	273,903976	270,651599	0
14.01.2021	22:57:21	0	0	4,293339	3,94425	75,9708	0,189	75,509	3,5	1007,1	6,6	8,6	8,4	1	1	1	1	1	1	1	1	1	0	1	-48,20296	273,852343	270,692915	0
14.01.2021	22:57:22	0	0	2,937548	3,783	70,8336	0,191	75,525	3,5	1007,16	6,6	8,7	8,4	1	1	1	1	1	1	1	1	1	0	1	-48,907681	273,977979	270,573802	0
14.01.2021	22:57:23	0	0	3,163494	3,6825	56,6568	0,187	75,529	3,5	1007,16	6,6	8,6	8,5	1	1	1	1	1	1	1	1	1	0	1	-53,629316	273,834672	265,184255	0
14.01.2021	22:57:24	0	0	4,519304	3,77775	54,4716	0,185	75,519	3,5	1007,08	6,6	8,7	8,4	1	1	1	1	1	1	1	1	1	0	1	-52,995067	273,940942	266,313698	0
14.01.2021	22:57:25	0	0	3,05053	3,8625	52,8732	0,191	75,54	3,5	1007,1	6,6	8,7	8,4	1	1	1	1	1	1	1	1	1	0	1	-54,474982	274,031438	265,255924	0
14.01.2021	22:57:26	0	0	3,728426	3,84	57,7224	0,186	75,534	3,5	1007,2	6,6	8,6	8,4	1	1	1	1	1	1	1	1	1	0	1	-50,317125	273,87888	268,702375	0
14.01.2021	22:57:27	0	0	4,293339	3,78	59,5008	0,189	75,572	3,5	1007,14	6,6	8,7	8,4	1	1	1	1	1	1	1	1	1	0	1	-51,444679	273,883306	267,595445	0
14.01.2021	22:57:28	0	0	3,728403	3,75375	59,094	0,184	75,592	3,5	1007,06	6,6	8,7	8,5	1	1	1	1	1	1	1	1	1	0	1	-52,924595	274,000236	266,660713	0
14.01.2021	22:57:29	0	0	5,084156	3,642	74,5488	0,182	75,624	3,5	1007,12	6,6	8,6	8,6	1	1	1	1	1	1	1	1	1	0	1	-52,360817	273,896591	266,741214	0
14.01.2021	22:57:30	0	0	5,084186	3,834	70,596	0,192	75,635	3,5	1007,14	6,6	8,7	8,5	1	1	1	1	1	1	1	1	1	0	1	-48,907681	274,00469	270,698409	0
14.01.2021	22:57:31	0	0	3,502419	4,065	69,1524	0,187	75,647	3,5	1007,14	6,6	8,6	8,6	1	1	1	1	1	1	1	1	1	0	1	-49,048626	274,031438	270,682281	0
14.01.2021	22:57:32	0	0	4,067349	4,13025	62,784	0,186	75,661	3,5	1007,1	6,6	8,7	8,5	1	1	1	1	1	1	1	1	1	0	1	-51,937984	273,911364	267,232894	0
14.01.2021	22:57:33	0	0	2,711582	4,07475	76,0032	0,188	75,683	3,5	1007,32	6,6	8,7	8,4	1	1	1	1	1	1	1	1	1	0	1	-48,484848	274,019546	271,190558	0
14.01.2021	22:57:34	0	0	2,824565	4,251	73,0476	0,187	75,681	3,5	1007,14	6,6	8,6	8,4	1	1	1	1	1	1	1	1	1	0	1	-54,545455	273,868555	264,425944	0
14.01.2021	22:57:35	0	0	3,954367	4,12875	69,8508	0,189	75,698	3,5	1007,1	6,6	8,7	8,5	1	1	1	1	1	1	1	1	1	0	1	-52,78365	273,883306	266,256474	0
14.01.2021	22:57:36	0	0	3,163494	3,82725	54,7848	0,185	75,7	3,5	1007,04	6,6	8,6	8,5	1	1	1	1	1	1	1	1	1	0	1	-57,505285	273,896591	261,596747	0
14.01.2021	22:57:37	0	0	3,615421	3,55275	58,4928	0,188	75,705	3,5	1007,16	6,6	8,7	8,5	1	1	1	1	1	1	1	1	1	0	1	-52,290345	274,028464	267,426683	0
14.01.2021	22:57:38	0	0	3,05053	3,3495	56,3004	0,187	75,725	3,5	1007,2	6,6	8,6	8,4	1	1	1	1	1	1	1	1	1	0	1	-55,532065	273,849396	263,350086	0
14.01.2021	22:57:39	0	0	2,259638	3,1665	51,0588	0,187	75,745	3,5	1007,16	6,6	8,7	8,5	1	1	1	1	1	1	1	1	1	0	1	-50,599013	273,979462	268,889387	0
14.01.2021	22:57:40	0	0	3,050512	2,9835	44,1252	0,187	75,751	3,5	1007,2	6,6	8,7	8,5	1	1	1	1	1	1	1	1	1	0	1	-53,911205	274,04185	265,868298	0
14.01.2021	22:57:41	0	0	3,954367	2,8215	57,4956	0,187	75,756	3,5	1007,08	6,6	8,7	8,5	1	1	1	1	1	1	1	1	1	0	1	-52,501762	273,911364	266,669117	0
14.01.2021	22:57:42	0	0	4,632259	2,9685	50,2812	0,187	75,772	3,5	1007,08	6,6	8,7	8,5	1	1	1	1	1	1	1	1	1	0	1	-53,136011	274,022518	266,553267	0
14.01.2021	22:57:43	0	0	4,067349	3,14175	59,8536	0,188	75,798	3,5	1007,22	6,6	8,7	8,5	1	1	1	1	1	1	1	1	1	0	1	-55,461593	273,926147	263,778197	0
14.01.2021	22:57:44	0	0	4,406295	3,25125	55,6524	0,185	75,812	3,5	1007	6,6	8,7	8,5	1	1	1	1	1	1	1	1	1	0	1	-50,599013	274,049291	269,215221	0
14.01.2021	22:57:45	0	0	5,31015	3,36975	36,9324	0,186	75,821	3,5	1007,12	6,6	8,7	8,5	1	1	1	1	1	1	1	1	1	0	1	-51,867512	273,988363	267,662405	0
14.01.2021	22:57:46	0	0	4,632259	3,37425	60,2352	0,189	75,842	3,5	1007,3	6,6	8,7	8,5	1	1	1	1	1	1	1	1	1	0	1	-53,347428	273,995783	266,217104	0
14.01.2021	22:57:47	0	0	4,067349	2,9715	62,4204	0,186	75,843	3,5	1007,06	6,6	8,6	8,5	1	1	1	1	1	1	1	1	1	0	1	-53,488372	274,0359	266,263358	0
14.01.2021	22:57:48	0	0	4,293313	2,93925	69,1524	0,182	75,852	3,5	1007,14	6,6	8,7	8,5	1	1	1	1	1	1	1	1	1	0	1	-50,387597	273,936503	268,900469	0
14.01.2021	22:57:49	0	0	2,259638	2,88075	47,736	0,187	75,874	3,5	1007,2	6,6	8,6	8,5	1	1	1	1	1	1	1	1	1	0	1	-52,78365	273,88921	266,283982	0
14.01.2021	22:57:50	0	0	3,728426	2,81475	62,0172	0,185	75,883	3,5	1007,12	6,6	8,6	8,4	1	1	1	1	1	1	1	1	1	0	1	-53,770261	273,958711	265,621359	0
14.01.2021	22:57:51	0	0	4,067325	2,724	66,5424	0,185	75,901	3,5	1007,08	6,6	8,7	8,6	1	1	1	1	1	1	1	1	1	0	1	-50,17618	274,049291	269,638054	0
14.01.2021	22:57:52	0	0	3,841385	2,5755	68,1048	0,185	75,915	3,5	1007,12	6,6	8,6	8,5	1	1	1	1	1	1	1	1	1	0	1	-51,79704	273,915798	267,394505	0
14.01.2021	22:57:53	0	0	4,632259	2,619	63,1692	0,191	75,924	3,5	1007,1	6,6	8,6	8,5	1	1	1	1	1	1	1	1	1	0	1	-49,82382	273,872979	269,16819	0
14.01.2021	22:57:54	0	0	3,728403	2,81325	61,6752	0,188	75,923	3,5	1007,14	6,6	8,7	8,5	1	1	1	1	1	1	1	1	1	0	1	-50,81043	273,995783	268,754102	0
14.01.2021	22:57:55	0	0	4,180331	2,73825	56,2968	0,189	75,928	3,5	1007,24	6,6	8,7	8,5	1	1	1	1	1	1	1	1	1	0	1	-51,937984	273,881831	267,095264	0
14.01.2021	22:57:56	0	0	3,841408	2,78925	57,7224	0,184	75,939	3,5	1007,16	6,6	8,7	8,4	1	1	1	1	1	1	1	1	1	0	1	-54,40451	273,935023	264,876657	0
14.01.2021	22:57:57	0	0	2,711566	2,94225	47,3688	0,194	75,962	3,5	1007,16	6,6	8,6	8,5	1	1	1	1	1	1	1	1	1	0	1	-56,307259	273,892162	262,774132	0
14.01.2021	22:57:58	0	0	3,276476	3,123	58,4928	0,194	75,977	3,5	1007,06	6,6	8,6	8,5	1	1	1	1	1	1	1	1	1	0	1	-50,317125	274,009146	269,309754	0
14.01.2021	22:57:59	0	0	4,519304	3,447	62,0424	0,196	75,964	3,5	1007,28	6,6	8,7	8,4	1	1	1	1	1	1	1	1	1	0	1	-52,43129	274,06716	267,466366	0
14.01.2021	22:58:00	0	0	2,711566	3,39825	52,8948	0,193	75,949	3,5	1007,16	6,6	8,6	8,5	1	1	1	1	1	1	1	1	1	0	1	-54,40451	274,049291	265,409724	0
14.01.2021	22:58:01	0	0	2,711566	3,39825	52,8948	0,193	75,949	3,5	1007,16	6,6	8,6	8,5	1	1	1	1	1	1	1	1	1	0	1	-54,40451	274,049291	265,409724	0
14.01.2021	22:58:02	0	0	3,954344	3,285	63,468	0,193	75,949	3,5	1007,08	6,6	8,6	8,6	1	1	1	1	1	1	1	1	1	0	1	-52,501762	273,924668	266,731134	0
14.01.2021	22:58:03	0	0	2,93753	3,13725	65,2032	0,197	75,958	3,5	1006,98	6,6	8,7	8,5	1	1	1	1	1	1	1	1	1	0	1	-55,743481	273,927626	263,503203	0
14.01.2021	22:58:04	0	0	4,971234	3,2415	55,9476	0,197	75,937	3,5	1007,1	6,6	8,7	8,4	1	1	1	1	1	1	1	1	1	0	1	-51,867512	274,038875	267,898103	0
14.01.2021	22:58:05	0	0	2,598584	3,3105	54,4752	0,205	75,936	3,5	1007,16	6,6	8,7	8,5	1	1	1	1	1	1	1	1	1	0	1	-52,008457	273,887734	267,052298	0
14.01.2021	22:58:06	0	0	3,841385	3,09225	48,1068	0,2	75,922	3,5	1007,06	6,6	8,6	8,5	1	1	1	1	1	1	1	1	1	0	1	-50,599013	273,945383	268,730456	0
14.01.2021	22:58:07	0	0	3,615443	2,952	47,7684	0,197	75,903	3,5	1007,1	6,6	8,7	8,4	1	1	1	1	1	1	1	1	1	0	1	-51,374207	274,056734	268,474775	0
14.01.2021	22:58:08	0	0	4,180331	2,7015	55,566	0,196	75,896	3,5	1006,96	6,6	8,7	8,5	1	1	1	1	1	1	1	1	1	0	1	-50,17618	273,921711	269,042929	0
14.01.2021	22:58:09	0	0	4,745241	2,592	53,3448	0,199	75,889	3,5	1007,16	6,6	8,6	8,5	1	1	1	1	1	1	1	1	1	0	1	-50,246653	274,021032	269,43569	0
14.01.2021	22:58:10	0	0	2,93753	2,69475	54,4752	0,2	75,884	3,5	1007,16	6,6	8,7	8,5	1	1	1	1	1	1	1	1	1	0	1	-55,461593	274,022518	264,227685	0
14.01.2021	22:58:11	0	0	2,937512	2,71725	57,7152	0,205	75,867	3,5	1006,96	6,6	8,6	8,6	1	1	1	1	1	1	1	1	1	0	1	-55,109232	274,07312	264,816252	0
14.01.2021	22:58:12	0	0	3,615443	2,70075	62,4096	0,199	75,853	3,5	1007,08	6,6	8,6	8,4	1	1	1	1	1	1	1	1	1	0	1	-52,995067	274,021032	266,687275	0
14.01.2021	22:58:13	0	0	2,824548	2,619	64,2384	0,205	75,85	3,5	1007,22	6,6	8,6	8,5	1	1	1	1	1	1	1	1	1	0	1	-51,867512	274,07163	268,051013	0
14.01.2021	22:58:14	0	0	4,971205	2,6685	74,5416	0,205	75,847	3,5	1007,14	6,6	8,6	8,5	1	1	1	1	1	1	1	1	1	0	1	-53,981677	274,025491	265,721474	0
14.01.2021	22:58:15	0	0	4,406295	2,86125	71,5932	0,204	75,839	3,5	1007,12	6,6	8,6	8,5	1	1	1	1	1	1	1	1	1	0	1	-51,937984	273,898068	267,170929	0
14.01.2021	22:58:16	0	0	3,276476	2,8365	69,156	0,207	75,831	3,5	1007,1	6,6	8,7	8,5	1	1	1	1	1	1	1	1	1	0	1	-50,458069	273,96612	268,968101	0
14.01.2021	22:58:17	0	0	2,824565	2,75325	75,996	0,198	75,813	3,5	1007,06	6,6	8,7	8,4	1	1	1	1	1	1	1	1	1	0	1	-54,263566	273,899545	264,85223	0
14.01.2021	22:58:18	0	0	4,519277	2,6745	62,1288	0,207	75,802	3,5	1007,08	6,6	8,6	8,5	1	1	1	1	1	1	1	1	1	0	1	-52,713178	274,032925	267,024669	0
14.01.2021	22:58:19	0	0	2,937548	2,58375	83,376	0,204	75,774	3,5	1007,28	6,6	8,6	8,4	1	1	1	1	1	1	1	1	1	0	1	-55,03876	274,012117	264,601981	0
14.01.2021	22:58:20	0	0	3,276476	2,4315	59,49	0,208	75,783	3,5	1007,08	6,6	8,6	8,5	1	1	1	1	1	1	1	1	1	0	1	-52,219873	274,07163	267,698653	0
14.01.2021	22:58:21	0	0	4,406321	2,68425	62,8056	0,205	75,757	3,5	1007,08	6,6	8,7	8,4	1	1	1	1	1	1	1	1	1	0	1	-58,703312	274,06716	261,194344	0
14.01.2021	22:58:22	0	0	5,197168	2,925	63,8748	0,205	75,745	3,5	1006,96	6,6	8,6	8,5	1	1	1	1	1	1	1	1	1	0	1	-54,615927	274,043338	265,170522	0
14.01.2021	22:58:23	0	0	3,50244	3,192	62,7948	0,206	75,743	3,5	1006,98	6,6	8,6	8,5	1	1	1	1	1	1	1	1	1	0	1	-54,545455	273,954267	264,825443	0
14.01.2021	22:58:24	0	0	5,084217	3,38625	65,844	0,206	75,747	3,5	1007,12	6,6	8,7	8,4	1	1	1	1	1	1	1	1	1	0	1	-54,827343	274,077591	265,119018	0
14.01.2021	22:58:25	0	0	4,745241	3,44025	71,2152	0,212	75,738	3,5	1007,12	6,6	8,6	8,5	1	1	1	1	1	1	1	1	1	0	1	-54,615927	274,028464	265,101101	0
14.01.2021	22:58:26	0	0	3,50244	3,4245	71,2296	0,213	75,761	3,5	1007,06	6,6	8,7	8,5	1	1	1	1	1	1	1	1	1	0	1	-52,995067	273,91432	266,189589	0
14.01.2021	22:58:27	0	0	4,067325	3,4725	74,5272	0,202	75,723	3,5	1007,08	6,6	8,7	8,6	1	1	1	1	1	1	1	1	1	0	1	-52,149401	273,936503	267,138664	0
14.01.2021	22:58:28	0	0	3,276495	3,378	63,1656	0,204	75,731	3,5	1007,06	6,6	8,7	8,4	1	1	1	1	1	1	1	1	1	0	1	-53,136011	274,076101	266,80339	0
14.01.2021	22:58:29	0	0	4,858252	3,1785	73,4256	0,211	75,731	3,5	1007,1	6,6	8,6	8,4	1	1	1	1	1	1	1	1	1	0	1	-54,615927	274,038875	265,149689	0
14.01.2021	22:58:30	0	0	4,293339	3,17175	59,8572	0,203	75,729	3,5	1007,06	6,6	8,6	8,4	1	1	1	1	1	1	1	1	1	0	1	-55,03876	274,025491	264,664392	0
14.01.2021	22:58:31	0	0	2,598584	3,0525	64,602	0,21	75,711	3,5	1007,14	6,6	8,7	8,5	1	1	1	1	1	1	1	1	1	0	1	-55,391121	274,088029	264,603979	0
14.01.2021	22:58:32	0	0	3,841362	3,14325	57,0096	0,207	75,701	3,5	1007,14	6,6	8,6	8,6	1	1	1	1	1	1	1	1	1	0	1	-50,317125	274,025491	269,386027	0
14.01.2021	22:58:33	0	0	5,197168	3,01875	48,8196	0,208	75,713	3,5	1007,1	6,6	8,6	8,5	1	1	1	1	1	1	1	1	1	0	1	-54,052149	274,050779	265,769033	0
14.01.2021	22:58:34	0	0	4,406321	3,01725	71,2224	0,207	75,699	3,5	1007,14	6,6	8,6	8,4	1	1	1	1	1	1	1	1	1	0	1	-50,81043	273,903976	268,326018	0
14.01.2021	22:58:35	0	0	3,728426	3,23175	60,9156	0,208	75,687	3,5	1007,06	6,6	8,6	8,4	1	1	1	1	1	1	1	1	1	0	1	-53,981677	273,960193	265,416851	0
14.01.2021	22:58:36	0	0	4,180356	3,31125	90,3852	0,213	75,696	3,5	1007,14	6,6	8,7	8,4	1	1	1	1	1	1	1	1	1	0	1	-53,276956	273,915798	265,91459	0
14.01.2021	22:58:37	0	0	3,615421	3,1335	68,3892	0,212	75,678	3,5	1007,12	6,6	8,6	8,5	1	1	1	1	1	1	1	1	1	0	1	-55,250176	273,96612	264,175994	0
14.01.2021	22:58:38	0	0	3,50244	2,94975	62,406	0,216	75,68	3,5	1007,16	6,6	8,7	8,5	1	1	1	1	1	1	1	1	1	0	1	-50,317125	274,079082	269,636197	0
14.01.2021	22:58:39	0	0	4,406295	2,9025	52,128	0,215	75,688	3,5	1007,2	6,6	8,6	8,5	1	1	1	1	1	1	1	1	1	0	1	-57,998591	274,01806	261,669882	0
14.01.2021	22:58:40	0	0	4,180356	2,79075	52,1352	0,22	75,668	3,5	1007,04	6,6	8,6	8,4	1	1	1	1	1	1	1	1	1	0	1	-53,629316	273,918754	265,57601	0
14.01.2021	22:58:41	0	0	4,406295	2,73975	52,128	0,209	75,657	3,5	1007,14	6,6	8,6	8,5	1	1	1	1	1	1	1	1	1	0	1	-52,78365	274,000236	266,801658	0
14.01.2021	22:58:42	0	0	4,632287	2,70375	57,06	0,209	75,648	3,5	1007,14	6,6	8,7	8,4	1	1	1	1	1	1	1	1	1	0	1	-51,374207	273,911364	267,796672	0
14.01.2021	22:58:43	0	0	3,389478	2,637	44,046	0,213	75,666	3,5	1007,1	6,6	8,6	8,4	1	1	1	1	1	1	1	1	1	0	1	-54,263566	273,985395	265,25251	0
14.01.2021	22:58:44	0	0	2,598584	2,61675	69,4548	0,214	75,643	3,5	1007,16	6,6	8,7	8,5	1	1	1	1	1	1	1	1	1	0	1	-54,122622	273,911364	265,048257	0
14.01.2021	22:58:45	0	0	4,519304	2,7705	65,07	0,212	75,641	3,5	1007,06	6,6	8,6	8,4	1	1	1	1	1	1	1	1	1	0	1	-50,528541	273,970566	268,918366	0
14.01.2021	22:58:46	0	0	4,406268	2,99475	72,2952	0,218	75,644	3,5	1007,2	6,6	8,7	8,6	1	1	1	1	1	1	1	1	1	0	1	-54,40451	274,102948	265,66027	0
14.01.2021	22:58:47	0	0	4,858252	3,36675	62,4204	0,219	75,627	3,5	1007,14	6,6	8,6	8,4	1	1	1	1	1	1	1	1	1	0	1	-53,4179	274,021032	266,264442	0
14.01.2021	22:58:48	0	0	4,632259	3,61425	56,2896	0,212	75,624	3,5	1007,12	6,6	8,6	8,5	1	1	1	1	1	1	1	1	1	0	1	-56,659619	274,101456	263,398189	0
14.01.2021	22:58:49	0	0	4,519277	3,59475	77,958	0,22	75,627	3,5	1007,1	6,6	8,7	8,5	1	1	1	1	1	1	1	1	1	0	1	-53,558844	274,028464	266,158184	0
14.01.2021	22:58:50	0	0	3,276495	4,0575	80,1648	0,215	75,639	3,5	1007,14	6,6	8,7	8,4	1	1	1	1	1	1	1	1	1	0	1	-54,052149	273,909886	265,111842	0
14.01.2021	22:58:51	0	0	2,711566	4,19025	76,8132	0,217	75,635	3,5	1007,2	6,6	8,6	8,5	1	1	1	1	1	1	1	1	1	0	1	-55,320648	273,939462	263,981216	0
14.01.2021	22:58:52	0	0	4,519277	4,08525	75,978	0,215	75,63	3,5	1007,14	6,6	8,6	8,5	1	1	1	1	1	1	1	1	1	0	1	-54,193094	274,06865	265,711518	0
14.01.2021	22:58:53	0	0	5,084186	4,06575	83,3508	0,216	75,639	3,5	1007,12	6,6	8,7	8,5	1	1	1	1	1	1	1	1	1	0	1	-51,585624	274,028464	268,131404	0
14.01.2021	22:58:54	0	0	3,728426	3,8445	73,0584	0,218	75,621	3,5	1007,12	6,6	8,7	8,4	1	1	1	1	1	1	1	1	1	0	1	-50,387597	274,098471	269,656272	0
14.01.2021	22:58:55	0	0	4,971205	3,4395	70,2432	0,214	75,64	3,5	1007,16	6,6	8,7	8,5	1	1	1	1	1	1	1	1	1	0	1	-55,673009	274,047803	264,134278	0
14.01.2021	22:58:56	0	0	3,50244	3,23325	68,7708	0,221	75,634	3,5	1007,02	6,6	8,6	8,5	1	1	1	1	1	1	1	1	1	0	1	-54,897815	274,108919	265,194855	0
14.01.2021	22:58:57	0	0	3,389458	3,2715	95,1444	0,216	75,626	3,5	1007,18	6,6	8,7	8,5	1	1	1	1	1	1	1	1	1	0	1	-53,840733	273,982429	265,661504	0
14.01.2021	22:58:58	0	0	3,389458	3,47025	64,2384	0,221	75,633	3,5	1007,18	6,6	8,6	8,5	1	1	1	1	1	1	1	1	1	0	1	-52,290345	273,929105	266,963234	0
14.01.2021	22:58:59	0	0	4,858252	3,435	52,4952	0,214	75,639	3,5	1007,22	6,6	8,6	8,4	1	1	1	1	1	1	1	1	1	0	1	-51,515152	273,973531	267,945584	0
14.01.2021	22:59:00	0	0	1,807711	3,50325	59,8536	0,218	75,663	3,5	1007,24	6,6	8,6	8,5	1	1	1	1	1	1	1	1	1	0	1	-54,615927	273,980945	264,879392	0
14.01.2021	22:59:01	0	0	1,807711	3,50325	59,8536	0,218	75,663	3,5	1007,24	6,6	8,6	8,5	1	1	1	1	1	1	1	1	1	0	1	-54,615927	273,980945	264,879392	0
14.01.2021	22:59:02	0	0	2,37262	3,603	61,668	0,215	75,67	3,5	1007,16	6,6	8,6	8,5	1	1	1	1	1	1	1	1	1	0	1	-61,028894	274,101456	259,028915	0
14.01.2021	22:59:03	0	0	5,536081	3,492	74,5056	0,217	75,685	3,5	1007,16	6,6	8,6	8,6	1	1	1	1	1	1	1	1	1	0	1	-58,421424	274,046314	261,378917	0
14.01.2021	22:59:04	0	0	3,841385	3,1695	58,4712	0,216	75,69	3,5	1007,1	6,6	8,6	8,5	1	1	1	1	1	1	1	1	1	0	1	-52,008457	274,095487	268,021475	0
14.01.2021	22:59:05	0	0	4,406295	3,02475	69,8472	0,221	75,688	3,5	1007,2	6,6	8,6	8,5	1	1	1	1	1	1	1	1	1	0	1	-55,532065	273,972049	263,921757	0
14.01.2021	22:59:06	0	0	3,389458	2,89575	61,2972	0,221	75,695	3,5	1007,24	6,6	8,6	8,5	1	1	1	1	1	1	1	1	1	0	1	-54,756871	273,96612	264,669299	0
14.01.2021	22:59:07	0	0	3,615421	2,69625	76,3668	0,22	75,684	3,5	1007,2	6,6	8,6	8,5	1	1	1	1	1	1	1	1	1	0	1	-51,585624	274,096979	268,451276	0
14.01.2021	22:59:08	0	0	3,728403	2,46525	68,0076	0,223	75,693	3,5	1007,22	6,6	8,6	8,5	1	1	1	1	1	1	1	1	1	0	1	-52,501762	274,092503	267,514235	0
14.01.2021	22:59:09	0	0	3,05053	2,30775	77,5908	0,215	75,67	3,5	1007,02	6,6	8,6	8,4	1	1	1	1	1	1	1	1	1	0	1	-53,136011	273,95723	266,2487	0
14.01.2021	22:59:10	0	0	4,406295	2,23725	67,2912	0,225	75,679	3,5	1007,2	6,6	8,6	8,5	1	1	1	1	1	1	1	1	1	0	1	-51,867512	274,102948	268,197268	0
14.01.2021	22:59:11	0	0	3,841385	2,112	74,5272	0,225	75,68	3,5	1007,26	6,6	8,6	8,5	1	1	1	1	1	1	1	1	1	0	1	-50,528541	273,960193	268,869987	0
14.01.2021	22:59:12	0	0	4,858223	2,01825	70,9272	0,226	75,669	3,5	1007,2	6,6	8,6	8,5	1	1	1	1	1	1	1	1	1	0	1	-54,615927	274,104441	265,455825	0
14.01.2021	22:59:13	0	0	3,163494	1,95225	48,1248	0,228	75,655	3,5	1007,24	6,7	8,6	8,5	1	1	1	1	1	1	1	1	1	0	1	-54,756871	274,009146	264,870008	0
14.01.2021	22:59:14	0	0	2,824565	2,03625	60,9516	0,224	75,645	3,5	1007,12	6,6	8,6	8,4	1	1	1	1	1	1	1	1	1	0	1	-57,787174	274,105934	262,29155	0
14.01.2021	22:59:15	0	0	4,632259	2,091	63,5076	0,224	75,644	3,5	1007,18	6,6	8,6	8,5	1	1	1	1	1	1	1	1	1	0	1	-50,317125	274,032925	269,420723	0
14.01.2021	22:59:16	0	0	4,406295	2,24325	65,0844	0,222	75,632	3,5	1007,14	6,6	8,6	8,5	1	1	1	1	1	1	1	1	1	0	1	-55,954898	273,933543	263,319371	0
14.01.2021	22:59:17	0	0	2,824548	2,32125	64,6344	0,221	75,627	3,5	1007,18	6,6	8,6	8,5	1	1	1	1	1	1	1	1	1	0	1	-52,360817	274,059713	267,502068	0
14.01.2021	22:59:18	0	0	4,406295	2,265	65,4768	0,228	75,613	3,5	1007,22	6,6	8,6	8,5	1	1	1	1	1	1	1	1	1	0	1	-53,4179	273,92319	265,808102	0
14.01.2021	22:59:19	0	0	4,293339	2,2605	54,1224	0,228	75,611	3,5	1007,2	6,6	8,6	8,4	1	1	1	1	1	1	1	1	1	0	1	-54,686399	274,061202	265,183439	0
14.01.2021	22:59:20	0	0	3,50244	2,298	56,2752	0,226	75,587	3,5	1007,14	6,6	8,6	8,5	1	1	1	1	1	1	1	1	1	0	1	-53,065539	273,936503	266,222526	0
14.01.2021	22:59:21	0	0	4,745269	2,40825	67,6872	0,228	75,587	3,5	1007,16	6,6	8,6	8,4	1	1	1	1	1	1	1	1	1	0	1	-52,078929	274,009146	267,54795	0
14.01.2021	22:59:22	0	0	4,293339	2,58225	80,9172	0,229	75,557	3,5	1006,92	6,6	8,6	8,4	1	1	1	1	1	1	1	1	1	0	1	-55,03876	273,933543	264,23551	0
14.01.2021	22:59:23	0	0	2,824548	2,847	68,0184	0,229	75,565	3,5	1007,1	6,6	8,6	8,5	1	1	1	1	1	1	1	1	1	0	1	-55,673009	273,995783	263,891522	0
14.01.2021	22:59:24	0	0	3,389478	2,71425	63,162	0,223	75,546	3,5	1007,06	6,6	8,7	8,4	1	1	1	1	1	1	1	1	1	0	1	-56,448203	273,936503	262,839863	0
14.01.2021	22:59:25	0	0	2,711582	2,72625	77,5656	0,223	75,548	3,5	1007,2	6,6	8,6	8,4	1	1	1	1	1	1	1	1	1	0	1	-50,387597	274,025491	269,315555	0
14.01.2021	22:59:26	0	0	2,5986	2,8965	70,8768	0,234	75,536	3,5	1007,22	6,6	8,6	8,4	1	1	1	1	1	1	1	1	1	0	1	-52,360817	274,108919	267,731853	0
14.01.2021	22:59:27	0	0	3,615443	3,003	71,2296	0,226	75,531	3,5	1007,12	6,6	8,7	8,4	1	1	1	1	1	1	1	1	1	0	1	-57,082452	274,029951	262,641515	0
14.01.2021	22:59:28	0	0	2,824548	3,1005	59,8536	0,229	75,513	3,5	1007,2	6,6	8,6	8,5	1	1	1	1	1	1	1	1	1	0	1	-57,575758	274,107427	262,509939	0
14.01.2021	22:59:29	0	0	3,502419	3,069	70,218	0,227	75,514	3,5	1007,1	6,6	8,6	8,6	1	1	1	1	1	1	1	1	1	0	1	-52,008457	274,07014	267,903112	0
14.01.2021	22:59:30	0	0	3,615443	3,01725	85,5324	0,228	75,52	3,5	1007,1	6,6	8,7	8,4	1	1	1	1	1	1	1	1	1	0	1	-54,615927	274,114893	265,504645	0
14.01.2021	22:59:31	0	0	3,954391	3,23625	81,6768	0,225	75,51	3,5	1007,2	6,6	8,6	8,4	1	1	1	1	1	1	1	1	1	0	1	-52,43129	274,013602	267,216383	0
14.01.2021	22:59:32	0	0	2,146656	3,34875	73,0512	0,231	75,494	3,5	1007,06	6,6	8,6	8,5	1	1	1	1	1	1	1	1	1	0	1	-56,095842	274,11788	264,038684	0
14.01.2021	22:59:33	0	0	3,615421	3,31275	73,0584	0,231	75,514	3,5	1007,14	6,7	8,6	8,5	1	1	1	1	1	1	1	1	1	0	1	-53,4179	274,009146	266,208979	0
14.01.2021	22:59:34	0	0	2,146656	3,52575	63,4896	0,23	75,516	3,5	1007,12	6,6	8,6	8,5	1	1	1	1	1	1	1	1	1	0	1	-57,434813	274,111906	262,671806	0
14.01.2021	22:59:35	0	0	4,180331	3,51675	62,0316	0,228	75,528	3,5	1007,08	6,6	8,6	8,5	1	1	1	1	1	1	1	1	1	0	1	-54,968288	273,997267	264,603169	0
14.01.2021	22:59:36	0	0	4,293313	3,4845	64,2384	0,222	75,542	3,5	1007,16	6,6	8,6	8,5	1	1	1	1	1	1	1	1	1	0	1	-54,827343	273,982429	264,674894	0
14.01.2021	22:59:37	0	0	2,711582	3,312	62,4168	0,227	75,542	3,5	1007,24	6,6	8,6	8,4	1	1	1	1	1	1	1	1	1	0	1	-52,78365	273,970566	266,663257	0
14.01.2021	22:59:38	0	0	4,519277	3,25275	62,4096	0,227	75,526	3,5	1007,2	6,6	8,7	8,5	1	1	1	1	1	1	1	1	1	0	1	-51,726568	273,939462	267,575296	0
14.01.2021	22:59:39	0	0	4,745212	3,249	59,868	0,229	75,55	3,5	1007,22	6,6	8,6	8,6	1	1	1	1	1	1	1	1	1	0	1	-57,364341	274,0359	262,387389	0
14.01.2021	22:59:40	0	0	2,71155	3,18375	64,62	0,217	75,537	3,5	1007,06	6,6	8,6	8,6	1	1	1	1	1	1	1	1	1	0	1	-57,364341	273,972049	262,08948	0
14.01.2021	22:59:41	0	0	2,93753	3,294	64,5984	0,235	75,521	3,5	1007,06	6,6	8,7	8,5	1	1	1	1	1	1	1	1	1	0	1	-55,320648	273,980945	264,17467	0
14.01.2021	22:59:42	0	0	3,502461	3,3915	62,4312	0,23	75,524	3,5	1007,18	6,6	8,6	8,4	1	1	1	1	1	1	1	1	1	0	1	-54,545455	274,119373	265,59605	0
14.01.2021	22:59:43	0	0	4,632287	3,351	63,8712	0,23	75,496	3,5	1007,34	6,6	8,6	8,4	1	1	1	1	1	1	1	1	1	0	1	-55,109232	274,116386	265,018317	0
14.01.2021	22:59:44	0	0	2,71155	3,31875	62,0568	0,227	75,516	3,5	1007,12	6,6	8,6	8,6	1	1	1	1	1	1	1	1	1	0	1	-56,166314	273,949825	263,183866	0
14.01.2021	22:59:45	0	0	4,180306	3,21225	62,0712	0,226	75,488	3,5	1007,24	6,6	8,6	8,6	1	1	1	1	1	1	1	1	1	0	1	-52,78365	273,979462	266,70475	0
14.01.2021	22:59:46	0	0	3,50244	3,204	61,776	0,23	75,478	3,5	1007,16	6,6	8,7	8,5	1	1	1	1	1	1	1	1	1	0	1	-49,753347	274,11788	270,381178	0
14.01.2021	22:59:47	0	0	3,728403	3,216	77,1948	0,228	75,474	3,5	1007,04	6,6	8,6	8,5	1	1	1	1	1	1	1	1	1	0	1	-54,193094	273,994298	265,364514	0
14.01.2021	22:59:48	0	0	3,389458	3,12975	61,4088	0,226	75,465	3,5	1006,94	6,6	8,6	8,5	1	1	1	1	1	1	1	1	1	0	1	-54,334038	273,948344	265,009238	0
14.01.2021	22:59:49	0	0	4,632287	3,00825	63,4248	0,231	75,459	3,5	1007,08	6,7	8,6	8,4	1	1	1	1	1	1	1	1	1	0	1	-53,136011	273,975014	266,33164	0
14.01.2021	22:59:50	0	0	3,728426	3,03825	57,7476	0,232	75,461	3,5	1007,12	6,6	8,6	8,4	1	1	1	1	1	1	1	1	1	0	1	-55,461593	273,951305	263,895493	0
14.01.2021	22:59:51	0	0	4,632287	3,0945	63,8676	0,233	75,455	3,5	1007,26	6,6	8,6	8,4	1	1	1	1	1	1	1	1	1	0	1	-55,532065	274,088029	264,463034	0
14.01.2021	22:59:52	0	0	3,954367	3,17475	67,3092	0,231	75,437	3,5	1007,08	6,7	8,6	8,5	1	1	1	1	1	1	1	1	1	0	1	-56,166314	273,983912	263,342841	0
14.01.2021	22:59:53	0	0	4,293313	3,1245	69,4908	0,234	75,449	3,5	1007,16	6,6	8,6	8,5	1	1	1	1	1	1	1	1	1	0	1	-50,81043	273,951305	268,546656	0
14.01.2021	22:59:54	0	0	2,824548	3,12	67,6728	0,234	75,45	3,5	1007,18	6,6	8,6	8,5	1	1	1	1	1	1	1	1	1	0	1	-55,954898	273,985395	263,561178	0
14.01.2021	22:59:55	0	0	4,293313	3,243	71,2476	0,229	75,45	3,5	1007,14	6,6	8,6	8,5	1	1	1	1	1	1	1	1	1	0	1	-55,179704	274,061202	264,690134	0
14.01.2021	22:59:56	0	0	3,728381	3,51375	72,0612	0,234	75,454	3,5	1007,06	6,7	8,6	8,6	1	1	1	1	1	1	1	1	1	0	1	-55,179704	274,119373	264,9618	0
14.01.2021	22:59:57	0	0	4,858252	3,7545	69,1596	0,232	75,45	3,5	1007,16	6,6	8,6	8,4	1	1	1	1	1	1	1	1	1	0	1	-53,770261	274,058223	266,085673	0
14.01.2021	22:59:58	0	0	3,163475	3,948	65,5056	0,233	75,457	3,5	1007,16	6,7	8,6	8,6	1	1	1	1	1	1	1	1	1	0	1	-47,427766	273,948344	271,91551	0
14.01.2021	22:59:59	0	0	3,615421	4,13025	68,8032	0,234	75,445	3,5	1007,16	6,6	8,6	8,5	1	1	1	1	1	1	1	1	1	0	1	-54,686399	274,055245	265,155632	0
14.01.2021	23:00:00	0	0	4,180331	4,25325	69,156	0,233	75,441	3,5	1006,98	6,6	8,6	8,5	1	1	1	1	1	1	1	1	1	0	1	-51,092319	274,083555	268,881889	0
14.01.2021	23:00:01	0	0	4,180331	4,25325	69,156	0,233	75,441	3,5	1006,98	6,6	8,6	8,5	1	1	1	1	1	1	1	1	1	0	1	-51,092319	274,083555	268,881889	0
14.01.2021	23:00:02	0	0	2,5986	4,2045	68,022	0,225	75,469	3,5	1007,08	6,7	8,6	8,4	1	1	1	1	1	1	1	1	1	0	1	-51,233263	274,093995	268,789701	0
14.01.2021	23:00:03	0	0	3,163475	4,1415	68,3964	0,232	75,463	3,5	1007,28	6,6	8,6	8,6	1	1	1	1	1	1	1	1	1	0	1	-48,625793	273,933543	270,648476	0
14.01.2021	23:00:04	0	0	4,632259	3,92325	66,2436	0,23	75,471	3,5	1007,14	6,7	8,6	8,5	1	1	1	1	1	1	1	1	1	0	1	-58,63284	273,979462	260,855561	0
14.01.2021	23:00:05	0	0	3,615421	3,81675	54,8136	0,233	75,489	3,5	1007,12	6,6	8,6	8,5	1	1	1	1	1	1	1	1	1	0	1	-49,612403	274,11788	270,522123	0
14.01.2021	23:00:06	0	0	4,971205	3,62625	58,4856	0,235	75,486	3,5	1007,08	6,6	8,6	8,5	1	1	1	1	1	1	1	1	1	0	1	-55,532065	274,077591	264,414297	0
14.01.2021	23:00:07	0	0	2,824531	3,51375	50,0544	0,235	75,485	3,5	1007,2	6,6	8,6	8,6	1	1	1	1	1	1	1	1	1	0	1	-54,40451	274,104441	265,667241	0
14.01.2021	23:00:08	0	0	2,937512	3,303	47,358	0,235	75,486	3,5	1007,14	6,6	8,6	8,6	1	1	1	1	1	1	1	1	1	0	1	-56,02537	274,111906	264,08125	0
14.01.2021	23:00:09	0	0	3,728403	3,2595	82,6128	0,232	75,486	3,5	1007,14	6,7	8,6	8,5	1	1	1	1	1	1	1	1	1	0	1	-57,293869	274,021032	262,388473	0
14.01.2021	23:00:10	0	0	3,163494	3,0405	71,6256	0,231	75,5	3,5	1007,02	6,7	8,6	8,5	1	1	1	1	1	1	1	1	1	0	1	-51,162791	274,11788	268,971735	0
14.01.2021	23:00:11	0	0	4,519277	2,99775	57,042	0,229	75,482	3,5	1007,18	6,7	8,6	8,5	1	1	1	1	1	1	1	1	1	0	1	-54,263566	273,933543	265,010703	0
14.01.2021	23:00:12	0	0	3,50244	3,09075	68,4468	0,23	75,474	3,5	1007,06	6,7	8,6	8,5	1	1	1	1	1	1	1	1	1	0	1	-55,884426	273,997267	263,687031	0
14.01.2021	23:00:13	0	0	3,841385	3,28575	66,9204	0,237	75,473	3,5	1007,2	6,6	8,6	8,5	1	1	1	1	1	1	1	1	1	0	1	-49,541931	273,969084	269,898063	0
14.01.2021	23:00:14	0	0	2,485617	3,4305	59,8608	0,233	75,457	3,5	1007,2	6,6	8,6	8,4	1	1	1	1	1	1	1	1	1	0	1	-54,052149	273,952786	265,311842	0
14.01.2021	23:00:15	0	0	5,1972	3,3765	65,844	0,234	75,436	3,5	1007,26	6,7	8,6	8,4	1	1	1	1	1	1	1	1	1	0	1	-52,078929	274,009146	267,54795	0
14.01.2021	23:00:16	0	0	3,954391	3,13875	68,0292	0,235	75,423	3,5	1007,06	6,6	8,6	8,4	1	1	1	1	1	1	1	1	1	0	1	-55,813953	273,954267	263,556944	0
14.01.2021	23:00:17	0	0	5,197137	2,9355	67,3056	0,23	75,412	3,5	1007,14	6,7	8,6	8,6	1	1	1	1	1	1	1	1	1	0	1	-54,193094	274,06567	265,697607	0
14.01.2021	23:00:18	0	0	3,615443	2,90625	62,802	0,233	75,418	3,5	1007,12	6,6	8,6	8,4	1	1	1	1	1	1	1	1	1	0	1	-53,065539	273,945383	266,263931	0
14.01.2021	23:00:19	0	0	3,50244	3,033	65,844	0,23	75,4	3,5	1007,16	6,6	8,6	8,5	1	1	1	1	1	1	1	1	1	0	1	-49,964764	274,126844	270,211641	0
14.01.2021	23:00:20	0	0	2,485602	3,26775	68,0364	0,229	75,39	3,5	1007,08	6,7	8,6	8,5	1	1	1	1	1	1	1	1	1	0	1	-56,871036	274,009146	262,755843	0
14.01.2021	23:00:21	0	0	4,745269	3,6255	70,596	0,238	75,372	3,5	1007,24	6,6	8,6	8,4	1	1	1	1	1	1	1	1	1	0	1	-59,408034	274,092503	260,607963	0
14.01.2021	23:00:22	0	0	2,37262	3,60225	62,0388	0,233	75,379	3,5	1007,14	6,6	8,7	8,5	1	1	1	1	1	1	1	1	1	0	1	-59,267089	274,00469	260,339001	0
14.01.2021	23:00:23	0	0	2,598584	3,645	65,4588	0,237	75,368	3,5	1006,98	6,6	8,6	8,5	1	1	1	1	1	1	1	1	1	0	1	-54,052149	274,119373	266,089355	0
14.01.2021	23:00:24	0	0	3,163494	3,59925	67,2804	0,231	75,379	3,5	1007,2	6,7	8,6	8,5	1	1	1	1	1	1	1	1	1	0	1	-54,052149	273,967602	265,380932	0
14.01.2021	23:00:25	0	0	2,93753	3,66225	65,088	0,234	75,378	3,5	1007,2	6,6	8,6	8,5	1	1	1	1	1	1	1	1	1	0	1	-57,223397	274,062691	262,653395	0
14.01.2021	23:00:26	0	0	4,293313	3,672	54,486	0,236	75,375	3,5	1007,14	6,6	8,6	8,5	1	1	1	1	1	1	1	1	1	0	1	-54,968288	274,134318	265,243035	0
14.01.2021	23:00:27	0	0	2,598584	3,53325	57,4128	0,232	75,376	3,5	1007,08	6,6	8,6	8,5	1	1	1	1	1	1	1	1	1	0	1	-51,867512	274,043338	267,918936	0
14.01.2021	23:00:28	0	0	3,050512	3,201	66,924	0,233	75,382	3,5	1007,12	6,6	8,6	8,5	1	1	1	1	1	1	1	1	1	0	1	-52,43129	274,123856	267,731153	0
14.01.2021	23:00:29	0	0	2,711582	2,92125	64,2528	0,235	75,373	3,5	1007,18	6,6	8,7	8,4	1	1	1	1	1	1	1	1	1	0	1	-51,374207	273,929105	267,879372	0
14.01.2021	23:00:30	0	0	4,406295	2,676	72,288	0,232	75,381	3,5	1007,26	6,6	8,6	8,5	1	1	1	1	1	1	1	1	1	0	1	-53,4179	274,026978	266,29219	0
14.01.2021	23:00:31	0	0	4,858252	2,5155	70,8696	0,234	75,372	3,5	1007,08	6,6	8,6	8,4	1	1	1	1	1	1	1	1	1	0	1	-55,461593	274,095487	264,568339	0
14.01.2021	23:00:32	0	0	2,37262	2,50875	65,0952	0,228	75,365	3,5	1007,02	6,6	8,6	8,5	1	1	1	1	1	1	1	1	1	0	1	-53,4179	273,940942	265,890865	0
14.01.2021	23:00:33	0	0	5,084186	2,54175	59,8464	0,234	75,362	3,5	1007,14	6,6	8,6	8,5	1	1	1	1	1	1	1	1	1	0	1	-58,63284	274,009146	260,994039	0
14.01.2021	23:00:34	0	0	4,519277	2,5395	68,7816	0,227	75,373	3,5	1007,16	6,7	8,6	8,5	1	1	1	1	1	1	1	1	1	0	1	-52,572234	274,123856	267,590209	0
14.01.2021	23:00:35	0	0	4,632259	2,5515	67,6692	0,237	75,387	3,5	1007,12	6,6	8,6	8,5	1	1	1	1	1	1	1	1	1	0	1	-55,602537	274,096979	264,434363	0
14.01.2021	23:00:36	0	0	4,858193	2,46375	65,844	0,227	75,369	3,5	1007,16	6,6	8,6	8,6	1	1	1	1	1	1	1	1	1	0	1	-54,334038	274,028464	265,38299	0
14.01.2021	23:00:37	0	0	4,406295	2,42175	60,2424	0,233	75,396	3,5	1007,18	6,6	8,6	8,5	1	1	1	1	1	1	1	1	1	0	1	-55,250176	274,11788	264,88435	0
14.01.2021	23:00:38	0	0	3,841408	2,48175	63,8748	0,236	75,393	3,5	1007,12	6,6	8,6	8,4	1	1	1	1	1	1	1	1	1	0	1	-56,095842	273,980945	263,399476	0
14.01.2021	23:00:39	0	0	4,51925	2,6115	54,5076	0,232	75,381	3,5	1007,2	6,6	8,6	8,6	1	1	1	1	1	1	1	1	1	0	1	-55,602537	273,933543	263,671732	0
14.01.2021	23:00:40	0	0	3,6154	2,616	60,5664	0,231	75,398	3,5	1007,14	6,6	8,6	8,6	1	1	1	1	1	1	1	1	1	0	1	-56,730092	273,946863	262,606281	0
14.01.2021	23:00:41	0	0	3,615421	2,586	61,308	0,232	75,385	3,5	1007	6,6	8,6	8,5	1	1	1	1	1	1	1	1	1	0	1	-54,545455	274,021032	265,136888	0
14.01.2021	23:00:42	0	0	4,406295	2,40375	58,8816	0,232	75,395	3,5	1007,14	6,6	8,6	8,5	1	1	1	1	1	1	1	1	1	0	1	-55,250176	273,969084	264,189818	0
14.01.2021	23:00:43	0	0	4,519277	2,38575	65,088	0,231	75,383	3,5	1007,04	6,6	8,6	8,5	1	1	1	1	1	1	1	1	1	0	1	-56,589147	274,135813	263,62916	0
14.01.2021	23:00:44	0	0	3,276476	2,34375	60,9156	0,229	75,362	3,5	1006,84	6,6	8,6	8,5	1	1	1	1	1	1	1	1	1	0	1	-54,827343	274,029951	264,896624	0
14.01.2021	23:00:45	0	0	3,841385	2,3985	55,9368	0,234	75,386	3,5	1007,14	6,7	8,6	8,5	1	1	1	1	1	1	1	1	1	0	1	-53,911205	274,111906	266,195415	0
14.01.2021	23:00:46	0	0	3,502461	2,637	54,1152	0,234	75,372	3,5	1007,04	6,6	8,6	8,4	1	1	1	1	1	1	1	1	1	0	1	-53,981677	274,116386	266,145871	0
14.01.2021	23:00:47	0	0	2,711566	2,682	61,686	0,232	75,366	3,5	1007,12	6,6	8,6	8,5	1	1	1	1	1	1	1	1	1	0	1	-58,63284	274,024005	261,063375	0
14.01.2021	23:00:48	0	0	4,180331	2,5545	54,8964	0,224	75,352	3,5	1007,06	6,6	8,6	8,5	1	1	1	1	1	1	1	1	1	0	1	-50,880902	273,958711	268,510717	0
14.01.2021	23:00:49	0	0	3,050512	2,4675	56,2752	0,228	75,36	3,5	1007,14	6,7	8,6	8,5	1	1	1	1	1	1	1	1	1	0	1	-53,629316	273,946863	265,707056	0
14.01.2021	23:00:50	0	0	3,163494	2,60025	66,2472	0,225	75,349	3,5	1007,18	6,6	8,6	8,5	1	1	1	1	1	1	1	1	1	0	1	-53,629316	274,034413	266,115472	0
14.01.2021	23:00:51	0	0	2,93753	2,814	58,1868	0,228	75,369	3,5	1006,96	6,6	8,6	8,5	1	1	1	1	1	1	1	1	1	0	1	-52,149401	273,948344	267,193875	0
14.01.2021	23:00:52	0	0	3,841385	2,99025	60,5628	0,23	75,347	3,5	1007,12	6,6	8,7	8,5	1	1	1	1	1	1	1	1	1	0	1	-56,659619	274,105934	263,419104	0
14.01.2021	23:00:53	0	0	2,71155	3,08775	61,6968	0,225	75,357	3,5	1007,16	6,6	8,8	8,6	1	1	1	1	1	1	1	1	1	0	1	-54,545455	274,015088	265,109151	0
14.01.2021	23:00:54	0	0	4,632259	2,889	63,468	0,225	75,349	3,5	1007,04	6,6	8,6	8,5	1	1	1	1	1	1	1	1	1	0	1	-50,387597	273,940942	268,921168	0
14.01.2021	23:00:55	0	0	4,067349	2,646	66,528	0,226	75,35	3,5	1007,18	6,7	8,6	8,5	1	1	1	1	1	1	1	1	1	0	1	-52,995067	273,992814	266,555617	0
14.01.2021	23:00:56	0	0	2,485587	2,385	63,5004	0,231	75,345	3,5	1007,18	6,6	8,6	8,6	1	1	1	1	1	1	1	1	1	0	1	-55,743481	274,119373	264,398023	0
14.01.2021	23:00:57	0	0	2,93753	2,2095	39,168	0,249	75,323	3,5	1007,36	6,6	8,6	8,5	1	1	1	1	1	1	1	1	1	0	1	-54,968288	273,970566	264,47862	0
14.01.2021	23:00:58	0	0	4,971205	2,1405	45,5328	0,229	75,322	3,5	1007,22	6,6	8,6	8,5	1	1	1	1	1	1	1	1	1	0	1	-53,629316	273,998751	265,949065	0
14.01.2021	23:00:59	0	0	2,93753	2,1195	41,4756	0,231	75,332	3,5	1007,14	6,6	8,6	8,5	1	1	1	1	1	1	1	1	1	0	1	-54,615927	273,933543	264,658342	0
14.01.2021	23:01:00	0	0	2,824548	2,20125	36,9288	0,229	75,336	3,5	1007,24	6,6	8,6	8,5	1	1	1	1	1	1	1	1	1	0	1	-51,303735	274,056734	268,545247	0
14.01.2021	23:01:01	0	0	4,632259	2,3145	50,3136	0,224	75,323	3,5	1007,22	6,6	8,6	8,5	1	1	1	1	1	1	1	1	1	0	1	-51,303735	274,056734	268,545247	0
14.01.2021	23:01:02	0	0	4,632259	2,3145	50,3136	0,224	75,323	3,5	1007,22	6,6	8,6	8,5	1	1	1	1	1	1	1	1	1	0	1	-51,374207	273,948344	267,969069	0
14.01.2021	23:01:03	0	0	2,824548	2,49675	45,2412	0,225	75,313	3,5	1007,3	6,6	8,6	8,5	1	1	1	1	1	1	1	1	1	0	1	-54,122622	273,988363	265,407295	0
14.01.2021	23:01:04	0	0	4,971205	2,646	41,868	0,231	75,324	3,5	1007,18	6,6	8,7	8,5	1	1	1	1	1	1	1	1	1	0	1	-52,149401	273,952786	267,21459	0
14.01.2021	23:01:05	0	0	4,519277	2,649	47,7504	0,227	75,32	3,5	1007,2	6,6	8,6	8,5	1	1	1	1	1	1	1	1	1	0	1	-55,03876	273,939462	264,263105	0
14.01.2021	23:01:06	0	0	4,293313	2,736	45,9468	0,23	75,315	3,5	1007,2	6,6	8,6	8,5	1	1	1	1	1	1	1	1	1	0	1	-56,941508	273,983912	262,567648	0
14.01.2021	23:01:07	0	0	2,711566	2,99325	44,388	0,227	75,334	3,5	1007,1	6,6	8,6	8,5	1	1	1	1	1	1	1	1	1	0	1	-54,193094	273,942422	265,122572	0
14.01.2021	23:01:08	0	0	2,485602	3,48525	51,7644	0,225	75,326	3,5	1006,94	6,6	8,6	8,5	1	1	1	1	1	1	1	1	1	0	1	-53,840733	273,976497	265,633834	0
14.01.2021	23:01:09	0	0	3,163494	3,891	44,064	0,23	75,324	3,5	1007,16	6,6	8,7	8,5	1	1	1	1	1	1	1	1	1	0	1	-54,334038	273,973531	265,126698	0
14.01.2021	23:01:10	0	0	3,728426	4,00425	44,4024	0,223	75,311	3,5	1007,3	6,6	8,6	8,4	1	1	1	1	1	1	1	1	1	0	1	-55,884426	274,108919	264,208245	0
14.01.2021	23:01:11	0	0	5,084186	4,33275	41,8428	0,229	75,316	3,5	1007,22	6,6	8,6	8,5	1	1	1	1	1	1	1	1	1	0	1	-57,998591	274,122361	262,156872	0
14.01.2021	23:01:12	0	0	3,615421	4,455	49,9464	0,226	75,336	3,5	1007,18	6,6	8,6	8,5	1	1	1	1	1	1	1	1	1	0	1	-52,501762	274,029951	267,222205	0
14.01.2021	23:01:13	0	0	2,824548	4,395	70,614	0,229	75,334	3,5	1007,18	6,6	8,6	8,5	1	1	1	1	1	1	1	1	1	0	1	-51,092319	273,936503	268,195747	0
14.01.2021	23:01:14	0	0	2,824548	4,338	77,9652	0,227	75,335	3,5	1007,14	6,6	8,6	8,5	1	1	1	1	1	1	1	1	1	0	1	-55,391121	273,976497	264,083446	0
14.01.2021	23:01:15	0	0	4,067349	4,36125	72,0216	0,224	75,35	3,5	1007,18	6,6	8,6	8,5	1	1	1	1	1	1	1	1	1	0	1	-55,532065	274,050779	264,289118	0
14.01.2021	23:01:16	0	0	3,615421	4,401	86,6628	0,226	75,364	3,5	1007,1	6,6	8,6	8,5	1	1	1	1	1	1	1	1	1	0	1	-56,941508	274,101456	263,116301	0
14.01.2021	23:01:17	0	0	2,824531	3,7635	41,49	0,224	75,348	3,5	1007,14	6,6	8,6	8,6	1	1	1	1	1	1	1	1	1	0	1	-48,484848	273,933543	270,789421	0
14.01.2021	23:01:18	0	0	2,93753	3,50025	39,168	0,22	75,361	3,5	1007,18	6,6	8,6	8,5	1	1	1	1	1	1	1	1	1	0	1	-52,008457	274,019546	267,66695	0
14.01.2021	23:01:19	0	0	3,389478	3,396	66,9168	0,231	75,382	3,5	1007,14	6,7	8,6	8,4	1	1	1	1	1	1	1	1	1	0	1	-53,699789	273,942422	265,615877	0
14.01.2021	23:01:20	0	0	4,180331	3,6495	85,1832	0,227	75,388	3,5	1007,04	6,6	8,6	8,5	1	1	1	1	1	1	1	1	1	0	1	-52,713178	273,977979	266,768305	0
14.01.2021	23:01:21	0	0	3,728403	3,822	89,3556	0,23	75,397	3,5	1007,28	6,6	8,6	8,5	1	1	1	1	1	1	1	1	1	0	1	-54,827343	274,053757	265,007738	0
14.01.2021	23:01:22	0	0	3,276476	3,49425	94,0932	0,229	75,388	3,5	1007,24	6,6	8,6	8,5	1	1	1	1	1	1	1	1	1	0	1	-53,558844	274,107427	266,526853	0
14.01.2021	23:01:23	0	0	2,37262	3,459	101,52	0,228	75,405	3,5	1007,06	6,6	8,6	8,5	1	1	1	1	1	1	1	1	1	0	1	-53,136011	273,927626	266,110673	0
14.01.2021	23:01:24	0	0	2,937548	3,51075	70,6824	0,229	75,411	3,5	1007,28	6,6	8,6	8,4	1	1	1	1	1	1	1	1	1	0	1	-53,276956	273,983912	266,2322	0
14.01.2021	23:01:25	0	0	4,406295	3,9615	43,6716	0,229	75,38	3,5	1007,1	6,7	8,6	8,5	1	1	1	1	1	1	1	1	1	0	1	-50,81043	273,930585	268,450046	0
14.01.2021	23:01:26	0	0	3,050494	4,1145	56,682	0,22	75,398	3,5	1007,36	6,6	8,6	8,6	1	1	1	1	1	1	1	1	1	0	1	-53,699789	274,098471	266,34408	0
14.01.2021	23:01:27	0	0	2,824548	3,8445	60,948	0,228	75,402	3,5	1007,08	6,7	8,7	8,5	1	1	1	1	1	1	1	1	1	0	1	-54,686399	273,995783	264,878133	0
14.01.2021	23:01:28	0	0	4,293313	3,792	66,5532	0,225	75,409	3,5	1007,16	6,6	8,6	8,5	1	1	1	1	1	1	1	1	1	0	1	-55,532065	274,104441	264,539687	0
14.01.2021	23:01:29	0	0	2,598584	3,8055	55,1952	0,224	75,396	3,5	1007,06	6,6	8,6	8,5	1	1	1	1	1	1	1	1	1	0	1	-52,924595	273,975014	266,543056	0
14.01.2021	23:01:30	0	0	3,954367	3,936	64,6236	0,226	75,394	3,5	1007,22	6,6	8,6	8,5	1	1	1	1	1	1	1	1	1	0	1	-52,924595	274,111906	267,182025	0
14.01.2021	23:01:31	0	0	2,259638	4,6305	57,15	0,224	75,375	3,5	1007,06	6,6	8,6	8,5	1	1	1	1	1	1	1	1	1	0	1	-49,119098	273,929105	270,134482	0
14.01.2021	23:01:32	0	0	3,389458	5,33025	59,4936	0,226	75,373	3,5	1007,16	6,6	8,6	8,5	1	1	1	1	1	1	1	1	1	0	1	-56,730092	274,009146	262,896787	0
14.01.2021	23:01:33	0	0	3,728403	5,7045	63,4932	0,222	75,371	3,5	1007,32	6,7	8,6	8,5	1	1	1	1	1	1	1	1	1	0	1	-54,263566	273,935023	265,017601	0
14.01.2021	23:01:34	0	0	4,858223	5,68575	63,4716	0,221	75,359	3,5	1007,12	6,6	8,6	8,5	1	1	1	1	1	1	1	1	1	0	1	-55,461593	273,997267	264,109864	0
14.01.2021	23:01:35	0	0	2,372635	5,5095	62,046	0,228	75,37	3,5	1007,06	6,6	8,6	8,4	1	1	1	1	1	1	1	1	1	0	1	-57,293869	274,091012	262,715161	0
14.01.2021	23:01:36	0	0	2,598584	5,53725	63,1692	0,223	75,384	3,5	1007,04	6,7	8,6	8,5	1	1	1	1	1	1	1	1	1	0	1	-51,726568	274,114893	268,394003	0
14.01.2021	23:01:37	0	0	4,971205	5,55825	54,0936	0,222	75,385	3,5	1007,2	6,6	8,6	8,5	1	1	1	1	1	1	1	1	1	0	1	-55,179704	273,976497	264,294863	0
14.01.2021	23:01:38	0	0	4,406268	5,57625	49,572	0,219	75,392	3,5	1007	6,6	8,6	8,6	1	1	1	1	1	1	1	1	1	0	1	-53,488372	273,95723	265,896339	0
14.01.2021	23:01:39	0	0	4,858223	5,442	60,2316	0,221	75,418	3,5	1007,2	6,6	8,7	8,5	1	1	1	1	1	1	1	1	1	0	1	-54,193094	274,114893	265,927478	0
14.01.2021	23:01:40	0	0	5,084156	5,064	58,1364	0,219	75,442	3,5	1007,2	6,6	8,6	8,6	1	1	1	1	1	1	1	1	1	0	1	-55,461593	274,056734	264,387389	0
14.01.2021	23:01:41	0	0	3,50244	4,91475	54,81	0,223	75,465	3,5	1007,08	6,6	8,6	8,5	1	1	1	1	1	1	1	1	1	0	1	-55,320648	273,942422	263,995017	0
14.01.2021	23:01:42	0	0	4,858223	4,932	51,4548	0,225	75,489	3,5	1007,22	6,6	8,6	8,5	1	1	1	1	1	1	1	1	1	0	1	-55,602537	274,102948	264,462243	0
14.01.2021	23:01:43	0	0	4,632259	4,956	49,2012	0,223	75,496	3,5	1007,12	6,6	8,6	8,5	1	1	1	1	1	1	1	1	1	0	1	-55,954898	274,034413	263,78989	0
14.01.2021	23:01:44	0	0	4,180331	4,938	48,5352	0,225	75,517	3,5	1007,24	6,6	8,6	8,5	1	1	1	1	1	1	1	1	1	0	1	-55,954898	273,95723	263,429814	0
14.01.2021	23:01:45	0	0	3,6154	4,9305	52,1424	0,223	75,52	3,5	1007,14	6,6	8,6	8,6	1	1	1	1	1	1	1	1	1	0	1	-55,813953	274,119373	264,327551	0
14.01.2021	23:01:46	0	0	2,937512	4,998	46,5984	0,221	75,559	3,5	1007,2	6,6	8,7	8,6	1	1	1	1	1	1	1	1	1	0	1	-52,149401	274,015088	267,505204	0
14.01.2021	23:01:47	0	0	3,05053	4,836	47,7612	0,218	75,569	3,5	1007,18	6,7	8,6	8,4	1	1	1	1	1	1	1	1	1	0	1	-52,43129	273,946863	266,905083	0
14.01.2021	23:01:48	0	0	3,050512	4,72125	42,21	0,225	75,593	3,5	1007,18	6,6	8,6	8,5	1	1	1	1	1	1	1	1	1	0	1	-54,40451	273,973531	265,056226	0
14.01.2021	23:01:49	0	0	4,067349	4,59075	63,4932	0,226	75,58	3,5	1007,06	6,6	8,6	8,5	1	1	1	1	1	1	1	1	1	0	1	-53,840733	274,021032	265,841609	0
14.01.2021	23:01:50	0	0	4,067349	4,49025	69,4548	0,23	75,598	3,5	1007,28	6,6	8,7	8,5	1	1	1	1	1	1	1	1	1	0	1	-57,082452	274,126844	263,093953	0
14.01.2021	23:01:51	0	0	2,485602	4,40475	65,844	0,22	75,608	3,5	1007,1	6,6	8,6	8,5	1	1	1	1	1	1	1	1	1	0	1	-52,854123	273,998751	266,724259	0
14.01.2021	23:01:52	0	0	4,745269	4,4505	39,186	0,227	75,616	3,5	1007,12	6,7	8,6	8,4	1	1	1	1	1	1	1	1	1	0	1	-53,840733	273,951305	265,516353	0
14.01.2021	23:01:53	0	0	3,50244	4,65675	38,8044	0,22	75,617	3,5	1007,12	6,6	8,6	8,5	1	1	1	1	1	1	1	1	1	0	1	-56,236786	274,104441	263,834965	0
14.01.2021	23:01:54	0	0	2,711566	4,7895	45,162	0,225	75,617	3,5	1007,16	6,6	8,6	8,5	1	1	1	1	1	1	1	1	1	0	1	-53,911205	274,037387	265,847467	0
14.01.2021	23:01:55	0	0	4,632259	4,749	47,3616	0,224	75,614	3,5	1007,06	6,6	8,6	8,5	1	1	1	1	1	1	1	1	1	0	1	-55,461593	274,135813	264,756715	0
14.01.2021	23:01:56	0	0	3,50244	4,6845	44,0316	0,225	75,625	3,5	1007,08	6,6	8,6	8,5	1	1	1	1	1	1	1	1	1	0	1	-53,4179	273,975014	266,049751	0
14.01.2021	23:01:57	0	0	2,824531	4,4805	38,5416	0,224	75,612	3,5	1007,04	6,6	8,6	8,6	1	1	1	1	1	1	1	1	1	0	1	-53,840733	274,04185	265,93877	0
14.01.2021	23:01:58	0	0	3,615421	4,30575	38,808	0,226	75,611	3,5	1007,2	6,6	8,6	8,5	1	1	1	1	1	1	1	1	1	0	1	-53,347428	273,955749	266,030376	0
14.01.2021	23:01:59	0	0	2,711566	4,02675	47,7612	0,233	75,616	3,5	1007,16	6,6	8,6	8,5	1	1	1	1	1	1	1	1	1	0	1	-54,474982	273,949825	264,875198	0
14.01.2021	23:02:00	0	0	2,598584	4,0455	45,2448	0,222	75,605	3,5	1007,18	6,6	8,6	8,5	1	1	1	1	1	1	1	1	1	0	1	-58,280479	273,954267	261,090418	0
14.01.2021	23:02:01	0	0	2,598584	4,0455	45,2448	0,222	75,605	3,5	1007,18	6,6	8,6	8,5	1	1	1	1	1	1	1	1	1	0	1	-58,280479	273,954267	261,090418	0
14.01.2021	23:02:02	0	0	4,406295	3,6675	47,3652	0,225	75,603	3,5	1007,16	6,6	8,6	8,5	1	1	1	1	1	1	1	1	1	0	1	-54,615927	274,126844	265,560478	0
14.01.2021	23:02:03	0	0	3,050512	3,62325	44,4024	0,23	75,599	3,5	1007,16	6,6	8,6	8,5	1	1	1	1	1	1	1	1	1	0	1	-55,884426	274,08952	264,117639	0
14.01.2021	23:02:04	0	0	3,615421	3,687	77,9796	0,232	75,59	3,5	1007,1	6,6	8,7	8,5	1	1	1	1	1	1	1	1	1	0	1	-55,03876	274,108919	265,053911	0
14.01.2021	23:02:05	0	0	4,519277	3,3495	70,2252	0,227	75,596	3,5	1007,1	6,6	8,6	8,5	1	1	1	1	1	1	1	1	1	0	1	-57,223397	274,147777	263,050818	0
14.01.2021	23:02:06	0	0	3,954367	3,3765	69,4764	0,234	75,592	3,5	1007,04	6,6	8,6	8,5	1	1	1	1	1	1	1	1	1	0	1	-55,391121	274,032925	264,346727	0
14.01.2021	23:02:07	0	0	2,824548	3,5595	65,106	0,235	75,592	3,5	1007,18	6,6	8,6	8,5	1	1	1	1	1	1	1	1	1	0	1	-54,897815	274,140298	265,341452	0
14.01.2021	23:02:08	0	0	2,711566	3,63675	67,2696	0,227	75,572	3,5	1007,08	6,7	8,6	8,5	1	1	1	1	1	1	1	1	1	0	1	-53,840733	273,982429	265,661504	0
14.01.2021	23:02:09	0	0	4,519277	3,42825	56,358	0,233	75,58	3,5	1007,16	6,7	8,6	8,5	1	1	1	1	1	1	1	1	1	0	1	-57,575758	274,086537	262,412377	0
14.01.2021	23:02:10	0	0	4,293313	3,426	64,2528	0,231	75,574	3,5	1007,14	6,6	8,6	8,5	1	1	1	1	1	1	1	1	1	0	1	-56,941508	274,137308	263,283786	0
14.01.2021	23:02:11	0	0	2,93753	3,6375	73,0368	0,221	75,566	3,5	1006,92	6,7	8,6	8,5	1	1	1	1	1	1	1	1	1	0	1	-58,844257	273,961674	260,561181	0
14.01.2021	23:02:12	0	0	5,31015	3,59925	66,9132	0,23	75,576	3,5	1007,16	6,6	8,6	8,5	1	1	1	1	1	1	1	1	1	0	1	-57,857646	274,029951	261,866321	0
14.01.2021	23:02:13	0	0	3,276456	3,7875	61,6932	0,229	75,574	3,5	1007,22	6,7	8,6	8,6	1	1	1	1	1	1	1	1	1	0	1	-56,589147	274,140298	263,650121	0
14.01.2021	23:02:14	0	0	3,163494	4,173	69,156	0,23	75,558	3,5	1007,18	6,6	8,6	8,5	1	1	1	1	1	1	1	1	1	0	1	-54,968288	273,952786	264,395703	0
14.01.2021	23:02:15	0	0	4,519277	4,62975	69,4836	0,234	75,542	3,5	1007,04	6,7	8,6	8,5	1	1	1	1	1	1	1	1	1	0	1	-56,095842	274,044826	263,697552	0
14.01.2021	23:02:16	0	0	4,067349	4,88325	65,1888	0,234	75,543	3,5	1007,22	6,7	8,6	8,5	1	1	1	1	1	1	1	1	1	0	1	-55,602537	274,129833	264,587833	0
14.01.2021	23:02:17	0	0	2,711566	4,5885	64,2708	0,231	75,546	3,5	1007,04	6,6	8,6	8,5	1	1	1	1	1	1	1	1	1	0	1	-52,78365	274,001721	266,808584	0
14.01.2021	23:02:18	0	0	4,745241	4,17525	72,6948	0,234	75,541	3,5	1007,2	6,7	8,6	8,5	1	1	1	1	1	1	1	1	1	0	1	-55,391121	274,138803	264,84116	0
14.01.2021	23:02:19	0	0	2,824548	3,684	24,732	0,241	75,544	3,5	1007,2	6,7	8,6	8,5	1	1	1	1	1	1	1	1	1	0	1	-50,458069	273,952786	268,905922	0
14.01.2021	23:02:20	0	0	3,615421	3,30825	61,3224	0,239	75,534	3,5	1007,14	6,7	8,8	8,5	1	1	1	1	1	1	1	1	1	0	1	-54,756871	274,146281	265,510353	0
14.01.2021	23:02:21	0	0	3,841385	3,11775	65,4732	0,241	75,542	3,5	1007,2	6,7	8,6	8,5	1	1	1	1	1	1	1	1	1	0	1	-57,082452	274,101456	262,975356	0
14.01.2021	23:02:22	0	0	4,632259	2,9985	72,6804	0,239	75,54	3,5	1007,28	6,6	8,7	8,5	1	1	1	1	1	1	1	1	1	0	1	-51,79704	274,141794	268,449216	0
14.01.2021	23:02:23	0	0	3,389458	3,14475	62,7912	0,239	75,529	3,5	1007,06	6,7	8,6	8,5	1	1	1	1	1	1	1	1	1	0	1	-55,954898	273,992814	263,595786	0
14.01.2021	23:02:24	0	0	2,711566	3,50325	55,5444	0,238	75,524	3,5	1007,14	6,6	8,6	8,5	1	1	1	1	1	1	1	1	1	0	1	-57,928118	274,044826	261,865275	0
14.01.2021	23:02:25	0	0	3,615421	3,642	61,6896	0,235	75,52	3,5	1007,06	6,7	8,6	8,5	1	1	1	1	1	1	1	1	1	0	1	-62,22692	274,132823	257,977417	0
14.01.2021	23:02:26	0	0	3,502419	3,88725	72,0108	0,238	75,512	3,5	1007,28	6,6	8,6	8,6	1	1	1	1	1	1	1	1	1	0	1	-50,528541	274,001721	269,063694	0
14.01.2021	23:02:27	0	0	3,954367	3,99525	71,2368	0,24	75,501	3,5	1007,3	6,7	8,6	8,5	1	1	1	1	1	1	1	1	1	0	1	-55,743481	274,104441	264,32827	0
14.01.2021	23:02:28	0	0	2,71155	4,134	72,3024	0,232	75,501	3,5	1007,14	6,6	8,6	8,6	1	1	1	1	1	1	1	1	1	0	1	-51,303735	273,958711	268,087884	0
14.01.2021	23:02:29	0	0	3,389458	4,25475	67,6656	0,24	75,51	3,5	1007,18	6,6	8,6	8,5	1	1	1	1	1	1	1	1	1	0	1	-54,40451	274,119373	265,736994	0
14.01.2021	23:02:30	0	0	3,050512	4,32525	72,306	0,245	75,495	3,5	1007,18	6,7	8,6	8,5	1	1	1	1	1	1	1	1	1	0	1	-58,139535	274,113399	261,97406	0
14.01.2021	23:02:31	0	0	2,711566	4,2525	68,7636	0,234	75,493	3,5	1007,1	6,6	8,7	8,5	1	1	1	1	1	1	1	1	1	0	1	-53,4179	274,138803	266,814381	0
14.01.2021	23:02:32	0	0	4,519277	4,2945	75,2364	0,238	75,505	3,5	1007,16	6,6	8,6	8,5	1	1	1	1	1	1	1	1	1	0	1	-55,179704	274,11788	264,954822	0
14.01.2021	23:02:33	0	0	5,084156	4,0995	80,1288	0,242	75,484	3,5	1007,14	6,6	8,6	8,6	1	1	1	1	1	1	1	1	1	0	1	-56,730092	274,119373	263,411413	0
14.01.2021	23:02:34	0	0	4,067349	3,852	77,3244	0,243	75,479	3,5	1007,06	6,6	8,6	8,5	1	1	1	1	1	1	1	1	1	0	1	-59,055673	274,137308	261,169621	0
14.01.2021	23:02:35	0	0	2,598584	3,68475	74,1708	0,234	75,477	3,5	1007,14	6,7	8,6	8,5	1	1	1	1	1	1	1	1	1	0	1	-52,995067	274,098471	267,048802	0
14.01.2021	23:02:36	0	0	3,6154	3,67725	77,9544	0,244	75,462	3,5	1007,12	6,6	8,7	8,6	1	1	1	1	1	1	1	1	1	0	1	-53,276956	274,132823	266,927382	0
14.01.2021	23:02:37	0	0	4,406295	3,8055	65,844	0,24	75,476	3,5	1007,22	6,7	8,6	8,5	1	1	1	1	1	1	1	1	1	0	1	-56,871036	274,122361	263,284427	0
14.01.2021	23:02:38	0	0	2,711566	4,089	79,7688	0,246	75,478	3,5	1007,4	6,7	8,6	8,5	1	1	1	1	1	1	1	1	1	0	1	-50,599013	274,131328	269,59834	0
14.01.2021	23:02:39	0	0	3,389458	4,26225	77,5728	0,237	75,454	3,5	1007,24	6,6	8,6	8,5	1	1	1	1	1	1	1	1	1	0	1	-59,830867	274,158252	260,492301	0
14.01.2021	23:02:40	0	0	4,180331	4,32375	68,3784	0,233	75,444	3,5	1007,18	6,7	8,6	8,5	1	1	1	1	1	1	1	1	1	0	1	-54,968288	274,047803	264,838999	0
14.01.2021	23:02:41	0	0	3,615421	4,15425	63,558	0,236	75,433	3,5	1007,04	6,7	8,6	8,5	1	1	1	1	1	1	1	1	1	0	1	-52,149401	274,003205	267,449761	0
14.01.2021	23:02:42	0	0	3,050512	4,04925	54,0936	0,241	75,432	3,5	1007,18	6,7	8,7	8,5	1	1	1	1	1	1	1	1	1	0	1	-53,488372	274,158252	266,834796	0
14.01.2021	23:02:43	0	0	4,971205	3,8415	54,4896	0,242	75,414	3,5	1007,18	6,7	8,6	8,5	1	1	1	1	1	1	1	1	1	0	1	-56,095842	274,015088	263,558763	0
14.01.2021	23:02:44	0	0	2,824548	3,55575	52,8732	0,242	75,421	3,5	1007,32	6,7	8,7	8,5	1	1	1	1	1	1	1	1	1	0	1	-55,03876	273,99133	264,505001	0
14.01.2021	23:02:45	0	0	3,615421	3,40425	51,0552	0,245	75,394	3,5	1007,28	6,7	8,6	8,5	1	1	1	1	1	1	1	1	1	0	1	-57,01198	274,140298	263,227288	0
14.01.2021	23:02:46	0	0	4,519277	3,303	70,614	0,246	75,395	3,5	1007,22	6,6	8,6	8,5	1	1	1	1	1	1	1	1	1	0	1	-51,867512	274,098471	268,176356	0
14.01.2021	23:02:47	0	0	4,858223	3,23925	66,2256	0,237	75,384	3,5	1007,2	6,7	8,6	8,5	1	1	1	1	1	1	1	1	1	0	1	-56,518675	274,156756	263,797497	0
14.01.2021	23:02:48	0	0	3,615421	3,47775	64,6092	0,237	75,385	3,5	1007,24	6,6	8,7	8,5	1	1	1	1	1	1	1	1	1	0	1	-56,307259	273,982429	263,194978	0
14.01.2021	23:02:49	0	0	4,293313	3,789	77,9688	0,242	75,387	3,5	1007,18	6,7	8,6	8,5	1	1	1	1	1	1	1	1	1	0	1	-57,01198	274,08952	262,990084	0
14.01.2021	23:02:50	0	0	3,728403	3,5955	78,2892	0,245	75,362	3,5	1007,32	6,6	8,6	8,5	1	1	1	1	1	1	1	1	1	0	1	-57,787174	274,141794	262,459082	0
14.01.2021	23:02:51	0	0	2,93753	3,24975	74,52	0,243	75,353	3,5	1007,28	6,7	8,6	8,5	1	1	1	1	1	1	1	1	1	0	1	-52,642706	274,108919	267,449964	0
14.01.2021	23:02:52	0	0	2,93753	3,432	68,7744	0,242	75,362	3,5	1007,24	6,7	8,6	8,5	1	1	1	1	1	1	1	1	1	0	1	-56,871036	274,037387	262,887636	0
14.01.2021	23:02:53	0	0	3,841385	3,59175	82,3608	0,246	75,352	3,5	1007,28	6,7	8,7	8,5	1	1	1	1	1	1	1	1	1	0	1	-55,320648	273,977979	264,160835	0
14.01.2021	23:02:54	0	0	3,728403	3,768	81,2088	0,247	75,348	3,5	1007,14	6,7	8,6	8,5	1	1	1	1	1	1	1	1	1	0	1	-52,501762	274,006175	267,111257	0
14.01.2021	23:02:55	0	0	2,598584	4,3665	83,358	0,25	75,328	3,5	1007,2	6,7	8,7	8,5	1	1	1	1	1	1	1	1	1	0	1	-54,686399	273,972049	264,767423	0
14.01.2021	23:02:56	0	0	3,841385	4,70475	90,7848	0,245	75,305	3,5	1007,16	6,7	8,6	8,5	1	1	1	1	1	1	1	1	1	0	1	-55,602537	274,12535	264,566887	0
14.01.2021	23:02:57	0	0	3,728403	4,85775	91,8972	0,244	75,297	3,5	1007,14	6,7	8,6	8,5	1	1	1	1	1	1	1	1	1	0	1	-55,743481	274,105934	264,335243	0
14.01.2021	23:02:58	0	0	3,276476	4,6005	93,3336	0,243	75,309	3,5	1007,24	6,6	8,6	8,5	1	1	1	1	1	1	1	1	1	0	1	-56,871036	273,972049	262,582785	0
14.01.2021	23:02:59	0	0	2,71155	4,08525	87,7392	0,245	75,307	3,5	1007,2	6,7	8,6	8,6	1	1	1	1	1	1	1	1	1	0	1	-56,871036	274,152266	263,424155	0
14.01.2021	23:03:00	0	0	4,858193	3,6825	66,9204	0,251	75,315	3,5	1007,26	6,6	8,6	8,6	1	1	1	1	1	1	1	1	1	0	1	-56,589147	274,147777	263,685067	0
14.01.2021	23:03:01	0	0	4,858193	3,6825	66,9204	0,251	75,315	3,5	1007,26	6,6	8,6	8,6	1	1	1	1	1	1	1	1	1	0	1	-56,589147	274,147777	263,685067	0
14.01.2021	23:03:02	0	0	3,050512	3,747	75,2328	0,244	75,297	3,5	1007,28	6,7	8,6	8,5	1	1	1	1	1	1	1	1	1	0	1	-54,122622	274,013602	265,525051	0
14.01.2021	23:03:03	0	0	5,084186	3,849	55,5444	0,243	75,305	3,5	1007,16	6,6	8,6	8,5	1	1	1	1	1	1	1	1	1	0	1	-57,575758	274,028464	262,14127	0
14.01.2021	23:03:04	0	0	4,632259	3,71775	53,3412	0,248	75,288	3,5	1007,08	6,7	8,7	8,5	1	1	1	1	1	1	1	1	1	0	1	-56,730092	274,161246	263,607069	0
14.01.2021	23:03:05	0	0	2,598584	3,369	55,9224	0,246	75,283	3,5	1007,22	6,7	8,7	8,5	1	1	1	1	1	1	1	1	1	0	1	-53,629316	274,129833	266,561054	0
14.01.2021	23:03:06	0	0	4,519277	3,363	68,0148	0,242	75,291	3,5	1006,98	6,7	8,7	8,5	1	1	1	1	1	1	1	1	1	0	1	-56,659619	274,0359	263,092111	0
14.01.2021	23:03:07	0	0	4,293313	3,345	64,638	0,247	75,302	3,5	1007,28	6,7	8,6	8,5	1	1	1	1	1	1	1	1	1	0	1	-57,082452	274,152266	263,212738	0
14.01.2021	23:03:08	0	0	4,519277	3,38625	66,5316	0,241	75,293	3,5	1007,22	6,7	8,6	8,5	1	1	1	1	1	1	1	1	1	0	1	-58,703312	274,079082	261,25001	0
14.01.2021	23:03:09	0	0	3,954367	3,56025	92,286	0,246	75,311	3,5	1007,22	6,7	8,6	8,5	1	1	1	1	1	1	1	1	1	0	1	-56,02537	273,963156	263,386978	0
14.01.2021	23:03:10	0	0	4,971205	3,522	83,3436	0,242	75,31	3,5	1007,08	6,7	8,6	8,5	1	1	1	1	1	1	1	1	1	0	1	-52,854123	274,099963	267,196716	0
14.01.2021	23:03:11	0	0	4,406295	3,525	83,358	0,245	75,32	3,5	1007,18	6,6	8,7	8,5	1	1	1	1	1	1	1	1	1	0	1	-61,451727	274,137308	258,773567	0
14.01.2021	23:03:12	0	0	2,485602	3,65475	82,602	0,24	75,32	3,5	1007,24	6,7	8,7	8,5	1	1	1	1	1	1	1	1	1	0	1	-55,109232	273,983912	264,399924	0
14.01.2021	23:03:13	0	0	2,93753	3,555	80,154	0,237	75,313	3,5	1007,14	6,6	8,7	8,5	1	1	1	1	1	1	1	1	1	0	1	-55,602537	274,092503	264,41346	0
14.01.2021	23:03:14	0	0	4,406295	3,51975	82,3464	0,238	75,311	3,5	1007,22	6,7	8,6	8,5	1	1	1	1	1	1	1	1	1	0	1	-57,575758	273,983912	261,933398	0
14.01.2021	23:03:15	0	0	4,180331	3,18975	69,4656	0,243	75,306	3,5	1007,38	6,7	8,7	8,5	1	1	1	1	1	1	1	1	1	0	1	-51,937984	274,153762	268,364199	0
14.01.2021	23:03:16	0	0	4,632259	3,1095	79,416	0,245	75,305	3,5	1007,18	6,7	8,7	8,5	1	1	1	1	1	1	1	1	1	0	1	-55,03876	274,086537	264,949375	0
14.01.2021	23:03:17	0	0	4,632259	3,16275	83,718	0,242	75,303	3,5	1007,1	6,7	8,7	8,5	1	1	1	1	1	1	1	1	1	0	1	-53,911205	274,031438	265,819702	0
14.01.2021	23:03:18	0	0	4,067349	3,12825	62,5392	0,243	75,303	3,5	1007,2	6,7	8,6	8,5	1	1	1	1	1	1	1	1	1	0	1	-57,364341	273,986879	262,158655	0
14.01.2021	23:03:19	0	0	3,276476	2,94975	59,1156	0,24	75,305	3,5	1007,14	6,7	8,6	8,5	1	1	1	1	1	1	1	1	1	0	1	-57,082452	274,016574	262,579086	0
14.01.2021	23:03:20	0	0	2,93753	2,7405	81,5904	0,247	75,311	3,5	1007,24	6,7	8,7	8,5	1	1	1	1	1	1	1	1	1	0	1	-53,488372	274,129833	266,701998	0
14.01.2021	23:03:21	0	0	4,406295	2,68125	89,3448	0,242	75,309	3,5	1007,2	6,7	8,7	8,5	1	1	1	1	1	1	1	1	1	0	1	-54,052149	274,170231	266,327004	0
14.01.2021	23:03:22	0	0	3,050512	2,5245	59,8752	0,24	75,303	3,5	1007,26	6,7	8,7	8,5	1	1	1	1	1	1	1	1	1	0	1	-57,01198	274,049291	262,802254	0
14.01.2021	23:03:23	0	0	2,93753	2,55075	76,3776	0,237	75,306	3,5	1007,2	6,7	8,7	8,5	1	1	1	1	1	1	1	1	1	0	1	-56,941508	274,000236	262,6438	0
14.01.2021	23:03:24	0	0	4,519277	2,60925	70,866	0,243	75,3	3,5	1007,28	6,7	8,7	8,5	1	1	1	1	1	1	1	1	1	0	1	-53,206483	274,114893	266,914088	0
14.01.2021	23:03:25	0	0	3,50244	2,63775	62,0892	0,246	75,295	3,5	1007,18	6,7	8,6	8,5	1	1	1	1	1	1	1	1	1	0	1	-53,065539	274,092503	266,950457	0
14.01.2021	23:03:26	0	0	2,711566	2,703	69,8652	0,241	75,302	3,5	1007,22	6,6	8,7	8,5	1	1	1	1	1	1	1	1	1	0	1	-53,488372	273,982429	266,013865	0
14.01.2021	23:03:27	0	0	4,293313	2,70375	57,0348	0,239	75,284	3,5	1007,1	6,7	8,7	8,5	1	1	1	1	1	1	1	1	1	0	1	-52,713178	274,126844	267,463227	0
14.01.2021	23:03:28	0	0	2,598584	2,694	78,6744	0,244	75,302	3,5	1007,16	6,7	8,7	8,5	1	1	1	1	1	1	1	1	1	0	1	-56,02537	274,086537	263,962765	0
14.01.2021	23:03:29	0	0	3,841385	2,62575	78,2856	0,244	75,311	3,5	1007,1	6,7	8,7	8,5	1	1	1	1	1	1	1	1	1	0	1	-53,840733	274,146281	266,426491	0
14.01.2021	23:03:30	0	0	4,745241	2,59575	49,1976	0,243	75,303	3,5	1007,22	6,7	8,6	8,5	1	1	1	1	1	1	1	1	1	0	1	-52,290345	274,079082	267,662977	0
14.01.2021	23:03:31	0	0	3,050512	2,5305	56,6352	0,247	75,305	3,5	1007,28	6,7	8,6	8,5	1	1	1	1	1	1	1	1	1	0	1	-50,880902	274,009146	268,745977	0
14.01.2021	23:03:32	0	0	5,084186	2,42175	52,884	0,24	75,296	3,5	1007,14	6,6	8,7	8,5	1	1	1	1	1	1	1	1	1	0	1	-50,387597	274,131328	269,809756	0
14.01.2021	23:03:33	0	0	3,50244	2,26125	40,2372	0,248	75,282	3,5	1007,1	6,7	8,6	8,5	1	1	1	1	1	1	1	1	1	0	1	-56,377731	274,077591	263,568631	0
14.01.2021	23:03:34	0	0	2,598584	1,9965	46,9656	0,24	75,284	3,5	1007,24	6,7	8,6	8,5	1	1	1	1	1	1	1	1	1	0	1	-56,307259	273,983912	263,201897	0
14.01.2021	23:03:35	0	0	4,519277	2,00925	51,0444	0,244	75,269	3,5	1007,06	6,7	8,7	8,5	1	1	1	1	1	1	1	1	1	0	1	-52,572234	273,976497	266,902333	0
14.01.2021	23:03:36	0	0	4,745241	2,16375	43,2792	0,241	75,257	3,5	1007,06	6,7	8,7	8,5	1	1	1	1	1	1	1	1	1	0	1	-57,998591	274,116386	262,128958	0
14.01.2021	23:03:37	0	0	4,858223	2,277	46,242	0,243	75,259	3,5	1007,16	6,7	8,6	8,5	1	1	1	1	1	1	1	1	1	0	1	-60,324172	274,091012	259,684858	0
14.01.2021	23:03:38	0	0	5,084156	2,30625	50,6736	0,243	75,258	3,5	1007,12	6,7	8,7	8,6	1	1	1	1	1	1	1	1	1	0	1	-55,461593	274,15077	264,826605	0
14.01.2021	23:03:39	0	0	4,632259	2,2995	64,242	0,241	75,245	3,5	1007,12	6,7	8,7	8,5	1	1	1	1	1	1	1	1	1	0	1	-59,61945	274,06716	260,278205	0
14.01.2021	23:03:40	0	0	3,163494	2,172	80,5068	0,24	75,242	3,5	1007,18	6,7	8,6	8,5	1	1	1	1	1	1	1	1	1	0	1	-57,01198	274,14329	263,241264	0
14.01.2021	23:03:41	0	0	3,276476	2,14275	73,782	0,243	75,241	3,5	1007,24	6,7	8,6	8,5	1	1	1	1	1	1	1	1	1	0	1	-54,897815	274,001721	264,694419	0
14.01.2021	23:03:42	0	0	3,954367	2,14125	74,5452	0,244	75,234	3,5	1007,26	6,7	8,7	8,5	1	1	1	1	1	1	1	1	1	0	1	-55,673009	274,07163	264,245517	0
14.01.2021	23:03:43	0	0	4,406295	2,292	86,2992	0,242	75,229	3,5	1007,04	6,7	8,7	8,5	1	1	1	1	1	1	1	1	1	0	1	-60,112755	274,092503	259,903241	0
14.01.2021	23:03:44	0	0	4,180331	2,26275	78,6636	0,244	75,239	3,5	1007,16	6,7	8,7	8,5	1	1	1	1	1	1	1	1	1	0	1	-57,434813	274,153762	262,867371	0
14.01.2021	23:03:45	0	0	2,711566	2,16375	75,6252	0,242	75,216	3,5	1007,04	6,7	8,6	8,5	1	1	1	1	1	1	1	1	1	0	1	-54,827343	274,076101	265,112058	0
14.01.2021	23:03:46	0	0	2,711566	2,001	73,0656	0,245	75,22	3,5	1007,16	6,7	8,6	8,5	1	1	1	1	1	1	1	1	1	0	1	-53,4179	273,975014	266,049751	0
14.01.2021	23:03:47	0	0	4,519277	1,91175	69,1524	0,238	75,216	3,5	1007,16	6,7	8,7	8,5	1	1	1	1	1	1	1	1	1	0	1	-61,169838	274,104441	258,901914	0
14.01.2021	23:03:48	0	0	2,824548	1,94325	73,0584	0,242	75,203	3,5	1007,18	6,7	8,7	8,5	1	1	1	1	1	1	1	1	1	0	1	-55,250176	274,085046	264,730995	0
14.01.2021	23:03:49	0	0	2,485602	1,94325	77,9904	0,244	75,213	3,5	1007,24	6,7	8,7	8,5	1	1	1	1	1	1	1	1	1	0	1	-54,40451	273,967602	265,028571	0
14.01.2021	23:03:50	0	0	2,93753	1,96125	72,0036	0,24	75,21	3,5	1007,1	6,7	8,6	8,5	1	1	1	1	1	1	1	1	1	0	1	-59,408034	274,092503	260,607963	0
14.01.2021	23:03:51	0	0	4,067325	2,0955	79,0164	0,238	75,215	3,5	1007,14	6,7	8,6	8,6	1	1	1	1	1	1	1	1	1	0	1	-54,827343	273,95723	264,557368	0
14.01.2021	23:03:52	0	0	3,276456	2,244	59,8608	0,243	75,208	3,5	1007,22	6,7	8,7	8,6	1	1	1	1	1	1	1	1	1	0	1	-54,193094	274,000236	265,392214	0
14.01.2021	23:03:53	0	0	4,858223	2,37075	53,7372	0,241	75,224	3,5	1007,26	6,7	8,7	8,5	1	1	1	1	1	1	1	1	1	0	1	-53,558844	274,058223	266,297089	0
14.01.2021	23:03:54	0	0	3,954367	2,424	89,73	0,242	75,229	3,5	1007,12	6,7	8,7	8,5	1	1	1	1	1	1	1	1	1	0	1	-50,035236	274,146281	270,231988	0
14.01.2021	23:03:55	0	0	4,067349	2,442	71,6076	0,237	75,218	3,5	1007,2	6,7	8,7	8,5	1	1	1	1	1	1	1	1	1	0	1	-54,334038	274,113399	265,779557	0
14.01.2021	23:03:56	0	0	3,954367	2,469	85,1652	0,238	75,23	3,5	1007,2	6,7	8,6	8,5	1	1	1	1	1	1	1	1	1	0	1	-54,686399	274,031438	265,044508	0
14.01.2021	23:03:57	0	0	2,93753	2,50875	75,2076	0,24	75,24	3,5	1007,32	6,7	8,6	8,5	1	1	1	1	1	1	1	1	1	0	1	-56,730092	273,970566	262,716816	0
14.01.2021	23:03:58	0	0	3,841385	2,61225	62,4168	0,242	75,255	3,5	1007,12	6,7	8,7	8,5	1	1	1	1	1	1	1	1	1	0	1	-55,03876	274,001721	264,553475	0
14.01.2021	23:03:59	0	0	5,084186	2,94075	71,2368	0,24	75,259	3,5	1007,18	6,7	8,6	8,5	1	1	1	1	1	1	1	1	1	0	1	-54,334038	274,029951	265,389929	0
14.01.2021	23:04:00	0	0	3,841385	3,636	75,9492	0,239	75,267	3,5	1007,2	6,7	8,7	8,5	1	1	1	1	1	1	1	1	1	0	1	-53,770261	274,104441	266,301491	0
14.01.2021	23:04:01	0	0	3,841385	3,636	75,9492	0,239	75,267	3,5	1007,2	6,7	8,7	8,5	1	1	1	1	1	1	1	1	1	0	1	-53,770261	274,104441	266,301491	0
14.01.2021	23:04:02	0	0	2,711566	3,6165	76,3668	0,244	75,26	3,5	1007,2	6,6	8,7	8,5	1	1	1	1	1	1	1	1	1	0	1	-55,03876	274,031438	264,692147	0
14.01.2021	23:04:03	0	0	3,050512	3,555	80,136	0,244	75,264	3,5	1007,26	6,6	8,7	8,5	1	1	1	1	1	1	1	1	1	0	1	-55,391121	273,961674	264,014317	0
14.01.2021	23:04:04	0	0	3,50244	3,3015	88,2144	0,243	75,258	3,5	1007,22	6,6	8,6	8,5	1	1	1	1	1	1	1	1	1	0	1	-55,954898	274,07014	263,956671	0
14.01.2021	23:04:05	0	0	4,858223	2,93475	71,6256	0,236	75,254	3,5	1007,22	6,6	8,7	8,5	1	1	1	1	1	1	1	1	1	0	1	-56,377731	273,988363	263,152186	0
14.01.2021	23:04:06	0	0	3,6154	2,5515	45,8424	0,243	75,272	3,5	1007,14	6,7	8,6	8,6	1	1	1	1	1	1	1	1	1	0	1	-51,374207	274,001721	268,218028	0
14.01.2021	23:04:07	0	0	4,632259	2,4225	58,104	0,242	75,246	3,5	1007,1	6,7	8,7	8,5	1	1	1	1	1	1	1	1	1	0	1	-55,179704	274,074611	264,752738	0
14.01.2021	23:04:08	0	0	2,93753	2,415	70,8804	0,238	75,256	3,5	1007,16	6,7	8,6	8,5	1	1	1	1	1	1	1	1	1	0	1	-57,082452	274,131328	263,114901	0
14.01.2021	23:04:09	0	0	3,841385	2,373	94,7808	0,245	75,255	3,5	1007,26	6,7	8,6	8,5	1	1	1	1	1	1	1	1	1	0	1	-51,656096	274,098471	268,387773	0
14.01.2021	23:04:10	0	0	2,824548	2,1885	60,2424	0,237	75,238	3,5	1007,2	6,6	8,6	8,5	1	1	1	1	1	1	1	1	1	0	1	-61,592671	273,989846	257,944168	0
14.01.2021	23:04:11	0	0	2,824548	2,136	80,5248	0,244	75,218	3,5	1007,2	6,7	8,7	8,5	1	1	1	1	1	1	1	1	1	0	1	-55,03876	274,138803	265,193521	0
14.01.2021	23:04:12	0	0	3,389458	2,2335	80,514	0,235	75,193	3,5	1007,16	6,7	8,6	8,5	1	1	1	1	1	1	1	1	1	0	1	-53,770261	274,049291	266,043974	0
14.01.2021	23:04:13	0	0	2,146656	2,37375	92,6316	0,243	75,202	3,5	1007,18	6,6	8,7	8,5	1	1	1	1	1	1	1	1	1	0	1	-55,954898	274,122361	264,200565	0
14.01.2021	23:04:14	0	0	4,519277	2,5365	90,0252	0,234	75,19	3,5	1007,12	6,6	8,7	8,5	1	1	1	1	1	1	1	1	1	0	1	-52,572234	274,091012	267,436796	0
14.01.2021	23:04:15	0	0	2,37262	2,787	81,2268	0,241	75,193	3,5	1007,26	6,6	8,6	8,5	1	1	1	1	1	1	1	1	1	0	1	-54,122622	273,955749	265,255182	0
14.01.2021	23:04:16	0	0	3,050512	2,89125	79,0272	0,239	75,195	3,5	1007,1	6,7	8,6	8,5	1	1	1	1	1	1	1	1	1	0	1	-50,17618	273,949825	269,174	0
14.01.2021	23:04:17	0	0	3,615421	2,973	78,264	0,243	75,208	3,5	1007,24	6,7	8,6	8,5	1	1	1	1	1	1	1	1	1	0	1	-52,219873	274,080573	267,74041	0
14.01.2021	23:04:18	0	0	2,824548	3,31575	73,4256	0,239	75,186	3,5	1007,04	6,6	8,6	8,5	1	1	1	1	1	1	1	1	1	0	1	-51,937984	273,983912	267,571171	0
14.01.2021	23:04:19	0	0	3,050512	3,4575	71,2224	0,24	75,196	3,5	1007,12	6,7	8,6	8,5	1	1	1	1	1	1	1	1	1	0	1	-53,276956	274,012117	266,363785	0
14.01.2021	23:04:20	0	0	4,293313	3,41925	73,7784	0,237	75,194	3,5	1007,22	6,6	8,6	8,5	1	1	1	1	1	1	1	1	1	0	1	-54,827343	273,951305	264,529742	0
14.01.2021	23:04:21	0	0	2,93753	3,312	78,6636	0,243	75,168	3,5	1007,2	6,7	8,6	8,5	1	1	1	1	1	1	1	1	1	0	1	-54,686399	273,967602	264,746683	0
14.01.2021	23:04:22	0	0	4,519277	3,34575	79,0308	0,237	75,174	3,5	1007,4	6,7	8,7	8,5	1	1	1	1	1	1	1	1	1	0	1	-50,105708	274,079082	269,847614	0
14.01.2021	23:04:23	0	0	2,259638	3,28425	69,1704	0,243	75,175	3,5	1007,28	6,7	8,7	8,5	1	1	1	1	1	1	1	1	1	0	1	-55,884426	273,951305	263,47266	0
14.01.2021	23:04:24	0	0	4,632259	3,297	76,824	0,241	75,172	3,5	1007,28	6,6	8,6	8,5	1	1	1	1	1	1	1	1	1	0	1	-49,260042	274,080573	270,700241	0
14.01.2021	23:04:25	0	0	2,598584	3,3045	72,7884	0,239	75,188	3,5	1007,1	6,6	8,6	8,5	1	1	1	1	1	1	1	1	1	0	1	-53,699789	274,14329	266,553456	0
14.01.2021	23:04:26	0	0	3,163494	3,303	77,6592	0,238	75,191	3,5	1007,2	6,6	8,6	8,5	1	1	1	1	1	1	1	1	1	0	1	-59,267089	274,037387	260,491583	0
14.01.2021	23:04:27	0	0	4,745241	3,25875	84,4236	0,242	75,202	3,5	1007,32	6,6	8,7	8,5	1	1	1	1	1	1	1	1	1	0	1	-54,263566	274,107427	265,822131	0
14.01.2021	23:04:28	0	0	3,50244	3,22725	90,4356	0,242	75,204	3,5	1007,2	6,7	8,6	8,5	1	1	1	1	1	1	1	1	1	0	1	-57,01198	273,942422	262,303685	0
14.01.2021	23:04:29	0	0	4,067349	3,339	85,5468	0,236	75,197	3,5	1007,06	6,6	8,6	8,5	1	1	1	1	1	1	1	1	1	0	1	-55,743481	274,107427	264,342215	0
14.01.2021	23:04:30	0	0	2,93753	3,43425	85,5432	0,244	75,195	3,5	1007,12	6,7	8,6	8,5	1	1	1	1	1	1	1	1	1	0	1	-55,179704	273,945383	264,149766	0
14.01.2021	23:04:31	0	0	2,824548	3,44475	81,594	0,243	75,195	3,5	1007,2	6,7	8,6	8,5	1	1	1	1	1	1	1	1	1	0	1	-55,03876	274,00469	264,567331	0
14.01.2021	23:04:32	0	0	2,93753	3,50775	79,0452	0,243	75,193	3,5	1007,12	6,6	8,6	8,5	1	1	1	1	1	1	1	1	1	0	1	-53,136011	274,110413	266,963633	0
14.01.2021	23:04:33	0	0	3,615421	3,525	83,412	0,243	75,166	3,5	1007,02	6,6	8,6	8,5	1	1	1	1	1	1	1	1	1	0	1	-54,122622	273,933543	265,151648	0
14.01.2021	23:04:34	0	0	4,971175	3,5205	85,5	0,239	75,16	3,5	1007,12	6,7	8,6	8,6	1	1	1	1	1	1	1	1	1	0	1	-53,770261	273,992814	265,780423	0
14.01.2021	23:04:35	0	0	4,406295	3,37575	83,7432	0,236	75,156	3,5	1007,06	6,7	8,6	8,5	1	1	1	1	1	1	1	1	1	0	1	-52,219873	273,945383	267,109597	0
14.01.2021	23:04:36	0	0	3,389458	3,32025	81,612	0,24	75,144	3,5	1007,26	6,6	8,7	8,5	1	1	1	1	1	1	1	1	1	0	1	-55,320648	273,994298	264,236959	0
14.01.2021	23:04:37	0	0	4,519277	3,26325	87,3504	0,243	75,127	3,5	1007,24	6,7	8,6	8,5	1	1	1	1	1	1	1	1	1	0	1	-57,01198	274,085046	262,969191	0
14.01.2021	23:04:38	0	0	3,276476	3,0435	73,4544	0,24	75,125	3,5	1007,12	6,7	8,6	8,5	1	1	1	1	1	1	1	1	1	0	1	-54,474982	273,955749	264,902822	0
14.01.2021	23:04:39	0	0	3,050512	2,94825	74,8944	0,241	75,095	3,5	1007,22	6,6	8,6	8,5	1	1	1	1	1	1	1	1	1	0	1	-53,065539	273,976497	266,409028	0
14.01.2021	23:04:40	0	0	4,971205	2,88225	71,2332	0,243	75,104	3,5	1007,32	6,6	8,7	8,5	1	1	1	1	1	1	1	1	1	0	1	-58,914729	274,107427	261,170968	0
14.01.2021	23:04:41	0	0	2,259638	2,802	75,708	0,237	75,099	3,5	1007,22	6,7	8,6	8,5	1	1	1	1	1	1	1	1	1	0	1	-55,250176	273,979462	264,238224	0
14.01.2021	23:04:42	0	0	3,954367	2,67075	78,6888	0,239	75,093	3,5	1007,2	6,6	8,7	8,5	1	1	1	1	1	1	1	1	1	0	1	-56,02537	274,111906	264,08125	0
14.01.2021	23:04:43	0	0	3,841385	2,7105	73,8936	0,237	75,087	3,5	1007,24	6,6	8,6	8,5	1	1	1	1	1	1	1	1	1	0	1	-51,374207	274,129833	268,816163	0
14.01.2021	23:04:44	0	0	5,084186	2,74725	74,1492	0,233	75,07	3,5	1007,14	6,6	8,6	8,5	1	1	1	1	1	1	1	1	1	0	1	-56,589147	274,003205	263,010015	0
14.01.2021	23:04:45	0	0	4,745241	2,78625	77,9724	0,241	75,076	3,5	1007,32	6,6	8,6	8,5	1	1	1	1	1	1	1	1	1	0	1	-54,334038	274,113399	265,779557	0
14.01.2021	23:04:46	0	0	4,519277	2,76525	72,2988	0,238	75,063	3,5	1007,3	6,7	8,6	8,5	1	1	1	1	1	1	1	1	1	0	1	-52,854123	274,000236	266,731185	0
14.01.2021	23:04:47	0	0	4,745241	2,6985	84,0852	0,236	75,053	3,5	1007,24	6,6	8,7	8,5	1	1	1	1	1	1	1	1	1	0	1	-54,686399	274,059713	265,176487	0
14.01.2021	23:04:48	0	0	3,502419	2,81475	85,6116	0,236	75,044	3,5	1007,34	6,6	8,6	8,6	1	1	1	1	1	1	1	1	1	0	1	-54,052149	274,113399	266,061446	0
14.01.2021	23:04:49	0	0	4,745241	2,892	82,3356	0,233	75,058	3,5	1007,26	6,7	8,6	8,5	1	1	1	1	1	1	1	1	1	0	1	-55,813953	273,980945	263,681365	0
14.01.2021	23:04:50	0	0	5,084186	2,847	82,5876	0,237	75,069	3,5	1007,18	6,6	8,6	8,5	1	1	1	1	1	1	1	1	1	0	1	-56,871036	273,985395	262,64504	0
14.01.2021	23:04:51	0	0	4,406295	2,8635	79,4088	0,235	75,068	3,5	1007,04	6,6	8,6	8,5	1	1	1	1	1	1	1	1	1	0	1	-58,844257	274,119373	261,297248	0
14.01.2021	23:04:52	0	0	4,858223	3,00225	74,5056	0,233	75,073	3,5	1007,24	6,6	8,7	8,5	1	1	1	1	1	1	1	1	1	0	1	-55,109232	274,085046	264,871939	0
14.01.2021	23:04:53	0	0	2,598584	3,012	71,9712	0,235	75,088	3,5	1007,38	6,6	8,7	8,5	1	1	1	1	1	1	1	1	1	0	1	-54,263566	274,079082	265,689756	0
14.01.2021	23:04:54	0	0	2,146656	2,92575	75,2364	0,238	75,099	3,5	1007,38	6,7	8,6	8,5	1	1	1	1	1	1	1	1	1	0	1	-61,592671	273,937982	257,702294	0
14.01.2021	23:04:55	0	0	4,519277	2,87625	75,3048	0,233	75,097	3,5	1007,28	6,6	8,7	8,5	1	1	1	1	1	1	1	1	1	0	1	-54,263566	274,031438	265,467341	0
14.01.2021	23:04:56	0	0	4,406295	3,00225	69,4692	0,24	75,113	3,5	1007,48	6,6	8,6	8,5	1	1	1	1	1	1	1	1	1	0	1	-58,491896	274,132823	261,712442	0
14.01.2021	23:04:57	0	0	3,050512	3,378	74,1564	0,236	75,123	3,5	1007,06	6,6	8,6	8,5	1	1	1	1	1	1	1	1	1	0	1	-58,421424	274,110413	261,678221	0
14.01.2021	23:04:58	0	0	3,50244	3,4785	83,7576	0,229	75,093	3,5	1007,22	6,6	8,6	8,5	1	1	1	1	1	1	1	1	1	0	1	-55,03876	273,951305	264,318326	0
14.01.2021	23:04:59	0	0	4,519277	3,477	69,1596	0,235	75,091	3,5	1007,28	6,6	8,6	8,5	1	1	1	1	1	1	1	1	1	0	1	-51,867512	274,111906	268,239107	0
14.01.2021	23:05:00	0	0	4,519277	3,31275	46,602	0,238	75,093	3,5	1007,26	6,7	8,6	8,5	1	1	1	1	1	1	1	1	1	0	1	-55,954898	274,08952	264,047166	0
14.01.2021	23:05:01	0	0	4,519277	3,31275	46,602	0,238	75,093	3,5	1007,26	6,7	8,6	8,5	1	1	1	1	1	1	1	1	1	0	1	-55,954898	274,08952	264,047166	0
14.01.2021	23:05:02	0	0	4,293313	3,114	48,5028	0,232	75,084	3,5	1007,2	6,6	8,7	8,5	1	1	1	1	1	1	1	1	1	0	1	-54,968288	274,113399	265,145308	0
14.01.2021	23:05:03	0	0	2,711566	3,05325	52,1424	0,228	75,064	3,5	1007,18	6,6	8,6	8,5	1	1	1	1	1	1	1	1	1	0	1	-57,434813	274,102948	262,629967	0
14.01.2021	23:05:04	0	0	2,824548	3,0495	57,744	0,225	75,062	3,5	1007,2	6,7	8,6	8,5	1	1	1	1	1	1	1	1	1	0	1	-54,474982	274,120867	265,673501	0
14.01.2021	23:05:05	0	0	4,406295	3,009	64,638	0,235	75,072	3,5	1007,32	6,7	8,6	8,5	1	1	1	1	1	1	1	1	1	0	1	-52,995067	273,995783	266,569465	0
14.01.2021	23:05:06	0	0	4,180331	3,03975	54,4824	0,23	75,045	3,5	1007,16	6,7	8,6	8,5	1	1	1	1	1	1	1	1	1	0	1	-52,360817	273,951305	266,996268	0
14.01.2021	23:05:07	0	0	2,824531	3,021	74,5308	0,229	75,051	3,5	1007,18	6,6	8,7	8,6	1	1	1	1	1	1	1	1	1	0	1	-55,954898	273,970566	263,49201	0
14.01.2021	23:05:08	0	0	4,858193	3,06825	72,2736	0,225	75,054	3,5	1007,1	6,6	8,6	8,6	1	1	1	1	1	1	1	1	1	0	1	-54,474982	274,056734	265,374	0
14.01.2021	23:05:09	0	0	3,050512	3,36525	80,1684	0,232	75,047	3,5	1007,02	6,7	8,8	8,5	1	1	1	1	1	1	1	1	1	0	1	-54,334038	273,940942	264,974727	0
14.01.2021	23:05:10	0	0	3,050512	3,51525	80,5176	0,229	75,038	3,5	1007,1	6,7	8,6	8,5	1	1	1	1	1	1	1	1	1	0	1	-53,488372	274,028464	266,228656	0
14.01.2021	23:05:11	0	0	2,93753	3,78975	88,128	0,232	75,031	3,5	1007,3	6,6	8,6	8,5	1	1	1	1	1	1	1	1	1	0	1	-60,465116	273,986879	259,05788	0
14.01.2021	23:05:12	0	0	2,71155	3,98025	104,7456	0,229	75,028	3,5	1007,02	6,6	8,6	8,6	1	1	1	1	1	1	1	1	1	0	1	-57,223397	273,955749	262,154407	0
14.01.2021	23:05:13	0	0	3,615421	3,99075	100,3896	0,23	75,021	3,5	1007,2	6,7	8,6	8,5	1	1	1	1	1	1	1	1	1	0	1	-57,998591	274,058223	261,857343	0
14.01.2021	23:05:14	0	0	4,067349	3,82425	88,614	0,226	75,01	3,5	1007,32	6,7	8,6	8,5	1	1	1	1	1	1	1	1	1	0	1	-55,320648	274,119373	264,820856	0
14.01.2021	23:05:15	0	0	2,93753	3,63225	88,578	0,223	74,992	3,5	1007,32	6,6	8,8	8,5	1	1	1	1	1	1	1	1	1	0	1	-53,629316	274,058223	266,226617	0
14.01.2021	23:05:16	0	0	3,728381	3,59925	86,976	0,223	74,97	3,5	1007,22	6,7	8,6	8,6	1	1	1	1	1	1	1	1	1	0	1	-54,334038	273,952786	265,029953	0
14.01.2021	23:05:17	0	0	3,050512	3,62175	84,7728	0,223	74,963	3,5	1007,26	6,6	8,6	8,5	1	1	1	1	1	1	1	1	1	0	1	-53,4179	273,967602	266,015182	0
14.01.2021	23:05:18	0	0	3,050512	3,51525	97,7004	0,224	74,956	3,5	1007,28	6,6	8,7	8,5	1	1	1	1	1	1	1	1	1	0	1	-52,572234	273,989846	266,964605	0
14.01.2021	23:05:19	0	0	2,259638	3,41175	97,3332	0,225	74,969	3,5	1007,2	6,6	8,6	8,5	1	1	1	1	1	1	1	1	1	0	1	-55,884426	274,095487	264,145506	0
14.01.2021	23:05:20	0	0	3,841385	3,3885	95,8572	0,225	74,998	3,5	1007,22	6,6	8,7	8,5	1	1	1	1	1	1	1	1	1	0	1	-54,615927	274,111906	265,490693	0
14.01.2021	23:05:21	0	0	4,632231	3,663	94,1976	0,224	75,012	3,5	1007	6,6	8,7	8,6	1	1	1	1	1	1	1	1	1	0	1	-55,03876	274,010631	264,59505	0
14.01.2021	23:05:22	0	0	4,632259	3,822	88,1352	0,22	75,062	3,5	1007,2	6,6	8,6	8,5	1	1	1	1	1	1	1	1	1	0	1	-52,290345	273,949825	267,059835	0
14.01.2021	23:05:23	0	0	2,824531	4,08675	81,612	0,221	75,092	3,5	1007,3	6,6	8,6	8,6	1	1	1	1	1	1	1	1	1	0	1	-53,981677	274,038875	265,783938	0
14.01.2021	23:05:24	0	0	2,711566	4,35225	85,1796	0,223	75,126	3,5	1007,3	6,6	8,7	8,5	1	1	1	1	1	1	1	1	1	0	1	-54,686399	273,951305	264,670687	0
14.01.2021	23:05:25	0	0	3,615421	4,53825	77,2344	0,22	75,146	3,5	1007,24	6,7	8,6	8,5	1	1	1	1	1	1	1	1	1	0	1	-56,659619	274,120867	263,488864	0
14.01.2021	23:05:26	0	0	3,728426	4,57425	79,7544	0,222	75,162	3,5	1007,14	6,6	8,6	8,4	1	1	1	1	1	1	1	1	1	0	1	-55,250176	274,119373	264,891328	0
14.01.2021	23:05:27	0	0	3,050512	4,41825	88,5852	0,226	75,199	3,5	1007,24	6,6	8,6	8,5	1	1	1	1	1	1	1	1	1	0	1	-56,730092	273,994298	262,827516	0
14.01.2021	23:05:28	0	0	2,37262	4,46175	83,3616	0,228	75,219	3,5	1007,22	6,7	8,6	8,5	1	1	1	1	1	1	1	1	1	0	1	-53,911205	273,99133	265,632556	0
14.01.2021	23:05:29	0	0	2,598569	4,38675	75,5964	0,219	75,234	3,5	1007,24	6,6	8,6	8,6	1	1	1	1	1	1	1	1	1	0	1	-58,421424	274,138803	261,810857	0
14.01.2021	23:05:30	0	0	2,598584	4,29525	80,172	0,22	75,235	3,5	1007,12	6,6	8,6	8,5	1	1	1	1	1	1	1	1	1	0	1	-54,474982	274,015088	265,179623	0
14.01.2021	23:05:31	0	0	4,293313	4,14075	69,5052	0,229	75,239	3,5	1007,1	6,6	8,8	8,5	1	1	1	1	1	1	1	1	1	0	1	-53,981677	274,107427	266,10402	0
14.01.2021	23:05:32	0	0	4,519277	3,906	75,2292	0,222	75,243	3,5	1007,18	6,6	8,7	8,5	1	1	1	1	1	1	1	1	1	0	1	-55,250176	274,120867	264,898307	0
14.01.2021	23:05:33	0	0	3,389437	3,6195	58,8888	0,222	75,237	3,5	1007,22	6,6	8,7	8,6	1	1	1	1	1	1	1	1	1	0	1	-57,152925	274,021032	262,529418	0
14.01.2021	23:05:34	0	0	3,615421	3,08475	47,7612	0,218	75,237	3,5	1007,24	6,6	8,6	8,5	1	1	1	1	1	1	1	1	1	0	1	-56,941508	274,131328	263,255845	0
14.01.2021	23:05:35	0	0	5,197168	2,946	72,6804	0,223	75,235	3,5	1007,06	6,7	8,6	8,5	1	1	1	1	1	1	1	1	1	0	1	-56,166314	274,085046	263,814857	0
14.01.2021	23:05:36	0	0	2,824531	2,79825	62,0316	0,218	75,23	3,5	1007,2	6,6	8,6	8,6	1	1	1	1	1	1	1	1	1	0	1	-55,743481	274,074611	264,188961	0
14.01.2021	23:05:37	0	0	2,711566	2,442	60,9336	0,223	75,232	3,5	1007,18	6,6	8,6	8,5	1	1	1	1	1	1	1	1	1	0	1	-54,615927	274,086537	265,372208	0
14.01.2021	23:05:38	0	0	4,406295	2,469	55,9332	0,222	75,229	3,5	1007,12	6,6	8,6	8,5	1	1	1	1	1	1	1	1	1	0	1	-56,659619	274,105934	263,419104	0
14.01.2021	23:05:39	0	0	4,632231	2,5695	70,6932	0,224	75,217	3,5	1007,22	6,6	8,6	8,6	1	1	1	1	1	1	1	1	1	0	1	-55,954898	274,028464	263,76213	0
14.01.2021	23:05:40	0	0	4,406295	2,44125	52,9092	0,227	75,201	3,5	1007,2	6,6	8,6	8,5	1	1	1	1	1	1	1	1	1	0	1	-51,374207	273,970566	268,0727	0
14.01.2021	23:05:41	0	0	3,615421	2,41875	59,4792	0,218	75,193	3,5	1007,18	6,6	8,6	8,5	1	1	1	1	1	1	1	1	1	0	1	-57,716702	273,982429	261,785535	0
14.01.2021	23:05:42	0	0	4,519277	2,5275	51,0516	0,22	75,157	3,5	1007,02	6,7	8,6	8,5	1	1	1	1	1	1	1	1	1	0	1	-54,474982	274,021032	265,20736	0
14.01.2021	23:05:43	0	0	4,293313	2,56125	51,0588	0,222	75,145	3,5	1007,38	6,6	8,6	8,5	1	1	1	1	1	1	1	1	1	0	1	-61,028894	274,141794	259,217362	0
14.01.2021	23:05:44	0	0	3,50244	2,57475	59,85	0,219	75,144	3,5	1007,1	6,6	8,6	8,5	1	1	1	1	1	1	1	1	1	0	1	-51,79704	274,06567	268,09366	0
14.01.2021	23:05:45	0	0	4,406268	2,89875	58,1256	0,214	75,141	3,5	1007,22	6,7	8,6	8,6	1	1	1	1	1	1	1	1	1	0	1	-57,223397	273,985395	262,292679	0
14.01.2021	23:05:46	0	0	2,824548	2,8845	44,784	0,222	75,129	3,5	1007,26	6,7	8,6	8,5	1	1	1	1	1	1	1	1	1	0	1	-54,474982	273,969084	264,965012	0
14.01.2021	23:05:47	0	0	3,615421	2,9175	63,468	0,22	75,124	3,5	1007,2	6,6	8,7	8,5	1	1	1	1	1	1	1	1	1	0	1	-56,448203	274,101456	263,609606	0
14.01.2021	23:05:48	0	0	3,841362	3,0825	66,9312	0,221	75,122	3,5	1007,16	6,6	8,6	8,6	1	1	1	1	1	1	1	1	1	0	1	-57,223397	273,980945	262,271922	0
14.01.2021	23:05:49	0	0	3,954367	3,1815	68,0148	0,221	75,093	3,5	1007,26	6,6	8,6	8,5	1	1	1	1	1	1	1	1	1	0	1	-54,615927	274,119373	265,525577	0
14.01.2021	23:05:50	0	0	3,841385	3,28425	72,3132	0,218	75,084	3,5	1007,24	6,6	8,6	8,5	1	1	1	1	1	1	1	1	1	0	1	-58,350951	273,976497	261,123616	0
14.01.2021	23:05:51	0	0	2,598569	3,55275	85,932	0,214	75,053	3,5	1007,28	6,7	8,6	8,6	1	1	1	1	1	1	1	1	1	0	1	-58,139535	274,144785	262,120699	0
14.01.2021	23:05:52	0	0	3,050494	3,684	70,236	0,212	75,044	3,5	1007,16	6,6	8,7	8,6	1	1	1	1	1	1	1	1	1	0	1	-56,236786	274,096979	263,800113	0
14.01.2021	23:05:53	0	0	3,841362	3,492	74,9376	0,218	75,035	3,5	1007,24	6,7	8,7	8,6	1	1	1	1	1	1	1	1	1	0	1	-52,501762	274,013602	267,145911	0
14.01.2021	23:05:54	0	0	4,632259	3,4845	69,8724	0,211	75,004	3,5	1007,22	6,6	8,6	8,5	1	1	1	1	1	1	1	1	1	0	1	-55,602537	274,123856	264,559906	0
14.01.2021	23:05:55	0	0	4,858223	3,669	71,2332	0,215	74,984	3,5	1007,24	6,7	8,7	8,5	1	1	1	1	1	1	1	1	1	0	1	-53,629316	274,093995	266,393647	0
14.01.2021	23:05:56	0	0	4,858223	3,6525	66,5352	0,211	74,98	3,5	1007,18	6,6	8,7	8,5	1	1	1	1	1	1	1	1	1	0	1	-58,350951	274,013602	261,296721	0
14.01.2021	23:05:57	0	0	2,71155	3,4605	71,2332	0,211	74,984	3,5	1007,22	6,6	8,7	8,6	1	1	1	1	1	1	1	1	1	0	1	-55,813953	274,137308	264,41134	0
14.01.2021	23:05:58	0	0	4,971205	3,3375	64,2564	0,214	74,984	3,5	1007,22	6,6	8,7	8,5	1	1	1	1	1	1	1	1	1	0	1	-51,585624	274,111906	268,520996	0
14.01.2021	23:05:59	0	0	4,745212	3,20325	61,3152	0,205	74,974	3,5	1007,14	6,6	8,6	8,6	1	1	1	1	1	1	1	1	1	0	1	-58,210007	274,016574	261,451531	0
14.01.2021	23:06:00	0	0	5,197168	3,72225	71,6004	0,214	74,991	3,5	1007,3	6,7	8,6	8,5	1	1	1	1	1	1	1	1	1	0	1	-58,63284	274,028464	261,084188	0
14.01.2021	23:06:01	0	0	5,197168	3,72225	71,6004	0,214	74,991	3,5	1007,3	6,7	8,6	8,5	1	1	1	1	1	1	1	1	1	0	1	-58,63284	274,028464	261,084188	0
14.01.2021	23:06:02	0	0	4,971205	4,15275	62,7948	0,214	74,985	3,5	1007,3	6,6	8,6	8,5	1	1	1	1	1	1	1	1	1	0	1	-55,03876	273,955749	264,339044	0
14.01.2021	23:06:03	0	0	4,519277	4,08225	66,2472	0,223	74,991	3,5	1007,36	6,6	8,6	8,5	1	1	1	1	1	1	1	1	1	0	1	-54,334038	274,095487	265,695893	0
14.01.2021	23:06:04	0	0	3,728403	3,79725	60,9228	0,212	75,004	3,5	1007,28	6,7	8,6	8,5	1	1	1	1	1	1	1	1	1	0	1	-52,995067	274,076101	266,944335	0
14.01.2021	23:06:05	0	0	3,841385	3,59175	58,1076	0,215	75,012	3,5	1007,2	6,6	8,6	8,5	1	1	1	1	1	1	1	1	1	0	1	-52,43129	274,132823	267,773048	0
14.01.2021	23:06:06	0	0	4,971205	3,57825	75,6036	0,212	75,019	3,5	1007,36	6,6	8,7	8,5	1	1	1	1	1	1	1	1	1	0	1	-60,747005	274,07163	259,171521	0
14.01.2021	23:06:07	0	0	2,93753	3,672	70,8516	0,22	75,032	3,5	1007,32	6,6	8,6	8,5	1	1	1	1	1	1	1	1	1	0	1	-55,109232	273,969084	264,330762	0
14.01.2021	23:06:08	0	0	4,632259	3,6375	82,9656	0,21	75,03	3,5	1007,22	6,6	8,7	8,5	1	1	1	1	1	1	1	1	1	0	1	-59,196617	274,110413	260,903027	0
14.01.2021	23:06:09	0	0	4,632287	3,47625	86,6556	0,212	75,033	3,5	1007,2	6,6	8,6	8,4	1	1	1	1	1	1	1	1	1	0	1	-57,223397	274,085046	262,757774	0
14.01.2021	23:06:10	0	0	4,406295	3,24675	91,4904	0,213	75,041	3,5	1007,38	6,6	8,7	8,5	1	1	1	1	1	1	1	1	1	0	1	-57,716702	274,140298	262,522566	0
14.01.2021	23:06:11	0	0	3,163494	3,18075	76,8384	0,206	75,03	3,5	1007,26	6,6	8,6	8,5	1	1	1	1	1	1	1	1	1	0	1	-57,223397	273,986879	262,299599	0
14.01.2021	23:06:12	0	0	2,485602	3,237	92,3508	0,208	75,037	3,5	1007,22	6,6	8,6	8,5	1	1	1	1	1	1	1	1	1	0	1	-53,065539	273,99133	266,478222	0
14.01.2021	23:06:13	0	0	4,745241	3,27225	91,1664	0,209	75,037	3,5	1007,18	6,6	8,7	8,5	1	1	1	1	1	1	1	1	1	0	1	-55,813953	274,06865	264,090658	0
14.01.2021	23:06:14	0	0	4,632259	3,19875	74,5344	0,226	75,042	3,5	1007,22	6,6	8,7	8,5	1	1	1	1	1	1	1	1	1	0	1	-54,615927	274,135813	265,602381	0
14.01.2021	23:06:15	0	0	3,841362	3,15075	74,538	0,21	75,056	3,5	1007,2	6,6	8,6	8,6	1	1	1	1	1	1	1	1	1	0	1	-54,122622	273,989846	265,414217	0
14.01.2021	23:06:16	0	0	2,598569	3,0195	83,358	0,209	75,084	3,5	1007,26	6,6	8,6	8,6	1	1	1	1	1	1	1	1	1	0	1	-56,730092	273,964638	262,689167	0
14.01.2021	23:06:17	0	0	3,728403	2,937	69,4656	0,207	75,087	3,5	1007,2	6,6	8,7	8,5	1	1	1	1	1	1	1	1	1	0	1	-54,897815	274,086537	265,090319	0
14.01.2021	23:06:18	0	0	2,37262	2,81925	64,2528	0,208	75,101	3,5	1007,1	6,6	8,6	8,5	1	1	1	1	1	1	1	1	1	0	1	-57,505285	274,119373	262,636219	0
14.01.2021	23:06:19	0	0	4,745212	2,86275	55,1628	0,205	75,11	3,5	1007,24	6,6	8,7	8,6	1	1	1	1	1	1	1	1	1	0	1	-55,250176	273,986879	264,27282	0
14.01.2021	23:06:20	0	0	4,519277	3,1215	70,2216	0,201	75,1	3,5	1007,28	6,7	8,6	8,5	1	1	1	1	1	1	1	1	1	0	1	-56,236786	274,088029	263,758313	0
14.01.2021	23:06:21	0	0	3,502419	3,37125	64,6236	0,205	75,128	3,5	1007,22	6,7	8,6	8,6	1	1	1	1	1	1	1	1	1	0	1	-56,589147	273,976497	262,88542	0
14.01.2021	23:06:22	0	0	3,050512	3,48075	59,4864	0,202	75,111	3,5	1007,12	6,6	8,6	8,5	1	1	1	1	1	1	1	1	1	0	1	-51,515152	273,982429	267,987085	0
14.01.2021	23:06:23	0	0	2,485587	3,549	67,68	0,202	75,134	3,5	1007,08	6,6	8,6	8,6	1	1	1	1	1	1	1	1	1	0	1	-54,052149	274,122361	266,103313	0
14.01.2021	23:06:24	0	0	4,067349	3,40425	75,996	0,201	75,132	3,5	1007,18	6,6	8,6	8,5	1	1	1	1	1	1	1	1	1	0	1	-58,280479	274,156756	262,035693	0
14.01.2021	23:06:25	0	0	4,632259	3,1845	60,9552	0,204	75,154	3,5	1007,2	6,7	8,6	8,5	1	1	1	1	1	1	1	1	1	0	1	-52,78365	274,031438	266,947256	0
14.01.2021	23:06:26	0	0	2,598584	3,09975	69,9336	0,205	75,157	3,5	1007,3	6,6	8,7	8,5	1	1	1	1	1	1	1	1	1	0	1	-55,602537	274,144785	264,657697	0
14.01.2021	23:06:27	0	0	3,163475	3,1155	63,1584	0,203	75,182	3,5	1007,4	6,7	8,6	8,6	1	1	1	1	1	1	1	1	1	0	1	-56,166314	273,994298	263,391293	0
14.01.2021	23:06:28	0	0	4,406295	3,1605	62,7948	0,202	75,166	3,5	1007,22	6,6	8,7	8,5	1	1	1	1	1	1	1	1	1	0	1	-54,122622	274,093995	265,900342	0
14.01.2021	23:06:29	0	0	3,615421	3,294	75,24	0,201	75,178	3,5	1007,26	6,7	8,6	8,5	1	1	1	1	1	1	1	1	1	0	1	-52,219873	273,95723	267,164838	0
14.01.2021	23:06:30	0	0	3,6154	3,399	58,878	0,202	75,172	3,5	1007,34	6,6	8,6	8,6	1	1	1	1	1	1	1	1	1	0	1	-52,924595	274,022518	266,764683	0
14.01.2021	23:06:31	0	0	3,615421	3,6015	64,656	0,201	75,178	3,5	1007,44	6,6	8,7	8,5	1	1	1	1	1	1	1	1	1	0	1	-53,840733	274,128339	266,342654	0
14.01.2021	23:06:32	0	0	4,745212	4,04475	56,6676	0,205	75,185	3,5	1007,42	6,6	8,6	8,6	1	1	1	1	1	1	1	1	1	0	1	-53,206483	273,96612	266,219686	0
14.01.2021	23:06:33	0	0	4,632259	4,2105	40,248	0,201	75,202	3,5	1007,22	6,6	8,6	8,5	1	1	1	1	1	1	1	1	1	0	1	-54,334038	273,99133	265,209723	0
14.01.2021	23:06:34	0	0	3,841362	3,8505	35,532	0,2	75,196	3,5	1007,2	6,6	8,7	8,6	1	1	1	1	1	1	1	1	1	0	1	-56,377731	273,977979	263,103753	0
14.01.2021	23:06:35	0	0	3,389458	3,6015	35,0892	0,206	75,22	3,5	1007,28	6,6	8,7	8,5	1	1	1	1	1	1	1	1	1	0	1	-54,334038	274,152266	265,961152	0
14.01.2021	23:06:36	0	0	4,293287	3,522	35,4852	0,199	75,228	3,5	1007,2	6,7	8,7	8,6	1	1	1	1	1	1	1	1	1	0	1	-53,276956	274,095487	266,752976	0
14.01.2021	23:06:37	0	0	3,954367	3,4995	39,2544	0,203	75,24	3,5	1007,24	6,7	8,6	8,5	1	1	1	1	1	1	1	1	1	0	1	-53,136011	274,11788	266,998515	0
14.01.2021	23:06:38	0	0	4,293313	3,327	37,3176	0,204	75,259	3,5	1007,22	6,6	8,6	8,5	1	1	1	1	1	1	1	1	1	0	1	-56,02537	273,963156	263,386978	0
14.01.2021	23:06:39	0	0	3,502419	3,23475	34,3332	0,203	75,258	3,5	1007,2	6,7	8,7	8,6	1	1	1	1	1	1	1	1	1	0	1	-56,095842	274,012117	263,544898	0
14.01.2021	23:06:40	0	0	4,51925	3,09375	32,1588	0,204	75,276	3,5	1007,26	6,7	8,6	8,6	1	1	1	1	1	1	1	1	1	0	1	-56,941508	274,14329	263,311736	0
14.01.2021	23:06:41	0	0	3,050494	3,07575	52,9056	0,206	75,281	3,5	1007,2	6,7	8,6	8,6	1	1	1	1	1	1	1	1	1	0	1	-54,193094	273,983912	265,316062	0
14.01.2021	23:06:42	0	0	2,71155	3,08925	59,1048	0,209	75,279	3,5	1007,24	6,6	8,7	8,6	1	1	1	1	1	1	1	1	1	0	1	-58,773784	274,105934	261,304939	0
14.01.2021	23:06:43	0	0	3,728381	2,91675	71,6076	0,205	75,272	3,5	1007,1	6,7	8,6	8,6	1	1	1	1	1	1	1	1	1	0	1	-60,747005	274,15077	259,541193	0
14.01.2021	23:06:44	0	0	4,293313	2,63475	82,332	0,2	75,282	3,5	1007,24	6,6	8,7	8,5	1	1	1	1	1	1	1	1	1	0	1	-50,035236	273,983912	269,47392	0
14.01.2021	23:06:45	0	0	4,293313	2,46525	65,826	0,202	75,265	3,5	1007,08	6,6	8,6	8,5	1	1	1	1	1	1	1	1	1	0	1	-53,206483	274,046314	266,593857	0
14.01.2021	23:06:46	0	0	3,050494	2,358	52,5168	0,205	75,274	3,5	1007,14	6,7	8,6	8,6	1	1	1	1	1	1	1	1	1	0	1	-53,4179	273,963156	265,994448	0
14.01.2021	23:06:47	0	0	4,51925	2,4435	63,1872	0,207	75,272	3,5	1007,18	6,7	8,6	8,6	1	1	1	1	1	1	1	1	1	0	1	-53,136011	274,123856	267,026431	0
14.01.2021	23:06:48	0	0	4,745241	2,4675	59,652	0,204	75,272	3,5	1007,22	6,7	8,7	8,5	1	1	1	1	1	1	1	1	1	0	1	-54,756871	274,031438	264,974036	0
14.01.2021	23:06:49	0	0	2,71155	2,745	56,2896	0,197	75,258	3,5	1007,16	6,7	8,7	8,6	1	1	1	1	1	1	1	1	1	0	1	-55,109232	274,144785	265,151002	0
14.01.2021	23:06:50	0	0	3,276495	2,97075	61,6716	0,201	75,262	3,5	1007,2	6,6	8,7	8,4	1	1	1	1	1	1	1	1	1	0	1	-52,290345	273,980945	267,204973	0
14.01.2021	23:06:51	0	0	3,954344	3,0375	67,2912	0,203	75,255	3,5	1007,22	6,6	8,7	8,6	1	1	1	1	1	1	1	1	1	0	1	-54,193094	274,01806	265,475379	0
14.01.2021	23:06:52	0	0	2,824548	3,08625	64,7172	0,204	75,25	3,5	1007,38	6,6	8,6	8,5	1	1	1	1	1	1	1	1	1	0	1	-53,840733	273,946863	265,49564	0
14.01.2021	23:06:53	0	0	4,51925	2,94675	70,2036	0,2	75,234	3,5	1007,44	6,6	8,6	8,6	1	1	1	1	1	1	1	1	1	0	1	-55,532065	274,016574	264,129474	0
14.01.2021	23:06:54	0	0	4,293287	2,69175	62,0424	0,203	75,229	3,5	1007,1	6,7	8,7	8,6	1	1	1	1	1	1	1	1	1	0	1	-56,659619	274,107427	263,426077	0
14.01.2021	23:06:55	0	0	4,519277	2,6385	67,2948	0,206	75,237	3,5	1007,3	6,7	8,6	8,5	1	1	1	1	1	1	1	1	1	0	1	-56,166314	274,144785	264,09392	0
14.01.2021	23:06:56	0	0	2,37262	2,59125	59,4828	0,205	75,235	3,5	1007,26	6,7	8,7	8,5	1	1	1	1	1	1	1	1	1	0	1	-54,968288	274,019546	264,707119	0
14.01.2021	23:06:57	0	0	3,728381	2,45625	66,5244	0,206	75,223	3,5	1007,22	6,6	8,6	8,6	1	1	1	1	1	1	1	1	1	0	1	-51,021846	273,988363	268,50807	0
14.01.2021	23:06:58	0	0	3,163494	2,382	68,0148	0,2	75,202	3,5	1007,12	6,6	8,6	8,5	1	1	1	1	1	1	1	1	1	0	1	-56,236786	273,997267	263,33467	0
14.01.2021	23:06:59	0	0	2,711566	2,616	74,1384	0,213	75,199	3,5	1007,34	6,6	8,7	8,5	1	1	1	1	1	1	1	1	1	0	1	-54,263566	274,079082	265,689756	0
14.01.2021	23:07:00	0	0	3,389458	3,05775	75,2292	0,206	75,199	3,5	1007,24	6,7	8,7	8,5	1	1	1	1	1	1	1	1	1	0	1	-55,954898	273,973531	263,505838	0
14.01.2021	23:07:01	0	0	3,389458	3,05775	75,2292	0,206	75,199	3,5	1007,24	6,7	8,7	8,5	1	1	1	1	1	1	1	1	1	0	1	-55,954898	273,973531	263,505838	0
14.01.2021	23:07:02	0	0	4,745212	3,02325	64,2312	0,202	75,202	3,5	1007,28	6,7	8,7	8,6	1	1	1	1	1	1	1	1	1	0	1	-55,602537	274,093995	264,420427	0
14.01.2021	23:07:03	0	0	4,745212	2,97525	69,1632	0,204	75,195	3,5	1007,24	6,6	8,8	8,6	1	1	1	1	1	1	1	1	1	0	1	-54,756871	273,958711	264,634748	0
14.01.2021	23:07:04	0	0	3,050494	3,05325	57,7224	0,208	75,199	3,5	1007,3	6,6	8,6	8,6	1	1	1	1	1	1	1	1	1	0	1	-54,052149	274,052268	265,775982	0
14.01.2021	23:07:05	0	0	4,180306	3,06825	64,6344	0,202	75,2	3,5	1007,26	6,6	8,6	8,6	1	1	1	1	1	1	1	1	1	0	1	-52,78365	273,970566	266,663257	0
14.01.2021	23:07:06	0	0	4,745241	3,0285	66,2328	0,202	75,197	3,5	1007,28	6,6	8,6	8,5	1	1	1	1	1	1	1	1	1	0	1	-53,4179	273,979462	266,070501	0
14.01.2021	23:07:07	0	0	3,050494	3,05775	62,7804	0,2	75,196	3,5	1007,2	6,7	8,7	8,6	1	1	1	1	1	1	1	1	1	0	1	-56,730092	274,019546	262,945315	0
14.01.2021	23:07:08	0	0	2,485587	3,348	61,6932	0,203	75,198	3,5	1007,14	6,6	8,6	8,6	1	1	1	1	1	1	1	1	1	0	1	-53,558844	273,998751	266,019538	0
14.01.2021	23:07:09	0	0	4,406268	3,29025	58,4892	0,204	75,221	3,5	1007,18	6,7	8,6	8,6	1	1	1	1	1	1	1	1	1	0	1	-55,673009	273,979462	263,815391	0
14.01.2021	23:07:10	0	0	3,050494	3,18825	61,2972	0,225	75,233	3,5	1007,4	6,6	8,6	8,6	1	1	1	1	1	1	1	1	1	0	1	-53,770261	273,992814	265,780423	0
14.01.2021	23:07:11	0	0	3,276476	3,19425	58,86	0,208	75,218	3,5	1007,34	6,6	8,7	8,5	1	1	1	1	1	1	1	1	1	0	1	-53,699789	274,105934	266,378935	0
14.01.2021	23:07:12	0	0	3,502419	3,32475	65,0952	0,209	75,24	3,5	1007,26	6,6	8,7	8,6	1	1	1	1	1	1	1	1	1	0	1	-52,219873	274,164241	268,131282	0
14.01.2021	23:07:13	0	0	4,971175	3,35775	63,4608	0,202	75,231	3,5	1007,42	6,6	8,6	8,6	1	1	1	1	1	1	1	1	1	0	1	-54,968288	274,059713	264,894598	0
14.01.2021	23:07:14	0	0	3,050494	3,387	63,4824	0,206	75,221	3,5	1007,22	6,7	8,7	8,6	1	1	1	1	1	1	1	1	1	0	1	-55,954898	274,149273	264,326308	0
14.01.2021	23:07:15	0	0	3,389458	3,4905	61,7544	0,208	75,239	3,5	1007,24	6,7	8,7	8,5	1	1	1	1	1	1	1	1	1	0	1	-55,813953	274,016574	263,847585	0
14.01.2021	23:07:16	0	0	3,841362	3,51825	69,4908	0,202	75,245	3,5	1007,3	6,7	8,7	8,6	1	1	1	1	1	1	1	1	1	0	1	-53,629316	274,028464	266,087712	0
14.01.2021	23:07:17	0	0	2,937512	3,528	68,778	0,211	75,242	3,5	1007,28	6,7	8,6	8,6	1	1	1	1	1	1	1	1	1	0	1	-58,280479	273,973531	261,180257	0
14.01.2021	23:07:18	0	0	5,084156	3,5625	63,1764	0,202	75,22	3,5	1007,32	6,7	8,6	8,6	1	1	1	1	1	1	1	1	1	0	1	-58,210007	274,110413	261,889638	0
14.01.2021	23:07:19	0	0	4,745212	3,59325	70,2216	0,211	75,247	3,5	1007,4	6,6	8,7	8,6	1	1	1	1	1	1	1	1	1	0	1	-54,686399	274,162743	265,657759	0
14.01.2021	23:07:20	0	0	2,71155	3,34575	66,2328	0,206	75,254	3,5	1007,34	6,7	8,7	8,6	1	1	1	1	1	1	1	1	1	0	1	-53,558844	274,006175	266,054175	0
14.01.2021	23:07:21	0	0	3,6154	3,17325	69,8508	0,203	75,256	3,5	1007,26	6,7	8,6	8,6	1	1	1	1	1	1	1	1	1	0	1	-51,585624	274,155259	268,723554	0
14.01.2021	23:07:22	0	0	4,971205	3,057	63,1908	0,198	75,257	3,5	1007,28	6,7	8,6	8,5	1	1	1	1	1	1	1	1	1	0	1	-55,743481	274,056734	264,105501	0
14.01.2021	23:07:23	0	0	3,050512	3,03375	59,49	0,207	75,271	3,5	1007,36	6,7	8,7	8,5	1	1	1	1	1	1	1	1	1	0	1	-56,02537	274,153762	264,276814	0
14.01.2021	23:07:24	0	0	2,259625	2,9445	60,948	0,202	75,268	3,5	1007,28	6,7	8,6	8,6	1	1	1	1	1	1	1	1	1	0	1	-56,941508	274,01806	262,726964	0
14.01.2021	23:07:25	0	0	4,745212	2,8845	60,2352	0,201	75,276	3,5	1007,42	6,7	8,6	8,6	1	1	1	1	1	1	1	1	1	0	1	-55,391121	274,029951	264,332847	0
14.01.2021	23:07:26	0	0	4,293313	2,82375	45,1764	0,202	75,276	3,5	1007,28	6,7	8,6	8,5	1	1	1	1	1	1	1	1	1	0	1	-55,743481	274,00469	263,862609	0
14.01.2021	23:07:27	0	0	3,163494	2,69925	57,7224	0,206	75,297	3,5	1007,22	6,6	8,8	8,5	1	1	1	1	1	1	1	1	1	0	1	-55,743481	274,102948	264,321299	0
14.01.2021	23:07:28	0	0	4,632231	2,5875	60,93	0,206	75,284	3,5	1007,26	6,7	8,6	8,6	1	1	1	1	1	1	1	1	1	0	1	-56,02537	274,159749	264,304794	0
14.01.2021	23:07:29	0	0	4,632259	2,59425	73,1448	0,208	75,279	3,5	1007,28	6,7	8,6	8,5	1	1	1	1	1	1	1	1	1	0	1	-55,320648	274,059713	264,542237	0
14.01.2021	23:07:30	0	0	2,711566	2,7045	59,8608	0,208	75,295	3,5	1007,28	6,7	8,7	8,5	1	1	1	1	1	1	1	1	1	0	1	-53,4179	273,969084	266,022094	0
14.01.2021	23:07:31	0	0	4,180331	2,86425	68,418	0,209	75,285	3,5	1007,38	6,7	8,6	8,5	1	1	1	1	1	1	1	1	1	0	1	-53,911205	274,040363	265,861354	0
14.01.2021	23:07:32	0	0	3,728381	3,0105	83,7504	0,207	75,284	3,5	1007,36	6,7	8,6	8,6	1	1	1	1	1	1	1	1	1	0	1	-57,716702	274,00469	261,889388	0
14.01.2021	23:07:33	0	0	4,632231	3,3975	74,9124	0,21	75,269	3,5	1007,16	6,6	8,6	8,6	1	1	1	1	1	1	1	1	1	0	1	-57,01198	274,171729	263,374174	0
14.01.2021	23:07:34	0	0	3,728381	3,4815	61,6968	0,212	75,275	3,5	1007,26	6,6	8,7	8,6	1	1	1	1	1	1	1	1	1	0	1	-54,897815	274,058223	264,958118	0
14.01.2021	23:07:35	0	0	2,598584	3,447	65,4552	0,206	75,275	3,5	1007,6	6,7	8,7	8,5	1	1	1	1	1	1	1	1	1	0	1	-54,545455	274,176223	265,861708	0
14.01.2021	23:07:36	0	0	3,728381	3,486	69,156	0,21	75,257	3,5	1007,24	6,7	8,6	8,6	1	1	1	1	1	1	1	1	1	0	1	-57,152925	274,009146	262,473954	0
14.01.2021	23:07:37	0	0	4,51925	3,45375	71,2188	0,212	75,272	3,5	1007,26	6,7	8,7	8,6	1	1	1	1	1	1	1	1	1	0	1	-55,813953	274,01806	263,854519	0
14.01.2021	23:07:38	0	0	2,93753	3,24075	70,6032	0,206	75,28	3,5	1007,26	6,6	8,6	8,5	1	1	1	1	1	1	1	1	1	0	1	-55,03876	274,001721	264,553475	0
14.01.2021	23:07:39	0	0	4,745212	3,3255	68,4	0,211	75,274	3,5	1007,22	6,6	8,7	8,6	1	1	1	1	1	1	1	1	1	0	1	-54,263566	274,170231	266,115588	0
14.01.2021	23:07:40	0	0	3,615421	3,4815	71,9892	0,203	75,277	3,5	1007,22	6,7	8,8	8,5	1	1	1	1	1	1	1	1	1	0	1	-56,800564	274,15077	263,487634	0
14.01.2021	23:07:41	0	0	4,745212	3,855	83,7324	0,207	75,262	3,5	1007,34	6,7	8,7	8,6	1	1	1	1	1	1	1	1	1	0	1	-58,562368	274,119373	261,579136	0
14.01.2021	23:07:42	0	0	3,502419	4,05225	88,9776	0,207	75,278	3,5	1007,48	6,7	8,7	8,6	1	1	1	1	1	1	1	1	1	0	1	-56,166314	274,147777	264,1079	0
14.01.2021	23:07:43	0	0	4,745212	4,26525	90,0288	0,215	75,26	3,5	1007,36	6,7	8,6	8,6	1	1	1	1	1	1	1	1	1	0	1	-56,589147	274,104441	263,482604	0
14.01.2021	23:07:44	0	0	4,406268	4,308	78,66	0,21	75,251	3,5	1007,12	6,6	8,6	8,6	1	1	1	1	1	1	1	1	1	0	1	-54,545455	274,120867	265,603028	0
14.01.2021	23:07:45	0	0	3,276476	4,22475	63,1728	0,21	75,249	3,5	1007,26	6,7	8,6	8,5	1	1	1	1	1	1	1	1	1	0	1	-55,03876	273,997267	264,532697	0
14.01.2021	23:07:46	0	0	2,824548	4,26	73,0584	0,21	75,226	3,5	1007,22	6,7	8,7	8,5	1	1	1	1	1	1	1	1	1	0	1	-53,347428	274,06567	266,543273	0
14.01.2021	23:07:47	0	0	3,389437	4,09725	81,594	0,215	75,214	3,5	1007,38	6,7	8,8	8,6	1	1	1	1	1	1	1	1	1	0	1	-54,827343	274,170231	265,55181	0
14.01.2021	23:07:48	0	0	2,711566	4,07625	71,5896	0,207	75,217	3,5	1007,2	6,7	8,7	8,5	1	1	1	1	1	1	1	1	1	0	1	-53,911205	274,06716	265,986451	0
14.01.2021	23:07:49	0	0	3,6154	3,81525	89,6976	0,212	75,197	3,5	1007,14	6,7	8,7	8,6	1	1	1	1	1	1	1	1	1	0	1	-54,474982	274,168733	265,897171	0
14.01.2021	23:07:50	0	0	3,954367	3,49275	80,8704	0,214	75,208	3,5	1007,42	6,6	8,6	8,5	1	1	1	1	1	1	1	1	1	0	1	-57,364341	274,138803	262,867939	0
14.01.2021	23:07:51	0	0	4,406295	3,06	49,9536	0,211	75,197	3,5	1007,26	6,7	8,7	8,5	1	1	1	1	1	1	1	1	1	0	1	-54,40451	274,010631	265,229299	0
14.01.2021	23:07:52	0	0	3,050494	2,622	84,0168	0,216	75,221	3,5	1007,18	6,7	8,6	8,6	1	1	1	1	1	1	1	1	1	0	1	-52,995067	274,028464	266,721961	0
14.01.2021	23:07:53	0	0	3,728403	2,59725	68,7708	0,221	75,229	3,5	1007,22	6,7	8,6	8,5	1	1	1	1	1	1	1	1	1	0	1	-54,263566	274,11788	265,87096	0
14.01.2021	23:07:54	0	0	2,71155	2,5815	67,302	0,218	75,227	3,5	1007,14	6,7	8,6	8,6	1	1	1	1	1	1	1	1	1	0	1	-55,673009	274,00469	263,933081	0
14.01.2021	23:07:55	0	0	3,954344	2,60475	73,4184	0,221	75,241	3,5	1007,12	6,7	8,6	8,6	1	1	1	1	1	1	1	1	1	0	1	-54,756871	274,111906	265,349749	0
14.01.2021	23:07:56	0	0	2,598584	2,7135	70,2144	0,218	75,237	3,5	1007,14	6,7	8,6	8,5	1	1	1	1	1	1	1	1	1	0	1	-55,109232	274,000236	264,476076	0
14.01.2021	23:07:57	0	0	2,711566	2,71275	73,782	0,218	75,236	3,5	1007,36	6,7	8,6	8,5	1	1	1	1	1	1	1	1	1	0	1	-56,236786	274,076101	263,702615	0
14.01.2021	23:07:58	0	0	2,711566	2,688	71,9748	0,218	75,232	3,5	1007,32	6,7	8,6	8,5	1	1	1	1	1	1	1	1	1	0	1	-53,840733	274,013602	265,80694	0
14.01.2021	23:07:59	0	0	4,971175	2,5875	88,5816	0,217	75,22	3,5	1007,28	6,7	8,7	8,6	1	1	1	1	1	1	1	1	1	0	1	-55,109232	274,15077	265,178966	0
14.01.2021	23:08:00	0	0	4,293313	2,3925	46,2024	0,218	75,223	3,5	1007,22	6,7	8,7	8,5	1	1	1	1	1	1	1	1	1	0	1	-53,629316	274,159749	266,700847	0
14.01.2021	23:08:01	0	0	4,293313	2,3925	46,2024	0,218	75,223	3,5	1007,22	6,7	8,7	8,5	1	1	1	1	1	1	1	1	1	0	1	-53,629316	274,159749	266,700847	0
14.01.2021	23:08:02	0	0	4,51925	2,247	51,7464	0,213	75,224	3,5	1007,22	6,7	8,6	8,6	1	1	1	1	1	1	1	1	1	0	1	-59,055673	274,086537	260,932462	0
14.01.2021	23:08:03	0	0	3,050494	2,24775	55,5516	0,218	75,223	3,5	1007,32	6,7	8,7	8,6	1	1	1	1	1	1	1	1	1	0	1	-51,515152	274,173227	268,878005	0
14.01.2021	23:08:04	0	0	4,632231	2,223	51,0588	0,223	75,221	3,5	1007,28	6,7	8,6	8,6	1	1	1	1	1	1	1	1	1	0	1	-51,937984	274,156756	268,378188	0
14.01.2021	23:08:05	0	0	4,971175	2,415	65,4768	0,224	75,222	3,5	1007,18	6,7	8,8	8,6	1	1	1	1	1	1	1	1	1	0	1	-54,756871	274,050779	265,064312	0
14.01.2021	23:08:06	0	0	3,50244	2,7315	57,1104	0,226	75,204	3,5	1007,44	6,7	8,7	8,5	1	1	1	1	1	1	1	1	1	0	1	-53,488372	274,028464	266,228656	0
14.01.2021	23:08:07	0	0	4,971205	2,9025	58,86	0,224	75,194	3,5	1007,42	6,7	8,6	8,5	1	1	1	1	1	1	1	1	1	0	1	-52,078929	274,141794	268,167327	0
14.01.2021	23:08:08	0	0	4,067325	2,8995	69,48	0,221	75,178	3,5	1007,12	6,7	8,6	8,6	1	1	1	1	1	1	1	1	1	0	1	-52,360817	274,191211	268,116413	0
14.01.2021	23:08:09	0	0	5,197137	2,784	63,8532	0,217	75,182	3,5	1007,28	6,7	8,7	8,6	1	1	1	1	1	1	1	1	1	0	1	-52,008457	274,092503	268,00754	0
14.01.2021	23:08:10	0	0	4,406295	2,75475	54,792	0,219	75,188	3,5	1007,26	6,7	8,8	8,5	1	1	1	1	1	1	1	1	1	0	1	-54,334038	274,17922	266,087133	0
14.01.2021	23:08:11	0	0	5,423132	2,76975	62,7876	0,222	75,185	3,5	1007,28	6,7	8,6	8,5	1	1	1	1	1	1	1	1	1	0	1	-52,572234	274,098471	267,471635	0
14.01.2021	23:08:12	0	0	3,50244	2,7975	55,1808	0,223	75,192	3,5	1007,32	6,7	8,6	8,5	1	1	1	1	1	1	1	1	1	0	1	-51,79704	274,176223	268,610122	0
14.01.2021	23:08:13	0	0	4,745241	2,721	49,9428	0,222	75,202	3,5	1007,36	6,7	8,6	8,5	1	1	1	1	1	1	1	1	1	0	1	-55,673009	274,022518	264,016269	0
14.01.2021	23:08:14	0	0	2,711566	2,7555	45,1512	0,221	75,207	3,5	1007,28	6,7	8,6	8,5	1	1	1	1	1	1	1	1	1	0	1	-52,572234	274,06716	267,325422	0
14.01.2021	23:08:15	0	0	4,971205	2,76075	52,8912	0,218	75,216	3,5	1007,14	6,7	8,7	8,5	1	1	1	1	1	1	1	1	1	0	1	-51,585624	274,170231	268,79353	0
14.01.2021	23:08:16	0	0	3,050512	2,68425	46,5876	0,226	75,206	3,5	1007,34	6,7	8,6	8,5	1	1	1	1	1	1	1	1	1	0	1	-54,827343	273,997267	264,744113	0
14.01.2021	23:08:17	0	0	3,163494	2,75175	48,492	0,225	75,206	3,5	1007,48	6,7	8,6	8,5	1	1	1	1	1	1	1	1	1	0	1	-59,196617	274,15077	261,091581	0
14.01.2021	23:08:18	0	0	4,067325	3,0195	43,668	0,222	75,198	3,5	1007,14	6,7	8,6	8,6	1	1	1	1	1	1	1	1	1	0	1	-56,236786	274,19421	264,254465	0
14.01.2021	23:08:19	0	0	3,615421	3,261	53,3448	0,227	75,196	3,5	1007,28	6,7	8,6	8,5	1	1	1	1	1	1	1	1	1	0	1	-55,884426	274,126844	264,291979	0
14.01.2021	23:08:20	0	0	3,163494	3,255	54,882	0,224	75,186	3,5	1007,62	6,7	8,7	8,5	1	1	1	1	1	1	1	1	1	0	1	-53,4179	274,019546	266,257507	0
14.01.2021	23:08:21	0	0	3,841385	3,132	66,8988	0,228	75,177	3,5	1007,38	6,7	8,6	8,5	1	1	1	1	1	1	1	1	1	0	1	-55,673009	274,07014	264,238559	0
14.01.2021	23:08:22	0	0	2,711566	2,95425	67,2876	0,226	75,178	3,5	1007,24	6,7	8,6	8,5	1	1	1	1	1	1	1	1	1	0	1	-54,052149	274,012117	265,588591	0
14.01.2021	23:08:23	0	0	3,954367	2,75175	61,6896	0,219	75,162	3,5	1007,36	6,7	8,7	8,5	1	1	1	1	1	1	1	1	1	0	1	-58,069063	274,14329	262,184182	0
14.01.2021	23:08:24	0	0	4,632259	2,82375	57,7368	0,227	75,157	3,5	1007,14	6,7	8,8	8,5	1	1	1	1	1	1	1	1	1	0	1	-57,364341	274,031438	262,366566	0
14.01.2021	23:08:25	0	0	3,954367	3,10575	48,1248	0,222	75,159	3,5	1007,28	6,7	8,6	8,5	1	1	1	1	1	1	1	1	1	0	1	-54,968288	274,021032	264,714055	0
14.01.2021	23:08:26	0	0	2,937512	3,378	55,926	0,225	75,149	3,5	1007,4	6,7	8,7	8,6	1	1	1	1	1	1	1	1	1	0	1	-54,193094	274,11788	265,941432	0
14.01.2021	23:08:27	0	0	3,50244	3,34275	55,9404	0,225	75,15	3,5	1007,28	6,7	8,6	8,5	1	1	1	1	1	1	1	1	1	0	1	-56,236786	274,00469	263,369304	0
14.01.2021	23:08:28	0	0	3,050494	3,05475	46,2312	0,227	75,143	3,5	1007,3	6,7	8,6	8,6	1	1	1	1	1	1	1	1	1	0	1	-57,928118	274,082064	262,039127	0
14.01.2021	23:08:29	0	0	3,050512	3,057	62,424	0,224	75,132	3,5	1007,34	6,7	8,8	8,5	1	1	1	1	1	1	1	1	1	0	1	-54,827343	274,168733	265,54481	0
14.01.2021	23:08:30	0	0	4,632259	3,26925	65,8404	0,223	75,131	3,5	1007,28	6,7	8,7	8,5	1	1	1	1	1	1	1	1	1	0	1	-59,055673	274,146281	261,211551	0
14.01.2021	23:08:31	0	0	2,711566	3,6315	71,6004	0,225	75,126	3,5	1007,24	6,7	8,6	8,5	1	1	1	1	1	1	1	1	1	0	1	-56,800564	274,107427	263,285133	0
14.01.2021	23:08:32	0	0	3,163475	3,66975	46,2348	0,224	75,124	3,5	1007,38	6,7	8,8	8,6	1	1	1	1	1	1	1	1	1	0	1	-49,753347	274,003205	269,845815	0
14.01.2021	23:08:33	0	0	4,406295	3,4815	55,53	0,226	75,114	3,5	1007,26	6,7	8,7	8,5	1	1	1	1	1	1	1	1	1	0	1	-58,280479	274,055245	261,561552	0
14.01.2021	23:08:34	0	0	3,728403	3,78825	57,51	0,223	75,118	3,5	1007,26	6,7	8,6	8,5	1	1	1	1	1	1	1	1	1	0	1	-52,924595	274,001721	266,66764	0
14.01.2021	23:08:35	0	0	4,519277	4,053	62,5248	0,223	75,12	3,5	1007,48	6,7	8,6	8,5	1	1	1	1	1	1	1	1	1	0	1	-54,756871	274,138803	265,475409	0
14.01.2021	23:08:36	0	0	2,824531	4,548	69,84	0,225	75,101	3,5	1007,22	6,7	8,6	8,6	1	1	1	1	1	1	1	1	1	0	1	-57,223397	274,105934	262,855327	0
14.01.2021	23:08:37	0	0	4,293287	4,959	75,222	0,224	75,099	3,5	1007,28	6,7	8,6	8,6	1	1	1	1	1	1	1	1	1	0	1	-54,827343	274,183716	265,614845	0
14.01.2021	23:08:38	0	0	4,858223	5,409	69,4836	0,229	75,112	3,5	1007,26	6,7	8,7	8,5	1	1	1	1	1	1	1	1	1	0	1	-56,377731	274,049291	263,436504	0
14.01.2021	23:08:39	0	0	4,745241	5,3325	79,0272	0,23	75,109	3,5	1007,28	6,7	8,8	8,5	1	1	1	1	1	1	1	1	1	0	1	-52,78365	274,19571	267,714613	0
14.01.2021	23:08:40	0	0	4,971205	4,32375	75,5928	0,224	75,109	3,5	1007,08	6,7	8,7	8,5	1	1	1	1	1	1	1	1	1	0	1	-57,857646	274,107427	262,228051	0
14.01.2021	23:08:41	0	0	4,180331	3,747	65,466	0,224	75,106	3,5	1007,34	6,7	8,8	8,5	1	1	1	1	1	1	1	1	1	0	1	-55,532065	274,171729	264,85409	0
14.01.2021	23:08:42	0	0	3,728403	3,75075	81,2088	0,224	75,108	3,5	1007,14	6,7	8,8	8,5	1	1	1	1	1	1	1	1	1	0	1	-54,686399	274,019546	264,989008	0
14.01.2021	23:08:43	0	0	2,37262	4,24875	66,9276	0,225	75,123	3,5	1007,42	6,7	8,7	8,5	1	1	1	1	1	1	1	1	1	0	1	-57,505285	274,056734	262,343697	0
14.01.2021	23:08:44	0	0	4,180331	4,872	63,504	0,227	75,119	3,5	1007,36	6,7	8,6	8,5	1	1	1	1	1	1	1	1	1	0	1	-56,941508	274,164241	263,409647	0
14.01.2021	23:08:45	0	0	4,745212	5,361	69,1524	0,23	75,167	3,5	1007,26	6,7	8,7	8,6	1	1	1	1	1	1	1	1	1	0	1	-56,518675	274,04185	263,260828	0
14.01.2021	23:08:46	0	0	2,824548	5,3745	71,262	0,229	75,122	3,5	1007,24	6,7	8,7	8,5	1	1	1	1	1	1	1	1	1	0	1	-60,747005	274,052268	259,081127	0
14.01.2021	23:08:47	0	0	2,37262	5,27475	63,4896	0,22	75,125	3,5	1007,3	6,7	8,7	8,5	1	1	1	1	1	1	1	1	1	0	1	-57,364341	274,046314	262,435999	0
14.01.2021	23:08:48	0	0	4,745241	4,94325	68,4072	0,229	75,131	3,5	1007,3	6,7	8,7	8,5	1	1	1	1	1	1	1	1	1	0	1	-54,615927	274,170231	265,763227	0
14.01.2021	23:08:49	0	0	4,971205	4,72575	63,2052	0,224	75,126	3,5	1007,3	6,7	8,7	8,5	1	1	1	1	1	1	1	1	1	0	1	-52,290345	274,06716	267,607311	0
14.01.2021	23:08:50	0	0	3,502419	4,60275	62,4132	0,229	75,117	3,5	1007,34	6,7	8,6	8,6	1	1	1	1	1	1	1	1	1	0	1	-52,572234	273,997267	266,999222	0
14.01.2021	23:08:51	0	0	4,858223	4,50375	53,7372	0,227	75,119	3,5	1007,2	6,7	8,8	8,5	1	1	1	1	1	1	1	1	1	0	1	-56,166314	274,098471	263,877554	0
14.01.2021	23:08:52	0	0	4,632259	5,13675	63,4896	0,225	75,111	3,5	1007,34	6,7	8,7	8,5	1	1	1	1	1	1	1	1	1	0	1	-52,713178	274,001721	266,879057	0
14.01.2021	23:08:53	0	0	4,858223	5,3385	60,246	0,226	75,116	3,5	1007,28	6,7	8,6	8,5	1	1	1	1	1	1	1	1	1	0	1	-60,535588	274,134318	259,675734	0
14.01.2021	23:08:54	0	0	3,050494	5,1015	60,948	0,229	75,12	3,5	1007,34	6,7	8,6	8,6	1	1	1	1	1	1	1	1	1	0	1	-54,052149	274,134318	266,159173	0
14.01.2021	23:08:55	0	0	3,841385	4,93725	68,7816	0,223	75,103	3,5	1007,3	6,7	8,6	8,5	1	1	1	1	1	1	1	1	1	0	1	-53,840733	273,99133	265,703028	0
14.01.2021	23:08:56	0	0	3,389458	4,8255	71,5896	0,225	75,105	3,5	1007,44	6,7	8,7	8,5	1	1	1	1	1	1	1	1	1	0	1	-54,193094	274,092503	265,822903	0
14.01.2021	23:08:57	0	0	3,389458	4,5225	71,2368	0,229	75,105	3,5	1007,32	6,7	8,6	8,5	1	1	1	1	1	1	1	1	1	0	1	-55,250176	274,176223	265,156986	0
14.01.2021	23:08:58	0	0	4,632259	4,662	73,0584	0,228	75,107	3,5	1007,12	6,7	8,6	8,5	1	1	1	1	1	1	1	1	1	0	1	-56,166314	274,053757	263,668767	0
14.01.2021	23:08:59	0	0	4,519277	4,57725	71,9892	0,224	75,097	3,5	1007,22	6,7	8,7	8,5	1	1	1	1	1	1	1	1	1	0	1	-58,421424	273,995783	261,143108	0
14.01.2021	23:09:00	0	0	3,615421	4,605	74,9232	0,225	75,099	3,5	1007,32	6,7	8,8	8,5	1	1	1	1	1	1	1	1	1	0	1	-54,897815	274,174725	265,502344	0
14.01.2021	23:09:01	0	0	3,615421	4,605	74,9232	0,225	75,099	3,5	1007,32	6,7	8,8	8,5	1	1	1	1	1	1	1	1	1	0	1	-54,897815	274,174725	265,502344	0
14.01.2021	23:09:02	0	0	5,197168	4,76925	74,934	0,224	75,072	3,5	1007	6,7	8,7	8,5	1	1	1	1	1	1	1	1	1	0	1	-55,179704	274,15077	265,108494	0
14.01.2021	23:09:03	0	0	3,728403	4,88025	68,4036	0,227	75,095	3,5	1007,34	6,7	8,6	8,5	1	1	1	1	1	1	1	1	1	0	1	-56,02537	273,994298	263,532237	0
14.01.2021	23:09:04	0	0	4,067349	4,92825	69,8544	0,229	75,096	3,5	1007,08	6,7	8,6	8,5	1	1	1	1	1	1	1	1	1	0	1	-52,501762	274,010631	267,132047	0
14.01.2021	23:09:05	0	0	3,50244	4,9155	72,7668	0,229	75,089	3,5	1007,36	6,7	8,7	8,5	1	1	1	1	1	1	1	1	1	0	1	-55,250176	274,07014	264,661392	0
14.01.2021	23:09:06	0	0	3,50244	4,8945	65,4948	0,224	75,071	3,5	1007,18	6,7	8,8	8,5	1	1	1	1	1	1	1	1	1	0	1	-59,055673	274,00469	260,550417	0
14.01.2021	23:09:07	0	0	4,858223	4,70325	66,9168	0,225	75,07	3,5	1007,16	6,7	8,6	8,5	1	1	1	1	1	1	1	1	1	0	1	-60,535588	274,095487	259,494343	0
14.01.2021	23:09:08	0	0	3,841385	4,53525	73,026	0,229	75,077	3,5	1007,4	6,7	8,7	8,5	1	1	1	1	1	1	1	1	1	0	1	-51,374207	273,989846	268,162631	0
14.01.2021	23:09:09	0	0	2,485602	4,428	69,4944	0,227	75,074	3,5	1007,14	6,7	8,6	8,5	1	1	1	1	1	1	1	1	1	0	1	-59,055673	274,056734	260,793309	0
14.01.2021	23:09:10	0	0	2,598584	4,5825	72,306	0,226	75,068	3,5	1007,22	6,7	8,7	8,5	1	1	1	1	1	1	1	1	1	0	1	-54,052149	274,009146	265,574729	0
14.01.2021	23:09:11	0	0	3,50244	4,54875	77,202	0,229	75,083	3,5	1007,44	6,7	8,7	8,5	1	1	1	1	1	1	1	1	1	0	1	-57,857646	274,059713	262,005239	0
14.01.2021	23:09:12	0	0	3,50244	4,4025	72,3096	0,226	75,092	3,5	1007,26	6,7	8,7	8,5	1	1	1	1	1	1	1	1	1	0	1	-51,374207	274,180718	269,053969	0
14.01.2021	23:09:13	0	0	2,259638	4,49475	70,6104	0,219	75,073	3,5	1007,12	6,7	8,8	8,5	1	1	1	1	1	1	1	1	1	0	1	-55,109232	274,056734	264,73975	0
14.01.2021	23:09:14	0	0	4,745212	4,73325	72,2988	0,228	75,088	3,5	1007,42	6,7	8,7	8,6	1	1	1	1	1	1	1	1	1	0	1	-49,894292	273,997267	269,677165	0
14.01.2021	23:09:15	0	0	2,485602	4,50975	67,7448	0,228	75,056	3,5	1007,2	6,7	8,7	8,5	1	1	1	1	1	1	1	1	1	0	1	-54,052149	274,050779	265,769033	0
14.01.2021	23:09:16	0	0	3,050512	4,3485	74,5488	0,223	75,068	3,5	1007,34	6,6	8,7	8,5	1	1	1	1	1	1	1	1	1	0	1	-53,206483	274,021032	266,475859	0
14.01.2021	23:09:17	0	0	3,615421	4,5855	76,3704	0,228	75,049	3,5	1007,3	6,7	8,6	8,5	1	1	1	1	1	1	1	1	1	0	1	-53,981677	274,146281	266,285547	0
14.01.2021	23:09:18	0	0	4,067349	4,76925	74,9124	0,228	75,065	3,5	1007,32	6,7	8,7	8,5	1	1	1	1	1	1	1	1	1	0	1	-51,585624	274,055245	268,256408	0
14.01.2021	23:09:19	0	0	2,259638	4,55025	73,8	0,22	75,049	3,5	1007,2	6,7	8,7	8,5	1	1	1	1	1	1	1	1	1	0	1	-57,293869	274,183716	263,148319	0
14.01.2021	23:09:20	0	0	4,745241	4,37025	74,9304	0,222	75,045	3,5	1007,22	6,7	8,7	8,5	1	1	1	1	1	1	1	1	1	0	1	-57,293869	274,116386	262,833679	0
14.01.2021	23:09:21	0	0	2,711566	4,20975	68,7888	0,232	75,055	3,5	1007,3	6,7	8,6	8,5	1	1	1	1	1	1	1	1	1	0	1	-59,267089	274,013602	260,380583	0
14.01.2021	23:09:22	0	0	4,519277	3,89925	71,6292	0,228	75,041	3,5	1007,32	6,7	8,8	8,5	1	1	1	1	1	1	1	1	1	0	1	-58,773784	274,137308	261,451509	0
14.01.2021	23:09:23	0	0	2,711566	3,79425	77,2308	0,226	75,042	3,5	1007,34	6,7	8,7	8,5	1	1	1	1	1	1	1	1	1	0	1	-58,421424	274,204711	262,118924	0
14.01.2021	23:09:24	0	0	2,598569	3,918	78,2964	0,226	75,045	3,5	1007,46	6,7	8,6	8,6	1	1	1	1	1	1	1	1	1	0	1	-58,985201	274,013602	260,662472	0
14.01.2021	23:09:25	0	0	5,084186	4,03425	74,538	0,223	75,023	3,5	1007,28	6,7	8,6	8,5	1	1	1	1	1	1	1	1	1	0	1	-55,884426	274,077591	264,061936	0
14.01.2021	23:09:26	0	0	3,276476	4,10625	69,8328	0,223	75,017	3,5	1007,22	6,7	8,6	8,5	1	1	1	1	1	1	1	1	1	0	1	-52,360817	274,091012	267,648213	0
14.01.2021	23:09:27	0	0	4,745241	3,9585	75,996	0,226	75,018	3,5	1007,28	6,7	8,6	8,5	1	1	1	1	1	1	1	1	1	0	1	-54,827343	274,040363	264,945216	0
14.01.2021	23:09:28	0	0	2,824548	3,84975	69,4656	0,227	75,007	3,5	1007,28	6,7	8,7	8,5	1	1	1	1	1	1	1	1	1	0	1	-55,954898	274,040363	263,817661	0
14.01.2021	23:09:29	0	0	3,615421	3,7365	58,4676	0,224	75,017	3,5	1007,14	6,7	8,7	8,5	1	1	1	1	1	1	1	1	1	0	1	-53,911205	274,085046	266,069966	0
14.01.2021	23:09:30	0	0	4,406268	3,62325	61,3944	0,23	75,02	3,5	1007,34	6,7	8,7	8,6	1	1	1	1	1	1	1	1	1	0	1	-56,518675	274,0359	263,233055	0
14.01.2021	23:09:31	0	0	3,50244	3,273	69,84	0,232	75,031	3,5	1007,32	6,7	8,7	8,5	1	1	1	1	1	1	1	1	1	0	1	-54,968288	274,055245	264,873744	0
14.01.2021	23:09:32	0	0	2,93753	3,17475	60,2424	0,225	75,032	3,5	1007,42	6,7	8,7	8,5	1	1	1	1	1	1	1	1	1	0	1	-60,887949	274,028464	258,829079	0
14.01.2021	23:09:33	0	0	5,197168	3,213	62,046	0,225	75,015	3,5	1007,32	6,7	8,8	8,5	1	1	1	1	1	1	1	1	1	0	1	-55,673009	274,158252	264,650159	0
14.01.2021	23:09:34	0	0	4,067325	3,22425	55,296	0,232	75,027	3,5	1007,32	6,7	8,7	8,6	1	1	1	1	1	1	1	1	1	0	1	-55,250176	274,025491	264,452976	0
14.01.2021	23:09:35	0	0	2,93753	3,696	57,0492	0,224	75,019	3,5	1007,3	6,7	8,7	8,5	1	1	1	1	1	1	1	1	1	0	1	-57,505285	274,19571	262,992978	0
14.01.2021	23:09:36	0	0	4,632259	4,01775	69,8652	0,232	75,023	3,5	1007,22	6,7	8,8	8,5	1	1	1	1	1	1	1	1	1	0	1	-57,998591	274,114893	262,121981	0
14.01.2021	23:09:37	0	0	4,519277	4,13625	64,6308	0,232	75,016	3,5	1007,38	6,7	8,7	8,5	1	1	1	1	1	1	1	1	1	0	1	-55,954898	274,210713	264,613519	0
14.01.2021	23:09:38	0	0	2,37262	4,17	64,6452	0,233	75,02	3,5	1007,4	6,7	8,7	8,5	1	1	1	1	1	1	1	1	1	0	1	-59,408034	274,083555	260,566174	0
14.01.2021	23:09:39	0	0	4,067349	4,3125	58,5	0,233	75,018	3,5	1007,4	6,7	8,6	8,5	1	1	1	1	1	1	1	1	1	0	1	-51,515152	274,204711	269,025196	0
14.01.2021	23:09:40	0	0	4,632259	4,4055	58,1148	0,23	75,025	3,5	1007,4	6,7	8,7	8,5	1	1	1	1	1	1	1	1	1	0	1	-55,179704	274,091012	264,829326	0
14.01.2021	23:09:41	0	0	3,163475	4,3875	62,0532	0,224	75,029	3,5	1007,26	6,7	8,7	8,6	1	1	1	1	1	1	1	1	1	0	1	-57,434813	274,025491	262,268338	0
14.01.2021	23:09:42	0	0	3,841385	4,58325	65,196	0,223	75,04	3,5	1007,22	6,7	8,7	8,5	1	1	1	1	1	1	1	1	1	0	1	-53,981677	274,06716	265,915979	0
14.01.2021	23:09:43	0	0	2,93753	4,64475	67,2948	0,228	75,062	3,5	1007,22	6,7	8,6	8,5	1	1	1	1	1	1	1	1	1	0	1	-57,787174	274,043338	261,999274	0
14.01.2021	23:09:44	0	0	2,598584	4,7025	69,1524	0,232	75,072	3,5	1007,32	6,7	8,7	8,5	1	1	1	1	1	1	1	1	1	0	1	-57,01198	274,037387	262,746692	0
14.01.2021	23:09:45	0	0	2,37262	4,60725	71,244	0,227	75,078	3,5	1007,36	6,7	8,7	8,5	1	1	1	1	1	1	1	1	1	0	1	-58,210007	274,149273	262,071199	0
14.01.2021	23:09:46	0	0	4,406295	4,344	58,1076	0,222	75,083	3,5	1007,22	6,7	8,6	8,5	1	1	1	1	1	1	1	1	1	0	1	-57,575758	274,029951	262,14821	0
14.01.2021	23:09:47	0	0	4,632259	4,28625	73,4364	0,229	75,087	3,5	1007,32	6,7	8,7	8,5	1	1	1	1	1	1	1	1	1	0	1	-54,897815	274,116386	265,229733	0
14.01.2021	23:09:48	0	0	4,971205	4,206	58,8528	0,228	75,088	3,5	1007,34	6,7	8,8	8,5	1	1	1	1	1	1	1	1	1	0	1	-53,770261	274,028464	265,946767	0
14.01.2021	23:09:49	0	0	4,632259	4,32375	67,0032	0,232	75,094	3,5	1007,18	6,7	8,7	8,5	1	1	1	1	1	1	1	1	1	0	1	-58,773784	274,147777	261,50043	0
14.01.2021	23:09:50	0	0	2,711566	4,1115	66,9528	0,231	75,09	3,5	1007,4	6,7	8,6	8,5	1	1	1	1	1	1	1	1	1	0	1	-55,109232	274,219721	265,501309	0
14.01.2021	23:09:51	0	0	4,745241	3,6315	66,5496	0,229	75,098	3,5	1007,46	6,7	8,6	8,5	1	1	1	1	1	1	1	1	1	0	1	-54,545455	274,147777	265,72876	0
14.01.2021	23:09:52	0	0	4,180331	3,37275	69,156	0,233	75,094	3,5	1007,42	6,7	8,7	8,5	1	1	1	1	1	1	1	1	1	0	1	-57,434813	274,019546	262,240594	0
14.01.2021	23:09:53	0	0	3,389458	3,219	57,7368	0,229	75,096	3,5	1007,36	6,7	8,6	8,5	1	1	1	1	1	1	1	1	1	0	1	-56,871036	274,062691	263,005756	0
14.01.2021	23:09:54	0	0	5,197168	3,0705	62,424	0,233	75,099	3,5	1007,3	6,7	8,7	8,5	1	1	1	1	1	1	1	1	1	0	1	-54,122622	274,028464	265,594406	0
14.01.2021	23:09:55	0	0	3,50244	2,9535	60,5448	0,233	75,111	3,5	1007,38	6,7	8,7	8,5	1	1	1	1	1	1	1	1	1	0	1	-55,813953	274,095487	264,215978	0
14.01.2021	23:09:56	0	0	2,598584	3,033	65,484	0,235	75,115	3,5	1007,4	6,7	8,7	8,5	1	1	1	1	1	1	1	1	1	0	1	-55,109232	274,019546	264,566175	0
14.01.2021	23:09:57	0	0	4,971175	3,10425	77,2164	0,233	75,126	3,5	1007,34	6,7	8,6	8,6	1	1	1	1	1	1	1	1	1	0	1	-55,954898	274,147777	264,319317	0
14.01.2021	23:09:58	0	0	4,180331	3,06375	66,528	0,232	75,123	3,5	1007,32	6,7	8,7	8,5	1	1	1	1	1	1	1	1	1	0	1	-58,139535	274,061202	261,730303	0
14.01.2021	23:09:59	0	0	4,293313	3,0765	66,2184	0,227	75,131	3,5	1007,08	6,7	8,7	8,5	1	1	1	1	1	1	1	1	1	0	1	-53,4179	274,013602	266,229773	0
14.01.2021	23:10:00	0	0	4,632259	3,1275	57,7296	0,237	75,146	3,5	1007,36	6,7	8,8	8,5	1	1	1	1	1	1	1	1	1	0	1	-53,699789	274,024005	265,996426	0
14.01.2021	23:10:01	0	0	4,632259	3,1275	57,7296	0,237	75,146	3,5	1007,36	6,7	8,8	8,5	1	1	1	1	1	1	1	1	1	0	1	-53,699789	274,024005	265,996426	0
14.01.2021	23:10:02	0	0	4,406295	3,23625	56,2644	0,236	75,154	3,5	1007,46	6,7	8,7	8,5	1	1	1	1	1	1	1	1	1	0	1	-56,518675	274,144785	263,741559	0
14.01.2021	23:10:03	0	0	3,50244	3,26025	72,0144	0,232	75,15	3,5	1007,32	6,7	8,6	8,5	1	1	1	1	1	1	1	1	1	0	1	-51,162791	274,029951	268,561176	0
14.01.2021	23:10:04	0	0	4,406295	3,22875	61,2936	0,234	75,144	3,5	1007,38	6,7	8,6	8,5	1	1	1	1	1	1	1	1	1	0	1	-58,069063	274,144785	262,191171	0
14.01.2021	23:10:05	0	0	4,293313	3,2595	67,3272	0,236	75,155	3,5	1007,32	6,7	8,7	8,5	1	1	1	1	1	1	1	1	1	0	1	-57,998591	274,049291	261,815644	0
14.01.2021	23:10:06	0	0	2,033675	3,34575	66,9276	0,232	75,147	3,5	1007,32	6,7	8,7	8,5	1	1	1	1	1	1	1	1	1	0	1	-57,716702	274,06716	262,180954	0
14.01.2021	23:10:07	0	0	3,50244	3,402	87,3828	0,237	75,146	3,5	1007,38	6,7	8,7	8,5	1	1	1	1	1	1	1	1	1	0	1	-57,998591	274,079082	261,954732	0
14.01.2021	23:10:08	0	0	4,632231	3,5055	69,1812	0,231	75,141	3,5	1007,38	6,7	8,7	8,6	1	1	1	1	1	1	1	1	1	0	1	-57,505285	274,207712	263,049096	0
14.01.2021	23:10:09	0	0	2,93753	3,7695	68,0148	0,234	75,156	3,5	1007,38	6,7	8,7	8,5	1	1	1	1	1	1	1	1	1	0	1	-58,280479	274,096979	261,756421	0
14.01.2021	23:10:10	0	0	2,711566	3,8595	71,2368	0,239	75,159	3,5	1007,38	6,7	8,7	8,5	1	1	1	1	1	1	1	1	1	0	1	-57,998591	274,034413	261,746198	0
14.01.2021	23:10:11	0	0	4,858223	3,79275	62,0388	0,232	75,135	3,5	1007,16	6,7	8,7	8,5	1	1	1	1	1	1	1	1	1	0	1	-56,800564	274,167235	263,564589	0
14.01.2021	23:10:12	0	0	4,858223	3,42525	36,2484	0,235	75,139	3,5	1007,38	6,7	8,7	8,5	1	1	1	1	1	1	1	1	1	0	1	-57,152925	274,206211	263,39444	0
14.01.2021	23:10:13	0	0	3,050512	3,144	51,7644	0,231	75,139	3,5	1007,3	6,7	8,7	8,5	1	1	1	1	1	1	1	1	1	0	1	-54,263566	274,058223	265,592368	0
14.01.2021	23:10:14	0	0	4,745241	2,955	61,3116	0,236	75,143	3,5	1007,4	6,7	8,7	8,5	1	1	1	1	1	1	1	1	1	0	1	-57,152925	274,15077	263,135273	0
14.01.2021	23:10:15	0	0	4,632259	2,84925	48,5136	0,24	75,13	3,5	1007,2	6,7	8,6	8,5	1	1	1	1	1	1	1	1	1	0	1	-53,699789	274,20021	266,819514	0
14.01.2021	23:10:16	0	0	4,180331	3,003	51,0552	0,239	75,14	3,5	1007,28	6,7	8,6	8,5	1	1	1	1	1	1	1	1	1	0	1	-57,787174	274,158252	262,535994	0
14.01.2021	23:10:17	0	0	3,841385	3,24975	61,3584	0,236	75,137	3,5	1007,2	6,7	8,7	8,5	1	1	1	1	1	1	1	1	1	0	1	-54,897815	274,022518	264,791463	0
14.01.2021	23:10:18	0	0	2,93753	3,54375	65,8548	0,243	75,137	3,5	1007,32	6,7	8,7	8,5	1	1	1	1	1	1	1	1	1	0	1	-54,827343	274,06716	265,070313	0
14.01.2021	23:10:19	0	0	3,163494	3,807	69,156	0,244	75,132	3,5	1007,3	6,7	8,7	8,5	1	1	1	1	1	1	1	1	1	0	1	-56,02537	274,010631	263,608439	0
14.01.2021	23:10:20	0	0	4,632259	3,6855	61,6896	0,241	75,114	3,5	1007,28	6,7	8,6	8,5	1	1	1	1	1	1	1	1	1	0	1	-54,686399	274,159749	265,643765	0
14.01.2021	23:10:21	0	0	3,954367	3,765	67,6764	0,245	75,122	3,5	1007,2	6,7	8,6	8,5	1	1	1	1	1	1	1	1	1	0	1	-60,535588	274,025491	259,167563	0
14.01.2021	23:10:22	0	0	3,276476	3,92175	68,7924	0,236	75,106	3,5	1007,18	6,7	8,7	8,5	1	1	1	1	1	1	1	1	1	0	1	-56,02537	274,025491	263,677782	0
14.01.2021	23:10:23	0	0	4,632259	4,14525	70,5816	0,243	75,114	3,5	1007,22	6,7	8,7	8,5	1	1	1	1	1	1	1	1	1	0	1	-56,589147	274,14329	263,664097	0
14.01.2021	23:10:24	0	0	4,406295	4,521	69,8616	0,242	75,109	3,5	1007,26	6,7	8,7	8,5	1	1	1	1	1	1	1	1	1	0	1	-56,800564	274,20021	263,718739	0
14.01.2021	23:10:25	0	0	3,276476	4,617	73,782	0,248	75,097	3,5	1007,3	6,7	8,7	8,5	1	1	1	1	1	1	1	1	1	0	1	-56,377731	274,147777	263,896484	0
14.01.2021	23:10:26	0	0	4,067349	4,56075	76,8384	0,243	75,099	3,5	1007,2	6,7	8,7	8,5	1	1	1	1	1	1	1	1	1	0	1	-54,686399	274,01806	264,982074	0
14.01.2021	23:10:27	0	0	4,406295	4,40025	76,3704	0,245	75,096	3,5	1007,22	6,7	8,7	8,5	1	1	1	1	1	1	1	1	1	0	1	-57,434813	274,189712	263,035407	0
14.01.2021	23:10:28	0	0	4,519277	4,2705	65,8656	0,244	75,079	3,5	1007,46	6,7	8,7	8,5	1	1	1	1	1	1	1	1	1	0	1	-55,109232	274,155259	265,199946	0
14.01.2021	23:10:29	0	0	4,858223	4,479	67,6512	0,245	75,079	3,5	1007,34	6,7	8,7	8,5	1	1	1	1	1	1	1	1	1	0	1	-51,79704	274,043338	267,989408	0
14.01.2021	23:10:30	0	0	4,745241	4,48875	75,6108	0,243	75,059	3,5	1007,32	6,7	8,8	8,5	1	1	1	1	1	1	1	1	1	0	1	-56,095842	274,088029	263,899257	0
14.01.2021	23:10:31	0	0	2,824548	4,4205	73,0476	0,247	75,048	3,5	1007,2	6,7	8,7	8,5	1	1	1	1	1	1	1	1	1	0	1	-58,069063	274,209212	262,492336	0
14.01.2021	23:10:32	0	0	2,485602	4,17375	73,44	0,246	75,029	3,5	1007,32	6,7	8,7	8,5	1	1	1	1	1	1	1	1	1	0	1	-57,505285	274,146281	262,761939	0
14.01.2021	23:10:33	0	0	3,728403	4,10625	68,0184	0,249	75,024	3,5	1007,24	6,7	8,7	8,5	1	1	1	1	1	1	1	1	1	0	1	-55,250176	274,20171	265,276141	0
14.01.2021	23:10:34	0	0	4,293313	3,861	62,0208	0,244	75,02	3,5	1007,08	6,7	8,7	8,5	1	1	1	1	1	1	1	1	1	0	1	-52,219873	274,11788	267,914653	0
14.01.2021	23:10:35	0	0	2,71155	3,753	71,6148	0,249	74,991	3,5	1007,2	6,7	8,7	8,6	1	1	1	1	1	1	1	1	1	0	1	-54,756871	274,038875	265,008744	0
14.01.2021	23:10:36	0	0	4,180331	3,612	66,9348	0,248	74,984	3,5	1007,34	6,7	8,7	8,5	1	1	1	1	1	1	1	1	1	0	1	-57,152925	274,164241	263,198231	0
14.01.2021	23:10:37	0	0	3,50244	3,53625	80,5248	0,248	74,985	3,5	1007,34	6,7	8,7	8,5	1	1	1	1	1	1	1	1	1	0	1	-54,615927	274,182217	265,819255	0
14.01.2021	23:10:38	0	0	4,293313	3,654	71,9784	0,251	74,973	3,5	1007,4	6,7	8,7	8,5	1	1	1	1	1	1	1	1	1	0	1	-56,236786	274,056734	263,612196	0
14.01.2021	23:10:39	0	0	3,276476	3,99075	74,5272	0,246	74,954	3,5	1007,3	6,7	8,7	8,5	1	1	1	1	1	1	1	1	1	0	1	-51,162791	274,098471	268,881078	0
14.01.2021	23:10:40	0	0	2,93753	4,03125	70,8624	0,247	74,935	3,5	1007,26	6,7	8,7	8,5	1	1	1	1	1	1	1	1	1	0	1	-54,827343	274,204711	265,713005	0
14.01.2021	23:10:41	0	0	4,971205	3,8715	83,3472	0,252	74,928	3,5	1007,42	6,7	8,7	8,5	1	1	1	1	1	1	1	1	1	0	1	-53,558844	274,037387	266,199828	0
14.01.2021	23:10:42	0	0	3,163494	3,66	87,7212	0,249	74,909	3,5	1007,18	6,7	8,8	8,5	1	1	1	1	1	1	1	1	1	0	1	-55,954898	274,174725	264,445261	0
14.01.2021	23:10:43	0	0	2,711566	3,86925	75,2292	0,248	74,908	3,5	1007,42	6,7	8,6	8,5	1	1	1	1	1	1	1	1	1	0	1	-53,629316	274,186713	266,826886	0
14.01.2021	23:10:44	0	0	3,50244	4,01625	79,4232	0,247	74,916	3,5	1007,32	6,7	8,7	8,5	1	1	1	1	1	1	1	1	1	0	1	-52,854123	274,149273	267,427083	0
14.01.2021	23:10:45	0	0	5,197168	3,9915	73,0548	0,254	74,906	3,5	1007,56	6,7	8,7	8,5	1	1	1	1	1	1	1	1	1	0	1	-59,760395	274,204711	260,779953	0
14.01.2021	23:10:46	0	0	3,276476	3,873	79,722	0,241	74,888	3,5	1007,3	6,7	8,8	8,5	1	1	1	1	1	1	1	1	1	0	1	-53,981677	274,077591	265,964684	0
14.01.2021	23:10:47	0	0	4,632259	3,63675	71,9856	0,249	74,887	3,5	1007,6	6,7	8,6	8,5	1	1	1	1	1	1	1	1	1	0	1	-60,2537	274,032925	259,484147	0
14.01.2021	23:10:48	0	0	3,6154	3,48	72,2952	0,246	74,873	3,5	1007,32	6,7	8,7	8,6	1	1	1	1	1	1	1	1	1	0	1	-53,699789	274,064181	266,183957	0
14.01.2021	23:10:49	0	0	4,519277	3,42525	63,504	0,248	74,864	3,5	1007,32	6,7	8,7	8,5	1	1	1	1	1	1	1	1	1	0	1	-56,095842	274,182217	264,339339	0
14.01.2021	23:10:50	0	0	3,841385	3,35025	63,504	0,25	74,858	3,5	1007,22	6,7	8,7	8,5	1	1	1	1	1	1	1	1	1	0	1	-59,337562	274,113399	260,776034	0
14.01.2021	23:10:51	0	0	2,711566	3,35775	58,1292	0,249	74,839	3,5	1007,28	6,7	8,7	8,5	1	1	1	1	1	1	1	1	1	0	1	-56,871036	274,209212	263,690363	0
14.01.2021	23:10:52	0	0	4,180331	3,17175	70,6248	0,245	74,834	3,5	1007,16	6,7	8,7	8,5	1	1	1	1	1	1	1	1	1	0	1	-53,770261	274,076101	266,169141	0
14.01.2021	23:10:53	0	0	3,163494	2,9865	74,898	0,249	74,824	3,5	1007,34	6,7	8,7	8,5	1	1	1	1	1	1	1	1	1	0	1	-56,871036	274,20321	263,662296	0
14.01.2021	23:10:54	0	0	4,406268	2,9385	55,1628	0,248	74,815	3,5	1007,22	6,7	8,7	8,6	1	1	1	1	1	1	1	1	1	0	1	-56,941508	274,138803	263,290772	0
14.01.2021	23:10:55	0	0	3,615421	2,913	71,604	0,243	74,825	3,5	1007,32	6,7	8,7	8,5	1	1	1	1	1	1	1	1	1	0	1	-55,250176	274,038875	264,515439	0
14.01.2021	23:10:56	0	0	2,711566	2,7855	57,4236	0,246	74,833	3,5	1007,24	6,7	8,7	8,5	1	1	1	1	1	1	1	1	1	0	1	-55,179704	274,170231	265,19945	0
14.01.2021	23:10:57	0	0	2,598584	2,61975	67,356	0,241	74,835	3,5	1007,26	6,7	8,7	8,5	1	1	1	1	1	1	1	1	1	0	1	-55,532065	274,022518	264,157213	0
14.01.2021	23:10:58	0	0	4,519277	2,49975	58,1004	0,245	74,853	3,5	1007,32	6,7	8,7	8,5	1	1	1	1	1	1	1	1	1	0	1	-55,743481	274,093995	264,279482	0
14.01.2021	23:10:59	0	0	3,728403	2,5095	63,1692	0,25	74,878	3,5	1007,32	6,7	8,7	8,5	1	1	1	1	1	1	1	1	1	0	1	-56,941508	274,206211	263,605856	0
14.01.2021	23:11:00	0	0	4,293313	2,80875	51,4296	0,25	74,901	3,5	1007,3	6,7	8,7	8,5	1	1	1	1	1	1	1	1	1	0	1	-51,303735	274,219721	269,306806	0
14.01.2021	23:11:01	0	0	4,293313	2,80875	51,4296	0,25	74,901	3,5	1007,3	6,7	8,7	8,5	1	1	1	1	1	1	1	1	1	0	1	-51,303735	274,219721	269,306806	0
14.01.2021	23:11:02	0	0	2,824548	2,74425	82,5912	0,244	74,896	3,5	1007,16	6,7	8,7	8,5	1	1	1	1	1	1	1	1	1	0	1	-53,840733	274,161246	266,496427	0
14.01.2021	23:11:03	0	0	3,841362	2,76525	63,144	0,244	74,919	3,5	1007,12	6,7	8,7	8,6	1	1	1	1	1	1	1	1	1	0	1	-57,857646	274,212214	262,71779	0
14.01.2021	23:11:04	0	0	2,711566	3,033	58,4748	0,247	74,917	3,5	1007,36	6,7	8,7	8,5	1	1	1	1	1	1	1	1	1	0	1	-56,589147	274,102948	263,475633	0
14.01.2021	23:11:05	0	0	3,728403	3,105	67,2984	0,248	74,925	3,5	1007,28	6,7	8,7	8,5	1	1	1	1	1	1	1	1	1	0	1	-57,434813	274,052268	262,393318	0
14.01.2021	23:11:06	0	0	2,824548	3,31875	73,044	0,244	74,93	3,5	1007,2	6,7	8,7	8,5	1	1	1	1	1	1	1	1	1	0	1	-56,941508	274,085046	263,039663	0
14.01.2021	23:11:07	0	0	4,745241	3,633	62,7984	0,241	74,942	3,5	1007,32	6,7	8,6	8,5	1	1	1	1	1	1	1	1	1	0	1	-58,63284	274,224226	261,998772	0
14.01.2021	23:11:08	0	0	4,293313	3,56325	73,134	0,249	74,954	3,5	1007,3	6,7	8,7	8,5	1	1	1	1	1	1	1	1	1	0	1	-55,954898	274,20021	264,564405	0
14.01.2021	23:11:09	0	0	4,519277	3,68625	67,2876	0,249	74,962	3,5	1007,34	6,7	8,8	8,5	1	1	1	1	1	1	1	1	1	0	1	-58,421424	274,156756	261,894749	0
14.01.2021	23:11:10	0	0	4,067349	3,61425	63,162	0,247	74,958	3,5	1007,26	6,7	8,7	8,5	1	1	1	1	1	1	1	1	1	0	1	-57,223397	274,034413	262,521392	0
14.01.2021	23:11:11	0	0	2,93753	3,315	59,8536	0,249	74,968	3,5	1007,32	6,7	8,7	8,5	1	1	1	1	1	1	1	1	1	0	1	-54,193094	274,153762	266,10909	0
14.01.2021	23:11:12	0	0	2,93753	3,16425	40,2444	0,244	74,961	3,5	1007,26	6,7	8,7	8,5	1	1	1	1	1	1	1	1	1	0	1	-55,109232	274,034413	264,635556	0
14.01.2021	23:11:13	0	0	3,50244	3,129	43,2936	0,247	74,96	3,5	1007,26	6,7	8,7	8,5	1	1	1	1	1	1	1	1	1	0	1	-54,40451	274,101456	265,653299	0
14.01.2021	23:11:14	0	0	4,180331	3,2325	56,286	0,249	74,972	3,5	1007,34	6,7	8,7	8,5	1	1	1	1	1	1	1	1	1	0	1	-54,474982	274,032925	265,262865	0
14.01.2021	23:11:15	0	0	4,406295	3,405	52,1316	0,244	74,961	3,5	1007,26	6,7	8,7	8,5	1	1	1	1	1	1	1	1	1	0	1	-55,532065	274,165738	264,826089	0
14.01.2021	23:11:16	0	0	3,163494	3,546	54,4824	0,251	74,954	3,5	1007,36	6,7	8,7	8,5	1	1	1	1	1	1	1	1	1	0	1	-58,280479	274,038875	261,485136	0
14.01.2021	23:11:17	0	0	2,93753	3,9525	54,7884	0,251	74,976	3,5	1007,3	6,7	8,6	8,5	1	1	1	1	1	1	1	1	1	0	1	-56,448203	274,086537	263,539932	0
14.01.2021	23:11:18	0	0	3,050512	4,29225	45,1584	0,246	74,943	3,5	1007,28	6,7	8,7	8,5	1	1	1	1	1	1	1	1	1	0	1	-55,602537	274,210713	264,96588	0
14.01.2021	23:11:19	0	0	2,824548	4,5645	43,3836	0,245	74,95	3,5	1007,3	6,7	8,8	8,5	1	1	1	1	1	1	1	1	1	0	1	-54,334038	274,216718	266,262459	0
14.01.2021	23:11:20	0	0	4,632259	4,245	54,468	0,25	74,962	3,5	1007,38	6,7	8,7	8,5	1	1	1	1	1	1	1	1	1	0	1	-55,250176	274,189712	265,220044	0
14.01.2021	23:11:21	0	0	4,519277	4,10475	74,1852	0,251	74,952	3,5	1007,22	6,7	8,7	8,5	1	1	1	1	1	1	1	1	1	0	1	-55,884426	274,215217	264,705051	0
14.01.2021	23:11:22	0	0	4,858223	3,795	52,1568	0,248	74,96	3,5	1007,42	6,7	8,7	8,5	1	1	1	1	1	1	1	1	1	0	1	-54,40451	274,131328	265,792843	0
14.01.2021	23:11:23	0	0	2,259638	3,5535	70,9308	0,249	75	3,5	1007,34	6,7	8,7	8,5	1	1	1	1	1	1	1	1	1	0	1	-56,589147	274,222724	264,035441	0
14.01.2021	23:11:24	0	0	4,406295	3,3705	60,5628	0,242	74,945	3,5	1007,2	6,7	8,7	8,5	1	1	1	1	1	1	1	1	1	0	1	-57,223397	274,155259	263,085781	0
14.01.2021	23:11:25	0	0	3,389458	3,18375	59,4936	0,253	74,941	3,5	1007,14	6,7	8,7	8,5	1	1	1	1	1	1	1	1	1	0	1	-58,985201	274,221223	261,632363	0
14.01.2021	23:11:26	0	0	3,615421	3,00525	68,85	0,251	74,939	3,5	1007,4	6,7	8,8	8,5	1	1	1	1	1	1	1	1	1	0	1	-54,263566	274,186713	266,192637	0
14.01.2021	23:11:27	0	0	4,406295	3,354	78,678	0,249	74,938	3,5	1007,34	6,7	8,7	8,5	1	1	1	1	1	1	1	1	1	0	1	-53,206483	274,19571	267,29178	0
14.01.2021	23:11:28	0	0	3,389458	3,81375	78,2892	0,254	74,923	3,5	1007,42	6,7	8,7	8,5	1	1	1	1	1	1	1	1	1	0	1	-57,505285	274,029951	262,218682	0
14.01.2021	23:11:29	0	0	3,276476	3,93375	60,552	0,251	74,927	3,5	1007,44	6,7	8,7	8,5	1	1	1	1	1	1	1	1	1	0	1	-56,166314	274,15077	264,121884	0
14.01.2021	23:11:30	0	0	3,50244	3,9585	58,122	0,255	74,932	3,5	1007,42	6,7	8,7	8,5	1	1	1	1	1	1	1	1	1	0	1	-54,263566	274,032925	265,474281	0
14.01.2021	23:11:31	0	0	2,824548	3,97575	62,046	0,252	74,934	3,5	1007,36	6,7	8,8	8,5	1	1	1	1	1	1	1	1	1	0	1	-56,448203	274,165738	263,909951	0
14.01.2021	23:11:32	0	0	4,632259	4,032	80,514	0,252	74,923	3,5	1007,42	6,7	8,8	8,5	1	1	1	1	1	1	1	1	1	0	1	-53,558844	274,04185	266,220659	0
14.01.2021	23:11:33	0	0	2,824548	4,21425	87,7356	0,248	74,932	3,5	1007,3	6,7	8,7	8,5	1	1	1	1	1	1	1	1	1	0	1	-56,589147	274,099963	263,461691	0
14.01.2021	23:11:34	0	0	2,598584	4,3995	80,1396	0,246	74,941	3,5	1007,32	6,7	8,7	8,5	1	1	1	1	1	1	1	1	1	0	1	-56,589147	274,043338	263,197301	0
14.01.2021	23:11:35	0	0	3,050512	4,54875	83,3544	0,244	74,957	3,5	1007,18	6,7	8,7	8,5	1	1	1	1	1	1	1	1	1	0	1	-50,17618	274,108919	269,91649	0
14.01.2021	23:11:36	0	0	3,389458	4,1325	56,2824	0,253	74,981	3,5	1007,36	6,7	8,7	8,5	1	1	1	1	1	1	1	1	1	0	1	-60,747005	274,052268	259,081127	0
14.01.2021	23:11:37	0	0	2,711566	3,666	59,1084	0,25	74,999	3,5	1007,36	6,7	8,8	8,5	1	1	1	1	1	1	1	1	1	0	1	-53,276956	274,174725	267,123203	0
14.01.2021	23:11:38	0	0	3,163494	3,50175	75,996	0,255	75,002	3,5	1007,34	6,7	8,7	8,5	1	1	1	1	1	1	1	1	1	0	1	-53,136011	274,218219	267,467508	0
14.01.2021	23:11:39	0	0	3,050512	3,26625	59,8464	0,255	75,004	3,5	1007,4	6,7	8,7	8,5	1	1	1	1	1	1	1	1	1	0	1	-59,478506	274,19871	261,033783	0
14.01.2021	23:11:40	0	0	4,519277	3,1845	57,0492	0,253	74,991	3,5	1007,18	6,7	8,6	8,5	1	1	1	1	1	1	1	1	1	0	1	-57,152925	274,096979	262,883975	0
14.01.2021	23:11:41	0	0	3,728403	3,156	69,5448	0,254	74,989	3,5	1007,5	6,7	8,7	8,5	1	1	1	1	1	1	1	1	1	0	1	-52,713178	274,07163	267,205347	0
14.01.2021	23:11:42	0	0	4,293313	3,36975	44,7876	0,259	74,995	3,5	1007,48	6,7	8,7	8,5	1	1	1	1	1	1	1	1	1	0	1	-55,179704	274,162743	265,164453	0
14.01.2021	23:11:43	0	0	4,858223	3,50625	65,0772	0,247	74,982	3,5	1007,3	6,7	8,7	8,5	1	1	1	1	1	1	1	1	1	0	1	-54,334038	274,225728	266,304599	0
14.01.2021	23:11:44	0	0	2,93753	3,45	53,7372	0,252	74,961	3,5	1007,08	6,7	8,7	8,5	1	1	1	1	1	1	1	1	1	0	1	-55,602537	274,113399	264,511058	0
14.01.2021	23:11:45	0	0	3,954367	3,38775	48,1428	0,254	74,958	3,5	1007,46	6,7	8,7	8,5	1	1	1	1	1	1	1	1	1	0	1	-55,179704	274,225728	265,458933	0
14.01.2021	23:11:46	0	0	3,163475	3,41025	49,2012	0,25	74,959	3,5	1007,3	6,7	8,7	8,6	1	1	1	1	1	1	1	1	1	0	1	-60,183228	274,123856	259,979215	0
14.01.2021	23:11:47	0	0	4,406295	3,28275	44,406	0,257	74,958	3,5	1007,42	6,7	8,7	8,5	1	1	1	1	1	1	1	1	1	0	1	-55,602537	274,037387	264,156135	0
14.01.2021	23:11:48	0	0	3,502419	3,18	39,9348	0,254	74,942	3,5	1007,24	6,7	8,7	8,6	1	1	1	1	1	1	1	1	1	0	1	-52,501762	274,129833	267,688608	0
14.01.2021	23:11:49	0	0	4,293313	3,2985	82,98	0,259	74,957	3,5	1007,28	6,7	8,7	8,5	1	1	1	1	1	1	1	1	1	0	1	-54,193094	274,07163	265,725432	0
14.01.2021	23:11:50	0	0	2,711566	3,16875	66,2148	0,257	74,964	3,5	1007,3	6,7	8,7	8,5	1	1	1	1	1	1	1	1	1	0	1	-56,307259	274,083555	263,666949	0
14.01.2021	23:11:51	0	0	5,197168	2,841	51,048	0,257	74,944	3,5	1007,24	6,7	8,7	8,5	1	1	1	1	1	1	1	1	1	0	1	-57,152925	274,176223	263,254238	0
14.01.2021	23:11:52	0	0	4,406295	2,7525	38,1528	0,254	74,945	3,5	1007,24	6,7	8,7	8,5	1	1	1	1	1	1	1	1	1	0	1	-54,897815	274,225728	265,740822	0
14.01.2021	23:11:53	0	0	4,632259	3,285	36,9468	0,263	74,964	3,5	1007,36	6,7	8,7	8,5	1	1	1	1	1	1	1	1	1	0	1	-58,421424	274,212214	262,154013	0
14.01.2021	23:11:54	0	0	4,293313	3,294	63,4824	0,259	74,968	3,5	1007,24	6,7	8,7	8,5	1	1	1	1	1	1	1	1	1	0	1	-59,337562	274,047803	260,469725	0
14.01.2021	23:11:55	0	0	2,598584	3,25125	45,8712	0,258	74,966	3,5	1007,24	6,8	8,7	8,5	1	1	1	1	1	1	1	1	1	0	1	-57,928118	274,119373	262,213386	0
14.01.2021	23:11:56	0	0	3,50244	3,44025	67,6692	0,252	74,968	3,5	1007,36	6,7	8,7	8,5	1	1	1	1	1	1	1	1	1	0	1	-57,364341	274,234743	263,31646	0
14.01.2021	23:11:57	0	0	4,406295	3,26175	62,4312	0,25	74,963	3,5	1007,3	6,7	8,7	8,5	1	1	1	1	1	1	1	1	1	0	1	-57,575758	274,110413	262,523887	0
14.01.2021	23:11:58	0	0	3,728403	3,01425	64,26	0,254	74,962	3,5	1007,08	6,7	8,7	8,5	1	1	1	1	1	1	1	1	1	0	1	-53,981677	274,20021	266,537625	0
14.01.2021	23:11:59	0	0	2,598584	2,94975	80,5104	0,261	74,969	3,5	1007,22	6,7	8,7	8,5	1	1	1	1	1	1	1	1	1	0	1	-59,689922	274,126844	260,486483	0
14.01.2021	23:12:00	0	0	3,50244	2,89275	81,5868	0,265	74,967	3,5	1007,24	6,7	8,7	8,5	1	1	1	1	1	1	1	1	1	0	1	-55,461593	274,101456	264,596216	0
14.01.2021	23:12:01	0	0	3,50244	2,89275	81,5868	0,265	74,967	3,5	1007,24	6,7	8,7	8,5	1	1	1	1	1	1	1	1	1	0	1	-55,461593	274,101456	264,596216	0
14.01.2021	23:12:02	0	0	4,293313	2,70075	59,5944	0,258	74,964	3,5	1007,3	6,7	8,7	8,5	1	1	1	1	1	1	1	1	1	0	1	-58,914729	274,227231	261,730934	0
14.01.2021	23:12:03	0	0	2,485602	2,73375	64,6056	0,257	74,962	3,5	1007,38	6,7	8,7	8,5	1	1	1	1	1	1	1	1	1	0	1	-55,743481	274,122361	264,411981	0
14.01.2021	23:12:04	0	0	4,858223	2,73075	52,146	0,255	74,975	3,5	1007,28	6,7	8,7	8,5	1	1	1	1	1	1	1	1	1	0	1	-60,394644	274,240755	260,314279	0
14.01.2021	23:12:05	0	0	5,197168	2,65275	55,9404	0,264	74,956	3,5	1007,22	6,7	8,7	8,5	1	1	1	1	1	1	1	1	1	0	1	-53,206483	274,180718	267,221692	0
14.01.2021	23:12:06	0	0	3,050494	2,63325	65,8404	0,265	74,958	3,5	1007,28	6,7	8,7	8,6	1	1	1	1	1	1	1	1	1	0	1	-52,149401	274,049291	267,664834	0
14.01.2021	23:12:07	0	0	3,50244	2,586	63,7596	0,258	74,941	3,5	1007,32	6,7	8,7	8,5	1	1	1	1	1	1	1	1	1	0	1	-54,474982	274,167235	265,890171	0
14.01.2021	23:12:08	0	0	4,632259	2,4765	79,7688	0,264	74,95	3,5	1007,34	6,7	8,7	8,5	1	1	1	1	1	1	1	1	1	0	1	-55,954898	274,23324	264,718874	0
14.01.2021	23:12:09	0	0	5,197168	2,523	72,0144	0,261	74,939	3,5	1007,12	6,7	8,7	8,5	1	1	1	1	1	1	1	1	1	0	1	-58,63284	274,105934	261,445884	0
14.01.2021	23:12:10	0	0	4,293313	2,574	81,2088	0,263	74,922	3,5	1007,36	6,7	8,7	8,5	1	1	1	1	1	1	1	1	1	0	1	-58,210007	274,23324	262,463765	0
14.01.2021	23:12:11	0	0	4,858223	2,5305	48,5064	0,263	74,916	3,5	1007,3	6,7	8,7	8,5	1	1	1	1	1	1	1	1	1	0	1	-56,166314	274,192711	264,317926	0
14.01.2021	23:12:12	0	0	3,276476	2,4105	57,4164	0,263	74,898	3,5	1007,3	6,7	8,7	8,5	1	1	1	1	1	1	1	1	1	0	1	-56,02537	274,056734	263,823612	0
14.01.2021	23:12:13	0	0	4,745241	2,21625	51,7608	0,264	74,862	3,5	1007,26	6,7	8,7	8,5	1	1	1	1	1	1	1	1	1	0	1	-58,280479	274,083555	261,693728	0
14.01.2021	23:12:14	0	0	3,389458	2,24475	45,6408	0,267	74,859	3,5	1007,38	6,7	8,7	8,5	1	1	1	1	1	1	1	1	1	0	1	-53,770261	274,165738	266,587893	0
14.01.2021	23:12:15	0	0	3,050512	2,42025	44,3952	0,267	74,845	3,5	1007,38	6,7	8,7	8,5	1	1	1	1	1	1	1	1	1	0	1	-56,307259	274,053757	263,527822	0
14.01.2021	23:12:16	0	0	3,050512	2,59575	54,8208	0,266	74,834	3,5	1007,34	6,7	8,7	8,5	1	1	1	1	1	1	1	1	1	0	1	-53,206483	274,098471	266,837385	0
14.01.2021	23:12:17	0	0	4,745241	2,52825	64,2456	0,266	74,816	3,5	1007,24	6,7	8,7	8,5	1	1	1	1	1	1	1	1	1	0	1	-56,800564	274,046314	262,999776	0
14.01.2021	23:12:18	0	0	3,954367	2,5125	55,9368	0,265	74,82	3,5	1007,46	6,7	8,7	8,5	1	1	1	1	1	1	1	1	1	0	1	-55,109232	274,052268	264,7189	0
14.01.2021	23:12:19	0	0	3,163494	2,5725	50,6772	0,27	74,813	3,5	1007,34	6,7	8,7	8,5	1	1	1	1	1	1	1	1	1	0	1	-57,928118	274,116386	262,19943	0
14.01.2021	23:12:20	0	0	2,711566	2,5065	63,8964	0,263	74,8	3,5	1007,44	6,7	8,7	8,5	1	1	1	1	1	1	1	1	1	0	1	-58,703312	274,043338	261,083136	0
14.01.2021	23:12:21	0	0	3,276476	2,59125	62,0352	0,268	74,794	3,5	1007,38	6,7	8,7	8,5	1	1	1	1	1	1	1	1	1	0	1	-54,686399	274,170231	265,692755	0
14.01.2021	23:12:22	0	0	4,180331	2,676	72,666	0,264	74,787	3,5	1007,4	6,7	8,7	8,5	1	1	1	1	1	1	1	1	1	0	1	-57,787174	274,222724	262,837414	0
14.01.2021	23:12:23	0	0	2,37262	2,5335	54,108	0,269	74,769	3,5	1007,36	6,7	8,7	8,5	1	1	1	1	1	1	1	1	1	0	1	-57,434813	274,099963	262,616025	0
14.01.2021	23:12:24	0	0	2,71155	2,3175	73,7856	0,267	74,763	3,5	1007,32	6,7	8,7	8,6	1	1	1	1	1	1	1	1	1	0	1	-57,223397	274,222724	263,401191	0
14.01.2021	23:12:25	0	0	4,067349	2,09625	72,3132	0,266	74,75	3,5	1007,38	6,7	8,7	8,5	1	1	1	1	1	1	1	1	1	0	1	-59,61945	274,079082	260,333872	0
14.01.2021	23:12:26	0	0	3,502419	1,91325	57,0636	0,266	74,733	3,5	1007,26	6,7	8,7	8,6	1	1	1	1	1	1	1	1	1	0	1	-58,139535	274,212214	262,435901	0
14.01.2021	23:12:27	0	0	2,598584	1,81875	62,8236	0,268	74,733	3,5	1007,5	6,7	8,7	8,5	1	1	1	1	1	1	1	1	1	0	1	-58,703312	274,182217	261,731869	0
14.01.2021	23:12:28	0	0	4,519277	1,82625	65,8692	0,26	74,731	3,5	1007,3	6,7	8,7	8,5	1	1	1	1	1	1	1	1	1	0	1	-55,602537	274,219721	265,008004	0
14.01.2021	23:12:29	0	0	4,745241	1,9035	62,4312	0,266	74,707	3,5	1007,2	6,7	8,7	8,5	1	1	1	1	1	1	1	1	1	0	1	-56,730092	274,177721	263,684074	0
14.01.2021	23:12:30	0	0	3,841385	2,00325	59,5116	0,266	74,707	3,5	1007,3	6,7	8,7	8,5	1	1	1	1	1	1	1	1	1	0	1	-61,169838	274,079082	258,783484	0
14.01.2021	23:12:31	0	0	3,954367	2,1615	54,4824	0,261	74,675	3,5	1007,18	6,7	8,7	8,5	1	1	1	1	1	1	1	1	1	0	1	-56,448203	274,074611	263,484239	0
14.01.2021	23:12:32	0	0	3,615421	2,21475	57,7368	0,266	74,687	3,5	1007,22	6,8	8,7	8,5	1	1	1	1	1	1	1	1	1	0	1	-59,830867	274,219721	260,779674	0
14.01.2021	23:12:33	0	0	4,293313	2,39025	50,3352	0,268	74,665	3,5	1007,28	6,7	8,7	8,5	1	1	1	1	1	1	1	1	1	0	1	-59,126145	274,086537	260,86199	0
14.01.2021	23:12:34	0	0	4,971205	2,457	72,666	0,267	74,662	3,5	1007,46	6,7	8,7	8,5	1	1	1	1	1	1	1	1	1	0	1	-61,028894	274,227231	259,616769	0
14.01.2021	23:12:35	0	0	2,598584	2,691	56,2896	0,261	74,651	3,5	1007,28	6,7	8,7	8,5	1	1	1	1	1	1	1	1	1	0	1	-63,002114	274,046314	256,798226	0
14.01.2021	23:12:36	0	0	2,824548	3,19875	65,1564	0,265	74,651	3,5	1007,46	6,7	8,7	8,5	1	1	1	1	1	1	1	1	1	0	1	-55,03876	274,153762	265,263424	0
14.01.2021	23:12:37	0	0	3,163494	3,65175	73,4544	0,265	74,642	3,5	1007,34	6,7	8,8	8,5	1	1	1	1	1	1	1	1	1	0	1	-59,901339	274,053757	259,933742	0
14.01.2021	23:12:38	0	0	4,519277	4,25625	53,3484	0,267	74,646	3,5	1007,18	6,7	8,7	8,5	1	1	1	1	1	1	1	1	1	0	1	-55,884426	274,093995	264,138538	0
14.01.2021	23:12:39	0	0	4,632259	4,2765	62,7876	0,262	74,629	3,5	1007,34	6,7	8,7	8,5	1	1	1	1	1	1	1	1	1	0	1	-56,800564	274,043338	262,985884	0
14.01.2021	23:12:40	0	0	3,276476	4,15425	63,2808	0,268	74,644	3,5	1007,36	6,7	8,7	8,5	1	1	1	1	1	1	1	1	1	0	1	-55,673009	274,050779	264,148174	0
14.01.2021	23:12:41	0	0	2,711566	4,39725	77,9436	0,267	74,662	3,5	1007,28	6,7	8,7	8,5	1	1	1	1	1	1	1	1	1	0	1	-59,830867	274,120867	260,317616	0
14.01.2021	23:12:42	0	0	3,50244	4,86375	72,6804	0,269	74,681	3,5	1007,34	6,7	8,7	8,5	1	1	1	1	1	1	1	1	1	0	1	-59,689922	274,230235	260,969794	0
14.01.2021	23:12:43	0	0	2,93753	5,43825	72,3168	0,268	74,693	3,5	1007,38	6,7	8,7	8,5	1	1	1	1	1	1	1	1	1	0	1	-54,827343	274,156756	265,488829	0
14.01.2021	23:12:44	0	0	2,485602	5,7	80,154	0,271	74,708	3,5	1007,44	6,7	8,7	8,5	1	1	1	1	1	1	1	1	1	0	1	-58,914729	274,212214	261,660708	0
14.01.2021	23:12:45	0	0	4,067349	5,79375	77,2236	0,265	74,705	3,5	1007,32	6,7	8,7	8,5	1	1	1	1	1	1	1	1	1	0	1	-62,297393	274,19421	258,193859	0
14.01.2021	23:12:46	0	0	3,954367	5,9235	83,7396	0,262	74,685	3,5	1007,3	6,7	8,7	8,5	1	1	1	1	1	1	1	1	1	0	1	-55,954898	274,108919	264,137773	0
14.01.2021	23:12:47	0	0	3,389458	5,742	80,2368	0,261	74,718	3,5	1007,36	6,7	8,7	8,5	1	1	1	1	1	1	1	1	1	0	1	-56,871036	274,20321	263,662296	0
14.01.2021	23:12:48	0	0	4,067349	5,862	79,4196	0,261	74,663	3,5	1007,3	6,7	8,6	8,5	1	1	1	1	1	1	1	1	1	0	1	-54,968288	274,080573	264,991996	0
14.01.2021	23:12:49	0	0	4,745241	6,08025	69,4656	0,259	74,666	3,5	1007,38	6,7	8,7	8,5	1	1	1	1	1	1	1	1	1	0	1	-60,2537	274,210713	260,314717	0
14.01.2021	23:12:50	0	0	2,824531	6,26475	69,8472	0,266	74,687	3,5	1007,28	6,7	8,7	8,6	1	1	1	1	1	1	1	1	1	0	1	-54,263566	274,153762	266,038618	0
14.01.2021	23:12:51	0	0	2,93753	6,2085	60,5664	0,26	74,692	3,5	1007,08	6,7	8,7	8,5	1	1	1	1	1	1	1	1	1	0	1	-57,998591	274,213715	262,583865	0
14.01.2021	23:12:52	0	0	3,163494	5,934	76,3632	0,264	74,694	3,5	1007,38	6,7	8,7	8,5	1	1	1	1	1	1	1	1	1	0	1	-54,193094	274,031438	265,537813	0
14.01.2021	23:12:53	0	0	2,93753	6,1695	86,9544	0,264	74,712	3,5	1007,22	6,7	8,7	8,5	1	1	1	1	1	1	1	1	1	0	1	-58,63284	274,093995	261,390124	0
14.01.2021	23:12:54	0	0	4,632259	5,90475	94,1184	0,267	74,723	3,5	1007,4	6,7	8,7	8,5	1	1	1	1	1	1	1	1	1	0	1	-54,827343	274,20021	265,691959	0
14.01.2021	23:12:55	0	0	2,93753	5,57325	76,8096	0,267	74,728	3,5	1007,2	6,7	8,7	8,5	1	1	1	1	1	1	1	1	1	0	1	-53,629316	274,079082	266,324006	0
14.01.2021	23:12:56	0	0	2,711566	6,0165	83,3616	0,263	74,72	3,5	1007,28	6,7	8,7	8,5	1	1	1	1	1	1	1	1	1	0	1	-55,532065	274,07163	264,386461	0
14.01.2021	23:12:57	0	0	3,954367	6,009	92,2536	0,261	74,733	3,5	1007,38	6,7	8,7	8,5	1	1	1	1	1	1	1	1	1	0	1	-54,052149	274,0359	265,699581	0
14.01.2021	23:12:58	0	0	4,067349	6,2865	85,9248	0,258	74,749	3,5	1007,48	6,7	8,7	8,5	1	1	1	1	1	1	1	1	1	0	1	-58,210007	274,131328	261,987346	0
14.01.2021	23:12:59	0	0	3,050512	6,49125	89,7192	0,262	74,78	3,5	1007,2	6,7	8,7	8,5	1	1	1	1	1	1	1	1	1	0	1	-55,320648	274,212214	265,254788	0
14.01.2021	23:13:00	0	0	2,93753	5,65875	64,6344	0,26	74,805	3,5	1007,42	6,7	8,7	8,5	1	1	1	1	1	1	1	1	1	0	1	-60,535588	274,043338	259,25086	0
14.01.2021	23:13:01	0	0	2,93753	5,65875	64,6344	0,26	74,805	3,5	1007,42	6,7	8,7	8,5	1	1	1	1	1	1	1	1	1	0	1	-60,535588	274,043338	259,25086	0
14.01.2021	23:13:02	0	0	4,406295	5,454	65,0916	0,261	74,813	3,5	1007,34	6,7	8,7	8,5	1	1	1	1	1	1	1	1	1	0	1	-60,042283	274,131328	260,15507	0
14.01.2021	23:13:03	0	0	4,632259	5,448	88,956	0,268	74,828	3,5	1007,42	6,7	8,7	8,5	1	1	1	1	1	1	1	1	1	0	1	-56,166314	274,052268	263,661817	0
14.01.2021	23:13:04	0	0	3,276476	5,2605	77,2128	0,263	74,838	3,5	1007,38	6,7	8,7	8,5	1	1	1	1	1	1	1	1	1	0	1	-54,263566	274,093995	265,759398	0
14.01.2021	23:13:05	0	0	2,93753	4,9785	74,5308	0,259	74,84	3,5	1007,26	6,7	8,7	8,5	1	1	1	1	1	1	1	1	1	0	1	-58,844257	274,183716	261,597931	0
14.01.2021	23:13:06	0	0	3,954367	4,71825	82,6164	0,27	74,853	3,5	1007,38	6,7	8,7	8,5	1	1	1	1	1	1	1	1	1	0	1	-59,055673	274,192711	261,428568	0
14.01.2021	23:13:07	0	0	3,50244	4,542	73,7784	0,266	74,862	3,5	1007,36	6,7	8,7	8,5	1	1	1	1	1	1	1	1	1	0	1	-54,052149	274,058223	265,803784	0
14.01.2021	23:13:08	0	0	3,163494	4,506	72,3096	0,264	74,863	3,5	1007,44	6,7	8,7	8,5	1	1	1	1	1	1	1	1	1	0	1	-57,293869	274,212214	263,281567	0
14.01.2021	23:13:09	0	0	3,954367	4,88925	75,996	0,269	74,862	3,5	1007,4	6,7	8,7	8,5	1	1	1	1	1	1	1	1	1	0	1	-54,615927	274,185214	265,833268	0
14.01.2021	23:13:10	0	0	3,954367	5,2275	76,356	0,269	74,865	3,5	1007,42	6,7	8,7	8,5	1	1	1	1	1	1	1	1	1	0	1	-55,532065	274,219721	265,078476	0
14.01.2021	23:13:11	0	0	5,31015	5,022	69,4692	0,271	74,873	3,5	1007,2	6,7	8,7	8,5	1	1	1	1	1	1	1	1	1	0	1	-58,210007	274,131328	261,987346	0
14.01.2021	23:13:12	0	0	3,389458	4,73925	72,0792	0,27	74,881	3,5	1007,34	6,6	8,7	8,5	1	1	1	1	1	1	1	1	1	0	1	-59,61945	274,053757	260,215631	0
14.01.2021	23:13:13	0	0	3,954367	4,62675	75,978	0,269	74,891	3,5	1007,4	6,7	8,7	8,5	1	1	1	1	1	1	1	1	1	0	1	-60,747005	274,155259	259,562173	0
14.01.2021	23:13:14	0	0	3,615421	4,41525	68,4108	0,272	74,901	3,5	1007,56	6,7	8,7	8,5	1	1	1	1	1	1	1	1	1	0	1	-60,535588	274,236246	260,152242	0
14.01.2021	23:13:15	0	0	3,050512	4,197	62,4348	0,271	74,901	3,5	1007,28	6,7	8,7	8,5	1	1	1	1	1	1	1	1	1	0	1	-57,787174	274,186713	262,669029	0
14.01.2021	23:13:16	0	0	2,598584	3,90975	55,926	0,272	74,904	3,5	1007,3	6,7	8,7	8,5	1	1	1	1	1	1	1	1	1	0	1	-59,196617	274,182217	261,238564	0
14.01.2021	23:13:17	0	0	2,485602	3,73575	56,6748	0,273	74,919	3,5	1007,44	6,7	8,7	8,5	1	1	1	1	1	1	1	1	1	0	1	-61,169838	274,23324	259,503934	0
14.01.2021	23:13:18	0	0	3,954367	3,50025	58,4712	0,274	74,911	3,5	1007,36	6,8	8,7	8,5	1	1	1	1	1	1	1	1	1	0	1	-59,760395	274,168733	260,611758	0
14.01.2021	23:13:19	0	0	4,858223	3,33225	55,2024	0,27	74,903	3,5	1007,42	6,7	8,7	8,5	1	1	1	1	1	1	1	1	1	0	1	-60,112755	274,06865	259,791856	0
14.01.2021	23:13:20	0	0	3,50244	3,26025	55,9296	0,273	74,886	3,5	1007,28	6,8	8,7	8,5	1	1	1	1	1	1	1	1	1	0	1	-59,478506	274,149273	260,8027	0
14.01.2021	23:13:21	0	0	3,954367	3,237	43,686	0,272	74,888	3,5	1007,28	6,7	8,7	8,5	1	1	1	1	1	1	1	1	1	0	1	-54,052149	274,246769	266,684907	0
14.01.2021	23:13:22	0	0	4,858223	2,964	41,4648	0,28	74,889	3,5	1007,28	6,8	8,8	8,5	1	1	1	1	1	1	1	1	1	0	1	-62,085976	274,177721	258,32819	0
14.01.2021	23:13:23	0	0	4,745241	2,75475	44,0568	0,279	74,877	3,5	1007,38	6,7	8,7	8,5	1	1	1	1	1	1	1	1	1	0	1	-58,210007	274,225728	262,42863	0
14.01.2021	23:13:24	0	0	2,93753	3,08175	51,7572	0,276	74,876	3,5	1007,28	6,7	8,7	8,5	1	1	1	1	1	1	1	1	1	0	1	-60,535588	274,164241	259,815567	0
14.01.2021	23:13:25	0	0	3,276476	3,3255	59,8608	0,281	74,861	3,5	1007,54	6,8	8,7	8,5	1	1	1	1	1	1	1	1	1	0	1	-58,139535	274,248273	262,604556	0
14.01.2021	23:13:26	0	0	3,276476	3,3675	74,5344	0,275	74,821	3,5	1007,2	6,6	8,7	8,5	1	1	1	1	1	1	1	1	1	0	1	-59,196617	274,215217	261,392859	0
14.01.2021	23:13:27	0	0	3,954367	3,32625	54,0972	0,277	74,831	3,5	1007,34	6,7	8,7	8,5	1	1	1	1	1	1	1	1	1	0	1	-55,884426	274,082064	264,08282	0
14.01.2021	23:13:28	0	0	2,711566	3,522	80,5356	0,282	74,806	3,5	1007,42	6,7	8,7	8,5	1	1	1	1	1	1	1	1	1	0	1	-58,421424	274,053757	261,413658	0
14.01.2021	23:13:29	0	0	4,858223	3,50475	74,1636	0,279	74,785	3,5	1007,32	6,8	8,7	8,5	1	1	1	1	1	1	1	1	1	0	1	-63,495419	274,146281	256,771805	0
14.01.2021	23:13:30	0	0	4,745241	3,48525	32,526	0,279	74,786	3,5	1007,2	6,7	8,7	8,5	1	1	1	1	1	1	1	1	1	0	1	-60,817477	274,062691	259,059315	0
14.01.2021	23:13:31	0	0	2,824548	3,2955	66,7368	0,283	74,781	3,5	1007,2	6,6	8,7	8,5	1	1	1	1	1	1	1	1	1	0	1	-60,676533	274,180718	259,751643	0
14.01.2021	23:13:32	0	0	2,598584	3,06975	53,7372	0,305	74,779	3,5	1007,54	6,7	8,7	8,5	1	1	1	1	1	1	1	1	1	0	1	-54,545455	274,245266	266,184568	0
14.01.2021	23:13:33	0	0	4,632259	2,778	42,9228	0,285	74,764	3,5	1007,3	6,8	8,7	8,5	1	1	1	1	1	1	1	1	1	0	1	-57,364341	274,108919	262,728329	0
14.01.2021	23:13:34	0	0	4,632259	2,54475	42,9084	0,281	74,749	3,5	1007,3	6,7	8,7	8,5	1	1	1	1	1	1	1	1	1	0	1	-53,699789	274,102948	266,364991	0
14.01.2021	23:13:35	0	0	2,824548	2,24775	36,6228	0,282	74,725	3,5	1007,18	6,7	8,7	8,5	1	1	1	1	1	1	1	1	1	0	1	-59,830867	274,19421	260,660385	0
14.01.2021	23:13:36	0	0	3,728403	2,1375	51,7644	0,286	74,716	3,5	1007,26	6,7	8,7	8,5	1	1	1	1	1	1	1	1	1	0	1	-59,267089	274,246769	261,469967	0
14.01.2021	23:13:37	0	0	4,180331	2,19	46,6128	0,288	74,714	3,5	1007,4	6,7	8,7	8,5	1	1	1	1	1	1	1	1	1	0	1	-53,699789	274,20021	266,819514	0
14.01.2021	23:13:38	0	0	3,163494	2,2785	53,37	0,283	74,699	3,5	1007,34	6,6	8,7	8,5	1	1	1	1	1	1	1	1	1	0	1	-60,2537	274,104441	259,818052	0
14.01.2021	23:13:39	0	0	4,406295	2,2755	64,6128	0,289	74,656	3,5	1007,26	6,8	8,7	8,5	1	1	1	1	1	1	1	1	1	0	1	-52,924595	274,23324	267,749177	0
14.01.2021	23:13:40	0	0	2,711566	2,328	71,2404	0,279	74,657	3,5	1007,4	6,7	8,7	8,5	1	1	1	1	1	1	1	1	1	0	1	-61,592671	274,192711	258,89157	0
14.01.2021	23:13:41	0	0	4,293313	2,2635	48,1356	0,285	74,627	3,5	1007,4	6,7	8,7	8,5	1	1	1	1	1	1	1	1	1	0	1	-62,508809	274,240755	258,200114	0
14.01.2021	23:13:42	0	0	3,728403	2,277	49,2048	0,29	74,626	3,5	1007,32	6,7	8,7	8,5	1	1	1	1	1	1	1	1	1	0	1	-57,01198	274,204711	263,528368	0
14.01.2021	23:13:43	0	0	4,406295	2,6685	48,8268	0,284	74,614	3,5	1007,32	6,7	8,7	8,5	1	1	1	1	1	1	1	1	1	0	1	-55,884426	274,245266	264,845596	0
14.01.2021	23:13:44	0	0	3,163494	3,021	59,8608	0,29	74,594	3,5	1007,38	6,7	8,7	8,5	1	1	1	1	1	1	1	1	1	0	1	-55,602537	274,237749	265,092324	0
14.01.2021	23:13:45	0	0	2,598584	3,3075	61,524	0,283	74,585	3,5	1007,36	6,8	8,7	8,5	1	1	1	1	1	1	1	1	1	0	1	-57,64623	274,159749	262,683934	0
14.01.2021	23:13:46	0	0	4,519277	3,2925	67,6944	0,291	74,582	3,5	1007,32	6,8	8,7	8,5	1	1	1	1	1	1	1	1	1	0	1	-63,072586	274,06716	256,825069	0
14.01.2021	23:13:47	0	0	4,067349	3,273	56,2896	0,287	74,565	3,5	1007,28	6,6	8,7	8,5	1	1	1	1	1	1	1	1	1	0	1	-57,928118	274,128339	262,255269	0
14.01.2021	23:13:48	0	0	4,180306	3,30375	68,3928	0,293	74,553	3,5	1007,26	6,6	8,7	8,6	1	1	1	1	1	1	1	1	1	0	1	-58,844257	274,236246	261,843574	0
14.01.2021	23:13:49	0	0	3,502419	3,549	71,2512	0,286	74,544	3,5	1007,36	6,7	8,7	8,6	1	1	1	1	1	1	1	1	1	0	1	-55,954898	274,082064	264,012347	0
14.01.2021	23:13:50	0	0	3,163494	3,74625	64,638	0,29	74,549	3,5	1007,3	6,8	8,7	8,5	1	1	1	1	1	1	1	1	1	0	1	-54,968288	274,158252	265,35488	0
14.01.2021	23:13:51	0	0	4,632259	4,227	70,2396	0,291	74,541	3,5	1007,3	6,7	8,7	8,5	1	1	1	1	1	1	1	1	1	0	1	-58,844257	274,059713	261,018629	0
14.01.2021	23:13:52	0	0	3,163494	4,22625	65,862	0,289	74,544	3,5	1007,44	6,8	8,7	8,5	1	1	1	1	1	1	1	1	1	0	1	-57,64623	274,164241	262,704926	0
14.01.2021	23:13:53	0	0	2,711566	4,05225	84,8196	0,283	74,538	3,5	1007,32	6,8	8,7	8,5	1	1	1	1	1	1	1	1	1	0	1	-56,941508	274,102948	263,123272	0
14.01.2021	23:13:54	0	0	2,146656	3,77325	69,4656	0,287	74,536	3,5	1007,4	6,7	8,7	8,5	1	1	1	1	1	1	1	1	1	0	1	-63,988724	274,050779	255,832458	0
14.01.2021	23:13:55	0	0	4,519277	3,55125	80,5068	0,29	74,521	3,5	1007,38	6,7	8,7	8,5	1	1	1	1	1	1	1	1	1	0	1	-61,804087	274,119373	258,337417	0
14.01.2021	23:13:56	0	0	3,163475	3,26775	97,3476	0,291	74,529	3,5	1007,3	6,7	8,7	8,6	1	1	1	1	1	1	1	1	1	0	1	-57,716702	274,234743	262,964099	0
14.01.2021	23:13:57	0	0	2,711566	2,916	87,0876	0,293	74,512	3,5	1007,3	6,7	8,7	8,5	1	1	1	1	1	1	1	1	1	0	1	-59,830867	274,080573	260,129416	0
14.01.2021	23:13:58	0	0	2,711566	2,6355	98,802	0,289	74,503	3,5	1007,26	6,7	8,7	8,5	1	1	1	1	1	1	1	1	1	0	1	-57,716702	274,213715	262,865754	0
14.01.2021	23:13:59	0	0	2,93753	2,472	119,4444	0,286	74,474	3,5	1007,32	6,8	8,7	8,5	1	1	1	1	1	1	1	1	1	0	1	-56,518675	274,210713	264,049742	0
14.01.2021	23:14:00	0	0	4,632259	2,0175	44,406	0,293	74,45	3,5	1007,32	6,7	8,7	8,5	1	1	1	1	1	1	1	1	1	0	1	-56,448203	274,225728	264,190434	0
14.01.2021	23:14:01	0	0	4,519277	1,92525	74,1672	0,282	74,439	3,5	1007,38	6,7	8,7	8,5	1	1	1	1	1	1	1	1	1	0	1	-56,448203	274,225728	264,190434	0
14.01.2021	23:14:02	0	0	4,519277	1,92525	74,1672	0,282	74,439	3,5	1007,38	6,7	8,7	8,5	1	1	1	1	1	1	1	1	1	0	1	-59,830867	274,17922	260,590304	0
14.01.2021	23:14:03	0	0	3,615421	1,9545	63,5148	0,293	74,438	3,5	1007,4	6,7	8,7	8,5	1	1	1	1	1	1	1	1	1	0	1	-57,575758	274,06716	262,321898	0
14.01.2021	23:14:04	0	0	2,93753	1,9395	79,758	0,289	74,421	3,5	1007,26	6,8	8,7	8,5	1	1	1	1	1	1	1	1	1	0	1	-59,971811	274,132823	260,232526	0
14.01.2021	23:14:05	0	0	2,598584	2,00175	106,6788	0,285	74,418	3,5	1007,34	6,7	8,7	8,5	1	1	1	1	1	1	1	1	1	0	1	-57,505285	274,047803	262,302002	0
14.01.2021	23:14:06	0	0	4,745241	1,9395	84,0348	0,287	74,419	3,5	1007,46	6,6	8,7	8,5	1	1	1	1	1	1	1	1	1	0	1	-63,213531	274,19871	257,298758	0
14.01.2021	23:14:07	0	0	4,745241	1,77225	93,3552	0,281	74,413	3,5	1007,2	6,8	8,7	8,5	1	1	1	1	1	1	1	1	1	0	1	-57,928118	274,152266	262,367072	0
14.01.2021	23:14:08	0	0	4,406295	1,692	90,7956	0,288	74,419	3,5	1007,36	6,8	8,7	8,5	1	1	1	1	1	1	1	1	1	0	1	-59,337562	274,055245	260,50447	0
14.01.2021	23:14:09	0	0	4,971205	1,7955	88,9596	0,282	74,405	3,5	1007,16	6,6	8,7	8,5	1	1	1	1	1	1	1	1	1	0	1	-55,602537	274,111906	264,504083	0
14.01.2021	23:14:10	0	0	2,824548	1,9065	85,1832	0,287	74,397	3,5	1007,22	6,7	8,7	8,5	1	1	1	1	1	1	1	1	1	0	1	-59,126145	274,038875	260,63947	0
14.01.2021	23:14:11	0	0	4,971205	2,148	97,344	0,282	74,408	3,5	1007,14	6,8	8,7	8,5	1	1	1	1	1	1	1	1	1	0	1	-58,139535	274,105934	261,939189	0
14.01.2021	23:14:12	0	0	4,519277	2,331	66,5388	0,287	74,42	3,5	1007,36	6,7	8,7	8,5	1	1	1	1	1	1	1	1	1	0	1	-62,156448	274,221223	258,461116	0
14.01.2021	23:14:13	0	0	3,276476	2,316	86,2848	0,285	74,412	3,5	1007,4	6,7	8,7	8,5	1	1	1	1	1	1	1	1	1	0	1	-57,928118	274,085046	262,053052	0
14.01.2021	23:14:14	0	0	2,598584	2,49	82,4148	0,286	74,42	3,5	1007,3	6,7	8,7	8,5	1	1	1	1	1	1	1	1	1	0	1	-57,64623	274,147777	262,627985	0
14.01.2021	23:14:15	0	0	3,728403	2,59425	78,3	0,283	74,41	3,5	1007,42	6,7	8,7	8,5	1	1	1	1	1	1	1	1	1	0	1	-60,747005	274,06567	259,143696	0
14.01.2021	23:14:16	0	0	3,615421	2,928	80,1468	0,28	74,398	3,5	1007,28	6,7	8,7	8,5	1	1	1	1	1	1	1	1	1	0	1	-58,703312	274,170231	261,675841	0
14.01.2021	23:14:17	0	0	3,276476	3,2475	79,776	0,287	74,402	3,5	1007,4	6,7	8,7	8,5	1	1	1	1	1	1	1	1	1	0	1	-60,112755	274,227231	260,532907	0
14.01.2021	23:14:18	0	0	2,93753	3,32925	78,3972	0,28	74,388	3,5	1007,42	6,7	8,7	8,5	1	1	1	1	1	1	1	1	1	0	1	-56,095842	274,099963	263,954996	0
14.01.2021	23:14:19	0	0	3,050512	3,27225	71,5896	0,285	74,383	3,5	1007,42	6,7	8,7	8,5	1	1	1	1	1	1	1	1	1	0	1	-61,310782	274,215217	259,278694	0
14.01.2021	23:14:20	0	0	4,406295	3,21	67,2876	0,276	74,361	3,5	1007,32	6,7	8,7	8,5	1	1	1	1	1	1	1	1	1	0	1	-59,689922	274,132823	260,514415	0
14.01.2021	23:14:21	0	0	4,293287	3,033	71,9964	0,281	74,372	3,5	1007,34	6,7	8,7	8,6	1	1	1	1	1	1	1	1	1	0	1	-54,122622	274,037387	265,636051	0
14.01.2021	23:14:22	0	0	3,050512	2,9685	63,8604	0,281	74,363	3,5	1007,26	6,7	8,7	8,5	1	1	1	1	1	1	1	1	1	0	1	-60,324172	274,049291	259,490063	0
14.01.2021	23:14:23	0	0	4,632259	3,093	77,2164	0,279	74,347	3,5	1007,42	6,7	8,7	8,5	1	1	1	1	1	1	1	1	1	0	1	-57,575758	274,102948	262,489022	0
14.01.2021	23:14:24	0	0	2,259638	3,09525	69,858	0,284	74,343	3,5	1007,44	6,7	8,7	8,5	1	1	1	1	1	1	1	1	1	0	1	-58,491896	274,031438	261,239011	0
14.01.2021	23:14:25	0	0	4,971205	2,97075	69,8508	0,28	74,343	3,5	1007,3	6,7	8,7	8,5	1	1	1	1	1	1	1	1	1	0	1	-61,522199	274,099963	258,52864	0
14.01.2021	23:14:26	0	0	3,050512	2,9205	70,8192	0,279	74,344	3,5	1007,32	6,7	8,7	8,5	1	1	1	1	1	1	1	1	1	0	1	-62,438337	274,23324	258,235435	0
14.01.2021	23:14:27	0	0	4,519277	2,8185	77,2164	0,277	74,33	3,5	1007,4	6,7	8,7	8,5	1	1	1	1	1	1	1	1	1	0	1	-57,082452	274,180718	263,345723	0
14.01.2021	23:14:28	0	0	4,745241	2,7015	68,7708	0,278	74,345	3,5	1007,44	6,7	8,7	8,5	1	1	1	1	1	1	1	1	1	0	1	-57,928118	274,088029	262,066981	0
14.01.2021	23:14:29	0	0	5,084186	2,757	57,726	0,278	74,344	3,5	1007,34	6,7	8,7	8,5	1	1	1	1	1	1	1	1	1	0	1	-57,575758	274,034413	262,169031	0
14.01.2021	23:14:30	0	0	2,711566	2,9295	82,3356	0,275	74,351	3,5	1007,3	6,7	8,7	8,5	1	1	1	1	1	1	1	1	1	0	1	-56,871036	274,077591	263,075326	0
14.01.2021	23:14:31	0	0	5,423132	2,976	74,5488	0,276	74,358	3,5	1007,42	6,7	8,7	8,5	1	1	1	1	1	1	1	1	1	0	1	-57,575758	274,20321	262,957574	0
14.01.2021	23:14:32	0	0	2,711566	2,96475	79,0308	0,279	74,368	3,5	1007,34	6,7	8,7	8,5	1	1	1	1	1	1	1	1	1	0	1	-56,518675	274,165738	263,839479	0
14.01.2021	23:14:33	0	0	4,745241	3,024	75,2364	0,277	74,376	3,5	1007,3	6,7	8,7	8,5	1	1	1	1	1	1	1	1	1	0	1	-58,421424	274,052268	261,406708	0
14.01.2021	23:14:34	0	0	4,067349	3,036	73,4076	0,268	74,366	3,5	1007,44	6,7	8,7	8,5	1	1	1	1	1	1	1	1	1	0	1	-56,236786	274,19871	264,275502	0
14.01.2021	23:14:35	0	0	3,841385	3,2325	67,2696	0,273	74,379	3,5	1007,38	6,7	8,7	8,5	1	1	1	1	1	1	1	1	1	0	1	-59,971811	274,182217	260,46337	0
14.01.2021	23:14:36	0	0	3,163494	3,306	60,9372	0,275	74,35	3,5	1007,34	6,7	8,7	8,5	1	1	1	1	1	1	1	1	1	0	1	-62,015504	274,156756	258,300669	0
14.01.2021	23:14:37	0	0	4,180306	3,37575	57,42	0,271	74,369	3,5	1007,34	6,7	8,7	8,6	1	1	1	1	1	1	1	1	1	0	1	-56,236786	274,040363	263,535773	0
14.01.2021	23:14:38	0	0	3,389458	3,3645	61,6896	0,264	74,344	3,5	1007,16	6,7	8,7	8,5	1	1	1	1	1	1	1	1	1	0	1	-60,887949	274,086537	259,100185	0
14.01.2021	23:14:39	0	0	2,37262	3,44625	63,8604	0,27	74,346	3,5	1007,26	6,7	8,7	8,5	1	1	1	1	1	1	1	1	1	0	1	-56,589147	274,20321	263,944185	0
14.01.2021	23:14:40	0	0	3,050512	3,49125	63,8568	0,266	74,332	3,5	1007,3	6,7	8,7	8,5	1	1	1	1	1	1	1	1	1	0	1	-61,381254	274,06716	258,516401	0
14.01.2021	23:14:41	0	0	3,389458	3,47775	60,9372	0,269	74,324	3,5	1007,44	6,7	8,7	8,5	1	1	1	1	1	1	1	1	1	0	1	-61,310782	274,167235	259,054371	0
14.01.2021	23:14:42	0	0	4,971175	3,39375	67,2948	0,268	74,319	3,5	1007,22	6,7	8,7	8,6	1	1	1	1	1	1	1	1	1	0	1	-58,914729	274,0359	260,837001	0
14.01.2021	23:14:43	0	0	3,841385	3,21675	72,6984	0,27	74,319	3,5	1007,42	6,7	8,7	8,5	1	1	1	1	1	1	1	1	1	0	1	-59,408034	274,161246	260,929126	0
14.01.2021	23:14:44	0	0	4,519277	3,1425	70,866	0,266	74,305	3,5	1007,38	6,7	8,7	8,5	1	1	1	1	1	1	1	1	1	0	1	-57,223397	274,20021	263,295906	0
14.01.2021	23:14:45	0	0	4,858223	3,0435	45,1656	0,258	74,306	3,5	1007,34	6,7	8,7	8,5	1	1	1	1	1	1	1	1	1	0	1	-56,377731	274,123856	263,784712	0
14.01.2021	23:14:46	0	0	4,067349	2,769	65,4732	0,26	74,311	3,5	1007,24	6,7	8,7	8,5	1	1	1	1	1	1	1	1	1	0	1	-58,421424	274,210713	262,146994	0
14.01.2021	23:14:47	0	0	3,389458	2,5185	68,3856	0,264	74,313	3,5	1007,46	6,7	8,7	8,5	1	1	1	1	1	1	1	1	1	0	1	-57,364341	274,056734	262,484641	0
14.01.2021	23:14:48	0	0	3,050512	2,32275	51,0624	0,268	74,32	3,5	1007,44	6,7	8,7	8,5	1	1	1	1	1	1	1	1	1	0	1	-60,747005	274,085046	259,234166	0
14.01.2021	23:14:49	0	0	3,841385	2,23725	50,6988	0,266	74,313	3,5	1007,34	6,7	8,7	8,5	1	1	1	1	1	1	1	1	1	0	1	-60,747005	274,20171	259,779312	0
14.01.2021	23:14:50	0	0	2,598584	2,23875	56,286	0,26	74,31	3,5	1007,42	6,7	8,7	8,5	1	1	1	1	1	1	1	1	1	0	1	-60,042283	274,126844	260,134122	0
14.01.2021	23:14:51	0	0	3,728403	2,3715	59,868	0,26	74,299	3,5	1007,32	6,7	8,7	8,5	1	1	1	1	1	1	1	1	1	0	1	-61,945032	274,204711	258,595316	0
14.01.2021	23:14:52	0	0	2,711566	2,43825	65,0952	0,259	74,306	3,5	1007,28	6,7	8,7	8,5	1	1	1	1	1	1	1	1	1	0	1	-57,223397	274,055245	262,618634	0
14.01.2021	23:14:53	0	0	2,93753	2,391	73,7964	0,258	74,309	3,5	1007,46	6,7	8,7	8,5	1	1	1	1	1	1	1	1	1	0	1	-60,112755	274,167235	260,252398	0
14.01.2021	23:14:54	0	0	3,728403	2,562	72,0108	0,259	74,33	3,5	1007,38	6,7	8,7	8,5	1	1	1	1	1	1	1	1	1	0	1	-57,505285	274,024005	262,190929	0
14.01.2021	23:14:55	0	0	3,276476	2,6535	58,122	0,257	74,334	3,5	1007,38	6,7	8,7	8,5	1	1	1	1	1	1	1	1	1	0	1	-62,015504	274,135813	258,202804	0
14.01.2021	23:14:56	0	0	2,93753	2,44575	101,8152	0,26	74,345	3,5	1007,36	6,7	8,7	8,5	1	1	1	1	1	1	1	1	1	0	1	-58,703312	274,029951	261,020655	0
14.01.2021	23:14:57	0	0	4,519277	2,1255	99,9	0,259	74,355	3,5	1007,34	6,7	8,7	8,5	1	1	1	1	1	1	1	1	1	0	1	-61,310782	274,138803	258,921498	0
14.01.2021	23:14:58	0	0	2,71155	2,20875	51,0588	0,255	74,365	3,5	1007,36	6,7	8,7	8,6	1	1	1	1	1	1	1	1	1	0	1	-60,324172	274,19571	260,174091	0
14.01.2021	23:14:59	0	0	4,519277	2,74125	57,7188	0,252	74,398	3,5	1007,36	6,7	8,7	8,5	1	1	1	1	1	1	1	1	1	0	1	-57,505285	274,164241	262,84587	0
14.01.2021	23:15:00	0	0	3,50244	3,723	70,5996	0,253	74,415	3,5	1007,3	6,7	8,7	8,5	1	1	1	1	1	1	1	1	1	0	1	-57,64623	274,032925	262,091618	0
14.01.2021	23:15:01	0	0	3,50244	3,723	70,5996	0,253	74,415	3,5	1007,3	6,7	8,7	8,5	1	1	1	1	1	1	1	1	1	0	1	-57,64623	274,032925	262,091618	0
14.01.2021	23:15:02	0	0	2,824548	4,65075	62,784	0,252	74,425	3,5	1007,4	6,7	8,7	8,5	1	1	1	1	1	1	1	1	1	0	1	-59,267089	274,129833	260,92328	0
14.01.2021	23:15:03	0	0	3,276476	5,262	70,2288	0,247	74,435	3,5	1007,38	6,7	8,7	8,5	1	1	1	1	1	1	1	1	1	0	1	-56,589147	273,997267	262,982309	0
14.01.2021	23:15:04	0	0	3,615421	5,388	66,5388	0,252	74,449	3,5	1007,4	6,7	8,7	8,5	1	1	1	1	1	1	1	1	1	0	1	-60,747005	274,152266	259,548186	0
14.01.2021	23:15:05	0	0	2,824548	5,41725	68,4036	0,248	74,446	3,5	1007,36	6,7	8,7	8,5	1	1	1	1	1	1	1	1	1	0	1	-56,730092	274,191211	263,747139	0
14.01.2021	23:15:06	0	0	4,858223	5,031	59,1192	0,248	74,466	3,5	1007,46	6,7	8,7	8,5	1	1	1	1	1	1	1	1	1	0	1	-60,817477	274,134318	259,393845	0
14.01.2021	23:15:07	0	0	2,937512	5,13675	75,996	0,248	74,476	3,5	1007,58	6,7	8,7	8,6	1	1	1	1	1	1	1	1	1	0	1	-58,914729	274,153762	261,387455	0
14.01.2021	23:15:08	0	0	2,146656	4,80075	80,8992	0,249	74,495	3,5	1007,34	6,7	8,6	8,5	1	1	1	1	1	1	1	1	1	0	1	-57,575758	274,183716	262,86643	0
14.01.2021	23:15:09	0	0	3,276476	4,4535	84,7836	0,251	74,491	3,5	1007,32	6,7	8,7	8,5	1	1	1	1	1	1	1	1	1	0	1	-58,491896	274,046314	261,308444	0
14.01.2021	23:15:10	0	0	4,293313	4,77075	74,934	0,242	74,504	3,5	1007,56	6,7	8,7	8,5	1	1	1	1	1	1	1	1	1	0	1	-64,411557	274,17922	256,009613	0
14.01.2021	23:15:11	0	0	4,293313	4,689	77,9688	0,245	74,494	3,5	1007,22	6,7	8,7	8,5	1	1	1	1	1	1	1	1	1	0	1	-64,341085	274,188213	256,122126	0
14.01.2021	23:15:12	0	0	2,485602	4,43625	65,8296	0,245	74,5	3,5	1007,34	6,7	8,7	8,5	1	1	1	1	1	1	1	1	1	0	1	-57,082452	274,050779	262,73873	0
14.01.2021	23:15:13	0	0	4,406295	4,42425	68,0004	0,245	74,526	3,5	1007,34	6,7	8,7	8,5	1	1	1	1	1	1	1	1	1	0	1	-61,24031	274,19571	259,257953	0
14.01.2021	23:15:14	0	0	5,31015	4,3935	70,8372	0,241	74,543	3,5	1007,18	6,7	8,7	8,5	1	1	1	1	1	1	1	1	1	0	1	-56,448203	274,128339	263,735184	0
14.01.2021	23:15:15	0	0	2,485587	4,42425	71,5968	0,245	74,581	3,5	1007,38	6,7	8,7	8,6	1	1	1	1	1	1	1	1	1	0	1	-64,341085	274,183716	256,101103	0
14.01.2021	23:15:16	0	0	2,824548	4,0995	85,5396	0,242	74,619	3,5	1007,34	6,7	8,7	8,5	1	1	1	1	1	1	1	1	1	0	1	-59,408034	274,000236	260,177274	0
14.01.2021	23:15:17	0	0	4,632231	4,24875	83,3508	0,244	74,65	3,5	1007,32	6,7	8,7	8,6	1	1	1	1	1	1	1	1	1	0	1	-62,720226	274,086537	257,267909	0
14.01.2021	23:15:18	0	0	2,598584	4,26	91,908	0,245	74,663	3,5	1007,34	6,7	8,6	8,5	1	1	1	1	1	1	1	1	1	0	1	-56,236786	274,171729	264,149368	0
14.01.2021	23:15:19	0	0	2,711566	4,4715	87,7284	0,242	74,684	3,5	1007,3	6,7	8,7	8,5	1	1	1	1	1	1	1	1	1	0	1	-58,280479	274,046314	261,519861	0
14.01.2021	23:15:20	0	0	4,293313	4,20825	76,7952	0,241	74,714	3,5	1007,4	6,7	8,7	8,5	1	1	1	1	1	1	1	1	1	0	1	-57,364341	274,076101	262,575061	0
14.01.2021	23:15:21	0	0	3,615421	4,53525	77,9724	0,24	74,737	3,5	1007,4	6,7	8,7	8,5	1	1	1	1	1	1	1	1	1	0	1	-61,310782	274,006175	258,302237	0
14.01.2021	23:15:22	0	0	2,711566	4,758	78,2676	0,244	74,752	3,5	1007,5	6,7	8,7	8,5	1	1	1	1	1	1	1	1	1	0	1	-60,817477	274,180718	259,610699	0
14.01.2021	23:15:23	0	0	2,93753	4,64475	72,3168	0,249	74,797	3,5	1007,66	6,7	8,7	8,5	1	1	1	1	1	1	1	1	1	0	1	-57,505285	274,062691	262,371506	0
14.01.2021	23:15:24	0	0	4,519277	4,85175	76,8132	0,244	74,786	3,5	1007,36	6,7	8,7	8,5	1	1	1	1	1	1	1	1	1	0	1	-60,112755	274,176223	260,294407	0
14.01.2021	23:15:25	0	0	2,93753	4,8585	75,9996	0,245	74,815	3,5	1007,44	6,7	8,7	8,5	1	1	1	1	1	1	1	1	1	0	1	-56,871036	274,080573	263,089247	0
14.01.2021	23:15:26	0	0	4,519277	4,91475	74,5524	0,24	74,82	3,5	1007,42	6,7	8,8	8,5	1	1	1	1	1	1	1	1	1	0	1	-57,716702	274,010631	261,917107	0
14.01.2021	23:15:27	0	0	3,954344	4,8555	71,9856	0,24	74,803	3,5	1007,4	6,7	8,7	8,6	1	1	1	1	1	1	1	1	1	0	1	-59,267089	274,037387	260,491583	0
14.01.2021	23:15:28	0	0	4,293313	4,57725	76,068	0,242	74,811	3,5	1007,32	6,7	8,7	8,5	1	1	1	1	1	1	1	1	1	0	1	-59,830867	274,07312	260,094617	0
14.01.2021	23:15:29	0	0	3,728403	4,6125	74,9124	0,234	74,805	3,5	1007,4	6,7	8,7	8,5	1	1	1	1	1	1	1	1	1	0	1	-57,152925	274,034413	262,591864	0
14.01.2021	23:15:30	0	0	3,841385	4,542	67,3056	0,243	74,812	3,5	1007,38	6,7	8,7	8,5	1	1	1	1	1	1	1	1	1	0	1	-59,548978	274,183716	260,89321	0
14.01.2021	23:15:31	0	0	5,084186	4,60425	69,4656	0,239	74,837	3,5	1007,38	6,7	8,7	8,5	1	1	1	1	1	1	1	1	1	0	1	-60,887949	274,185214	259,561246	0
14.01.2021	23:15:32	0	0	3,841385	4,58925	77,9688	0,245	74,834	3,5	1007,36	6,7	8,6	8,5	1	1	1	1	1	1	1	1	1	0	1	-58,491896	274,077591	261,454466	0
14.01.2021	23:15:33	0	0	2,824548	4,4085	70,8336	0,244	74,832	3,5	1007,36	6,7	8,7	8,5	1	1	1	1	1	1	1	1	1	0	1	-60,2537	274,192711	260,230541	0
14.01.2021	23:15:34	0	0	2,711566	4,29075	71,2116	0,242	74,837	3,5	1007,3	6,7	8,7	8,5	1	1	1	1	1	1	1	1	1	0	1	-58,914729	274,064181	260,969017	0
14.01.2021	23:15:35	0	0	2,93753	4,35675	72,3096	0,245	74,824	3,5	1007,46	6,7	8,7	8,5	1	1	1	1	1	1	1	1	1	0	1	-61,24031	274,024005	258,455904	0
14.01.2021	23:15:36	0	0	4,406295	4,23225	70,5852	0,243	74,811	3,5	1007,3	6,7	8,7	8,5	1	1	1	1	1	1	1	1	1	0	1	-64,129669	274,155259	256,179509	0
14.01.2021	23:15:37	0	0	3,276476	3,876	62,802	0,241	74,814	3,5	1007,34	6,7	8,7	8,5	1	1	1	1	1	1	1	1	1	0	1	-57,575758	274,173227	262,817399	0
14.01.2021	23:15:38	0	0	2,93753	3,46125	66,2112	0,24	74,8	3,5	1007,44	6,7	8,8	8,5	1	1	1	1	1	1	1	1	1	0	1	-64,270613	274,016574	255,390925	0
14.01.2021	23:15:39	0	0	2,711566	3,38325	71,64	0,24	74,797	3,5	1007,36	6,7	8,8	8,5	1	1	1	1	1	1	1	1	1	0	1	-56,448203	274,096979	263,588697	0
14.01.2021	23:15:40	0	0	3,163494	3,31575	54,4752	0,238	74,813	3,5	1007,32	6,7	8,8	8,5	1	1	1	1	1	1	1	1	1	0	1	-59,408034	274,20171	261,118283	0
14.01.2021	23:15:41	0	0	3,389458	3,3255	60,5484	0,239	74,818	3,5	1007,34	6,7	8,7	8,5	1	1	1	1	1	1	1	1	1	0	1	-60,2537	274,049291	259,560535	0
14.01.2021	23:15:42	0	0	3,50244	3,88275	59,76	0,243	74,828	3,5	1007,26	6,7	8,7	8,5	1	1	1	1	1	1	1	1	1	0	1	-62,156448	274,182217	258,278733	0
14.01.2021	23:15:43	0	0	2,598584	4,083	69,8616	0,242	74,818	3,5	1007,32	6,7	8,7	8,5	1	1	1	1	1	1	1	1	1	0	1	-65,257223	274,20021	255,262079	0
14.01.2021	23:15:44	0	0	4,067349	3,972	67,6476	0,24	74,819	3,5	1007,2	6,7	8,7	8,5	1	1	1	1	1	1	1	1	1	0	1	-60,394644	274,07014	259,516924	0
14.01.2021	23:15:45	0	0	2,93753	3,942	73,7892	0,242	74,801	3,5	1007,42	6,7	8,6	8,5	1	1	1	1	1	1	1	1	1	0	1	-64,059197	274,19571	256,439067	0
14.01.2021	23:15:46	0	0	2,485602	3,83325	73,7964	0,242	74,798	3,5	1007,42	6,7	8,7	8,5	1	1	1	1	1	1	1	1	1	0	1	-60,535588	274,055245	259,306443	0
14.01.2021	23:15:47	0	0	4,632259	3,61125	76,3524	0,238	74,789	3,5	1007,3	6,7	8,7	8,5	1	1	1	1	1	1	1	1	1	0	1	-60,606061	274,08952	259,396004	0
14.01.2021	23:15:48	0	0	2,71155	3,339	54,7956	0,237	74,775	3,5	1007,32	6,7	8,8	8,6	1	1	1	1	1	1	1	1	1	0	1	-62,438337	274,20171	258,08798	0
14.01.2021	23:15:49	0	0	2,485602	3,15075	63,18	0,233	74,77	3,5	1007,22	6,7	8,8	8,5	1	1	1	1	1	1	1	1	1	0	1	-63,495419	274,061202	256,374419	0
14.01.2021	23:15:50	0	0	4,293313	3,00975	58,4892	0,243	74,772	3,5	1007,36	6,7	8,6	8,5	1	1	1	1	1	1	1	1	1	0	1	-59,055673	274,20021	261,46363	0
14.01.2021	23:15:51	0	0	4,745241	2,93775	59,4828	0,243	74,767	3,5	1007,52	6,7	8,7	8,5	1	1	1	1	1	1	1	1	1	0	1	-61,592671	274,049291	258,221564	0
14.01.2021	23:15:52	0	0	4,745241	3,018	69,4764	0,237	74,768	3,5	1007,44	6,7	8,7	8,5	1	1	1	1	1	1	1	1	1	0	1	-63,354475	274,161246	256,982685	0
14.01.2021	23:15:53	0	0	3,841385	2,98275	63,4788	0,239	74,763	3,5	1007,3	6,7	8,7	8,5	1	1	1	1	1	1	1	1	1	0	1	-60,324172	274,034413	259,420616	0
14.01.2021	23:15:54	0	0	4,632259	2,9205	66,222	0,238	74,76	3,5	1007,26	6,7	8,6	8,5	1	1	1	1	1	1	1	1	1	0	1	-64,200141	274,104441	255,871611	0
14.01.2021	23:15:55	0	0	2,824531	3,03225	77,2272	0,243	74,761	3,5	1007,28	6,7	8,7	8,6	1	1	1	1	1	1	1	1	1	0	1	-66,948555	274,206211	253,598809	0
14.01.2021	23:15:56	0	0	3,276476	3,003	77,22	0,247	74,763	3,5	1007,36	6,7	8,8	8,5	1	1	1	1	1	1	1	1	1	0	1	-60,535588	274,119373	259,605916	0
14.01.2021	23:15:57	0	0	2,146656	2,946	88,65	0,24	74,756	3,5	1007,4	6,7	8,7	8,5	1	1	1	1	1	1	1	1	1	0	1	-68,639887	274,204711	251,900461	0
14.01.2021	23:15:58	0	0	4,745212	3,20775	90,7776	0,236	74,772	3,5	1007,2	6,7	8,7	8,6	1	1	1	1	1	1	1	1	1	0	1	-56,730092	274,134318	263,481231	0
14.01.2021	23:15:59	0	0	3,841385	3,33525	85,1796	0,244	74,786	3,5	1007,36	6,7	8,7	8,5	1	1	1	1	1	1	1	1	1	0	1	-64,411557	274,216718	256,18494	0
14.01.2021	23:16:00	0	0	3,276476	3,38625	81,6732	0,244	74,766	3,5	1007,36	6,7	8,7	8,5	1	1	1	1	1	1	1	1	1	0	1	-59,61945	274,180718	260,808725	0
14.01.2021	23:16:01	0	0	3,276476	3,38625	81,6732	0,244	74,766	3,5	1007,36	6,7	8,7	8,5	1	1	1	1	1	1	1	1	1	0	1	-59,61945	274,180718	260,808725	0
14.01.2021	23:16:02	0	0	2,485587	3,3795	81,198	0,243	74,76	3,5	1007,34	6,7	8,7	8,6	1	1	1	1	1	1	1	1	1	0	1	-63,565891	274,221223	257,051673	0
14.01.2021	23:16:03	0	0	3,389458	3,01875	74,916	0,236	74,742	3,5	1007,22	6,7	8,8	8,5	1	1	1	1	1	1	1	1	1	0	1	-61,522199	274,131328	258,675155	0
14.01.2021	23:16:04	0	0	3,163494	2,89425	78,282	0,236	74,755	3,5	1007,28	6,7	8,6	8,5	1	1	1	1	1	1	1	1	1	0	1	-62,367865	274,19871	258,144424	0
14.01.2021	23:16:05	0	0	4,858223	2,823	81,0144	0,242	74,759	3,5	1007,3	6,7	8,7	8,5	1	1	1	1	1	1	1	1	1	0	1	-57,223397	274,207712	263,330984	0
14.01.2021	23:16:06	0	0	3,163494	2,67675	66,2472	0,244	74,754	3,5	1007,42	6,7	8,7	8,5	1	1	1	1	1	1	1	1	1	0	1	-61,310782	274,161246	259,026378	0
14.01.2021	23:16:07	0	0	2,711566	2,63175	76,8492	0,247	74,751	3,5	1007,26	6,7	8,8	8,5	1	1	1	1	1	1	1	1	1	0	1	-60,394644	274,053757	259,440437	0
14.01.2021	23:16:08	0	0	4,406295	2,70975	83,9988	0,238	74,73	3,5	1007,32	6,7	8,8	8,5	1	1	1	1	1	1	1	1	1	0	1	-64,622974	274,104441	255,448778	0
14.01.2021	23:16:09	0	0	4,519277	2,87175	49,9608	0,24	74,73	3,5	1007,36	6,7	8,8	8,5	1	1	1	1	1	1	1	1	1	0	1	-58,703312	274,044826	261,090082	0
14.01.2021	23:16:10	0	0	3,389458	3,20775	62,7948	0,246	74,718	3,5	1007,48	6,7	8,7	8,5	1	1	1	1	1	1	1	1	1	0	1	-59,548978	274,19571	260,949285	0
14.01.2021	23:16:11	0	0	4,180306	3,3375	75,9636	0,245	74,719	3,5	1007,34	6,7	8,7	8,6	1	1	1	1	1	1	1	1	1	0	1	-58,210007	274,158252	262,113161	0
14.01.2021	23:16:12	0	0	4,067325	3,37575	70,8156	0,244	74,716	3,5	1007,54	6,7	8,7	8,6	1	1	1	1	1	1	1	1	1	0	1	-59,408034	274,212214	261,167402	0
14.01.2021	23:16:13	0	0	4,858223	3,26175	73,4292	0,244	74,713	3,5	1007,34	6,7	8,7	8,5	1	1	1	1	1	1	1	1	1	0	1	-58,914729	274,209212	261,64667	0
14.01.2021	23:16:14	0	0	4,293287	3,13575	73,0656	0,24	74,707	3,5	1007,34	6,7	8,8	8,6	1	1	1	1	1	1	1	1	1	0	1	-61,592671	274,177721	258,821495	0
14.01.2021	23:16:15	0	0	4,406295	3,0945	66,5172	0,243	74,707	3,5	1007,36	6,7	8,8	8,5	1	1	1	1	1	1	1	1	1	0	1	-59,055673	274,038875	260,709942	0
14.01.2021	23:16:16	0	0	4,293313	3,00225	74,9232	0,241	74,7	3,5	1007,4	6,7	8,7	8,5	1	1	1	1	1	1	1	1	1	0	1	-61,028894	274,086537	258,959241	0
14.01.2021	23:16:17	0	0	4,858193	3,2085	73,0332	0,242	74,694	3,5	1007,48	6,7	8,7	8,6	1	1	1	1	1	1	1	1	1	0	1	-61,169838	274,216718	259,426659	0
14.01.2021	23:16:18	0	0	4,51925	3,40425	65,8296	0,243	74,701	3,5	1007,42	6,7	8,7	8,6	1	1	1	1	1	1	1	1	1	0	1	-58,985201	274,168733	261,386952	0
14.01.2021	23:16:19	0	0	3,163494	3,32325	75,6036	0,24	74,694	3,5	1007,46	6,7	8,7	8,5	1	1	1	1	1	1	1	1	1	0	1	-56,377731	274,152266	263,91746	0
14.01.2021	23:16:20	0	0	4,632259	3,07875	79,0128	0,239	74,691	3,5	1007,4	6,7	8,7	8,5	1	1	1	1	1	1	1	1	1	0	1	-60,535588	274,186713	259,920614	0
14.01.2021	23:16:21	0	0	2,711566	2,8305	69,8544	0,24	74,694	3,5	1007,46	6,7	8,7	8,5	1	1	1	1	1	1	1	1	1	0	1	-60,747005	274,204711	259,793343	0
14.01.2021	23:16:22	0	0	2,93753	2,85975	59,49	0,241	74,695	3,5	1007,36	6,7	8,7	8,5	1	1	1	1	1	1	1	1	1	0	1	-56,659619	274,046314	263,140721	0
14.01.2021	23:16:23	0	0	2,598584	2,787	47,7396	0,239	74,7	3,5	1007,34	6,7	8,8	8,5	1	1	1	1	1	1	1	1	1	0	1	-58,985201	274,096979	261,051699	0
14.01.2021	23:16:24	0	0	2,033675	2,6745	45,8352	0,234	74,687	3,5	1007,32	6,7	8,8	8,5	1	1	1	1	1	1	1	1	1	0	1	-59,971811	274,096979	260,065089	0
14.01.2021	23:16:25	0	0	2,598569	2,703	51,066	0,239	74,688	3,5	1007,36	6,7	8,7	8,6	1	1	1	1	1	1	1	1	1	0	1	-61,381254	274,242259	259,334701	0
14.01.2021	23:16:26	0	0	3,615421	2,736	45,2232	0,237	74,694	3,5	1007,18	6,7	8,7	8,5	1	1	1	1	1	1	1	1	1	0	1	-63,284003	274,07014	256,627566	0
14.01.2021	23:16:27	0	0	2,71155	2,73	54,0972	0,24	74,7	3,5	1007,34	6,7	8,8	8,6	1	1	1	1	1	1	1	1	1	0	1	-62,508809	274,034413	257,235979	0
14.01.2021	23:16:28	0	0	2,824531	2,763	41,8464	0,237	74,73	3,5	1007,4	6,7	8,8	8,6	1	1	1	1	1	1	1	1	1	0	1	-58,069063	274,126844	262,107342	0
14.01.2021	23:16:29	0	0	2,485602	2,8125	52,8948	0,234	74,722	3,5	1007,44	6,7	8,8	8,5	1	1	1	1	1	1	1	1	1	0	1	-60,465116	274,038875	259,300499	0
14.01.2021	23:16:30	0	0	3,502419	2,826	50,6808	0,235	74,754	3,5	1007,4	6,7	8,7	8,6	1	1	1	1	1	1	1	1	1	0	1	-59,689922	274,122361	260,46554	0
14.01.2021	23:16:31	0	0	4,406295	2,63625	48,8196	0,238	74,758	3,5	1007,42	6,7	8,7	8,5	1	1	1	1	1	1	1	1	1	0	1	-63,143058	274,206211	257,404306	0
14.01.2021	23:16:32	0	0	2,259638	2,39775	47,358	0,234	74,766	3,5	1007,18	6,7	8,7	8,5	1	1	1	1	1	1	1	1	1	0	1	-60,958421	274,165738	259,399732	0
14.01.2021	23:16:33	0	0	2,485587	2,15325	43,668	0,238	74,762	3,5	1007,36	6,7	8,8	8,6	1	1	1	1	1	1	1	1	1	0	1	-62,085976	274,046314	257,714364	0
14.01.2021	23:16:34	0	0	2,485587	1,98075	42,5988	0,234	74,768	3,5	1007,42	6,7	8,7	8,6	1	1	1	1	1	1	1	1	1	0	1	-60,042283	274,07014	259,869285	0
14.01.2021	23:16:35	0	0	4,406268	1,9605	36,6228	0,235	74,773	3,5	1007,44	6,7	8,7	8,6	1	1	1	1	1	1	1	1	1	0	1	-60,183228	274,158252	260,13994	0
14.01.2021	23:16:36	0	0	2,598584	1,9725	56,3076	0,24	74,781	3,5	1007,32	6,7	8,7	8,5	1	1	1	1	1	1	1	1	1	0	1	-62,367865	274,222724	258,256723	0
14.01.2021	23:16:37	0	0	3,276476	1,905	49,5612	0,236	74,772	3,5	1007,2	6,7	8,6	8,5	1	1	1	1	1	1	1	1	1	0	1	-60,887949	274,104441	259,183802	0
14.01.2021	23:16:38	0	0	2,937512	1,95675	50,04	0,237	74,788	3,5	1007,34	6,7	8,7	8,6	1	1	1	1	1	1	1	1	1	0	1	-62,297393	274,210713	258,271025	0
14.01.2021	23:16:39	0	0	4,293313	2,199	56,2824	0,228	74,785	3,5	1007,3	6,7	8,8	8,5	1	1	1	1	1	1	1	1	1	0	1	-58,914729	274,120867	261,233754	0
14.01.2021	23:16:40	0	0	4,180306	2,4585	52,4988	0,233	74,775	3,5	1007,36	6,7	8,7	8,6	1	1	1	1	1	1	1	1	1	0	1	-61,099366	274,209212	259,462033	0
14.01.2021	23:16:41	0	0	4,067349	2,7735	57,7368	0,233	74,778	3,5	1007,44	6,7	8,7	8,5	1	1	1	1	1	1	1	1	1	0	1	-60,535588	274,207712	260,018793	0
14.01.2021	23:16:42	0	0	3,502419	2,91525	49,194	0,239	74,781	3,5	1007,38	6,7	8,8	8,6	1	1	1	1	1	1	1	1	1	0	1	-57,928118	274,176223	262,479044	0
14.01.2021	23:16:43	0	0	2,711566	3,048	55,5372	0,232	74,76	3,5	1007,38	6,7	8,8	8,5	1	1	1	1	1	1	1	1	1	0	1	-57,575758	274,055245	262,266274	0
14.01.2021	23:16:44	0	0	3,163494	3,02475	59,0796	0,236	74,764	3,5	1007,38	6,7	8,6	8,5	1	1	1	1	1	1	1	1	1	0	1	-63,072586	274,086537	256,915548	0
14.01.2021	23:16:45	0	0	3,276476	2,88	55,2744	0,233	74,76	3,5	1007,38	6,7	8,7	8,5	1	1	1	1	1	1	1	1	1	0	1	-64,763918	274,206211	255,783446	0
14.01.2021	23:16:46	0	0	3,841385	2,6715	48,4848	0,235	74,747	3,5	1007,32	6,7	8,7	8,5	1	1	1	1	1	1	1	1	1	0	1	-61,099366	274,095487	258,930566	0
14.01.2021	23:16:47	0	0	3,276476	2,61975	55,5444	0,234	74,738	3,5	1007,3	6,7	8,7	8,5	1	1	1	1	1	1	1	1	1	0	1	-63,565891	274,206211	256,981473	0
14.01.2021	23:16:48	0	0	3,954344	2,862	42,9228	0,234	74,731	3,5	1007,44	6,7	8,8	8,6	1	1	1	1	1	1	1	1	1	0	1	-61,381254	274,095487	258,648677	0
14.01.2021	23:16:49	0	0	4,406295	3,057	43,3044	0,233	74,736	3,5	1007,44	6,7	8,8	8,5	1	1	1	1	1	1	1	1	1	0	1	-62,297393	274,0359	257,454337	0
14.01.2021	23:16:50	0	0	4,971205	3,0645	54,0972	0,228	74,726	3,5	1007,34	6,7	8,7	8,5	1	1	1	1	1	1	1	1	1	0	1	-63,002114	274,14329	257,25113	0
14.01.2021	23:16:51	0	0	3,841362	2,96625	76,3668	0,235	74,731	3,5	1007,64	6,7	8,7	8,6	1	1	1	1	1	1	1	1	1	0	1	-62,015504	274,176223	258,391658	0
14.01.2021	23:16:52	0	0	3,615421	2,9415	68,4036	0,232	74,717	3,5	1007,32	6,7	8,8	8,5	1	1	1	1	1	1	1	1	1	0	1	-57,223397	274,022518	262,465881	0
14.01.2021	23:16:53	0	0	2,824531	2,97075	72,306	0,233	74,726	3,5	1007,26	6,7	8,6	8,6	1	1	1	1	1	1	1	1	1	0	1	-60,394644	274,141794	259,851612	0
14.01.2021	23:16:54	0	0	4,971205	2,8335	72,6768	0,229	74,712	3,5	1007,36	6,7	8,8	8,5	1	1	1	1	1	1	1	1	1	0	1	-58,844257	274,016574	260,817282	0
14.01.2021	23:16:55	0	0	2,93753	2,7405	64,62	0,229	74,716	3,5	1007,44	6,7	8,8	8,5	1	1	1	1	1	1	1	1	1	0	1	-60,817477	274,153762	259,484707	0
14.01.2021	23:16:56	0	0	4,180306	2,919	66,618	0,225	74,703	3,5	1007,42	6,7	8,7	8,6	1	1	1	1	1	1	1	1	1	0	1	-62,720226	274,029951	257,003742	0
14.01.2021	23:16:57	0	0	2,824548	2,9745	75,9924	0,229	74,726	3,5	1007,36	6,7	8,7	8,5	1	1	1	1	1	1	1	1	1	0	1	-60,324172	274,128339	259,859215	0
14.01.2021	23:16:58	0	0	3,163494	2,96025	75,6108	0,23	74,728	3,5	1007,52	6,7	8,7	8,5	1	1	1	1	1	1	1	1	1	0	1	-65,46864	274,207712	255,085741	0
14.01.2021	23:16:59	0	0	4,067349	2,76225	75,2148	0,225	74,735	3,5	1007,38	6,7	8,8	8,5	1	1	1	1	1	1	1	1	1	0	1	-66,314306	274,15077	253,973892	0
14.01.2021	23:17:00	0	0	3,050512	2,30025	64,6272	0,226	74,735	3,5	1007,32	6,7	8,7	8,5	1	1	1	1	1	1	1	1	1	0	1	-58,491896	274,11788	261,64263	0
14.01.2021	23:17:01	0	0	3,050512	2,30025	64,6272	0,226	74,735	3,5	1007,32	6,7	8,7	8,5	1	1	1	1	1	1	1	1	1	0	1	-58,491896	274,11788	261,64263	0
14.01.2021	23:17:02	0	0	3,6154	2,0715	71,6148	0,221	74,732	3,5	1007,3	6,7	8,7	8,6	1	1	1	1	1	1	1	1	1	0	1	-59,689922	274,159749	260,640241	0
14.01.2021	23:17:03	0	0	3,276456	1,9875	74,1996	0,224	74,744	3,5	1007,4	6,7	8,8	8,6	1	1	1	1	1	1	1	1	1	0	1	-62,931642	273,997267	256,639814	0
14.01.2021	23:17:04	0	0	4,632231	2,02125	68,3964	0,228	74,752	3,5	1007,3	6,7	8,7	8,6	1	1	1	1	1	1	1	1	1	0	1	-59,478506	274,132823	260,725831	0
14.01.2021	23:17:05	0	0	4,745212	1,9995	63,198	0,222	74,765	3,5	1007,34	6,7	8,8	8,6	1	1	1	1	1	1	1	1	1	0	1	-67,653277	274,191211	252,823953	0
14.01.2021	23:17:06	0	0	2,71155	2,0745	69,4728	0,219	74,771	3,5	1007,38	6,7	8,8	8,6	1	1	1	1	1	1	1	1	1	0	1	-60,817477	274,180718	259,610699	0
14.01.2021	23:17:07	0	0	5,197168	2,22225	63,846	0,222	74,769	3,5	1007,42	6,7	8,8	8,5	1	1	1	1	1	1	1	1	1	0	1	-62,720226	274,159749	257,609938	0
14.01.2021	23:17:08	0	0	2,93753	2,37825	65,484	0,224	74,78	3,5	1007,32	6,7	8,7	8,5	1	1	1	1	1	1	1	1	1	0	1	-62,579281	274,146281	257,687943	0
14.01.2021	23:17:09	0	0	2,485587	2,42025	68,4216	0,223	74,784	3,5	1007,48	6,7	8,7	8,6	1	1	1	1	1	1	1	1	1	0	1	-64,693446	274,177721	255,72072	0
14.01.2021	23:17:10	0	0	3,050494	2,39325	61,7076	0,22	74,776	3,5	1007,24	6,7	8,6	8,6	1	1	1	1	1	1	1	1	1	0	1	-60,2537	274,104441	259,818052	0
14.01.2021	23:17:11	0	0	4,519277	2,35275	68,7564	0,223	74,794	3,5	1007,1	6,7	8,7	8,5	1	1	1	1	1	1	1	1	1	0	1	-58,139535	273,998751	261,438847	0
14.01.2021	23:17:12	0	0	4,406268	2,4375	63,8532	0,216	74,798	3,5	1007,32	6,7	8,7	8,6	1	1	1	1	1	1	1	1	1	0	1	-65,116279	274,102948	254,948501	0
14.01.2021	23:17:13	0	0	4,745212	2,4855	87,3792	0,221	74,801	3,5	1007,32	6,7	8,8	8,6	1	1	1	1	1	1	1	1	1	0	1	-60,747005	274,001721	258,84523	0
14.01.2021	23:17:14	0	0	3,50244	2,5125	54,4716	0,219	74,795	3,5	1007,32	6,7	8,8	8,5	1	1	1	1	1	1	1	1	1	0	1	-62,931642	274,053757	256,903439	0
14.01.2021	23:17:15	0	0	3,389437	2,65875	77,9544	0,222	74,808	3,5	1007,48	6,7	8,7	8,6	1	1	1	1	1	1	1	1	1	0	1	-66,807611	274,04185	252,971892	0
14.01.2021	23:17:16	0	0	4,632259	2,8785	69,1524	0,218	74,765	3,5	1007,44	6,7	8,8	8,5	1	1	1	1	1	1	1	1	1	0	1	-62,508809	274,174725	257,89135	0
14.01.2021	23:17:17	0	0	4,519277	3,1365	65,0952	0,219	74,78	3,5	1007,44	6,7	8,7	8,5	1	1	1	1	1	1	1	1	1	0	1	-60,958421	274,047803	258,848866	0
14.01.2021	23:17:18	0	0	3,050494	3,30825	60,5592	0,218	74,748	3,5	1007,54	6,7	8,8	8,6	1	1	1	1	1	1	1	1	1	0	1	-62,720226	273,997267	256,851231	0
14.01.2021	23:17:19	0	0	3,163494	3,59325	72,6984	0,217	74,735	3,5	1007,4	6,7	8,7	8,5	1	1	1	1	1	1	1	1	1	0	1	-61,381254	274,086537	258,60688	0
14.01.2021	23:17:20	0	0	4,632231	3,75675	97,3296	0,223	74,75	3,5	1007,58	6,7	8,8	8,6	1	1	1	1	1	1	1	1	1	0	1	-65,680056	274,159749	254,650107	0
14.01.2021	23:17:21	0	0	2,485602	3,9495	94,392	0,21	74,724	3,5	1007,32	6,7	8,8	8,5	1	1	1	1	1	1	1	1	1	0	1	-60,747005	274,021032	258,935337	0
14.01.2021	23:17:22	0	0	3,389437	3,7515	83,7216	0,217	74,722	3,5	1007,42	6,7	8,7	8,6	1	1	1	1	1	1	1	1	1	0	1	-62,931642	274,147777	257,342573	0
14.01.2021	23:17:23	0	0	2,372606	3,53325	70,6068	0,217	74,699	3,5	1007,3	6,7	8,7	8,6	1	1	1	1	1	1	1	1	1	0	1	-58,914729	274,012117	260,726012	0
14.01.2021	23:17:24	0	0	4,858223	3,39825	74,1816	0,218	74,714	3,5	1007,4	6,7	8,7	8,5	1	1	1	1	1	1	1	1	1	0	1	-59,408034	274,168733	260,964119	0
14.01.2021	23:17:25	0	0	2,937512	3,37875	69,4764	0,213	74,704	3,5	1007,4	6,7	8,8	8,6	1	1	1	1	1	1	1	1	1	0	1	-65,46864	273,989846	254,068199	0
14.01.2021	23:17:26	0	0	3,728381	3,31275	64,6344	0,216	74,706	3,5	1007,38	6,7	8,7	8,6	1	1	1	1	1	1	1	1	1	0	1	-60,817477	274,093995	259,205487	0
14.01.2021	23:17:27	0	0	4,858193	3,2985	66,5352	0,213	74,704	3,5	1007,38	6,7	8,7	8,6	1	1	1	1	1	1	1	1	1	0	1	-62,790698	274,14329	257,462547	0
14.01.2021	23:17:28	0	0	2,598569	3,47325	71,2296	0,207	74,707	3,5	1007,4	6,7	8,6	8,6	1	1	1	1	1	1	1	1	1	0	1	-63,354475	274,028464	256,362553	0
14.01.2021	23:17:29	0	0	4,519277	3,37575	72,7704	0,217	74,725	3,5	1007,4	6,7	8,7	8,5	1	1	1	1	1	1	1	1	1	0	1	-63,706836	273,973531	255,7539	0
14.01.2021	23:17:30	0	0	4,293287	3,11925	84,4308	0,215	74,721	3,5	1007,4	6,7	8,7	8,6	1	1	1	1	1	1	1	1	1	0	1	-65,46864	274,028464	254,248388	0
14.01.2021	23:17:31	0	0	3,841385	3,024	70,2324	0,216	74,723	3,5	1007,3	6,7	8,7	8,5	1	1	1	1	1	1	1	1	1	0	1	-60,112755	274,138803	260,119525	0
14.01.2021	23:17:32	0	0	2,824531	3,18975	73,4292	0,208	74,716	3,5	1007,38	6,7	8,7	8,6	1	1	1	1	1	1	1	1	1	0	1	-63,84778	273,977979	255,633703	0
14.01.2021	23:17:33	0	0	2,71155	3,2745	68,4144	0,21	74,712	3,5	1007,4	6,7	8,7	8,6	1	1	1	1	1	1	1	1	1	0	1	-61,663143	274,082064	258,304102	0
14.01.2021	23:17:34	0	0	3,389458	3,1425	85,5288	0,216	74,733	3,5	1007,34	6,7	8,7	8,5	1	1	1	1	1	1	1	1	1	0	1	-64,411557	274,140298	255,82771	0
14.01.2021	23:17:35	0	0	3,954344	3,279	79,02	0,213	74,723	3,5	1007,34	6,7	8,7	8,6	1	1	1	1	1	1	1	1	1	0	1	-60,112755	274,096979	259,924144	0
14.01.2021	23:17:36	0	0	3,954344	3,3615	80,2512	0,212	74,729	3,5	1007,18	6,7	8,6	8,6	1	1	1	1	1	1	1	1	1	0	1	-62,790698	274,123856	257,371745	0
14.01.2021	23:17:37	0	0	3,728381	3,459	80,8956	0,212	74,723	3,5	1007,28	6,6	8,7	8,6	1	1	1	1	1	1	1	1	1	0	1	-63,424947	274,000236	256,160361	0
14.01.2021	23:17:38	0	0	4,406268	3,5325	77,1912	0,21	74,713	3,5	1007,46	6,7	8,7	8,6	1	1	1	1	1	1	1	1	1	0	1	-64,763918	273,970566	254,682989	0
14.01.2021	23:17:39	0	0	3,276456	3,37575	69,1488	0,208	74,695	3,5	1007,26	6,7	8,7	8,6	1	1	1	1	1	1	1	1	1	0	1	-55,954898	274,000236	263,63041	0
14.01.2021	23:17:40	0	0	4,406295	3,099	55,5444	0,21	74,761	3,5	1007,38	6,6	8,7	8,5	1	1	1	1	1	1	1	1	1	0	1	-61,24031	274,08952	258,761754	0
14.01.2021	23:17:41	0	0	2,598569	2,85525	53,73	0,208	74,732	3,5	1007,4	6,7	8,7	8,6	1	1	1	1	1	1	1	1	1	0	1	-57,716702	273,963156	261,695646	0
14.01.2021	23:17:42	0	0	2,598569	2,7225	57,7368	0,208	74,756	3,5	1007,46	6,7	8,7	8,6	1	1	1	1	1	1	1	1	1	0	1	-61,733615	274,009146	257,893263	0
14.01.2021	23:17:43	0	0	4,745241	2,649	76,3704	0,21	74,766	3,5	1007,34	6,6	8,7	8,5	1	1	1	1	1	1	1	1	1	0	1	-63,213531	274,134318	256,997792	0
14.01.2021	23:17:44	0	0	4,858193	2,5275	69,8616	0,206	74,79	3,5	1007,14	6,7	8,7	8,6	1	1	1	1	1	1	1	1	1	0	1	-65,257223	274,08952	254,744841	0
14.01.2021	23:17:45	0	0	4,406268	2,289	57,4164	0,206	74,803	3,5	1007,34	6,6	8,7	8,6	1	1	1	1	1	1	1	1	1	0	1	-61,310782	274,107427	258,774915	0
14.01.2021	23:17:46	0	0	4,745212	2,21625	45,5292	0,203	74,8	3,5	1007,46	6,6	8,7	8,6	1	1	1	1	1	1	1	1	1	0	1	-61,663143	274,11788	258,471383	0
14.01.2021	23:17:47	0	0	2,485587	2,33175	64,6164	0,202	74,798	3,5	1007,36	6,7	8,7	8,6	1	1	1	1	1	1	1	1	1	0	1	-62,22692	274,076101	257,712481	0
14.01.2021	23:17:48	0	0	4,858193	2,34075	62,7984	0,205	74,828	3,5	1007,34	6,7	8,7	8,6	1	1	1	1	1	1	1	1	1	0	1	-61,310782	273,954267	258,060115	0
14.01.2021	23:17:49	0	0	2,824531	2,25675	59,1192	0,206	74,827	3,5	1007,46	6,7	8,7	8,6	1	1	1	1	1	1	1	1	1	0	1	-63,002114	273,998751	256,576268	0
14.01.2021	23:17:50	0	0	3,276456	2,22825	47,7468	0,203	74,844	3,5	1007,32	6,6	8,7	8,6	1	1	1	1	1	1	1	1	1	0	1	-61,310782	273,985395	258,205293	0
14.01.2021	23:17:51	0	0	4,293287	2,253	49,5792	0,206	74,835	3,5	1007,24	6,7	8,7	8,6	1	1	1	1	1	1	1	1	1	0	1	-63,143058	274,131328	257,054295	0
14.01.2021	23:17:52	0	0	2,711566	2,22525	55,566	0,205	74,832	3,5	1007,52	6,6	8,7	8,5	1	1	1	1	1	1	1	1	1	0	1	-60,324172	274,06567	259,566529	0
14.01.2021	23:17:53	0	0	3,050494	2,14725	57,0456	0,204	74,84	3,5	1007,46	6,6	8,7	8,6	1	1	1	1	1	1	1	1	1	0	1	-61,592671	273,95723	257,792041	0
14.01.2021	23:17:54	0	0	5,4231	2,06475	53,3376	0,203	74,839	3,5	1007,4	6,6	8,7	8,6	1	1	1	1	1	1	1	1	1	0	1	-58,280479	273,99133	261,263282	0
14.01.2021	23:17:55	0	0	4,293287	1,98975	41,8464	0,204	74,829	3,5	1007,26	6,6	8,7	8,6	1	1	1	1	1	1	1	1	1	0	1	-63,84778	274,120867	256,300703	0
14.01.2021	23:17:56	0	0	4,406295	2,0835	58,86	0,2	74,828	3,5	1007,36	6,7	8,7	8,5	1	1	1	1	1	1	1	1	1	0	1	-61,310782	274,096979	258,726118	0
14.01.2021	23:17:57	0	0	2,824531	2,11575	51,4368	0,2	74,837	3,5	1007,48	6,6	8,7	8,6	1	1	1	1	1	1	1	1	1	0	1	-64,059197	274,12535	256,110227	0
14.01.2021	23:17:58	0	0	2,485587	2,12625	46,2204	0,202	74,845	3,5	1007,38	6,6	8,7	8,6	1	1	1	1	1	1	1	1	1	0	1	-62,931642	273,995783	256,632889	0
14.01.2021	23:17:59	0	0	2,485587	2,109	58,8672	0,195	74,836	3,5	1007,38	6,6	8,7	8,6	1	1	1	1	1	1	1	1	1	0	1	-63,072586	274,12535	257,096837	0
14.01.2021	23:18:00	0	0	4,51925	2,2785	62,0316	0,201	74,842	3,5	1007,22	6,6	8,7	8,6	1	1	1	1	1	1	1	1	1	0	1	-61,099366	273,949825	258,250815	0
14.01.2021	23:18:01	0	0	4,51925	2,2785	62,0316	0,201	74,842	3,5	1007,22	6,6	8,7	8,6	1	1	1	1	1	1	1	1	1	0	1	-61,099366	273,949825	258,250815	0
14.01.2021	23:18:02	0	0	2,71155	2,283	58,8636	0,206	74,852	3,5	1007,54	6,6	8,7	8,6	1	1	1	1	1	1	1	1	1	0	1	-66,45525	273,969084	252,984744	0
14.01.2021	23:18:03	0	0	2,71155	2,2575	57,0456	0,199	74,851	3,5	1007,36	6,6	8,7	8,6	1	1	1	1	1	1	1	1	1	0	1	-62,367865	274,105934	257,710859	0
14.01.2021	23:18:04	0	0	4,293287	2,3505	57,42	0,197	74,854	3,5	1007,5	6,6	8,7	8,6	1	1	1	1	1	1	1	1	1	0	1	-63,636364	273,943903	255,686204	0
14.01.2021	23:18:05	0	0	4,858193	2,34675	59,0976	0,195	74,834	3,5	1007,14	6,6	8,7	8,6	1	1	1	1	1	1	1	1	1	0	1	-65,680056	274,050779	254,141126	0
14.01.2021	23:18:06	0	0	4,519277	2,36625	57,438	0,21	74,859	3,5	1007,54	6,6	8,7	8,5	1	1	1	1	1	1	1	1	1	0	1	-61,169838	273,924668	258,063058	0
14.01.2021	23:18:07	0	0	3,728381	2,45025	55,5624	0,198	74,853	3,5	1007,58	6,6	8,7	8,6	1	1	1	1	1	1	1	1	1	0	1	-61,945032	274,026978	257,765058	0
14.01.2021	23:18:08	0	0	4,632231	2,43075	63,4932	0,197	74,862	3,5	1007,76	6,7	8,7	8,6	1	1	1	1	1	1	1	1	1	0	1	-61,169838	273,920233	258,04238	0
14.01.2021	23:18:09	0	0	2,93753	2,38425	65,142	0,193	74,863	3,5	1007,32	6,6	8,7	8,5	1	1	1	1	1	1	1	1	1	0	1	-66,314306	274,028464	253,402722	0
14.01.2021	23:18:10	0	0	2,937512	2,36775	55,9296	0,195	74,866	3,5	1007,52	6,6	8,7	8,6	1	1	1	1	1	1	1	1	1	0	1	-63,354475	273,979462	256,133926	0
14.01.2021	23:18:11	0	0	4,51925	2,2815	58,8672	0,197	74,857	3,5	1007,42	6,6	8,7	8,6	1	1	1	1	1	1	1	1	1	0	1	-63,84778	274,083555	256,126428	0
14.01.2021	23:18:12	0	0	2,711566	2,178	64,6308	0,196	74,849	3,5	1007,24	6,6	8,7	8,5	1	1	1	1	1	1	1	1	1	0	1	-58,844257	274,096979	261,192643	0
14.01.2021	23:18:13	0	0	3,163475	1,986	60,246	0,196	74,86	3,5	1007,38	6,6	8,7	8,6	1	1	1	1	1	1	1	1	1	0	1	-63,143058	273,963156	256,269289	0
14.01.2021	23:18:14	0	0	2,824531	1,935	62,4096	0,192	74,862	3,5	1007,42	6,6	8,7	8,6	1	1	1	1	1	1	1	1	1	0	1	-61,663143	273,930585	257,597332	0
14.01.2021	23:18:15	0	0	4,406295	2,0595	66,2112	0,201	74,849	3,5	1007,4	6,6	8,7	8,5	1	1	1	1	1	1	1	1	1	0	1	-59,267089	273,972049	260,186732	0
14.01.2021	23:18:16	0	0	3,6154	2,142	70,6176	0,196	74,859	3,5	1007,4	6,6	8,7	8,6	1	1	1	1	1	1	1	1	1	0	1	-64,904863	273,961674	254,500575	0
14.01.2021	23:18:17	0	0	2,598569	2,19975	76,3704	0,189	74,848	3,5	1007,28	6,6	8,7	8,6	1	1	1	1	1	1	1	1	1	0	1	-63,495419	274,074611	256,437023	0
14.01.2021	23:18:18	0	0	4,51925	2,091	65,0772	0,187	74,841	3,5	1007,4	6,6	8,7	8,6	1	1	1	1	1	1	1	1	1	0	1	-62,156448	274,113399	257,957147	0
14.01.2021	23:18:19	0	0	3,163475	2,00625	60,2208	0,188	74,855	3,5	1007,44	6,6	8,7	8,6	1	1	1	1	1	1	1	1	1	0	1	-61,592671	273,992814	257,958013	0
14.01.2021	23:18:20	0	0	3,163475	2,13675	79,0344	0,184	74,835	3,5	1007,38	6,6	8,7	8,6	1	1	1	1	1	1	1	1	1	0	1	-62,085976	273,937982	257,208989	0
14.01.2021	23:18:21	0	0	4,067349	2,1675	80,9028	0,182	74,829	3,5	1007,4	6,6	8,7	8,5	1	1	1	1	1	1	1	1	1	0	1	-62,931642	274,034413	256,813146	0
14.01.2021	23:18:22	0	0	2,711566	1,9635	74,934	0,192	74,823	3,5	1007,46	6,6	8,7	8,5	1	1	1	1	1	1	1	1	1	0	1	-63,495419	273,917276	255,703016	0
14.01.2021	23:18:23	0	0	3,50244	1,8285	61,2864	0,188	74,837	3,5	1007,48	6,6	8,7	8,5	1	1	1	1	1	1	1	1	1	0	1	-63,213531	274,0359	256,538199	0
14.01.2021	23:18:24	0	0	4,632231	1,7385	56,2716	0,186	74,835	3,5	1007,46	6,6	8,7	8,6	1	1	1	1	1	1	1	1	1	0	1	-60,887949	274,093995	259,135014	0
14.01.2021	23:18:25	0	0	2,824548	1,6785	58,4892	0,184	74,839	3,5	1007,22	6,6	8,7	8,5	1	1	1	1	1	1	1	1	1	0	1	-62,649753	274,074611	257,282689	0
14.01.2021	23:18:26	0	0	3,502419	1,71825	54,4788	0,186	74,84	3,5	1007,44	6,6	8,7	8,6	1	1	1	1	1	1	1	1	1	0	1	-65,46864	273,911364	253,702239	0
14.01.2021	23:18:27	0	0	4,067325	1,92375	63,8784	0,185	74,839	3,5	1007,34	6,6	8,7	8,6	1	1	1	1	1	1	1	1	1	0	1	-61,169838	273,985395	258,346238	0
14.01.2021	23:18:28	0	0	4,067325	2,196	64,6164	0,187	74,849	3,5	1007,32	6,6	8,7	8,6	1	1	1	1	1	1	1	1	1	0	1	-63,213531	274,074611	256,718912	0
14.01.2021	23:18:29	0	0	5,31015	2,319	59,4936	0,18	74,839	3,5	1007,3	6,6	8,7	8,5	1	1	1	1	1	1	1	1	1	0	1	-62,508809	274,006175	257,10421	0
14.01.2021	23:18:30	0	0	3,276456	2,30925	62,3952	0,182	74,857	3,5	1007,36	6,6	8,7	8,6	1	1	1	1	1	1	1	1	1	0	1	-57,998591	273,909886	261,165401	0
14.01.2021	23:18:31	0	0	3,276456	2,2725	59,1192	0,184	74,864	3,5	1007,46	6,6	8,7	8,6	1	1	1	1	1	1	1	1	1	0	1	-64,904863	273,992814	254,645821	0
14.01.2021	23:18:32	0	0	4,51925	2,20425	58,8636	0,178	74,882	3,5	1007,28	6,6	8,7	8,6	1	1	1	1	1	1	1	1	1	0	1	-58,703312	273,898068	260,405602	0
14.01.2021	23:18:33	0	0	3,050494	2,229	59,4864	0,175	74,867	3,5	1007,44	6,6	8,7	8,6	1	1	1	1	1	1	1	1	1	0	1	-64,693446	273,977979	254,788037	0
14.01.2021	23:18:34	0	0	3,615421	2,193	51,0768	0,175	74,877	3,5	1007,48	6,6	8,7	8,5	1	1	1	1	1	1	1	1	1	0	1	-59,478506	274,06865	260,426106	0
14.01.2021	23:18:35	0	0	2,937512	2,3475	74,5236	0,178	74,889	3,5	1007,4	6,6	8,7	8,6	1	1	1	1	1	1	1	1	1	0	1	-64,975335	273,99133	254,568426	0
14.01.2021	23:18:36	0	0	4,632259	2,49225	53,334	0,179	74,896	3,5	1007,42	6,6	8,7	8,5	1	1	1	1	1	1	1	1	1	0	1	-64,975335	273,905453	254,167998	0
14.01.2021	23:18:37	0	0	4,51925	2,4915	67,6728	0,178	74,883	3,5	1007,42	6,6	8,7	8,6	1	1	1	1	1	1	1	1	1	0	1	-60,535588	274,013602	259,112084	0
14.01.2021	23:18:38	0	0	2,37262	2,40225	79,4124	0,17	74,894	3,5	1007,42	6,6	8,7	8,5	1	1	1	1	1	1	1	1	1	0	1	-63,284003	273,887734	255,776752	0
14.01.2021	23:18:39	0	0	4,745241	2,4345	81,9504	0,178	74,903	3,5	1007,62	6,6	8,7	8,5	1	1	1	1	1	1	1	1	1	0	1	-64,059197	274,013602	255,588476	0
14.01.2021	23:18:40	0	0	3,050512	2,55225	82,4076	0,18	74,902	3,5	1007,36	6,6	8,7	8,5	1	1	1	1	1	1	1	1	1	0	1	-63,213531	273,899545	255,902266	0
14.01.2021	23:18:41	0	0	3,615421	2,62575	80,5176	0,179	74,919	3,5	1007,44	6,6	8,7	8,5	1	1	1	1	1	1	1	1	1	0	1	-64,341085	274,022518	255,348193	0
14.01.2021	23:18:42	0	0	3,163494	2,59575	49,6584	0,174	74,936	3,5	1007,46	6,6	8,7	8,5	1	1	1	1	1	1	1	1	1	0	1	-64,975335	274,06567	254,915366	0
14.01.2021	23:18:43	0	0	3,954344	2,5275	51,0516	0,17	74,937	3,5	1007,34	6,6	8,7	8,6	1	1	1	1	1	1	1	1	1	0	1	-61,381254	273,943903	257,941313	0
14.01.2021	23:18:44	0	0	3,50244	2,484	42,2244	0,173	74,96	3,5	1007,3	6,6	8,7	8,5	1	1	1	1	1	1	1	1	1	0	1	-64,975335	273,890686	254,099176	0
14.01.2021	23:18:45	0	0	2,824548	2,4015	34,704	0,177	74,978	3,5	1007,34	6,7	8,7	8,5	1	1	1	1	1	1	1	1	1	0	1	-65,045807	273,935023	254,23536	0
14.01.2021	23:18:46	0	0	3,502419	2,27025	41,562	0,173	75	3,5	1007,5	6,6	8,7	8,6	1	1	1	1	1	1	1	1	1	0	1	-68,498943	273,92319	250,727059	0
14.01.2021	23:18:47	0	0	3,841362	2,22225	42,606	0,172	75,001	3,5	1007,48	6,7	8,7	8,6	1	1	1	1	1	1	1	1	1	0	1	-63,84778	274,055245	255,994251	0
14.01.2021	23:18:48	0	0	2,824548	2,352	60,552	0,172	75,012	3,5	1007,4	6,7	8,7	8,5	1	1	1	1	1	1	1	1	1	0	1	-62,720226	274,076101	257,219176	0
14.01.2021	23:18:49	0	0	3,389458	2,60025	61,6788	0,171	75,016	3,5	1007,3	6,7	8,7	8,5	1	1	1	1	1	1	1	1	1	0	1	-65,961945	274,026978	253,748144	0
14.01.2021	23:18:50	0	0	3,389458	2,63775	51,4404	0,163	75,017	3,5	1007,44	6,7	8,7	8,5	1	1	1	1	1	1	1	1	1	0	1	-60,394644	274,058223	259,461289	0
14.01.2021	23:18:51	0	0	2,824548	2,661	62,0676	0,169	75,045	3,5	1007,34	6,7	8,7	8,5	1	1	1	1	1	1	1	1	1	0	1	-63,706836	273,918754	255,49849	0
14.01.2021	23:18:52	0	0	4,067349	2,77875	51,7428	0,167	75,046	3,5	1007,44	6,7	8,7	8,5	1	1	1	1	1	1	1	1	1	0	1	-60,676533	273,883306	258,363592	0
14.01.2021	23:18:53	0	0	3,615421	2,7915	54,7956	0,167	75,064	3,5	1007,36	6,7	8,7	8,5	1	1	1	1	1	1	1	1	1	0	1	-64,975335	274,022518	254,713943	0
14.01.2021	23:18:54	0	0	3,163494	2,769	50,6916	0,169	75,083	3,5	1007,36	6,7	8,7	8,5	1	1	1	1	1	1	1	1	1	0	1	-60,112755	273,875929	258,892998	0
14.01.2021	23:18:55	0	0	4,971205	2,814	56,6892	0,169	75,082	3,5	1007,32	6,6	8,7	8,5	1	1	1	1	1	1	1	1	1	0	1	-62,297393	273,940942	257,011372	0
14.01.2021	23:18:56	0	0	4,180331	2,90025	57,4128	0,17	75,095	3,5	1007,34	6,7	8,7	8,5	1	1	1	1	1	1	1	1	1	0	1	-64,693446	274,055245	255,148585	0
14.01.2021	23:18:57	0	0	3,276476	2,8485	62,4168	0,172	75,122	3,5	1007,5	6,7	8,7	8,5	1	1	1	1	1	1	1	1	1	0	1	-60,747005	273,976497	258,727562	0
14.01.2021	23:18:58	0	0	2,824548	2,826	52,1496	0,167	75,126	3,5	1007,44	6,7	8,7	8,5	1	1	1	1	1	1	1	1	1	0	1	-64,341085	273,87888	254,678415	0
14.01.2021	23:18:59	0	0	4,519277	2,8665	48,4992	0,165	75,122	3,5	1007,32	6,6	8,7	8,5	1	1	1	1	1	1	1	1	1	0	1	-60,747005	274,022518	258,942273	0
14.01.2021	23:19:00	0	0	4,858223	2,96775	56,268	0,163	75,133	3,5	1007,28	6,7	8,7	8,5	1	1	1	1	1	1	1	1	1	0	1	-63,424947	273,986879	256,098049	0
14.01.2021	23:19:01	0	0	4,858223	2,96775	56,268	0,163	75,133	3,5	1007,28	6,7	8,7	8,5	1	1	1	1	1	1	1	1	1	0	1	-63,424947	273,986879	256,098049	0
14.01.2021	23:19:02	0	0	3,841385	2,90775	58,86	0,166	75,145	3,5	1007,36	6,7	8,7	8,5	1	1	1	1	1	1	1	1	1	0	1	-61,592671	274,003205	258,006491	0
14.01.2021	23:19:03	0	0	4,632259	2,88675	66,5352	0,166	75,151	3,5	1007,44	6,7	8,7	8,5	1	1	1	1	1	1	1	1	1	0	1	-62,931642	274,026978	256,778448	0
14.01.2021	23:19:04	0	0	4,293313	2,703	61,3224	0,159	75,151	3,5	1007,38	6,7	8,7	8,5	1	1	1	1	1	1	1	1	1	0	1	-63,636364	273,918754	255,568963	0
14.01.2021	23:19:05	0	0	3,615421	2,61225	66,9204	0,165	75,166	3,5	1007,4	6,7	8,7	8,5	1	1	1	1	1	1	1	1	1	0	1	-63,777308	274,025491	255,925844	0
14.01.2021	23:19:06	0	0	2,485602	2,7645	66,2292	0,166	75,172	3,5	1007,38	6,7	8,7	8,5	1	1	1	1	1	1	1	1	1	0	1	-66,525722	273,930585	252,734753	0
14.01.2021	23:19:07	0	0	3,728403	2,709	52,1244	0,162	75,165	3,5	1007,46	6,6	8,7	8,5	1	1	1	1	1	1	1	1	1	0	1	-62,015504	274,056734	257,833478	0
14.01.2021	23:19:08	0	0	2,93753	2,565	55,5732	0,158	75,182	3,5	1007,4	6,7	8,6	8,5	1	1	1	1	1	1	1	1	1	0	1	-62,085976	273,973531	257,37476	0
14.01.2021	23:19:09	0	0	3,276476	2,478	57,0672	0,172	75,187	3,5	1007,38	6,7	8,7	8,5	1	1	1	1	1	1	1	1	1	0	1	-64,270613	274,053757	255,564468	0
14.01.2021	23:19:10	0	0	2,93753	2,2815	67,2948	0,161	75,169	3,5	1007,36	6,7	8,7	8,5	1	1	1	1	1	1	1	1	1	0	1	-58,139535	273,901022	260,983144	0
14.01.2021	23:19:11	0	0	4,858223	2,30025	64,638	0,157	75,175	3,5	1007,36	6,7	8,7	8,5	1	1	1	1	1	1	1	1	1	0	1	-57,575758	273,995783	261,988774	0
14.01.2021	23:19:12	0	0	4,632259	2,2725	48,1176	0,161	75,16	3,5	1007,38	6,6	8,7	8,5	1	1	1	1	1	1	1	1	1	0	1	-62,579281	274,001721	257,012954	0
14.01.2021	23:19:13	0	0	4,519277	2,28375	59,8896	0,164	75,144	3,5	1007,38	6,6	8,7	8,5	1	1	1	1	1	1	1	1	1	0	1	-61,451727	273,881831	257,581522	0
14.01.2021	23:19:14	0	0	3,728403	2,2275	77,202	0,158	75,145	3,5	1007,34	6,6	8,7	8,5	1	1	1	1	1	1	1	1	1	0	1	-63,706836	274,047803	256,100451	0
14.01.2021	23:19:15	0	0	4,745241	1,986	51,444	0,162	75,149	3,5	1007,32	6,6	8,7	8,5	1	1	1	1	1	1	1	1	1	0	1	-65,398168	273,917276	253,800268	0
14.01.2021	23:19:16	0	0	4,067349	1,98075	65,0772	0,164	75,165	3,5	1007,34	6,7	8,6	8,5	1	1	1	1	1	1	1	1	1	0	1	-63,636364	273,865607	255,321298	0
14.01.2021	23:19:17	0	0	5,084186	2,0535	52,8984	0,163	75,168	3,5	1007,42	6,6	8,6	8,5	1	1	1	1	1	1	1	1	1	0	1	-61,522199	273,933543	257,75207	0
14.01.2021	23:19:18	0	0	5,197168	2,16825	57,042	0,155	75,168	3,5	1007,26	6,7	8,6	8,5	1	1	1	1	1	1	1	1	1	0	1	-61,522199	273,856763	257,394266	0
14.01.2021	23:19:19	0	0	2,93753	2,32275	75,9996	0,154	75,165	3,5	1007,08	6,6	8,6	8,5	1	1	1	1	1	1	1	1	1	0	1	-61,522199	273,997267	258,049258	0
14.01.2021	23:19:20	0	0	2,93753	2,41275	70,5996	0,162	75,181	3,5	1007,42	6,6	8,7	8,5	1	1	1	1	1	1	1	1	1	0	1	-62,790698	274,028464	256,92633	0
14.01.2021	23:19:21	0	0	4,858223	2,526	69,8616	0,162	75,182	3,5	1007,32	6,6	8,6	8,5	1	1	1	1	1	1	1	1	1	0	1	-63,988724	273,986879	255,534271	0
14.01.2021	23:19:22	0	0	3,050512	2,553	80,9136	0,162	75,201	3,5	1007,3	6,7	8,6	8,5	1	1	1	1	1	1	1	1	1	0	1	-63,565891	273,892162	255,515499	0
14.01.2021	23:19:23	0	0	4,632259	2,45475	58,4712	0,16	75,199	3,5	1007,38	6,6	8,6	8,5	1	1	1	1	1	1	1	1	1	0	1	-62,438337	274,00469	257,167754	0
14.01.2021	23:19:24	0	0	2,824548	2,31525	59,472	0,157	75,207	3,5	1007,24	6,6	8,6	8,5	1	1	1	1	1	1	1	1	1	0	1	-63,424947	273,902499	255,704616	0
14.01.2021	23:19:25	0	0	4,745241	2,1435	63,8568	0,154	75,205	3,5	1007,34	6,6	8,6	8,5	1	1	1	1	1	1	1	1	1	0	1	-59,971811	274,028464	259,745217	0
14.01.2021	23:19:26	0	0	3,389458	2,06025	43,2828	0,156	75,221	3,5	1007,6	6,6	8,6	8,5	1	1	1	1	1	1	1	1	1	0	1	-63,002114	273,989846	256,534724	0
14.01.2021	23:19:27	0	0	3,389458	2,11125	48,096	0,159	75,213	3,5	1007,44	6,6	8,6	8,5	1	1	1	1	1	1	1	1	1	0	1	-62,156448	273,844978	256,705122	0
14.01.2021	23:19:28	0	0	2,824548	2,34	59,1156	0,157	75,211	3,5	1007,48	6,6	8,6	8,5	1	1	1	1	1	1	1	1	1	0	1	-66,807611	273,898068	252,301303	0
14.01.2021	23:19:29	0	0	2,93753	2,496	68,7888	0,16	75,21	3,5	1007,44	6,6	8,7	8,5	1	1	1	1	1	1	1	1	1	0	1	-60,465116	274,019546	259,210291	0
14.01.2021	23:19:30	0	0	4,858223	2,58675	73,4328	0,155	75,212	3,5	1007,22	6,6	8,7	8,5	1	1	1	1	1	1	1	1	1	0	1	-62,579281	273,91432	256,605375	0
14.01.2021	23:19:31	0	0	4,406295	2,48475	70,614	0,159	75,218	3,5	1007,32	6,6	8,6	8,5	1	1	1	1	1	1	1	1	1	0	1	-61,028894	274,00469	258,577197	0
14.01.2021	23:19:32	0	0	3,728403	2,37675	86,652	0,156	75,213	3,5	1007,4	6,6	8,6	8,5	1	1	1	1	1	1	1	1	1	0	1	-67,794221	274,028464	251,922807	0
14.01.2021	23:19:33	0	0	3,728403	2,28525	88,9596	0,158	75,234	3,5	1007,42	6,6	8,6	8,5	1	1	1	1	1	1	1	1	1	0	1	-64,904863	273,967602	254,528219	0
14.01.2021	23:19:34	0	0	4,180331	2,2935	92,6568	0,146	75,223	3,5	1007,38	6,6	8,6	8,5	1	1	1	1	1	1	1	1	1	0	1	-62,931642	274,026978	256,778448	0
14.01.2021	23:19:35	0	0	2,93753	2,48025	86,6592	0,15	75,22	3,5	1007,32	6,6	8,6	8,5	1	1	1	1	1	1	1	1	1	0	1	-63,284003	273,96612	256,142167	0
14.01.2021	23:19:36	0	0	2,711566	2,48175	79,0128	0,154	75,216	3,5	1007,38	6,6	8,6	8,5	1	1	1	1	1	1	1	1	1	0	1	-61,663143	273,844978	257,198427	0
14.01.2021	23:19:37	0	0	3,841385	2,44125	90,792	0,151	75,222	3,5	1007,44	6,6	8,6	8,5	1	1	1	1	1	1	1	1	1	0	1	-62,015504	273,964638	257,403754	0
14.01.2021	23:19:38	0	0	2,824548	2,44725	89,334	0,155	75,233	3,5	1007,4	6,6	8,6	8,5	1	1	1	1	1	1	1	1	1	0	1	-61,945032	273,997267	257,626425	0
14.01.2021	23:19:39	0	0	2,598584	2,29425	72,2952	0,152	75,216	3,5	1007,46	6,6	8,6	8,5	1	1	1	1	1	1	1	1	1	0	1	-64,83439	274,013602	254,813282	0
14.01.2021	23:19:40	0	0	4,180331	2,25075	82,6992	0,158	75,218	3,5	1007,48	6,6	8,6	8,5	1	1	1	1	1	1	1	1	1	0	1	-66,384778	273,895115	252,710373	0
14.01.2021	23:19:41	0	0	2,37262	2,20125	64,242	0,154	75,21	3,5	1007,44	6,6	8,6	8,5	1	1	1	1	1	1	1	1	1	0	1	-66,525722	274,013602	253,12195	0
14.01.2021	23:19:42	0	0	3,389458	2,43375	75,9816	0,151	75,212	3,5	1007,34	6,6	8,6	8,5	1	1	1	1	1	1	1	1	1	0	1	-60,2537	273,868555	258,717699	0
14.01.2021	23:19:43	0	0	4,293313	2,51625	54,4896	0,154	75,215	3,5	1007,5	6,6	8,6	8,5	1	1	1	1	1	1	1	1	1	0	1	-60,465116	273,87888	258,554384	0
14.01.2021	23:19:44	0	0	2,259638	2,64225	51,0696	0,154	75,209	3,5	1007,38	6,6	8,6	8,5	1	1	1	1	1	1	1	1	1	0	1	-65,257223	273,819958	253,487833	0
14.01.2021	23:19:45	0	0	3,50244	3,18525	64,62	0,149	75,185	3,5	1007,48	6,6	8,6	8,5	1	1	1	1	1	1	1	1	1	0	1	-63,072586	273,91432	256,11207	0
14.01.2021	23:19:46	0	0	2,37262	3,91125	65,4552	0,147	75,184	3,5	1007,52	6,6	8,6	8,5	1	1	1	1	1	1	1	1	1	0	1	-60,112755	273,827313	258,666551	0
14.01.2021	23:19:47	0	0	4,745241	4,05075	77,9832	0,145	75,169	3,5	1007,22	6,6	8,6	8,5	1	1	1	1	1	1	1	1	1	0	1	-66,525722	273,905453	252,61761	0
14.01.2021	23:19:48	0	0	3,954367	3,768	62,0388	0,149	75,16	3,5	1007,38	6,6	8,6	8,5	1	1	1	1	1	1	1	1	1	0	1	-63,072586	273,811135	255,631391	0
14.01.2021	23:19:49	0	0	2,598584	3,708	59,4756	0,142	75,15	3,5	1007,44	6,6	8,6	8,5	1	1	1	1	1	1	1	1	1	0	1	-59,830867	273,915798	259,360679	0
14.01.2021	23:19:50	0	0	2,711566	3,834	54,0972	0,148	75,135	3,5	1007,5	6,6	8,6	8,5	1	1	1	1	1	1	1	1	1	0	1	-62,508809	273,817017	256,222552	0
14.01.2021	23:19:51	0	0	3,954367	3,74925	64,602	0,146	75,146	3,5	1007,4	6,6	8,6	8,5	1	1	1	1	1	1	1	1	1	0	1	-61,381254	273,856763	257,53521	0
14.01.2021	23:19:52	0	0	2,598584	4,0005	70,3116	0,146	75,159	3,5	1007,44	6,6	8,6	8,5	1	1	1	1	1	1	1	1	1	0	1	-62,790698	273,988363	256,739219	0
14.01.2021	23:19:53	0	0	4,067349	4,2	62,028	0,143	75,159	3,5	1007,36	6,6	8,6	8,5	1	1	1	1	1	1	1	1	1	0	1	-63,84778	273,847923	255,02751	0
14.01.2021	23:19:54	0	0	4,406295	4,3035	52,8984	0,147	75,181	3,5	1007,6	6,6	8,6	8,5	1	1	1	1	1	1	1	1	1	0	1	-69,274137	273,955749	250,103667	0
14.01.2021	23:19:55	0	0	4,632259	4,22625	59,8644	0,142	75,19	3,5	1007,5	6,6	8,6	8,5	1	1	1	1	1	1	1	1	1	0	1	-61,169838	273,942422	258,145828	0
14.01.2021	23:19:56	0	0	4,067349	4,29525	55,9296	0,138	75,213	3,5	1007,38	6,6	8,6	8,5	1	1	1	1	1	1	1	1	1	0	1	-62,438337	273,940942	256,870428	0
14.01.2021	23:19:57	0	0	4,971234	4,0515	54,0972	0,15	75,231	3,5	1007,34	6,6	8,6	8,4	1	1	1	1	1	1	1	1	1	0	1	-61,099366	273,986879	258,42363	0
14.01.2021	23:19:58	0	0	2,598584	4,122	59,5152	0,148	75,251	3,5	1007,34	6,6	8,6	8,5	1	1	1	1	1	1	1	1	1	0	1	-63,565891	273,929105	255,687688	0
14.01.2021	23:19:59	0	0	3,841385	3,84675	57,0168	0,142	75,248	3,5	1007,48	6,6	8,6	8,5	1	1	1	1	1	1	1	1	1	0	1	-64,059197	273,805256	254,617407	0
14.01.2021	23:20:00	0	0	2,711566	3,74775	76,824	0,141	75,281	3,5	1007,46	6,6	8,6	8,5	1	1	1	1	1	1	1	1	1	0	1	-64,552502	273,828785	254,233656	0
14.01.2021	23:20:01	0	0	2,711566	3,74775	76,824	0,141	75,281	3,5	1007,46	6,6	8,6	8,5	1	1	1	1	1	1	1	1	1	0	1	-64,552502	273,828785	254,233656	0
14.01.2021	23:20:02	0	0	3,389458	3,5055	52,8804	0,136	75,286	3,5	1007,32	6,6	8,6	8,5	1	1	1	1	1	1	1	1	1	0	1	-64,270613	273,837616	254,556669	0
14.01.2021	23:20:03	0	0	3,050512	3,37875	51,4404	0,142	75,304	3,5	1007,44	6,6	8,6	8,5	1	1	1	1	1	1	1	1	1	0	1	-64,059197	273,980945	255,436122	0
14.01.2021	23:20:04	0	0	4,745241	3,54075	60,9444	0,132	75,307	3,5	1007,32	6,6	8,6	8,5	1	1	1	1	1	1	1	1	1	0	1	-64,270613	273,955749	255,107191	0
14.01.2021	23:20:05	0	0	2,711566	3,636	54,7992	0,14	75,31	3,5	1007,3	6,6	8,6	8,5	1	1	1	1	1	1	1	1	1	0	1	-63,636364	273,975014	255,831287	0
14.01.2021	23:20:06	0	0	3,389478	3,378	87,75	0,137	75,326	3,5	1007,24	6,6	8,6	8,4	1	1	1	1	1	1	1	1	1	0	1	-62,579281	273,818487	256,158927	0
14.01.2021	23:20:07	0	0	4,632259	3,5055	61,3224	0,138	75,354	3,5	1007,52	6,6	8,6	8,5	1	1	1	1	1	1	1	1	1	0	1	-62,931642	273,961674	256,473796	0
14.01.2021	23:20:08	0	0	4,632231	3,65175	42,912	0,133	75,354	3,5	1007,4	6,6	8,6	8,6	1	1	1	1	1	1	1	1	1	0	1	-65,750529	273,937982	253,544436	0
14.01.2021	23:20:09	0	0	4,519277	3,618	53,3772	0,138	75,376	3,5	1007,52	6,6	8,6	8,5	1	1	1	1	1	1	1	1	1	0	1	-66,948555	273,814076	251,769112	0
14.01.2021	23:20:10	0	0	2,937548	3,3015	47,3724	0,13	75,375	3,5	1007,36	6,6	8,6	8,4	1	1	1	1	1	1	1	1	1	0	1	-60,324172	273,812606	258,38665	0
14.01.2021	23:20:11	0	0	4,067349	3,1935	52,506	0,142	75,381	3,5	1007,24	6,6	8,6	8,5	1	1	1	1	1	1	1	1	1	0	1	-63,424947	273,825842	255,347508	0
14.01.2021	23:20:12	0	0	2,711582	3,29925	40,2372	0,137	75,399	3,5	1007,42	6,6	8,6	8,4	1	1	1	1	1	1	1	1	1	0	1	-61,945032	273,824371	256,820572	0
14.01.2021	23:20:13	0	0	3,728426	3,43725	35,496	0,14	75,44	3,5	1007,46	6,5	8,6	8,4	1	1	1	1	1	1	1	1	1	0	1	-64,059197	273,972049	255,394625	0
14.01.2021	23:20:14	0	0	2,711582	3,26175	42,6096	0,136	75,478	3,5	1007,22	6,5	8,7	8,4	1	1	1	1	1	1	1	1	1	0	1	-62,438337	273,87003	256,539932	0
14.01.2021	23:20:15	0	0	2,824548	3,11325	34,3296	0,132	75,442	3,5	1007,4	6,6	8,6	8,5	1	1	1	1	1	1	1	1	1	0	1	-64,763918	273,973531	254,696818	0
14.01.2021	23:20:16	0	0	4,293339	3,02325	44,7768	0,134	75,45	3,5	1007,4	6,6	8,7	8,4	1	1	1	1	1	1	1	1	1	0	1	-68,146582	273,940942	251,162183	0
14.01.2021	23:20:17	0	0	2,485617	2,90775	54,216	0,129	75,436	3,5	1007,28	6,6	8,6	8,4	1	1	1	1	1	1	1	1	1	0	1	-60,747005	273,815546	257,977509	0
14.01.2021	23:20:18	0	0	3,389458	2,85825	47,7396	0,14	75,444	3,5	1007,46	6,5	8,6	8,5	1	1	1	1	1	1	1	1	1	0	1	-64,975335	273,945383	254,354135	0
14.01.2021	23:20:19	0	0	4,180356	2,76675	56,2824	0,128	75,441	3,5	1007,4	6,5	8,7	8,4	1	1	1	1	1	1	1	1	1	0	1	-63,777308	273,915798	255,414237	0
14.01.2021	23:20:20	0	0	2,824565	2,682	48,7836	0,152	75,445	3,5	1007,62	6,6	8,6	8,4	1	1	1	1	1	1	1	1	1	0	1	-60,394644	273,812606	258,316178	0
14.01.2021	23:20:21	0	0	3,50244	2,58225	63,4968	0,126	75,431	3,5	1007,4	6,6	8,6	8,5	1	1	1	1	1	1	1	1	1	0	1	-61,522199	273,830256	257,270812	0
14.01.2021	23:20:22	0	0	2,259652	2,49075	57,744	0,14	75,439	3,5	1007,3	6,6	8,7	8,4	1	1	1	1	1	1	1	1	1	0	1	-63,84778	273,977979	255,633703	0
14.01.2021	23:20:23	0	0	3,276476	2,44875	53,7444	0,131	75,43	3,5	1007,5	6,5	8,7	8,5	1	1	1	1	1	1	1	1	1	0	1	-64,904863	273,862658	254,039064	0
14.01.2021	23:20:24	0	0	4,971205	2,4075	66,3012	0,133	75,415	3,5	1007,46	6,5	8,6	8,5	1	1	1	1	1	1	1	1	1	0	1	-65,116279	273,967602	254,316803	0
14.01.2021	23:20:25	0	0	2,485617	2,34	58,5828	0,133	75,413	3,5	1007,34	6,6	8,6	8,4	1	1	1	1	1	1	1	1	1	0	1	-62,649753	273,935023	256,631414	0
14.01.2021	23:20:26	0	0	3,615443	2,30325	54,1008	0,132	75,395	3,5	1007,32	6,6	8,6	8,4	1	1	1	1	1	1	1	1	1	0	1	-64,411557	273,794971	254,217167	0
14.01.2021	23:20:27	0	0	4,632287	2,31525	61,272	0,131	75,381	3,5	1007,46	6,5	8,5	8,4	1	1	1	1	1	1	1	1	1	0	1	-62,156448	273,895115	256,938703	0
14.01.2021	23:20:28	0	0	3,276495	2,313	71,7048	0,135	75,395	3,5	1007,56	6,5	8,7	8,4	1	1	1	1	1	1	1	1	1	0	1	-61,24031	273,79644	257,395253	0
14.01.2021	23:20:29	0	0	3,276495	2,25225	65,0916	0,124	75,4	3,5	1007,34	6,5	8,7	8,4	1	1	1	1	1	1	1	1	1	0	1	-60,958421	273,839088	257,875717	0
14.01.2021	23:20:30	0	0	2,711582	2,21025	64,2528	0,13	75,391	3,5	1007,3	6,5	8,7	8,4	1	1	1	1	1	1	1	1	1	0	1	-66,878083	273,963156	252,534265	0
14.01.2021	23:20:31	0	0	4,519304	2,20725	62,0424	0,128	75,397	3,5	1007,46	6,5	8,6	8,4	1	1	1	1	1	1	1	1	1	0	1	-61,381254	273,942422	257,934411	0
14.01.2021	23:20:32	0	0	2,485617	2,133	57,0384	0,121	75,414	3,5	1007,48	6,5	8,7	8,4	1	1	1	1	1	1	1	1	1	0	1	-66,314306	273,818487	252,423902	0
14.01.2021	23:20:33	0	0	2,824548	2,03025	45,162	0,131	75,41	3,5	1007,34	6,5	8,6	8,5	1	1	1	1	1	1	1	1	1	0	1	-62,720226	273,77295	255,806006	0
14.01.2021	23:20:34	0	0	2,711582	1,959	42,6132	0,133	75,422	3,5	1007,48	6,5	8,7	8,4	1	1	1	1	1	1	1	1	1	0	1	-68,217054	273,905453	250,926278	0
14.01.2021	23:20:35	0	0	3,389478	1,92975	50,6808	0,129	75,428	3,5	1007,5	6,6	8,7	8,4	1	1	1	1	1	1	1	1	1	0	1	-64,83439	273,78616	253,75332	0
14.01.2021	23:20:36	0	0	4,293339	1,9275	44,7696	0,129	75,416	3,5	1007,36	6,5	8,7	8,4	1	1	1	1	1	1	1	1	1	0	1	-62,790698	273,902499	256,338865	0
14.01.2021	23:20:37	0	0	3,841385	1,929	60,9408	0,126	75,434	3,5	1007,48	6,5	8,7	8,5	1	1	1	1	1	1	1	1	1	0	1	-65,186751	273,806726	253,496695	0
14.01.2021	23:20:38	0	0	4,632259	1,8915	56,664	0,127	75,434	3,5	1007,28	6,5	8,7	8,5	1	1	1	1	1	1	1	1	1	0	1	-63,072586	273,8332	255,734131	0
14.01.2021	23:20:39	0	0	4,067374	1,7685	54,7884	0,119	75,454	3,5	1007,38	6,5	8,7	8,4	1	1	1	1	1	1	1	1	1	0	1	-66,596195	273,932064	252,671178	0
14.01.2021	23:20:40	0	0	3,728426	1,7025	64,2456	0,128	75,464	3,5	1007,34	6,5	8,7	8,4	1	1	1	1	1	1	1	1	1	0	1	-60,112755	273,911364	259,058123	0
14.01.2021	23:20:41	0	0	3,050512	1,63725	59,0904	0,119	75,46	3,5	1007,36	6,6	8,7	8,5	1	1	1	1	1	1	1	1	1	0	1	-66,173362	273,961674	253,232076	0
14.01.2021	23:20:42	0	0	4,293339	1,78875	58,0968	0,127	75,467	3,5	1007,3	6,5	8,7	8,4	1	1	1	1	1	1	1	1	1	0	1	-63,636364	273,85971	255,29383	0
14.01.2021	23:20:43	0	0	4,180331	2,022	60,5484	0,122	75,464	3,5	1007,28	6,5	8,7	8,5	1	1	1	1	1	1	1	1	1	0	1	-61,381254	273,764149	257,104019	0
14.01.2021	23:20:44	0	0	3,615421	2,1045	57,7368	0,125	75,469	3,5	1007,46	6,5	8,6	8,5	1	1	1	1	1	1	1	1	1	0	1	-64,693446	273,896591	254,408586	0
14.01.2021	23:20:45	0	0	2,711566	2,21325	61,6824	0,124	75,475	3,5	1007,38	6,5	8,7	8,5	1	1	1	1	1	1	1	1	1	0	1	-65,680056	273,964638	253,739202	0
14.01.2021	23:20:46	0	0	4,067374	2,298	55,9368	0,122	75,462	3,5	1007,48	6,5	8,7	8,4	1	1	1	1	1	1	1	1	1	0	1	-60,958421	273,927626	258,288263	0
14.01.2021	23:20:47	0	0	3,50244	2,292	43,6752	0,117	75,476	3,5	1007,46	6,5	8,6	8,5	1	1	1	1	1	1	1	1	1	0	1	-65,680056	273,942422	253,635609	0
14.01.2021	23:20:48	0	0	4,519277	2,26575	48,8232	0,127	75,488	3,5	1007,66	6,5	8,7	8,5	1	1	1	1	1	1	1	1	1	0	1	-61,24031	273,926147	257,99948	0
14.01.2021	23:20:49	0	0	5,084186	2,2935	39,1824	0,129	75,488	3,5	1007,4	6,5	8,7	8,5	1	1	1	1	1	1	1	1	1	0	1	-65,821001	273,901022	253,301679	0
14.01.2021	23:20:50	0	0	4,406295	2,2755	51,138	0,128	75,486	3,5	1007,64	6,5	8,6	8,5	1	1	1	1	1	1	1	1	1	0	1	-63,84778	273,781755	254,719432	0
14.01.2021	23:20:51	0	0	4,293313	2,50875	51,7608	0,123	75,478	3,5	1007,46	6,5	8,7	8,5	1	1	1	1	1	1	1	1	1	0	1	-63,002114	273,915798	256,189431	0
14.01.2021	23:20:52	0	0	3,276476	2,6625	49,1832	0,125	75,495	3,5	1007,44	6,5	8,6	8,5	1	1	1	1	1	1	1	1	1	0	1	-63,918252	273,767082	254,580671	0
14.01.2021	23:20:53	0	0	3,50244	2,6235	49,194	0,12	75,469	3,5	1007,48	6,5	8,6	8,5	1	1	1	1	1	1	1	1	1	0	1	-65,257223	273,850869	253,631789	0
14.01.2021	23:20:54	0	0	2,598584	2,61375	47,7576	0,122	75,474	3,5	1007,58	6,5	8,6	8,5	1	1	1	1	1	1	1	1	1	0	1	-61,451727	273,780288	257,108653	0
14.01.2021	23:20:55	0	0	3,728426	2,64225	44,7876	0,122	75,474	3,5	1007,52	6,5	8,6	8,4	1	1	1	1	1	1	1	1	1	0	1	-64,059197	273,861184	254,877863	0
14.01.2021	23:20:56	0	0	2,93753	2,709	49,2012	0,126	75,476	3,5	1007,6	6,5	8,6	8,5	1	1	1	1	1	1	1	1	1	0	1	-63,706836	273,949825	255,643345	0
14.01.2021	23:20:57	0	0	5,084186	2,77575	51,7428	0,12	75,468	3,5	1007,36	6,5	8,6	8,5	1	1	1	1	1	1	1	1	1	0	1	-65,821001	273,902499	253,308562	0
14.01.2021	23:20:58	0	0	2,711566	2,823	44,0568	0,123	75,466	3,5	1007,42	6,5	8,6	8,5	1	1	1	1	1	1	1	1	1	0	1	-65,045807	273,78616	253,541903	0
14.01.2021	23:20:59	0	0	4,519277	2,83725	48,5028	0,121	75,475	3,5	1007,54	6,5	8,6	8,5	1	1	1	1	1	1	1	1	1	0	1	-66,032417	273,915798	253,159128	0
14.01.2021	23:21:00	0	0	4,406295	2,64	51,4548	0,117	75,45	3,5	1007,44	6,5	8,6	8,5	1	1	1	1	1	1	1	1	1	0	1	-63,706836	273,875929	255,298918	0
14.01.2021	23:21:01	0	0	4,406295	2,64	51,4548	0,117	75,45	3,5	1007,44	6,5	8,6	8,5	1	1	1	1	1	1	1	1	1	0	1	-63,706836	273,875929	255,298918	0
14.01.2021	23:21:02	0	0	3,389458	2,54775	55,5516	0,112	75,447	3,5	1007,42	6,5	8,6	8,5	1	1	1	1	1	1	1	1	1	0	1	-58,491896	273,948344	260,851381	0
14.01.2021	23:21:03	0	0	3,728403	2,5455	71,604	0,115	75,452	3,5	1007,42	6,5	8,7	8,5	1	1	1	1	1	1	1	1	1	0	1	-64,552502	273,858237	254,370827	0
14.01.2021	23:21:04	0	0	5,197168	2,53875	59,8752	0,12	75,457	3,5	1007,36	6,5	8,6	8,5	1	1	1	1	1	1	1	1	1	0	1	-64,411557	273,927626	254,835127	0
14.01.2021	23:21:05	0	0	3,389458	2,5065	73,782	0,117	75,439	3,5	1007,38	6,5	8,6	8,5	1	1	1	1	1	1	1	1	1	0	1	-66,737139	273,831728	252,062725	0
14.01.2021	23:21:06	0	0	3,050512	2,39325	75,2148	0,109	75,459	3,5	1007,4	6,5	8,6	8,5	1	1	1	1	1	1	1	1	1	0	1	-63,424947	273,775885	255,114942	0
14.01.2021	23:21:07	0	0	2,485602	2,61225	75,996	0,108	75,46	3,5	1007,5	6,5	8,6	8,5	1	1	1	1	1	1	1	1	1	0	1	-64,83439	273,797909	253,808011	0
14.01.2021	23:21:08	0	0	2,93753	2,8365	70,6176	0,107	75,461	3,5	1007,26	6,5	8,6	8,5	1	1	1	1	1	1	1	1	1	0	1	-65,680056	273,874454	253,318825	0
14.01.2021	23:21:09	0	0	4,858223	2,94525	79,4196	0,111	75,465	3,5	1007,48	6,5	8,6	8,5	1	1	1	1	1	1	1	1	1	0	1	-64,129669	273,756818	254,321491	0
14.01.2021	23:21:10	0	0	4,632259	2,99325	83,0052	0,112	75,468	3,5	1007,42	6,5	8,6	8,5	1	1	1	1	1	1	1	1	1	0	1	-61,028894	273,87003	257,949375	0
14.01.2021	23:21:11	0	0	3,841385	2,973	81,6048	0,112	75,468	3,5	1007,44	6,5	8,7	8,5	1	1	1	1	1	1	1	1	1	0	1	-60,324172	273,761216	258,147454	0
14.01.2021	23:21:12	0	0	4,632259	2,94675	80,9172	0,115	75,487	3,5	1007,56	6,5	8,6	8,5	1	1	1	1	1	1	1	1	1	0	1	-61,24031	273,8229	257,518444	0
14.01.2021	23:21:13	0	0	3,615421	2,871	72,2988	0,112	75,486	3,5	1007,44	6,5	8,6	8,5	1	1	1	1	1	1	1	1	1	0	1	-67,019027	273,755352	251,425311	0
14.01.2021	23:21:14	0	0	3,50244	2,739	67,6872	0,109	75,47	3,5	1007,44	6,5	8,6	8,5	1	1	1	1	1	1	1	1	1	0	1	-67,371388	273,861184	251,565672	0
14.01.2021	23:21:15	0	0	3,615421	2,49225	58,4928	0,108	75,485	3,5	1007,4	6,5	8,6	8,5	1	1	1	1	1	1	1	1	1	0	1	-66,032417	273,92319	253,193585	0
14.01.2021	23:21:16	0	0	4,180331	2,33625	58,8456	0,109	75,484	3,5	1007,36	6,6	8,6	8,5	1	1	1	1	1	1	1	1	1	0	1	-64,059197	273,8229	254,699558	0
14.01.2021	23:21:17	0	0	3,615421	2,256	38,7972	0,111	75,493	3,5	1007,4	6,5	8,6	8,5	1	1	1	1	1	1	1	1	1	0	1	-61,663143	273,951305	257,693942	0
14.01.2021	23:21:18	0	0	4,632259	2,28675	48,1212	0,112	75,496	3,5	1007,38	6,5	8,6	8,5	1	1	1	1	1	1	1	1	1	0	1	-65,609584	273,794971	253,019141	0
14.01.2021	23:21:19	0	0	2,711566	2,40075	37,0152	0,105	75,479	3,5	1007,32	6,5	8,6	8,5	1	1	1	1	1	1	1	1	1	0	1	-64,622974	273,943903	254,699594	0
14.01.2021	23:21:20	0	0	4,293313	2,58525	40,2408	0,099	75,486	3,5	1007,32	6,6	8,6	8,5	1	1	1	1	1	1	1	1	1	0	1	-68,005638	273,855289	250,903963	0
14.01.2021	23:21:21	0	0	4,406295	2,568	46,2276	0,107	75,506	3,5	1007,38	6,5	8,6	8,5	1	1	1	1	1	1	1	1	1	0	1	-65,46864	273,924668	253,764256	0
14.01.2021	23:21:22	0	0	3,615421	2,499	36,9288	0,103	75,497	3,5	1007,22	6,6	8,6	8,5	1	1	1	1	1	1	1	1	1	0	1	-62,085976	273,830256	256,707034	0
14.01.2021	23:21:23	0	0	3,276476	2,4195	51,7464	0,103	75,511	3,5	1007,38	6,6	8,6	8,5	1	1	1	1	1	1	1	1	1	0	1	-65,327696	273,745094	253,068914	0
14.01.2021	23:21:24	0	0	4,632259	2,4105	40,6224	0,104	75,498	3,5	1007,2	6,6	8,6	8,5	1	1	1	1	1	1	1	1	1	0	1	-65,891473	273,881831	253,141776	0
14.01.2021	23:21:25	0	0	3,50244	2,433	49,9536	0,105	75,507	3,5	1007,48	6,6	8,6	8,5	1	1	1	1	1	1	1	1	1	0	1	-60,747005	273,780288	257,813375	0
14.01.2021	23:21:26	0	0	3,954367	2,45775	66,8916	0,105	75,501	3,5	1007,48	6,6	8,6	8,5	1	1	1	1	1	1	1	1	1	0	1	-64,341085	273,920233	254,871132	0
14.01.2021	23:21:27	0	0	4,293313	2,5845	63,8568	0,098	75,5	3,5	1007,52	6,6	8,6	8,5	1	1	1	1	1	1	1	1	1	0	1	-64,904863	273,818487	253,833345	0
14.01.2021	23:21:28	0	0	3,050512	2,568	58,1076	0,097	75,504	3,5	1007,42	6,6	8,6	8,5	1	1	1	1	1	1	1	1	1	0	1	-65,46864	273,898068	253,640274	0
14.01.2021	23:21:29	0	0	4,519277	2,70675	65,4372	0,1	75,502	3,5	1007,48	6,6	8,6	8,5	1	1	1	1	1	1	1	1	1	0	1	-66,173362	273,797909	252,46904	0
14.01.2021	23:21:30	0	0	4,632259	2,97975	56,6676	0,099	75,509	3,5	1007,4	6,6	8,6	8,5	1	1	1	1	1	1	1	1	1	0	1	-62,156448	273,884782	256,890552	0
14.01.2021	23:21:31	0	0	2,711566	3,321	52,8948	0,102	75,51	3,5	1007,42	6,6	8,6	8,5	1	1	1	1	1	1	1	1	1	0	1	-62,156448	273,887734	256,904306	0
14.01.2021	23:21:32	0	0	3,163494	3,4845	51,7356	0,097	75,519	3,5	1007,38	6,6	8,6	8,5	1	1	1	1	1	1	1	1	1	0	1	-66,596195	273,753886	251,841324	0
14.01.2021	23:21:33	0	0	3,502482	3,57	60,5556	0,101	75,525	3,5	1007,32	6,6	8,6	8,3	1	1	1	1	1	1	1	1	1	0	1	-68,710359	273,803786	249,959403	0
14.01.2021	23:21:34	0	0	2,824582	4,04625	53,4456	0,098	75,54	3,5	1007,38	6,6	8,6	8,3	1	1	1	1	1	1	1	1	1	0	1	-63,213531	273,734841	255,135381	0
14.01.2021	23:21:35	0	0	3,728403	3,9855	50,6772	0,096	75,551	3,5	1007,46	6,6	8,6	8,5	1	1	1	1	1	1	1	1	1	0	1	-64,83439	273,850869	254,054622	0
14.01.2021	23:21:36	0	0	4,971205	3,75	52,4952	0,097	75,577	3,5	1007,46	6,6	8,6	8,5	1	1	1	1	1	1	1	1	1	0	1	-64,622974	273,911364	254,547905	0
14.01.2021	23:21:37	0	0	4,632314	3,474	54,7704	0,091	75,566	3,5	1007,44	6,6	8,6	8,3	1	1	1	1	1	1	1	1	1	0	1	-64,622974	273,843505	254,231738	0
14.01.2021	23:21:38	0	0	3,841385	3,51225	54,8784	0,097	75,591	3,5	1007,42	6,6	8,6	8,5	1	1	1	1	1	1	1	1	1	0	1	-62,297393	273,920233	256,914825	0
14.01.2021	23:21:39	0	0	4,519277	3,702	51,4224	0,092	75,583	3,5	1007,4	6,6	8,6	8,5	1	1	1	1	1	1	1	1	1	0	1	-63,777308	273,793502	254,84458	0
14.01.2021	23:21:40	0	0	4,180331	4,33125	56,6532	0,089	75,602	3,5	1007,42	6,6	8,6	8,5	1	1	1	1	1	1	1	1	1	0	1	-65,891473	273,895115	253,203678	0
14.01.2021	23:21:41	0	0	4,971205	4,95825	46,2348	0,093	75,604	3,5	1007,38	6,3	8,6	8,5	1	1	1	1	1	1	1	1	1	0	1	-63,213531	273,802317	255,44939	0
14.01.2021	23:21:42	0	0	4,745241	5,00925	64,242	0,092	75,592	3,5	1007,54	6,3	8,6	8,5	1	1	1	1	1	1	1	1	1	0	1	-67,159972	273,727521	251,154889	0
14.01.2021	23:21:43	0	0	3,954415	5,17425	56,6568	0,086	75,608	3,5	1007,42	6,3	8,6	8,3	1	1	1	1	1	1	1	1	1	0	1	-60,465116	273,802317	258,197805	0
14.01.2021	23:21:44	0	0	3,841385	5,21475	68,418	0,092	75,633	3,5	1007,6	6,6	8,6	8,5	1	1	1	1	1	1	1	1	1	0	1	-60,535588	273,724593	257,765656	0
14.01.2021	23:21:45	0	0	2,711599	5,06325	56,2824	0,093	75,656	3,5	1007,4	6,3	8,6	8,3	1	1	1	1	1	1	1	1	1	0	1	-60,958421	273,726057	257,349631	0
14.01.2021	23:21:46	0	0	5,536147	4,767	59,112	0,088	75,656	3,5	1007,36	6,3	8,6	8,4	1	1	1	1	1	1	1	1	1	0	1	-63,143058	273,850869	255,745954	0
14.01.2021	23:21:47	0	0	4,632314	4,78575	55,9404	0,092	75,673	3,5	1007,32	6,6	8,6	8,3	1	1	1	1	1	1	1	1	1	0	1	-63,777308	273,753886	254,66021	0
14.01.2021	23:21:48	0	0	3,05053	5,019	57,0312	0,087	75,686	3,5	1007,44	6,3	8,6	8,4	1	1	1	1	1	1	1	1	1	0	1	-60,112755	273,726057	258,195297	0
14.01.2021	23:21:49	0	0	3,954391	4,9245	49,374	0,09	75,702	3,5	1007,48	6,3	8,6	8,4	1	1	1	1	1	1	1	1	1	0	1	-66,45525	273,850869	252,433762	0
14.01.2021	23:21:50	0	0	3,163494	4,90125	49,212	0,082	75,745	3,5	1007,56	6,6	8,6	8,5	1	1	1	1	1	1	1	1	1	0	1	-66,45525	273,730448	251,873229	0
14.01.2021	23:21:51	0	0	2,485632	4,347	55,9512	0,08	75,758	3,5	1007,44	6,6	8,6	8,3	1	1	1	1	1	1	1	1	1	0	1	-65,045807	273,877405	253,96682	0
14.01.2021	23:21:52	0	0	3,389478	3,95625	58,1112	0,087	75,817	3,5	1007,34	6,3	8,6	8,4	1	1	1	1	1	1	1	1	1	0	1	-69,415081	273,893638	249,673189	0
14.01.2021	23:21:53	0	0	3,502461	3,70575	59,922	0,082	75,838	3,5	1007,32	6,3	8,6	8,4	1	1	1	1	1	1	1	1	1	0	1	-66,948555	273,899545	252,167241	0
14.01.2021	23:21:54	0	0	4,180356	4,0035	86,2848	0,08	75,842	3,5	1007,4	6,6	8,6	8,4	1	1	1	1	1	1	1	1	1	0	1	-65,891473	273,872979	253,100537	0
14.01.2021	23:21:55	0	0	3,615465	4,38525	81,2124	0,086	75,868	3,5	1007,3	6,3	8,5	8,3	1	1	1	1	1	1	1	1	1	0	1	-63,988724	273,75242	254,441974	0
14.01.2021	23:21:56	0	0	2,937565	4,40325	85,1868	0,085	75,878	3,5	1007,56	6,3	8,5	8,3	1	1	1	1	1	1	1	1	1	0	1	-66,878083	273,724593	251,423161	0
14.01.2021	23:21:57	0	0	4,519304	4,242	63,1656	0,087	75,878	3,5	1007,44	6,3	8,6	8,4	1	1	1	1	1	1	1	1	1	0	1	-60,324172	273,901022	258,798507	0
14.01.2021	23:21:58	0	0	4,180356	4,42875	68,4036	0,082	75,866	3,5	1007,32	6,3	8,6	8,4	1	1	1	1	1	1	1	1	1	0	1	-61,945032	273,783223	256,629012	0
14.01.2021	23:21:59	0	0	2,711582	4,4505	71,6292	0,084	75,884	3,5	1007,42	6,3	8,6	8,4	1	1	1	1	1	1	1	1	1	0	1	-64,904863	273,728984	253,416807	0
14.01.2021	23:22:00	0	0	3,050548	3,62775	59,4828	0,083	75,899	3,5	1007,34	6,3	8,6	8,3	1	1	1	1	1	1	1	1	1	0	1	-60,817477	273,901022	258,305202	0
14.01.2021	23:22:01	0	0	3,050548	3,62775	59,4828	0,083	75,899	3,5	1007,34	6,3	8,6	8,3	1	1	1	1	1	1	1	1	1	0	1	-60,817477	273,901022	258,305202	0
14.01.2021	23:22:02	0	0	3,502461	3,21375	65,4408	0,089	75,9	3,5	1007,42	6,3	8,6	8,4	1	1	1	1	1	1	1	1	1	0	1	-61,451727	273,783223	257,122317	0
14.01.2021	23:22:03	0	0	2,937548	3,27525	59,0868	0,086	75,921	3,5	1007,34	6,6	8,5	8,4	1	1	1	1	1	1	1	1	1	0	1	-66,737139	273,920233	252,475079	0
14.01.2021	23:22:04	0	0	3,954391	3,51525	61,3224	0,086	75,908	3,5	1007,42	6,3	8,5	8,4	1	1	1	1	1	1	1	1	1	0	1	-64,622974	273,770016	253,889602	0
14.01.2021	23:22:05	0	0	2,711582	3,41925	60,2568	0,087	75,914	3,5	1007,18	6,3	8,6	8,4	1	1	1	1	1	1	1	1	1	0	1	-67,371388	273,912842	251,806379	0
14.01.2021	23:22:06	0	0	4,971234	3,192	64,2276	0,084	75,918	3,5	1007,46	6,3	8,6	8,4	1	1	1	1	1	1	1	1	1	0	1	-69,06272	273,87003	249,915548	0
14.01.2021	23:22:07	0	0	4,293339	3,15525	58,4784	0,08	75,913	3,5	1007,3	6,3	8,6	8,4	1	1	1	1	1	1	1	1	1	0	1	-66,807611	273,764149	251,677663	0
14.01.2021	23:22:08	0	0	2,711582	3,43125	71,5968	0,089	75,918	3,5	1007,3	6,3	8,5	8,4	1	1	1	1	1	1	1	1	1	0	1	-62,508809	273,78616	256,078901	0
14.01.2021	23:22:09	0	0	3,615465	3,585	64,62	0,081	75,925	3,5	1007,36	6,3	8,6	8,3	1	1	1	1	1	1	1	1	1	0	1	-62,790698	273,764149	255,694576	0
14.01.2021	23:22:10	0	0	3,05053	3,4665	80,8812	0,09	75,905	3,5	1007,4	6,3	8,6	8,4	1	1	1	1	1	1	1	1	1	0	1	-62,579281	273,77882	255,974268	0
14.01.2021	23:22:11	0	0	3,163513	3,3	76,356	0,089	75,921	3,5	1007,44	6,3	8,6	8,4	1	1	1	1	1	1	1	1	1	0	1	-62,508809	273,867081	256,455721	0
14.01.2021	23:22:12	0	0	4,293339	3,20175	79,038	0,082	75,914	3,5	1007,44	6,3	8,6	8,4	1	1	1	1	1	1	1	1	1	0	1	-65,257223	273,920233	253,954994	0
14.01.2021	23:22:13	0	0	2,937565	3,39	65,844	0,084	75,912	3,5	1007,46	6,3	8,6	8,3	1	1	1	1	1	1	1	1	1	0	1	-65,539112	273,856763	253,377352	0
14.01.2021	23:22:14	0	0	4,971234	3,66675	62,4204	0,076	75,909	3,5	1007,28	6,3	8,5	8,4	1	1	1	1	1	1	1	1	1	0	1	-64,341085	273,765616	254,151013	0
14.01.2021	23:22:15	0	0	2,5986	3,849	69,8292	0,086	75,908	3,5	1007,52	6,3	8,6	8,4	1	1	1	1	1	1	1	1	1	0	1	-69,978858	273,853816	248,923879	0
14.01.2021	23:22:16	0	0	3,954391	3,981	51,0552	0,086	75,921	3,5	1007,36	6,3	8,6	8,4	1	1	1	1	1	1	1	1	1	0	1	-64,622974	273,91432	254,561682	0
14.01.2021	23:22:17	0	0	5,084217	4,0605	51,75	0,086	75,913	3,5	1007,48	6,3	8,6	8,4	1	1	1	1	1	1	1	1	1	0	1	-66,032417	273,867081	252,932113	0
14.01.2021	23:22:18	0	0	4,293339	4,0065	38,0664	0,084	75,912	3,5	1007,44	6,3	8,6	8,4	1	1	1	1	1	1	1	1	1	0	1	-67,512333	273,924668	251,720563	0
14.01.2021	23:22:19	0	0	3,841408	3,99825	47,7468	0,084	75,899	3,5	1007,38	6,3	8,6	8,4	1	1	1	1	1	1	1	1	1	0	1	-70,824524	273,87003	248,153744	0
14.01.2021	23:22:20	0	0	2,711582	3,81375	42,2388	0,088	75,895	3,5	1007,5	6,3	8,6	8,4	1	1	1	1	1	1	1	1	1	0	1	-67,723749	273,731912	250,61154	0
14.01.2021	23:22:21	0	0	4,971234	3,52125	27,9792	0,102	75,897	3,5	1007,5	6,3	8,6	8,4	1	1	1	1	1	1	1	1	1	0	1	-65,609584	273,787628	252,98496	0
14.01.2021	23:22:22	0	0	2,937548	3,21375	42,9408	0,087	75,89	3,5	1007,44	6,3	8,6	8,4	1	1	1	1	1	1	1	1	1	0	1	-59,408034	273,874454	259,590848	0
14.01.2021	23:22:23	0	0	4,971234	3,219	30,7152	0,088	75,888	3,5	1007,36	6,3	8,5	8,4	1	1	1	1	1	1	1	1	1	0	1	-62,156448	273,73777	256,206088	0
14.01.2021	23:22:24	0	0	4,519304	3,3345	43,308	0,091	75,881	3,5	1007,38	6,3	8,5	8,4	1	1	1	1	1	1	1	1	1	0	1	-68,921776	273,843505	249,932936	0
14.01.2021	23:22:25	0	0	2,937548	3,26325	57,0528	0,084	75,897	3,5	1007,34	6,3	8,6	8,4	1	1	1	1	1	1	1	1	1	0	1	-65,327696	273,750955	253,096184	0
14.01.2021	23:22:26	0	0	4,067374	3,321	64,6308	0,084	75,897	3,5	1007,4	6,3	8,5	8,4	1	1	1	1	1	1	1	1	1	0	1	-60,817477	273,868555	258,153922	0
14.01.2021	23:22:27	0	0	2,259652	3,55875	70,8624	0,083	75,9	3,5	1007,24	6,3	8,6	8,4	1	1	1	1	1	1	1	1	1	0	1	-63,706836	273,750955	254,717044	0
14.01.2021	23:22:28	0	0	2,824565	3,41475	80,5248	0,085	75,897	3,5	1007,38	6,4	8,5	8,4	1	1	1	1	1	1	1	1	1	0	1	-63,143058	273,883306	255,897066	0
14.01.2021	23:22:29	0	0	3,615443	3,33075	71,6796	0,089	75,878	3,5	1007,5	6,3	8,6	8,4	1	1	1	1	1	1	1	1	1	0	1	-66,314306	273,806726	252,36914	0
14.01.2021	23:22:30	0	0	3,05053	3,6345	74,178	0,086	75,891	3,5	1007,44	6,3	8,5	8,4	1	1	1	1	1	1	1	1	1	0	1	-64,622974	273,921711	254,596136	0
14.01.2021	23:22:31	0	0	2,485617	3,69525	77,238	0,081	75,874	3,5	1007,44	6,3	8,6	8,4	1	1	1	1	1	1	1	1	1	0	1	-61,381254	273,809665	257,315878	0
14.01.2021	23:22:32	0	0	3,502461	3,65775	73,4472	0,095	75,891	3,5	1007,5	6,3	8,6	8,4	1	1	1	1	1	1	1	1	1	0	1	-63,143058	273,929105	256,110521	0
14.01.2021	23:22:33	0	0	4,519304	3,579	63,5148	0,078	75,881	3,5	1007,5	6,3	8,5	8,4	1	1	1	1	1	1	1	1	1	0	1	-63,988724	273,811135	254,715253	0
14.01.2021	23:22:34	0	0	4,293339	3,75225	68,8032	0,083	75,856	3,5	1007,4	6,3	8,6	8,4	1	1	1	1	1	1	1	1	1	0	1	-62,015504	273,758284	256,442477	0
14.01.2021	23:22:35	0	0	2,824565	3,708	64,6452	0,084	75,861	3,5	1007,3	6,3	8,5	8,4	1	1	1	1	1	1	1	1	1	0	1	-65,045807	273,811135	253,65817	0
14.01.2021	23:22:36	0	0	2,937548	3,35475	77,238	0,084	75,871	3,5	1007,44	6,3	8,6	8,4	1	1	1	1	1	1	1	1	1	0	1	-64,975335	273,749489	253,441726	0
14.01.2021	23:22:37	0	0	3,841408	3,08775	80,5032	0,081	75,861	3,5	1007,46	6,3	8,5	8,4	1	1	1	1	1	1	1	1	1	0	1	-64,975335	273,814076	253,742333	0
14.01.2021	23:22:38	0	0	4,858252	2,9895	91,1988	0,085	75,875	3,5	1007,38	6,3	8,5	8,4	1	1	1	1	1	1	1	1	1	0	1	-65,327696	273,935023	253,953471	0
14.01.2021	23:22:39	0	0	4,745269	3,07425	81,5688	0,081	75,867	3,5	1007,36	6,3	8,5	8,4	1	1	1	1	1	1	1	1	1	0	1	-65,257223	273,831728	253,54264	0
14.01.2021	23:22:40	0	0	3,389478	3,24225	85,9032	0,084	75,878	3,5	1007,48	6,3	8,6	8,4	1	1	1	1	1	1	1	1	1	0	1	-68,217054	273,942422	251,098611	0
14.01.2021	23:22:41	0	0	2,824565	3,2625	94,0392	0,086	75,883	3,5	1007,46	6,4	8,5	8,4	1	1	1	1	1	1	1	1	1	0	1	-64,763918	273,799378	253,885322	0
14.01.2021	23:22:42	0	0	4,180356	3,051	86,2812	0,084	75,87	3,5	1007,32	6,3	8,5	8,4	1	1	1	1	1	1	1	1	1	0	1	-62,649753	273,756818	255,801406	0
14.01.2021	23:22:43	0	0	3,163513	2,81325	84,7944	0,08	75,897	3,5	1007,46	6,3	8,6	8,4	1	1	1	1	1	1	1	1	1	0	1	-63,072586	273,794971	255,556138	0
14.01.2021	23:22:44	0	0	4,632287	2,68575	91,1556	0,081	75,895	3,5	1007,42	6,3	8,5	8,4	1	1	1	1	1	1	1	1	1	0	1	-68,287526	273,88921	250,780106	0
14.01.2021	23:22:45	0	0	2,5986	2,679	84,438	0,088	75,88	3,5	1007,36	6,3	8,6	8,4	1	1	1	1	1	1	1	1	1	0	1	-63,777308	273,946863	255,559065	0
14.01.2021	23:22:46	0	0	3,841408	2,73675	86,2992	0,082	75,881	3,5	1007,48	6,3	8,6	8,4	1	1	1	1	1	1	1	1	1	0	1	-63,213531	273,842033	255,634323	0
14.01.2021	23:22:47	0	0	4,406321	2,64075	79,7868	0,081	75,87	3,5	1007,36	6,3	8,5	8,4	1	1	1	1	1	1	1	1	1	0	1	-65,821001	273,954267	253,549896	0
14.01.2021	23:22:48	0	0	3,841408	2,68575	59,8824	0,075	75,855	3,5	1007,44	6,3	8,5	8,4	1	1	1	1	1	1	1	1	1	0	1	-61,381254	273,839088	257,452884	0
14.01.2021	23:22:49	0	0	4,519304	2,9595	49,9536	0,082	75,854	3,5	1007,42	6,3	8,5	8,4	1	1	1	1	1	1	1	1	1	0	1	-67,0895	273,942422	252,226166	0
14.01.2021	23:22:50	0	0	3,05053	2,96775	49,9464	0,083	75,823	3,5	1007,48	6,6	8,5	8,4	1	1	1	1	1	1	1	1	1	0	1	-65,045807	273,812606	253,665015	0
14.01.2021	23:22:51	0	0	2,824565	3,01425	62,4384	0,087	75,825	3,5	1007,46	6,3	8,5	8,4	1	1	1	1	1	1	1	1	1	0	1	-68,780832	273,825842	249,991623	0
14.01.2021	23:22:52	0	0	2,711582	3,03975	50,6808	0,078	75,804	3,5	1007,54	6,3	8,5	8,4	1	1	1	1	1	1	1	1	1	0	1	-64,48203	273,789096	254,11935	0
14.01.2021	23:22:53	0	0	2,824565	3,1485	56,6748	0,079	75,777	3,5	1007,34	6,3	8,5	8,4	1	1	1	1	1	1	1	1	1	0	1	-69,06272	273,890686	250,011791	0
14.01.2021	23:22:54	0	0	4,180356	3,03675	54,1044	0,086	75,768	3,5	1007,4	6,3	8,5	8,4	1	1	1	1	1	1	1	1	1	0	1	-67,300916	273,792033	251,314135	0
14.01.2021	23:22:55	0	0	4,519304	2,9535	63,144	0,089	75,764	3,5	1007,46	6,3	8,5	8,4	1	1	1	1	1	1	1	1	1	0	1	-66,384778	273,828785	252,40138	0
14.01.2021	23:22:56	0	0	4,067374	2,8515	61,6932	0,08	75,758	3,5	1007,44	6,3	8,5	8,4	1	1	1	1	1	1	1	1	1	0	1	-65,46864	273,963156	253,943708	0
14.01.2021	23:22:57	0	0	3,163513	2,925	56,2932	0,082	75,751	3,5	1007,44	6,3	8,5	8,4	1	1	1	1	1	1	1	1	1	0	1	-65,257223	273,874454	253,741658	0
14.01.2021	23:22:58	0	0	2,485617	2,958	56,6604	0,082	75,742	3,5	1007,32	6,3	8,5	8,4	1	1	1	1	1	1	1	1	1	0	1	-68,780832	273,963156	250,631516	0
14.01.2021	23:22:59	0	0	2,824565	3,07425	65,844	0,08	75,742	3,5	1007,44	6,6	8,5	8,4	1	1	1	1	1	1	1	1	1	0	1	-63,84778	273,871505	255,137359	0
14.01.2021	23:23:00	0	0	4,519304	3,14625	59,4756	0,074	75,728	3,5	1007,48	6,3	8,5	8,4	1	1	1	1	1	1	1	1	1	0	1	-64,552502	273,899545	254,563294	0
14.01.2021	23:23:01	0	0	4,519304	3,14625	59,4756	0,074	75,728	3,5	1007,48	6,3	8,5	8,4	1	1	1	1	1	1	1	1	1	0	1	-64,552502	273,899545	254,563294	0
14.01.2021	23:23:02	0	0	2,5986	3,21225	59,8572	0,085	75,723	3,5	1007,46	6,3	8,5	8,4	1	1	1	1	1	1	1	1	1	0	1	-62,085976	273,792033	256,529075	0
14.01.2021	23:23:03	0	0	4,180356	3,22275	58,8708	0,084	75,695	3,5	1007,36	6,3	8,5	8,4	1	1	1	1	1	1	1	1	1	0	1	-70,331219	273,926147	248,908571	0
14.01.2021	23:23:04	0	0	4,406321	3,111	64,6236	0,079	75,685	3,5	1007,42	6,3	8,5	8,4	1	1	1	1	1	1	1	1	1	0	1	-64,48203	273,902499	254,647533	0
14.01.2021	23:23:05	0	0	3,615443	2,9205	50,3028	0,078	75,686	3,5	1007,28	6,3	8,5	8,4	1	1	1	1	1	1	1	1	1	0	1	-69,626498	273,800847	249,029583	0
14.01.2021	23:23:06	0	0	3,841408	2,808	44,0424	0,079	75,674	3,5	1007,42	6,3	8,5	8,4	1	1	1	1	1	1	1	1	1	0	1	-66,384778	273,809665	252,312355	0
14.01.2021	23:23:07	0	0	2,824565	2,691	53,7408	0,085	75,669	3,5	1007,48	6,3	8,5	8,4	1	1	1	1	1	1	1	1	1	0	1	-70,894996	273,954267	248,475901	0
14.01.2021	23:23:08	0	0	4,632287	2,52075	58,4712	0,075	75,659	3,5	1007,44	6,3	8,5	8,4	1	1	1	1	1	1	1	1	1	0	1	-64,83439	273,881831	254,198859	0
14.01.2021	23:23:09	0	0	4,406321	2,5425	60,228	0,072	75,654	3,5	1007,4	6,3	8,5	8,4	1	1	1	1	1	1	1	1	1	0	1	-64,904863	273,970566	254,542045	0
14.01.2021	23:23:10	0	0	2,711582	2,58525	58,8672	0,077	75,648	3,5	1007,16	6,3	8,5	8,4	1	1	1	1	1	1	1	1	1	0	1	-61,099366	273,828785	257,686792	0
14.01.2021	23:23:11	0	0	3,841408	2,6145	55,17	0,079	75,645	3,5	1007,52	6,3	8,5	8,4	1	1	1	1	1	1	1	1	1	0	1	-61,24031	273,781755	257,326902	0
14.01.2021	23:23:12	0	0	3,050512	2,6265	60,2532	0,075	75,634	3,5	1007,5	6,3	8,5	8,5	1	1	1	1	1	1	1	1	1	0	1	-62,297393	273,814076	256,420275	0
14.01.2021	23:23:13	0	0	4,067374	2,562	57,5136	0,08	75,632	3,5	1007,42	6,3	8,5	8,4	1	1	1	1	1	1	1	1	1	0	1	-65,891473	273,967602	253,541609	0
14.01.2021	23:23:14	0	0	3,841408	2,541	59,0868	0,082	75,641	3,5	1007,36	6,3	8,5	8,4	1	1	1	1	1	1	1	1	1	0	1	-65,680056	273,806726	253,00339	0
14.01.2021	23:23:15	0	0	4,632314	2,4525	58,8456	0,075	75,651	3,5	1007,48	6,3	8,6	8,3	1	1	1	1	1	1	1	1	1	0	1	-68,780832	273,92319	250,445171	0
14.01.2021	23:23:16	0	0	2,598615	2,34525	53,7228	0,075	75,65	3,5	1007,36	6,3	8,5	8,3	1	1	1	1	1	1	1	1	1	0	1	-64,763918	273,95723	254,620793	0
14.01.2021	23:23:17	0	0	2,937548	2,30325	46,9908	0,076	75,649	3,5	1007,54	6,3	8,5	8,4	1	1	1	1	1	1	1	1	1	0	1	-59,901339	273,899545	259,214457	0
14.01.2021	23:23:18	0	0	3,389478	2,21025	48,8124	0,077	75,654	3,5	1007,46	6,3	8,5	8,4	1	1	1	1	1	1	1	1	1	0	1	-70,68358	273,955749	248,694224	0
14.01.2021	23:23:19	0	0	3,728426	2,1945	47,3688	0,077	75,655	3,5	1007,44	6,3	8,5	8,4	1	1	1	1	1	1	1	1	1	0	1	-68,780832	273,812606	249,92999	0
14.01.2021	23:23:20	0	0	3,728426	2,28975	49,59	0,074	75,652	3,5	1007,48	6,3	8,5	8,4	1	1	1	1	1	1	1	1	1	0	1	-61,592671	273,95723	257,792041	0
14.01.2021	23:23:21	0	0	4,067374	2,40525	55,5228	0,075	75,638	3,5	1007,44	6,3	8,5	8,4	1	1	1	1	1	1	1	1	1	0	1	-63,143058	273,872979	255,848951	0
14.01.2021	23:23:22	0	0	4,293365	2,448	55,548	0,073	75,631	3,5	1007,38	6,3	8,6	8,3	1	1	1	1	1	1	1	1	1	0	1	-68,005638	273,954267	251,365259	0
14.01.2021	23:23:23	0	0	2,824565	2,394	60,5592	0,075	75,641	3,5	1007,42	6,3	8,5	8,4	1	1	1	1	1	1	1	1	1	0	1	-62,790698	273,811135	255,913279	0
14.01.2021	23:23:24	0	0	3,728403	2,412	51,0624	0,073	75,619	3,5	1007,44	6,3	8,5	8,5	1	1	1	1	1	1	1	1	1	0	1	-64,622974	273,77882	253,930575	0
14.01.2021	23:23:25	0	0	4,180356	2,42775	58,5936	0,068	75,626	3,5	1007,5	6,3	8,5	8,4	1	1	1	1	1	1	1	1	1	0	1	-64,411557	273,933543	254,862712	0
14.01.2021	23:23:26	0	0	3,276495	2,4075	57,726	0,068	75,628	3,5	1007,3	6,3	8,5	8,4	1	1	1	1	1	1	1	1	1	0	1	-64,059197	273,828785	254,726961	0
14.01.2021	23:23:27	0	0	4,858252	2,39775	50,2848	0,065	75,627	3,5	1007,3	6,6	8,5	8,4	1	1	1	1	1	1	1	1	1	0	1	-62,367865	273,942422	256,947801	0
14.01.2021	23:23:28	0	0	3,615421	2,42175	60,5556	0,071	75,649	3,5	1007,46	6,3	8,5	8,5	1	1	1	1	1	1	1	1	1	0	1	-69,556025	273,767082	248,942898	0
14.01.2021	23:23:29	0	0	4,406295	2,469	44,4096	0,069	75,652	3,5	1007,44	6,3	8,5	8,5	1	1	1	1	1	1	1	1	1	0	1	-63,354475	273,792033	255,260576	0
14.01.2021	23:23:30	0	0	4,406348	2,51025	54,1188	0,074	75,665	3,5	1007,26	6,6	8,5	8,3	1	1	1	1	1	1	1	1	1	0	1	-65,750529	273,802317	252,912392	0
14.01.2021	23:23:31	0	0	4,180356	2,39925	51,0516	0,06	75,661	3,5	1007,34	6,3	8,5	8,4	1	1	1	1	1	1	1	1	1	0	1	-66,243834	273,92319	252,982169	0
14.01.2021	23:23:32	0	0	2,372635	2,4165	51,0552	0,062	75,667	3,5	1007,32	6,3	8,5	8,4	1	1	1	1	1	1	1	1	1	0	1	-66,384778	273,809665	252,312355	0
14.01.2021	23:23:33	0	0	2,824565	2,36025	53,3556	0,061	75,667	3,5	1007,4	6,3	8,5	8,4	1	1	1	1	1	1	1	1	1	0	1	-66,525722	273,780288	252,034658	0
14.01.2021	23:23:34	0	0	2,711582	2,30325	56,3004	0,061	75,666	3,5	1007,26	6,3	8,5	8,4	1	1	1	1	1	1	1	1	1	0	1	-68,357999	273,920233	250,854219	0
14.01.2021	23:23:35	0	0	4,858252	2,32875	60,534	0,065	75,676	3,5	1007,42	6,3	8,6	8,4	1	1	1	1	1	1	1	1	1	0	1	-64,904863	273,909886	254,259129	0
14.01.2021	23:23:36	0	0	3,841408	2,34375	54,1188	0,062	75,673	3,5	1007,38	6,4	8,5	8,4	1	1	1	1	1	1	1	1	1	0	1	-62,790698	273,868555	256,180701	0
14.01.2021	23:23:37	0	0	2,711582	2,2935	57,7152	0,064	75,665	3,5	1007,46	6,3	8,6	8,4	1	1	1	1	1	1	1	1	1	0	1	-65,186751	273,943903	254,135816	0
14.01.2021	23:23:38	0	0	2,824565	2,346	62,028	0,059	75,658	3,5	1007,42	6,3	8,5	8,4	1	1	1	1	1	1	1	1	1	0	1	-64,129669	273,849396	254,752482	0
14.01.2021	23:23:39	0	0	2,259666	2,46225	57,0204	0,06	75,653	3,5	1007,52	6,4	8,5	8,3	1	1	1	1	1	1	1	1	1	0	1	-69,69697	273,951305	249,660116	0
14.01.2021	23:23:40	0	0	4,180356	2,568	65,4768	0,063	75,663	3,5	1007,42	6,3	8,5	8,4	1	1	1	1	1	1	1	1	1	0	1	-66,384778	273,884782	252,662222	0
14.01.2021	23:23:41	0	0	5,1972	2,70975	77,2164	0,056	75,66	3,5	1007,32	6,3	8,5	8,4	1	1	1	1	1	1	1	1	1	0	1	-64,059197	273,764149	254,426077	0
14.01.2021	23:23:42	0	0	4,632287	2,86275	77,9796	0,067	75,66	3,5	1007,5	6,3	8,5	8,4	1	1	1	1	1	1	1	1	1	0	1	-64,129669	273,818487	254,608539	0
14.01.2021	23:23:43	0	0	3,389498	2,96625	77,2092	0,063	75,665	3,5	1007,38	6,3	8,5	8,3	1	1	1	1	1	1	1	1	1	0	1	-65,116279	273,937982	254,178686	0
14.01.2021	23:23:44	0	0	4,858223	2,877	78,2892	0,065	75,671	3,5	1007,5	6,3	8,5	8,5	1	1	1	1	1	1	1	1	1	0	1	-62,367865	273,764149	256,117409	0
14.01.2021	23:23:45	0	0	2,824582	2,66925	65,8476	0,06	75,678	3,5	1007,48	6,3	8,5	8,3	1	1	1	1	1	1	1	1	1	0	1	-65,609584	273,883306	253,43054	0
14.01.2021	23:23:46	0	0	4,745298	2,5275	62,0316	0,057	75,679	3,5	1007,42	6,3	8,5	8,3	1	1	1	1	1	1	1	1	1	0	1	-64,904863	273,762683	253,573587	0
14.01.2021	23:23:47	0	0	5,423165	2,22825	40,2372	0,054	75,695	3,5	1007,3	6,4	8,5	8,4	1	1	1	1	1	1	1	1	1	0	1	-67,0895	273,881831	251,943749	0
14.01.2021	23:23:48	0	0	3,954367	2,0265	54,1044	0,061	75,702	3,5	1007,52	6,3	8,5	8,5	1	1	1	1	1	1	1	1	1	0	1	-66,314306	273,906931	252,835912	0
14.01.2021	23:23:49	0	0	3,615421	1,944	53,3592	0,059	75,695	3,5	1007,34	6,3	8,5	8,5	1	1	1	1	1	1	1	1	1	0	1	-65,327696	273,77882	253,225853	0
14.01.2021	23:23:50	0	0	4,632314	1,992	62,4276	0,057	75,707	3,5	1007,46	6,3	8,5	8,3	1	1	1	1	1	1	1	1	1	0	1	-64,83439	273,811135	253,869587	0
14.01.2021	23:23:51	0	0	5,423165	2,0415	45,5256	0,059	75,711	3,5	1007,46	6,4	8,6	8,4	1	1	1	1	1	1	1	1	1	0	1	-61,663143	273,830256	257,129867	0
14.01.2021	23:23:52	0	0	2,824582	2,08575	57,4308	0,06	75,718	3,5	1007,5	6,4	8,5	8,3	1	1	1	1	1	1	1	1	1	0	1	-66,102889	273,746559	252,300537	0
14.01.2021	23:23:53	0	0	3,954415	2,03625	63,5076	0,058	75,73	3,5	1007,42	6,3	8,5	8,3	1	1	1	1	1	1	1	1	1	0	1	-58,773784	273,814076	259,943883	0
14.01.2021	23:23:54	0	0	2,93753	2,0415	73,4544	0,053	75,714	3,5	1007,4	6,3	8,5	8,5	1	1	1	1	1	1	1	1	1	0	1	-64,270613	273,75242	254,160086	0
14.01.2021	23:23:55	0	0	4,632287	2,094	73,7712	0,055	75,719	3,5	1007,46	6,4	8,6	8,4	1	1	1	1	1	1	1	1	1	0	1	-63,918252	273,85971	255,011942	0
14.01.2021	23:23:56	0	0	2,711599	2,19975	54,108	0,063	75,73	3,5	1007,54	6,4	8,5	8,3	1	1	1	1	1	1	1	1	1	0	1	-65,186751	273,932064	254,080621	0
14.01.2021	23:23:57	0	0	4,858281	2,34	71,9856	0,056	75,715	3,5	1007,34	6,3	8,5	8,3	1	1	1	1	1	1	1	1	1	0	1	-67,653277	273,812606	251,057545	0
14.01.2021	23:23:58	0	0	4,632314	2,39025	59,1084	0,054	75,721	3,5	1007,34	6,4	8,6	8,3	1	1	1	1	1	1	1	1	1	0	1	-65,750529	273,762683	252,727921	0
14.01.2021	23:23:59	0	0	2,711566	2,4465	44,7732	0,053	75,735	3,5	1007,44	6,4	8,5	8,5	1	1	1	1	1	1	1	1	1	0	1	-64,129669	273,765616	254,36243	0
14.01.2021	23:24:00	0	0	2,485602	2,7405	44,8704	0,052	75,736	3,5	1007,44	6,3	8,6	8,5	1	1	1	1	1	1	1	1	1	0	1	-67,512333	273,927626	251,734352	0
14.01.2021	23:24:01	0	0	2,485602	2,7405	44,8704	0,052	75,736	3,5	1007,44	6,3	8,6	8,5	1	1	1	1	1	1	1	1	1	0	1	-67,512333	273,927626	251,734352	0
14.01.2021	23:24:02	0	0	2,93753	2,69625	42,9228	0,049	75,744	3,5	1007,48	6,4	8,5	8,5	1	1	1	1	1	1	1	1	1	0	1	-65,609584	273,746559	252,793842	0
14.01.2021	23:24:03	0	0	4,745269	2,6025	62,0424	0,055	75,749	3,5	1007,22	6,4	8,5	8,4	1	1	1	1	1	1	1	1	1	0	1	-65,398168	273,911364	253,772711	0
14.01.2021	23:24:04	0	0	2,93753	2,436	62,7876	0,053	75,749	3,5	1007,38	6,4	8,6	8,5	1	1	1	1	1	1	1	1	1	0	1	-62,931642	273,886258	256,122235	0
14.01.2021	23:24:05	0	0	3,954415	2,20725	73,4364	0,045	75,753	3,5	1007,38	6,4	8,6	8,3	1	1	1	1	1	1	1	1	1	0	1	-61,733615	273,902499	257,395948	0
14.01.2021	23:24:06	0	0	4,519277	2,08425	88,9704	0,053	75,744	3,5	1007,36	6,4	8,6	8,5	1	1	1	1	1	1	1	1	1	0	1	-66,314306	273,892162	252,767085	0
14.01.2021	23:24:07	0	0	2,937565	1,89075	77,5656	0,048	75,744	3,5	1007,48	6,4	8,6	8,3	1	1	1	1	1	1	1	1	1	0	1	-66,948555	273,765616	251,543543	0
14.01.2021	23:24:08	0	0	2,711566	1,659	66,924	0,049	75,727	3,5	1007,38	6,4	8,6	8,5	1	1	1	1	1	1	1	1	1	0	1	-67,159972	273,731912	251,175317	0
14.01.2021	23:24:09	0	0	2,824582	1,4745	78,3396	0,044	75,731	3,5	1007,42	6,4	8,6	8,3	1	1	1	1	1	1	1	1	1	0	1	-64,904863	273,77295	253,621369	0
14.01.2021	23:24:10	0	0	2,937548	1,4085	75,2256	0,049	75,741	3,5	1007,36	6,4	8,5	8,4	1	1	1	1	1	1	1	1	1	0	1	-63,988724	273,853816	254,914013	0
14.01.2021	23:24:11	0	0	3,954415	1,5975	77,2344	0,048	75,747	3,5	1007,58	6,4	8,6	8,3	1	1	1	1	1	1	1	1	1	0	1	-65,750529	273,88921	253,317104	0
14.01.2021	23:24:12	0	0	2,485632	1,88775	64,6956	0,037	75,735	3,5	1007,34	6,3	8,6	8,3	1	1	1	1	1	1	1	1	1	0	1	-63,143058	273,825842	255,629396	0
14.01.2021	23:24:13	0	0	2,598615	2,21025	69,462	0,048	75,758	3,5	1007,4	6,4	8,6	8,3	1	1	1	1	1	1	1	1	1	0	1	-67,794221	273,915798	251,397324	0
14.01.2021	23:24:14	0	0	3,728426	2,3055	58,1148	0,046	75,762	3,5	1007,38	6,4	8,6	8,4	1	1	1	1	1	1	1	1	1	0	1	-66,948555	273,803786	251,721207	0
14.01.2021	23:24:15	0	0	3,954415	2,39925	64,6236	0,039	75,775	3,5	1007,44	6,3	8,5	8,3	1	1	1	1	1	1	1	1	1	0	1	-63,072586	273,906931	256,077632	0
14.01.2021	23:24:16	0	0	4,971264	2,37075	52,5168	0,04	75,784	3,5	1007,5	6,4	8,6	8,3	1	1	1	1	1	1	1	1	1	0	1	-66,102889	273,764149	252,382384	0
14.01.2021	23:24:17	0	0	4,180331	2,271	70,8408	0,042	75,779	3,5	1007,44	6,4	8,6	8,5	1	1	1	1	1	1	1	1	1	0	1	-61,663143	273,909886	257,500848	0
14.01.2021	23:24:18	0	0	4,971264	2,30175	67,284	0,041	75,796	3,5	1007,4	6,4	8,6	8,3	1	1	1	1	1	1	1	1	1	0	1	-64,48203	273,756818	253,96913	0
14.01.2021	23:24:19	0	0	2,824548	2,2545	62,7912	0,039	75,797	3,5	1007,38	6,4	8,6	8,5	1	1	1	1	1	1	1	1	1	0	1	-62,931642	273,892162	256,149748	0
14.01.2021	23:24:20	0	0	4,406348	2,2305	68,0256	0,044	75,794	3,5	1007,48	6,4	8,6	8,3	1	1	1	1	1	1	1	1	1	0	1	-66,596195	273,896591	252,505837	0
14.01.2021	23:24:21	0	0	2,711599	2,2665	62,0352	0,038	75,795	3,5	1007,4	6,4	8,6	8,3	1	1	1	1	1	1	1	1	1	0	1	-65,045807	273,837616	253,781476	0
14.01.2021	23:24:22	0	0	4,067349	2,43975	62,4168	0,042	75,812	3,5	1007,5	6,4	8,6	8,5	1	1	1	1	1	1	1	1	1	0	1	-66,384778	273,912842	252,792989	0
14.01.2021	23:24:23	0	0	2,937565	2,631	69,8544	0,04	75,8	3,5	1007,32	6,4	8,6	8,3	1	1	1	1	1	1	1	1	1	0	1	-65,539112	273,797909	253,103289	0
14.01.2021	23:24:24	0	0	4,406348	2,71875	66,2112	0,041	75,779	3,5	1007,62	6,4	8,6	8,3	1	1	1	1	1	1	1	1	1	0	1	-65,045807	273,896591	254,056225	0
14.01.2021	23:24:25	0	0	2,824582	2,7015	65,8296	0,039	75,781	3,5	1007,52	6,4	8,6	8,3	1	1	1	1	1	1	1	1	1	0	1	-63,002114	273,799378	255,647126	0
14.01.2021	23:24:26	0	0	4,293365	2,616	73,044	0,044	75,773	3,5	1007,44	6,4	8,6	8,3	1	1	1	1	1	1	1	1	1	0	1	-65,961945	273,91432	253,222711	0
14.01.2021	23:24:27	0	0	3,389498	2,43225	63,8748	0,042	75,777	3,5	1007,34	6,4	8,6	8,3	1	1	1	1	1	1	1	1	1	0	1	-64,904863	273,847923	253,970428	0
14.01.2021	23:24:28	0	0	4,745298	2,29425	61,308	0,038	75,749	3,5	1007,16	6,4	8,6	8,3	1	1	1	1	1	1	1	1	1	0	1	-65,045807	273,728984	253,275863	0
14.01.2021	23:24:29	0	0	2,598615	2,27475	61,6752	0,031	75,764	3,5	1007,26	6,4	8,6	8,3	1	1	1	1	1	1	1	1	1	0	1	-63,636364	273,85971	255,29383	0
14.01.2021	23:24:30	0	0	3,954415	2,289	65,4804	0,032	75,752	3,5	1007,26	6,4	8,6	8,3	1	1	1	1	1	1	1	1	1	0	1	-64,622974	273,906931	254,527244	0
14.01.2021	23:24:31	0	0	3,276515	2,292	73,062	0,036	75,758	3,5	1007,46	6,4	8,6	8,3	1	1	1	1	1	1	1	1	1	0	1	-61,592671	273,846451	257,275759	0
14.01.2021	23:24:32	0	0	2,711599	2,22675	71,6184	0,037	75,758	3,5	1007,46	6,4	8,6	8,3	1	1	1	1	1	1	1	1	1	0	1	-66,102889	273,717277	252,164326	0
14.01.2021	23:24:33	0	0	4,519331	2,21475	73,8036	0,035	75,739	3,5	1007,46	6,4	8,6	8,3	1	1	1	1	1	1	1	1	1	0	1	-63,918252	273,793502	254,703635	0
14.01.2021	23:24:34	0	0	4,293365	2,355	85,5324	0,03	75,739	3,5	1007,32	6,4	8,6	8,3	1	1	1	1	1	1	1	1	1	0	1	-63,072586	273,895115	256,022564	0
14.01.2021	23:24:35	0	0	4,406348	2,47425	84,8196	0,032	75,719	3,5	1007,42	6,4	8,6	8,3	1	1	1	1	1	1	1	1	1	0	1	-65,891473	273,739234	252,477877	0
14.01.2021	23:24:36	0	0	4,406348	2,4615	81,2052	0,031	75,725	3,5	1007,4	6,4	8,6	8,3	1	1	1	1	1	1	1	1	1	0	1	-66,737139	273,736305	251,618585	0
14.01.2021	23:24:37	0	0	3,728448	2,34825	77,2524	0,034	75,721	3,5	1007,48	6,4	8,6	8,3	1	1	1	1	1	1	1	1	1	0	1	-63,918252	273,825842	254,854202	0
14.01.2021	23:24:38	0	0	3,502482	2,20275	67,2984	0,034	75,72	3,5	1007,42	6,3	8,6	8,3	1	1	1	1	1	1	1	1	1	0	1	-63,84778	273,728984	254,473889	0
14.01.2021	23:24:39	0	0	3,728448	2,13225	71,9784	0,026	75,727	3,5	1007,38	6,4	8,6	8,3	1	1	1	1	1	1	1	1	1	0	1	-63,213531	273,784691	255,367346	0
14.01.2021	23:24:40	0	0	4,180381	2,13525	74,1888	0,035	75,724	3,5	1007,52	6,3	8,6	8,3	1	1	1	1	1	1	1	1	1	0	1	-66,243834	273,898068	252,86508	0
14.01.2021	23:24:41	0	0	4,632314	2,21925	79,1388	0,029	75,722	3,5	1007,48	6,4	8,6	8,3	1	1	1	1	1	1	1	1	1	0	1	-67,159972	273,867081	251,804558	0
14.01.2021	23:24:42	0	0	2,485632	2,27475	80,514	0,033	75,701	3,5	1007,54	6,4	8,6	8,3	1	1	1	1	1	1	1	1	1	0	1	-63,424947	273,874454	255,573934	0
14.01.2021	23:24:43	0	0	4,293365	2,33025	72,3096	0,028	75,697	3,5	1007,48	6,4	8,6	8,3	1	1	1	1	1	1	1	1	1	0	1	-65,116279	273,893638	253,971991	0
14.01.2021	23:24:44	0	0	4,858281	2,44275	74,1744	0,025	75,689	3,5	1007,36	6,3	8,6	8,3	1	1	1	1	1	1	1	1	1	0	1	-68,07611	273,792033	250,538941	0
14.01.2021	23:24:45	0	0	4,406348	2,50425	79,7724	0,027	75,685	3,5	1007,42	6,4	8,6	8,3	1	1	1	1	1	1	1	1	1	0	1	-62,508809	273,896591	256,593223	0
14.01.2021	23:24:46	0	0	3,841431	2,388	73,4292	0,024	75,676	3,5	1007,48	6,4	8,6	8,3	1	1	1	1	1	1	1	1	1	0	1	-67,794221	273,861184	251,142839	0
14.01.2021	23:24:47	0	0	4,971264	2,244	63,8676	0,026	75,669	3,5	1007,44	6,3	8,6	8,3	1	1	1	1	1	1	1	1	1	0	1	-67,019027	273,895115	252,076123	0
14.01.2021	23:24:48	0	0	4,745298	2,27625	71,9928	0,021	75,643	3,5	1007,48	6,3	8,6	8,3	1	1	1	1	1	1	1	1	1	0	1	-67,159972	273,762683	251,318478	0
14.01.2021	23:24:49	0	0	3,389498	2,29275	69,4584	0,024	75,653	3,5	1007,52	6,3	8,6	8,3	1	1	1	1	1	1	1	1	1	0	1	-64,552502	273,850869	254,336511	0
14.01.2021	23:24:50	0	0	4,293365	2,36025	57,0276	0,022	75,648	3,5	1007,4	6,3	8,6	8,3	1	1	1	1	1	1	1	1	1	0	1	-63,002114	273,895115	256,093037	0
14.01.2021	23:24:51	0	0	2,485632	2,385	71,9964	0,024	75,647	3,5	1007,5	6,4	8,6	8,3	1	1	1	1	1	1	1	1	1	0	1	-63,495419	273,827313	255,283887	0
14.01.2021	23:24:52	0	0	2,711599	2,39625	62,046	0,019	75,651	3,5	1007,42	6,4	8,6	8,3	1	1	1	1	1	1	1	1	1	0	1	-68,921776	273,909886	250,242215	0
14.01.2021	23:24:53	0	0	2,146682	2,43	57,0384	0,018	75,643	3,5	1007,46	6,3	8,5	8,3	1	1	1	1	1	1	1	1	1	0	1	-66,384778	273,875929	252,620976	0
14.01.2021	23:24:54	0	0	4,406348	2,45775	68,0148	0,011	75,655	3,5	1007,38	6,4	8,6	8,3	1	1	1	1	1	1	1	1	1	0	1	-66,384778	273,855289	252,524822	0
14.01.2021	23:24:55	0	0	2,372649	2,45325	65,844	0,021	75,663	3,5	1007,52	6,4	8,6	8,3	1	1	1	1	1	1	1	1	1	0	1	-61,804087	273,711426	256,435916	0
14.01.2021	23:24:56	0	0	3,163532	2,32725	70,632	0,021	75,65	3,5	1007,48	6,3	8,6	8,3	1	1	1	1	1	1	1	1	1	0	1	-61,028894	273,8332	257,777824	0
14.01.2021	23:24:57	0	0	4,858281	2,27325	75,618	0,024	75,654	3,5	1007,52	6,3	8,6	8,3	1	1	1	1	1	1	1	1	1	0	1	-66,314306	273,88921	252,753327	0
14.01.2021	23:24:58	0	0	2,937565	2,172	74,5416	0,015	75,632	3,5	1007,4	6,3	8,6	8,3	1	1	1	1	1	1	1	1	1	0	1	-69,344609	273,853816	249,558128	0
14.01.2021	23:24:59	0	0	4,632314	2,06475	66,5352	0,016	75,622	3,5	1007,42	6,4	8,6	8,3	1	1	1	1	1	1	1	1	1	0	1	-65,821001	273,861184	253,116059	0
14.01.2021	23:25:00	0	0	4,067398	1,99725	58,104	0,007	75,619	3,5	1007,38	6,3	8,6	8,3	1	1	1	1	1	1	1	1	1	0	1	-61,733615	273,742164	256,649363	0
14.01.2021	23:25:01	0	0	4,067398	1,99725	58,104	0,007	75,619	3,5	1007,38	6,3	8,6	8,3	1	1	1	1	1	1	1	1	1	0	1	-61,733615	273,742164	256,649363	0
14.01.2021	23:25:02	0	0	3,615465	2,07525	76,8456	0,001	75,626	3,5	1007,4	6,3	8,6	8,3	1	1	1	1	1	1	1	1	1	0	1	-66,596195	273,874454	252,402687	0
14.01.2021	23:25:03	0	0	3,728448	2,21625	75,618	0,002	75,621	3,5	1007,62	6,4	8,6	8,3	1	1	1	1	1	1	1	1	1	0	1	-62,22692	273,73777	256,135616	0
14.01.2021	23:25:04	0	0	4,858281	2,21625	71,5896	0,002	75,641	3,5	1007,4	6,4	8,5	8,3	1	1	1	1	1	1	1	1	1	0	1	-64,693446	273,771483	253,825957	0
14.01.2021	23:25:05	0	0	5,310214	2,193	68,022	0,001	75,642	3,5	1007,4	6,3	8,5	8,3	1	1	1	1	1	1	1	1	1	0	1	-67,159972	273,852343	251,735903	0
14.01.2021	23:25:06	0	0	4,180381	2,1645	70,5924	0,007	75,657	3,5	1007,54	6,4	8,5	8,3	1	1	1	1	1	1	1	1	1	0	1	-66,102889	273,717277	252,164326	0
14.01.2021	23:25:07	0	0	3,728448	2,29875	74,664	0,006	75,643	3,5	1007,32	6,4	8,6	8,3	1	1	1	1	1	1	1	1	1	0	1	-64,552502	273,85971	254,377692	0
14.01.2021	23:25:08	0	0	3,276515	2,3895	55,1808	0,003	75,641	3,5	1007,42	6,4	8,6	8,3	1	1	1	1	1	1	1	1	1	0	1	-61,522199	273,827313	257,257107	0
14.01.2021	23:25:09	0	0	2,711599	2,42175	55,9332	-0,004	75,64	3,5	1007,36	6,3	8,6	8,3	1	1	1	1	1	1	1	1	1	0	1	-63,424947	273,715814	254,835464	0
14.01.2021	23:25:10	0	0	4,745298	2,433	74,1528	-0,006	75,645	3,5	1007,36	6,3	8,6	8,3	1	1	1	1	1	1	1	1	1	0	1	-68,005638	273,805256	250,670966	0
14.01.2021	23:25:11	0	0	2,937565	2,4405	70,3044	-0,004	75,668	3,5	1007,48	6,3	8,5	8,3	1	1	1	1	1	1	1	1	1	0	1	-63,284003	273,883306	255,756122	0
14.01.2021	23:25:12	0	0	4,519331	2,42325	75,6144	-0,001	75,656	3,5	1007,36	6,4	8,6	8,3	1	1	1	1	1	1	1	1	1	0	1	-64,129669	273,77882	254,42388	0
14.01.2021	23:25:13	0	0	3,276515	2,29725	68,0184	-0,002	75,665	3,5	1007,58	6,3	8,6	8,3	1	1	1	1	1	1	1	1	1	0	1	-62,367865	273,881831	256,665384	0
14.01.2021	23:25:14	0	0	2,937565	2,232	60,534	-0,004	75,657	3,5	1007,5	6,4	8,6	8,3	1	1	1	1	1	1	1	1	1	0	1	-65,539112	273,784691	253,041765	0
14.01.2021	23:25:15	0	0	4,180381	2,23575	68,7816	-0,005	75,645	3,5	1007,32	6,3	8,6	8,3	1	1	1	1	1	1	1	1	1	0	1	-60,535588	273,872979	258,456421	0
14.01.2021	23:25:16	0	0	4,971264	2,2305	67,2552	-0,008	75,659	3,5	1007,58	6,3	8,6	8,3	1	1	1	1	1	1	1	1	1	0	1	-67,794221	273,818487	250,943987	0
14.01.2021	23:25:17	0	0	4,293365	2,14875	69,4692	-0,003	75,667	3,5	1007,36	6,4	8,5	8,3	1	1	1	1	1	1	1	1	1	0	1	-65,609584	273,85971	253,32061	0
14.01.2021	23:25:18	0	0	4,519331	1,98525	63,8676	-0,009	75,66	3,5	1007,36	6,3	8,5	8,3	1	1	1	1	1	1	1	1	1	0	1	-67,230444	273,836144	251,589983	0
14.01.2021	23:25:19	0	0	3,502482	1,92675	68,3964	-0,009	75,665	3,5	1007,56	6,4	8,5	8,3	1	1	1	1	1	1	1	1	1	0	1	-65,609584	273,749489	252,807477	0
14.01.2021	23:25:20	0	0	4,745298	2,00625	56,2788	-0,01	75,68	3,5	1007,38	6,4	8,5	8,3	1	1	1	1	1	1	1	1	1	0	1	-62,297393	273,874454	256,701489	0
14.01.2021	23:25:21	0	0	3,163532	2,15175	71,2404	-0,011	75,684	3,5	1007,4	6,4	8,5	8,3	1	1	1	1	1	1	1	1	1	0	1	-63,565891	273,805256	255,110712	0
14.01.2021	23:25:22	0	0	3,954415	2,33625	72,3888	-0,011	75,689	3,5	1007,38	6,4	8,5	8,3	1	1	1	1	1	1	1	1	1	0	1	-62,438337	273,875929	256,567417	0
14.01.2021	23:25:23	0	0	2,598615	2,4615	71,6256	-0,011	75,709	3,5	1007,42	6,4	8,5	8,3	1	1	1	1	1	1	1	1	1	0	1	-61,169838	273,818487	257,56837	0
14.01.2021	23:25:24	0	0	4,632314	2,45475	75,6036	-0,017	75,702	3,5	1007,36	6,4	8,5	8,3	1	1	1	1	1	1	1	1	1	0	1	-65,257223	273,864132	253,69357	0
14.01.2021	23:25:25	0	0	3,163532	2,478	74,5524	-0,019	75,713	3,5	1007,44	6,3	8,5	8,3	1	1	1	1	1	1	1	1	1	0	1	-67,864693	273,708501	250,361707	0
14.01.2021	23:25:26	0	0	2,937565	2,43975	67,2984	-0,016	75,707	3,5	1007,54	6,4	8,5	8,3	1	1	1	1	1	1	1	1	1	0	1	-64,693446	273,837616	254,133836	0
14.01.2021	23:25:27	0	0	2,711599	2,6025	63,1692	-0,015	75,715	3,5	1007,44	6,4	8,5	8,3	1	1	1	1	1	1	1	1	1	0	1	-63,84778	273,850869	255,041232	0
14.01.2021	23:25:28	0	0	5,084247	2,67075	75,9888	-0,013	75,7	3,5	1007,48	6,4	8,5	8,3	1	1	1	1	1	1	1	1	1	0	1	-66,102889	273,847923	252,772401	0
14.01.2021	23:25:29	0	0	4,858281	2,63325	57,744	-0,02	75,697	3,5	1007,54	6,3	8,5	8,3	1	1	1	1	1	1	1	1	1	0	1	-68,992248	273,733377	249,349852	0
14.01.2021	23:25:30	0	0	2,146682	2,8035	66,5496	-0,017	75,686	3,5	1007,44	6,4	8,6	8,3	1	1	1	1	1	1	1	1	1	0	1	-66,032417	273,865607	252,925244	0
14.01.2021	23:25:31	0	0	4,745298	2,9475	74,556	-0,019	75,687	3,5	1007,34	6,4	8,5	8,3	1	1	1	1	1	1	1	1	1	0	1	-66,948555	273,800847	251,707525	0
14.01.2021	23:25:32	0	0	4,519331	2,94825	88,11	-0,02	75,665	3,5	1007,44	6,4	8,5	8,3	1	1	1	1	1	1	1	1	1	0	1	-67,582805	273,673438	250,480563	0
14.01.2021	23:25:33	0	0	3,163532	2,844	82,9728	-0,02	75,674	3,5	1007,34	6,4	8,5	8,3	1	1	1	1	1	1	1	1	1	0	1	-64,48203	273,805256	254,194574	0
14.01.2021	23:25:34	0	0	2,372649	2,88225	95,526	-0,023	75,689	3,5	1007,44	6,4	8,5	8,3	1	1	1	1	1	1	1	1	1	0	1	-66,878083	273,670519	251,171715	0
14.01.2021	23:25:35	0	0	3,389478	2,93025	83,3796	-0,026	75,695	3,5	1007,36	6,4	8,5	8,4	1	1	1	1	1	1	1	1	1	0	1	-65,961945	273,71874	252,312075	0
14.01.2021	23:25:36	0	0	2,372649	3,07875	83,016	-0,025	75,702	3,5	1007,48	6,4	8,5	8,3	1	1	1	1	1	1	1	1	1	0	1	-65,327696	273,679278	252,76282	0
14.01.2021	23:25:37	0	0	4,745298	3,15675	75,6036	-0,033	75,704	3,5	1007,48	6,4	8,5	8,3	1	1	1	1	1	1	1	1	1	0	1	-68,217054	273,808195	250,473235	0
14.01.2021	23:25:38	0	0	4,180381	3,27375	75,6036	-0,035	75,716	3,5	1007,3	6,4	8,5	8,3	1	1	1	1	1	1	1	1	1	0	1	-66,596195	273,85971	252,334	0
14.01.2021	23:25:39	0	0	2,598615	3,39375	65,088	-0,03	75,75	3,5	1007,22	6,4	8,5	8,3	1	1	1	1	1	1	1	1	1	0	1	-63,143058	273,800847	255,513022	0
14.01.2021	23:25:40	0	0	2,485632	3,5835	70,2576	-0,03	75,757	3,5	1007,44	6,4	8,5	8,3	1	1	1	1	1	1	1	1	1	0	1	-63,495419	273,844978	255,366151	0
14.01.2021	23:25:41	0	0	4,293365	3,687	79,776	-0,027	75,772	3,5	1007,6	6,4	8,5	8,3	1	1	1	1	1	1	1	1	1	0	1	-62,86117	273,797909	255,781232	0
14.01.2021	23:25:42	0	0	4,971264	3,471	56,2932	-0,032	75,792	3,5	1007,46	6,4	8,5	8,3	1	1	1	1	1	1	1	1	1	0	1	-64,693446	273,68658	253,431017	0
14.01.2021	23:25:43	0	0	2,711599	3,37725	66,5316	-0,041	75,803	3,5	1007,5	6,4	8,5	8,3	1	1	1	1	1	1	1	1	1	0	1	-64,411557	273,75975	254,053246	0
14.01.2021	23:25:44	0	0	4,632314	3,3855	62,8128	-0,031	75,82	3,5	1007,3	6,4	8,5	8,3	1	1	1	1	1	1	1	1	1	0	1	-64,129669	273,68658	253,994794	0
14.01.2021	23:25:45	0	0	4,858281	3,4215	67,68	-0,039	75,841	3,5	1007,38	6,4	8,5	8,3	1	1	1	1	1	1	1	1	1	0	1	-64,129669	273,733377	254,212431	0
14.01.2021	23:25:46	0	0	2,146682	3,2745	61,704	-0,035	75,855	3,5	1007,48	6,4	8,5	8,3	1	1	1	1	1	1	1	1	1	0	1	-64,341085	273,712889	253,90572	0
14.01.2021	23:25:47	0	0	3,389498	2,94825	57,7476	-0,045	75,863	3,5	1007,4	6,4	8,5	8,3	1	1	1	1	1	1	1	1	1	0	1	-63,284003	273,850869	255,605009	0
14.01.2021	23:25:48	0	0	3,389498	2,70825	54,4788	-0,041	75,852	3,5	1007,54	6,4	8,5	8,3	1	1	1	1	1	1	1	1	1	0	1	-68,851304	273,775885	249,688585	0
14.01.2021	23:25:49	0	0	3,502482	2,62275	47,3832	-0,042	75,89	3,5	1007,38	6,4	8,5	8,3	1	1	1	1	1	1	1	1	1	0	1	-66,173362	273,847923	252,701929	0
14.01.2021	23:25:50	0	0	4,632342	2,3865	60,5592	-0,044	75,88	3,5	1007,36	6,4	8,5	8,2	1	1	1	1	1	1	1	1	1	0	1	-66,948555	273,755352	251,495783	0
14.01.2021	23:25:51	0	0	2,485617	2,33625	73,0584	-0,045	75,886	3,5	1007,46	6,4	8,5	8,4	1	1	1	1	1	1	1	1	1	0	1	-65,327696	273,680738	252,769608	0
14.01.2021	23:25:52	0	0	3,615465	2,38275	63,864	-0,047	75,877	3,5	1007,42	6,4	8,5	8,3	1	1	1	1	1	1	1	1	1	0	1	-67,230444	273,797909	251,411957	0
14.01.2021	23:25:53	0	0	4,406348	2,40825	64,2636	-0,046	75,898	3,5	1007,32	6,4	8,5	8,3	1	1	1	1	1	1	1	1	1	0	1	-62,720226	273,862658	256,223701	0
14.01.2021	23:25:54	0	0	3,502461	2,50275	70,704	-0,049	75,889	3,5	1007,42	6,4	8,5	8,4	1	1	1	1	1	1	1	1	1	0	1	-64,552502	273,745094	253,844108	0
14.01.2021	23:25:55	0	0	3,841431	2,52975	68,022	-0,049	75,894	3,5	1007,34	6,4	8,5	8,3	1	1	1	1	1	1	1	1	1	0	1	-66,666667	273,862658	252,27726	0
14.01.2021	23:25:56	0	0	2,711582	2,565	71,2332	-0,052	75,884	3,5	1007,52	6,4	8,5	8,4	1	1	1	1	1	1	1	1	1	0	1	-69,415081	273,728984	248,906588	0
14.01.2021	23:25:57	0	0	4,971234	2,64	67,3164	-0,051	75,904	3,5	1007,36	6,4	8,5	8,4	1	1	1	1	1	1	1	1	1	0	1	-68,005638	273,85971	250,924556	0
14.01.2021	23:25:58	0	0	2,937548	2,81925	54,5184	-0,054	75,907	3,5	1007,4	6,4	8,5	8,4	1	1	1	1	1	1	1	1	1	0	1	-70,331219	273,764149	248,154054	0
14.01.2021	23:25:59	0	0	2,711599	3,24225	51,768	-0,057	75,917	3,5	1007,48	6,4	8,5	8,3	1	1	1	1	1	1	1	1	1	0	1	-65,045807	273,842033	253,802046	0
14.01.2021	23:26:00	0	0	3,502503	3,82575	65,4768	-0,052	75,904	3,5	1007,58	6,4	8,5	8,2	1	1	1	1	1	1	1	1	1	0	1	-66,102889	273,850869	252,786123	0
14.01.2021	23:26:01	0	0	3,502503	3,82575	65,4768	-0,052	75,904	3,5	1007,58	6,4	8,5	8,2	1	1	1	1	1	1	1	1	1	0	1	-66,102889	273,850869	252,786123	0
14.01.2021	23:26:02	0	0	3,050548	3,75975	70,848	-0,056	75,913	3,5	1007,22	6,4	8,5	8,3	1	1	1	1	1	1	1	1	1	0	1	-65,539112	273,806726	253,144334	0
14.01.2021	23:26:03	0	0	4,745269	3,4635	60,246	-0,059	75,913	3,5	1007,48	6,4	8,5	8,4	1	1	1	1	1	1	1	1	1	0	1	-64,83439	273,682198	253,269702	0
14.01.2021	23:26:04	0	0	4,519304	3,10425	81,9792	-0,067	75,906	3,5	1007,26	6,4	8,5	8,4	1	1	1	1	1	1	1	1	1	0	1	-63,918252	273,793502	254,703635	0
14.01.2021	23:26:05	0	0	3,163532	2,9295	61,2936	-0,057	75,938	3,5	1007,58	6,4	8,5	8,3	1	1	1	1	1	1	1	1	1	0	1	-59,548978	273,861184	259,388082	0
14.01.2021	23:26:06	0	0	4,971234	3,0075	79,4196	-0,057	75,929	3,5	1007,4	6,4	8,5	8,4	1	1	1	1	1	1	1	1	1	0	1	-63,354475	273,695345	254,810746	0
14.01.2021	23:26:07	0	0	4,406348	3,36075	62,0532	-0,037	75,959	3,5	1007,72	6,4	8,5	8,3	1	1	1	1	1	1	1	1	1	0	1	-67,159972	273,821429	251,591933	0
14.01.2021	23:26:08	0	0	3,615465	3,64275	59,4936	-0,062	75,951	3,5	1007,52	6,4	8,5	8,3	1	1	1	1	1	1	1	1	1	0	1	-68,569415	273,707039	249,650185	0
14.01.2021	23:26:09	0	0	2,485617	3,74025	64,3284	-0,063	75,973	3,5	1007,42	6,3	8,5	8,4	1	1	1	1	1	1	1	1	1	0	1	-66,948555	273,707039	251,271045	0
14.01.2021	23:26:10	0	0	3,841431	3,8535	57,4272	-0,065	76,002	3,5	1007,52	6,4	8,5	8,3	1	1	1	1	1	1	1	1	1	0	1	-63,495419	273,673438	254,567949	0
14.01.2021	23:26:11	0	0	3,276515	3,756	65,8476	-0,064	76,018	3,5	1007,5	6,4	8,5	8,3	1	1	1	1	1	1	1	1	1	0	1	-68,639887	273,814076	250,07778	0
14.01.2021	23:26:12	0	0	3,728426	3,63375	66,2256	-0,072	76,05	3,5	1007,42	6,4	8,5	8,4	1	1	1	1	1	1	1	1	1	0	1	-63,354475	273,709964	254,878727	0
14.01.2021	23:26:13	0	0	2,372635	3,6435	67,7592	-0,068	76,075	3,5	1007,46	6,4	8,5	8,4	1	1	1	1	1	1	1	1	1	0	1	-66,596195	273,683659	251,514688	0
14.01.2021	23:26:14	0	0	3,954391	3,846	65,4804	-0,066	76,097	3,5	1007,48	6,4	8,5	8,4	1	1	1	1	1	1	1	1	1	0	1	-68,287526	273,808195	250,402763	0
14.01.2021	23:26:15	0	0	2,937565	3,957	59,1408	-0,07	76,108	3,5	1007,6	6,4	8,5	8,3	1	1	1	1	1	1	1	1	1	0	1	-62,790698	273,671979	255,265885	0
14.01.2021	23:26:16	0	0	3,05053	3,86925	62,0388	-0,067	76,117	3,5	1007,46	6,4	8,5	8,4	1	1	1	1	1	1	1	1	1	0	1	-65,46864	273,731912	252,866649	0
14.01.2021	23:26:17	0	0	2,824582	3,9735	72,0936	-0,067	76,16	3,5	1007,34	6,4	8,5	8,3	1	1	1	1	1	1	1	1	1	0	1	-67,300916	273,676358	250,776024	0
14.01.2021	23:26:18	0	0	2,937565	4,09425	66,2148	-0,075	76,201	3,5	1007,44	6,4	8,5	8,3	1	1	1	1	1	1	1	1	1	0	1	-67,300916	273,784691	251,279961	0
14.01.2021	23:26:19	0	0	4,858281	4,13175	65,1024	-0,075	76,236	3,5	1007,48	6,4	8,5	8,3	1	1	1	1	1	1	1	1	1	0	1	-64,270613	273,671979	253,78597	0
14.01.2021	23:26:20	0	0	3,728448	3,927	69,48	-0,071	76,27	3,5	1007,44	6,4	8,5	8,3	1	1	1	1	1	1	1	1	1	0	1	-68,710359	273,764149	249,774914	0
14.01.2021	23:26:21	0	0	2,824565	3,786	66,5568	-0,074	76,314	3,5	1007,42	6,4	8,5	8,4	1	1	1	1	1	1	1	1	1	0	1	-64,48203	273,682198	253,622063	0
14.01.2021	23:26:22	0	0	2,598615	3,79725	62,7876	-0,074	76,342	3,5	1007,56	6,4	8,5	8,3	1	1	1	1	1	1	1	1	1	0	1	-65,186751	273,695345	252,97847	0
14.01.2021	23:26:23	0	0	4,632287	3,65025	60,5376	-0,077	76,363	3,5	1007,6	6,4	8,5	8,4	1	1	1	1	1	1	1	1	1	0	1	-66,807611	273,683659	251,303271	0
14.01.2021	23:26:24	0	0	3,050548	3,42375	58,5036	-0,074	76,364	3,5	1007,38	6,4	8,5	8,3	1	1	1	1	1	1	1	1	1	0	1	-68,287526	273,806726	250,39592	0
14.01.2021	23:26:25	0	0	2,372649	3,29475	52,5132	-0,074	76,389	3,5	1007,44	6,4	8,5	8,3	1	1	1	1	1	1	1	1	1	0	1	-67,300916	273,843505	251,553795	0
14.01.2021	23:26:26	0	0	2,824582	3,3015	53,3376	-0,086	76,419	3,5	1007,44	6,4	8,5	8,3	1	1	1	1	1	1	1	1	1	0	1	-63,495419	273,698268	254,683393	0
14.01.2021	23:26:27	0	0	3,050548	3,29325	60,5376	-0,077	76,47	3,5	1007,52	6,4	8,5	8,3	1	1	1	1	1	1	1	1	1	0	1	-68,851304	273,731912	249,483986	0
14.01.2021	23:26:28	0	0	3,050548	3,1605	62,046	-0,071	76,491	3,5	1007,5	6,4	8,5	8,3	1	1	1	1	1	1	1	1	1	0	1	-67,723749	273,824371	251,041855	0
14.01.2021	23:26:29	0	0	3,728448	3,09525	68,4144	-0,079	76,522	3,5	1007,42	6,4	8,5	8,3	1	1	1	1	1	1	1	1	1	0	1	-67,159972	273,790565	251,448243	0
14.01.2021	23:26:30	0	0	3,728426	3,105	81,9756	-0,078	76,535	3,5	1007,5	6,4	8,5	8,4	1	1	1	1	1	1	1	1	1	0	1	-62,367865	273,690962	255,776975	0
14.01.2021	23:26:31	0	0	5,084247	3,0135	70,704	-0,077	76,532	3,5	1007,48	6,3	8,5	8,3	1	1	1	1	1	1	1	1	1	0	1	-64,059197	273,789096	254,542183	0
14.01.2021	23:26:32	0	0	3,276515	2,8245	71,964	-0,08	76,553	3,5	1007,38	6,4	8,5	8,3	1	1	1	1	1	1	1	1	1	0	1	-69,767442	273,847923	249,107848	0
14.01.2021	23:26:33	0	0	4,745298	2,90625	78,2532	-0,075	76,559	3,5	1007,44	6,4	8,5	8,3	1	1	1	1	1	1	1	1	1	0	1	-66,737139	273,789096	251,86424	0
14.01.2021	23:26:34	0	0	2,485632	3,1455	64,6272	-0,076	76,555	3,5	1007,52	6,4	8,5	8,3	1	1	1	1	1	1	1	1	1	0	1	-65,750529	273,671979	252,306054	0
14.01.2021	23:26:35	0	0	5,084247	3,17625	54,9144	-0,082	76,563	3,5	1007,44	6,4	8,5	8,3	1	1	1	1	1	1	1	1	1	0	1	-63,84778	273,805256	254,828824	0
14.01.2021	23:26:36	0	0	2,372649	3,2355	58,842	-0,079	76,564	3,5	1007,4	6,4	8,5	8,3	1	1	1	1	1	1	1	1	1	0	1	-67,230444	273,683659	250,880438	0
14.01.2021	23:26:37	0	0	2,937565	3,447	59,4828	-0,074	76,586	3,5	1007,5	6,3	8,5	8,3	1	1	1	1	1	1	1	1	1	0	1	-63,424947	273,78616	255,162763	0
14.01.2021	23:26:38	0	0	3,502461	3,48225	59,49	-0,081	76,567	3,5	1007,44	6,3	8,5	8,4	1	1	1	1	1	1	1	1	1	0	1	-64,83439	273,685119	253,283282	0
14.01.2021	23:26:39	0	0	2,824582	3,36825	57,1284	-0,08	76,552	3,5	1007,56	6,3	8,5	8,3	1	1	1	1	1	1	1	1	1	0	1	-68,992248	273,709964	249,240953	0
14.01.2021	23:26:40	0	0	2,598615	3,22875	63,4824	-0,078	76,565	3,5	1007,5	6,4	8,5	8,3	1	1	1	1	1	1	1	1	1	0	1	-63,213531	273,712889	255,033274	0
14.01.2021	23:26:41	0	0	3,276515	3,05925	52,8948	-0,078	76,552	3,5	1007,42	6,4	8,5	8,3	1	1	1	1	1	1	1	1	1	0	1	-65,891473	273,858237	253,031856	0
14.01.2021	23:26:42	0	0	3,050548	2,93325	57,7332	-0,085	76,555	3,5	1007,4	6,4	8,5	8,3	1	1	1	1	1	1	1	1	1	0	1	-68,357999	273,85971	250,572196	0
14.01.2021	23:26:43	0	0	4,858281	2,805	51,8508	-0,087	76,561	3,5	1007,16	6,3	8,5	8,3	1	1	1	1	1	1	1	1	1	0	1	-63,918252	273,827313	254,861054	0
14.01.2021	23:26:44	0	0	3,841431	2,9865	51,7248	-0,078	76,564	3,5	1007,5	6,4	8,5	8,3	1	1	1	1	1	1	1	1	1	0	1	-64,622974	273,701191	253,569432	0
14.01.2021	23:26:45	0	0	4,858281	3,198	54,1008	-0,083	76,546	3,5	1007,42	6,3	8,5	8,3	1	1	1	1	1	1	1	1	1	0	1	-65,46864	273,8332	253,338077	0
14.01.2021	23:26:46	0	0	2,598615	3,27525	43,3872	-0,077	76,546	3,5	1007,38	6,4	8,5	8,3	1	1	1	1	1	1	1	1	1	0	1	-63,424947	273,727521	254,889913	0
14.01.2021	23:26:47	0	0	2,598615	3,3075	46,584	-0,084	76,536	3,5	1007,36	6,4	8,5	8,3	1	1	1	1	1	1	1	1	1	0	1	-65,46864	273,843505	253,386072	0
14.01.2021	23:26:48	0	0	3,841431	3,10725	59,8644	-0,08	76,52	3,5	1007,4	6,4	8,5	8,3	1	1	1	1	1	1	1	1	1	0	1	-68,992248	273,805256	249,684356	0
14.01.2021	23:26:49	0	0	2,485632	2,9715	65,466	-0,083	76,519	3,5	1007,42	6,4	8,5	8,3	1	1	1	1	1	1	1	1	1	0	1	-66,45525	273,862658	252,488676	0
14.01.2021	23:26:50	0	0	4,293365	3,0135	63,4932	-0,086	76,525	3,5	1007,6	6,4	8,5	8,3	1	1	1	1	1	1	1	1	1	0	1	-61,945032	273,71874	256,328988	0
14.01.2021	23:26:51	0	0	2,824582	3,21375	67,7052	-0,085	76,508	3,5	1007,4	6,3	8,5	8,3	1	1	1	1	1	1	1	1	1	0	1	-68,07611	273,853816	250,826627	0
14.01.2021	23:26:52	0	0	5,310214	3,36	59,8428	-0,08	76,51	3,5	1007,52	6,4	8,5	8,3	1	1	1	1	1	1	1	1	1	0	1	-71,247357	273,780288	247,313023	0
14.01.2021	23:26:53	0	0	3,954415	3,54525	65,826	-0,09	76,507	3,5	1007,36	6,4	8,5	8,3	1	1	1	1	1	1	1	1	1	0	1	-67,0895	273,85971	251,840694	0
14.01.2021	23:26:54	0	0	4,971264	3,402	72,6732	-0,083	76,519	3,5	1007,46	6,4	8,5	8,3	1	1	1	1	1	1	1	1	1	0	1	-68,005638	273,821429	250,746267	0
14.01.2021	23:26:55	0	0	2,711599	3,31875	75,2364	-0,082	76,507	3,5	1007,4	6,3	8,5	8,3	1	1	1	1	1	1	1	1	1	0	1	-64,129669	273,8229	254,629085	0
14.01.2021	23:26:56	0	0	2,598615	3,1575	58,482	-0,086	76,519	3,5	1007,44	6,3	8,5	8,3	1	1	1	1	1	1	1	1	1	0	1	-67,794221	273,702653	250,404982	0
14.01.2021	23:26:57	0	0	3,389498	3,0195	61,3044	-0,089	76,529	3,5	1007,52	6,4	8,5	8,3	1	1	1	1	1	1	1	1	1	0	1	-68,357999	273,676358	249,718942	0
14.01.2021	23:26:58	0	0	2,598615	2,97525	55,9188	-0,082	76,522	3,5	1007,54	6,3	8,5	8,3	1	1	1	1	1	1	1	1	1	0	1	-61,733615	273,72313	256,560822	0
14.01.2021	23:26:59	0	0	2,711599	2,74575	55,9332	-0,083	76,513	3,5	1007,38	6,3	8,5	8,3	1	1	1	1	1	1	1	1	1	0	1	-65,891473	273,680738	252,205831	0
14.01.2021	23:27:00	0	0	3,615465	2,895	45,144	-0,092	76,532	3,5	1007,52	6,4	8,5	8,3	1	1	1	1	1	1	1	1	1	0	1	-64,693446	273,777352	253,853273	0
14.01.2021	23:27:01	0	0	3,615465	2,895	45,144	-0,092	76,532	3,5	1007,52	6,4	8,5	8,3	1	1	1	1	1	1	1	1	1	0	1	-64,693446	273,777352	253,853273	0
14.01.2021	23:27:02	0	0	4,180381	2,943	46,5984	-0,09	76,531	3,5	1007,52	6,3	8,5	8,3	1	1	1	1	1	1	1	1	1	0	1	-63,565891	273,852343	255,329983	0
14.01.2021	23:27:03	0	0	4,971264	2,9925	54,7992	-0,089	76,55	3,5	1007,46	6,3	8,5	8,3	1	1	1	1	1	1	1	1	1	0	1	-64,693446	273,733377	253,648654	0
14.01.2021	23:27:04	0	0	4,971264	2,8095	49,554	-0,084	76,562	3,5	1007,38	6,4	8,5	8,3	1	1	1	1	1	1	1	1	1	0	1	-68,639887	273,68804	249,491367	0
14.01.2021	23:27:05	0	0	2,937565	2,5995	58,4784	-0,088	76,564	3,5	1007,46	6,4	8,5	8,3	1	1	1	1	1	1	1	1	1	0	1	-66,102889	273,715814	252,157522	0
14.01.2021	23:27:06	0	0	2,711599	2,463	51,4512	-0,087	76,572	3,5	1007,48	6,3	8,6	8,3	1	1	1	1	1	1	1	1	1	0	1	-65,327696	273,836144	253,492731	0
14.01.2021	23:27:07	0	0	2,485632	2,42325	49,2012	-0,094	76,581	3,5	1007,46	6,3	8,5	8,3	1	1	1	1	1	1	1	1	1	0	1	-65,46864	273,771483	253,050764	0
14.01.2021	23:27:08	0	0	3,728448	2,4585	49,2156	-0,089	76,575	3,5	1007,44	6,3	8,5	8,3	1	1	1	1	1	1	1	1	1	0	1	-64,059197	273,66906	253,983818	0
14.01.2021	23:27:09	0	0	3,502482	2,43075	48,51	-0,087	76,599	3,5	1007,44	6,3	8,5	8,3	1	1	1	1	1	1	1	1	1	0	1	-66,596195	273,702653	251,603009	0
14.01.2021	23:27:10	0	0	2,937565	2,337	47,7468	-0,088	76,594	3,5	1007,48	6,3	8,5	8,3	1	1	1	1	1	1	1	1	1	0	1	-68,710359	273,676358	249,366581	0
14.01.2021	23:27:11	0	0	4,406348	2,22975	44,0532	-0,097	76,608	3,5	1007,36	6,4	8,4	8,3	1	1	1	1	1	1	1	1	1	0	1	-62,438337	273,715814	255,822074	0
14.01.2021	23:27:12	0	0	4,293365	2,247	53,3556	-0,096	76,625	3,5	1007,44	6,3	8,5	8,3	1	1	1	1	1	1	1	1	1	0	1	-65,398168	273,8332	253,40855	0
14.01.2021	23:27:13	0	0	2,824582	2,328	39,8844	-0,097	76,62	3,5	1007,42	6,3	8,5	8,3	1	1	1	1	1	1	1	1	1	0	1	-63,354475	273,777352	255,192244	0
14.01.2021	23:27:14	0	0	2,824582	2,34225	52,8912	-0,09	76,635	3,5	1007,38	6,3	8,5	8,3	1	1	1	1	1	1	1	1	1	0	1	-66,032417	273,831728	252,767446	0
14.01.2021	23:27:15	0	0	3,502482	2,43225	49,554	-0,093	76,628	3,5	1007,24	6,3	8,5	8,3	1	1	1	1	1	1	1	1	1	0	1	-63,495419	273,742164	254,887559	0
14.01.2021	23:27:16	0	0	3,389498	2,60025	48,4884	-0,094	76,649	3,5	1007,66	6,3	8,4	8,3	1	1	1	1	1	1	1	1	1	0	1	-64,904863	273,671979	253,15172	0
14.01.2021	23:27:17	0	0	3,050548	2,907	40,248	-0,089	76,667	3,5	1007,36	6,3	8,4	8,3	1	1	1	1	1	1	1	1	1	0	1	-66,243834	273,702653	251,95537	0
14.01.2021	23:27:18	0	0	2,485632	3,23325	56,6712	-0,101	76,657	3,5	1007,22	6,3	8,5	8,3	1	1	1	1	1	1	1	1	1	0	1	-66,45525	273,828785	252,330908	0
14.01.2021	23:27:19	0	0	4,180381	3,3345	57,5028	-0,095	76,681	3,5	1007,46	6,3	8,4	8,3	1	1	1	1	1	1	1	1	1	0	1	-65,398168	273,728984	252,923502	0
14.01.2021	23:27:20	0	0	2,937565	3,27825	69,1632	-0,097	76,68	3,5	1007,18	6,3	8,4	8,3	1	1	1	1	1	1	1	1	1	0	1	-66,525722	273,812606	252,1851	0
14.01.2021	23:27:21	0	0	5,310214	3,06825	66,9096	-0,1	76,685	3,5	1007,44	6,3	8,4	8,3	1	1	1	1	1	1	1	1	1	0	1	-68,146582	273,77295	250,379649	0
14.01.2021	23:27:22	0	0	4,406348	2,73075	62,4348	-0,101	76,695	3,5	1007,32	6,3	8,5	8,3	1	1	1	1	1	1	1	1	1	0	1	-68,005638	273,828785	250,78052	0
14.01.2021	23:27:23	0	0	4,067398	2,54625	54,8892	-0,096	76,711	3,5	1007,54	6,3	8,6	8,3	1	1	1	1	1	1	1	1	1	0	1	-62,579281	273,794971	256,049444	0
14.01.2021	23:27:24	0	0	3,728448	2,427	54,1008	-0,097	76,711	3,5	1007,32	6,3	8,5	8,3	1	1	1	1	1	1	1	1	1	0	1	-66,525722	273,667601	251,510509	0
14.01.2021	23:27:25	0	0	3,954415	2,41425	57,0456	-0,096	76,708	3,5	1007,46	6,3	8,5	8,3	1	1	1	1	1	1	1	1	1	0	1	-68,357999	273,787628	250,236546	0
14.01.2021	23:27:26	0	0	2,711599	2,56425	63,486	-0,092	76,721	3,5	1007,52	6,3	8,5	8,3	1	1	1	1	1	1	1	1	1	0	1	-64,83439	273,789096	253,766989	0
14.01.2021	23:27:27	0	0	4,745298	2,58375	48,1176	-0,098	76,727	3,5	1007,4	6,3	8,5	8,3	1	1	1	1	1	1	1	1	1	0	1	-71,317829	273,781755	247,249382	0
14.01.2021	23:27:28	0	0	3,163532	2,538	48,5172	-0,095	76,698	3,5	1007,36	6,3	8,5	8,3	1	1	1	1	1	1	1	1	1	0	1	-65,46864	273,671979	252,587943	0
14.01.2021	23:27:29	0	0	3,841431	2,5245	49,968	-0,093	76,714	3,5	1007,38	6,3	8,4	8,3	1	1	1	1	1	1	1	1	1	0	1	-65,327696	273,775885	253,212193	0
14.01.2021	23:27:30	0	0	3,728448	2,4975	53,7444	-0,097	76,709	3,5	1007,42	6,3	8,5	8,3	1	1	1	1	1	1	1	1	1	0	1	-65,257223	273,825842	253,515231	0
14.01.2021	23:27:31	0	0	4,858281	2,3715	51,0624	-0,102	76,711	3,5	1007,44	6,3	8,4	8,3	1	1	1	1	1	1	1	1	1	0	1	-63,706836	273,742164	254,676143	0
14.01.2021	23:27:32	0	0	3,615465	2,2305	51,0624	-0,095	76,714	3,5	1007,5	6,3	8,5	8,3	1	1	1	1	1	1	1	1	1	0	1	-65,257223	273,632612	252,616394	0
14.01.2021	23:27:33	0	0	4,745298	2,04825	47,7504	-0,101	76,716	3,5	1007,36	6,3	8,5	8,3	1	1	1	1	1	1	1	1	1	0	1	-67,019027	273,693884	251,139399	0
14.01.2021	23:27:34	0	0	2,937565	1,86675	45,1476	-0,095	76,713	3,5	1007,28	6,3	8,6	8,3	1	1	1	1	1	1	1	1	1	0	1	-60,2537	273,626787	257,59285	0
14.01.2021	23:27:35	0	0	5,197231	1,8165	46,9872	-0,092	76,711	3,5	1007,38	6,3	8,5	8,3	1	1	1	1	1	1	1	1	1	0	1	-62,297393	273,695345	255,867829	0
14.01.2021	23:27:36	0	0	2,711599	1,8015	42,6096	-0,094	76,719	3,5	1007,5	6,3	8,4	8,3	1	1	1	1	1	1	1	1	1	0	1	-62,297393	273,635525	255,589762	0
14.01.2021	23:27:37	0	0	3,728448	1,80525	45,5508	-0,102	76,703	3,5	1007,36	6,3	8,5	8,3	1	1	1	1	1	1	1	1	1	0	1	-69,344609	273,761216	249,127017	0
14.01.2021	23:27:38	0	0	4,406348	1,88625	47,376	-0,103	76,711	3,5	1007,3	6,3	8,5	8,3	1	1	1	1	1	1	1	1	1	0	1	-65,116279	273,800847	253,539801	0
14.01.2021	23:27:39	0	0	4,519331	2,42175	43,308	-0,103	76,704	3,5	1007,44	6,3	8,5	8,3	1	1	1	1	1	1	1	1	1	0	1	-65,398168	273,69973	252,787441	0
14.01.2021	23:27:40	0	0	2,711599	3,1275	36,9468	-0,106	76,697	3,5	1007,44	6,3	8,5	8,3	1	1	1	1	1	1	1	1	1	0	1	-63,143058	273,802317	255,519862	0
14.01.2021	23:27:41	0	0	2,372649	3,26925	39,5532	-0,101	76,696	3,5	1007,42	6,3	8,5	8,3	1	1	1	1	1	1	1	1	1	0	1	-68,005638	273,707039	250,213963	0
14.01.2021	23:27:42	0	0	3,954415	3,2655	28,746	-0,095	76,697	3,5	1007,5	6,3	8,6	8,3	1	1	1	1	1	1	1	1	1	0	1	-62,579281	273,610777	255,192884	0
14.01.2021	23:27:43	0	0	4,632314	3,777	56,2824	-0,102	76,694	3,5	1007,36	6,3	8,5	8,3	1	1	1	1	1	1	1	1	1	0	1	-64,48203	273,695345	253,683192	0
14.01.2021	23:27:44	0	0	3,615465	4,09125	48,8196	-0,104	76,68	3,5	1007,52	6,3	8,5	8,3	1	1	1	1	1	1	1	1	1	0	1	-65,961945	273,775885	252,577944	0
14.01.2021	23:27:45	0	0	2,824582	4,47525	51,7644	-0,1	76,695	3,5	1007,36	6,3	8,5	8,3	1	1	1	1	1	1	1	1	1	0	1	-67,935166	273,811135	250,768811	0
14.01.2021	23:27:46	0	0	4,745298	4,69125	61,326	-0,103	76,681	3,5	1007,32	6,3	8,5	8,3	1	1	1	1	1	1	1	1	1	0	1	-66,525722	273,767082	251,973201	0
14.01.2021	23:27:47	0	0	3,389498	4,06575	58,4892	-0,108	76,678	3,5	1007,3	6,3	8,5	8,3	1	1	1	1	1	1	1	1	1	0	1	-68,921776	273,771483	249,597628	0
14.01.2021	23:27:48	0	0	3,389519	3,8115	61,326	-0,103	76,684	3,5	1007,36	6,3	8,5	8,2	1	1	1	1	1	1	1	1	1	0	1	-64,975335	273,664683	253,047331	0
14.01.2021	23:27:49	0	0	2,598615	3,4485	78,2892	-0,102	76,707	3,5	1007,42	6,3	8,5	8,3	1	1	1	1	1	1	1	1	1	0	1	-63,636364	273,607867	254,122285	0
14.01.2021	23:27:50	0	0	3,615465	3,05475	76,842	-0,103	76,725	3,5	1007,54	6,3	8,5	8,3	1	1	1	1	1	1	1	1	1	0	1	-63,424947	273,736305	254,930777	0
14.01.2021	23:27:51	0	0	4,632314	3,05175	60,2604	-0,11	76,739	3,5	1007,44	6,3	8,5	8,3	1	1	1	1	1	1	1	1	1	0	1	-63,424947	273,619508	254,387782	0
14.01.2021	23:27:52	0	0	3,841431	3,012	97,3332	-0,103	76,761	3,5	1007,4	6,3	8,5	8,3	1	1	1	1	1	1	1	1	1	0	1	-66,596195	273,666142	251,433254	0
14.01.2021	23:27:53	0	0	4,519331	2,73675	60,2496	-0,107	76,763	3,5	1007,48	6,3	8,5	8,3	1	1	1	1	1	1	1	1	1	0	1	-64,48203	273,616597	253,317176	0
14.01.2021	23:27:54	0	0	4,406348	2,68275	77,5944	-0,112	76,742	3,5	1007,48	6,3	8,5	8,3	1	1	1	1	1	1	1	1	1	0	1	-63,988724	273,679278	254,101791	0
14.01.2021	23:27:55	0	0	2,259679	2,79	64,3392	-0,108	76,747	3,5	1007,44	6,3	8,5	8,2	1	1	1	1	1	1	1	1	1	0	1	-68,569415	273,774418	249,963645	0
14.01.2021	23:27:56	0	0	4,067398	2,9985	45,5328	-0,115	76,712	3,5	1007,36	6,3	8,5	8,3	1	1	1	1	1	1	1	1	1	0	1	-68,639887	273,71874	249,634132	0
14.01.2021	23:27:57	0	0	4,519358	3,291	52,5096	-0,11	76,71	3,5	1007,38	6,3	8,5	8,2	1	1	1	1	1	1	1	1	1	0	1	-64,693446	273,613686	253,092238	0
14.01.2021	23:27:58	0	0	4,745298	3,231	46,62	-0,103	76,684	3,5	1007,42	6,3	8,5	8,3	1	1	1	1	1	1	1	1	1	0	1	-65,539112	273,720203	252,741713	0
14.01.2021	23:27:59	0	0	4,745326	3,1245	55,9476	-0,112	76,669	3,5	1007,48	6,3	8,5	8,2	1	1	1	1	1	1	1	1	1	0	1	-63,988724	273,599141	253,72939	0
14.01.2021	23:28:00	0	0	2,937565	3,12	63,5004	-0,105	76,647	3,5	1007,52	6,3	8,5	8,3	1	1	1	1	1	1	1	1	1	0	1	-65,46864	273,635525	252,418515	0
14.01.2021	23:28:01	0	0	2,937565	3,12	63,5004	-0,105	76,647	3,5	1007,52	6,3	8,5	8,3	1	1	1	1	1	1	1	1	1	0	1	-67,371388	273,612231	250,407536	0
14.01.2021	23:28:02	0	0	2,485632	3,183	83,358	-0,109	76,633	3,5	1007,46	6,3	8,5	8,3	1	1	1	1	1	1	1	1	1	0	1	-65,045807	273,72313	253,24863	0
14.01.2021	23:28:03	0	0	4,406348	3,087	99,9072	-0,112	76,606	3,5	1007,42	6,3	8,5	8,3	1	1	1	1	1	1	1	1	1	0	1	-67,653277	273,774418	250,879783	0
14.01.2021	23:28:04	0	0	2,711599	2,742	99,5112	-0,113	76,586	3,5	1007,54	6,3	8,5	8,3	1	1	1	1	1	1	1	1	1	0	1	-71,388302	273,650098	246,566578	0
14.01.2021	23:28:05	0	0	3,615465	2,43375	86,292	-0,108	76,583	3,5	1007,42	6,3	8,5	8,3	1	1	1	1	1	1	1	1	1	0	1	-65,46864	273,626787	252,37791	0
14.01.2021	23:28:06	0	0	3,276515	2,28825	85,1724	-0,112	76,564	3,5	1007,38	6,4	8,5	8,3	1	1	1	1	1	1	1	1	1	0	1	-67,159972	273,629699	250,70011	0
14.01.2021	23:28:07	0	0	3,728471	2,2275	82,6056	-0,106	76,555	3,5	1007,5	6,3	8,5	8,2	1	1	1	1	1	1	1	1	1	0	1	-67,794221	273,770016	250,718355	0
14.01.2021	23:28:08	0	0	3,954438	2,1555	68,8176	-0,116	76,536	3,5	1007,5	6,3	8,5	8,2	1	1	1	1	1	1	1	1	1	0	1	-65,961945	273,677818	252,121782	0
14.01.2021	23:28:09	0	0	3,841454	2,1435	64,638	-0,113	76,541	3,5	1007,58	6,3	8,5	8,2	1	1	1	1	1	1	1	1	1	0	1	-65,891473	273,764149	252,593801	0
14.01.2021	23:28:10	0	0	4,067398	2,12475	72,7848	-0,118	76,503	3,5	1007,44	6,4	8,5	8,3	1	1	1	1	1	1	1	1	1	0	1	-67,794221	273,641353	250,120016	0
14.01.2021	23:28:11	0	0	2,824582	2,0715	60,5412	-0,119	76,504	3,5	1007,4	6,4	8,5	8,3	1	1	1	1	1	1	1	1	1	0	1	-64,975335	273,762683	253,503115	0
14.01.2021	23:28:12	0	0	4,406374	2,142	64,26	-0,116	76,489	3,5	1007,32	6,2	8,5	8,2	1	1	1	1	1	1	1	1	1	0	1	-64,48203	273,726057	253,826022	0
14.01.2021	23:28:13	0	0	3,954438	2,13	54,8172	-0,119	76,464	3,5	1007,46	6,4	8,5	8,2	1	1	1	1	1	1	1	1	1	0	1	-68,851304	273,591872	248,833049	0
14.01.2021	23:28:14	0	0	2,711615	2,1525	65,8584	-0,125	76,445	3,5	1007,36	6,2	8,5	8,2	1	1	1	1	1	1	1	1	1	0	1	-62,579281	273,638439	255,321414	0
14.01.2021	23:28:15	0	0	4,29339	2,187	62,4204	-0,12	76,454	3,5	1007,4	6,4	8,5	8,2	1	1	1	1	1	1	1	1	1	0	1	-62,22692	273,748024	256,183323	0
14.01.2021	23:28:16	0	0	5,084247	2,274	60,9408	-0,125	76,455	3,5	1007,4	6,4	8,5	8,3	1	1	1	1	1	1	1	1	1	0	1	-65,327696	273,739234	253,041654	0
14.01.2021	23:28:17	0	0	5,084247	2,36175	65,088	-0,123	76,466	3,5	1007,44	6,3	8,5	8,3	1	1	1	1	1	1	1	1	1	0	1	-65,609584	273,707039	252,610016	0
14.01.2021	23:28:18	0	0	2,824599	2,409	63,8784	-0,125	76,469	3,5	1007,42	6,3	8,5	8,2	1	1	1	1	1	1	1	1	1	0	1	-68,217054	273,731912	250,118235	0
14.01.2021	23:28:19	0	0	2,598631	2,4075	59,868	-0,12	76,472	3,5	1007,48	6,3	8,5	8,2	1	1	1	1	1	1	1	1	1	0	1	-61,87456	273,749489	256,542502	0
14.01.2021	23:28:20	0	0	3,389498	2,43075	61,3044	-0,124	76,485	3,5	1007,48	6,3	8,5	8,3	1	1	1	1	1	1	1	1	1	0	1	-63,213531	273,708501	255,01287	0
14.01.2021	23:28:21	0	0	3,954438	2,48175	68,4	-0,125	76,465	3,5	1007,26	6,3	8,5	8,2	1	1	1	1	1	1	1	1	1	0	1	-62,86117	273,607867	254,897479	0
14.01.2021	23:28:22	0	0	2,598615	2,7	68,3856	-0,129	76,466	3,5	1007,5	6,3	8,5	8,3	1	1	1	1	1	1	1	1	1	0	1	-65,680056	273,586059	251,977299	0
14.01.2021	23:28:23	0	0	2,372663	2,8605	66,24	-0,127	76,465	3,5	1007,52	6,3	8,5	8,2	1	1	1	1	1	1	1	1	1	0	1	-65,750529	273,586059	251,906827	0
14.01.2021	23:28:24	0	0	2,711615	3,08925	67,3092	-0,132	76,442	3,5	1007,5	6,3	8,5	8,2	1	1	1	1	1	1	1	1	1	0	1	-63,002114	273,71874	255,271906	0
14.01.2021	23:28:25	0	0	2,937583	3,16875	55,1952	-0,13	76,474	3,5	1007,4	6,3	8,5	8,2	1	1	1	1	1	1	1	1	1	0	1	-65,891473	273,578796	251,732148	0
14.01.2021	23:28:26	0	0	2,824582	3,18375	58,104	-0,134	76,478	3,5	1007,38	6,3	8,5	8,3	1	1	1	1	1	1	1	1	1	0	1	-66,173362	273,728984	252,148308	0
14.01.2021	23:28:27	0	0	2,937583	3,2055	60,9516	-0,129	76,474	3,5	1007,5	6,3	8,5	8,2	1	1	1	1	1	1	1	1	1	0	1	-67,794221	273,661765	250,214882	0
14.01.2021	23:28:28	0	0	3,276535	3,07575	54,1188	-0,135	76,486	3,5	1007,5	6,3	8,5	8,2	1	1	1	1	1	1	1	1	1	0	1	-68,992248	273,750955	249,431632	0
14.01.2021	23:28:29	0	0	4,29339	2,793	61,3188	-0,134	76,493	3,5	1007,4	6,3	8,5	8,2	1	1	1	1	1	1	1	1	1	0	1	-66,102889	273,655931	251,879097	0
14.01.2021	23:28:30	0	0	4,632342	2,58	59,1084	-0,132	76,468	3,5	1007,36	6,3	8,5	8,2	1	1	1	1	1	1	1	1	1	0	1	-63,143058	273,55557	254,372718	0
14.01.2021	23:28:31	0	0	3,389519	2,583	65,0844	-0,137	76,476	3,5	1007,4	6,3	8,3	8,2	1	1	1	1	1	1	1	1	1	0	1	-66,737139	273,629699	251,122943	0
14.01.2021	23:28:32	0	0	4,971294	2,58975	63,1584	-0,141	76,474	3,5	1007,36	6,3	8,5	8,2	1	1	1	1	1	1	1	1	1	0	1	-64,270613	273,736305	254,085111	0
14.01.2021	23:28:33	0	0	4,971294	2,62575	59,8716	-0,135	76,478	3,5	1007,42	6,3	8,5	8,2	1	1	1	1	1	1	1	1	1	0	1	-64,904863	273,635525	252,982292	0
14.01.2021	23:28:34	0	0	4,519358	2,7735	74,5236	-0,138	76,466	3,5	1007,36	6,3	8,5	8,2	1	1	1	1	1	1	1	1	1	0	1	-65,116279	273,736305	253,239445	0
14.01.2021	23:28:35	0	0	4,519358	3,141	57,726	-0,144	76,468	3,5	1007,48	6,3	8,3	8,2	1	1	1	1	1	1	1	1	1	0	1	-61,733615	273,712889	256,51319	0
14.01.2021	23:28:36	0	0	4,067422	3,666	68,1156	-0,139	76,475	3,5	1007,28	6,3	8,5	8,2	1	1	1	1	1	1	1	1	1	0	1	-68,217054	273,742164	250,165924	0
14.01.2021	23:28:37	0	0	4,971294	3,77025	65,0772	-0,148	76,456	3,5	1007,3	6,3	8,4	8,2	1	1	1	1	1	1	1	1	1	0	1	-64,904863	273,616597	252,894343	0
14.01.2021	23:28:38	0	0	2,598631	3,64575	58,8564	-0,142	76,458	3,5	1007,48	6,3	8,5	8,2	1	1	1	1	1	1	1	1	1	0	1	-65,609584	273,545418	251,85906	0
14.01.2021	23:28:39	0	0	3,615487	3,47475	57,834	-0,142	76,457	3,5	1007,52	6,3	8,5	8,2	1	1	1	1	1	1	1	1	1	0	1	-63,002114	273,674898	255,06804	0
14.01.2021	23:28:40	0	0	3,615487	3,612	57,0312	-0,145	76,466	3,5	1007,24	6,3	8,3	8,2	1	1	1	1	1	1	1	1	1	0	1	-67,723749	273,73777	250,638787	0
14.01.2021	23:28:41	0	0	4,745326	3,48825	70,2288	-0,144	76,496	3,5	1007,3	6,3	8,3	8,2	1	1	1	1	1	1	1	1	1	0	1	-64,129669	273,623875	253,703351	0
14.01.2021	23:28:42	0	0	2,711615	3,40275	47,7468	-0,145	76,498	3,5	1007,48	6,3	8,4	8,2	1	1	1	1	1	1	1	1	1	0	1	-66,032417	273,727521	252,282443	0
14.01.2021	23:28:43	0	0	4,180406	3,60825	62,8164	-0,155	76,495	3,5	1007,38	6,3	8,4	8,2	1	1	1	1	1	1	1	1	1	0	1	-65,680056	273,625331	252,159728	0
14.01.2021	23:28:44	0	0	2,937583	3,915	58,8744	-0,145	76,528	3,5	1007,38	6,3	8,4	8,2	1	1	1	1	1	1	1	1	1	0	1	-66,173362	273,549768	251,315479	0
14.01.2021	23:28:45	0	0	3,163551	4,16175	69,8688	-0,152	76,549	3,5	1007,48	6,3	8,5	8,2	1	1	1	1	1	1	1	1	1	0	1	-63,143058	273,666142	254,88639	0
14.01.2021	23:28:46	0	0	3,163532	4,25775	69,156	-0,148	76,566	3,5	1007,7	6,3	8,4	8,3	1	1	1	1	1	1	1	1	1	0	1	-63,777308	273,717277	254,489907	0
14.01.2021	23:28:47	0	0	3,389498	4,284	71,9856	-0,15	76,608	3,5	1007,4	6,3	8,4	8,3	1	1	1	1	1	1	1	1	1	0	1	-65,680056	273,631156	252,186793	0
14.01.2021	23:28:48	0	0	3,502503	3,92325	73,44	-0,148	76,617	3,5	1007,64	6,3	8,5	8,2	1	1	1	1	1	1	1	1	1	0	1	-68,07611	273,712889	250,170695	0
14.01.2021	23:28:49	0	0	2,485632	3,62175	65,4624	-0,157	76,625	3,5	1007,4	6,3	8,4	8,3	1	1	1	1	1	1	1	1	1	0	1	-62,86117	273,607867	254,897479	0
14.01.2021	23:28:50	0	0	2,711599	3,41475	62,4348	-0,153	76,656	3,5	1007,32	6,3	8,4	8,3	1	1	1	1	1	1	1	1	1	0	1	-62,790698	273,730448	255,537781	0
14.01.2021	23:28:51	0	0	2,372649	3,33375	65,8548	-0,159	76,665	3,5	1007,44	6,3	8,4	8,3	1	1	1	1	1	1	1	1	1	0	1	-65,46864	273,551219	252,026934	0
14.01.2021	23:28:52	0	0	3,050548	3,2625	69,4764	-0,152	76,691	3,5	1007,5	6,3	8,4	8,3	1	1	1	1	1	1	1	1	1	0	1	-65,609584	273,596233	252,095024	0
14.01.2021	23:28:53	0	0	5,084247	3,13275	68,4252	-0,154	76,725	3,5	1007,48	6,3	8,5	8,3	1	1	1	1	1	1	1	1	1	0	1	-63,143058	273,580248	254,487308	0
14.01.2021	23:28:54	0	0	3,163551	3,162	71,6868	-0,158	76,758	3,5	1007,48	6,3	8,4	8,2	1	1	1	1	1	1	1	1	1	0	1	-66,173362	273,727521	252,141499	0
14.01.2021	23:28:55	0	0	2,937565	3,315	74,178	-0,156	76,793	3,5	1007,58	6,3	8,4	8,3	1	1	1	1	1	1	1	1	1	0	1	-66,737139	273,619508	251,075591	0
14.01.2021	23:28:56	0	0	2,937565	3,2445	73,0476	-0,151	76,832	3,5	1007,7	6,3	8,4	8,3	1	1	1	1	1	1	1	1	1	0	1	-64,763918	273,561374	252,778805	0
14.01.2021	23:28:57	0	0	3,163532	3,20025	81,2124	-0,154	76,875	3,5	1007,54	6,3	8,4	8,3	1	1	1	1	1	1	1	1	1	0	1	-65,327696	273,609322	252,437711	0
14.01.2021	23:28:58	0	0	2,485632	3,21525	80,2476	-0,16	76,875	3,5	1007,42	6,3	8,4	8,3	1	1	1	1	1	1	1	1	1	0	1	-64,622974	273,578796	253,000647	0
14.01.2021	23:28:59	0	0	3,276535	3,31575	79,0704	-0,157	76,922	3,5	1007,44	6,3	8,4	8,2	1	1	1	1	1	1	1	1	1	0	1	-68,146582	273,653014	249,82185	0
14.01.2021	23:29:00	0	0	4,180406	3,2025	74,9304	-0,156	77,009	3,5	1007,48	6,3	8,4	8,2	1	1	1	1	1	1	1	1	1	0	1	-60,747005	273,635525	257,14015	0
14.01.2021	23:29:01	0	0	4,745298	3,1365	66,5496	-0,154	77,041	3,5	1007,44	6,3	8,4	8,3	1	1	1	1	1	1	1	1	1	0	1	-60,747005	273,635525	257,14015	0
14.01.2021	23:29:02	0	0	4,745298	3,1365	66,5496	-0,154	77,041	3,5	1007,44	6,3	8,4	8,3	1	1	1	1	1	1	1	1	1	0	1	-68,217054	273,571535	249,372849	0
14.01.2021	23:29:03	0	0	4,858281	3,11175	61,2972	-0,161	77,059	3,5	1007,48	6,3	8,4	8,3	1	1	1	1	1	1	1	1	1	0	1	-64,552502	273,709964	253,6807	0
14.01.2021	23:29:04	0	0	2,711599	3,09825	68,7672	-0,159	77,091	3,5	1007,44	6,3	8,4	8,3	1	1	1	1	1	1	1	1	1	0	1	-67,723749	273,749489	250,693312	0
14.01.2021	23:29:05	0	0	3,276515	3,0795	71,9568	-0,162	77,129	3,5	1007,52	6,3	8,4	8,3	1	1	1	1	1	1	1	1	1	0	1	-70,472163	273,638439	247,428531	0
14.01.2021	23:29:06	0	0	2,937565	2,9895	59,8608	-0,157	77,155	3,5	1007,46	6,3	8,4	8,3	1	1	1	1	1	1	1	1	1	0	1	-71,035941	273,745094	247,360669	0
14.01.2021	23:29:07	0	0	4,858281	2,82525	66,9024	-0,158	77,206	3,5	1007,4	6,3	8,4	8,3	1	1	1	1	1	1	1	1	1	0	1	-66,243834	273,658848	251,75171	0
14.01.2021	23:29:08	0	0	4,632314	2,6445	64,6416	-0,158	77,229	3,5	1007,44	6,3	8,4	8,3	1	1	1	1	1	1	1	1	1	0	1	-69,908386	273,746559	248,49504	0
14.01.2021	23:29:09	0	0	3,954415	2,55825	63,8712	-0,16	77,281	3,5	1007,32	6,3	8,4	8,3	1	1	1	1	1	1	1	1	1	0	1	-68,569415	273,685119	249,548257	0
14.01.2021	23:29:10	0	0	4,745298	2,469	45,54	-0,158	77,316	3,5	1007,4	6,3	8,4	8,3	1	1	1	1	1	1	1	1	1	0	1	-67,300916	273,572987	250,295729	0
14.01.2021	23:29:11	0	0	4,971294	2,3985	51,7572	-0,16	77,326	3,5	1007,52	6,3	8,4	8,2	1	1	1	1	1	1	1	1	1	0	1	-60,2537	273,676358	257,823241	0
14.01.2021	23:29:12	0	0	2,598615	2,229	52,8948	-0,161	77,349	3,5	1007,54	6,3	8,4	8,3	1	1	1	1	1	1	1	1	1	0	1	-67,371388	273,764149	251,113885	0
14.01.2021	23:29:13	0	0	4,519331	2,0745	57,4488	-0,161	77,361	3,5	1007,4	6,3	8,4	8,3	1	1	1	1	1	1	1	1	1	0	1	-69,344609	273,602049	248,387015	0
14.01.2021	23:29:14	0	0	4,406348	1,95225	53,7048	-0,154	77,385	3,5	1007,44	6,3	8,4	8,3	1	1	1	1	1	1	1	1	1	0	1	-63,706836	273,753886	254,730682	0
14.01.2021	23:29:15	0	0	2,372649	1,878	54,108	-0,156	77,39	3,5	1007,28	6,3	8,4	8,3	1	1	1	1	1	1	1	1	1	0	1	-65,46864	273,642811	252,452369	0
14.01.2021	23:29:16	0	0	3,841431	1,8675	56,6928	-0,151	77,406	3,5	1007,44	6,3	8,4	8,3	1	1	1	1	1	1	1	1	1	0	1	-62,22692	273,742164	256,156058	0
14.01.2021	23:29:17	0	0	4,745326	1,839	57,7404	-0,155	77,409	3,5	1007,42	6,3	8,4	8,2	1	1	1	1	1	1	1	1	1	0	1	-67,019027	273,619508	250,793702	0
14.01.2021	23:29:18	0	0	2,824599	1,809	55,188	-0,156	77,413	3,5	1007,6	6,3	8,4	8,2	1	1	1	1	1	1	1	1	1	0	1	-64,904863	273,745094	253,491747	0
14.01.2021	23:29:19	0	0	4,971264	1,78125	49,9572	-0,161	77,409	3,5	1007,46	6,3	8,4	8,3	1	1	1	1	1	1	1	1	1	0	1	-63,84778	273,68658	254,276683	0
14.01.2021	23:29:20	0	0	4,406348	1,836	61,686	-0,152	77,409	3,5	1007,48	6,3	8,4	8,3	1	1	1	1	1	1	1	1	1	0	1	-63,84778	273,575891	253,762352	0
14.01.2021	23:29:21	0	0	3,389498	1,82475	47,3544	-0,15	77,401	3,5	1007,44	6,3	8,4	8,3	1	1	1	1	1	1	1	1	1	0	1	-65,539112	273,645725	252,395443	0
14.01.2021	23:29:22	0	0	3,728448	1,905	57,4272	-0,156	77,394	3,5	1007,46	6,3	8,4	8,3	1	1	1	1	1	1	1	1	1	0	1	-64,200141	273,761216	254,271485	0
14.01.2021	23:29:23	0	0	4,519331	1,92675	60,2424	-0,16	77,371	3,5	1007,4	6,3	8,4	8,3	1	1	1	1	1	1	1	1	1	0	1	-67,371388	273,622419	250,454867	0
14.01.2021	23:29:24	0	0	4,406348	1,9305	65,1024	-0,154	77,362	3,5	1007,46	6,3	8,4	8,3	1	1	1	1	1	1	1	1	1	0	1	-65,539112	273,750955	252,884768	0
14.01.2021	23:29:25	0	0	3,276515	1,93275	59,8464	-0,161	77,353	3,5	1007,34	6,2	8,4	8,3	1	1	1	1	1	1	1	1	1	0	1	-66,878083	273,610777	250,894082	0
14.01.2021	23:29:26	0	0	2,824582	1,88625	66,582	-0,154	77,345	3,5	1007,52	6,3	8,4	8,3	1	1	1	1	1	1	1	1	1	0	1	-67,864693	273,597687	249,846668	0
14.01.2021	23:29:27	0	0	3,841431	1,91325	60,5484	-0,149	77,331	3,5	1007,58	6,3	8,4	8,3	1	1	1	1	1	1	1	1	1	0	1	-68,639887	273,695345	249,525334	0
14.01.2021	23:29:28	0	0	4,29339	1,96575	61,7004	-0,15	77,316	3,5	1007,38	6,3	8,4	8,2	1	1	1	1	1	1	1	1	1	0	1	-62,720226	273,753886	255,717293	0
14.01.2021	23:29:29	0	0	3,502482	1,95375	64,242	-0,152	77,314	3,5	1007,34	6,3	8,4	8,3	1	1	1	1	1	1	1	1	1	0	1	-63,84778	273,708501	254,378621	0
14.01.2021	23:29:30	0	0	2,372649	1,9665	59,8716	-0,154	77,314	3,5	1007,58	6,3	8,4	8,3	1	1	1	1	1	1	1	1	1	0	1	-68,498943	273,638439	249,401752	0
14.01.2021	23:29:31	0	0	4,293365	2,019	58,1148	-0,151	77,313	3,5	1007,46	6,3	8,4	8,3	1	1	1	1	1	1	1	1	1	0	1	-64,059197	273,600595	253,665672	0
14.01.2021	23:29:32	0	0	2,146682	2,0325	65,8656	-0,151	77,31	3,5	1007,26	6,3	8,4	8,3	1	1	1	1	1	1	1	1	1	0	1	-63,706836	273,600595	254,018033	0
14.01.2021	23:29:33	0	0	3,954415	2,05425	62,7984	-0,153	77,297	3,5	1007,56	6,3	8,4	8,3	1	1	1	1	1	1	1	1	1	0	1	-67,653277	273,609322	250,11213	0
14.01.2021	23:29:34	0	0	5,197231	2,031	59,1984	-0,151	77,278	3,5	1007,4	6,3	8,4	8,3	1	1	1	1	1	1	1	1	1	0	1	-67,935166	273,580248	249,695201	0
14.01.2021	23:29:35	0	0	5,084278	1,998	54,1044	-0,15	77,271	3,5	1007,4	6,3	8,4	8,2	1	1	1	1	1	1	1	1	1	0	1	-65,680056	273,720203	252,600769	0
14.01.2021	23:29:36	0	0	4,745326	2,0085	59,1084	-0,154	77,253	3,5	1007,44	6,3	8,4	8,2	1	1	1	1	1	1	1	1	1	0	1	-63,988724	273,746559	254,414702	0
14.01.2021	23:29:37	0	0	3,050567	1,92375	60,5484	-0,15	77,257	3,5	1007,44	6,3	8,4	8,2	1	1	1	1	1	1	1	1	1	0	1	-62,931642	273,625331	254,908142	0
14.01.2021	23:29:38	0	0	2,711615	1,953	55,1736	-0,146	77,261	3,5	1007,56	6,3	8,4	8,2	1	1	1	1	1	1	1	1	1	0	1	-66,525722	273,717277	251,741493	0
14.01.2021	23:29:39	0	0	4,406348	2,019	58,4928	-0,153	77,243	3,5	1007,38	6,3	8,4	8,3	1	1	1	1	1	1	1	1	1	0	1	-66,878083	273,721667	251,409548	0
14.01.2021	23:29:40	0	0	2,824582	2,03925	56,6604	-0,153	77,238	3,5	1007,48	6,3	8,4	8,3	1	1	1	1	1	1	1	1	1	0	1	-66,525722	273,733377	251,816378	0
14.01.2021	23:29:41	0	0	4,745326	2,01975	58,8636	-0,15	77,238	3,5	1007,44	6,3	8,4	8,2	1	1	1	1	1	1	1	1	1	0	1	-66,807611	273,72313	251,486826	0
14.01.2021	23:29:42	0	0	2,937565	2,00325	55,5552	-0,155	77,238	3,5	1007,46	6,3	8,4	8,3	1	1	1	1	1	1	1	1	1	0	1	-66,384778	273,724593	251,916466	0
14.01.2021	23:29:43	0	0	2,711599	2,1045	57,0276	-0,154	77,227	3,5	1007,52	6,3	8,4	8,3	1	1	1	1	1	1	1	1	1	0	1	-62,790698	273,607867	254,967951	0
14.01.2021	23:29:44	0	0	2,824582	2,09475	57,744	-0,152	77,22	3,5	1007,44	6,3	8,4	8,3	1	1	1	1	1	1	1	1	1	0	1	-62,790698	273,75242	255,640001	0
14.01.2021	23:29:45	0	0	2,937583	2,18625	59,1048	-0,15	77,233	3,5	1007,3	6,3	8,4	8,2	1	1	1	1	1	1	1	1	1	0	1	-65,46864	273,603503	252,269739	0
14.01.2021	23:29:46	0	0	4,519358	2,2425	59,85	-0,148	77,231	3,5	1007,52	6,3	8,4	8,2	1	1	1	1	1	1	1	1	1	0	1	-61,945032	273,600595	255,779837	0
14.01.2021	23:29:47	0	0	4,745326	2,256	71,9928	-0,151	77,211	3,5	1007,4	6,3	8,4	8,2	1	1	1	1	1	1	1	1	1	0	1	-65,821001	273,71874	252,453019	0
14.01.2021	23:29:48	0	0	4,632314	2,2545	65,0808	-0,153	77,21	3,5	1007,48	6,3	8,4	8,3	1	1	1	1	1	1	1	1	1	0	1	-66,596195	273,618052	251,209773	0
14.01.2021	23:29:49	0	0	2,824599	2,26875	65,0916	-0,154	77,203	3,5	1007,42	6,2	8,4	8,2	1	1	1	1	1	1	1	1	1	0	1	-65,539112	273,574439	252,064276	0
14.01.2021	23:29:50	0	0	3,954438	2,169	55,5696	-0,152	77,219	3,5	1007,5	6,3	8,4	8,2	1	1	1	1	1	1	1	1	1	0	1	-63,84778	273,689501	254,290267	0
14.01.2021	23:29:51	0	0	4,971264	2,15325	66,5316	-0,154	77,211	3,5	1007,52	6,3	8,4	8,3	1	1	1	1	1	1	1	1	1	0	1	-67,230444	273,55557	250,285333	0
14.01.2021	23:29:52	0	0	2,824582	2,0205	54,7992	-0,156	77,208	3,5	1007,5	6,3	8,5	8,3	1	1	1	1	1	1	1	1	1	0	1	-65,045807	273,660306	252,956517	0
14.01.2021	23:29:53	0	0	4,180406	1,93125	57,4128	-0,157	77,228	3,5	1007,56	6,3	8,4	8,2	1	1	1	1	1	1	1	1	1	0	1	-65,327696	273,539619	252,11403	0
14.01.2021	23:29:54	0	0	3,163551	1,8375	57,0312	-0,149	77,215	3,5	1007,36	6,3	8,4	8,2	1	1	1	1	1	1	1	1	1	0	1	-63,213531	273,692423	254,938102	0
14.01.2021	23:29:55	0	0	3,615487	1,81725	57,0456	-0,149	77,218	3,5	1007,5	6,2	8,4	8,2	1	1	1	1	1	1	1	1	1	0	1	-67,512333	273,73777	250,850204	0
14.01.2021	23:29:56	0	0	2,711615	1,8405	55,9296	-0,151	77,215	3,5	1007,56	6,3	8,4	8,2	1	1	1	1	1	1	1	1	1	0	1	-61,381254	273,607867	256,377395	0
14.01.2021	23:29:57	0	0	4,067398	1,8645	51,75	-0,156	77,195	3,5	1007,46	6,2	8,4	8,3	1	1	1	1	1	1	1	1	1	0	1	-65,750529	273,709964	252,482673	0
14.01.2021	23:29:58	0	0	2,598631	1,83375	50,31	-0,152	77,266	3,5	1007,52	6,3	8,4	8,2	1	1	1	1	1	1	1	1	1	0	1	-67,935166	273,708501	250,291235	0
14.01.2021	23:29:59	0	0	4,519358	1,9755	60,9336	-0,153	77,206	3,5	1007,38	6,2	8,4	8,2	1	1	1	1	1	1	1	1	1	0	1	-63,918252	273,720203	254,362573	0
14.01.2021	23:30:00	0	0	4,85831	2,145	41,8536	-0,154	77,183	3,5	1007,46	6,3	8,4	8,2	1	1	1	1	1	1	1	1	1	0	1	-65,609584	273,664683	252,413082	0
14.01.2021	23:30:01	0	0	4,85831	2,145	41,8536	-0,154	77,183	3,5	1007,46	6,3	8,4	8,2	1	1	1	1	1	1	1	1	1	0	1	-65,609584	273,664683	252,413082	0
14.01.2021	23:30:02	0	0	2,937583	2,256	49,2156	-0,153	77,18	3,5	1007,48	6,2	8,4	8,2	1	1	1	1	1	1	1	1	1	0	1	-71,176885	273,543968	246,285029	0
14.01.2021	23:30:03	0	0	4,067422	2,31825	52,8984	-0,161	77,163	3,5	1007,28	6,2	8,4	8,2	1	1	1	1	1	1	1	1	1	0	1	-63,424947	273,693884	254,73348	0
14.01.2021	23:30:04	0	0	3,163551	2,31075	55,9368	-0,153	77,172	3,5	1007,44	6,2	8,4	8,2	1	1	1	1	1	1	1	1	1	0	1	-60,817477	273,68804	257,313777	0
14.01.2021	23:30:05	0	0	4,745326	2,304	57,726	-0,157	77,161	3,5	1007,54	6,3	8,4	8,2	1	1	1	1	1	1	1	1	1	0	1	-67,44186	273,728984	250,879809	0
14.01.2021	23:30:06	0	0	3,728471	2,364	62,4312	-0,157	77,165	3,5	1007,64	6,3	8,5	8,2	1	1	1	1	1	1	1	1	1	0	1	-65,891473	273,702653	252,307731	0
14.01.2021	23:30:07	0	0	4,519358	2,40075	60,2496	-0,161	77,167	3,5	1007,52	6,3	8,4	8,2	1	1	1	1	1	1	1	1	1	0	1	-66,525722	273,588966	251,145131	0
14.01.2021	23:30:08	0	0	3,615487	2,49975	59,8644	-0,152	77,18	3,5	1007,42	6,2	8,4	8,2	1	1	1	1	1	1	1	1	1	0	1	-66,384778	273,655931	251,597209	0
14.01.2021	23:30:09	0	0	2,711615	2,53875	54,7956	-0,156	77,178	3,5	1007,42	6,2	8,5	8,2	1	1	1	1	1	1	1	1	1	0	1	-68,428471	273,71874	249,845549	0
14.01.2021	23:30:10	0	0	4,632342	2,5785	54,7956	-0,15	77,189	3,5	1007,6	6,2	8,4	8,2	1	1	1	1	1	1	1	1	1	0	1	-65,257223	273,648641	252,690881	0
14.01.2021	23:30:11	0	0	4,745326	2,49375	57,1104	-0,154	77,192	3,5	1007,42	6,2	8,5	8,2	1	1	1	1	1	1	1	1	1	0	1	-65,46864	273,721667	252,818991	0
14.01.2021	23:30:12	0	0	3,389519	2,39625	48,816	-0,161	77,202	3,5	1007,44	6,2	8,5	8,2	1	1	1	1	1	1	1	1	1	0	1	-65,045807	273,603503	252,692572	0
14.01.2021	23:30:13	0	0	4,971294	2,30325	50,2956	-0,156	77,211	3,5	1007,42	6,2	8,4	8,2	1	1	1	1	1	1	1	1	1	0	1	-63,002114	273,712889	255,244691	0
14.01.2021	23:30:14	0	0	3,050567	2,292	51,4476	-0,153	77,226	3,5	1007,42	6,2	8,5	8,2	1	1	1	1	1	1	1	1	1	0	1	-64,48203	273,620963	253,337463	0
14.01.2021	23:30:15	0	0	5,310246	2,21475	45,864	-0,159	77,225	3,5	1007,42	6,2	8,4	8,2	1	1	1	1	1	1	1	1	1	0	1	-65,186751	273,692423	252,964881	0
14.01.2021	23:30:16	0	0	4,632342	2,16975	40,6188	-0,156	77,232	3,5	1007,44	6,2	8,5	8,2	1	1	1	1	1	1	1	1	1	0	1	-67,582805	273,535271	249,838738	0
14.01.2021	23:30:17	0	0	4,745326	2,09625	54,7992	-0,159	77,228	3,5	1007,44	6,2	8,5	8,2	1	1	1	1	1	1	1	1	1	0	1	-69,06272	273,606412	248,689172	0
14.01.2021	23:30:18	0	0	3,502503	2,1225	45,1368	-0,153	77,234	3,5	1007,46	6,2	8,3	8,2	1	1	1	1	1	1	1	1	1	0	1	-63,565891	273,546868	253,909485	0
14.01.2021	23:30:19	0	0	2,485647	2,376	37,7964	-0,154	77,244	3,5	1007,38	6,2	8,4	8,2	1	1	1	1	1	1	1	1	1	0	1	-67,019027	273,618052	250,78694	0
14.01.2021	23:30:20	0	0	2,711615	2,54325	48,1104	-0,152	77,244	3,5	1007,4	6,2	8,3	8,2	1	1	1	1	1	1	1	1	1	0	1	-66,032417	273,528027	251,355499	0
14.01.2021	23:30:21	0	0	4,85831	2,4345	47,3868	-0,158	77,239	3,5	1007,46	6,2	8,3	8,2	1	1	1	1	1	1	1	1	1	0	1	-64,411557	273,644268	253,516225	0
14.01.2021	23:30:22	0	0	4,632342	2,39475	60,5664	-0,153	77,238	3,5	1007,46	6,2	8,4	8,2	1	1	1	1	1	1	1	1	1	0	1	-67,300916	273,529475	250,093724	0
14.01.2021	23:30:23	0	0	4,180406	2,35875	58,4892	-0,155	77,24	3,5	1007,48	6,3	8,5	8,2	1	1	1	1	1	1	1	1	1	0	1	-62,649753	273,68804	255,481501	0
14.01.2021	23:30:24	0	0	4,632342	2,46	49,9716	-0,154	77,243	3,5	1007,38	6,2	8,5	8,2	1	1	1	1	1	1	1	1	1	0	1	-66,948555	273,698268	251,230257	0
14.01.2021	23:30:25	0	0	4,067422	2,53425	44,4024	-0,159	77,244	3,5	1007,48	6,2	8,3	8,2	1	1	1	1	1	1	1	1	1	0	1	-63,002114	273,541069	254,44634	0
14.01.2021	23:30:26	0	0	4,745326	2,61975	39,1824	-0,156	77,261	3,5	1007,46	6,2	8,3	8,2	1	1	1	1	1	1	1	1	1	0	1	-64,059197	273,528027	253,32872	0
14.01.2021	23:30:27	0	0	2,485647	2,5965	39,5676	-0,168	77,241	3,5	1007,5	6,2	8,5	8,2	1	1	1	1	1	1	1	1	1	0	1	-69,978858	273,528027	247,409058	0
14.01.2021	23:30:28	0	0	3,163551	2,52975	48,1356	-0,162	77,263	3,5	1007,46	6,2	8,5	8,2	1	1	1	1	1	1	1	1	1	0	1	-64,763918	273,581701	252,873195	0
14.01.2021	23:30:29	0	0	4,067422	2,4705	61,7904	-0,16	77,246	3,5	1007,32	6,2	8,3	8,2	1	1	1	1	1	1	1	1	1	0	1	-66,878083	273,702653	251,32112	0
14.01.2021	23:30:30	0	0	3,276535	2,54625	54,504	-0,154	77,251	3,5	1007,36	6,2	8,5	8,2	1	1	1	1	1	1	1	1	1	0	1	-71,458774	273,625331	246,381011	0
14.01.2021	23:30:31	0	0	2,937583	2,5905	48,132	-0,158	77,253	3,5	1007,38	6,2	8,3	8,2	1	1	1	1	1	1	1	1	1	0	1	-65,46864	273,532373	251,93945	0
14.01.2021	23:30:32	0	0	4,29339	2,68575	53,7408	-0,162	77,241	3,5	1007,4	6,2	8,3	8,2	1	1	1	1	1	1	1	1	1	0	1	-65,327696	273,674898	252,742458	0
14.01.2021	23:30:33	0	0	2,824599	2,5665	49,95	-0,163	77,242	3,5	1007,5	6,2	8,3	8,2	1	1	1	1	1	1	1	1	1	0	1	-67,300916	273,584606	250,349691	0
14.01.2021	23:30:34	0	0	4,632342	2,56725	56,682	-0,157	77,257	3,5	1007,46	6,2	8,3	8,2	1	1	1	1	1	1	1	1	1	0	1	-66,525722	273,69973	251,659886	0
14.01.2021	23:30:35	0	0	5,084278	2,7015	43,6752	-0,167	77,261	3,5	1007,22	6,2	8,5	8,2	1	1	1	1	1	1	1	1	1	0	1	-69,344609	273,580248	248,285758	0
14.01.2021	23:30:36	0	0	3,050567	2,70825	46,9728	-0,159	77,278	3,5	1007,32	6,2	8,3	8,2	1	1	1	1	1	1	1	1	1	0	1	-63,354475	273,642811	254,566534	0
14.01.2021	23:30:37	0	0	4,29339	2,739	25,7976	-0,167	77,29	3,5	1007,36	6,2	8,5	8,2	1	1	1	1	1	1	1	1	1	0	1	-64,200141	273,539619	253,241584	0
14.01.2021	23:30:38	0	0	4,519358	3,29775	62,7984	-0,159	77,309	3,5	1007,48	6,2	8,3	8,2	1	1	1	1	1	1	1	1	1	0	1	-66,032417	273,510651	251,274859	0
14.01.2021	23:30:39	0	0	4,745326	3,46425	55,926	-0,161	77,311	3,5	1007,42	6,2	8,5	8,2	1	1	1	1	1	1	1	1	1	0	1	-66,666667	273,593326	251,024438	0
14.01.2021	23:30:40	0	0	2,598631	3,49575	61,0344	-0,157	77,314	3,5	1007,46	6,2	8,3	8,2	1	1	1	1	1	1	1	1	1	0	1	-65,257223	273,501969	252,009766	0
14.01.2021	23:30:41	0	0	3,502503	3,726	61,7148	-0,163	77,301	3,5	1007,48	6,2	8,5	8,2	1	1	1	1	1	1	1	1	1	0	1	-64,48203	273,603503	253,25635	0
14.01.2021	23:30:42	0	0	4,180406	3,6525	65,4552	-0,164	77,305	3,5	1007,34	6,2	8,3	8,2	1	1	1	1	1	1	1	1	1	0	1	-61,310782	273,685119	256,80689	0
14.01.2021	23:30:43	0	0	3,954438	3,56925	61,686	-0,164	77,289	3,5	1007,54	6,2	8,5	8,2	1	1	1	1	1	1	1	1	1	0	1	-65,327696	273,532373	252,080395	0
14.01.2021	23:30:44	0	0	2,937583	3,55725	61,326	-0,165	77,278	3,5	1007,38	6,2	8,3	8,2	1	1	1	1	1	1	1	1	1	0	1	-65,609584	273,594779	252,088272	0
14.01.2021	23:30:45	0	0	2,598631	3,48525	58,8744	-0,161	77,278	3,5	1007,54	6,3	8,3	8,2	1	1	1	1	1	1	1	1	1	0	1	-60,042283	273,512098	257,27171	0
14.01.2021	23:30:46	0	0	4,067422	3,5295	62,424	-0,162	77,267	3,5	1007,44	6,3	8,3	8,2	1	1	1	1	1	1	1	1	1	0	1	-64,270613	273,648641	253,677491	0
14.01.2021	23:30:47	0	0	4,519358	3,45975	63,5004	-0,166	77,259	3,5	1007,24	6,2	8,3	8,2	1	1	1	1	1	1	1	1	1	0	1	-64,129669	273,516441	253,204478	0
14.01.2021	23:30:48	0	0	2,598631	3,22725	71,6112	-0,16	77,257	3,5	1007,6	6,2	8,3	8,2	1	1	1	1	1	1	1	1	1	0	1	-67,159972	273,494737	250,073462	0
14.01.2021	23:30:49	0	0	4,180406	3,033	70,218	-0,161	77,254	3,5	1007,7	6,3	8,5	8,2	1	1	1	1	1	1	1	1	1	0	1	-68,146582	273,607867	249,612067	0
14.01.2021	23:30:50	0	0	4,29339	2,883	71,2332	-0,165	77,24	3,5	1007,42	6,2	8,3	8,2	1	1	1	1	1	1	1	1	1	0	1	-63,988724	273,674898	254,081429	0
14.01.2021	23:30:51	0	0	3,728471	2,877	63,8892	-0,162	77,259	3,5	1007,34	6,3	8,3	8,2	1	1	1	1	1	1	1	1	1	0	1	-61,522199	273,613686	256,263486	0
14.01.2021	23:30:52	0	0	2,824599	2,84775	69,84	-0,167	77,238	3,5	1007,34	6,2	8,3	8,2	1	1	1	1	1	1	1	1	1	0	1	-65,257223	273,680738	252,84008	0
14.01.2021	23:30:53	0	0	3,841454	2,72325	67,7016	-0,164	77,246	3,5	1007,42	6,3	8,3	8,2	1	1	1	1	1	1	1	1	1	0	1	-63,354475	273,529475	254,040165	0
14.01.2021	23:30:54	0	0	4,85831	2,69775	70,8588	-0,162	77,244	3,5	1007,34	6,2	8,3	8,2	1	1	1	1	1	1	1	1	1	0	1	-62,790698	273,532373	254,617393	0
14.01.2021	23:30:55	0	0	4,632342	2,82525	79,0452	-0,166	77,254	3,5	1007,44	6,3	8,3	8,2	1	1	1	1	1	1	1	1	1	0	1	-61,522199	273,488953	255,684402	0
14.01.2021	23:30:56	0	0	3,050567	2,8485	63,8784	-0,165	77,267	3,5	1007,2	6,3	8,3	8,2	1	1	1	1	1	1	1	1	1	0	1	-63,988724	273,529475	253,405916	0
14.01.2021	23:30:57	0	0	3,841454	2,7525	58,4892	-0,167	77,288	3,5	1007,42	6,3	8,3	8,2	1	1	1	1	1	1	1	1	1	0	1	-65,257223	273,529475	252,137417	0
14.01.2021	23:30:58	0	0	3,389519	2,74875	73,7712	-0,166	77,27	3,5	1007,42	6,3	8,3	8,2	1	1	1	1	1	1	1	1	1	0	1	-65,821001	273,548318	251,661107	0
14.01.2021	23:30:59	0	0	4,180406	2,832	62,1252	-0,166	77,274	3,5	1007,42	6,3	8,3	8,2	1	1	1	1	1	1	1	1	1	0	1	-65,891473	273,493291	251,335252	0
14.01.2021	23:31:00	0	0	4,29339	2,64525	57,3768	-0,162	77,273	3,5	1007,5	6,3	8,3	8,2	1	1	1	1	1	1	1	1	1	0	1	-70,68358	273,517889	246,657286	0
14.01.2021	23:31:01	0	0	4,29339	2,64525	57,3768	-0,162	77,273	3,5	1007,5	6,3	8,3	8,2	1	1	1	1	1	1	1	1	1	0	1	-70,68358	273,517889	246,657286	0
14.01.2021	23:31:02	0	0	3,728471	2,43075	69,1704	-0,162	77,276	3,5	1007,34	6,3	8,3	8,2	1	1	1	1	1	1	1	1	1	0	1	-65,398168	273,618052	252,407799	0
14.01.2021	23:31:03	0	0	4,519358	2,136	59,112	-0,162	77,293	3,5	1007,32	6,3	8,3	8,2	1	1	1	1	1	1	1	1	1	0	1	-63,565891	273,510651	253,741385	0
14.01.2021	23:31:04	0	0	4,180406	2,03925	61,3188	-0,173	77,26	3,5	1007,34	6,3	8,3	8,2	1	1	1	1	1	1	1	1	1	0	1	-62,790698	273,626787	255,055852	0
14.01.2021	23:31:05	0	0	4,29339	2,106	59,4936	-0,17	77,284	3,5	1007,4	6,3	8,3	8,2	1	1	1	1	1	1	1	1	1	0	1	-62,790698	273,650098	255,164182	0
14.01.2021	23:31:06	0	0	2,598631	2,094	66,5496	-0,168	77,295	3,5	1007,38	6,2	8,3	8,2	1	1	1	1	1	1	1	1	1	0	1	-65,539112	273,650098	252,415767	0
14.01.2021	23:31:07	0	0	2,372663	2,145	60,9444	-0,168	77,306	3,5	1007,5	6,3	8,3	8,2	1	1	1	1	1	1	1	1	1	0	1	-60,817477	273,587513	256,846627	0
14.01.2021	23:31:08	0	0	2,824599	2,32725	60,2496	-0,167	77,342	3,5	1007,44	6,3	8,3	8,2	1	1	1	1	1	1	1	1	1	0	1	-63,988724	273,653014	253,979707	0
14.01.2021	23:31:09	0	0	3,16357	2,45325	67,6836	-0,176	77,339	3,5	1007,4	6,2	8,3	8,1	1	1	1	1	1	1	1	1	1	0	1	-61,169838	273,623875	256,663182	0
14.01.2021	23:31:10	0	0	2,824616	2,47125	61,3116	-0,169	77,349	3,5	1007,48	6,2	8,3	8,1	1	1	1	1	1	1	1	1	1	0	1	-66,807611	273,526578	250,573582	0
14.01.2021	23:31:11	0	0	4,971324	2,48475	59,8824	-0,164	77,355	3,5	1007,44	6,2	8,3	8,1	1	1	1	1	1	1	1	1	1	0	1	-66,525722	273,631156	251,341127	0
14.01.2021	23:31:12	0	0	2,711615	2,41725	60,5772	-0,168	77,369	3,5	1007,34	6,2	8,3	8,2	1	1	1	1	1	1	1	1	1	0	1	-64,763918	273,602049	252,967705	0
14.01.2021	23:31:13	0	0	2,937583	2,3745	65,0592	-0,169	77,362	3,5	1007,26	6,3	8,3	8,2	1	1	1	1	1	1	1	1	1	0	1	-64,622974	273,471613	252,503185	0
14.01.2021	23:31:14	0	0	2,824616	2,3475	62,0532	-0,173	77,377	3,5	1007,38	6,2	8,3	8,1	1	1	1	1	1	1	1	1	1	0	1	-63,002114	273,594779	254,695742	0
14.01.2021	23:31:15	0	0	4,85831	2,2845	61,6968	-0,174	77,373	3,5	1007,36	6,2	8,3	8,2	1	1	1	1	1	1	1	1	1	0	1	-65,327696	273,651556	252,63396	0
14.01.2021	23:31:16	0	0	3,615508	2,28	61,3188	-0,169	77,397	3,5	1007,48	6,2	8,3	8,1	1	1	1	1	1	1	1	1	1	0	1	-61,945032	273,496183	255,295112	0
14.01.2021	23:31:17	0	0	4,067422	2,1375	66,3048	-0,172	77,383	3,5	1007,38	6,2	8,3	8,2	1	1	1	1	1	1	1	1	1	0	1	-63,777308	273,655931	254,204679	0
14.01.2021	23:31:18	0	0	3,841478	2,09025	56,6568	-0,168	77,395	3,5	1007,4	6,2	8,4	8,1	1	1	1	1	1	1	1	1	1	0	1	-63,777308	273,586059	253,880047	0
14.01.2021	23:31:19	0	0	3,502503	2,091	49,1868	-0,173	77,419	3,5	1007,38	6,2	8,3	8,2	1	1	1	1	1	1	1	1	1	0	1	-65,609584	273,488953	251,597017	0
14.01.2021	23:31:20	0	0	3,050567	2,1285	62,0532	-0,17	77,416	3,5	1007,36	6,3	8,3	8,2	1	1	1	1	1	1	1	1	1	0	1	-60,112755	273,520785	257,24155	0
14.01.2021	23:31:21	0	0	4,519358	2,196	54,8424	-0,175	77,419	3,5	1007,38	6,2	8,3	8,2	1	1	1	1	1	1	1	1	1	0	1	-64,411557	273,641353	253,50268	0
14.01.2021	23:31:22	0	0	3,615487	2,29875	55,53	-0,171	77,438	3,5	1007,48	6,2	8,3	8,2	1	1	1	1	1	1	1	1	1	0	1	-63,988724	273,510651	253,318552	0
14.01.2021	23:31:23	0	0	5,197262	2,3835	57,4344	-0,166	77,421	3,5	1007,34	6,3	8,4	8,2	1	1	1	1	1	1	1	1	1	0	1	-64,693446	273,519337	252,654139	0
14.01.2021	23:31:24	0	0	4,63237	2,5155	50,6916	-0,175	77,417	3,5	1007,5	6,2	8,4	8,1	1	1	1	1	1	1	1	1	1	0	1	-63,84778	273,465836	253,251585	0
14.01.2021	23:31:25	0	0	2,824599	2,9625	49,2048	-0,173	77,428	3,5	1007,44	6,2	8,3	8,2	1	1	1	1	1	1	1	1	1	0	1	-65,539112	273,487508	251,660782	0
14.01.2021	23:31:26	0	0	4,180431	3,4575	50,292	-0,166	77,436	3,5	1007,6	6,2	8,3	8,1	1	1	1	1	1	1	1	1	1	0	1	-62,297393	273,520785	255,056913	0
14.01.2021	23:31:27	0	0	3,841478	3,3375	51,444	-0,174	77,407	3,5	1007,38	6,2	8,3	8,1	1	1	1	1	1	1	1	1	1	0	1	-66,45525	273,618052	251,350717	0
14.01.2021	23:31:28	0	0	3,050585	3,17025	53,7228	-0,171	77,412	3,5	1007,4	6,2	8,4	8,1	1	1	1	1	1	1	1	1	1	0	1	-61,522199	273,522233	255,838828	0
14.01.2021	23:31:29	0	0	2,146708	3,10575	49,5612	-0,172	77,408	3,5	1007,38	6,2	8,4	8,1	1	1	1	1	1	1	1	1	1	0	1	-62,22692	273,452845	254,812193	0
14.01.2021	23:31:30	0	0	3,16357	3,23175	60,5412	-0,172	77,423	3,5	1007,36	6,2	8,4	8,1	1	1	1	1	1	1	1	1	1	0	1	-65,46864	273,591872	252,215713	0
14.01.2021	23:31:31	0	0	5,197293	3,49275	62,4276	-0,173	77,426	3,5	1007,5	6,2	8,3	8,1	1	1	1	1	1	1	1	1	1	0	1	-64,341085	273,625331	253,498699	0
14.01.2021	23:31:32	0	0	4,85831	3,75225	62,478	-0,169	77,44	3,5	1007,44	6,2	8,4	8,2	1	1	1	1	1	1	1	1	1	0	1	-65,609584	273,522233	251,751442	0
14.01.2021	23:31:33	0	0	3,954462	3,88875	66,5172	-0,169	77,455	3,5	1007,48	6,2	8,3	8,1	1	1	1	1	1	1	1	1	1	0	1	-67,0895	273,480281	250,076869	0
14.01.2021	23:31:34	0	0	3,615508	3,7935	66,546	-0,172	77,459	3,5	1007,44	6,2	8,4	8,1	1	1	1	1	1	1	1	1	1	0	1	-62,015504	273,606412	255,736388	0
14.01.2021	23:31:35	0	0	3,389539	3,56025	62,4168	-0,169	77,462	3,5	1007,42	6,2	8,4	8,1	1	1	1	1	1	1	1	1	1	0	1	-62,579281	273,468724	254,53348	0
14.01.2021	23:31:36	0	0	5,084278	3,3825	53,7444	-0,171	77,459	3,5	1007,46	6,2	8,4	8,2	1	1	1	1	1	1	1	1	1	0	1	-63,84778	273,523681	253,519968	0
14.01.2021	23:31:37	0	0	3,16357	3,2295	58,8636	-0,168	77,448	3,5	1007,32	6,2	8,4	8,1	1	1	1	1	1	1	1	1	1	0	1	-67,019027	273,461505	250,060248	0
14.01.2021	23:31:38	0	0	3,276554	3,156	49,572	-0,17	77,473	3,5	1007,52	6,2	8,4	8,1	1	1	1	1	1	1	1	1	1	0	1	-65,116279	273,559923	252,419707	0
14.01.2021	23:31:39	0	0	4,858339	2,9895	47,7576	-0,169	77,465	3,5	1007,46	6,2	8,3	8,1	1	1	1	1	1	1	1	1	1	0	1	-66,384778	273,452845	250,654335	0
14.01.2021	23:31:40	0	0	4,29339	2,88225	45,8424	-0,171	77,463	3,5	1007,46	6,2	8,4	8,2	1	1	1	1	1	1	1	1	1	0	1	-63,002114	273,535271	254,419428	0
14.01.2021	23:31:41	0	0	2,937583	2,69475	44,784	-0,169	77,477	3,5	1007,46	6,2	8,4	8,2	1	1	1	1	1	1	1	1	1	0	1	-65,609584	273,629699	252,250498	0
14.01.2021	23:31:42	0	0	4,85831	2,45175	59,112	-0,178	77,472	3,5	1007,52	6,2	8,4	8,2	1	1	1	1	1	1	1	1	1	0	1	-63,706836	273,519337	253,64075	0
14.01.2021	23:31:43	0	0	4,632342	2,2965	47,0016	-0,171	77,47	3,5	1007,36	6,2	8,4	8,2	1	1	1	1	1	1	1	1	1	0	1	-66,525722	273,460061	250,546858	0
14.01.2021	23:31:44	0	0	3,050567	2,26575	54,4824	-0,168	77,472	3,5	1007,5	6,2	8,4	8,2	1	1	1	1	1	1	1	1	1	0	1	-64,552502	273,618052	253,253465	0
14.01.2021	23:31:45	0	0	3,615487	2,241	50,6952	-0,172	77,476	3,5	1007,44	6,2	8,4	8,2	1	1	1	1	1	1	1	1	1	0	1	-66,314306	273,622419	251,51195	0
14.01.2021	23:31:46	0	0	4,632342	2,26575	55,1952	-0,171	77,48	3,5	1007,4	6,2	8,3	8,2	1	1	1	1	1	1	1	1	1	0	1	-67,159972	273,577343	250,456905	0
14.01.2021	23:31:47	0	0	4,180406	2,21625	62,0352	-0,171	77,48	3,5	1007,48	6,2	8,4	8,2	1	1	1	1	1	1	1	1	1	0	1	-62,156448	273,619508	255,656281	0
14.01.2021	23:31:48	0	0	2,824599	2,2065	62,8164	-0,174	77,464	3,5	1007,46	6,2	8,4	8,2	1	1	1	1	1	1	1	1	1	0	1	-64,552502	273,513546	252,768209	0
14.01.2021	23:31:49	0	0	3,276535	2,05275	60,552	-0,172	77,47	3,5	1007,4	6,2	8,4	8,2	1	1	1	1	1	1	1	1	1	0	1	-66,243834	273,606412	251,508058	0
14.01.2021	23:31:50	0	0	4,180406	1,95675	74,178	-0,178	77,455	3,5	1007,48	6,2	8,4	8,2	1	1	1	1	1	1	1	1	1	0	1	-63,143058	273,464392	253,949609	0
14.01.2021	23:31:51	0	0	4,067422	1,902	80,5104	-0,174	77,471	3,5	1007,3	6,2	8,3	8,2	1	1	1	1	1	1	1	1	1	0	1	-62,579281	273,487508	254,620613	0
14.01.2021	23:31:52	0	0	4,745326	1,89525	73,0476	-0,178	77,462	3,5	1007,46	6,2	8,4	8,2	1	1	1	1	1	1	1	1	1	0	1	-66,807611	273,562825	250,74185	0
14.01.2021	23:31:53	0	0	4,406374	1,90875	74,9052	-0,171	77,454	3,5	1007,36	6,2	8,4	8,2	1	1	1	1	1	1	1	1	1	0	1	-62,015504	273,447074	254,996847	0
14.01.2021	23:31:54	0	0	3,389519	1,92675	74,6208	-0,172	77,445	3,5	1007,32	6,2	8,3	8,2	1	1	1	1	1	1	1	1	1	0	1	-65,961945	273,597687	251,749416	0
14.01.2021	23:31:55	0	0	2,711615	2,06925	76,842	-0,174	77,424	3,5	1007,3	6,2	8,4	8,2	1	1	1	1	1	1	1	1	1	0	1	-66,314306	273,623875	251,518714	0
14.01.2021	23:31:56	0	0	3,050567	2,3535	72,0108	-0,169	77,409	3,5	1007,52	6,2	8,4	8,2	1	1	1	1	1	1	1	1	1	0	1	-66,666667	273,596233	251,037942	0
14.01.2021	23:31:57	0	0	4,067422	2,58075	73,458	-0,172	77,401	3,5	1007,54	6,2	8,4	8,2	1	1	1	1	1	1	1	1	1	0	1	-64,975335	273,600595	252,749534	0
14.01.2021	23:31:58	0	0	2,711615	2,8125	68,7924	-0,18	77,39	3,5	1007,4	6,2	8,3	8,2	1	1	1	1	1	1	1	1	1	0	1	-61,381254	273,561374	256,161469	0
14.01.2021	23:31:59	0	0	2,824599	3,03	70,2036	-0,18	77,384	3,5	1007,38	6,2	8,3	8,2	1	1	1	1	1	1	1	1	1	0	1	-64,552502	273,622419	253,273754	0
14.01.2021	23:32:00	0	0	3,050567	2,97675	60,6384	-0,178	77,382	3,5	1007,42	6,2	8,3	8,2	1	1	1	1	1	1	1	1	1	0	1	-66,45525	273,496183	250,784894	0
14.01.2021	23:32:01	0	0	3,050567	2,97675	60,6384	-0,178	77,382	3,5	1007,42	6,2	8,3	8,2	1	1	1	1	1	1	1	1	1	0	1	-66,45525	273,496183	250,784894	0
14.01.2021	23:32:02	0	0	3,502503	2,967	73,6452	-0,175	77,366	3,5	1007,38	6,2	8,3	8,2	1	1	1	1	1	1	1	1	1	0	1	-64,48203	273,604958	253,263106	0
14.01.2021	23:32:03	0	0	2,598631	3,09825	79,0308	-0,179	77,365	3,5	1007,56	6,2	8,3	8,2	1	1	1	1	1	1	1	1	1	0	1	-60,887949	273,572987	256,708696	0
14.01.2021	23:32:04	0	0	5,084278	3,17325	71,6112	-0,181	77,34	3,5	1007,3	6,2	8,3	8,2	1	1	1	1	1	1	1	1	1	0	1	-64,129669	273,439863	252,849242	0
14.01.2021	23:32:05	0	0	2,598631	3,0975	76,8132	-0,172	77,36	3,5	1007,44	6,2	8,3	8,2	1	1	1	1	1	1	1	1	1	0	1	-69,556025	273,475947	247,590236	0
14.01.2021	23:32:06	0	0	2,824599	3,21675	59,4936	-0,18	77,366	3,5	1007,44	6,2	8,3	8,2	1	1	1	1	1	1	1	1	1	0	1	-67,019027	273,613686	250,766657	0
14.01.2021	23:32:07	0	0	3,954438	3,4155	80,91	-0,181	77,36	3,5	1007,46	6,2	8,3	8,2	1	1	1	1	1	1	1	1	1	0	1	-65,680056	273,594779	252,0178	0
14.01.2021	23:32:08	0	0	4,29339	3,46275	81,216	-0,177	77,383	3,5	1007,26	6,2	8,3	8,2	1	1	1	1	1	1	1	1	1	0	1	-65,257223	273,488953	251,949377	0
14.01.2021	23:32:09	0	0	2,372663	3,207	80,5176	-0,18	77,38	3,5	1007,24	6,2	8,4	8,2	1	1	1	1	1	1	1	1	1	0	1	-65,186751	273,632612	252,686866	0
14.01.2021	23:32:10	0	0	2,711615	2,9445	77,2092	-0,183	77,381	3,5	1007,34	6,2	8,3	8,2	1	1	1	1	1	1	1	1	1	0	1	-61,169838	273,568631	256,406582	0
14.01.2021	23:32:11	0	0	4,406374	2,71275	90,7668	-0,172	77,401	3,5	1007,28	6,2	8,3	8,2	1	1	1	1	1	1	1	1	1	0	1	-66,948555	273,448517	250,070485	0
14.01.2021	23:32:12	0	0	4,971294	2,51025	80,5824	-0,177	77,396	3,5	1007,42	6,2	8,4	8,2	1	1	1	1	1	1	1	1	1	0	1	-61,663143	273,56718	255,906536	0
14.01.2021	23:32:13	0	0	3,502503	2,40525	82,3644	-0,181	77,419	3,5	1007,44	6,2	8,3	8,2	1	1	1	1	1	1	1	1	1	0	1	-63,143058	273,623875	254,689961	0
14.01.2021	23:32:14	0	0	2,824599	2,238	73,4436	-0,174	77,444	3,5	1007,46	6,2	8,3	8,2	1	1	1	1	1	1	1	1	1	0	1	-64,622974	273,490399	252,590334	0
14.01.2021	23:32:15	0	0	4,632342	2,30325	73,4364	-0,174	77,459	3,5	1007,38	6,2	8,3	8,2	1	1	1	1	1	1	1	1	1	0	1	-67,582805	273,475947	249,563457	0
14.01.2021	23:32:16	0	0	4,519358	2,75325	91,9116	-0,184	77,46	3,5	1007,48	6,2	8,3	8,2	1	1	1	1	1	1	1	1	1	0	1	-63,988724	273,629699	253,871358	0
14.01.2021	23:32:17	0	0	2,598631	3,3585	108,1224	-0,178	77,472	3,5	1007,34	6,2	8,3	8,2	1	1	1	1	1	1	1	1	1	0	1	-62,790698	273,514993	254,536731	0
14.01.2021	23:32:18	0	0	3,728471	3,74025	104,7672	-0,177	77,511	3,5	1007,38	6,2	8,3	8,2	1	1	1	1	1	1	1	1	1	0	1	-65,045807	273,634069	252,834579	0
14.01.2021	23:32:19	0	0	4,85831	3,83025	95,832	-0,185	77,516	3,5	1007,22	6,2	8,3	8,2	1	1	1	1	1	1	1	1	1	0	1	-67,371388	273,575891	250,238744	0
14.01.2021	23:32:20	0	0	4,85831	3,80175	99,1476	-0,183	77,557	3,5	1007,5	6,2	8,3	8,2	1	1	1	1	1	1	1	1	1	0	1	-62,156448	273,635525	255,730707	0
14.01.2021	23:32:21	0	0	2,937583	3,65175	85,5144	-0,18	77,59	3,5	1007,44	6,2	8,3	8,2	1	1	1	1	1	1	1	1	1	0	1	-60,606061	273,507757	256,687785	0
14.01.2021	23:32:22	0	0	4,29339	3,585	85,5324	-0,176	77,626	3,5	1007,3	6,2	8,3	8,2	1	1	1	1	1	1	1	1	1	0	1	-64,622974	273,451402	252,409448	0
14.01.2021	23:32:23	0	0	4,632342	3,51975	81,6048	-0,187	77,637	3,5	1007,46	6,2	8,3	8,2	1	1	1	1	1	1	1	1	1	0	1	-62,790698	273,574439	254,812691	0
14.01.2021	23:32:24	0	0	4,29339	3,5565	86,274	-0,179	77,653	3,5	1007,26	6,2	8,3	8,2	1	1	1	1	1	1	1	1	1	0	1	-65,257223	273,629699	252,602859	0
14.01.2021	23:32:25	0	0	4,971294	3,255	77,2344	-0,174	77,693	3,5	1007,4	6,2	8,3	8,2	1	1	1	1	1	1	1	1	1	0	1	-64,83439	273,532373	252,5737	0
14.01.2021	23:32:26	0	0	2,598631	2,94675	57,4164	-0,176	77,699	3,5	1007,48	6,2	8,3	8,2	1	1	1	1	1	1	1	1	1	0	1	-60,887949	273,619508	256,92478	0
14.01.2021	23:32:27	0	0	2,937583	2,9595	51,8184	-0,177	77,72	3,5	1007,5	6,2	8,3	8,2	1	1	1	1	1	1	1	1	1	0	1	-63,565891	273,465836	253,533473	0
14.01.2021	23:32:28	0	0	2,485647	2,8125	53,7264	-0,169	77,733	3,5	1007,38	6,2	8,3	8,2	1	1	1	1	1	1	1	1	1	0	1	-61,592671	273,570083	255,99049	0
14.01.2021	23:32:29	0	0	4,29339	2,52825	57,7548	-0,182	77,725	3,5	1007,38	6,2	8,3	8,2	1	1	1	1	1	1	1	1	1	0	1	-61,87456	273,638439	256,026135	0
14.01.2021	23:32:30	0	0	2,485647	2,51025	57,4308	-0,171	77,715	3,5	1007,36	6,2	8,3	8,2	1	1	1	1	1	1	1	1	1	0	1	-64,270613	273,575891	253,339519	0
14.01.2021	23:32:31	0	0	4,632342	2,74275	48,8232	-0,174	77,706	3,5	1007,18	6,2	8,3	8,2	1	1	1	1	1	1	1	1	1	0	1	-64,48203	273,462949	252,603942	0
14.01.2021	23:32:32	0	0	4,067422	3	55,9476	-0,173	77,722	3,5	1007,5	6,2	8,3	8,2	1	1	1	1	1	1	1	1	1	0	1	-66,878083	273,488953	250,328518	0
14.01.2021	23:32:33	0	0	3,841454	3,1455	49,9752	-0,173	77,706	3,5	1007,42	6,2	8,3	8,2	1	1	1	1	1	1	1	1	1	0	1	-60,958421	273,648641	256,989683	0
14.01.2021	23:32:34	0	0	2,598631	2,84175	43,3836	-0,177	77,724	3,5	1007,66	6,1	8,3	8,2	1	1	1	1	1	1	1	1	1	0	1	-66,666667	273,510651	250,64061	0
14.01.2021	23:32:35	0	0	4,180431	2,58375	57,4272	-0,179	77,719	3,5	1007,44	6,1	8,3	8,1	1	1	1	1	1	1	1	1	1	0	1	-63,988724	273,635525	253,89843	0
14.01.2021	23:32:36	0	0	3,615487	2,48625	45,522	-0,173	77,701	3,5	1007,44	6,2	8,3	8,2	1	1	1	1	1	1	1	1	1	0	1	-61,099366	273,557021	256,423147	0
14.01.2021	23:32:37	0	0	3,841454	2,4975	49,2012	-0,173	77,686	3,5	1007,38	6,2	8,3	8,2	1	1	1	1	1	1	1	1	1	0	1	-63,918252	273,635525	253,968902	0
14.01.2021	23:32:38	0	0	3,728493	2,3805	51,4548	-0,173	77,659	3,5	1007,3	6,2	8,3	8,1	1	1	1	1	1	1	1	1	1	0	1	-65,961945	273,641353	251,952292	0
14.01.2021	23:32:39	0	0	4,406374	2,36925	59,4792	-0,169	77,654	3,5	1007,4	6,2	8,3	8,2	1	1	1	1	1	1	1	1	1	0	1	-63,84778	273,522233	253,513247	0
14.01.2021	23:32:40	0	0	4,632342	2,358	36,936	-0,169	77,627	3,5	1007,42	6,2	8,3	8,2	1	1	1	1	1	1	1	1	1	0	1	-62,015504	273,454288	255,030302	0
14.01.2021	23:32:41	0	0	3,389519	2,27925	42,6096	-0,169	77,611	3,5	1007,42	6,2	8,3	8,2	1	1	1	1	1	1	1	1	1	0	1	-64,200141	273,517889	253,140725	0
14.01.2021	23:32:42	0	0	3,841454	2,157	41,0112	-0,167	77,572	3,5	1007,42	6,2	8,3	8,2	1	1	1	1	1	1	1	1	1	0	1	-64,48203	273,478836	252,677636	0
14.01.2021	23:32:43	0	0	4,858339	2,03175	46,9728	-0,163	77,549	3,5	1007,32	6,2	8,3	8,1	1	1	1	1	1	1	1	1	1	0	1	-62,649753	273,594779	255,048103	0
14.01.2021	23:32:44	0	0	4,067422	1,9155	49,59	-0,168	77,54	3,5	1007,5	6,2	8,3	8,2	1	1	1	1	1	1	1	1	1	0	1	-62,156448	273,462949	254,929523	0
14.01.2021	23:32:45	0	0	2,598631	1,89825	42,9192	-0,17	77,515	3,5	1007,24	6,2	8,3	8,2	1	1	1	1	1	1	1	1	1	0	1	-62,579281	273,474502	254,560279	0
14.01.2021	23:32:46	0	0	3,163551	2,11275	55,9404	-0,167	77,512	3,5	1007,48	6,1	8,3	8,2	1	1	1	1	1	1	1	1	1	0	1	-63,002114	273,541069	254,44634	0
14.01.2021	23:32:47	0	0	2,598631	2,5995	56,6856	-0,166	77,49	3,5	1007,3	6,2	8,3	8,2	1	1	1	1	1	1	1	1	1	0	1	-66,525722	273,465836	250,573643	0
14.01.2021	23:32:48	0	0	4,632342	2,87475	54,8064	-0,172	77,466	3,5	1007,4	6,1	8,3	8,2	1	1	1	1	1	1	1	1	1	0	1	-62,508809	273,604958	255,236326	0
14.01.2021	23:32:49	0	0	3,502503	2,98725	44,4024	-0,169	77,444	3,5	1007,32	6,2	8,3	8,2	1	1	1	1	1	1	1	1	1	0	1	-63,002114	273,509204	254,298446	0
14.01.2021	23:32:50	0	0	3,502524	3,0735	54,0972	-0,169	77,434	3,5	1007,42	6,2	8,3	8,1	1	1	1	1	1	1	1	1	1	0	1	-63,565891	273,641353	254,348346	0
14.01.2021	23:32:51	0	0	3,954462	3	50,2956	-0,167	77,45	3,5	1007,4	6,2	8,3	8,1	1	1	1	1	1	1	1	1	1	0	1	-64,200141	273,503416	253,073562	0
14.01.2021	23:32:52	0	0	2,824599	2,82975	54,1008	-0,165	77,425	3,5	1007,4	6,2	8,3	8,2	1	1	1	1	1	1	1	1	1	0	1	-63,284003	273,517889	254,056863	0
14.01.2021	23:32:53	0	0	3,050567	2,83725	58,1184	-0,166	77,416	3,5	1007,46	6,1	8,3	8,2	1	1	1	1	1	1	1	1	1	0	1	-64,904863	273,653014	253,063569	0
14.01.2021	23:32:54	0	0	2,259693	2,6535	71,9856	-0,164	77,412	3,5	1007,38	6,2	8,3	8,1	1	1	1	1	1	1	1	1	1	0	1	-62,649753	273,529475	254,744887	0
14.01.2021	23:32:55	0	0	4,180406	2,4195	62,424	-0,169	77,392	3,5	1007,42	6,2	8,3	8,2	1	1	1	1	1	1	1	1	1	0	1	-65,609584	273,639896	252,297881	0
14.01.2021	23:32:56	0	0	3,389519	2,25825	66,5424	-0,169	77,421	3,5	1007,7	6,2	8,3	8,2	1	1	1	1	1	1	1	1	1	0	1	-61,87456	273,494737	255,358875	0
14.01.2021	23:32:57	0	0	2,711615	2,139	65,4588	-0,163	77,384	3,5	1007,4	6,2	8,3	8,2	1	1	1	1	1	1	1	1	1	0	1	-62,297393	273,513546	255,023318	0
14.01.2021	23:32:58	0	0	2,372677	2,133	70,2576	-0,165	77,382	3,5	1007,48	6,2	8,3	8,1	1	1	1	1	1	1	1	1	1	0	1	-62,931642	273,644268	254,99614	0
14.01.2021	23:32:59	0	0	4,29339	2,22975	69,1488	-0,159	77,373	3,5	1007,34	6,2	8,3	8,2	1	1	1	1	1	1	1	1	1	0	1	-65,46864	273,528027	251,919277	0
14.01.2021	23:33:00	0	0	4,067447	2,12175	77,2092	-0,165	77,366	3,5	1007,52	6,2	8,3	8,1	1	1	1	1	1	1	1	1	1	0	1	-65,680056	273,622419	252,146199	0
14.01.2021	23:33:01	0	0	4,067447	2,12175	77,2092	-0,165	77,366	3,5	1007,52	6,2	8,3	8,1	1	1	1	1	1	1	1	1	1	0	1	-65,680056	273,622419	252,146199	0
14.01.2021	23:33:02	0	0	2,711615	2,09925	75,2364	-0,163	77,348	3,5	1007,38	6,1	8,3	8,2	1	1	1	1	1	1	1	1	1	0	1	-64,763918	273,638439	253,136776	0
14.01.2021	23:33:03	0	0	4,63237	2,112	60,5448	-0,161	77,357	3,5	1007,36	6,2	8,3	8,1	1	1	1	1	1	1	1	1	1	0	1	-65,186751	273,647183	252,754578	0
14.01.2021	23:33:04	0	0	2,711631	2,20275	60,5628	-0,164	77,362	3,5	1007,32	6,2	8,3	8,1	1	1	1	1	1	1	1	1	1	0	1	-62,22692	273,591872	255,457433	0
14.01.2021	23:33:05	0	0	2,9376	2,2245	53,3484	-0,16	77,366	3,5	1007,4	6,2	8,3	8,1	1	1	1	1	1	1	1	1	1	0	1	-65,045807	273,473057	252,087052	0
14.01.2021	23:33:06	0	0	5,084278	2,22	50,31	-0,164	77,365	3,5	1007,4	6,2	8,3	8,2	1	1	1	1	1	1	1	1	1	0	1	-66,173362	273,616597	251,625844	0
14.01.2021	23:33:07	0	0	4,406401	2,17575	49,5792	-0,162	77,353	3,5	1007,46	6,2	8,3	8,1	1	1	1	1	1	1	1	1	1	0	1	-62,790698	273,539619	254,651028	0
14.01.2021	23:33:08	0	0	4,519358	2,13675	54,8172	-0,156	77,355	3,5	1007,5	6,2	8,3	8,2	1	1	1	1	1	1	1	1	1	0	1	-65,821001	273,486062	251,372187	0
14.01.2021	23:33:09	0	0	4,180406	2,052	53,7336	-0,161	77,354	3,5	1007,52	6,1	8,3	8,2	1	1	1	1	1	1	1	1	1	0	1	-62,508809	273,487508	254,691085	0
14.01.2021	23:33:10	0	0	3,841478	1,9755	48,1284	-0,159	77,33	3,5	1007,44	6,1	8,3	8,1	1	1	1	1	1	1	1	1	1	0	1	-64,622974	273,532373	252,785116	0
14.01.2021	23:33:11	0	0	3,954462	1,95225	56,6604	-0,165	77,32	3,5	1007,38	6,2	8,3	8,1	1	1	1	1	1	1	1	1	1	0	1	-66,243834	273,468724	250,868927	0
14.01.2021	23:33:12	0	0	4,180406	2,02725	63,882	-0,156	77,317	3,5	1007,42	6,2	8,3	8,2	1	1	1	1	1	1	1	1	1	0	1	-65,821001	273,607867	251,937648	0
14.01.2021	23:33:13	0	0	3,276554	2,30025	68,8032	-0,159	77,3	3,5	1007,4	6,2	8,3	8,1	1	1	1	1	1	1	1	1	1	0	1	-61,028894	273,634069	256,851492	0
14.01.2021	23:33:14	0	0	4,067447	2,55075	69,4872	-0,166	77,284	3,5	1007,32	6,2	8,3	8,1	1	1	1	1	1	1	1	1	1	0	1	-65,680056	273,603503	252,058323	0
14.01.2021	23:33:15	0	0	2,711631	2,66325	55,5624	-0,16	77,282	3,5	1007,48	6,2	8,3	8,1	1	1	1	1	1	1	1	1	1	0	1	-69,415081	273,586059	248,242274	0
14.01.2021	23:33:16	0	0	4,406401	2,9265	55,1628	-0,166	77,252	3,5	1007,3	6,1	8,3	8,1	1	1	1	1	1	1	1	1	1	0	1	-66,243834	273,632612	251,629784	0
14.01.2021	23:33:17	0	0	3,050585	3,00975	56,2716	-0,159	77,241	3,5	1007,42	6,2	8,3	8,1	1	1	1	1	1	1	1	1	1	0	1	-65,891473	273,565728	251,671467	0
14.01.2021	23:33:18	0	0	2,146708	2,96175	54,7956	-0,159	77,211	3,5	1007,44	6,1	8,3	8,1	1	1	1	1	1	1	1	1	1	0	1	-64,622974	273,634069	253,257412	0
14.01.2021	23:33:19	0	0	4,067447	2,97675	55,5588	-0,159	77,229	3,5	1007,66	6,2	8,3	8,1	1	1	1	1	1	1	1	1	1	0	1	-64,059197	273,477391	253,093767	0
14.01.2021	23:33:20	0	0	2,485662	2,9775	59,8428	-0,161	77,172	3,5	1007,4	6,1	8,3	8,1	1	1	1	1	1	1	1	1	1	0	1	-61,733615	273,599141	255,9845	0
14.01.2021	23:33:21	0	0	2,9376	2,87325	61,686	-0,161	77,154	3,5	1007,42	6,2	8,3	8,1	1	1	1	1	1	1	1	1	1	0	1	-64,341085	273,632612	253,532532	0
14.01.2021	23:33:22	0	0	3,841478	2,814	62,0496	-0,166	77,117	3,5	1007,36	6,1	8,3	8,1	1	1	1	1	1	1	1	1	1	0	1	-60,676533	273,523681	256,691215	0
14.01.2021	23:33:23	0	0	2,824616	2,89575	64,6236	-0,16	77,125	3,5	1007,56	6,1	8,3	8,1	1	1	1	1	1	1	1	1	1	0	1	-61,099366	273,460061	255,973215	0
14.01.2021	23:33:24	0	0	5,310278	2,99025	63,4932	-0,169	77,113	3,5	1007,42	6,1	8,3	8,1	1	1	1	1	1	1	1	1	1	0	1	-64,975335	273,512098	252,338658	0
14.01.2021	23:33:25	0	0	2,598647	2,997	74,9268	-0,164	77,1	3,5	1007,5	6,2	8,3	8,1	1	1	1	1	1	1	1	1	1	0	1	-62,297393	273,46728	254,80867	0
14.01.2021	23:33:26	0	0	5,084308	2,9295	45,522	-0,166	77,098	3,5	1007,3	6,1	8,3	8,1	1	1	1	1	1	1	1	1	1	0	1	-65,257223	273,631156	252,609626	0
14.01.2021	23:33:27	0	0	2,711631	2,75025	54,0936	-0,164	77,111	3,5	1007,38	6,1	8,3	8,1	1	1	1	1	1	1	1	1	1	0	1	-66,173362	273,593326	251,517743	0
14.01.2021	23:33:28	0	0	3,841478	2,64225	63,4716	-0,161	77,123	3,5	1007,34	6,1	8,3	8,1	1	1	1	1	1	1	1	1	1	0	1	-64,48203	273,629699	253,378053	0
14.01.2021	23:33:29	0	0	2,711615	2,5665	74,5488	-0,16	77,116	3,5	1007,46	6,1	8,3	8,2	1	1	1	1	1	1	1	1	1	0	1	-61,945032	273,591872	255,739322	0
14.01.2021	23:33:30	0	0	3,728493	2,52375	65,4732	-0,164	77,113	3,5	1007,44	6,1	8,3	8,1	1	1	1	1	1	1	1	1	1	0	1	-68,851304	273,507757	248,442541	0
14.01.2021	23:33:31	0	0	3,16357	2,60775	66,5532	-0,164	77,111	3,5	1007,4	6,1	8,2	8,1	1	1	1	1	1	1	1	1	1	0	1	-62,931642	273,645725	255,002913	0
14.01.2021	23:33:32	0	0	3,276554	2,775	58,482	-0,161	77,118	3,5	1007,52	6,1	8,3	8,1	1	1	1	1	1	1	1	1	1	0	1	-63,988724	273,647183	253,952605	0
14.01.2021	23:33:33	0	0	2,824616	2,892	50,31	-0,164	77,111	3,5	1007,5	6,1	8,3	8,1	1	1	1	1	1	1	1	1	1	0	1	-61,099366	273,565728	256,463574	0
14.01.2021	23:33:34	0	0	4,406401	2,8785	61,6824	-0,163	77,118	3,5	1007,46	6,2	8,3	8,1	1	1	1	1	1	1	1	1	1	0	1	-62,015504	273,473057	255,117355	0
14.01.2021	23:33:35	0	0	4,971324	3,012	65,0952	-0,165	77,125	3,5	1007,54	6,1	8,3	8,1	1	1	1	1	1	1	1	1	1	0	1	-61,804087	273,572987	255,792558	0
14.01.2021	23:33:36	0	0	4,745355	3,21825	77,598	-0,162	77,141	3,5	1007,5	6,1	8,2	8,1	1	1	1	1	1	1	1	1	1	0	1	-63,072586	273,457175	253,986605	0
14.01.2021	23:33:37	0	0	3,16357	3,29175	70,8372	-0,158	77,141	3,5	1007,52	6,1	8,3	8,1	1	1	1	1	1	1	1	1	1	0	1	-65,609584	273,487508	251,59031	0
14.01.2021	23:33:38	0	0	2,711631	3,267	75,978	-0,163	77,151	3,5	1007,48	6,1	8,2	8,1	1	1	1	1	1	1	1	1	1	0	1	-66,666667	273,622419	251,159589	0
14.01.2021	23:33:39	0	0	5,197293	3,1455	70,8516	-0,164	77,158	3,5	1007,44	6,1	8,3	8,1	1	1	1	1	1	1	1	1	1	0	1	-62,085976	273,578796	255,537645	0
14.01.2021	23:33:40	0	0	4,180431	3,105	70,8588	-0,164	77,146	3,5	1007,56	6,1	8,3	8,1	1	1	1	1	1	1	1	1	1	0	1	-63,84778	273,577343	253,769096	0
14.01.2021	23:33:41	0	0	3,728493	3,12825	65,8332	-0,161	77,135	3,5	1007,46	6,1	8,3	8,1	1	1	1	1	1	1	1	1	1	0	1	-63,143058	273,457175	253,916133	0
14.01.2021	23:33:42	0	0	3,389539	3,39225	62,8056	-0,164	77,131	3,5	1007,44	6,1	8,3	8,1	1	1	1	1	1	1	1	1	1	0	1	-65,398168	273,596233	252,306441	0
14.01.2021	23:33:43	0	0	2,824616	3,3825	57,51	-0,161	77,13	3,5	1007,46	6,1	8,3	8,1	1	1	1	1	1	1	1	1	1	0	1	-60,676533	273,500522	256,583745	0
14.01.2021	23:33:44	0	0	3,954462	3,159	64,638	-0,16	77,153	3,5	1007,34	6,1	8,3	8,1	1	1	1	1	1	1	1	1	1	0	1	-64,059197	273,635525	253,827958	0
14.01.2021	23:33:45	0	0	2,9376	2,93625	46,98	-0,164	77,155	3,5	1007,58	6,1	8,3	8,1	1	1	1	1	1	1	1	1	1	0	1	-62,720226	273,55412	254,788816	0
14.01.2021	23:33:46	0	0	3,389539	2,7645	48,5172	-0,165	77,177	3,5	1007,44	6,2	8,3	8,1	1	1	1	1	1	1	1	1	1	0	1	-63,284003	273,644268	254,643779	0
14.01.2021	23:33:47	0	0	4,858339	2,59575	55,9332	-0,17	77,164	3,5	1007,54	6,1	8,3	8,1	1	1	1	1	1	1	1	1	1	0	1	-66,384778	273,600595	251,340091	0
14.01.2021	23:33:48	0	0	3,615508	2,37375	33,0156	-0,166	77,166	3,5	1007,5	6,1	8,3	8,1	1	1	1	1	1	1	1	1	1	0	1	-64,763918	273,530924	252,637447	0
14.01.2021	23:33:49	0	0	3,728493	2,16375	47,736	-0,162	77,15	3,5	1007,38	6,2	8,3	8,1	1	1	1	1	1	1	1	1	1	0	1	-67,44186	273,465836	249,657504	0
14.01.2021	23:33:50	0	0	4,745355	1,99275	62,7984	-0,164	77,147	3,5	1007,44	6,2	8,2	8,1	1	1	1	1	1	1	1	1	1	0	1	-64,129669	273,607867	253,62898	0
14.01.2021	23:33:51	0	0	3,389539	1,86375	63,9504	-0,169	77,14	3,5	1007,44	6,1	8,3	8,1	1	1	1	1	1	1	1	1	1	0	1	-62,579281	273,516441	254,754866	0
14.01.2021	23:33:52	0	0	3,050585	2,05125	51,0408	-0,166	77,124	3,5	1007,52	6,2	8,3	8,1	1	1	1	1	1	1	1	1	1	0	1	-61,381254	273,641353	256,532983	0
14.01.2021	23:33:53	0	0	2,9376	2,12925	44,7768	-0,164	77,115	3,5	1007,4	6,2	8,2	8,1	1	1	1	1	1	1	1	1	1	0	1	-60,535588	273,604958	257,209547	0
14.01.2021	23:33:54	0	0	2,9376	2,1855	48,8268	-0,165	77,112	3,5	1007,34	6,2	8,2	8,1	1	1	1	1	1	1	1	1	1	0	1	-62,508809	273,488953	254,697792	0
14.01.2021	23:33:55	0	0	4,971324	2,27325	67,3596	-0,174	77,081	3,5	1007,44	6,2	8,3	8,1	1	1	1	1	1	1	1	1	1	0	1	-66,45525	273,631156	251,411599	0
14.01.2021	23:33:56	0	0	3,502524	2,30175	66,906	-0,164	77,096	3,5	1007,34	6,1	8,2	8,1	1	1	1	1	1	1	1	1	1	0	1	-60,535588	273,523681	256,83216	0
14.01.2021	23:33:57	0	0	4,858339	2,36925	55,5588	-0,161	77,084	3,5	1007,44	6,1	8,2	8,1	1	1	1	1	1	1	1	1	1	0	1	-61,381254	273,591872	256,303099	0
14.01.2021	23:33:58	0	0	4,180431	2,4435	63,486	-0,166	77,062	3,5	1007,42	6,1	8,2	8,1	1	1	1	1	1	1	1	1	1	0	1	-61,592671	273,638439	256,308024	0
14.01.2021	23:33:59	0	0	3,502524	2,478	57,0312	-0,162	77,069	3,5	1007,32	6,2	8,3	8,1	1	1	1	1	1	1	1	1	1	0	1	-64,48203	273,487508	252,717864	0
14.01.2021	23:34:00	0	0	2,824616	2,646	64,6236	-0,17	77,069	3,5	1007,44	6,1	8,3	8,1	1	1	1	1	1	1	1	1	1	0	1	-68,498943	273,480281	248,667426	0
14.01.2021	23:34:01	0	0	2,824616	2,646	64,6236	-0,17	77,069	3,5	1007,44	6,1	8,3	8,1	1	1	1	1	1	1	1	1	1	0	1	-68,498943	273,480281	248,667426	0
14.01.2021	23:34:02	0	0	2,711631	2,57475	67,374	-0,166	77,053	3,5	1007,38	6,2	8,3	8,1	1	1	1	1	1	1	1	1	1	0	1	-65,327696	273,541069	252,120759	0
14.01.2021	23:34:03	0	0	1,920739	2,39475	62,0388	-0,167	77,063	3,5	1007,38	6,1	8,3	8,1	1	1	1	1	1	1	1	1	1	0	1	-60,817477	273,480281	256,348892	0
14.01.2021	23:34:04	0	0	3,728493	2,181	54,126	-0,17	77,066	3,5	1007,32	6,2	8,3	8,1	1	1	1	1	1	1	1	1	1	0	1	-60,394644	273,532373	257,013446	0
14.01.2021	23:34:05	0	0	4,63237	2,03025	47,07	-0,167	77,073	3,5	1007,36	6,1	8,3	8,1	1	1	1	1	1	1	1	1	1	0	1	-62,931642	273,551219	254,563932	0
14.01.2021	23:34:06	0	0	3,389539	1,8045	37,422	-0,169	77,071	3,5	1007,3	6,2	8,2	8,1	1	1	1	1	1	1	1	1	1	0	1	-58,421424	273,484617	258,765059	0
14.01.2021	23:34:07	0	0	3,841478	1,704	29,5848	-0,166	77,067	3,5	1007,22	6,2	8,3	8,1	1	1	1	1	1	1	1	1	1	0	1	-64,129669	273,514993	253,19776	0
14.01.2021	23:34:08	0	0	4,971324	1,6365	36,63	-0,167	77,066	3,5	1007,28	6,1	8,3	8,1	1	1	1	1	1	1	1	1	1	0	1	-68,921776	273,602049	248,809848	0
14.01.2021	23:34:09	0	0	4,745355	1,605	32,8968	-0,169	77,069	3,5	1007,12	6,2	8,3	8,1	1	1	1	1	1	1	1	1	1	0	1	-57,575758	273,666142	260,453691	0
14.01.2021	23:34:10	0	0	3,954462	1,56	35,8596	-0,162	77,057	3,5	1007,36	6,1	8,2	8,1	1	1	1	1	1	1	1	1	1	0	1	-65,045807	273,578796	252,577814	0
14.01.2021	23:34:11	0	0	3,502524	1,52175	27,9936	-0,165	77,057	3,5	1007,4	6,1	8,2	8,1	1	1	1	1	1	1	1	1	1	0	1	-64,341085	273,488953	252,865516	0
14.01.2021	23:34:12	0	0	3,389539	1,50075	49,9608	-0,168	77,055	3,5	1007,64	6,2	8,3	8,1	1	1	1	1	1	1	1	1	1	0	1	-63,424947	273,588966	254,245906	0
14.01.2021	23:34:13	0	0	4,745355	1,47375	37,314	-0,172	77,041	3,5	1007,26	6,2	8,3	8,1	1	1	1	1	1	1	1	1	1	0	1	-61,522199	273,660306	256,480125	0
14.01.2021	23:34:14	0	0	3,276554	1,50375	35,856	-0,172	77,037	3,5	1007,36	6,1	8,2	8,1	1	1	1	1	1	1	1	1	1	0	1	-61,310782	273,512098	256,003211	0
14.01.2021	23:34:15	0	0	3,728493	1,56825	57,4092	-0,167	77,052	3,5	1007,46	6,1	8,2	8,1	1	1	1	1	1	1	1	1	1	0	1	-64,693446	273,572987	252,903199	0
14.01.2021	23:34:16	0	0	4,63237	1,641	49,9536	-0,175	77,043	3,5	1007,46	6,1	8,2	8,1	1	1	1	1	1	1	1	1	1	0	1	-62,931642	273,661765	255,077462	0
14.01.2021	23:34:17	0	0	3,954462	1,7475	55,9404	-0,172	77,038	3,5	1007,42	6,2	8,3	8,1	1	1	1	1	1	1	1	1	1	0	1	-66,102889	273,528027	251,285027	0
14.01.2021	23:34:18	0	0	4,745355	1,9395	60,2388	-0,173	77,022	3,5	1007,4	6,1	8,2	8,1	1	1	1	1	1	1	1	1	1	0	1	-65,116279	273,471613	252,00988	0
14.01.2021	23:34:19	0	0	3,276554	1,9815	68,0328	-0,172	77,029	3,5	1007,64	6,1	8,2	8,1	1	1	1	1	1	1	1	1	1	0	1	-66,102889	273,577343	251,513987	0
14.01.2021	23:34:20	0	0	4,745355	2,01225	66,546	-0,172	77,011	3,5	1007,36	6,1	8,2	8,1	1	1	1	1	1	1	1	1	1	0	1	-64,200141	273,635525	253,687014	0
14.01.2021	23:34:21	0	0	4,406401	1,98	65,448	-0,172	77,023	3,5	1007,44	6,1	8,3	8,1	1	1	1	1	1	1	1	1	1	0	1	-61,310782	273,618052	256,495185	0
14.01.2021	23:34:22	0	0	4,858339	1,926	65,0736	-0,172	77,006	3,5	1007,44	6,2	8,2	8,1	1	1	1	1	1	1	1	1	1	0	1	-63,424947	273,599141	254,293168	0
14.01.2021	23:34:23	0	0	4,63237	1,93275	69,8616	-0,176	77,005	3,5	1007,4	6,1	8,2	8,1	1	1	1	1	1	1	1	1	1	0	1	-59,901339	273,647183	258,03999	0
14.01.2021	23:34:24	0	0	3,276554	2,01975	71,9856	-0,171	77,011	3,5	1007,44	6,2	8,2	8,1	1	1	1	1	1	1	1	1	1	0	1	-63,636364	273,501969	253,630626	0
14.01.2021	23:34:25	0	0	3,16357	2,2155	71,622	-0,172	77,011	3,5	1007,62	6,2	8,2	8,1	1	1	1	1	1	1	1	1	1	0	1	-65,46864	273,528027	251,919277	0
14.01.2021	23:34:26	0	0	2,711631	2,3865	70,6032	-0,172	77,012	3,5	1007,22	6,1	8,2	8,1	1	1	1	1	1	1	1	1	1	0	1	-66,314306	273,651556	251,647349	0
14.01.2021	23:34:27	0	0	4,858339	2,46975	68,3928	-0,168	77,029	3,5	1007,38	6,2	8,2	8,1	1	1	1	1	1	1	1	1	1	0	1	-64,411557	273,609322	253,35385	0
14.01.2021	23:34:28	0	0	4,745355	2,466	67,014	-0,169	77,053	3,5	1007,38	6,2	8,3	8,1	1	1	1	1	1	1	1	1	1	0	1	-62,085976	273,491845	255,13404	0
14.01.2021	23:34:29	0	0	2,372677	2,57025	67,284	-0,175	77,032	3,5	1007,38	6,2	8,2	8,1	1	1	1	1	1	1	1	1	1	0	1	-67,019027	273,49763	250,227827	0
14.01.2021	23:34:30	0	0	4,406401	2,99625	68,7888	-0,173	77,036	3,5	1007,38	6,2	8,2	8,1	1	1	1	1	1	1	1	1	1	0	1	-64,552502	273,504863	252,727915	0
14.01.2021	23:34:31	0	0	4,406401	3,4395	65,8548	-0,174	77,049	3,5	1007,42	6,2	8,2	8,1	1	1	1	1	1	1	1	1	1	0	1	-63,706836	273,464392	253,385832	0
14.01.2021	23:34:32	0	0	3,389539	3,76275	68,4072	-0,174	77,04	3,5	1007,44	6,2	8,3	8,1	1	1	1	1	1	1	1	1	1	0	1	-62,579281	273,587513	255,084823	0
14.01.2021	23:34:33	0	0	2,711631	3,9915	68,7708	-0,176	77,047	3,5	1007,38	6,2	8,3	8,1	1	1	1	1	1	1	1	1	1	0	1	-68,780832	273,473057	248,352028	0
14.01.2021	23:34:34	0	0	3,389539	4,14	76,3704	-0,176	77,031	3,5	1007,5	6,1	8,2	8,1	1	1	1	1	1	1	1	1	1	0	1	-62,297393	273,530924	255,103972	0
14.01.2021	23:34:35	0	0	2,9376	4,212	75,2256	-0,172	77,045	3,5	1007,36	6,2	8,3	8,1	1	1	1	1	1	1	1	1	1	0	1	-62,297393	273,484617	254,88909	0
14.01.2021	23:34:36	0	0	4,632342	4,20225	69,1488	-0,178	77,052	3,5	1007,46	6,2	8,2	8,2	1	1	1	1	1	1	1	1	1	0	1	-62,297393	273,599141	255,420722	0
14.01.2021	23:34:37	0	0	3,954462	4,38075	61,6932	-0,177	77,051	3,5	1007,5	6,2	8,2	8,1	1	1	1	1	1	1	1	1	1	0	1	-60,606061	273,471613	256,520099	0
14.01.2021	23:34:38	0	0	3,389539	4,3845	54,8028	-0,18	77,06	3,5	1007,42	6,2	8,2	8,1	1	1	1	1	1	1	1	1	1	0	1	-61,945032	273,504863	255,335385	0
14.01.2021	23:34:39	0	0	3,615508	4,293	58,4748	-0,171	77,089	3,5	1007,32	6,2	8,2	8,1	1	1	1	1	1	1	1	1	1	0	1	-64,904863	273,501969	252,362127	0
14.01.2021	23:34:40	0	0	4,406401	4,149	57,7332	-0,175	77,077	3,5	1007,36	6,1	8,2	8,1	1	1	1	1	1	1	1	1	1	0	1	-61,451727	273,638439	256,448968	0
14.01.2021	23:34:41	0	0	4,406401	4,4385	66,546	-0,171	77,093	3,5	1007,5	6,2	8,2	8,1	1	1	1	1	1	1	1	1	1	0	1	-60,042283	273,600595	257,682586	0
14.01.2021	23:34:42	0	0	2,259693	4,53975	73,8036	-0,176	77,088	3,5	1007,48	6,2	8,2	8,1	1	1	1	1	1	1	1	1	1	0	1	-63,424947	273,458618	253,640939	0
14.01.2021	23:34:43	0	0	4,858339	4,62675	78,7572	-0,176	77,093	3,5	1007,48	6,2	8,2	8,1	1	1	1	1	1	1	1	1	1	0	1	-64,341085	273,532373	253,067005	0
14.01.2021	23:34:44	0	0	2,598647	4,5435	70,8768	-0,182	77,102	3,5	1007,42	6,2	8,2	8,1	1	1	1	1	1	1	1	1	1	0	1	-63,213531	273,454288	253,832275	0
14.01.2021	23:34:45	0	0	3,050567	4,443	77,2308	-0,176	77,068	3,5	1007,34	6,2	8,3	8,2	1	1	1	1	1	1	1	1	1	0	1	-65,680056	273,488953	251,526544	0
14.01.2021	23:34:46	0	0	3,728493	4,134	68,7816	-0,18	77,084	3,5	1007,44	6,2	8,3	8,1	1	1	1	1	1	1	1	1	1	0	1	-67,512333	273,636982	250,381592	0
14.01.2021	23:34:47	0	0	4,406401	3,7725	60,5412	-0,181	77,081	3,5	1007,4	6,2	8,2	8,1	1	1	1	1	1	1	1	1	1	0	1	-60,817477	273,644268	257,110305	0
14.01.2021	23:34:48	0	0	2,259693	3,53025	51,7536	-0,171	77,1	3,5	1007,28	6,2	8,4	8,1	1	1	1	1	1	1	1	1	1	0	1	-59,61945	273,53817	257,815547	0
14.01.2021	23:34:49	0	0	2,824616	3,45525	49,9608	-0,176	77,115	3,5	1007,44	6,2	8,2	8,1	1	1	1	1	1	1	1	1	1	0	1	-66,102889	273,648641	251,845215	0
14.01.2021	23:34:50	0	0	4,180431	3,32325	57,402	-0,17	77,117	3,5	1007,52	6,2	8,2	8,1	1	1	1	1	1	1	1	1	1	0	1	-64,622974	273,499076	252,630592	0
14.01.2021	23:34:51	0	0	2,598647	3,4035	54,1152	-0,17	77,137	3,5	1007,62	6,1	8,2	8,1	1	1	1	1	1	1	1	1	1	0	1	-63,636364	273,599141	254,081751	0
14.01.2021	23:34:52	0	0	3,841478	3,37575	63,18	-0,172	77,136	3,5	1007,42	6,2	8,2	8,1	1	1	1	1	1	1	1	1	1	0	1	-66,666667	273,651556	251,294989	0
14.01.2021	23:34:53	0	0	3,502503	3,375	55,9404	-0,177	77,149	3,5	1007,3	6,2	8,2	8,2	1	1	1	1	1	1	1	1	1	0	1	-61,522199	273,552669	255,980109	0
14.01.2021	23:34:54	0	0	4,519385	3,279	52,8984	-0,178	77,16	3,5	1007,3	6,2	8,3	8,1	1	1	1	1	1	1	1	1	1	0	1	-64,411557	273,481726	252,761515	0
14.01.2021	23:34:55	0	0	2,9376	3,1545	54,4968	-0,176	77,19	3,5	1007,3	6,2	8,2	8,1	1	1	1	1	1	1	1	1	1	0	1	-61,804087	273,636982	256,089837	0
14.01.2021	23:34:56	0	0	4,406401	3,2295	65,0808	-0,177	77,195	3,5	1007,38	6,2	8,4	8,1	1	1	1	1	1	1	1	1	1	0	1	-65,891473	273,590419	251,78613	0
14.01.2021	23:34:57	0	0	2,9376	3,402	61,3188	-0,173	77,216	3,5	1007,46	6,2	8,2	8,1	1	1	1	1	1	1	1	1	1	0	1	-64,622974	273,653014	253,345458	0
14.01.2021	23:34:58	0	0	3,050585	3,3465	63,5004	-0,175	77,227	3,5	1007,54	6,2	8,3	8,1	1	1	1	1	1	1	1	1	1	0	1	-65,539112	273,546868	251,936264	0
14.01.2021	23:34:59	0	0	4,632342	3,33525	60,2388	-0,173	77,241	3,5	1007,34	6,2	8,2	8,2	1	1	1	1	1	1	1	1	1	0	1	-61,028894	273,468724	256,083867	0
14.01.2021	23:35:00	0	0	4,519385	3,37725	81,6192	-0,171	77,244	3,5	1007,42	6,2	8,2	8,1	1	1	1	1	1	1	1	1	1	0	1	-61,099366	273,596233	256,605243	0
14.01.2021	23:35:01	0	0	4,519385	3,37725	81,6192	-0,171	77,244	3,5	1007,42	6,2	8,2	8,1	1	1	1	1	1	1	1	1	1	0	1	-61,099366	273,596233	256,605243	0
14.01.2021	23:35:02	0	0	3,050585	3,20025	77,2128	-0,175	77,248	3,5	1007,46	6,1	8,2	8,1	1	1	1	1	1	1	1	1	1	0	1	-62,579281	273,488953	254,62732	0
14.01.2021	23:35:03	0	0	3,050567	2,9685	85,9392	-0,177	77,249	3,5	1007,4	6,2	8,2	8,2	1	1	1	1	1	1	1	1	1	0	1	-62,085976	273,562825	255,463485	0
14.01.2021	23:35:04	0	0	2,9376	3,14025	74,9448	-0,174	77,263	3,5	1007,48	6,2	8,3	8,1	1	1	1	1	1	1	1	1	1	0	1	-58,773784	273,488953	258,432816	0
14.01.2021	23:35:05	0	0	3,050567	3,21825	78,264	-0,171	77,289	3,5	1007,46	6,2	8,2	8,2	1	1	1	1	1	1	1	1	1	0	1	-60,535588	273,49763	256,711266	0
14.01.2021	23:35:06	0	0	2,711631	3,1575	84,0708	-0,169	77,297	3,5	1007,36	6,2	8,2	8,1	1	1	1	1	1	1	1	1	1	0	1	-64,622974	273,606412	253,128918	0
14.01.2021	23:35:07	0	0	4,519385	2,99775	78,2676	-0,168	77,323	3,5	1007,5	6,2	8,2	8,1	1	1	1	1	1	1	1	1	1	0	1	-62,22692	273,655931	255,755066	0
14.01.2021	23:35:08	0	0	3,841478	2,931	94,0968	-0,176	77,303	3,5	1007,44	6,2	8,2	8,1	1	1	1	1	1	1	1	1	1	0	1	-62,156448	273,583154	255,487412	0
14.01.2021	23:35:09	0	0	3,954438	2,83575	89,7048	-0,176	77,304	3,5	1007,46	6,2	8,3	8,2	1	1	1	1	1	1	1	1	1	0	1	-60,112755	273,490399	257,100553	0
14.01.2021	23:35:10	0	0	2,937583	2,814	89,712	-0,175	77,29	3,5	1007,48	6,2	8,2	8,2	1	1	1	1	1	1	1	1	1	0	1	-61,381254	273,557021	256,141258	0
14.01.2021	23:35:11	0	0	4,180406	3,07875	78,2928	-0,172	77,293	3,5	1007,3	6,2	8,2	8,2	1	1	1	1	1	1	1	1	1	0	1	-65,045807	273,487508	252,154087	0
14.01.2021	23:35:12	0	0	4,63237	3,41475	81,2124	-0,174	77,282	3,5	1007,46	6,2	8,3	8,1	1	1	1	1	1	1	1	1	1	0	1	-63,354475	273,632612	254,519142	0
14.01.2021	23:35:13	0	0	3,276554	3,20775	69,8508	-0,169	77,282	3,5	1007,52	6,2	8,3	8,1	1	1	1	1	1	1	1	1	1	0	1	-64,341085	273,491845	252,878931	0
14.01.2021	23:35:14	0	0	3,841454	3,35325	72,0036	-0,174	77,272	3,5	1007,5	6,2	8,2	8,2	1	1	1	1	1	1	1	1	1	0	1	-63,918252	273,522233	253,442774	0
14.01.2021	23:35:15	0	0	4,180406	3,67125	71,5932	-0,172	77,249	3,5	1007,38	6,2	8,3	8,2	1	1	1	1	1	1	1	1	1	0	1	-63,84778	273,490399	253,365528	0
14.01.2021	23:35:16	0	0	3,389539	3,82125	80,1468	-0,168	77,244	3,5	1007,44	6,2	8,3	8,1	1	1	1	1	1	1	1	1	1	0	1	-64,411557	273,510651	252,895719	0
14.01.2021	23:35:17	0	0	3,389539	3,89325	79,0416	-0,164	77,259	3,5	1007,56	6,2	8,3	8,1	1	1	1	1	1	1	1	1	1	0	1	-60,747005	273,609322	257,018402	0
14.01.2021	23:35:18	0	0	4,745355	3,77175	68,4108	-0,168	77,244	3,5	1007,4	6,2	8,3	8,1	1	1	1	1	1	1	1	1	1	0	1	-61,804087	273,642811	256,116922	0
14.01.2021	23:35:19	0	0	4,971294	3,48825	67,2984	-0,168	77,236	3,5	1007,44	6,2	8,4	8,2	1	1	1	1	1	1	1	1	1	0	1	-63,354475	273,616597	254,444731	0
14.01.2021	23:35:20	0	0	3,954462	3,09075	55,5444	-0,171	77,233	3,5	1007,54	6,2	8,3	8,1	1	1	1	1	1	1	1	1	1	0	1	-65,680056	273,667601	252,356175	0
14.01.2021	23:35:21	0	0	2,485647	2,823	60,228	-0,168	77,217	3,5	1007,5	6,2	8,2	8,2	1	1	1	1	1	1	1	1	1	0	1	-67,300916	273,635525	250,586239	0
14.01.2021	23:35:22	0	0	4,745326	2,6505	56,2932	-0,168	77,191	3,5	1007,34	6,2	8,4	8,2	1	1	1	1	1	1	1	1	1	0	1	-62,508809	273,514993	254,818619	0
14.01.2021	23:35:23	0	0	2,372677	2,58825	66,24	-0,172	77,191	3,5	1007,44	6,2	8,2	8,1	1	1	1	1	1	1	1	1	1	0	1	-63,988724	273,682198	254,115368	0
14.01.2021	23:35:24	0	0	2,824616	2,784	62,7876	-0,167	77,177	3,5	1007,42	6,2	8,3	8,1	1	1	1	1	1	1	1	1	1	0	1	-62,156448	273,642811	255,764561	0
14.01.2021	23:35:25	0	0	3,841478	3,117	69,462	-0,17	77,158	3,5	1007,5	6,2	8,2	8,1	1	1	1	1	1	1	1	1	1	0	1	-63,213531	273,653014	254,754901	0
14.01.2021	23:35:26	0	0	2,598647	3,273	66,2184	-0,169	77,165	3,5	1007,38	6,2	8,2	8,1	1	1	1	1	1	1	1	1	1	0	1	-59,971811	273,557021	257,550702	0
14.01.2021	23:35:27	0	0	4,971324	3,25875	74,9232	-0,162	77,158	3,5	1007,5	6,2	8,2	8,1	1	1	1	1	1	1	1	1	1	0	1	-69,344609	273,677818	248,739119	0
14.01.2021	23:35:28	0	0	4,067447	3,23025	70,5924	-0,169	77,14	3,5	1007,5	6,2	8,2	8,1	1	1	1	1	1	1	1	1	1	0	1	-67,582805	273,565728	249,980135	0
14.01.2021	23:35:29	0	0	3,728493	3,477	70,6104	-0,167	77,135	3,5	1007,34	6,2	8,3	8,1	1	1	1	1	1	1	1	1	1	0	1	-66,666667	273,679278	251,423849	0
14.01.2021	23:35:30	0	0	4,971294	3,72075	72,2844	-0,169	77,134	3,5	1007,56	6,2	8,2	8,2	1	1	1	1	1	1	1	1	1	0	1	-58,985201	273,607867	258,773448	0
14.01.2021	23:35:31	0	0	4,632342	3,666	68,7708	-0,17	77,122	3,5	1007,32	6,2	8,3	8,2	1	1	1	1	1	1	1	1	1	0	1	-63,354475	273,496183	253,885669	0
14.01.2021	23:35:32	0	0	3,050567	3,51075	56,6784	-0,165	77,11	3,5	1007,52	6,2	8,3	8,2	1	1	1	1	1	1	1	1	1	0	1	-65,398168	273,578796	252,225454	0
14.01.2021	23:35:33	0	0	4,406374	3,38475	51,0336	-0,165	77,092	3,5	1007,44	6,2	8,3	8,2	1	1	1	1	1	1	1	1	1	0	1	-62,438337	273,623875	255,394683	0
14.01.2021	23:35:34	0	0	3,389539	3,2355	58,4604	-0,17	77,076	3,5	1007,26	6,2	8,3	8,1	1	1	1	1	1	1	1	1	1	0	1	-64,200141	273,496183	253,040003	0
14.01.2021	23:35:35	0	0	3,276554	3	49,1904	-0,166	77,057	3,5	1007,54	6,2	8,3	8,1	1	1	1	1	1	1	1	1	1	0	1	-59,61945	273,625331	258,220334	0
14.01.2021	23:35:36	0	0	2,824599	2,853	48,8268	-0,167	77,026	3,5	1007,48	6,2	8,3	8,2	1	1	1	1	1	1	1	1	1	0	1	-64,341085	273,671979	253,715498	0
14.01.2021	23:35:37	0	0	4,745326	2,79525	57,0564	-0,17	77,012	3,5	1007,22	6,2	8,4	8,2	1	1	1	1	1	1	1	1	1	0	1	-65,257223	273,541069	252,191231	0
14.01.2021	23:35:38	0	0	4,745326	2,78475	49,1832	-0,163	77,01	3,5	1007,38	6,2	8,3	8,2	1	1	1	1	1	1	1	1	1	0	1	-62,931642	273,679278	255,158873	0
14.01.2021	23:35:39	0	0	4,067447	2,8785	56,2608	-0,168	76,99	3,5	1007,5	6,2	8,3	8,1	1	1	1	1	1	1	1	1	1	0	1	-64,059197	273,541069	253,389258	0
14.01.2021	23:35:40	0	0	3,163551	2,99625	56,6676	-0,169	77,001	3,5	1007,38	6,2	8,3	8,2	1	1	1	1	1	1	1	1	1	0	1	-63,002114	273,673438	255,061254	0
14.01.2021	23:35:41	0	0	3,163551	3,1245	58,1256	-0,173	76,996	3,5	1007,44	6,2	8,3	8,2	1	1	1	1	1	1	1	1	1	0	1	-61,522199	273,616597	256,277007	0
14.01.2021	23:35:42	0	0	4,067447	3,21225	55,1844	-0,167	76,994	3,5	1007,44	6,2	8,3	8,1	1	1	1	1	1	1	1	1	1	0	1	-59,548978	273,679278	258,541537	0
14.01.2021	23:35:43	0	0	5,084308	3,186	52,8804	-0,168	76,985	3,5	1007,68	6,2	8,3	8,1	1	1	1	1	1	1	1	1	1	0	1	-61,310782	273,639896	256,596683	0
14.01.2021	23:35:44	0	0	3,276535	3,21525	49,9536	-0,172	76,995	3,5	1007,34	6,2	8,3	8,2	1	1	1	1	1	1	1	1	1	0	1	-63,565891	273,545418	253,902753	0
14.01.2021	23:35:45	0	0	2,372677	3,24975	51,4224	-0,165	77,004	3,5	1007,56	6,2	8,3	8,1	1	1	1	1	1	1	1	1	1	0	1	-63,072586	273,49763	254,174268	0
14.01.2021	23:35:46	0	0	2,9376	3,33075	49,1868	-0,173	76,984	3,5	1007,54	6,2	8,3	8,1	1	1	1	1	1	1	1	1	1	0	1	-64,270613	273,578796	253,353008	0
14.01.2021	23:35:47	0	0	4,971294	3,48675	52,8696	-0,166	76,994	3,5	1007,66	6,2	8,3	8,2	1	1	1	1	1	1	1	1	1	0	1	-64,48203	273,671979	253,574553	0
14.01.2021	23:35:48	0	0	3,16357	3,38325	57,42	-0,172	76,981	3,5	1007,74	6,2	8,3	8,1	1	1	1	1	1	1	1	1	1	0	1	-66,102889	273,620963	251,716603	0
14.01.2021	23:35:49	0	0	3,954438	3,3255	52,902	-0,176	76,99	3,5	1007,56	6,2	8,3	8,2	1	1	1	1	1	1	1	1	1	0	1	-65,186751	273,655931	252,795235	0
14.01.2021	23:35:50	0	0	4,293416	3,2445	51,4584	-0,172	76,994	3,5	1007,5	6,2	8,3	8,1	1	1	1	1	1	1	1	1	1	0	1	-63,424947	273,653014	254,543485	0
14.01.2021	23:35:51	0	0	3,050585	3,195	60,246	-0,167	77,001	3,5	1007,48	6,2	8,3	8,1	1	1	1	1	1	1	1	1	1	0	1	-59,126145	273,622419	258,700111	0
14.01.2021	23:35:52	0	0	2,259679	3,18	54,1152	-0,17	76,99	3,5	1007,28	6,2	8,3	8,2	1	1	1	1	1	1	1	1	1	0	1	-62,22692	273,490399	254,986388	0
14.01.2021	23:35:53	0	0	3,502503	3,09525	55,1772	-0,172	76,974	3,5	1007,38	6,2	8,3	8,2	1	1	1	1	1	1	1	1	1	0	1	-64,48203	273,526578	252,899163	0
14.01.2021	23:35:54	0	0	4,63237	2,964	56,2932	-0,17	76,99	3,5	1007,56	6,2	8,3	8,1	1	1	1	1	1	1	1	1	1	0	1	-61,451727	273,647183	256,489603	0
14.01.2021	23:35:55	0	0	4,63237	2,967	52,5132	-0,168	76,989	3,5	1007,4	6,2	8,3	8,1	1	1	1	1	1	1	1	1	1	0	1	-61,804087	273,645725	256,130468	0
14.01.2021	23:35:56	0	0	4,85831	3,00675	54,486	-0,171	76,996	3,5	1007,64	6,2	8,3	8,2	1	1	1	1	1	1	1	1	1	0	1	-62,86117	273,613686	254,924514	0
14.01.2021	23:35:57	0	0	4,632342	3,0435	54,4788	-0,171	76,987	3,5	1007,3	6,2	8,3	8,2	1	1	1	1	1	1	1	1	1	0	1	-61,451727	273,499076	255,801839	0
14.01.2021	23:35:58	0	0	3,276535	3,0075	53,7372	-0,173	76,98	3,5	1007,66	6,2	8,3	8,2	1	1	1	1	1	1	1	1	1	0	1	-63,424947	273,632612	254,44867	0
14.01.2021	23:35:59	0	0	2,711615	3,01125	51,7608	-0,171	77,01	3,5	1007,3	6,2	8,3	8,2	1	1	1	1	1	1	1	1	1	0	1	-64,622974	273,49763	252,623881	0
14.01.2021	23:36:00	0	0	2,598631	2,70375	41,454	-0,17	77,027	3,5	1007,6	6,2	8,3	8,2	1	1	1	1	1	1	1	1	1	0	1	-66,45525	273,680738	251,642053	0
14.01.2021	23:36:01	0	0	2,598631	2,70375	41,454	-0,17	77,027	3,5	1007,6	6,2	8,3	8,2	1	1	1	1	1	1	1	1	1	0	1	-66,45525	273,680738	251,642053	0
14.01.2021	23:36:02	0	0	2,033711	2,64225	39,5568	-0,183	77,039	3,5	1007,38	6,2	8,3	8,2	1	1	1	1	1	1	1	1	1	0	1	-63,143058	273,612231	254,635866	0
14.01.2021	23:36:03	0	0	2,824599	2,652	51,516	-0,174	77,053	3,5	1007,4	6,2	8,3	8,2	1	1	1	1	1	1	1	1	1	0	1	-65,609584	273,674898	252,46057	0
14.01.2021	23:36:04	0	0	3,954438	2,56275	39,87	-0,171	77,072	3,5	1007,42	6,2	8,3	8,2	1	1	1	1	1	1	1	1	1	0	1	-64,270613	273,532373	253,137477	0
14.01.2021	23:36:05	0	0	3,841478	2,48325	35,8704	-0,173	77,088	3,5	1007,46	6,2	8,2	8,1	1	1	1	1	1	1	1	1	1	0	1	-59,478506	273,493291	257,748219	0
14.01.2021	23:36:06	0	0	2,937618	2,3595	41,4684	-0,176	77,094	3,5	1007,28	6,2	8,3	8	1	1	1	1	1	1	1	1	1	0	1	-62,438337	273,55557	255,07744	0
14.01.2021	23:36:07	0	0	3,728471	2,364	34,7256	-0,172	77,107	3,5	1007,4	6,2	8,3	8,2	1	1	1	1	1	1	1	1	1	0	1	-62,297393	273,653014	255,671039	0
14.01.2021	23:36:08	0	0	3,276554	2,36925	48,5064	-0,17	77,135	3,5	1007,5	6,2	8,3	8,1	1	1	1	1	1	1	1	1	1	0	1	-65,891473	273,667601	252,144758	0
14.01.2021	23:36:09	0	0	2,711615	2,4615	31,0248	-0,176	77,124	3,5	1007,46	6,2	8,3	8,2	1	1	1	1	1	1	1	1	1	0	1	-60,324172	273,604958	257,420963	0
14.01.2021	23:36:10	0	0	2,824616	2,59875	43,668	-0,17	77,148	3,5	1007,44	6,2	8,3	8,1	1	1	1	1	1	1	1	1	1	0	1	-64,83439	273,653014	253,134041	0
14.01.2021	23:36:11	0	0	2,824599	2,5605	45,5184	-0,17	77,148	3,5	1007,48	6,2	8,3	8,2	1	1	1	1	1	1	1	1	1	0	1	-60,042283	273,528027	257,345633	0
14.01.2021	23:36:12	0	0	2,937583	2,66925	52,1244	-0,172	77,142	3,5	1007,46	6,2	8,3	8,2	1	1	1	1	1	1	1	1	1	0	1	-61,945032	273,655931	256,036955	0
14.01.2021	23:36:13	0	0	2,937583	2,8725	42,9228	-0,171	77,154	3,5	1007,46	6,2	8,3	8,2	1	1	1	1	1	1	1	1	1	0	1	-65,46864	273,503416	251,805063	0
14.01.2021	23:36:14	0	0	4,632342	3,11925	52,506	-0,175	77,15	3,5	1007,44	6,2	8,3	8,2	1	1	1	1	1	1	1	1	1	0	1	-62,085976	273,570083	255,497185	0
14.01.2021	23:36:15	0	0	4,406374	3,1905	54,1008	-0,176	77,149	3,5	1007,44	6,2	8,3	8,2	1	1	1	1	1	1	1	1	1	0	1	-61,169838	273,676358	256,907102	0
14.01.2021	23:36:16	0	0	3,163551	3,06525	45,8244	-0,174	77,163	3,5	1007,52	6,2	8,3	8,2	1	1	1	1	1	1	1	1	1	0	1	-60,747005	273,535271	256,674538	0
14.01.2021	23:36:17	0	0	2,598631	2,88975	43,398	-0,169	77,15	3,5	1007,24	6,2	8,3	8,2	1	1	1	1	1	1	1	1	1	0	1	-65,821001	273,517889	251,519865	0
14.01.2021	23:36:18	0	0	4,745326	2,82	41,4792	-0,167	77,141	3,5	1007,4	6,2	8,3	8,2	1	1	1	1	1	1	1	1	1	0	1	-64,904863	273,666142	253,124586	0
14.01.2021	23:36:19	0	0	4,067447	2,75775	49,5648	-0,17	77,14	3,5	1007,48	6,2	8,3	8,1	1	1	1	1	1	1	1	1	1	0	1	-62,22692	273,577343	255,389956	0
14.01.2021	23:36:20	0	0	4,29339	2,865	65,466	-0,168	77,119	3,5	1007,44	6,2	8,3	8,2	1	1	1	1	1	1	1	1	1	0	1	-65,46864	273,526578	251,912553	0
14.01.2021	23:36:21	0	0	3,050585	3,43575	57,0348	-0,171	77,127	3,5	1007,46	6,2	8,3	8,1	1	1	1	1	1	1	1	1	1	0	1	-61,87456	273,504863	255,405857	0
14.01.2021	23:36:22	0	0	3,841478	3,5745	51,7608	-0,171	77,131	3,5	1007,24	6,2	8,3	8,1	1	1	1	1	1	1	1	1	1	0	1	-66,314306	273,618052	251,491661	0
14.01.2021	23:36:23	0	0	2,937583	3,291	50,6916	-0,177	77,121	3,5	1007,34	6,2	8,3	8,2	1	1	1	1	1	1	1	1	1	0	1	-62,720226	273,671979	255,336357	0
14.01.2021	23:36:24	0	0	3,389519	3,3705	66,2292	-0,167	77,116	3,5	1007,54	6,2	8,3	8,2	1	1	1	1	1	1	1	1	1	0	1	-58,562368	273,529475	258,832273	0
14.01.2021	23:36:25	0	0	2,485662	3,74175	53,352	-0,169	77,121	3,5	1007,54	6,2	8,3	8,1	1	1	1	1	1	1	1	1	1	0	1	-63,706836	273,631156	254,160014	0
14.01.2021	23:36:26	0	0	4,858339	3,534	52,884	-0,17	77,118	3,5	1007,48	6,2	8,3	8,1	1	1	1	1	1	1	1	1	1	0	1	-60,817477	273,661765	257,191627	0
14.01.2021	23:36:27	0	0	2,824599	3,21	46,9656	-0,177	77,11	3,5	1007,4	6,2	8,3	8,2	1	1	1	1	1	1	1	1	1	0	1	-61,099366	273,564277	256,456834	0
14.01.2021	23:36:28	0	0	4,180406	3,171	58,8708	-0,181	77,118	3,5	1007,42	6,2	8,3	8,2	1	1	1	1	1	1	1	1	1	0	1	-64,129669	273,512098	253,184324	0
14.01.2021	23:36:29	0	0	4,519358	3,24525	53,7264	-0,178	77,115	3,5	1007,46	6,2	8,3	8,2	1	1	1	1	1	1	1	1	1	0	1	-64,693446	273,539619	252,748279	0
14.01.2021	23:36:30	0	0	2,711615	3,29925	54,8028	-0,17	77,131	3,5	1007,4	6,2	8,3	8,2	1	1	1	1	1	1	1	1	1	0	1	-67,512333	273,671979	250,54425	0
14.01.2021	23:36:31	0	0	3,163551	3,18975	61,6968	-0,171	77,128	3,5	1007,42	6,2	8,3	8,2	1	1	1	1	1	1	1	1	1	0	1	-65,46864	273,590419	252,208963	0
14.01.2021	23:36:32	0	0	4,406374	3,12525	64,6164	-0,167	77,131	3,5	1007,5	6,2	8,3	8,2	1	1	1	1	1	1	1	1	1	0	1	-60,183228	273,674898	257,886926	0
14.01.2021	23:36:33	0	0	3,615487	3,0735	58,8528	-0,169	77,112	3,5	1007,38	6,2	8,3	8,2	1	1	1	1	1	1	1	1	1	0	1	-62,015504	273,645725	255,919052	0
14.01.2021	23:36:34	0	0	3,954438	3,00825	49,2012	-0,176	77,132	3,5	1007,28	6,2	8,3	8,2	1	1	1	1	1	1	1	1	1	0	1	-63,636364	273,673438	254,427004	0
14.01.2021	23:36:35	0	0	2,372677	2,94375	49,95	-0,17	77,135	3,5	1007,52	6,2	8,3	8,1	1	1	1	1	1	1	1	1	1	0	1	-62,579281	273,510651	254,727995	0
14.01.2021	23:36:36	0	0	4,745326	2,80875	55,9512	-0,172	77,132	3,5	1007,48	6,2	8,3	8,2	1	1	1	1	1	1	1	1	1	0	1	-62,931642	273,607867	254,827007	0
14.01.2021	23:36:37	0	0	4,519358	2,616	65,4624	-0,171	77,137	3,5	1007,4	6,2	8,3	8,2	1	1	1	1	1	1	1	1	1	0	1	-59,901339	273,657389	258,087426	0
14.01.2021	23:36:38	0	0	3,276535	2,42925	72,6768	-0,171	77,139	3,5	1007,38	6,2	8,3	8,2	1	1	1	1	1	1	1	1	1	0	1	-63,424947	273,532373	253,983143	0
14.01.2021	23:36:39	0	0	2,824599	2,358	63,4788	-0,167	77,162	3,5	1007,54	6,2	8,3	8,2	1	1	1	1	1	1	1	1	1	0	1	-64,622974	273,651556	253,338681	0
14.01.2021	23:36:40	0	0	3,050567	2,33175	63,4824	-0,174	77,149	3,5	1007,4	6,2	8,3	8,2	1	1	1	1	1	1	1	1	1	0	1	-57,575758	273,552669	259,92655	0
14.01.2021	23:36:41	0	0	5,084278	2,28225	52,5132	-0,169	77,15	3,5	1007,58	6,2	8,3	8,2	1	1	1	1	1	1	1	1	1	0	1	-59,901339	273,500522	257,358938	0
14.01.2021	23:36:42	0	0	2,824599	2,2845	49,5828	-0,17	77,13	3,5	1007,4	6,2	8,3	8,2	1	1	1	1	1	1	1	1	1	0	1	-66,243834	273,620963	251,575659	0
14.01.2021	23:36:43	0	0	4,85831	2,41875	59,8536	-0,168	77,135	3,5	1007,46	6,2	8,3	8,2	1	1	1	1	1	1	1	1	1	0	1	-61,945032	273,509204	255,355529	0
14.01.2021	23:36:44	0	0	4,519358	2,421	54,8064	-0,173	77,129	3,5	1007,44	6,2	8,3	8,2	1	1	1	1	1	1	1	1	1	0	1	-66,878083	273,491845	250,341933	0
14.01.2021	23:36:45	0	0	2,372663	2,52075	58,878	-0,177	77,101	3,5	1007,44	6,2	8,3	8,2	1	1	1	1	1	1	1	1	1	0	1	-63,495419	273,528027	253,892497	0
14.01.2021	23:36:46	0	0	4,29339	2,463	61,3116	-0,174	77,091	3,5	1007,4	6,2	8,3	8,2	1	1	1	1	1	1	1	1	1	0	1	-61,804087	273,491845	255,415929	0
14.01.2021	23:36:47	0	0	5,42323	2,406	58,4784	-0,172	77,098	3,5	1007,48	6,2	8,3	8,2	1	1	1	1	1	1	1	1	1	0	1	-62,931642	273,558472	254,597607	0
14.01.2021	23:36:48	0	0	2,711615	2,454	54,108	-0,175	77,08	3,5	1007,46	6,2	8,3	8,2	1	1	1	1	1	1	1	1	1	0	1	-67,864693	273,661765	250,14441	0
14.01.2021	23:36:49	0	0	3,615508	2,478	54,7848	-0,17	77,073	3,5	1007,44	6,2	8,3	8,1	1	1	1	1	1	1	1	1	1	0	1	-60,887949	273,546868	256,587427	0
14.01.2021	23:36:50	0	0	3,954462	2,48025	53,7192	-0,173	77,05	3,5	1007,44	6,2	8,3	8,1	1	1	1	1	1	1	1	1	1	0	1	-64,411557	273,667601	253,624673	0
14.01.2021	23:36:51	0	0	5,310278	2,5125	60,5628	-0,17	77,073	3,5	1007,58	6,2	8,3	8,1	1	1	1	1	1	1	1	1	1	0	1	-63,777308	273,610777	253,994857	0
14.01.2021	23:36:52	0	0	3,276535	2,5875	53,388	-0,169	77,048	3,5	1007,42	6,2	8,3	8,2	1	1	1	1	1	1	1	1	1	0	1	-65,257223	273,663224	252,758661	0
14.01.2021	23:36:53	0	0	3,615487	2,7885	56,2932	-0,169	77,042	3,5	1007,5	6,2	8,3	8,2	1	1	1	1	1	1	1	1	1	0	1	-63,213531	273,658848	254,782013	0
14.01.2021	23:36:54	0	0	2,485662	3,06675	56,6676	-0,177	77,026	3,5	1007,44	6,2	8,3	8,1	1	1	1	1	1	1	1	1	1	0	1	-61,522199	273,613686	256,263486	0
14.01.2021	23:36:55	0	0	2,598647	3,27075	52,4916	-0,173	77	3,5	1007,36	6,2	8,3	8,1	1	1	1	1	1	1	1	1	1	0	1	-67,864693	273,483172	249,315084	0
14.01.2021	23:36:56	0	0	4,85831	3,411	49,9536	-0,18	76,986	3,5	1007,28	6,2	8,3	8,2	1	1	1	1	1	1	1	1	1	0	1	-68,357999	273,628243	249,495317	0
14.01.2021	23:36:57	0	0	3,389519	3,44325	52,4916	-0,168	76,993	3,5	1007,6	6,2	8,3	8,2	1	1	1	1	1	1	1	1	1	0	1	-61,663143	273,666142	256,366305	0
14.01.2021	23:36:58	0	0	2,485647	3,4935	49,662	-0,177	76,967	3,5	1007,58	6,2	8,3	8,2	1	1	1	1	1	1	1	1	1	0	1	-64,200141	273,512098	253,113852	0
14.01.2021	23:36:59	0	0	4,745355	3,4995	43,686	-0,175	76,965	3,5	1007,46	6,2	8,3	8,1	1	1	1	1	1	1	1	1	1	0	1	-61,099366	273,558472	256,429883	0
14.01.2021	23:37:00	0	0	3,389519	3,489	64,2492	-0,179	76,93	3,5	1007,32	6,2	8,3	8,2	1	1	1	1	1	1	1	1	1	0	1	-63,213531	273,586059	254,443824	0
14.01.2021	23:37:01	0	0	3,389519	3,489	64,2492	-0,179	76,93	3,5	1007,32	6,2	8,3	8,2	1	1	1	1	1	1	1	1	1	0	1	-63,213531	273,586059	254,443824	0
14.01.2021	23:37:02	0	0	4,745355	3,25875	54,108	-0,176	76,913	3,5	1007,44	6,2	8,3	8,1	1	1	1	1	1	1	1	1	1	0	1	-63,072586	273,647183	254,868743	0
14.01.2021	23:37:03	0	0	4,293416	3,1155	64,2348	-0,175	76,912	3,5	1007,56	6,2	8,3	8,1	1	1	1	1	1	1	1	1	1	0	1	-65,116279	273,593326	252,574825	0
14.01.2021	23:37:04	0	0	4,180406	3,1515	62,0316	-0,18	76,903	3,5	1007,48	6,2	8,3	8,2	1	1	1	1	1	1	1	1	1	0	1	-63,424947	273,484617	253,761535	0
14.01.2021	23:37:05	0	0	5,084308	3,21375	59,472	-0,183	76,909	3,5	1007,42	6,2	8,3	8,1	1	1	1	1	1	1	1	1	1	0	1	-66,737139	273,53817	250,697858	0
14.01.2021	23:37:06	0	0	3,276535	3,25575	58,122	-0,175	76,92	3,5	1007,66	6,2	8,3	8,2	1	1	1	1	1	1	1	1	1	0	1	-61,381254	273,484617	255,805228	0
14.01.2021	23:37:07	0	0	4,971294	3,21	68,4144	-0,178	76,921	3,5	1007,48	6,2	8,3	8,2	1	1	1	1	1	1	1	1	1	0	1	-62,367865	273,677818	255,715863	0
14.01.2021	23:37:08	0	0	2,598647	3,11775	60,2496	-0,177	76,937	3,5	1007,48	6,2	8,3	8,1	1	1	1	1	1	1	1	1	1	0	1	-60,817477	273,610777	256,954688	0
14.01.2021	23:37:09	0	0	4,971324	3,05925	58,122	-0,184	76,958	3,5	1007,5	6,1	8,3	8,1	1	1	1	1	1	1	1	1	1	0	1	-63,143058	273,488953	254,063542	0
14.01.2021	23:37:10	0	0	3,050567	2,937	69,8544	-0,177	76,97	3,5	1007,52	6,2	8,3	8,2	1	1	1	1	1	1	1	1	1	0	1	-60,112755	273,602049	257,618868	0
14.01.2021	23:37:11	0	0	2,824599	2,83725	46,5984	-0,182	76,986	3,5	1007,44	6,2	8,3	8,2	1	1	1	1	1	1	1	1	1	0	1	-64,83439	273,657389	253,154375	0
14.01.2021	23:37:12	0	0	2,372663	2,5305	35,4708	-0,181	77	3,5	1007,44	6,2	8,3	8,2	1	1	1	1	1	1	1	1	1	0	1	-67,512333	273,520785	249,841973	0
14.01.2021	23:37:13	0	0	4,406374	2,2515	57,0348	-0,183	77,021	3,5	1007,44	6,1	8,3	8,2	1	1	1	1	1	1	1	1	1	0	1	-64,411557	273,603503	253,326822	0
14.01.2021	23:37:14	0	0	4,858339	2,205	35,4888	-0,181	77,032	3,5	1007,36	6,2	8,3	8,1	1	1	1	1	1	1	1	1	1	0	1	-61,945032	273,636982	255,948893	0
14.01.2021	23:37:15	0	0	2,937583	2,229	39,5352	-0,185	77,052	3,5	1007,54	6,2	8,3	8,2	1	1	1	1	1	1	1	1	1	0	1	-63,072586	273,549768	254,416254	0
14.01.2021	23:37:16	0	0	4,971294	2,418	52,4952	-0,185	77,063	3,5	1007,42	6,2	8,3	8,2	1	1	1	1	1	1	1	1	1	0	1	-61,87456	273,648641	256,073545	0
14.01.2021	23:37:17	0	0	2,598647	2,65725	56,6676	-0,182	77,051	3,5	1007,26	6,2	8,3	8,1	1	1	1	1	1	1	1	1	1	0	1	-65,327696	273,552669	252,174612	0
14.01.2021	23:37:18	0	0	4,406401	2,81925	60,246	-0,183	77,072	3,5	1007,42	6,2	8,3	8,1	1	1	1	1	1	1	1	1	1	0	1	-67,512333	273,666142	250,517116	0
14.01.2021	23:37:19	0	0	3,841454	2,904	63,8496	-0,183	77,081	3,5	1007,54	6,2	8,3	8,2	1	1	1	1	1	1	1	1	1	0	1	-66,173362	273,609322	251,592045	0
14.01.2021	23:37:20	0	0	5,197293	2,93325	60,2172	-0,181	77,092	3,5	1007,54	6,2	8,3	8,1	1	1	1	1	1	1	1	1	1	0	1	-63,072586	273,490399	254,140722	0
14.01.2021	23:37:21	0	0	3,276554	2,75025	55,1808	-0,181	77,1	3,5	1007,48	6,2	8,3	8,1	1	1	1	1	1	1	1	1	1	0	1	-59,971811	273,500522	257,288466	0
14.01.2021	23:37:22	0	0	4,745355	2,57475	49,2084	-0,182	77,093	3,5	1007,38	6,2	8,3	8,1	1	1	1	1	1	1	1	1	1	0	1	-64,83439	273,593326	252,856714	0
14.01.2021	23:37:23	0	0	2,9376	2,592	57,1104	-0,177	77,11	3,5	1007,54	6,2	8,3	8,1	1	1	1	1	1	1	1	1	1	0	1	-67,0895	273,471613	250,03666	0
14.01.2021	23:37:24	0	0	3,841478	2,76975	60,5412	-0,183	77,129	3,5	1007,46	6,2	8,3	8,1	1	1	1	1	1	1	1	1	1	0	1	-64,270613	273,564277	253,285587	0
14.01.2021	23:37:25	0	0	3,954462	2,862	60,552	-0,178	77,13	3,5	1007,46	6,2	8,3	8,1	1	1	1	1	1	1	1	1	1	0	1	-63,636364	273,658848	254,35918	0
14.01.2021	23:37:26	0	0	5,42323	2,739	46,2204	-0,183	77,139	3,5	1007,5	6,2	8,3	8,2	1	1	1	1	1	1	1	1	1	0	1	-61,310782	273,519337	256,036803	0
14.01.2021	23:37:27	0	0	2,711615	2,68575	49,9572	-0,189	77,143	3,5	1007,5	6,1	8,3	8,2	1	1	1	1	1	1	1	1	1	0	1	-62,085976	273,651556	255,875679	0
14.01.2021	23:37:28	0	0	3,276554	2,7	62,8164	-0,188	77,145	3,5	1007,28	6,2	8,3	8,1	1	1	1	1	1	1	1	1	1	0	1	-64,975335	273,483172	252,204442	0
14.01.2021	23:37:29	0	0	4,180431	2,655	48,8304	-0,182	77,162	3,5	1007,48	6,2	8,3	8,1	1	1	1	1	1	1	1	1	1	0	1	-61,169838	273,581701	256,467275	0
14.01.2021	23:37:30	0	0	3,954462	2,76825	40,2588	-0,187	77,155	3,5	1007,36	6,1	8,3	8,1	1	1	1	1	1	1	1	1	1	0	1	-59,901339	273,655931	258,080648	0
14.01.2021	23:37:31	0	0	3,276554	2,874	38,0772	-0,18	77,163	3,5	1007,18	6,2	8,3	8,1	1	1	1	1	1	1	1	1	1	0	1	-60,2537	273,542518	257,201484	0
14.01.2021	23:37:32	0	0	3,728493	2,8485	33,6312	-0,188	77,149	3,5	1007,36	6,1	8,3	8,1	1	1	1	1	1	1	1	1	1	0	1	-63,284003	273,682198	254,82009	0
14.01.2021	23:37:33	0	0	3,615508	2,74275	33,6456	-0,183	77,178	3,5	1007,56	6,2	8,3	8,1	1	1	1	1	1	1	1	1	1	0	1	-61,663143	273,53672	255,765126	0
14.01.2021	23:37:34	0	0	4,29339	2,583	40,734	-0,179	77,178	3,5	1007,54	6,1	8,3	8,2	1	1	1	1	1	1	1	1	1	0	1	-61,945032	273,490399	255,268277	0
14.01.2021	23:37:35	0	0	4,180431	2,49975	54,1008	-0,191	77,17	3,5	1007,54	6,1	8,3	8,1	1	1	1	1	1	1	1	1	1	0	1	-60,606061	273,620963	257,213432	0
14.01.2021	23:37:36	0	0	4,519385	2,5515	58,878	-0,187	77,176	3,5	1007,62	6,1	8,3	8,1	1	1	1	1	1	1	1	1	1	0	1	-62,22692	273,512098	255,087073	0
14.01.2021	23:37:37	0	0	3,728471	2,74125	46,9764	-0,187	77,174	3,5	1007,56	6,1	8,3	8,2	1	1	1	1	1	1	1	1	1	0	1	-61,169838	273,50631	256,117293	0
14.01.2021	23:37:38	0	0	3,615508	2,9085	54,8172	-0,187	77,188	3,5	1007,36	6,1	8,3	8,1	1	1	1	1	1	1	1	1	1	0	1	-63,213531	273,484617	253,972952	0
14.01.2021	23:37:39	0	0	2,824616	3,01725	59,8644	-0,19	77,189	3,5	1007,44	6,2	8,3	8,1	1	1	1	1	1	1	1	1	1	0	1	-62,156448	273,50631	255,130682	0
14.01.2021	23:37:40	0	0	4,067447	3,108	54,1008	-0,184	77,199	3,5	1007,64	6,1	8,3	8,1	1	1	1	1	1	1	1	1	1	0	1	-63,84778	273,483172	253,331997	0
14.01.2021	23:37:41	0	0	3,050585	3,0015	49,9392	-0,188	77,192	3,5	1007,38	6,2	8,4	8,1	1	1	1	1	1	1	1	1	1	0	1	-65,821001	273,512098	251,492993	0
14.01.2021	23:37:42	0	0	4,406401	2,6895	54,1008	-0,189	77,194	3,5	1007,48	6,2	8,3	8,1	1	1	1	1	1	1	1	1	1	0	1	-63,706836	273,635525	254,180319	0
14.01.2021	23:37:43	0	0	3,841454	2,3925	43,29	-0,178	77,199	3,5	1007,56	6,1	8,3	8,2	1	1	1	1	1	1	1	1	1	0	1	-64,059197	273,645725	253,875359	0
14.01.2021	23:37:44	0	0	3,728471	2,364	49,212	-0,185	77,207	3,5	1007,34	6,1	8,3	8,2	1	1	1	1	1	1	1	1	1	0	1	-59,267089	273,520785	258,087216	0
14.01.2021	23:37:45	0	0	3,050585	2,32575	52,5096	-0,186	77,198	3,5	1007,52	6,2	8,3	8,1	1	1	1	1	1	1	1	1	1	0	1	-60,535588	273,639896	257,371877	0
14.01.2021	23:37:46	0	0	3,050585	2,427	36,936	-0,184	77,198	3,5	1007,32	6,1	8,3	8,1	1	1	1	1	1	1	1	1	1	0	1	-57,575758	273,470169	259,543702	0
14.01.2021	23:37:47	0	0	3,050585	2,35875	52,5096	-0,186	77,202	3,5	1007,46	6,1	8,3	8,1	1	1	1	1	1	1	1	1	1	0	1	-61,804087	273,581701	255,833026	0
14.01.2021	23:37:48	0	0	3,728493	2,22525	41,4684	-0,184	77,191	3,5	1007,56	6,1	8,3	8,1	1	1	1	1	1	1	1	1	1	0	1	-61,87456	273,500522	255,385718	0
14.01.2021	23:37:49	0	0	2,9376	2,124	46,2348	-0,185	77,206	3,5	1007,56	6,1	8,3	8,1	1	1	1	1	1	1	1	1	1	0	1	-64,059197	273,509204	253,241364	0
14.01.2021	23:37:50	0	0	3,389539	2,133	52,8984	-0,182	77,196	3,5	1007,36	6,1	8,3	8,1	1	1	1	1	1	1	1	1	1	0	1	-57,434813	273,480281	259,731556	0
14.01.2021	23:37:51	0	0	3,389539	2,16975	42,5988	-0,185	77,204	3,5	1007,44	6,1	8,3	8,1	1	1	1	1	1	1	1	1	1	0	1	-62,790698	273,631156	255,076152	0
14.01.2021	23:37:52	0	0	4,745355	2,169	52,5132	-0,184	77,196	3,5	1007,5	6,2	8,3	8,1	1	1	1	1	1	1	1	1	1	0	1	-62,649753	273,666142	255,379695	0
14.01.2021	23:37:53	0	0	2,485662	2,15325	44,1396	-0,186	77,205	3,5	1007,46	6,1	8,3	8,1	1	1	1	1	1	1	1	1	1	0	1	-66,102889	273,541069	251,345565	0
14.01.2021	23:37:54	0	0	3,050585	2,10225	49,5612	-0,186	77,198	3,5	1007,4	6,1	8,3	8,1	1	1	1	1	1	1	1	1	1	0	1	-61,381254	273,458618	255,684631	0
14.01.2021	23:37:55	0	0	5,084278	1,9815	42,9228	-0,182	77,199	3,5	1007,44	6,1	8,3	8,2	1	1	1	1	1	1	1	1	1	0	1	-59,971811	273,53817	257,463186	0
14.01.2021	23:37:56	0	0	2,598647	1,90875	60,5664	-0,189	77,208	3,5	1007,42	6,1	8,3	8,1	1	1	1	1	1	1	1	1	1	0	1	-62,085976	273,631156	255,780873	0
14.01.2021	23:37:57	0	0	2,824616	1,911	57,7368	-0,189	77,199	3,5	1007,56	6,1	8,3	8,1	1	1	1	1	1	1	1	1	1	0	1	-58,914729	273,548318	258,567379	0
14.01.2021	23:37:58	0	0	3,954462	1,94775	63,4896	-0,193	77,181	3,5	1007,38	6,1	8,3	8,1	1	1	1	1	1	1	1	1	1	0	1	-61,522199	273,625331	256,317586	0
14.01.2021	23:37:59	0	0	4,63237	1,965	64,242	-0,19	77,172	3,5	1007,46	6,1	8,3	8,1	1	1	1	1	1	1	1	1	1	0	1	-60,2537	273,561374	257,289024	0
14.01.2021	23:38:00	0	0	4,745355	1,98975	61,3224	-0,186	77,153	3,5	1007,54	6,1	8,3	8,1	1	1	1	1	1	1	1	1	1	0	1	-63,988724	273,46728	253,117338	0
14.01.2021	23:38:01	0	0	4,745355	1,98975	61,3224	-0,186	77,153	3,5	1007,54	6,1	8,3	8,1	1	1	1	1	1	1	1	1	1	0	1	-63,988724	273,46728	253,117338	0
14.01.2021	23:38:02	0	0	4,519385	1,98375	68,7708	-0,189	77,136	3,5	1007,56	6,1	8,3	8,1	1	1	1	1	1	1	1	1	1	0	1	-62,86117	273,603503	254,877209	0
14.01.2021	23:38:03	0	0	3,841478	1,95525	63,4932	-0,189	77,136	3,5	1007,42	6,1	8,3	8,1	1	1	1	1	1	1	1	1	1	0	1	-63,84778	273,616597	253,951425	0
14.01.2021	23:38:04	0	0	2,711631	1,96575	60,5484	-0,196	77,119	3,5	1007,48	6,1	8,3	8,1	1	1	1	1	1	1	1	1	1	0	1	-66,666667	273,642811	251,254343	0
14.01.2021	23:38:05	0	0	3,050585	2,01075	60,2316	-0,189	77,132	3,5	1007,48	6,1	8,3	8,1	1	1	1	1	1	1	1	1	1	0	1	-59,901339	273,445632	257,104323	0
14.01.2021	23:38:06	0	0	4,406401	1,983	66,5208	-0,188	77,113	3,5	1007,56	6,1	8,3	8,1	1	1	1	1	1	1	1	1	1	0	1	-59,055673	273,590419	258,62193	0
14.01.2021	23:38:07	0	0	3,841478	2,0745	69,8688	-0,187	77,118	3,5	1007,5	6,1	8,3	8,1	1	1	1	1	1	1	1	1	1	0	1	-61,522199	273,568631	256,054221	0
14.01.2021	23:38:08	0	0	3,050585	2,2245	84,042	-0,19	77,106	3,5	1007,52	6,1	8,3	8,1	1	1	1	1	1	1	1	1	1	0	1	-61,592671	273,444189	255,406302	0
14.01.2021	23:38:09	0	0	3,389539	2,27325	75,6216	-0,189	77,1	3,5	1007,46	6,1	8,2	8,1	1	1	1	1	1	1	1	1	1	0	1	-63,636364	273,572987	253,960282	0
14.01.2021	23:38:10	0	0	4,180431	2,3325	77,2128	-0,19	77,075	3,5	1007,36	6,1	8,3	8,1	1	1	1	1	1	1	1	1	1	0	1	-62,86117	273,623875	254,97185	0
14.01.2021	23:38:11	0	0	2,485662	2,358	68,1048	-0,187	77,082	3,5	1007,6	6,1	8,3	8,1	1	1	1	1	1	1	1	1	1	0	1	-62,720226	273,473057	254,412634	0
14.01.2021	23:38:12	0	0	3,16357	2,32725	68,022	-0,189	77,083	3,5	1007,52	6,1	8,3	8,1	1	1	1	1	1	1	1	1	1	0	1	-58,844257	273,436979	258,121283	0
14.01.2021	23:38:13	0	0	2,9376	2,25825	76,8312	-0,192	77,071	3,5	1007,38	6,1	8,3	8,1	1	1	1	1	1	1	1	1	1	0	1	-64,270613	273,49763	252,976242	0
14.01.2021	23:38:14	0	0	4,519385	2,22675	71,9856	-0,191	77,07	3,5	1007,48	6,1	8,3	8,1	1	1	1	1	1	1	1	1	1	0	1	-62,86117	273,616597	254,938036	0
14.01.2021	23:38:15	0	0	3,841478	2,22225	62,8128	-0,195	77,054	3,5	1007,5	6,1	8,3	8,1	1	1	1	1	1	1	1	1	1	0	1	-61,451727	273,559923	256,084259	0
14.01.2021	23:38:16	0	0	4,293416	2,28375	65,8656	-0,193	77,048	3,5	1007,46	6,1	8,3	8,1	1	1	1	1	1	1	1	1	1	0	1	-64,622974	273,622419	253,203282	0
14.01.2021	23:38:17	0	0	4,858339	2,40975	66,9132	-0,187	77,037	3,5	1007,52	6,1	8,3	8,1	1	1	1	1	1	1	1	1	1	0	1	-59,760395	273,503416	257,513308	0
14.01.2021	23:38:18	0	0	2,824616	2,48775	62,8056	-0,194	77,009	3,5	1007,52	6,1	8,3	8,1	1	1	1	1	1	1	1	1	1	0	1	-59,478506	273,616597	258,3207	0
14.01.2021	23:38:19	0	0	4,519385	2,61525	58,4892	-0,194	77,015	3,5	1007,6	6,1	8,4	8,1	1	1	1	1	1	1	1	1	1	0	1	-61,733615	273,509204	255,566945	0
14.01.2021	23:38:20	0	0	3,16357	2,7105	66,9456	-0,199	76,987	3,5	1007,5	6,1	8,4	8,1	1	1	1	1	1	1	1	1	1	0	1	-64,622974	273,609322	253,142433	0
14.01.2021	23:38:21	0	0	4,745355	2,8425	65,4876	-0,197	76,98	3,5	1007,62	6,1	8,3	8,1	1	1	1	1	1	1	1	1	1	0	1	-63,284003	273,571535	254,3059	0
14.01.2021	23:38:22	0	0	3,841478	2,90325	66,3156	-0,194	76,957	3,5	1007,56	6,1	8,3	8,1	1	1	1	1	1	1	1	1	1	0	1	-59,901339	273,609322	257,864068	0
14.01.2021	23:38:23	0	0	3,502524	3,0015	70,6284	-0,198	76,957	3,5	1007,44	6,1	8,4	8,1	1	1	1	1	1	1	1	1	1	0	1	-65,46864	273,591872	252,215713	0
14.01.2021	23:38:24	0	0	3,050585	3,04725	55,53	-0,2	76,945	3,5	1007,54	6,1	8,3	8,1	1	1	1	1	1	1	1	1	1	0	1	-62,931642	273,475947	254,214619	0
14.01.2021	23:38:25	0	0	4,180431	3,23925	59,8788	-0,199	76,935	3,5	1007,5	6,1	8,4	8,1	1	1	1	1	1	1	1	1	1	0	1	-64,83439	273,600595	252,890479	0
14.01.2021	23:38:26	0	0	4,745355	3,41475	57,438	-0,206	76,931	3,5	1007,52	6,1	8,3	8,1	1	1	1	1	1	1	1	1	1	0	1	-62,790698	273,488953	254,415903	0
14.01.2021	23:38:27	0	0	4,858339	3,43575	66,5388	-0,203	76,939	3,5	1007,48	6,1	8,4	8,1	1	1	1	1	1	1	1	1	1	0	1	-61,663143	273,435537	255,295711	0
14.01.2021	23:38:28	0	0	4,745355	3,37425	58,4784	-0,199	76,936	3,5	1007,58	6,1	8,3	8,1	1	1	1	1	1	1	1	1	1	0	1	-63,284003	273,530924	254,117362	0
14.01.2021	23:38:29	0	0	2,9376	3,25875	64,2456	-0,201	76,934	3,5	1007,48	6,1	8,3	8,1	1	1	1	1	1	1	1	1	1	0	1	-61,804087	273,432654	255,141399	0
14.01.2021	23:38:30	0	0	3,389539	3,2445	57,474	-0,204	76,917	3,5	1007,44	6,1	8,3	8,1	1	1	1	1	1	1	1	1	1	0	1	-63,495419	273,499076	253,758146	0
14.01.2021	23:38:31	0	0	2,598647	3,1125	48,8124	-0,2	76,949	3,5	1007,58	6,1	8,3	8,1	1	1	1	1	1	1	1	1	1	0	1	-69,626498	273,600595	248,098371	0
14.01.2021	23:38:32	0	0	4,971324	2,75775	49,2876	-0,205	76,949	3,5	1007,42	6,1	8,2	8,1	1	1	1	1	1	1	1	1	1	0	1	-60,676533	273,529475	256,718108	0
14.01.2021	23:38:33	0	0	3,502524	2,5125	54,5004	-0,207	76,948	3,5	1007,54	6,2	8,4	8,1	1	1	1	1	1	1	1	1	1	0	1	-64,129669	273,600595	253,5952	0
14.01.2021	23:38:34	0	0	2,9376	2,4375	59,4936	-0,201	76,976	3,5	1007,56	6,1	8,4	8,1	1	1	1	1	1	1	1	1	1	0	1	-63,918252	273,545418	253,550392	0
14.01.2021	23:38:35	0	0	4,858339	2,35275	56,2752	-0,205	76,983	3,5	1007,44	6,1	8,3	8,1	1	1	1	1	1	1	1	1	1	0	1	-60,958421	273,587513	256,705682	0
14.01.2021	23:38:36	0	0	5,536247	2,2785	59,5656	-0,211	76,992	3,5	1007,58	6,1	8,4	8,1	1	1	1	1	1	1	1	1	1	0	1	-64,552502	273,487508	252,647392	0
14.01.2021	23:38:37	0	0	2,824616	2,25975	57,0276	-0,207	77,009	3,5	1007,58	6,2	8,4	8,1	1	1	1	1	1	1	1	1	1	0	1	-60,606061	273,424007	256,299337	0
14.01.2021	23:38:38	0	0	2,711631	2,26425	60,2496	-0,207	77,004	3,5	1007,56	6,2	8,4	8,1	1	1	1	1	1	1	1	1	1	0	1	-63,002114	273,559923	254,533872	0
14.01.2021	23:38:39	0	0	3,276554	2,23725	56,6784	-0,203	77,022	3,5	1007,6	6,2	8,4	8,1	1	1	1	1	1	1	1	1	1	0	1	-62,22692	273,602049	255,504703	0
14.01.2021	23:38:40	0	0	4,745355	2,1825	60,2424	-0,216	77,021	3,5	1007,48	6,2	8,4	8,1	1	1	1	1	1	1	1	1	1	0	1	-66,807611	273,532373	250,600479	0
14.01.2021	23:38:41	0	0	2,9376	2,1225	57,7296	-0,213	77,03	3,5	1007,58	6,1	8,4	8,1	1	1	1	1	1	1	1	1	1	0	1	-60,324172	273,405286	256,49444	0
14.01.2021	23:38:42	0	0	2,485662	2,1465	59,868	-0,207	77,033	3,5	1007,56	6	8,3	8,1	1	1	1	1	1	1	1	1	1	0	1	-62,649753	273,53672	254,778516	0
14.01.2021	23:38:43	0	0	4,745355	2,15025	60,9444	-0,214	77,036	3,5	1007,56	6,1	8,3	8,1	1	1	1	1	1	1	1	1	1	0	1	-59,830867	273,590419	257,846736	0
14.01.2021	23:38:44	0	0	3,050585	2,19075	61,7868	-0,221	77,033	3,5	1007,38	6,2	8,4	8,1	1	1	1	1	1	1	1	1	1	0	1	-59,408034	273,480281	257,758335	0
14.01.2021	23:38:45	0	0	4,519385	2,2365	59,1192	-0,213	77,045	3,5	1007,44	6,1	8,3	8,1	1	1	1	1	1	1	1	1	1	0	1	-65,257223	273,586059	252,400132	0
14.01.2021	23:38:46	0	0	2,146708	2,286	65,4768	-0,219	77,033	3,5	1007,52	6,1	8,4	8,1	1	1	1	1	1	1	1	1	1	0	1	-59,408034	273,535271	258,013509	0
14.01.2021	23:38:47	0	0	4,745355	2,2665	59,1048	-0,217	77,041	3,5	1007,42	6,1	8,3	8,1	1	1	1	1	1	1	1	1	1	0	1	-60,112755	273,577343	257,504121	0
14.01.2021	23:38:48	0	0	4,519385	2,33925	61,6824	-0,215	77,029	3,5	1007,54	6,2	8,3	8,1	1	1	1	1	1	1	1	1	1	0	1	-62,015504	273,475947	255,130758	0
14.01.2021	23:38:49	0	0	4,519385	2,44275	60,2424	-0,216	77,052	3,5	1007,5	6,1	8,3	8,1	1	1	1	1	1	1	1	1	1	0	1	-60,535588	273,584606	257,115019	0
14.01.2021	23:38:50	0	0	4,63237	2,67825	54,8208	-0,218	77,034	3,5	1007,24	6,2	8,3	8,1	1	1	1	1	1	1	1	1	1	0	1	-63,495419	273,543968	253,966495	0
14.01.2021	23:38:51	0	0	4,293416	3,00075	55,9404	-0,217	77,043	3,5	1007,44	6,1	8,4	8,1	1	1	1	1	1	1	1	1	1	0	1	-59,901339	273,581701	257,735774	0
14.01.2021	23:38:52	0	0	5,084308	3,1515	57,7368	-0,225	77,057	3,5	1007,36	6,2	8,4	8,1	1	1	1	1	1	1	1	1	1	0	1	-59,971811	273,516441	257,362336	0
14.01.2021	23:38:53	0	0	2,598647	3,28875	59,1084	-0,215	77,062	3,5	1007,42	6,2	8,3	8,1	1	1	1	1	1	1	1	1	1	0	1	-58,985201	273,587513	258,678903	0
14.01.2021	23:38:54	0	0	4,745355	3,2685	65,4588	-0,224	77,068	3,5	1007,52	6,2	8,4	8,1	1	1	1	1	1	1	1	1	1	0	1	-59,61945	273,548318	257,862658	0
14.01.2021	23:38:55	0	0	3,389539	3,14325	58,8744	-0,223	77,085	3,5	1007,56	6,2	8,3	8,1	1	1	1	1	1	1	1	1	1	0	1	-60,958421	273,543968	256,503493	0
14.01.2021	23:38:56	0	0	2,824616	3,195	63,2016	-0,21	77,087	3,5	1007,56	6,1	8,3	8,1	1	1	1	1	1	1	1	1	1	0	1	-58,63284	273,461505	258,446436	0
14.01.2021	23:38:57	0	0	3,276554	3,2985	58,1184	-0,219	77,096	3,5	1007,5	6,2	8,3	8,1	1	1	1	1	1	1	1	1	1	0	1	-59,478506	273,562825	258,070955	0
14.01.2021	23:38:58	0	0	2,485662	3,4155	54,792	-0,222	77,096	3,5	1007,5	6,1	8,3	8,1	1	1	1	1	1	1	1	1	1	0	1	-61,451727	273,517889	255,889139	0
14.01.2021	23:38:59	0	0	3,502524	3,5055	66,9348	-0,228	77,109	3,5	1007,4	6,1	8,4	8,1	1	1	1	1	1	1	1	1	1	0	1	-63,354475	273,393774	253,410782	0
14.01.2021	23:39:00	0	0	3,728493	3,4065	67,2588	-0,225	77,133	3,5	1007,48	6	8,3	8,1	1	1	1	1	1	1	1	1	1	0	1	-62,579281	273,55412	254,929761	0
14.01.2021	23:39:01	0	0	3,728493	3,4065	67,2588	-0,225	77,133	3,5	1007,48	6	8,3	8,1	1	1	1	1	1	1	1	1	1	0	1	-62,579281	273,55412	254,929761	0
14.01.2021	23:39:02	0	0	4,067447	3,33	63,1656	-0,227	77,147	3,5	1007,54	6,1	8,3	8,1	1	1	1	1	1	1	1	1	1	0	1	-60,535588	273,541069	256,912866	0
14.01.2021	23:39:03	0	0	2,9376	3,15225	65,0808	-0,231	77,155	3,5	1007,52	6,2	8,3	8,1	1	1	1	1	1	1	1	1	1	0	1	-60,042283	273,451402	256,990138	0
14.01.2021	23:39:04	0	0	5,084308	3,07425	63,1836	-0,225	77,176	3,5	1007,44	6,1	8,3	8,1	1	1	1	1	1	1	1	1	1	0	1	-60,535588	273,568631	257,040832	0
14.01.2021	23:39:05	0	0	3,954462	3,06675	52,1388	-0,232	77,172	3,5	1007,44	6,1	8,3	8,1	1	1	1	1	1	1	1	1	1	0	1	-59,408034	273,481726	257,765039	0
14.01.2021	23:39:06	0	0	2,824616	2,9925	65,8332	-0,231	77,184	3,5	1007,48	6,1	8,3	8,1	1	1	1	1	1	1	1	1	1	0	1	-65,398168	273,396652	251,380424	0
14.01.2021	23:39:07	0	0	2,598647	2,97375	59,1084	-0,235	77,184	3,5	1007,36	6,1	8,3	8,1	1	1	1	1	1	1	1	1	1	0	1	-60,324172	273,426889	256,594586	0
14.01.2021	23:39:08	0	0	3,502524	2,97825	69,1632	-0,234	77,194	3,5	1007,36	6,1	8,3	8,1	1	1	1	1	1	1	1	1	1	0	1	-60,676533	273,574439	256,926856	0
14.01.2021	23:39:09	0	0	3,050585	2,80875	56,2896	-0,234	77,192	3,5	1007,54	6,1	8,3	8,1	1	1	1	1	1	1	1	1	1	0	1	-58,210007	273,426889	258,708751	0
14.01.2021	23:39:10	0	0	4,406401	2,60775	68,4324	-0,235	77,216	3,5	1007,52	6,2	8,3	8,1	1	1	1	1	1	1	1	1	1	0	1	-60,394644	273,405286	256,423968	0
14.01.2021	23:39:11	0	0	2,598647	2,7705	55,5588	-0,238	77,195	3,5	1007,64	6,1	8,3	8,1	1	1	1	1	1	1	1	1	1	0	1	-63,988724	273,574439	253,614664	0
14.01.2021	23:39:12	0	0	2,711631	2,99775	47,754	-0,239	77,202	3,5	1007,38	6,2	8,3	8,1	1	1	1	1	1	1	1	1	1	0	1	-63,143058	273,447074	253,869292	0
14.01.2021	23:39:13	0	0	2,711631	3,02175	69,1488	-0,238	77,23	3,5	1007,58	6,2	8,3	8,1	1	1	1	1	1	1	1	1	1	0	1	-61,804087	273,393774	254,961169	0
14.01.2021	23:39:14	0	0	3,502524	3,021	64,6236	-0,237	77,23	3,5	1007,38	6,1	8,3	8,1	1	1	1	1	1	1	1	1	1	0	1	-62,790698	273,441305	254,1949	0
14.01.2021	23:39:15	0	0	3,841501	3,0945	62,3916	-0,24	77,236	3,5	1007,4	6,1	8,3	8	1	1	1	1	1	1	1	1	1	0	1	-64,48203	273,571535	253,107873	0
14.01.2021	23:39:16	0	0	4,293416	3,24975	59,1084	-0,234	77,247	3,5	1007,54	6,1	8,3	8,1	1	1	1	1	1	1	1	1	1	0	1	-62,790698	273,422567	254,10802	0
14.01.2021	23:39:17	0	0	3,050585	3,32925	61,7004	-0,236	77,251	3,5	1007,42	6,1	8,3	8,1	1	1	1	1	1	1	1	1	1	0	1	-63,84778	273,392336	252,91081	0
14.01.2021	23:39:18	0	0	3,050585	3,20625	54,7992	-0,235	77,256	3,5	1007,5	6,1	8,3	8,1	1	1	1	1	1	1	1	1	1	0	1	-56,448203	273,448517	260,570837	0
14.01.2021	23:39:19	0	0	5,084308	3,0675	46,602	-0,242	77,256	3,5	1007,52	6,1	8,3	8,1	1	1	1	1	1	1	1	1	1	0	1	-60,2537	273,528027	257,134217	0
14.01.2021	23:39:20	0	0	4,745355	3,13575	49,2228	-0,245	77,265	3,5	1007,36	6,1	8,3	8,1	1	1	1	1	1	1	1	1	1	0	1	-58,491896	273,50631	258,795235	0
14.01.2021	23:39:21	0	0	3,050585	3,18675	41,868	-0,239	77,28	3,5	1007,6	6,1	8,3	8,1	1	1	1	1	1	1	1	1	1	0	1	-62,508809	273,399529	254,28312	0
14.01.2021	23:39:22	0	0	3,16357	3,195	42,9228	-0,24	77,289	3,5	1007,36	6,1	8,3	8,1	1	1	1	1	1	1	1	1	1	0	1	-59,901339	273,46728	257,204724	0
14.01.2021	23:39:23	0	0	3,16357	2,907	41,0112	-0,241	77,295	3,5	1007,52	6,1	8,3	8,1	1	1	1	1	1	1	1	1	1	0	1	-61,099366	273,564277	256,456834	0
14.01.2021	23:39:24	0	0	4,63237	2,69925	42,6096	-0,245	77,307	3,5	1007,24	6,1	8,3	8,1	1	1	1	1	1	1	1	1	1	0	1	-59,126145	273,488953	258,080456	0
14.01.2021	23:39:25	0	0	2,146708	2,6865	54,1116	-0,242	77,338	3,5	1007,84	6,1	8,3	8,1	1	1	1	1	1	1	1	1	1	0	1	-60,535588	273,421126	256,356451	0
14.01.2021	23:39:26	0	0	3,615508	2,58075	39,87	-0,24	77,355	3,5	1007,62	6,1	8,3	8,1	1	1	1	1	1	1	1	1	1	0	1	-60,676533	273,491845	256,543484	0
14.01.2021	23:39:27	0	0	3,16357	2,5665	49,9788	-0,244	77,364	3,5	1007,4	6,1	8,3	8,1	1	1	1	1	1	1	1	1	1	0	1	-57,575758	273,405286	259,242854	0
14.01.2021	23:39:28	0	0	2,372677	2,535	46,6164	-0,247	77,382	3,5	1007,4	6,1	8,3	8,1	1	1	1	1	1	1	1	1	1	0	1	-61,24031	273,385145	255,484955	0
14.01.2021	23:39:29	0	0	3,841478	2,44275	45,864	-0,234	77,385	3,5	1007,42	6,1	8,3	8,1	1	1	1	1	1	1	1	1	1	0	1	-56,871036	273,403847	259,940904	0
14.01.2021	23:39:30	0	0	4,067471	2,40675	51,0804	-0,243	77,411	3,5	1007,48	6,1	8,3	8	1	1	1	1	1	1	1	1	1	0	1	-59,337562	273,429772	257,594559	0
14.01.2021	23:39:31	0	0	4,745355	2,37525	43,6896	-0,254	77,402	3,5	1007,22	6,1	8,3	8,1	1	1	1	1	1	1	1	1	1	0	1	-59,971811	273,507757	257,322034	0
14.01.2021	23:39:32	0	0	4,180456	2,41125	52,5132	-0,24	77,42	3,5	1007,42	6,1	8,3	8	1	1	1	1	1	1	1	1	1	0	1	-63,706836	273,548318	253,775272	0
14.01.2021	23:39:33	0	0	5,084339	2,412	44,406	-0,243	77,433	3,5	1007,2	6,1	8,3	8	1	1	1	1	1	1	1	1	1	0	1	-63,284003	273,42833	253,641436	0
14.01.2021	23:39:34	0	0	3,502524	2,4765	57,4452	-0,249	77,448	3,5	1007,48	6,1	8,3	8,1	1	1	1	1	1	1	1	1	1	0	1	-61,028894	273,400968	255,769706	0
14.01.2021	23:39:35	0	0	3,389559	2,463	47,4984	-0,253	77,445	3,5	1007,4	6,1	8,3	8	1	1	1	1	1	1	1	1	1	0	1	-62,931642	273,530924	254,469723	0
14.01.2021	23:39:36	0	0	5,084339	2,3955	62,7984	-0,252	77,449	3,5	1007,44	6,1	8,3	8	1	1	1	1	1	1	1	1	1	0	1	-59,478506	273,53672	257,949764	0
14.01.2021	23:39:37	0	0	4,406427	2,4315	61,7004	-0,226	77,467	3,5	1007,66	6,1	8,3	8	1	1	1	1	1	1	1	1	1	0	1	-60,747005	273,533822	256,667811	0
14.01.2021	23:39:38	0	0	2,598647	2,47725	62,4312	-0,251	77,469	3,5	1007,46	6,1	8,3	8,1	1	1	1	1	1	1	1	1	1	0	1	-58,280479	273,411045	258,564825	0
14.01.2021	23:39:39	0	0	3,841501	2,47575	60,8256	-0,247	77,469	3,5	1007,44	6,1	8,3	8	1	1	1	1	1	1	1	1	1	0	1	-60,183228	273,549768	257,305613	0
14.01.2021	23:39:40	0	0	4,519412	2,58825	65,4768	-0,255	77,468	3,5	1007,5	6,1	8,3	8	1	1	1	1	1	1	1	1	1	0	1	-61,733615	273,499076	255,519951	0
14.01.2021	23:39:41	0	0	4,858339	2,733	59,4792	-0,253	77,462	3,5	1007,34	6,1	8,3	8,1	1	1	1	1	1	1	1	1	1	0	1	-62,508809	273,545418	254,959836	0
14.01.2021	23:39:42	0	0	3,276574	2,9595	74,142	-0,252	77,464	3,5	1007,44	6,1	8,3	8	1	1	1	1	1	1	1	1	1	0	1	-62,931642	273,441305	254,053956	0
14.01.2021	23:39:43	0	0	5,084339	3,09525	73,7964	-0,252	77,469	3,5	1007,56	6,1	8,3	8	1	1	1	1	1	1	1	1	1	0	1	-60,324172	273,367898	256,321176	0
14.01.2021	23:39:44	0	0	3,728493	3,02475	60,9444	-0,249	77,463	3,5	1007,5	6,1	8,3	8,1	1	1	1	1	1	1	1	1	1	0	1	-60,042283	273,503416	257,231419	0
14.01.2021	23:39:45	0	0	3,728493	3,01875	64,6128	-0,25	77,463	3,5	1007,66	6,1	8,3	8,1	1	1	1	1	1	1	1	1	1	0	1	-60,958421	273,519337	256,389164	0
14.01.2021	23:39:46	0	0	3,502545	3,09075	74,934	-0,251	77,457	3,5	1007,54	6,1	8,3	8	1	1	1	1	1	1	1	1	1	0	1	-60,2537	273,512098	257,060293	0
14.01.2021	23:39:47	0	0	3,389539	3,12825	81,2232	-0,248	77,456	3,5	1007,48	6,1	8,3	8,1	1	1	1	1	1	1	1	1	1	0	1	-61,87456	273,439863	255,104351	0
14.01.2021	23:39:48	0	0	2,711647	3,29925	80,4996	-0,252	77,449	3,5	1007,58	6,1	8,3	8	1	1	1	1	1	1	1	1	1	0	1	-60,394644	273,528027	256,993272	0
14.01.2021	23:39:49	0	0	3,728515	3,465	80,9136	-0,256	77,442	3,5	1007,52	6,1	8,3	8	1	1	1	1	1	1	1	1	1	0	1	-60,2537	273,434096	256,69847	0
14.01.2021	23:39:50	0	0	2,598662	3,5025	74,178	-0,255	77,454	3,5	1007,5	6,1	8,3	8	1	1	1	1	1	1	1	1	1	0	1	-60,324172	273,55557	257,191605	0
14.01.2021	23:39:51	0	0	5,197293	3,477	70,5924	-0,252	77,429	3,5	1007,46	6,1	8,3	8,1	1	1	1	1	1	1	1	1	1	0	1	-62,367865	273,486062	254,825323	0
14.01.2021	23:39:52	0	0	2,598662	3,61875	48,5244	-0,251	77,414	3,5	1007,52	6,1	8,3	8	1	1	1	1	1	1	1	1	1	0	1	-57,787174	273,53672	259,641095	0
14.01.2021	23:39:53	0	0	4,067471	3,54	64,62	-0,26	77,378	3,5	1007,32	6,1	8,3	8	1	1	1	1	1	1	1	1	1	0	1	-62,508809	273,418245	254,369874	0
14.01.2021	23:39:54	0	0	3,615508	3,561	86,3028	-0,254	77,378	3,5	1007,48	6,1	8,3	8,1	1	1	1	1	1	1	1	1	1	0	1	-60,887949	273,53817	256,547048	0
14.01.2021	23:39:55	0	0	4,406401	3,4365	54,108	-0,26	77,361	3,5	1007,52	6,1	8,3	8,1	1	1	1	1	1	1	1	1	1	0	1	-59,971811	273,432654	256,973675	0
14.01.2021	23:39:56	0	0	4,519412	3,85425	77,2236	-0,253	77,343	3,5	1007,54	6,1	8,3	8	1	1	1	1	1	1	1	1	1	0	1	-59,901339	273,529475	257,493301	0
14.01.2021	23:39:57	0	0	4,63237	4,251	73,7964	-0,259	77,332	3,5	1007,5	6,1	8,3	8,1	1	1	1	1	1	1	1	1	1	0	1	-65,186751	273,416805	251,685255	0
14.01.2021	23:39:58	0	0	4,519412	4,57725	73,44	-0,257	77,318	3,5	1007,48	6,1	8,3	8	1	1	1	1	1	1	1	1	1	0	1	-59,971811	273,532373	257,436279	0
14.01.2021	23:39:59	0	0	4,293416	5,20125	89,3304	-0,26	77,297	3,5	1007,54	6,1	8,3	8,1	1	1	1	1	1	1	1	1	1	0	1	-57,998591	273,468724	259,11417	0
14.01.2021	23:40:00	0	0	3,841454	5,4045	70,29	-0,26	77,302	3,5	1007,54	6,1	8,3	8,2	1	1	1	1	1	1	1	1	1	0	1	-60,324172	273,422567	256,574546	0
14.01.2021	23:40:01	0	0	3,841454	5,4045	70,29	-0,26	77,302	3,5	1007,54	6,1	8,3	8,2	1	1	1	1	1	1	1	1	1	0	1	-60,324172	273,422567	256,574546	0
14.01.2021	23:40:02	0	0	3,728493	4,84425	83,322	-0,251	77,317	3,5	1007,58	6,1	8,3	8,1	1	1	1	1	1	1	1	1	1	0	1	-61,663143	273,53817	255,771854	0
14.01.2021	23:40:03	0	0	3,502524	4,59675	66,24	-0,263	77,34	3,5	1007,46	6,1	8,3	8,1	1	1	1	1	1	1	1	1	1	0	1	-61,663143	273,481726	255,50993	0
14.01.2021	23:40:04	0	0	4,293416	4,61625	61,308	-0,264	77,385	3,5	1007,46	6,1	8,3	8,1	1	1	1	1	1	1	1	1	1	0	1	-60,465116	273,369335	256,186888	0
14.01.2021	23:40:05	0	0	4,858368	4,82475	51,5268	-0,265	77,401	3,5	1007,54	6,1	8,3	8	1	1	1	1	1	1	1	1	1	0	1	-63,84778	273,357844	252,75099	0
14.01.2021	23:40:06	0	0	2,824633	4,9275	44,4024	-0,264	77,435	3,5	1007,5	6,1	8,3	8	1	1	1	1	1	1	1	1	1	0	1	-59,126145	273,424007	257,779252	0
14.01.2021	23:40:07	0	0	2,9376	4,49925	41,4648	-0,264	77,442	3,5	1007,4	6,1	8,3	8,1	1	1	1	1	1	1	1	1	1	0	1	-63,002114	273,528027	254,385802	0
14.01.2021	23:40:08	0	0	4,519385	4,15275	38,4156	-0,268	77,468	3,5	1007,46	6,1	8,3	8,1	1	1	1	1	1	1	1	1	1	0	1	-63,565891	273,426889	253,352866	0
14.01.2021	23:40:09	0	0	4,406401	4,0485	42,6852	-0,27	77,513	3,5	1007,6	6,1	8,2	8,1	1	1	1	1	1	1	1	1	1	0	1	-64,552502	273,548318	252,929606	0
14.01.2021	23:40:10	0	0	3,841478	3,9915	45,8424	-0,266	77,566	3,5	1007,44	6,1	8,2	8,1	1	1	1	1	1	1	1	1	1	0	1	-63,213531	273,493291	254,013194	0
14.01.2021	23:40:11	0	0	4,067447	3,67875	66,924	-0,269	77,592	3,5	1007,46	6,1	8,3	8,1	1	1	1	1	1	1	1	1	1	0	1	-61,522199	273,389459	255,22306	0
14.01.2021	23:40:12	0	0	4,858339	3,0765	68,778	-0,268	77,627	3,5	1007,48	6,1	8,2	8,1	1	1	1	1	1	1	1	1	1	0	1	-60,817477	273,465836	256,281888	0
14.01.2021	23:40:13	0	0	4,858339	2,90925	61,668	-0,271	77,642	3,5	1007,56	6,1	8,3	8,1	1	1	1	1	1	1	1	1	1	0	1	-61,522199	273,357844	255,076571	0
14.01.2021	23:40:14	0	0	3,276554	3,26775	63,1728	-0,275	77,681	3,5	1007,52	6,1	8,3	8,1	1	1	1	1	1	1	1	1	1	0	1	-61,099366	273,400968	255,699233	0
14.01.2021	23:40:15	0	0	3,61553	3,43425	63,1692	-0,276	77,719	3,5	1007,42	6,1	8,3	8	1	1	1	1	1	1	1	1	1	0	1	-60,394644	273,372208	256,270675	0
14.01.2021	23:40:16	0	0	4,067447	3,40125	64,6812	-0,267	77,753	3,5	1007,5	6,1	8,3	8,1	1	1	1	1	1	1	1	1	1	0	1	-64,975335	273,546868	252,500041	0
14.01.2021	23:40:17	0	0	4,63237	3,396	58,4928	-0,268	77,772	3,5	1007,48	6,1	8,3	8,1	1	1	1	1	1	1	1	1	1	0	1	-63,424947	273,372208	253,240372	0
14.01.2021	23:40:18	0	0	4,293416	3,264	59,1048	-0,272	77,781	3,5	1007,56	6,1	8,3	8,1	1	1	1	1	1	1	1	1	1	0	1	-62,085976	273,558472	255,443273	0
14.01.2021	23:40:19	0	0	3,276554	3,20775	51,4224	-0,273	77,784	3,5	1007,46	6,1	8,3	8,1	1	1	1	1	1	1	1	1	1	0	1	-58,139535	273,49763	259,10732	0
14.01.2021	23:40:20	0	0	2,598647	3,318	51,444	-0,265	77,794	3,5	1007,6	6,1	8,2	8,1	1	1	1	1	1	1	1	1	1	0	1	-63,988724	273,571535	253,601179	0
14.01.2021	23:40:21	0	0	4,180431	3,17925	54,4896	-0,266	77,809	3,5	1007,46	6,1	8,2	8,1	1	1	1	1	1	1	1	1	1	0	1	-60,958421	273,458618	256,107464	0
14.01.2021	23:40:22	0	0	2,9376	2,916	47,7396	-0,264	77,808	3,5	1007,52	6,1	8,3	8,1	1	1	1	1	1	1	1	1	1	0	1	-64,83439	273,557021	252,688122	0
14.01.2021	23:40:23	0	0	4,067471	2,81325	52,506	-0,27	77,807	3,5	1007,5	6,1	8,2	8	1	1	1	1	1	1	1	1	1	0	1	-62,720226	273,464392	254,372442	0
14.01.2021	23:40:24	0	0	3,276554	2,87325	46,98	-0,268	77,812	3,5	1007,26	6,1	8,3	8,1	1	1	1	1	1	1	1	1	1	0	1	-62,367865	273,562825	255,181597	0
14.01.2021	23:40:25	0	0	3,728493	2,805	39,6468	-0,267	77,822	3,5	1007,48	6,1	8,3	8,1	1	1	1	1	1	1	1	1	1	0	1	-64,693446	273,522233	252,667581	0
14.01.2021	23:40:26	0	0	3,954462	2,58	33,2676	-0,263	77,849	3,5	1007,5	6,1	8,2	8,1	1	1	1	1	1	1	1	1	1	0	1	-63,84778	273,564277	253,70842	0
14.01.2021	23:40:27	0	0	5,197293	2,6535	42,912	-0,267	77,836	3,5	1007,54	6,1	8,3	8,1	1	1	1	1	1	1	1	1	1	0	1	-61,804087	273,52513	255,570383	0
14.01.2021	23:40:28	0	0	3,276554	2,74275	47,3652	-0,265	77,846	3,5	1007,4	6,1	8,2	8,1	1	1	1	1	1	1	1	1	1	0	1	-61,592671	273,400968	255,205928	0
14.01.2021	23:40:29	0	0	3,841478	2,79675	59,1156	-0,262	77,823	3,5	1007,58	6,1	8,2	8,1	1	1	1	1	1	1	1	1	1	0	1	-62,297393	273,500522	254,962885	0
14.01.2021	23:40:30	0	0	3,389539	2,802	51,0588	-0,273	77,819	3,5	1007,48	6,1	8,3	8,1	1	1	1	1	1	1	1	1	1	0	1	-62,367865	273,587513	255,296239	0
14.01.2021	23:40:31	0	0	3,841478	2,84025	46,9908	-0,267	77,821	3,5	1007,66	6,1	8,3	8,1	1	1	1	1	1	1	1	1	1	0	1	-64,411557	273,509204	252,889003	0
14.01.2021	23:40:32	0	0	2,824616	2,727	45,1404	-0,268	77,813	3,5	1007,34	6,1	8,2	8,1	1	1	1	1	1	1	1	1	1	0	1	-61,169838	273,402407	255,635432	0
14.01.2021	23:40:33	0	0	3,502524	2,56875	48,834	-0,271	77,804	3,5	1007,32	6,1	8,2	8,1	1	1	1	1	1	1	1	1	1	0	1	-60,887949	273,447074	256,124401	0
14.01.2021	23:40:34	0	0	2,711631	2,45625	41,472	-0,267	77,81	3,5	1007,56	6,1	8,2	8,1	1	1	1	1	1	1	1	1	1	0	1	-62,579281	273,572987	255,017364	0
14.01.2021	23:40:35	0	0	2,824616	2,48775	54,1188	-0,265	77,789	3,5	1007,42	6,1	8,2	8,1	1	1	1	1	1	1	1	1	1	0	1	-61,451727	273,400968	255,346873	0
14.01.2021	23:40:36	0	0	3,16357	2,59725	53,7444	-0,264	77,802	3,5	1007,54	6,1	8,2	8,1	1	1	1	1	1	1	1	1	1	0	1	-62,22692	273,503416	255,046782	0
14.01.2021	23:40:37	0	0	2,372677	2,55675	64,6272	-0,264	77,803	3,5	1007,56	6,1	8,2	8,1	1	1	1	1	1	1	1	1	1	0	1	-64,059197	273,385145	252,666069	0
14.01.2021	23:40:38	0	0	4,63237	2,45325	63,8712	-0,265	77,782	3,5	1007,4	6,1	8,3	8,1	1	1	1	1	1	1	1	1	1	0	1	-60,183228	273,514993	257,144201	0
14.01.2021	23:40:39	0	0	4,293416	2,28075	54,5868	-0,265	77,787	3,5	1007,52	6,1	8,2	8,1	1	1	1	1	1	1	1	1	1	0	1	-60,2537	273,533822	257,161116	0
14.01.2021	23:40:40	0	0	3,841478	2,2905	56,2752	-0,271	77,775	3,5	1007,5	6,1	8,2	8,1	1	1	1	1	1	1	1	1	1	0	1	-58,844257	273,532373	258,563834	0
14.01.2021	23:40:41	0	0	3,615508	2,4	58,1364	-0,269	77,774	3,5	1007,56	6,1	8,2	8,1	1	1	1	1	1	1	1	1	1	0	1	-62,508809	273,546868	254,966567	0
14.01.2021	23:40:42	0	0	3,728493	2,34225	70,2324	-0,27	77,773	3,5	1007,52	6,1	8,2	8,1	1	1	1	1	1	1	1	1	1	0	1	-61,87456	273,568631	255,70186	0
14.01.2021	23:40:43	0	0	2,9376	2,38125	67,2912	-0,271	77,768	3,5	1007,54	6,1	8,2	8,1	1	1	1	1	1	1	1	1	1	0	1	-61,733615	273,444189	255,265358	0
14.01.2021	23:40:44	0	0	2,372677	2,394	55,944	-0,268	77,749	3,5	1007,44	6,1	8,2	8,1	1	1	1	1	1	1	1	1	1	0	1	-62,720226	273,562825	254,829236	0
14.01.2021	23:40:45	0	0	4,180431	2,41125	79,0272	-0,273	77,74	3,5	1007,38	6,1	8,2	8,1	1	1	1	1	1	1	1	1	1	0	1	-60,183228	273,541069	257,265227	0
14.01.2021	23:40:46	0	0	4,63237	2,4795	59,1084	-0,265	77,741	3,5	1007,48	6,1	8,2	8,1	1	1	1	1	1	1	1	1	1	0	1	-60,887949	273,442747	256,104336	0
14.01.2021	23:40:47	0	0	2,711631	2,58225	56,0412	-0,272	77,728	3,5	1007,54	6,1	8,2	8,1	1	1	1	1	1	1	1	1	1	0	1	-61,451727	273,561374	256,090997	0
14.01.2021	23:40:48	0	0	3,050585	2,58225	65,4732	-0,271	77,735	3,5	1007,48	6,1	8,3	8,1	1	1	1	1	1	1	1	1	1	0	1	-64,552502	273,435537	252,406353	0
14.01.2021	23:40:49	0	0	4,067447	2,53875	64,2564	-0,267	77,716	3,5	1007,62	6,1	8,2	8,1	1	1	1	1	1	1	1	1	1	0	1	-56,800564	273,572987	260,796082	0
14.01.2021	23:40:50	0	0	4,745383	2,49975	69,4872	-0,276	77,719	3,5	1007,52	6,1	8,3	8	1	1	1	1	1	1	1	1	1	0	1	-56,800564	273,519337	260,547022	0
14.01.2021	23:40:51	0	0	2,824616	2,40075	65,8476	-0,269	77,71	3,5	1007,48	6,1	8,2	8,1	1	1	1	1	1	1	1	1	1	0	1	-58,491896	273,386583	258,240033	0
14.01.2021	23:40:52	0	0	3,16357	2,352	62,4096	-0,266	77,727	3,5	1007,48	6,1	8,2	8,1	1	1	1	1	1	1	1	1	1	0	1	-62,579281	273,49763	254,667573	0
14.01.2021	23:40:53	0	0	2,9376	2,391	65,0772	-0,271	77,731	3,5	1007,52	6,1	8,2	8,1	1	1	1	1	1	1	1	1	1	0	1	-59,478506	273,399529	257,313423	0
14.01.2021	23:40:54	0	0	4,63237	2,4885	66,2112	-0,274	77,739	3,5	1007,7	6,1	8,2	8,1	1	1	1	1	1	1	1	1	1	0	1	-59,971811	273,507757	257,322034	0
14.01.2021	23:40:55	0	0	4,745355	2,4495	68,0256	-0,273	77,742	3,5	1007,38	6,1	8,2	8,1	1	1	1	1	1	1	1	1	1	0	1	-61,099366	273,575891	256,510766	0
14.01.2021	23:40:56	0	0	2,598647	2,304	67,662	-0,265	77,751	3,5	1007,6	6,1	8,2	8,1	1	1	1	1	1	1	1	1	1	0	1	-63,143058	273,442747	253,849227	0
14.01.2021	23:40:57	0	0	3,728493	2,133	62,0352	-0,271	77,74	3,5	1007,58	6,1	8,2	8,1	1	1	1	1	1	1	1	1	1	0	1	-61,099366	273,580248	256,531001	0
14.01.2021	23:40:58	0	0	3,615508	2,11575	66,546	-0,267	77,755	3,5	1007,66	6,1	8,2	8,1	1	1	1	1	1	1	1	1	1	0	1	-59,055673	273,461505	258,023603	0
14.01.2021	23:40:59	0	0	2,9376	2,268	64,2456	-0,271	77,764	3,5	1007,62	6,1	8,2	8,1	1	1	1	1	1	1	1	1	1	0	1	-60,324172	273,392336	256,434418	0
14.01.2021	23:41:00	0	0	3,954462	2,59725	65,5776	-0,27	77,762	3,5	1007,5	6,1	8,2	8,1	1	1	1	1	1	1	1	1	1	0	1	-62,931642	273,559923	254,604344	0
14.01.2021	23:41:01	0	0	3,954462	2,59725	65,5776	-0,27	77,762	3,5	1007,5	6,1	8,2	8,1	1	1	1	1	1	1	1	1	1	0	1	-62,931642	273,559923	254,604344	0
14.01.2021	23:41:02	0	0	3,728493	2,7495	55,5588	-0,273	77,765	3,5	1007,34	6,1	8,2	8,1	1	1	1	1	1	1	1	1	1	0	1	-59,126145	273,50631	258,160985	0
14.01.2021	23:41:03	0	0	2,598647	2,787	56,2968	-0,27	77,761	3,5	1007,36	6,1	8,2	8,1	1	1	1	1	1	1	1	1	1	0	1	-60,676533	273,56718	256,893147	0
14.01.2021	23:41:04	0	0	2,598647	2,76075	61,6968	-0,27	77,764	3,5	1007,52	6,1	8,2	8,1	1	1	1	1	1	1	1	1	1	0	1	-59,267089	273,490399	257,946219	0
14.01.2021	23:41:05	0	0	4,63237	2,63475	62,784	-0,266	77,761	3,5	1007,64	6,1	8,2	8,1	1	1	1	1	1	1	1	1	1	0	1	-63,495419	273,570083	254,087742	0
14.01.2021	23:41:06	0	0	3,502524	2,613	64,6308	-0,267	77,757	3,5	1007,62	6,1	8,2	8,1	1	1	1	1	1	1	1	1	1	0	1	-60,958421	273,419685	255,926939	0
14.01.2021	23:41:07	0	0	4,745355	2,51775	62,4168	-0,265	77,755	3,5	1007,62	6,1	8,2	8,1	1	1	1	1	1	1	1	1	1	0	1	-56,730092	273,507757	260,563754	0
14.01.2021	23:41:08	0	0	4,519385	2,346	63,9684	-0,27	77,756	3,5	1007,84	6,1	8,2	8,1	1	1	1	1	1	1	1	1	1	0	1	-58,703312	273,386583	258,028617	0
14.01.2021	23:41:09	0	0	4,632398	2,3295	58,1256	-0,27	77,747	3,5	1007,76	6,1	8,3	8	1	1	1	1	1	1	1	1	1	0	1	-60,324172	273,491845	256,895844	0
14.01.2021	23:41:10	0	0	4,63237	2,54325	60,9444	-0,267	77,749	3,5	1007,6	6,1	8,2	8,1	1	1	1	1	1	1	1	1	1	0	1	-57,716702	273,562825	259,83276	0
14.01.2021	23:41:11	0	0	5,197293	2,72625	56,6856	-0,275	77,769	3,5	1007,64	6,1	8,2	8,1	1	1	1	1	1	1	1	1	1	0	1	-62,649753	273,493291	254,576972	0
14.01.2021	23:41:12	0	0	2,485647	2,83425	60,2424	-0,251	77,782	3,5	1007,62	6,1	8,2	8,2	1	1	1	1	1	1	1	1	1	0	1	-64,975335	273,56718	252,594345	0
14.01.2021	23:41:13	0	0	2,824616	2,87625	54,8028	-0,269	77,769	3,5	1007,34	6,1	8,2	8,1	1	1	1	1	1	1	1	1	1	0	1	-58,210007	273,491845	259,010009	0
14.01.2021	23:41:14	0	0	3,615508	2,84625	60,9408	-0,268	77,772	3,5	1007,5	6,1	8,2	8,1	1	1	1	1	1	1	1	1	1	0	1	-63,284003	273,559923	254,251983	0
14.01.2021	23:41:15	0	0	2,824616	2,7435	57,402	-0,274	77,804	3,5	1007,44	6,1	8,2	8,1	1	1	1	1	1	1	1	1	1	0	1	-59,267089	273,480281	257,89928	0
14.01.2021	23:41:16	0	0	3,389539	2,55075	61,7076	-0,272	77,787	3,5	1007,44	6,1	8,2	8,1	1	1	1	1	1	1	1	1	1	0	1	-57,928118	273,377957	258,763838	0
14.01.2021	23:41:17	0	0	2,824616	2,71725	64,6272	-0,264	77,792	3,5	1007,68	6,1	8,2	8,1	1	1	1	1	1	1	1	1	1	0	1	-67,44186	273,499076	249,811705	0
14.01.2021	23:41:18	0	0	4,858339	2,80275	57,0492	-0,266	77,797	3,5	1007,48	6,1	8,2	8,1	1	1	1	1	1	1	1	1	1	0	1	-61,522199	273,390897	255,229725	0
14.01.2021	23:41:19	0	0	3,728493	2,754	60,2496	-0,268	77,801	3,5	1007,24	6,1	8,3	8,1	1	1	1	1	1	1	1	1	1	0	1	-64,552502	273,389459	252,192756	0
14.01.2021	23:41:20	0	0	3,841478	2,667	60,2496	-0,274	77,791	3,5	1007,48	6,1	8,2	8,1	1	1	1	1	1	1	1	1	1	0	1	-57,998591	273,513546	259,32212	0
14.01.2021	23:41:21	0	0	4,519385	2,6085	60,5592	-0,269	77,784	3,5	1007,52	6	8,2	8,1	1	1	1	1	1	1	1	1	1	0	1	-60,606061	273,56718	256,963619	0
14.01.2021	23:41:22	0	0	4,858339	2,511	57,0528	-0,276	77,788	3,5	1007,48	6,1	8,2	8,1	1	1	1	1	1	1	1	1	1	0	1	-64,129669	273,471613	252,99649	0
14.01.2021	23:41:23	0	0	2,598647	2,43075	59,4864	-0,271	77,79	3,5	1007,6	6,1	8,2	8,1	1	1	1	1	1	1	1	1	1	0	1	-60,747005	273,541069	256,701449	0
14.01.2021	23:41:24	0	0	3,389539	2,40975	60,5448	-0,269	77,789	3,5	1007,58	6,1	8,2	8,1	1	1	1	1	1	1	1	1	1	0	1	-64,270613	273,533822	253,144203	0
14.01.2021	23:41:25	0	0	3,050585	2,44875	54,4932	-0,265	77,783	3,5	1007,66	6,1	8,2	8,1	1	1	1	1	1	1	1	1	1	0	1	-61,169838	273,480281	255,996531	0
14.01.2021	23:41:26	0	0	3,389539	2,46375	43,3008	-0,267	77,778	3,5	1007,58	6,1	8,2	8,1	1	1	1	1	1	1	1	1	1	0	1	-63,84778	273,388021	252,890813	0
14.01.2021	23:41:27	0	0	2,711631	2,43	59,868	-0,273	77,774	3,5	1007,64	6	8,2	8,1	1	1	1	1	1	1	1	1	1	0	1	-61,24031	273,551219	256,255264	0
14.01.2021	23:41:28	0	0	4,632398	2,352	66,2508	-0,272	77,768	3,5	1007,38	6,1	8,2	8	1	1	1	1	1	1	1	1	1	0	1	-57,928118	273,39809	258,857142	0
14.01.2021	23:41:29	0	0	2,711631	2,4285	62,046	-0,274	77,774	3,5	1007,64	6,1	8,3	8,1	1	1	1	1	1	1	1	1	1	0	1	-66,807611	273,507757	250,486234	0
14.01.2021	23:41:30	0	0	4,519358	2,409	69,858	-0,268	77,773	3,5	1007,66	6,1	8,2	8,2	1	1	1	1	1	1	1	1	1	0	1	-60,2537	273,380832	256,451578	0
14.01.2021	23:41:31	0	0	4,745326	2,53725	67,302	-0,273	77,757	3,5	1007,5	6,1	8,2	8,2	1	1	1	1	1	1	1	1	1	0	1	-60,042283	273,438421	256,929942	0
14.01.2021	23:41:32	0	0	3,615508	2,72925	69,4836	-0,271	77,744	3,5	1007,24	6,1	8,3	8,1	1	1	1	1	1	1	1	1	1	0	1	-59,126145	273,377957	257,565811	0
14.01.2021	23:41:33	0	0	4,971324	2,766	68,0436	-0,279	77,737	3,5	1007,44	6,1	8,2	8,1	1	1	1	1	1	1	1	1	1	0	1	-64,270613	273,448517	252,748427	0
14.01.2021	23:41:34	0	0	3,276554	2,655	62,8848	-0,271	77,73	3,5	1007,42	6	8,2	8,1	1	1	1	1	1	1	1	1	1	0	1	-63,072586	273,545418	254,396058	0
14.01.2021	23:41:35	0	0	3,615487	2,46975	59,4792	-0,275	77,758	3,5	1007,54	6,1	8,2	8,2	1	1	1	1	1	1	1	1	1	0	1	-59,61945	273,483172	257,560327	0
14.01.2021	23:41:36	0	0	3,841478	2,34525	59,472	-0,274	77,752	3,5	1007,64	6	8,2	8,1	1	1	1	1	1	1	1	1	1	0	1	-59,055673	273,367898	257,589675	0
14.01.2021	23:41:37	0	0	3,954462	2,247	54,1008	-0,274	77,735	3,5	1007,38	6,1	8,3	8,1	1	1	1	1	1	1	1	1	1	0	1	-62,22692	273,42833	254,698519	0
14.01.2021	23:41:38	0	0	3,389539	2,2395	66,24	-0,279	77,74	3,5	1007,38	6	8,2	8,1	1	1	1	1	1	1	1	1	1	0	1	-59,830867	273,549768	257,657974	0
14.01.2021	23:41:39	0	0	2,824616	2,235	63,4932	-0,272	77,726	3,5	1007,38	6,1	8,2	8,1	1	1	1	1	1	1	1	1	1	0	1	-54,897815	273,477391	262,255148	0
14.01.2021	23:41:40	0	0	3,16357	2,1945	68,1156	-0,278	77,727	3,5	1007,66	6,1	8,2	8,1	1	1	1	1	1	1	1	1	1	0	1	-60,394644	273,373645	256,277334	0
14.01.2021	23:41:41	0	0	4,858368	2,1255	76,3812	-0,276	77,721	3,5	1007,48	6,1	8,2	8	1	1	1	1	1	1	1	1	1	0	1	-59,478506	273,488953	257,728095	0
14.01.2021	23:41:42	0	0	4,519385	2,0235	61,3152	-0,285	77,707	3,5	1007,44	6	8,3	8,1	1	1	1	1	1	1	1	1	1	0	1	-60,606061	273,382269	256,105879	0
14.01.2021	23:41:43	0	0	4,971324	1,968	58,4964	-0,274	77,717	3,5	1007,5	6	8,2	8,1	1	1	1	1	1	1	1	1	1	0	1	-63,143058	273,49763	254,103796	0
14.01.2021	23:41:44	0	0	2,711631	1,953	48,8232	-0,272	77,72	3,5	1007,66	6	8,3	8,1	1	1	1	1	1	1	1	1	1	0	1	-55,03876	273,373645	261,633218	0
14.01.2021	23:41:45	0	0	3,050585	1,94775	52,128	-0,281	77,708	3,5	1007,6	6	8,2	8,1	1	1	1	1	1	1	1	1	1	0	1	-58,421424	273,412484	258,430555	0
14.01.2021	23:41:46	0	0	3,841478	2,025	51,768	-0,279	77,704	3,5	1007,5	6	8,3	8,1	1	1	1	1	1	1	1	1	1	0	1	-62,508809	273,49763	254,738046	0
14.01.2021	23:41:47	0	0	2,711647	2,091	52,8984	-0,275	77,711	3,5	1007,6	6	8,2	8	1	1	1	1	1	1	1	1	1	0	1	-57,505285	273,366461	259,133407	0
14.01.2021	23:41:48	0	0	3,16357	2,1255	62,4204	-0,278	77,722	3,5	1007,46	6	8,3	8,1	1	1	1	1	1	1	1	1	1	0	1	-60,042283	273,419685	256,843077	0
14.01.2021	23:41:49	0	0	2,598647	2,05425	47,3796	-0,281	77,711	3,5	1007,54	6	8,3	8,1	1	1	1	1	1	1	1	1	1	0	1	-60,465116	273,369335	256,186888	0
14.01.2021	23:41:50	0	0	2,9376	1,9875	65,106	-0,277	77,71	3,5	1007,56	6	8,3	8,1	1	1	1	1	1	1	1	1	1	0	1	-60,183228	273,483172	256,99655	0
14.01.2021	23:41:51	0	0	3,276554	1,9125	55,548	-0,277	77,716	3,5	1007,58	6	8,2	8,1	1	1	1	1	1	1	1	1	1	0	1	-58,210007	273,370771	258,448655	0
14.01.2021	23:41:52	0	0	2,598647	1,8915	48,8376	-0,284	77,707	3,5	1007,4	6	8,3	8,1	1	1	1	1	1	1	1	1	1	0	1	-58,985201	273,490399	258,228107	0
14.01.2021	23:41:53	0	0	4,971294	2,14875	34,7148	-0,279	77,705	3,5	1007,52	6,1	8,3	8,2	1	1	1	1	1	1	1	1	1	0	1	-64,270613	273,530924	253,130752	0
14.01.2021	23:41:54	0	0	5,084278	2,7075	40,2588	-0,28	77,716	3,5	1007,54	6	8,3	8,2	1	1	1	1	1	1	1	1	1	0	1	-57,716702	273,444189	259,282271	0
14.01.2021	23:41:55	0	0	3,61553	3,318	53,3556	-0,281	77,711	3,5	1007,36	6	8,3	8	1	1	1	1	1	1	1	1	1	0	1	-61,028894	273,389459	255,716365	0
14.01.2021	23:41:56	0	0	3,615508	3,69225	65,4732	-0,278	77,71	3,5	1007,48	6	8,3	8,1	1	1	1	1	1	1	1	1	1	0	1	-62,86117	273,493291	254,365555	0
14.01.2021	23:41:57	0	0	4,632342	3,66375	39,5568	-0,286	77,722	3,5	1007,62	6	8,3	8,2	1	1	1	1	1	1	1	1	1	0	1	-60,465116	273,494737	256,768318	0
14.01.2021	23:41:58	0	0	4,519358	3,693	55,1808	-0,282	77,727	3,5	1007,54	6	8,3	8,2	1	1	1	1	1	1	1	1	1	0	1	-65,257223	273,356409	251,334895	0
14.01.2021	23:41:59	0	0	4,293416	3,70875	56,2752	-0,28	77,738	3,5	1007,62	6	8,3	8,1	1	1	1	1	1	1	1	1	1	0	1	-60,042283	273,380832	256,662995	0
14.01.2021	23:42:00	0	0	2,711631	3,68325	49,5828	-0,283	77,766	3,5	1007,6	6	8,3	8,1	1	1	1	1	1	1	1	1	1	0	1	-60,958421	273,395213	255,813502	0
14.01.2021	23:42:01	0	0	2,711631	3,68325	49,5828	-0,283	77,766	3,5	1007,6	6	8,3	8,1	1	1	1	1	1	1	1	1	1	0	1	-60,958421	273,395213	255,813502	0
14.01.2021	23:42:02	0	0	4,971294	3,5895	44,0532	-0,292	77,77	3,5	1007,5	6	8,3	8,2	1	1	1	1	1	1	1	1	1	0	1	-59,408034	273,352102	257,164133	0
14.01.2021	23:42:03	0	0	5,084308	3,8715	45,8532	-0,281	77,791	3,5	1007,52	6	8,3	8,1	1	1	1	1	1	1	1	1	1	0	1	-60,887949	273,473057	256,24491	0
14.01.2021	23:42:04	0	0	4,180431	4,16025	40,266	-0,28	77,821	3,5	1007,64	6	8,3	8,1	1	1	1	1	1	1	1	1	1	0	1	-59,337562	273,357844	257,261208	0
14.01.2021	23:42:05	0	0	3,16357	4,0065	38,8116	-0,285	77,828	3,5	1007,64	6	8,3	8,1	1	1	1	1	1	1	1	1	1	0	1	-56,02537	273,452845	261,013743	0
14.01.2021	23:42:06	0	0	3,728493	4,1085	52,8876	-0,281	77,85	3,5	1007,56	6	8,3	8,1	1	1	1	1	1	1	1	1	1	0	1	-62,22692	273,528027	255,160996	0
14.01.2021	23:42:07	0	0	3,050585	4,14675	50,0148	-0,288	77,857	3,5	1007,5	6	8,3	8,1	1	1	1	1	1	1	1	1	1	0	1	-57,998591	273,431213	258,940213	0
14.01.2021	23:42:08	0	0	4,519385	3,9405	47,3544	-0,283	77,888	3,5	1007,54	6,1	8,1	8,1	1	1	1	1	1	1	1	1	1	0	1	-63,84778	273,535271	253,573762	0
14.01.2021	23:42:09	0	0	4,858339	3,6705	46,2312	-0,287	77,893	3,5	1007,42	6,1	8,3	8,1	1	1	1	1	1	1	1	1	1	0	1	-61,733615	273,448517	255,285425	0
14.01.2021	23:42:10	0	0	2,598647	3,65025	48,1284	-0,289	77,923	3,5	1007,42	6	8,3	8,1	1	1	1	1	1	1	1	1	1	0	1	-58,703312	273,354973	257,882155	0
14.01.2021	23:42:11	0	0	4,293416	3,5445	51,75	-0,288	77,918	3,5	1007,46	6,1	8,3	8,1	1	1	1	1	1	1	1	1	1	0	1	-63,284003	273,399529	253,507927	0
14.01.2021	23:42:12	0	0	3,276554	3,5055	44,4024	-0,286	77,941	3,5	1007,44	6	8,3	8,1	1	1	1	1	1	1	1	1	1	0	1	-60,747005	273,360716	255,86507	0
14.01.2021	23:42:13	0	0	3,163551	3,6705	40,2444	-0,288	77,939	3,5	1007,52	6,1	8,3	8,2	1	1	1	1	1	1	1	1	1	0	1	-62,438337	273,390897	254,313587	0
14.01.2021	23:42:14	0	0	4,406374	3,90975	50,328	-0,285	77,967	3,5	1007,58	6,1	8,3	8,2	1	1	1	1	1	1	1	1	1	0	1	-61,310782	273,486062	255,882406	0
14.01.2021	23:42:15	0	0	4,971324	4,062	47,7324	-0,284	77,952	3,5	1007,52	6	8,3	8,1	1	1	1	1	1	1	1	1	1	0	1	-60,887949	273,507757	256,405896	0
14.01.2021	23:42:16	0	0	2,711631	3,93675	45,8496	-0,284	77,954	3,5	1007,6	6,1	8,3	8,1	1	1	1	1	1	1	1	1	1	0	1	-61,804087	273,352102	254,76808	0
14.01.2021	23:42:17	0	0	4,971324	4,03575	58,4856	-0,288	77,975	3,5	1007,42	6	8,3	8,1	1	1	1	1	1	1	1	1	1	0	1	-61,733615	273,438421	255,23861	0
14.01.2021	23:42:18	0	0	4,858339	3,81825	71,5968	-0,289	77,975	3,5	1007,5	6,1	8,3	8,1	1	1	1	1	1	1	1	1	1	0	1	-57,364341	273,360716	259,247734	0
14.01.2021	23:42:19	0	0	3,841478	3,5925	59,1048	-0,288	77,99	3,5	1007,6	6,1	8,3	8,1	1	1	1	1	1	1	1	1	1	0	1	-60,042283	273,470169	257,077176	0
14.01.2021	23:42:20	0	0	3,728493	3,35625	63,1908	-0,29	77,999	3,5	1007,48	6,1	8,3	8,1	1	1	1	1	1	1	1	1	1	0	1	-59,126145	273,356409	257,465973	0
14.01.2021	23:42:21	0	0	2,598647	3,13875	69,1632	-0,29	78,014	3,5	1007,64	6	8,3	8,1	1	1	1	1	1	1	1	1	1	0	1	-60,747005	273,436979	256,218534	0
14.01.2021	23:42:22	0	0	4,406401	3,15225	59,1192	-0,288	78,041	3,5	1007,6	6	8,3	8,1	1	1	1	1	1	1	1	1	1	0	1	-57,716702	273,35928	258,88872	0
14.01.2021	23:42:23	0	0	4,971324	3,1125	49,212	-0,281	78,06	3,5	1007,6	6,1	8,3	8,1	1	1	1	1	1	1	1	1	1	0	1	-55,743481	273,520785	261,610824	0
14.01.2021	23:42:24	0	0	3,16357	3,033	49,5684	-0,284	78,076	3,5	1007,58	6,1	8,3	8,1	1	1	1	1	1	1	1	1	1	0	1	-65,186751	273,480281	251,979618	0
14.01.2021	23:42:25	0	0	5,423262	2,871	69,1668	-0,289	78,083	3,5	1007,56	6	8,3	8,1	1	1	1	1	1	1	1	1	1	0	1	-62,790698	273,517889	254,550168	0
14.01.2021	23:42:26	0	0	2,485662	2,83725	59,8608	-0,286	78,101	3,5	1007,64	6,1	8,3	8,1	1	1	1	1	1	1	1	1	1	0	1	-59,267089	273,517889	258,073776	0
14.01.2021	23:42:27	0	0	4,63237	2,93475	57,0456	-0,284	78,106	3,5	1007,6	6,1	8,3	8,1	1	1	1	1	1	1	1	1	1	0	1	-63,706836	273,484617	253,479646	0
14.01.2021	23:42:28	0	0	4,858339	2,9475	52,902	-0,285	78,107	3,5	1007,6	6,1	8,3	8,1	1	1	1	1	1	1	1	1	1	0	1	-59,337562	273,377957	257,354394	0
14.01.2021	23:42:29	0	0	4,406401	2,85825	54,4824	-0,285	78,098	3,5	1007,64	6,1	8,3	8,1	1	1	1	1	1	1	1	1	1	0	1	-59,971811	273,533822	257,443005	0
14.01.2021	23:42:30	0	0	2,711631	2,8245	56,2788	-0,284	78,112	3,5	1007,64	6,1	8,3	8,1	1	1	1	1	1	1	1	1	1	0	1	-63,002114	273,461505	254,077161	0
14.01.2021	23:42:31	0	0	3,841478	2,87325	60,2532	-0,284	78,102	3,5	1007,64	6,1	8,3	8,1	1	1	1	1	1	1	1	1	1	0	1	-58,139535	273,507757	259,15431	0
14.01.2021	23:42:32	0	0	3,615508	2,8935	62,0496	-0,284	78,104	3,5	1007,42	6,1	8,3	8,1	1	1	1	1	1	1	1	1	1	0	1	-60,042283	273,42833	256,883156	0
14.01.2021	23:42:33	0	0	3,389539	2,86725	61,704	-0,279	78,103	3,5	1007,56	6,1	8,3	8,1	1	1	1	1	1	1	1	1	1	0	1	-62,86117	273,344926	253,677757	0
14.01.2021	23:42:34	0	0	3,389539	2,8815	62,766	-0,287	78,089	3,5	1007,56	6,1	8,3	8,1	1	1	1	1	1	1	1	1	1	0	1	-64,129669	273,372208	252,535651	0
14.01.2021	23:42:35	0	0	3,728493	3,08925	65,4948	-0,28	78,104	3,5	1007,6	6,1	8,3	8,1	1	1	1	1	1	1	1	1	1	0	1	-63,143058	273,354973	253,442409	0
14.01.2021	23:42:36	0	0	4,745355	3,28725	68,0292	-0,277	78,102	3,5	1007,54	6,1	8,3	8,1	1	1	1	1	1	1	1	1	1	0	1	-62,931642	273,480281	254,234727	0
14.01.2021	23:42:37	0	0	2,711631	3,384	53,37	-0,279	78,088	3,5	1007,5	6,1	8,3	8,1	1	1	1	1	1	1	1	1	1	0	1	-65,46864	273,362152	251,150089	0
14.01.2021	23:42:38	0	0	4,067447	3,2445	55,9404	-0,282	78,085	3,5	1007,5	6,1	8,3	8,1	1	1	1	1	1	1	1	1	1	0	1	-59,337562	273,517889	258,003304	0
14.01.2021	23:42:39	0	0	2,598647	3,228	58,5036	-0,286	78,065	3,5	1007,58	6,1	8,3	8,1	1	1	1	1	1	1	1	1	1	0	1	-62,720226	273,480281	254,446144	0
14.01.2021	23:42:40	0	0	3,16357	3,2865	56,2896	-0,277	78,079	3,5	1007,54	6	8,3	8,1	1	1	1	1	1	1	1	1	1	0	1	-64,622974	273,349231	251,935895	0
14.01.2021	23:42:41	0	0	3,841478	3,36075	53,3592	-0,279	78,082	3,5	1007,6	6,1	8,3	8,1	1	1	1	1	1	1	1	1	1	0	1	-61,099366	273,520785	256,25494	0
14.01.2021	23:42:42	0	0	2,9376	3,37725	59,1084	-0,28	78,086	3,5	1007,6	6,1	8,3	8,1	1	1	1	1	1	1	1	1	1	0	1	-61,592671	273,49763	255,654184	0
14.01.2021	23:42:43	0	0	3,841478	3,312	68,4432	-0,278	78,076	3,5	1007,66	6,1	8,3	8,1	1	1	1	1	1	1	1	1	1	0	1	-63,706836	273,520785	253,64747	0
14.01.2021	23:42:44	0	0	2,824616	3,243	58,878	-0,282	78,059	3,5	1007,46	6,1	8,3	8,1	1	1	1	1	1	1	1	1	1	0	1	-60,817477	273,392336	255,941113	0
14.01.2021	23:42:45	0	0	3,615508	3,495	56,286	-0,277	78,063	3,5	1007,7	6	8,3	8,1	1	1	1	1	1	1	1	1	1	0	1	-60,112755	273,369335	256,539249	0
14.01.2021	23:42:46	0	0	2,9376	3,7275	54,1116	-0,274	78,053	3,5	1007,48	6,1	8,1	8,1	1	1	1	1	1	1	1	1	1	0	1	-63,072586	273,439863	253,906325	0
14.01.2021	23:42:47	0	0	2,598647	3,57375	51,084	-0,274	78,044	3,5	1007,7	6,1	8,1	8,1	1	1	1	1	1	1	1	1	1	0	1	-58,703312	273,526578	258,677881	0
14.01.2021	23:42:48	0	0	4,63237	3,4365	44,7696	-0,279	78,038	3,5	1007,46	6,1	8,3	8,1	1	1	1	1	1	1	1	1	1	0	1	-64,200141	273,422567	252,698577	0
14.01.2021	23:42:49	0	0	3,502524	3,345	53,7408	-0,284	78,03	3,5	1007,64	6	8,3	8,1	1	1	1	1	1	1	1	1	1	0	1	-60,535588	273,535271	256,885954	0
14.01.2021	23:42:50	0	0	3,841478	3,2925	39,1752	-0,29	78,022	3,5	1007,46	6,1	8,1	8,1	1	1	1	1	1	1	1	1	1	0	1	-58,210007	273,452845	258,829106	0
14.01.2021	23:42:51	0	0	4,067447	3,09225	50,3244	-0,28	78,04	3,5	1007,58	6,1	8,3	8,1	1	1	1	1	1	1	1	1	1	0	1	-58,844257	273,514993	258,483172	0
14.01.2021	23:42:52	0	0	3,050585	2,856	45,162	-0,288	78,024	3,5	1007,24	6,1	8,3	8,1	1	1	1	1	1	1	1	1	1	0	1	-63,636364	273,411045	253,208941	0
14.01.2021	23:42:53	0	0	4,293416	2,6085	52,1424	-0,278	78,03	3,5	1007,5	6,1	8,3	8,1	1	1	1	1	1	1	1	1	1	0	1	-62,367865	273,520785	254,986441	0
14.01.2021	23:42:54	0	0	4,63237	2,48175	34,7184	-0,285	78,025	3,5	1007,8	6,1	8,3	8,1	1	1	1	1	1	1	1	1	1	0	1	-61,945032	273,411045	254,900273	0
14.01.2021	23:42:55	0	0	3,050585	2,664	63,8748	-0,279	78,022	3,5	1007,5	6,1	8,3	8,1	1	1	1	1	1	1	1	1	1	0	1	-63,213531	273,542518	254,241653	0
14.01.2021	23:42:56	0	0	2,9376	2,75775	59,8644	-0,284	78,005	3,5	1007,34	6,1	8,3	8,1	1	1	1	1	1	1	1	1	1	0	1	-61,028894	273,405286	255,789718	0
14.01.2021	23:42:57	0	0	3,050585	2,86425	55,5696	-0,28	78,021	3,5	1007,76	6,1	8,3	8,1	1	1	1	1	1	1	1	1	1	0	1	-60,747005	273,365025	255,885032	0
14.01.2021	23:42:58	0	0	3,615508	2,79825	54,4824	-0,286	78,013	3,5	1007,62	6,1	8,3	8,1	1	1	1	1	1	1	1	1	1	0	1	-63,84778	273,458618	253,218106	0
14.01.2021	23:42:59	0	0	4,858339	2,64	39,5568	-0,288	78,03	3,5	1007,6	6,1	8,3	8,1	1	1	1	1	1	1	1	1	1	0	1	-62,86117	273,349231	253,6977	0
14.01.2021	23:43:00	0	0	2,824616	2,62875	64,2564	-0,277	78,02	3,5	1007,32	6,1	8,3	8,1	1	1	1	1	1	1	1	1	1	0	1	-61,028894	273,362152	255,589835	0
14.01.2021	23:43:01	0	0	3,16357	2,6565	59,8896	-0,287	78,002	3,5	1007,38	6,1	8,3	8,1	1	1	1	1	1	1	1	1	1	0	1	-61,028894	273,362152	255,589835	0
14.01.2021	23:43:02	0	0	3,16357	2,6565	59,8896	-0,287	78,002	3,5	1007,38	6,1	8,3	8,1	1	1	1	1	1	1	1	1	1	0	1	-58,562368	273,493291	258,664357	0
14.01.2021	23:43:03	0	0	3,954462	2,8545	50,6916	-0,28	78,027	3,5	1007,62	6,1	8,1	8,1	1	1	1	1	1	1	1	1	1	0	1	-66,032417	273,532373	251,375673	0
14.01.2021	23:43:04	0	0	3,728493	2,72175	75,6216	-0,284	78,018	3,5	1007,54	6,1	8,3	8,1	1	1	1	1	1	1	1	1	1	0	1	-60,958421	273,409605	255,880209	0
14.01.2021	23:43:05	0	0	5,310278	2,57325	47,7648	-0,283	78,031	3,5	1007,54	6,1	8,1	8,1	1	1	1	1	1	1	1	1	1	0	1	-59,830867	273,535271	257,590676	0
14.01.2021	23:43:06	0	0	3,841478	2,559	51,2136	-0,284	78,038	3,5	1007,4	6,1	8,1	8,1	1	1	1	1	1	1	1	1	1	0	1	-59,61945	273,447074	257,3929	0
14.01.2021	23:43:07	0	0	3,276554	2,523	56,6676	-0,262	78,059	3,5	1007,64	6,1	8,3	8,1	1	1	1	1	1	1	1	1	1	0	1	-63,213531	273,370771	253,445131	0
14.01.2021	23:43:08	0	0	3,050585	2,37675	63,1872	-0,282	78,064	3,5	1007,54	6,1	8,3	8,1	1	1	1	1	1	1	1	1	1	0	1	-59,126145	273,383707	257,592457	0
14.01.2021	23:43:09	0	0	2,598647	2,256	44,7876	-0,283	78,044	3,5	1007,64	6,1	8,3	8,1	1	1	1	1	1	1	1	1	1	0	1	-60,324172	273,539619	257,117553	0
14.01.2021	23:43:10	0	0	4,519385	2,25825	51,0696	-0,281	78,086	3,5	1007,54	6,1	8,1	8,1	1	1	1	1	1	1	1	1	1	0	1	-61,733615	273,42833	255,191824	0
14.01.2021	23:43:11	0	0	2,711631	2,34675	57,7512	-0,28	78,098	3,5	1007,56	6,1	8,3	8,1	1	1	1	1	1	1	1	1	1	0	1	-63,424947	273,53817	254,01005	0
14.01.2021	23:43:12	0	0	4,067447	2,44125	53,3808	-0,28	78,077	3,5	1007,46	6,1	8,3	8,1	1	1	1	1	1	1	1	1	1	0	1	-57,857646	273,392336	258,900944	0
14.01.2021	23:43:13	0	0	4,971324	2,57775	60,5628	-0,287	78,083	3,5	1007,5	6,1	8,3	8,1	1	1	1	1	1	1	1	1	1	0	1	-62,367865	273,353537	254,210952	0
14.01.2021	23:43:14	0	0	4,63237	2,5425	70,8552	-0,283	78,087	3,5	1007,66	6,1	8,3	8,1	1	1	1	1	1	1	1	1	1	0	1	-56,871036	273,478836	260,28863	0
14.01.2021	23:43:15	0	0	4,293416	2,925	73,4472	-0,281	78,085	3,5	1007,56	6,1	8,3	8,1	1	1	1	1	1	1	1	1	1	0	1	-60,112755	273,509204	257,187805	0
14.01.2021	23:43:16	0	0	2,485662	3,3315	62,0424	-0,279	78,089	3,5	1007,58	6,1	8,3	8,1	1	1	1	1	1	1	1	1	1	0	1	-60,747005	273,411045	256,098299	0
14.01.2021	23:43:17	0	0	4,406401	3,48975	69,1632	-0,277	78,088	3,5	1007,56	6,1	8,3	8,1	1	1	1	1	1	1	1	1	1	0	1	-68,07611	273,53817	249,358887	0
14.01.2021	23:43:18	0	0	4,63237	3,4665	69,4872	-0,28	78,077	3,5	1007,42	6,1	8,3	8,1	1	1	1	1	1	1	1	1	1	0	1	-61,099366	273,434096	255,852804	0
14.01.2021	23:43:19	0	0	2,824616	3,4665	69,4548	-0,278	78,072	3,5	1007,58	6,1	8,3	8,1	1	1	1	1	1	1	1	1	1	0	1	-61,945032	273,530924	255,456333	0
14.01.2021	23:43:20	0	0	2,485662	3,471	68,0364	-0,282	78,064	3,5	1007,38	6,1	8,3	8,1	1	1	1	1	1	1	1	1	1	0	1	-59,337562	273,419685	257,547799	0
14.01.2021	23:43:21	0	0	5,084308	3,26925	60,2568	-0,279	78,074	3,5	1007,48	6,1	8,3	8,1	1	1	1	1	1	1	1	1	1	0	1	-62,367865	273,53817	255,067132	0
14.01.2021	23:43:22	0	0	5,084308	3,07275	69,8436	-0,279	78,081	3,5	1007,54	6,1	8,3	8,1	1	1	1	1	1	1	1	1	1	0	1	-63,777308	273,480281	253,389061	0
14.01.2021	23:43:23	0	0	4,519467	2,8215	65,0952	-0,28	78,059	3,5	1007,56	6,1	8,1	7,8	1	1	1	1	1	1	1	1	1	0	1	-60,465116	273,533822	256,9497	0
14.01.2021	23:43:24	0	0	4,293416	2,6025	84,0564	-0,284	78,072	3,5	1007,52	6,1	8,1	8,1	1	1	1	1	1	1	1	1	1	0	1	-60,887949	273,484617	256,298533	0
14.01.2021	23:43:25	0	0	3,954462	2,28825	72,3024	-0,278	78,075	3,5	1007,54	6,1	8,3	8,1	1	1	1	1	1	1	1	1	1	0	1	-62,085976	273,528027	255,30194	0
14.01.2021	23:43:26	0	0	4,519385	2,23125	73,7928	-0,281	78,064	3,5	1007,52	6,1	8,1	8,1	1	1	1	1	1	1	1	1	1	0	1	-64,270613	273,461505	252,808662	0
14.01.2021	23:43:27	0	0	3,050585	2,211	59,8608	-0,28	78,065	3,5	1007,5	6,1	8,1	8,1	1	1	1	1	1	1	1	1	1	0	1	-58,421424	273,346361	258,12415	0
14.01.2021	23:43:28	0	0	4,180431	2,235	58,0932	-0,286	78,032	3,5	1007,42	6,1	8,3	8,1	1	1	1	1	1	1	1	1	1	0	1	-62,931642	273,490399	254,281666	0
14.01.2021	23:43:29	0	0	2,711631	2,526	60,2496	-0,277	78,041	3,5	1007,58	6,1	8,3	8,1	1	1	1	1	1	1	1	1	1	0	1	-60,042283	273,389459	256,702975	0
14.01.2021	23:43:30	0	0	4,406401	2,7435	70,2288	-0,278	78,036	3,5	1007,62	6,1	8,3	8,1	1	1	1	1	1	1	1	1	1	0	1	-59,901339	273,545418	257,567306	0
14.01.2021	23:43:31	0	0	4,858339	2,82975	76,8168	-0,28	78,011	3,5	1007,64	6,1	8,1	8,1	1	1	1	1	1	1	1	1	1	0	1	-60,394644	273,424007	256,510753	0
14.01.2021	23:43:32	0	0	3,841478	2,95425	65,484	-0,276	77,984	3,5	1007,64	6,1	8,1	8,1	1	1	1	1	1	1	1	1	1	0	1	-59,478506	273,377957	257,21345	0
14.01.2021	23:43:33	0	0	4,745355	2,91075	77,9724	-0,277	77,969	3,5	1007,54	6,1	8,3	8,1	1	1	1	1	1	1	1	1	1	0	1	-61,451727	273,411045	255,393578	0
14.01.2021	23:43:34	0	0	3,728493	2,769	65,0844	-0,277	77,977	3,5	1007,52	6,1	8,3	8,1	1	1	1	1	1	1	1	1	1	0	1	-62,22692	273,346361	254,318654	0
14.01.2021	23:43:35	0	0	3,16357	2,61825	68,4	-0,28	77,951	3,5	1007,42	6,1	8,1	8,1	1	1	1	1	1	1	1	1	1	0	1	-58,63284	273,399529	258,159089	0
14.01.2021	23:43:36	0	0	3,615508	2,65125	66,9312	-0,284	77,935	3,5	1007,52	6,1	8,3	8,1	1	1	1	1	1	1	1	1	1	0	1	-62,649753	273,349231	253,909116	0
14.01.2021	23:43:37	0	0	4,293416	2,44275	71,2224	-0,286	77,926	3,5	1007,56	6,1	8,1	8,1	1	1	1	1	1	1	1	1	1	0	1	-59,830867	273,49763	257,415988	0
14.01.2021	23:43:38	0	0	3,050585	2,33475	46,2348	-0,286	77,907	3,5	1007,58	6,1	8,1	8,1	1	1	1	1	1	1	1	1	1	0	1	-61,522199	273,523681	255,845549	0
14.01.2021	23:43:39	0	0	3,841478	2,4165	54,486	-0,279	77,921	3,5	1007,54	6,1	8,1	8,1	1	1	1	1	1	1	1	1	1	0	1	-57,293869	273,499076	259,959697	0
14.01.2021	23:43:40	0	0	3,954462	2,556	54,0936	-0,28	77,905	3,5	1007,52	6,1	8,3	8,1	1	1	1	1	1	1	1	1	1	0	1	-61,945032	273,416805	254,926974	0
14.01.2021	23:43:41	0	0	2,9376	2,66775	53,352	-0,284	77,908	3,5	1007,38	6,1	8,3	8,1	1	1	1	1	1	1	1	1	1	0	1	-62,649753	273,535271	254,771789	0
14.01.2021	23:43:42	0	0	4,971324	2,50725	55,908	-0,282	77,899	3,5	1007,56	6,1	8,3	8,1	1	1	1	1	1	1	1	1	1	0	1	-57,998591	273,465836	259,100774	0
14.01.2021	23:43:43	0	0	3,728493	2,3985	60,2568	-0,282	77,911	3,5	1007,62	6,1	8,1	8,1	1	1	1	1	1	1	1	1	1	0	1	-62,508809	273,522233	254,852218	0
14.01.2021	23:43:44	0	0	3,502524	2,4645	33,2532	-0,286	77,896	3,5	1007,62	6	8,1	8,1	1	1	1	1	1	1	1	1	1	0	1	-60,2537	273,514993	257,073729	0
14.01.2021	23:43:45	0	0	4,971324	2,5845	37,296	-0,286	77,913	3,5	1007,56	6,1	8,1	8,1	1	1	1	1	1	1	1	1	1	0	1	-61,310782	273,513546	256,009928	0
14.01.2021	23:43:46	0	0	2,598647	2,55075	53,3592	-0,284	77,893	3,5	1007,62	6,1	8,3	8,1	1	1	1	1	1	1	1	1	1	0	1	-54,968288	273,385145	261,756978	0
14.01.2021	23:43:47	0	0	4,745355	2,601	54,8064	-0,278	77,887	3,5	1007,66	6,1	8,1	8,1	1	1	1	1	1	1	1	1	1	0	1	-58,139535	273,367898	258,505813	0
14.01.2021	23:43:48	0	0	2,259693	2,5215	66,5532	-0,284	77,866	3,5	1007,58	6,1	8,1	8,1	1	1	1	1	1	1	1	1	1	0	1	-57,787174	273,473057	259,345685	0
14.01.2021	23:43:49	0	0	2,372677	2,36625	77,3028	-0,284	77,876	3,5	1007,56	6,1	8,1	8,1	1	1	1	1	1	1	1	1	1	0	1	-61,733615	273,350666	254,831903	0
14.01.2021	23:43:50	0	0	2,598647	2,217	63,4788	-0,288	77,854	3,5	1007,32	6,1	8,3	8,1	1	1	1	1	1	1	1	1	1	0	1	-63,565891	273,435537	253,392963	0
14.01.2021	23:43:51	0	0	2,9376	2,03475	40,2588	-0,289	77,867	3,5	1007,54	6,1	8,1	8,1	1	1	1	1	1	1	1	1	1	0	1	-60,112755	273,528027	257,275161	0
14.01.2021	23:43:52	0	0	3,841547	1,8855	32,8824	-0,288	77,855	3,5	1007,52	6,1	8,1	7,8	1	1	1	1	1	1	1	1	1	0	1	-58,703312	273,50631	258,583818	0
14.01.2021	23:43:53	0	0	4,858339	1,85475	34,7184	-0,287	77,85	3,5	1007,54	6,1	8,3	8,1	1	1	1	1	1	1	1	1	1	0	1	-64,622974	273,365025	252,009063	0
14.01.2021	23:43:54	0	0	3,389539	2,0535	41,4648	-0,285	77,838	3,5	1007,5	6,1	8,3	8,1	1	1	1	1	1	1	1	1	1	0	1	-62,297393	273,400968	254,501207	0
14.01.2021	23:43:55	0	0	3,050585	2,1165	40,626	-0,294	77,828	3,5	1007,48	6,1	8,1	8,1	1	1	1	1	1	1	1	1	1	0	1	-60,465116	273,370771	256,193545	0
14.01.2021	23:43:56	0	0	3,615508	2,07825	51,1416	-0,286	77,835	3,5	1007,6	6,1	8,1	8,1	1	1	1	1	1	1	1	1	1	0	1	-59,61945	273,419685	257,26591	0
14.01.2021	23:43:57	0	0	2,711631	2,11275	44,0676	-0,289	77,801	3,5	1007,46	6,1	8,1	8,1	1	1	1	1	1	1	1	1	1	0	1	-61,381254	273,532373	256,026836	0
14.01.2021	23:43:58	0	0	3,050585	2,16675	48,1392	-0,28	77,828	3,5	1007,54	6,1	8,1	8,1	1	1	1	1	1	1	1	1	1	0	1	-61,804087	273,465836	255,295278	0
14.01.2021	23:43:59	0	0	2,598647	2,2035	66,9168	-0,289	77,828	3,5	1007,72	6,1	8,1	8,1	1	1	1	1	1	1	1	1	1	0	1	-62,367865	273,52513	255,006606	0
14.01.2021	23:44:00	0	0	4,745355	2,03025	51,0696	-0,287	77,826	3,5	1007,6	6,1	8,1	8,1	1	1	1	1	1	1	1	1	1	0	1	-59,971811	273,39809	256,813449	0
14.01.2021	23:44:01	0	0	4,745355	2,03025	51,0696	-0,287	77,826	3,5	1007,6	6,1	8,1	8,1	1	1	1	1	1	1	1	1	1	0	1	-59,971811	273,39809	256,813449	0
14.01.2021	23:44:02	0	0	3,389539	1,98	43,6788	-0,286	77,819	3,5	1007,44	6,1	8,3	8,1	1	1	1	1	1	1	1	1	1	0	1	-66,102889	273,349231	250,45598	0
14.01.2021	23:44:03	0	0	4,745355	2,1165	42,228	-0,29	77,834	3,5	1007,56	6,1	8,1	8,1	1	1	1	1	1	1	1	1	1	0	1	-60,394644	273,481726	256,778429	0
14.01.2021	23:44:04	0	0	3,615508	2,4045	41,8572	-0,289	77,827	3,5	1007,54	6,1	8,1	8,1	1	1	1	1	1	1	1	1	1	0	1	-62,297393	273,516441	255,036754	0
14.01.2021	23:44:05	0	0	4,180431	2,571	40,6404	-0,289	77,819	3,5	1007,46	6,1	8,1	8,1	1	1	1	1	1	1	1	1	1	0	1	-62,156448	273,39809	254,628812	0
14.01.2021	23:44:06	0	0	2,711631	2,769	49,212	-0,292	77,82	3,5	1007,54	6,1	8,3	8,1	1	1	1	1	1	1	1	1	1	0	1	-63,284003	273,375082	253,394634	0
14.01.2021	23:44:07	0	0	3,502524	2,78175	37,7136	-0,284	77,827	3,5	1007,66	6,1	8,1	8,1	1	1	1	1	1	1	1	1	1	0	1	-64,129669	273,409605	252,708961	0
14.01.2021	23:44:08	0	0	3,276554	2,68725	38,1636	-0,289	77,831	3,5	1007,46	6,1	8,1	8,1	1	1	1	1	1	1	1	1	1	0	1	-58,562368	273,522233	258,798659	0
14.01.2021	23:44:09	0	0	3,841478	2,658	46,584	-0,291	77,814	3,5	1007,46	6,1	8,1	8,1	1	1	1	1	1	1	1	1	1	0	1	-64,83439	273,462949	252,251581	0
14.01.2021	23:44:10	0	0	2,824616	2,70075	41,4756	-0,286	77,826	3,5	1007,64	6,1	8,1	8,1	1	1	1	1	1	1	1	1	1	0	1	-60,324172	273,362152	256,294557	0
14.01.2021	23:44:11	0	0	3,050622	2,97525	38,0592	-0,294	77,824	3,5	1007,62	6,1	8,1	7,9	1	1	1	1	1	1	1	1	1	0	1	-60,606061	273,412484	256,245918	0
14.01.2021	23:44:12	0	0	3,276554	3,35475	54,504	-0,286	77,825	3,5	1007,52	6,1	8,1	8,1	1	1	1	1	1	1	1	1	1	0	1	-57,928118	273,363589	258,697264	0
14.01.2021	23:44:13	0	0	4,971324	3,29475	41,8608	-0,29	77,831	3,5	1007,56	6,1	8,1	8,1	1	1	1	1	1	1	1	1	1	0	1	-60,606061	273,483172	256,573717	0
14.01.2021	23:44:14	0	0	2,598647	3,28725	42,9156	-0,289	77,829	3,5	1007,56	6,1	8,1	8,1	1	1	1	1	1	1	1	1	1	0	1	-60,535588	273,533822	256,879228	0
14.01.2021	23:44:15	0	0	3,841478	3,3555	41,8608	-0,297	77,834	3,5	1007,48	6,1	8,1	8,1	1	1	1	1	1	1	1	1	1	0	1	-57,152925	273,488953	260,053676	0
14.01.2021	23:44:16	0	0	4,745355	3,639	45,8604	-0,29	77,85	3,5	1007,66	6,1	8,1	8,1	1	1	1	1	1	1	1	1	1	0	1	-65,257223	273,342057	251,268412	0
14.01.2021	23:44:17	0	0	3,050585	3,8955	44,3952	-0,288	77,846	3,5	1007,52	6,1	8,3	8,1	1	1	1	1	1	1	1	1	1	0	1	-58,844257	273,474502	258,295304	0
14.01.2021	23:44:18	0	0	5,197293	3,79575	43,29	-0,295	77,855	3,5	1007,48	6,1	8,3	8,1	1	1	1	1	1	1	1	1	1	0	1	-60,183228	273,520785	257,171078	0
14.01.2021	23:44:19	0	0	2,824667	3,80925	43,3116	-0,293	77,869	3,5	1007,42	6	8,1	7,8	1	1	1	1	1	1	1	1	1	0	1	-61,87456	273,435537	255,084295	0
14.01.2021	23:44:20	0	0	3,615508	3,831	47,3688	-0,292	77,885	3,5	1007,56	6	8,1	8,1	1	1	1	1	1	1	1	1	1	0	1	-63,988724	273,339187	252,523621	0
14.01.2021	23:44:21	0	0	3,502524	3,741	50,2956	-0,298	77,878	3,5	1007,66	6	8,1	8,1	1	1	1	1	1	1	1	1	1	0	1	-61,381254	273,461505	255,698021	0
14.01.2021	23:44:22	0	0	4,51944	3,618	54,306	-0,295	77,914	3,5	1007,52	6	8,1	7,9	1	1	1	1	1	1	1	1	1	0	1	-62,156448	273,52513	255,218022	0
14.01.2021	23:44:23	0	0	3,276554	3,51525	59,112	-0,293	77,911	3,5	1007,5	6,1	8,1	8,1	1	1	1	1	1	1	1	1	1	0	1	-60,887949	273,435537	256,070905	0
14.01.2021	23:44:24	0	0	3,050585	3,48675	62,4276	-0,291	77,938	3,5	1007,5	6	8,1	8,1	1	1	1	1	1	1	1	1	1	0	1	-61,663143	273,519337	255,684442	0
14.01.2021	23:44:25	0	0	2,824616	3,642	53,7228	-0,291	77,949	3,5	1007,5	6	8,1	8,1	1	1	1	1	1	1	1	1	1	0	1	-61,522199	273,379394	255,176418	0
14.01.2021	23:44:26	0	0	3,163608	3,76575	49,9752	-0,29	77,97	3,5	1007,7	6,1	8,1	7,9	1	1	1	1	1	1	1	1	1	0	1	-66,384778	273,340622	250,134212	0
14.01.2021	23:44:27	0	0	3,841478	3,8205	46,6164	-0,296	77,989	3,5	1007,44	6	8,1	8,1	1	1	1	1	1	1	1	1	1	0	1	-61,381254	273,494737	255,85218	0
14.01.2021	23:44:28	0	0	3,615508	3,94875	42,9084	-0,293	78,008	3,5	1007,58	6,1	8,1	8,1	1	1	1	1	1	1	1	1	1	0	1	-65,045807	273,405286	251,772805	0
14.01.2021	23:44:29	0	0	4,519385	3,89925	42,6024	-0,293	78,06	3,5	1007,42	6	8,1	8,1	1	1	1	1	1	1	1	1	1	0	1	-64,48203	273,375082	252,196607	0
14.01.2021	23:44:30	0	0	4,293416	3,84975	49,5684	-0,29	78,08	3,5	1007,54	6,1	8,1	8,1	1	1	1	1	1	1	1	1	1	0	1	-59,055673	273,382269	257,656267	0
14.01.2021	23:44:31	0	0	3,954462	3,73875	48,51	-0,286	78,099	3,5	1007,68	6,1	8,1	8,1	1	1	1	1	1	1	1	1	1	0	1	-63,495419	273,491845	253,724597	0
14.01.2021	23:44:32	0	0	3,502524	3,75225	38,4228	-0,298	78,099	3,5	1007,36	6	8,1	8,1	1	1	1	1	1	1	1	1	1	0	1	-59,408034	273,363589	257,217349	0
14.01.2021	23:44:33	0	0	3,615508	3,55875	40,7052	-0,289	78,123	3,5	1007,6	6,1	8,1	8,1	1	1	1	1	1	1	1	1	1	0	1	-58,139535	273,334885	258,352881	0
14.01.2021	23:44:34	0	0	3,728493	3,3495	41,0004	-0,29	78,139	3,5	1007,4	6	8,1	8,1	1	1	1	1	1	1	1	1	1	0	1	-61,169838	273,405286	255,648774	0
14.01.2021	23:44:35	0	0	4,971324	3,22425	44,4204	-0,288	78,159	3,5	1007,68	6,1	8,1	8,1	1	1	1	1	1	1	1	1	1	0	1	-59,478506	273,339187	257,03384	0
14.01.2021	23:44:36	0	0	2,711631	3,1605	44,7804	-0,292	78,155	3,5	1007,44	6	8,1	8,1	1	1	1	1	1	1	1	1	1	0	1	-64,059197	273,457175	252,999995	0
14.01.2021	23:44:37	0	0	2,711631	3,12525	51,5412	-0,286	78,165	3,5	1007,56	6	8,1	8,1	1	1	1	1	1	1	1	1	1	0	1	-61,310782	273,343491	255,221499	0
14.01.2021	23:44:38	0	0	3,389539	3,0435	42,9264	-0,288	78,175	3,5	1007,7	6,1	8,1	8,1	1	1	1	1	1	1	1	1	1	0	1	-61,663143	273,481726	255,50993	0
14.01.2021	23:44:39	0	0	4,180431	2,916	51,0588	-0,289	78,158	3,5	1007,58	6,1	8,1	8,1	1	1	1	1	1	1	1	1	1	0	1	-57,505285	273,53817	259,929712	0
14.01.2021	23:44:40	0	0	5,084308	2,93175	53,712	-0,294	78,151	3,5	1007,38	6	8,1	8,1	1	1	1	1	1	1	1	1	1	0	1	-64,270613	273,436979	252,694926	0
14.01.2021	23:44:41	0	0	4,406401	2,78625	59,8608	-0,291	78,18	3,5	1007,54	6,1	8,1	8,1	1	1	1	1	1	1	1	1	1	0	1	-60,958421	273,528027	256,429495	0
14.01.2021	23:44:42	0	0	3,16357	2,74575	57,438	-0,287	78,175	3,5	1007,5	6	8,1	8,1	1	1	1	1	1	1	1	1	1	0	1	-63,002114	273,405286	253,816498	0
14.01.2021	23:44:43	0	0	3,050622	2,75175	51,444	-0,288	78,168	3,5	1007,46	6	8,1	7,9	1	1	1	1	1	1	1	1	1	0	1	-59,689922	273,354973	256,895545	0
14.01.2021	23:44:44	0	0	3,841478	2,80275	52,9092	-0,288	78,156	3,5	1007,58	6,1	8,1	8,1	1	1	1	1	1	1	1	1	1	0	1	-64,763918	273,429772	252,168203	0
14.01.2021	23:44:45	0	0	4,63237	2,901	55,962	-0,289	78,172	3,5	1007,52	6	8,1	8,1	1	1	1	1	1	1	1	1	1	0	1	-57,152925	273,349231	259,405945	0
14.01.2021	23:44:46	0	0	5,084369	2,98425	62,7912	-0,286	78,163	3,5	1007,4	6,1	8,1	7,9	1	1	1	1	1	1	1	1	1	0	1	-67,935166	273,507757	249,35868	0
14.01.2021	23:44:47	0	0	4,293416	2,91225	56,6784	-0,286	78,139	3,5	1007,62	6	8,1	8,1	1	1	1	1	1	1	1	1	1	0	1	-64,83439	273,402407	251,970879	0
14.01.2021	23:44:48	0	0	3,389539	2,81475	64,6632	-0,288	78,135	3,5	1007,62	6,1	8,1	8,1	1	1	1	1	1	1	1	1	1	0	1	-65,891473	273,352102	250,680694	0
14.01.2021	23:44:49	0	0	4,63237	2,8755	51,444	-0,286	78,134	3,5	1007,5	6,1	8,1	8,1	1	1	1	1	1	1	1	1	1	0	1	-61,945032	273,484617	255,24145	0
14.01.2021	23:44:50	0	0	3,615508	2,80725	53,3412	-0,283	78,122	3,5	1007,56	6	8,1	8,1	1	1	1	1	1	1	1	1	1	0	1	-60,817477	273,483172	256,3623	0
14.01.2021	23:44:51	0	0	3,841478	2,772	55,9548	-0,288	78,122	3,5	1007,48	6,1	8,1	8,1	1	1	1	1	1	1	1	1	1	0	1	-62,579281	273,543968	254,882633	0
14.01.2021	23:44:52	0	0	2,824616	2,706	51,0552	-0,28	78,131	3,5	1007,64	6	8,1	8,1	1	1	1	1	1	1	1	1	1	0	1	-64,129669	273,509204	253,170892	0
14.01.2021	23:44:53	0	0	2,598678	2,754	42,9156	-0,281	78,113	3,5	1007,54	6,1	8,1	7,9	1	1	1	1	1	1	1	1	1	0	1	-63,424947	273,366461	253,213745	0
14.01.2021	23:44:54	0	0	4,745355	2,8485	45,8568	-0,278	78,116	3,5	1007,76	6	8,1	8,1	1	1	1	1	1	1	1	1	1	0	1	-62,015504	273,390897	254,73642	0
14.01.2021	23:44:55	0	0	3,615508	2,8785	51,7428	-0,282	78,111	3,5	1007,54	6,1	8,1	8,1	1	1	1	1	1	1	1	1	1	0	1	-64,763918	273,529475	252,630722	0
14.01.2021	23:44:56	0	0	2,937636	2,979	50,31	-0,287	78,108	3,5	1007,46	6,1	8,1	7,9	1	1	1	1	1	1	1	1	1	0	1	-62,790698	273,448517	254,228343	0
14.01.2021	23:44:57	0	0	4,745412	2,85525	52,5204	-0,278	78,108	3,5	1007,6	6	8,1	7,9	1	1	1	1	1	1	1	1	1	0	1	-58,562368	273,350666	258,00315	0
14.01.2021	23:44:58	0	0	4,067447	2,69325	49,2012	-0,277	78,106	3,5	1007,44	6,1	8,1	8,1	1	1	1	1	1	1	1	1	1	0	1	-65,46864	273,408165	251,363317	0
14.01.2021	23:44:59	0	0	3,502524	2,70675	50,3064	-0,277	78,101	3,5	1007,6	6	8,1	8,1	1	1	1	1	1	1	1	1	1	0	1	-63,84778	273,532373	253,56031	0
14.01.2021	23:45:00	0	0	4,067447	2,793	50,3244	-0,281	78,081	3,5	1007,64	6	8,1	8,1	1	1	1	1	1	1	1	1	1	0	1	-58,914729	273,533822	258,500087	0
14.01.2021	23:45:01	0	0	4,067447	2,793	50,3244	-0,281	78,081	3,5	1007,64	6	8,1	8,1	1	1	1	1	1	1	1	1	1	0	1	-58,914729	273,533822	258,500087	0
14.01.2021	23:45:02	0	0	3,163608	2,82225	51,4548	-0,285	78,084	3,5	1007,52	6	8,1	7,9	1	1	1	1	1	1	1	1	1	0	1	-59,689922	273,400968	257,108677	0
14.01.2021	23:45:03	0	0	4,858339	2,79975	49,1652	-0,285	78,088	3,5	1007,64	6	8,1	8,1	1	1	1	1	1	1	1	1	1	0	1	-63,143058	273,480281	254,023311	0
14.01.2021	23:45:04	0	0	3,38958	2,77725	49,95	-0,285	78,07	3,5	1007,46	6	8,1	7,9	1	1	1	1	1	1	1	1	1	0	1	-61,663143	273,411045	255,182161	0
14.01.2021	23:45:05	0	0	3,954462	2,838	59,1264	-0,276	78,063	3,5	1007,6	6	8,1	8,1	1	1	1	1	1	1	1	1	1	0	1	-61,099366	273,360716	255,512709	0
14.01.2021	23:45:06	0	0	4,858339	2,7855	57,0636	-0,285	78,049	3,5	1007,56	6	8,1	8,1	1	1	1	1	1	1	1	1	1	0	1	-62,579281	273,431213	254,359522	0
14.01.2021	23:45:07	0	0	3,728538	2,7375	55,2024	-0,274	78,061	3,5	1007,62	6,1	8,1	7,9	1	1	1	1	1	1	1	1	1	0	1	-58,703312	273,343491	257,828969	0
14.01.2021	23:45:08	0	0	4,632426	2,7135	58,878	-0,278	78,037	3,5	1007,62	6,1	8,1	7,9	1	1	1	1	1	1	1	1	1	0	1	-58,139535	273,429772	258,792586	0
14.01.2021	23:45:09	0	0	4,858339	2,652	57,7296	-0,283	78,021	3,5	1007,48	6	8,1	8,1	1	1	1	1	1	1	1	1	1	0	1	-61,592671	273,346361	254,952903	0
14.01.2021	23:45:10	0	0	3,615552	2,6295	60,5664	-0,282	78,006	3,5	1007,6	6	8,1	7,9	1	1	1	1	1	1	1	1	1	0	1	-62,86117	273,436979	254,10437	0
14.01.2021	23:45:11	0	0	2,598647	2,721	57,7476	-0,279	78,01	3,5	1007,56	6,1	8,1	8,1	1	1	1	1	1	1	1	1	1	0	1	-59,830867	273,529475	257,563774	0
14.01.2021	23:45:12	0	0	4,519385	2,8155	70,2288	-0,275	78,004	3,5	1007,72	6,1	8,1	8,1	1	1	1	1	1	1	1	1	1	0	1	-59,478506	273,528027	257,90941	0
14.01.2021	23:45:13	0	0	2,937636	2,88825	72,3096	-0,284	77,984	3,5	1007,58	6,1	8,1	7,9	1	1	1	1	1	1	1	1	1	0	1	-65,257223	273,42833	251,668216	0
14.01.2021	23:45:14	0	0	4,180431	3,21225	71,9928	-0,278	77,989	3,5	1007,58	6	8,1	8,1	1	1	1	1	1	1	1	1	1	0	1	-62,015504	273,52513	255,358966	0
14.01.2021	23:45:15	0	0	4,858339	3,30675	76,3668	-0,274	77,976	3,5	1007,56	6	8,1	8,1	1	1	1	1	1	1	1	1	1	0	1	-63,354475	273,400968	253,444124	0
14.01.2021	23:45:16	0	0	2,598647	3,32925	62,0316	-0,283	77,97	3,5	1007,5	6	8,1	8,1	1	1	1	1	1	1	1	1	1	0	1	-60,112755	273,523681	257,254993	0
14.01.2021	23:45:17	0	0	3,276554	3,1635	70,2108	-0,278	77,975	3,5	1007,46	6	8,1	8,1	1	1	1	1	1	1	1	1	1	0	1	-61,451727	273,389459	255,293532	0
14.01.2021	23:45:18	0	0	4,406454	2,919	78,6744	-0,284	77,983	3,5	1007,66	6	8,1	7,9	1	1	1	1	1	1	1	1	1	0	1	-60,465116	273,388021	256,273477	0
14.01.2021	23:45:19	0	0	2,9376	2,79375	51,7536	-0,28	77,995	3,5	1007,48	6	8,1	8,1	1	1	1	1	1	1	1	1	1	0	1	-64,200141	273,509204	253,10042	0
14.01.2021	23:45:20	0	0	2,598647	2,66775	62,4312	-0,28	77,979	3,5	1007,58	6	8,1	8,1	1	1	1	1	1	1	1	1	1	0	1	-57,223397	273,481726	259,949676	0
14.01.2021	23:45:21	0	0	3,728493	2,739	60,5592	-0,282	77,979	3,5	1007,44	6	8,1	8,1	1	1	1	1	1	1	1	1	1	0	1	-64,693446	273,529475	252,701194	0
14.01.2021	23:45:22	0	0	4,63237	2,63625	82,6344	-0,281	77,981	3,5	1007,42	6	8,1	8,1	1	1	1	1	1	1	1	1	1	0	1	-60,747005	273,416805	256,125001	0
14.01.2021	23:45:23	0	0	3,728493	2,4405	70,8732	-0,282	77,955	3,5	1007,58	6	8,1	8,1	1	1	1	1	1	1	1	1	1	0	1	-62,579281	273,350666	253,986237	0
14.01.2021	23:45:24	0	0	3,276594	2,45925	52,5096	-0,281	77,96	3,5	1007,52	6	8,1	7,9	1	1	1	1	1	1	1	1	1	0	1	-61,945032	273,452845	255,094082	0
14.01.2021	23:45:25	0	0	3,276554	2,649	72,6948	-0,284	77,967	3,5	1007,58	6	8,1	8,1	1	1	1	1	1	1	1	1	1	0	1	-68,146582	273,526578	249,234611	0
14.01.2021	23:45:26	0	0	3,050585	2,98425	75,96	-0,276	77,964	3,5	1007,38	6	8,1	8,1	1	1	1	1	1	1	1	1	1	0	1	-61,028894	273,444189	255,970079	0
14.01.2021	23:45:27	0	0	3,16357	2,99625	58,4892	-0,28	77,953	3,5	1007,66	6	8,1	8,1	1	1	1	1	1	1	1	1	1	0	1	-61,169838	273,530924	256,231527	0
14.01.2021	23:45:28	0	0	3,615552	2,97225	54,1044	-0,28	77,96	3,5	1007,58	6	8,1	7,9	1	1	1	1	1	1	1	1	1	0	1	-63,354475	273,380832	253,350803	0
14.01.2021	23:45:29	0	0	3,502566	3,0795	48,1284	-0,281	77,954	3,5	1007,64	6	8,1	7,9	1	1	1	1	1	1	1	1	1	0	1	-61,592671	273,507757	255,701174	0
14.01.2021	23:45:30	0	0	4,971324	3,07125	41,8608	-0,276	77,981	3,5	1007,66	6	8,1	8,1	1	1	1	1	1	1	1	1	1	0	1	-69,485553	273,499076	247,768013	0
14.01.2021	23:45:31	0	0	2,711664	2,9295	46,602	-0,279	77,983	3,5	1007,72	6	8,1	7,9	1	1	1	1	1	1	1	1	1	0	1	-60,112755	273,501969	257,154234	0
14.01.2021	23:45:32	0	0	2,82465	2,88225	51,1452	-0,268	78,048	3,5	1007,58	6	8,1	7,9	1	1	1	1	1	1	1	1	1	0	1	-60,817477	273,516441	256,51667	0
14.01.2021	23:45:33	0	0	4,858398	2,69775	36,2268	-0,28	77,997	3,5	1007,58	6	8,1	7,9	1	1	1	1	1	1	1	1	1	0	1	-65,680056	273,395213	251,091867	0
14.01.2021	23:45:34	0	0	3,502524	2,6475	39,186	-0,284	77,997	3,5	1007,54	6	8,1	8,1	1	1	1	1	1	1	1	1	1	0	1	-60,394644	273,483172	256,785133	0
14.01.2021	23:45:35	0	0	3,050585	2,69775	51,4512	-0,281	78,022	3,5	1007,46	6	8,1	8,1	1	1	1	1	1	1	1	1	1	0	1	-66,596195	273,369335	250,05581	0
14.01.2021	23:45:36	0	0	2,598647	2,8035	57,0528	-0,28	78,015	3,5	1007,6	6,1	8,1	8,1	1	1	1	1	1	1	1	1	1	0	1	-61,663143	273,49763	255,583712	0
14.01.2021	23:45:37	0	0	2,372706	2,9235	54,7992	-0,273	78,02	3,5	1007,6	6	8,1	7,9	1	1	1	1	1	1	1	1	1	0	1	-66,032417	273,357844	250,566353	0
14.01.2021	23:45:38	0	0	2,82465	3,0315	52,902	-0,272	78,031	3,5	1007,7	6	8,1	7,9	1	1	1	1	1	1	1	1	1	0	1	-59,408034	273,488953	257,798567	0
14.01.2021	23:45:39	0	0	2,82465	3,13575	58,9212	-0,279	78,032	3,5	1007,56	6	8,1	7,9	1	1	1	1	1	1	1	1	1	0	1	-60,676533	273,373645	255,995445	0
14.01.2021	23:45:40	0	0	2,711664	3,00825	61,6824	-0,28	78,02	3,5	1007,62	6	8,1	7,9	1	1	1	1	1	1	1	1	1	0	1	-62,22692	273,46728	254,879142	0
14.01.2021	23:45:41	0	0	2,598678	3,21075	55,1988	-0,278	78,023	3,5	1007,52	6	8,1	7,9	1	1	1	1	1	1	1	1	1	0	1	-59,830867	273,504863	257,449549	0
14.01.2021	23:45:42	0	0	4,971384	3,4365	55,1844	-0,28	78,015	3,5	1007,46	6	8,1	7,9	1	1	1	1	1	1	1	1	1	0	1	-64,975335	273,468724	252,137426	0
14.01.2021	23:45:43	0	0	3,276594	3,4785	68,4036	-0,276	78,006	3,5	1007,52	6	8,1	7,9	1	1	1	1	1	1	1	1	1	0	1	-60,535588	273,513546	256,785122	0
14.01.2021	23:45:44	0	0	3,615552	3,534	68,7636	-0,274	78,021	3,5	1007,44	6	8,1	7,9	1	1	1	1	1	1	1	1	1	0	1	-62,367865	273,473057	254,764995	0
14.01.2021	23:45:45	0	0	4,519385	3,62625	69,1524	-0,277	78,032	3,5	1007,54	6	8,1	8,1	1	1	1	1	1	1	1	1	1	0	1	-58,844257	273,379394	257,85436	0
14.01.2021	23:45:46	0	0	2,598678	3,69825	67,0068	-0,281	78,034	3,5	1007,6	6	8,1	7,9	1	1	1	1	1	1	1	1	1	0	1	-61,381254	273,334885	255,111162	0
14.01.2021	23:45:47	0	0	2,485692	3,51675	72,6732	-0,281	78,039	3,5	1007,5	6	8,1	7,9	1	1	1	1	1	1	1	1	1	0	1	-60,394644	273,415365	256,470686	0
14.01.2021	23:45:48	0	0	4,067496	3,2715	65,5092	-0,277	78,044	3,5	1007,46	6	8,2	7,9	1	1	1	1	1	1	1	1	1	0	1	-60,887949	273,522233	256,473077	0
14.01.2021	23:45:49	0	0	3,841524	3,291	52,5096	-0,275	78,045	3,5	1007,56	6	8,1	7,9	1	1	1	1	1	1	1	1	1	0	1	-63,213531	273,334885	253,278886	0
14.01.2021	23:45:50	0	0	4,293468	3,192	58,8744	-0,276	78,04	3,5	1007,66	6	8,1	7,9	1	1	1	1	1	1	1	1	1	0	1	-64,411557	273,507757	252,882288	0
14.01.2021	23:45:51	0	0	4,971384	2,96925	55,5408	-0,275	78,055	3,5	1007,54	6	8,1	7,9	1	1	1	1	1	1	1	1	1	0	1	-61,381254	273,375082	255,297382	0
14.01.2021	23:45:52	0	0	3,728538	2,835	57,0456	-0,278	78,048	3,5	1007,54	6	8,1	7,9	1	1	1	1	1	1	1	1	1	0	1	-61,099366	273,339187	255,41298	0
14.01.2021	23:45:53	0	0	3,163608	2,80875	63,18	-0,285	78,047	3,5	1007,6	6	8,1	7,9	1	1	1	1	1	1	1	1	1	0	1	-65,186751	273,42833	251,738688	0
14.01.2021	23:45:54	0	0	4,293468	2,66325	63,1764	-0,274	78,043	3,5	1007,74	6	8,1	7,9	1	1	1	1	1	1	1	1	1	0	1	-65,539112	273,49763	251,707743	0
14.01.2021	23:45:55	0	0	4,632426	2,52225	57,4164	-0,272	78,035	3,5	1007,58	6	8,1	7,9	1	1	1	1	1	1	1	1	1	0	1	-64,059197	273,435537	252,899658	0
14.01.2021	23:45:56	0	0	4,406454	2,601	58,8708	-0,277	78,016	3,5	1007,66	6	8,1	7,9	1	1	1	1	1	1	1	1	1	0	1	-65,680056	273,477391	251,472907	0
14.01.2021	23:45:57	0	0	2,937636	2,67525	53,7444	-0,275	78,031	3,5	1007,64	6	8,1	7,9	1	1	1	1	1	1	1	1	1	0	1	-63,636364	273,346361	252,90921	0
14.01.2021	23:45:58	0	0	2,82465	2,84925	35,8524	-0,28	78,02	3,5	1007,42	6	8,1	7,9	1	1	1	1	1	1	1	1	1	0	1	-63,213531	273,396652	253,565061	0
14.01.2021	23:45:59	0	0	3,728538	2,8845	54,81	-0,283	78,029	3,5	1007,46	6	8,1	7,9	1	1	1	1	1	1	1	1	1	0	1	-68,569415	273,501969	248,697575	0
14.01.2021	23:46:00	0	0	3,95451	2,847	54,0972	-0,279	78,011	3,5	1007,52	6	8,1	7,9	1	1	1	1	1	1	1	1	1	0	1	-61,381254	273,362152	255,237474	0
14.01.2021	23:46:01	0	0	3,95451	2,847	54,0972	-0,279	78,011	3,5	1007,52	6	8,1	7,9	1	1	1	1	1	1	1	1	1	0	1	-61,381254	273,362152	255,237474	0
14.01.2021	23:46:02	0	0	3,38958	2,718	46,9836	-0,28	78,02	3,5	1007,6	6	8,1	7,9	1	1	1	1	1	1	1	1	1	0	1	-64,48203	273,501969	252,78496	0
14.01.2021	23:46:03	0	0	4,971384	2,69475	53,7228	-0,275	78,002	3,5	1007,72	6	8,1	7,9	1	1	1	1	1	1	1	1	1	0	1	-63,495419	273,512098	253,818574	0
14.01.2021	23:46:04	0	0	5,084369	2,9355	51,426	-0,283	77,991	3,5	1007,6	6	8,1	7,9	1	1	1	1	1	1	1	1	1	0	1	-64,622974	273,426889	252,295784	0
14.01.2021	23:46:05	0	0	2,82465	3,04725	49,194	-0,277	77,996	3,5	1007,52	6	8,1	7,9	1	1	1	1	1	1	1	1	1	0	1	-63,988724	273,499076	253,264841	0
14.01.2021	23:46:06	0	0	4,067496	3,26625	45,8424	-0,276	77,975	3,5	1008	6	8,1	7,9	1	1	1	1	1	1	1	1	1	0	1	-62,156448	273,363589	254,468934	0
14.01.2021	23:46:07	0	0	2,937636	3,1395	55,1808	-0,282	77,971	3,5	1007,54	6	8,2	7,9	1	1	1	1	1	1	1	1	1	0	1	-57,505285	273,37652	259,180011	0
14.01.2021	23:46:08	0	0	4,858398	2,985	54,108	-0,28	77,979	3,5	1007,62	6	8,1	7,9	1	1	1	1	1	1	1	1	1	0	1	-55,813953	273,339187	260,698392	0
14.01.2021	23:46:09	0	0	4,51944	2,83725	52,5132	-0,276	77,989	3,5	1007,62	6	8,1	7,9	1	1	1	1	1	1	1	1	1	0	1	-64,129669	273,373645	252,542309	0
14.01.2021	23:46:10	0	0	3,163608	2,658	45,5472	-0,283	77,987	3,5	1007,4	6	8,1	7,9	1	1	1	1	1	1	1	1	1	0	1	-63,84778	273,327715	252,611432	0
14.01.2021	23:46:11	0	0	3,841524	2,5095	40,2444	-0,278	77,993	3,5	1007,48	6	8,1	7,9	1	1	1	1	1	1	1	1	1	0	1	-61,451727	273,421126	255,440312	0
14.01.2021	23:46:12	0	0	4,632426	2,46075	50,6988	-0,276	77,986	3,5	1007,66	6	8,1	7,9	1	1	1	1	1	1	1	1	1	0	1	-64,129669	273,342057	252,395967	0
14.01.2021	23:46:13	0	0	4,745412	2,51925	57,0384	-0,282	77,981	3,5	1007,54	6	8,1	7,9	1	1	1	1	1	1	1	1	1	0	1	-62,649753	273,439863	254,329158	0
14.01.2021	23:46:14	0	0	4,858398	2,589	51,4476	-0,28	77,976	3,5	1007,44	6	8,1	7,9	1	1	1	1	1	1	1	1	1	0	1	-61,592671	273,513546	255,72804	0
14.01.2021	23:46:15	0	0	4,180482	2,61975	47,3832	-0,279	77,969	3,5	1007,66	6	8,2	7,9	1	1	1	1	1	1	1	1	1	0	1	-61,451727	273,366461	255,186966	0
14.01.2021	23:46:16	0	0	2,25972	2,51325	57,0312	-0,276	77,972	3,5	1007,52	6	8,1	7,9	1	1	1	1	1	1	1	1	1	0	1	-61,733615	273,385145	254,99165	0
14.01.2021	23:46:17	0	0	3,728538	2,39325	51,0732	-0,274	77,961	3,5	1007,5	6	8,1	7,9	1	1	1	1	1	1	1	1	1	0	1	-65,821001	273,500522	251,439277	0
14.01.2021	23:46:18	0	0	3,502545	2,22675	54,1044	-0,277	77,96	3,5	1007,42	6	8,1	8	1	1	1	1	1	1	1	1	1	0	1	-60,112755	273,344926	256,426172	0
14.01.2021	23:46:19	0	0	4,51944	2,1315	45,8388	-0,273	77,961	3,5	1007,42	6	8,2	7,9	1	1	1	1	1	1	1	1	1	0	1	-60,394644	273,484617	256,791838	0
14.01.2021	23:46:20	0	0	2,598678	2,17275	51,7536	-0,273	77,956	3,5	1007,52	6	8,1	7,9	1	1	1	1	1	1	1	1	1	0	1	-59,196617	273,493291	258,030108	0
14.01.2021	23:46:21	0	0	4,406454	2,13675	42,2244	-0,276	77,966	3,5	1007,48	6	8,1	7,9	1	1	1	1	1	1	1	1	1	0	1	-62,085976	273,37652	254,59932	0
14.01.2021	23:46:22	0	0	3,389559	2,21025	35,8596	-0,275	77,956	3,5	1007,62	6	8,2	8	1	1	1	1	1	1	1	1	1	0	1	-62,86117	273,455731	254,191328	0
14.01.2021	23:46:23	0	0	3,95451	2,5095	44,7732	-0,281	77,97	3,5	1007,66	6	8,1	7,9	1	1	1	1	1	1	1	1	1	0	1	-67,0895	273,504863	250,190917	0
14.01.2021	23:46:24	0	0	2,25972	2,86275	41,4612	-0,283	77,95	3,5	1007,52	6	8,1	7,9	1	1	1	1	1	1	1	1	1	0	1	-60,676533	273,493291	256,550192	0
14.01.2021	23:46:25	0	0	4,858398	2,95725	38,8044	-0,276	77,947	3,5	1007,68	6	8,1	7,9	1	1	1	1	1	1	1	1	1	0	1	-60,535588	273,519337	256,811997	0
14.01.2021	23:46:26	0	0	2,598678	3,01575	32,1588	-0,281	77,951	3,5	1007,64	6	8,1	7,9	1	1	1	1	1	1	1	1	1	0	1	-59,971811	273,444189	257,027162	0
14.01.2021	23:46:27	0	0	4,632426	3,27075	46,7064	-0,278	77,943	3,5	1007,54	6	8,1	7,9	1	1	1	1	1	1	1	1	1	0	1	-62,156448	273,352102	254,415719	0
14.01.2021	23:46:28	0	0	4,632426	3,3975	42,9264	-0,284	77,93	3,5	1007,44	6	8,2	7,9	1	1	1	1	1	1	1	1	1	0	1	-62,790698	273,471613	254,335462	0
14.01.2021	23:46:29	0	0	4,067496	3,12	27,9828	-0,278	77,93	3,5	1007,52	6	8,2	7,9	1	1	1	1	1	1	1	1	1	0	1	-64,059197	273,507757	253,234649	0
14.01.2021	23:46:30	0	0	3,841524	2,80725	15,5124	-0,28	77,937	3,5	1007,66	6	8,1	7,9	1	1	1	1	1	1	1	1	1	0	1	-64,975335	273,395213	251,796589	0
14.01.2021	23:46:31	0	0	4,745412	2,6835	42,606	-0,284	77,929	3,5	1007,62	6	8,2	7,9	1	1	1	1	1	1	1	1	1	0	1	-62,22692	273,337753	254,278782	0
14.01.2021	23:46:32	0	0	4,745412	2,859	44,064	-0,281	77,911	3,5	1007,52	6	8,1	7,9	1	1	1	1	1	1	1	1	1	0	1	-65,609584	273,475947	251,536677	0
14.01.2021	23:46:33	0	0	2,598678	2,9925	47,754	-0,279	77,907	3,5	1007,56	6	8,1	7,9	1	1	1	1	1	1	1	1	1	0	1	-63,495419	273,484617	253,691063	0
14.01.2021	23:46:34	0	0	2,485692	2,86275	37,3932	-0,275	77,91	3,5	1007,48	6	8,1	7,9	1	1	1	1	1	1	1	1	1	0	1	-63,002114	273,484617	254,184368	0
14.01.2021	23:46:35	0	0	2,937636	2,622	50,31	-0,276	77,906	3,5	1007,54	6	8,1	7,9	1	1	1	1	1	1	1	1	1	0	1	-66,102889	273,46728	251,003173	0
14.01.2021	23:46:36	0	0	4,406454	2,598	55,5588	-0,279	77,884	3,5	1007,54	6	8,1	7,9	1	1	1	1	1	1	1	1	1	0	1	-58,63284	273,337753	257,872862	0
14.01.2021	23:46:37	0	0	3,276574	2,793	59,1084	-0,276	77,897	3,5	1007,64	6	8,1	8	1	1	1	1	1	1	1	1	1	0	1	-59,548978	273,432654	257,396508	0
14.01.2021	23:46:38	0	0	2,598678	3,00525	57,4236	-0,278	77,903	3,5	1007,58	6	8,1	7,9	1	1	1	1	1	1	1	1	1	0	1	-58,63284	273,339187	257,879506	0
14.01.2021	23:46:39	0	0	3,841501	3,2205	52,8804	-0,277	77,892	3,5	1007,58	6	8,1	8	1	1	1	1	1	1	1	1	1	0	1	-61,310782	273,490399	255,902526	0
14.01.2021	23:46:40	0	0	3,38958	3,29475	71,244	-0,28	77,908	3,5	1007,66	6	8,1	7,9	1	1	1	1	1	1	1	1	1	0	1	-63,565891	273,510651	253,741385	0
14.01.2021	23:46:41	0	0	4,51944	3,16275	57,4092	-0,287	77,886	3,5	1007,66	6	8,1	7,9	1	1	1	1	1	1	1	1	1	0	1	-62,790698	273,471613	254,335462	0
14.01.2021	23:46:42	0	0	2,937636	3,1935	55,566	-0,282	77,882	3,5	1007,56	6	8,1	7,9	1	1	1	1	1	1	1	1	1	0	1	-62,367865	273,332016	254,111268	0
14.01.2021	23:46:43	0	0	4,406454	3,11925	53,3592	-0,283	77,883	3,5	1007,5	6	8,2	7,9	1	1	1	1	1	1	1	1	1	0	1	-65,609584	273,480281	251,556785	0
14.01.2021	23:46:44	0	0	2,824633	2,83575	45,5364	-0,281	77,879	3,5	1007,6	6	8,1	8	1	1	1	1	1	1	1	1	1	0	1	-59,689922	273,510651	257,617354	0
14.01.2021	23:46:45	0	0	3,163608	2,5665	63,576	-0,28	77,866	3,5	1007,4	6	8,2	7,9	1	1	1	1	1	1	1	1	1	0	1	-65,821001	273,522233	251,540026	0
14.01.2021	23:46:46	0	0	2,937618	2,382	66,5388	-0,275	77,885	3,5	1007,74	6	8,2	8	1	1	1	1	1	1	1	1	1	0	1	-60,676533	273,486062	256,516655	0
14.01.2021	23:46:47	0	0	2,711647	2,4645	64,6452	-0,282	77,855	3,5	1007,5	6	8,2	8	1	1	1	1	1	1	1	1	1	0	1	-64,622974	273,520785	252,731332	0
14.01.2021	23:46:48	0	0	4,293442	2,4045	77,2236	-0,287	77,861	3,5	1007,36	6	8,2	8	1	1	1	1	1	1	1	1	1	0	1	-62,579281	273,403847	254,232659	0
14.01.2021	23:46:49	0	0	3,050622	2,2725	53,3628	-0,262	77,864	3,5	1007,7	6	8,1	7,9	1	1	1	1	1	1	1	1	1	0	1	-62,579281	273,512098	254,734712	0
14.01.2021	23:46:50	0	0	5,084369	2,118	50,6844	-0,286	77,859	3,5	1007,54	6,1	8,2	7,9	1	1	1	1	1	1	1	1	1	0	1	-62,22692	273,447074	254,78543	0
14.01.2021	23:46:51	0	0	4,406454	2,12625	38,0592	-0,283	77,877	3,5	1007,54	6	8,2	7,9	1	1	1	1	1	1	1	1	1	0	1	-63,495419	273,353537	253,083398	0
14.01.2021	23:46:52	0	0	3,163589	2,043	57,7404	-0,284	77,858	3,5	1007,64	6	8	8	1	1	1	1	1	1	1	1	1	0	1	-63,636364	273,393774	253,128893	0
14.01.2021	23:46:53	0	0	3,502545	1,87275	44,3916	-0,291	77,851	3,5	1007,42	6	8,1	8	1	1	1	1	1	1	1	1	1	0	1	-61,592671	273,370771	255,065991	0
14.01.2021	23:46:54	0	0	2,824633	1,785	54,8136	-0,285	77,86	3,5	1007,68	6	8,1	8	1	1	1	1	1	1	1	1	1	0	1	-63,072586	273,369335	253,579418	0
14.01.2021	23:46:55	0	0	3,276594	1,68675	59,4936	-0,288	77,849	3,5	1007,54	6	8,1	7,9	1	1	1	1	1	1	1	1	1	0	1	-62,297393	273,326282	254,155181	0
14.01.2021	23:46:56	0	0	4,519412	1,60275	64,2348	-0,289	77,839	3,5	1007,64	6	8,2	8	1	1	1	1	1	1	1	1	1	0	1	-67,512333	273,390897	249,239591	0
14.01.2021	23:46:57	0	0	4,067496	1,52475	51,0552	-0,286	77,848	3,5	1007,58	6	8,1	7,9	1	1	1	1	1	1	1	1	1	0	1	-59,337562	273,336319	257,161497	0
14.01.2021	23:46:58	0	0	2,824633	1,5495	54,7956	-0,284	77,848	3,5	1007,42	6	8,2	8	1	1	1	1	1	1	1	1	1	0	1	-69,415081	273,411045	247,430223	0
14.01.2021	23:46:59	0	0	4,858398	1,602	44,064	-0,287	77,848	3,5	1007,52	6	8,2	7,9	1	1	1	1	1	1	1	1	1	0	1	-61,24031	273,343491	255,291971	0
14.01.2021	23:47:00	0	0	2,485692	1,85325	46,62	-0,287	77,814	3,5	1007,6	6	8	7,9	1	1	1	1	1	1	1	1	1	0	1	-63,213531	273,512098	254,100463	0
14.01.2021	23:47:01	0	0	2,485692	1,85325	46,62	-0,287	77,814	3,5	1007,6	6	8	7,9	1	1	1	1	1	1	1	1	1	0	1	-63,213531	273,512098	254,100463	0
14.01.2021	23:47:02	0	0	2,711647	1,8795	51,0588	-0,286	77,818	3,5	1007,62	6	8,2	8	1	1	1	1	1	1	1	1	1	0	1	-62,085976	273,461505	254,9933	0
14.01.2021	23:47:03	0	0	3,728515	1,9005	49,95	-0,292	77,8	3,5	1007,52	6	8,2	8	1	1	1	1	1	1	1	1	1	0	1	-63,918252	273,510651	253,389024	0
14.01.2021	23:47:04	0	0	2,937636	1,96425	48,51	-0,291	77,806	3,5	1007,68	6	8,2	7,9	1	1	1	1	1	1	1	1	1	0	1	-62,86117	273,425448	254,050907	0
14.01.2021	23:47:05	0	0	3,163608	2,07225	47,7432	-0,299	77,79	3,5	1007,64	6	8,1	7,9	1	1	1	1	1	1	1	1	1	0	1	-64,622974	273,516441	252,711173	0
14.01.2021	23:47:06	0	0	2,937636	2,11875	48,132	-0,29	77,789	3,5	1007,6	6	8,2	7,9	1	1	1	1	1	1	1	1	1	0	1	-63,84778	273,46728	253,258282	0
14.01.2021	23:47:07	0	0	3,615552	2,17725	47,7468	-0,292	77,79	3,5	1007,66	6	8,2	7,9	1	1	1	1	1	1	1	1	1	0	1	-65,539112	273,337753	250,96659	0
14.01.2021	23:47:08	0	0	4,180456	2,4285	47,376	-0,295	77,768	3,5	1007,66	6	8,2	8	1	1	1	1	1	1	1	1	1	0	1	-59,548978	273,329149	256,916874	0
14.01.2021	23:47:09	0	0	2,372706	2,66475	48,51	-0,289	77,789	3,5	1007,7	6	8	7,9	1	1	1	1	1	1	1	1	1	0	1	-61,945032	273,33345	254,540743	0
14.01.2021	23:47:10	0	0	5,084339	2,84025	54,7956	-0,295	77,775	3,5	1007,48	6	8,1	8	1	1	1	1	1	1	1	1	1	0	1	-60,535588	273,49763	256,711266	0
14.01.2021	23:47:11	0	0	2,485692	2,8095	67,662	-0,292	77,779	3,5	1007,52	6	8,2	7,9	1	1	1	1	1	1	1	1	1	0	1	-66,666667	273,445632	250,338995	0
14.01.2021	23:47:12	0	0	3,841524	2,628	75,9888	-0,291	77,769	3,5	1007,58	6	8,2	7,9	1	1	1	1	1	1	1	1	1	0	1	-61,028894	273,494737	256,204541	0
14.01.2021	23:47:13	0	0	2,937618	2,51175	71,6004	-0,297	77,769	3,5	1007,64	6	8,1	8	1	1	1	1	1	1	1	1	1	0	1	-59,689922	273,421126	257,202116	0
14.01.2021	23:47:14	0	0	4,406427	2,5995	65,844	-0,292	77,778	3,5	1007,6	6	8,2	8	1	1	1	1	1	1	1	1	1	0	1	-58,914729	273,50631	258,372402	0
14.01.2021	23:47:15	0	0	4,745412	2,68725	64,4832	-0,292	77,778	3,5	1007,5	6,1	8,1	7,9	1	1	1	1	1	1	1	1	1	0	1	-62,579281	273,386583	254,152648	0
14.01.2021	23:47:16	0	0	4,745383	2,712	64,6164	-0,297	77,754	3,5	1007,48	6,1	8,2	8	1	1	1	1	1	1	1	1	1	0	1	-64,411557	273,499076	252,842008	0
14.01.2021	23:47:17	0	0	2,937618	2,81475	61,3188	-0,293	77,755	3,5	1007,5	6	8,2	8	1	1	1	1	1	1	1	1	1	0	1	-61,381254	273,464392	255,711413	0
14.01.2021	23:47:18	0	0	2,711664	2,81625	62,4132	-0,299	77,75	3,5	1007,64	6	8,2	7,9	1	1	1	1	1	1	1	1	1	0	1	-63,565891	273,363589	253,059491	0
14.01.2021	23:47:19	0	0	2,937618	2,8365	69,1524	-0,295	77,745	3,5	1007,56	6,1	8,1	8	1	1	1	1	1	1	1	1	1	0	1	-60,324172	273,475947	256,822089	0
14.01.2021	23:47:20	0	0	3,502545	2,65125	55,9224	-0,293	77,747	3,5	1007,7	6,1	8,1	8	1	1	1	1	1	1	1	1	1	0	1	-64,763918	273,484617	252,422564	0
14.01.2021	23:47:21	0	0	3,276574	2,5905	54,1044	-0,302	77,729	3,5	1007,64	6,1	8,2	8	1	1	1	1	1	1	1	1	1	0	1	-70,542636	273,314817	245,856847	0
14.01.2021	23:47:22	0	0	4,067471	2,55975	48,8268	-0,301	77,706	3,5	1007,6	6,1	8,2	8	1	1	1	1	1	1	1	1	1	0	1	-60,183228	273,419685	256,702133	0
14.01.2021	23:47:23	0	0	3,389559	2,577	51,4584	-0,294	77,722	3,5	1007,56	6,1	8,1	8	1	1	1	1	1	1	1	1	1	0	1	-62,438337	273,493291	254,788388	0
14.01.2021	23:47:24	0	0	3,61553	2,53275	45,8568	-0,296	77,724	3,5	1007,62	6,1	8,1	8	1	1	1	1	1	1	1	1	1	0	1	-62,508809	273,362152	254,109919	0
14.01.2021	23:47:25	0	0	2,824633	2,54625	49,9788	-0,3	77,728	3,5	1007,56	6,1	8,1	8	1	1	1	1	1	1	1	1	1	0	1	-60,465116	273,321982	255,967544	0
14.01.2021	23:47:26	0	0	4,293442	2,46975	44,7912	-0,298	77,719	3,5	1007,62	6,1	8,1	8	1	1	1	1	1	1	1	1	1	0	1	-62,156448	273,360716	254,455627	0
14.01.2021	23:47:27	0	0	4,745383	2,49	57,0528	-0,298	77,767	3,5	1007,54	6,1	8,1	8	1	1	1	1	1	1	1	1	1	0	1	-61,522199	273,311952	254,864018	0
14.01.2021	23:47:28	0	0	3,728515	2,5605	51,7464	-0,299	77,73	3,5	1007,54	6,1	8,1	8	1	1	1	1	1	1	1	1	1	0	1	-64,059197	273,353537	252,51962	0
14.01.2021	23:47:29	0	0	3,502545	2,6415	55,5372	-0,303	77,726	3,5	1007,46	6	8,1	8	1	1	1	1	1	1	1	1	1	0	1	-65,116279	273,343491	251,416002	0
14.01.2021	23:47:30	0	0	2,937618	2,64975	63,486	-0,299	77,713	3,5	1007,56	6	8,1	8	1	1	1	1	1	1	1	1	1	0	1	-57,716702	273,326282	258,735871	0
14.01.2021	23:47:31	0	0	3,841524	2,643	42,6168	-0,303	77,71	3,5	1007,6	6,1	8,2	7,9	1	1	1	1	1	1	1	1	1	0	1	-59,689922	273,339187	256,822423	0
14.01.2021	23:47:32	0	0	4,293442	2,796	57,0276	-0,3	77,724	3,5	1007,72	6	8,1	8	1	1	1	1	1	1	1	1	1	0	1	-61,028894	273,291909	255,264524	0
14.01.2021	23:47:33	0	0	3,841501	2,901	61,6968	-0,303	77,716	3,5	1007,66	6	8,1	8	1	1	1	1	1	1	1	1	1	0	1	-59,901339	273,419685	256,984022	0
14.01.2021	23:47:34	0	0	2,937618	2,86875	62,7912	-0,301	77,722	3,5	1007,78	6,1	8,1	8	1	1	1	1	1	1	1	1	1	0	1	-63,636364	273,487508	253,56353	0
14.01.2021	23:47:35	0	0	3,61553	2,79075	46,9692	-0,3	77,722	3,5	1007,68	6,1	8,1	8	1	1	1	1	1	1	1	1	1	0	1	-58,350951	273,39809	258,434309	0
14.01.2021	23:47:36	0	0	4,971354	2,7705	57,8232	-0,304	77,73	3,5	1007,64	6,1	8,1	8	1	1	1	1	1	1	1	1	1	0	1	-64,83439	273,299065	251,492156	0
14.01.2021	23:47:37	0	0	3,163589	2,7015	58,8528	-0,299	77,72	3,5	1007,72	5,9	8,1	8	1	1	1	1	1	1	1	1	1	0	1	-57,01198	273,393774	259,753276	0
14.01.2021	23:47:38	0	0	4,745383	2,6415	57,7332	-0,3	77,72	3,5	1007,56	6	8,2	8	1	1	1	1	1	1	1	1	1	0	1	-58,421424	273,471613	258,704736	0
14.01.2021	23:47:39	0	0	4,067471	2,52975	68,4	-0,305	77,707	3,5	1007,54	6,1	8,1	8	1	1	1	1	1	1	1	1	1	0	1	-59,689922	273,380832	257,015355	0
14.01.2021	23:47:40	0	0	3,276574	2,5095	60,246	-0,306	77,702	3,5	1007,6	6	8,2	8	1	1	1	1	1	1	1	1	1	0	1	-63,143058	273,481726	254,030014	0
14.01.2021	23:47:41	0	0	3,954486	2,46525	63,1872	-0,315	77,701	3,5	1007,58	6,1	8,1	8	1	1	1	1	1	1	1	1	1	0	1	-60,535588	273,332016	255,943545	0
14.01.2021	23:47:42	0	0	5,084339	2,334	65,0772	-0,315	77,7	3,5	1007,64	6	8,2	8	1	1	1	1	1	1	1	1	1	0	1	-59,689922	273,444189	257,30905	0
14.01.2021	23:47:43	0	0	3,276574	2,3055	63,8676	-0,312	77,698	3,5	1007,64	6	8,2	8	1	1	1	1	1	1	1	1	1	0	1	-59,548978	273,329149	256,916874	0
14.01.2021	23:47:44	0	0	3,954486	2,271	73,0764	-0,304	77,687	3,5	1007,58	6	8,2	8	1	1	1	1	1	1	1	1	1	0	1	-60,465116	273,445632	256,540545	0
14.01.2021	23:47:45	0	0	3,276574	2,23575	69,4656	-0,312	77,693	3,5	1007,54	6,1	8,2	8	1	1	1	1	1	1	1	1	1	0	1	-62,579281	273,290478	253,707512	0
14.01.2021	23:47:46	0	0	3,841501	2,139	72,2736	-0,312	77,676	3,5	1007,64	6,1	8,1	8	1	1	1	1	1	1	1	1	1	0	1	-63,988724	273,426889	252,930033	0
14.01.2021	23:47:47	0	0	4,293442	2,09025	62,802	-0,308	77,681	3,5	1007,4	6	8,1	8	1	1	1	1	1	1	1	1	1	0	1	-68,287526	273,33345	248,198248	0
14.01.2021	23:47:48	0	0	2,824633	2,29125	66,924	-0,309	77,682	3,5	1007,72	6	8,1	8	1	1	1	1	1	1	1	1	1	0	1	-57,575758	273,281895	258,671304	0
14.01.2021	23:47:49	0	0	4,745383	2,47275	69,84	-0,31	77,668	3,5	1007,58	6	8,1	8	1	1	1	1	1	1	1	1	1	0	1	-65,257223	273,425448	251,654854	0
14.01.2021	23:47:50	0	0	3,841501	2,505	66,546	-0,311	77,689	3,5	1007,56	6	8,1	8	1	1	1	1	1	1	1	1	1	0	1	-63,424947	273,46728	253,681115	0
14.01.2021	23:47:51	0	0	3,954486	2,5095	74,9052	-0,315	77,679	3,5	1007,54	6	8,1	8	1	1	1	1	1	1	1	1	1	0	1	-62,156448	273,418245	254,722235	0
14.01.2021	23:47:52	0	0	3,841501	2,334	69,48	-0,312	77,673	3,5	1007,58	6	8,1	8	1	1	1	1	1	1	1	1	1	0	1	-63,636364	273,281895	252,610698	0
14.01.2021	23:47:53	0	0	2,937618	2,214	73,4544	-0,311	77,684	3,5	1007,68	6	8,1	8	1	1	1	1	1	1	1	1	1	0	1	-60,817477	273,403847	255,994463	0
14.01.2021	23:47:54	0	0	3,276574	2,09025	49,7196	-0,313	77,685	3,5	1007,58	6	8,1	8	1	1	1	1	1	1	1	1	1	0	1	-62,156448	273,306223	254,203242	0
14.01.2021	23:47:55	0	0	3,954486	2,23275	54,1152	-0,319	77,684	3,5	1007,6	6	8,1	8	1	1	1	1	1	1	1	1	1	0	1	-59,61945	273,408165	257,212507	0
14.01.2021	23:47:56	0	0	3,728515	2,343	58,0968	-0,312	77,713	3,5	1007,84	6	8,1	8	1	1	1	1	1	1	1	1	1	0	1	-61,522199	273,460061	255,550382	0
14.01.2021	23:47:57	0	0	2,824633	2,36325	66,222	-0,318	77,702	3,5	1007,58	6	8,1	8	1	1	1	1	1	1	1	1	1	0	1	-64,200141	273,392336	252,558449	0
14.01.2021	23:47:58	0	0	4,632398	2,199	31,014	-0,323	77,714	3,5	1007,66	6	8,1	8	1	1	1	1	1	1	1	1	1	0	1	-61,028894	273,455731	256,023605	0
14.01.2021	23:47:59	0	0	3,389559	2,35575	54,7884	-0,319	77,703	3,5	1007,56	6,1	8,1	8	1	1	1	1	1	1	1	1	1	0	1	-63,988724	273,329149	252,477128	0
14.01.2021	23:48:00	0	0	4,406427	2,94675	60,2568	-0,316	77,736	3,5	1007,32	6	8,1	8	1	1	1	1	1	1	1	1	1	0	1	-60,817477	273,403847	255,994463	0
14.01.2021	23:48:01	0	0	4,406427	2,94675	60,2568	-0,316	77,736	3,5	1007,32	6	8,1	8	1	1	1	1	1	1	1	1	1	0	1	-60,817477	273,403847	255,994463	0
14.01.2021	23:48:02	0	0	3,163589	2,9865	74,934	-0,327	77,736	3,5	1007,56	6	8,1	8	1	1	1	1	1	1	1	1	1	0	1	-61,451727	273,444189	255,547246	0
14.01.2021	23:48:03	0	0	4,858427	3,12075	71,2404	-0,317	77,751	3,5	1007,58	6	8,1	7,8	1	1	1	1	1	1	1	1	1	0	1	-65,46864	273,340622	251,05035	0
14.01.2021	23:48:04	0	0	3,841501	3,23925	74,1636	-0,321	77,756	3,5	1007,66	6	8,1	8	1	1	1	1	1	1	1	1	1	0	1	-60,394644	273,273316	255,812708	0
14.01.2021	23:48:05	0	0	2,937618	3,26175	68,0112	-0,32	77,768	3,5	1007,34	6	8,1	8	1	1	1	1	1	1	1	1	1	0	1	-61,099366	273,31052	255,280218	0
14.01.2021	23:48:06	0	0	4,858368	3,21225	68,7708	-0,326	77,808	3,5	1007,82	6	8,1	8	1	1	1	1	1	1	1	1	1	0	1	-61,451727	273,270457	254,742393	0
14.01.2021	23:48:07	0	0	4,067496	3,15075	77,598	-0,32	77,793	3,5	1007,62	6	8,1	7,9	1	1	1	1	1	1	1	1	1	0	1	-65,680056	273,296202	250,633237	0
14.01.2021	23:48:08	0	0	3,61553	2,94	73,0512	-0,323	77,819	3,5	1007,66	6	8,1	8	1	1	1	1	1	1	1	1	1	0	1	-56,659619	273,429772	260,272502	0
14.01.2021	23:48:09	0	0	2,937618	2,637	48,096	-0,322	77,892	3,5	1007,44	6	8,1	8	1	1	1	1	1	1	1	1	1	0	1	-57,082452	273,326282	259,370121	0
14.01.2021	23:48:10	0	0	4,632398	2,36325	48,816	-0,319	77,854	3,5	1007,66	6	8,1	8	1	1	1	1	1	1	1	1	1	0	1	-62,579281	273,273316	253,628071	0
14.01.2021	23:48:11	0	0	3,050603	2,2035	53,7336	-0,326	77,872	3,5	1007,56	6	8,1	8	1	1	1	1	1	1	1	1	1	0	1	-63,072586	273,350666	253,492932	0
14.01.2021	23:48:12	0	0	2,598662	2,03025	50,3748	-0,324	77,896	3,5	1007,72	6	8,1	8	1	1	1	1	1	1	1	1	1	0	1	-60,324172	273,274745	255,889797	0
14.01.2021	23:48:13	0	0	3,163589	1,95075	59,8824	-0,323	77,916	3,5	1007,64	6	8,1	8	1	1	1	1	1	1	1	1	1	0	1	-60,042283	273,277605	256,184921	0
14.01.2021	23:48:14	0	0	3,389559	1,98825	57,0348	-0,327	77,945	3,5	1007,56	6	8,1	8	1	1	1	1	1	1	1	1	1	0	1	-57,364341	273,392336	259,394249	0
14.01.2021	23:48:15	0	0	3,728515	1,99125	68,778	-0,319	77,962	3,5	1007,66	6	8,1	8	1	1	1	1	1	1	1	1	1	0	1	-57,64623	273,279035	258,587593	0
14.01.2021	23:48:16	0	0	4,293442	1,9335	59,5008	-0,325	77,995	3,5	1007,56	6	8,1	8	1	1	1	1	1	1	1	1	1	0	1	-60,183228	273,334885	256,309189	0
14.01.2021	23:48:17	0	0	3,61553	1,88775	62,8164	-0,32	77,999	3,5	1007,72	6	8,1	8	1	1	1	1	1	1	1	1	1	0	1	-60,747005	273,42833	256,178434	0
14.01.2021	23:48:18	0	0	4,519412	1,85925	70,8588	-0,327	78,015	3,5	1007,6	6	8,1	8	1	1	1	1	1	1	1	1	1	0	1	-59,408034	273,373645	257,263944	0
14.01.2021	23:48:19	0	0	4,971354	1,88625	64,6164	-0,327	78,01	3,5	1007,5	6	8,1	8	1	1	1	1	1	1	1	1	1	0	1	-60,042283	273,448517	256,976757	0
14.01.2021	23:48:20	0	0	3,163589	1,872	72,0684	-0,327	78,031	3,5	1007,56	6	8,1	8	1	1	1	1	1	1	1	1	1	0	1	-59,61945	273,396652	257,159141	0
14.01.2021	23:48:21	0	0	3,389559	1,8975	69,4656	-0,324	78,027	3,5	1007,56	6	8,1	8	1	1	1	1	1	1	1	1	1	0	1	-70,613108	273,412484	246,238871	0
14.01.2021	23:48:22	0	0	4,180456	1,881	59,8788	-0,323	78,028	3,5	1007,56	6	8,1	8	1	1	1	1	1	1	1	1	1	0	1	-63,354475	273,395213	253,417449	0
14.01.2021	23:48:23	0	0	3,728515	1,9245	64,6416	-0,325	78,024	3,5	1007,62	6	8,1	8	1	1	1	1	1	1	1	1	1	0	1	-59,126145	273,254741	256,995242	0
14.01.2021	23:48:24	0	0	4,632398	1,98375	64,6092	-0,326	78,015	3,5	1007,48	6	8,1	8	1	1	1	1	1	1	1	1	1	0	1	-65,46864	273,375082	251,209997	0
14.01.2021	23:48:25	0	0	2,598662	1,94925	59,8536	-0,335	77,996	3,5	1007,62	6	8,1	8	1	1	1	1	1	1	1	1	1	0	1	-61,592671	273,432654	255,352816	0
14.01.2021	23:48:26	0	0	4,858368	2,004	59,8644	-0,329	77,97	3,5	1007,5	6	8,1	8	1	1	1	1	1	1	1	1	1	0	1	-58,914729	273,385145	257,810537	0
14.01.2021	23:48:27	0	0	4,519467	2,106	55,5444	-0,326	77,995	3,5	1007,68	6	8,1	7,8	1	1	1	1	1	1	1	1	1	0	1	-61,169838	273,438421	255,802387	0
14.01.2021	23:48:28	0	0	4,858427	2,121	68,7672	-0,327	77,971	3,5	1007,66	6	8,1	7,8	1	1	1	1	1	1	1	1	1	0	1	-61,733615	273,386583	254,998314	0
14.01.2021	23:48:29	0	0	3,3896	2,01525	61,2936	-0,326	77,975	3,5	1007,66	6	8,1	7,8	1	1	1	1	1	1	1	1	1	0	1	-60,747005	273,413924	256,111649	0
14.01.2021	23:48:30	0	0	3,163589	1,9455	50,3136	-0,324	77,949	3,5	1007,62	6	8,1	8	1	1	1	1	1	1	1	1	1	0	1	-61,310782	273,294771	254,995885	0
14.01.2021	23:48:31	0	0	3,954486	2,05425	41,8428	-0,332	77,957	3,5	1007,56	6	8,1	8	1	1	1	1	1	1	1	1	1	0	1	-63,706836	273,424007	253,198561	0
14.01.2021	23:48:32	0	0	3,61553	2,27175	52,1244	-0,333	77,938	3,5	1007,54	5,9	8,1	8	1	1	1	1	1	1	1	1	1	0	1	-63,002114	273,39809	253,783146	0
14.01.2021	23:48:33	0	0	2,937653	2,37525	49,968	-0,327	77,923	3,5	1007,5	6	8,1	7,8	1	1	1	1	1	1	1	1	1	0	1	-63,636364	273,418245	253,24232	0
14.01.2021	23:48:34	0	0	3,841501	2,43525	50,688	-0,328	77,912	3,5	1007,52	6	8,1	8	1	1	1	1	1	1	1	1	1	0	1	-59,830867	273,349231	256,728003	0
14.01.2021	23:48:35	0	0	4,632398	2,54625	51,0768	-0,328	77,907	3,5	1007,46	6	8,1	8	1	1	1	1	1	1	1	1	1	0	1	-64,270613	273,257597	251,863993	0
14.01.2021	23:48:36	0	0	3,389559	2,616	42,5988	-0,337	77,914	3,5	1007,56	6	8,1	8	1	1	1	1	1	1	1	1	1	0	1	-61,733615	273,289047	254,546555	0
14.01.2021	23:48:37	0	0	3,72856	2,67375	52,8912	-0,334	77,901	3,5	1007,58	6	8,1	7,8	1	1	1	1	1	1	1	1	1	0	1	-60,606061	273,246173	255,475684	0
14.01.2021	23:48:38	0	0	2,824667	2,451	69,4548	-0,332	77,888	3,5	1007,48	6	8,1	7,8	1	1	1	1	1	1	1	1	1	0	1	-60,394644	273,350666	256,170874	0
14.01.2021	23:48:39	0	0	4,632453	2,38425	71,2296	-0,33	77,872	3,5	1007,6	6	8,1	7,8	1	1	1	1	1	1	1	1	1	0	1	-63,988724	273,244746	252,086416	0
14.01.2021	23:48:40	0	0	2,937653	2,31375	68,0148	-0,332	77,87	3,5	1007,64	6	8,1	7,8	1	1	1	1	1	1	1	1	1	0	1	-60,747005	273,307655	255,619316	0
14.01.2021	23:48:41	0	0	4,406427	2,2785	69,1668	-0,333	77,864	3,5	1007,68	6	8,1	8	1	1	1	1	1	1	1	1	1	0	1	-58,985201	273,253312	257,129578	0
14.01.2021	23:48:42	0	0	3,050622	2,3475	57,726	-0,312	77,849	3,5	1007,88	6	8,1	7,9	1	1	1	1	1	1	1	1	1	0	1	-62,508809	273,283325	253,744873	0
14.01.2021	23:48:43	0	0	4,858398	2,3685	50,6808	-0,339	77,848	3,5	1007,68	5,9	8,1	7,9	1	1	1	1	1	1	1	1	1	0	1	-65,327696	273,29334	250,972346	0
14.01.2021	23:48:44	0	0	3,841547	2,415	49,194	-0,332	77,838	3,5	1007,64	6	8	7,8	1	1	1	1	1	1	1	1	1	0	1	-58,773784	273,251884	257,334386	0
14.01.2021	23:48:45	0	0	4,858427	2,39025	61,308	-0,338	77,844	3,5	1007,64	6	8,1	7,8	1	1	1	1	1	1	1	1	1	0	1	-64,129669	273,299065	252,196878	0
14.01.2021	23:48:46	0	0	4,180507	2,4435	64,6308	-0,331	77,836	3,5	1007,62	6	8,1	7,8	1	1	1	1	1	1	1	1	1	0	1	-59,478506	273,390897	257,273418	0
14.01.2021	23:48:47	0	0	2,598693	2,56425	60,5592	-0,336	77,843	3,5	1007,6	5,9	8,1	7,8	1	1	1	1	1	1	1	1	1	0	1	-61,028894	273,409605	255,809737	0
14.01.2021	23:48:48	0	0	4,293493	2,54025	62,0424	-0,335	77,842	3,5	1007,58	6	8,1	7,8	1	1	1	1	1	1	1	1	1	0	1	-64,904863	273,263311	251,256188	0
14.01.2021	23:48:49	0	0	3,841524	2,4645	60,21	-0,337	77,84	3,5	1007,58	6	8,1	7,9	1	1	1	1	1	1	1	1	1	0	1	-61,028894	273,307655	255,337427	0
14.01.2021	23:48:50	0	0	3,163627	2,436	61,3152	-0,337	77,833	3,5	1007,6	5,9	8,1	7,8	1	1	1	1	1	1	1	1	1	0	1	-60,535588	273,431213	256,403215	0
14.01.2021	23:48:51	0	0	4,858398	2,3595	59,8824	-0,336	77,854	3,5	1007,66	6	8,1	7,9	1	1	1	1	1	1	1	1	1	0	1	-66,807611	273,300496	249,525563	0
14.01.2021	23:48:52	0	0	2,824667	2,2995	63,5004	-0,339	77,851	3,5	1007,7	6	8	7,8	1	1	1	1	1	1	1	1	1	0	1	-58,63284	273,416805	258,239166	0
14.01.2021	23:48:53	0	0	2,485707	2,286	56,2788	-0,344	77,841	3,5	1007,78	5,9	8,1	7,8	1	1	1	1	1	1	1	1	1	0	1	-57,364341	273,259025	258,776875	0
14.01.2021	23:48:54	0	0	3,841547	2,2695	57,0456	-0,336	77,84	3,5	1007,58	6	8,1	7,8	1	1	1	1	1	1	1	1	1	0	1	-62,367865	273,23333	253,654457	0
14.01.2021	23:48:55	0	0	3,163627	2,27175	57,7152	-0,347	77,82	3,5	1007,64	6	8,1	7,8	1	1	1	1	1	1	1	1	1	0	1	-59,61945	273,269027	256,568055	0
14.01.2021	23:48:56	0	0	2,937653	2,29425	57,06	-0,342	77,821	3,5	1007,68	6	8,1	7,8	1	1	1	1	1	1	1	1	1	0	1	-59,61945	273,353537	256,959367	0
14.01.2021	23:48:57	0	0	2,824667	2,346	62,0424	-0,349	77,805	3,5	1007,64	6	8,1	7,8	1	1	1	1	1	1	1	1	1	0	1	-59,408034	273,251884	256,700137	0
14.01.2021	23:48:58	0	0	2,25972	2,29575	70,8588	-0,344	77,807	3,5	1007,64	5,9	8,1	7,9	1	1	1	1	1	1	1	1	1	0	1	-62,790698	273,354973	253,79477	0
14.01.2021	23:48:59	0	0	2,824667	2,36925	63,4716	-0,348	77,822	3,5	1007,68	5,9	8,1	7,8	1	1	1	1	1	1	1	1	1	0	1	-64,270613	273,239037	251,778113	0
14.01.2021	23:49:00	0	0	4,745412	2,439	62,0136	-0,348	77,834	3,5	1007,48	5,9	8,1	7,9	1	1	1	1	1	1	1	1	1	0	1	-61,733615	273,390897	255,018309	0
14.01.2021	23:49:01	0	0	4,745412	2,439	62,0136	-0,348	77,834	3,5	1007,48	5,9	8,1	7,9	1	1	1	1	1	1	1	1	1	0	1	-61,733615	273,390897	255,018309	0
14.01.2021	23:49:02	0	0	3,72856	2,41725	57,7224	-0,345	77,859	3,5	1007,64	6	8,1	7,8	1	1	1	1	1	1	1	1	1	0	1	-59,760395	273,297633	256,559525	0
14.01.2021	23:49:03	0	0	2,485692	2,63175	64,6236	-0,345	77,841	3,5	1007,66	5,9	8,1	7,9	1	1	1	1	1	1	1	1	1	0	1	-58,703312	273,236183	257,332211	0
14.01.2021	23:49:04	0	0	2,824667	2,949	64,2456	-0,349	77,87	3,5	1007,6	6	8,1	7,8	1	1	1	1	1	1	1	1	1	0	1	-64,059197	273,319116	252,360191	0
14.01.2021	23:49:05	0	0	4,40648	3,1935	69,8436	-0,351	77,88	3,5	1007,66	5,9	8,1	7,8	1	1	1	1	1	1	1	1	1	0	1	-61,169838	273,408165	255,662119	0
14.01.2021	23:49:06	0	0	3,276594	3,32175	67,3236	-0,348	77,886	3,5	1007,64	5,9	8,1	7,9	1	1	1	1	1	1	1	1	1	0	1	-59,196617	273,353537	257,3822	0
14.01.2021	23:49:07	0	0	3,502587	3,19125	54,5724	-0,342	77,917	3,5	1007,58	6	8,1	7,8	1	1	1	1	1	1	1	1	1	0	1	-63,565891	273,399529	253,226038	0
14.01.2021	23:49:08	0	0	4,180482	2,94075	54,8748	-0,352	77,923	3,5	1007,48	6	8	7,9	1	1	1	1	1	1	1	1	1	0	1	-64,552502	273,35928	252,05292	0
14.01.2021	23:49:09	0	0	2,598678	2,799	60,5592	-0,35	77,938	3,5	1007,36	6	8	7,9	1	1	1	1	1	1	1	1	1	0	1	-59,267089	273,389459	257,478169	0
14.01.2021	23:49:10	0	0	3,502566	2,7675	48,5244	-0,346	77,958	3,5	1007,46	6	8,1	7,9	1	1	1	1	1	1	1	1	1	0	1	-64,059197	273,226199	251,930134	0
14.01.2021	23:49:11	0	0	4,406454	2,79075	48,132	-0,348	77,97	3,5	1007,68	5,9	8,1	7,9	1	1	1	1	1	1	1	1	1	0	1	-63,918252	273,291909	252,375165	0
14.01.2021	23:49:12	0	0	4,180482	2,7915	51,4404	-0,347	78	3,5	1007,6	5,9	8,1	7,9	1	1	1	1	1	1	1	1	1	0	1	-60,042283	273,406726	256,783001	0
14.01.2021	23:49:13	0	0	2,711664	2,553	65,4948	-0,349	78,015	3,5	1007,62	5,9	8,1	7,9	1	1	1	1	1	1	1	1	1	0	1	-61,592671	273,339187	254,919675	0
14.01.2021	23:49:14	0	0	2,937636	2,52975	57,4092	-0,346	78,031	3,5	1007,54	5,9	8,1	7,9	1	1	1	1	1	1	1	1	1	0	1	-62,931642	273,399529	253,860287	0
14.01.2021	23:49:15	0	0	2,711664	2,6115	61,7148	-0,353	78,036	3,5	1007,52	5,9	8,1	7,9	1	1	1	1	1	1	1	1	1	0	1	-59,901339	273,301928	256,438463	0
14.01.2021	23:49:16	0	0	3,163608	2,54325	60,2604	-0,349	78,048	3,5	1007,76	5,9	8	7,9	1	1	1	1	1	1	1	1	1	0	1	-63,143058	273,393774	253,622198	0
14.01.2021	23:49:17	0	0	2,937636	2,39325	56,2752	-0,353	78,074	3,5	1007,52	5,9	8,1	7,9	1	1	1	1	1	1	1	1	1	0	1	-62,367865	273,244746	253,707275	0
14.01.2021	23:49:18	0	0	2,598678	2,256	66,5316	-0,354	78,081	3,5	1007,58	6	8,1	7,9	1	1	1	1	1	1	1	1	1	0	1	-61,381254	273,365025	255,250783	0
14.01.2021	23:49:19	0	0	3,841524	2,19	75,258	-0,347	78,081	3,5	1007,6	5,9	8,1	7,9	1	1	1	1	1	1	1	1	1	0	1	-58,280479	273,400968	258,51812	0
14.01.2021	23:49:20	0	0	3,615573	1,96575	65,4696	-0,347	78,09	3,5	1007,68	5,9	8,1	7,8	1	1	1	1	1	1	1	1	1	0	1	-65,680056	273,256169	250,44794	0
14.01.2021	23:49:21	0	0	5,084369	1,839	73,7928	-0,35	78,085	3,5	1007,58	5,9	8	7,9	1	1	1	1	1	1	1	1	1	0	1	-63,636364	273,388021	253,10223	0
14.01.2021	23:49:22	0	0	4,632426	1,8225	67,3704	-0,347	78,083	3,5	1007,68	6	8	7,9	1	1	1	1	1	1	1	1	1	0	1	-63,565891	273,324848	252,880044	0
14.01.2021	23:49:23	0	0	3,163608	1,85625	75,2148	-0,351	78,087	3,5	1007,58	5,9	8,1	7,9	1	1	1	1	1	1	1	1	1	0	1	-62,720226	273,389459	254,025033	0
14.01.2021	23:49:24	0	0	3,38958	2,14125	71,6076	-0,353	78,08	3,5	1007,6	5,9	8,1	7,9	1	1	1	1	1	1	1	1	1	0	1	-58,914729	273,290478	257,372065	0
14.01.2021	23:49:25	0	0	3,163608	2,235	51,7536	-0,346	78,078	3,5	1007,7	5,9	8	7,9	1	1	1	1	1	1	1	1	1	0	1	-59,830867	273,197699	256,026644	0
14.01.2021	23:49:26	0	0	4,067496	2,172	36,936	-0,355	78,077	3,5	1007,62	5,9	8,1	7,9	1	1	1	1	1	1	1	1	1	0	1	-63,495419	273,320549	252,930604	0
14.01.2021	23:49:27	0	0	2,598678	2,2845	39,2544	-0,354	78,093	3,5	1007,62	5,9	8	7,9	1	1	1	1	1	1	1	1	1	0	1	-64,904863	273,383707	251,81374	0
14.01.2021	23:49:28	0	0	2,711664	2,4135	35,496	-0,353	78,096	3,5	1007,72	5,9	8	7,9	1	1	1	1	1	1	1	1	1	0	1	-60,958421	273,221921	255,011121	0
14.01.2021	23:49:29	0	0	2,937636	2,8275	43,6824	-0,357	78,099	3,5	1007,66	6	8	7,9	1	1	1	1	1	1	1	1	1	0	1	-60,817477	273,346361	255,728097	0
14.01.2021	23:49:30	0	0	4,406454	2,99925	65,0916	-0,358	78,095	3,5	1007,74	5,9	8,1	7,9	1	1	1	1	1	1	1	1	1	0	1	-59,055673	273,377957	257,636283	0
14.01.2021	23:49:31	0	0	4,971384	3,03975	63,8712	-0,353	78,105	3,5	1007,42	5,9	8	7,9	1	1	1	1	1	1	1	1	1	0	1	-67,019027	273,352102	249,55314	0
14.01.2021	23:49:32	0	0	3,050622	2,9235	60,5484	-0,354	78,115	3,5	1007,66	5,9	8	7,9	1	1	1	1	1	1	1	1	1	0	1	-61,804087	273,367898	254,841261	0
14.01.2021	23:49:33	0	0	2,82465	2,766	51,7536	-0,354	78,108	3,5	1007,74	5,9	8	7,9	1	1	1	1	1	1	1	1	1	0	1	-64,693446	273,321982	251,739214	0
14.01.2021	23:49:34	0	0	4,858398	2,535	71,2404	-0,354	78,097	3,5	1007,64	5,9	8	7,9	1	1	1	1	1	1	1	1	1	0	1	-61,663143	273,366461	254,975549	0
14.01.2021	23:49:35	0	0	2,937636	2,373	59,8572	-0,359	78,103	3,5	1007,58	6	8	7,9	1	1	1	1	1	1	1	1	1	0	1	-62,790698	273,33345	253,695077	0
14.01.2021	23:49:36	0	0	4,971384	2,2005	43,6752	-0,361	78,108	3,5	1007,56	5,9	8	7,9	1	1	1	1	1	1	1	1	1	0	1	-62,367865	273,370771	254,290797	0
14.01.2021	23:49:37	0	0	4,067496	2,1465	54,0792	-0,357	78,091	3,5	1007,58	5,9	8	7,9	1	1	1	1	1	1	1	1	1	0	1	-67,794221	273,257597	248,340385	0
14.01.2021	23:49:38	0	0	3,050622	2,178	55,9332	-0,354	78,092	3,5	1007,64	5,9	8	7,9	1	1	1	1	1	1	1	1	1	0	1	-60,747005	273,203396	255,136851	0
14.01.2021	23:49:39	0	0	5,197355	2,24625	46,9872	-0,353	78,089	3,5	1007,72	5,9	8	7,9	1	1	1	1	1	1	1	1	1	0	1	-62,649753	273,267598	253,531137	0
14.01.2021	23:49:40	0	0	4,067496	2,4825	62,802	-0,355	78,091	3,5	1007,6	5,9	8	7,9	1	1	1	1	1	1	1	1	1	0	1	-60,887949	273,203396	254,995906	0
14.01.2021	23:49:41	0	0	2,711664	2,814	58,1328	-0,357	78,079	3,5	1007,56	5,9	8	7,9	1	1	1	1	1	1	1	1	1	0	1	-66,384778	273,279035	249,849045	0
14.01.2021	23:49:42	0	0	4,632426	2,80125	70,596	-0,36	78,089	3,5	1007,64	6	8	7,9	1	1	1	1	1	1	1	1	1	0	1	-60,676533	273,192004	255,154642	0
14.01.2021	23:49:43	0	0	3,050622	2,80725	66,2328	-0,362	78,082	3,5	1007,7	5,9	8	7,9	1	1	1	1	1	1	1	1	1	0	1	-62,790698	273,251884	253,317473	0
14.01.2021	23:49:44	0	0	4,406454	3,12075	64,2348	-0,36	78,091	3,5	1007,66	6	8	7,9	1	1	1	1	1	1	1	1	1	0	1	-63,918252	273,20482	251,972191	0
14.01.2021	23:49:45	0	0	3,050622	3,3255	62,0496	-0,364	78,069	3,5	1007,56	6	8	7,9	1	1	1	1	1	1	1	1	1	0	1	-62,649753	273,23333	253,372569	0
14.01.2021	23:49:46	0	0	3,95451	3,4005	63,486	-0,359	78,091	3,5	1007,62	6	8	7,9	1	1	1	1	1	1	1	1	1	0	1	-60,324172	273,247601	255,764179	0
14.01.2021	23:49:47	0	0	4,293468	3,37125	62,424	-0,357	78,07	3,5	1007,5	6	8	7,9	1	1	1	1	1	1	1	1	1	0	1	-63,495419	273,193428	252,342339	0
14.01.2021	23:49:48	0	0	5,084369	3,25725	65,484	-0,362	78,085	3,5	1007,54	6	8	7,9	1	1	1	1	1	1	1	1	1	0	1	-58,139535	273,304791	258,213526	0
14.01.2021	23:49:49	0	0	3,276594	3,237	59,8896	-0,362	78,097	3,5	1007,68	6	8	7,9	1	1	1	1	1	1	1	1	1	0	1	-62,86117	273,362152	253,757559	0
14.01.2021	23:49:50	0	0	3,728538	3,168	56,2968	-0,355	78,101	3,5	1007,52	6	8	7,9	1	1	1	1	1	1	1	1	1	0	1	-62,085976	273,29334	254,214066	0
14.01.2021	23:49:51	0	0	4,406454	3,25125	59,8824	-0,361	78,101	3,5	1007,58	6	8	7,9	1	1	1	1	1	1	1	1	1	0	1	-63,424947	273,190581	252,399646	0
14.01.2021	23:49:52	0	0	5,197355	3,3075	54,1008	-0,362	78,094	3,5	1007,72	6	8,1	7,9	1	1	1	1	1	1	1	1	1	0	1	-61,24031	273,251884	254,867861	0
14.01.2021	23:49:53	0	0	3,615552	3,291	58,8816	-0,359	78,091	3,5	1007,66	6	8	7,9	1	1	1	1	1	1	1	1	1	0	1	-61,733615	273,369335	254,918389	0
14.01.2021	23:49:54	0	0	3,841524	3,32475	65,8332	-0,365	78,097	3,5	1007,66	6	8	7,9	1	1	1	1	1	1	1	1	1	0	1	-62,367865	273,311952	254,018352	0
14.01.2021	23:49:55	0	0	4,971384	3,336	61,6932	-0,361	78,111	3,5	1007,6	6	8	7,9	1	1	1	1	1	1	1	1	1	0	1	-58,844257	273,327715	257,614956	0
14.01.2021	23:49:56	0	0	4,971384	3,3105	63,882	-0,365	78,119	3,5	1007,58	6	8	7,9	1	1	1	1	1	1	1	1	1	0	1	-62,790698	273,343491	253,741583	0
14.01.2021	23:49:57	0	0	3,841524	3,26775	65,448	-0,367	78,128	3,5	1007,6	6	8	7,9	1	1	1	1	1	1	1	1	1	0	1	-60,535588	273,283325	255,718094	0
14.01.2021	23:49:58	0	0	2,485692	3,396	63,8784	-0,363	78,137	3,5	1007,58	6	8	7,9	1	1	1	1	1	1	1	1	1	0	1	-59,126145	273,187734	256,685285	0
14.01.2021	23:49:59	0	0	3,38958	3,38475	65,0988	-0,37	78,148	3,5	1007,54	6	8	7,9	1	1	1	1	1	1	1	1	1	0	1	-63,072586	273,227625	252,923341	0
14.01.2021	23:50:00	0	0	3,163608	3,1725	62,4384	-0,367	78,169	3,5	1007,58	6	8	7,9	1	1	1	1	1	1	1	1	1	0	1	-63,284003	273,271886	252,916733	0
14.01.2021	23:50:01	0	0	3,163608	3,1725	62,4384	-0,367	78,169	3,5	1007,58	6	8	7,9	1	1	1	1	1	1	1	1	1	0	1	-63,284003	273,271886	252,916733	0
14.01.2021	23:50:02	0	0	2,71168	3,11775	68,796	-0,365	78,198	3,5	1007,66	6	8	7,8	1	1	1	1	1	1	1	1	1	0	1	-61,028894	273,375082	255,649743	0
14.01.2021	23:50:03	0	0	4,858427	3,1605	76,8456	-0,367	78,18	3,5	1007,6	6	8,1	7,8	1	1	1	1	1	1	1	1	1	0	1	-61,24031	273,366461	255,398382	0
14.01.2021	23:50:04	0	0	4,406454	3,2985	72,6696	-0,369	78,186	3,5	1007,72	6	8	7,9	1	1	1	1	1	1	1	1	1	0	1	-65,257223	273,321982	251,175437	0
14.01.2021	23:50:05	0	0	3,615573	3,2445	72,306	-0,373	78,178	3,5	1007,62	6	8,1	7,8	1	1	1	1	1	1	1	1	1	0	1	-62,367865	273,243319	253,700671	0
14.01.2021	23:50:06	0	0	4,406454	3,05775	71,244	-0,367	78,172	3,5	1007,68	6	8	7,9	1	1	1	1	1	1	1	1	1	0	1	-58,914729	273,257597	257,219877	0
14.01.2021	23:50:07	0	0	2,82465	2,979	76,824	-0,363	78,19	3,5	1007,62	6	8	7,9	1	1	1	1	1	1	1	1	1	0	1	-59,689922	273,194851	256,154419	0
14.01.2021	23:50:08	0	0	4,180482	2,89425	77,5872	-0,366	78,174	3,5	1007,74	6	8	7,9	1	1	1	1	1	1	1	1	1	0	1	-64,975335	273,257597	251,159271	0
14.01.2021	23:50:09	0	0	2,937636	2,8425	74,5524	-0,364	78,171	3,5	1007,78	6	8,1	7,9	1	1	1	1	1	1	1	1	1	0	1	-64,904863	273,360716	251,707213	0
14.01.2021	23:50:10	0	0	3,502587	2,82075	66,9312	-0,366	78,154	3,5	1007,56	6	8,1	7,8	1	1	1	1	1	1	1	1	1	0	1	-57,857646	273,216219	258,08552	0
14.01.2021	23:50:11	0	0	3,728515	2,68125	66,2292	-0,368	78,173	3,5	1007,64	6	8	8	1	1	1	1	1	1	1	1	1	0	1	-58,280479	273,200547	257,590203	0
14.01.2021	23:50:12	0	0	4,067496	2,69475	60,948	-0,367	78,177	3,5	1007,64	6	8,1	7,9	1	1	1	1	1	1	1	1	1	0	1	-59,055673	273,239037	256,993053	0
14.01.2021	23:50:13	0	0	4,067496	2,69925	63,8784	-0,365	78,188	3,5	1007,76	5,9	8,1	7,9	1	1	1	1	1	1	1	1	1	0	1	-61,099366	273,190581	254,725227	0
14.01.2021	23:50:14	0	0	5,197355	2,66475	57,7404	-0,363	78,181	3,5	1007,66	6	8	7,9	1	1	1	1	1	1	1	1	1	0	1	-61,592671	273,239037	254,456055	0
14.01.2021	23:50:15	0	0	3,050622	2,58	64,6272	-0,365	78,176	3,5	1007,6	6	8	7,9	1	1	1	1	1	1	1	1	1	0	1	-66,596195	273,354973	249,989273	0
14.01.2021	23:50:16	0	0	5,197387	2,52675	67,68	-0,369	78,17	3,5	1007,68	6	8,1	7,8	1	1	1	1	1	1	1	1	1	0	1	-66,666667	273,321982	249,765993	0
14.01.2021	23:50:17	0	0	2,824667	2,43	62,4168	-0,369	78,171	3,5	1007,68	6	8,1	7,8	1	1	1	1	1	1	1	1	1	0	1	-62,720226	273,210519	253,196575	0
14.01.2021	23:50:18	0	0	2,033748	2,49075	70,6752	-0,378	78,172	3,5	1007,54	6	8,1	7,9	1	1	1	1	1	1	1	1	1	0	1	-64,552502	273,241891	251,50943	0
14.01.2021	23:50:19	0	0	2,598678	2,67075	66,5352	-0,373	78,173	3,5	1007,54	6	8,1	7,9	1	1	1	1	1	1	1	1	1	0	1	-60,887949	273,196275	254,962977	0
14.01.2021	23:50:20	0	0	3,050603	2,6415	63,1764	-0,366	78,166	3,5	1007,78	6	8,1	8	1	1	1	1	1	1	1	1	1	0	1	-59,689922	273,311952	256,696294	0
14.01.2021	23:50:21	0	0	4,06752	2,49525	58,9608	-0,369	78,154	3,5	1007,52	6	8,1	7,8	1	1	1	1	1	1	1	1	1	0	1	-61,522199	273,369335	255,129806	0
14.01.2021	23:50:22	0	0	3,276613	2,36475	60,5376	-0,37	78,15	3,5	1007,62	6	8	7,8	1	1	1	1	1	1	1	1	1	0	1	-60,2537	273,313385	256,13915	0
14.01.2021	23:50:23	0	0	2,71168	2,3265	64,6308	-0,372	78,152	3,5	1007,52	6	8	7,8	1	1	1	1	1	1	1	1	1	0	1	-63,284003	273,224773	252,698731	0
14.01.2021	23:50:24	0	0	2,259733	2,34075	66,2148	-0,37	78,128	3,5	1007,56	6	8,1	7,8	1	1	1	1	1	1	1	1	1	0	1	-59,055673	273,369335	257,596332	0
14.01.2021	23:50:25	0	0	3,615552	2,394	68,0148	-0,374	78,141	3,5	1007,7	6	8,1	7,9	1	1	1	1	1	1	1	1	1	0	1	-65,680056	273,379394	251,01856	0
14.01.2021	23:50:26	0	0	3,615573	2,352	63,4968	-0,372	78,146	3,5	1007,62	6	8	7,8	1	1	1	1	1	1	1	1	1	0	1	-66,243834	273,284755	250,01647	0
14.01.2021	23:50:27	0	0	2,71168	2,331	61,6896	-0,378	78,122	3,5	1007,6	6	8,1	7,8	1	1	1	1	1	1	1	1	1	0	1	-62,579281	273,367898	254,066067	0
14.01.2021	23:50:28	0	0	4,06752	2,3115	60,5556	-0,373	78,146	3,5	1007,62	6	8,1	7,8	1	1	1	1	1	1	1	1	1	0	1	-56,307259	273,284755	259,953045	0
14.01.2021	23:50:29	0	0	3,3896	2,259	58,1076	-0,376	78,141	3,5	1007,6	6	8,1	7,8	1	1	1	1	1	1	1	1	1	0	1	-62,579281	273,193428	253,258477	0
14.01.2021	23:50:30	0	0	3,163627	2,24025	58,8852	-0,379	78,151	3,5	1007,62	6	8,1	7,8	1	1	1	1	1	1	1	1	1	0	1	-60,394644	273,23333	255,627678	0
14.01.2021	23:50:31	0	0	2,485707	2,18625	58,8564	-0,374	78,177	3,5	1007,66	6	8,1	7,8	1	1	1	1	1	1	1	1	1	0	1	-62,156448	273,20482	253,733995	0
14.01.2021	23:50:32	0	0	4,74544	2,06175	61,4124	-0,38	78,158	3,5	1007,54	6	8,1	7,8	1	1	1	1	1	1	1	1	1	0	1	-61,24031	273,342057	255,285325	0
14.01.2021	23:50:33	0	0	4,632453	1,95	63,882	-0,377	78,171	3,5	1007,64	5,9	8,1	7,8	1	1	1	1	1	1	1	1	1	0	1	-63,143058	273,336319	253,356	0
14.01.2021	23:50:34	0	0	3,954533	2,001	62,4168	-0,376	78,17	3,5	1007,62	6	8	7,8	1	1	1	1	1	1	1	1	1	0	1	-64,622974	273,227625	251,372953	0
14.01.2021	23:50:35	0	0	3,72856	2,1045	61,6824	-0,377	78,173	3,5	1007,66	6	8,1	7,8	1	1	1	1	1	1	1	1	1	0	1	-62,649753	273,323415	253,789544	0
14.01.2021	23:50:36	0	0	2,71168	2,16075	62,1216	-0,378	78,152	3,5	1007,62	6	8,1	7,8	1	1	1	1	1	1	1	1	1	0	1	-65,186751	273,190581	250,637842	0
14.01.2021	23:50:37	0	0	2,937653	2,202	59,8824	-0,381	78,136	3,5	1007,6	6	8,1	7,8	1	1	1	1	1	1	1	1	1	0	1	-61,028894	273,303359	255,317537	0
14.01.2021	23:50:38	0	0	4,632453	2,196	54,4968	-0,376	78,144	3,5	1007,66	6	8,1	7,8	1	1	1	1	1	1	1	1	1	0	1	-59,760395	273,369335	256,89161	0
14.01.2021	23:50:39	0	0	4,180507	2,1735	59,85	-0,383	78,141	3,5	1007,68	5,8	8,1	7,8	1	1	1	1	1	1	1	1	1	0	1	-65,750529	273,261883	250,40391	0
14.01.2021	23:50:40	0	0	2,937653	2,1765	55,5444	-0,377	78,144	3,5	1007,62	6	8,1	7,8	1	1	1	1	1	1	1	1	1	0	1	-61,028894	273,184888	254,769376	0
14.01.2021	23:50:41	0	0	3,728515	2,1975	52,1388	-0,38	78,128	3,5	1007,6	6	8,1	8	1	1	1	1	1	1	1	1	1	0	1	-61,804087	273,206245	254,092944	0
14.01.2021	23:50:42	0	0	4,971413	2,15025	55,1772	-0,378	78,132	3,5	1007,68	6	8,1	7,8	1	1	1	1	1	1	1	1	1	0	1	-63,424947	273,337753	253,080755	0
14.01.2021	23:50:43	0	0	4,40648	2,12325	57,042	-0,382	78,15	3,5	1007,7	6	8,1	7,8	1	1	1	1	1	1	1	1	1	0	1	-63,565891	273,210519	252,350909	0
14.01.2021	23:50:44	0	0	3,276574	2,10675	49,5828	-0,382	78,151	3,5	1007,64	5,8	8,1	8	1	1	1	1	1	1	1	1	1	0	1	-57,293869	273,320549	259,132154	0
14.01.2021	23:50:45	0	0	2,824667	2,07975	52,5024	-0,382	78,139	3,5	1007,56	6	8,1	7,8	1	1	1	1	1	1	1	1	1	0	1	-65,609584	273,199123	250,254512	0
14.01.2021	23:50:46	0	0	3,05064	2,016	43,2936	-0,381	78,16	3,5	1007,66	6	8,1	7,8	1	1	1	1	1	1	1	1	1	0	1	-59,548978	273,337753	256,956724	0
14.01.2021	23:50:47	0	0	4,74544	2,016	43,6644	-0,384	78,161	3,5	1007,58	6	8,1	7,8	1	1	1	1	1	1	1	1	1	0	1	-60,958421	273,362152	255,660307	0
14.01.2021	23:50:48	0	0	4,858427	2,13225	38,07	-0,386	78,155	3,5	1007,74	5,8	8,1	7,8	1	1	1	1	1	1	1	1	1	0	1	-63,495419	273,311952	252,890797	0
14.01.2021	23:50:49	0	0	2,485707	2,15025	45,5364	-0,381	78,178	3,5	1007,74	5,8	8,1	7,8	1	1	1	1	1	1	1	1	1	0	1	-60,958421	273,354973	255,627046	0
14.01.2021	23:50:50	0	0	4,519467	2,181	43,6608	-0,383	78,163	3,5	1007,7	6	8,1	7,8	1	1	1	1	1	1	1	1	1	0	1	-63,072586	273,201971	252,804682	0
14.01.2021	23:50:51	0	0	4,519467	2,1615	51,0588	-0,386	78,179	3,5	1007,58	6	8,1	7,8	1	1	1	1	1	1	1	1	1	0	1	-61,169838	273,189157	254,648173	0
14.01.2021	23:50:52	0	0	4,40648	2,187	48,1356	-0,385	78,174	3,5	1007,62	6	8,1	7,8	1	1	1	1	1	1	1	1	1	0	1	-61,451727	273,303359	254,894704	0
14.01.2021	23:50:53	0	0	4,293493	2,1975	50,706	-0,392	78,182	3,5	1007,52	5,8	8,1	7,8	1	1	1	1	1	1	1	1	1	0	1	-59,689922	273,291909	256,603495	0
14.01.2021	23:50:54	0	0	3,3896	2,18775	55,944	-0,387	78,197	3,5	1007,62	5,8	8	7,8	1	1	1	1	1	1	1	1	1	0	1	-61,733615	273,179197	254,03834	0
14.01.2021	23:50:55	0	0	2,03376	2,232	45,846	-0,385	78,194	3,5	1007,68	6	8,1	7,8	1	1	1	1	1	1	1	1	1	0	1	-62,085976	273,203396	253,79788	0
14.01.2021	23:50:56	0	0	3,3896	2,28675	50,6844	-0,394	78,184	3,5	1007,64	6	8,1	7,8	1	1	1	1	1	1	1	1	1	0	1	-60,042283	273,216219	255,900883	0
14.01.2021	23:50:57	0	0	4,632453	2,334	50,3028	-0,386	78,182	3,5	1007,5	6	8,1	7,8	1	1	1	1	1	1	1	1	1	0	1	-65,045807	273,349231	251,513062	0
14.01.2021	23:50:58	0	0	3,615573	2,253	45,5148	-0,383	78,19	3,5	1007,56	6	8,1	7,8	1	1	1	1	1	1	1	1	1	0	1	-59,830867	273,217644	256,118893	0
14.01.2021	23:50:59	0	0	3,276613	2,061	51,4584	-0,387	78,185	3,5	1007,54	6	8,1	7,8	1	1	1	1	1	1	1	1	1	0	1	-66,314306	273,207669	249,589315	0
14.01.2021	23:51:00	0	0	4,519467	2,0775	40,9968	-0,395	78,206	3,5	1007,66	5,8	8,1	7,8	1	1	1	1	1	1	1	1	1	0	1	-63,354475	273,303359	252,991956	0
14.01.2021	23:51:01	0	0	4,519467	2,0775	40,9968	-0,395	78,206	3,5	1007,66	5,8	8,1	7,8	1	1	1	1	1	1	1	1	1	0	1	-63,354475	273,303359	252,991956	0
14.01.2021	23:51:02	0	0	2,71168	2,1165	49,5756	-0,387	78,209	3,5	1007,68	5,8	8,1	7,8	1	1	1	1	1	1	1	1	1	0	1	-62,579281	273,16782	253,140074	0
14.01.2021	23:51:03	0	0	4,858427	2,067	43,3044	-0,39	78,228	3,5	1007,56	5,8	8,1	7,8	1	1	1	1	1	1	1	1	1	0	1	-63,284003	273,35928	253,321419	0
14.01.2021	23:51:04	0	0	3,3896	1,9665	67,7016	-0,393	78,228	3,5	1007,7	6	8,1	7,8	1	1	1	1	1	1	1	1	1	0	1	-61,24031	273,18062	254,538223	0
14.01.2021	23:51:05	0	0	2,598693	1,91475	58,8636	-0,391	78,24	3,5	1007,64	5,8	8,1	7,8	1	1	1	1	1	1	1	1	1	0	1	-61,522199	273,206245	254,374833	0
14.01.2021	23:51:06	0	0	4,293493	1,8105	51,7536	-0,392	78,248	3,5	1007,66	6	8,1	7,8	1	1	1	1	1	1	1	1	1	0	1	-62,156448	273,18062	253,622084	0
14.01.2021	23:51:07	0	0	3,72856	1,7625	43,6644	-0,392	78,26	3,5	1007,56	5,8	8,1	7,8	1	1	1	1	1	1	1	1	1	0	1	-61,522199	273,243319	254,546337	0
14.01.2021	23:51:08	0	0	4,180507	1,872	57,024	-0,389	78,279	3,5	1007,54	5,8	8,1	7,8	1	1	1	1	1	1	1	1	1	0	1	-66,596195	273,323415	249,843103	0
14.01.2021	23:51:09	0	0	3,841547	2,00175	45,1512	-0,399	78,279	3,5	1007,6	5,8	8,1	7,8	1	1	1	1	1	1	1	1	1	0	1	-60,042283	273,217644	255,907476	0
14.01.2021	23:51:10	0	0	3,3896	2,02125	45,1656	-0,392	78,278	3,5	1007,58	5,8	8	7,8	1	1	1	1	1	1	1	1	1	0	1	-63,213531	273,173508	252,53212	0
14.01.2021	23:51:11	0	0	4,293493	2,13525	51,4512	-0,39	78,308	3,5	1007,74	5,8	8	7,8	1	1	1	1	1	1	1	1	1	0	1	-64,763918	273,286186	251,503007	0
14.01.2021	23:51:12	0	0	4,632453	2,21475	38,8116	-0,394	78,316	3,5	1007,68	5,8	8	7,8	1	1	1	1	1	1	1	1	1	0	1	-62,085976	273,169242	253,639952	0
14.01.2021	23:51:13	0	0	4,74544	2,1525	34,794	-0,395	78,296	3,5	1007,46	5,8	8	7,8	1	1	1	1	1	1	1	1	1	0	1	-60,112755	273,256169	256,015241	0
14.01.2021	23:51:14	0	0	2,598693	2,03025	38,8044	-0,398	78,319	3,5	1007,66	6	8,1	7,8	1	1	1	1	1	1	1	1	1	0	1	-61,804087	273,347796	254,748134	0
14.01.2021	23:51:15	0	0	4,519467	1,91625	42,9228	-0,396	78,322	3,5	1007,66	5,9	8	7,8	1	1	1	1	1	1	1	1	1	0	1	-65,750529	273,211944	250,172862	0
14.01.2021	23:51:16	0	0	3,72856	1,833	47,7684	-0,393	78,331	3,5	1007,54	5,8	8,1	7,8	1	1	1	1	1	1	1	1	1	0	1	-65,186751	273,343491	251,34553	0
14.01.2021	23:51:17	0	0	3,05064	1,78725	45,1548	-0,395	78,341	3,5	1007,46	5,8	8,1	7,8	1	1	1	1	1	1	1	1	1	0	1	-58,844257	273,201971	257,033012	0
14.01.2021	23:51:18	0	0	2,598693	1,74975	60,5628	-0,397	78,352	3,5	1007,68	5,8	8,1	7,8	1	1	1	1	1	1	1	1	1	0	1	-57,998591	273,281895	258,248471	0
14.01.2021	23:51:19	0	0	2,71168	1,719	51,0372	-0,395	78,352	3,5	1007,66	5,8	8	7,8	1	1	1	1	1	1	1	1	1	0	1	-59,61945	273,16782	256,099905	0
14.01.2021	23:51:20	0	0	3,276613	1,75425	61,038	-0,392	78,335	3,5	1007,42	5,8	8	7,8	1	1	1	1	1	1	1	1	1	0	1	-63,777308	273,339187	252,735038	0
14.01.2021	23:51:21	0	0	3,954533	1,76625	45,1476	-0,395	78,35	3,5	1007,46	5,9	8	7,8	1	1	1	1	1	1	1	1	1	0	1	-65,327696	273,189157	250,490315	0
14.01.2021	23:51:22	0	0	4,858427	1,86675	60,2352	-0,397	78,34	3,5	1007,76	5,8	8	7,8	1	1	1	1	1	1	1	1	1	0	1	-64,129669	273,189157	251,688342	0
14.01.2021	23:51:23	0	0	3,163627	1,89675	55,1736	-0,392	78,336	3,5	1007,62	5,8	8	7,8	1	1	1	1	1	1	1	1	1	0	1	-71,106413	273,329149	245,359439	0
14.01.2021	23:51:24	0	0	3,3896	1,947	55,998	-0,395	78,342	3,5	1007,6	5,8	8	7,8	1	1	1	1	1	1	1	1	1	0	1	-67,371388	273,309087	249,001564	0
14.01.2021	23:51:25	0	0	4,74544	1,95075	56,2896	-0,398	78,335	3,5	1007,38	5,8	8	7,8	1	1	1	1	1	1	1	1	1	0	1	-65,257223	273,284755	251,00308	0
14.01.2021	23:51:26	0	0	2,937653	2,04675	56,304	-0,394	78,336	3,5	1007,7	5,9	8,1	7,8	1	1	1	1	1	1	1	1	1	0	1	-61,451727	273,183465	254,339963	0
14.01.2021	23:51:27	0	0	3,841547	2,178	54,5076	-0,399	78,338	3,5	1007,56	5,8	8	7,8	1	1	1	1	1	1	1	1	1	0	1	-62,790698	273,287616	253,482849	0
14.01.2021	23:51:28	0	0	3,163627	2,28375	55,548	-0,397	78,339	3,5	1007,46	5,8	8	7,8	1	1	1	1	1	1	1	1	1	0	1	-61,804087	273,220495	254,15886	0
14.01.2021	23:51:29	0	0	4,74544	2,40075	45,5364	-0,392	78,345	3,5	1007,66	5,9	8,1	7,8	1	1	1	1	1	1	1	1	1	0	1	-59,337562	273,336319	257,161497	0
14.01.2021	23:51:30	0	0	3,05064	2,55975	50,3244	-0,402	78,331	3,5	1007,48	5,9	8	7,8	1	1	1	1	1	1	1	1	1	0	1	-60,183228	273,211944	255,740163	0
14.01.2021	23:51:31	0	0	2,937653	2,68875	50,6916	-0,391	78,334	3,5	1007,66	5,9	8	7,8	1	1	1	1	1	1	1	1	1	0	1	-63,636364	273,150767	252,004162	0
14.01.2021	23:51:32	0	0	2,824667	2,91675	50,6952	-0,395	78,336	3,5	1007,54	5,9	8	7,8	1	1	1	1	1	1	1	1	1	0	1	-60,183228	273,254741	255,938159	0
14.01.2021	23:51:33	0	0	4,858427	3,402	51,7572	-0,4	78,336	3,5	1007,68	5,8	8,1	7,8	1	1	1	1	1	1	1	1	1	0	1	-69,133192	273,319116	247,286195	0
14.01.2021	23:51:34	0	0	4,858427	3,40425	36,6192	-0,395	78,346	3,5	1007,64	5,8	8	7,8	1	1	1	1	1	1	1	1	1	0	1	-61,522199	273,311952	254,864018	0
14.01.2021	23:51:35	0	0	5,0844	3,31425	48,1356	-0,401	78,346	3,5	1007,56	5,8	8	7,8	1	1	1	1	1	1	1	1	1	0	1	-62,438337	273,224773	253,544397	0
14.01.2021	23:51:36	0	0	4,519494	3,2115	49,2192	-0,397	78,357	3,5	1007,66	5,9	8	7,7	1	1	1	1	1	1	1	1	1	0	1	-58,985201	273,155029	256,675024	0
14.01.2021	23:51:37	0	0	3,163627	2,87775	70,218	-0,399	78,354	3,5	1007,48	5,9	8	7,8	1	1	1	1	1	1	1	1	1	0	1	-63,284003	273,284755	252,9763	0
14.01.2021	23:51:38	0	0	3,72856	2,67	58,8816	-0,4	78,363	3,5	1007,52	5,9	8	7,8	1	1	1	1	1	1	1	1	1	0	1	-59,055673	273,157871	256,617688	0
14.01.2021	23:51:39	0	0	2,598693	2,63775	68,0184	-0,406	78,364	3,5	1007,66	5,9	8	7,8	1	1	1	1	1	1	1	1	1	0	1	-64,552502	273,277605	251,674702	0
14.01.2021	23:51:40	0	0	5,0844	2,5995	74,5488	-0,399	78,393	3,5	1007,8	5,9	8	7,8	1	1	1	1	1	1	1	1	1	0	1	-62,085976	273,33345	254,399798	0
14.01.2021	23:51:41	0	0	4,745412	2,67675	65,0844	-0,4	78,391	3,5	1007,56	5,8	8	7,9	1	1	1	1	1	1	1	1	1	0	1	-63,636364	273,274745	252,577605	0
14.01.2021	23:51:42	0	0	4,74544	2,676	90,0432	-0,395	78,402	3,5	1007,6	5,9	8	7,8	1	1	1	1	1	1	1	1	1	0	1	-66,384778	273,334885	250,107638	0
14.01.2021	23:51:43	0	0	4,971413	2,59575	72,0036	-0,399	78,406	3,5	1007,62	5,9	8	7,8	1	1	1	1	1	1	1	1	1	0	1	-61,522199	273,182042	254,262912	0
14.01.2021	23:51:44	0	0	4,293493	2,5485	67,2876	-0,403	78,425	3,5	1007,64	5,9	8,1	7,8	1	1	1	1	1	1	1	1	1	0	1	-58,63284	273,172086	257,106235	0
14.01.2021	23:51:45	0	0	4,293493	2,79375	75,9744	-0,405	78,452	3,5	1007,56	5,9	8	7,8	1	1	1	1	1	1	1	1	1	0	1	-62,015504	273,309087	254,357448	0
14.01.2021	23:51:46	0	0	4,519467	2,93925	57,4236	-0,406	78,478	3,5	1007,66	5,9	8	7,8	1	1	1	1	1	1	1	1	1	0	1	-62,790698	273,330583	253,681794	0
14.01.2021	23:51:47	0	0	3,502587	2,946	60,2388	-0,398	78,49	3,5	1007,54	5,9	8	7,8	1	1	1	1	1	1	1	1	1	0	1	-59,760395	273,303359	256,586036	0
14.01.2021	23:51:48	0	0	4,519467	2,8305	51,4296	-0,399	78,541	3,5	1007,68	5,9	8	7,8	1	1	1	1	1	1	1	1	1	0	1	-66,384778	273,33345	250,100996	0
14.01.2021	23:51:49	0	0	3,163627	2,95425	47,7576	-0,402	78,57	3,5	1007,54	5,9	8,1	7,8	1	1	1	1	1	1	1	1	1	0	1	-60,324172	273,201971	255,553096	0
14.01.2021	23:51:50	0	0	3,502587	3,03825	72,6912	-0,399	78,622	3,5	1007,66	5,9	8	7,8	1	1	1	1	1	1	1	1	1	0	1	-59,971811	273,193428	255,865947	0
14.01.2021	23:51:51	0	0	4,40648	2,811	46,6056	-0,401	78,641	3,5	1007,52	5,9	8	7,8	1	1	1	1	1	1	1	1	1	0	1	-62,649753	273,336319	253,849306	0
14.01.2021	23:51:52	0	0	4,51944	2,79675	60,966	-0,405	78,666	3,5	1007,6	5,9	8	7,9	1	1	1	1	1	1	1	1	1	0	1	-65,398168	273,236183	250,637355	0
14.01.2021	23:51:53	0	0	3,05064	2,9775	47,376	-0,399	78,712	3,5	1007,72	5,9	8	7,8	1	1	1	1	1	1	1	1	1	0	1	-58,562368	273,140827	257,032213	0
14.01.2021	23:51:54	0	0	4,74544	3,36975	48,5316	-0,399	78,719	3,5	1007,64	5,9	8	7,8	1	1	1	1	1	1	1	1	1	0	1	-64,622974	273,23761	251,41915	0
14.01.2021	23:51:55	0	0	2,598693	3,41925	63,1728	-0,396	78,758	3,5	1007,8	5,9	8	7,8	1	1	1	1	1	1	1	1	1	0	1	-63,284003	273,324848	253,161932	0
14.01.2021	23:51:56	0	0	3,841524	3,363	59,886	-0,401	78,74	3,5	1007,56	5,9	8	7,9	1	1	1	1	1	1	1	1	1	0	1	-62,085976	273,192004	253,745199	0
14.01.2021	23:51:57	0	0	3,05064	3,21075	63,8928	-0,397	78,768	3,5	1007,56	5,9	8	7,8	1	1	1	1	1	1	1	1	1	0	1	-64,904863	273,182042	250,880248	0
14.01.2021	23:51:58	0	0	2,485707	3,033	60,9516	-0,4	78,777	3,5	1007,56	5,9	8	7,8	1	1	1	1	1	1	1	1	1	0	1	-61,310782	273,150767	254,329743	0
14.01.2021	23:51:59	0	0	5,084369	3,05325	64,6344	-0,4	78,782	3,5	1007,68	5,9	8	7,9	1	1	1	1	1	1	1	1	1	0	1	-64,411557	273,239037	251,637169	0
14.01.2021	23:52:00	0	0	2,937653	3,33675	62,7984	-0,402	78,804	3,5	1007,58	5,9	8	7,8	1	1	1	1	1	1	1	1	1	0	1	-61,381254	273,299065	254,945292	0
14.01.2021	23:52:01	0	0	2,937653	3,33675	62,7984	-0,402	78,804	3,5	1007,58	5,9	8	7,8	1	1	1	1	1	1	1	1	1	0	1	-61,381254	273,299065	254,945292	0
14.01.2021	23:52:02	0	0	4,51944	3,5595	60,9408	-0,394	78,797	3,5	1007,62	5,9	8	7,9	1	1	1	1	1	1	1	1	1	0	1	-65,045807	273,313385	251,347043	0
14.01.2021	23:52:03	0	0	3,841547	3,66975	62,4456	-0,392	78,794	3,5	1007,62	5,9	8	7,8	1	1	1	1	1	1	1	1	1	0	1	-63,495419	273,276175	252,725167	0
14.01.2021	23:52:04	0	0	3,050622	3,92175	68,7744	-0,395	78,801	3,5	1007,62	5,9	8	7,9	1	1	1	1	1	1	1	1	1	0	1	-63,213531	273,173508	252,53212	0
14.01.2021	23:52:05	0	0	2,937653	4,05	65,088	-0,394	78,847	3,5	1007,68	5,9	8	7,8	1	1	1	1	1	1	1	1	1	0	1	-63,495419	273,311952	252,890797	0
14.01.2021	23:52:06	0	0	4,74544	4,017	59,4936	-0,389	78,789	3,5	1007,44	5,9	8	7,8	1	1	1	1	1	1	1	1	1	0	1	-63,777308	273,164977	251,928903	0
14.01.2021	23:52:07	0	0	3,276613	3,96075	57,0456	-0,389	78,784	3,5	1007,58	5,9	8	7,8	1	1	1	1	1	1	1	1	1	0	1	-62,649753	273,184888	253,148516	0
14.01.2021	23:52:08	0	0	2,598693	3,96825	61,2936	-0,388	78,785	3,5	1007,64	5,9	8	7,8	1	1	1	1	1	1	1	1	1	0	1	-61,028894	273,139407	254,559126	0
14.01.2021	23:52:09	0	0	2,824684	3,94125	75,5748	-0,384	78,786	3,5	1007,64	5,9	8	7,7	1	1	1	1	1	1	1	1	1	0	1	-62,86117	273,200547	253,009512	0
14.01.2021	23:52:10	0	0	4,06752	3,8595	67,2768	-0,387	78,778	3,5	1007,68	5,9	8	7,8	1	1	1	1	1	1	1	1	1	0	1	-61,522199	273,326282	254,930375	0
14.01.2021	23:52:11	0	0	3,276594	3,7275	71,676	-0,391	78,762	3,5	1007,44	5,9	8	7,9	1	1	1	1	1	1	1	1	1	0	1	-63,424947	273,220495	252,538	0
14.01.2021	23:52:12	0	0	2,824667	3,3915	72,702	-0,387	78,778	3,5	1007,66	5,9	8	7,8	1	1	1	1	1	1	1	1	1	0	1	-64,411557	273,317683	252,001195	0
14.01.2021	23:52:13	0	0	5,197387	3,1185	63,8892	-0,39	78,757	3,5	1007,68	5,9	8	7,8	1	1	1	1	1	1	1	1	1	0	1	-59,689922	273,301928	256,64988	0
14.01.2021	23:52:14	0	0	4,632453	2,97225	57,7476	-0,387	78,77	3,5	1007,64	5,9	8	7,8	1	1	1	1	1	1	1	1	1	0	1	-57,928118	273,291909	258,365299	0
14.01.2021	23:52:15	0	0	2,146747	3,054	58,4964	-0,386	78,774	3,5	1007,56	5,9	8	7,8	1	1	1	1	1	1	1	1	1	0	1	-62,156448	273,187734	253,654982	0
14.01.2021	23:52:16	0	0	3,615573	3,04725	52,1352	-0,39	78,775	3,5	1007,62	5,9	8	7,8	1	1	1	1	1	1	1	1	1	0	1	-61,24031	273,18062	254,538223	0
14.01.2021	23:52:17	0	0	4,74544	3,1335	66,5208	-0,384	78,806	3,5	1007,64	5,9	8	7,8	1	1	1	1	1	1	1	1	1	0	1	-62,367865	273,280465	253,872577	0
14.01.2021	23:52:18	0	0	3,05064	3,1515	72,6984	-0,381	78,826	3,5	1007,72	5,9	8	7,8	1	1	1	1	1	1	1	1	1	0	1	-60,676533	273,159292	255,003397	0
14.01.2021	23:52:19	0	0	4,067496	3,11175	63,882	-0,383	78,827	3,5	1007,56	5,9	8	7,9	1	1	1	1	1	1	1	1	1	0	1	-60,324172	273,313385	256,068677	0
14.01.2021	23:52:20	0	0	4,180482	2,985	66,9096	-0,382	78,832	3,5	1007,7	5,9	8	7,9	1	1	1	1	1	1	1	1	1	0	1	-60,2537	273,26474	255,913963	0
14.01.2021	23:52:21	0	0	3,3896	2,93625	75,6108	-0,381	78,844	3,5	1007,6	5,9	8	7,8	1	1	1	1	1	1	1	1	1	0	1	-60,747005	273,299065	255,579542	0
14.01.2021	23:52:22	0	0	3,728538	2,92875	67,6872	-0,379	78,804	3,5	1007,74	5,9	8	7,9	1	1	1	1	1	1	1	1	1	0	1	-61,804087	273,162134	253,888982	0
14.01.2021	23:52:23	0	0	4,06752	3,08625	67,2984	-0,381	78,789	3,5	1007,64	5,9	8	7,8	1	1	1	1	1	1	1	1	1	0	1	-65,186751	273,304791	251,166309	0
14.01.2021	23:52:24	0	0	4,51944	3,11475	74,9448	-0,378	78,766	3,5	1007,52	5,9	8	7,9	1	1	1	1	1	1	1	1	1	0	1	-66,45525	273,216219	249,487916	0
14.01.2021	23:52:25	0	0	3,163608	3,29175	77,2056	-0,387	78,76	3,5	1007,66	5,9	8	7,9	1	1	1	1	1	1	1	1	1	0	1	-62,085976	273,150767	253,55455	0
14.01.2021	23:52:26	0	0	3,163627	3,60675	86,6556	-0,385	78,737	3,5	1007,56	5,9	8	7,8	1	1	1	1	1	1	1	1	1	0	1	-58,280479	273,199123	257,583617	0
14.01.2021	23:52:27	0	0	3,615573	3,474	62,0496	-0,377	78,735	3,5	1007,74	5,9	8	7,8	1	1	1	1	1	1	1	1	1	0	1	-64,693446	273,166398	251,019336	0
14.01.2021	23:52:28	0	0	3,163627	3,2325	69,1704	-0,369	78,728	3,5	1007,66	5,9	8	7,8	1	1	1	1	1	1	1	1	1	0	1	-62,790698	273,206245	253,106334	0
14.01.2021	23:52:29	0	0	4,74544	3,07575	61,7148	-0,38	78,705	3,5	1007,7	5,9	8	7,8	1	1	1	1	1	1	1	1	1	0	1	-62,367865	273,157871	253,305496	0
14.01.2021	23:52:30	0	0	2,711664	2,79825	52,4952	-0,379	78,696	3,5	1007,56	5,9	8	7,9	1	1	1	1	1	1	1	1	1	0	1	-63,636364	273,189157	252,181647	0
14.01.2021	23:52:31	0	0	4,858427	2,74275	63,8568	-0,376	78,683	3,5	1007,46	5,9	8	7,8	1	1	1	1	1	1	1	1	1	0	1	-60,183228	273,324848	256,262707	0
14.01.2021	23:52:32	0	0	3,615573	2,80275	77,2164	-0,38	78,683	3,5	1007,66	5,9	8	7,8	1	1	1	1	1	1	1	1	1	0	1	-61,592671	273,332016	254,886462	0
14.01.2021	23:52:33	0	0	4,858398	2,59275	72,3888	-0,384	78,668	3,5	1007,62	5,9	8	7,9	1	1	1	1	1	1	1	1	1	0	1	-54,827343	273,26474	261,34032	0
14.01.2021	23:52:34	0	0	4,40648	2,316	71,262	-0,374	78,669	3,5	1007,64	5,9	8	7,8	1	1	1	1	1	1	1	1	1	0	1	-60,958421	273,349231	255,600448	0
14.01.2021	23:52:35	0	0	3,276613	2,0805	85,9248	-0,376	78,661	3,5	1007,48	5,9	8	7,8	1	1	1	1	1	1	1	1	1	0	1	-58,773784	273,206245	257,123247	0
14.01.2021	23:52:36	0	0	2,824667	1,9545	81,6084	-0,384	78,625	3,5	1007,58	5,9	8	7,8	1	1	1	1	1	1	1	1	1	0	1	-63,072586	273,313385	253,320263	0
14.01.2021	23:52:37	0	0	4,858427	1,97775	68,4036	-0,382	78,62	3,5	1007,6	5,9	8	7,8	1	1	1	1	1	1	1	1	1	0	1	-63,636364	273,329149	252,829488	0
14.01.2021	23:52:38	0	0	4,74544	2,18775	72,6732	-0,382	78,6	3,5	1007,6	5,9	8	7,8	1	1	1	1	1	1	1	1	1	0	1	-61,733615	273,216219	254,209551	0
14.01.2021	23:52:39	0	0	4,180507	2,37825	60,5592	-0,384	78,593	3,5	1007,66	5,9	8	7,8	1	1	1	1	1	1	1	1	1	0	1	-67,935166	273,31625	248,470952	0
14.01.2021	23:52:40	0	0	4,06752	2,694	74,916	-0,378	78,581	3,5	1007,66	5,9	8	7,8	1	1	1	1	1	1	1	1	1	0	1	-61,028894	273,209094	254,881316	0
14.01.2021	23:52:41	0	0	4,858398	2,90775	75,6036	-0,378	78,56	3,5	1007,64	5,9	8	7,9	1	1	1	1	1	1	1	1	1	0	1	-59,830867	273,324848	256,615068	0
14.01.2021	23:52:42	0	0	4,745412	2,86875	68,4072	-0,374	78,561	3,5	1007,52	5,9	8	7,9	1	1	1	1	1	1	1	1	1	0	1	-59,830867	273,172086	255,908209	0
14.01.2021	23:52:43	0	0	3,728538	2,78025	88,9596	-0,374	78,57	3,5	1007,6	5,9	8	7,9	1	1	1	1	1	1	1	1	1	0	1	-63,706836	273,223347	252,269302	0
14.01.2021	23:52:44	0	0	4,180507	2,64675	61,7112	-0,373	78,562	3,5	1007,72	5,9	8	7,8	1	1	1	1	1	1	1	1	1	0	1	-61,310782	273,346361	255,234792	0
14.01.2021	23:52:45	0	0	5,0844	2,34975	52,1424	-0,381	78,545	3,5	1007,58	5,9	8	7,8	1	1	1	1	1	1	1	1	1	0	1	-62,790698	273,332016	253,688435	0
14.01.2021	23:52:46	0	0	2,937653	2,29425	47,7432	-0,375	78,53	3,5	1007,72	5,9	8	7,8	1	1	1	1	1	1	1	1	1	0	1	-63,636364	273,357844	252,962406	0
14.01.2021	23:52:47	0	0	5,197387	2,316	48,8196	-0,372	78,525	3,5	1007,68	5,9	8	7,8	1	1	1	1	1	1	1	1	1	0	1	-61,381254	273,330583	255,091238	0
14.01.2021	23:52:48	0	0	3,163627	2,22525	88,9956	-0,373	78,531	3,5	1007,74	5,9	8	7,8	1	1	1	1	1	1	1	1	1	0	1	-62,085976	273,363589	254,539407	0
14.01.2021	23:52:49	0	0	3,954533	2,20275	65,0808	-0,372	78,524	3,5	1007,54	5,9	8	7,8	1	1	1	1	1	1	1	1	1	0	1	-59,408034	273,313385	256,984816	0
14.01.2021	23:52:50	0	0	3,276613	2,085	85,9212	-0,375	78,531	3,5	1007,68	5,9	8	7,8	1	1	1	1	1	1	1	1	1	0	1	-60,465116	273,210519	255,451684	0
14.01.2021	23:52:51	0	0	4,971413	1,9455	42,912	-0,38	78,527	3,5	1007,46	5,9	8	7,8	1	1	1	1	1	1	1	1	1	0	1	-60,958421	273,206245	254,93861	0
14.01.2021	23:52:52	0	0	3,954533	1,92	60,2388	-0,372	78,516	3,5	1007,52	5,9	8	7,8	1	1	1	1	1	1	1	1	1	0	1	-57,082452	273,344926	259,456475	0
14.01.2021	23:52:53	0	0	3,276613	1,85775	61,3152	-0,371	78,524	3,5	1007,7	5,9	8	7,8	1	1	1	1	1	1	1	1	1	0	1	-58,985201	273,214794	256,951373	0
14.01.2021	23:52:54	0	0	4,74544	1,773	58,878	-0,371	78,513	3,5	1007,66	5,9	8	7,8	1	1	1	1	1	1	1	1	1	0	1	-61,945032	273,346361	254,600542	0
14.01.2021	23:52:55	0	0	4,40648	1,78875	44,3988	-0,378	78,488	3,5	1007,56	5,9	8	7,8	1	1	1	1	1	1	1	1	1	0	1	-66,878083	273,35928	249,727339	0
14.01.2021	23:52:56	0	0	5,42336	1,704	57,7332	-0,374	78,506	3,5	1007,68	5,9	8	7,8	1	1	1	1	1	1	1	1	1	0	1	-59,478506	273,369335	257,173499	0
14.01.2021	23:52:57	0	0	4,06752	1,55625	44,0568	-0,372	78,498	3,5	1007,5	5,9	8	7,8	1	1	1	1	1	1	1	1	1	0	1	-68,217054	273,367898	248,428294	0
14.01.2021	23:52:58	0	0	4,632453	1,54875	53,7192	-0,373	78,493	3,5	1007,74	5,9	8	7,8	1	1	1	1	1	1	1	1	1	0	1	-63,424947	273,332016	253,054186	0
14.01.2021	23:52:59	0	0	3,3896	1,68375	72,3096	-0,372	78,522	3,5	1007,64	5,9	8	7,8	1	1	1	1	1	1	1	1	1	0	1	-64,411557	273,231904	251,604165	0
14.01.2021	23:53:00	0	0	3,615552	1,92075	69,1596	-0,373	78,528	3,5	1007,76	5,9	8	7,9	1	1	1	1	1	1	1	1	1	0	1	-58,350951	273,31625	258,055166	0
14.01.2021	23:53:01	0	0	3,615552	1,92075	69,1596	-0,373	78,528	3,5	1007,76	5,9	8	7,9	1	1	1	1	1	1	1	1	1	0	1	-58,350951	273,31625	258,055166	0
14.01.2021	23:53:02	0	0	4,858427	2,0055	60,2316	-0,372	78,527	3,5	1007,6	5,9	8	7,8	1	1	1	1	1	1	1	1	1	0	1	-59,126145	273,194851	256,718197	0
14.01.2021	23:53:03	0	0	2,485692	2,16	61,6608	-0,371	78,53	3,5	1007,5	5,9	8	7,9	1	1	1	1	1	1	1	1	1	0	1	-61,169838	273,266169	255,004439	0
14.01.2021	23:53:04	0	0	2,824667	2,15475	52,128	-0,369	78,512	3,5	1007,64	5,9	8	7,8	1	1	1	1	1	1	1	1	1	0	1	-63,424947	273,206245	252,472084	0
14.01.2021	23:53:05	0	0	4,519467	2,11575	44,7768	-0,37	78,522	3,5	1007,74	5,9	8	7,8	1	1	1	1	1	1	1	1	1	0	1	-61,099366	273,26474	255,068298	0
14.01.2021	23:53:06	0	0	4,519467	2,0655	36,6228	-0,38	78,516	3,5	1007,46	5,9	8	7,8	1	1	1	1	1	1	1	1	1	0	1	-59,689922	273,197699	256,167588	0
14.01.2021	23:53:07	0	0	2,71168	2,0925	45,8388	-0,377	78,491	3,5	1007,44	5,9	8	7,8	1	1	1	1	1	1	1	1	1	0	1	-63,354475	273,301928	252,985327	0
14.01.2021	23:53:08	0	0	3,72856	2,127	54,4788	-0,371	78,498	3,5	1007,76	5,9	8	7,8	1	1	1	1	1	1	1	1	1	0	1	-64,270613	273,200547	251,600069	0
14.01.2021	23:53:09	0	0	4,858427	2,043	52,1496	-0,373	78,496	3,5	1007,66	5,9	8	7,8	1	1	1	1	1	1	1	1	1	0	1	-64,693446	273,269027	251,494059	0
14.01.2021	23:53:10	0	0	4,519467	1,9635	41,8464	-0,373	78,49	3,5	1007,82	5,9	8	7,8	1	1	1	1	1	1	1	1	1	0	1	-65,257223	273,377957	251,434733	0
14.01.2021	23:53:11	0	0	3,72856	1,977	41,8644	-0,373	78,458	3,5	1007,74	5,9	8	7,8	1	1	1	1	1	1	1	1	1	0	1	-63,706836	273,29334	252,593206	0
14.01.2021	23:53:12	0	0	2,71168	2,0475	54,1044	-0,369	78,463	3,5	1007,68	5,9	8	7,8	1	1	1	1	1	1	1	1	1	0	1	-63,84778	273,367898	252,797568	0
14.01.2021	23:53:13	0	0	4,74544	2,15925	55,9224	-0,379	78,44	3,5	1007,44	5,9	8	7,8	1	1	1	1	1	1	1	1	1	0	1	-63,354475	273,299065	252,972071	0
14.01.2021	23:53:14	0	0	4,40648	2,1585	56,6712	-0,374	78,452	3,5	1007,68	5,9	8	7,8	1	1	1	1	1	1	1	1	1	0	1	-63,495419	273,365025	253,136618	0
14.01.2021	23:53:15	0	0	3,954533	2,22	55,5552	-0,375	78,433	3,5	1007,56	5,9	8	7,8	1	1	1	1	1	1	1	1	1	0	1	-64,552502	273,33345	251,933273	0
14.01.2021	23:53:16	0	0	4,293493	2,19525	52,1532	-0,371	78,447	3,5	1007,58	5,9	8	7,8	1	1	1	1	1	1	1	1	1	0	1	-63,84778	273,197699	252,00973	0
14.01.2021	23:53:17	0	0	2,937653	2,4435	44,7876	-0,369	78,431	3,5	1007,76	5,9	8	7,8	1	1	1	1	1	1	1	1	1	0	1	-62,86117	273,339187	253,651176	0
14.01.2021	23:53:18	0	0	4,180482	2,61675	38,4156	-0,371	78,444	3,5	1008,1	5,9	8	7,9	1	1	1	1	1	1	1	1	1	0	1	-62,015504	273,220495	253,947443	0
14.01.2021	23:53:19	0	0	4,40648	2,58675	52,5132	-0,366	78,403	3,5	1007,66	5,9	8	7,8	1	1	1	1	1	1	1	1	1	0	1	-64,270613	273,344926	252,268314	0
14.01.2021	23:53:20	0	0	4,519467	2,65275	42,6168	-0,374	78,394	3,5	1007,5	5,9	8	7,8	1	1	1	1	1	1	1	1	1	0	1	-64,48203	273,203396	251,401826	0
14.01.2021	23:53:21	0	0	5,0844	2,70825	48,1392	-0,374	78,389	3,5	1007,24	5,9	8	7,8	1	1	1	1	1	1	1	1	1	0	1	-62,579281	273,246173	253,502464	0
14.01.2021	23:53:22	0	0	4,06752	2,51625	62,4096	-0,376	78,375	3,5	1007,52	5,9	8	7,8	1	1	1	1	1	1	1	1	1	0	1	-62,649753	273,227625	253,346174	0
14.01.2021	23:53:23	0	0	3,72856	2,20875	52,8804	-0,368	78,384	3,5	1007,6	5,9	8	7,8	1	1	1	1	1	1	1	1	1	0	1	-65,257223	273,21907	250,69913	0
14.01.2021	23:53:24	0	0	3,954533	2,00175	56,6748	-0,368	78,361	3,5	1007,7	5,9	8	7,8	1	1	1	1	1	1	1	1	1	0	1	-60,042283	273,216219	255,900883	0
14.01.2021	23:53:25	0	0	3,841547	1,87425	44,1468	-0,373	78,356	3,5	1007,42	5,9	8	7,8	1	1	1	1	1	1	1	1	1	0	1	-66,102889	273,385145	250,622376	0
14.01.2021	23:53:26	0	0	5,0844	1,776	61,704	-0,369	78,35	3,5	1007,76	5,9	8	7,8	1	1	1	1	1	1	1	1	1	0	1	-61,028894	273,324848	255,417041	0
14.01.2021	23:53:27	0	0	2,71168	1,83	52,1388	-0,366	78,338	3,5	1007,56	5,9	8	7,8	1	1	1	1	1	1	1	1	1	0	1	-60,606061	273,367898	256,039288	0
14.01.2021	23:53:28	0	0	3,276613	1,99725	48,5028	-0,367	78,327	3,5	1007,58	5,9	8	7,8	1	1	1	1	1	1	1	1	1	0	1	-65,539112	273,313385	250,853737	0
14.01.2021	23:53:29	0	0	3,3896	2,08125	52,1784	-0,376	78,33	3,5	1007,58	5,9	8	7,8	1	1	1	1	1	1	1	1	1	0	1	-61,028894	273,372208	255,636426	0
14.01.2021	23:53:30	0	0	3,502587	2,16075	55,9296	-0,368	78,316	3,5	1007,7	5,9	8	7,8	1	1	1	1	1	1	1	1	1	0	1	-63,213531	273,226199	252,775799	0
14.01.2021	23:53:31	0	0	5,536347	2,2515	52,5204	-0,369	78,312	3,5	1007,48	5,9	8	7,8	1	1	1	1	1	1	1	1	1	0	1	-62,508809	273,37652	254,176487	0
14.01.2021	23:53:32	0	0	4,74544	2,289	49,9428	-0,368	78,311	3,5	1007,66	5,9	8	7,8	1	1	1	1	1	1	1	1	1	0	1	-64,904863	273,329149	251,560989	0
14.01.2021	23:53:33	0	0	4,180507	2,2515	54,8136	-0,373	78,301	3,5	1007,68	5,9	8	7,8	1	1	1	1	1	1	1	1	1	0	1	-65,116279	273,207669	250,787341	0
14.01.2021	23:53:34	0	0	3,72856	2,35275	52,8876	-0,369	78,298	3,5	1007,66	5,9	8	7,8	1	1	1	1	1	1	1	1	1	0	1	-65,891473	273,31625	250,514644	0
14.01.2021	23:53:35	0	0	2,598693	2,703	58,4928	-0,372	78,297	3,5	1007,56	5,9	8	7,8	1	1	1	1	1	1	1	1	1	0	1	-61,663143	273,354973	254,922324	0
14.01.2021	23:53:36	0	0	3,163627	2,7915	36,3492	-0,365	78,29	3,5	1007,66	5,9	8	7,8	1	1	1	1	1	1	1	1	1	0	1	-62,367865	273,321982	254,064795	0
14.01.2021	23:53:37	0	0	4,293493	2,76225	65,4768	-0,371	78,293	3,5	1007,5	5,9	8	7,8	1	1	1	1	1	1	1	1	1	0	1	-62,931642	273,354973	253,653825	0
14.01.2021	23:53:38	0	0	2,485707	2,682	61,3116	-0,368	78,284	3,5	1007,52	5,9	8	7,8	1	1	1	1	1	1	1	1	1	0	1	-62,931642	273,227625	253,064285	0
14.01.2021	23:53:39	0	0	4,519467	2,69325	54,1116	-0,372	78,288	3,5	1007,62	5,9	8	7,8	1	1	1	1	1	1	1	1	1	0	1	-63,565891	273,200547	252,30479	0
14.01.2021	23:53:40	0	0	4,858427	2,57625	47,3652	-0,371	78,285	3,5	1007,64	5,9	8	7,8	1	1	1	1	1	1	1	1	1	0	1	-60,887949	273,329149	255,577903	0
14.01.2021	23:53:41	0	0	3,3896	2,47125	39,8628	-0,373	78,295	3,5	1007,7	5,9	8	7,8	1	1	1	1	1	1	1	1	1	0	1	-62,367865	273,336319	254,131194	0
14.01.2021	23:53:42	0	0	3,954533	2,54625	39,8628	-0,372	78,285	3,5	1007,68	5,9	8	7,8	1	1	1	1	1	1	1	1	1	0	1	-63,565891	273,266169	252,608385	0
14.01.2021	23:53:43	0	0	5,649333	2,61675	51,0444	-0,373	78,29	3,5	1007,56	5,9	8	7,8	1	1	1	1	1	1	1	1	1	0	1	-61,733615	273,344926	254,805312	0
14.01.2021	23:53:44	0	0	2,824667	2,6535	35,0964	-0,37	78,29	3,5	1007,56	5,9	8	7,8	1	1	1	1	1	1	1	1	1	0	1	-58,280479	273,311952	258,105737	0
14.01.2021	23:53:45	0	0	3,841547	2,54325	48,132	-0,373	78,293	3,5	1007,54	5,9	8	7,8	1	1	1	1	1	1	1	1	1	0	1	-61,451727	273,352102	255,120441	0
14.01.2021	23:53:46	0	0	4,971413	2,44725	39,9384	-0,376	78,278	3,5	1007,54	5,9	8	7,8	1	1	1	1	1	1	1	1	1	0	1	-61,099366	273,240464	254,955963	0
14.01.2021	23:53:47	0	0	3,502587	2,4015	57,744	-0,377	78,285	3,5	1007,58	5,9	8	7,8	1	1	1	1	1	1	1	1	1	0	1	-62,649753	273,353537	253,929064	0
14.01.2021	23:53:48	0	0	4,293493	2,3325	46,9692	-0,37	78,316	3,5	1007,68	5,8	8	7,8	1	1	1	1	1	1	1	1	1	0	1	-64,552502	273,365025	252,079535	0
14.01.2021	23:53:49	0	0	3,72856	2,34	83,3436	-0,377	78,304	3,5	1007,46	5,9	8	7,8	1	1	1	1	1	1	1	1	1	0	1	-64,200141	273,217644	251,749618	0
14.01.2021	23:53:50	0	0	2,71168	2,41275	71,6832	-0,37	78,33	3,5	1007,74	5,8	8	7,8	1	1	1	1	1	1	1	1	1	0	1	-61,381254	273,357844	255,217516	0
14.01.2021	23:53:51	0	0	4,180507	2,3895	64,6128	-0,373	78,332	3,5	1007,72	5,9	8	7,8	1	1	1	1	1	1	1	1	1	0	1	-61,381254	273,200547	254,489428	0
14.01.2021	23:53:52	0	0	3,72856	2,35725	71,6148	-0,372	78,335	3,5	1007,66	5,9	8	7,8	1	1	1	1	1	1	1	1	1	0	1	-63,495419	273,196275	252,355507	0
14.01.2021	23:53:53	0	0	3,05064	2,463	62,4096	-0,378	78,326	3,5	1007,64	5,9	8	7,8	1	1	1	1	1	1	1	1	1	0	1	-60,817477	273,207669	255,086143	0
14.01.2021	23:53:54	0	0	4,632453	2,418	45,8532	-0,368	78,357	3,5	1007,64	5,9	8	7,8	1	1	1	1	1	1	1	1	1	0	1	-63,636364	273,354973	252,949104	0
14.01.2021	23:53:55	0	0	3,3896	2,7315	51,066	-0,374	78,337	3,5	1007,44	5,9	8	7,8	1	1	1	1	1	1	1	1	1	0	1	-64,270613	273,313385	252,122236	0
14.01.2021	23:53:56	0	0	4,519467	3,04425	52,1424	-0,376	78,349	3,5	1007,74	5,9	8	7,8	1	1	1	1	1	1	1	1	1	0	1	-61,733615	273,356409	254,858503	0
14.01.2021	23:53:57	0	0	4,74544	3,17175	46,62	-0,37	78,363	3,5	1007,62	5,9	8	7,8	1	1	1	1	1	1	1	1	1	0	1	-62,156448	273,324848	254,289487	0
14.01.2021	23:53:58	0	0	2,598693	3,42075	52,1676	-0,373	78,362	3,5	1007,66	6	8	7,8	1	1	1	1	1	1	1	1	1	0	1	-60,042283	273,31052	256,337301	0
14.01.2021	23:53:59	0	0	3,276613	3,61725	52,884	-0,368	78,379	3,5	1007,78	6	8	7,8	1	1	1	1	1	1	1	1	1	0	1	-67,371388	273,169242	248,35454	0
14.01.2021	23:54:00	0	0	4,858427	3,59025	61,38	-0,375	78,376	3,5	1007,58	5,8	8	7,8	1	1	1	1	1	1	1	1	1	0	1	-63,213531	273,336319	253,285528	0
14.01.2021	23:54:01	0	0	4,858427	3,59025	61,38	-0,375	78,376	3,5	1007,58	5,8	8	7,8	1	1	1	1	1	1	1	1	1	0	1	-63,213531	273,336319	253,285528	0
14.01.2021	23:54:02	0	0	3,502587	3,52575	49,968	-0,371	78,383	3,5	1007,68	5,9	8	7,8	1	1	1	1	1	1	1	1	1	0	1	-59,408034	273,287616	256,865513	0
14.01.2021	23:54:03	0	0	4,180507	3,45375	58,482	-0,365	78,389	3,5	1007,52	6	8	7,8	1	1	1	1	1	1	1	1	1	0	1	-62,86117	273,334885	253,631247	0
14.01.2021	23:54:04	0	0	5,310373	3,453	64,6308	-0,368	78,382	3,5	1007,66	5,9	8	7,8	1	1	1	1	1	1	1	1	1	0	1	-62,579281	273,220495	253,383666	0
14.01.2021	23:54:05	0	0	3,3896	3,2775	60,5592	-0,371	78,392	3,5	1007,66	6	8	7,8	1	1	1	1	1	1	1	1	1	0	1	-66,243834	273,323415	250,195464	0
14.01.2021	23:54:06	0	0	3,05064	3,08775	64,6452	-0,371	78,406	3,5	1007,56	5,8	8	7,8	1	1	1	1	1	1	1	1	1	0	1	-61,310782	273,189157	254,507229	0
14.01.2021	23:54:07	0	0	3,72856	2,901	70,8624	-0,368	78,4	3,5	1007,6	6	8	7,8	1	1	1	1	1	1	1	1	1	0	1	-61,099366	273,324848	255,346569	0
14.01.2021	23:54:08	0	0	4,858427	2,75475	71,2188	-0,371	78,4	3,5	1007,6	5,8	8	7,8	1	1	1	1	1	1	1	1	1	0	1	-63,84778	273,291909	252,445637	0
14.01.2021	23:54:09	0	0	4,40648	2,53725	58,1148	-0,372	78,394	3,5	1007,62	6	8	7,8	1	1	1	1	1	1	1	1	1	0	1	-61,099366	273,349231	255,459504	0
14.01.2021	23:54:10	0	0	4,40648	2,3115	56,286	-0,367	78,381	3,5	1007,64	5,9	8	7,8	1	1	1	1	1	1	1	1	1	0	1	-61,24031	273,354973	255,345157	0
14.01.2021	23:54:11	0	0	4,519467	2,169	56,664	-0,369	78,38	3,5	1007,48	6	8	7,8	1	1	1	1	1	1	1	1	1	0	1	-64,48203	273,284755	251,778274	0
14.01.2021	23:54:12	0	0	4,40648	2,3325	63,198	-0,368	78,387	3,5	1007,64	6	8	7,8	1	1	1	1	1	1	1	1	1	0	1	-62,86117	273,340622	253,65782	0
14.01.2021	23:54:13	0	0	4,858427	2,463	67,6692	-0,371	78,36	3,5	1007,6	5,9	8	7,8	1	1	1	1	1	1	1	1	1	0	1	-64,975335	273,31052	251,404249	0
14.01.2021	23:54:14	0	0	2,71168	2,38575	75,2328	-0,366	78,365	3,5	1007,7	6	8	7,8	1	1	1	1	1	1	1	1	1	0	1	-62,790698	273,327715	253,668515	0
14.01.2021	23:54:15	0	0	5,0844	2,26575	70,848	-0,373	78,352	3,5	1007,58	5,9	8	7,8	1	1	1	1	1	1	1	1	1	0	1	-64,975335	273,339187	251,537011	0
14.01.2021	23:54:16	0	0	3,276613	2,18025	70,8516	-0,369	78,339	3,5	1007,66	6	8	7,8	1	1	1	1	1	1	1	1	1	0	1	-62,508809	273,284755	253,751494	0
14.01.2021	23:54:17	0	0	3,276613	2,08125	70,8552	-0,371	78,306	3,5	1007,52	5,8	8	7,8	1	1	1	1	1	1	1	1	1	0	1	-60,817477	273,294771	255,48919	0
14.01.2021	23:54:18	0	0	3,72856	1,96575	69,1668	-0,367	78,307	3,5	1007,64	5,8	8	7,8	1	1	1	1	1	1	1	1	1	0	1	-64,48203	273,332016	251,997103	0
14.01.2021	23:54:19	0	0	4,74544	1,8735	65,4588	-0,372	78,288	3,5	1007,56	5,8	8	7,8	1	1	1	1	1	1	1	1	1	0	1	-63,072586	273,313385	253,320263	0
14.01.2021	23:54:20	0	0	3,615573	1,82625	69,138	-0,371	78,281	3,5	1007,76	5,8	8	7,8	1	1	1	1	1	1	1	1	1	0	1	-60,465116	273,329149	256,000736	0
14.01.2021	23:54:21	0	0	4,519467	1,788	57,0204	-0,371	78,268	3,5	1007,78	5,9	8	7,8	1	1	1	1	1	1	1	1	1	0	1	-65,821001	273,314817	250,578482	0
14.01.2021	23:54:22	0	0	4,858427	1,8285	62,784	-0,372	78,24	3,5	1007,62	5,8	8	7,8	1	1	1	1	1	1	1	1	1	0	1	-68,005638	273,352102	248,566529	0
14.01.2021	23:54:23	0	0	3,163627	1,77675	59,0976	-0,371	78,259	3,5	1007,58	5,9	8	7,8	1	1	1	1	1	1	1	1	1	0	1	-64,411557	273,213369	251,518425	0
14.01.2021	23:54:24	0	0	3,72856	1,9005	64,6236	-0,373	78,23	3,5	1007,64	5,8	8,1	7,8	1	1	1	1	1	1	1	1	1	0	1	-63,354475	273,193428	252,483283	0
14.01.2021	23:54:25	0	0	4,74544	2,2005	82,332	-0,368	78,227	3,5	1007,54	5,8	8	7,8	1	1	1	1	1	1	1	1	1	0	1	-61,522199	273,159292	254,157731	0
14.01.2021	23:54:26	0	0	2,71168	2,205	75,6252	-0,367	78,233	3,5	1007,62	5,8	8	7,8	1	1	1	1	1	1	1	1	1	0	1	-60,535588	273,257597	255,599017	0
14.01.2021	23:54:27	0	0	2,71168	2,08725	52,146	-0,367	78,226	3,5	1007,68	5,8	8	7,8	1	1	1	1	1	1	1	1	1	0	1	-60,112755	273,153608	255,540902	0
14.01.2021	23:54:28	0	0	2,824667	1,94325	50,6952	-0,38	78,199	3,5	1007,58	5,8	8	7,8	1	1	1	1	1	1	1	1	1	0	1	-62,931642	273,270457	253,262478	0
14.01.2021	23:54:29	0	0	3,615573	2,064	54,7884	-0,373	78,204	3,5	1007,68	5,8	8	7,8	1	1	1	1	1	1	1	1	1	0	1	-65,821001	273,336319	250,678058	0
14.01.2021	23:54:30	0	0	4,632453	2,2035	56,2896	-0,377	78,174	3,5	1007,64	5,8	8	7,8	1	1	1	1	1	1	1	1	1	0	1	-62,015504	273,187734	253,795926	0
14.01.2021	23:54:31	0	0	4,40648	2,17275	55,1808	-0,372	78,18	3,5	1007,7	5,8	7,9	7,8	1	1	1	1	1	1	1	1	1	0	1	-59,548978	273,163555	256,150661	0
14.01.2021	23:54:32	0	0	4,180507	2,1315	62,7948	-0,375	78,167	3,5	1007,64	6	8	7,8	1	1	1	1	1	1	1	1	1	0	1	-64,341085	273,287616	251,932462	0
14.01.2021	23:54:33	0	0	3,502587	2,2035	51,4512	-0,37	78,149	3,5	1007,64	5,8	8	7,8	1	1	1	1	1	1	1	1	1	0	1	-58,985201	273,179197	256,786754	0
14.01.2021	23:54:34	0	0	4,519467	2,40375	81,2232	-0,378	78,129	3,5	1007,62	5,8	8	7,8	1	1	1	1	1	1	1	1	1	0	1	-63,143058	273,162134	252,550011	0
14.01.2021	23:54:35	0	0	3,3896	2,589	75,2364	-0,373	78,124	3,5	1007,6	5,8	8	7,8	1	1	1	1	1	1	1	1	1	0	1	-60,112755	273,199123	255,751341	0
14.01.2021	23:54:36	0	0	3,841547	2,62275	81,2124	-0,379	78,117	3,5	1007,62	5,8	8	7,8	1	1	1	1	1	1	1	1	1	0	1	-61,733615	273,177775	254,031763	0
14.01.2021	23:54:37	0	0	2,598693	2,511	79,7292	-0,378	78,113	3,5	1007,7	5,8	8	7,8	1	1	1	1	1	1	1	1	1	0	1	-65,680056	273,243319	250,388479	0
14.01.2021	23:54:38	0	0	2,71168	2,31	84,042	-0,377	78,095	3,5	1007,64	5,8	8	7,8	1	1	1	1	1	1	1	1	1	0	1	-63,988724	273,323415	252,450573	0
14.01.2021	23:54:39	0	0	4,180507	2,01675	65,8476	-0,378	78,074	3,5	1007,62	5,8	8	7,8	1	1	1	1	1	1	1	1	1	0	1	-64,411557	273,296202	251,901736	0
14.01.2021	23:54:40	0	0	3,841547	1,839	43,3044	-0,378	78,045	3,5	1007,62	5,8	8	7,8	1	1	1	1	1	1	1	1	1	0	1	-60,183228	273,314817	256,216255	0
14.01.2021	23:54:41	0	0	4,632453	1,8	52,902	-0,375	78,035	3,5	1007,42	5,8	8	7,8	1	1	1	1	1	1	1	1	1	0	1	-63,495419	273,291909	252,797998	0
14.01.2021	23:54:42	0	0	4,74544	1,73325	65,8584	-0,38	78,042	3,5	1007,62	5,8	8,1	7,8	1	1	1	1	1	1	1	1	1	0	1	-61,451727	273,187734	254,359703	0
14.01.2021	23:54:43	0	0	3,615573	1,80825	57,4272	-0,376	78,035	3,5	1008,02	5,8	8	7,8	1	1	1	1	1	1	1	1	1	0	1	-63,284003	273,300496	253,049171	0
14.01.2021	23:54:44	0	0	3,05064	2,085	55,1916	-0,38	78,024	3,5	1007,74	5,8	8	7,8	1	1	1	1	1	1	1	1	1	0	1	-58,139535	273,263311	258,021516	0
14.01.2021	23:54:45	0	0	4,293493	2,13675	44,0604	-0,376	78,017	3,5	1007,62	5,8	8	7,8	1	1	1	1	1	1	1	1	1	0	1	-64,975335	273,296202	251,337958	0
14.01.2021	23:54:46	0	0	4,632453	1,99425	44,784	-0,383	78,003	3,5	1007,4	5,8	8	7,8	1	1	1	1	1	1	1	1	1	0	1	-60,958421	273,17493	254,793804	0
14.01.2021	23:54:47	0	0	4,858427	1,73175	36,252	-0,379	78,019	3,5	1007,62	5,8	8	7,8	1	1	1	1	1	1	1	1	1	0	1	-61,733615	273,13231	253,821608	0
14.01.2021	23:54:48	0	0	2,37272	1,69875	48,1356	-0,379	78,017	3,5	1007,5	5,8	8	7,8	1	1	1	1	1	1	1	1	1	0	1	-62,720226	273,253312	253,394553	0
14.01.2021	23:54:49	0	0	3,502587	1,8885	33,2712	-0,378	78,012	3,5	1007,94	5,8	7,9	7,8	1	1	1	1	1	1	1	1	1	0	1	-63,072586	273,129473	252,469522	0
14.01.2021	23:54:50	0	0	4,40648	2,16375	55,1448	-0,389	78,017	3,5	1007,52	5,8	8,1	7,8	1	1	1	1	1	1	1	1	1	0	1	-61,310782	273,192004	254,520393	0
14.01.2021	23:54:51	0	0	2,03376	2,21775	55,5624	-0,38	78,022	3,5	1007,88	5,8	8,1	7,8	1	1	1	1	1	1	1	1	1	0	1	-58,421424	273,143666	257,186282	0
14.01.2021	23:54:52	0	0	3,05064	2,14125	50,6952	-0,386	78,012	3,5	1007,4	5,8	8	7,8	1	1	1	1	1	1	1	1	1	0	1	-58,350951	273,164977	257,355259	0
14.01.2021	23:54:53	0	0	5,42336	2,20725	39,1824	-0,38	78,022	3,5	1007,72	5,8	8,1	7,8	1	1	1	1	1	1	1	1	1	0	1	-61,522199	273,294771	254,784469	0
14.01.2021	23:54:54	0	0	4,293493	2,20125	37,3032	-0,382	78,026	3,5	1007,5	5,8	7,9	7,8	1	1	1	1	1	1	1	1	1	0	1	-64,48203	273,279035	251,751793	0
14.01.2021	23:54:55	0	0	4,06752	2,211	38,4228	-0,388	78,031	3,5	1007,96	5,8	8	7,8	1	1	1	1	1	1	1	1	1	0	1	-61,945032	273,163555	253,754608	0
14.01.2021	23:54:56	0	0	3,72856	2,25375	44,766	-0,389	78,027	3,5	1007,56	5,8	8,1	7,8	1	1	1	1	1	1	1	1	1	0	1	-65,257223	273,26474	250,91044	0
14.01.2021	23:54:57	0	0	5,0844	2,1615	30,3408	-0,387	78,039	3,5	1007,84	5,8	8	7,8	1	1	1	1	1	1	1	1	1	0	1	-62,86117	273,157871	252,812191	0
14.01.2021	23:54:58	0	0	3,615573	2,0865	41,472	-0,391	78,038	3,5	1007,5	5,8	8,1	7,8	1	1	1	1	1	1	1	1	1	0	1	-64,622974	273,283325	251,630708	0
14.01.2021	23:54:59	0	0	2,598693	2,18025	44,4168	-0,388	78,039	3,5	1007,52	5,8	8	7,8	1	1	1	1	1	1	1	1	1	0	1	-62,508809	273,287616	253,764738	0
14.01.2021	23:55:00	0	0	4,858427	2,25375	40,2444	-0,385	78,041	3,5	1007,52	5,8	8	7,8	1	1	1	1	1	1	1	1	1	0	1	-61,169838	273,234757	254,859084	0
14.01.2021	23:55:01	0	0	4,858427	2,25375	40,2444	-0,385	78,041	3,5	1007,52	5,8	8	7,8	1	1	1	1	1	1	1	1	1	0	1	-61,169838	273,234757	254,859084	0
14.01.2021	23:55:02	0	0	4,180507	2,2275	47,3796	-0,392	78,034	3,5	1007,8	5,8	8	7,8	1	1	1	1	1	1	1	1	1	0	1	-62,931642	273,142247	252,669501	0
14.01.2021	23:55:03	0	0	5,42336	2,238	46,5948	-0,388	78,015	3,5	1007,74	5,8	7,9	7,8	1	1	1	1	1	1	1	1	1	0	1	-60,606061	273,189157	255,21195	0
14.01.2021	23:55:04	0	0	4,74544	2,3265	44,7912	-0,387	78,041	3,5	1007,88	5,8	8	7,8	1	1	1	1	1	1	1	1	1	0	1	-60,606061	273,303359	255,74037	0
14.01.2021	23:55:05	0	0	3,276613	2,37225	51,75	-0,395	78,041	3,5	1007,58	5,8	7,9	7,8	1	1	1	1	1	1	1	1	1	0	1	-61,592671	273,192004	254,238504	0
14.01.2021	23:55:06	0	0	4,971413	2,43225	55,9548	-0,395	78,042	3,5	1007,68	5,8	8	7,8	1	1	1	1	1	1	1	1	1	0	1	-59,901339	273,129473	255,640769	0
14.01.2021	23:55:07	0	0	2,71168	2,65725	50,6808	-0,393	78,04	3,5	1007,46	5,8	8	7,8	1	1	1	1	1	1	1	1	1	0	1	-65,045807	273,29334	251,254235	0
14.01.2021	23:55:08	0	0	2,937653	2,9505	64,62	-0,392	78,063	3,5	1007,56	5,8	8	7,8	1	1	1	1	1	1	1	1	1	0	1	-60,324172	273,186311	255,480677	0
14.01.2021	23:55:09	0	0	4,858427	3,159	64,6272	-0,395	78,042	3,5	1007,72	5,8	8,1	7,8	1	1	1	1	1	1	1	1	1	0	1	-63,636364	273,304791	252,716697	0
14.01.2021	23:55:10	0	0	4,74544	3,17025	57,7332	-0,398	78,066	3,5	1007,56	5,8	8	7,8	1	1	1	1	1	1	1	1	1	0	1	-64,411557	273,200547	251,459124	0
14.01.2021	23:55:11	0	0	4,858427	3,14325	59,4936	-0,396	78,063	3,5	1007,52	5,8	8	7,8	1	1	1	1	1	1	1	1	1	0	1	-62,156448	273,294771	254,150219	0
14.01.2021	23:55:12	0	0	4,74544	3,30225	74,916	-0,396	78,067	3,5	1007,54	5,8	8,1	7,8	1	1	1	1	1	1	1	1	1	0	1	-65,327696	273,253312	250,787083	0
14.01.2021	23:55:13	0	0	3,05064	3,21	74,1708	-0,4	78,084	3,5	1007,42	5,8	8	7,8	1	1	1	1	1	1	1	1	1	0	1	-61,804087	273,303359	254,542344	0
14.01.2021	23:55:14	0	0	3,954533	3,042	69,1524	-0,394	78,082	3,5	1007,64	5,8	8	7,8	1	1	1	1	1	1	1	1	1	0	1	-59,055673	273,147927	256,571723	0
14.01.2021	23:55:15	0	0	3,72856	2,88975	87,84	-0,404	78,077	3,5	1007,66	5,8	8	7,8	1	1	1	1	1	1	1	1	1	0	1	-64,270613	273,251884	251,837558	0
14.01.2021	23:55:16	0	0	4,293493	2,68275	67,6656	-0,396	78,116	3,5	1007,56	5,8	8	7,8	1	1	1	1	1	1	1	1	1	0	1	-61,099366	273,135149	254,468974	0
14.01.2021	23:55:17	0	0	3,615573	2,6955	67,662	-0,397	78,114	3,5	1007,66	5,8	8	7,8	1	1	1	1	1	1	1	1	1	0	1	-62,156448	273,213369	253,773534	0
14.01.2021	23:55:18	0	0	4,180507	2,70825	75,9852	-0,399	78,119	3,5	1007,7	5,8	8	7,8	1	1	1	1	1	1	1	1	1	0	1	-62,297393	273,137988	253,284067	0
14.01.2021	23:55:19	0	0	4,74544	2,78625	68,4108	-0,399	78,121	3,5	1007,64	5,8	8	7,8	1	1	1	1	1	1	1	1	1	0	1	-60,535588	273,169242	255,190339	0
14.01.2021	23:55:20	0	0	3,72856	2,74725	90,7632	-0,398	78,137	3,5	1007,68	5,8	8	7,8	1	1	1	1	1	1	1	1	1	0	1	-63,143058	273,12238	252,366273	0
14.01.2021	23:55:21	0	0	2,824667	2,58375	87,3612	-0,404	78,171	3,5	1007,58	5,8	8	7,8	1	1	1	1	1	1	1	1	1	0	1	-61,310782	273,130891	254,237883	0
14.01.2021	23:55:22	0	0	4,632453	2,42625	76,464	-0,404	78,181	3,5	1007,62	5,8	8	7,8	1	1	1	1	1	1	1	1	1	0	1	-58,844257	273,16782	256,875098	0
14.01.2021	23:55:23	0	0	3,615573	2,25975	75,9924	-0,402	78,219	3,5	1007,64	5,8	8	7,8	1	1	1	1	1	1	1	1	1	0	1	-62,579281	273,119543	252,916944	0
14.01.2021	23:55:24	0	0	4,067544	2,07675	64,6092	-0,398	78,24	3,5	1007,74	5,8	8	7,7	1	1	1	1	1	1	1	1	1	0	1	-61,169838	273,254741	254,951549	0
14.01.2021	23:55:25	0	0	3,615573	2,06625	59,8464	-0,399	78,256	3,5	1007,72	5,8	8	7,8	1	1	1	1	1	1	1	1	1	0	1	-61,87456	273,126635	253,654436	0
14.01.2021	23:55:26	0	0	4,632453	2,48625	55,26	-0,406	78,258	3,5	1007,62	5,8	8	7,8	1	1	1	1	1	1	1	1	1	0	1	-60,747005	273,266169	255,427272	0
14.01.2021	23:55:27	0	0	4,74544	2,8575	75,2148	-0,401	78,277	3,5	1007,72	5,9	8	7,8	1	1	1	1	1	1	1	1	1	0	1	-60,465116	273,130891	255,083549	0
14.01.2021	23:55:28	0	0	2,598693	2,82225	62,424	-0,403	78,294	3,5	1007,68	5,8	8	7,8	1	1	1	1	1	1	1	1	1	0	1	-60,394644	273,163555	255,304996	0
14.01.2021	23:55:29	0	0	4,632453	2,64825	72,6876	-0,403	78,289	3,5	1007,58	5,8	8	7,8	1	1	1	1	1	1	1	1	1	0	1	-61,451727	273,281895	254,795335	0
14.01.2021	23:55:30	0	0	3,163627	2,4915	65,5776	-0,403	78,32	3,5	1007,56	5,8	8	7,8	1	1	1	1	1	1	1	1	1	0	1	-61,169838	273,176352	254,588963	0
14.01.2021	23:55:31	0	0	4,519494	2,38875	71,2296	-0,405	78,303	3,5	1007,68	5,9	8	7,7	1	1	1	1	1	1	1	1	1	0	1	-63,706836	273,119543	251,78939	0
14.01.2021	23:55:32	0	0	3,276613	2,52825	51,7536	-0,399	78,324	3,5	1007,54	5,8	8	7,8	1	1	1	1	1	1	1	1	1	0	1	-62,367865	273,153608	253,285793	0
14.01.2021	23:55:33	0	0	2,937653	2,47575	47,8512	-0,402	78,33	3,5	1007,68	5,8	8	7,8	1	1	1	1	1	1	1	1	1	0	1	-64,552502	273,220495	251,410445	0
14.01.2021	23:55:34	0	0	3,72856	2,253	41,0004	-0,399	78,334	3,5	1007,58	5,8	8	7,8	1	1	1	1	1	1	1	1	1	0	1	-65,750529	273,304791	250,602532	0
14.01.2021	23:55:35	0	0	3,163627	2,10225	47,7396	-0,403	78,323	3,5	1007,58	5,8	8	7,8	1	1	1	1	1	1	1	1	1	0	1	-59,689922	273,227625	256,306005	0
14.01.2021	23:55:36	0	0	4,971413	1,9875	59,0904	-0,407	78,328	3,5	1007,56	5,9	8	7,8	1	1	1	1	1	1	1	1	1	0	1	-59,830867	273,309087	256,542085	0
14.01.2021	23:55:37	0	0	2,937671	1,8075	42,6024	-0,401	78,325	3,5	1007,66	5,8	8	7,7	1	1	1	1	1	1	1	1	1	0	1	-62,156448	273,173508	253,589202	0
14.01.2021	23:55:38	0	0	2,598709	1,71225	44,0532	-0,407	78,321	3,5	1007,62	5,9	8	7,7	1	1	1	1	1	1	1	1	1	0	1	-61,451727	273,276175	254,76886	0
14.01.2021	23:55:39	0	0	3,615573	1,548	47,3616	-0,41	78,305	3,5	1007,72	5,8	8	7,8	1	1	1	1	1	1	1	1	1	0	1	-61,522199	273,128054	254,013353	0
14.01.2021	23:55:40	0	0	2,937653	1,473	48,1248	-0,405	78,314	3,5	1007,58	5,8	8	7,8	1	1	1	1	1	1	1	1	1	0	1	-63,072586	273,20482	252,817857	0
14.01.2021	23:55:41	0	0	3,72856	1,575	37,2996	-0,407	78,314	3,5	1007,66	5,8	8	7,8	1	1	1	1	1	1	1	1	1	0	1	-60,535588	273,300496	255,797586	0
14.01.2021	23:55:42	0	0	2,711696	1,73175	59,8608	-0,405	78,296	3,5	1007,58	5,9	8	7,7	1	1	1	1	1	1	1	1	1	0	1	-62,508809	273,173508	253,236841	0
14.01.2021	23:55:43	0	0	2,711696	1,923	58,8672	-0,404	78,324	3,5	1007,44	5,8	8	7,7	1	1	1	1	1	1	1	1	1	0	1	-61,804087	273,239037	254,244639	0
14.01.2021	23:55:44	0	0	3,276613	2,13225	46,2348	-0,403	78,32	3,5	1007,74	5,8	8	7,8	1	1	1	1	1	1	1	1	1	0	1	-63,424947	273,123798	252,090939	0
14.01.2021	23:55:45	0	0	4,632481	2,373	42,2172	-0,407	78,334	3,5	1007,66	5,9	8	7,7	1	1	1	1	1	1	1	1	1	0	1	-62,86117	273,234757	253,167752	0
14.01.2021	23:55:46	0	0	4,745468	2,60025	35,4924	-0,406	78,337	3,5	1007,7	5,8	8	7,7	1	1	1	1	1	1	1	1	1	0	1	-63,988724	273,113871	251,481295	0
14.01.2021	23:55:47	0	0	3,050658	2,68575	29,5992	-0,403	78,324	3,5	1007,68	5,7	8	7,7	1	1	1	1	1	1	1	1	1	0	1	-61,028894	273,234757	255,000029	0
14.01.2021	23:55:48	0	0	3,276633	2,637	31,8708	-0,41	78,338	3,5	1007,5	5,8	8	7,7	1	1	1	1	1	1	1	1	1	0	1	-61,24031	273,12238	254,269022	0
14.01.2021	23:55:49	0	0	4,745468	2,4915	31,0176	-0,412	78,347	3,5	1007,66	5,9	8	7,7	1	1	1	1	1	1	1	1	1	0	1	-59,478506	273,120961	256,024272	0
14.01.2021	23:55:50	0	0	4,74544	2,45775	21,0276	-0,406	78,347	3,5	1007,74	5,9	8	7,8	1	1	1	1	1	1	1	1	1	0	1	-63,002114	273,199123	252,861982	0
14.01.2021	23:55:51	0	0	3,502587	2,45775	18,5544	-0,406	78,361	3,5	1007,64	5,8	8	7,8	1	1	1	1	1	1	1	1	1	0	1	-61,099366	273,118125	254,390307	0
14.01.2021	23:55:52	0	0	3,276613	2,59125	33,6456	-0,408	78,339	3,5	1007,56	5,7	8	7,8	1	1	1	1	1	1	1	1	1	0	1	-61,099366	273,159292	254,580564	0
14.01.2021	23:55:53	0	0	2,937653	2,718	32,544	-0,407	78,347	3,5	1007,56	5,9	8	7,8	1	1	1	1	1	1	1	1	1	0	1	-63,213531	273,284755	253,046773	0
14.01.2021	23:55:54	0	0	4,74544	3,05475	35,4816	-0,409	78,366	3,5	1007,6	5,9	8	7,8	1	1	1	1	1	1	1	1	1	0	1	-64,83439	273,170664	250,898111	0
14.01.2021	23:55:55	0	0	4,74544	3,13125	34,3548	-0,407	78,373	3,5	1007,66	5,9	8	7,8	1	1	1	1	1	1	1	1	1	0	1	-58,703312	273,113871	256,766707	0
14.01.2021	23:55:56	0	0	4,067544	3,20625	38,43	-0,406	78,368	3,5	1007,5	5,8	8	7,7	1	1	1	1	1	1	1	1	1	0	1	-59,689922	273,281895	256,557139	0
14.01.2021	23:55:57	0	0	3,615595	3,43275	45,8496	-0,409	78,369	3,5	1007,5	5,9	8	7,7	1	1	1	1	1	1	1	1	1	0	1	-65,821001	273,23761	250,221124	0
14.01.2021	23:55:58	0	0	2,598693	3,627	49,968	-0,41	78,381	3,5	1007,5	5,8	8	7,8	1	1	1	1	1	1	1	1	1	0	1	-63,072586	273,283325	253,181096	0
14.01.2021	23:55:59	0	0	3,276633	3,98625	55,5552	-0,412	78,367	3,5	1007,56	5,9	8	7,7	1	1	1	1	1	1	1	1	1	0	1	-59,055673	273,266169	257,118604	0
14.01.2021	23:56:00	0	0	3,050658	3,3555	47,3868	-0,414	78,391	3,5	1007,58	5,8	8	7,7	1	1	1	1	1	1	1	1	1	0	1	-57,998591	273,239037	258,050136	0
14.01.2021	23:56:01	0	0	3,050658	3,3555	47,3868	-0,414	78,391	3,5	1007,58	5,8	8	7,7	1	1	1	1	1	1	1	1	1	0	1	-57,998591	273,239037	258,050136	0
14.01.2021	23:56:02	0	0	3,276613	3,27975	62,3952	-0,411	78,399	3,5	1007,54	5,9	8	7,8	1	1	1	1	1	1	1	1	1	0	1	-58,844257	273,115289	256,632314	0
14.01.2021	23:56:03	0	0	2,598693	2,775	66,5388	-0,414	78,414	3,5	1007,68	5,8	8	7,8	1	1	1	1	1	1	1	1	1	0	1	-60,535588	273,23761	255,506536	0
14.01.2021	23:56:04	0	0	4,745468	2,43975	51,7644	-0,412	78,42	3,5	1007,62	5,9	8	7,7	1	1	1	1	1	1	1	1	1	0	1	-64,622974	273,109619	250,827397	0
14.01.2021	23:56:05	0	0	5,084431	2,574	57,0492	-0,408	78,447	3,5	1007,6	5,8	8	7,7	1	1	1	1	1	1	1	1	1	0	1	-58,069063	273,16782	257,650292	0
14.01.2021	23:56:06	0	0	3,276633	2,88375	31,0968	-0,41	78,443	3,5	1007,72	5,9	8	7,7	1	1	1	1	1	1	1	1	1	0	1	-61,24031	273,106784	254,196965	0
14.01.2021	23:56:07	0	0	4,40648	2,97975	76,8312	-0,405	78,461	3,5	1007,8	5,9	8	7,8	1	1	1	1	1	1	1	1	1	0	1	-61,87456	273,230477	254,134564	0
14.01.2021	23:56:08	0	0	4,519494	2,79225	68,7744	-0,411	78,458	3,5	1007,62	5,8	8	7,7	1	1	1	1	1	1	1	1	1	0	1	-62,367865	273,118125	253,121808	0
14.01.2021	23:56:09	0	0	4,858456	2,56275	58,122	-0,41	78,462	3,5	1007,74	5,9	8	7,7	1	1	1	1	1	1	1	1	1	0	1	-60,676533	273,152188	254,970559	0
14.01.2021	23:56:10	0	0	2,824684	2,5785	64,2456	-0,412	78,462	3,5	1007,62	5,8	8	7,7	1	1	1	1	1	1	1	1	1	0	1	-61,522199	273,116707	253,960923	0
14.01.2021	23:56:11	0	0	2,598709	2,42925	107,0496	-0,407	78,467	3,5	1007,74	5,9	8	7,7	1	1	1	1	1	1	1	1	1	0	1	-59,055673	273,142247	256,54547	0
14.01.2021	23:56:12	0	0	2,598709	2,25375	77,202	-0,416	78,461	3,5	1007,64	5,8	8	7,7	1	1	1	1	1	1	1	1	1	0	1	-62,579281	273,281895	253,667781	0
14.01.2021	23:56:13	0	0	5,310405	1,99875	50,6916	-0,41	78,476	3,5	1007,8	5,9	8	7,7	1	1	1	1	1	1	1	1	1	0	1	-64,059197	273,23761	251,982928	0
14.01.2021	23:56:14	0	0	3,728582	2,2125	66,2112	-0,418	78,454	3,5	1007,72	5,8	8	7,7	1	1	1	1	1	1	1	1	1	0	1	-62,579281	273,283325	253,674401	0
14.01.2021	23:56:15	0	0	4,067544	2,8695	42,9084	-0,421	78,463	3,5	1007,58	5,8	8	7,7	1	1	1	1	1	1	1	1	1	0	1	-65,46864	273,280465	250,771802	0
14.01.2021	23:56:16	0	0	3,3896	3,35475	38,0736	-0,407	78,433	3,5	1007,6	5,7	8	7,8	1	1	1	1	1	1	1	1	1	0	1	-59,901339	273,230477	256,107785	0
14.01.2021	23:56:17	0	0	3,38962	3,27	31,5108	-0,411	78,449	3,5	1007,62	5,8	8	7,7	1	1	1	1	1	1	1	1	1	0	1	-60,535588	273,274745	255,67838	0
14.01.2021	23:56:18	0	0	3,502608	3,096	52,1352	-0,411	78,445	3,5	1007,62	5,8	8	7,7	1	1	1	1	1	1	1	1	1	0	1	-60,747005	273,149347	254,886955	0
14.01.2021	23:56:19	0	0	2,824684	2,85825	35,4816	-0,413	78,46	3,5	1007,64	5,7	8	7,7	1	1	1	1	1	1	1	1	1	0	1	-62,085976	273,287616	254,187571	0
14.01.2021	23:56:20	0	0	4,971413	2,62425	41,9328	-0,411	78,452	3,5	1007,72	5,9	8	7,8	1	1	1	1	1	1	1	1	1	0	1	-64,48203	273,234757	251,546893	0
14.01.2021	23:56:21	0	0	2,937671	2,526	44,4096	-0,415	78,441	3,5	1007,64	5,9	8	7,7	1	1	1	1	1	1	1	1	1	0	1	-61,804087	273,26474	254,363576	0
14.01.2021	23:56:22	0	0	3,38962	2,412	63,8676	-0,416	78,441	3,5	1007,44	5,8	8	7,7	1	1	1	1	1	1	1	1	1	0	1	-61,310782	273,136568	254,264117	0
14.01.2021	23:56:23	0	0	3,615595	2,35875	69,1668	-0,418	78,443	3,5	1007,66	5,8	8	7,7	1	1	1	1	1	1	1	1	1	0	1	-61,028894	273,231904	254,986829	0
14.01.2021	23:56:24	0	0	4,519467	2,21925	58,464	-0,413	78,442	3,5	1007,6	5,8	8	7,8	1	1	1	1	1	1	1	1	1	0	1	-64,200141	273,106784	251,237134	0
14.01.2021	23:56:25	0	0	3,728582	2,17425	42,6132	-0,416	78,42	3,5	1007,68	5,8	8	7,7	1	1	1	1	1	1	1	1	1	0	1	-63,424947	273,211944	252,498444	0
14.01.2021	23:56:26	0	0	2,71168	2,244	47,3724	-0,415	78,431	3,5	1007,58	5,8	8	7,8	1	1	1	1	1	1	1	1	1	0	1	-61,522199	273,271886	254,678537	0
14.01.2021	23:56:27	0	0	4,632481	2,1945	40,2444	-0,419	78,438	3,5	1007,52	5,8	8	7,7	1	1	1	1	1	1	1	1	1	0	1	-59,478506	273,210519	256,438294	0
14.01.2021	23:56:28	0	0	4,971443	2,07525	48,5064	-0,419	78,435	3,5	1007,64	5,8	8	7,7	1	1	1	1	1	1	1	1	1	0	1	-61,24031	273,277605	254,986894	0
14.01.2021	23:56:29	0	0	3,84157	2,04075	50,6916	-0,415	78,443	3,5	1007,66	5,8	8	7,7	1	1	1	1	1	1	1	1	1	0	1	-62,015504	273,256169	254,112492	0
14.01.2021	23:56:30	0	0	4,971413	2,1855	51,066	-0,415	78,436	3,5	1007,66	5,8	8	7,8	1	1	1	1	1	1	1	1	1	0	1	-63,213531	273,230477	252,795593	0
14.01.2021	23:56:31	0	0	2,824684	2,499	71,5932	-0,417	78,452	3,5	1007,76	5,9	8	7,7	1	1	1	1	1	1	1	1	1	0	1	-57,364341	273,0997	258,040205	0
14.01.2021	23:56:32	0	0	4,632481	2,98125	61,3224	-0,419	78,429	3,5	1007,64	5,8	8	7,7	1	1	1	1	1	1	1	1	1	0	1	-63,143058	273,176352	252,615743	0
14.01.2021	23:56:33	0	0	2,937653	3,252	82,3464	-0,41	78,446	3,5	1007,94	5,8	8	7,8	1	1	1	1	1	1	1	1	1	0	1	-60,958421	273,287616	255,315126	0
14.01.2021	23:56:34	0	0	4,406506	3,43575	70,8516	-0,415	78,42	3,5	1007,6	5,8	8	7,7	1	1	1	1	1	1	1	1	1	0	1	-58,421424	273,226199	257,567907	0
14.01.2021	23:56:35	0	0	4,858427	3,585	84,8052	-0,417	78,428	3,5	1007,74	5,8	8	7,8	1	1	1	1	1	1	1	1	1	0	1	-63,706836	273,267598	252,474055	0
14.01.2021	23:56:36	0	0	4,293519	3,558	75,9996	-0,416	78,42	3,5	1007,84	5,8	8	7,7	1	1	1	1	1	1	1	1	1	0	1	-60,042283	273,250457	256,05928	0
14.01.2021	23:56:37	0	0	4,632481	3,61125	76,8132	-0,42	78,438	3,5	1007,7	5,9	8	7,7	1	1	1	1	1	1	1	1	1	0	1	-63,354475	273,276175	252,866111	0
14.01.2021	23:56:38	0	0	3,615595	3,60675	76,8348	-0,422	78,408	3,5	1007,98	5,8	8	7,7	1	1	1	1	1	1	1	1	1	0	1	-60,394644	273,230477	255,614479	0
14.01.2021	23:56:39	0	0	4,519494	3,43425	65,5236	-0,42	78,403	3,5	1007,72	5,8	8	7,7	1	1	1	1	1	1	1	1	1	0	1	-65,46864	273,270457	250,72548	0
14.01.2021	23:56:40	0	0	4,180532	3,306	76,3956	-0,413	78,403	3,5	1007,72	5,8	8	7,7	1	1	1	1	1	1	1	1	1	0	1	-61,099366	273,136568	254,475534	0
14.01.2021	23:56:41	0	0	3,050658	3,23325	55,566	-0,416	78,399	3,5	1007,72	5,8	8	7,7	1	1	1	1	1	1	1	1	1	0	1	-63,565891	273,274745	252,648077	0
14.01.2021	23:56:42	0	0	3,84157	3,20175	50,3064	-0,414	78,413	3,5	1008,1	5,8	8	7,7	1	1	1	1	1	1	1	1	1	0	1	-60,394644	273,273316	255,812708	0
14.01.2021	23:56:43	0	0	4,406506	3,13575	59,1048	-0,418	78,4	3,5	1007,8	5,8	8	7,7	1	1	1	1	1	1	1	1	1	0	1	-62,085976	273,280465	254,154466	0
14.01.2021	23:56:44	0	0	5,197387	3,28275	65,4804	-0,424	78,409	3,5	1007,8	5,8	8	7,8	1	1	1	1	1	1	1	1	1	0	1	-57,434813	273,221921	258,534729	0
14.01.2021	23:56:45	0	0	3,615595	3,37725	78,6744	-0,422	78,386	3,5	1007,48	5,8	8	7,7	1	1	1	1	1	1	1	1	1	0	1	-60,747005	273,115289	254,729565	0
14.01.2021	23:56:46	0	0	3,05064	3,306	76,824	-0,421	78,382	3,5	1007,62	5,8	8	7,8	1	1	1	1	1	1	1	1	1	0	1	-63,636364	273,200547	252,234318	0
14.01.2021	23:56:47	0	0	3,163646	3,3675	62,4384	-0,417	78,373	3,5	1007,7	5,9	8	7,7	1	1	1	1	1	1	1	1	1	0	1	-63,918252	273,277605	252,308952	0
14.01.2021	23:56:48	0	0	4,293519	3,555	65,0844	-0,417	78,378	3,5	1007,72	5,9	8	7,7	1	1	1	1	1	1	1	1	1	0	1	-62,508809	273,29334	253,791233	0
14.01.2021	23:56:49	0	0	2,824684	3,65775	50,6808	-0,418	78,351	3,5	1007,66	5,8	8	7,7	1	1	1	1	1	1	1	1	1	0	1	-58,63284	273,240464	257,422489	0
14.01.2021	23:56:50	0	0	3,728582	3,64275	59,8572	-0,421	78,367	3,5	1007,84	5,8	8	7,7	1	1	1	1	1	1	1	1	1	0	1	-65,257223	273,283325	250,996459	0
14.01.2021	23:56:51	0	0	4,40648	3,48375	59,8752	-0,426	78,36	3,5	1007,74	5,8	8	7,8	1	1	1	1	1	1	1	1	1	0	1	-59,408034	273,249029	256,686923	0
14.01.2021	23:56:52	0	0	2,259733	3,3585	70,2216	-0,424	78,373	3,5	1007,86	5,8	8	7,8	1	1	1	1	1	1	1	1	1	0	1	-62,508809	273,274745	253,70516	0
14.01.2021	23:56:53	0	0	2,71168	3,2175	75,9888	-0,423	78,385	3,5	1007,72	5,8	8	7,8	1	1	1	1	1	1	1	1	1	0	1	-59,478506	273,146506	256,142326	0
14.01.2021	23:56:54	0	0	4,519467	3,09375	85,1868	-0,425	78,386	3,5	1007,54	5,8	8	7,8	1	1	1	1	1	1	1	1	1	0	1	-63,495419	273,284755	252,764884	0
14.01.2021	23:56:55	0	0	4,06752	2,8995	78,6312	-0,424	78,382	3,5	1007,74	5,8	8	7,8	1	1	1	1	1	1	1	1	1	0	1	-64,270613	273,170664	251,461888	0
14.01.2021	23:56:56	0	0	3,38962	2,901	83,3472	-0,419	78,391	3,5	1007,7	5,8	8	7,7	1	1	1	1	1	1	1	1	1	0	1	-61,099366	273,123798	254,41652	0
14.01.2021	23:56:57	0	0	4,180507	2,84025	72,0036	-0,42	78,362	3,5	1007,58	5,8	7,8	7,8	1	1	1	1	1	1	1	1	1	0	1	-60,817477	273,251884	255,290694	0
14.01.2021	23:56:58	0	0	4,519467	2,8035	64,2384	-0,422	78,366	3,5	1007,58	5,8	8	7,8	1	1	1	1	1	1	1	1	1	0	1	-63,988724	273,221921	251,980818	0
14.01.2021	23:56:59	0	0	4,180507	2,65725	52,4916	-0,421	78,347	3,5	1007,6	5,8	8	7,8	1	1	1	1	1	1	1	1	1	0	1	-60,324172	273,116707	255,158949	0
14.01.2021	23:57:00	0	0	2,711696	2,35425	65,8692	-0,422	78,355	3,5	1007,56	5,8	8	7,7	1	1	1	1	1	1	1	1	1	0	1	-63,072586	273,17493	252,679639	0
14.01.2021	23:57:01	0	0	2,711696	2,35425	65,8692	-0,422	78,355	3,5	1007,56	5,8	8	7,7	1	1	1	1	1	1	1	1	1	0	1	-59,760395	273,300496	256,572779	0
14.01.2021	23:57:02	0	0	2,71168	2,22075	70,596	-0,427	78,345	3,5	1007,7	5,8	8	7,8	1	1	1	1	1	1	1	1	1	0	1	-62,931642	273,16782	252,787713	0
14.01.2021	23:57:03	0	0	4,971413	2,25075	72,2988	-0,424	78,357	3,5	1007,52	5,8	8	7,8	1	1	1	1	1	1	1	1	1	0	1	-61,310782	273,155029	254,349443	0
14.01.2021	23:57:04	0	0	4,293493	2,217	77,9616	-0,429	78,332	3,5	1007,62	5,8	8	7,8	1	1	1	1	1	1	1	1	1	0	1	-61,381254	273,135149	254,187086	0
14.01.2021	23:57:05	0	0	2,485707	2,118	55,5552	-0,42	78,334	3,5	1007,64	5,8	8	7,8	1	1	1	1	1	1	1	1	1	0	1	-65,46864	273,177775	250,296738	0
14.01.2021	23:57:06	0	0	4,406506	1,917	59,1156	-0,426	78,338	3,5	1007,68	5,8	8	7,7	1	1	1	1	1	1	1	1	1	0	1	-63,84778	273,247601	252,24057	0
14.01.2021	23:57:07	0	0	3,163646	1,82925	64,2492	-0,428	78,324	3,5	1007,62	5,8	7,8	7,7	1	1	1	1	1	1	1	1	1	0	1	-59,689922	273,243319	256,378613	0
14.01.2021	23:57:08	0	0	2,937671	1,8705	55,944	-0,422	78,309	3,5	1007,78	5,8	8	7,7	1	1	1	1	1	1	1	1	1	0	1	-62,015504	273,115289	253,461066	0
14.01.2021	23:57:09	0	0	2,824667	1,95075	74,5236	-0,424	78,299	3,5	1007,54	5,8	8	7,8	1	1	1	1	1	1	1	1	1	0	1	-66,807611	273,192004	249,023564	0
14.01.2021	23:57:10	0	0	4,519467	1,9485	61,29	-0,433	78,271	3,5	1007,64	5,8	8	7,8	1	1	1	1	1	1	1	1	1	0	1	-58,844257	273,304791	257,508804	0
14.01.2021	23:57:11	0	0	4,40648	1,97175	62,7876	-0,425	78,24	3,5	1007,64	5,8	8	7,8	1	1	1	1	1	1	1	1	1	0	1	-61,804087	273,153608	253,849571	0
14.01.2021	23:57:12	0	0	2,824667	2,04075	60,9264	-0,432	78,248	3,5	1007,58	5,8	8	7,8	1	1	1	1	1	1	1	1	1	0	1	-62,649753	273,286186	253,617172	0
14.01.2021	23:57:13	0	0	4,40648	2,25825	62,7804	-0,428	78,243	3,5	1007,58	5,8	7,9	7,8	1	1	1	1	1	1	1	1	1	0	1	-63,495419	273,254741	252,625968	0
14.01.2021	23:57:14	0	0	4,180507	2,25375	60,5448	-0,43	78,225	3,5	1007,5	5,8	8	7,8	1	1	1	1	1	1	1	1	1	0	1	-64,059197	273,153608	251,594461	0
14.01.2021	23:57:15	0	0	3,163627	2,34225	54,4968	-0,431	78,227	3,5	1007,56	5,8	7,9	7,8	1	1	1	1	1	1	1	1	1	0	1	-64,059197	273,129473	251,482912	0
14.01.2021	23:57:16	0	0	3,954533	2,517	57,4128	-0,429	78,223	3,5	1007,74	5,8	8	7,8	1	1	1	1	1	1	1	1	1	0	1	-61,24031	273,23761	254,801814	0
14.01.2021	23:57:17	0	0	4,180507	2,541	52,4952	-0,429	78,224	3,5	1007,58	5,8	8	7,8	1	1	1	1	1	1	1	1	1	0	1	-62,156448	273,304791	254,196612	0
14.01.2021	23:57:18	0	0	4,519467	2,61225	65,0772	-0,429	78,213	3,5	1007,74	5,8	8	7,8	1	1	1	1	1	1	1	1	1	0	1	-63,988724	273,234757	252,040198	0
14.01.2021	23:57:19	0	0	2,937653	2,592	60,2244	-0,43	78,208	3,5	1007,54	5,8	8	7,8	1	1	1	1	1	1	1	1	1	0	1	-66,878083	273,112454	248,585386	0
14.01.2021	23:57:20	0	0	3,3896	2,47575	44,3844	-0,432	78,194	3,5	1007,64	5,8	8	7,8	1	1	1	1	1	1	1	1	1	0	1	-61,24031	273,229051	254,762215	0
14.01.2021	23:57:21	0	0	2,485707	2,36625	60,3144	-0,43	78,204	3,5	1007,7	5,8	8	7,8	1	1	1	1	1	1	1	1	1	0	1	-60,887949	273,130891	254,660716	0
14.01.2021	23:57:22	0	0	4,40648	2,18775	65,8512	-0,436	78,204	3,5	1007,72	5,8	8	7,8	1	1	1	1	1	1	1	1	1	0	1	-59,830867	273,220495	256,13208	0
14.01.2021	23:57:23	0	0	4,293493	2,08425	61,3152	-0,428	78,218	3,5	1007,58	5,8	8	7,8	1	1	1	1	1	1	1	1	1	0	1	-66,102889	273,289047	250,177281	0
14.01.2021	23:57:24	0	0	4,519467	2,055	54,774	-0,436	78,211	3,5	1007,54	5,8	8	7,8	1	1	1	1	1	1	1	1	1	0	1	-60,324172	273,189157	255,493839	0
14.01.2021	23:57:25	0	0	3,615573	2,049	53,7228	-0,435	78,238	3,5	1007,72	5,8	8	7,8	1	1	1	1	1	1	1	1	1	0	1	-64,904863	273,112454	250,558607	0
14.01.2021	23:57:26	0	0	4,40648	2,0565	54,792	-0,438	78,223	3,5	1007,4	5,8	7,9	7,8	1	1	1	1	1	1	1	1	1	0	1	-61,945032	273,183465	253,846658	0
14.01.2021	23:57:27	0	0	4,180507	2,1225	51,4548	-0,434	78,217	3,5	1007,64	5,8	7,9	7,8	1	1	1	1	1	1	1	1	1	0	1	-63,424947	273,280465	252,815495	0
14.01.2021	23:57:28	0	0	2,71168	2,103	51,7644	-0,441	78,247	3,5	1007,66	5,8	8	7,8	1	1	1	1	1	1	1	1	1	0	1	-64,622974	273,162134	251,070095	0
14.01.2021	23:57:29	0	0	3,05064	2,13075	52,5168	-0,433	78,257	3,5	1007,66	5,8	8	7,8	1	1	1	1	1	1	1	1	1	0	1	-63,777308	273,115289	251,699262	0
14.01.2021	23:57:30	0	0	3,841547	2,12475	52,1316	-0,435	78,251	3,5	1007,68	5,8	8	7,8	1	1	1	1	1	1	1	1	1	0	1	-61,663143	273,17493	254,089082	0
14.01.2021	23:57:31	0	0	4,293493	2,094	49,5828	-0,436	78,265	3,5	1007,94	5,8	8	7,8	1	1	1	1	1	1	1	1	1	0	1	-65,680056	273,118125	249,809617	0
14.01.2021	23:57:32	0	0	3,163627	2,03625	49,5648	-0,437	78,263	3,5	1007,56	5,8	8	7,8	1	1	1	1	1	1	1	1	1	0	1	-62,438337	273,250457	253,663227	0
14.01.2021	23:57:33	0	0	5,0844	1,99725	45,1692	-0,43	78,274	3,5	1007,72	5,8	8	7,8	1	1	1	1	1	1	1	1	1	0	1	-61,451727	273,113871	254,018293	0
14.01.2021	23:57:34	0	0	3,72856	1,908	52,128	-0,443	78,265	3,5	1007,6	5,8	8	7,8	1	1	1	1	1	1	1	1	1	0	1	-64,200141	273,193428	251,637617	0
14.01.2021	23:57:35	0	0	3,72856	1,8255	44,3988	-0,443	78,269	3,5	1007,66	5,8	8	7,8	1	1	1	1	1	1	1	1	1	0	1	-65,821001	273,106784	249,616275	0
14.01.2021	23:57:36	0	0	3,72856	1,86825	55,1916	-0,438	78,281	3,5	1007,64	5,8	8	7,8	1	1	1	1	1	1	1	1	1	0	1	-66,525722	273,21907	249,430631	0
14.01.2021	23:57:37	0	0	3,615573	1,87425	54,8136	-0,439	78,275	3,5	1007,56	5,8	7,9	7,8	1	1	1	1	1	1	1	1	1	0	1	-61,945032	273,098283	253,45297	0
14.01.2021	23:57:38	0	0	2,598693	1,98	58,8636	-0,442	78,275	3,5	1007,74	5,8	7,9	7,8	1	1	1	1	1	1	1	1	1	0	1	-61,381254	273,273316	254,826097	0
14.01.2021	23:57:39	0	0	5,0844	2,0745	63,5148	-0,439	78,266	3,5	1007,66	5,8	8	7,8	1	1	1	1	1	1	1	1	1	0	1	-63,777308	273,259025	252,363908	0
14.01.2021	23:57:40	0	0	3,954533	2,151	69,1704	-0,436	78,269	3,5	1007,82	5,8	7,8	7,8	1	1	1	1	1	1	1	1	1	0	1	-60,817477	273,112454	254,645992	0
14.01.2021	23:57:41	0	0	2,937653	2,24475	68,778	-0,442	78,261	3,5	1007,56	5,8	8	7,8	1	1	1	1	1	1	1	1	1	0	1	-59,830867	273,12238	255,678465	0
14.01.2021	23:57:42	0	0	4,40648	2,42325	71,2476	-0,441	78,261	3,5	1007,68	5,8	8	7,8	1	1	1	1	1	1	1	1	1	0	1	-63,495419	273,112454	251,96805	0
14.01.2021	23:57:43	0	0	2,598693	2,37225	66,546	-0,443	78,227	3,5	1007,76	5,8	8	7,8	1	1	1	1	1	1	1	1	1	0	1	-62,015504	273,120961	253,487274	0
14.01.2021	23:57:44	0	0	2,824667	2,20425	68,4324	-0,441	78,242	3,5	1007,8	5,8	8	7,8	1	1	1	1	1	1	1	1	1	0	1	-61,381254	273,283325	254,872428	0
14.01.2021	23:57:45	0	0	2,71168	2,088	60,2388	-0,446	78,214	3,5	1007,6	5,8	7,9	7,8	1	1	1	1	1	1	1	1	1	0	1	-64,059197	273,142247	251,541946	0
14.01.2021	23:57:46	0	0	4,858427	2,0565	63,1656	-0,446	78,19	3,5	1007,66	5,8	8	7,8	1	1	1	1	1	1	1	1	1	0	1	-62,367865	273,106784	253,069411	0
14.01.2021	23:57:47	0	0	4,971413	2,0985	58,1184	-0,444	78,207	3,5	1007,68	5,8	8	7,8	1	1	1	1	1	1	1	1	1	0	1	-64,059197	273,140827	251,535384	0
14.01.2021	23:57:48	0	0	4,971413	2,055	65,466	-0,446	78,215	3,5	1007,72	5,8	7,9	7,8	1	1	1	1	1	1	1	1	1	0	1	-66,666667	273,279035	249,567156	0
14.01.2021	23:57:49	0	0	2,937653	2,0415	58,8816	-0,45	78,195	3,5	1007,76	5,8	7,9	7,8	1	1	1	1	1	1	1	1	1	0	1	-61,522199	273,128054	254,013353	0
14.01.2021	23:57:50	0	0	4,74544	2,09925	70,218	-0,447	78,206	3,5	1007,78	5,8	7,9	7,8	1	1	1	1	1	1	1	1	1	0	1	-63,636364	273,091201	251,728926	0
14.01.2021	23:57:51	0	0	4,858427	1,99125	53,8308	-0,446	78,21	3,5	1007,6	5,8	8	7,8	1	1	1	1	1	1	1	1	1	0	1	-65,186751	273,182042	250,59836	0
14.01.2021	23:57:52	0	0	4,40648	1,977	63,8856	-0,444	78,226	3,5	1007,58	5,8	7,9	7,8	1	1	1	1	1	1	1	1	1	0	1	-59,689922	273,0997	255,714623	0
14.01.2021	23:57:53	0	0	3,3896	1,97025	60,5592	-0,447	78,214	3,5	1007,8	5,8	7,9	7,8	1	1	1	1	1	1	1	1	1	0	1	-62,156448	273,129473	253,38566	0
14.01.2021	23:57:54	0	0	4,632453	1,98675	71,9964	-0,447	78,227	3,5	1007,62	5,8	8	7,8	1	1	1	1	1	1	1	1	1	0	1	-59,055673	273,113871	256,414346	0
14.01.2021	23:57:55	0	0	3,615573	1,93575	59,112	-0,447	78,232	3,5	1007,72	5,8	7,9	7,8	1	1	1	1	1	1	1	1	1	0	1	-62,649753	273,130891	252,898912	0
14.01.2021	23:57:56	0	0	4,632453	2,0445	81,216	-0,448	78,236	3,5	1007,66	5,8	7,9	7,8	1	1	1	1	1	1	1	1	1	0	1	-61,663143	273,253312	254,451636	0
14.01.2021	23:57:57	0	0	4,971413	2,08125	50,2956	-0,445	78,242	3,5	1007,7	5,8	7,9	7,8	1	1	1	1	1	1	1	1	1	0	1	-59,689922	273,283325	256,56376	0
14.01.2021	23:57:58	0	0	3,163627	2,022	55,9476	-0,455	78,249	3,5	1007,74	5,8	7,9	7,8	1	1	1	1	1	1	1	1	1	0	1	-57,998591	273,234757	258,030332	0
14.01.2021	23:57:59	0	0	2,37272	2,067	57,042	-0,456	78,226	3,5	1007,52	5,8	7,9	7,8	1	1	1	1	1	1	1	1	1	0	1	-62,720226	273,277605	253,506979	0
14.01.2021	23:58:00	0	0	4,293493	2,12025	59,1192	-0,458	78,241	3,5	1007,64	5,8	7,9	7,8	1	1	1	1	1	1	1	1	1	0	1	-62,22692	273,287616	254,046627	0
14.01.2021	23:58:01	0	0	4,293493	2,12025	59,1192	-0,458	78,241	3,5	1007,64	5,8	7,9	7,8	1	1	1	1	1	1	1	1	1	0	1	-62,22692	273,287616	254,046627	0
14.01.2021	23:58:02	0	0	4,40648	2,15025	48,1212	-0,456	78,227	3,5	1007,72	5,8	7,9	7,8	1	1	1	1	1	1	1	1	1	0	1	-60,183228	273,216219	255,759939	0
14.01.2021	23:58:03	0	0	3,163627	2,2485	55,5552	-0,459	78,225	3,5	1007,62	5,8	7,9	7,8	1	1	1	1	1	1	1	1	1	0	1	-62,438337	273,10395	252,985845	0
14.01.2021	23:58:04	0	0	4,519467	2,31975	52,5168	-0,455	78,228	3,5	1007,8	5,8	7,9	7,8	1	1	1	1	1	1	1	1	1	0	1	-60,112755	273,21907	255,843598	0
14.01.2021	23:58:05	0	0	4,519467	2,41275	45,8496	-0,454	78,221	3,5	1007,6	5,8	8	7,8	1	1	1	1	1	1	1	1	1	0	1	-61,381254	273,109619	254,069117	0
14.01.2021	23:58:06	0	0	4,971413	2,454	45,846	-0,464	78,237	3,5	1007,58	5,8	7,9	7,8	1	1	1	1	1	1	1	1	1	0	1	-56,589147	273,224773	259,393586	0
14.01.2021	23:58:07	0	0	4,180507	2,4555	50,3028	-0,46	78,232	3,5	1007,72	5,8	8	7,8	1	1	1	1	1	1	1	1	1	0	1	-65,327696	273,239037	250,721031	0
14.01.2021	23:58:08	0	0	4,858427	2,658	54,4896	-0,455	78,24	3,5	1007,6	5,8	7,9	7,8	1	1	1	1	1	1	1	1	1	0	1	-59,971811	273,105367	255,458917	0
14.01.2021	23:58:09	0	0	4,293493	2,96175	57,0276	-0,46	78,246	3,5	1007,52	5,8	7,9	7,8	1	1	1	1	1	1	1	1	1	0	1	-60,535588	273,260454	255,612239	0
14.01.2021	23:58:10	0	0	2,71168	3,23175	63,8784	-0,463	78,259	3,5	1007,54	5,8	7,9	7,8	1	1	1	1	1	1	1	1	1	0	1	-63,84778	273,257597	252,286826	0
14.01.2021	23:58:11	0	0	2,937653	3,165	75,2364	-0,457	78,277	3,5	1007,8	5,8	7,9	7,8	1	1	1	1	1	1	1	1	1	0	1	-62,86117	273,092618	252,510661	0
14.01.2021	23:58:12	0	0	3,05064	2,991	78,6672	-0,466	78,272	3,5	1007,7	5,8	7,9	7,8	1	1	1	1	1	1	1	1	1	0	1	-65,750529	273,213369	250,179453	0
14.01.2021	23:58:13	0	0	4,519467	2,6685	67,3272	-0,458	78,271	3,5	1007,66	5,8	7,9	7,8	1	1	1	1	1	1	1	1	1	0	1	-64,83439	273,129473	250,707718	0
14.01.2021	23:58:14	0	0	2,937653	2,628	62,8164	-0,46	78,308	3,5	1007,76	5,8	7,9	7,8	1	1	1	1	1	1	1	1	1	0	1	-62,156448	273,092618	253,215383	0
14.01.2021	23:58:15	0	0	4,519467	2,643	35,4888	-0,458	78,347	3,5	1007,44	5,8	7,9	7,8	1	1	1	1	1	1	1	1	1	0	1	-67,653277	273,247601	248,435074	0
14.01.2021	23:58:16	0	0	4,519467	2,55525	53,3628	-0,456	78,371	3,5	1007,84	5,8	7,9	7,8	1	1	1	1	1	1	1	1	1	0	1	-63,002114	273,253312	253,112664	0
14.01.2021	23:58:17	0	0	3,954533	2,70675	44,4168	-0,46	78,392	3,5	1007,66	5,8	8	7,8	1	1	1	1	1	1	1	1	1	0	1	-62,86117	273,115289	252,6154	0
14.01.2021	23:58:18	0	0	2,37272	3,08475	55,9548	-0,459	78,41	3,5	1007,48	5,8	7,9	7,8	1	1	1	1	1	1	1	1	1	0	1	-57,505285	273,106784	257,93199	0
14.01.2021	23:58:19	0	0	4,632453	3,17775	50,6988	-0,456	78,425	3,5	1007,76	5,8	7,9	7,8	1	1	1	1	1	1	1	1	1	0	1	-62,085976	273,160713	253,600523	0
14.01.2021	23:58:20	0	0	4,519467	3,1905	43,6572	-0,461	78,424	3,5	1007,68	5,8	7,9	7,8	1	1	1	1	1	1	1	1	1	0	1	-60,676533	273,266169	255,497744	0
14.01.2021	23:58:21	0	0	4,519467	3,16725	50,2884	-0,458	78,432	3,5	1007,74	5,8	7,9	7,8	1	1	1	1	1	1	1	1	1	0	1	-61,733615	273,23761	254,308509	0
14.01.2021	23:58:22	0	0	3,72856	3,08175	62,4384	-0,468	78,425	3,5	1007,58	5,8	7,9	7,8	1	1	1	1	1	1	1	1	1	0	1	-59,337562	273,263311	256,823489	0
14.01.2021	23:58:23	0	0	4,858427	2,8035	53,334	-0,461	78,426	3,5	1007,6	5,8	7,9	7,8	1	1	1	1	1	1	1	1	1	0	1	-61,87456	273,130891	253,674106	0
14.01.2021	23:58:24	0	0	3,05064	2,5425	42,5916	-0,467	78,434	3,5	1007,68	5,8	7,9	7,8	1	1	1	1	1	1	1	1	1	0	1	-64,83439	273,280465	251,406052	0
14.01.2021	23:58:25	0	0	5,197418	2,673	58,8528	-0,448	78,448	3,5	1007,78	5,8	7,9	7,7	1	1	1	1	1	1	1	1	1	0	1	-60,606061	273,162134	255,087008	0
14.01.2021	23:58:26	0	0	2,598693	2,64975	68,4072	-0,461	78,44	3,5	1007,48	5,8	7,9	7,8	1	1	1	1	1	1	1	1	1	0	1	-62,508809	273,283325	253,744873	0
14.01.2021	23:58:27	0	0	5,310373	2,757	60,3324	-0,459	78,463	3,5	1007,68	5,8	7,9	7,8	1	1	1	1	1	1	1	1	1	0	1	-66,45525	273,199123	249,408846	0
14.01.2021	23:58:28	0	0	3,72856	2,7345	52,1388	-0,463	78,477	3,5	1007,68	5,8	7,9	7,8	1	1	1	1	1	1	1	1	1	0	1	-64,059197	273,111036	251,397723	0
14.01.2021	23:58:29	0	0	3,954557	2,67525	55,1736	-0,467	78,508	3,5	1007,66	5,8	7,9	7,7	1	1	1	1	1	1	1	1	1	0	1	-60,606061	273,137988	254,975399	0
14.01.2021	23:58:30	0	0	4,632453	2,838	50,2992	-0,465	78,547	3,5	1007,7	5,8	7,9	7,8	1	1	1	1	1	1	1	1	1	0	1	-70,68358	273,290478	245,603213	0
14.01.2021	23:58:31	0	0	3,3896	3,07125	63,4752	-0,467	78,551	3,5	1007,44	5,8	7,9	7,8	1	1	1	1	1	1	1	1	1	0	1	-62,156448	273,130891	253,392217	0
14.01.2021	23:58:32	0	0	3,841547	3,23025	56,2788	-0,466	78,582	3,5	1007,6	5,8	7,9	7,8	1	1	1	1	1	1	1	1	1	0	1	-61,451727	273,251884	254,656444	0
14.01.2021	23:58:33	0	0	2,824667	3,31725	65,1024	-0,464	78,626	3,5	1007,76	5,8	8	7,8	1	1	1	1	1	1	1	1	1	0	1	-62,367865	273,15645	253,298928	0
14.01.2021	23:58:34	0	0	4,632453	3,21675	55,5444	-0,462	78,64	3,5	1007,48	5,8	7,9	7,8	1	1	1	1	1	1	1	1	1	0	1	-59,689922	273,112454	255,773547	0
14.01.2021	23:58:35	0	0	4,180532	2,91525	51,7392	-0,462	78,669	3,5	1007,6	5,8	7,9	7,7	1	1	1	1	1	1	1	1	1	0	1	-62,508809	273,143666	253,098896	0
14.01.2021	23:58:36	0	0	3,276613	2,7375	48,5208	-0,459	78,694	3,5	1007,42	5,8	7,9	7,8	1	1	1	1	1	1	1	1	1	0	1	-60,112755	273,223347	255,863382	0
14.01.2021	23:58:37	0	0	4,293493	2,6745	54,1044	-0,465	78,702	3,5	1007,58	5,8	7,9	7,8	1	1	1	1	1	1	1	1	1	0	1	-59,408034	273,291909	256,885384	0
14.01.2021	23:58:38	0	0	3,3896	2,661	46,5984	-0,462	78,718	3,5	1007,74	5,8	7,9	7,8	1	1	1	1	1	1	1	1	1	0	1	-58,914729	273,226199	257,074601	0
14.01.2021	23:58:39	0	0	2,71168	2,6925	61,7976	-0,459	78,734	3,5	1007,82	5,8	7,9	7,8	1	1	1	1	1	1	1	1	1	0	1	-63,988724	273,108201	251,455099	0
14.01.2021	23:58:40	0	0	4,74544	2,85525	52,5204	-0,462	78,72	3,5	1007,66	5,8	7,9	7,8	1	1	1	1	1	1	1	1	1	0	1	-59,901339	273,190581	255,923254	0
14.01.2021	23:58:41	0	0	3,05064	2,91375	59,1084	-0,457	78,751	3,5	1007,54	5,8	7,9	7,8	1	1	1	1	1	1	1	1	1	0	1	-61,804087	273,290478	254,482706	0
14.01.2021	23:58:42	0	0	4,293519	2,7405	60,552	-0,464	78,754	3,5	1007,64	5,8	7,9	7,7	1	1	1	1	1	1	1	1	1	0	1	-66,314306	273,182042	249,470805	0
14.01.2021	23:58:43	0	0	3,72856	2,45475	66,6468	-0,465	78,757	3,5	1007,62	5,8	7,9	7,8	1	1	1	1	1	1	1	1	1	0	1	-58,562368	273,115289	256,914202	0
14.01.2021	23:58:44	0	0	2,937653	2,44275	60,9408	-0,462	78,749	3,5	1007,8	5,8	7,9	7,8	1	1	1	1	1	1	1	1	1	0	1	-61,028894	273,229051	254,973632	0
14.01.2021	23:58:45	0	0	2,937653	2,631	61,3188	-0,458	78,76	3,5	1007,74	5,8	7,9	7,8	1	1	1	1	1	1	1	1	1	0	1	-60,324172	273,118125	255,165501	0
14.01.2021	23:58:46	0	0	4,632453	2,904	66,5388	-0,461	78,776	3,5	1007,7	5,8	7,9	7,8	1	1	1	1	1	1	1	1	1	0	1	-63,706836	273,247601	252,381515	0
14.01.2021	23:58:47	0	0	2,37272	2,9625	57,0456	-0,464	78,757	3,5	1007,78	5,8	7,9	7,8	1	1	1	1	1	1	1	1	1	0	1	-62,931642	273,29334	253,3684	0
14.01.2021	23:58:48	0	0	4,293493	2,90775	61,6752	-0,459	78,771	3,5	1007,76	5,8	7,9	7,8	1	1	1	1	1	1	1	1	1	0	1	-65,116279	273,220495	250,846668	0
14.01.2021	23:58:49	0	0	4,858427	2,769	68,0328	-0,462	78,771	3,5	1007,7	5,8	7,9	7,8	1	1	1	1	1	1	1	1	1	0	1	-58,844257	273,129473	256,697852	0
14.01.2021	23:58:50	0	0	4,293519	2,76525	80,5284	-0,463	78,765	3,5	1007,68	5,8	7,9	7,7	1	1	1	1	1	1	1	1	1	0	1	-60,042283	273,217644	255,907476	0
14.01.2021	23:58:51	0	0	3,502587	2,655	59,8716	-0,463	78,758	3,5	1007,5	5,8	7,9	7,8	1	1	1	1	1	1	1	1	1	0	1	-63,002114	273,112454	252,461355	0
14.01.2021	23:58:52	0	0	3,841547	2,4255	55,9332	-0,462	78,76	3,5	1007,7	5,8	7,9	7,8	1	1	1	1	1	1	1	1	1	0	1	-61,522199	273,223347	254,453939	0
14.01.2021	23:58:53	0	0	3,502587	2,3775	49,968	-0,462	78,746	3,5	1007,44	5,8	7,9	7,8	1	1	1	1	1	1	1	1	1	0	1	-58,280479	273,157871	257,392882	0
14.01.2021	23:58:54	0	0	2,824684	2,406	51,0624	-0,458	78,757	3,5	1007,82	5,8	7,9	7,7	1	1	1	1	1	1	1	1	1	0	1	-61,592671	273,123798	253,923215	0
14.01.2021	23:58:55	0	0	2,937671	2,4675	41,5728	-0,452	78,753	3,5	1007,72	5,8	7,9	7,7	1	1	1	1	1	1	1	1	1	0	1	-62,720226	273,209094	253,189984	0
14.01.2021	23:58:56	0	0	2,937653	2,4825	51,75	-0,459	78,749	3,5	1007,48	5,8	7,9	7,8	1	1	1	1	1	1	1	1	1	0	1	-61,169838	273,253312	254,944941	0
14.01.2021	23:58:57	0	0	2,485707	2,57175	59,1228	-0,455	78,743	3,5	1007,7	5,8	7,9	7,8	1	1	1	1	1	1	1	1	1	0	1	-66,243834	273,283325	250,009849	0
14.01.2021	23:58:58	0	0	2,71168	2,60475	48,1356	-0,458	78,742	3,5	1007,54	5,8	7,9	7,8	1	1	1	1	1	1	1	1	1	0	1	-58,562368	273,139407	257,025652	0
14.01.2021	23:58:59	0	0	3,615573	2,619	61,704	-0,461	78,731	3,5	1007,68	5,8	7,9	7,8	1	1	1	1	1	1	1	1	1	0	1	-63,636364	273,227625	252,359564	0
14.01.2021	23:59:00	0	0	4,74544	2,8485	75,2436	-0,46	78,711	3,5	1007,8	5,8	7,9	7,8	1	1	1	1	1	1	1	1	1	0	1	-61,451727	273,289047	254,828443	0
14.01.2021	23:59:01	0	0	4,74544	2,8485	75,2436	-0,46	78,711	3,5	1007,8	5,8	7,9	7,8	1	1	1	1	1	1	1	1	1	0	1	-62,649753	273,231904	253,365969	0
14.01.2021	23:59:02	0	0	2,937653	2,94225	67,752	-0,457	78,707	3,5	1007,7	5,8	7,9	7,8	1	1	1	1	1	1	1	1	1	0	1	-61,522199	273,139407	254,065821	0
14.01.2021	23:59:03	0	0	4,06752	3	63,4824	-0,457	78,694	3,5	1007,66	5,8	7,9	7,8	1	1	1	1	1	1	1	1	1	0	1	-63,354475	273,123798	252,161411	0
14.01.2021	23:59:04	0	0	3,954557	2,9535	68,0184	-0,456	78,706	3,5	1007,82	5,8	7,9	7,7	1	1	1	1	1	1	1	1	1	0	1	-63,354475	273,283325	252,899207	0
14.01.2021	23:59:05	0	0	3,84157	2,85825	73,0836	-0,452	78,725	3,5	1007,82	5,8	7,9	7,7	1	1	1	1	1	1	1	1	1	0	1	-59,267089	273,179197	256,504865	0
14.01.2021	23:59:06	0	0	2,937653	2,68725	63,4968	-0,457	78,716	3,5	1007,64	5,8	7,9	7,8	1	1	1	1	1	1	1	1	1	0	1	-63,84778	273,105367	251,582948	0
14.01.2021	23:59:07	0	0	3,728582	2,634	60,2424	-0,455	78,719	3,5	1007,66	5,8	8	7,7	1	1	1	1	1	1	1	1	1	0	1	-63,284003	273,15645	252,38279	0
14.01.2021	23:59:08	0	0	5,197387	2,628	57,42	-0,457	78,719	3,5	1007,74	5,8	7,9	7,8	1	1	1	1	1	1	1	1	1	0	1	-61,87456	273,274745	254,339409	0
14.01.2021	23:59:09	0	0	2,937671	2,97075	57,528	-0,451	78,715	3,5	1007,7	5,8	7,9	7,7	1	1	1	1	1	1	1	1	1	0	1	-60,465116	273,286186	255,801809	0
14.01.2021	23:59:10	0	0	2,937653	3,1665	61,7004	-0,458	78,709	3,5	1007,66	5,8	7,9	7,8	1	1	1	1	1	1	1	1	1	0	1	-61,169838	273,259025	254,971378	0
14.01.2021	23:59:11	0	0	4,40648	3,2085	68,7744	-0,461	78,696	3,5	1007,62	5,8	8	7,8	1	1	1	1	1	1	1	1	1	0	1	-64,341085	273,289047	251,939085	0
14.01.2021	23:59:12	0	0	4,519467	3,1095	66,222	-0,453	78,707	3,5	1007,68	5,8	7,9	7,8	1	1	1	1	1	1	1	1	1	0	1	-65,045807	273,201971	250,831462	0
14.01.2021	23:59:13	0	0	3,615573	3,04125	73,9296	-0,453	78,686	3,5	1007,62	5,8	7,9	7,8	1	1	1	1	1	1	1	1	1	0	1	-62,156448	273,299065	254,170098	0
14.01.2021	23:59:14	0	0	2,937653	3,15375	66,2076	-0,457	78,701	3,5	1007,72	5,8	7,9	7,8	1	1	1	1	1	1	1	1	1	0	1	-59,055673	273,209094	256,854537	0
14.01.2021	23:59:15	0	0	4,632453	3,537	69,1452	-0,456	78,698	3,5	1007,64	5,8	7,9	7,8	1	1	1	1	1	1	1	1	1	0	1	-62,22692	273,301928	254,112882	0
14.01.2021	23:59:16	0	0	3,72856	3,45	56,3076	-0,453	78,691	3,5	1007,78	5,8	7,9	7,8	1	1	1	1	1	1	1	1	1	0	1	-64,270613	273,200547	251,600069	0
14.01.2021	23:59:17	0	0	4,06752	3,32025	62,0496	-0,455	78,681	3,5	1007,68	5,8	7,9	7,8	1	1	1	1	1	1	1	1	1	0	1	-62,085976	273,130891	253,462689	0
14.01.2021	23:59:18	0	0	2,598709	3,21675	48,8304	-0,459	78,676	3,5	1007,68	5,8	7,9	7,7	1	1	1	1	1	1	1	1	1	0	1	-60,535588	273,23333	255,486734	0
14.01.2021	23:59:19	0	0	3,05064	3,00225	58,8636	-0,456	78,68	3,5	1007,6	5,8	7,9	7,8	1	1	1	1	1	1	1	1	1	0	1	-63,84778	273,299065	252,478766	0
14.01.2021	23:59:20	0	0	2,71168	3,0375	58,8564	-0,449	78,682	3,5	1007,84	5,8	7,9	7,8	1	1	1	1	1	1	1	1	1	0	1	-62,367865	273,164977	253,338346	0
14.01.2021	23:59:21	0	0	3,84157	3,17625	56,2824	-0,451	78,691	3,5	1007,68	5,8	7,9	7,7	1	1	1	1	1	1	1	1	1	0	1	-61,310782	273,135149	254,257558	0
14.01.2021	23:59:22	0	0	2,711696	3,297	57,4092	-0,457	78,699	3,5	1007,76	5,8	7,9	7,7	1	1	1	1	1	1	1	1	1	0	1	-59,267089	273,260454	256,880738	0
14.01.2021	23:59:23	0	0	2,711696	3,27375	53,3628	-0,455	78,721	3,5	1007,7	5,8	7,9	7,7	1	1	1	1	1	1	1	1	1	0	1	-62,86117	273,13231	252,694053	0
14.01.2021	23:59:24	0	0	3,05064	3,12675	53,766	-0,458	78,731	3,5	1007,7	5,8	7,9	7,8	1	1	1	1	1	1	1	1	1	0	1	-64,129669	273,16782	251,589686	0
14.01.2021	23:59:25	0	0	2,937653	3,14775	53,7264	-0,456	78,74	3,5	1007,7	5,8	7,9	7,8	1	1	1	1	1	1	1	1	1	0	1	-63,284003	273,284755	252,9763	0
14.01.2021	23:59:26	0	0	3,615573	3,135	57,4128	-0,456	78,748	3,5	1007,66	5,8	7,9	7,8	1	1	1	1	1	1	1	1	1	0	1	-59,126145	273,334885	257,366271	0
14.01.2021	23:59:27	0	0	3,502587	3,13125	54,4932	-0,46	78,755	3,5	1007,7	5,8	7,9	7,8	1	1	1	1	1	1	1	1	1	0	1	-62,790698	273,294771	253,51597	0
14.01.2021	23:59:28	0	0	5,423393	3,09825	52,1244	-0,454	78,766	3,5	1007,62	5,8	7,9	7,7	1	1	1	1	1	1	1	1	1	0	1	-61,099366	273,270457	255,094754	0
14.01.2021	23:59:29	0	0	4,745468	3,051	66,5352	-0,455	78,766	3,5	1007,7	5,8	7,9	7,7	1	1	1	1	1	1	1	1	1	0	1	-67,300916	273,329149	249,164936	0
14.01.2021	23:59:30	0	0	2,146747	3,0435	58,86	-0,45	78,766	3,5	1007,64	5,7	7,9	7,8	1	1	1	1	1	1	1	1	1	0	1	-66,737139	273,260454	249,410688	0
14.01.2021	23:59:31	0	0	2,824667	2,96025	52,596	-0,45	78,762	3,5	1007,76	5,8	8	7,8	1	1	1	1	1	1	1	1	1	0	1	-63,777308	273,150767	251,863218	0
14.01.2021	23:59:32	0	0	2,485722	2,85375	48,8196	-0,453	78,761	3,5	1007,64	5,8	7,9	7,7	1	1	1	1	1	1	1	1	1	0	1	-63,072586	273,269027	253,114919	0
14.01.2021	23:59:33	0	0	2,824684	2,76	50,3064	-0,448	78,776	3,5	1007,72	5,8	7,9	7,7	1	1	1	1	1	1	1	1	1	0	1	-63,143058	273,340622	253,375932	0
14.01.2021	23:59:34	0	0	5,197418	2,805	51,7428	-0,453	78,773	3,5	1007,76	5,8	8	7,7	1	1	1	1	1	1	1	1	1	0	1	-66,878083	273,257597	249,256523	0
14.01.2021	23:59:35	0	0	4,06752	2,79675	49,2084	-0,452	78,782	3,5	1007,74	5,8	8	7,8	1	1	1	1	1	1	1	1	1	0	1	-63,777308	273,323415	252,661989	0
14.01.2021	23:59:36	0	0	2,37272	2,9145	55,9584	-0,455	78,781	3,5	1007,64	5,8	7,9	7,8	1	1	1	1	1	1	1	1	1	0	1	-63,002114	273,226199	252,987216	0
14.01.2021	23:59:37	0	0	4,971443	2,871	41,4756	-0,454	78,774	3,5	1007,76	5,8	7,9	7,7	1	1	1	1	1	1	1	1	1	0	1	-66,314306	273,336319	250,184753	0
14.01.2021	23:59:38	0	0	3,841547	2,80575	51,4548	-0,448	78,757	3,5	1007,6	5,8	8	7,8	1	1	1	1	1	1	1	1	1	0	1	-65,961945	273,266169	250,212332	0
14.01.2021	23:59:39	0	0	4,858456	2,89575	51,7356	-0,449	78,759	3,5	1007,76	5,8	8	7,7	1	1	1	1	1	1	1	1	1	0	1	-61,522199	273,323415	254,917098	0
14.01.2021	23:59:40	0	0	4,06752	2,9655	57,0384	-0,458	78,741	3,5	1007,56	5,8	8	7,8	1	1	1	1	1	1	1	1	1	0	1	-64,129669	273,21907	251,826684	0
14.01.2021	23:59:41	0	0	4,74544	3,01575	51,7536	-0,459	78,742	3,5	1007,6	5,8	7,9	7,8	1	1	1	1	1	1	1	1	1	0	1	-65,257223	273,336319	251,241836	0
14.01.2021	23:59:42	0	0	4,745468	2,9055	49,9428	-0,452	78,742	3,5	1007,72	5,8	7,9	7,7	1	1	1	1	1	1	1	1	1	0	1	-63,636364	273,21907	252,319989	0
14.01.2021	23:59:43	0	0	4,632481	2,84625	53,748	-0,454	78,739	3,5	1007,7	5,8	7,9	7,7	1	1	1	1	1	1	1	1	1	0	1	-60,112755	273,33345	256,373019	0
14.01.2021	23:59:44	0	0	3,3896	2,73825	53,3556	-0,449	78,723	3,5	1007,56	5,8	7,9	7,8	1	1	1	1	1	1	1	1	1	0	1	-63,495419	273,183465	252,29627	0
14.01.2021	23:59:45	0	0	3,72856	2,502	50,3172	-0,457	78,704	3,5	1007,62	5,8	7,9	7,8	1	1	1	1	1	1	1	1	1	0	1	-58,069063	273,18062	257,70947	0
14.01.2021	23:59:46	0	0	4,632453	2,2875	38,4156	-0,456	78,692	3,5	1007,82	5,8	8	7,8	1	1	1	1	1	1	1	1	1	0	1	-60,535588	273,187734	255,275841	0
14.01.2021	23:59:47	0	0	3,163627	2,3355	57,0312	-0,455	78,676	3,5	1007,66	5,8	7,9	7,8	1	1	1	1	1	1	1	1	1	0	1	-64,341085	273,294771	251,965582	0
14.01.2021	23:59:48	0	0	3,3896	2,3055	40,9968	-0,448	78,711	3,5	1008	5,8	7,9	7,8	1	1	1	1	1	1	1	1	1	0	1	-63,636364	273,326282	252,81621	0
14.01.2021	23:59:49	0	0	2,824667	2,3535	45,864	-0,455	78,681	3,5	1007,74	5,8	7,9	7,8	1	1	1	1	1	1	1	1	1	0	1	-63,495419	273,201971	252,381849	0
14.01.2021	23:59:50	0	0	3,38962	2,55	39,5676	-0,46	78,654	3,5	1007,66	5,8	7,9	7,7	1	1	1	1	1	1	1	1	1	0	1	-59,830867	273,160713	255,855632	0
14.01.2021	23:59:51	0	0	4,74544	2,76975	45,54	-0,455	78,666	3,5	1007,62	5,8	8	7,8	1	1	1	1	1	1	1	1	1	0	1	-61,945032	273,299065	254,381515	0
14.01.2021	23:59:52	0	0	4,406506	3,1245	56,2788	-0,453	78,651	3,5	1007,74	5,8	7,9	7,7	1	1	1	1	1	1	1	1	1	0	1	-59,478506	273,33345	257,007268	0
14.01.2021	23:59:53	0	0	4,971413	3,438	48,1896	-0,454	78,631	3,5	1007,64	5,8	7,9	7,8	1	1	1	1	1	1	1	1	1	0	1	-64,763918	273,220495	251,199029	0
14.01.2021	23:59:54	0	0	4,971413	3,801	55,9332	-0,452	78,638	3,5	1007,96	5,8	7,9	7,8	1	1	1	1	1	1	1	1	1	0	1	-63,354475	273,337753	253,151227	0
14.01.2021	23:59:55	0	0	4,06752	3,68025	60,5556	-0,458	78,632	3,5	1007,6	5,8	7,9	7,8	1	1	1	1	1	1	1	1	1	0	1	-60,887949	273,199123	254,976147	0
14.01.2021	23:59:56	0	0	4,067544	3,31275	69,8508	-0,45	78,643	3,5	1007,64	5,8	7,9	7,7	1	1	1	1	1	1	1	1	1	0	1	-60,183228	273,326282	256,269346	0
14.01.2021	23:59:57	0	0	2,71168	2,84325	60,2568	-0,449	78,625	3,5	1007,76	5,8	7,9	7,8	1	1	1	1	1	1	1	1	1	0	1	-61,945032	273,277605	254,282172	0
14.01.2021	23:59:58	0	0	4,180507	2,7075	105,516	-0,449	78,633	3,5	1007,84	5,8	7,9	7,8	1	1	1	1	1	1	1	1	1	0	1	-60,747005	273,177775	255,018373	0
14.01.2021	23:59:59	0	0	2,937653	2,41275	47,3688	-0,45	78,626	3,5	1007,8	5,8	7,9	7,8	1	1	1	1	1	1	1	1	1	0	1	-59,337562	273,271886	256,863174	0
